<?xml version="1.0" encoding="UTF-8" standalone="no" ?>
<gpx xmlns="http://www.topografix.com/GPX/1/1" xmlns:xsi="http://www.w3.org/2001/XMLSchema-instance" xsi:schemaLocation="http://www.topografix.com/GPX/1/1 http://www.topografix.com/GPX/1/1/gpx.xsd" version="1.1" creator="VisuGPX - https://www.visugpx.com">
  <metadata>
    <name>Cyclotourisme 2026 : de nancy à Dinant</name>
  </metadata>
  <trk>
    <name><![CDATA[2026-08-05 08:13]]></name>
    <desc><![CDATA[]]></desc>
    <extensions>
      <line xmlns="http://www.topografix.com/GPX/gpx_style/0/2">
        <color>FF0000</color>
        <opacity>0.78</opacity>
        <width>3</width>
      </line>
    </extensions>
    <trkseg>
      <trkpt lat="48.61982" lon="6.36645">
        <ele>230.64</ele>
        <time>2026-08-05T06:13:05.679Z</time>
      </trkpt>
      <trkpt lat="48.61987" lon="6.36633">
        <ele>230.64</ele>
        <time>2026-08-05T06:13:35.670Z</time>
      </trkpt>
      <trkpt lat="48.61998" lon="6.36623">
        <ele>230.64</ele>
        <time>2026-08-05T06:13:40.682Z</time>
      </trkpt>
      <trkpt lat="48.62013" lon="6.36615">
        <ele>230.64</ele>
        <time>2026-08-05T06:13:46.665Z</time>
      </trkpt>
      <trkpt lat="48.62019" lon="6.36593">
        <ele>230.05</ele>
        <time>2026-08-05T06:13:51.682Z</time>
      </trkpt>
      <trkpt lat="48.62014" lon="6.36554">
        <ele>230.04</ele>
        <time>2026-08-05T06:13:57.668Z</time>
      </trkpt>
      <trkpt lat="48.62007" lon="6.36511">
        <ele>230.04</ele>
        <time>2026-08-05T06:14:03.700Z</time>
      </trkpt>
      <trkpt lat="48.62001" lon="6.36474">
        <ele>230.04</ele>
        <time>2026-08-05T06:14:09.681Z</time>
      </trkpt>
      <trkpt lat="48.61999" lon="6.36442">
        <ele>228.96</ele>
        <time>2026-08-05T06:14:14.683Z</time>
      </trkpt>
      <trkpt lat="48.61995" lon="6.36408">
        <ele>228.95</ele>
        <time>2026-08-05T06:14:19.686Z</time>
      </trkpt>
      <trkpt lat="48.61992" lon="6.36367">
        <ele>228.95</ele>
        <time>2026-08-05T06:14:25.679Z</time>
      </trkpt>
      <trkpt lat="48.61987" lon="6.36332">
        <ele>228.25</ele>
        <time>2026-08-05T06:14:30.684Z</time>
      </trkpt>
      <trkpt lat="48.61983" lon="6.36292">
        <ele>228.25</ele>
        <time>2026-08-05T06:14:36.683Z</time>
      </trkpt>
      <trkpt lat="48.61999" lon="6.36248">
        <ele>228.25</ele>
        <time>2026-08-05T06:14:42.682Z</time>
      </trkpt>
      <trkpt lat="48.62016" lon="6.362">
        <ele>228.25</ele>
        <time>2026-08-05T06:14:48.681Z</time>
      </trkpt>
      <trkpt lat="48.62032" lon="6.3616">
        <ele>228.25</ele>
        <time>2026-08-05T06:14:53.682Z</time>
      </trkpt>
      <trkpt lat="48.62057" lon="6.3612">
        <ele>228.25</ele>
        <time>2026-08-05T06:14:59.682Z</time>
      </trkpt>
      <trkpt lat="48.62081" lon="6.36084">
        <ele>228.25</ele>
        <time>2026-08-05T06:15:05.685Z</time>
      </trkpt>
      <trkpt lat="48.62108" lon="6.36049">
        <ele>228.25</ele>
        <time>2026-08-05T06:15:11.679Z</time>
      </trkpt>
      <trkpt lat="48.62134" lon="6.36008">
        <ele>228.25</ele>
        <time>2026-08-05T06:15:17.680Z</time>
      </trkpt>
      <trkpt lat="48.62157" lon="6.35975">
        <ele>228.26</ele>
        <time>2026-08-05T06:15:22.681Z</time>
      </trkpt>
      <trkpt lat="48.62176" lon="6.35939">
        <ele>228.26</ele>
        <time>2026-08-05T06:15:27.685Z</time>
      </trkpt>
      <trkpt lat="48.62199" lon="6.359">
        <ele>228.26</ele>
        <time>2026-08-05T06:15:33.680Z</time>
      </trkpt>
      <trkpt lat="48.62219" lon="6.35863">
        <ele>228.26</ele>
        <time>2026-08-05T06:15:39.680Z</time>
      </trkpt>
      <trkpt lat="48.62238" lon="6.35832">
        <ele>228.26</ele>
        <time>2026-08-05T06:15:45.668Z</time>
      </trkpt>
      <trkpt lat="48.62239" lon="6.35802">
        <ele>228.26</ele>
        <time>2026-08-05T06:15:50.680Z</time>
      </trkpt>
      <trkpt lat="48.62249" lon="6.35757">
        <ele>176.98</ele>
        <time>2026-08-05T06:15:56.679Z</time>
      </trkpt>
      <trkpt lat="48.62257" lon="6.35721">
        <ele>172.49</ele>
        <time>2026-08-05T06:16:01.681Z</time>
      </trkpt>
      <trkpt lat="48.62258" lon="6.35675">
        <ele>172.03</ele>
        <time>2026-08-05T06:16:07.697Z</time>
      </trkpt>
      <trkpt lat="48.62257" lon="6.35635">
        <ele>173.46</ele>
        <time>2026-08-05T06:16:13.708Z</time>
      </trkpt>
      <trkpt lat="48.62254" lon="6.35592">
        <ele>173.61</ele>
        <time>2026-08-05T06:16:19.706Z</time>
      </trkpt>
      <trkpt lat="48.62252" lon="6.3555">
        <ele>174.38</ele>
        <time>2026-08-05T06:16:25.688Z</time>
      </trkpt>
      <trkpt lat="48.62251" lon="6.35505">
        <ele>177.09</ele>
        <time>2026-08-05T06:16:31.672Z</time>
      </trkpt>
      <trkpt lat="48.62251" lon="6.35476">
        <ele>176.09</ele>
        <time>2026-08-05T06:16:37.695Z</time>
      </trkpt>
      <trkpt lat="48.62252" lon="6.35439">
        <ele>174.49</ele>
        <time>2026-08-05T06:16:43.694Z</time>
      </trkpt>
      <trkpt lat="48.62255" lon="6.35404">
        <ele>174.47</ele>
        <time>2026-08-05T06:16:49.695Z</time>
      </trkpt>
      <trkpt lat="48.62261" lon="6.35376">
        <ele>175.74</ele>
        <time>2026-08-05T06:16:55.678Z</time>
      </trkpt>
      <trkpt lat="48.62272" lon="6.35343">
        <ele>173.64</ele>
        <time>2026-08-05T06:17:01.680Z</time>
      </trkpt>
      <trkpt lat="48.62281" lon="6.35294">
        <ele>210.92</ele>
        <time>2026-08-05T06:17:07.702Z</time>
      </trkpt>
      <trkpt lat="48.62291" lon="6.35263">
        <ele>222.07</ele>
        <time>2026-08-05T06:17:13.702Z</time>
      </trkpt>
      <trkpt lat="48.62308" lon="6.35226">
        <ele>221.97</ele>
        <time>2026-08-05T06:17:19.710Z</time>
      </trkpt>
      <trkpt lat="48.62323" lon="6.35194">
        <ele>222.17</ele>
        <time>2026-08-05T06:17:25.736Z</time>
      </trkpt>
      <trkpt lat="48.6233" lon="6.35164">
        <ele>222.4</ele>
        <time>2026-08-05T06:17:31.481Z</time>
      </trkpt>
      <trkpt lat="48.62343" lon="6.35124">
        <ele>222.47</ele>
        <time>2026-08-05T06:17:36.680Z</time>
      </trkpt>
      <trkpt lat="48.62355" lon="6.35091">
        <ele>222.57</ele>
        <time>2026-08-05T06:17:41.681Z</time>
      </trkpt>
      <trkpt lat="48.62369" lon="6.35057">
        <ele>222.57</ele>
        <time>2026-08-05T06:17:47.683Z</time>
      </trkpt>
      <trkpt lat="48.62379" lon="6.3501">
        <ele>222.57</ele>
        <time>2026-08-05T06:17:53.679Z</time>
      </trkpt>
      <trkpt lat="48.62387" lon="6.34979">
        <ele>222.57</ele>
        <time>2026-08-05T06:17:58.682Z</time>
      </trkpt>
      <trkpt lat="48.62394" lon="6.34956">
        <ele>222.57</ele>
        <time>2026-08-05T06:18:04.681Z</time>
      </trkpt>
      <trkpt lat="48.62409" lon="6.34951">
        <ele>222.58</ele>
        <time>2026-08-05T06:18:09.683Z</time>
      </trkpt>
      <trkpt lat="48.62436" lon="6.34941">
        <ele>222.58</ele>
        <time>2026-08-05T06:18:15.680Z</time>
      </trkpt>
      <trkpt lat="48.62467" lon="6.34928">
        <ele>222.58</ele>
        <time>2026-08-05T06:18:21.676Z</time>
      </trkpt>
      <trkpt lat="48.62499" lon="6.3491">
        <ele>222.58</ele>
        <time>2026-08-05T06:18:27.676Z</time>
      </trkpt>
      <trkpt lat="48.62534" lon="6.34888">
        <ele>222.58</ele>
        <time>2026-08-05T06:18:33.677Z</time>
      </trkpt>
      <trkpt lat="48.62563" lon="6.34872">
        <ele>222.58</ele>
        <time>2026-08-05T06:18:38.677Z</time>
      </trkpt>
      <trkpt lat="48.6259" lon="6.34856">
        <ele>222.58</ele>
        <time>2026-08-05T06:18:43.701Z</time>
      </trkpt>
      <trkpt lat="48.62617" lon="6.34838">
        <ele>222.58</ele>
        <time>2026-08-05T06:18:49.698Z</time>
      </trkpt>
      <trkpt lat="48.62623" lon="6.34828">
        <ele>215.98</ele>
        <time>2026-08-05T06:19:00.668Z</time>
      </trkpt>
      <trkpt lat="48.62641" lon="6.34806">
        <ele>215.68</ele>
        <time>2026-08-05T06:19:05.677Z</time>
      </trkpt>
      <trkpt lat="48.62669" lon="6.3478">
        <ele>215.68</ele>
        <time>2026-08-05T06:19:11.682Z</time>
      </trkpt>
      <trkpt lat="48.6269" lon="6.34754">
        <ele>214.09</ele>
        <time>2026-08-05T06:19:17.713Z</time>
      </trkpt>
      <trkpt lat="48.62712" lon="6.34735">
        <ele>213.98</ele>
        <time>2026-08-05T06:19:23.672Z</time>
      </trkpt>
      <trkpt lat="48.62749" lon="6.34729">
        <ele>213.98</ele>
        <time>2026-08-05T06:19:29.666Z</time>
      </trkpt>
      <trkpt lat="48.62777" lon="6.34731">
        <ele>213.98</ele>
        <time>2026-08-05T06:19:34.675Z</time>
      </trkpt>
      <trkpt lat="48.62801" lon="6.34738">
        <ele>213.99</ele>
        <time>2026-08-05T06:19:39.679Z</time>
      </trkpt>
      <trkpt lat="48.62835" lon="6.34749">
        <ele>213.99</ele>
        <time>2026-08-05T06:19:45.675Z</time>
      </trkpt>
      <trkpt lat="48.62853" lon="6.34747">
        <ele>213.99</ele>
        <time>2026-08-05T06:19:50.677Z</time>
      </trkpt>
      <trkpt lat="48.6287" lon="6.34732">
        <ele>213.99</ele>
        <time>2026-08-05T06:19:55.738Z</time>
      </trkpt>
      <trkpt lat="48.6289" lon="6.3472">
        <ele>213.99</ele>
        <time>2026-08-05T06:20:01.681Z</time>
      </trkpt>
      <trkpt lat="48.62902" lon="6.34712">
        <ele>213.99</ele>
        <time>2026-08-05T06:20:07.707Z</time>
      </trkpt>
      <trkpt lat="48.62913" lon="6.34706">
        <ele>215.61</ele>
        <time>2026-08-05T06:27:24.665Z</time>
      </trkpt>
      <trkpt lat="48.62924" lon="6.34696">
        <ele>215.59</ele>
        <time>2026-08-05T06:27:30.659Z</time>
      </trkpt>
      <trkpt lat="48.62936" lon="6.34688">
        <ele>215.59</ele>
        <time>2026-08-05T06:27:35.668Z</time>
      </trkpt>
      <trkpt lat="48.62951" lon="6.34674">
        <ele>215.59</ele>
        <time>2026-08-05T06:27:41.664Z</time>
      </trkpt>
      <trkpt lat="48.62949" lon="6.34631">
        <ele>216.81</ele>
        <time>2026-08-05T06:27:47.673Z</time>
      </trkpt>
      <trkpt lat="48.6294" lon="6.34596">
        <ele>216.89</ele>
        <time>2026-08-05T06:27:52.674Z</time>
      </trkpt>
      <trkpt lat="48.62928" lon="6.34556">
        <ele>216.89</ele>
        <time>2026-08-05T06:27:58.675Z</time>
      </trkpt>
      <trkpt lat="48.62917" lon="6.34517">
        <ele>216.89</ele>
        <time>2026-08-05T06:28:04.660Z</time>
      </trkpt>
      <trkpt lat="48.62908" lon="6.34484">
        <ele>216.89</ele>
        <time>2026-08-05T06:28:09.681Z</time>
      </trkpt>
      <trkpt lat="48.62898" lon="6.34446">
        <ele>216.89</ele>
        <time>2026-08-05T06:28:15.676Z</time>
      </trkpt>
      <trkpt lat="48.62882" lon="6.34407">
        <ele>216.89</ele>
        <time>2026-08-05T06:28:21.674Z</time>
      </trkpt>
      <trkpt lat="48.62868" lon="6.34369">
        <ele>216.89</ele>
        <time>2026-08-05T06:28:26.675Z</time>
      </trkpt>
      <trkpt lat="48.62856" lon="6.3433">
        <ele>216.89</ele>
        <time>2026-08-05T06:28:31.735Z</time>
      </trkpt>
      <trkpt lat="48.62852" lon="6.34281">
        <ele>216.89</ele>
        <time>2026-08-05T06:28:37.725Z</time>
      </trkpt>
      <trkpt lat="48.62857" lon="6.34235">
        <ele>216.89</ele>
        <time>2026-08-05T06:28:43.730Z</time>
      </trkpt>
      <trkpt lat="48.62866" lon="6.34195">
        <ele>216.89</ele>
        <time>2026-08-05T06:28:49.726Z</time>
      </trkpt>
      <trkpt lat="48.62875" lon="6.34156">
        <ele>216.9</ele>
        <time>2026-08-05T06:28:55.733Z</time>
      </trkpt>
      <trkpt lat="48.62886" lon="6.34121">
        <ele>216.9</ele>
        <time>2026-08-05T06:29:01.743Z</time>
      </trkpt>
      <trkpt lat="48.62895" lon="6.34082">
        <ele>216.9</ele>
        <time>2026-08-05T06:29:07.728Z</time>
      </trkpt>
      <trkpt lat="48.62903" lon="6.34051">
        <ele>216.9</ele>
        <time>2026-08-05T06:29:12.746Z</time>
      </trkpt>
      <trkpt lat="48.62914" lon="6.34014">
        <ele>161.05</ele>
        <time>2026-08-05T06:29:18.664Z</time>
      </trkpt>
      <trkpt lat="48.62922" lon="6.33981">
        <ele>221.92</ele>
        <time>2026-08-05T06:29:23.667Z</time>
      </trkpt>
      <trkpt lat="48.62928" lon="6.33934">
        <ele>222.9</ele>
        <time>2026-08-05T06:29:29.673Z</time>
      </trkpt>
      <trkpt lat="48.62934" lon="6.33902">
        <ele>222.9</ele>
        <time>2026-08-05T06:29:34.678Z</time>
      </trkpt>
      <trkpt lat="48.62944" lon="6.33865">
        <ele>222.9</ele>
        <time>2026-08-05T06:29:39.683Z</time>
      </trkpt>
      <trkpt lat="48.62953" lon="6.33816">
        <ele>222.9</ele>
        <time>2026-08-05T06:29:45.677Z</time>
      </trkpt>
      <trkpt lat="48.62962" lon="6.33775">
        <ele>222.9</ele>
        <time>2026-08-05T06:29:51.676Z</time>
      </trkpt>
      <trkpt lat="48.62971" lon="6.33741">
        <ele>222.9</ele>
        <time>2026-08-05T06:29:56.678Z</time>
      </trkpt>
      <trkpt lat="48.62981" lon="6.337">
        <ele>222.9</ele>
        <time>2026-08-05T06:30:01.695Z</time>
      </trkpt>
      <trkpt lat="48.62991" lon="6.33647">
        <ele>222.9</ele>
        <time>2026-08-05T06:30:07.730Z</time>
      </trkpt>
      <trkpt lat="48.63005" lon="6.33596">
        <ele>222.91</ele>
        <time>2026-08-05T06:30:13.733Z</time>
      </trkpt>
      <trkpt lat="48.63017" lon="6.33544">
        <ele>222.91</ele>
        <time>2026-08-05T06:30:19.735Z</time>
      </trkpt>
      <trkpt lat="48.63028" lon="6.33496">
        <ele>222.91</ele>
        <time>2026-08-05T06:30:25.739Z</time>
      </trkpt>
      <trkpt lat="48.63038" lon="6.33459">
        <ele>222.91</ele>
        <time>2026-08-05T06:30:31.713Z</time>
      </trkpt>
      <trkpt lat="48.63048" lon="6.33419">
        <ele>222.91</ele>
        <time>2026-08-05T06:30:37.731Z</time>
      </trkpt>
      <trkpt lat="48.63058" lon="6.33382">
        <ele>222.91</ele>
        <time>2026-08-05T06:30:43.732Z</time>
      </trkpt>
      <trkpt lat="48.63067" lon="6.33344">
        <ele>222.91</ele>
        <time>2026-08-05T06:30:49.731Z</time>
      </trkpt>
      <trkpt lat="48.63077" lon="6.33303">
        <ele>168.31</ele>
        <time>2026-08-05T06:30:55.736Z</time>
      </trkpt>
      <trkpt lat="48.63088" lon="6.33259">
        <ele>166.76</ele>
        <time>2026-08-05T06:31:01.737Z</time>
      </trkpt>
      <trkpt lat="48.63096" lon="6.33218">
        <ele>166.74</ele>
        <time>2026-08-05T06:31:07.733Z</time>
      </trkpt>
      <trkpt lat="48.63107" lon="6.33175">
        <ele>168.22</ele>
        <time>2026-08-05T06:31:13.728Z</time>
      </trkpt>
      <trkpt lat="48.63117" lon="6.33125">
        <ele>167.21</ele>
        <time>2026-08-05T06:31:19.732Z</time>
      </trkpt>
      <trkpt lat="48.63129" lon="6.33076">
        <ele>166.59</ele>
        <time>2026-08-05T06:31:25.734Z</time>
      </trkpt>
      <trkpt lat="48.63139" lon="6.33026">
        <ele>165.6</ele>
        <time>2026-08-05T06:31:31.730Z</time>
      </trkpt>
      <trkpt lat="48.6315" lon="6.32969">
        <ele>163.28</ele>
        <time>2026-08-05T06:31:37.729Z</time>
      </trkpt>
      <trkpt lat="48.63162" lon="6.32914">
        <ele>163.34</ele>
        <time>2026-08-05T06:31:43.734Z</time>
      </trkpt>
      <trkpt lat="48.63174" lon="6.32865">
        <ele>162.99</ele>
        <time>2026-08-05T06:31:49.732Z</time>
      </trkpt>
      <trkpt lat="48.63183" lon="6.32822">
        <ele>164</ele>
        <time>2026-08-05T06:31:55.735Z</time>
      </trkpt>
      <trkpt lat="48.6319" lon="6.32789">
        <ele>165.02</ele>
        <time>2026-08-05T06:32:01.732Z</time>
      </trkpt>
      <trkpt lat="48.63191" lon="6.32759">
        <ele>164.5</ele>
        <time>2026-08-05T06:32:07.730Z</time>
      </trkpt>
      <trkpt lat="48.63202" lon="6.32713">
        <ele>164.13</ele>
        <time>2026-08-05T06:32:13.730Z</time>
      </trkpt>
      <trkpt lat="48.63211" lon="6.32667">
        <ele>164.32</ele>
        <time>2026-08-05T06:32:19.728Z</time>
      </trkpt>
      <trkpt lat="48.63223" lon="6.32624">
        <ele>164.18</ele>
        <time>2026-08-05T06:32:25.736Z</time>
      </trkpt>
      <trkpt lat="48.63232" lon="6.32582">
        <ele>164.88</ele>
        <time>2026-08-05T06:32:31.735Z</time>
      </trkpt>
      <trkpt lat="48.63241" lon="6.32547">
        <ele>165.21</ele>
        <time>2026-08-05T06:32:37.733Z</time>
      </trkpt>
      <trkpt lat="48.63251" lon="6.32509">
        <ele>165.61</ele>
        <time>2026-08-05T06:32:43.727Z</time>
      </trkpt>
      <trkpt lat="48.63264" lon="6.32461">
        <ele>164.65</ele>
        <time>2026-08-05T06:32:49.730Z</time>
      </trkpt>
      <trkpt lat="48.63275" lon="6.32412">
        <ele>163.8</ele>
        <time>2026-08-05T06:32:55.737Z</time>
      </trkpt>
      <trkpt lat="48.63292" lon="6.32368">
        <ele>162.74</ele>
        <time>2026-08-05T06:33:01.736Z</time>
      </trkpt>
      <trkpt lat="48.63312" lon="6.32331">
        <ele>162.43</ele>
        <time>2026-08-05T06:33:07.725Z</time>
      </trkpt>
      <trkpt lat="48.63325" lon="6.32293">
        <ele>162.13</ele>
        <time>2026-08-05T06:33:13.734Z</time>
      </trkpt>
      <trkpt lat="48.63333" lon="6.32262">
        <ele>161.89</ele>
        <time>2026-08-05T06:33:19.732Z</time>
      </trkpt>
      <trkpt lat="48.63341" lon="6.32223">
        <ele>163.37</ele>
        <time>2026-08-05T06:33:25.737Z</time>
      </trkpt>
      <trkpt lat="48.63349" lon="6.32184">
        <ele>209.99</ele>
        <time>2026-08-05T06:33:31.712Z</time>
      </trkpt>
      <trkpt lat="48.6336" lon="6.32143">
        <ele>210.73</ele>
        <time>2026-08-05T06:33:37.731Z</time>
      </trkpt>
      <trkpt lat="48.6337" lon="6.32103">
        <ele>210.74</ele>
        <time>2026-08-05T06:33:43.725Z</time>
      </trkpt>
      <trkpt lat="48.63378" lon="6.32075">
        <ele>211.83</ele>
        <time>2026-08-05T06:33:49.726Z</time>
      </trkpt>
      <trkpt lat="48.63387" lon="6.32037">
        <ele>211.84</ele>
        <time>2026-08-05T06:33:55.705Z</time>
      </trkpt>
      <trkpt lat="48.63399" lon="6.31996">
        <ele>211.84</ele>
        <time>2026-08-05T06:34:01.713Z</time>
      </trkpt>
      <trkpt lat="48.63411" lon="6.31958">
        <ele>211.84</ele>
        <time>2026-08-05T06:34:07.730Z</time>
      </trkpt>
      <trkpt lat="48.63422" lon="6.31917">
        <ele>211.84</ele>
        <time>2026-08-05T06:34:13.729Z</time>
      </trkpt>
      <trkpt lat="48.63432" lon="6.31877">
        <ele>211.84</ele>
        <time>2026-08-05T06:34:19.729Z</time>
      </trkpt>
      <trkpt lat="48.63444" lon="6.31836">
        <ele>211.84</ele>
        <time>2026-08-05T06:34:25.714Z</time>
      </trkpt>
      <trkpt lat="48.63455" lon="6.31797">
        <ele>211.84</ele>
        <time>2026-08-05T06:34:31.675Z</time>
      </trkpt>
      <trkpt lat="48.63465" lon="6.31762">
        <ele>211.84</ele>
        <time>2026-08-05T06:34:36.678Z</time>
      </trkpt>
      <trkpt lat="48.63476" lon="6.31718">
        <ele>211.84</ele>
        <time>2026-08-05T06:34:42.678Z</time>
      </trkpt>
      <trkpt lat="48.6349" lon="6.31675">
        <ele>211.84</ele>
        <time>2026-08-05T06:34:48.679Z</time>
      </trkpt>
      <trkpt lat="48.63502" lon="6.31634">
        <ele>211.84</ele>
        <time>2026-08-05T06:34:54.676Z</time>
      </trkpt>
      <trkpt lat="48.63511" lon="6.31599">
        <ele>211.85</ele>
        <time>2026-08-05T06:34:59.679Z</time>
      </trkpt>
      <trkpt lat="48.63521" lon="6.31556">
        <ele>211.85</ele>
        <time>2026-08-05T06:35:05.680Z</time>
      </trkpt>
      <trkpt lat="48.63534" lon="6.3152">
        <ele>211.85</ele>
        <time>2026-08-05T06:35:11.679Z</time>
      </trkpt>
      <trkpt lat="48.63543" lon="6.31487">
        <ele>163.78</ele>
        <time>2026-08-05T06:35:16.683Z</time>
      </trkpt>
      <trkpt lat="48.63551" lon="6.31446">
        <ele>165.44</ele>
        <time>2026-08-05T06:35:22.678Z</time>
      </trkpt>
      <trkpt lat="48.6356" lon="6.31413">
        <ele>212.8</ele>
        <time>2026-08-05T06:35:27.679Z</time>
      </trkpt>
      <trkpt lat="48.63561" lon="6.31376">
        <ele>213.55</ele>
        <time>2026-08-05T06:35:32.682Z</time>
      </trkpt>
      <trkpt lat="48.63566" lon="6.31342">
        <ele>213.55</ele>
        <time>2026-08-05T06:35:37.728Z</time>
      </trkpt>
      <trkpt lat="48.63577" lon="6.31301">
        <ele>213.55</ele>
        <time>2026-08-05T06:35:43.735Z</time>
      </trkpt>
      <trkpt lat="48.63589" lon="6.31261">
        <ele>213.55</ele>
        <time>2026-08-05T06:35:49.730Z</time>
      </trkpt>
      <trkpt lat="48.63604" lon="6.31223">
        <ele>213.55</ele>
        <time>2026-08-05T06:35:55.679Z</time>
      </trkpt>
      <trkpt lat="48.63614" lon="6.31183">
        <ele>213.55</ele>
        <time>2026-08-05T06:36:01.678Z</time>
      </trkpt>
      <trkpt lat="48.63623" lon="6.31151">
        <ele>213.55</ele>
        <time>2026-08-05T06:36:06.681Z</time>
      </trkpt>
      <trkpt lat="48.6363" lon="6.31105">
        <ele>213.55</ele>
        <time>2026-08-05T06:36:12.676Z</time>
      </trkpt>
      <trkpt lat="48.63641" lon="6.3107">
        <ele>213.56</ele>
        <time>2026-08-05T06:36:17.678Z</time>
      </trkpt>
      <trkpt lat="48.63651" lon="6.31025">
        <ele>213.56</ele>
        <time>2026-08-05T06:36:23.681Z</time>
      </trkpt>
      <trkpt lat="48.63663" lon="6.30996">
        <ele>213.56</ele>
        <time>2026-08-05T06:36:28.688Z</time>
      </trkpt>
      <trkpt lat="48.63674" lon="6.30969">
        <ele>213.56</ele>
        <time>2026-08-05T06:36:34.677Z</time>
      </trkpt>
      <trkpt lat="48.63685" lon="6.30929">
        <ele>213.56</ele>
        <time>2026-08-05T06:36:40.679Z</time>
      </trkpt>
      <trkpt lat="48.63698" lon="6.30886">
        <ele>213.56</ele>
        <time>2026-08-05T06:36:46.677Z</time>
      </trkpt>
      <trkpt lat="48.63707" lon="6.30853">
        <ele>213.56</ele>
        <time>2026-08-05T06:36:51.680Z</time>
      </trkpt>
      <trkpt lat="48.63714" lon="6.3081">
        <ele>163.14</ele>
        <time>2026-08-05T06:36:57.677Z</time>
      </trkpt>
      <trkpt lat="48.63726" lon="6.30769">
        <ele>161.45</ele>
        <time>2026-08-05T06:37:02.679Z</time>
      </trkpt>
      <trkpt lat="48.63736" lon="6.30734">
        <ele>160.23</ele>
        <time>2026-08-05T06:37:07.734Z</time>
      </trkpt>
      <trkpt lat="48.63749" lon="6.30695">
        <ele>160.64</ele>
        <time>2026-08-05T06:37:13.725Z</time>
      </trkpt>
      <trkpt lat="48.63762" lon="6.30653">
        <ele>161.29</ele>
        <time>2026-08-05T06:37:19.731Z</time>
      </trkpt>
      <trkpt lat="48.63773" lon="6.30606">
        <ele>159.98</ele>
        <time>2026-08-05T06:37:25.738Z</time>
      </trkpt>
      <trkpt lat="48.63787" lon="6.30566">
        <ele>161.01</ele>
        <time>2026-08-05T06:37:31.738Z</time>
      </trkpt>
      <trkpt lat="48.63801" lon="6.30529">
        <ele>161.56</ele>
        <time>2026-08-05T06:37:37.729Z</time>
      </trkpt>
      <trkpt lat="48.63815" lon="6.30492">
        <ele>160.45</ele>
        <time>2026-08-05T06:37:43.728Z</time>
      </trkpt>
      <trkpt lat="48.63831" lon="6.30457">
        <ele>160.29</ele>
        <time>2026-08-05T06:37:49.728Z</time>
      </trkpt>
      <trkpt lat="48.63848" lon="6.30421">
        <ele>160.91</ele>
        <time>2026-08-05T06:37:55.735Z</time>
      </trkpt>
      <trkpt lat="48.63864" lon="6.30387">
        <ele>162.12</ele>
        <time>2026-08-05T06:38:01.733Z</time>
      </trkpt>
      <trkpt lat="48.63881" lon="6.30355">
        <ele>162.77</ele>
        <time>2026-08-05T06:38:07.728Z</time>
      </trkpt>
      <trkpt lat="48.63902" lon="6.30318">
        <ele>163.31</ele>
        <time>2026-08-05T06:38:13.733Z</time>
      </trkpt>
      <trkpt lat="48.63923" lon="6.30282">
        <ele>162.89</ele>
        <time>2026-08-05T06:38:19.730Z</time>
      </trkpt>
      <trkpt lat="48.63945" lon="6.30249">
        <ele>161.65</ele>
        <time>2026-08-05T06:38:25.722Z</time>
      </trkpt>
      <trkpt lat="48.63966" lon="6.30219">
        <ele>160.85</ele>
        <time>2026-08-05T06:38:31.734Z</time>
      </trkpt>
      <trkpt lat="48.63988" lon="6.30188">
        <ele>160.68</ele>
        <time>2026-08-05T06:38:37.734Z</time>
      </trkpt>
      <trkpt lat="48.64009" lon="6.30158">
        <ele>161.16</ele>
        <time>2026-08-05T06:38:43.729Z</time>
      </trkpt>
      <trkpt lat="48.64029" lon="6.30129">
        <ele>161.6</ele>
        <time>2026-08-05T06:38:49.730Z</time>
      </trkpt>
      <trkpt lat="48.6405" lon="6.30099">
        <ele>163.04</ele>
        <time>2026-08-05T06:38:55.738Z</time>
      </trkpt>
      <trkpt lat="48.64071" lon="6.30069">
        <ele>162.17</ele>
        <time>2026-08-05T06:39:01.737Z</time>
      </trkpt>
      <trkpt lat="48.64093" lon="6.30039">
        <ele>161.3</ele>
        <time>2026-08-05T06:39:07.733Z</time>
      </trkpt>
      <trkpt lat="48.64113" lon="6.3001">
        <ele>161.26</ele>
        <time>2026-08-05T06:39:13.731Z</time>
      </trkpt>
      <trkpt lat="48.64135" lon="6.29978">
        <ele>161.65</ele>
        <time>2026-08-05T06:39:19.731Z</time>
      </trkpt>
      <trkpt lat="48.64156" lon="6.29948">
        <ele>163.1</ele>
        <time>2026-08-05T06:39:25.734Z</time>
      </trkpt>
      <trkpt lat="48.64178" lon="6.29919">
        <ele>163.54</ele>
        <time>2026-08-05T06:39:31.736Z</time>
      </trkpt>
      <trkpt lat="48.64198" lon="6.2989">
        <ele>164.57</ele>
        <time>2026-08-05T06:39:37.730Z</time>
      </trkpt>
      <trkpt lat="48.6422" lon="6.29859">
        <ele>163.82</ele>
        <time>2026-08-05T06:39:43.729Z</time>
      </trkpt>
      <trkpt lat="48.6424" lon="6.29829">
        <ele>161.53</ele>
        <time>2026-08-05T06:39:49.728Z</time>
      </trkpt>
      <trkpt lat="48.64259" lon="6.29793">
        <ele>162.81</ele>
        <time>2026-08-05T06:39:55.736Z</time>
      </trkpt>
      <trkpt lat="48.64279" lon="6.29759">
        <ele>162.89</ele>
        <time>2026-08-05T06:40:01.740Z</time>
      </trkpt>
      <trkpt lat="48.64298" lon="6.29724">
        <ele>163.49</ele>
        <time>2026-08-05T06:40:07.730Z</time>
      </trkpt>
      <trkpt lat="48.64316" lon="6.29688">
        <ele>163.19</ele>
        <time>2026-08-05T06:40:13.732Z</time>
      </trkpt>
      <trkpt lat="48.64333" lon="6.29652">
        <ele>163.44</ele>
        <time>2026-08-05T06:40:19.732Z</time>
      </trkpt>
      <trkpt lat="48.64349" lon="6.29615">
        <ele>163.91</ele>
        <time>2026-08-05T06:40:25.737Z</time>
      </trkpt>
      <trkpt lat="48.64365" lon="6.29578">
        <ele>162.15</ele>
        <time>2026-08-05T06:40:31.734Z</time>
      </trkpt>
      <trkpt lat="48.6438" lon="6.2954">
        <ele>162.68</ele>
        <time>2026-08-05T06:40:37.732Z</time>
      </trkpt>
      <trkpt lat="48.64396" lon="6.29505">
        <ele>163.71</ele>
        <time>2026-08-05T06:40:43.732Z</time>
      </trkpt>
      <trkpt lat="48.6441" lon="6.29467">
        <ele>163.97</ele>
        <time>2026-08-05T06:40:49.735Z</time>
      </trkpt>
      <trkpt lat="48.64423" lon="6.29429">
        <ele>162.54</ele>
        <time>2026-08-05T06:40:55.711Z</time>
      </trkpt>
      <trkpt lat="48.64435" lon="6.29388">
        <ele>162.27</ele>
        <time>2026-08-05T06:41:01.736Z</time>
      </trkpt>
      <trkpt lat="48.64446" lon="6.29348">
        <ele>161.97</ele>
        <time>2026-08-05T06:41:07.735Z</time>
      </trkpt>
      <trkpt lat="48.64456" lon="6.29307">
        <ele>161.38</ele>
        <time>2026-08-05T06:41:13.730Z</time>
      </trkpt>
      <trkpt lat="48.64466" lon="6.29264">
        <ele>162.65</ele>
        <time>2026-08-05T06:41:19.732Z</time>
      </trkpt>
      <trkpt lat="48.64474" lon="6.29222">
        <ele>162.37</ele>
        <time>2026-08-05T06:41:25.747Z</time>
      </trkpt>
      <trkpt lat="48.6448" lon="6.29179">
        <ele>161.42</ele>
        <time>2026-08-05T06:41:31.736Z</time>
      </trkpt>
      <trkpt lat="48.64486" lon="6.29142">
        <ele>161.33</ele>
        <time>2026-08-05T06:41:37.729Z</time>
      </trkpt>
      <trkpt lat="48.64493" lon="6.29098">
        <ele>161.38</ele>
        <time>2026-08-05T06:41:43.730Z</time>
      </trkpt>
      <trkpt lat="48.64499" lon="6.2905">
        <ele>161.06</ele>
        <time>2026-08-05T06:41:49.726Z</time>
      </trkpt>
      <trkpt lat="48.64506" lon="6.29005">
        <ele>160.26</ele>
        <time>2026-08-05T06:41:55.738Z</time>
      </trkpt>
      <trkpt lat="48.64512" lon="6.28958">
        <ele>160.49</ele>
        <time>2026-08-05T06:42:01.734Z</time>
      </trkpt>
      <trkpt lat="48.64518" lon="6.28916">
        <ele>159.34</ele>
        <time>2026-08-05T06:42:07.727Z</time>
      </trkpt>
      <trkpt lat="48.64526" lon="6.28875">
        <ele>157.96</ele>
        <time>2026-08-05T06:42:13.727Z</time>
      </trkpt>
      <trkpt lat="48.64529" lon="6.28829">
        <ele>157.85</ele>
        <time>2026-08-05T06:42:19.730Z</time>
      </trkpt>
      <trkpt lat="48.6454" lon="6.28787">
        <ele>157.6</ele>
        <time>2026-08-05T06:42:25.736Z</time>
      </trkpt>
      <trkpt lat="48.64544" lon="6.28741">
        <ele>157.03</ele>
        <time>2026-08-05T06:42:31.735Z</time>
      </trkpt>
      <trkpt lat="48.6455" lon="6.28696">
        <ele>157.54</ele>
        <time>2026-08-05T06:42:37.731Z</time>
      </trkpt>
      <trkpt lat="48.64554" lon="6.28653">
        <ele>158.9</ele>
        <time>2026-08-05T06:42:43.731Z</time>
      </trkpt>
      <trkpt lat="48.64564" lon="6.28609">
        <ele>157.11</ele>
        <time>2026-08-05T06:42:49.727Z</time>
      </trkpt>
      <trkpt lat="48.64568" lon="6.28564">
        <ele>156.92</ele>
        <time>2026-08-05T06:42:55.740Z</time>
      </trkpt>
      <trkpt lat="48.64573" lon="6.28519">
        <ele>157.5</ele>
        <time>2026-08-05T06:43:01.737Z</time>
      </trkpt>
      <trkpt lat="48.6458" lon="6.28472">
        <ele>157.03</ele>
        <time>2026-08-05T06:43:07.729Z</time>
      </trkpt>
      <trkpt lat="48.64589" lon="6.2843">
        <ele>157.64</ele>
        <time>2026-08-05T06:43:13.732Z</time>
      </trkpt>
      <trkpt lat="48.64595" lon="6.28385">
        <ele>158.11</ele>
        <time>2026-08-05T06:43:19.730Z</time>
      </trkpt>
      <trkpt lat="48.64601" lon="6.28339">
        <ele>157.89</ele>
        <time>2026-08-05T06:43:25.741Z</time>
      </trkpt>
      <trkpt lat="48.64606" lon="6.28296">
        <ele>157.74</ele>
        <time>2026-08-05T06:43:31.734Z</time>
      </trkpt>
      <trkpt lat="48.64609" lon="6.28249">
        <ele>158.47</ele>
        <time>2026-08-05T06:43:37.730Z</time>
      </trkpt>
      <trkpt lat="48.64613" lon="6.28202">
        <ele>158.4</ele>
        <time>2026-08-05T06:43:43.730Z</time>
      </trkpt>
      <trkpt lat="48.64614" lon="6.28157">
        <ele>159.3</ele>
        <time>2026-08-05T06:43:49.722Z</time>
      </trkpt>
      <trkpt lat="48.64615" lon="6.2811">
        <ele>159.49</ele>
        <time>2026-08-05T06:43:55.739Z</time>
      </trkpt>
      <trkpt lat="48.64616" lon="6.28065">
        <ele>159.41</ele>
        <time>2026-08-05T06:44:01.735Z</time>
      </trkpt>
      <trkpt lat="48.64616" lon="6.2802">
        <ele>159.29</ele>
        <time>2026-08-05T06:44:07.727Z</time>
      </trkpt>
      <trkpt lat="48.64615" lon="6.27977">
        <ele>159.52</ele>
        <time>2026-08-05T06:44:13.727Z</time>
      </trkpt>
      <trkpt lat="48.64613" lon="6.27933">
        <ele>159.38</ele>
        <time>2026-08-05T06:44:19.729Z</time>
      </trkpt>
      <trkpt lat="48.64611" lon="6.27889">
        <ele>159.6</ele>
        <time>2026-08-05T06:44:25.741Z</time>
      </trkpt>
      <trkpt lat="48.64606" lon="6.27845">
        <ele>159.63</ele>
        <time>2026-08-05T06:44:31.742Z</time>
      </trkpt>
      <trkpt lat="48.64601" lon="6.27801">
        <ele>160.23</ele>
        <time>2026-08-05T06:44:37.761Z</time>
      </trkpt>
      <trkpt lat="48.64596" lon="6.27688">
        <ele>159.39</ele>
        <time>2026-08-05T06:44:52.783Z</time>
      </trkpt>
      <trkpt lat="48.64578" lon="6.27639">
        <ele>159.73</ele>
        <time>2026-08-05T06:44:58.766Z</time>
      </trkpt>
      <trkpt lat="48.64569" lon="6.2761">
        <ele>157.55</ele>
        <time>2026-08-05T06:45:04.343Z</time>
      </trkpt>
      <trkpt lat="48.64559" lon="6.27586">
        <ele>157.23</ele>
        <time>2026-08-05T06:45:09.639Z</time>
      </trkpt>
      <trkpt lat="48.64554" lon="6.27539">
        <ele>158.51</ele>
        <time>2026-08-05T06:45:14.671Z</time>
      </trkpt>
      <trkpt lat="48.64544" lon="6.27502">
        <ele>158.68</ele>
        <time>2026-08-05T06:45:19.675Z</time>
      </trkpt>
      <trkpt lat="48.64531" lon="6.2746">
        <ele>157.7</ele>
        <time>2026-08-05T06:45:25.667Z</time>
      </trkpt>
      <trkpt lat="48.64521" lon="6.27427">
        <ele>158.39</ele>
        <time>2026-08-05T06:45:30.671Z</time>
      </trkpt>
      <trkpt lat="48.6451" lon="6.27393">
        <ele>159.3</ele>
        <time>2026-08-05T06:45:35.675Z</time>
      </trkpt>
      <trkpt lat="48.64496" lon="6.27351">
        <ele>158.99</ele>
        <time>2026-08-05T06:45:41.665Z</time>
      </trkpt>
      <trkpt lat="48.6448" lon="6.27316">
        <ele>158.49</ele>
        <time>2026-08-05T06:45:46.673Z</time>
      </trkpt>
      <trkpt lat="48.6446" lon="6.27278">
        <ele>158.24</ele>
        <time>2026-08-05T06:45:52.676Z</time>
      </trkpt>
      <trkpt lat="48.64439" lon="6.2724">
        <ele>160.02</ele>
        <time>2026-08-05T06:45:58.677Z</time>
      </trkpt>
      <trkpt lat="48.64416" lon="6.27202">
        <ele>160.18</ele>
        <time>2026-08-05T06:46:04.678Z</time>
      </trkpt>
      <trkpt lat="48.64396" lon="6.27164">
        <ele>161.03</ele>
        <time>2026-08-05T06:46:10.678Z</time>
      </trkpt>
      <trkpt lat="48.64377" lon="6.27127">
        <ele>161.02</ele>
        <time>2026-08-05T06:46:16.680Z</time>
      </trkpt>
      <trkpt lat="48.64359" lon="6.27092">
        <ele>161.82</ele>
        <time>2026-08-05T06:46:22.673Z</time>
      </trkpt>
      <trkpt lat="48.64347" lon="6.27061">
        <ele>161.74</ele>
        <time>2026-08-05T06:46:27.693Z</time>
      </trkpt>
      <trkpt lat="48.6433" lon="6.27024">
        <ele>161.79</ele>
        <time>2026-08-05T06:46:33.673Z</time>
      </trkpt>
      <trkpt lat="48.64316" lon="6.26992">
        <ele>161.32</ele>
        <time>2026-08-05T06:46:38.679Z</time>
      </trkpt>
      <trkpt lat="48.64301" lon="6.2696">
        <ele>160.15</ele>
        <time>2026-08-05T06:46:43.679Z</time>
      </trkpt>
      <trkpt lat="48.64284" lon="6.2692">
        <ele>159.7</ele>
        <time>2026-08-05T06:46:49.679Z</time>
      </trkpt>
      <trkpt lat="48.64266" lon="6.2688">
        <ele>159.55</ele>
        <time>2026-08-05T06:46:55.670Z</time>
      </trkpt>
      <trkpt lat="48.64253" lon="6.26842">
        <ele>159.57</ele>
        <time>2026-08-05T06:47:00.675Z</time>
      </trkpt>
      <trkpt lat="48.6424" lon="6.26795">
        <ele>159.5</ele>
        <time>2026-08-05T06:47:06.675Z</time>
      </trkpt>
      <trkpt lat="48.6423" lon="6.26749">
        <ele>158.82</ele>
        <time>2026-08-05T06:47:12.674Z</time>
      </trkpt>
      <trkpt lat="48.64224" lon="6.2671">
        <ele>159.55</ele>
        <time>2026-08-05T06:47:17.680Z</time>
      </trkpt>
      <trkpt lat="48.64222" lon="6.26667">
        <ele>160.8</ele>
        <time>2026-08-05T06:47:23.676Z</time>
      </trkpt>
      <trkpt lat="48.64225" lon="6.26634">
        <ele>159.49</ele>
        <time>2026-08-05T06:47:28.676Z</time>
      </trkpt>
      <trkpt lat="48.64224" lon="6.26587">
        <ele>160.22</ele>
        <time>2026-08-05T06:47:34.675Z</time>
      </trkpt>
      <trkpt lat="48.64224" lon="6.26554">
        <ele>161.75</ele>
        <time>2026-08-05T06:47:39.678Z</time>
      </trkpt>
      <trkpt lat="48.64228" lon="6.26522">
        <ele>162.03</ele>
        <time>2026-08-05T06:47:44.679Z</time>
      </trkpt>
      <trkpt lat="48.64232" lon="6.26474">
        <ele>163.65</ele>
        <time>2026-08-05T06:47:49.689Z</time>
      </trkpt>
      <trkpt lat="48.64239" lon="6.26407">
        <ele>162.34</ele>
        <time>2026-08-05T06:47:55.678Z</time>
      </trkpt>
      <trkpt lat="48.64248" lon="6.2635">
        <ele>161.71</ele>
        <time>2026-08-05T06:48:01.678Z</time>
      </trkpt>
      <trkpt lat="48.64253" lon="6.26317">
        <ele>160.75</ele>
        <time>2026-08-05T06:48:07.685Z</time>
      </trkpt>
      <trkpt lat="48.6426" lon="6.26282">
        <ele>158.37</ele>
        <time>2026-08-05T06:48:13.689Z</time>
      </trkpt>
      <trkpt lat="48.6427" lon="6.26242">
        <ele>157.71</ele>
        <time>2026-08-05T06:48:19.689Z</time>
      </trkpt>
      <trkpt lat="48.64273" lon="6.26191">
        <ele>157.69</ele>
        <time>2026-08-05T06:48:25.672Z</time>
      </trkpt>
      <trkpt lat="48.64276" lon="6.26148">
        <ele>158.35</ele>
        <time>2026-08-05T06:48:30.676Z</time>
      </trkpt>
      <trkpt lat="48.64281" lon="6.26109">
        <ele>158.61</ele>
        <time>2026-08-05T06:48:35.676Z</time>
      </trkpt>
      <trkpt lat="48.64283" lon="6.26057">
        <ele>158.03</ele>
        <time>2026-08-05T06:48:41.675Z</time>
      </trkpt>
      <trkpt lat="48.64293" lon="6.2601">
        <ele>157.71</ele>
        <time>2026-08-05T06:48:47.676Z</time>
      </trkpt>
      <trkpt lat="48.64301" lon="6.2597">
        <ele>158.41</ele>
        <time>2026-08-05T06:48:52.676Z</time>
      </trkpt>
      <trkpt lat="48.6431" lon="6.25921">
        <ele>158.02</ele>
        <time>2026-08-05T06:48:58.675Z</time>
      </trkpt>
      <trkpt lat="48.64318" lon="6.2588">
        <ele>157.2</ele>
        <time>2026-08-05T06:49:03.675Z</time>
      </trkpt>
      <trkpt lat="48.64325" lon="6.25839">
        <ele>157.14</ele>
        <time>2026-08-05T06:49:08.677Z</time>
      </trkpt>
      <trkpt lat="48.64332" lon="6.25798">
        <ele>157.98</ele>
        <time>2026-08-05T06:49:13.686Z</time>
      </trkpt>
      <trkpt lat="48.64341" lon="6.2575">
        <ele>160.21</ele>
        <time>2026-08-05T06:49:19.693Z</time>
      </trkpt>
      <trkpt lat="48.64351" lon="6.25701">
        <ele>159.36</ele>
        <time>2026-08-05T06:49:25.675Z</time>
      </trkpt>
      <trkpt lat="48.64358" lon="6.25659">
        <ele>158.55</ele>
        <time>2026-08-05T06:49:30.678Z</time>
      </trkpt>
      <trkpt lat="48.64368" lon="6.25609">
        <ele>158.2</ele>
        <time>2026-08-05T06:49:36.678Z</time>
      </trkpt>
      <trkpt lat="48.64376" lon="6.25566">
        <ele>156.96</ele>
        <time>2026-08-05T06:49:41.678Z</time>
      </trkpt>
      <trkpt lat="48.64386" lon="6.25513">
        <ele>157.37</ele>
        <time>2026-08-05T06:49:47.673Z</time>
      </trkpt>
      <trkpt lat="48.64394" lon="6.25471">
        <ele>158.26</ele>
        <time>2026-08-05T06:49:52.677Z</time>
      </trkpt>
      <trkpt lat="48.64403" lon="6.25421">
        <ele>158.66</ele>
        <time>2026-08-05T06:49:58.676Z</time>
      </trkpt>
      <trkpt lat="48.64411" lon="6.2538">
        <ele>158.42</ele>
        <time>2026-08-05T06:50:03.676Z</time>
      </trkpt>
      <trkpt lat="48.64419" lon="6.25341">
        <ele>157.43</ele>
        <time>2026-08-05T06:50:08.677Z</time>
      </trkpt>
      <trkpt lat="48.64428" lon="6.253">
        <ele>156.73</ele>
        <time>2026-08-05T06:50:13.701Z</time>
      </trkpt>
      <trkpt lat="48.6444" lon="6.25251">
        <ele>157.82</ele>
        <time>2026-08-05T06:50:19.698Z</time>
      </trkpt>
      <trkpt lat="48.64453" lon="6.25202">
        <ele>157.23</ele>
        <time>2026-08-05T06:50:25.676Z</time>
      </trkpt>
      <trkpt lat="48.64471" lon="6.25166">
        <ele>155.89</ele>
        <time>2026-08-05T06:50:30.682Z</time>
      </trkpt>
      <trkpt lat="48.64487" lon="6.25111">
        <ele>155.41</ele>
        <time>2026-08-05T06:50:36.676Z</time>
      </trkpt>
      <trkpt lat="48.64503" lon="6.25061">
        <ele>155.39</ele>
        <time>2026-08-05T06:50:42.677Z</time>
      </trkpt>
      <trkpt lat="48.64518" lon="6.25012">
        <ele>154.46</ele>
        <time>2026-08-05T06:50:48.676Z</time>
      </trkpt>
      <trkpt lat="48.64535" lon="6.24969">
        <ele>155.69</ele>
        <time>2026-08-05T06:50:54.678Z</time>
      </trkpt>
      <trkpt lat="48.64549" lon="6.24931">
        <ele>158.18</ele>
        <time>2026-08-05T06:51:00.675Z</time>
      </trkpt>
      <trkpt lat="48.64561" lon="6.24895">
        <ele>157.53</ele>
        <time>2026-08-05T06:51:05.676Z</time>
      </trkpt>
      <trkpt lat="48.64575" lon="6.2486">
        <ele>156.03</ele>
        <time>2026-08-05T06:51:10.677Z</time>
      </trkpt>
      <trkpt lat="48.64594" lon="6.24815">
        <ele>155.24</ele>
        <time>2026-08-05T06:51:16.676Z</time>
      </trkpt>
      <trkpt lat="48.64614" lon="6.24771">
        <ele>154.57</ele>
        <time>2026-08-05T06:51:22.678Z</time>
      </trkpt>
      <trkpt lat="48.64633" lon="6.24724">
        <ele>154.57</ele>
        <time>2026-08-05T06:51:28.679Z</time>
      </trkpt>
      <trkpt lat="48.64649" lon="6.24685">
        <ele>156.35</ele>
        <time>2026-08-05T06:51:33.681Z</time>
      </trkpt>
      <trkpt lat="48.64666" lon="6.24642">
        <ele>155.81</ele>
        <time>2026-08-05T06:51:39.676Z</time>
      </trkpt>
      <trkpt lat="48.64683" lon="6.24607">
        <ele>156.59</ele>
        <time>2026-08-05T06:51:44.676Z</time>
      </trkpt>
      <trkpt lat="48.647" lon="6.24572">
        <ele>157.66</ele>
        <time>2026-08-05T06:51:49.699Z</time>
      </trkpt>
      <trkpt lat="48.64721" lon="6.24531">
        <ele>158.48</ele>
        <time>2026-08-05T06:51:55.676Z</time>
      </trkpt>
      <trkpt lat="48.64739" lon="6.24499">
        <ele>157.95</ele>
        <time>2026-08-05T06:52:00.679Z</time>
      </trkpt>
      <trkpt lat="48.6476" lon="6.24463">
        <ele>158.44</ele>
        <time>2026-08-05T06:52:06.676Z</time>
      </trkpt>
      <trkpt lat="48.64777" lon="6.24434">
        <ele>159.16</ele>
        <time>2026-08-05T06:52:11.682Z</time>
      </trkpt>
      <trkpt lat="48.64794" lon="6.24407">
        <ele>161.14</ele>
        <time>2026-08-05T06:52:16.683Z</time>
      </trkpt>
      <trkpt lat="48.64816" lon="6.24372">
        <ele>160.95</ele>
        <time>2026-08-05T06:52:22.672Z</time>
      </trkpt>
      <trkpt lat="48.64836" lon="6.24336">
        <ele>162.04</ele>
        <time>2026-08-05T06:52:27.676Z</time>
      </trkpt>
      <trkpt lat="48.64857" lon="6.2431">
        <ele>162</ele>
        <time>2026-08-05T06:52:32.676Z</time>
      </trkpt>
      <trkpt lat="48.64877" lon="6.24278">
        <ele>160.59</ele>
        <time>2026-08-05T06:52:37.706Z</time>
      </trkpt>
      <trkpt lat="48.64901" lon="6.24241">
        <ele>159.34</ele>
        <time>2026-08-05T06:52:43.704Z</time>
      </trkpt>
      <trkpt lat="48.6493" lon="6.24204">
        <ele>158.23</ele>
        <time>2026-08-05T06:52:49.705Z</time>
      </trkpt>
      <trkpt lat="48.64955" lon="6.24172">
        <ele>158.32</ele>
        <time>2026-08-05T06:52:55.677Z</time>
      </trkpt>
      <trkpt lat="48.64974" lon="6.24148">
        <ele>158.6</ele>
        <time>2026-08-05T06:53:00.687Z</time>
      </trkpt>
      <trkpt lat="48.64999" lon="6.24117">
        <ele>158.24</ele>
        <time>2026-08-05T06:53:06.676Z</time>
      </trkpt>
      <trkpt lat="48.65021" lon="6.24088">
        <ele>158.06</ele>
        <time>2026-08-05T06:53:11.676Z</time>
      </trkpt>
      <trkpt lat="48.65042" lon="6.24059">
        <ele>156.94</ele>
        <time>2026-08-05T06:53:16.677Z</time>
      </trkpt>
      <trkpt lat="48.65064" lon="6.24028">
        <ele>155.94</ele>
        <time>2026-08-05T06:53:21.677Z</time>
      </trkpt>
      <trkpt lat="48.65088" lon="6.23995">
        <ele>156.63</ele>
        <time>2026-08-05T06:53:26.677Z</time>
      </trkpt>
      <trkpt lat="48.65116" lon="6.23959">
        <ele>156.16</ele>
        <time>2026-08-05T06:53:32.676Z</time>
      </trkpt>
      <trkpt lat="48.65138" lon="6.23928">
        <ele>155.9</ele>
        <time>2026-08-05T06:53:37.702Z</time>
      </trkpt>
      <trkpt lat="48.65164" lon="6.23892">
        <ele>155.86</ele>
        <time>2026-08-05T06:53:43.701Z</time>
      </trkpt>
      <trkpt lat="48.65189" lon="6.23855">
        <ele>155.63</ele>
        <time>2026-08-05T06:53:49.701Z</time>
      </trkpt>
      <trkpt lat="48.65216" lon="6.23822">
        <ele>154.89</ele>
        <time>2026-08-05T06:53:55.677Z</time>
      </trkpt>
      <trkpt lat="48.6524" lon="6.23787">
        <ele>155.83</ele>
        <time>2026-08-05T06:54:01.671Z</time>
      </trkpt>
      <trkpt lat="48.65259" lon="6.23762">
        <ele>159.65</ele>
        <time>2026-08-05T06:54:06.680Z</time>
      </trkpt>
      <trkpt lat="48.65279" lon="6.23741">
        <ele>161.25</ele>
        <time>2026-08-05T06:54:12.676Z</time>
      </trkpt>
      <trkpt lat="48.65295" lon="6.23727">
        <ele>161.23</ele>
        <time>2026-08-05T06:54:17.677Z</time>
      </trkpt>
      <trkpt lat="48.65308" lon="6.2371">
        <ele>163.36</ele>
        <time>2026-08-05T06:54:23.680Z</time>
      </trkpt>
      <trkpt lat="48.6533" lon="6.2368">
        <ele>161.98</ele>
        <time>2026-08-05T06:54:29.680Z</time>
      </trkpt>
      <trkpt lat="48.65365" lon="6.23635">
        <ele>159</ele>
        <time>2026-08-05T06:54:35.676Z</time>
      </trkpt>
      <trkpt lat="48.65407" lon="6.23594">
        <ele>158.1</ele>
        <time>2026-08-05T06:54:41.674Z</time>
      </trkpt>
      <trkpt lat="48.65446" lon="6.2356">
        <ele>156.99</ele>
        <time>2026-08-05T06:54:47.674Z</time>
      </trkpt>
      <trkpt lat="48.65473" lon="6.23537">
        <ele>158.26</ele>
        <time>2026-08-05T06:54:52.675Z</time>
      </trkpt>
      <trkpt lat="48.65499" lon="6.23521">
        <ele>158.44</ele>
        <time>2026-08-05T06:54:57.675Z</time>
      </trkpt>
      <trkpt lat="48.65532" lon="6.23505">
        <ele>157</ele>
        <time>2026-08-05T06:55:02.677Z</time>
      </trkpt>
      <trkpt lat="48.65563" lon="6.23488">
        <ele>157.46</ele>
        <time>2026-08-05T06:55:07.704Z</time>
      </trkpt>
      <trkpt lat="48.65596" lon="6.23471">
        <ele>160.28</ele>
        <time>2026-08-05T06:55:13.704Z</time>
      </trkpt>
      <trkpt lat="48.65633" lon="6.23452">
        <ele>159.99</ele>
        <time>2026-08-05T06:55:19.704Z</time>
      </trkpt>
      <trkpt lat="48.65672" lon="6.23434">
        <ele>159.5</ele>
        <time>2026-08-05T06:55:25.676Z</time>
      </trkpt>
      <trkpt lat="48.65709" lon="6.23415">
        <ele>159.19</ele>
        <time>2026-08-05T06:55:31.671Z</time>
      </trkpt>
      <trkpt lat="48.65739" lon="6.23399">
        <ele>160.23</ele>
        <time>2026-08-05T06:55:36.677Z</time>
      </trkpt>
      <trkpt lat="48.65774" lon="6.23385">
        <ele>160.93</ele>
        <time>2026-08-05T06:55:42.676Z</time>
      </trkpt>
      <trkpt lat="48.65804" lon="6.23373">
        <ele>160.8</ele>
        <time>2026-08-05T06:55:47.676Z</time>
      </trkpt>
      <trkpt lat="48.65836" lon="6.23357">
        <ele>160.2</ele>
        <time>2026-08-05T06:55:53.680Z</time>
      </trkpt>
      <trkpt lat="48.65863" lon="6.23353">
        <ele>155.69</ele>
        <time>2026-08-05T06:55:59.677Z</time>
      </trkpt>
      <trkpt lat="48.65889" lon="6.23335">
        <ele>154.95</ele>
        <time>2026-08-05T06:56:05.664Z</time>
      </trkpt>
      <trkpt lat="48.65903" lon="6.23305">
        <ele>152.8</ele>
        <time>2026-08-05T06:56:10.678Z</time>
      </trkpt>
      <trkpt lat="48.65925" lon="6.23278">
        <ele>155.37</ele>
        <time>2026-08-05T06:56:16.677Z</time>
      </trkpt>
      <trkpt lat="48.65943" lon="6.23261">
        <ele>155.47</ele>
        <time>2026-08-05T06:56:22.678Z</time>
      </trkpt>
      <trkpt lat="48.65956" lon="6.23244">
        <ele>157.82</ele>
        <time>2026-08-05T06:56:27.679Z</time>
      </trkpt>
      <trkpt lat="48.65971" lon="6.2322">
        <ele>160.21</ele>
        <time>2026-08-05T06:56:33.675Z</time>
      </trkpt>
      <trkpt lat="48.6598" lon="6.23198">
        <ele>161.8</ele>
        <time>2026-08-05T06:56:38.678Z</time>
      </trkpt>
      <trkpt lat="48.65982" lon="6.23169">
        <ele>162.45</ele>
        <time>2026-08-05T06:56:43.703Z</time>
      </trkpt>
      <trkpt lat="48.65972" lon="6.23147">
        <ele>208.66</ele>
        <time>2026-08-05T06:56:49.710Z</time>
      </trkpt>
      <trkpt lat="48.6596" lon="6.23121">
        <ele>208.51</ele>
        <time>2026-08-05T06:56:55.673Z</time>
      </trkpt>
      <trkpt lat="48.65951" lon="6.23099">
        <ele>208.51</ele>
        <time>2026-08-05T06:57:00.679Z</time>
      </trkpt>
      <trkpt lat="48.65953" lon="6.23069">
        <ele>208.51</ele>
        <time>2026-08-05T06:57:06.673Z</time>
      </trkpt>
      <trkpt lat="48.65959" lon="6.2304">
        <ele>205.56</ele>
        <time>2026-08-05T06:57:12.681Z</time>
      </trkpt>
      <trkpt lat="48.65938" lon="6.23008">
        <ele>205.51</ele>
        <time>2026-08-05T06:57:18.675Z</time>
      </trkpt>
      <trkpt lat="48.65917" lon="6.22992">
        <ele>206.51</ele>
        <time>2026-08-05T06:57:23.677Z</time>
      </trkpt>
      <trkpt lat="48.65894" lon="6.22972">
        <ele>207.31</ele>
        <time>2026-08-05T06:57:29.679Z</time>
      </trkpt>
      <trkpt lat="48.65871" lon="6.22947">
        <ele>207.31</ele>
        <time>2026-08-05T06:57:35.676Z</time>
      </trkpt>
      <trkpt lat="48.65854" lon="6.22924">
        <ele>207.31</ele>
        <time>2026-08-05T06:57:40.678Z</time>
      </trkpt>
      <trkpt lat="48.65826" lon="6.22912">
        <ele>209.28</ele>
        <time>2026-08-05T06:57:46.674Z</time>
      </trkpt>
      <trkpt lat="48.65807" lon="6.22899">
        <ele>209.31</ele>
        <time>2026-08-05T06:57:52.678Z</time>
      </trkpt>
      <trkpt lat="48.65787" lon="6.2289">
        <ele>209.31</ele>
        <time>2026-08-05T06:57:57.678Z</time>
      </trkpt>
      <trkpt lat="48.6577" lon="6.2288">
        <ele>209.31</ele>
        <time>2026-08-05T06:58:02.681Z</time>
      </trkpt>
      <trkpt lat="48.65752" lon="6.22864">
        <ele>208.52</ele>
        <time>2026-08-05T06:58:07.710Z</time>
      </trkpt>
      <trkpt lat="48.65735" lon="6.22842">
        <ele>208.51</ele>
        <time>2026-08-05T06:58:13.691Z</time>
      </trkpt>
      <trkpt lat="48.65713" lon="6.22819">
        <ele>211.26</ele>
        <time>2026-08-05T06:58:19.705Z</time>
      </trkpt>
      <trkpt lat="48.65698" lon="6.22788">
        <ele>211.31</ele>
        <time>2026-08-05T06:58:25.692Z</time>
      </trkpt>
      <trkpt lat="48.65683" lon="6.22758">
        <ele>211.31</ele>
        <time>2026-08-05T06:58:31.693Z</time>
      </trkpt>
      <trkpt lat="48.6567" lon="6.22733">
        <ele>211.01</ele>
        <time>2026-08-05T06:58:37.432Z</time>
      </trkpt>
      <trkpt lat="48.65659" lon="6.22711">
        <ele>210.91</ele>
        <time>2026-08-05T06:58:42.679Z</time>
      </trkpt>
      <trkpt lat="48.65657" lon="6.22697">
        <ele>210.91</ele>
        <time>2026-08-05T06:58:52.672Z</time>
      </trkpt>
      <trkpt lat="48.65661" lon="6.2271">
        <ele>209.78</ele>
        <time>2026-08-05T06:58:58.673Z</time>
      </trkpt>
      <trkpt lat="48.65671" lon="6.22731">
        <ele>209.71</ele>
        <time>2026-08-05T06:59:03.691Z</time>
      </trkpt>
      <trkpt lat="48.65681" lon="6.22751">
        <ele>209.71</ele>
        <time>2026-08-05T06:59:08.804Z</time>
      </trkpt>
      <trkpt lat="48.65695" lon="6.2274">
        <ele>209.71</ele>
        <time>2026-08-05T06:59:14.675Z</time>
      </trkpt>
      <trkpt lat="48.65678" lon="6.22711">
        <ele>209.71</ele>
        <time>2026-08-05T06:59:19.712Z</time>
      </trkpt>
      <trkpt lat="48.65657" lon="6.22682">
        <ele>209.71</ele>
        <time>2026-08-05T06:59:25.706Z</time>
      </trkpt>
      <trkpt lat="48.65637" lon="6.22644">
        <ele>209.71</ele>
        <time>2026-08-05T06:59:31.717Z</time>
      </trkpt>
      <trkpt lat="48.65621" lon="6.226">
        <ele>209.71</ele>
        <time>2026-08-05T06:59:37.711Z</time>
      </trkpt>
      <trkpt lat="48.65605" lon="6.2256">
        <ele>209.71</ele>
        <time>2026-08-05T06:59:43.713Z</time>
      </trkpt>
      <trkpt lat="48.65591" lon="6.22518">
        <ele>209.71</ele>
        <time>2026-08-05T06:59:49.716Z</time>
      </trkpt>
      <trkpt lat="48.65578" lon="6.22475">
        <ele>209.71</ele>
        <time>2026-08-05T06:59:55.734Z</time>
      </trkpt>
      <trkpt lat="48.65565" lon="6.22428">
        <ele>209.71</ele>
        <time>2026-08-05T07:00:01.692Z</time>
      </trkpt>
      <trkpt lat="48.65551" lon="6.22383">
        <ele>209.71</ele>
        <time>2026-08-05T07:00:07.710Z</time>
      </trkpt>
      <trkpt lat="48.65533" lon="6.22342">
        <ele>209.71</ele>
        <time>2026-08-05T07:00:13.712Z</time>
      </trkpt>
      <trkpt lat="48.65512" lon="6.22302">
        <ele>209.71</ele>
        <time>2026-08-05T07:00:19.708Z</time>
      </trkpt>
      <trkpt lat="48.65486" lon="6.22266">
        <ele>209.71</ele>
        <time>2026-08-05T07:00:25.696Z</time>
      </trkpt>
      <trkpt lat="48.65455" lon="6.22234">
        <ele>154.28</ele>
        <time>2026-08-05T07:00:31.713Z</time>
      </trkpt>
      <trkpt lat="48.65428" lon="6.22208">
        <ele>155.51</ele>
        <time>2026-08-05T07:00:37.713Z</time>
      </trkpt>
      <trkpt lat="48.65404" lon="6.22178">
        <ele>154.99</ele>
        <time>2026-08-05T07:00:43.714Z</time>
      </trkpt>
      <trkpt lat="48.65377" lon="6.22151">
        <ele>154.9</ele>
        <time>2026-08-05T07:00:49.707Z</time>
      </trkpt>
      <trkpt lat="48.65348" lon="6.22126">
        <ele>155.25</ele>
        <time>2026-08-05T07:00:55.715Z</time>
      </trkpt>
      <trkpt lat="48.65319" lon="6.22104">
        <ele>156.38</ele>
        <time>2026-08-05T07:01:01.714Z</time>
      </trkpt>
      <trkpt lat="48.65289" lon="6.22082">
        <ele>155.99</ele>
        <time>2026-08-05T07:01:07.718Z</time>
      </trkpt>
      <trkpt lat="48.65258" lon="6.22057">
        <ele>155.85</ele>
        <time>2026-08-05T07:01:13.718Z</time>
      </trkpt>
      <trkpt lat="48.65225" lon="6.22036">
        <ele>156.75</ele>
        <time>2026-08-05T07:01:19.717Z</time>
      </trkpt>
      <trkpt lat="48.65191" lon="6.22016">
        <ele>157.96</ele>
        <time>2026-08-05T07:01:25.715Z</time>
      </trkpt>
      <trkpt lat="48.65157" lon="6.22003">
        <ele>159.04</ele>
        <time>2026-08-05T07:01:31.698Z</time>
      </trkpt>
      <trkpt lat="48.65122" lon="6.21997">
        <ele>158.35</ele>
        <time>2026-08-05T07:01:37.716Z</time>
      </trkpt>
      <trkpt lat="48.65089" lon="6.21996">
        <ele>157.53</ele>
        <time>2026-08-05T07:01:43.717Z</time>
      </trkpt>
      <trkpt lat="48.65056" lon="6.22004">
        <ele>155.86</ele>
        <time>2026-08-05T07:01:49.714Z</time>
      </trkpt>
      <trkpt lat="48.65024" lon="6.22017">
        <ele>156.49</ele>
        <time>2026-08-05T07:01:55.677Z</time>
      </trkpt>
      <trkpt lat="48.64998" lon="6.22033">
        <ele>157.6</ele>
        <time>2026-08-05T07:02:00.677Z</time>
      </trkpt>
      <trkpt lat="48.64967" lon="6.22056">
        <ele>159.12</ele>
        <time>2026-08-05T07:02:06.674Z</time>
      </trkpt>
      <trkpt lat="48.64943" lon="6.22079">
        <ele>159.08</ele>
        <time>2026-08-05T07:02:11.676Z</time>
      </trkpt>
      <trkpt lat="48.64918" lon="6.22101">
        <ele>159.6</ele>
        <time>2026-08-05T07:02:16.676Z</time>
      </trkpt>
      <trkpt lat="48.64894" lon="6.22122">
        <ele>160.24</ele>
        <time>2026-08-05T07:02:21.676Z</time>
      </trkpt>
      <trkpt lat="48.64864" lon="6.22146">
        <ele>159.16</ele>
        <time>2026-08-05T07:02:27.673Z</time>
      </trkpt>
      <trkpt lat="48.6484" lon="6.22163">
        <ele>157.13</ele>
        <time>2026-08-05T07:02:32.679Z</time>
      </trkpt>
      <trkpt lat="48.64816" lon="6.2218">
        <ele>156.92</ele>
        <time>2026-08-05T07:02:37.719Z</time>
      </trkpt>
      <trkpt lat="48.64785" lon="6.22197">
        <ele>156.32</ele>
        <time>2026-08-05T07:02:43.717Z</time>
      </trkpt>
      <trkpt lat="48.64751" lon="6.22209">
        <ele>156.27</ele>
        <time>2026-08-05T07:02:49.718Z</time>
      </trkpt>
      <trkpt lat="48.64718" lon="6.22217">
        <ele>157.52</ele>
        <time>2026-08-05T07:02:55.732Z</time>
      </trkpt>
      <trkpt lat="48.64689" lon="6.22226">
        <ele>159.08</ele>
        <time>2026-08-05T07:03:00.785Z</time>
      </trkpt>
      <trkpt lat="48.6466" lon="6.22226">
        <ele>159.91</ele>
        <time>2026-08-05T07:03:06.671Z</time>
      </trkpt>
      <trkpt lat="48.64631" lon="6.22221">
        <ele>158.41</ele>
        <time>2026-08-05T07:03:11.673Z</time>
      </trkpt>
      <trkpt lat="48.64604" lon="6.22215">
        <ele>158.09</ele>
        <time>2026-08-05T07:03:16.677Z</time>
      </trkpt>
      <trkpt lat="48.64572" lon="6.22207">
        <ele>158.04</ele>
        <time>2026-08-05T07:03:22.678Z</time>
      </trkpt>
      <trkpt lat="48.64542" lon="6.22185">
        <ele>156.77</ele>
        <time>2026-08-05T07:03:28.677Z</time>
      </trkpt>
      <trkpt lat="48.64512" lon="6.22157">
        <ele>156.03</ele>
        <time>2026-08-05T07:03:34.679Z</time>
      </trkpt>
      <trkpt lat="48.64484" lon="6.22132">
        <ele>158.18</ele>
        <time>2026-08-05T07:03:40.677Z</time>
      </trkpt>
      <trkpt lat="48.64456" lon="6.22107">
        <ele>159.2</ele>
        <time>2026-08-05T07:03:46.677Z</time>
      </trkpt>
      <trkpt lat="48.64427" lon="6.22081">
        <ele>159.54</ele>
        <time>2026-08-05T07:03:52.677Z</time>
      </trkpt>
      <trkpt lat="48.64397" lon="6.22055">
        <ele>158.48</ele>
        <time>2026-08-05T07:03:58.677Z</time>
      </trkpt>
      <trkpt lat="48.64365" lon="6.22025">
        <ele>158.43</ele>
        <time>2026-08-05T07:04:04.676Z</time>
      </trkpt>
      <trkpt lat="48.64334" lon="6.21993">
        <ele>157.78</ele>
        <time>2026-08-05T07:04:10.674Z</time>
      </trkpt>
      <trkpt lat="48.64309" lon="6.21967">
        <ele>156.66</ele>
        <time>2026-08-05T07:04:15.674Z</time>
      </trkpt>
      <trkpt lat="48.64285" lon="6.21941">
        <ele>156.27</ele>
        <time>2026-08-05T07:04:20.674Z</time>
      </trkpt>
      <trkpt lat="48.64262" lon="6.21916">
        <ele>157.64</ele>
        <time>2026-08-05T07:04:25.734Z</time>
      </trkpt>
      <trkpt lat="48.64236" lon="6.21883">
        <ele>158.64</ele>
        <time>2026-08-05T07:04:31.671Z</time>
      </trkpt>
      <trkpt lat="48.64214" lon="6.21854">
        <ele>159.86</ele>
        <time>2026-08-05T07:04:36.678Z</time>
      </trkpt>
      <trkpt lat="48.64192" lon="6.21816">
        <ele>160.24</ele>
        <time>2026-08-05T07:04:42.677Z</time>
      </trkpt>
      <trkpt lat="48.64174" lon="6.21784">
        <ele>159.8</ele>
        <time>2026-08-05T07:04:47.679Z</time>
      </trkpt>
      <trkpt lat="48.64153" lon="6.21751">
        <ele>161.69</ele>
        <time>2026-08-05T07:04:53.677Z</time>
      </trkpt>
      <trkpt lat="48.64142" lon="6.21733">
        <ele>163.5</ele>
        <time>2026-08-05T07:04:59.679Z</time>
      </trkpt>
      <trkpt lat="48.64132" lon="6.21721">
        <ele>164.95</ele>
        <time>2026-08-05T07:05:05.676Z</time>
      </trkpt>
      <trkpt lat="48.64118" lon="6.21705">
        <ele>163.6</ele>
        <time>2026-08-05T07:05:10.679Z</time>
      </trkpt>
      <trkpt lat="48.641" lon="6.21674">
        <ele>162.41</ele>
        <time>2026-08-05T07:05:16.678Z</time>
      </trkpt>
      <trkpt lat="48.64084" lon="6.21642">
        <ele>161.68</ele>
        <time>2026-08-05T07:05:22.677Z</time>
      </trkpt>
      <trkpt lat="48.64065" lon="6.2161">
        <ele>162.03</ele>
        <time>2026-08-05T07:05:28.676Z</time>
      </trkpt>
      <trkpt lat="48.64044" lon="6.21585">
        <ele>161.2</ele>
        <time>2026-08-05T07:05:33.678Z</time>
      </trkpt>
      <trkpt lat="48.64022" lon="6.21562">
        <ele>161.21</ele>
        <time>2026-08-05T07:05:38.680Z</time>
      </trkpt>
      <trkpt lat="48.63999" lon="6.21542">
        <ele>161.62</ele>
        <time>2026-08-05T07:05:43.718Z</time>
      </trkpt>
      <trkpt lat="48.63972" lon="6.21523">
        <ele>161.49</ele>
        <time>2026-08-05T07:05:49.716Z</time>
      </trkpt>
      <trkpt lat="48.63945" lon="6.21499">
        <ele>160.88</ele>
        <time>2026-08-05T07:05:55.674Z</time>
      </trkpt>
      <trkpt lat="48.63922" lon="6.21481">
        <ele>161.4</ele>
        <time>2026-08-05T07:06:00.679Z</time>
      </trkpt>
      <trkpt lat="48.63894" lon="6.21458">
        <ele>161.42</ele>
        <time>2026-08-05T07:06:06.673Z</time>
      </trkpt>
      <trkpt lat="48.6387" lon="6.2144">
        <ele>160.52</ele>
        <time>2026-08-05T07:06:11.679Z</time>
      </trkpt>
      <trkpt lat="48.63841" lon="6.21415">
        <ele>159.81</ele>
        <time>2026-08-05T07:06:17.674Z</time>
      </trkpt>
      <trkpt lat="48.63817" lon="6.21397">
        <ele>160.2</ele>
        <time>2026-08-05T07:06:22.675Z</time>
      </trkpt>
      <trkpt lat="48.63787" lon="6.21374">
        <ele>159.83</ele>
        <time>2026-08-05T07:06:28.677Z</time>
      </trkpt>
      <trkpt lat="48.63758" lon="6.21353">
        <ele>158.28</ele>
        <time>2026-08-05T07:06:34.678Z</time>
      </trkpt>
      <trkpt lat="48.6373" lon="6.21336">
        <ele>159.43</ele>
        <time>2026-08-05T07:06:40.675Z</time>
      </trkpt>
      <trkpt lat="48.63698" lon="6.21321">
        <ele>161.98</ele>
        <time>2026-08-05T07:06:46.678Z</time>
      </trkpt>
      <trkpt lat="48.63668" lon="6.21309">
        <ele>163.39</ele>
        <time>2026-08-05T07:06:52.680Z</time>
      </trkpt>
      <trkpt lat="48.63637" lon="6.21298">
        <ele>164.44</ele>
        <time>2026-08-05T07:06:58.676Z</time>
      </trkpt>
      <trkpt lat="48.63604" lon="6.21287">
        <ele>165.07</ele>
        <time>2026-08-05T07:07:04.674Z</time>
      </trkpt>
      <trkpt lat="48.63576" lon="6.21283">
        <ele>164.54</ele>
        <time>2026-08-05T07:07:09.677Z</time>
      </trkpt>
      <trkpt lat="48.63543" lon="6.21279">
        <ele>165.39</ele>
        <time>2026-08-05T07:07:15.675Z</time>
      </trkpt>
      <trkpt lat="48.63515" lon="6.21278">
        <ele>165.71</ele>
        <time>2026-08-05T07:07:20.676Z</time>
      </trkpt>
      <trkpt lat="48.63486" lon="6.21282">
        <ele>166.81</ele>
        <time>2026-08-05T07:07:25.737Z</time>
      </trkpt>
      <trkpt lat="48.63451" lon="6.21286">
        <ele>166.45</ele>
        <time>2026-08-05T07:07:31.671Z</time>
      </trkpt>
      <trkpt lat="48.63422" lon="6.21289">
        <ele>165.43</ele>
        <time>2026-08-05T07:07:36.676Z</time>
      </trkpt>
      <trkpt lat="48.63394" lon="6.21294">
        <ele>164.5</ele>
        <time>2026-08-05T07:07:41.676Z</time>
      </trkpt>
      <trkpt lat="48.63367" lon="6.21302">
        <ele>163.14</ele>
        <time>2026-08-05T07:07:46.678Z</time>
      </trkpt>
      <trkpt lat="48.63333" lon="6.21313">
        <ele>160.33</ele>
        <time>2026-08-05T07:07:52.673Z</time>
      </trkpt>
      <trkpt lat="48.63304" lon="6.21319">
        <ele>158.79</ele>
        <time>2026-08-05T07:07:57.674Z</time>
      </trkpt>
      <trkpt lat="48.63276" lon="6.21328">
        <ele>158.98</ele>
        <time>2026-08-05T07:08:02.678Z</time>
      </trkpt>
      <trkpt lat="48.63247" lon="6.21338">
        <ele>160.08</ele>
        <time>2026-08-05T07:08:07.715Z</time>
      </trkpt>
      <trkpt lat="48.63214" lon="6.2135">
        <ele>158.94</ele>
        <time>2026-08-05T07:08:13.719Z</time>
      </trkpt>
      <trkpt lat="48.63181" lon="6.21362">
        <ele>159.69</ele>
        <time>2026-08-05T07:08:19.716Z</time>
      </trkpt>
      <trkpt lat="48.63148" lon="6.21373">
        <ele>161.47</ele>
        <time>2026-08-05T07:08:25.674Z</time>
      </trkpt>
      <trkpt lat="48.63122" lon="6.21383">
        <ele>162.1</ele>
        <time>2026-08-05T07:08:30.678Z</time>
      </trkpt>
      <trkpt lat="48.63095" lon="6.21395">
        <ele>163.13</ele>
        <time>2026-08-05T07:08:35.679Z</time>
      </trkpt>
      <trkpt lat="48.63071" lon="6.21411">
        <ele>164.78</ele>
        <time>2026-08-05T07:08:40.680Z</time>
      </trkpt>
      <trkpt lat="48.63043" lon="6.2144">
        <ele>165.75</ele>
        <time>2026-08-05T07:08:46.677Z</time>
      </trkpt>
      <trkpt lat="48.63018" lon="6.21473">
        <ele>167.17</ele>
        <time>2026-08-05T07:08:52.676Z</time>
      </trkpt>
      <trkpt lat="48.63002" lon="6.21504">
        <ele>166.95</ele>
        <time>2026-08-05T07:08:57.679Z</time>
      </trkpt>
      <trkpt lat="48.62986" lon="6.21542">
        <ele>167.82</ele>
        <time>2026-08-05T07:09:03.676Z</time>
      </trkpt>
      <trkpt lat="48.62975" lon="6.2157">
        <ele>169.68</ele>
        <time>2026-08-05T07:09:08.678Z</time>
      </trkpt>
      <trkpt lat="48.62962" lon="6.21596">
        <ele>169.66</ele>
        <time>2026-08-05T07:09:13.716Z</time>
      </trkpt>
      <trkpt lat="48.62944" lon="6.21627">
        <ele>170.05</ele>
        <time>2026-08-05T07:09:19.717Z</time>
      </trkpt>
      <trkpt lat="48.62927" lon="6.21661">
        <ele>170.1</ele>
        <time>2026-08-05T07:09:25.675Z</time>
      </trkpt>
      <trkpt lat="48.62913" lon="6.21692">
        <ele>169.75</ele>
        <time>2026-08-05T07:09:30.676Z</time>
      </trkpt>
      <trkpt lat="48.62896" lon="6.21729">
        <ele>170.77</ele>
        <time>2026-08-05T07:09:36.679Z</time>
      </trkpt>
      <trkpt lat="48.62881" lon="6.21761">
        <ele>173.22</ele>
        <time>2026-08-05T07:09:42.676Z</time>
      </trkpt>
      <trkpt lat="48.62874" lon="6.21785">
        <ele>174.16</ele>
        <time>2026-08-05T07:09:47.680Z</time>
      </trkpt>
      <trkpt lat="48.6286" lon="6.21817">
        <ele>174.28</ele>
        <time>2026-08-05T07:09:53.676Z</time>
      </trkpt>
      <trkpt lat="48.62844" lon="6.21842">
        <ele>175.29</ele>
        <time>2026-08-05T07:09:58.678Z</time>
      </trkpt>
      <trkpt lat="48.62826" lon="6.21871">
        <ele>174.75</ele>
        <time>2026-08-05T07:10:04.679Z</time>
      </trkpt>
      <trkpt lat="48.62803" lon="6.21893">
        <ele>175</ele>
        <time>2026-08-05T07:10:10.678Z</time>
      </trkpt>
      <trkpt lat="48.62774" lon="6.219">
        <ele>173.49</ele>
        <time>2026-08-05T07:10:16.680Z</time>
      </trkpt>
      <trkpt lat="48.62747" lon="6.21891">
        <ele>172.57</ele>
        <time>2026-08-05T07:10:22.675Z</time>
      </trkpt>
      <trkpt lat="48.62719" lon="6.21878">
        <ele>173.74</ele>
        <time>2026-08-05T07:10:28.673Z</time>
      </trkpt>
      <trkpt lat="48.62696" lon="6.21867">
        <ele>174.39</ele>
        <time>2026-08-05T07:10:33.675Z</time>
      </trkpt>
      <trkpt lat="48.62674" lon="6.21857">
        <ele>174.35</ele>
        <time>2026-08-05T07:10:38.678Z</time>
      </trkpt>
      <trkpt lat="48.62653" lon="6.21846">
        <ele>173.94</ele>
        <time>2026-08-05T07:10:43.715Z</time>
      </trkpt>
      <trkpt lat="48.62632" lon="6.21834">
        <ele>175.33</ele>
        <time>2026-08-05T07:10:49.716Z</time>
      </trkpt>
      <trkpt lat="48.62622" lon="6.21828">
        <ele>177.26</ele>
        <time>2026-08-05T07:10:55.700Z</time>
      </trkpt>
      <trkpt lat="48.62602" lon="6.21824">
        <ele>177.44</ele>
        <time>2026-08-05T07:11:01.700Z</time>
      </trkpt>
      <trkpt lat="48.62579" lon="6.21811">
        <ele>177.41</ele>
        <time>2026-08-05T07:11:07.716Z</time>
      </trkpt>
      <trkpt lat="48.62556" lon="6.21793">
        <ele>178.35</ele>
        <time>2026-08-05T07:11:13.716Z</time>
      </trkpt>
      <trkpt lat="48.62533" lon="6.21774">
        <ele>176.98</ele>
        <time>2026-08-05T07:11:19.721Z</time>
      </trkpt>
      <trkpt lat="48.6251" lon="6.21757">
        <ele>175.93</ele>
        <time>2026-08-05T07:11:25.721Z</time>
      </trkpt>
      <trkpt lat="48.62485" lon="6.21739">
        <ele>175.73</ele>
        <time>2026-08-05T07:11:31.726Z</time>
      </trkpt>
      <trkpt lat="48.62465" lon="6.21722">
        <ele>175.59</ele>
        <time>2026-08-05T07:11:37.707Z</time>
      </trkpt>
      <trkpt lat="48.62447" lon="6.21707">
        <ele>176.82</ele>
        <time>2026-08-05T07:11:43.714Z</time>
      </trkpt>
      <trkpt lat="48.62428" lon="6.21688">
        <ele>177.83</ele>
        <time>2026-08-05T07:11:49.716Z</time>
      </trkpt>
      <trkpt lat="48.62408" lon="6.21664">
        <ele>176.27</ele>
        <time>2026-08-05T07:11:55.722Z</time>
      </trkpt>
      <trkpt lat="48.62385" lon="6.21637">
        <ele>174.9</ele>
        <time>2026-08-05T07:12:01.721Z</time>
      </trkpt>
      <trkpt lat="48.62363" lon="6.21611">
        <ele>175.05</ele>
        <time>2026-08-05T07:12:07.717Z</time>
      </trkpt>
      <trkpt lat="48.62346" lon="6.21584">
        <ele>176.25</ele>
        <time>2026-08-05T07:12:13.716Z</time>
      </trkpt>
      <trkpt lat="48.6233" lon="6.21555">
        <ele>180.07</ele>
        <time>2026-08-05T07:12:19.720Z</time>
      </trkpt>
      <trkpt lat="48.62317" lon="6.21532">
        <ele>181.37</ele>
        <time>2026-08-05T07:12:25.734Z</time>
      </trkpt>
      <trkpt lat="48.62303" lon="6.21505">
        <ele>183.66</ele>
        <time>2026-08-05T07:12:31.698Z</time>
      </trkpt>
      <trkpt lat="48.62288" lon="6.21475">
        <ele>182.95</ele>
        <time>2026-08-05T07:12:37.717Z</time>
      </trkpt>
      <trkpt lat="48.6227" lon="6.21443">
        <ele>183.38</ele>
        <time>2026-08-05T07:12:43.715Z</time>
      </trkpt>
      <trkpt lat="48.62252" lon="6.21412">
        <ele>184.48</ele>
        <time>2026-08-05T07:12:49.717Z</time>
      </trkpt>
      <trkpt lat="48.62236" lon="6.21384">
        <ele>182.77</ele>
        <time>2026-08-05T07:12:55.699Z</time>
      </trkpt>
      <trkpt lat="48.62222" lon="6.2136">
        <ele>180.85</ele>
        <time>2026-08-05T07:13:01.723Z</time>
      </trkpt>
      <trkpt lat="48.62207" lon="6.21333">
        <ele>182.68</ele>
        <time>2026-08-05T07:13:07.713Z</time>
      </trkpt>
      <trkpt lat="48.62194" lon="6.21304">
        <ele>182.62</ele>
        <time>2026-08-05T07:13:13.719Z</time>
      </trkpt>
      <trkpt lat="48.62182" lon="6.21271">
        <ele>183.06</ele>
        <time>2026-08-05T07:13:19.715Z</time>
      </trkpt>
      <trkpt lat="48.62169" lon="6.21237">
        <ele>183.15</ele>
        <time>2026-08-05T07:13:25.721Z</time>
      </trkpt>
      <trkpt lat="48.62157" lon="6.21205">
        <ele>186.28</ele>
        <time>2026-08-05T07:13:31.722Z</time>
      </trkpt>
      <trkpt lat="48.62148" lon="6.21172">
        <ele>187.64</ele>
        <time>2026-08-05T07:13:37.717Z</time>
      </trkpt>
      <trkpt lat="48.62141" lon="6.2114">
        <ele>188.77</ele>
        <time>2026-08-05T07:13:43.716Z</time>
      </trkpt>
      <trkpt lat="48.62133" lon="6.21109">
        <ele>189.87</ele>
        <time>2026-08-05T07:13:49.714Z</time>
      </trkpt>
      <trkpt lat="48.62131" lon="6.21073">
        <ele>189.29</ele>
        <time>2026-08-05T07:13:55.723Z</time>
      </trkpt>
      <trkpt lat="48.62128" lon="6.21036">
        <ele>188.97</ele>
        <time>2026-08-05T07:14:01.698Z</time>
      </trkpt>
      <trkpt lat="48.62121" lon="6.20999">
        <ele>189.63</ele>
        <time>2026-08-05T07:14:07.722Z</time>
      </trkpt>
      <trkpt lat="48.62114" lon="6.20962">
        <ele>190.02</ele>
        <time>2026-08-05T07:14:13.726Z</time>
      </trkpt>
      <trkpt lat="48.62109" lon="6.20927">
        <ele>190.67</ele>
        <time>2026-08-05T07:14:19.721Z</time>
      </trkpt>
      <trkpt lat="48.62102" lon="6.20894">
        <ele>191.31</ele>
        <time>2026-08-05T07:14:25.674Z</time>
      </trkpt>
      <trkpt lat="48.62098" lon="6.20867">
        <ele>191.47</ele>
        <time>2026-08-05T07:14:30.677Z</time>
      </trkpt>
      <trkpt lat="48.62093" lon="6.20833">
        <ele>191.76</ele>
        <time>2026-08-05T07:14:36.667Z</time>
      </trkpt>
      <trkpt lat="48.6209" lon="6.20802">
        <ele>192.37</ele>
        <time>2026-08-05T07:14:41.673Z</time>
      </trkpt>
      <trkpt lat="48.62085" lon="6.20773">
        <ele>192.84</ele>
        <time>2026-08-05T07:14:46.675Z</time>
      </trkpt>
      <trkpt lat="48.6208" lon="6.20739">
        <ele>192.72</ele>
        <time>2026-08-05T07:14:52.677Z</time>
      </trkpt>
      <trkpt lat="48.62073" lon="6.20703">
        <ele>193.18</ele>
        <time>2026-08-05T07:14:58.677Z</time>
      </trkpt>
      <trkpt lat="48.62068" lon="6.2067">
        <ele>193.91</ele>
        <time>2026-08-05T07:15:04.673Z</time>
      </trkpt>
      <trkpt lat="48.62061" lon="6.20638">
        <ele>194.21</ele>
        <time>2026-08-05T07:15:10.674Z</time>
      </trkpt>
      <trkpt lat="48.62055" lon="6.20604">
        <ele>194.83</ele>
        <time>2026-08-05T07:15:16.674Z</time>
      </trkpt>
      <trkpt lat="48.62051" lon="6.20575">
        <ele>195.26</ele>
        <time>2026-08-05T07:15:21.676Z</time>
      </trkpt>
      <trkpt lat="48.62047" lon="6.20545">
        <ele>195.39</ele>
        <time>2026-08-05T07:15:26.678Z</time>
      </trkpt>
      <trkpt lat="48.62038" lon="6.20516">
        <ele>194.88</ele>
        <time>2026-08-05T07:15:31.725Z</time>
      </trkpt>
      <trkpt lat="48.62024" lon="6.20486">
        <ele>194.29</ele>
        <time>2026-08-05T07:15:37.720Z</time>
      </trkpt>
      <trkpt lat="48.62012" lon="6.20456">
        <ele>194.44</ele>
        <time>2026-08-05T07:15:43.719Z</time>
      </trkpt>
      <trkpt lat="48.62009" lon="6.20428">
        <ele>196.64</ele>
        <time>2026-08-05T07:15:49.722Z</time>
      </trkpt>
      <trkpt lat="48.62006" lon="6.20398">
        <ele>199.37</ele>
        <time>2026-08-05T07:15:55.677Z</time>
      </trkpt>
      <trkpt lat="48.62002" lon="6.20385">
        <ele>201.5</ele>
        <time>2026-08-05T07:16:01.822Z</time>
      </trkpt>
      <trkpt lat="48.61997" lon="6.2037">
        <ele>200.68</ele>
        <time>2026-08-05T07:16:10.676Z</time>
      </trkpt>
      <trkpt lat="48.61986" lon="6.20348">
        <ele>199.64</ele>
        <time>2026-08-05T07:16:15.679Z</time>
      </trkpt>
      <trkpt lat="48.61963" lon="6.20357">
        <ele>198.43</ele>
        <time>2026-08-05T07:16:21.673Z</time>
      </trkpt>
      <trkpt lat="48.61962" lon="6.20382">
        <ele>199.57</ele>
        <time>2026-08-05T07:16:26.674Z</time>
      </trkpt>
      <trkpt lat="48.61968" lon="6.20401">
        <ele>200.98</ele>
        <time>2026-08-05T07:16:31.724Z</time>
      </trkpt>
      <trkpt lat="48.61957" lon="6.20424">
        <ele>200.67</ele>
        <time>2026-08-05T07:16:37.724Z</time>
      </trkpt>
      <trkpt lat="48.6194" lon="6.20422">
        <ele>199.85</ele>
        <time>2026-08-05T07:16:43.728Z</time>
      </trkpt>
      <trkpt lat="48.61916" lon="6.20401">
        <ele>199.24</ele>
        <time>2026-08-05T07:16:49.723Z</time>
      </trkpt>
      <trkpt lat="48.61889" lon="6.20384">
        <ele>199.91</ele>
        <time>2026-08-05T07:16:55.736Z</time>
      </trkpt>
      <trkpt lat="48.61865" lon="6.20362">
        <ele>198.97</ele>
        <time>2026-08-05T07:17:01.725Z</time>
      </trkpt>
      <trkpt lat="48.6184" lon="6.20338">
        <ele>198.38</ele>
        <time>2026-08-05T07:17:07.723Z</time>
      </trkpt>
      <trkpt lat="48.61819" lon="6.20315">
        <ele>197.43</ele>
        <time>2026-08-05T07:17:13.723Z</time>
      </trkpt>
      <trkpt lat="48.61791" lon="6.20297">
        <ele>196.74</ele>
        <time>2026-08-05T07:17:19.716Z</time>
      </trkpt>
      <trkpt lat="48.61762" lon="6.20275">
        <ele>197.95</ele>
        <time>2026-08-05T07:17:25.733Z</time>
      </trkpt>
      <trkpt lat="48.61735" lon="6.2025">
        <ele>197.93</ele>
        <time>2026-08-05T07:17:31.720Z</time>
      </trkpt>
      <trkpt lat="48.61708" lon="6.20227">
        <ele>197.52</ele>
        <time>2026-08-05T07:17:37.720Z</time>
      </trkpt>
      <trkpt lat="48.61682" lon="6.20204">
        <ele>197.48</ele>
        <time>2026-08-05T07:17:43.721Z</time>
      </trkpt>
      <trkpt lat="48.61655" lon="6.2018">
        <ele>196.29</ele>
        <time>2026-08-05T07:17:49.724Z</time>
      </trkpt>
      <trkpt lat="48.61628" lon="6.20155">
        <ele>196.25</ele>
        <time>2026-08-05T07:17:55.733Z</time>
      </trkpt>
      <trkpt lat="48.61601" lon="6.20131">
        <ele>197.65</ele>
        <time>2026-08-05T07:18:01.722Z</time>
      </trkpt>
      <trkpt lat="48.61575" lon="6.20107">
        <ele>196.52</ele>
        <time>2026-08-05T07:18:07.723Z</time>
      </trkpt>
      <trkpt lat="48.61551" lon="6.20085">
        <ele>196.06</ele>
        <time>2026-08-05T07:18:13.721Z</time>
      </trkpt>
      <trkpt lat="48.61526" lon="6.2006">
        <ele>195.39</ele>
        <time>2026-08-05T07:18:19.724Z</time>
      </trkpt>
      <trkpt lat="48.61503" lon="6.20033">
        <ele>197.1</ele>
        <time>2026-08-05T07:18:25.681Z</time>
      </trkpt>
      <trkpt lat="48.61481" lon="6.20004">
        <ele>195.24</ele>
        <time>2026-08-05T07:18:31.698Z</time>
      </trkpt>
      <trkpt lat="48.61457" lon="6.19974">
        <ele>194.78</ele>
        <time>2026-08-05T07:18:37.724Z</time>
      </trkpt>
      <trkpt lat="48.61434" lon="6.19942">
        <ele>196.17</ele>
        <time>2026-08-05T07:18:43.724Z</time>
      </trkpt>
      <trkpt lat="48.61412" lon="6.19907">
        <ele>197.49</ele>
        <time>2026-08-05T07:18:49.722Z</time>
      </trkpt>
      <trkpt lat="48.6139" lon="6.19874">
        <ele>198.55</ele>
        <time>2026-08-05T07:18:55.735Z</time>
      </trkpt>
      <trkpt lat="48.6137" lon="6.19838">
        <ele>197.16</ele>
        <time>2026-08-05T07:19:01.722Z</time>
      </trkpt>
      <trkpt lat="48.61351" lon="6.19801">
        <ele>197.35</ele>
        <time>2026-08-05T07:19:07.720Z</time>
      </trkpt>
      <trkpt lat="48.61332" lon="6.19765">
        <ele>198.08</ele>
        <time>2026-08-05T07:19:13.720Z</time>
      </trkpt>
      <trkpt lat="48.61315" lon="6.19729">
        <ele>196.47</ele>
        <time>2026-08-05T07:19:19.720Z</time>
      </trkpt>
      <trkpt lat="48.61296" lon="6.19691">
        <ele>195.91</ele>
        <time>2026-08-05T07:19:25.733Z</time>
      </trkpt>
      <trkpt lat="48.61278" lon="6.19655">
        <ele>195.14</ele>
        <time>2026-08-05T07:19:31.697Z</time>
      </trkpt>
      <trkpt lat="48.61259" lon="6.19617">
        <ele>194.54</ele>
        <time>2026-08-05T07:19:37.723Z</time>
      </trkpt>
      <trkpt lat="48.61243" lon="6.1958">
        <ele>195.02</ele>
        <time>2026-08-05T07:19:43.722Z</time>
      </trkpt>
      <trkpt lat="48.61227" lon="6.19543">
        <ele>196.3</ele>
        <time>2026-08-05T07:19:49.727Z</time>
      </trkpt>
      <trkpt lat="48.61211" lon="6.19507">
        <ele>197.54</ele>
        <time>2026-08-05T07:19:55.732Z</time>
      </trkpt>
      <trkpt lat="48.61194" lon="6.19469">
        <ele>197.77</ele>
        <time>2026-08-05T07:20:01.675Z</time>
      </trkpt>
      <trkpt lat="48.6118" lon="6.1944">
        <ele>200.01</ele>
        <time>2026-08-05T07:20:06.678Z</time>
      </trkpt>
      <trkpt lat="48.61165" lon="6.19407">
        <ele>200.02</ele>
        <time>2026-08-05T07:20:12.676Z</time>
      </trkpt>
      <trkpt lat="48.61157" lon="6.19386">
        <ele>198.61</ele>
        <time>2026-08-05T07:20:18.676Z</time>
      </trkpt>
      <trkpt lat="48.61149" lon="6.19359">
        <ele>198.49</ele>
        <time>2026-08-05T07:20:23.676Z</time>
      </trkpt>
      <trkpt lat="48.61136" lon="6.19338">
        <ele>198.98</ele>
        <time>2026-08-05T07:20:28.677Z</time>
      </trkpt>
      <trkpt lat="48.61121" lon="6.19309">
        <ele>199.82</ele>
        <time>2026-08-05T07:20:34.674Z</time>
      </trkpt>
      <trkpt lat="48.61108" lon="6.19281">
        <ele>199.55</ele>
        <time>2026-08-05T07:20:39.674Z</time>
      </trkpt>
      <trkpt lat="48.61095" lon="6.19252">
        <ele>198.95</ele>
        <time>2026-08-05T07:20:44.674Z</time>
      </trkpt>
      <trkpt lat="48.61083" lon="6.19224">
        <ele>198.99</ele>
        <time>2026-08-05T07:20:49.720Z</time>
      </trkpt>
      <trkpt lat="48.61066" lon="6.19192">
        <ele>199.46</ele>
        <time>2026-08-05T07:20:55.736Z</time>
      </trkpt>
      <trkpt lat="48.61051" lon="6.19157">
        <ele>200.17</ele>
        <time>2026-08-05T07:21:01.721Z</time>
      </trkpt>
      <trkpt lat="48.61034" lon="6.19127">
        <ele>200.77</ele>
        <time>2026-08-05T07:21:07.725Z</time>
      </trkpt>
      <trkpt lat="48.61018" lon="6.19094">
        <ele>198.4</ele>
        <time>2026-08-05T07:21:13.723Z</time>
      </trkpt>
      <trkpt lat="48.61002" lon="6.1906">
        <ele>197.59</ele>
        <time>2026-08-05T07:21:19.719Z</time>
      </trkpt>
      <trkpt lat="48.60987" lon="6.19026">
        <ele>198.66</ele>
        <time>2026-08-05T07:21:25.732Z</time>
      </trkpt>
      <trkpt lat="48.60971" lon="6.18991">
        <ele>199.09</ele>
        <time>2026-08-05T07:21:31.721Z</time>
      </trkpt>
      <trkpt lat="48.60955" lon="6.18956">
        <ele>199.42</ele>
        <time>2026-08-05T07:21:37.722Z</time>
      </trkpt>
      <trkpt lat="48.60939" lon="6.18921">
        <ele>199.01</ele>
        <time>2026-08-05T07:21:43.724Z</time>
      </trkpt>
      <trkpt lat="48.60924" lon="6.18885">
        <ele>198.85</ele>
        <time>2026-08-05T07:21:49.721Z</time>
      </trkpt>
      <trkpt lat="48.60908" lon="6.18851">
        <ele>199.17</ele>
        <time>2026-08-05T07:21:55.732Z</time>
      </trkpt>
      <trkpt lat="48.60893" lon="6.18816">
        <ele>199.48</ele>
        <time>2026-08-05T07:22:01.734Z</time>
      </trkpt>
      <trkpt lat="48.60878" lon="6.18781">
        <ele>199.65</ele>
        <time>2026-08-05T07:22:07.720Z</time>
      </trkpt>
      <trkpt lat="48.60864" lon="6.18743">
        <ele>199.62</ele>
        <time>2026-08-05T07:22:13.726Z</time>
      </trkpt>
      <trkpt lat="48.60853" lon="6.18704">
        <ele>198.15</ele>
        <time>2026-08-05T07:22:19.720Z</time>
      </trkpt>
      <trkpt lat="48.60845" lon="6.18664">
        <ele>198.24</ele>
        <time>2026-08-05T07:22:25.735Z</time>
      </trkpt>
      <trkpt lat="48.60837" lon="6.18623">
        <ele>200.02</ele>
        <time>2026-08-05T07:22:31.724Z</time>
      </trkpt>
      <trkpt lat="48.60831" lon="6.18582">
        <ele>200.36</ele>
        <time>2026-08-05T07:22:37.722Z</time>
      </trkpt>
      <trkpt lat="48.60827" lon="6.18541">
        <ele>200.55</ele>
        <time>2026-08-05T07:22:43.722Z</time>
      </trkpt>
      <trkpt lat="48.60824" lon="6.18498">
        <ele>198.05</ele>
        <time>2026-08-05T07:22:49.723Z</time>
      </trkpt>
      <trkpt lat="48.60822" lon="6.18457">
        <ele>197.38</ele>
        <time>2026-08-05T07:22:55.732Z</time>
      </trkpt>
      <trkpt lat="48.60822" lon="6.18416">
        <ele>198.87</ele>
        <time>2026-08-05T07:23:01.731Z</time>
      </trkpt>
      <trkpt lat="48.60823" lon="6.18376">
        <ele>198.62</ele>
        <time>2026-08-05T07:23:07.721Z</time>
      </trkpt>
      <trkpt lat="48.60823" lon="6.18335">
        <ele>197.51</ele>
        <time>2026-08-05T07:23:13.722Z</time>
      </trkpt>
      <trkpt lat="48.60822" lon="6.18293">
        <ele>197.28</ele>
        <time>2026-08-05T07:23:19.724Z</time>
      </trkpt>
      <trkpt lat="48.60824" lon="6.18253">
        <ele>195.29</ele>
        <time>2026-08-05T07:23:25.733Z</time>
      </trkpt>
      <trkpt lat="48.60825" lon="6.18212">
        <ele>194.25</ele>
        <time>2026-08-05T07:23:31.729Z</time>
      </trkpt>
      <trkpt lat="48.60828" lon="6.18171">
        <ele>195.5</ele>
        <time>2026-08-05T07:23:37.727Z</time>
      </trkpt>
      <trkpt lat="48.6083" lon="6.18131">
        <ele>195.94</ele>
        <time>2026-08-05T07:23:43.722Z</time>
      </trkpt>
      <trkpt lat="48.60825" lon="6.18089">
        <ele>196.02</ele>
        <time>2026-08-05T07:23:49.721Z</time>
      </trkpt>
      <trkpt lat="48.60822" lon="6.1805">
        <ele>194.93</ele>
        <time>2026-08-05T07:23:55.729Z</time>
      </trkpt>
      <trkpt lat="48.60823" lon="6.18008">
        <ele>197.19</ele>
        <time>2026-08-05T07:24:01.732Z</time>
      </trkpt>
      <trkpt lat="48.60824" lon="6.17965">
        <ele>199.89</ele>
        <time>2026-08-05T07:24:07.724Z</time>
      </trkpt>
      <trkpt lat="48.60825" lon="6.17922">
        <ele>201.45</ele>
        <time>2026-08-05T07:24:13.723Z</time>
      </trkpt>
      <trkpt lat="48.60826" lon="6.1788">
        <ele>201.8</ele>
        <time>2026-08-05T07:24:19.724Z</time>
      </trkpt>
      <trkpt lat="48.60827" lon="6.1784">
        <ele>202.48</ele>
        <time>2026-08-05T07:24:25.728Z</time>
      </trkpt>
      <trkpt lat="48.60827" lon="6.17802">
        <ele>203.15</ele>
        <time>2026-08-05T07:24:31.727Z</time>
      </trkpt>
      <trkpt lat="48.60828" lon="6.17761">
        <ele>202.42</ele>
        <time>2026-08-05T07:24:37.721Z</time>
      </trkpt>
      <trkpt lat="48.60828" lon="6.17719">
        <ele>203.04</ele>
        <time>2026-08-05T07:24:43.721Z</time>
      </trkpt>
      <trkpt lat="48.60828" lon="6.17677">
        <ele>202.19</ele>
        <time>2026-08-05T07:24:49.724Z</time>
      </trkpt>
      <trkpt lat="48.60828" lon="6.17635">
        <ele>201.05</ele>
        <time>2026-08-05T07:24:55.732Z</time>
      </trkpt>
      <trkpt lat="48.60828" lon="6.17593">
        <ele>200.1</ele>
        <time>2026-08-05T07:25:01.699Z</time>
      </trkpt>
      <trkpt lat="48.60826" lon="6.17551">
        <ele>198.75</ele>
        <time>2026-08-05T07:25:07.723Z</time>
      </trkpt>
      <trkpt lat="48.60829" lon="6.17504">
        <ele>195.35</ele>
        <time>2026-08-05T07:25:13.722Z</time>
      </trkpt>
      <trkpt lat="48.60828" lon="6.17468">
        <ele>192.03</ele>
        <time>2026-08-05T07:25:19.725Z</time>
      </trkpt>
      <trkpt lat="48.60836" lon="6.17425">
        <ele>196.26</ele>
        <time>2026-08-05T07:25:25.727Z</time>
      </trkpt>
      <trkpt lat="48.60836" lon="6.17388">
        <ele>197.84</ele>
        <time>2026-08-05T07:25:31.730Z</time>
      </trkpt>
      <trkpt lat="48.60835" lon="6.17373">
        <ele>198.21</ele>
        <time>2026-08-05T07:25:37.726Z</time>
      </trkpt>
      <trkpt lat="48.60833" lon="6.17357">
        <ele>198.13</ele>
        <time>2026-08-05T07:27:31.725Z</time>
      </trkpt>
      <trkpt lat="48.60832" lon="6.17333">
        <ele>196.58</ele>
        <time>2026-08-05T07:27:37.726Z</time>
      </trkpt>
      <trkpt lat="48.60833" lon="6.17301">
        <ele>195.66</ele>
        <time>2026-08-05T07:27:43.723Z</time>
      </trkpt>
      <trkpt lat="48.60837" lon="6.17252">
        <ele>194.87</ele>
        <time>2026-08-05T07:27:49.716Z</time>
      </trkpt>
      <trkpt lat="48.60835" lon="6.17211">
        <ele>196.12</ele>
        <time>2026-08-05T07:27:55.731Z</time>
      </trkpt>
      <trkpt lat="48.60835" lon="6.17168">
        <ele>196.07</ele>
        <time>2026-08-05T07:28:01.723Z</time>
      </trkpt>
      <trkpt lat="48.60835" lon="6.17122">
        <ele>195.29</ele>
        <time>2026-08-05T07:28:07.723Z</time>
      </trkpt>
      <trkpt lat="48.60833" lon="6.17074">
        <ele>193.63</ele>
        <time>2026-08-05T07:28:13.725Z</time>
      </trkpt>
      <trkpt lat="48.6083" lon="6.17027">
        <ele>192.95</ele>
        <time>2026-08-05T07:28:19.724Z</time>
      </trkpt>
      <trkpt lat="48.60824" lon="6.16984">
        <ele>192.19</ele>
        <time>2026-08-05T07:28:25.695Z</time>
      </trkpt>
      <trkpt lat="48.60816" lon="6.16941">
        <ele>190.69</ele>
        <time>2026-08-05T07:28:31.729Z</time>
      </trkpt>
      <trkpt lat="48.60808" lon="6.16897">
        <ele>190.72</ele>
        <time>2026-08-05T07:28:37.726Z</time>
      </trkpt>
      <trkpt lat="48.60799" lon="6.16853">
        <ele>193.72</ele>
        <time>2026-08-05T07:28:43.722Z</time>
      </trkpt>
      <trkpt lat="48.60787" lon="6.16812">
        <ele>195.58</ele>
        <time>2026-08-05T07:28:49.723Z</time>
      </trkpt>
      <trkpt lat="48.60775" lon="6.16773">
        <ele>195.75</ele>
        <time>2026-08-05T07:28:55.734Z</time>
      </trkpt>
      <trkpt lat="48.60762" lon="6.16736">
        <ele>195.8</ele>
        <time>2026-08-05T07:29:01.732Z</time>
      </trkpt>
      <trkpt lat="48.60749" lon="6.16704">
        <ele>195.08</ele>
        <time>2026-08-05T07:29:07.722Z</time>
      </trkpt>
      <trkpt lat="48.60735" lon="6.1667">
        <ele>194.91</ele>
        <time>2026-08-05T07:29:13.724Z</time>
      </trkpt>
      <trkpt lat="48.60722" lon="6.16638">
        <ele>195.79</ele>
        <time>2026-08-05T07:29:19.726Z</time>
      </trkpt>
      <trkpt lat="48.60708" lon="6.16603">
        <ele>196.56</ele>
        <time>2026-08-05T07:29:25.733Z</time>
      </trkpt>
      <trkpt lat="48.60695" lon="6.16561">
        <ele>197.23</ele>
        <time>2026-08-05T07:29:31.729Z</time>
      </trkpt>
      <trkpt lat="48.60678" lon="6.16525">
        <ele>197.04</ele>
        <time>2026-08-05T07:29:37.720Z</time>
      </trkpt>
      <trkpt lat="48.60656" lon="6.16476">
        <ele>195.86</ele>
        <time>2026-08-05T07:29:43.724Z</time>
      </trkpt>
      <trkpt lat="48.60637" lon="6.16429">
        <ele>193.99</ele>
        <time>2026-08-05T07:29:49.722Z</time>
      </trkpt>
      <trkpt lat="48.60622" lon="6.16393">
        <ele>190.78</ele>
        <time>2026-08-05T07:29:55.734Z</time>
      </trkpt>
      <trkpt lat="48.60607" lon="6.16357">
        <ele>187.24</ele>
        <time>2026-08-05T07:30:01.728Z</time>
      </trkpt>
      <trkpt lat="48.60589" lon="6.16317">
        <ele>188.17</ele>
        <time>2026-08-05T07:30:07.724Z</time>
      </trkpt>
      <trkpt lat="48.60572" lon="6.16279">
        <ele>188.47</ele>
        <time>2026-08-05T07:30:13.722Z</time>
      </trkpt>
      <trkpt lat="48.60553" lon="6.16237">
        <ele>189.01</ele>
        <time>2026-08-05T07:30:19.723Z</time>
      </trkpt>
      <trkpt lat="48.60537" lon="6.16197">
        <ele>189.87</ele>
        <time>2026-08-05T07:30:25.735Z</time>
      </trkpt>
      <trkpt lat="48.60523" lon="6.16161">
        <ele>190.14</ele>
        <time>2026-08-05T07:30:31.728Z</time>
      </trkpt>
      <trkpt lat="48.60509" lon="6.16123">
        <ele>189.97</ele>
        <time>2026-08-05T07:30:37.729Z</time>
      </trkpt>
      <trkpt lat="48.60491" lon="6.16084">
        <ele>189.56</ele>
        <time>2026-08-05T07:30:43.723Z</time>
      </trkpt>
      <trkpt lat="48.60472" lon="6.16046">
        <ele>188.77</ele>
        <time>2026-08-05T07:30:49.723Z</time>
      </trkpt>
      <trkpt lat="48.60453" lon="6.16013">
        <ele>188.35</ele>
        <time>2026-08-05T07:30:55.693Z</time>
      </trkpt>
      <trkpt lat="48.60431" lon="6.1598">
        <ele>186.88</ele>
        <time>2026-08-05T07:31:01.726Z</time>
      </trkpt>
      <trkpt lat="48.60409" lon="6.15953">
        <ele>187.14</ele>
        <time>2026-08-05T07:31:07.722Z</time>
      </trkpt>
      <trkpt lat="48.60386" lon="6.15923">
        <ele>187.35</ele>
        <time>2026-08-05T07:31:13.723Z</time>
      </trkpt>
      <trkpt lat="48.60364" lon="6.15897">
        <ele>189.69</ele>
        <time>2026-08-05T07:31:19.726Z</time>
      </trkpt>
      <trkpt lat="48.60344" lon="6.1587">
        <ele>190.25</ele>
        <time>2026-08-05T07:31:25.736Z</time>
      </trkpt>
      <trkpt lat="48.60323" lon="6.15844">
        <ele>190.88</ele>
        <time>2026-08-05T07:31:31.727Z</time>
      </trkpt>
      <trkpt lat="48.603" lon="6.15817">
        <ele>190.53</ele>
        <time>2026-08-05T07:31:37.724Z</time>
      </trkpt>
      <trkpt lat="48.60274" lon="6.15783">
        <ele>188.59</ele>
        <time>2026-08-05T07:31:43.723Z</time>
      </trkpt>
      <trkpt lat="48.60244" lon="6.15744">
        <ele>188.33</ele>
        <time>2026-08-05T07:31:49.722Z</time>
      </trkpt>
      <trkpt lat="48.60219" lon="6.15718">
        <ele>187.02</ele>
        <time>2026-08-05T07:31:55.733Z</time>
      </trkpt>
      <trkpt lat="48.60207" lon="6.15701">
        <ele>185.22</ele>
        <time>2026-08-05T07:32:01.708Z</time>
      </trkpt>
      <trkpt lat="48.60204" lon="6.15674">
        <ele>184.61</ele>
        <time>2026-08-05T07:32:07.722Z</time>
      </trkpt>
      <trkpt lat="48.60191" lon="6.15652">
        <ele>186.18</ele>
        <time>2026-08-05T07:32:13.723Z</time>
      </trkpt>
      <trkpt lat="48.60181" lon="6.15626">
        <ele>186.99</ele>
        <time>2026-08-05T07:32:19.723Z</time>
      </trkpt>
      <trkpt lat="48.60167" lon="6.15594">
        <ele>189.56</ele>
        <time>2026-08-05T07:32:25.735Z</time>
      </trkpt>
      <trkpt lat="48.6016" lon="6.15582">
        <ele>191.27</ele>
        <time>2026-08-05T07:32:31.679Z</time>
      </trkpt>
      <trkpt lat="48.60167" lon="6.15567">
        <ele>187.9</ele>
        <time>2026-08-05T07:41:07.732Z</time>
      </trkpt>
      <trkpt lat="48.60165" lon="6.15549">
        <ele>187.31</ele>
        <time>2026-08-05T07:41:13.645Z</time>
      </trkpt>
      <trkpt lat="48.60171" lon="6.15513">
        <ele>185.98</ele>
        <time>2026-08-05T07:41:18.676Z</time>
      </trkpt>
      <trkpt lat="48.60195" lon="6.15473">
        <ele>182.24</ele>
        <time>2026-08-05T07:41:24.677Z</time>
      </trkpt>
      <trkpt lat="48.60215" lon="6.15446">
        <ele>181.24</ele>
        <time>2026-08-05T07:41:29.678Z</time>
      </trkpt>
      <trkpt lat="48.60235" lon="6.15419">
        <ele>181.33</ele>
        <time>2026-08-05T07:41:35.679Z</time>
      </trkpt>
      <trkpt lat="48.60244" lon="6.15416">
        <ele>182.48</ele>
        <time>2026-08-05T07:41:44.673Z</time>
      </trkpt>
      <trkpt lat="48.60236" lon="6.15392">
        <ele>183.99</ele>
        <time>2026-08-05T07:41:59.671Z</time>
      </trkpt>
      <trkpt lat="48.60242" lon="6.15372">
        <ele>182.51</ele>
        <time>2026-08-05T07:42:04.678Z</time>
      </trkpt>
      <trkpt lat="48.6025" lon="6.1536">
        <ele>179.55</ele>
        <time>2026-08-05T07:42:10.215Z</time>
      </trkpt>
      <trkpt lat="48.60268" lon="6.15337">
        <ele>178.26</ele>
        <time>2026-08-05T07:42:15.510Z</time>
      </trkpt>
      <trkpt lat="48.60288" lon="6.15319">
        <ele>178.18</ele>
        <time>2026-08-05T07:42:20.673Z</time>
      </trkpt>
      <trkpt lat="48.60308" lon="6.15297">
        <ele>175.91</ele>
        <time>2026-08-05T07:42:25.734Z</time>
      </trkpt>
      <trkpt lat="48.60333" lon="6.1527">
        <ele>170.45</ele>
        <time>2026-08-05T07:42:31.735Z</time>
      </trkpt>
      <trkpt lat="48.60362" lon="6.1524">
        <ele>169.77</ele>
        <time>2026-08-05T07:42:37.737Z</time>
      </trkpt>
      <trkpt lat="48.60391" lon="6.15212">
        <ele>173.59</ele>
        <time>2026-08-05T07:42:43.735Z</time>
      </trkpt>
      <trkpt lat="48.60419" lon="6.15183">
        <ele>176.36</ele>
        <time>2026-08-05T07:42:49.736Z</time>
      </trkpt>
      <trkpt lat="48.60448" lon="6.15154">
        <ele>178.36</ele>
        <time>2026-08-05T07:42:55.734Z</time>
      </trkpt>
      <trkpt lat="48.60477" lon="6.15124">
        <ele>181.68</ele>
        <time>2026-08-05T07:43:01.735Z</time>
      </trkpt>
      <trkpt lat="48.60504" lon="6.15096">
        <ele>182.5</ele>
        <time>2026-08-05T07:43:07.738Z</time>
      </trkpt>
      <trkpt lat="48.60532" lon="6.15068">
        <ele>181.65</ele>
        <time>2026-08-05T07:43:13.735Z</time>
      </trkpt>
      <trkpt lat="48.6056" lon="6.15042">
        <ele>180.38</ele>
        <time>2026-08-05T07:43:19.736Z</time>
      </trkpt>
      <trkpt lat="48.60587" lon="6.15019">
        <ele>182.46</ele>
        <time>2026-08-05T07:43:25.692Z</time>
      </trkpt>
      <trkpt lat="48.60615" lon="6.15">
        <ele>183.48</ele>
        <time>2026-08-05T07:43:31.736Z</time>
      </trkpt>
      <trkpt lat="48.60642" lon="6.14983">
        <ele>181.28</ele>
        <time>2026-08-05T07:43:37.736Z</time>
      </trkpt>
      <trkpt lat="48.60673" lon="6.14968">
        <ele>179.57</ele>
        <time>2026-08-05T07:43:43.738Z</time>
      </trkpt>
      <trkpt lat="48.60704" lon="6.14952">
        <ele>181.5</ele>
        <time>2026-08-05T07:43:49.734Z</time>
      </trkpt>
      <trkpt lat="48.60735" lon="6.14938">
        <ele>179.67</ele>
        <time>2026-08-05T07:43:55.736Z</time>
      </trkpt>
      <trkpt lat="48.60765" lon="6.14922">
        <ele>179.8</ele>
        <time>2026-08-05T07:44:01.742Z</time>
      </trkpt>
      <trkpt lat="48.60796" lon="6.14908">
        <ele>179.35</ele>
        <time>2026-08-05T07:44:07.740Z</time>
      </trkpt>
      <trkpt lat="48.60825" lon="6.1489">
        <ele>178.74</ele>
        <time>2026-08-05T07:44:13.738Z</time>
      </trkpt>
      <trkpt lat="48.6085" lon="6.14861">
        <ele>177.2</ele>
        <time>2026-08-05T07:44:19.739Z</time>
      </trkpt>
      <trkpt lat="48.60875" lon="6.14825">
        <ele>176.9</ele>
        <time>2026-08-05T07:44:25.735Z</time>
      </trkpt>
      <trkpt lat="48.60894" lon="6.14781">
        <ele>178.75</ele>
        <time>2026-08-05T07:44:31.741Z</time>
      </trkpt>
      <trkpt lat="48.60906" lon="6.14737">
        <ele>180.43</ele>
        <time>2026-08-05T07:44:37.739Z</time>
      </trkpt>
      <trkpt lat="48.60913" lon="6.1469">
        <ele>181.32</ele>
        <time>2026-08-05T07:44:43.736Z</time>
      </trkpt>
      <trkpt lat="48.60919" lon="6.14642">
        <ele>180.33</ele>
        <time>2026-08-05T07:44:49.740Z</time>
      </trkpt>
      <trkpt lat="48.60924" lon="6.14592">
        <ele>182.53</ele>
        <time>2026-08-05T07:44:55.740Z</time>
      </trkpt>
      <trkpt lat="48.60929" lon="6.14544">
        <ele>182.07</ele>
        <time>2026-08-05T07:45:01.734Z</time>
      </trkpt>
      <trkpt lat="48.60936" lon="6.14496">
        <ele>183.31</ele>
        <time>2026-08-05T07:45:07.735Z</time>
      </trkpt>
      <trkpt lat="48.6094" lon="6.1445">
        <ele>183.04</ele>
        <time>2026-08-05T07:45:13.736Z</time>
      </trkpt>
      <trkpt lat="48.60946" lon="6.14405">
        <ele>181.95</ele>
        <time>2026-08-05T07:45:19.736Z</time>
      </trkpt>
      <trkpt lat="48.60952" lon="6.14357">
        <ele>180.89</ele>
        <time>2026-08-05T07:45:25.739Z</time>
      </trkpt>
      <trkpt lat="48.60958" lon="6.14312">
        <ele>179.6</ele>
        <time>2026-08-05T07:45:31.736Z</time>
      </trkpt>
      <trkpt lat="48.60966" lon="6.14272">
        <ele>177.88</ele>
        <time>2026-08-05T07:45:37.737Z</time>
      </trkpt>
      <trkpt lat="48.60968" lon="6.14227">
        <ele>177.99</ele>
        <time>2026-08-05T07:45:43.735Z</time>
      </trkpt>
      <trkpt lat="48.60972" lon="6.14178">
        <ele>178.64</ele>
        <time>2026-08-05T07:45:49.734Z</time>
      </trkpt>
      <trkpt lat="48.60977" lon="6.14129">
        <ele>180.6</ele>
        <time>2026-08-05T07:45:55.741Z</time>
      </trkpt>
      <trkpt lat="48.60983" lon="6.14082">
        <ele>180.7</ele>
        <time>2026-08-05T07:46:01.739Z</time>
      </trkpt>
      <trkpt lat="48.60988" lon="6.14037">
        <ele>177.53</ele>
        <time>2026-08-05T07:46:07.734Z</time>
      </trkpt>
      <trkpt lat="48.60995" lon="6.13997">
        <ele>174.78</ele>
        <time>2026-08-05T07:46:13.733Z</time>
      </trkpt>
      <trkpt lat="48.61" lon="6.13949">
        <ele>172.47</ele>
        <time>2026-08-05T07:46:19.734Z</time>
      </trkpt>
      <trkpt lat="48.60999" lon="6.13902">
        <ele>177.52</ele>
        <time>2026-08-05T07:46:25.739Z</time>
      </trkpt>
      <trkpt lat="48.60964" lon="6.13894">
        <ele>179.1</ele>
        <time>2026-08-05T07:46:31.737Z</time>
      </trkpt>
      <trkpt lat="48.60934" lon="6.13891">
        <ele>179.35</ele>
        <time>2026-08-05T07:46:37.738Z</time>
      </trkpt>
      <trkpt lat="48.60911" lon="6.13888">
        <ele>179.23</ele>
        <time>2026-08-05T07:46:43.742Z</time>
      </trkpt>
      <trkpt lat="48.60891" lon="6.13874">
        <ele>180.02</ele>
        <time>2026-08-05T07:46:49.735Z</time>
      </trkpt>
      <trkpt lat="48.60886" lon="6.13838">
        <ele>178.59</ele>
        <time>2026-08-05T07:46:55.740Z</time>
      </trkpt>
      <trkpt lat="48.6088" lon="6.13794">
        <ele>177.62</ele>
        <time>2026-08-05T07:47:01.743Z</time>
      </trkpt>
      <trkpt lat="48.60883" lon="6.13751">
        <ele>174.3</ele>
        <time>2026-08-05T07:47:07.734Z</time>
      </trkpt>
      <trkpt lat="48.60901" lon="6.13717">
        <ele>171.41</ele>
        <time>2026-08-05T07:47:13.735Z</time>
      </trkpt>
      <trkpt lat="48.60913" lon="6.13677">
        <ele>171.88</ele>
        <time>2026-08-05T07:47:19.733Z</time>
      </trkpt>
      <trkpt lat="48.60895" lon="6.13654">
        <ele>174.31</ele>
        <time>2026-08-05T07:47:25.741Z</time>
      </trkpt>
      <trkpt lat="48.60869" lon="6.13648">
        <ele>176.56</ele>
        <time>2026-08-05T07:47:31.735Z</time>
      </trkpt>
      <trkpt lat="48.60852" lon="6.13611">
        <ele>175.31</ele>
        <time>2026-08-05T07:47:37.734Z</time>
      </trkpt>
      <trkpt lat="48.60828" lon="6.13556">
        <ele>172.58</ele>
        <time>2026-08-05T07:47:43.735Z</time>
      </trkpt>
      <trkpt lat="48.60807" lon="6.13503">
        <ele>171.45</ele>
        <time>2026-08-05T07:47:49.735Z</time>
      </trkpt>
      <trkpt lat="48.60782" lon="6.13465">
        <ele>171.03</ele>
        <time>2026-08-05T07:47:55.733Z</time>
      </trkpt>
      <trkpt lat="48.60761" lon="6.13438">
        <ele>171.21</ele>
        <time>2026-08-05T07:48:01.733Z</time>
      </trkpt>
      <trkpt lat="48.60746" lon="6.13416">
        <ele>172.7</ele>
        <time>2026-08-05T07:48:07.734Z</time>
      </trkpt>
      <trkpt lat="48.6074" lon="6.13397">
        <ele>175.97</ele>
        <time>2026-08-05T07:48:13.737Z</time>
      </trkpt>
      <trkpt lat="48.60749" lon="6.13373">
        <ele>176.71</ele>
        <time>2026-08-05T07:48:19.740Z</time>
      </trkpt>
      <trkpt lat="48.60759" lon="6.13338">
        <ele>176.75</ele>
        <time>2026-08-05T07:48:25.733Z</time>
      </trkpt>
      <trkpt lat="48.60767" lon="6.13294">
        <ele>177.81</ele>
        <time>2026-08-05T07:48:31.737Z</time>
      </trkpt>
      <trkpt lat="48.60765" lon="6.13252">
        <ele>177.74</ele>
        <time>2026-08-05T07:48:37.735Z</time>
      </trkpt>
      <trkpt lat="48.60761" lon="6.13206">
        <ele>178.14</ele>
        <time>2026-08-05T07:48:43.742Z</time>
      </trkpt>
      <trkpt lat="48.6076" lon="6.13163">
        <ele>178.42</ele>
        <time>2026-08-05T07:48:49.734Z</time>
      </trkpt>
      <trkpt lat="48.60775" lon="6.13124">
        <ele>177.12</ele>
        <time>2026-08-05T07:48:55.734Z</time>
      </trkpt>
      <trkpt lat="48.60794" lon="6.13088">
        <ele>176.55</ele>
        <time>2026-08-05T07:49:01.734Z</time>
      </trkpt>
      <trkpt lat="48.60815" lon="6.13059">
        <ele>176.94</ele>
        <time>2026-08-05T07:49:07.734Z</time>
      </trkpt>
      <trkpt lat="48.60844" lon="6.1306">
        <ele>177.93</ele>
        <time>2026-08-05T07:49:13.736Z</time>
      </trkpt>
      <trkpt lat="48.60871" lon="6.13052">
        <ele>176.87</ele>
        <time>2026-08-05T07:49:19.735Z</time>
      </trkpt>
      <trkpt lat="48.60892" lon="6.13029">
        <ele>176.37</ele>
        <time>2026-08-05T07:49:25.734Z</time>
      </trkpt>
      <trkpt lat="48.60887" lon="6.13001">
        <ele>176.28</ele>
        <time>2026-08-05T07:49:31.741Z</time>
      </trkpt>
      <trkpt lat="48.60874" lon="6.12974">
        <ele>176.58</ele>
        <time>2026-08-05T07:49:37.734Z</time>
      </trkpt>
      <trkpt lat="48.60867" lon="6.12943">
        <ele>176.56</ele>
        <time>2026-08-05T07:49:43.740Z</time>
      </trkpt>
      <trkpt lat="48.60871" lon="6.12918">
        <ele>178.32</ele>
        <time>2026-08-05T07:49:49.724Z</time>
      </trkpt>
      <trkpt lat="48.60858" lon="6.12913">
        <ele>175.8</ele>
        <time>2026-08-05T07:49:55.743Z</time>
      </trkpt>
      <trkpt lat="48.60839" lon="6.12891">
        <ele>175.95</ele>
        <time>2026-08-05T07:50:01.730Z</time>
      </trkpt>
      <trkpt lat="48.60831" lon="6.12851">
        <ele>175.65</ele>
        <time>2026-08-05T07:50:07.734Z</time>
      </trkpt>
      <trkpt lat="48.60822" lon="6.12809">
        <ele>174.39</ele>
        <time>2026-08-05T07:50:13.729Z</time>
      </trkpt>
      <trkpt lat="48.60817" lon="6.12765">
        <ele>176.6</ele>
        <time>2026-08-05T07:50:19.736Z</time>
      </trkpt>
      <trkpt lat="48.60814" lon="6.12721">
        <ele>178.07</ele>
        <time>2026-08-05T07:50:25.738Z</time>
      </trkpt>
      <trkpt lat="48.60813" lon="6.12676">
        <ele>179.42</ele>
        <time>2026-08-05T07:50:31.736Z</time>
      </trkpt>
      <trkpt lat="48.6081" lon="6.1263">
        <ele>177.7</ele>
        <time>2026-08-05T07:50:37.736Z</time>
      </trkpt>
      <trkpt lat="48.60816" lon="6.12586">
        <ele>174.35</ele>
        <time>2026-08-05T07:50:43.735Z</time>
      </trkpt>
      <trkpt lat="48.60845" lon="6.12567">
        <ele>173.54</ele>
        <time>2026-08-05T07:50:49.736Z</time>
      </trkpt>
      <trkpt lat="48.60879" lon="6.12556">
        <ele>176.37</ele>
        <time>2026-08-05T07:50:55.734Z</time>
      </trkpt>
      <trkpt lat="48.60895" lon="6.12519">
        <ele>176.89</ele>
        <time>2026-08-05T07:51:01.737Z</time>
      </trkpt>
      <trkpt lat="48.6089" lon="6.12472">
        <ele>176.55</ele>
        <time>2026-08-05T07:51:07.734Z</time>
      </trkpt>
      <trkpt lat="48.60883" lon="6.12426">
        <ele>176.5</ele>
        <time>2026-08-05T07:51:13.735Z</time>
      </trkpt>
      <trkpt lat="48.60876" lon="6.12381">
        <ele>177.03</ele>
        <time>2026-08-05T07:51:19.736Z</time>
      </trkpt>
      <trkpt lat="48.60857" lon="6.12341">
        <ele>176.89</ele>
        <time>2026-08-05T07:51:25.734Z</time>
      </trkpt>
      <trkpt lat="48.60845" lon="6.12287">
        <ele>175.22</ele>
        <time>2026-08-05T07:51:31.736Z</time>
      </trkpt>
      <trkpt lat="48.60842" lon="6.12233">
        <ele>175.03</ele>
        <time>2026-08-05T07:51:37.735Z</time>
      </trkpt>
      <trkpt lat="48.6084" lon="6.12181">
        <ele>174.01</ele>
        <time>2026-08-05T07:51:43.739Z</time>
      </trkpt>
      <trkpt lat="48.60834" lon="6.12133">
        <ele>172.91</ele>
        <time>2026-08-05T07:51:49.734Z</time>
      </trkpt>
      <trkpt lat="48.60828" lon="6.12088">
        <ele>173.89</ele>
        <time>2026-08-05T07:51:55.734Z</time>
      </trkpt>
      <trkpt lat="48.60823" lon="6.12042">
        <ele>176.22</ele>
        <time>2026-08-05T07:52:01.735Z</time>
      </trkpt>
      <trkpt lat="48.60817" lon="6.11997">
        <ele>176.1</ele>
        <time>2026-08-05T07:52:07.733Z</time>
      </trkpt>
      <trkpt lat="48.60811" lon="6.11951">
        <ele>174.87</ele>
        <time>2026-08-05T07:52:13.738Z</time>
      </trkpt>
      <trkpt lat="48.60804" lon="6.11904">
        <ele>173.85</ele>
        <time>2026-08-05T07:52:19.734Z</time>
      </trkpt>
      <trkpt lat="48.60804" lon="6.11852">
        <ele>173.42</ele>
        <time>2026-08-05T07:52:25.741Z</time>
      </trkpt>
      <trkpt lat="48.60797" lon="6.11801">
        <ele>174.67</ele>
        <time>2026-08-05T07:52:31.736Z</time>
      </trkpt>
      <trkpt lat="48.60782" lon="6.11758">
        <ele>178.16</ele>
        <time>2026-08-05T07:52:37.737Z</time>
      </trkpt>
      <trkpt lat="48.60765" lon="6.11716">
        <ele>178.05</ele>
        <time>2026-08-05T07:52:43.738Z</time>
      </trkpt>
      <trkpt lat="48.60746" lon="6.11674">
        <ele>176.4</ele>
        <time>2026-08-05T07:52:49.734Z</time>
      </trkpt>
      <trkpt lat="48.60728" lon="6.11632">
        <ele>175.61</ele>
        <time>2026-08-05T07:52:55.740Z</time>
      </trkpt>
      <trkpt lat="48.60712" lon="6.1159">
        <ele>176.22</ele>
        <time>2026-08-05T07:53:01.736Z</time>
      </trkpt>
      <trkpt lat="48.60694" lon="6.11546">
        <ele>178.37</ele>
        <time>2026-08-05T07:53:07.738Z</time>
      </trkpt>
      <trkpt lat="48.6067" lon="6.1151">
        <ele>179.49</ele>
        <time>2026-08-05T07:53:13.734Z</time>
      </trkpt>
      <trkpt lat="48.60642" lon="6.11479">
        <ele>179.3</ele>
        <time>2026-08-05T07:53:19.735Z</time>
      </trkpt>
      <trkpt lat="48.60616" lon="6.11449">
        <ele>177.83</ele>
        <time>2026-08-05T07:53:25.713Z</time>
      </trkpt>
      <trkpt lat="48.60588" lon="6.11419">
        <ele>175.58</ele>
        <time>2026-08-05T07:53:31.736Z</time>
      </trkpt>
      <trkpt lat="48.60563" lon="6.11389">
        <ele>173.07</ele>
        <time>2026-08-05T07:53:37.735Z</time>
      </trkpt>
      <trkpt lat="48.60538" lon="6.11352">
        <ele>171.57</ele>
        <time>2026-08-05T07:53:43.735Z</time>
      </trkpt>
      <trkpt lat="48.60522" lon="6.1131">
        <ele>170.84</ele>
        <time>2026-08-05T07:53:49.735Z</time>
      </trkpt>
      <trkpt lat="48.60509" lon="6.11267">
        <ele>170.55</ele>
        <time>2026-08-05T07:53:55.742Z</time>
      </trkpt>
      <trkpt lat="48.60495" lon="6.11229">
        <ele>169.19</ele>
        <time>2026-08-05T07:54:01.732Z</time>
      </trkpt>
      <trkpt lat="48.60477" lon="6.11191">
        <ele>171.2</ele>
        <time>2026-08-05T07:54:07.733Z</time>
      </trkpt>
      <trkpt lat="48.60461" lon="6.1115">
        <ele>174.01</ele>
        <time>2026-08-05T07:54:13.736Z</time>
      </trkpt>
      <trkpt lat="48.60448" lon="6.11104">
        <ele>175.87</ele>
        <time>2026-08-05T07:54:19.732Z</time>
      </trkpt>
      <trkpt lat="48.60438" lon="6.1106">
        <ele>176.89</ele>
        <time>2026-08-05T07:54:25.741Z</time>
      </trkpt>
      <trkpt lat="48.60435" lon="6.11018">
        <ele>177.45</ele>
        <time>2026-08-05T07:54:31.738Z</time>
      </trkpt>
      <trkpt lat="48.60434" lon="6.1098">
        <ele>176.37</ele>
        <time>2026-08-05T07:54:37.737Z</time>
      </trkpt>
      <trkpt lat="48.60434" lon="6.10936">
        <ele>175.05</ele>
        <time>2026-08-05T07:54:43.735Z</time>
      </trkpt>
      <trkpt lat="48.60445" lon="6.10888">
        <ele>175.08</ele>
        <time>2026-08-05T07:54:49.734Z</time>
      </trkpt>
      <trkpt lat="48.60468" lon="6.10848">
        <ele>174.87</ele>
        <time>2026-08-05T07:54:55.743Z</time>
      </trkpt>
      <trkpt lat="48.60493" lon="6.1082">
        <ele>174.45</ele>
        <time>2026-08-05T07:55:01.736Z</time>
      </trkpt>
      <trkpt lat="48.6051" lon="6.10797">
        <ele>173.2</ele>
        <time>2026-08-05T07:55:07.735Z</time>
      </trkpt>
      <trkpt lat="48.60524" lon="6.108">
        <ele>172.9</ele>
        <time>2026-08-05T07:55:13.734Z</time>
      </trkpt>
      <trkpt lat="48.60547" lon="6.10777">
        <ele>174.21</ele>
        <time>2026-08-05T07:55:19.734Z</time>
      </trkpt>
      <trkpt lat="48.60569" lon="6.10762">
        <ele>172.71</ele>
        <time>2026-08-05T07:55:25.743Z</time>
      </trkpt>
      <trkpt lat="48.6059" lon="6.10758">
        <ele>174.53</ele>
        <time>2026-08-05T07:55:31.732Z</time>
      </trkpt>
      <trkpt lat="48.6061" lon="6.10768">
        <ele>176.55</ele>
        <time>2026-08-05T07:55:37.746Z</time>
      </trkpt>
      <trkpt lat="48.60614" lon="6.10796">
        <ele>175.61</ele>
        <time>2026-08-05T07:55:43.737Z</time>
      </trkpt>
      <trkpt lat="48.60631" lon="6.10784">
        <ele>174.53</ele>
        <time>2026-08-05T07:55:49.734Z</time>
      </trkpt>
      <trkpt lat="48.60651" lon="6.10757">
        <ele>174.42</ele>
        <time>2026-08-05T07:55:55.698Z</time>
      </trkpt>
      <trkpt lat="48.60663" lon="6.1071">
        <ele>173.37</ele>
        <time>2026-08-05T07:56:01.738Z</time>
      </trkpt>
      <trkpt lat="48.60663" lon="6.10659">
        <ele>174.02</ele>
        <time>2026-08-05T07:56:07.737Z</time>
      </trkpt>
      <trkpt lat="48.60662" lon="6.10613">
        <ele>173.75</ele>
        <time>2026-08-05T07:56:13.737Z</time>
      </trkpt>
      <trkpt lat="48.60661" lon="6.10565">
        <ele>172.99</ele>
        <time>2026-08-05T07:56:19.731Z</time>
      </trkpt>
      <trkpt lat="48.6067" lon="6.10524">
        <ele>174.91</ele>
        <time>2026-08-05T07:56:25.744Z</time>
      </trkpt>
      <trkpt lat="48.60682" lon="6.10497">
        <ele>175.82</ele>
        <time>2026-08-05T07:56:31.732Z</time>
      </trkpt>
      <trkpt lat="48.60679" lon="6.10474">
        <ele>176.53</ele>
        <time>2026-08-05T07:56:37.733Z</time>
      </trkpt>
      <trkpt lat="48.60693" lon="6.10439">
        <ele>174.06</ele>
        <time>2026-08-05T07:56:43.729Z</time>
      </trkpt>
      <trkpt lat="48.60713" lon="6.10379">
        <ele>171.48</ele>
        <time>2026-08-05T07:56:49.728Z</time>
      </trkpt>
      <trkpt lat="48.60728" lon="6.10315">
        <ele>169.96</ele>
        <time>2026-08-05T07:56:55.743Z</time>
      </trkpt>
      <trkpt lat="48.60737" lon="6.10253">
        <ele>169.74</ele>
        <time>2026-08-05T07:57:01.730Z</time>
      </trkpt>
      <trkpt lat="48.60743" lon="6.10203">
        <ele>169.18</ele>
        <time>2026-08-05T07:57:07.731Z</time>
      </trkpt>
      <trkpt lat="48.60748" lon="6.10165">
        <ele>170.23</ele>
        <time>2026-08-05T07:57:13.735Z</time>
      </trkpt>
      <trkpt lat="48.60752" lon="6.10131">
        <ele>172.4</ele>
        <time>2026-08-05T07:57:19.732Z</time>
      </trkpt>
      <trkpt lat="48.60755" lon="6.10097">
        <ele>175.16</ele>
        <time>2026-08-05T07:57:25.742Z</time>
      </trkpt>
      <trkpt lat="48.6076" lon="6.10064">
        <ele>177.08</ele>
        <time>2026-08-05T07:57:31.732Z</time>
      </trkpt>
      <trkpt lat="48.60765" lon="6.10034">
        <ele>178.02</ele>
        <time>2026-08-05T07:57:37.730Z</time>
      </trkpt>
      <trkpt lat="48.60771" lon="6.10018">
        <ele>178.45</ele>
        <time>2026-08-05T07:57:43.735Z</time>
      </trkpt>
      <trkpt lat="48.60771" lon="6.10004">
        <ele>178.2</ele>
        <time>2026-08-05T07:57:49.730Z</time>
      </trkpt>
      <trkpt lat="48.60777" lon="6.09969">
        <ele>176.09</ele>
        <time>2026-08-05T07:57:55.740Z</time>
      </trkpt>
      <trkpt lat="48.60789" lon="6.09922">
        <ele>174.54</ele>
        <time>2026-08-05T07:58:01.732Z</time>
      </trkpt>
      <trkpt lat="48.60802" lon="6.09882">
        <ele>173.13</ele>
        <time>2026-08-05T07:58:07.729Z</time>
      </trkpt>
      <trkpt lat="48.60816" lon="6.0984">
        <ele>171.51</ele>
        <time>2026-08-05T07:58:13.730Z</time>
      </trkpt>
      <trkpt lat="48.60832" lon="6.09798">
        <ele>170.73</ele>
        <time>2026-08-05T07:58:19.732Z</time>
      </trkpt>
      <trkpt lat="48.60847" lon="6.09756">
        <ele>170.26</ele>
        <time>2026-08-05T07:58:25.742Z</time>
      </trkpt>
      <trkpt lat="48.60861" lon="6.0971">
        <ele>171.67</ele>
        <time>2026-08-05T07:58:31.738Z</time>
      </trkpt>
      <trkpt lat="48.60876" lon="6.0967">
        <ele>172.22</ele>
        <time>2026-08-05T07:58:37.742Z</time>
      </trkpt>
      <trkpt lat="48.60893" lon="6.09628">
        <ele>173.09</ele>
        <time>2026-08-05T07:58:43.733Z</time>
      </trkpt>
      <trkpt lat="48.60907" lon="6.09584">
        <ele>172.05</ele>
        <time>2026-08-05T07:58:49.734Z</time>
      </trkpt>
      <trkpt lat="48.60923" lon="6.09541">
        <ele>170.18</ele>
        <time>2026-08-05T07:58:55.741Z</time>
      </trkpt>
      <trkpt lat="48.60943" lon="6.095">
        <ele>170.89</ele>
        <time>2026-08-05T07:59:01.741Z</time>
      </trkpt>
      <trkpt lat="48.60961" lon="6.09459">
        <ele>171.53</ele>
        <time>2026-08-05T07:59:07.731Z</time>
      </trkpt>
      <trkpt lat="48.60979" lon="6.09417">
        <ele>172.37</ele>
        <time>2026-08-05T07:59:13.738Z</time>
      </trkpt>
      <trkpt lat="48.60998" lon="6.09376">
        <ele>173.4</ele>
        <time>2026-08-05T07:59:19.733Z</time>
      </trkpt>
      <trkpt lat="48.61018" lon="6.09334">
        <ele>173.61</ele>
        <time>2026-08-05T07:59:25.742Z</time>
      </trkpt>
      <trkpt lat="48.61037" lon="6.09294">
        <ele>173.8</ele>
        <time>2026-08-05T07:59:31.741Z</time>
      </trkpt>
      <trkpt lat="48.61056" lon="6.09253">
        <ele>173.05</ele>
        <time>2026-08-05T07:59:37.679Z</time>
      </trkpt>
      <trkpt lat="48.61075" lon="6.09212">
        <ele>172.51</ele>
        <time>2026-08-05T07:59:43.674Z</time>
      </trkpt>
      <trkpt lat="48.6109" lon="6.09178">
        <ele>172.83</ele>
        <time>2026-08-05T07:59:48.680Z</time>
      </trkpt>
      <trkpt lat="48.61108" lon="6.09138">
        <ele>172.96</ele>
        <time>2026-08-05T07:59:54.680Z</time>
      </trkpt>
      <trkpt lat="48.61127" lon="6.09097">
        <ele>173.51</ele>
        <time>2026-08-05T08:00:00.679Z</time>
      </trkpt>
      <trkpt lat="48.61143" lon="6.09064">
        <ele>174.1</ele>
        <time>2026-08-05T08:00:05.679Z</time>
      </trkpt>
      <trkpt lat="48.61159" lon="6.09029">
        <ele>173.94</ele>
        <time>2026-08-05T08:00:10.681Z</time>
      </trkpt>
      <trkpt lat="48.61156" lon="6.08986">
        <ele>173.54</ele>
        <time>2026-08-05T08:00:16.681Z</time>
      </trkpt>
      <trkpt lat="48.61117" lon="6.08976">
        <ele>173.68</ele>
        <time>2026-08-05T08:00:22.677Z</time>
      </trkpt>
      <trkpt lat="48.61086" lon="6.08992">
        <ele>173.06</ele>
        <time>2026-08-05T08:00:27.678Z</time>
      </trkpt>
      <trkpt lat="48.61061" lon="6.0902">
        <ele>173.36</ele>
        <time>2026-08-05T08:00:32.680Z</time>
      </trkpt>
      <trkpt lat="48.61047" lon="6.09057">
        <ele>174.48</ele>
        <time>2026-08-05T08:00:37.680Z</time>
      </trkpt>
      <trkpt lat="48.61036" lon="6.09088">
        <ele>176.69</ele>
        <time>2026-08-05T08:00:43.678Z</time>
      </trkpt>
      <trkpt lat="48.61021" lon="6.09077">
        <ele>177.35</ele>
        <time>2026-08-05T08:00:48.680Z</time>
      </trkpt>
      <trkpt lat="48.60998" lon="6.09053">
        <ele>176.17</ele>
        <time>2026-08-05T08:00:54.677Z</time>
      </trkpt>
      <trkpt lat="48.60978" lon="6.09033">
        <ele>175.65</ele>
        <time>2026-08-05T08:01:00.677Z</time>
      </trkpt>
      <trkpt lat="48.60979" lon="6.09011">
        <ele>174.44</ele>
        <time>2026-08-05T08:01:05.680Z</time>
      </trkpt>
      <trkpt lat="48.61001" lon="6.08963">
        <ele>171.01</ele>
        <time>2026-08-05T08:01:11.676Z</time>
      </trkpt>
      <trkpt lat="48.61016" lon="6.08921">
        <ele>169.51</ele>
        <time>2026-08-05T08:01:16.676Z</time>
      </trkpt>
      <trkpt lat="48.6103" lon="6.08877">
        <ele>169.97</ele>
        <time>2026-08-05T08:01:21.679Z</time>
      </trkpt>
      <trkpt lat="48.61049" lon="6.08829">
        <ele>169.7</ele>
        <time>2026-08-05T08:01:27.676Z</time>
      </trkpt>
      <trkpt lat="48.61064" lon="6.08788">
        <ele>169.18</ele>
        <time>2026-08-05T08:01:32.676Z</time>
      </trkpt>
      <trkpt lat="48.61081" lon="6.0875">
        <ele>169.47</ele>
        <time>2026-08-05T08:01:37.678Z</time>
      </trkpt>
      <trkpt lat="48.61099" lon="6.08712">
        <ele>170.14</ele>
        <time>2026-08-05T08:01:42.682Z</time>
      </trkpt>
      <trkpt lat="48.61123" lon="6.08671">
        <ele>169.55</ele>
        <time>2026-08-05T08:01:48.681Z</time>
      </trkpt>
      <trkpt lat="48.61144" lon="6.08627">
        <ele>168.84</ele>
        <time>2026-08-05T08:01:54.683Z</time>
      </trkpt>
      <trkpt lat="48.61165" lon="6.08582">
        <ele>167.2</ele>
        <time>2026-08-05T08:02:00.676Z</time>
      </trkpt>
      <trkpt lat="48.61182" lon="6.08544">
        <ele>166.31</ele>
        <time>2026-08-05T08:02:05.676Z</time>
      </trkpt>
      <trkpt lat="48.61198" lon="6.08507">
        <ele>165.55</ele>
        <time>2026-08-05T08:02:10.677Z</time>
      </trkpt>
      <trkpt lat="48.61212" lon="6.08469">
        <ele>165.53</ele>
        <time>2026-08-05T08:02:15.699Z</time>
      </trkpt>
      <trkpt lat="48.61229" lon="6.08422">
        <ele>165.69</ele>
        <time>2026-08-05T08:02:21.676Z</time>
      </trkpt>
      <trkpt lat="48.61246" lon="6.08376">
        <ele>168.28</ele>
        <time>2026-08-05T08:02:27.676Z</time>
      </trkpt>
      <trkpt lat="48.61261" lon="6.08335">
        <ele>170.19</ele>
        <time>2026-08-05T08:02:32.676Z</time>
      </trkpt>
      <trkpt lat="48.61276" lon="6.083">
        <ele>171.37</ele>
        <time>2026-08-05T08:02:37.687Z</time>
      </trkpt>
      <trkpt lat="48.61293" lon="6.08255">
        <ele>171.06</ele>
        <time>2026-08-05T08:02:43.689Z</time>
      </trkpt>
      <trkpt lat="48.61311" lon="6.08209">
        <ele>169.46</ele>
        <time>2026-08-05T08:02:49.699Z</time>
      </trkpt>
      <trkpt lat="48.61328" lon="6.08165">
        <ele>169.57</ele>
        <time>2026-08-05T08:02:55.737Z</time>
      </trkpt>
      <trkpt lat="48.61343" lon="6.0812">
        <ele>170.18</ele>
        <time>2026-08-05T08:03:01.735Z</time>
      </trkpt>
      <trkpt lat="48.61357" lon="6.08076">
        <ele>169.78</ele>
        <time>2026-08-05T08:03:07.699Z</time>
      </trkpt>
      <trkpt lat="48.61371" lon="6.0802">
        <ele>168.07</ele>
        <time>2026-08-05T08:03:13.697Z</time>
      </trkpt>
      <trkpt lat="48.61392" lon="6.07974">
        <ele>169.18</ele>
        <time>2026-08-05T08:03:19.698Z</time>
      </trkpt>
      <trkpt lat="48.61409" lon="6.07931">
        <ele>170.86</ele>
        <time>2026-08-05T08:03:25.737Z</time>
      </trkpt>
      <trkpt lat="48.61431" lon="6.07886">
        <ele>175.18</ele>
        <time>2026-08-05T08:03:31.739Z</time>
      </trkpt>
      <trkpt lat="48.61447" lon="6.07842">
        <ele>176.69</ele>
        <time>2026-08-05T08:03:37.696Z</time>
      </trkpt>
      <trkpt lat="48.61463" lon="6.07799">
        <ele>175.8</ele>
        <time>2026-08-05T08:03:43.695Z</time>
      </trkpt>
      <trkpt lat="48.61478" lon="6.07758">
        <ele>172.61</ele>
        <time>2026-08-05T08:03:49.698Z</time>
      </trkpt>
      <trkpt lat="48.61494" lon="6.07713">
        <ele>167.6</ele>
        <time>2026-08-05T08:03:55.738Z</time>
      </trkpt>
      <trkpt lat="48.61511" lon="6.07669">
        <ele>165.98</ele>
        <time>2026-08-05T08:04:01.736Z</time>
      </trkpt>
      <trkpt lat="48.6153" lon="6.07626">
        <ele>166.07</ele>
        <time>2026-08-05T08:04:07.693Z</time>
      </trkpt>
      <trkpt lat="48.61551" lon="6.07583">
        <ele>165.82</ele>
        <time>2026-08-05T08:04:13.696Z</time>
      </trkpt>
      <trkpt lat="48.61566" lon="6.07541">
        <ele>167.08</ele>
        <time>2026-08-05T08:04:19.695Z</time>
      </trkpt>
      <trkpt lat="48.61578" lon="6.07506">
        <ele>167.06</ele>
        <time>2026-08-05T08:04:25.737Z</time>
      </trkpt>
      <trkpt lat="48.61583" lon="6.07488">
        <ele>169.79</ele>
        <time>2026-08-05T08:04:31.739Z</time>
      </trkpt>
      <trkpt lat="48.61595" lon="6.07447">
        <ele>168.78</ele>
        <time>2026-08-05T08:04:37.694Z</time>
      </trkpt>
      <trkpt lat="48.61617" lon="6.07396">
        <ele>166.78</ele>
        <time>2026-08-05T08:04:43.696Z</time>
      </trkpt>
      <trkpt lat="48.61637" lon="6.07345">
        <ele>168.28</ele>
        <time>2026-08-05T08:04:49.698Z</time>
      </trkpt>
      <trkpt lat="48.61658" lon="6.073">
        <ele>169.19</ele>
        <time>2026-08-05T08:04:55.740Z</time>
      </trkpt>
      <trkpt lat="48.61679" lon="6.07255">
        <ele>170.35</ele>
        <time>2026-08-05T08:05:01.738Z</time>
      </trkpt>
      <trkpt lat="48.617" lon="6.07209">
        <ele>169.46</ele>
        <time>2026-08-05T08:05:07.695Z</time>
      </trkpt>
      <trkpt lat="48.61719" lon="6.07166">
        <ele>169.05</ele>
        <time>2026-08-05T08:05:13.690Z</time>
      </trkpt>
      <trkpt lat="48.61738" lon="6.0712">
        <ele>170.22</ele>
        <time>2026-08-05T08:05:19.684Z</time>
      </trkpt>
      <trkpt lat="48.61753" lon="6.07081">
        <ele>168.5</ele>
        <time>2026-08-05T08:05:25.743Z</time>
      </trkpt>
      <trkpt lat="48.61763" lon="6.07032">
        <ele>164.89</ele>
        <time>2026-08-05T08:05:31.735Z</time>
      </trkpt>
      <trkpt lat="48.61775" lon="6.06984">
        <ele>164.24</ele>
        <time>2026-08-05T08:05:37.696Z</time>
      </trkpt>
      <trkpt lat="48.61786" lon="6.06936">
        <ele>162.44</ele>
        <time>2026-08-05T08:05:43.689Z</time>
      </trkpt>
      <trkpt lat="48.61799" lon="6.06887">
        <ele>162.92</ele>
        <time>2026-08-05T08:05:49.695Z</time>
      </trkpt>
      <trkpt lat="48.61812" lon="6.06839">
        <ele>165.7</ele>
        <time>2026-08-05T08:05:55.709Z</time>
      </trkpt>
      <trkpt lat="48.61824" lon="6.06791">
        <ele>168.57</ele>
        <time>2026-08-05T08:06:01.734Z</time>
      </trkpt>
      <trkpt lat="48.61836" lon="6.06743">
        <ele>170.24</ele>
        <time>2026-08-05T08:06:07.693Z</time>
      </trkpt>
      <trkpt lat="48.61849" lon="6.06698">
        <ele>168.7</ele>
        <time>2026-08-05T08:06:13.693Z</time>
      </trkpt>
      <trkpt lat="48.61861" lon="6.06653">
        <ele>167.75</ele>
        <time>2026-08-05T08:06:19.703Z</time>
      </trkpt>
      <trkpt lat="48.61874" lon="6.06607">
        <ele>167.75</ele>
        <time>2026-08-05T08:06:25.747Z</time>
      </trkpt>
      <trkpt lat="48.61887" lon="6.06562">
        <ele>165.49</ele>
        <time>2026-08-05T08:06:31.730Z</time>
      </trkpt>
      <trkpt lat="48.619" lon="6.06517">
        <ele>162.98</ele>
        <time>2026-08-05T08:06:37.700Z</time>
      </trkpt>
      <trkpt lat="48.61912" lon="6.06472">
        <ele>161.79</ele>
        <time>2026-08-05T08:06:43.705Z</time>
      </trkpt>
      <trkpt lat="48.61925" lon="6.06426">
        <ele>160.87</ele>
        <time>2026-08-05T08:06:49.704Z</time>
      </trkpt>
      <trkpt lat="48.61939" lon="6.06377">
        <ele>162.68</ele>
        <time>2026-08-05T08:06:55.743Z</time>
      </trkpt>
      <trkpt lat="48.61949" lon="6.06331">
        <ele>164.55</ele>
        <time>2026-08-05T08:07:01.729Z</time>
      </trkpt>
      <trkpt lat="48.6196" lon="6.06286">
        <ele>164.58</ele>
        <time>2026-08-05T08:07:07.701Z</time>
      </trkpt>
      <trkpt lat="48.61972" lon="6.06239">
        <ele>165.97</ele>
        <time>2026-08-05T08:07:13.701Z</time>
      </trkpt>
      <trkpt lat="48.61984" lon="6.06192">
        <ele>166.18</ele>
        <time>2026-08-05T08:07:19.700Z</time>
      </trkpt>
      <trkpt lat="48.61996" lon="6.06145">
        <ele>165.68</ele>
        <time>2026-08-05T08:07:25.740Z</time>
      </trkpt>
      <trkpt lat="48.62009" lon="6.06099">
        <ele>167.55</ele>
        <time>2026-08-05T08:07:31.731Z</time>
      </trkpt>
      <trkpt lat="48.6202" lon="6.06056">
        <ele>167.42</ele>
        <time>2026-08-05T08:07:37.705Z</time>
      </trkpt>
      <trkpt lat="48.62029" lon="6.06007">
        <ele>166.37</ele>
        <time>2026-08-05T08:07:43.704Z</time>
      </trkpt>
      <trkpt lat="48.62043" lon="6.05959">
        <ele>166.39</ele>
        <time>2026-08-05T08:07:49.703Z</time>
      </trkpt>
      <trkpt lat="48.62057" lon="6.05909">
        <ele>167.87</ele>
        <time>2026-08-05T08:07:55.745Z</time>
      </trkpt>
      <trkpt lat="48.62071" lon="6.05858">
        <ele>168.89</ele>
        <time>2026-08-05T08:08:01.731Z</time>
      </trkpt>
      <trkpt lat="48.62083" lon="6.05812">
        <ele>170.01</ele>
        <time>2026-08-05T08:08:07.705Z</time>
      </trkpt>
      <trkpt lat="48.62095" lon="6.05763">
        <ele>169.87</ele>
        <time>2026-08-05T08:08:13.701Z</time>
      </trkpt>
      <trkpt lat="48.62112" lon="6.05718">
        <ele>169.72</ele>
        <time>2026-08-05T08:08:19.707Z</time>
      </trkpt>
      <trkpt lat="48.62122" lon="6.05677">
        <ele>169.74</ele>
        <time>2026-08-05T08:08:25.701Z</time>
      </trkpt>
      <trkpt lat="48.62121" lon="6.05639">
        <ele>169.54</ele>
        <time>2026-08-05T08:08:31.728Z</time>
      </trkpt>
      <trkpt lat="48.6213" lon="6.05598">
        <ele>168.84</ele>
        <time>2026-08-05T08:08:37.700Z</time>
      </trkpt>
      <trkpt lat="48.6214" lon="6.05556">
        <ele>167.77</ele>
        <time>2026-08-05T08:08:43.703Z</time>
      </trkpt>
      <trkpt lat="48.62151" lon="6.05517">
        <ele>166.8</ele>
        <time>2026-08-05T08:08:49.701Z</time>
      </trkpt>
      <trkpt lat="48.62161" lon="6.05475">
        <ele>163.14</ele>
        <time>2026-08-05T08:08:55.743Z</time>
      </trkpt>
      <trkpt lat="48.62172" lon="6.0543">
        <ele>163.18</ele>
        <time>2026-08-05T08:09:01.731Z</time>
      </trkpt>
      <trkpt lat="48.62183" lon="6.05385">
        <ele>163.73</ele>
        <time>2026-08-05T08:09:07.704Z</time>
      </trkpt>
      <trkpt lat="48.62188" lon="6.05337">
        <ele>164.95</ele>
        <time>2026-08-05T08:09:13.699Z</time>
      </trkpt>
      <trkpt lat="48.62191" lon="6.05289">
        <ele>164.74</ele>
        <time>2026-08-05T08:09:19.702Z</time>
      </trkpt>
      <trkpt lat="48.62194" lon="6.0524">
        <ele>166.63</ele>
        <time>2026-08-05T08:09:25.741Z</time>
      </trkpt>
      <trkpt lat="48.62199" lon="6.05193">
        <ele>169.23</ele>
        <time>2026-08-05T08:09:31.731Z</time>
      </trkpt>
      <trkpt lat="48.62204" lon="6.05136">
        <ele>168.03</ele>
        <time>2026-08-05T08:09:37.701Z</time>
      </trkpt>
      <trkpt lat="48.62207" lon="6.05088">
        <ele>169.13</ele>
        <time>2026-08-05T08:09:43.705Z</time>
      </trkpt>
      <trkpt lat="48.62212" lon="6.05048">
        <ele>170.33</ele>
        <time>2026-08-05T08:09:49.701Z</time>
      </trkpt>
      <trkpt lat="48.62222" lon="6.05002">
        <ele>170.11</ele>
        <time>2026-08-05T08:09:55.742Z</time>
      </trkpt>
      <trkpt lat="48.62233" lon="6.04955">
        <ele>166.34</ele>
        <time>2026-08-05T08:10:01.731Z</time>
      </trkpt>
      <trkpt lat="48.62249" lon="6.04911">
        <ele>164.68</ele>
        <time>2026-08-05T08:10:07.701Z</time>
      </trkpt>
      <trkpt lat="48.62267" lon="6.04869">
        <ele>163.34</ele>
        <time>2026-08-05T08:10:13.700Z</time>
      </trkpt>
      <trkpt lat="48.62286" lon="6.0484">
        <ele>164.83</ele>
        <time>2026-08-05T08:10:19.701Z</time>
      </trkpt>
      <trkpt lat="48.62312" lon="6.04815">
        <ele>165.85</ele>
        <time>2026-08-05T08:10:25.731Z</time>
      </trkpt>
      <trkpt lat="48.62343" lon="6.04791">
        <ele>166.5</ele>
        <time>2026-08-05T08:10:31.731Z</time>
      </trkpt>
      <trkpt lat="48.62374" lon="6.04775">
        <ele>166.67</ele>
        <time>2026-08-05T08:10:37.705Z</time>
      </trkpt>
      <trkpt lat="48.6241" lon="6.04763">
        <ele>167.49</ele>
        <time>2026-08-05T08:10:43.702Z</time>
      </trkpt>
      <trkpt lat="48.62442" lon="6.04757">
        <ele>169.34</ele>
        <time>2026-08-05T08:10:49.703Z</time>
      </trkpt>
      <trkpt lat="48.62471" lon="6.04753">
        <ele>171.92</ele>
        <time>2026-08-05T08:10:55.733Z</time>
      </trkpt>
      <trkpt lat="48.62505" lon="6.04748">
        <ele>174.43</ele>
        <time>2026-08-05T08:11:01.733Z</time>
      </trkpt>
      <trkpt lat="48.62538" lon="6.04738">
        <ele>175.02</ele>
        <time>2026-08-05T08:11:07.702Z</time>
      </trkpt>
      <trkpt lat="48.62573" lon="6.0472">
        <ele>174.43</ele>
        <time>2026-08-05T08:11:13.700Z</time>
      </trkpt>
      <trkpt lat="48.62606" lon="6.04707">
        <ele>172.61</ele>
        <time>2026-08-05T08:11:19.702Z</time>
      </trkpt>
      <trkpt lat="48.62638" lon="6.04693">
        <ele>171.13</ele>
        <time>2026-08-05T08:11:25.753Z</time>
      </trkpt>
      <trkpt lat="48.6267" lon="6.04678">
        <ele>170.66</ele>
        <time>2026-08-05T08:11:31.729Z</time>
      </trkpt>
      <trkpt lat="48.62702" lon="6.04662">
        <ele>166.54</ele>
        <time>2026-08-05T08:11:37.699Z</time>
      </trkpt>
      <trkpt lat="48.62732" lon="6.04628">
        <ele>163.29</ele>
        <time>2026-08-05T08:11:43.699Z</time>
      </trkpt>
      <trkpt lat="48.6275" lon="6.04585">
        <ele>165.37</ele>
        <time>2026-08-05T08:11:49.701Z</time>
      </trkpt>
      <trkpt lat="48.62777" lon="6.04555">
        <ele>166.95</ele>
        <time>2026-08-05T08:11:55.742Z</time>
      </trkpt>
      <trkpt lat="48.62806" lon="6.04537">
        <ele>167.86</ele>
        <time>2026-08-05T08:12:01.743Z</time>
      </trkpt>
      <trkpt lat="48.62836" lon="6.04518">
        <ele>168.48</ele>
        <time>2026-08-05T08:12:07.698Z</time>
      </trkpt>
      <trkpt lat="48.6287" lon="6.04497">
        <ele>168.25</ele>
        <time>2026-08-05T08:12:13.699Z</time>
      </trkpt>
      <trkpt lat="48.62908" lon="6.04479">
        <ele>166.09</ele>
        <time>2026-08-05T08:12:19.701Z</time>
      </trkpt>
      <trkpt lat="48.62951" lon="6.04472">
        <ele>165.03</ele>
        <time>2026-08-05T08:12:25.743Z</time>
      </trkpt>
      <trkpt lat="48.62978" lon="6.04476">
        <ele>165.66</ele>
        <time>2026-08-05T08:12:31.722Z</time>
      </trkpt>
      <trkpt lat="48.63004" lon="6.045">
        <ele>165.65</ele>
        <time>2026-08-05T08:12:37.700Z</time>
      </trkpt>
      <trkpt lat="48.63027" lon="6.04524">
        <ele>164.53</ele>
        <time>2026-08-05T08:12:43.708Z</time>
      </trkpt>
      <trkpt lat="48.63046" lon="6.04539">
        <ele>164.09</ele>
        <time>2026-08-05T08:12:49.707Z</time>
      </trkpt>
      <trkpt lat="48.63073" lon="6.04534">
        <ele>163.03</ele>
        <time>2026-08-05T08:12:55.729Z</time>
      </trkpt>
      <trkpt lat="48.63106" lon="6.0453">
        <ele>162.98</ele>
        <time>2026-08-05T08:13:01.729Z</time>
      </trkpt>
      <trkpt lat="48.6314" lon="6.04525">
        <ele>164.32</ele>
        <time>2026-08-05T08:13:07.700Z</time>
      </trkpt>
      <trkpt lat="48.63174" lon="6.04517">
        <ele>164.37</ele>
        <time>2026-08-05T08:13:13.699Z</time>
      </trkpt>
      <trkpt lat="48.63208" lon="6.04501">
        <ele>165.85</ele>
        <time>2026-08-05T08:13:19.700Z</time>
      </trkpt>
      <trkpt lat="48.63242" lon="6.04486">
        <ele>166.13</ele>
        <time>2026-08-05T08:13:25.729Z</time>
      </trkpt>
      <trkpt lat="48.63271" lon="6.04464">
        <ele>163.92</ele>
        <time>2026-08-05T08:13:31.726Z</time>
      </trkpt>
      <trkpt lat="48.63299" lon="6.04438">
        <ele>161.57</ele>
        <time>2026-08-05T08:13:37.699Z</time>
      </trkpt>
      <trkpt lat="48.63328" lon="6.0441">
        <ele>161.41</ele>
        <time>2026-08-05T08:13:43.700Z</time>
      </trkpt>
      <trkpt lat="48.63357" lon="6.0438">
        <ele>162.92</ele>
        <time>2026-08-05T08:13:49.700Z</time>
      </trkpt>
      <trkpt lat="48.63385" lon="6.0435">
        <ele>162.62</ele>
        <time>2026-08-05T08:13:55.727Z</time>
      </trkpt>
      <trkpt lat="48.63407" lon="6.04315">
        <ele>162.91</ele>
        <time>2026-08-05T08:14:01.729Z</time>
      </trkpt>
      <trkpt lat="48.63434" lon="6.04291">
        <ele>161.91</ele>
        <time>2026-08-05T08:14:07.698Z</time>
      </trkpt>
      <trkpt lat="48.63463" lon="6.04266">
        <ele>162.82</ele>
        <time>2026-08-05T08:14:13.702Z</time>
      </trkpt>
      <trkpt lat="48.63492" lon="6.04237">
        <ele>164.66</ele>
        <time>2026-08-05T08:14:19.701Z</time>
      </trkpt>
      <trkpt lat="48.63516" lon="6.04208">
        <ele>165.27</ele>
        <time>2026-08-05T08:14:25.729Z</time>
      </trkpt>
      <trkpt lat="48.63543" lon="6.0418">
        <ele>165.61</ele>
        <time>2026-08-05T08:14:31.731Z</time>
      </trkpt>
      <trkpt lat="48.63572" lon="6.04148">
        <ele>166.13</ele>
        <time>2026-08-05T08:14:37.700Z</time>
      </trkpt>
      <trkpt lat="48.63598" lon="6.04116">
        <ele>165.23</ele>
        <time>2026-08-05T08:14:43.698Z</time>
      </trkpt>
      <trkpt lat="48.63622" lon="6.04086">
        <ele>160.46</ele>
        <time>2026-08-05T08:14:49.697Z</time>
      </trkpt>
      <trkpt lat="48.63648" lon="6.04054">
        <ele>157.6</ele>
        <time>2026-08-05T08:14:55.740Z</time>
      </trkpt>
      <trkpt lat="48.63679" lon="6.04029">
        <ele>158.42</ele>
        <time>2026-08-05T08:15:01.731Z</time>
      </trkpt>
      <trkpt lat="48.6371" lon="6.04011">
        <ele>159.13</ele>
        <time>2026-08-05T08:15:07.700Z</time>
      </trkpt>
      <trkpt lat="48.63743" lon="6.04003">
        <ele>160.26</ele>
        <time>2026-08-05T08:15:13.698Z</time>
      </trkpt>
      <trkpt lat="48.63773" lon="6.03994">
        <ele>157.65</ele>
        <time>2026-08-05T08:15:19.703Z</time>
      </trkpt>
      <trkpt lat="48.63798" lon="6.03992">
        <ele>155.3</ele>
        <time>2026-08-05T08:15:25.729Z</time>
      </trkpt>
      <trkpt lat="48.63828" lon="6.03986">
        <ele>155.14</ele>
        <time>2026-08-05T08:15:31.732Z</time>
      </trkpt>
      <trkpt lat="48.63854" lon="6.0398">
        <ele>151.68</ele>
        <time>2026-08-05T08:15:37.697Z</time>
      </trkpt>
      <trkpt lat="48.63883" lon="6.03975">
        <ele>148.32</ele>
        <time>2026-08-05T08:15:43.698Z</time>
      </trkpt>
      <trkpt lat="48.63917" lon="6.03972">
        <ele>147.66</ele>
        <time>2026-08-05T08:15:49.699Z</time>
      </trkpt>
      <trkpt lat="48.63952" lon="6.03969">
        <ele>149.8</ele>
        <time>2026-08-05T08:15:55.728Z</time>
      </trkpt>
      <trkpt lat="48.63987" lon="6.03971">
        <ele>151</ele>
        <time>2026-08-05T08:16:01.730Z</time>
      </trkpt>
      <trkpt lat="48.64024" lon="6.03972">
        <ele>151.43</ele>
        <time>2026-08-05T08:16:07.702Z</time>
      </trkpt>
      <trkpt lat="48.64056" lon="6.03976">
        <ele>147.48</ele>
        <time>2026-08-05T08:16:13.699Z</time>
      </trkpt>
      <trkpt lat="48.64092" lon="6.03983">
        <ele>144.71</ele>
        <time>2026-08-05T08:16:19.699Z</time>
      </trkpt>
      <trkpt lat="48.64123" lon="6.03991">
        <ele>137.71</ele>
        <time>2026-08-05T08:16:25.730Z</time>
      </trkpt>
      <trkpt lat="48.64161" lon="6.04002">
        <ele>138.78</ele>
        <time>2026-08-05T08:16:31.728Z</time>
      </trkpt>
      <trkpt lat="48.64199" lon="6.04008">
        <ele>142.59</ele>
        <time>2026-08-05T08:16:37.698Z</time>
      </trkpt>
      <trkpt lat="48.64238" lon="6.04013">
        <ele>144.81</ele>
        <time>2026-08-05T08:16:43.697Z</time>
      </trkpt>
      <trkpt lat="48.64275" lon="6.0402">
        <ele>147.66</ele>
        <time>2026-08-05T08:16:49.700Z</time>
      </trkpt>
      <trkpt lat="48.64312" lon="6.04025">
        <ele>150.18</ele>
        <time>2026-08-05T08:16:55.731Z</time>
      </trkpt>
      <trkpt lat="48.64348" lon="6.04029">
        <ele>152.42</ele>
        <time>2026-08-05T08:17:01.728Z</time>
      </trkpt>
      <trkpt lat="48.64384" lon="6.04036">
        <ele>154.11</ele>
        <time>2026-08-05T08:17:07.700Z</time>
      </trkpt>
      <trkpt lat="48.64422" lon="6.04044">
        <ele>157.35</ele>
        <time>2026-08-05T08:17:13.700Z</time>
      </trkpt>
      <trkpt lat="48.64459" lon="6.04053">
        <ele>158.87</ele>
        <time>2026-08-05T08:17:19.701Z</time>
      </trkpt>
      <trkpt lat="48.64494" lon="6.04061">
        <ele>159.7</ele>
        <time>2026-08-05T08:17:25.745Z</time>
      </trkpt>
      <trkpt lat="48.64531" lon="6.04065">
        <ele>160.86</ele>
        <time>2026-08-05T08:17:31.732Z</time>
      </trkpt>
      <trkpt lat="48.64566" lon="6.04065">
        <ele>161.13</ele>
        <time>2026-08-05T08:17:37.703Z</time>
      </trkpt>
      <trkpt lat="48.64602" lon="6.04059">
        <ele>162.38</ele>
        <time>2026-08-05T08:17:43.700Z</time>
      </trkpt>
      <trkpt lat="48.64638" lon="6.0405">
        <ele>163.65</ele>
        <time>2026-08-05T08:17:49.705Z</time>
      </trkpt>
      <trkpt lat="48.64674" lon="6.04039">
        <ele>165.07</ele>
        <time>2026-08-05T08:17:55.741Z</time>
      </trkpt>
      <trkpt lat="48.64709" lon="6.04025">
        <ele>167.17</ele>
        <time>2026-08-05T08:18:01.729Z</time>
      </trkpt>
      <trkpt lat="48.64742" lon="6.04012">
        <ele>166.77</ele>
        <time>2026-08-05T08:18:07.701Z</time>
      </trkpt>
      <trkpt lat="48.64774" lon="6.03997">
        <ele>164.9</ele>
        <time>2026-08-05T08:18:13.705Z</time>
      </trkpt>
      <trkpt lat="48.64808" lon="6.03979">
        <ele>164.52</ele>
        <time>2026-08-05T08:18:19.700Z</time>
      </trkpt>
      <trkpt lat="48.64841" lon="6.03958">
        <ele>164.44</ele>
        <time>2026-08-05T08:18:25.709Z</time>
      </trkpt>
      <trkpt lat="48.64872" lon="6.03934">
        <ele>163.93</ele>
        <time>2026-08-05T08:18:31.730Z</time>
      </trkpt>
      <trkpt lat="48.64901" lon="6.0391">
        <ele>162.65</ele>
        <time>2026-08-05T08:18:37.701Z</time>
      </trkpt>
      <trkpt lat="48.6493" lon="6.03884">
        <ele>161.45</ele>
        <time>2026-08-05T08:18:43.706Z</time>
      </trkpt>
      <trkpt lat="48.64959" lon="6.03858">
        <ele>161.32</ele>
        <time>2026-08-05T08:18:49.700Z</time>
      </trkpt>
      <trkpt lat="48.6499" lon="6.03833">
        <ele>160.9</ele>
        <time>2026-08-05T08:18:55.746Z</time>
      </trkpt>
      <trkpt lat="48.6502" lon="6.03807">
        <ele>161.88</ele>
        <time>2026-08-05T08:19:01.729Z</time>
      </trkpt>
      <trkpt lat="48.65049" lon="6.0378">
        <ele>162.93</ele>
        <time>2026-08-05T08:19:07.699Z</time>
      </trkpt>
      <trkpt lat="48.65077" lon="6.03753">
        <ele>163.81</ele>
        <time>2026-08-05T08:19:13.705Z</time>
      </trkpt>
      <trkpt lat="48.65106" lon="6.0372">
        <ele>164.47</ele>
        <time>2026-08-05T08:19:19.703Z</time>
      </trkpt>
      <trkpt lat="48.65132" lon="6.03687">
        <ele>164.79</ele>
        <time>2026-08-05T08:19:25.740Z</time>
      </trkpt>
      <trkpt lat="48.65157" lon="6.03654">
        <ele>164.54</ele>
        <time>2026-08-05T08:19:31.731Z</time>
      </trkpt>
      <trkpt lat="48.65183" lon="6.03616">
        <ele>164.77</ele>
        <time>2026-08-05T08:19:37.700Z</time>
      </trkpt>
      <trkpt lat="48.65204" lon="6.03577">
        <ele>162.43</ele>
        <time>2026-08-05T08:19:43.700Z</time>
      </trkpt>
      <trkpt lat="48.65228" lon="6.03538">
        <ele>161.59</ele>
        <time>2026-08-05T08:19:49.704Z</time>
      </trkpt>
      <trkpt lat="48.65247" lon="6.03497">
        <ele>161.13</ele>
        <time>2026-08-05T08:19:55.740Z</time>
      </trkpt>
      <trkpt lat="48.65266" lon="6.03455">
        <ele>161.14</ele>
        <time>2026-08-05T08:20:01.730Z</time>
      </trkpt>
      <trkpt lat="48.65284" lon="6.03411">
        <ele>159.09</ele>
        <time>2026-08-05T08:20:07.701Z</time>
      </trkpt>
      <trkpt lat="48.65303" lon="6.03368">
        <ele>157.72</ele>
        <time>2026-08-05T08:20:13.705Z</time>
      </trkpt>
      <trkpt lat="48.65322" lon="6.03326">
        <ele>160.04</ele>
        <time>2026-08-05T08:20:19.704Z</time>
      </trkpt>
      <trkpt lat="48.65342" lon="6.03284">
        <ele>163.57</ele>
        <time>2026-08-05T08:20:25.740Z</time>
      </trkpt>
      <trkpt lat="48.65364" lon="6.03246">
        <ele>164.36</ele>
        <time>2026-08-05T08:20:31.723Z</time>
      </trkpt>
      <trkpt lat="48.65386" lon="6.03213">
        <ele>163.98</ele>
        <time>2026-08-05T08:20:37.702Z</time>
      </trkpt>
      <trkpt lat="48.65405" lon="6.03176">
        <ele>163.97</ele>
        <time>2026-08-05T08:20:43.699Z</time>
      </trkpt>
      <trkpt lat="48.65424" lon="6.03136">
        <ele>162.02</ele>
        <time>2026-08-05T08:20:49.702Z</time>
      </trkpt>
      <trkpt lat="48.65447" lon="6.03091">
        <ele>158.91</ele>
        <time>2026-08-05T08:20:55.701Z</time>
      </trkpt>
      <trkpt lat="48.65469" lon="6.03049">
        <ele>156.85</ele>
        <time>2026-08-05T08:21:01.732Z</time>
      </trkpt>
      <trkpt lat="48.65491" lon="6.0301">
        <ele>156.05</ele>
        <time>2026-08-05T08:21:07.701Z</time>
      </trkpt>
      <trkpt lat="48.65511" lon="6.02971">
        <ele>156.96</ele>
        <time>2026-08-05T08:21:13.698Z</time>
      </trkpt>
      <trkpt lat="48.65533" lon="6.02931">
        <ele>158.4</ele>
        <time>2026-08-05T08:21:19.699Z</time>
      </trkpt>
      <trkpt lat="48.65552" lon="6.02887">
        <ele>158.2</ele>
        <time>2026-08-05T08:21:25.741Z</time>
      </trkpt>
      <trkpt lat="48.65572" lon="6.02846">
        <ele>158.44</ele>
        <time>2026-08-05T08:21:31.734Z</time>
      </trkpt>
      <trkpt lat="48.6559" lon="6.02802">
        <ele>159.29</ele>
        <time>2026-08-05T08:21:37.700Z</time>
      </trkpt>
      <trkpt lat="48.65606" lon="6.0276">
        <ele>160.31</ele>
        <time>2026-08-05T08:21:43.701Z</time>
      </trkpt>
      <trkpt lat="48.65621" lon="6.02718">
        <ele>159.83</ele>
        <time>2026-08-05T08:21:49.699Z</time>
      </trkpt>
      <trkpt lat="48.65641" lon="6.02682">
        <ele>159.56</ele>
        <time>2026-08-05T08:21:55.742Z</time>
      </trkpt>
      <trkpt lat="48.6566" lon="6.02643">
        <ele>160.76</ele>
        <time>2026-08-05T08:22:01.730Z</time>
      </trkpt>
      <trkpt lat="48.65676" lon="6.02603">
        <ele>161.23</ele>
        <time>2026-08-05T08:22:07.702Z</time>
      </trkpt>
      <trkpt lat="48.65693" lon="6.02561">
        <ele>162.29</ele>
        <time>2026-08-05T08:22:13.700Z</time>
      </trkpt>
      <trkpt lat="48.65708" lon="6.0252">
        <ele>160.69</ele>
        <time>2026-08-05T08:22:19.699Z</time>
      </trkpt>
      <trkpt lat="48.65724" lon="6.02476">
        <ele>158.53</ele>
        <time>2026-08-05T08:22:25.749Z</time>
      </trkpt>
      <trkpt lat="48.65737" lon="6.02435">
        <ele>155.92</ele>
        <time>2026-08-05T08:22:31.731Z</time>
      </trkpt>
      <trkpt lat="48.65753" lon="6.02397">
        <ele>154.84</ele>
        <time>2026-08-05T08:22:37.704Z</time>
      </trkpt>
      <trkpt lat="48.65775" lon="6.02358">
        <ele>155.02</ele>
        <time>2026-08-05T08:22:43.693Z</time>
      </trkpt>
      <trkpt lat="48.65793" lon="6.0232">
        <ele>154.43</ele>
        <time>2026-08-05T08:22:49.701Z</time>
      </trkpt>
      <trkpt lat="48.6582" lon="6.02282">
        <ele>153.19</ele>
        <time>2026-08-05T08:22:55.739Z</time>
      </trkpt>
      <trkpt lat="48.65848" lon="6.02248">
        <ele>152.39</ele>
        <time>2026-08-05T08:23:01.730Z</time>
      </trkpt>
      <trkpt lat="48.65873" lon="6.02218">
        <ele>153.81</ele>
        <time>2026-08-05T08:23:07.701Z</time>
      </trkpt>
      <trkpt lat="48.65898" lon="6.02194">
        <ele>154.03</ele>
        <time>2026-08-05T08:23:13.702Z</time>
      </trkpt>
      <trkpt lat="48.65923" lon="6.02167">
        <ele>154.52</ele>
        <time>2026-08-05T08:23:19.705Z</time>
      </trkpt>
      <trkpt lat="48.65946" lon="6.0214">
        <ele>153.5</ele>
        <time>2026-08-05T08:23:25.737Z</time>
      </trkpt>
      <trkpt lat="48.65972" lon="6.02112">
        <ele>152.83</ele>
        <time>2026-08-05T08:23:31.731Z</time>
      </trkpt>
      <trkpt lat="48.65998" lon="6.0208">
        <ele>153.55</ele>
        <time>2026-08-05T08:23:37.700Z</time>
      </trkpt>
      <trkpt lat="48.66023" lon="6.02044">
        <ele>157.21</ele>
        <time>2026-08-05T08:23:43.704Z</time>
      </trkpt>
      <trkpt lat="48.66045" lon="6.02005">
        <ele>160.83</ele>
        <time>2026-08-05T08:23:49.700Z</time>
      </trkpt>
      <trkpt lat="48.66067" lon="6.01967">
        <ele>163.02</ele>
        <time>2026-08-05T08:23:55.736Z</time>
      </trkpt>
      <trkpt lat="48.66085" lon="6.01928">
        <ele>165.13</ele>
        <time>2026-08-05T08:24:01.731Z</time>
      </trkpt>
      <trkpt lat="48.66103" lon="6.01889">
        <ele>165.55</ele>
        <time>2026-08-05T08:24:07.704Z</time>
      </trkpt>
      <trkpt lat="48.66117" lon="6.01848">
        <ele>165.52</ele>
        <time>2026-08-05T08:24:13.700Z</time>
      </trkpt>
      <trkpt lat="48.66131" lon="6.01807">
        <ele>163.55</ele>
        <time>2026-08-05T08:24:19.702Z</time>
      </trkpt>
      <trkpt lat="48.66145" lon="6.01765">
        <ele>159.88</ele>
        <time>2026-08-05T08:24:25.745Z</time>
      </trkpt>
      <trkpt lat="48.66155" lon="6.01719">
        <ele>155.59</ele>
        <time>2026-08-05T08:24:31.742Z</time>
      </trkpt>
      <trkpt lat="48.66166" lon="6.01677">
        <ele>153.24</ele>
        <time>2026-08-05T08:24:37.707Z</time>
      </trkpt>
      <trkpt lat="48.66173" lon="6.01632">
        <ele>152.58</ele>
        <time>2026-08-05T08:24:43.705Z</time>
      </trkpt>
      <trkpt lat="48.66178" lon="6.01586">
        <ele>155.43</ele>
        <time>2026-08-05T08:24:49.701Z</time>
      </trkpt>
      <trkpt lat="48.66182" lon="6.01538">
        <ele>155.5</ele>
        <time>2026-08-05T08:24:55.742Z</time>
      </trkpt>
      <trkpt lat="48.66184" lon="6.0149">
        <ele>152.24</ele>
        <time>2026-08-05T08:25:01.731Z</time>
      </trkpt>
      <trkpt lat="48.66185" lon="6.01443">
        <ele>148.41</ele>
        <time>2026-08-05T08:25:07.703Z</time>
      </trkpt>
      <trkpt lat="48.66184" lon="6.01394">
        <ele>146.33</ele>
        <time>2026-08-05T08:25:13.703Z</time>
      </trkpt>
      <trkpt lat="48.66181" lon="6.01342">
        <ele>148.97</ele>
        <time>2026-08-05T08:25:19.700Z</time>
      </trkpt>
      <trkpt lat="48.66178" lon="6.01293">
        <ele>150.11</ele>
        <time>2026-08-05T08:25:25.728Z</time>
      </trkpt>
      <trkpt lat="48.66171" lon="6.01245">
        <ele>150.63</ele>
        <time>2026-08-05T08:25:31.729Z</time>
      </trkpt>
      <trkpt lat="48.66163" lon="6.01193">
        <ele>151.62</ele>
        <time>2026-08-05T08:25:37.704Z</time>
      </trkpt>
      <trkpt lat="48.66154" lon="6.01144">
        <ele>152.69</ele>
        <time>2026-08-05T08:25:43.707Z</time>
      </trkpt>
      <trkpt lat="48.66145" lon="6.01097">
        <ele>152.09</ele>
        <time>2026-08-05T08:25:49.700Z</time>
      </trkpt>
      <trkpt lat="48.66133" lon="6.01046">
        <ele>153.25</ele>
        <time>2026-08-05T08:25:55.733Z</time>
      </trkpt>
      <trkpt lat="48.66122" lon="6.00995">
        <ele>155.76</ele>
        <time>2026-08-05T08:26:01.732Z</time>
      </trkpt>
      <trkpt lat="48.6611" lon="6.00951">
        <ele>156.71</ele>
        <time>2026-08-05T08:26:07.721Z</time>
      </trkpt>
      <trkpt lat="48.66095" lon="6.00901">
        <ele>158.43</ele>
        <time>2026-08-05T08:26:13.695Z</time>
      </trkpt>
      <trkpt lat="48.66083" lon="6.00853">
        <ele>157.84</ele>
        <time>2026-08-05T08:26:19.697Z</time>
      </trkpt>
      <trkpt lat="48.66063" lon="6.00808">
        <ele>156.72</ele>
        <time>2026-08-05T08:26:25.732Z</time>
      </trkpt>
      <trkpt lat="48.66047" lon="6.00768">
        <ele>158.18</ele>
        <time>2026-08-05T08:26:31.726Z</time>
      </trkpt>
      <trkpt lat="48.66028" lon="6.00727">
        <ele>160.63</ele>
        <time>2026-08-05T08:26:37.697Z</time>
      </trkpt>
      <trkpt lat="48.66007" lon="6.00686">
        <ele>162.51</ele>
        <time>2026-08-05T08:26:43.699Z</time>
      </trkpt>
      <trkpt lat="48.65987" lon="6.00645">
        <ele>166.16</ele>
        <time>2026-08-05T08:26:49.699Z</time>
      </trkpt>
      <trkpt lat="48.65966" lon="6.00607">
        <ele>169.63</ele>
        <time>2026-08-05T08:26:55.726Z</time>
      </trkpt>
      <trkpt lat="48.65947" lon="6.00571">
        <ele>171.12</ele>
        <time>2026-08-05T08:27:01.726Z</time>
      </trkpt>
      <trkpt lat="48.65926" lon="6.00537">
        <ele>170.93</ele>
        <time>2026-08-05T08:27:07.694Z</time>
      </trkpt>
      <trkpt lat="48.65901" lon="6.00503">
        <ele>169.9</ele>
        <time>2026-08-05T08:27:13.698Z</time>
      </trkpt>
      <trkpt lat="48.65878" lon="6.00467">
        <ele>169.91</ele>
        <time>2026-08-05T08:27:19.692Z</time>
      </trkpt>
      <trkpt lat="48.65856" lon="6.00435">
        <ele>168.53</ele>
        <time>2026-08-05T08:27:25.740Z</time>
      </trkpt>
      <trkpt lat="48.65833" lon="6.00404">
        <ele>165.36</ele>
        <time>2026-08-05T08:27:31.729Z</time>
      </trkpt>
      <trkpt lat="48.65809" lon="6.00375">
        <ele>165.07</ele>
        <time>2026-08-05T08:27:37.697Z</time>
      </trkpt>
      <trkpt lat="48.658" lon="6.00361">
        <ele>165.57</ele>
        <time>2026-08-05T08:27:43.693Z</time>
      </trkpt>
      <trkpt lat="48.65804" lon="6.00375">
        <ele>164.76</ele>
        <time>2026-08-05T08:27:57.673Z</time>
      </trkpt>
      <trkpt lat="48.65806" lon="6.00393">
        <ele>167.42</ele>
        <time>2026-08-05T08:42:15.056Z</time>
      </trkpt>
      <trkpt lat="48.65801" lon="6.00381">
        <ele>163.27</ele>
        <time>2026-08-05T08:43:02.677Z</time>
      </trkpt>
      <trkpt lat="48.6581" lon="6.00384">
        <ele>163.95</ele>
        <time>2026-08-05T08:43:26.679Z</time>
      </trkpt>
      <trkpt lat="48.65803" lon="6.00395">
        <ele>163.39</ele>
        <time>2026-08-05T08:45:41.665Z</time>
      </trkpt>
      <trkpt lat="48.65795" lon="6.00375">
        <ele>170.42</ele>
        <time>2026-08-05T08:50:32.678Z</time>
      </trkpt>
      <trkpt lat="48.65784" lon="6.00352">
        <ele>169.07</ele>
        <time>2026-08-05T08:50:37.739Z</time>
      </trkpt>
      <trkpt lat="48.65775" lon="6.0034">
        <ele>165.99</ele>
        <time>2026-08-05T08:50:43.739Z</time>
      </trkpt>
      <trkpt lat="48.65761" lon="6.00326">
        <ele>162.18</ele>
        <time>2026-08-05T08:50:49.758Z</time>
      </trkpt>
      <trkpt lat="48.65746" lon="6.00306">
        <ele>159.58</ele>
        <time>2026-08-05T08:50:55.740Z</time>
      </trkpt>
      <trkpt lat="48.65728" lon="6.00285">
        <ele>157.08</ele>
        <time>2026-08-05T08:51:01.754Z</time>
      </trkpt>
      <trkpt lat="48.65707" lon="6.00262">
        <ele>155.45</ele>
        <time>2026-08-05T08:51:07.753Z</time>
      </trkpt>
      <trkpt lat="48.65681" lon="6.00247">
        <ele>157.4</ele>
        <time>2026-08-05T08:51:13.758Z</time>
      </trkpt>
      <trkpt lat="48.6566" lon="6.00222">
        <ele>157.25</ele>
        <time>2026-08-05T08:51:19.754Z</time>
      </trkpt>
      <trkpt lat="48.65633" lon="6.00206">
        <ele>158.5</ele>
        <time>2026-08-05T08:51:25.757Z</time>
      </trkpt>
      <trkpt lat="48.65606" lon="6.00189">
        <ele>158.42</ele>
        <time>2026-08-05T08:51:31.759Z</time>
      </trkpt>
      <trkpt lat="48.65578" lon="6.00173">
        <ele>156.5</ele>
        <time>2026-08-05T08:51:37.751Z</time>
      </trkpt>
      <trkpt lat="48.6555" lon="6.00158">
        <ele>156.45</ele>
        <time>2026-08-05T08:51:43.757Z</time>
      </trkpt>
      <trkpt lat="48.6552" lon="6.00144">
        <ele>157.54</ele>
        <time>2026-08-05T08:51:49.760Z</time>
      </trkpt>
      <trkpt lat="48.65489" lon="6.00131">
        <ele>158.24</ele>
        <time>2026-08-05T08:51:55.752Z</time>
      </trkpt>
      <trkpt lat="48.6546" lon="6.00119">
        <ele>158.56</ele>
        <time>2026-08-05T08:52:01.752Z</time>
      </trkpt>
      <trkpt lat="48.6543" lon="6.00104">
        <ele>157.93</ele>
        <time>2026-08-05T08:52:07.753Z</time>
      </trkpt>
      <trkpt lat="48.65398" lon="6.00089">
        <ele>159.61</ele>
        <time>2026-08-05T08:52:13.754Z</time>
      </trkpt>
      <trkpt lat="48.65369" lon="6.00067">
        <ele>160.53</ele>
        <time>2026-08-05T08:52:19.752Z</time>
      </trkpt>
      <trkpt lat="48.65343" lon="6.00039">
        <ele>158.89</ele>
        <time>2026-08-05T08:52:25.759Z</time>
      </trkpt>
      <trkpt lat="48.65318" lon="6.0001">
        <ele>158.48</ele>
        <time>2026-08-05T08:52:31.755Z</time>
      </trkpt>
      <trkpt lat="48.65288" lon="5.99977">
        <ele>157.8</ele>
        <time>2026-08-05T08:52:37.755Z</time>
      </trkpt>
      <trkpt lat="48.65263" lon="5.99947">
        <ele>155.2</ele>
        <time>2026-08-05T08:52:43.752Z</time>
      </trkpt>
      <trkpt lat="48.65236" lon="5.99915">
        <ele>154.18</ele>
        <time>2026-08-05T08:52:49.748Z</time>
      </trkpt>
      <trkpt lat="48.6521" lon="5.9988">
        <ele>154.2</ele>
        <time>2026-08-05T08:52:55.759Z</time>
      </trkpt>
      <trkpt lat="48.65194" lon="5.99835">
        <ele>154.4</ele>
        <time>2026-08-05T08:53:01.755Z</time>
      </trkpt>
      <trkpt lat="48.65189" lon="5.99786">
        <ele>158.95</ele>
        <time>2026-08-05T08:53:07.752Z</time>
      </trkpt>
      <trkpt lat="48.65185" lon="5.99747">
        <ele>161.96</ele>
        <time>2026-08-05T08:53:13.757Z</time>
      </trkpt>
      <trkpt lat="48.6518" lon="5.99709">
        <ele>164.94</ele>
        <time>2026-08-05T08:53:19.750Z</time>
      </trkpt>
      <trkpt lat="48.65177" lon="5.99667">
        <ele>165.66</ele>
        <time>2026-08-05T08:53:25.749Z</time>
      </trkpt>
      <trkpt lat="48.65166" lon="5.99611">
        <ele>165.04</ele>
        <time>2026-08-05T08:53:31.753Z</time>
      </trkpt>
      <trkpt lat="48.65156" lon="5.99552">
        <ele>164.16</ele>
        <time>2026-08-05T08:53:37.754Z</time>
      </trkpt>
      <trkpt lat="48.65143" lon="5.9949">
        <ele>163.32</ele>
        <time>2026-08-05T08:53:43.755Z</time>
      </trkpt>
      <trkpt lat="48.65129" lon="5.99436">
        <ele>162.79</ele>
        <time>2026-08-05T08:53:49.749Z</time>
      </trkpt>
      <trkpt lat="48.65118" lon="5.99382">
        <ele>162.7</ele>
        <time>2026-08-05T08:53:55.752Z</time>
      </trkpt>
      <trkpt lat="48.65109" lon="5.99326">
        <ele>161.26</ele>
        <time>2026-08-05T08:54:01.752Z</time>
      </trkpt>
      <trkpt lat="48.65104" lon="5.99266">
        <ele>162.22</ele>
        <time>2026-08-05T08:54:07.754Z</time>
      </trkpt>
      <trkpt lat="48.65098" lon="5.99211">
        <ele>162.98</ele>
        <time>2026-08-05T08:54:13.734Z</time>
      </trkpt>
      <trkpt lat="48.65095" lon="5.99152">
        <ele>161.66</ele>
        <time>2026-08-05T08:54:19.753Z</time>
      </trkpt>
      <trkpt lat="48.6509" lon="5.99095">
        <ele>162.59</ele>
        <time>2026-08-05T08:54:25.752Z</time>
      </trkpt>
      <trkpt lat="48.65088" lon="5.99047">
        <ele>164.7</ele>
        <time>2026-08-05T08:54:31.752Z</time>
      </trkpt>
      <trkpt lat="48.65085" lon="5.99001">
        <ele>165.72</ele>
        <time>2026-08-05T08:54:37.753Z</time>
      </trkpt>
      <trkpt lat="48.65081" lon="5.98952">
        <ele>167.38</ele>
        <time>2026-08-05T08:54:43.752Z</time>
      </trkpt>
      <trkpt lat="48.65079" lon="5.989">
        <ele>166.98</ele>
        <time>2026-08-05T08:54:49.764Z</time>
      </trkpt>
      <trkpt lat="48.65071" lon="5.98847">
        <ele>166.29</ele>
        <time>2026-08-05T08:54:55.758Z</time>
      </trkpt>
      <trkpt lat="48.65065" lon="5.98806">
        <ele>164.44</ele>
        <time>2026-08-05T08:55:01.754Z</time>
      </trkpt>
      <trkpt lat="48.65066" lon="5.98757">
        <ele>163.87</ele>
        <time>2026-08-05T08:55:07.760Z</time>
      </trkpt>
      <trkpt lat="48.65066" lon="5.98702">
        <ele>163.6</ele>
        <time>2026-08-05T08:55:13.753Z</time>
      </trkpt>
      <trkpt lat="48.65067" lon="5.98638">
        <ele>163.85</ele>
        <time>2026-08-05T08:55:19.755Z</time>
      </trkpt>
      <trkpt lat="48.65067" lon="5.98574">
        <ele>165.08</ele>
        <time>2026-08-05T08:55:25.761Z</time>
      </trkpt>
      <trkpt lat="48.65064" lon="5.9852">
        <ele>164.9</ele>
        <time>2026-08-05T08:55:31.758Z</time>
      </trkpt>
      <trkpt lat="48.65058" lon="5.98468">
        <ele>161.91</ele>
        <time>2026-08-05T08:55:37.754Z</time>
      </trkpt>
      <trkpt lat="48.65054" lon="5.98419">
        <ele>159.58</ele>
        <time>2026-08-05T08:55:43.752Z</time>
      </trkpt>
      <trkpt lat="48.6505" lon="5.98364">
        <ele>160.2</ele>
        <time>2026-08-05T08:55:49.755Z</time>
      </trkpt>
      <trkpt lat="48.65049" lon="5.98309">
        <ele>163.07</ele>
        <time>2026-08-05T08:55:55.748Z</time>
      </trkpt>
      <trkpt lat="48.65049" lon="5.98258">
        <ele>163.92</ele>
        <time>2026-08-05T08:56:01.752Z</time>
      </trkpt>
      <trkpt lat="48.65049" lon="5.9821">
        <ele>165.14</ele>
        <time>2026-08-05T08:56:07.751Z</time>
      </trkpt>
      <trkpt lat="48.6505" lon="5.98163">
        <ele>165.03</ele>
        <time>2026-08-05T08:56:13.756Z</time>
      </trkpt>
      <trkpt lat="48.6505" lon="5.98117">
        <ele>165.1</ele>
        <time>2026-08-05T08:56:19.757Z</time>
      </trkpt>
      <trkpt lat="48.6505" lon="5.9807">
        <ele>165.57</ele>
        <time>2026-08-05T08:56:25.761Z</time>
      </trkpt>
      <trkpt lat="48.65048" lon="5.98025">
        <ele>166.66</ele>
        <time>2026-08-05T08:56:31.760Z</time>
      </trkpt>
      <trkpt lat="48.65042" lon="5.97978">
        <ele>166.93</ele>
        <time>2026-08-05T08:56:37.758Z</time>
      </trkpt>
      <trkpt lat="48.65033" lon="5.97932">
        <ele>167.73</ele>
        <time>2026-08-05T08:56:43.755Z</time>
      </trkpt>
      <trkpt lat="48.65023" lon="5.97887">
        <ele>167.79</ele>
        <time>2026-08-05T08:56:49.752Z</time>
      </trkpt>
      <trkpt lat="48.65013" lon="5.9784">
        <ele>165.45</ele>
        <time>2026-08-05T08:56:55.757Z</time>
      </trkpt>
      <trkpt lat="48.65003" lon="5.97795">
        <ele>165.06</ele>
        <time>2026-08-05T08:57:01.759Z</time>
      </trkpt>
      <trkpt lat="48.64993" lon="5.9775">
        <ele>164.38</ele>
        <time>2026-08-05T08:57:07.756Z</time>
      </trkpt>
      <trkpt lat="48.64985" lon="5.97702">
        <ele>167.36</ele>
        <time>2026-08-05T08:57:13.754Z</time>
      </trkpt>
      <trkpt lat="48.64976" lon="5.97662">
        <ele>166.72</ele>
        <time>2026-08-05T08:57:19.753Z</time>
      </trkpt>
      <trkpt lat="48.64966" lon="5.97619">
        <ele>167.13</ele>
        <time>2026-08-05T08:57:25.760Z</time>
      </trkpt>
      <trkpt lat="48.64955" lon="5.97575">
        <ele>167.85</ele>
        <time>2026-08-05T08:57:31.761Z</time>
      </trkpt>
      <trkpt lat="48.64944" lon="5.97532">
        <ele>168.99</ele>
        <time>2026-08-05T08:57:37.754Z</time>
      </trkpt>
      <trkpt lat="48.64933" lon="5.97487">
        <ele>169.01</ele>
        <time>2026-08-05T08:57:43.754Z</time>
      </trkpt>
      <trkpt lat="48.64921" lon="5.97446">
        <ele>168.09</ele>
        <time>2026-08-05T08:57:49.752Z</time>
      </trkpt>
      <trkpt lat="48.64914" lon="5.97416">
        <ele>168.36</ele>
        <time>2026-08-05T08:57:55.763Z</time>
      </trkpt>
      <trkpt lat="48.64897" lon="5.97409">
        <ele>168.54</ele>
        <time>2026-08-05T08:58:01.759Z</time>
      </trkpt>
      <trkpt lat="48.64871" lon="5.97389">
        <ele>164.62</ele>
        <time>2026-08-05T08:58:08.106Z</time>
      </trkpt>
      <trkpt lat="48.64861" lon="5.97341">
        <ele>166.26</ele>
        <time>2026-08-05T08:58:13.741Z</time>
      </trkpt>
      <trkpt lat="48.64864" lon="5.97302">
        <ele>163.96</ele>
        <time>2026-08-05T08:58:19.739Z</time>
      </trkpt>
      <trkpt lat="48.64843" lon="5.97252">
        <ele>158.95</ele>
        <time>2026-08-05T08:58:25.784Z</time>
      </trkpt>
      <trkpt lat="48.64821" lon="5.97196">
        <ele>161.43</ele>
        <time>2026-08-05T08:58:31.735Z</time>
      </trkpt>
      <trkpt lat="48.64808" lon="5.97143">
        <ele>165.15</ele>
        <time>2026-08-05T08:58:37.731Z</time>
      </trkpt>
      <trkpt lat="48.64793" lon="5.97094">
        <ele>165.55</ele>
        <time>2026-08-05T08:58:43.736Z</time>
      </trkpt>
      <trkpt lat="48.64782" lon="5.97046">
        <ele>166.32</ele>
        <time>2026-08-05T08:58:49.740Z</time>
      </trkpt>
      <trkpt lat="48.64766" lon="5.96991">
        <ele>166.77</ele>
        <time>2026-08-05T08:58:55.743Z</time>
      </trkpt>
      <trkpt lat="48.64749" lon="5.96941">
        <ele>166.42</ele>
        <time>2026-08-05T08:59:01.747Z</time>
      </trkpt>
      <trkpt lat="48.64734" lon="5.9689">
        <ele>166.1</ele>
        <time>2026-08-05T08:59:07.741Z</time>
      </trkpt>
      <trkpt lat="48.64721" lon="5.9684">
        <ele>166.14</ele>
        <time>2026-08-05T08:59:13.737Z</time>
      </trkpt>
      <trkpt lat="48.64709" lon="5.96788">
        <ele>165.37</ele>
        <time>2026-08-05T08:59:19.743Z</time>
      </trkpt>
      <trkpt lat="48.64695" lon="5.96737">
        <ele>164.14</ele>
        <time>2026-08-05T08:59:25.749Z</time>
      </trkpt>
      <trkpt lat="48.64678" lon="5.96686">
        <ele>163.45</ele>
        <time>2026-08-05T08:59:31.745Z</time>
      </trkpt>
      <trkpt lat="48.64654" lon="5.96645">
        <ele>162.69</ele>
        <time>2026-08-05T08:59:37.738Z</time>
      </trkpt>
      <trkpt lat="48.6463" lon="5.96606">
        <ele>162.15</ele>
        <time>2026-08-05T08:59:43.740Z</time>
      </trkpt>
      <trkpt lat="48.64608" lon="5.96563">
        <ele>160.89</ele>
        <time>2026-08-05T08:59:49.738Z</time>
      </trkpt>
      <trkpt lat="48.64591" lon="5.96514">
        <ele>160.27</ele>
        <time>2026-08-05T08:59:55.745Z</time>
      </trkpt>
      <trkpt lat="48.64578" lon="5.96469">
        <ele>159.06</ele>
        <time>2026-08-05T09:00:01.747Z</time>
      </trkpt>
      <trkpt lat="48.64564" lon="5.96424">
        <ele>159.32</ele>
        <time>2026-08-05T09:00:07.733Z</time>
      </trkpt>
      <trkpt lat="48.6455" lon="5.96377">
        <ele>159.99</ele>
        <time>2026-08-05T09:00:13.731Z</time>
      </trkpt>
      <trkpt lat="48.64535" lon="5.96327">
        <ele>161.76</ele>
        <time>2026-08-05T09:00:19.735Z</time>
      </trkpt>
      <trkpt lat="48.64522" lon="5.96278">
        <ele>161.65</ele>
        <time>2026-08-05T09:00:25.745Z</time>
      </trkpt>
      <trkpt lat="48.64508" lon="5.9623">
        <ele>160.92</ele>
        <time>2026-08-05T09:00:31.745Z</time>
      </trkpt>
      <trkpt lat="48.64495" lon="5.96181">
        <ele>161</ele>
        <time>2026-08-05T09:00:37.732Z</time>
      </trkpt>
      <trkpt lat="48.64484" lon="5.96133">
        <ele>161.43</ele>
        <time>2026-08-05T09:00:43.730Z</time>
      </trkpt>
      <trkpt lat="48.64472" lon="5.96084">
        <ele>160.9</ele>
        <time>2026-08-05T09:00:49.730Z</time>
      </trkpt>
      <trkpt lat="48.64459" lon="5.96035">
        <ele>161.34</ele>
        <time>2026-08-05T09:00:55.744Z</time>
      </trkpt>
      <trkpt lat="48.64444" lon="5.95986">
        <ele>161.62</ele>
        <time>2026-08-05T09:01:01.745Z</time>
      </trkpt>
      <trkpt lat="48.64432" lon="5.95939">
        <ele>161.56</ele>
        <time>2026-08-05T09:01:07.742Z</time>
      </trkpt>
      <trkpt lat="48.64422" lon="5.95893">
        <ele>163.15</ele>
        <time>2026-08-05T09:01:13.742Z</time>
      </trkpt>
      <trkpt lat="48.64412" lon="5.95843">
        <ele>162.2</ele>
        <time>2026-08-05T09:01:19.739Z</time>
      </trkpt>
      <trkpt lat="48.64403" lon="5.95793">
        <ele>160.67</ele>
        <time>2026-08-05T09:01:25.748Z</time>
      </trkpt>
      <trkpt lat="48.64396" lon="5.95742">
        <ele>160.27</ele>
        <time>2026-08-05T09:01:31.744Z</time>
      </trkpt>
      <trkpt lat="48.6439" lon="5.95691">
        <ele>159.82</ele>
        <time>2026-08-05T09:01:37.740Z</time>
      </trkpt>
      <trkpt lat="48.64383" lon="5.95642">
        <ele>161.48</ele>
        <time>2026-08-05T09:01:43.739Z</time>
      </trkpt>
      <trkpt lat="48.64376" lon="5.95593">
        <ele>162.22</ele>
        <time>2026-08-05T09:01:49.735Z</time>
      </trkpt>
      <trkpt lat="48.64369" lon="5.95544">
        <ele>161.22</ele>
        <time>2026-08-05T09:01:55.747Z</time>
      </trkpt>
      <trkpt lat="48.64363" lon="5.95495">
        <ele>162.24</ele>
        <time>2026-08-05T09:02:01.746Z</time>
      </trkpt>
      <trkpt lat="48.64357" lon="5.95445">
        <ele>162.51</ele>
        <time>2026-08-05T09:02:07.733Z</time>
      </trkpt>
      <trkpt lat="48.64352" lon="5.95395">
        <ele>163.92</ele>
        <time>2026-08-05T09:02:13.737Z</time>
      </trkpt>
      <trkpt lat="48.64347" lon="5.95343">
        <ele>164</ele>
        <time>2026-08-05T09:02:19.734Z</time>
      </trkpt>
      <trkpt lat="48.64341" lon="5.95292">
        <ele>164.07</ele>
        <time>2026-08-05T09:02:25.749Z</time>
      </trkpt>
      <trkpt lat="48.64335" lon="5.95242">
        <ele>165.34</ele>
        <time>2026-08-05T09:02:31.744Z</time>
      </trkpt>
      <trkpt lat="48.64328" lon="5.95191">
        <ele>164.73</ele>
        <time>2026-08-05T09:02:37.730Z</time>
      </trkpt>
      <trkpt lat="48.64322" lon="5.95141">
        <ele>162.8</ele>
        <time>2026-08-05T09:02:43.735Z</time>
      </trkpt>
      <trkpt lat="48.64316" lon="5.9509">
        <ele>161.98</ele>
        <time>2026-08-05T09:02:49.738Z</time>
      </trkpt>
      <trkpt lat="48.64311" lon="5.95039">
        <ele>162.04</ele>
        <time>2026-08-05T09:02:55.745Z</time>
      </trkpt>
      <trkpt lat="48.64307" lon="5.94986">
        <ele>162.3</ele>
        <time>2026-08-05T09:03:01.742Z</time>
      </trkpt>
      <trkpt lat="48.64303" lon="5.94935">
        <ele>163.02</ele>
        <time>2026-08-05T09:03:07.732Z</time>
      </trkpt>
      <trkpt lat="48.643" lon="5.94884">
        <ele>163.75</ele>
        <time>2026-08-05T09:03:13.734Z</time>
      </trkpt>
      <trkpt lat="48.64297" lon="5.94833">
        <ele>163.62</ele>
        <time>2026-08-05T09:03:19.732Z</time>
      </trkpt>
      <trkpt lat="48.64295" lon="5.9478">
        <ele>163.2</ele>
        <time>2026-08-05T09:03:25.737Z</time>
      </trkpt>
      <trkpt lat="48.64294" lon="5.94728">
        <ele>162.69</ele>
        <time>2026-08-05T09:03:31.742Z</time>
      </trkpt>
      <trkpt lat="48.64293" lon="5.94675">
        <ele>162.1</ele>
        <time>2026-08-05T09:03:37.732Z</time>
      </trkpt>
      <trkpt lat="48.64292" lon="5.94622">
        <ele>161.83</ele>
        <time>2026-08-05T09:03:43.735Z</time>
      </trkpt>
      <trkpt lat="48.64291" lon="5.9457">
        <ele>161.71</ele>
        <time>2026-08-05T09:03:49.739Z</time>
      </trkpt>
      <trkpt lat="48.64291" lon="5.94519">
        <ele>162.23</ele>
        <time>2026-08-05T09:03:55.736Z</time>
      </trkpt>
      <trkpt lat="48.64291" lon="5.94467">
        <ele>162.55</ele>
        <time>2026-08-05T09:04:01.738Z</time>
      </trkpt>
      <trkpt lat="48.64291" lon="5.94417">
        <ele>162.69</ele>
        <time>2026-08-05T09:04:07.742Z</time>
      </trkpt>
      <trkpt lat="48.64293" lon="5.9437">
        <ele>162.52</ele>
        <time>2026-08-05T09:04:13.740Z</time>
      </trkpt>
      <trkpt lat="48.64298" lon="5.94319">
        <ele>162.54</ele>
        <time>2026-08-05T09:04:19.739Z</time>
      </trkpt>
      <trkpt lat="48.64299" lon="5.94265">
        <ele>162.36</ele>
        <time>2026-08-05T09:04:25.739Z</time>
      </trkpt>
      <trkpt lat="48.64303" lon="5.94209">
        <ele>161.14</ele>
        <time>2026-08-05T09:04:31.742Z</time>
      </trkpt>
      <trkpt lat="48.64306" lon="5.94156">
        <ele>161.01</ele>
        <time>2026-08-05T09:04:37.741Z</time>
      </trkpt>
      <trkpt lat="48.64308" lon="5.94108">
        <ele>160.16</ele>
        <time>2026-08-05T09:04:43.738Z</time>
      </trkpt>
      <trkpt lat="48.6431" lon="5.94064">
        <ele>160.68</ele>
        <time>2026-08-05T09:04:49.740Z</time>
      </trkpt>
      <trkpt lat="48.64314" lon="5.94015">
        <ele>161.03</ele>
        <time>2026-08-05T09:04:55.745Z</time>
      </trkpt>
      <trkpt lat="48.64322" lon="5.93969">
        <ele>162.77</ele>
        <time>2026-08-05T09:05:01.740Z</time>
      </trkpt>
      <trkpt lat="48.64328" lon="5.93923">
        <ele>162.86</ele>
        <time>2026-08-05T09:05:07.743Z</time>
      </trkpt>
      <trkpt lat="48.64331" lon="5.93877">
        <ele>163.84</ele>
        <time>2026-08-05T09:05:13.740Z</time>
      </trkpt>
      <trkpt lat="48.64332" lon="5.93828">
        <ele>164.83</ele>
        <time>2026-08-05T09:05:19.742Z</time>
      </trkpt>
      <trkpt lat="48.64336" lon="5.9378">
        <ele>163.6</ele>
        <time>2026-08-05T09:05:25.739Z</time>
      </trkpt>
      <trkpt lat="48.64343" lon="5.93728">
        <ele>161.49</ele>
        <time>2026-08-05T09:05:31.741Z</time>
      </trkpt>
      <trkpt lat="48.64344" lon="5.93672">
        <ele>160.04</ele>
        <time>2026-08-05T09:05:37.742Z</time>
      </trkpt>
      <trkpt lat="48.64345" lon="5.93615">
        <ele>159.48</ele>
        <time>2026-08-05T09:05:43.741Z</time>
      </trkpt>
      <trkpt lat="48.64347" lon="5.9356">
        <ele>160.04</ele>
        <time>2026-08-05T09:05:49.740Z</time>
      </trkpt>
      <trkpt lat="48.64348" lon="5.93508">
        <ele>160.37</ele>
        <time>2026-08-05T09:05:55.739Z</time>
      </trkpt>
      <trkpt lat="48.64348" lon="5.9346">
        <ele>160.88</ele>
        <time>2026-08-05T09:06:01.741Z</time>
      </trkpt>
      <trkpt lat="48.64354" lon="5.93415">
        <ele>160.98</ele>
        <time>2026-08-05T09:06:07.737Z</time>
      </trkpt>
      <trkpt lat="48.6436" lon="5.9337">
        <ele>160.95</ele>
        <time>2026-08-05T09:06:13.742Z</time>
      </trkpt>
      <trkpt lat="48.64369" lon="5.93332">
        <ele>159.96</ele>
        <time>2026-08-05T09:06:19.737Z</time>
      </trkpt>
      <trkpt lat="48.64391" lon="5.93347">
        <ele>160.14</ele>
        <time>2026-08-05T09:06:25.738Z</time>
      </trkpt>
      <trkpt lat="48.6441" lon="5.93359">
        <ele>161.05</ele>
        <time>2026-08-05T09:06:31.739Z</time>
      </trkpt>
      <trkpt lat="48.64428" lon="5.93372">
        <ele>162.94</ele>
        <time>2026-08-05T09:06:37.740Z</time>
      </trkpt>
      <trkpt lat="48.64446" lon="5.9338">
        <ele>165</ele>
        <time>2026-08-05T09:06:43.740Z</time>
      </trkpt>
      <trkpt lat="48.64466" lon="5.9339">
        <ele>165.93</ele>
        <time>2026-08-05T09:06:49.744Z</time>
      </trkpt>
      <trkpt lat="48.64486" lon="5.93399">
        <ele>166.97</ele>
        <time>2026-08-05T09:06:55.740Z</time>
      </trkpt>
      <trkpt lat="48.64507" lon="5.9341">
        <ele>167.23</ele>
        <time>2026-08-05T09:07:01.736Z</time>
      </trkpt>
      <trkpt lat="48.64532" lon="5.93423">
        <ele>166.37</ele>
        <time>2026-08-05T09:07:07.738Z</time>
      </trkpt>
      <trkpt lat="48.64562" lon="5.93438">
        <ele>164.87</ele>
        <time>2026-08-05T09:07:13.739Z</time>
      </trkpt>
      <trkpt lat="48.64587" lon="5.9345">
        <ele>163.05</ele>
        <time>2026-08-05T09:07:19.737Z</time>
      </trkpt>
      <trkpt lat="48.64608" lon="5.93444">
        <ele>163.37</ele>
        <time>2026-08-05T09:07:25.744Z</time>
      </trkpt>
      <trkpt lat="48.64614" lon="5.93418">
        <ele>163.21</ele>
        <time>2026-08-05T09:07:31.736Z</time>
      </trkpt>
      <trkpt lat="48.64619" lon="5.93389">
        <ele>161.44</ele>
        <time>2026-08-05T09:07:37.738Z</time>
      </trkpt>
      <trkpt lat="48.64627" lon="5.93359">
        <ele>160.2</ele>
        <time>2026-08-05T09:07:43.737Z</time>
      </trkpt>
      <trkpt lat="48.64638" lon="5.93337">
        <ele>159.02</ele>
        <time>2026-08-05T09:07:49.739Z</time>
      </trkpt>
      <trkpt lat="48.64644" lon="5.93315">
        <ele>160.08</ele>
        <time>2026-08-05T09:07:55.747Z</time>
      </trkpt>
      <trkpt lat="48.64651" lon="5.93288">
        <ele>162.7</ele>
        <time>2026-08-05T09:08:01.741Z</time>
      </trkpt>
      <trkpt lat="48.64656" lon="5.9326">
        <ele>164.09</ele>
        <time>2026-08-05T09:08:07.745Z</time>
      </trkpt>
      <trkpt lat="48.64662" lon="5.93235">
        <ele>166.11</ele>
        <time>2026-08-05T09:08:13.741Z</time>
      </trkpt>
      <trkpt lat="48.64666" lon="5.93211">
        <ele>166.93</ele>
        <time>2026-08-05T09:08:19.741Z</time>
      </trkpt>
      <trkpt lat="48.64673" lon="5.93188">
        <ele>166.93</ele>
        <time>2026-08-05T09:08:25.730Z</time>
      </trkpt>
      <trkpt lat="48.64679" lon="5.93159">
        <ele>166.04</ele>
        <time>2026-08-05T09:08:31.739Z</time>
      </trkpt>
      <trkpt lat="48.64687" lon="5.93126">
        <ele>165.45</ele>
        <time>2026-08-05T09:08:37.742Z</time>
      </trkpt>
      <trkpt lat="48.64692" lon="5.93088">
        <ele>165.78</ele>
        <time>2026-08-05T09:08:43.738Z</time>
      </trkpt>
      <trkpt lat="48.64699" lon="5.9305">
        <ele>165.78</ele>
        <time>2026-08-05T09:08:49.741Z</time>
      </trkpt>
      <trkpt lat="48.64704" lon="5.93007">
        <ele>164.3</ele>
        <time>2026-08-05T09:08:55.743Z</time>
      </trkpt>
      <trkpt lat="48.64707" lon="5.92964">
        <ele>163.85</ele>
        <time>2026-08-05T09:09:01.743Z</time>
      </trkpt>
      <trkpt lat="48.64708" lon="5.92918">
        <ele>164.1</ele>
        <time>2026-08-05T09:09:07.740Z</time>
      </trkpt>
      <trkpt lat="48.6471" lon="5.92866">
        <ele>165.15</ele>
        <time>2026-08-05T09:09:13.739Z</time>
      </trkpt>
      <trkpt lat="48.64711" lon="5.92794">
        <ele>166.25</ele>
        <time>2026-08-05T09:09:19.740Z</time>
      </trkpt>
      <trkpt lat="48.64716" lon="5.9271">
        <ele>163.63</ele>
        <time>2026-08-05T09:09:25.747Z</time>
      </trkpt>
      <trkpt lat="48.64722" lon="5.92628">
        <ele>162.59</ele>
        <time>2026-08-05T09:09:31.738Z</time>
      </trkpt>
      <trkpt lat="48.64725" lon="5.92564">
        <ele>161.04</ele>
        <time>2026-08-05T09:09:37.738Z</time>
      </trkpt>
      <trkpt lat="48.64727" lon="5.92508">
        <ele>161.44</ele>
        <time>2026-08-05T09:09:43.740Z</time>
      </trkpt>
      <trkpt lat="48.64728" lon="5.92452">
        <ele>162.94</ele>
        <time>2026-08-05T09:09:49.740Z</time>
      </trkpt>
      <trkpt lat="48.64728" lon="5.92385">
        <ele>162.31</ele>
        <time>2026-08-05T09:09:55.744Z</time>
      </trkpt>
      <trkpt lat="48.64728" lon="5.9232">
        <ele>162.41</ele>
        <time>2026-08-05T09:10:01.740Z</time>
      </trkpt>
      <trkpt lat="48.64731" lon="5.92286">
        <ele>161.85</ele>
        <time>2026-08-05T09:10:07.741Z</time>
      </trkpt>
      <trkpt lat="48.64732" lon="5.92251">
        <ele>162.8</ele>
        <time>2026-08-05T09:10:13.739Z</time>
      </trkpt>
      <trkpt lat="48.64731" lon="5.9222">
        <ele>166.88</ele>
        <time>2026-08-05T09:10:19.732Z</time>
      </trkpt>
      <trkpt lat="48.64729" lon="5.92189">
        <ele>168.9</ele>
        <time>2026-08-05T09:10:25.746Z</time>
      </trkpt>
      <trkpt lat="48.64726" lon="5.92155">
        <ele>167.84</ele>
        <time>2026-08-05T09:10:31.737Z</time>
      </trkpt>
      <trkpt lat="48.64721" lon="5.92123">
        <ele>166.66</ele>
        <time>2026-08-05T09:10:37.736Z</time>
      </trkpt>
      <trkpt lat="48.64719" lon="5.92087">
        <ele>165.03</ele>
        <time>2026-08-05T09:10:43.738Z</time>
      </trkpt>
      <trkpt lat="48.64717" lon="5.92051">
        <ele>164.33</ele>
        <time>2026-08-05T09:10:49.736Z</time>
      </trkpt>
      <trkpt lat="48.64716" lon="5.92016">
        <ele>163.17</ele>
        <time>2026-08-05T09:10:55.721Z</time>
      </trkpt>
      <trkpt lat="48.64716" lon="5.91979">
        <ele>162.72</ele>
        <time>2026-08-05T09:11:01.737Z</time>
      </trkpt>
      <trkpt lat="48.64715" lon="5.9194">
        <ele>161.64</ele>
        <time>2026-08-05T09:11:07.740Z</time>
      </trkpt>
      <trkpt lat="48.64715" lon="5.91898">
        <ele>161.95</ele>
        <time>2026-08-05T09:11:13.731Z</time>
      </trkpt>
      <trkpt lat="48.64714" lon="5.91854">
        <ele>161.47</ele>
        <time>2026-08-05T09:11:19.735Z</time>
      </trkpt>
      <trkpt lat="48.64712" lon="5.91809">
        <ele>162.2</ele>
        <time>2026-08-05T09:11:25.747Z</time>
      </trkpt>
      <trkpt lat="48.64714" lon="5.91763">
        <ele>160.09</ele>
        <time>2026-08-05T09:11:31.740Z</time>
      </trkpt>
      <trkpt lat="48.64725" lon="5.91716">
        <ele>159.65</ele>
        <time>2026-08-05T09:11:37.739Z</time>
      </trkpt>
      <trkpt lat="48.64736" lon="5.91675">
        <ele>159.97</ele>
        <time>2026-08-05T09:11:43.741Z</time>
      </trkpt>
      <trkpt lat="48.64748" lon="5.91633">
        <ele>161.62</ele>
        <time>2026-08-05T09:11:49.741Z</time>
      </trkpt>
      <trkpt lat="48.64758" lon="5.91589">
        <ele>164.07</ele>
        <time>2026-08-05T09:11:55.782Z</time>
      </trkpt>
      <trkpt lat="48.64768" lon="5.9154">
        <ele>168.23</ele>
        <time>2026-08-05T09:12:01.761Z</time>
      </trkpt>
      <trkpt lat="48.64779" lon="5.91495">
        <ele>169.69</ele>
        <time>2026-08-05T09:12:07.733Z</time>
      </trkpt>
      <trkpt lat="48.64795" lon="5.91436">
        <ele>166.31</ele>
        <time>2026-08-05T09:12:13.734Z</time>
      </trkpt>
      <trkpt lat="48.6481" lon="5.91375">
        <ele>165.41</ele>
        <time>2026-08-05T09:12:19.735Z</time>
      </trkpt>
      <trkpt lat="48.64828" lon="5.91301">
        <ele>165.24</ele>
        <time>2026-08-05T09:12:25.745Z</time>
      </trkpt>
      <trkpt lat="48.6485" lon="5.91223">
        <ele>165.59</ele>
        <time>2026-08-05T09:12:31.739Z</time>
      </trkpt>
      <trkpt lat="48.64872" lon="5.91146">
        <ele>165.44</ele>
        <time>2026-08-05T09:12:37.740Z</time>
      </trkpt>
      <trkpt lat="48.64892" lon="5.91078">
        <ele>165.45</ele>
        <time>2026-08-05T09:12:43.742Z</time>
      </trkpt>
      <trkpt lat="48.64918" lon="5.91021">
        <ele>167.05</ele>
        <time>2026-08-05T09:12:49.739Z</time>
      </trkpt>
      <trkpt lat="48.64946" lon="5.90966">
        <ele>167.76</ele>
        <time>2026-08-05T09:12:55.746Z</time>
      </trkpt>
      <trkpt lat="48.64962" lon="5.90906">
        <ele>165.31</ele>
        <time>2026-08-05T09:13:01.737Z</time>
      </trkpt>
      <trkpt lat="48.64959" lon="5.9085">
        <ele>164.27</ele>
        <time>2026-08-05T09:13:07.738Z</time>
      </trkpt>
      <trkpt lat="48.64949" lon="5.90811">
        <ele>163.07</ele>
        <time>2026-08-05T09:13:13.738Z</time>
      </trkpt>
      <trkpt lat="48.64937" lon="5.90772">
        <ele>162.42</ele>
        <time>2026-08-05T09:13:19.738Z</time>
      </trkpt>
      <trkpt lat="48.64943" lon="5.90721">
        <ele>161.24</ele>
        <time>2026-08-05T09:13:25.746Z</time>
      </trkpt>
      <trkpt lat="48.64961" lon="5.90666">
        <ele>159.91</ele>
        <time>2026-08-05T09:13:31.738Z</time>
      </trkpt>
      <trkpt lat="48.64985" lon="5.90616">
        <ele>159.04</ele>
        <time>2026-08-05T09:13:37.738Z</time>
      </trkpt>
      <trkpt lat="48.65021" lon="5.90591">
        <ele>157.18</ele>
        <time>2026-08-05T09:13:43.735Z</time>
      </trkpt>
      <trkpt lat="48.65053" lon="5.90568">
        <ele>157.36</ele>
        <time>2026-08-05T09:13:49.739Z</time>
      </trkpt>
      <trkpt lat="48.65081" lon="5.90551">
        <ele>156.63</ele>
        <time>2026-08-05T09:13:55.748Z</time>
      </trkpt>
      <trkpt lat="48.65104" lon="5.90562">
        <ele>157.84</ele>
        <time>2026-08-05T09:14:01.737Z</time>
      </trkpt>
      <trkpt lat="48.65113" lon="5.90608">
        <ele>157.7</ele>
        <time>2026-08-05T09:14:07.735Z</time>
      </trkpt>
      <trkpt lat="48.65124" lon="5.90649">
        <ele>160.13</ele>
        <time>2026-08-05T09:14:13.741Z</time>
      </trkpt>
      <trkpt lat="48.65144" lon="5.90652">
        <ele>163.54</ele>
        <time>2026-08-05T09:14:19.739Z</time>
      </trkpt>
      <trkpt lat="48.65163" lon="5.90631">
        <ele>163.82</ele>
        <time>2026-08-05T09:14:25.745Z</time>
      </trkpt>
      <trkpt lat="48.6518" lon="5.9061">
        <ele>164.93</ele>
        <time>2026-08-05T09:14:31.744Z</time>
      </trkpt>
      <trkpt lat="48.65198" lon="5.90593">
        <ele>165.54</ele>
        <time>2026-08-05T09:14:37.741Z</time>
      </trkpt>
      <trkpt lat="48.65216" lon="5.90575">
        <ele>165.66</ele>
        <time>2026-08-05T09:14:43.731Z</time>
      </trkpt>
      <trkpt lat="48.65216" lon="5.90537">
        <ele>163.48</ele>
        <time>2026-08-05T09:14:49.730Z</time>
      </trkpt>
      <trkpt lat="48.65193" lon="5.90478">
        <ele>161.08</ele>
        <time>2026-08-05T09:14:55.745Z</time>
      </trkpt>
      <trkpt lat="48.65179" lon="5.90427">
        <ele>158.98</ele>
        <time>2026-08-05T09:15:01.734Z</time>
      </trkpt>
      <trkpt lat="48.65169" lon="5.90376">
        <ele>159.44</ele>
        <time>2026-08-05T09:15:07.736Z</time>
      </trkpt>
      <trkpt lat="48.65153" lon="5.90325">
        <ele>158.1</ele>
        <time>2026-08-05T09:15:13.735Z</time>
      </trkpt>
      <trkpt lat="48.65135" lon="5.90283">
        <ele>156.95</ele>
        <time>2026-08-05T09:15:19.737Z</time>
      </trkpt>
      <trkpt lat="48.65141" lon="5.90256">
        <ele>155.25</ele>
        <time>2026-08-05T09:15:25.736Z</time>
      </trkpt>
      <trkpt lat="48.65159" lon="5.90245">
        <ele>154.78</ele>
        <time>2026-08-05T09:15:31.736Z</time>
      </trkpt>
      <trkpt lat="48.65176" lon="5.90237">
        <ele>154.05</ele>
        <time>2026-08-05T09:15:37.732Z</time>
      </trkpt>
      <trkpt lat="48.65198" lon="5.90218">
        <ele>158.35</ele>
        <time>2026-08-05T09:15:43.736Z</time>
      </trkpt>
      <trkpt lat="48.65224" lon="5.90202">
        <ele>160.84</ele>
        <time>2026-08-05T09:15:49.740Z</time>
      </trkpt>
      <trkpt lat="48.6525" lon="5.90189">
        <ele>160.88</ele>
        <time>2026-08-05T09:15:55.733Z</time>
      </trkpt>
      <trkpt lat="48.65274" lon="5.90177">
        <ele>159.18</ele>
        <time>2026-08-05T09:16:01.736Z</time>
      </trkpt>
      <trkpt lat="48.65299" lon="5.9017">
        <ele>157.05</ele>
        <time>2026-08-05T09:16:07.737Z</time>
      </trkpt>
      <trkpt lat="48.65326" lon="5.90167">
        <ele>154.25</ele>
        <time>2026-08-05T09:16:13.740Z</time>
      </trkpt>
      <trkpt lat="48.65358" lon="5.90162">
        <ele>154.6</ele>
        <time>2026-08-05T09:16:19.733Z</time>
      </trkpt>
      <trkpt lat="48.65388" lon="5.90159">
        <ele>154.57</ele>
        <time>2026-08-05T09:16:25.743Z</time>
      </trkpt>
      <trkpt lat="48.65418" lon="5.90159">
        <ele>155.9</ele>
        <time>2026-08-05T09:16:31.739Z</time>
      </trkpt>
      <trkpt lat="48.65447" lon="5.9016">
        <ele>157.18</ele>
        <time>2026-08-05T09:16:37.736Z</time>
      </trkpt>
      <trkpt lat="48.65473" lon="5.90155">
        <ele>159.18</ele>
        <time>2026-08-05T09:16:43.741Z</time>
      </trkpt>
      <trkpt lat="48.65483" lon="5.90124">
        <ele>161.04</ele>
        <time>2026-08-05T09:16:49.740Z</time>
      </trkpt>
      <trkpt lat="48.65488" lon="5.90085">
        <ele>159.62</ele>
        <time>2026-08-05T09:16:55.743Z</time>
      </trkpt>
      <trkpt lat="48.65491" lon="5.90048">
        <ele>158.92</ele>
        <time>2026-08-05T09:17:01.747Z</time>
      </trkpt>
      <trkpt lat="48.65502" lon="5.90018">
        <ele>159.46</ele>
        <time>2026-08-05T09:17:07.738Z</time>
      </trkpt>
      <trkpt lat="48.65519" lon="5.89995">
        <ele>159.16</ele>
        <time>2026-08-05T09:17:13.735Z</time>
      </trkpt>
      <trkpt lat="48.65535" lon="5.89989">
        <ele>157.68</ele>
        <time>2026-08-05T09:17:19.738Z</time>
      </trkpt>
      <trkpt lat="48.65555" lon="5.89997">
        <ele>156.53</ele>
        <time>2026-08-05T09:17:25.747Z</time>
      </trkpt>
      <trkpt lat="48.65578" lon="5.90008">
        <ele>154.69</ele>
        <time>2026-08-05T09:17:31.743Z</time>
      </trkpt>
      <trkpt lat="48.656" lon="5.90021">
        <ele>156.37</ele>
        <time>2026-08-05T09:17:37.739Z</time>
      </trkpt>
      <trkpt lat="48.65617" lon="5.90036">
        <ele>155.61</ele>
        <time>2026-08-05T09:17:43.736Z</time>
      </trkpt>
      <trkpt lat="48.65636" lon="5.90034">
        <ele>157.34</ele>
        <time>2026-08-05T09:17:49.743Z</time>
      </trkpt>
      <trkpt lat="48.6566" lon="5.90037">
        <ele>157.99</ele>
        <time>2026-08-05T09:17:55.744Z</time>
      </trkpt>
      <trkpt lat="48.65685" lon="5.90058">
        <ele>156.91</ele>
        <time>2026-08-05T09:18:01.743Z</time>
      </trkpt>
      <trkpt lat="48.6569" lon="5.901">
        <ele>157.16</ele>
        <time>2026-08-05T09:18:07.740Z</time>
      </trkpt>
      <trkpt lat="48.65709" lon="5.90131">
        <ele>158.63</ele>
        <time>2026-08-05T09:18:13.736Z</time>
      </trkpt>
      <trkpt lat="48.65734" lon="5.9015">
        <ele>158.61</ele>
        <time>2026-08-05T09:18:19.738Z</time>
      </trkpt>
      <trkpt lat="48.65769" lon="5.90168">
        <ele>158.24</ele>
        <time>2026-08-05T09:18:25.741Z</time>
      </trkpt>
      <trkpt lat="48.65808" lon="5.90174">
        <ele>156.81</ele>
        <time>2026-08-05T09:18:31.743Z</time>
      </trkpt>
      <trkpt lat="48.65843" lon="5.9018">
        <ele>157.63</ele>
        <time>2026-08-05T09:18:37.734Z</time>
      </trkpt>
      <trkpt lat="48.65867" lon="5.90183">
        <ele>158.42</ele>
        <time>2026-08-05T09:18:43.733Z</time>
      </trkpt>
      <trkpt lat="48.65882" lon="5.90184">
        <ele>160.39</ele>
        <time>2026-08-05T09:18:49.737Z</time>
      </trkpt>
      <trkpt lat="48.65891" lon="5.90187">
        <ele>162</ele>
        <time>2026-08-05T09:18:55.742Z</time>
      </trkpt>
      <trkpt lat="48.65912" lon="5.90185">
        <ele>160.89</ele>
        <time>2026-08-05T09:19:01.744Z</time>
      </trkpt>
      <trkpt lat="48.65946" lon="5.90179">
        <ele>158.93</ele>
        <time>2026-08-05T09:19:07.749Z</time>
      </trkpt>
      <trkpt lat="48.65976" lon="5.90184">
        <ele>156.86</ele>
        <time>2026-08-05T09:19:13.722Z</time>
      </trkpt>
      <trkpt lat="48.65986" lon="5.9018">
        <ele>155.76</ele>
        <time>2026-08-05T09:19:32.727Z</time>
      </trkpt>
      <trkpt lat="48.65975" lon="5.90178">
        <ele>157.2</ele>
        <time>2026-08-05T09:20:05.685Z</time>
      </trkpt>
      <trkpt lat="48.65955" lon="5.90177">
        <ele>154.64</ele>
        <time>2026-08-05T09:20:11.682Z</time>
      </trkpt>
      <trkpt lat="48.65939" lon="5.90177">
        <ele>155.38</ele>
        <time>2026-08-05T09:20:17.675Z</time>
      </trkpt>
      <trkpt lat="48.65923" lon="5.90186">
        <ele>155.94</ele>
        <time>2026-08-05T09:20:22.680Z</time>
      </trkpt>
      <trkpt lat="48.65904" lon="5.90191">
        <ele>213.15</ele>
        <time>2026-08-05T09:20:28.679Z</time>
      </trkpt>
      <trkpt lat="48.65894" lon="5.90188">
        <ele>213.21</ele>
        <time>2026-08-05T09:20:33.686Z</time>
      </trkpt>
      <trkpt lat="48.65891" lon="5.90167">
        <ele>213.21</ele>
        <time>2026-08-05T09:20:39.667Z</time>
      </trkpt>
      <trkpt lat="48.65894" lon="5.90144">
        <ele>213.21</ele>
        <time>2026-08-05T09:20:44.668Z</time>
      </trkpt>
      <trkpt lat="48.65897" lon="5.90116">
        <ele>213.21</ele>
        <time>2026-08-05T09:20:49.724Z</time>
      </trkpt>
      <trkpt lat="48.659" lon="5.90079">
        <ele>213.21</ele>
        <time>2026-08-05T09:20:55.712Z</time>
      </trkpt>
      <trkpt lat="48.65903" lon="5.90042">
        <ele>213.21</ele>
        <time>2026-08-05T09:21:01.727Z</time>
      </trkpt>
      <trkpt lat="48.65906" lon="5.90003">
        <ele>213.21</ele>
        <time>2026-08-05T09:21:07.725Z</time>
      </trkpt>
      <trkpt lat="48.65911" lon="5.89961">
        <ele>213.21</ele>
        <time>2026-08-05T09:21:13.721Z</time>
      </trkpt>
      <trkpt lat="48.65908" lon="5.8992">
        <ele>213.21</ele>
        <time>2026-08-05T09:21:19.731Z</time>
      </trkpt>
      <trkpt lat="48.65896" lon="5.89897">
        <ele>213.21</ele>
        <time>2026-08-05T09:21:25.736Z</time>
      </trkpt>
      <trkpt lat="48.65883" lon="5.89879">
        <ele>213.21</ele>
        <time>2026-08-05T09:21:31.762Z</time>
      </trkpt>
      <trkpt lat="48.65887" lon="5.89896">
        <ele>213.21</ele>
        <time>2026-08-05T09:21:39.695Z</time>
      </trkpt>
      <trkpt lat="48.65902" lon="5.89898">
        <ele>213.21</ele>
        <time>2026-08-05T09:21:44.709Z</time>
      </trkpt>
      <trkpt lat="48.65911" lon="5.89872">
        <ele>213.21</ele>
        <time>2026-08-05T09:21:49.780Z</time>
      </trkpt>
      <trkpt lat="48.65898" lon="5.89828">
        <ele>213.21</ele>
        <time>2026-08-05T09:21:55.762Z</time>
      </trkpt>
      <trkpt lat="48.65883" lon="5.89786">
        <ele>213.21</ele>
        <time>2026-08-05T09:22:01.754Z</time>
      </trkpt>
      <trkpt lat="48.65868" lon="5.89755">
        <ele>213.21</ele>
        <time>2026-08-05T09:22:07.755Z</time>
      </trkpt>
      <trkpt lat="48.65853" lon="5.89728">
        <ele>213.21</ele>
        <time>2026-08-05T09:22:13.768Z</time>
      </trkpt>
      <trkpt lat="48.65861" lon="5.89702">
        <ele>213.21</ele>
        <time>2026-08-05T09:22:19.743Z</time>
      </trkpt>
      <trkpt lat="48.65883" lon="5.89696">
        <ele>213.21</ele>
        <time>2026-08-05T09:22:25.749Z</time>
      </trkpt>
      <trkpt lat="48.65905" lon="5.89692">
        <ele>161.72</ele>
        <time>2026-08-05T09:22:31.763Z</time>
      </trkpt>
      <trkpt lat="48.65931" lon="5.89682">
        <ele>159.91</ele>
        <time>2026-08-05T09:22:37.757Z</time>
      </trkpt>
      <trkpt lat="48.65956" lon="5.89672">
        <ele>159.79</ele>
        <time>2026-08-05T09:22:43.743Z</time>
      </trkpt>
      <trkpt lat="48.65982" lon="5.89654">
        <ele>159.92</ele>
        <time>2026-08-05T09:22:49.749Z</time>
      </trkpt>
      <trkpt lat="48.66008" lon="5.8964">
        <ele>161.12</ele>
        <time>2026-08-05T09:22:55.779Z</time>
      </trkpt>
      <trkpt lat="48.66032" lon="5.89618">
        <ele>159.09</ele>
        <time>2026-08-05T09:23:01.739Z</time>
      </trkpt>
      <trkpt lat="48.66062" lon="5.89591">
        <ele>158.47</ele>
        <time>2026-08-05T09:23:07.736Z</time>
      </trkpt>
      <trkpt lat="48.6609" lon="5.89563">
        <ele>159.7</ele>
        <time>2026-08-05T09:23:13.741Z</time>
      </trkpt>
      <trkpt lat="48.66118" lon="5.89538">
        <ele>161.51</ele>
        <time>2026-08-05T09:23:19.738Z</time>
      </trkpt>
      <trkpt lat="48.66144" lon="5.89512">
        <ele>161.29</ele>
        <time>2026-08-05T09:23:25.716Z</time>
      </trkpt>
      <trkpt lat="48.66171" lon="5.89486">
        <ele>160.97</ele>
        <time>2026-08-05T09:23:31.740Z</time>
      </trkpt>
      <trkpt lat="48.66196" lon="5.89461">
        <ele>161.16</ele>
        <time>2026-08-05T09:23:37.734Z</time>
      </trkpt>
      <trkpt lat="48.66221" lon="5.89436">
        <ele>160.65</ele>
        <time>2026-08-05T09:23:43.736Z</time>
      </trkpt>
      <trkpt lat="48.66247" lon="5.89411">
        <ele>160.05</ele>
        <time>2026-08-05T09:23:49.740Z</time>
      </trkpt>
      <trkpt lat="48.66273" lon="5.89387">
        <ele>160.45</ele>
        <time>2026-08-05T09:23:55.746Z</time>
      </trkpt>
      <trkpt lat="48.663" lon="5.89361">
        <ele>159.91</ele>
        <time>2026-08-05T09:24:01.741Z</time>
      </trkpt>
      <trkpt lat="48.66327" lon="5.89335">
        <ele>158.14</ele>
        <time>2026-08-05T09:24:07.742Z</time>
      </trkpt>
      <trkpt lat="48.66353" lon="5.89309">
        <ele>158</ele>
        <time>2026-08-05T09:24:13.747Z</time>
      </trkpt>
      <trkpt lat="48.66378" lon="5.89286">
        <ele>157.26</ele>
        <time>2026-08-05T09:24:19.744Z</time>
      </trkpt>
      <trkpt lat="48.66405" lon="5.89264">
        <ele>156.98</ele>
        <time>2026-08-05T09:24:25.744Z</time>
      </trkpt>
      <trkpt lat="48.66433" lon="5.89245">
        <ele>156.3</ele>
        <time>2026-08-05T09:24:31.742Z</time>
      </trkpt>
      <trkpt lat="48.66462" lon="5.89229">
        <ele>155.02</ele>
        <time>2026-08-05T09:24:37.748Z</time>
      </trkpt>
      <trkpt lat="48.66492" lon="5.89218">
        <ele>155.24</ele>
        <time>2026-08-05T09:24:43.753Z</time>
      </trkpt>
      <trkpt lat="48.66523" lon="5.89207">
        <ele>154.63</ele>
        <time>2026-08-05T09:24:49.753Z</time>
      </trkpt>
      <trkpt lat="48.66555" lon="5.89203">
        <ele>153.41</ele>
        <time>2026-08-05T09:24:55.746Z</time>
      </trkpt>
      <trkpt lat="48.66585" lon="5.89206">
        <ele>153.19</ele>
        <time>2026-08-05T09:25:01.742Z</time>
      </trkpt>
      <trkpt lat="48.66616" lon="5.89213">
        <ele>154.09</ele>
        <time>2026-08-05T09:25:07.745Z</time>
      </trkpt>
      <trkpt lat="48.66648" lon="5.89222">
        <ele>154.94</ele>
        <time>2026-08-05T09:25:13.749Z</time>
      </trkpt>
      <trkpt lat="48.66679" lon="5.89235">
        <ele>155.88</ele>
        <time>2026-08-05T09:25:19.745Z</time>
      </trkpt>
      <trkpt lat="48.66709" lon="5.89253">
        <ele>155.88</ele>
        <time>2026-08-05T09:25:25.745Z</time>
      </trkpt>
      <trkpt lat="48.66738" lon="5.8927">
        <ele>156.74</ele>
        <time>2026-08-05T09:25:31.746Z</time>
      </trkpt>
      <trkpt lat="48.66767" lon="5.89291">
        <ele>157.98</ele>
        <time>2026-08-05T09:25:37.744Z</time>
      </trkpt>
      <trkpt lat="48.66795" lon="5.89313">
        <ele>157.89</ele>
        <time>2026-08-05T09:25:43.744Z</time>
      </trkpt>
      <trkpt lat="48.66821" lon="5.89336">
        <ele>157.11</ele>
        <time>2026-08-05T09:25:49.751Z</time>
      </trkpt>
      <trkpt lat="48.66847" lon="5.89361">
        <ele>157.53</ele>
        <time>2026-08-05T09:25:55.748Z</time>
      </trkpt>
      <trkpt lat="48.66872" lon="5.89384">
        <ele>157.61</ele>
        <time>2026-08-05T09:26:01.749Z</time>
      </trkpt>
      <trkpt lat="48.66899" lon="5.89409">
        <ele>157.42</ele>
        <time>2026-08-05T09:26:07.746Z</time>
      </trkpt>
      <trkpt lat="48.66928" lon="5.89431">
        <ele>156.35</ele>
        <time>2026-08-05T09:26:13.751Z</time>
      </trkpt>
      <trkpt lat="48.66964" lon="5.89453">
        <ele>155.07</ele>
        <time>2026-08-05T09:26:19.745Z</time>
      </trkpt>
      <trkpt lat="48.66994" lon="5.89489">
        <ele>155.74</ele>
        <time>2026-08-05T09:26:25.748Z</time>
      </trkpt>
      <trkpt lat="48.67023" lon="5.89516">
        <ele>155.28</ele>
        <time>2026-08-05T09:26:31.747Z</time>
      </trkpt>
      <trkpt lat="48.67049" lon="5.89536">
        <ele>155.73</ele>
        <time>2026-08-05T09:26:37.749Z</time>
      </trkpt>
      <trkpt lat="48.67078" lon="5.89549">
        <ele>157.42</ele>
        <time>2026-08-05T09:26:43.750Z</time>
      </trkpt>
      <trkpt lat="48.67107" lon="5.89569">
        <ele>157.94</ele>
        <time>2026-08-05T09:26:49.746Z</time>
      </trkpt>
      <trkpt lat="48.67127" lon="5.89586">
        <ele>158.98</ele>
        <time>2026-08-05T09:26:55.749Z</time>
      </trkpt>
      <trkpt lat="48.67144" lon="5.89598">
        <ele>159.91</ele>
        <time>2026-08-05T09:27:01.748Z</time>
      </trkpt>
      <trkpt lat="48.67156" lon="5.89591">
        <ele>159.81</ele>
        <time>2026-08-05T09:27:07.749Z</time>
      </trkpt>
      <trkpt lat="48.67158" lon="5.8955">
        <ele>161.68</ele>
        <time>2026-08-05T09:27:13.745Z</time>
      </trkpt>
      <trkpt lat="48.67159" lon="5.8951">
        <ele>162.05</ele>
        <time>2026-08-05T09:27:19.745Z</time>
      </trkpt>
      <trkpt lat="48.6716" lon="5.8947">
        <ele>162.15</ele>
        <time>2026-08-05T09:27:25.747Z</time>
      </trkpt>
      <trkpt lat="48.67163" lon="5.89424">
        <ele>160.48</ele>
        <time>2026-08-05T09:27:31.747Z</time>
      </trkpt>
      <trkpt lat="48.67175" lon="5.8938">
        <ele>158.61</ele>
        <time>2026-08-05T09:27:37.747Z</time>
      </trkpt>
      <trkpt lat="48.67192" lon="5.89352">
        <ele>157.7</ele>
        <time>2026-08-05T09:27:42.753Z</time>
      </trkpt>
      <trkpt lat="48.67211" lon="5.89318">
        <ele>158.61</ele>
        <time>2026-08-05T09:27:48.703Z</time>
      </trkpt>
      <trkpt lat="48.67224" lon="5.89287">
        <ele>158.36</ele>
        <time>2026-08-05T09:27:54.682Z</time>
      </trkpt>
      <trkpt lat="48.67238" lon="5.89276">
        <ele>155.42</ele>
        <time>2026-08-05T09:27:59.683Z</time>
      </trkpt>
      <trkpt lat="48.67246" lon="5.89259">
        <ele>153.27</ele>
        <time>2026-08-05T09:28:05.696Z</time>
      </trkpt>
      <trkpt lat="48.67254" lon="5.8925">
        <ele>209.63</ele>
        <time>2026-08-05T09:28:15.496Z</time>
      </trkpt>
      <trkpt lat="48.67274" lon="5.89268">
        <ele>209.63</ele>
        <time>2026-08-05T09:28:20.691Z</time>
      </trkpt>
      <trkpt lat="48.67293" lon="5.893">
        <ele>209.63</ele>
        <time>2026-08-05T09:28:25.764Z</time>
      </trkpt>
      <trkpt lat="48.67313" lon="5.89331">
        <ele>209.33</ele>
        <time>2026-08-05T09:28:31.759Z</time>
      </trkpt>
      <trkpt lat="48.67325" lon="5.89347">
        <ele>209.23</ele>
        <time>2026-08-05T09:28:37.761Z</time>
      </trkpt>
      <trkpt lat="48.67338" lon="5.89365">
        <ele>209.23</ele>
        <time>2026-08-05T09:28:43.755Z</time>
      </trkpt>
      <trkpt lat="48.6733" lon="5.89355">
        <ele>209.33</ele>
        <time>2026-08-05T09:28:56.701Z</time>
      </trkpt>
      <trkpt lat="48.67323" lon="5.89346">
        <ele>209.33</ele>
        <time>2026-08-05T09:29:03.676Z</time>
      </trkpt>
      <trkpt lat="48.67314" lon="5.8934">
        <ele>209.23</ele>
        <time>2026-08-05T09:29:30.747Z</time>
      </trkpt>
      <trkpt lat="48.67321" lon="5.89349">
        <ele>209.23</ele>
        <time>2026-08-05T09:29:46.682Z</time>
      </trkpt>
      <trkpt lat="48.67335" lon="5.89357">
        <ele>209.23</ele>
        <time>2026-08-05T09:30:16.684Z</time>
      </trkpt>
      <trkpt lat="48.67352" lon="5.89378">
        <ele>209.23</ele>
        <time>2026-08-05T09:30:21.699Z</time>
      </trkpt>
      <trkpt lat="48.67371" lon="5.89396">
        <ele>209.23</ele>
        <time>2026-08-05T09:30:27.689Z</time>
      </trkpt>
      <trkpt lat="48.67383" lon="5.89398">
        <ele>209.23</ele>
        <time>2026-08-05T09:30:32.721Z</time>
      </trkpt>
      <trkpt lat="48.67385" lon="5.89372">
        <ele>209.23</ele>
        <time>2026-08-05T09:30:37.752Z</time>
      </trkpt>
      <trkpt lat="48.67391" lon="5.89343">
        <ele>209.23</ele>
        <time>2026-08-05T09:30:43.749Z</time>
      </trkpt>
      <trkpt lat="48.67405" lon="5.89358">
        <ele>210.17</ele>
        <time>2026-08-05T09:30:49.753Z</time>
      </trkpt>
      <trkpt lat="48.67417" lon="5.8937">
        <ele>210.23</ele>
        <time>2026-08-05T09:30:55.785Z</time>
      </trkpt>
      <trkpt lat="48.67437" lon="5.89375">
        <ele>210.23</ele>
        <time>2026-08-05T09:31:01.749Z</time>
      </trkpt>
      <trkpt lat="48.67445" lon="5.89381">
        <ele>210.23</ele>
        <time>2026-08-05T09:31:07.777Z</time>
      </trkpt>
      <trkpt lat="48.67459" lon="5.89368">
        <ele>210.73</ele>
        <time>2026-08-05T09:31:13.750Z</time>
      </trkpt>
      <trkpt lat="48.67471" lon="5.89353">
        <ele>210.73</ele>
        <time>2026-08-05T09:31:19.759Z</time>
      </trkpt>
      <trkpt lat="48.67488" lon="5.89335">
        <ele>211.03</ele>
        <time>2026-08-05T09:31:25.762Z</time>
      </trkpt>
      <trkpt lat="48.67506" lon="5.89335">
        <ele>211.03</ele>
        <time>2026-08-05T09:31:31.744Z</time>
      </trkpt>
      <trkpt lat="48.67523" lon="5.8935">
        <ele>211.03</ele>
        <time>2026-08-05T09:31:37.754Z</time>
      </trkpt>
      <trkpt lat="48.67544" lon="5.89361">
        <ele>211.6</ele>
        <time>2026-08-05T09:31:43.758Z</time>
      </trkpt>
      <trkpt lat="48.67545" lon="5.89375">
        <ele>211.63</ele>
        <time>2026-08-05T09:31:49.769Z</time>
      </trkpt>
      <trkpt lat="48.67557" lon="5.8937">
        <ele>211.73</ele>
        <time>2026-08-05T09:32:20.712Z</time>
      </trkpt>
      <trkpt lat="48.67568" lon="5.89361">
        <ele>211.73</ele>
        <time>2026-08-05T09:32:25.758Z</time>
      </trkpt>
      <trkpt lat="48.67568" lon="5.89375">
        <ele>211.83</ele>
        <time>2026-08-05T09:32:50.679Z</time>
      </trkpt>
      <trkpt lat="48.67578" lon="5.89375">
        <ele>211.83</ele>
        <time>2026-08-05T09:32:57.677Z</time>
      </trkpt>
      <trkpt lat="48.67584" lon="5.89386">
        <ele>211.83</ele>
        <time>2026-08-05T09:33:29.540Z</time>
      </trkpt>
      <trkpt lat="48.67593" lon="5.89384">
        <ele>212.21</ele>
        <time>2026-08-05T09:33:45.370Z</time>
      </trkpt>
      <trkpt lat="48.6759" lon="5.8937">
        <ele>212.33</ele>
        <time>2026-08-05T09:33:54.680Z</time>
      </trkpt>
      <trkpt lat="48.67591" lon="5.89388">
        <ele>212.33</ele>
        <time>2026-08-05T09:34:01.745Z</time>
      </trkpt>
      <trkpt lat="48.67589" lon="5.89343">
        <ele>212.33</ele>
        <time>2026-08-05T09:34:07.181Z</time>
      </trkpt>
      <trkpt lat="48.67566" lon="5.89407">
        <ele>212.15</ele>
        <time>2026-08-05T09:34:23.666Z</time>
      </trkpt>
      <trkpt lat="48.67546" lon="5.89431">
        <ele>212.13</ele>
        <time>2026-08-05T09:34:28.684Z</time>
      </trkpt>
      <trkpt lat="48.67537" lon="5.89439">
        <ele>212.13</ele>
        <time>2026-08-05T09:34:38.671Z</time>
      </trkpt>
      <trkpt lat="48.6753" lon="5.89449">
        <ele>211.85</ele>
        <time>2026-08-05T09:34:45.289Z</time>
      </trkpt>
      <trkpt lat="48.67519" lon="5.89436">
        <ele>212.13</ele>
        <time>2026-08-05T09:35:05.428Z</time>
      </trkpt>
      <trkpt lat="48.67504" lon="5.8941">
        <ele>211.85</ele>
        <time>2026-08-05T09:35:15.844Z</time>
      </trkpt>
      <trkpt lat="48.67477" lon="5.89509">
        <ele>212.13</ele>
        <time>2026-08-05T09:35:25.747Z</time>
      </trkpt>
      <trkpt lat="48.6744" lon="5.89589">
        <ele>212.13</ele>
        <time>2026-08-05T09:35:31.779Z</time>
      </trkpt>
      <trkpt lat="48.67427" lon="5.89581">
        <ele>211.83</ele>
        <time>2026-08-05T09:35:37.766Z</time>
      </trkpt>
      <trkpt lat="48.67528" lon="5.89484">
        <ele>212.13</ele>
        <time>2026-08-05T09:36:08.514Z</time>
      </trkpt>
      <trkpt lat="48.6756" lon="5.89412">
        <ele>211.83</ele>
        <time>2026-08-05T09:37:27.887Z</time>
      </trkpt>
      <trkpt lat="48.67531" lon="5.89487">
        <ele>211.83</ele>
        <time>2026-08-05T09:37:33.676Z</time>
      </trkpt>
      <trkpt lat="48.67502" lon="5.89432">
        <ele>211.83</ele>
        <time>2026-08-05T09:37:39.676Z</time>
      </trkpt>
      <trkpt lat="48.67508" lon="5.89422">
        <ele>212.13</ele>
        <time>2026-08-05T09:38:03.128Z</time>
      </trkpt>
      <trkpt lat="48.67492" lon="5.89429">
        <ele>212.13</ele>
        <time>2026-08-05T09:38:08.455Z</time>
      </trkpt>
      <trkpt lat="48.67499" lon="5.89452">
        <ele>212.13</ele>
        <time>2026-08-05T09:38:15.743Z</time>
      </trkpt>
      <trkpt lat="48.67519" lon="5.89436">
        <ele>212.13</ele>
        <time>2026-08-05T09:38:21.696Z</time>
      </trkpt>
      <trkpt lat="48.67521" lon="5.8942">
        <ele>212.13</ele>
        <time>2026-08-05T09:38:26.699Z</time>
      </trkpt>
      <trkpt lat="48.6756" lon="5.89388">
        <ele>212.33</ele>
        <time>2026-08-05T09:39:34.393Z</time>
      </trkpt>
      <trkpt lat="48.6755" lon="5.89392">
        <ele>211.63</ele>
        <time>2026-08-05T09:39:39.710Z</time>
      </trkpt>
      <trkpt lat="48.67548" lon="5.89378">
        <ele>211.83</ele>
        <time>2026-08-05T09:39:52.715Z</time>
      </trkpt>
      <trkpt lat="48.67544" lon="5.8939">
        <ele>212.02</ele>
        <time>2026-08-05T09:41:12.714Z</time>
      </trkpt>
      <trkpt lat="48.67545" lon="5.89377">
        <ele>212.05</ele>
        <time>2026-08-05T09:41:37.737Z</time>
      </trkpt>
      <trkpt lat="48.6754" lon="5.89364">
        <ele>212.26</ele>
        <time>2026-08-05T09:41:44.677Z</time>
      </trkpt>
      <trkpt lat="48.67549" lon="5.89363">
        <ele>211.83</ele>
        <time>2026-08-05T09:42:25.758Z</time>
      </trkpt>
      <trkpt lat="48.67548" lon="5.89348">
        <ele>211.73</ele>
        <time>2026-08-05T09:44:37.731Z</time>
      </trkpt>
      <trkpt lat="48.67546" lon="5.89362">
        <ele>211.83</ele>
        <time>2026-08-05T09:45:16.675Z</time>
      </trkpt>
      <trkpt lat="48.67545" lon="5.89376">
        <ele>211.83</ele>
        <time>2026-08-05T09:45:22.715Z</time>
      </trkpt>
      <trkpt lat="48.67545" lon="5.89362">
        <ele>211.63</ele>
        <time>2026-08-05T09:47:27.677Z</time>
      </trkpt>
      <trkpt lat="48.67546" lon="5.89376">
        <ele>212.03</ele>
        <time>2026-08-05T09:48:14.381Z</time>
      </trkpt>
      <trkpt lat="48.6755" lon="5.89389">
        <ele>212.33</ele>
        <time>2026-08-05T09:54:35.677Z</time>
      </trkpt>
      <trkpt lat="48.67547" lon="5.89376">
        <ele>211.83</ele>
        <time>2026-08-05T09:54:54.683Z</time>
      </trkpt>
      <trkpt lat="48.67555" lon="5.89384">
        <ele>211.83</ele>
        <time>2026-08-05T09:56:34.694Z</time>
      </trkpt>
      <trkpt lat="48.67565" lon="5.89391">
        <ele>211.63</ele>
        <time>2026-08-05T09:56:40.770Z</time>
      </trkpt>
      <trkpt lat="48.67577" lon="5.89382">
        <ele>211.63</ele>
        <time>2026-08-05T09:56:46.702Z</time>
      </trkpt>
      <trkpt lat="48.67589" lon="5.89377">
        <ele>212.33</ele>
        <time>2026-08-05T09:56:52.693Z</time>
      </trkpt>
      <trkpt lat="48.67605" lon="5.89358">
        <ele>212.33</ele>
        <time>2026-08-05T09:56:58.687Z</time>
      </trkpt>
      <trkpt lat="48.67616" lon="5.89338">
        <ele>212.14</ele>
        <time>2026-08-05T09:57:04.700Z</time>
      </trkpt>
      <trkpt lat="48.67622" lon="5.89309">
        <ele>212.14</ele>
        <time>2026-08-05T09:57:09.705Z</time>
      </trkpt>
      <trkpt lat="48.67625" lon="5.89274">
        <ele>211.54</ele>
        <time>2026-08-05T09:57:14.730Z</time>
      </trkpt>
      <trkpt lat="48.67631" lon="5.89264">
        <ele>211.54</ele>
        <time>2026-08-05T09:57:19.745Z</time>
      </trkpt>
      <trkpt lat="48.67645" lon="5.89259">
        <ele>210.74</ele>
        <time>2026-08-05T09:57:25.749Z</time>
      </trkpt>
      <trkpt lat="48.67635" lon="5.89249">
        <ele>210.74</ele>
        <time>2026-08-05T09:57:44.677Z</time>
      </trkpt>
      <trkpt lat="48.67619" lon="5.89235">
        <ele>210.92</ele>
        <time>2026-08-05T09:57:49.740Z</time>
      </trkpt>
      <trkpt lat="48.67614" lon="5.89223">
        <ele>210.94</ele>
        <time>2026-08-05T09:57:55.752Z</time>
      </trkpt>
      <trkpt lat="48.67603" lon="5.89213">
        <ele>210.94</ele>
        <time>2026-08-05T09:58:01.738Z</time>
      </trkpt>
      <trkpt lat="48.67589" lon="5.89206">
        <ele>210.94</ele>
        <time>2026-08-05T09:58:07.753Z</time>
      </trkpt>
      <trkpt lat="48.67571" lon="5.89192">
        <ele>211.44</ele>
        <time>2026-08-05T09:58:13.739Z</time>
      </trkpt>
      <trkpt lat="48.67562" lon="5.89182">
        <ele>211.9</ele>
        <time>2026-08-05T09:58:20.688Z</time>
      </trkpt>
      <trkpt lat="48.67554" lon="5.89176">
        <ele>211.94</ele>
        <time>2026-08-05T09:58:25.739Z</time>
      </trkpt>
      <trkpt lat="48.67538" lon="5.89163">
        <ele>212.13</ele>
        <time>2026-08-05T09:58:31.742Z</time>
      </trkpt>
      <trkpt lat="48.67526" lon="5.89153">
        <ele>212.13</ele>
        <time>2026-08-05T09:58:37.751Z</time>
      </trkpt>
      <trkpt lat="48.67516" lon="5.89133">
        <ele>212.13</ele>
        <time>2026-08-05T09:58:43.742Z</time>
      </trkpt>
      <trkpt lat="48.67498" lon="5.89128">
        <ele>212.13</ele>
        <time>2026-08-05T09:58:49.768Z</time>
      </trkpt>
      <trkpt lat="48.67486" lon="5.89126">
        <ele>212.13</ele>
        <time>2026-08-05T09:58:55.757Z</time>
      </trkpt>
      <trkpt lat="48.67477" lon="5.89121">
        <ele>211.83</ele>
        <time>2026-08-05T09:59:03.696Z</time>
      </trkpt>
      <trkpt lat="48.67467" lon="5.89112">
        <ele>211.83</ele>
        <time>2026-08-05T09:59:08.699Z</time>
      </trkpt>
      <trkpt lat="48.67454" lon="5.891">
        <ele>211.83</ele>
        <time>2026-08-05T09:59:13.756Z</time>
      </trkpt>
      <trkpt lat="48.67431" lon="5.89082">
        <ele>211.53</ele>
        <time>2026-08-05T09:59:19.750Z</time>
      </trkpt>
      <trkpt lat="48.67417" lon="5.8907">
        <ele>211.43</ele>
        <time>2026-08-05T09:59:25.753Z</time>
      </trkpt>
      <trkpt lat="48.67403" lon="5.89056">
        <ele>211.43</ele>
        <time>2026-08-05T09:59:31.758Z</time>
      </trkpt>
      <trkpt lat="48.67388" lon="5.89046">
        <ele>211.43</ele>
        <time>2026-08-05T09:59:37.701Z</time>
      </trkpt>
      <trkpt lat="48.67386" lon="5.89022">
        <ele>211.13</ele>
        <time>2026-08-05T09:59:43.701Z</time>
      </trkpt>
      <trkpt lat="48.67384" lon="5.89007">
        <ele>211.13</ele>
        <time>2026-08-05T09:59:49.711Z</time>
      </trkpt>
      <trkpt lat="48.67379" lon="5.88996">
        <ele>211.23</ele>
        <time>2026-08-05T10:00:08.675Z</time>
      </trkpt>
      <trkpt lat="48.67374" lon="5.88984">
        <ele>211.77</ele>
        <time>2026-08-05T10:00:21.678Z</time>
      </trkpt>
      <trkpt lat="48.67359" lon="5.88977">
        <ele>211.73</ele>
        <time>2026-08-05T10:00:27.673Z</time>
      </trkpt>
      <trkpt lat="48.67351" lon="5.88997">
        <ele>211.14</ele>
        <time>2026-08-05T10:00:39.674Z</time>
      </trkpt>
      <trkpt lat="48.67347" lon="5.89022">
        <ele>211.13</ele>
        <time>2026-08-05T10:00:44.680Z</time>
      </trkpt>
      <trkpt lat="48.67344" lon="5.89044">
        <ele>211.03</ele>
        <time>2026-08-05T10:00:49.686Z</time>
      </trkpt>
      <trkpt lat="48.6735" lon="5.89055">
        <ele>211.03</ele>
        <time>2026-08-05T10:00:56.673Z</time>
      </trkpt>
      <trkpt lat="48.67369" lon="5.89045">
        <ele>211.13</ele>
        <time>2026-08-05T10:01:01.819Z</time>
      </trkpt>
      <trkpt lat="48.67387" lon="5.89045">
        <ele>211.13</ele>
        <time>2026-08-05T10:01:07.684Z</time>
      </trkpt>
      <trkpt lat="48.67402" lon="5.89066">
        <ele>211.33</ele>
        <time>2026-08-05T10:01:13.681Z</time>
      </trkpt>
      <trkpt lat="48.67417" lon="5.89083">
        <ele>211.33</ele>
        <time>2026-08-05T10:01:19.679Z</time>
      </trkpt>
      <trkpt lat="48.67437" lon="5.891">
        <ele>211.33</ele>
        <time>2026-08-05T10:01:24.679Z</time>
      </trkpt>
      <trkpt lat="48.67455" lon="5.89113">
        <ele>211.52</ele>
        <time>2026-08-05T10:01:30.677Z</time>
      </trkpt>
      <trkpt lat="48.67463" lon="5.89126">
        <ele>211.53</ele>
        <time>2026-08-05T10:01:35.678Z</time>
      </trkpt>
      <trkpt lat="48.67478" lon="5.89141">
        <ele>211.53</ele>
        <time>2026-08-05T10:01:41.681Z</time>
      </trkpt>
      <trkpt lat="48.675" lon="5.89151">
        <ele>211.93</ele>
        <time>2026-08-05T10:01:47.679Z</time>
      </trkpt>
      <trkpt lat="48.67513" lon="5.89163">
        <ele>211.93</ele>
        <time>2026-08-05T10:01:53.674Z</time>
      </trkpt>
      <trkpt lat="48.67528" lon="5.89174">
        <ele>211.93</ele>
        <time>2026-08-05T10:01:58.680Z</time>
      </trkpt>
      <trkpt lat="48.67542" lon="5.89189">
        <ele>212.13</ele>
        <time>2026-08-05T10:02:03.686Z</time>
      </trkpt>
      <trkpt lat="48.6756" lon="5.89184">
        <ele>212.14</ele>
        <time>2026-08-05T10:02:09.677Z</time>
      </trkpt>
      <trkpt lat="48.67574" lon="5.89202">
        <ele>212.14</ele>
        <time>2026-08-05T10:02:14.684Z</time>
      </trkpt>
      <trkpt lat="48.67592" lon="5.89214">
        <ele>211.48</ele>
        <time>2026-08-05T10:02:20.687Z</time>
      </trkpt>
      <trkpt lat="48.67599" lon="5.892">
        <ele>211.44</ele>
        <time>2026-08-05T10:02:25.757Z</time>
      </trkpt>
      <trkpt lat="48.67605" lon="5.89185">
        <ele>211.44</ele>
        <time>2026-08-05T10:02:31.760Z</time>
      </trkpt>
      <trkpt lat="48.67613" lon="5.89161">
        <ele>212.84</ele>
        <time>2026-08-05T10:02:37.691Z</time>
      </trkpt>
      <trkpt lat="48.67622" lon="5.89142">
        <ele>212.94</ele>
        <time>2026-08-05T10:02:43.682Z</time>
      </trkpt>
      <trkpt lat="48.67629" lon="5.89123">
        <ele>212.94</ele>
        <time>2026-08-05T10:02:48.684Z</time>
      </trkpt>
      <trkpt lat="48.67635" lon="5.89099">
        <ele>212.94</ele>
        <time>2026-08-05T10:02:54.684Z</time>
      </trkpt>
      <trkpt lat="48.67643" lon="5.89079">
        <ele>213.83</ele>
        <time>2026-08-05T10:02:59.692Z</time>
      </trkpt>
      <trkpt lat="48.67645" lon="5.89059">
        <ele>213.84</ele>
        <time>2026-08-05T10:03:05.668Z</time>
      </trkpt>
      <trkpt lat="48.67645" lon="5.89045">
        <ele>213.84</ele>
        <time>2026-08-05T10:03:12.685Z</time>
      </trkpt>
      <trkpt lat="48.67633" lon="5.89028">
        <ele>215.13</ele>
        <time>2026-08-05T10:03:17.691Z</time>
      </trkpt>
      <trkpt lat="48.67624" lon="5.89016">
        <ele>215.14</ele>
        <time>2026-08-05T10:03:22.696Z</time>
      </trkpt>
      <trkpt lat="48.6761" lon="5.89013">
        <ele>215.14</ele>
        <time>2026-08-05T10:03:28.706Z</time>
      </trkpt>
      <trkpt lat="48.67589" lon="5.89015">
        <ele>215.14</ele>
        <time>2026-08-05T10:03:34.697Z</time>
      </trkpt>
      <trkpt lat="48.67568" lon="5.89019">
        <ele>215.04</ele>
        <time>2026-08-05T10:03:39.698Z</time>
      </trkpt>
      <trkpt lat="48.67557" lon="5.89024">
        <ele>215.04</ele>
        <time>2026-08-05T10:03:45.690Z</time>
      </trkpt>
      <trkpt lat="48.67546" lon="5.89028">
        <ele>215.04</ele>
        <time>2026-08-05T10:03:50.702Z</time>
      </trkpt>
      <trkpt lat="48.67533" lon="5.8902">
        <ele>215.04</ele>
        <time>2026-08-05T10:03:55.746Z</time>
      </trkpt>
      <trkpt lat="48.67519" lon="5.89026">
        <ele>214.54</ele>
        <time>2026-08-05T10:04:01.741Z</time>
      </trkpt>
      <trkpt lat="48.67507" lon="5.89044">
        <ele>214.54</ele>
        <time>2026-08-05T10:04:07.701Z</time>
      </trkpt>
      <trkpt lat="48.67489" lon="5.89036">
        <ele>213.65</ele>
        <time>2026-08-05T10:04:13.700Z</time>
      </trkpt>
      <trkpt lat="48.6748" lon="5.8902">
        <ele>213.63</ele>
        <time>2026-08-05T10:04:19.702Z</time>
      </trkpt>
      <trkpt lat="48.6747" lon="5.89004">
        <ele>213.63</ele>
        <time>2026-08-05T10:04:25.770Z</time>
      </trkpt>
      <trkpt lat="48.6746" lon="5.88986">
        <ele>213.33</ele>
        <time>2026-08-05T10:04:31.565Z</time>
      </trkpt>
      <trkpt lat="48.67455" lon="5.88971">
        <ele>213.23</ele>
        <time>2026-08-05T10:04:36.683Z</time>
      </trkpt>
      <trkpt lat="48.67466" lon="5.88962">
        <ele>213.01</ele>
        <time>2026-08-05T10:04:41.712Z</time>
      </trkpt>
      <trkpt lat="48.67475" lon="5.88943">
        <ele>212.94</ele>
        <time>2026-08-05T10:04:47.676Z</time>
      </trkpt>
      <trkpt lat="48.67484" lon="5.88946">
        <ele>212.94</ele>
        <time>2026-08-05T10:04:53.703Z</time>
      </trkpt>
      <trkpt lat="48.67495" lon="5.8893">
        <ele>212.94</ele>
        <time>2026-08-05T10:04:58.704Z</time>
      </trkpt>
      <trkpt lat="48.675" lon="5.88942">
        <ele>213.14</ele>
        <time>2026-08-05T10:05:35.694Z</time>
      </trkpt>
      <trkpt lat="48.67494" lon="5.88931">
        <ele>213.23</ele>
        <time>2026-08-05T10:06:42.243Z</time>
      </trkpt>
      <trkpt lat="48.67503" lon="5.88918">
        <ele>213.31</ele>
        <time>2026-08-05T10:06:49.679Z</time>
      </trkpt>
      <trkpt lat="48.67519" lon="5.88905">
        <ele>213.34</ele>
        <time>2026-08-05T10:06:55.724Z</time>
      </trkpt>
      <trkpt lat="48.67524" lon="5.88875">
        <ele>213.34</ele>
        <time>2026-08-05T10:07:01.729Z</time>
      </trkpt>
      <trkpt lat="48.67525" lon="5.88848">
        <ele>213.93</ele>
        <time>2026-08-05T10:07:07.669Z</time>
      </trkpt>
      <trkpt lat="48.67535" lon="5.88826">
        <ele>213.94</ele>
        <time>2026-08-05T10:07:13.673Z</time>
      </trkpt>
      <trkpt lat="48.67542" lon="5.88809">
        <ele>213.94</ele>
        <time>2026-08-05T10:07:18.676Z</time>
      </trkpt>
      <trkpt lat="48.67545" lon="5.88785">
        <ele>213.94</ele>
        <time>2026-08-05T10:07:24.673Z</time>
      </trkpt>
      <trkpt lat="48.67551" lon="5.88742">
        <ele>214.13</ele>
        <time>2026-08-05T10:07:29.698Z</time>
      </trkpt>
      <trkpt lat="48.6756" lon="5.88713">
        <ele>214.14</ele>
        <time>2026-08-05T10:07:35.695Z</time>
      </trkpt>
      <trkpt lat="48.67569" lon="5.88686">
        <ele>213.94</ele>
        <time>2026-08-05T10:07:41.691Z</time>
      </trkpt>
      <trkpt lat="48.67565" lon="5.88664">
        <ele>213.94</ele>
        <time>2026-08-05T10:07:47.697Z</time>
      </trkpt>
      <trkpt lat="48.67542" lon="5.8867">
        <ele>214.94</ele>
        <time>2026-08-05T10:07:53.688Z</time>
      </trkpt>
      <trkpt lat="48.67522" lon="5.88669">
        <ele>214.94</ele>
        <time>2026-08-05T10:07:58.709Z</time>
      </trkpt>
      <trkpt lat="48.67504" lon="5.88666">
        <ele>214.94</ele>
        <time>2026-08-05T10:08:04.679Z</time>
      </trkpt>
      <trkpt lat="48.67481" lon="5.88658">
        <ele>214.94</ele>
        <time>2026-08-05T10:08:09.690Z</time>
      </trkpt>
      <trkpt lat="48.67458" lon="5.88652">
        <ele>214.74</ele>
        <time>2026-08-05T10:08:14.711Z</time>
      </trkpt>
      <trkpt lat="48.67441" lon="5.88641">
        <ele>214.74</ele>
        <time>2026-08-05T10:08:19.717Z</time>
      </trkpt>
      <trkpt lat="48.6744" lon="5.88604">
        <ele>214.24</ele>
        <time>2026-08-05T10:08:25.757Z</time>
      </trkpt>
      <trkpt lat="48.67446" lon="5.88562">
        <ele>214.24</ele>
        <time>2026-08-05T10:08:31.744Z</time>
      </trkpt>
      <trkpt lat="48.67452" lon="5.88534">
        <ele>214.34</ele>
        <time>2026-08-05T10:08:37.705Z</time>
      </trkpt>
      <trkpt lat="48.67459" lon="5.88511">
        <ele>214.34</ele>
        <time>2026-08-05T10:08:43.742Z</time>
      </trkpt>
      <trkpt lat="48.67471" lon="5.8849">
        <ele>215.04</ele>
        <time>2026-08-05T10:08:49.706Z</time>
      </trkpt>
      <trkpt lat="48.67491" lon="5.88473">
        <ele>216.46</ele>
        <time>2026-08-05T10:08:55.742Z</time>
      </trkpt>
      <trkpt lat="48.67509" lon="5.88458">
        <ele>216.94</ele>
        <time>2026-08-05T10:09:01.749Z</time>
      </trkpt>
      <trkpt lat="48.67528" lon="5.88443">
        <ele>216.94</ele>
        <time>2026-08-05T10:09:07.721Z</time>
      </trkpt>
      <trkpt lat="48.67537" lon="5.88436">
        <ele>216.94</ele>
        <time>2026-08-05T10:09:13.712Z</time>
      </trkpt>
      <trkpt lat="48.67546" lon="5.88429">
        <ele>216.94</ele>
        <time>2026-08-05T10:09:19.316Z</time>
      </trkpt>
      <trkpt lat="48.67561" lon="5.88422">
        <ele>216.94</ele>
        <time>2026-08-05T10:09:24.692Z</time>
      </trkpt>
      <trkpt lat="48.67575" lon="5.88414">
        <ele>216.94</ele>
        <time>2026-08-05T10:09:30.743Z</time>
      </trkpt>
      <trkpt lat="48.67592" lon="5.884">
        <ele>216.94</ele>
        <time>2026-08-05T10:09:36.668Z</time>
      </trkpt>
      <trkpt lat="48.67615" lon="5.88384">
        <ele>217.33</ele>
        <time>2026-08-05T10:09:42.666Z</time>
      </trkpt>
      <trkpt lat="48.67631" lon="5.88376">
        <ele>217.34</ele>
        <time>2026-08-05T10:09:47.684Z</time>
      </trkpt>
      <trkpt lat="48.67658" lon="5.88339">
        <ele>216.64</ele>
        <time>2026-08-05T10:09:53.665Z</time>
      </trkpt>
      <trkpt lat="48.67673" lon="5.88327">
        <ele>216.64</ele>
        <time>2026-08-05T10:09:58.685Z</time>
      </trkpt>
      <trkpt lat="48.67691" lon="5.88307">
        <ele>217.14</ele>
        <time>2026-08-05T10:10:04.668Z</time>
      </trkpt>
      <trkpt lat="48.67709" lon="5.88295">
        <ele>217.14</ele>
        <time>2026-08-05T10:10:09.679Z</time>
      </trkpt>
      <trkpt lat="48.67726" lon="5.8828">
        <ele>217.14</ele>
        <time>2026-08-05T10:10:14.683Z</time>
      </trkpt>
      <trkpt lat="48.67742" lon="5.88267">
        <ele>217.14</ele>
        <time>2026-08-05T10:10:19.696Z</time>
      </trkpt>
      <trkpt lat="48.67757" lon="5.88251">
        <ele>217.14</ele>
        <time>2026-08-05T10:10:25.732Z</time>
      </trkpt>
      <trkpt lat="48.67766" lon="5.88243">
        <ele>217.14</ele>
        <time>2026-08-05T10:10:31.732Z</time>
      </trkpt>
      <trkpt lat="48.67764" lon="5.88229">
        <ele>217.93</ele>
        <time>2026-08-05T10:10:37.700Z</time>
      </trkpt>
      <trkpt lat="48.6776" lon="5.88186">
        <ele>217.94</ele>
        <time>2026-08-05T10:10:43.698Z</time>
      </trkpt>
      <trkpt lat="48.67754" lon="5.88141">
        <ele>217.94</ele>
        <time>2026-08-05T10:10:49.696Z</time>
      </trkpt>
      <trkpt lat="48.67751" lon="5.88098">
        <ele>217.94</ele>
        <time>2026-08-05T10:10:55.723Z</time>
      </trkpt>
      <trkpt lat="48.67747" lon="5.88055">
        <ele>216.15</ele>
        <time>2026-08-05T10:11:01.728Z</time>
      </trkpt>
      <trkpt lat="48.67741" lon="5.88009">
        <ele>216.14</ele>
        <time>2026-08-05T10:11:07.697Z</time>
      </trkpt>
      <trkpt lat="48.67737" lon="5.87963">
        <ele>216.14</ele>
        <time>2026-08-05T10:11:13.698Z</time>
      </trkpt>
      <trkpt lat="48.67732" lon="5.87914">
        <ele>216.14</ele>
        <time>2026-08-05T10:11:19.694Z</time>
      </trkpt>
      <trkpt lat="48.67727" lon="5.87865">
        <ele>216.14</ele>
        <time>2026-08-05T10:11:25.732Z</time>
      </trkpt>
      <trkpt lat="48.67723" lon="5.87815">
        <ele>216.14</ele>
        <time>2026-08-05T10:11:31.724Z</time>
      </trkpt>
      <trkpt lat="48.67719" lon="5.87766">
        <ele>216.14</ele>
        <time>2026-08-05T10:11:37.728Z</time>
      </trkpt>
      <trkpt lat="48.67715" lon="5.87719">
        <ele>216.14</ele>
        <time>2026-08-05T10:11:43.709Z</time>
      </trkpt>
      <trkpt lat="48.67712" lon="5.87672">
        <ele>216.14</ele>
        <time>2026-08-05T10:11:49.709Z</time>
      </trkpt>
      <trkpt lat="48.67709" lon="5.87622">
        <ele>216.14</ele>
        <time>2026-08-05T10:11:55.738Z</time>
      </trkpt>
      <trkpt lat="48.67708" lon="5.87573">
        <ele>216.14</ele>
        <time>2026-08-05T10:12:01.748Z</time>
      </trkpt>
      <trkpt lat="48.67707" lon="5.87526">
        <ele>216.15</ele>
        <time>2026-08-05T10:12:07.722Z</time>
      </trkpt>
      <trkpt lat="48.67706" lon="5.87476">
        <ele>216.15</ele>
        <time>2026-08-05T10:12:13.721Z</time>
      </trkpt>
      <trkpt lat="48.67707" lon="5.87427">
        <ele>216.15</ele>
        <time>2026-08-05T10:12:19.725Z</time>
      </trkpt>
      <trkpt lat="48.67708" lon="5.87376">
        <ele>216.15</ele>
        <time>2026-08-05T10:12:25.755Z</time>
      </trkpt>
      <trkpt lat="48.67708" lon="5.87326">
        <ele>167.62</ele>
        <time>2026-08-05T10:12:31.752Z</time>
      </trkpt>
      <trkpt lat="48.67708" lon="5.87279">
        <ele>164.4</ele>
        <time>2026-08-05T10:12:37.701Z</time>
      </trkpt>
      <trkpt lat="48.67709" lon="5.8724">
        <ele>164.3</ele>
        <time>2026-08-05T10:12:43.701Z</time>
      </trkpt>
      <trkpt lat="48.67709" lon="5.872">
        <ele>163.5</ele>
        <time>2026-08-05T10:12:49.709Z</time>
      </trkpt>
      <trkpt lat="48.67709" lon="5.8716">
        <ele>165.19</ele>
        <time>2026-08-05T10:12:55.733Z</time>
      </trkpt>
      <trkpt lat="48.67707" lon="5.87119">
        <ele>165.81</ele>
        <time>2026-08-05T10:13:01.733Z</time>
      </trkpt>
      <trkpt lat="48.67703" lon="5.87074">
        <ele>165.93</ele>
        <time>2026-08-05T10:13:07.722Z</time>
      </trkpt>
      <trkpt lat="48.67699" lon="5.87028">
        <ele>165.09</ele>
        <time>2026-08-05T10:13:13.711Z</time>
      </trkpt>
      <trkpt lat="48.67693" lon="5.86983">
        <ele>165.82</ele>
        <time>2026-08-05T10:13:19.708Z</time>
      </trkpt>
      <trkpt lat="48.67686" lon="5.86937">
        <ele>165.59</ele>
        <time>2026-08-05T10:13:25.720Z</time>
      </trkpt>
      <trkpt lat="48.67676" lon="5.86891">
        <ele>165.37</ele>
        <time>2026-08-05T10:13:31.727Z</time>
      </trkpt>
      <trkpt lat="48.67665" lon="5.86847">
        <ele>164.57</ele>
        <time>2026-08-05T10:13:37.714Z</time>
      </trkpt>
      <trkpt lat="48.6765" lon="5.86801">
        <ele>165.52</ele>
        <time>2026-08-05T10:13:43.721Z</time>
      </trkpt>
      <trkpt lat="48.67637" lon="5.86756">
        <ele>166.56</ele>
        <time>2026-08-05T10:13:49.717Z</time>
      </trkpt>
      <trkpt lat="48.67623" lon="5.8671">
        <ele>166.45</ele>
        <time>2026-08-05T10:13:55.743Z</time>
      </trkpt>
      <trkpt lat="48.6761" lon="5.86662">
        <ele>166.6</ele>
        <time>2026-08-05T10:14:01.733Z</time>
      </trkpt>
      <trkpt lat="48.67596" lon="5.86613">
        <ele>166.3</ele>
        <time>2026-08-05T10:14:07.715Z</time>
      </trkpt>
      <trkpt lat="48.67582" lon="5.86566">
        <ele>166.24</ele>
        <time>2026-08-05T10:14:13.718Z</time>
      </trkpt>
      <trkpt lat="48.67568" lon="5.8652">
        <ele>166.72</ele>
        <time>2026-08-05T10:14:19.716Z</time>
      </trkpt>
      <trkpt lat="48.67553" lon="5.86474">
        <ele>165.78</ele>
        <time>2026-08-05T10:14:25.743Z</time>
      </trkpt>
      <trkpt lat="48.67538" lon="5.86428">
        <ele>165.36</ele>
        <time>2026-08-05T10:14:31.732Z</time>
      </trkpt>
      <trkpt lat="48.67526" lon="5.86384">
        <ele>165.73</ele>
        <time>2026-08-05T10:14:37.714Z</time>
      </trkpt>
      <trkpt lat="48.67515" lon="5.86343">
        <ele>167.85</ele>
        <time>2026-08-05T10:14:43.726Z</time>
      </trkpt>
      <trkpt lat="48.67505" lon="5.86314">
        <ele>166.86</ele>
        <time>2026-08-05T10:14:49.723Z</time>
      </trkpt>
      <trkpt lat="48.67493" lon="5.86273">
        <ele>168.85</ele>
        <time>2026-08-05T10:14:55.745Z</time>
      </trkpt>
      <trkpt lat="48.6748" lon="5.8623">
        <ele>170.32</ele>
        <time>2026-08-05T10:15:01.738Z</time>
      </trkpt>
      <trkpt lat="48.6747" lon="5.8619">
        <ele>170.14</ele>
        <time>2026-08-05T10:15:07.722Z</time>
      </trkpt>
      <trkpt lat="48.67461" lon="5.86148">
        <ele>168.14</ele>
        <time>2026-08-05T10:15:13.720Z</time>
      </trkpt>
      <trkpt lat="48.67453" lon="5.86104">
        <ele>167.32</ele>
        <time>2026-08-05T10:15:19.724Z</time>
      </trkpt>
      <trkpt lat="48.67446" lon="5.86057">
        <ele>167.77</ele>
        <time>2026-08-05T10:15:25.744Z</time>
      </trkpt>
      <trkpt lat="48.67439" lon="5.86012">
        <ele>168.86</ele>
        <time>2026-08-05T10:15:31.739Z</time>
      </trkpt>
      <trkpt lat="48.67433" lon="5.85967">
        <ele>169.12</ele>
        <time>2026-08-05T10:15:37.725Z</time>
      </trkpt>
      <trkpt lat="48.67427" lon="5.85921">
        <ele>169.06</ele>
        <time>2026-08-05T10:15:43.730Z</time>
      </trkpt>
      <trkpt lat="48.67421" lon="5.85874">
        <ele>169.2</ele>
        <time>2026-08-05T10:15:49.730Z</time>
      </trkpt>
      <trkpt lat="48.67415" lon="5.85829">
        <ele>166.72</ele>
        <time>2026-08-05T10:15:55.743Z</time>
      </trkpt>
      <trkpt lat="48.67409" lon="5.85781">
        <ele>165.73</ele>
        <time>2026-08-05T10:16:01.741Z</time>
      </trkpt>
      <trkpt lat="48.67403" lon="5.85735">
        <ele>168.38</ele>
        <time>2026-08-05T10:16:07.729Z</time>
      </trkpt>
      <trkpt lat="48.67396" lon="5.85688">
        <ele>168.46</ele>
        <time>2026-08-05T10:16:13.728Z</time>
      </trkpt>
      <trkpt lat="48.67393" lon="5.85638">
        <ele>169.15</ele>
        <time>2026-08-05T10:16:19.726Z</time>
      </trkpt>
      <trkpt lat="48.67392" lon="5.85591">
        <ele>169.5</ele>
        <time>2026-08-05T10:16:25.741Z</time>
      </trkpt>
      <trkpt lat="48.67395" lon="5.85543">
        <ele>167.9</ele>
        <time>2026-08-05T10:16:31.738Z</time>
      </trkpt>
      <trkpt lat="48.67403" lon="5.85496">
        <ele>167</ele>
        <time>2026-08-05T10:16:37.727Z</time>
      </trkpt>
      <trkpt lat="48.67416" lon="5.8545">
        <ele>168.33</ele>
        <time>2026-08-05T10:16:43.755Z</time>
      </trkpt>
      <trkpt lat="48.67435" lon="5.85408">
        <ele>169.74</ele>
        <time>2026-08-05T10:16:49.725Z</time>
      </trkpt>
      <trkpt lat="48.67456" lon="5.85377">
        <ele>167.7</ele>
        <time>2026-08-05T10:16:55.743Z</time>
      </trkpt>
      <trkpt lat="48.67471" lon="5.85344">
        <ele>171.26</ele>
        <time>2026-08-05T10:17:01.746Z</time>
      </trkpt>
      <trkpt lat="48.67482" lon="5.85328">
        <ele>174.73</ele>
        <time>2026-08-05T10:17:07.728Z</time>
      </trkpt>
      <trkpt lat="48.67498" lon="5.85303">
        <ele>173</ele>
        <time>2026-08-05T10:17:13.726Z</time>
      </trkpt>
      <trkpt lat="48.67519" lon="5.85274">
        <ele>171.24</ele>
        <time>2026-08-05T10:17:19.727Z</time>
      </trkpt>
      <trkpt lat="48.6754" lon="5.85244">
        <ele>170.63</ele>
        <time>2026-08-05T10:17:25.746Z</time>
      </trkpt>
      <trkpt lat="48.67562" lon="5.85217">
        <ele>171.2</ele>
        <time>2026-08-05T10:17:31.738Z</time>
      </trkpt>
      <trkpt lat="48.67585" lon="5.85185">
        <ele>171.2</ele>
        <time>2026-08-05T10:17:37.733Z</time>
      </trkpt>
      <trkpt lat="48.67607" lon="5.85153">
        <ele>169.86</ele>
        <time>2026-08-05T10:17:43.728Z</time>
      </trkpt>
      <trkpt lat="48.67629" lon="5.8512">
        <ele>170.2</ele>
        <time>2026-08-05T10:17:49.735Z</time>
      </trkpt>
      <trkpt lat="48.67648" lon="5.85086">
        <ele>171.19</ele>
        <time>2026-08-05T10:17:55.740Z</time>
      </trkpt>
      <trkpt lat="48.67665" lon="5.85049">
        <ele>170.97</ele>
        <time>2026-08-05T10:18:01.744Z</time>
      </trkpt>
      <trkpt lat="48.67682" lon="5.85006">
        <ele>171.79</ele>
        <time>2026-08-05T10:18:07.730Z</time>
      </trkpt>
      <trkpt lat="48.67695" lon="5.84961">
        <ele>172.82</ele>
        <time>2026-08-05T10:18:13.730Z</time>
      </trkpt>
      <trkpt lat="48.67704" lon="5.84916">
        <ele>171.69</ele>
        <time>2026-08-05T10:18:19.736Z</time>
      </trkpt>
      <trkpt lat="48.6771" lon="5.84869">
        <ele>171.1</ele>
        <time>2026-08-05T10:18:25.744Z</time>
      </trkpt>
      <trkpt lat="48.67713" lon="5.84822">
        <ele>172.78</ele>
        <time>2026-08-05T10:18:31.743Z</time>
      </trkpt>
      <trkpt lat="48.67715" lon="5.84776">
        <ele>172.52</ele>
        <time>2026-08-05T10:18:37.728Z</time>
      </trkpt>
      <trkpt lat="48.67717" lon="5.8473">
        <ele>172.18</ele>
        <time>2026-08-05T10:18:43.727Z</time>
      </trkpt>
      <trkpt lat="48.67719" lon="5.84681">
        <ele>172.34</ele>
        <time>2026-08-05T10:18:49.733Z</time>
      </trkpt>
      <trkpt lat="48.6772" lon="5.84636">
        <ele>172.8</ele>
        <time>2026-08-05T10:18:55.742Z</time>
      </trkpt>
      <trkpt lat="48.67722" lon="5.84596">
        <ele>173.81</ele>
        <time>2026-08-05T10:19:01.739Z</time>
      </trkpt>
      <trkpt lat="48.67723" lon="5.84553">
        <ele>174.17</ele>
        <time>2026-08-05T10:19:07.726Z</time>
      </trkpt>
      <trkpt lat="48.67723" lon="5.84513">
        <ele>173.56</ele>
        <time>2026-08-05T10:19:13.729Z</time>
      </trkpt>
      <trkpt lat="48.6772" lon="5.84471">
        <ele>172.93</ele>
        <time>2026-08-05T10:19:19.730Z</time>
      </trkpt>
      <trkpt lat="48.67715" lon="5.84426">
        <ele>173.87</ele>
        <time>2026-08-05T10:19:25.741Z</time>
      </trkpt>
      <trkpt lat="48.67706" lon="5.84382">
        <ele>175.63</ele>
        <time>2026-08-05T10:19:31.742Z</time>
      </trkpt>
      <trkpt lat="48.67698" lon="5.84338">
        <ele>176.33</ele>
        <time>2026-08-05T10:19:37.731Z</time>
      </trkpt>
      <trkpt lat="48.67689" lon="5.84294">
        <ele>178.17</ele>
        <time>2026-08-05T10:19:43.726Z</time>
      </trkpt>
      <trkpt lat="48.6768" lon="5.84254">
        <ele>179.02</ele>
        <time>2026-08-05T10:19:49.727Z</time>
      </trkpt>
      <trkpt lat="48.67672" lon="5.84215">
        <ele>179.68</ele>
        <time>2026-08-05T10:19:55.748Z</time>
      </trkpt>
      <trkpt lat="48.67664" lon="5.84176">
        <ele>180.03</ele>
        <time>2026-08-05T10:20:01.746Z</time>
      </trkpt>
      <trkpt lat="48.67656" lon="5.84138">
        <ele>180.25</ele>
        <time>2026-08-05T10:20:07.733Z</time>
      </trkpt>
      <trkpt lat="48.67646" lon="5.84098">
        <ele>177.92</ele>
        <time>2026-08-05T10:20:13.729Z</time>
      </trkpt>
      <trkpt lat="48.67637" lon="5.84054">
        <ele>176.05</ele>
        <time>2026-08-05T10:20:19.729Z</time>
      </trkpt>
      <trkpt lat="48.67628" lon="5.84013">
        <ele>174.08</ele>
        <time>2026-08-05T10:20:25.742Z</time>
      </trkpt>
      <trkpt lat="48.67619" lon="5.83972">
        <ele>173.23</ele>
        <time>2026-08-05T10:20:31.736Z</time>
      </trkpt>
      <trkpt lat="48.67611" lon="5.83932">
        <ele>174.45</ele>
        <time>2026-08-05T10:20:37.730Z</time>
      </trkpt>
      <trkpt lat="48.67604" lon="5.83889">
        <ele>173.47</ele>
        <time>2026-08-05T10:20:43.729Z</time>
      </trkpt>
      <trkpt lat="48.67599" lon="5.83844">
        <ele>175.15</ele>
        <time>2026-08-05T10:20:49.729Z</time>
      </trkpt>
      <trkpt lat="48.67593" lon="5.83799">
        <ele>176.25</ele>
        <time>2026-08-05T10:20:55.743Z</time>
      </trkpt>
      <trkpt lat="48.67589" lon="5.83756">
        <ele>174.93</ele>
        <time>2026-08-05T10:21:01.746Z</time>
      </trkpt>
      <trkpt lat="48.67583" lon="5.83713">
        <ele>175.62</ele>
        <time>2026-08-05T10:21:07.728Z</time>
      </trkpt>
      <trkpt lat="48.67579" lon="5.83677">
        <ele>177.75</ele>
        <time>2026-08-05T10:21:13.729Z</time>
      </trkpt>
      <trkpt lat="48.67575" lon="5.8364">
        <ele>177.01</ele>
        <time>2026-08-05T10:21:19.727Z</time>
      </trkpt>
      <trkpt lat="48.67567" lon="5.83596">
        <ele>177.58</ele>
        <time>2026-08-05T10:21:25.740Z</time>
      </trkpt>
      <trkpt lat="48.67562" lon="5.83551">
        <ele>179.1</ele>
        <time>2026-08-05T10:21:31.743Z</time>
      </trkpt>
      <trkpt lat="48.67556" lon="5.83507">
        <ele>179.75</ele>
        <time>2026-08-05T10:21:37.729Z</time>
      </trkpt>
      <trkpt lat="48.67551" lon="5.83464">
        <ele>180.03</ele>
        <time>2026-08-05T10:21:43.727Z</time>
      </trkpt>
      <trkpt lat="48.67545" lon="5.83419">
        <ele>178.63</ele>
        <time>2026-08-05T10:21:49.728Z</time>
      </trkpt>
      <trkpt lat="48.67539" lon="5.83374">
        <ele>177.87</ele>
        <time>2026-08-05T10:21:55.739Z</time>
      </trkpt>
      <trkpt lat="48.67533" lon="5.83328">
        <ele>177.46</ele>
        <time>2026-08-05T10:22:01.737Z</time>
      </trkpt>
      <trkpt lat="48.67527" lon="5.83281">
        <ele>178.09</ele>
        <time>2026-08-05T10:22:07.727Z</time>
      </trkpt>
      <trkpt lat="48.6752" lon="5.83233">
        <ele>178.78</ele>
        <time>2026-08-05T10:22:13.726Z</time>
      </trkpt>
      <trkpt lat="48.67515" lon="5.83187">
        <ele>177.75</ele>
        <time>2026-08-05T10:22:19.728Z</time>
      </trkpt>
      <trkpt lat="48.6751" lon="5.83137">
        <ele>177.04</ele>
        <time>2026-08-05T10:22:25.745Z</time>
      </trkpt>
      <trkpt lat="48.67502" lon="5.83092">
        <ele>178.26</ele>
        <time>2026-08-05T10:22:31.740Z</time>
      </trkpt>
      <trkpt lat="48.67496" lon="5.83046">
        <ele>178.96</ele>
        <time>2026-08-05T10:22:37.729Z</time>
      </trkpt>
      <trkpt lat="48.67491" lon="5.82999">
        <ele>179.7</ele>
        <time>2026-08-05T10:22:43.727Z</time>
      </trkpt>
      <trkpt lat="48.67485" lon="5.82953">
        <ele>176.91</ele>
        <time>2026-08-05T10:22:49.727Z</time>
      </trkpt>
      <trkpt lat="48.67477" lon="5.82906">
        <ele>178.2</ele>
        <time>2026-08-05T10:22:55.745Z</time>
      </trkpt>
      <trkpt lat="48.6747" lon="5.8286">
        <ele>177.95</ele>
        <time>2026-08-05T10:23:01.742Z</time>
      </trkpt>
      <trkpt lat="48.67463" lon="5.82813">
        <ele>177.85</ele>
        <time>2026-08-05T10:23:07.730Z</time>
      </trkpt>
      <trkpt lat="48.6746" lon="5.82766">
        <ele>179.15</ele>
        <time>2026-08-05T10:23:13.729Z</time>
      </trkpt>
      <trkpt lat="48.67457" lon="5.82722">
        <ele>178.96</ele>
        <time>2026-08-05T10:23:19.731Z</time>
      </trkpt>
      <trkpt lat="48.67454" lon="5.82679">
        <ele>179.01</ele>
        <time>2026-08-05T10:23:25.729Z</time>
      </trkpt>
      <trkpt lat="48.67452" lon="5.82637">
        <ele>179.62</ele>
        <time>2026-08-05T10:23:31.741Z</time>
      </trkpt>
      <trkpt lat="48.67452" lon="5.8259">
        <ele>180</ele>
        <time>2026-08-05T10:23:37.727Z</time>
      </trkpt>
      <trkpt lat="48.67454" lon="5.82543">
        <ele>180.61</ele>
        <time>2026-08-05T10:23:43.726Z</time>
      </trkpt>
      <trkpt lat="48.67456" lon="5.82497">
        <ele>181.4</ele>
        <time>2026-08-05T10:23:49.728Z</time>
      </trkpt>
      <trkpt lat="48.67458" lon="5.8245">
        <ele>180.66</ele>
        <time>2026-08-05T10:23:55.739Z</time>
      </trkpt>
      <trkpt lat="48.67459" lon="5.82403">
        <ele>181.24</ele>
        <time>2026-08-05T10:24:01.737Z</time>
      </trkpt>
      <trkpt lat="48.67455" lon="5.82354">
        <ele>180.94</ele>
        <time>2026-08-05T10:24:07.728Z</time>
      </trkpt>
      <trkpt lat="48.67452" lon="5.82309">
        <ele>182.19</ele>
        <time>2026-08-05T10:24:13.735Z</time>
      </trkpt>
      <trkpt lat="48.67444" lon="5.82261">
        <ele>182.41</ele>
        <time>2026-08-05T10:24:19.732Z</time>
      </trkpt>
      <trkpt lat="48.67435" lon="5.82214">
        <ele>181.3</ele>
        <time>2026-08-05T10:24:25.740Z</time>
      </trkpt>
      <trkpt lat="48.67426" lon="5.82168">
        <ele>180.23</ele>
        <time>2026-08-05T10:24:31.739Z</time>
      </trkpt>
      <trkpt lat="48.67416" lon="5.82121">
        <ele>180.83</ele>
        <time>2026-08-05T10:24:37.728Z</time>
      </trkpt>
      <trkpt lat="48.67408" lon="5.82078">
        <ele>179.31</ele>
        <time>2026-08-05T10:24:43.727Z</time>
      </trkpt>
      <trkpt lat="48.67397" lon="5.82033">
        <ele>179.76</ele>
        <time>2026-08-05T10:24:49.731Z</time>
      </trkpt>
      <trkpt lat="48.67389" lon="5.81987">
        <ele>180.64</ele>
        <time>2026-08-05T10:24:55.740Z</time>
      </trkpt>
      <trkpt lat="48.67384" lon="5.81939">
        <ele>181.25</ele>
        <time>2026-08-05T10:25:01.744Z</time>
      </trkpt>
      <trkpt lat="48.67382" lon="5.81893">
        <ele>181.37</ele>
        <time>2026-08-05T10:25:07.727Z</time>
      </trkpt>
      <trkpt lat="48.67384" lon="5.81847">
        <ele>180.16</ele>
        <time>2026-08-05T10:25:13.729Z</time>
      </trkpt>
      <trkpt lat="48.67389" lon="5.81804">
        <ele>180.93</ele>
        <time>2026-08-05T10:25:19.728Z</time>
      </trkpt>
      <trkpt lat="48.67398" lon="5.81777">
        <ele>182.14</ele>
        <time>2026-08-05T10:25:25.745Z</time>
      </trkpt>
      <trkpt lat="48.67404" lon="5.81739">
        <ele>182.09</ele>
        <time>2026-08-05T10:25:31.743Z</time>
      </trkpt>
      <trkpt lat="48.6741" lon="5.81696">
        <ele>180.23</ele>
        <time>2026-08-05T10:25:37.728Z</time>
      </trkpt>
      <trkpt lat="48.67416" lon="5.81653">
        <ele>180.48</ele>
        <time>2026-08-05T10:25:43.730Z</time>
      </trkpt>
      <trkpt lat="48.67424" lon="5.8161">
        <ele>182.02</ele>
        <time>2026-08-05T10:25:49.728Z</time>
      </trkpt>
      <trkpt lat="48.6743" lon="5.81568">
        <ele>180.9</ele>
        <time>2026-08-05T10:25:55.739Z</time>
      </trkpt>
      <trkpt lat="48.67436" lon="5.81525">
        <ele>181.23</ele>
        <time>2026-08-05T10:26:01.740Z</time>
      </trkpt>
      <trkpt lat="48.67443" lon="5.81481">
        <ele>180.17</ele>
        <time>2026-08-05T10:26:07.731Z</time>
      </trkpt>
      <trkpt lat="48.6745" lon="5.81438">
        <ele>178.33</ele>
        <time>2026-08-05T10:26:13.728Z</time>
      </trkpt>
      <trkpt lat="48.67458" lon="5.81392">
        <ele>179.24</ele>
        <time>2026-08-05T10:26:19.729Z</time>
      </trkpt>
      <trkpt lat="48.67465" lon="5.81346">
        <ele>179.06</ele>
        <time>2026-08-05T10:26:25.745Z</time>
      </trkpt>
      <trkpt lat="48.67473" lon="5.813">
        <ele>180.87</ele>
        <time>2026-08-05T10:26:31.740Z</time>
      </trkpt>
      <trkpt lat="48.67479" lon="5.81253">
        <ele>183.03</ele>
        <time>2026-08-05T10:26:37.728Z</time>
      </trkpt>
      <trkpt lat="48.67487" lon="5.81204">
        <ele>183.18</ele>
        <time>2026-08-05T10:26:43.728Z</time>
      </trkpt>
      <trkpt lat="48.67494" lon="5.81155">
        <ele>182.99</ele>
        <time>2026-08-05T10:26:49.729Z</time>
      </trkpt>
      <trkpt lat="48.67501" lon="5.81108">
        <ele>183.42</ele>
        <time>2026-08-05T10:26:55.745Z</time>
      </trkpt>
      <trkpt lat="48.67509" lon="5.81061">
        <ele>182.99</ele>
        <time>2026-08-05T10:27:01.742Z</time>
      </trkpt>
      <trkpt lat="48.67516" lon="5.81015">
        <ele>181.79</ele>
        <time>2026-08-05T10:27:07.732Z</time>
      </trkpt>
      <trkpt lat="48.67522" lon="5.80968">
        <ele>179.75</ele>
        <time>2026-08-05T10:27:13.727Z</time>
      </trkpt>
      <trkpt lat="48.67528" lon="5.80919">
        <ele>179.1</ele>
        <time>2026-08-05T10:27:19.734Z</time>
      </trkpt>
      <trkpt lat="48.67538" lon="5.80873">
        <ele>181.17</ele>
        <time>2026-08-05T10:27:25.737Z</time>
      </trkpt>
      <trkpt lat="48.67539" lon="5.80837">
        <ele>179.09</ele>
        <time>2026-08-05T10:27:31.734Z</time>
      </trkpt>
      <trkpt lat="48.67548" lon="5.80793">
        <ele>179.9</ele>
        <time>2026-08-05T10:27:37.716Z</time>
      </trkpt>
      <trkpt lat="48.67557" lon="5.80751">
        <ele>181.55</ele>
        <time>2026-08-05T10:27:43.730Z</time>
      </trkpt>
      <trkpt lat="48.67565" lon="5.80704">
        <ele>183.29</ele>
        <time>2026-08-05T10:27:49.729Z</time>
      </trkpt>
      <trkpt lat="48.6757" lon="5.80663">
        <ele>185.35</ele>
        <time>2026-08-05T10:27:55.749Z</time>
      </trkpt>
      <trkpt lat="48.67577" lon="5.8062">
        <ele>185.89</ele>
        <time>2026-08-05T10:28:01.734Z</time>
      </trkpt>
      <trkpt lat="48.67584" lon="5.80576">
        <ele>185.17</ele>
        <time>2026-08-05T10:28:07.717Z</time>
      </trkpt>
      <trkpt lat="48.67592" lon="5.8053">
        <ele>184.92</ele>
        <time>2026-08-05T10:28:13.725Z</time>
      </trkpt>
      <trkpt lat="48.67597" lon="5.80486">
        <ele>184.18</ele>
        <time>2026-08-05T10:28:19.733Z</time>
      </trkpt>
      <trkpt lat="48.67606" lon="5.80436">
        <ele>184.79</ele>
        <time>2026-08-05T10:28:25.750Z</time>
      </trkpt>
      <trkpt lat="48.67616" lon="5.80388">
        <ele>186.12</ele>
        <time>2026-08-05T10:28:31.745Z</time>
      </trkpt>
      <trkpt lat="48.67623" lon="5.80342">
        <ele>187.96</ele>
        <time>2026-08-05T10:28:37.738Z</time>
      </trkpt>
      <trkpt lat="48.67629" lon="5.80294">
        <ele>188.94</ele>
        <time>2026-08-05T10:28:43.736Z</time>
      </trkpt>
      <trkpt lat="48.67635" lon="5.80249">
        <ele>190.14</ele>
        <time>2026-08-05T10:28:49.735Z</time>
      </trkpt>
      <trkpt lat="48.67642" lon="5.80203">
        <ele>188.87</ele>
        <time>2026-08-05T10:28:55.748Z</time>
      </trkpt>
      <trkpt lat="48.67647" lon="5.80156">
        <ele>185.28</ele>
        <time>2026-08-05T10:29:01.742Z</time>
      </trkpt>
      <trkpt lat="48.67652" lon="5.80109">
        <ele>185.24</ele>
        <time>2026-08-05T10:29:07.734Z</time>
      </trkpt>
      <trkpt lat="48.67657" lon="5.80063">
        <ele>185.31</ele>
        <time>2026-08-05T10:29:13.734Z</time>
      </trkpt>
      <trkpt lat="48.67661" lon="5.80014">
        <ele>184.43</ele>
        <time>2026-08-05T10:29:19.734Z</time>
      </trkpt>
      <trkpt lat="48.67662" lon="5.79964">
        <ele>184.31</ele>
        <time>2026-08-05T10:29:25.746Z</time>
      </trkpt>
      <trkpt lat="48.67663" lon="5.79918">
        <ele>185.39</ele>
        <time>2026-08-05T10:29:31.746Z</time>
      </trkpt>
      <trkpt lat="48.67667" lon="5.79876">
        <ele>185.88</ele>
        <time>2026-08-05T10:29:37.733Z</time>
      </trkpt>
      <trkpt lat="48.67669" lon="5.79841">
        <ele>186.03</ele>
        <time>2026-08-05T10:29:42.754Z</time>
      </trkpt>
      <trkpt lat="48.67669" lon="5.79807">
        <ele>187.04</ele>
        <time>2026-08-05T10:29:48.673Z</time>
      </trkpt>
      <trkpt lat="48.67669" lon="5.79764">
        <ele>185.98</ele>
        <time>2026-08-05T10:29:54.676Z</time>
      </trkpt>
      <trkpt lat="48.67671" lon="5.79732">
        <ele>242.43</ele>
        <time>2026-08-05T10:29:59.682Z</time>
      </trkpt>
      <trkpt lat="48.67671" lon="5.79688">
        <ele>242.48</ele>
        <time>2026-08-05T10:30:05.705Z</time>
      </trkpt>
      <trkpt lat="48.6767" lon="5.79653">
        <ele>242.48</ele>
        <time>2026-08-05T10:30:11.675Z</time>
      </trkpt>
      <trkpt lat="48.67668" lon="5.79615">
        <ele>242.58</ele>
        <time>2026-08-05T10:30:16.689Z</time>
      </trkpt>
      <trkpt lat="48.67665" lon="5.79578">
        <ele>242.58</ele>
        <time>2026-08-05T10:30:22.690Z</time>
      </trkpt>
      <trkpt lat="48.67663" lon="5.79537">
        <ele>242.58</ele>
        <time>2026-08-05T10:30:28.688Z</time>
      </trkpt>
      <trkpt lat="48.6766" lon="5.79501">
        <ele>243.11</ele>
        <time>2026-08-05T10:30:34.470Z</time>
      </trkpt>
      <trkpt lat="48.67654" lon="5.79466">
        <ele>243.28</ele>
        <time>2026-08-05T10:30:39.672Z</time>
      </trkpt>
      <trkpt lat="48.67653" lon="5.79426">
        <ele>243.47</ele>
        <time>2026-08-05T10:30:44.679Z</time>
      </trkpt>
      <trkpt lat="48.67649" lon="5.79389">
        <ele>243.48</ele>
        <time>2026-08-05T10:30:49.734Z</time>
      </trkpt>
      <trkpt lat="48.67646" lon="5.79346">
        <ele>243.48</ele>
        <time>2026-08-05T10:30:55.734Z</time>
      </trkpt>
      <trkpt lat="48.6764" lon="5.79306">
        <ele>243.48</ele>
        <time>2026-08-05T10:31:01.737Z</time>
      </trkpt>
      <trkpt lat="48.67635" lon="5.79267">
        <ele>243.48</ele>
        <time>2026-08-05T10:31:07.791Z</time>
      </trkpt>
      <trkpt lat="48.6763" lon="5.79228">
        <ele>243.48</ele>
        <time>2026-08-05T10:31:13.751Z</time>
      </trkpt>
      <trkpt lat="48.67624" lon="5.7919">
        <ele>243.48</ele>
        <time>2026-08-05T10:31:19.742Z</time>
      </trkpt>
      <trkpt lat="48.67618" lon="5.79151">
        <ele>243.48</ele>
        <time>2026-08-05T10:31:25.743Z</time>
      </trkpt>
      <trkpt lat="48.67614" lon="5.79112">
        <ele>243.48</ele>
        <time>2026-08-05T10:31:31.764Z</time>
      </trkpt>
      <trkpt lat="48.67608" lon="5.79072">
        <ele>243.48</ele>
        <time>2026-08-05T10:31:37.730Z</time>
      </trkpt>
      <trkpt lat="48.67602" lon="5.79031">
        <ele>243.48</ele>
        <time>2026-08-05T10:31:43.748Z</time>
      </trkpt>
      <trkpt lat="48.67597" lon="5.78997">
        <ele>244.68</ele>
        <time>2026-08-05T10:31:49.731Z</time>
      </trkpt>
      <trkpt lat="48.67594" lon="5.78971">
        <ele>244.68</ele>
        <time>2026-08-05T10:31:55.748Z</time>
      </trkpt>
      <trkpt lat="48.67591" lon="5.78949">
        <ele>244.68</ele>
        <time>2026-08-05T10:32:01.754Z</time>
      </trkpt>
      <trkpt lat="48.67586" lon="5.78916">
        <ele>244.69</ele>
        <time>2026-08-05T10:32:07.737Z</time>
      </trkpt>
      <trkpt lat="48.67582" lon="5.78875">
        <ele>244.69</ele>
        <time>2026-08-05T10:32:13.729Z</time>
      </trkpt>
      <trkpt lat="48.67577" lon="5.78835">
        <ele>244.69</ele>
        <time>2026-08-05T10:32:19.733Z</time>
      </trkpt>
      <trkpt lat="48.67571" lon="5.78795">
        <ele>244.69</ele>
        <time>2026-08-05T10:32:25.744Z</time>
      </trkpt>
      <trkpt lat="48.67566" lon="5.78756">
        <ele>244.69</ele>
        <time>2026-08-05T10:32:31.741Z</time>
      </trkpt>
      <trkpt lat="48.67561" lon="5.78718">
        <ele>244.69</ele>
        <time>2026-08-05T10:32:37.734Z</time>
      </trkpt>
      <trkpt lat="48.67558" lon="5.78678">
        <ele>248.06</ele>
        <time>2026-08-05T10:32:43.730Z</time>
      </trkpt>
      <trkpt lat="48.67553" lon="5.78642">
        <ele>249.19</ele>
        <time>2026-08-05T10:32:49.738Z</time>
      </trkpt>
      <trkpt lat="48.67546" lon="5.78598">
        <ele>249.19</ele>
        <time>2026-08-05T10:32:55.738Z</time>
      </trkpt>
      <trkpt lat="48.6754" lon="5.78556">
        <ele>249.19</ele>
        <time>2026-08-05T10:33:01.739Z</time>
      </trkpt>
      <trkpt lat="48.67535" lon="5.78512">
        <ele>249.19</ele>
        <time>2026-08-05T10:33:07.734Z</time>
      </trkpt>
      <trkpt lat="48.67529" lon="5.78466">
        <ele>249.19</ele>
        <time>2026-08-05T10:33:13.751Z</time>
      </trkpt>
      <trkpt lat="48.67522" lon="5.78424">
        <ele>249.19</ele>
        <time>2026-08-05T10:33:19.740Z</time>
      </trkpt>
      <trkpt lat="48.67515" lon="5.78377">
        <ele>249.19</ele>
        <time>2026-08-05T10:33:25.749Z</time>
      </trkpt>
      <trkpt lat="48.6751" lon="5.78332">
        <ele>249.19</ele>
        <time>2026-08-05T10:33:31.752Z</time>
      </trkpt>
      <trkpt lat="48.67504" lon="5.78284">
        <ele>249.19</ele>
        <time>2026-08-05T10:33:37.744Z</time>
      </trkpt>
      <trkpt lat="48.67497" lon="5.78238">
        <ele>249.19</ele>
        <time>2026-08-05T10:33:43.739Z</time>
      </trkpt>
      <trkpt lat="48.67491" lon="5.78191">
        <ele>249.19</ele>
        <time>2026-08-05T10:33:49.758Z</time>
      </trkpt>
      <trkpt lat="48.67485" lon="5.78145">
        <ele>249.19</ele>
        <time>2026-08-05T10:33:55.751Z</time>
      </trkpt>
      <trkpt lat="48.67478" lon="5.78104">
        <ele>249.19</ele>
        <time>2026-08-05T10:34:01.747Z</time>
      </trkpt>
      <trkpt lat="48.67474" lon="5.78068">
        <ele>249.19</ele>
        <time>2026-08-05T10:34:07.752Z</time>
      </trkpt>
      <trkpt lat="48.67472" lon="5.78035">
        <ele>196.64</ele>
        <time>2026-08-05T10:34:13.728Z</time>
      </trkpt>
      <trkpt lat="48.67466" lon="5.78">
        <ele>196.42</ele>
        <time>2026-08-05T10:34:19.722Z</time>
      </trkpt>
      <trkpt lat="48.67458" lon="5.77958">
        <ele>194.8</ele>
        <time>2026-08-05T10:34:25.729Z</time>
      </trkpt>
      <trkpt lat="48.6745" lon="5.77918">
        <ele>193.93</ele>
        <time>2026-08-05T10:34:31.729Z</time>
      </trkpt>
      <trkpt lat="48.67446" lon="5.77879">
        <ele>193.2</ele>
        <time>2026-08-05T10:34:37.724Z</time>
      </trkpt>
      <trkpt lat="48.67441" lon="5.77837">
        <ele>192.53</ele>
        <time>2026-08-05T10:34:43.735Z</time>
      </trkpt>
      <trkpt lat="48.67436" lon="5.77797">
        <ele>192.16</ele>
        <time>2026-08-05T10:34:49.729Z</time>
      </trkpt>
      <trkpt lat="48.67434" lon="5.7776">
        <ele>193.88</ele>
        <time>2026-08-05T10:34:55.741Z</time>
      </trkpt>
      <trkpt lat="48.6744" lon="5.7772">
        <ele>194.8</ele>
        <time>2026-08-05T10:35:01.730Z</time>
      </trkpt>
      <trkpt lat="48.67446" lon="5.77688">
        <ele>194.47</ele>
        <time>2026-08-05T10:35:07.727Z</time>
      </trkpt>
      <trkpt lat="48.67445" lon="5.7766">
        <ele>194.72</ele>
        <time>2026-08-05T10:35:13.723Z</time>
      </trkpt>
      <trkpt lat="48.67442" lon="5.77629">
        <ele>196.44</ele>
        <time>2026-08-05T10:35:19.726Z</time>
      </trkpt>
      <trkpt lat="48.67437" lon="5.77595">
        <ele>197.39</ele>
        <time>2026-08-05T10:35:25.733Z</time>
      </trkpt>
      <trkpt lat="48.67428" lon="5.77561">
        <ele>195.88</ele>
        <time>2026-08-05T10:35:31.728Z</time>
      </trkpt>
      <trkpt lat="48.67409" lon="5.77534">
        <ele>194.05</ele>
        <time>2026-08-05T10:35:37.719Z</time>
      </trkpt>
      <trkpt lat="48.67394" lon="5.77508">
        <ele>247.54</ele>
        <time>2026-08-05T10:35:43.724Z</time>
      </trkpt>
      <trkpt lat="48.67399" lon="5.77494">
        <ele>251.09</ele>
        <time>2026-08-05T10:35:49.719Z</time>
      </trkpt>
      <trkpt lat="48.6741" lon="5.77479">
        <ele>251.09</ele>
        <time>2026-08-05T10:35:55.719Z</time>
      </trkpt>
      <trkpt lat="48.67411" lon="5.77465">
        <ele>251.09</ele>
        <time>2026-08-05T10:37:21.671Z</time>
      </trkpt>
      <trkpt lat="48.67417" lon="5.77452">
        <ele>251.21</ele>
        <time>2026-08-05T10:38:02.676Z</time>
      </trkpt>
      <trkpt lat="48.67424" lon="5.7744">
        <ele>251.09</ele>
        <time>2026-08-05T10:38:07.729Z</time>
      </trkpt>
      <trkpt lat="48.67428" lon="5.77427">
        <ele>251.09</ele>
        <time>2026-08-05T10:38:13.455Z</time>
      </trkpt>
      <trkpt lat="48.6743" lon="5.77413">
        <ele>251.09</ele>
        <time>2026-08-05T10:38:18.670Z</time>
      </trkpt>
      <trkpt lat="48.67429" lon="5.77396">
        <ele>250.99</ele>
        <time>2026-08-05T10:38:36.678Z</time>
      </trkpt>
      <trkpt lat="48.6743" lon="5.77381">
        <ele>250.99</ele>
        <time>2026-08-05T10:38:51.672Z</time>
      </trkpt>
      <trkpt lat="48.67429" lon="5.77364">
        <ele>250.99</ele>
        <time>2026-08-05T10:39:07.724Z</time>
      </trkpt>
      <trkpt lat="48.67425" lon="5.77348">
        <ele>252.98</ele>
        <time>2026-08-05T10:39:22.670Z</time>
      </trkpt>
      <trkpt lat="48.67424" lon="5.77332">
        <ele>251.09</ele>
        <time>2026-08-05T10:39:40.668Z</time>
      </trkpt>
      <trkpt lat="48.67422" lon="5.77316">
        <ele>250.99</ele>
        <time>2026-08-05T10:39:58.663Z</time>
      </trkpt>
      <trkpt lat="48.67419" lon="5.77298">
        <ele>250.99</ele>
        <time>2026-08-05T10:40:14.671Z</time>
      </trkpt>
      <trkpt lat="48.67416" lon="5.77283">
        <ele>250.99</ele>
        <time>2026-08-05T10:41:00.789Z</time>
      </trkpt>
      <trkpt lat="48.67411" lon="5.77266">
        <ele>250.99</ele>
        <time>2026-08-05T10:41:20.675Z</time>
      </trkpt>
      <trkpt lat="48.67407" lon="5.7725">
        <ele>250.99</ele>
        <time>2026-08-05T10:41:36.665Z</time>
      </trkpt>
      <trkpt lat="48.67402" lon="5.77234">
        <ele>250.99</ele>
        <time>2026-08-05T10:41:52.665Z</time>
      </trkpt>
      <trkpt lat="48.674" lon="5.77217">
        <ele>225.57</ele>
        <time>2026-08-05T10:42:07.725Z</time>
      </trkpt>
      <trkpt lat="48.67401" lon="5.77202">
        <ele>219.74</ele>
        <time>2026-08-05T10:42:27.666Z</time>
      </trkpt>
      <trkpt lat="48.6741" lon="5.77209">
        <ele>223.43</ele>
        <time>2026-08-05T10:42:59.693Z</time>
      </trkpt>
      <trkpt lat="48.67422" lon="5.77221">
        <ele>226.96</ele>
        <time>2026-08-05T10:43:41.668Z</time>
      </trkpt>
      <trkpt lat="48.67417" lon="5.77205">
        <ele>229.64</ele>
        <time>2026-08-05T10:43:50.674Z</time>
      </trkpt>
      <trkpt lat="48.67408" lon="5.77205">
        <ele>234.58</ele>
        <time>2026-08-05T10:43:59.696Z</time>
      </trkpt>
      <trkpt lat="48.67417" lon="5.77208">
        <ele>239.24</ele>
        <time>2026-08-05T10:44:06.680Z</time>
      </trkpt>
      <trkpt lat="48.67425" lon="5.77222">
        <ele>243.44</ele>
        <time>2026-08-05T10:44:26.677Z</time>
      </trkpt>
      <trkpt lat="48.67435" lon="5.77231">
        <ele>242.75</ele>
        <time>2026-08-05T10:44:44.680Z</time>
      </trkpt>
      <trkpt lat="48.67444" lon="5.77232">
        <ele>242.82</ele>
        <time>2026-08-05T10:44:57.681Z</time>
      </trkpt>
      <trkpt lat="48.67455" lon="5.77236">
        <ele>242.94</ele>
        <time>2026-08-05T10:45:13.745Z</time>
      </trkpt>
      <trkpt lat="48.67466" lon="5.77238">
        <ele>244.34</ele>
        <time>2026-08-05T10:45:24.694Z</time>
      </trkpt>
      <trkpt lat="48.67479" lon="5.77235">
        <ele>246.17</ele>
        <time>2026-08-05T10:45:42.697Z</time>
      </trkpt>
      <trkpt lat="48.67491" lon="5.77231">
        <ele>247.67</ele>
        <time>2026-08-05T10:45:59.682Z</time>
      </trkpt>
      <trkpt lat="48.67502" lon="5.77229">
        <ele>248.77</ele>
        <time>2026-08-05T10:46:10.682Z</time>
      </trkpt>
      <trkpt lat="48.67511" lon="5.77227">
        <ele>250.68</ele>
        <time>2026-08-05T10:46:20.682Z</time>
      </trkpt>
      <trkpt lat="48.67522" lon="5.77223">
        <ele>249.19</ele>
        <time>2026-08-05T10:46:33.682Z</time>
      </trkpt>
      <trkpt lat="48.67538" lon="5.77222">
        <ele>249.19</ele>
        <time>2026-08-05T10:47:04.695Z</time>
      </trkpt>
      <trkpt lat="48.67549" lon="5.77231">
        <ele>249.19</ele>
        <time>2026-08-05T10:47:10.699Z</time>
      </trkpt>
      <trkpt lat="48.67563" lon="5.77246">
        <ele>249.19</ele>
        <time>2026-08-05T10:47:16.702Z</time>
      </trkpt>
      <trkpt lat="48.67577" lon="5.77259">
        <ele>249.19</ele>
        <time>2026-08-05T10:47:22.701Z</time>
      </trkpt>
      <trkpt lat="48.67589" lon="5.77254">
        <ele>249.19</ele>
        <time>2026-08-05T10:47:28.690Z</time>
      </trkpt>
      <trkpt lat="48.67591" lon="5.77236">
        <ele>249.19</ele>
        <time>2026-08-05T10:47:33.697Z</time>
      </trkpt>
      <trkpt lat="48.67596" lon="5.77216">
        <ele>249.19</ele>
        <time>2026-08-05T10:47:39.696Z</time>
      </trkpt>
      <trkpt lat="48.67602" lon="5.77198">
        <ele>249.19</ele>
        <time>2026-08-05T10:47:44.697Z</time>
      </trkpt>
      <trkpt lat="48.67609" lon="5.77184">
        <ele>249.19</ele>
        <time>2026-08-05T10:47:49.733Z</time>
      </trkpt>
      <trkpt lat="48.67611" lon="5.7717">
        <ele>249.19</ele>
        <time>2026-08-05T10:47:55.750Z</time>
      </trkpt>
      <trkpt lat="48.67612" lon="5.77157">
        <ele>249.19</ele>
        <time>2026-08-05T10:48:02.687Z</time>
      </trkpt>
      <trkpt lat="48.67619" lon="5.77139">
        <ele>259.39</ele>
        <time>2026-08-05T10:48:26.697Z</time>
      </trkpt>
      <trkpt lat="48.67628" lon="5.77119">
        <ele>259.59</ele>
        <time>2026-08-05T10:48:31.735Z</time>
      </trkpt>
      <trkpt lat="48.67636" lon="5.77099">
        <ele>258.01</ele>
        <time>2026-08-05T10:48:37.735Z</time>
      </trkpt>
      <trkpt lat="48.67643" lon="5.77072">
        <ele>259.41</ele>
        <time>2026-08-05T10:48:43.761Z</time>
      </trkpt>
      <trkpt lat="48.6763" lon="5.77056">
        <ele>259.7</ele>
        <time>2026-08-05T10:48:49.731Z</time>
      </trkpt>
      <trkpt lat="48.67618" lon="5.77042">
        <ele>260.12</ele>
        <time>2026-08-05T10:48:55.748Z</time>
      </trkpt>
      <trkpt lat="48.67607" lon="5.77022">
        <ele>259.59</ele>
        <time>2026-08-05T10:49:01.735Z</time>
      </trkpt>
      <trkpt lat="48.6761" lon="5.77007">
        <ele>258.4</ele>
        <time>2026-08-05T10:49:07.742Z</time>
      </trkpt>
      <trkpt lat="48.67616" lon="5.76995">
        <ele>257.27</ele>
        <time>2026-08-05T10:49:14.696Z</time>
      </trkpt>
      <trkpt lat="48.67608" lon="5.76986">
        <ele>256.85</ele>
        <time>2026-08-05T10:49:20.689Z</time>
      </trkpt>
      <trkpt lat="48.676" lon="5.76991">
        <ele>256.66</ele>
        <time>2026-08-05T10:49:25.758Z</time>
      </trkpt>
      <trkpt lat="48.67589" lon="5.7699">
        <ele>257.1</ele>
        <time>2026-08-05T10:49:31.743Z</time>
      </trkpt>
      <trkpt lat="48.67578" lon="5.76981">
        <ele>258.42</ele>
        <time>2026-08-05T10:49:37.748Z</time>
      </trkpt>
      <trkpt lat="48.67566" lon="5.76965">
        <ele>257.05</ele>
        <time>2026-08-05T10:49:43.731Z</time>
      </trkpt>
      <trkpt lat="48.67555" lon="5.7695">
        <ele>255.96</ele>
        <time>2026-08-05T10:49:49.721Z</time>
      </trkpt>
      <trkpt lat="48.6754" lon="5.7693">
        <ele>255</ele>
        <time>2026-08-05T10:49:55.733Z</time>
      </trkpt>
      <trkpt lat="48.67527" lon="5.76912">
        <ele>253.86</ele>
        <time>2026-08-05T10:50:01.718Z</time>
      </trkpt>
      <trkpt lat="48.6751" lon="5.76887">
        <ele>252.32</ele>
        <time>2026-08-05T10:50:07.724Z</time>
      </trkpt>
      <trkpt lat="48.67513" lon="5.76865">
        <ele>251.49</ele>
        <time>2026-08-05T10:50:13.725Z</time>
      </trkpt>
      <trkpt lat="48.67526" lon="5.76845">
        <ele>249.83</ele>
        <time>2026-08-05T10:50:19.729Z</time>
      </trkpt>
      <trkpt lat="48.67542" lon="5.76814">
        <ele>247.17</ele>
        <time>2026-08-05T10:50:25.731Z</time>
      </trkpt>
      <trkpt lat="48.6756" lon="5.76776">
        <ele>247.73</ele>
        <time>2026-08-05T10:50:31.720Z</time>
      </trkpt>
      <trkpt lat="48.67581" lon="5.76733">
        <ele>245.95</ele>
        <time>2026-08-05T10:50:37.726Z</time>
      </trkpt>
      <trkpt lat="48.67603" lon="5.76685">
        <ele>242.19</ele>
        <time>2026-08-05T10:50:43.724Z</time>
      </trkpt>
      <trkpt lat="48.67626" lon="5.7664">
        <ele>240.92</ele>
        <time>2026-08-05T10:50:49.725Z</time>
      </trkpt>
      <trkpt lat="48.67645" lon="5.76593">
        <ele>238.14</ele>
        <time>2026-08-05T10:50:55.713Z</time>
      </trkpt>
      <trkpt lat="48.67664" lon="5.76549">
        <ele>234.24</ele>
        <time>2026-08-05T10:51:01.726Z</time>
      </trkpt>
      <trkpt lat="48.67681" lon="5.76512">
        <ele>229.81</ele>
        <time>2026-08-05T10:51:07.729Z</time>
      </trkpt>
      <trkpt lat="48.67692" lon="5.76489">
        <ele>227.38</ele>
        <time>2026-08-05T10:51:13.737Z</time>
      </trkpt>
      <trkpt lat="48.6772" lon="5.76463">
        <ele>222.88</ele>
        <time>2026-08-05T10:51:19.725Z</time>
      </trkpt>
      <trkpt lat="48.67749" lon="5.76443">
        <ele>222.58</ele>
        <time>2026-08-05T10:51:25.731Z</time>
      </trkpt>
      <trkpt lat="48.67782" lon="5.76454">
        <ele>218.52</ele>
        <time>2026-08-05T10:51:31.726Z</time>
      </trkpt>
      <trkpt lat="48.67806" lon="5.76484">
        <ele>215.32</ele>
        <time>2026-08-05T10:51:37.724Z</time>
      </trkpt>
      <trkpt lat="48.67828" lon="5.76515">
        <ele>213.56</ele>
        <time>2026-08-05T10:51:43.726Z</time>
      </trkpt>
      <trkpt lat="48.67851" lon="5.76528">
        <ele>209.35</ele>
        <time>2026-08-05T10:51:49.722Z</time>
      </trkpt>
      <trkpt lat="48.67887" lon="5.76499">
        <ele>205.85</ele>
        <time>2026-08-05T10:51:55.733Z</time>
      </trkpt>
      <trkpt lat="48.6793" lon="5.76472">
        <ele>203.88</ele>
        <time>2026-08-05T10:52:01.724Z</time>
      </trkpt>
      <trkpt lat="48.67955" lon="5.76453">
        <ele>203.51</ele>
        <time>2026-08-05T10:52:07.733Z</time>
      </trkpt>
      <trkpt lat="48.67964" lon="5.76432">
        <ele>204.51</ele>
        <time>2026-08-05T10:52:13.729Z</time>
      </trkpt>
      <trkpt lat="48.67962" lon="5.76447">
        <ele>206.17</ele>
        <time>2026-08-05T10:52:22.676Z</time>
      </trkpt>
      <trkpt lat="48.67964" lon="5.76434">
        <ele>207.39</ele>
        <time>2026-08-05T10:52:29.670Z</time>
      </trkpt>
      <trkpt lat="48.67962" lon="5.76406">
        <ele>207.38</ele>
        <time>2026-08-05T10:52:35.668Z</time>
      </trkpt>
      <trkpt lat="48.67966" lon="5.76365">
        <ele>205.41</ele>
        <time>2026-08-05T10:52:41.677Z</time>
      </trkpt>
      <trkpt lat="48.67973" lon="5.76326">
        <ele>258.07</ele>
        <time>2026-08-05T10:52:47.679Z</time>
      </trkpt>
      <trkpt lat="48.67983" lon="5.76284">
        <ele>258.9</ele>
        <time>2026-08-05T10:52:53.667Z</time>
      </trkpt>
      <trkpt lat="48.67995" lon="5.76245">
        <ele>258.9</ele>
        <time>2026-08-05T10:52:59.670Z</time>
      </trkpt>
      <trkpt lat="48.68011" lon="5.76211">
        <ele>258.9</ele>
        <time>2026-08-05T10:53:05.665Z</time>
      </trkpt>
      <trkpt lat="48.68033" lon="5.76174">
        <ele>258.9</ele>
        <time>2026-08-05T10:53:11.662Z</time>
      </trkpt>
      <trkpt lat="48.68052" lon="5.76146">
        <ele>258.9</ele>
        <time>2026-08-05T10:53:16.668Z</time>
      </trkpt>
      <trkpt lat="48.68074" lon="5.7611">
        <ele>258.9</ele>
        <time>2026-08-05T10:53:22.664Z</time>
      </trkpt>
      <trkpt lat="48.68092" lon="5.76078">
        <ele>258.9</ele>
        <time>2026-08-05T10:53:27.664Z</time>
      </trkpt>
      <trkpt lat="48.6811" lon="5.76048">
        <ele>258.91</ele>
        <time>2026-08-05T10:53:32.681Z</time>
      </trkpt>
      <trkpt lat="48.68125" lon="5.76022">
        <ele>258.91</ele>
        <time>2026-08-05T10:53:37.723Z</time>
      </trkpt>
      <trkpt lat="48.68143" lon="5.75991">
        <ele>258.91</ele>
        <time>2026-08-05T10:53:43.724Z</time>
      </trkpt>
      <trkpt lat="48.68158" lon="5.75964">
        <ele>258.91</ele>
        <time>2026-08-05T10:53:49.733Z</time>
      </trkpt>
      <trkpt lat="48.68173" lon="5.75933">
        <ele>258.91</ele>
        <time>2026-08-05T10:53:55.739Z</time>
      </trkpt>
      <trkpt lat="48.68187" lon="5.75895">
        <ele>258.91</ele>
        <time>2026-08-05T10:54:01.724Z</time>
      </trkpt>
      <trkpt lat="48.68201" lon="5.75853">
        <ele>258.91</ele>
        <time>2026-08-05T10:54:07.725Z</time>
      </trkpt>
      <trkpt lat="48.68213" lon="5.75815">
        <ele>258.91</ele>
        <time>2026-08-05T10:54:13.726Z</time>
      </trkpt>
      <trkpt lat="48.68224" lon="5.75789">
        <ele>198.36</ele>
        <time>2026-08-05T10:54:19.729Z</time>
      </trkpt>
      <trkpt lat="48.68239" lon="5.7578">
        <ele>198.23</ele>
        <time>2026-08-05T10:54:25.732Z</time>
      </trkpt>
      <trkpt lat="48.68248" lon="5.75772">
        <ele>252.81</ele>
        <time>2026-08-05T10:54:52.700Z</time>
      </trkpt>
      <trkpt lat="48.68239" lon="5.75783">
        <ele>252.81</ele>
        <time>2026-08-05T12:42:44.679Z</time>
      </trkpt>
      <trkpt lat="48.68228" lon="5.75782">
        <ele>253.48</ele>
        <time>2026-08-05T12:42:49.698Z</time>
      </trkpt>
      <trkpt lat="48.68228" lon="5.75768">
        <ele>253.71</ele>
        <time>2026-08-05T12:42:55.679Z</time>
      </trkpt>
      <trkpt lat="48.68237" lon="5.75752">
        <ele>253.71</ele>
        <time>2026-08-05T12:43:01.670Z</time>
      </trkpt>
      <trkpt lat="48.68244" lon="5.7573">
        <ele>253.71</ele>
        <time>2026-08-05T12:43:07.703Z</time>
      </trkpt>
      <trkpt lat="48.6825" lon="5.75704">
        <ele>253.71</ele>
        <time>2026-08-05T12:43:13.697Z</time>
      </trkpt>
      <trkpt lat="48.68258" lon="5.75682">
        <ele>253.71</ele>
        <time>2026-08-05T12:43:18.774Z</time>
      </trkpt>
      <trkpt lat="48.68265" lon="5.75656">
        <ele>253.71</ele>
        <time>2026-08-05T12:43:24.669Z</time>
      </trkpt>
      <trkpt lat="48.68272" lon="5.75635">
        <ele>253.71</ele>
        <time>2026-08-05T12:43:30.155Z</time>
      </trkpt>
      <trkpt lat="48.68279" lon="5.75613">
        <ele>253.71</ele>
        <time>2026-08-05T12:43:35.695Z</time>
      </trkpt>
      <trkpt lat="48.68286" lon="5.75592">
        <ele>253.71</ele>
        <time>2026-08-05T12:43:41.667Z</time>
      </trkpt>
      <trkpt lat="48.68295" lon="5.75574">
        <ele>253.71</ele>
        <time>2026-08-05T12:43:46.680Z</time>
      </trkpt>
      <trkpt lat="48.683" lon="5.75551">
        <ele>253.71</ele>
        <time>2026-08-05T12:43:52.671Z</time>
      </trkpt>
      <trkpt lat="48.68304" lon="5.75531">
        <ele>253.71</ele>
        <time>2026-08-05T12:43:57.673Z</time>
      </trkpt>
      <trkpt lat="48.6831" lon="5.75509">
        <ele>253.71</ele>
        <time>2026-08-05T12:44:03.675Z</time>
      </trkpt>
      <trkpt lat="48.68313" lon="5.75491">
        <ele>253.71</ele>
        <time>2026-08-05T12:44:08.677Z</time>
      </trkpt>
      <trkpt lat="48.68315" lon="5.75471">
        <ele>253.71</ele>
        <time>2026-08-05T12:44:13.703Z</time>
      </trkpt>
      <trkpt lat="48.68314" lon="5.75448">
        <ele>211.47</ele>
        <time>2026-08-05T12:44:19.699Z</time>
      </trkpt>
      <trkpt lat="48.68307" lon="5.75426">
        <ele>208.16</ele>
        <time>2026-08-05T12:44:25.668Z</time>
      </trkpt>
      <trkpt lat="48.68299" lon="5.75411">
        <ele>208.44</ele>
        <time>2026-08-05T12:44:30.671Z</time>
      </trkpt>
      <trkpt lat="48.6829" lon="5.75396">
        <ele>209.78</ele>
        <time>2026-08-05T12:44:35.679Z</time>
      </trkpt>
      <trkpt lat="48.68282" lon="5.75382">
        <ele>210.65</ele>
        <time>2026-08-05T12:44:40.680Z</time>
      </trkpt>
      <trkpt lat="48.6827" lon="5.75366">
        <ele>212.44</ele>
        <time>2026-08-05T12:44:46.667Z</time>
      </trkpt>
      <trkpt lat="48.6826" lon="5.75354">
        <ele>213</ele>
        <time>2026-08-05T12:44:51.670Z</time>
      </trkpt>
      <trkpt lat="48.68249" lon="5.75341">
        <ele>215.21</ele>
        <time>2026-08-05T12:44:56.684Z</time>
      </trkpt>
      <trkpt lat="48.68237" lon="5.75327">
        <ele>216.93</ele>
        <time>2026-08-05T12:45:02.680Z</time>
      </trkpt>
      <trkpt lat="48.68229" lon="5.75312">
        <ele>218.49</ele>
        <time>2026-08-05T12:45:07.712Z</time>
      </trkpt>
      <trkpt lat="48.68218" lon="5.75297">
        <ele>218.58</ele>
        <time>2026-08-05T12:45:13.717Z</time>
      </trkpt>
      <trkpt lat="48.68206" lon="5.75281">
        <ele>218.7</ele>
        <time>2026-08-05T12:45:19.710Z</time>
      </trkpt>
      <trkpt lat="48.68194" lon="5.75267">
        <ele>219.87</ele>
        <time>2026-08-05T12:45:25.680Z</time>
      </trkpt>
      <trkpt lat="48.68184" lon="5.75252">
        <ele>221.16</ele>
        <time>2026-08-05T12:45:31.673Z</time>
      </trkpt>
      <trkpt lat="48.68174" lon="5.75242">
        <ele>221.32</ele>
        <time>2026-08-05T12:45:36.675Z</time>
      </trkpt>
      <trkpt lat="48.68163" lon="5.75227">
        <ele>222.93</ele>
        <time>2026-08-05T12:45:42.675Z</time>
      </trkpt>
      <trkpt lat="48.68152" lon="5.75212">
        <ele>223.65</ele>
        <time>2026-08-05T12:45:48.675Z</time>
      </trkpt>
      <trkpt lat="48.68141" lon="5.75197">
        <ele>224.13</ele>
        <time>2026-08-05T12:45:54.675Z</time>
      </trkpt>
      <trkpt lat="48.6813" lon="5.75185">
        <ele>224.43</ele>
        <time>2026-08-05T12:46:00.669Z</time>
      </trkpt>
      <trkpt lat="48.68121" lon="5.75174">
        <ele>225.06</ele>
        <time>2026-08-05T12:46:05.679Z</time>
      </trkpt>
      <trkpt lat="48.68109" lon="5.75159">
        <ele>226.62</ele>
        <time>2026-08-05T12:46:11.672Z</time>
      </trkpt>
      <trkpt lat="48.68098" lon="5.75147">
        <ele>228.48</ele>
        <time>2026-08-05T12:46:17.680Z</time>
      </trkpt>
      <trkpt lat="48.68087" lon="5.75133">
        <ele>227.67</ele>
        <time>2026-08-05T12:46:23.684Z</time>
      </trkpt>
      <trkpt lat="48.68077" lon="5.75122">
        <ele>229.49</ele>
        <time>2026-08-05T12:46:29.670Z</time>
      </trkpt>
      <trkpt lat="48.68068" lon="5.75111">
        <ele>230.6</ele>
        <time>2026-08-05T12:46:34.675Z</time>
      </trkpt>
      <trkpt lat="48.68058" lon="5.751">
        <ele>229.53</ele>
        <time>2026-08-05T12:46:39.680Z</time>
      </trkpt>
      <trkpt lat="48.68047" lon="5.75085">
        <ele>229.41</ele>
        <time>2026-08-05T12:46:45.675Z</time>
      </trkpt>
      <trkpt lat="48.68039" lon="5.75071">
        <ele>230.21</ele>
        <time>2026-08-05T12:46:50.675Z</time>
      </trkpt>
      <trkpt lat="48.68035" lon="5.7505">
        <ele>231.38</ele>
        <time>2026-08-05T12:46:56.671Z</time>
      </trkpt>
      <trkpt lat="48.68035" lon="5.75028">
        <ele>231.6</ele>
        <time>2026-08-05T12:47:02.677Z</time>
      </trkpt>
      <trkpt lat="48.68037" lon="5.7501">
        <ele>232.07</ele>
        <time>2026-08-05T12:47:07.719Z</time>
      </trkpt>
      <trkpt lat="48.68044" lon="5.74994">
        <ele>231.46</ele>
        <time>2026-08-05T12:47:13.719Z</time>
      </trkpt>
      <trkpt lat="48.68054" lon="5.74978">
        <ele>231.39</ele>
        <time>2026-08-05T12:47:19.707Z</time>
      </trkpt>
      <trkpt lat="48.68067" lon="5.74964">
        <ele>231.99</ele>
        <time>2026-08-05T12:47:25.746Z</time>
      </trkpt>
      <trkpt lat="48.6808" lon="5.74951">
        <ele>233.02</ele>
        <time>2026-08-05T12:47:31.677Z</time>
      </trkpt>
      <trkpt lat="48.68095" lon="5.74944">
        <ele>233.46</ele>
        <time>2026-08-05T12:47:37.713Z</time>
      </trkpt>
      <trkpt lat="48.68109" lon="5.74935">
        <ele>234.26</ele>
        <time>2026-08-05T12:47:43.720Z</time>
      </trkpt>
      <trkpt lat="48.68123" lon="5.74926">
        <ele>234.44</ele>
        <time>2026-08-05T12:47:49.714Z</time>
      </trkpt>
      <trkpt lat="48.68139" lon="5.74916">
        <ele>235.5</ele>
        <time>2026-08-05T12:47:55.673Z</time>
      </trkpt>
      <trkpt lat="48.68154" lon="5.74904">
        <ele>235.23</ele>
        <time>2026-08-05T12:48:01.673Z</time>
      </trkpt>
      <trkpt lat="48.68167" lon="5.74889">
        <ele>234.65</ele>
        <time>2026-08-05T12:48:06.685Z</time>
      </trkpt>
      <trkpt lat="48.68181" lon="5.74866">
        <ele>233.99</ele>
        <time>2026-08-05T12:48:12.678Z</time>
      </trkpt>
      <trkpt lat="48.68192" lon="5.74834">
        <ele>234.38</ele>
        <time>2026-08-05T12:48:18.670Z</time>
      </trkpt>
      <trkpt lat="48.682" lon="5.74796">
        <ele>234.46</ele>
        <time>2026-08-05T12:48:24.672Z</time>
      </trkpt>
      <trkpt lat="48.68205" lon="5.74752">
        <ele>233.4</ele>
        <time>2026-08-05T12:48:30.679Z</time>
      </trkpt>
      <trkpt lat="48.68211" lon="5.74703">
        <ele>232.39</ele>
        <time>2026-08-05T12:48:36.668Z</time>
      </trkpt>
      <trkpt lat="48.68216" lon="5.74662">
        <ele>231.46</ele>
        <time>2026-08-05T12:48:41.679Z</time>
      </trkpt>
      <trkpt lat="48.68223" lon="5.74611">
        <ele>231.53</ele>
        <time>2026-08-05T12:48:47.669Z</time>
      </trkpt>
      <trkpt lat="48.68229" lon="5.74567">
        <ele>230.49</ele>
        <time>2026-08-05T12:48:52.669Z</time>
      </trkpt>
      <trkpt lat="48.68234" lon="5.74521">
        <ele>229.63</ele>
        <time>2026-08-05T12:48:57.670Z</time>
      </trkpt>
      <trkpt lat="48.6824" lon="5.74475">
        <ele>229.05</ele>
        <time>2026-08-05T12:49:02.682Z</time>
      </trkpt>
      <trkpt lat="48.68246" lon="5.74428">
        <ele>228.9</ele>
        <time>2026-08-05T12:49:07.738Z</time>
      </trkpt>
      <trkpt lat="48.68254" lon="5.74371">
        <ele>228.17</ele>
        <time>2026-08-05T12:49:13.730Z</time>
      </trkpt>
      <trkpt lat="48.68261" lon="5.74313">
        <ele>225.71</ele>
        <time>2026-08-05T12:49:19.736Z</time>
      </trkpt>
      <trkpt lat="48.68268" lon="5.74255">
        <ele>223.93</ele>
        <time>2026-08-05T12:49:25.672Z</time>
      </trkpt>
      <trkpt lat="48.68275" lon="5.74204">
        <ele>223.02</ele>
        <time>2026-08-05T12:49:31.672Z</time>
      </trkpt>
      <trkpt lat="48.6828" lon="5.74165">
        <ele>222.96</ele>
        <time>2026-08-05T12:49:36.680Z</time>
      </trkpt>
      <trkpt lat="48.68285" lon="5.74125">
        <ele>221.97</ele>
        <time>2026-08-05T12:49:41.680Z</time>
      </trkpt>
      <trkpt lat="48.68291" lon="5.74073">
        <ele>221.5</ele>
        <time>2026-08-05T12:49:47.673Z</time>
      </trkpt>
      <trkpt lat="48.68298" lon="5.74016">
        <ele>221.22</ele>
        <time>2026-08-05T12:49:53.671Z</time>
      </trkpt>
      <trkpt lat="48.68306" lon="5.73957">
        <ele>220.57</ele>
        <time>2026-08-05T12:49:59.671Z</time>
      </trkpt>
      <trkpt lat="48.68313" lon="5.73899">
        <ele>218.6</ele>
        <time>2026-08-05T12:50:05.672Z</time>
      </trkpt>
      <trkpt lat="48.6832" lon="5.73839">
        <ele>217.31</ele>
        <time>2026-08-05T12:50:11.673Z</time>
      </trkpt>
      <trkpt lat="48.68327" lon="5.73782">
        <ele>215.37</ele>
        <time>2026-08-05T12:50:17.683Z</time>
      </trkpt>
      <trkpt lat="48.68334" lon="5.73723">
        <ele>214.3</ele>
        <time>2026-08-05T12:50:23.673Z</time>
      </trkpt>
      <trkpt lat="48.68343" lon="5.73662">
        <ele>212.54</ele>
        <time>2026-08-05T12:50:29.672Z</time>
      </trkpt>
      <trkpt lat="48.68352" lon="5.736">
        <ele>210.5</ele>
        <time>2026-08-05T12:50:35.676Z</time>
      </trkpt>
      <trkpt lat="48.68361" lon="5.73536">
        <ele>209.38</ele>
        <time>2026-08-05T12:50:41.694Z</time>
      </trkpt>
      <trkpt lat="48.68371" lon="5.7347">
        <ele>208.75</ele>
        <time>2026-08-05T12:50:47.673Z</time>
      </trkpt>
      <trkpt lat="48.6838" lon="5.73401">
        <ele>206.08</ele>
        <time>2026-08-05T12:50:53.674Z</time>
      </trkpt>
      <trkpt lat="48.68391" lon="5.73329">
        <ele>203.26</ele>
        <time>2026-08-05T12:50:59.673Z</time>
      </trkpt>
      <trkpt lat="48.68402" lon="5.73254">
        <ele>200.94</ele>
        <time>2026-08-05T12:51:05.673Z</time>
      </trkpt>
      <trkpt lat="48.68413" lon="5.73194">
        <ele>199.14</ele>
        <time>2026-08-05T12:51:10.683Z</time>
      </trkpt>
      <trkpt lat="48.68425" lon="5.7312">
        <ele>198.29</ele>
        <time>2026-08-05T12:51:16.673Z</time>
      </trkpt>
      <trkpt lat="48.68436" lon="5.73061">
        <ele>197.89</ele>
        <time>2026-08-05T12:51:21.674Z</time>
      </trkpt>
      <trkpt lat="48.68454" lon="5.72991">
        <ele>198.09</ele>
        <time>2026-08-05T12:51:27.676Z</time>
      </trkpt>
      <trkpt lat="48.6847" lon="5.7294">
        <ele>197.96</ele>
        <time>2026-08-05T12:51:32.680Z</time>
      </trkpt>
      <trkpt lat="48.68485" lon="5.72889">
        <ele>197.97</ele>
        <time>2026-08-05T12:51:37.727Z</time>
      </trkpt>
      <trkpt lat="48.68504" lon="5.7283">
        <ele>197.27</ele>
        <time>2026-08-05T12:51:43.723Z</time>
      </trkpt>
      <trkpt lat="48.68522" lon="5.72774">
        <ele>196.99</ele>
        <time>2026-08-05T12:51:49.733Z</time>
      </trkpt>
      <trkpt lat="48.68539" lon="5.72719">
        <ele>197.13</ele>
        <time>2026-08-05T12:51:55.671Z</time>
      </trkpt>
      <trkpt lat="48.68552" lon="5.72676">
        <ele>197.5</ele>
        <time>2026-08-05T12:52:00.672Z</time>
      </trkpt>
      <trkpt lat="48.68564" lon="5.72635">
        <ele>196.2</ele>
        <time>2026-08-05T12:52:05.675Z</time>
      </trkpt>
      <trkpt lat="48.68576" lon="5.72597">
        <ele>194.47</ele>
        <time>2026-08-05T12:52:10.675Z</time>
      </trkpt>
      <trkpt lat="48.68588" lon="5.7255">
        <ele>194.39</ele>
        <time>2026-08-05T12:52:16.674Z</time>
      </trkpt>
      <trkpt lat="48.68604" lon="5.72511">
        <ele>192.64</ele>
        <time>2026-08-05T12:52:22.675Z</time>
      </trkpt>
      <trkpt lat="48.68613" lon="5.72479">
        <ele>191.67</ele>
        <time>2026-08-05T12:52:27.680Z</time>
      </trkpt>
      <trkpt lat="48.68624" lon="5.72445">
        <ele>191.43</ele>
        <time>2026-08-05T12:52:32.685Z</time>
      </trkpt>
      <trkpt lat="48.68634" lon="5.72411">
        <ele>192.54</ele>
        <time>2026-08-05T12:52:37.731Z</time>
      </trkpt>
      <trkpt lat="48.68645" lon="5.7237">
        <ele>192.35</ele>
        <time>2026-08-05T12:52:43.733Z</time>
      </trkpt>
      <trkpt lat="48.68657" lon="5.72331">
        <ele>191.6</ele>
        <time>2026-08-05T12:52:49.729Z</time>
      </trkpt>
      <trkpt lat="48.6867" lon="5.72293">
        <ele>190.84</ele>
        <time>2026-08-05T12:52:55.733Z</time>
      </trkpt>
      <trkpt lat="48.68682" lon="5.72253">
        <ele>191.51</ele>
        <time>2026-08-05T12:53:01.736Z</time>
      </trkpt>
      <trkpt lat="48.68694" lon="5.72212">
        <ele>191.43</ele>
        <time>2026-08-05T12:53:07.735Z</time>
      </trkpt>
      <trkpt lat="48.68706" lon="5.72173">
        <ele>191.21</ele>
        <time>2026-08-05T12:53:13.736Z</time>
      </trkpt>
      <trkpt lat="48.68719" lon="5.72136">
        <ele>190.64</ele>
        <time>2026-08-05T12:53:19.736Z</time>
      </trkpt>
      <trkpt lat="48.68729" lon="5.72098">
        <ele>190.45</ele>
        <time>2026-08-05T12:53:25.698Z</time>
      </trkpt>
      <trkpt lat="48.68741" lon="5.7206">
        <ele>192.2</ele>
        <time>2026-08-05T12:53:31.736Z</time>
      </trkpt>
      <trkpt lat="48.68755" lon="5.72019">
        <ele>192.78</ele>
        <time>2026-08-05T12:53:37.732Z</time>
      </trkpt>
      <trkpt lat="48.68768" lon="5.71983">
        <ele>192.43</ele>
        <time>2026-08-05T12:53:43.729Z</time>
      </trkpt>
      <trkpt lat="48.68781" lon="5.71955">
        <ele>192.6</ele>
        <time>2026-08-05T12:53:49.730Z</time>
      </trkpt>
      <trkpt lat="48.68794" lon="5.71936">
        <ele>193.15</ele>
        <time>2026-08-05T12:53:55.742Z</time>
      </trkpt>
      <trkpt lat="48.68804" lon="5.71917">
        <ele>195.39</ele>
        <time>2026-08-05T12:54:01.711Z</time>
      </trkpt>
      <trkpt lat="48.68807" lon="5.71889">
        <ele>198.51</ele>
        <time>2026-08-05T12:54:07.730Z</time>
      </trkpt>
      <trkpt lat="48.68806" lon="5.71861">
        <ele>198.65</ele>
        <time>2026-08-05T12:54:13.732Z</time>
      </trkpt>
      <trkpt lat="48.68805" lon="5.71834">
        <ele>199.22</ele>
        <time>2026-08-05T12:54:19.729Z</time>
      </trkpt>
      <trkpt lat="48.68806" lon="5.71803">
        <ele>200.3</ele>
        <time>2026-08-05T12:54:25.747Z</time>
      </trkpt>
      <trkpt lat="48.6881" lon="5.71775">
        <ele>201.02</ele>
        <time>2026-08-05T12:54:31.710Z</time>
      </trkpt>
      <trkpt lat="48.68816" lon="5.71746">
        <ele>200.43</ele>
        <time>2026-08-05T12:54:37.739Z</time>
      </trkpt>
      <trkpt lat="48.68823" lon="5.71713">
        <ele>198.98</ele>
        <time>2026-08-05T12:54:43.732Z</time>
      </trkpt>
      <trkpt lat="48.68837" lon="5.71677">
        <ele>199.07</ele>
        <time>2026-08-05T12:54:49.730Z</time>
      </trkpt>
      <trkpt lat="48.68852" lon="5.71642">
        <ele>198.32</ele>
        <time>2026-08-05T12:54:55.744Z</time>
      </trkpt>
      <trkpt lat="48.68873" lon="5.71606">
        <ele>195.16</ele>
        <time>2026-08-05T12:55:01.671Z</time>
      </trkpt>
      <trkpt lat="48.68896" lon="5.71565">
        <ele>195.02</ele>
        <time>2026-08-05T12:55:07.734Z</time>
      </trkpt>
      <trkpt lat="48.68921" lon="5.71524">
        <ele>193.73</ele>
        <time>2026-08-05T12:55:13.736Z</time>
      </trkpt>
      <trkpt lat="48.68949" lon="5.7148">
        <ele>194.94</ele>
        <time>2026-08-05T12:55:19.734Z</time>
      </trkpt>
      <trkpt lat="48.68975" lon="5.71439">
        <ele>195.06</ele>
        <time>2026-08-05T12:55:25.743Z</time>
      </trkpt>
      <trkpt lat="48.68991" lon="5.71399">
        <ele>194.88</ele>
        <time>2026-08-05T12:55:31.739Z</time>
      </trkpt>
      <trkpt lat="48.68996" lon="5.7136">
        <ele>196.43</ele>
        <time>2026-08-05T12:55:37.734Z</time>
      </trkpt>
      <trkpt lat="48.68992" lon="5.71321">
        <ele>196.42</ele>
        <time>2026-08-05T12:55:43.740Z</time>
      </trkpt>
      <trkpt lat="48.68989" lon="5.71281">
        <ele>197.61</ele>
        <time>2026-08-05T12:55:49.739Z</time>
      </trkpt>
      <trkpt lat="48.68986" lon="5.71237">
        <ele>199.2</ele>
        <time>2026-08-05T12:55:55.683Z</time>
      </trkpt>
      <trkpt lat="48.68983" lon="5.71188">
        <ele>197.95</ele>
        <time>2026-08-05T12:56:01.732Z</time>
      </trkpt>
      <trkpt lat="48.68982" lon="5.71134">
        <ele>195.66</ele>
        <time>2026-08-05T12:56:07.735Z</time>
      </trkpt>
      <trkpt lat="48.68984" lon="5.71077">
        <ele>194.48</ele>
        <time>2026-08-05T12:56:13.746Z</time>
      </trkpt>
      <trkpt lat="48.68984" lon="5.71021">
        <ele>194.17</ele>
        <time>2026-08-05T12:56:19.741Z</time>
      </trkpt>
      <trkpt lat="48.68984" lon="5.70966">
        <ele>194.65</ele>
        <time>2026-08-05T12:56:25.675Z</time>
      </trkpt>
      <trkpt lat="48.68986" lon="5.70913">
        <ele>193.59</ele>
        <time>2026-08-05T12:56:31.716Z</time>
      </trkpt>
      <trkpt lat="48.68986" lon="5.7086">
        <ele>193.07</ele>
        <time>2026-08-05T12:56:37.740Z</time>
      </trkpt>
      <trkpt lat="48.68986" lon="5.70807">
        <ele>192.18</ele>
        <time>2026-08-05T12:56:43.743Z</time>
      </trkpt>
      <trkpt lat="48.68987" lon="5.70755">
        <ele>192.4</ele>
        <time>2026-08-05T12:56:49.753Z</time>
      </trkpt>
      <trkpt lat="48.68989" lon="5.70707">
        <ele>191.5</ele>
        <time>2026-08-05T12:56:55.747Z</time>
      </trkpt>
      <trkpt lat="48.6899" lon="5.70657">
        <ele>190.85</ele>
        <time>2026-08-05T12:57:01.746Z</time>
      </trkpt>
      <trkpt lat="48.68991" lon="5.70609">
        <ele>192.06</ele>
        <time>2026-08-05T12:57:07.751Z</time>
      </trkpt>
      <trkpt lat="48.68993" lon="5.70559">
        <ele>194.19</ele>
        <time>2026-08-05T12:57:13.745Z</time>
      </trkpt>
      <trkpt lat="48.68993" lon="5.70506">
        <ele>194.92</ele>
        <time>2026-08-05T12:57:19.738Z</time>
      </trkpt>
      <trkpt lat="48.68993" lon="5.70454">
        <ele>194.47</ele>
        <time>2026-08-05T12:57:25.738Z</time>
      </trkpt>
      <trkpt lat="48.68995" lon="5.70403">
        <ele>194.32</ele>
        <time>2026-08-05T12:57:31.728Z</time>
      </trkpt>
      <trkpt lat="48.68995" lon="5.70354">
        <ele>194.02</ele>
        <time>2026-08-05T12:57:37.738Z</time>
      </trkpt>
      <trkpt lat="48.68996" lon="5.70304">
        <ele>194.65</ele>
        <time>2026-08-05T12:57:43.741Z</time>
      </trkpt>
      <trkpt lat="48.68997" lon="5.70254">
        <ele>195.97</ele>
        <time>2026-08-05T12:57:49.739Z</time>
      </trkpt>
      <trkpt lat="48.68998" lon="5.70206">
        <ele>195.95</ele>
        <time>2026-08-05T12:57:55.736Z</time>
      </trkpt>
      <trkpt lat="48.69" lon="5.70161">
        <ele>195.82</ele>
        <time>2026-08-05T12:58:01.730Z</time>
      </trkpt>
      <trkpt lat="48.69003" lon="5.70113">
        <ele>195.22</ele>
        <time>2026-08-05T12:58:07.738Z</time>
      </trkpt>
      <trkpt lat="48.69006" lon="5.70066">
        <ele>195.79</ele>
        <time>2026-08-05T12:58:13.742Z</time>
      </trkpt>
      <trkpt lat="48.69009" lon="5.70021">
        <ele>195.15</ele>
        <time>2026-08-05T12:58:19.729Z</time>
      </trkpt>
      <trkpt lat="48.69012" lon="5.69973">
        <ele>195.6</ele>
        <time>2026-08-05T12:58:25.746Z</time>
      </trkpt>
      <trkpt lat="48.69015" lon="5.69927">
        <ele>196.12</ele>
        <time>2026-08-05T12:58:31.712Z</time>
      </trkpt>
      <trkpt lat="48.69017" lon="5.69881">
        <ele>195.1</ele>
        <time>2026-08-05T12:58:37.747Z</time>
      </trkpt>
      <trkpt lat="48.69019" lon="5.69834">
        <ele>195.55</ele>
        <time>2026-08-05T12:58:43.742Z</time>
      </trkpt>
      <trkpt lat="48.69019" lon="5.69791">
        <ele>194.61</ele>
        <time>2026-08-05T12:58:49.737Z</time>
      </trkpt>
      <trkpt lat="48.6902" lon="5.69749">
        <ele>195.43</ele>
        <time>2026-08-05T12:58:55.755Z</time>
      </trkpt>
      <trkpt lat="48.69021" lon="5.69707">
        <ele>195.24</ele>
        <time>2026-08-05T12:59:01.718Z</time>
      </trkpt>
      <trkpt lat="48.69021" lon="5.69666">
        <ele>194.85</ele>
        <time>2026-08-05T12:59:07.737Z</time>
      </trkpt>
      <trkpt lat="48.69021" lon="5.69627">
        <ele>197.22</ele>
        <time>2026-08-05T12:59:13.736Z</time>
      </trkpt>
      <trkpt lat="48.69025" lon="5.69589">
        <ele>198.67</ele>
        <time>2026-08-05T12:59:19.745Z</time>
      </trkpt>
      <trkpt lat="48.69033" lon="5.6955">
        <ele>199.19</ele>
        <time>2026-08-05T12:59:25.736Z</time>
      </trkpt>
      <trkpt lat="48.69047" lon="5.69518">
        <ele>198.58</ele>
        <time>2026-08-05T12:59:31.735Z</time>
      </trkpt>
      <trkpt lat="48.69067" lon="5.69491">
        <ele>198.35</ele>
        <time>2026-08-05T12:59:37.744Z</time>
      </trkpt>
      <trkpt lat="48.6909" lon="5.69471">
        <ele>198.92</ele>
        <time>2026-08-05T12:59:43.746Z</time>
      </trkpt>
      <trkpt lat="48.69111" lon="5.69455">
        <ele>200.58</ele>
        <time>2026-08-05T12:59:49.729Z</time>
      </trkpt>
      <trkpt lat="48.6913" lon="5.69439">
        <ele>201.2</ele>
        <time>2026-08-05T12:59:55.735Z</time>
      </trkpt>
      <trkpt lat="48.69131" lon="5.69409">
        <ele>202.89</ele>
        <time>2026-08-05T13:00:01.741Z</time>
      </trkpt>
      <trkpt lat="48.69131" lon="5.69378">
        <ele>205.09</ele>
        <time>2026-08-05T13:00:07.733Z</time>
      </trkpt>
      <trkpt lat="48.6913" lon="5.69349">
        <ele>207.43</ele>
        <time>2026-08-05T13:00:13.730Z</time>
      </trkpt>
      <trkpt lat="48.6913" lon="5.69323">
        <ele>208.9</ele>
        <time>2026-08-05T13:00:19.733Z</time>
      </trkpt>
      <trkpt lat="48.6913" lon="5.69296">
        <ele>209.78</ele>
        <time>2026-08-05T13:00:25.730Z</time>
      </trkpt>
      <trkpt lat="48.69131" lon="5.6927">
        <ele>211.75</ele>
        <time>2026-08-05T13:00:31.738Z</time>
      </trkpt>
      <trkpt lat="48.69131" lon="5.69245">
        <ele>212.88</ele>
        <time>2026-08-05T13:00:37.747Z</time>
      </trkpt>
      <trkpt lat="48.69131" lon="5.69219">
        <ele>213.32</ele>
        <time>2026-08-05T13:00:43.730Z</time>
      </trkpt>
      <trkpt lat="48.69131" lon="5.69196">
        <ele>214.01</ele>
        <time>2026-08-05T13:00:49.733Z</time>
      </trkpt>
      <trkpt lat="48.69131" lon="5.69174">
        <ele>214.1</ele>
        <time>2026-08-05T13:00:55.716Z</time>
      </trkpt>
      <trkpt lat="48.69132" lon="5.69152">
        <ele>214.51</ele>
        <time>2026-08-05T13:01:01.717Z</time>
      </trkpt>
      <trkpt lat="48.69131" lon="5.69129">
        <ele>214.7</ele>
        <time>2026-08-05T13:01:07.745Z</time>
      </trkpt>
      <trkpt lat="48.69131" lon="5.69107">
        <ele>216.05</ele>
        <time>2026-08-05T13:01:13.730Z</time>
      </trkpt>
      <trkpt lat="48.69131" lon="5.69084">
        <ele>216.81</ele>
        <time>2026-08-05T13:01:19.741Z</time>
      </trkpt>
      <trkpt lat="48.69131" lon="5.69062">
        <ele>217.21</ele>
        <time>2026-08-05T13:01:25.734Z</time>
      </trkpt>
      <trkpt lat="48.69132" lon="5.69041">
        <ele>218.18</ele>
        <time>2026-08-05T13:01:31.743Z</time>
      </trkpt>
      <trkpt lat="48.69132" lon="5.69017">
        <ele>218.71</ele>
        <time>2026-08-05T13:01:37.736Z</time>
      </trkpt>
      <trkpt lat="48.69132" lon="5.68993">
        <ele>219.41</ele>
        <time>2026-08-05T13:01:43.738Z</time>
      </trkpt>
      <trkpt lat="48.69132" lon="5.6897">
        <ele>219.61</ele>
        <time>2026-08-05T13:01:49.738Z</time>
      </trkpt>
      <trkpt lat="48.69132" lon="5.68946">
        <ele>220.03</ele>
        <time>2026-08-05T13:01:55.731Z</time>
      </trkpt>
      <trkpt lat="48.69132" lon="5.68922">
        <ele>219.72</ele>
        <time>2026-08-05T13:02:01.729Z</time>
      </trkpt>
      <trkpt lat="48.69132" lon="5.68898">
        <ele>220.26</ele>
        <time>2026-08-05T13:02:07.732Z</time>
      </trkpt>
      <trkpt lat="48.69133" lon="5.68874">
        <ele>222.22</ele>
        <time>2026-08-05T13:02:13.730Z</time>
      </trkpt>
      <trkpt lat="48.69133" lon="5.68849">
        <ele>221.86</ele>
        <time>2026-08-05T13:02:19.733Z</time>
      </trkpt>
      <trkpt lat="48.69133" lon="5.68823">
        <ele>221.56</ele>
        <time>2026-08-05T13:02:25.745Z</time>
      </trkpt>
      <trkpt lat="48.69133" lon="5.68797">
        <ele>221.34</ele>
        <time>2026-08-05T13:02:31.707Z</time>
      </trkpt>
      <trkpt lat="48.69133" lon="5.6877">
        <ele>221.64</ele>
        <time>2026-08-05T13:02:37.733Z</time>
      </trkpt>
      <trkpt lat="48.69133" lon="5.68743">
        <ele>221.8</ele>
        <time>2026-08-05T13:02:43.734Z</time>
      </trkpt>
      <trkpt lat="48.69133" lon="5.68715">
        <ele>221.34</ele>
        <time>2026-08-05T13:02:49.737Z</time>
      </trkpt>
      <trkpt lat="48.69133" lon="5.68686">
        <ele>222.12</ele>
        <time>2026-08-05T13:02:55.737Z</time>
      </trkpt>
      <trkpt lat="48.69133" lon="5.68654">
        <ele>222.91</ele>
        <time>2026-08-05T13:03:01.706Z</time>
      </trkpt>
      <trkpt lat="48.69133" lon="5.68622">
        <ele>223.83</ele>
        <time>2026-08-05T13:03:07.734Z</time>
      </trkpt>
      <trkpt lat="48.69134" lon="5.6859">
        <ele>224.1</ele>
        <time>2026-08-05T13:03:13.732Z</time>
      </trkpt>
      <trkpt lat="48.69135" lon="5.6856">
        <ele>225.09</ele>
        <time>2026-08-05T13:03:19.740Z</time>
      </trkpt>
      <trkpt lat="48.69137" lon="5.6853">
        <ele>225.56</ele>
        <time>2026-08-05T13:03:25.730Z</time>
      </trkpt>
      <trkpt lat="48.69139" lon="5.68501">
        <ele>226.39</ele>
        <time>2026-08-05T13:03:31.708Z</time>
      </trkpt>
      <trkpt lat="48.69141" lon="5.68474">
        <ele>226.71</ele>
        <time>2026-08-05T13:03:37.729Z</time>
      </trkpt>
      <trkpt lat="48.69144" lon="5.68446">
        <ele>227.42</ele>
        <time>2026-08-05T13:03:43.739Z</time>
      </trkpt>
      <trkpt lat="48.69147" lon="5.68418">
        <ele>228.02</ele>
        <time>2026-08-05T13:03:49.736Z</time>
      </trkpt>
      <trkpt lat="48.6915" lon="5.68391">
        <ele>228.76</ele>
        <time>2026-08-05T13:03:55.731Z</time>
      </trkpt>
      <trkpt lat="48.69154" lon="5.68362">
        <ele>229.38</ele>
        <time>2026-08-05T13:04:01.730Z</time>
      </trkpt>
      <trkpt lat="48.69159" lon="5.68334">
        <ele>229.81</ele>
        <time>2026-08-05T13:04:07.738Z</time>
      </trkpt>
      <trkpt lat="48.69164" lon="5.68305">
        <ele>232.04</ele>
        <time>2026-08-05T13:04:13.731Z</time>
      </trkpt>
      <trkpt lat="48.6917" lon="5.68277">
        <ele>233.87</ele>
        <time>2026-08-05T13:04:19.734Z</time>
      </trkpt>
      <trkpt lat="48.69176" lon="5.68248">
        <ele>234.28</ele>
        <time>2026-08-05T13:04:25.734Z</time>
      </trkpt>
      <trkpt lat="48.69183" lon="5.6822">
        <ele>235.18</ele>
        <time>2026-08-05T13:04:31.731Z</time>
      </trkpt>
      <trkpt lat="48.6919" lon="5.68191">
        <ele>234.84</ele>
        <time>2026-08-05T13:04:37.732Z</time>
      </trkpt>
      <trkpt lat="48.69198" lon="5.68163">
        <ele>235</ele>
        <time>2026-08-05T13:04:43.730Z</time>
      </trkpt>
      <trkpt lat="48.69205" lon="5.68136">
        <ele>236.05</ele>
        <time>2026-08-05T13:04:49.740Z</time>
      </trkpt>
      <trkpt lat="48.69211" lon="5.68108">
        <ele>236.08</ele>
        <time>2026-08-05T13:04:55.738Z</time>
      </trkpt>
      <trkpt lat="48.69215" lon="5.68078">
        <ele>235.6</ele>
        <time>2026-08-05T13:05:01.736Z</time>
      </trkpt>
      <trkpt lat="48.69218" lon="5.6805">
        <ele>234.82</ele>
        <time>2026-08-05T13:05:07.736Z</time>
      </trkpt>
      <trkpt lat="48.6922" lon="5.68021">
        <ele>235.97</ele>
        <time>2026-08-05T13:05:13.729Z</time>
      </trkpt>
      <trkpt lat="48.6922" lon="5.67993">
        <ele>235.56</ele>
        <time>2026-08-05T13:05:19.730Z</time>
      </trkpt>
      <trkpt lat="48.69219" lon="5.67967">
        <ele>234.78</ele>
        <time>2026-08-05T13:05:25.737Z</time>
      </trkpt>
      <trkpt lat="48.69218" lon="5.67941">
        <ele>234.26</ele>
        <time>2026-08-05T13:05:31.740Z</time>
      </trkpt>
      <trkpt lat="48.69215" lon="5.67912">
        <ele>233.92</ele>
        <time>2026-08-05T13:05:37.743Z</time>
      </trkpt>
      <trkpt lat="48.6921" lon="5.67884">
        <ele>235.07</ele>
        <time>2026-08-05T13:05:43.727Z</time>
      </trkpt>
      <trkpt lat="48.69204" lon="5.67857">
        <ele>234.83</ele>
        <time>2026-08-05T13:05:49.729Z</time>
      </trkpt>
      <trkpt lat="48.69197" lon="5.67831">
        <ele>234.78</ele>
        <time>2026-08-05T13:05:55.691Z</time>
      </trkpt>
      <trkpt lat="48.69189" lon="5.67805">
        <ele>234.82</ele>
        <time>2026-08-05T13:06:01.737Z</time>
      </trkpt>
      <trkpt lat="48.69179" lon="5.67781">
        <ele>234.78</ele>
        <time>2026-08-05T13:06:07.738Z</time>
      </trkpt>
      <trkpt lat="48.69169" lon="5.67758">
        <ele>235.21</ele>
        <time>2026-08-05T13:06:13.729Z</time>
      </trkpt>
      <trkpt lat="48.69159" lon="5.67734">
        <ele>235.26</ele>
        <time>2026-08-05T13:06:19.739Z</time>
      </trkpt>
      <trkpt lat="48.6915" lon="5.6771">
        <ele>235.07</ele>
        <time>2026-08-05T13:06:25.752Z</time>
      </trkpt>
      <trkpt lat="48.69144" lon="5.67685">
        <ele>234.71</ele>
        <time>2026-08-05T13:06:31.723Z</time>
      </trkpt>
      <trkpt lat="48.69149" lon="5.6765">
        <ele>235.19</ele>
        <time>2026-08-05T13:06:37.749Z</time>
      </trkpt>
      <trkpt lat="48.69166" lon="5.67623">
        <ele>234.65</ele>
        <time>2026-08-05T13:06:43.741Z</time>
      </trkpt>
      <trkpt lat="48.6919" lon="5.67602">
        <ele>231.95</ele>
        <time>2026-08-05T13:06:49.738Z</time>
      </trkpt>
      <trkpt lat="48.69222" lon="5.67582">
        <ele>227.18</ele>
        <time>2026-08-05T13:06:55.738Z</time>
      </trkpt>
      <trkpt lat="48.69266" lon="5.67562">
        <ele>221.25</ele>
        <time>2026-08-05T13:07:01.736Z</time>
      </trkpt>
      <trkpt lat="48.69321" lon="5.67557">
        <ele>219.95</ele>
        <time>2026-08-05T13:07:07.729Z</time>
      </trkpt>
      <trkpt lat="48.69381" lon="5.67578">
        <ele>219.83</ele>
        <time>2026-08-05T13:07:13.758Z</time>
      </trkpt>
      <trkpt lat="48.69436" lon="5.67629">
        <ele>217.89</ele>
        <time>2026-08-05T13:07:19.729Z</time>
      </trkpt>
      <trkpt lat="48.69482" lon="5.67694">
        <ele>217.63</ele>
        <time>2026-08-05T13:07:25.740Z</time>
      </trkpt>
      <trkpt lat="48.69527" lon="5.67758">
        <ele>216.94</ele>
        <time>2026-08-05T13:07:31.734Z</time>
      </trkpt>
      <trkpt lat="48.69569" lon="5.67817">
        <ele>216.36</ele>
        <time>2026-08-05T13:07:37.739Z</time>
      </trkpt>
      <trkpt lat="48.69617" lon="5.67857">
        <ele>213.67</ele>
        <time>2026-08-05T13:07:43.730Z</time>
      </trkpt>
      <trkpt lat="48.69669" lon="5.67877">
        <ele>211.08</ele>
        <time>2026-08-05T13:07:49.730Z</time>
      </trkpt>
      <trkpt lat="48.69724" lon="5.67877">
        <ele>210.23</ele>
        <time>2026-08-05T13:07:55.738Z</time>
      </trkpt>
      <trkpt lat="48.69774" lon="5.67858">
        <ele>207.79</ele>
        <time>2026-08-05T13:08:01.738Z</time>
      </trkpt>
      <trkpt lat="48.69818" lon="5.67825">
        <ele>206.24</ele>
        <time>2026-08-05T13:08:07.733Z</time>
      </trkpt>
      <trkpt lat="48.69857" lon="5.67789">
        <ele>205.03</ele>
        <time>2026-08-05T13:08:13.730Z</time>
      </trkpt>
      <trkpt lat="48.69895" lon="5.67754">
        <ele>204.21</ele>
        <time>2026-08-05T13:08:19.736Z</time>
      </trkpt>
      <trkpt lat="48.69932" lon="5.67722">
        <ele>203.83</ele>
        <time>2026-08-05T13:08:25.707Z</time>
      </trkpt>
      <trkpt lat="48.69969" lon="5.67689">
        <ele>203.69</ele>
        <time>2026-08-05T13:08:31.726Z</time>
      </trkpt>
      <trkpt lat="48.70005" lon="5.67655">
        <ele>203.6</ele>
        <time>2026-08-05T13:08:37.741Z</time>
      </trkpt>
      <trkpt lat="48.70038" lon="5.67624">
        <ele>202.7</ele>
        <time>2026-08-05T13:08:43.733Z</time>
      </trkpt>
      <trkpt lat="48.70071" lon="5.67594">
        <ele>203.89</ele>
        <time>2026-08-05T13:08:49.729Z</time>
      </trkpt>
      <trkpt lat="48.70101" lon="5.67568">
        <ele>205.11</ele>
        <time>2026-08-05T13:08:55.744Z</time>
      </trkpt>
      <trkpt lat="48.70131" lon="5.67542">
        <ele>204.76</ele>
        <time>2026-08-05T13:09:01.739Z</time>
      </trkpt>
      <trkpt lat="48.7016" lon="5.67515">
        <ele>204.39</ele>
        <time>2026-08-05T13:09:07.736Z</time>
      </trkpt>
      <trkpt lat="48.7019" lon="5.67487">
        <ele>204.6</ele>
        <time>2026-08-05T13:09:13.742Z</time>
      </trkpt>
      <trkpt lat="48.70223" lon="5.67458">
        <ele>203.86</ele>
        <time>2026-08-05T13:09:19.738Z</time>
      </trkpt>
      <trkpt lat="48.70253" lon="5.67431">
        <ele>204.12</ele>
        <time>2026-08-05T13:09:25.736Z</time>
      </trkpt>
      <trkpt lat="48.70267" lon="5.67406">
        <ele>203.47</ele>
        <time>2026-08-05T13:09:31.740Z</time>
      </trkpt>
      <trkpt lat="48.70244" lon="5.67399">
        <ele>203.53</ele>
        <time>2026-08-05T13:09:37.730Z</time>
      </trkpt>
      <trkpt lat="48.7021" lon="5.67388">
        <ele>201.73</ele>
        <time>2026-08-05T13:09:43.740Z</time>
      </trkpt>
      <trkpt lat="48.70175" lon="5.67348">
        <ele>200.05</ele>
        <time>2026-08-05T13:09:49.729Z</time>
      </trkpt>
      <trkpt lat="48.70148" lon="5.67318">
        <ele>199.12</ele>
        <time>2026-08-05T13:09:55.745Z</time>
      </trkpt>
      <trkpt lat="48.70128" lon="5.67291">
        <ele>199.17</ele>
        <time>2026-08-05T13:10:01.723Z</time>
      </trkpt>
      <trkpt lat="48.70109" lon="5.67264">
        <ele>198.04</ele>
        <time>2026-08-05T13:10:07.753Z</time>
      </trkpt>
      <trkpt lat="48.7009" lon="5.67236">
        <ele>197.73</ele>
        <time>2026-08-05T13:10:13.742Z</time>
      </trkpt>
      <trkpt lat="48.70071" lon="5.67206">
        <ele>197.28</ele>
        <time>2026-08-05T13:10:19.745Z</time>
      </trkpt>
      <trkpt lat="48.70053" lon="5.6718">
        <ele>198.09</ele>
        <time>2026-08-05T13:10:25.749Z</time>
      </trkpt>
      <trkpt lat="48.70043" lon="5.67147">
        <ele>199.44</ele>
        <time>2026-08-05T13:10:31.747Z</time>
      </trkpt>
      <trkpt lat="48.70054" lon="5.67107">
        <ele>199.29</ele>
        <time>2026-08-05T13:10:37.750Z</time>
      </trkpt>
      <trkpt lat="48.70068" lon="5.67069">
        <ele>196.53</ele>
        <time>2026-08-05T13:10:43.742Z</time>
      </trkpt>
      <trkpt lat="48.70084" lon="5.67022">
        <ele>194.67</ele>
        <time>2026-08-05T13:10:49.751Z</time>
      </trkpt>
      <trkpt lat="48.701" lon="5.66977">
        <ele>192.56</ele>
        <time>2026-08-05T13:10:55.752Z</time>
      </trkpt>
      <trkpt lat="48.70099" lon="5.66936">
        <ele>189.68</ele>
        <time>2026-08-05T13:11:01.755Z</time>
      </trkpt>
      <trkpt lat="48.7007" lon="5.6692">
        <ele>185.32</ele>
        <time>2026-08-05T13:11:07.750Z</time>
      </trkpt>
      <trkpt lat="48.70043" lon="5.66902">
        <ele>183.77</ele>
        <time>2026-08-05T13:11:13.756Z</time>
      </trkpt>
      <trkpt lat="48.70019" lon="5.66881">
        <ele>184.65</ele>
        <time>2026-08-05T13:11:19.751Z</time>
      </trkpt>
      <trkpt lat="48.69995" lon="5.6686">
        <ele>184.06</ele>
        <time>2026-08-05T13:11:25.753Z</time>
      </trkpt>
      <trkpt lat="48.69971" lon="5.66839">
        <ele>183.93</ele>
        <time>2026-08-05T13:11:31.749Z</time>
      </trkpt>
      <trkpt lat="48.69947" lon="5.6682">
        <ele>184.01</ele>
        <time>2026-08-05T13:11:37.748Z</time>
      </trkpt>
      <trkpt lat="48.69924" lon="5.66803">
        <ele>184.13</ele>
        <time>2026-08-05T13:11:43.749Z</time>
      </trkpt>
      <trkpt lat="48.69899" lon="5.66794">
        <ele>184.79</ele>
        <time>2026-08-05T13:11:49.746Z</time>
      </trkpt>
      <trkpt lat="48.69873" lon="5.66792">
        <ele>186.47</ele>
        <time>2026-08-05T13:11:55.754Z</time>
      </trkpt>
      <trkpt lat="48.69848" lon="5.66789">
        <ele>188.61</ele>
        <time>2026-08-05T13:12:01.749Z</time>
      </trkpt>
      <trkpt lat="48.69822" lon="5.66788">
        <ele>188.76</ele>
        <time>2026-08-05T13:12:07.749Z</time>
      </trkpt>
      <trkpt lat="48.69793" lon="5.66786">
        <ele>187.95</ele>
        <time>2026-08-05T13:12:13.748Z</time>
      </trkpt>
      <trkpt lat="48.69764" lon="5.66783">
        <ele>186.79</ele>
        <time>2026-08-05T13:12:19.747Z</time>
      </trkpt>
      <trkpt lat="48.69734" lon="5.66781">
        <ele>186.05</ele>
        <time>2026-08-05T13:12:25.750Z</time>
      </trkpt>
      <trkpt lat="48.69703" lon="5.66779">
        <ele>185.33</ele>
        <time>2026-08-05T13:12:31.747Z</time>
      </trkpt>
      <trkpt lat="48.69673" lon="5.66777">
        <ele>185.78</ele>
        <time>2026-08-05T13:12:37.749Z</time>
      </trkpt>
      <trkpt lat="48.69645" lon="5.66776">
        <ele>185.31</ele>
        <time>2026-08-05T13:12:43.747Z</time>
      </trkpt>
      <trkpt lat="48.69616" lon="5.66774">
        <ele>184.52</ele>
        <time>2026-08-05T13:12:49.745Z</time>
      </trkpt>
      <trkpt lat="48.69586" lon="5.66772">
        <ele>184.06</ele>
        <time>2026-08-05T13:12:55.747Z</time>
      </trkpt>
      <trkpt lat="48.69556" lon="5.66772">
        <ele>185.39</ele>
        <time>2026-08-05T13:13:01.749Z</time>
      </trkpt>
      <trkpt lat="48.69534" lon="5.66762">
        <ele>189.48</ele>
        <time>2026-08-05T13:13:07.738Z</time>
      </trkpt>
      <trkpt lat="48.69507" lon="5.66749">
        <ele>190.61</ele>
        <time>2026-08-05T13:13:13.737Z</time>
      </trkpt>
      <trkpt lat="48.69479" lon="5.66738">
        <ele>190.77</ele>
        <time>2026-08-05T13:13:19.748Z</time>
      </trkpt>
      <trkpt lat="48.69451" lon="5.66727">
        <ele>190.04</ele>
        <time>2026-08-05T13:13:25.745Z</time>
      </trkpt>
      <trkpt lat="48.69425" lon="5.66718">
        <ele>191.54</ele>
        <time>2026-08-05T13:13:31.736Z</time>
      </trkpt>
      <trkpt lat="48.694" lon="5.66706">
        <ele>191.68</ele>
        <time>2026-08-05T13:13:37.745Z</time>
      </trkpt>
      <trkpt lat="48.69372" lon="5.66696">
        <ele>192.76</ele>
        <time>2026-08-05T13:13:43.736Z</time>
      </trkpt>
      <trkpt lat="48.69345" lon="5.66686">
        <ele>191.81</ele>
        <time>2026-08-05T13:13:49.735Z</time>
      </trkpt>
      <trkpt lat="48.6932" lon="5.66676">
        <ele>190.31</ele>
        <time>2026-08-05T13:13:55.750Z</time>
      </trkpt>
      <trkpt lat="48.69298" lon="5.66667">
        <ele>190.46</ele>
        <time>2026-08-05T13:14:01.736Z</time>
      </trkpt>
      <trkpt lat="48.69278" lon="5.66659">
        <ele>192.59</ele>
        <time>2026-08-05T13:14:07.736Z</time>
      </trkpt>
      <trkpt lat="48.69256" lon="5.6665">
        <ele>193.28</ele>
        <time>2026-08-05T13:14:13.738Z</time>
      </trkpt>
      <trkpt lat="48.69234" lon="5.66648">
        <ele>193.14</ele>
        <time>2026-08-05T13:14:19.742Z</time>
      </trkpt>
      <trkpt lat="48.69215" lon="5.66667">
        <ele>194.58</ele>
        <time>2026-08-05T13:14:25.738Z</time>
      </trkpt>
      <trkpt lat="48.692" lon="5.66687">
        <ele>194.8</ele>
        <time>2026-08-05T13:14:31.739Z</time>
      </trkpt>
      <trkpt lat="48.69187" lon="5.66706">
        <ele>195.41</ele>
        <time>2026-08-05T13:14:37.738Z</time>
      </trkpt>
      <trkpt lat="48.69173" lon="5.66725">
        <ele>197.15</ele>
        <time>2026-08-05T13:14:43.739Z</time>
      </trkpt>
      <trkpt lat="48.6916" lon="5.66743">
        <ele>198.38</ele>
        <time>2026-08-05T13:14:49.738Z</time>
      </trkpt>
      <trkpt lat="48.69145" lon="5.66755">
        <ele>199.59</ele>
        <time>2026-08-05T13:14:55.738Z</time>
      </trkpt>
      <trkpt lat="48.6913" lon="5.66744">
        <ele>199.54</ele>
        <time>2026-08-05T13:15:01.744Z</time>
      </trkpt>
      <trkpt lat="48.69115" lon="5.66721">
        <ele>199.67</ele>
        <time>2026-08-05T13:15:07.740Z</time>
      </trkpt>
      <trkpt lat="48.69098" lon="5.66697">
        <ele>198.79</ele>
        <time>2026-08-05T13:15:13.745Z</time>
      </trkpt>
      <trkpt lat="48.6908" lon="5.66671">
        <ele>197.5</ele>
        <time>2026-08-05T13:15:19.738Z</time>
      </trkpt>
      <trkpt lat="48.69061" lon="5.66645">
        <ele>197.37</ele>
        <time>2026-08-05T13:15:25.747Z</time>
      </trkpt>
      <trkpt lat="48.69042" lon="5.66619">
        <ele>198.11</ele>
        <time>2026-08-05T13:15:31.738Z</time>
      </trkpt>
      <trkpt lat="48.69023" lon="5.66596">
        <ele>198.14</ele>
        <time>2026-08-05T13:15:37.748Z</time>
      </trkpt>
      <trkpt lat="48.69005" lon="5.66568">
        <ele>198.16</ele>
        <time>2026-08-05T13:15:43.740Z</time>
      </trkpt>
      <trkpt lat="48.6899" lon="5.66542">
        <ele>198.9</ele>
        <time>2026-08-05T13:15:49.739Z</time>
      </trkpt>
      <trkpt lat="48.68976" lon="5.66518">
        <ele>198.35</ele>
        <time>2026-08-05T13:15:55.742Z</time>
      </trkpt>
      <trkpt lat="48.68962" lon="5.66493">
        <ele>198.5</ele>
        <time>2026-08-05T13:16:01.746Z</time>
      </trkpt>
      <trkpt lat="48.68948" lon="5.66468">
        <ele>198.58</ele>
        <time>2026-08-05T13:16:07.743Z</time>
      </trkpt>
      <trkpt lat="48.68933" lon="5.66442">
        <ele>198.98</ele>
        <time>2026-08-05T13:16:13.738Z</time>
      </trkpt>
      <trkpt lat="48.68919" lon="5.66416">
        <ele>198.46</ele>
        <time>2026-08-05T13:16:19.737Z</time>
      </trkpt>
      <trkpt lat="48.68905" lon="5.66389">
        <ele>197.72</ele>
        <time>2026-08-05T13:16:25.739Z</time>
      </trkpt>
      <trkpt lat="48.68891" lon="5.66362">
        <ele>197.96</ele>
        <time>2026-08-05T13:16:31.739Z</time>
      </trkpt>
      <trkpt lat="48.68877" lon="5.66332">
        <ele>197.78</ele>
        <time>2026-08-05T13:16:37.740Z</time>
      </trkpt>
      <trkpt lat="48.68864" lon="5.663">
        <ele>197.47</ele>
        <time>2026-08-05T13:16:43.745Z</time>
      </trkpt>
      <trkpt lat="48.68852" lon="5.66264">
        <ele>198.5</ele>
        <time>2026-08-05T13:16:49.743Z</time>
      </trkpt>
      <trkpt lat="48.68842" lon="5.66226">
        <ele>198.52</ele>
        <time>2026-08-05T13:16:55.738Z</time>
      </trkpt>
      <trkpt lat="48.68831" lon="5.66185">
        <ele>198.1</ele>
        <time>2026-08-05T13:17:01.746Z</time>
      </trkpt>
      <trkpt lat="48.68822" lon="5.66143">
        <ele>198.96</ele>
        <time>2026-08-05T13:17:07.745Z</time>
      </trkpt>
      <trkpt lat="48.6881" lon="5.66105">
        <ele>198.67</ele>
        <time>2026-08-05T13:17:13.738Z</time>
      </trkpt>
      <trkpt lat="48.68794" lon="5.66075">
        <ele>197.42</ele>
        <time>2026-08-05T13:17:19.746Z</time>
      </trkpt>
      <trkpt lat="48.68777" lon="5.66053">
        <ele>196.68</ele>
        <time>2026-08-05T13:17:25.745Z</time>
      </trkpt>
      <trkpt lat="48.68757" lon="5.66031">
        <ele>193.84</ele>
        <time>2026-08-05T13:17:31.749Z</time>
      </trkpt>
      <trkpt lat="48.68736" lon="5.66014">
        <ele>192.89</ele>
        <time>2026-08-05T13:17:37.743Z</time>
      </trkpt>
      <trkpt lat="48.68718" lon="5.66">
        <ele>194.73</ele>
        <time>2026-08-05T13:17:43.739Z</time>
      </trkpt>
      <trkpt lat="48.68698" lon="5.65983">
        <ele>197.57</ele>
        <time>2026-08-05T13:17:49.745Z</time>
      </trkpt>
      <trkpt lat="48.68681" lon="5.65967">
        <ele>198.57</ele>
        <time>2026-08-05T13:17:55.752Z</time>
      </trkpt>
      <trkpt lat="48.68676" lon="5.65979">
        <ele>200.77</ele>
        <time>2026-08-05T13:18:01.744Z</time>
      </trkpt>
      <trkpt lat="48.68667" lon="5.65981">
        <ele>202.91</ele>
        <time>2026-08-05T13:18:08.690Z</time>
      </trkpt>
      <trkpt lat="48.68657" lon="5.65983">
        <ele>204.87</ele>
        <time>2026-08-05T13:18:16.675Z</time>
      </trkpt>
      <trkpt lat="48.6864" lon="5.65969">
        <ele>202.25</ele>
        <time>2026-08-05T13:18:22.675Z</time>
      </trkpt>
      <trkpt lat="48.68624" lon="5.65953">
        <ele>201.95</ele>
        <time>2026-08-05T13:18:27.682Z</time>
      </trkpt>
      <trkpt lat="48.68611" lon="5.65932">
        <ele>201.27</ele>
        <time>2026-08-05T13:18:32.685Z</time>
      </trkpt>
      <trkpt lat="48.686" lon="5.6591">
        <ele>200.62</ele>
        <time>2026-08-05T13:18:37.739Z</time>
      </trkpt>
      <trkpt lat="48.6859" lon="5.65879">
        <ele>200.54</ele>
        <time>2026-08-05T13:18:43.744Z</time>
      </trkpt>
      <trkpt lat="48.68581" lon="5.65848">
        <ele>201.53</ele>
        <time>2026-08-05T13:18:49.740Z</time>
      </trkpt>
      <trkpt lat="48.68572" lon="5.65816">
        <ele>202.26</ele>
        <time>2026-08-05T13:18:55.747Z</time>
      </trkpt>
      <trkpt lat="48.68564" lon="5.65784">
        <ele>203.11</ele>
        <time>2026-08-05T13:19:01.754Z</time>
      </trkpt>
      <trkpt lat="48.68556" lon="5.65754">
        <ele>201.69</ele>
        <time>2026-08-05T13:19:07.739Z</time>
      </trkpt>
      <trkpt lat="48.68549" lon="5.6572">
        <ele>201.05</ele>
        <time>2026-08-05T13:19:13.738Z</time>
      </trkpt>
      <trkpt lat="48.68544" lon="5.65685">
        <ele>200.69</ele>
        <time>2026-08-05T13:19:19.737Z</time>
      </trkpt>
      <trkpt lat="48.6854" lon="5.65651">
        <ele>201.39</ele>
        <time>2026-08-05T13:19:25.748Z</time>
      </trkpt>
      <trkpt lat="48.68537" lon="5.65617">
        <ele>201.45</ele>
        <time>2026-08-05T13:19:31.739Z</time>
      </trkpt>
      <trkpt lat="48.68534" lon="5.65582">
        <ele>202.3</ele>
        <time>2026-08-05T13:19:37.741Z</time>
      </trkpt>
      <trkpt lat="48.68531" lon="5.65547">
        <ele>202.68</ele>
        <time>2026-08-05T13:19:43.737Z</time>
      </trkpt>
      <trkpt lat="48.68529" lon="5.65512">
        <ele>203.01</ele>
        <time>2026-08-05T13:19:49.752Z</time>
      </trkpt>
      <trkpt lat="48.68527" lon="5.65478">
        <ele>202.75</ele>
        <time>2026-08-05T13:19:55.737Z</time>
      </trkpt>
      <trkpt lat="48.68524" lon="5.65444">
        <ele>202.46</ele>
        <time>2026-08-05T13:20:01.738Z</time>
      </trkpt>
      <trkpt lat="48.68522" lon="5.6541">
        <ele>202.61</ele>
        <time>2026-08-05T13:20:07.738Z</time>
      </trkpt>
      <trkpt lat="48.68518" lon="5.65376">
        <ele>202.9</ele>
        <time>2026-08-05T13:20:13.738Z</time>
      </trkpt>
      <trkpt lat="48.68515" lon="5.65343">
        <ele>203.03</ele>
        <time>2026-08-05T13:20:19.735Z</time>
      </trkpt>
      <trkpt lat="48.68513" lon="5.65311">
        <ele>203.07</ele>
        <time>2026-08-05T13:20:25.745Z</time>
      </trkpt>
      <trkpt lat="48.68511" lon="5.65278">
        <ele>203.63</ele>
        <time>2026-08-05T13:20:31.738Z</time>
      </trkpt>
      <trkpt lat="48.68508" lon="5.65244">
        <ele>204.47</ele>
        <time>2026-08-05T13:20:37.737Z</time>
      </trkpt>
      <trkpt lat="48.68506" lon="5.65211">
        <ele>205.3</ele>
        <time>2026-08-05T13:20:43.739Z</time>
      </trkpt>
      <trkpt lat="48.68504" lon="5.65178">
        <ele>205.42</ele>
        <time>2026-08-05T13:20:49.741Z</time>
      </trkpt>
      <trkpt lat="48.68501" lon="5.65145">
        <ele>204.9</ele>
        <time>2026-08-05T13:20:55.731Z</time>
      </trkpt>
      <trkpt lat="48.68498" lon="5.65113">
        <ele>204.47</ele>
        <time>2026-08-05T13:21:01.751Z</time>
      </trkpt>
      <trkpt lat="48.68496" lon="5.6508">
        <ele>204.91</ele>
        <time>2026-08-05T13:21:07.754Z</time>
      </trkpt>
      <trkpt lat="48.68493" lon="5.65048">
        <ele>204.62</ele>
        <time>2026-08-05T13:21:13.749Z</time>
      </trkpt>
      <trkpt lat="48.68491" lon="5.65016">
        <ele>203.98</ele>
        <time>2026-08-05T13:21:19.753Z</time>
      </trkpt>
      <trkpt lat="48.68489" lon="5.64983">
        <ele>203.42</ele>
        <time>2026-08-05T13:21:25.748Z</time>
      </trkpt>
      <trkpt lat="48.68486" lon="5.6495">
        <ele>202.66</ele>
        <time>2026-08-05T13:21:31.742Z</time>
      </trkpt>
      <trkpt lat="48.68483" lon="5.64916">
        <ele>202.46</ele>
        <time>2026-08-05T13:21:37.752Z</time>
      </trkpt>
      <trkpt lat="48.68479" lon="5.64883">
        <ele>203</ele>
        <time>2026-08-05T13:21:43.751Z</time>
      </trkpt>
      <trkpt lat="48.68476" lon="5.64851">
        <ele>203.57</ele>
        <time>2026-08-05T13:21:49.749Z</time>
      </trkpt>
      <trkpt lat="48.68474" lon="5.6482">
        <ele>204.14</ele>
        <time>2026-08-05T13:21:55.747Z</time>
      </trkpt>
      <trkpt lat="48.68472" lon="5.64789">
        <ele>203.34</ele>
        <time>2026-08-05T13:22:01.747Z</time>
      </trkpt>
      <trkpt lat="48.68469" lon="5.64756">
        <ele>203.64</ele>
        <time>2026-08-05T13:22:07.749Z</time>
      </trkpt>
      <trkpt lat="48.68467" lon="5.64723">
        <ele>203.26</ele>
        <time>2026-08-05T13:22:13.749Z</time>
      </trkpt>
      <trkpt lat="48.68464" lon="5.64688">
        <ele>203.07</ele>
        <time>2026-08-05T13:22:19.750Z</time>
      </trkpt>
      <trkpt lat="48.68463" lon="5.64656">
        <ele>203.16</ele>
        <time>2026-08-05T13:22:25.748Z</time>
      </trkpt>
      <trkpt lat="48.68461" lon="5.64623">
        <ele>203.4</ele>
        <time>2026-08-05T13:22:31.750Z</time>
      </trkpt>
      <trkpt lat="48.68461" lon="5.6459">
        <ele>203.52</ele>
        <time>2026-08-05T13:22:37.749Z</time>
      </trkpt>
      <trkpt lat="48.68462" lon="5.64556">
        <ele>204.06</ele>
        <time>2026-08-05T13:22:43.753Z</time>
      </trkpt>
      <trkpt lat="48.68463" lon="5.64522">
        <ele>203.54</ele>
        <time>2026-08-05T13:22:49.749Z</time>
      </trkpt>
      <trkpt lat="48.68463" lon="5.64488">
        <ele>202.72</ele>
        <time>2026-08-05T13:22:55.753Z</time>
      </trkpt>
      <trkpt lat="48.68463" lon="5.64455">
        <ele>201.43</ele>
        <time>2026-08-05T13:23:01.750Z</time>
      </trkpt>
      <trkpt lat="48.68464" lon="5.64421">
        <ele>201.56</ele>
        <time>2026-08-05T13:23:07.752Z</time>
      </trkpt>
      <trkpt lat="48.68465" lon="5.64387">
        <ele>201.55</ele>
        <time>2026-08-05T13:23:13.751Z</time>
      </trkpt>
      <trkpt lat="48.68467" lon="5.64353">
        <ele>201.88</ele>
        <time>2026-08-05T13:23:19.748Z</time>
      </trkpt>
      <trkpt lat="48.68468" lon="5.64318">
        <ele>202.4</ele>
        <time>2026-08-05T13:23:25.746Z</time>
      </trkpt>
      <trkpt lat="48.68472" lon="5.64284">
        <ele>202.77</ele>
        <time>2026-08-05T13:23:31.750Z</time>
      </trkpt>
      <trkpt lat="48.68475" lon="5.6425">
        <ele>203.21</ele>
        <time>2026-08-05T13:23:37.752Z</time>
      </trkpt>
      <trkpt lat="48.68478" lon="5.64217">
        <ele>202.82</ele>
        <time>2026-08-05T13:23:43.749Z</time>
      </trkpt>
      <trkpt lat="48.68481" lon="5.64183">
        <ele>201.97</ele>
        <time>2026-08-05T13:23:49.750Z</time>
      </trkpt>
      <trkpt lat="48.68485" lon="5.6415">
        <ele>202.26</ele>
        <time>2026-08-05T13:23:55.750Z</time>
      </trkpt>
      <trkpt lat="48.68489" lon="5.64118">
        <ele>202.21</ele>
        <time>2026-08-05T13:24:01.742Z</time>
      </trkpt>
      <trkpt lat="48.68493" lon="5.64086">
        <ele>202.36</ele>
        <time>2026-08-05T13:24:07.748Z</time>
      </trkpt>
      <trkpt lat="48.68496" lon="5.64053">
        <ele>202.65</ele>
        <time>2026-08-05T13:24:13.745Z</time>
      </trkpt>
      <trkpt lat="48.68498" lon="5.6402">
        <ele>203.33</ele>
        <time>2026-08-05T13:24:19.748Z</time>
      </trkpt>
      <trkpt lat="48.685" lon="5.63987">
        <ele>203.14</ele>
        <time>2026-08-05T13:24:25.747Z</time>
      </trkpt>
      <trkpt lat="48.68501" lon="5.63951">
        <ele>202.96</ele>
        <time>2026-08-05T13:24:31.747Z</time>
      </trkpt>
      <trkpt lat="48.68503" lon="5.63913">
        <ele>203.52</ele>
        <time>2026-08-05T13:24:37.743Z</time>
      </trkpt>
      <trkpt lat="48.68506" lon="5.63876">
        <ele>203.88</ele>
        <time>2026-08-05T13:24:43.747Z</time>
      </trkpt>
      <trkpt lat="48.68509" lon="5.63839">
        <ele>203.47</ele>
        <time>2026-08-05T13:24:49.749Z</time>
      </trkpt>
      <trkpt lat="48.6851" lon="5.63802">
        <ele>203.91</ele>
        <time>2026-08-05T13:24:55.742Z</time>
      </trkpt>
      <trkpt lat="48.68509" lon="5.63766">
        <ele>204.06</ele>
        <time>2026-08-05T13:25:01.744Z</time>
      </trkpt>
      <trkpt lat="48.68504" lon="5.63729">
        <ele>203.02</ele>
        <time>2026-08-05T13:25:07.750Z</time>
      </trkpt>
      <trkpt lat="48.68496" lon="5.63693">
        <ele>201.63</ele>
        <time>2026-08-05T13:25:13.748Z</time>
      </trkpt>
      <trkpt lat="48.68484" lon="5.63659">
        <ele>200.75</ele>
        <time>2026-08-05T13:25:19.744Z</time>
      </trkpt>
      <trkpt lat="48.6847" lon="5.63628">
        <ele>199.41</ele>
        <time>2026-08-05T13:25:25.748Z</time>
      </trkpt>
      <trkpt lat="48.68456" lon="5.63597">
        <ele>199.44</ele>
        <time>2026-08-05T13:25:31.752Z</time>
      </trkpt>
      <trkpt lat="48.68441" lon="5.63565">
        <ele>199.05</ele>
        <time>2026-08-05T13:25:37.743Z</time>
      </trkpt>
      <trkpt lat="48.68428" lon="5.63533">
        <ele>198.85</ele>
        <time>2026-08-05T13:25:43.746Z</time>
      </trkpt>
      <trkpt lat="48.68419" lon="5.63498">
        <ele>198.95</ele>
        <time>2026-08-05T13:25:49.744Z</time>
      </trkpt>
      <trkpt lat="48.68414" lon="5.6346">
        <ele>199.98</ele>
        <time>2026-08-05T13:25:55.744Z</time>
      </trkpt>
      <trkpt lat="48.68411" lon="5.63422">
        <ele>199.73</ele>
        <time>2026-08-05T13:26:01.747Z</time>
      </trkpt>
      <trkpt lat="48.68413" lon="5.63385">
        <ele>199.58</ele>
        <time>2026-08-05T13:26:07.741Z</time>
      </trkpt>
      <trkpt lat="48.68416" lon="5.63348">
        <ele>199.57</ele>
        <time>2026-08-05T13:26:13.741Z</time>
      </trkpt>
      <trkpt lat="48.68422" lon="5.63312">
        <ele>199.14</ele>
        <time>2026-08-05T13:26:19.743Z</time>
      </trkpt>
      <trkpt lat="48.68433" lon="5.63277">
        <ele>199.79</ele>
        <time>2026-08-05T13:26:25.744Z</time>
      </trkpt>
      <trkpt lat="48.68445" lon="5.63247">
        <ele>200.19</ele>
        <time>2026-08-05T13:26:31.745Z</time>
      </trkpt>
      <trkpt lat="48.68462" lon="5.63219">
        <ele>199.46</ele>
        <time>2026-08-05T13:26:37.741Z</time>
      </trkpt>
      <trkpt lat="48.68481" lon="5.63194">
        <ele>198.83</ele>
        <time>2026-08-05T13:26:43.735Z</time>
      </trkpt>
      <trkpt lat="48.68501" lon="5.63172">
        <ele>197.62</ele>
        <time>2026-08-05T13:26:49.742Z</time>
      </trkpt>
      <trkpt lat="48.68521" lon="5.63149">
        <ele>197.35</ele>
        <time>2026-08-05T13:26:55.746Z</time>
      </trkpt>
      <trkpt lat="48.68542" lon="5.63125">
        <ele>197.75</ele>
        <time>2026-08-05T13:27:01.741Z</time>
      </trkpt>
      <trkpt lat="48.68563" lon="5.631">
        <ele>197.62</ele>
        <time>2026-08-05T13:27:07.740Z</time>
      </trkpt>
      <trkpt lat="48.68585" lon="5.63076">
        <ele>197.74</ele>
        <time>2026-08-05T13:27:13.732Z</time>
      </trkpt>
      <trkpt lat="48.68606" lon="5.63051">
        <ele>198.33</ele>
        <time>2026-08-05T13:27:19.741Z</time>
      </trkpt>
      <trkpt lat="48.68626" lon="5.63023">
        <ele>198.46</ele>
        <time>2026-08-05T13:27:25.743Z</time>
      </trkpt>
      <trkpt lat="48.68644" lon="5.62992">
        <ele>198.41</ele>
        <time>2026-08-05T13:27:31.742Z</time>
      </trkpt>
      <trkpt lat="48.68659" lon="5.62957">
        <ele>197.31</ele>
        <time>2026-08-05T13:27:37.743Z</time>
      </trkpt>
      <trkpt lat="48.68673" lon="5.62921">
        <ele>196.13</ele>
        <time>2026-08-05T13:27:43.742Z</time>
      </trkpt>
      <trkpt lat="48.68688" lon="5.62885">
        <ele>195.59</ele>
        <time>2026-08-05T13:27:49.747Z</time>
      </trkpt>
      <trkpt lat="48.68702" lon="5.6285">
        <ele>196.8</ele>
        <time>2026-08-05T13:27:55.746Z</time>
      </trkpt>
      <trkpt lat="48.68716" lon="5.62815">
        <ele>197.8</ele>
        <time>2026-08-05T13:28:01.741Z</time>
      </trkpt>
      <trkpt lat="48.68728" lon="5.62782">
        <ele>198.25</ele>
        <time>2026-08-05T13:28:07.744Z</time>
      </trkpt>
      <trkpt lat="48.6874" lon="5.62747">
        <ele>198.45</ele>
        <time>2026-08-05T13:28:13.747Z</time>
      </trkpt>
      <trkpt lat="48.68749" lon="5.62712">
        <ele>199.28</ele>
        <time>2026-08-05T13:28:19.749Z</time>
      </trkpt>
      <trkpt lat="48.68756" lon="5.62676">
        <ele>198.8</ele>
        <time>2026-08-05T13:28:25.749Z</time>
      </trkpt>
      <trkpt lat="48.68761" lon="5.62639">
        <ele>200.34</ele>
        <time>2026-08-05T13:28:31.742Z</time>
      </trkpt>
      <trkpt lat="48.68765" lon="5.62604">
        <ele>201.04</ele>
        <time>2026-08-05T13:28:37.746Z</time>
      </trkpt>
      <trkpt lat="48.68767" lon="5.62567">
        <ele>202.32</ele>
        <time>2026-08-05T13:28:43.746Z</time>
      </trkpt>
      <trkpt lat="48.68769" lon="5.62529">
        <ele>202.62</ele>
        <time>2026-08-05T13:28:49.746Z</time>
      </trkpt>
      <trkpt lat="48.6877" lon="5.62492">
        <ele>203.36</ele>
        <time>2026-08-05T13:28:55.742Z</time>
      </trkpt>
      <trkpt lat="48.68768" lon="5.62455">
        <ele>202.73</ele>
        <time>2026-08-05T13:29:01.734Z</time>
      </trkpt>
      <trkpt lat="48.68763" lon="5.62418">
        <ele>201.99</ele>
        <time>2026-08-05T13:29:07.747Z</time>
      </trkpt>
      <trkpt lat="48.68756" lon="5.62383">
        <ele>202.65</ele>
        <time>2026-08-05T13:29:13.734Z</time>
      </trkpt>
      <trkpt lat="48.68747" lon="5.62351">
        <ele>200.42</ele>
        <time>2026-08-05T13:29:19.749Z</time>
      </trkpt>
      <trkpt lat="48.68737" lon="5.62318">
        <ele>200.72</ele>
        <time>2026-08-05T13:29:25.739Z</time>
      </trkpt>
      <trkpt lat="48.68724" lon="5.62287">
        <ele>201.32</ele>
        <time>2026-08-05T13:29:31.739Z</time>
      </trkpt>
      <trkpt lat="48.68711" lon="5.62261">
        <ele>200.8</ele>
        <time>2026-08-05T13:29:37.734Z</time>
      </trkpt>
      <trkpt lat="48.68705" lon="5.62237">
        <ele>199.22</ele>
        <time>2026-08-05T13:29:43.747Z</time>
      </trkpt>
      <trkpt lat="48.68707" lon="5.6222">
        <ele>198.02</ele>
        <time>2026-08-05T13:29:49.732Z</time>
      </trkpt>
      <trkpt lat="48.68721" lon="5.62237">
        <ele>198.76</ele>
        <time>2026-08-05T13:29:55.744Z</time>
      </trkpt>
      <trkpt lat="48.68736" lon="5.62209">
        <ele>198.25</ele>
        <time>2026-08-05T13:30:01.741Z</time>
      </trkpt>
      <trkpt lat="48.68751" lon="5.62182">
        <ele>198.56</ele>
        <time>2026-08-05T13:30:07.737Z</time>
      </trkpt>
      <trkpt lat="48.68768" lon="5.62155">
        <ele>196.88</ele>
        <time>2026-08-05T13:30:13.730Z</time>
      </trkpt>
      <trkpt lat="48.68789" lon="5.62151">
        <ele>197.69</ele>
        <time>2026-08-05T13:30:19.739Z</time>
      </trkpt>
      <trkpt lat="48.68811" lon="5.62157">
        <ele>198.25</ele>
        <time>2026-08-05T13:30:25.741Z</time>
      </trkpt>
      <trkpt lat="48.68839" lon="5.62168">
        <ele>197.7</ele>
        <time>2026-08-05T13:30:31.743Z</time>
      </trkpt>
      <trkpt lat="48.6887" lon="5.62179">
        <ele>196.74</ele>
        <time>2026-08-05T13:30:37.730Z</time>
      </trkpt>
      <trkpt lat="48.68902" lon="5.6219">
        <ele>195.95</ele>
        <time>2026-08-05T13:30:43.733Z</time>
      </trkpt>
      <trkpt lat="48.68936" lon="5.62203">
        <ele>195.4</ele>
        <time>2026-08-05T13:30:49.732Z</time>
      </trkpt>
      <trkpt lat="48.68971" lon="5.62216">
        <ele>195.62</ele>
        <time>2026-08-05T13:30:55.720Z</time>
      </trkpt>
      <trkpt lat="48.69008" lon="5.62229">
        <ele>196.12</ele>
        <time>2026-08-05T13:31:01.734Z</time>
      </trkpt>
      <trkpt lat="48.69044" lon="5.62242">
        <ele>196.15</ele>
        <time>2026-08-05T13:31:07.726Z</time>
      </trkpt>
      <trkpt lat="48.69071" lon="5.62266">
        <ele>195.64</ele>
        <time>2026-08-05T13:31:13.726Z</time>
      </trkpt>
      <trkpt lat="48.69097" lon="5.62283">
        <ele>195.1</ele>
        <time>2026-08-05T13:31:19.727Z</time>
      </trkpt>
      <trkpt lat="48.69126" lon="5.62263">
        <ele>194.12</ele>
        <time>2026-08-05T13:31:25.745Z</time>
      </trkpt>
      <trkpt lat="48.69162" lon="5.62258">
        <ele>191.24</ele>
        <time>2026-08-05T13:31:31.730Z</time>
      </trkpt>
      <trkpt lat="48.69191" lon="5.6228">
        <ele>192.99</ele>
        <time>2026-08-05T13:31:37.731Z</time>
      </trkpt>
      <trkpt lat="48.69183" lon="5.62299">
        <ele>193.42</ele>
        <time>2026-08-05T13:31:43.729Z</time>
      </trkpt>
      <trkpt lat="48.69171" lon="5.62321">
        <ele>195.15</ele>
        <time>2026-08-05T13:31:49.731Z</time>
      </trkpt>
      <trkpt lat="48.69175" lon="5.62337">
        <ele>196.1</ele>
        <time>2026-08-05T13:31:55.742Z</time>
      </trkpt>
      <trkpt lat="48.69164" lon="5.62357">
        <ele>197.06</ele>
        <time>2026-08-05T13:32:01.736Z</time>
      </trkpt>
      <trkpt lat="48.69171" lon="5.62346">
        <ele>197.48</ele>
        <time>2026-08-05T13:35:44.674Z</time>
      </trkpt>
      <trkpt lat="48.69182" lon="5.62334">
        <ele>196.91</ele>
        <time>2026-08-05T13:35:49.745Z</time>
      </trkpt>
      <trkpt lat="48.692" lon="5.62316">
        <ele>196.23</ele>
        <time>2026-08-05T13:35:55.739Z</time>
      </trkpt>
      <trkpt lat="48.6922" lon="5.62321">
        <ele>195.27</ele>
        <time>2026-08-05T13:36:01.736Z</time>
      </trkpt>
      <trkpt lat="48.6924" lon="5.62345">
        <ele>193.85</ele>
        <time>2026-08-05T13:36:07.741Z</time>
      </trkpt>
      <trkpt lat="48.69262" lon="5.6237">
        <ele>193.15</ele>
        <time>2026-08-05T13:36:13.735Z</time>
      </trkpt>
      <trkpt lat="48.69287" lon="5.62379">
        <ele>193.84</ele>
        <time>2026-08-05T13:36:19.744Z</time>
      </trkpt>
      <trkpt lat="48.69303" lon="5.62351">
        <ele>194.61</ele>
        <time>2026-08-05T13:36:25.750Z</time>
      </trkpt>
      <trkpt lat="48.69328" lon="5.62351">
        <ele>193.12</ele>
        <time>2026-08-05T13:36:31.742Z</time>
      </trkpt>
      <trkpt lat="48.69356" lon="5.62359">
        <ele>191.96</ele>
        <time>2026-08-05T13:36:37.738Z</time>
      </trkpt>
      <trkpt lat="48.69389" lon="5.62363">
        <ele>192.02</ele>
        <time>2026-08-05T13:36:43.746Z</time>
      </trkpt>
      <trkpt lat="48.69418" lon="5.62365">
        <ele>191.31</ele>
        <time>2026-08-05T13:36:49.833Z</time>
      </trkpt>
      <trkpt lat="48.6945" lon="5.62368">
        <ele>192.08</ele>
        <time>2026-08-05T13:36:55.851Z</time>
      </trkpt>
      <trkpt lat="48.69479" lon="5.6237">
        <ele>192.47</ele>
        <time>2026-08-05T13:37:01.778Z</time>
      </trkpt>
      <trkpt lat="48.69502" lon="5.62375">
        <ele>189.53</ele>
        <time>2026-08-05T13:37:06.886Z</time>
      </trkpt>
      <trkpt lat="48.69536" lon="5.62372">
        <ele>188.78</ele>
        <time>2026-08-05T13:37:12.687Z</time>
      </trkpt>
      <trkpt lat="48.69566" lon="5.62378">
        <ele>185.25</ele>
        <time>2026-08-05T13:37:18.678Z</time>
      </trkpt>
      <trkpt lat="48.696" lon="5.62377">
        <ele>187.56</ele>
        <time>2026-08-05T13:37:24.682Z</time>
      </trkpt>
      <trkpt lat="48.69631" lon="5.62378">
        <ele>189.67</ele>
        <time>2026-08-05T13:37:30.680Z</time>
      </trkpt>
      <trkpt lat="48.69661" lon="5.62379">
        <ele>189.43</ele>
        <time>2026-08-05T13:37:36.671Z</time>
      </trkpt>
      <trkpt lat="48.69686" lon="5.62381">
        <ele>189.53</ele>
        <time>2026-08-05T13:37:41.676Z</time>
      </trkpt>
      <trkpt lat="48.69717" lon="5.62383">
        <ele>189.62</ele>
        <time>2026-08-05T13:37:47.674Z</time>
      </trkpt>
      <trkpt lat="48.69748" lon="5.62385">
        <ele>188.99</ele>
        <time>2026-08-05T13:37:53.673Z</time>
      </trkpt>
      <trkpt lat="48.69778" lon="5.62386">
        <ele>187.1</ele>
        <time>2026-08-05T13:37:59.673Z</time>
      </trkpt>
      <trkpt lat="48.69808" lon="5.62389">
        <ele>186.09</ele>
        <time>2026-08-05T13:38:05.674Z</time>
      </trkpt>
      <trkpt lat="48.69832" lon="5.62389">
        <ele>186.14</ele>
        <time>2026-08-05T13:38:10.674Z</time>
      </trkpt>
      <trkpt lat="48.69856" lon="5.62391">
        <ele>185.88</ele>
        <time>2026-08-05T13:38:15.676Z</time>
      </trkpt>
      <trkpt lat="48.69887" lon="5.62394">
        <ele>184.9</ele>
        <time>2026-08-05T13:38:21.675Z</time>
      </trkpt>
      <trkpt lat="48.69913" lon="5.62395">
        <ele>184.36</ele>
        <time>2026-08-05T13:38:26.677Z</time>
      </trkpt>
      <trkpt lat="48.69939" lon="5.62396">
        <ele>184.45</ele>
        <time>2026-08-05T13:38:31.740Z</time>
      </trkpt>
      <trkpt lat="48.69968" lon="5.62398">
        <ele>183.79</ele>
        <time>2026-08-05T13:38:37.745Z</time>
      </trkpt>
      <trkpt lat="48.69997" lon="5.62399">
        <ele>184.2</ele>
        <time>2026-08-05T13:38:43.752Z</time>
      </trkpt>
      <trkpt lat="48.70028" lon="5.62401">
        <ele>184.56</ele>
        <time>2026-08-05T13:38:49.748Z</time>
      </trkpt>
      <trkpt lat="48.70059" lon="5.62403">
        <ele>184.71</ele>
        <time>2026-08-05T13:38:55.747Z</time>
      </trkpt>
      <trkpt lat="48.70089" lon="5.62404">
        <ele>184.59</ele>
        <time>2026-08-05T13:39:01.739Z</time>
      </trkpt>
      <trkpt lat="48.70118" lon="5.62405">
        <ele>185.06</ele>
        <time>2026-08-05T13:39:07.738Z</time>
      </trkpt>
      <trkpt lat="48.70147" lon="5.62408">
        <ele>184.98</ele>
        <time>2026-08-05T13:39:13.750Z</time>
      </trkpt>
      <trkpt lat="48.70175" lon="5.62413">
        <ele>185.03</ele>
        <time>2026-08-05T13:39:19.741Z</time>
      </trkpt>
      <trkpt lat="48.70202" lon="5.62422">
        <ele>185.41</ele>
        <time>2026-08-05T13:39:25.746Z</time>
      </trkpt>
      <trkpt lat="48.70232" lon="5.62433">
        <ele>186.06</ele>
        <time>2026-08-05T13:39:31.901Z</time>
      </trkpt>
      <trkpt lat="48.70261" lon="5.62444">
        <ele>186.54</ele>
        <time>2026-08-05T13:39:37.737Z</time>
      </trkpt>
      <trkpt lat="48.7029" lon="5.62455">
        <ele>186.59</ele>
        <time>2026-08-05T13:39:43.751Z</time>
      </trkpt>
      <trkpt lat="48.70319" lon="5.62467">
        <ele>186.26</ele>
        <time>2026-08-05T13:39:49.746Z</time>
      </trkpt>
      <trkpt lat="48.70349" lon="5.62477">
        <ele>186.8</ele>
        <time>2026-08-05T13:39:55.752Z</time>
      </trkpt>
      <trkpt lat="48.70379" lon="5.62489">
        <ele>187.52</ele>
        <time>2026-08-05T13:40:01.748Z</time>
      </trkpt>
      <trkpt lat="48.70408" lon="5.62501">
        <ele>186.82</ele>
        <time>2026-08-05T13:40:07.749Z</time>
      </trkpt>
      <trkpt lat="48.70438" lon="5.62512">
        <ele>184.78</ele>
        <time>2026-08-05T13:40:13.750Z</time>
      </trkpt>
      <trkpt lat="48.70468" lon="5.62524">
        <ele>184.36</ele>
        <time>2026-08-05T13:40:19.747Z</time>
      </trkpt>
      <trkpt lat="48.70497" lon="5.62535">
        <ele>183.48</ele>
        <time>2026-08-05T13:40:25.751Z</time>
      </trkpt>
      <trkpt lat="48.70529" lon="5.62546">
        <ele>183.96</ele>
        <time>2026-08-05T13:40:31.747Z</time>
      </trkpt>
      <trkpt lat="48.70558" lon="5.62558">
        <ele>184.06</ele>
        <time>2026-08-05T13:40:37.749Z</time>
      </trkpt>
      <trkpt lat="48.70588" lon="5.62569">
        <ele>184.31</ele>
        <time>2026-08-05T13:40:43.752Z</time>
      </trkpt>
      <trkpt lat="48.70617" lon="5.62581">
        <ele>182.92</ele>
        <time>2026-08-05T13:40:49.749Z</time>
      </trkpt>
      <trkpt lat="48.70647" lon="5.62593">
        <ele>181.5</ele>
        <time>2026-08-05T13:40:55.751Z</time>
      </trkpt>
      <trkpt lat="48.70676" lon="5.62604">
        <ele>181.11</ele>
        <time>2026-08-05T13:41:01.753Z</time>
      </trkpt>
      <trkpt lat="48.70705" lon="5.62615">
        <ele>182.12</ele>
        <time>2026-08-05T13:41:07.750Z</time>
      </trkpt>
      <trkpt lat="48.70735" lon="5.62626">
        <ele>182.26</ele>
        <time>2026-08-05T13:41:13.753Z</time>
      </trkpt>
      <trkpt lat="48.70765" lon="5.62638">
        <ele>182.16</ele>
        <time>2026-08-05T13:41:19.749Z</time>
      </trkpt>
      <trkpt lat="48.70795" lon="5.62649">
        <ele>181.7</ele>
        <time>2026-08-05T13:41:25.749Z</time>
      </trkpt>
      <trkpt lat="48.70825" lon="5.6266">
        <ele>181.92</ele>
        <time>2026-08-05T13:41:31.750Z</time>
      </trkpt>
      <trkpt lat="48.70855" lon="5.62672">
        <ele>182.54</ele>
        <time>2026-08-05T13:41:37.751Z</time>
      </trkpt>
      <trkpt lat="48.70885" lon="5.62683">
        <ele>183.05</ele>
        <time>2026-08-05T13:41:43.751Z</time>
      </trkpt>
      <trkpt lat="48.70913" lon="5.62693">
        <ele>183.59</ele>
        <time>2026-08-05T13:41:49.751Z</time>
      </trkpt>
      <trkpt lat="48.70942" lon="5.62705">
        <ele>182.66</ele>
        <time>2026-08-05T13:41:55.751Z</time>
      </trkpt>
      <trkpt lat="48.70974" lon="5.62716">
        <ele>182.49</ele>
        <time>2026-08-05T13:42:01.761Z</time>
      </trkpt>
      <trkpt lat="48.71005" lon="5.62727">
        <ele>182.92</ele>
        <time>2026-08-05T13:42:07.748Z</time>
      </trkpt>
      <trkpt lat="48.71035" lon="5.62738">
        <ele>182.57</ele>
        <time>2026-08-05T13:42:13.748Z</time>
      </trkpt>
      <trkpt lat="48.71062" lon="5.62749">
        <ele>182.51</ele>
        <time>2026-08-05T13:42:19.749Z</time>
      </trkpt>
      <trkpt lat="48.71068" lon="5.62786">
        <ele>183.87</ele>
        <time>2026-08-05T13:42:25.751Z</time>
      </trkpt>
      <trkpt lat="48.71057" lon="5.6283">
        <ele>184.99</ele>
        <time>2026-08-05T13:42:31.747Z</time>
      </trkpt>
      <trkpt lat="48.71051" lon="5.62878">
        <ele>183.95</ele>
        <time>2026-08-05T13:42:37.754Z</time>
      </trkpt>
      <trkpt lat="48.71045" lon="5.62923">
        <ele>184.01</ele>
        <time>2026-08-05T13:42:43.747Z</time>
      </trkpt>
      <trkpt lat="48.7104" lon="5.62968">
        <ele>185.37</ele>
        <time>2026-08-05T13:42:49.754Z</time>
      </trkpt>
      <trkpt lat="48.7104" lon="5.63014">
        <ele>184.64</ele>
        <time>2026-08-05T13:42:55.750Z</time>
      </trkpt>
      <trkpt lat="48.71042" lon="5.63056">
        <ele>185.6</ele>
        <time>2026-08-05T13:43:01.768Z</time>
      </trkpt>
      <trkpt lat="48.71048" lon="5.63101">
        <ele>187.71</ele>
        <time>2026-08-05T13:43:07.767Z</time>
      </trkpt>
      <trkpt lat="48.71068" lon="5.63147">
        <ele>189.3</ele>
        <time>2026-08-05T13:43:13.842Z</time>
      </trkpt>
      <trkpt lat="48.71082" lon="5.63187">
        <ele>189.22</ele>
        <time>2026-08-05T13:43:19.738Z</time>
      </trkpt>
      <trkpt lat="48.71096" lon="5.63233">
        <ele>186.95</ele>
        <time>2026-08-05T13:43:25.716Z</time>
      </trkpt>
      <trkpt lat="48.7111" lon="5.63286">
        <ele>185.16</ele>
        <time>2026-08-05T13:43:31.737Z</time>
      </trkpt>
      <trkpt lat="48.71124" lon="5.63331">
        <ele>186.59</ele>
        <time>2026-08-05T13:43:37.751Z</time>
      </trkpt>
      <trkpt lat="48.71143" lon="5.63371">
        <ele>189.27</ele>
        <time>2026-08-05T13:43:43.738Z</time>
      </trkpt>
      <trkpt lat="48.71159" lon="5.634">
        <ele>190.51</ele>
        <time>2026-08-05T13:43:49.748Z</time>
      </trkpt>
      <trkpt lat="48.7117" lon="5.63421">
        <ele>186.08</ele>
        <time>2026-08-05T13:43:55.737Z</time>
      </trkpt>
      <trkpt lat="48.71185" lon="5.63443">
        <ele>183.92</ele>
        <time>2026-08-05T13:44:01.741Z</time>
      </trkpt>
      <trkpt lat="48.71201" lon="5.63465">
        <ele>182.16</ele>
        <time>2026-08-05T13:44:07.783Z</time>
      </trkpt>
      <trkpt lat="48.71213" lon="5.6348">
        <ele>184.53</ele>
        <time>2026-08-05T13:44:13.750Z</time>
      </trkpt>
      <trkpt lat="48.71231" lon="5.63485">
        <ele>185.64</ele>
        <time>2026-08-05T13:44:19.753Z</time>
      </trkpt>
      <trkpt lat="48.71255" lon="5.63477">
        <ele>191.79</ele>
        <time>2026-08-05T13:44:25.751Z</time>
      </trkpt>
      <trkpt lat="48.71282" lon="5.63457">
        <ele>230.01</ele>
        <time>2026-08-05T13:44:31.762Z</time>
      </trkpt>
      <trkpt lat="48.71313" lon="5.63449">
        <ele>241.67</ele>
        <time>2026-08-05T13:44:37.745Z</time>
      </trkpt>
      <trkpt lat="48.71348" lon="5.63448">
        <ele>241.67</ele>
        <time>2026-08-05T13:44:43.738Z</time>
      </trkpt>
      <trkpt lat="48.71383" lon="5.63449">
        <ele>241.67</ele>
        <time>2026-08-05T13:44:49.743Z</time>
      </trkpt>
      <trkpt lat="48.71421" lon="5.63455">
        <ele>241.67</ele>
        <time>2026-08-05T13:44:55.736Z</time>
      </trkpt>
      <trkpt lat="48.71454" lon="5.63485">
        <ele>241.67</ele>
        <time>2026-08-05T13:45:01.761Z</time>
      </trkpt>
      <trkpt lat="48.71492" lon="5.63509">
        <ele>241.67</ele>
        <time>2026-08-05T13:45:07.757Z</time>
      </trkpt>
      <trkpt lat="48.71527" lon="5.63529">
        <ele>241.67</ele>
        <time>2026-08-05T13:45:13.735Z</time>
      </trkpt>
      <trkpt lat="48.71555" lon="5.63539">
        <ele>241.67</ele>
        <time>2026-08-05T13:45:19.739Z</time>
      </trkpt>
      <trkpt lat="48.71585" lon="5.63543">
        <ele>241.67</ele>
        <time>2026-08-05T13:45:25.743Z</time>
      </trkpt>
      <trkpt lat="48.71614" lon="5.63547">
        <ele>241.67</ele>
        <time>2026-08-05T13:45:31.770Z</time>
      </trkpt>
      <trkpt lat="48.71645" lon="5.63549">
        <ele>241.67</ele>
        <time>2026-08-05T13:45:37.751Z</time>
      </trkpt>
      <trkpt lat="48.71673" lon="5.63551">
        <ele>241.67</ele>
        <time>2026-08-05T13:45:43.742Z</time>
      </trkpt>
      <trkpt lat="48.71701" lon="5.63555">
        <ele>241.67</ele>
        <time>2026-08-05T13:45:49.740Z</time>
      </trkpt>
      <trkpt lat="48.71733" lon="5.63557">
        <ele>241.67</ele>
        <time>2026-08-05T13:45:55.724Z</time>
      </trkpt>
      <trkpt lat="48.71766" lon="5.63559">
        <ele>193.07</ele>
        <time>2026-08-05T13:46:01.741Z</time>
      </trkpt>
      <trkpt lat="48.718" lon="5.63566">
        <ele>189.73</ele>
        <time>2026-08-05T13:46:07.742Z</time>
      </trkpt>
      <trkpt lat="48.71833" lon="5.63571">
        <ele>190.61</ele>
        <time>2026-08-05T13:46:13.746Z</time>
      </trkpt>
      <trkpt lat="48.71867" lon="5.63581">
        <ele>190.3</ele>
        <time>2026-08-05T13:46:19.737Z</time>
      </trkpt>
      <trkpt lat="48.71899" lon="5.63596">
        <ele>190</ele>
        <time>2026-08-05T13:46:25.738Z</time>
      </trkpt>
      <trkpt lat="48.71923" lon="5.63637">
        <ele>190.96</ele>
        <time>2026-08-05T13:46:31.734Z</time>
      </trkpt>
      <trkpt lat="48.71952" lon="5.63668">
        <ele>188.35</ele>
        <time>2026-08-05T13:46:37.743Z</time>
      </trkpt>
      <trkpt lat="48.71986" lon="5.63687">
        <ele>186.31</ele>
        <time>2026-08-05T13:46:43.737Z</time>
      </trkpt>
      <trkpt lat="48.7202" lon="5.63699">
        <ele>186.85</ele>
        <time>2026-08-05T13:46:49.744Z</time>
      </trkpt>
      <trkpt lat="48.72056" lon="5.63691">
        <ele>186.07</ele>
        <time>2026-08-05T13:46:55.737Z</time>
      </trkpt>
      <trkpt lat="48.7209" lon="5.63684">
        <ele>186.13</ele>
        <time>2026-08-05T13:47:01.743Z</time>
      </trkpt>
      <trkpt lat="48.72123" lon="5.63673">
        <ele>186.89</ele>
        <time>2026-08-05T13:47:07.789Z</time>
      </trkpt>
      <trkpt lat="48.72153" lon="5.63666">
        <ele>187.73</ele>
        <time>2026-08-05T13:47:13.750Z</time>
      </trkpt>
      <trkpt lat="48.72183" lon="5.63659">
        <ele>187.68</ele>
        <time>2026-08-05T13:47:19.746Z</time>
      </trkpt>
      <trkpt lat="48.72211" lon="5.63653">
        <ele>187.49</ele>
        <time>2026-08-05T13:47:25.747Z</time>
      </trkpt>
      <trkpt lat="48.72235" lon="5.63646">
        <ele>188.4</ele>
        <time>2026-08-05T13:47:31.754Z</time>
      </trkpt>
      <trkpt lat="48.7225" lon="5.63643">
        <ele>188.17</ele>
        <time>2026-08-05T13:47:37.751Z</time>
      </trkpt>
      <trkpt lat="48.72256" lon="5.63655">
        <ele>187.75</ele>
        <time>2026-08-05T13:47:43.750Z</time>
      </trkpt>
      <trkpt lat="48.72259" lon="5.63679">
        <ele>187.54</ele>
        <time>2026-08-05T13:47:49.749Z</time>
      </trkpt>
      <trkpt lat="48.72251" lon="5.63691">
        <ele>186.95</ele>
        <time>2026-08-05T13:48:13.742Z</time>
      </trkpt>
      <trkpt lat="48.72243" lon="5.63708">
        <ele>234.78</ele>
        <time>2026-08-05T13:48:29.672Z</time>
      </trkpt>
      <trkpt lat="48.72256" lon="5.6368">
        <ele>234.78</ele>
        <time>2026-08-05T14:47:59.694Z</time>
      </trkpt>
      <trkpt lat="48.72257" lon="5.63665">
        <ele>234.78</ele>
        <time>2026-08-05T14:48:10.679Z</time>
      </trkpt>
      <trkpt lat="48.72253" lon="5.6365">
        <ele>186.03</ele>
        <time>2026-08-05T14:48:25.732Z</time>
      </trkpt>
      <trkpt lat="48.72261" lon="5.63639">
        <ele>188.21</ele>
        <time>2026-08-05T14:48:46.730Z</time>
      </trkpt>
      <trkpt lat="48.7228" lon="5.63637">
        <ele>187.67</ele>
        <time>2026-08-05T14:48:52.685Z</time>
      </trkpt>
      <trkpt lat="48.72299" lon="5.63631">
        <ele>231.88</ele>
        <time>2026-08-05T14:48:58.688Z</time>
      </trkpt>
      <trkpt lat="48.72319" lon="5.63628">
        <ele>234.78</ele>
        <time>2026-08-05T14:49:04.713Z</time>
      </trkpt>
      <trkpt lat="48.7234" lon="5.63623">
        <ele>234.78</ele>
        <time>2026-08-05T14:49:10.684Z</time>
      </trkpt>
      <trkpt lat="48.72362" lon="5.63618">
        <ele>234.78</ele>
        <time>2026-08-05T14:49:15.694Z</time>
      </trkpt>
      <trkpt lat="48.72381" lon="5.63612">
        <ele>234.78</ele>
        <time>2026-08-05T14:49:20.722Z</time>
      </trkpt>
      <trkpt lat="48.72401" lon="5.63611">
        <ele>234.78</ele>
        <time>2026-08-05T14:49:25.743Z</time>
      </trkpt>
      <trkpt lat="48.72427" lon="5.63603">
        <ele>234.78</ele>
        <time>2026-08-05T14:49:31.743Z</time>
      </trkpt>
      <trkpt lat="48.72455" lon="5.63596">
        <ele>234.78</ele>
        <time>2026-08-05T14:49:37.750Z</time>
      </trkpt>
      <trkpt lat="48.72483" lon="5.63589">
        <ele>234.78</ele>
        <time>2026-08-05T14:49:43.738Z</time>
      </trkpt>
      <trkpt lat="48.72514" lon="5.63582">
        <ele>234.78</ele>
        <time>2026-08-05T14:49:49.739Z</time>
      </trkpt>
      <trkpt lat="48.72543" lon="5.63574">
        <ele>234.78</ele>
        <time>2026-08-05T14:49:55.750Z</time>
      </trkpt>
      <trkpt lat="48.72575" lon="5.63567">
        <ele>234.78</ele>
        <time>2026-08-05T14:50:01.746Z</time>
      </trkpt>
      <trkpt lat="48.72607" lon="5.63559">
        <ele>234.78</ele>
        <time>2026-08-05T14:50:07.730Z</time>
      </trkpt>
      <trkpt lat="48.72639" lon="5.63551">
        <ele>234.78</ele>
        <time>2026-08-05T14:50:13.736Z</time>
      </trkpt>
      <trkpt lat="48.7267" lon="5.63544">
        <ele>234.78</ele>
        <time>2026-08-05T14:50:19.734Z</time>
      </trkpt>
      <trkpt lat="48.72701" lon="5.63537">
        <ele>234.78</ele>
        <time>2026-08-05T14:50:25.739Z</time>
      </trkpt>
      <trkpt lat="48.72731" lon="5.6353">
        <ele>185.01</ele>
        <time>2026-08-05T14:50:31.734Z</time>
      </trkpt>
      <trkpt lat="48.72762" lon="5.63522">
        <ele>184.86</ele>
        <time>2026-08-05T14:50:37.734Z</time>
      </trkpt>
      <trkpt lat="48.72794" lon="5.63515">
        <ele>185.15</ele>
        <time>2026-08-05T14:50:43.732Z</time>
      </trkpt>
      <trkpt lat="48.72825" lon="5.63507">
        <ele>184.98</ele>
        <time>2026-08-05T14:50:49.741Z</time>
      </trkpt>
      <trkpt lat="48.72856" lon="5.635">
        <ele>185.27</ele>
        <time>2026-08-05T14:50:55.744Z</time>
      </trkpt>
      <trkpt lat="48.72887" lon="5.63492">
        <ele>185.68</ele>
        <time>2026-08-05T14:51:01.733Z</time>
      </trkpt>
      <trkpt lat="48.72919" lon="5.63485">
        <ele>185.87</ele>
        <time>2026-08-05T14:51:07.732Z</time>
      </trkpt>
      <trkpt lat="48.72952" lon="5.63476">
        <ele>185.41</ele>
        <time>2026-08-05T14:51:13.736Z</time>
      </trkpt>
      <trkpt lat="48.72985" lon="5.63468">
        <ele>185.35</ele>
        <time>2026-08-05T14:51:19.731Z</time>
      </trkpt>
      <trkpt lat="48.73018" lon="5.63459">
        <ele>184.84</ele>
        <time>2026-08-05T14:51:25.737Z</time>
      </trkpt>
      <trkpt lat="48.73049" lon="5.63451">
        <ele>185.11</ele>
        <time>2026-08-05T14:51:31.730Z</time>
      </trkpt>
      <trkpt lat="48.73079" lon="5.63444">
        <ele>184.62</ele>
        <time>2026-08-05T14:51:37.730Z</time>
      </trkpt>
      <trkpt lat="48.73107" lon="5.63436">
        <ele>183.78</ele>
        <time>2026-08-05T14:51:43.753Z</time>
      </trkpt>
      <trkpt lat="48.73129" lon="5.63447">
        <ele>184.93</ele>
        <time>2026-08-05T14:51:49.747Z</time>
      </trkpt>
      <trkpt lat="48.7314" lon="5.6347">
        <ele>187.92</ele>
        <time>2026-08-05T14:51:55.742Z</time>
      </trkpt>
      <trkpt lat="48.73146" lon="5.63493">
        <ele>190.73</ele>
        <time>2026-08-05T14:52:01.752Z</time>
      </trkpt>
      <trkpt lat="48.73152" lon="5.63513">
        <ele>192.28</ele>
        <time>2026-08-05T14:52:07.736Z</time>
      </trkpt>
      <trkpt lat="48.73157" lon="5.63536">
        <ele>194.34</ele>
        <time>2026-08-05T14:52:13.728Z</time>
      </trkpt>
      <trkpt lat="48.73163" lon="5.63557">
        <ele>195.46</ele>
        <time>2026-08-05T14:52:19.748Z</time>
      </trkpt>
      <trkpt lat="48.73166" lon="5.63575">
        <ele>196.12</ele>
        <time>2026-08-05T14:52:25.747Z</time>
      </trkpt>
      <trkpt lat="48.73172" lon="5.63597">
        <ele>195.47</ele>
        <time>2026-08-05T14:52:31.748Z</time>
      </trkpt>
      <trkpt lat="48.73177" lon="5.63616">
        <ele>195.57</ele>
        <time>2026-08-05T14:52:37.739Z</time>
      </trkpt>
      <trkpt lat="48.73187" lon="5.63632">
        <ele>195.98</ele>
        <time>2026-08-05T14:52:43.739Z</time>
      </trkpt>
      <trkpt lat="48.73205" lon="5.63632">
        <ele>195.57</ele>
        <time>2026-08-05T14:52:49.744Z</time>
      </trkpt>
      <trkpt lat="48.73225" lon="5.63629">
        <ele>197.08</ele>
        <time>2026-08-05T14:52:55.747Z</time>
      </trkpt>
      <trkpt lat="48.73244" lon="5.63627">
        <ele>197.89</ele>
        <time>2026-08-05T14:53:01.759Z</time>
      </trkpt>
      <trkpt lat="48.73265" lon="5.63626">
        <ele>198.51</ele>
        <time>2026-08-05T14:53:07.735Z</time>
      </trkpt>
      <trkpt lat="48.73287" lon="5.63626">
        <ele>198.7</ele>
        <time>2026-08-05T14:53:13.734Z</time>
      </trkpt>
      <trkpt lat="48.73313" lon="5.63628">
        <ele>197.14</ele>
        <time>2026-08-05T14:53:19.734Z</time>
      </trkpt>
      <trkpt lat="48.73342" lon="5.63632">
        <ele>196.36</ele>
        <time>2026-08-05T14:53:25.735Z</time>
      </trkpt>
      <trkpt lat="48.73377" lon="5.63638">
        <ele>195.05</ele>
        <time>2026-08-05T14:53:31.737Z</time>
      </trkpt>
      <trkpt lat="48.73413" lon="5.6365">
        <ele>193.85</ele>
        <time>2026-08-05T14:53:37.731Z</time>
      </trkpt>
      <trkpt lat="48.73446" lon="5.63665">
        <ele>194.99</ele>
        <time>2026-08-05T14:53:43.736Z</time>
      </trkpt>
      <trkpt lat="48.73472" lon="5.63671">
        <ele>194.86</ele>
        <time>2026-08-05T14:53:49.737Z</time>
      </trkpt>
      <trkpt lat="48.73483" lon="5.63615">
        <ele>192.34</ele>
        <time>2026-08-05T14:53:55.742Z</time>
      </trkpt>
      <trkpt lat="48.73492" lon="5.63554">
        <ele>191.6</ele>
        <time>2026-08-05T14:54:01.733Z</time>
      </trkpt>
      <trkpt lat="48.7351" lon="5.63504">
        <ele>190.37</ele>
        <time>2026-08-05T14:54:07.734Z</time>
      </trkpt>
      <trkpt lat="48.73534" lon="5.63461">
        <ele>188.9</ele>
        <time>2026-08-05T14:54:13.734Z</time>
      </trkpt>
      <trkpt lat="48.73557" lon="5.63417">
        <ele>189.81</ele>
        <time>2026-08-05T14:54:19.731Z</time>
      </trkpt>
      <trkpt lat="48.7358" lon="5.63377">
        <ele>189.38</ele>
        <time>2026-08-05T14:54:25.744Z</time>
      </trkpt>
      <trkpt lat="48.73606" lon="5.63347">
        <ele>186.28</ele>
        <time>2026-08-05T14:54:31.742Z</time>
      </trkpt>
      <trkpt lat="48.7364" lon="5.63372">
        <ele>184.97</ele>
        <time>2026-08-05T14:54:37.733Z</time>
      </trkpt>
      <trkpt lat="48.7367" lon="5.63403">
        <ele>185.87</ele>
        <time>2026-08-05T14:54:43.744Z</time>
      </trkpt>
      <trkpt lat="48.737" lon="5.63417">
        <ele>186.46</ele>
        <time>2026-08-05T14:54:49.733Z</time>
      </trkpt>
      <trkpt lat="48.73727" lon="5.63427">
        <ele>187.28</ele>
        <time>2026-08-05T14:54:55.749Z</time>
      </trkpt>
      <trkpt lat="48.73753" lon="5.63441">
        <ele>187.06</ele>
        <time>2026-08-05T14:55:01.736Z</time>
      </trkpt>
      <trkpt lat="48.73784" lon="5.63454">
        <ele>185.44</ele>
        <time>2026-08-05T14:55:07.741Z</time>
      </trkpt>
      <trkpt lat="48.73814" lon="5.63468">
        <ele>184.38</ele>
        <time>2026-08-05T14:55:13.735Z</time>
      </trkpt>
      <trkpt lat="48.73845" lon="5.63481">
        <ele>184.83</ele>
        <time>2026-08-05T14:55:19.736Z</time>
      </trkpt>
      <trkpt lat="48.73873" lon="5.63495">
        <ele>185.24</ele>
        <time>2026-08-05T14:55:25.731Z</time>
      </trkpt>
      <trkpt lat="48.73899" lon="5.63506">
        <ele>184.59</ele>
        <time>2026-08-05T14:55:31.736Z</time>
      </trkpt>
      <trkpt lat="48.73924" lon="5.63517">
        <ele>184.76</ele>
        <time>2026-08-05T14:55:37.753Z</time>
      </trkpt>
      <trkpt lat="48.73956" lon="5.63533">
        <ele>185.53</ele>
        <time>2026-08-05T14:55:43.736Z</time>
      </trkpt>
      <trkpt lat="48.73991" lon="5.63548">
        <ele>186.36</ele>
        <time>2026-08-05T14:55:49.746Z</time>
      </trkpt>
      <trkpt lat="48.74024" lon="5.63562">
        <ele>186.12</ele>
        <time>2026-08-05T14:55:55.743Z</time>
      </trkpt>
      <trkpt lat="48.74053" lon="5.63575">
        <ele>186.61</ele>
        <time>2026-08-05T14:56:01.733Z</time>
      </trkpt>
      <trkpt lat="48.74084" lon="5.6359">
        <ele>185.9</ele>
        <time>2026-08-05T14:56:07.741Z</time>
      </trkpt>
      <trkpt lat="48.74112" lon="5.63602">
        <ele>186.07</ele>
        <time>2026-08-05T14:56:13.744Z</time>
      </trkpt>
      <trkpt lat="48.7414" lon="5.63614">
        <ele>185.71</ele>
        <time>2026-08-05T14:56:19.739Z</time>
      </trkpt>
      <trkpt lat="48.74169" lon="5.63628">
        <ele>186.35</ele>
        <time>2026-08-05T14:56:25.740Z</time>
      </trkpt>
      <trkpt lat="48.74198" lon="5.6364">
        <ele>185.49</ele>
        <time>2026-08-05T14:56:31.734Z</time>
      </trkpt>
      <trkpt lat="48.74219" lon="5.63649">
        <ele>185.97</ele>
        <time>2026-08-05T14:56:37.736Z</time>
      </trkpt>
      <trkpt lat="48.74237" lon="5.63659">
        <ele>187.85</ele>
        <time>2026-08-05T14:56:43.736Z</time>
      </trkpt>
      <trkpt lat="48.74261" lon="5.63673">
        <ele>186.52</ele>
        <time>2026-08-05T14:56:49.734Z</time>
      </trkpt>
      <trkpt lat="48.74274" lon="5.63676">
        <ele>186.87</ele>
        <time>2026-08-05T14:56:55.728Z</time>
      </trkpt>
      <trkpt lat="48.74287" lon="5.63651">
        <ele>188.25</ele>
        <time>2026-08-05T14:57:01.752Z</time>
      </trkpt>
      <trkpt lat="48.743" lon="5.63616">
        <ele>188.83</ele>
        <time>2026-08-05T14:57:07.747Z</time>
      </trkpt>
      <trkpt lat="48.74314" lon="5.6358">
        <ele>188.13</ele>
        <time>2026-08-05T14:57:13.737Z</time>
      </trkpt>
      <trkpt lat="48.74327" lon="5.63543">
        <ele>187.11</ele>
        <time>2026-08-05T14:57:19.742Z</time>
      </trkpt>
      <trkpt lat="48.74342" lon="5.63507">
        <ele>186.86</ele>
        <time>2026-08-05T14:57:25.745Z</time>
      </trkpt>
      <trkpt lat="48.74357" lon="5.63472">
        <ele>186.27</ele>
        <time>2026-08-05T14:57:31.736Z</time>
      </trkpt>
      <trkpt lat="48.74375" lon="5.63439">
        <ele>188.14</ele>
        <time>2026-08-05T14:57:37.739Z</time>
      </trkpt>
      <trkpt lat="48.7439" lon="5.63407">
        <ele>190.53</ele>
        <time>2026-08-05T14:57:43.752Z</time>
      </trkpt>
      <trkpt lat="48.74405" lon="5.63379">
        <ele>192.74</ele>
        <time>2026-08-05T14:57:49.737Z</time>
      </trkpt>
      <trkpt lat="48.7442" lon="5.6335">
        <ele>194.56</ele>
        <time>2026-08-05T14:57:55.769Z</time>
      </trkpt>
      <trkpt lat="48.74434" lon="5.63322">
        <ele>194.78</ele>
        <time>2026-08-05T14:58:01.739Z</time>
      </trkpt>
      <trkpt lat="48.74449" lon="5.63295">
        <ele>192.97</ele>
        <time>2026-08-05T14:58:07.736Z</time>
      </trkpt>
      <trkpt lat="48.74464" lon="5.63268">
        <ele>192.59</ele>
        <time>2026-08-05T14:58:13.795Z</time>
      </trkpt>
      <trkpt lat="48.74479" lon="5.63241">
        <ele>193.16</ele>
        <time>2026-08-05T14:58:19.730Z</time>
      </trkpt>
      <trkpt lat="48.74492" lon="5.63217">
        <ele>193.17</ele>
        <time>2026-08-05T14:58:25.733Z</time>
      </trkpt>
      <trkpt lat="48.74504" lon="5.6319">
        <ele>192.78</ele>
        <time>2026-08-05T14:58:31.735Z</time>
      </trkpt>
      <trkpt lat="48.74517" lon="5.63166">
        <ele>192.8</ele>
        <time>2026-08-05T14:58:37.737Z</time>
      </trkpt>
      <trkpt lat="48.74532" lon="5.63141">
        <ele>191.46</ele>
        <time>2026-08-05T14:58:43.735Z</time>
      </trkpt>
      <trkpt lat="48.74544" lon="5.63117">
        <ele>192.23</ele>
        <time>2026-08-05T14:58:49.751Z</time>
      </trkpt>
      <trkpt lat="48.74558" lon="5.63092">
        <ele>192.33</ele>
        <time>2026-08-05T14:58:55.753Z</time>
      </trkpt>
      <trkpt lat="48.74572" lon="5.63067">
        <ele>193.63</ele>
        <time>2026-08-05T14:59:01.742Z</time>
      </trkpt>
      <trkpt lat="48.74585" lon="5.63042">
        <ele>194.36</ele>
        <time>2026-08-05T14:59:07.737Z</time>
      </trkpt>
      <trkpt lat="48.74599" lon="5.63017">
        <ele>194.4</ele>
        <time>2026-08-05T14:59:13.739Z</time>
      </trkpt>
      <trkpt lat="48.74611" lon="5.62992">
        <ele>194.47</ele>
        <time>2026-08-05T14:59:19.737Z</time>
      </trkpt>
      <trkpt lat="48.74624" lon="5.62967">
        <ele>194.02</ele>
        <time>2026-08-05T14:59:25.751Z</time>
      </trkpt>
      <trkpt lat="48.74637" lon="5.62943">
        <ele>193.18</ele>
        <time>2026-08-05T14:59:31.735Z</time>
      </trkpt>
      <trkpt lat="48.7465" lon="5.62919">
        <ele>192.76</ele>
        <time>2026-08-05T14:59:37.731Z</time>
      </trkpt>
      <trkpt lat="48.74663" lon="5.62894">
        <ele>193.15</ele>
        <time>2026-08-05T14:59:43.731Z</time>
      </trkpt>
      <trkpt lat="48.74676" lon="5.6287">
        <ele>193.5</ele>
        <time>2026-08-05T14:59:49.734Z</time>
      </trkpt>
      <trkpt lat="48.7469" lon="5.62845">
        <ele>193.55</ele>
        <time>2026-08-05T14:59:55.751Z</time>
      </trkpt>
      <trkpt lat="48.74704" lon="5.62817">
        <ele>193.3</ele>
        <time>2026-08-05T15:00:01.773Z</time>
      </trkpt>
      <trkpt lat="48.74717" lon="5.62789">
        <ele>193.6</ele>
        <time>2026-08-05T15:00:07.749Z</time>
      </trkpt>
      <trkpt lat="48.7473" lon="5.6276">
        <ele>193.9</ele>
        <time>2026-08-05T15:00:13.757Z</time>
      </trkpt>
      <trkpt lat="48.74745" lon="5.6273">
        <ele>193.75</ele>
        <time>2026-08-05T15:00:19.735Z</time>
      </trkpt>
      <trkpt lat="48.74762" lon="5.62697">
        <ele>193.73</ele>
        <time>2026-08-05T15:00:25.743Z</time>
      </trkpt>
      <trkpt lat="48.74779" lon="5.62662">
        <ele>194.79</ele>
        <time>2026-08-05T15:00:31.738Z</time>
      </trkpt>
      <trkpt lat="48.74797" lon="5.62626">
        <ele>195.64</ele>
        <time>2026-08-05T15:00:37.753Z</time>
      </trkpt>
      <trkpt lat="48.74816" lon="5.62591">
        <ele>193.79</ele>
        <time>2026-08-05T15:00:43.740Z</time>
      </trkpt>
      <trkpt lat="48.74834" lon="5.62558">
        <ele>194.21</ele>
        <time>2026-08-05T15:00:49.735Z</time>
      </trkpt>
      <trkpt lat="48.74851" lon="5.62529">
        <ele>195.36</ele>
        <time>2026-08-05T15:00:55.721Z</time>
      </trkpt>
      <trkpt lat="48.74872" lon="5.62504">
        <ele>195.4</ele>
        <time>2026-08-05T15:01:01.733Z</time>
      </trkpt>
      <trkpt lat="48.749" lon="5.62485">
        <ele>192.99</ele>
        <time>2026-08-05T15:01:07.734Z</time>
      </trkpt>
      <trkpt lat="48.74928" lon="5.62471">
        <ele>191.43</ele>
        <time>2026-08-05T15:01:13.731Z</time>
      </trkpt>
      <trkpt lat="48.74949" lon="5.62459">
        <ele>190.44</ele>
        <time>2026-08-05T15:01:19.744Z</time>
      </trkpt>
      <trkpt lat="48.74964" lon="5.62471">
        <ele>191.74</ele>
        <time>2026-08-05T15:01:25.751Z</time>
      </trkpt>
      <trkpt lat="48.74974" lon="5.62481">
        <ele>190.99</ele>
        <time>2026-08-05T15:01:31.736Z</time>
      </trkpt>
      <trkpt lat="48.74981" lon="5.62471">
        <ele>192.97</ele>
        <time>2026-08-05T15:01:37.744Z</time>
      </trkpt>
      <trkpt lat="48.74973" lon="5.62479">
        <ele>194.82</ele>
        <time>2026-08-05T15:01:56.694Z</time>
      </trkpt>
      <trkpt lat="48.74964" lon="5.62483">
        <ele>196.85</ele>
        <time>2026-08-05T15:02:05.688Z</time>
      </trkpt>
      <trkpt lat="48.74974" lon="5.62478">
        <ele>197.59</ele>
        <time>2026-08-05T15:02:40.684Z</time>
      </trkpt>
      <trkpt lat="48.74983" lon="5.62475">
        <ele>196.44</ele>
        <time>2026-08-05T15:02:45.693Z</time>
      </trkpt>
      <trkpt lat="48.74989" lon="5.62464">
        <ele>196.35</ele>
        <time>2026-08-05T15:04:02.200Z</time>
      </trkpt>
      <trkpt lat="48.74992" lon="5.62447">
        <ele>195.05</ele>
        <time>2026-08-05T15:04:07.745Z</time>
      </trkpt>
      <trkpt lat="48.7499" lon="5.62429">
        <ele>193.23</ele>
        <time>2026-08-05T15:04:13.741Z</time>
      </trkpt>
      <trkpt lat="48.74999" lon="5.62414">
        <ele>190.1</ele>
        <time>2026-08-05T15:04:19.737Z</time>
      </trkpt>
      <trkpt lat="48.75015" lon="5.624">
        <ele>188.82</ele>
        <time>2026-08-05T15:04:25.749Z</time>
      </trkpt>
      <trkpt lat="48.75035" lon="5.62386">
        <ele>187.39</ele>
        <time>2026-08-05T15:04:31.752Z</time>
      </trkpt>
      <trkpt lat="48.75055" lon="5.6237">
        <ele>187.8</ele>
        <time>2026-08-05T15:04:37.733Z</time>
      </trkpt>
      <trkpt lat="48.75075" lon="5.62352">
        <ele>187.32</ele>
        <time>2026-08-05T15:04:43.742Z</time>
      </trkpt>
      <trkpt lat="48.75095" lon="5.62329">
        <ele>186.79</ele>
        <time>2026-08-05T15:04:49.752Z</time>
      </trkpt>
      <trkpt lat="48.75112" lon="5.62301">
        <ele>186.14</ele>
        <time>2026-08-05T15:04:55.745Z</time>
      </trkpt>
      <trkpt lat="48.75129" lon="5.62269">
        <ele>185.73</ele>
        <time>2026-08-05T15:05:01.747Z</time>
      </trkpt>
      <trkpt lat="48.75151" lon="5.62231">
        <ele>185.9</ele>
        <time>2026-08-05T15:05:07.734Z</time>
      </trkpt>
      <trkpt lat="48.75176" lon="5.62187">
        <ele>184.96</ele>
        <time>2026-08-05T15:05:13.729Z</time>
      </trkpt>
      <trkpt lat="48.75204" lon="5.6214">
        <ele>184.37</ele>
        <time>2026-08-05T15:05:19.729Z</time>
      </trkpt>
      <trkpt lat="48.75233" lon="5.62093">
        <ele>185.09</ele>
        <time>2026-08-05T15:05:25.734Z</time>
      </trkpt>
      <trkpt lat="48.7526" lon="5.62047">
        <ele>184.83</ele>
        <time>2026-08-05T15:05:31.731Z</time>
      </trkpt>
      <trkpt lat="48.75289" lon="5.61996">
        <ele>184.74</ele>
        <time>2026-08-05T15:05:37.732Z</time>
      </trkpt>
      <trkpt lat="48.75313" lon="5.61951">
        <ele>183.77</ele>
        <time>2026-08-05T15:05:43.737Z</time>
      </trkpt>
      <trkpt lat="48.75334" lon="5.61911">
        <ele>183.42</ele>
        <time>2026-08-05T15:05:49.733Z</time>
      </trkpt>
      <trkpt lat="48.75352" lon="5.61873">
        <ele>182.56</ele>
        <time>2026-08-05T15:05:55.737Z</time>
      </trkpt>
      <trkpt lat="48.75367" lon="5.61835">
        <ele>182.48</ele>
        <time>2026-08-05T15:06:01.732Z</time>
      </trkpt>
      <trkpt lat="48.75381" lon="5.61801">
        <ele>183.26</ele>
        <time>2026-08-05T15:06:07.742Z</time>
      </trkpt>
      <trkpt lat="48.75394" lon="5.61768">
        <ele>185.03</ele>
        <time>2026-08-05T15:06:13.739Z</time>
      </trkpt>
      <trkpt lat="48.75407" lon="5.61736">
        <ele>185.94</ele>
        <time>2026-08-05T15:06:19.737Z</time>
      </trkpt>
      <trkpt lat="48.75421" lon="5.61701">
        <ele>186.08</ele>
        <time>2026-08-05T15:06:25.747Z</time>
      </trkpt>
      <trkpt lat="48.75435" lon="5.61666">
        <ele>184.74</ele>
        <time>2026-08-05T15:06:31.752Z</time>
      </trkpt>
      <trkpt lat="48.75449" lon="5.61631">
        <ele>184.9</ele>
        <time>2026-08-05T15:06:37.747Z</time>
      </trkpt>
      <trkpt lat="48.75462" lon="5.61596">
        <ele>184.85</ele>
        <time>2026-08-05T15:06:43.740Z</time>
      </trkpt>
      <trkpt lat="48.75476" lon="5.61561">
        <ele>184.92</ele>
        <time>2026-08-05T15:06:49.725Z</time>
      </trkpt>
      <trkpt lat="48.75491" lon="5.61525">
        <ele>185.55</ele>
        <time>2026-08-05T15:06:55.741Z</time>
      </trkpt>
      <trkpt lat="48.75505" lon="5.61487">
        <ele>184.89</ele>
        <time>2026-08-05T15:07:01.741Z</time>
      </trkpt>
      <trkpt lat="48.7552" lon="5.61447">
        <ele>184.64</ele>
        <time>2026-08-05T15:07:07.736Z</time>
      </trkpt>
      <trkpt lat="48.75536" lon="5.61407">
        <ele>184.48</ele>
        <time>2026-08-05T15:07:13.741Z</time>
      </trkpt>
      <trkpt lat="48.75552" lon="5.61368">
        <ele>184.29</ele>
        <time>2026-08-05T15:07:19.734Z</time>
      </trkpt>
      <trkpt lat="48.75566" lon="5.61332">
        <ele>184.25</ele>
        <time>2026-08-05T15:07:25.748Z</time>
      </trkpt>
      <trkpt lat="48.75582" lon="5.61294">
        <ele>185.09</ele>
        <time>2026-08-05T15:07:31.746Z</time>
      </trkpt>
      <trkpt lat="48.75597" lon="5.61257">
        <ele>186.45</ele>
        <time>2026-08-05T15:07:37.730Z</time>
      </trkpt>
      <trkpt lat="48.75612" lon="5.61219">
        <ele>187.58</ele>
        <time>2026-08-05T15:07:43.741Z</time>
      </trkpt>
      <trkpt lat="48.75627" lon="5.6118">
        <ele>188.52</ele>
        <time>2026-08-05T15:07:49.730Z</time>
      </trkpt>
      <trkpt lat="48.75643" lon="5.61144">
        <ele>187.65</ele>
        <time>2026-08-05T15:07:55.739Z</time>
      </trkpt>
      <trkpt lat="48.75657" lon="5.61107">
        <ele>188.5</ele>
        <time>2026-08-05T15:08:01.740Z</time>
      </trkpt>
      <trkpt lat="48.75672" lon="5.6107">
        <ele>188.89</ele>
        <time>2026-08-05T15:08:07.735Z</time>
      </trkpt>
      <trkpt lat="48.75688" lon="5.61032">
        <ele>187.5</ele>
        <time>2026-08-05T15:08:13.737Z</time>
      </trkpt>
      <trkpt lat="48.75702" lon="5.60992">
        <ele>186.12</ele>
        <time>2026-08-05T15:08:19.742Z</time>
      </trkpt>
      <trkpt lat="48.75719" lon="5.60952">
        <ele>186.11</ele>
        <time>2026-08-05T15:08:25.739Z</time>
      </trkpt>
      <trkpt lat="48.75735" lon="5.60913">
        <ele>185.67</ele>
        <time>2026-08-05T15:08:31.746Z</time>
      </trkpt>
      <trkpt lat="48.7575" lon="5.60874">
        <ele>185.4</ele>
        <time>2026-08-05T15:08:37.750Z</time>
      </trkpt>
      <trkpt lat="48.75766" lon="5.60836">
        <ele>186.2</ele>
        <time>2026-08-05T15:08:43.755Z</time>
      </trkpt>
      <trkpt lat="48.75781" lon="5.60798">
        <ele>186.46</ele>
        <time>2026-08-05T15:08:49.745Z</time>
      </trkpt>
      <trkpt lat="48.75795" lon="5.6076">
        <ele>187.77</ele>
        <time>2026-08-05T15:08:55.742Z</time>
      </trkpt>
      <trkpt lat="48.75812" lon="5.60723">
        <ele>189.05</ele>
        <time>2026-08-05T15:09:01.763Z</time>
      </trkpt>
      <trkpt lat="48.7583" lon="5.60688">
        <ele>188.87</ele>
        <time>2026-08-05T15:09:07.742Z</time>
      </trkpt>
      <trkpt lat="48.75848" lon="5.60654">
        <ele>187.15</ele>
        <time>2026-08-05T15:09:13.740Z</time>
      </trkpt>
      <trkpt lat="48.75865" lon="5.6062">
        <ele>185.3</ele>
        <time>2026-08-05T15:09:19.742Z</time>
      </trkpt>
      <trkpt lat="48.75884" lon="5.60588">
        <ele>184.54</ele>
        <time>2026-08-05T15:09:25.749Z</time>
      </trkpt>
      <trkpt lat="48.75901" lon="5.60556">
        <ele>185.15</ele>
        <time>2026-08-05T15:09:31.743Z</time>
      </trkpt>
      <trkpt lat="48.75918" lon="5.60522">
        <ele>185.45</ele>
        <time>2026-08-05T15:09:37.747Z</time>
      </trkpt>
      <trkpt lat="48.75933" lon="5.60494">
        <ele>185.65</ele>
        <time>2026-08-05T15:09:43.746Z</time>
      </trkpt>
      <trkpt lat="48.75948" lon="5.60462">
        <ele>186.41</ele>
        <time>2026-08-05T15:09:49.755Z</time>
      </trkpt>
      <trkpt lat="48.75966" lon="5.60428">
        <ele>187</ele>
        <time>2026-08-05T15:09:55.754Z</time>
      </trkpt>
      <trkpt lat="48.75981" lon="5.60392">
        <ele>186.78</ele>
        <time>2026-08-05T15:10:01.738Z</time>
      </trkpt>
      <trkpt lat="48.75999" lon="5.60357">
        <ele>185.67</ele>
        <time>2026-08-05T15:10:07.739Z</time>
      </trkpt>
      <trkpt lat="48.76015" lon="5.60323">
        <ele>185.06</ele>
        <time>2026-08-05T15:10:13.742Z</time>
      </trkpt>
      <trkpt lat="48.76034" lon="5.60287">
        <ele>182.76</ele>
        <time>2026-08-05T15:10:19.745Z</time>
      </trkpt>
      <trkpt lat="48.76054" lon="5.60249">
        <ele>181.8</ele>
        <time>2026-08-05T15:10:25.752Z</time>
      </trkpt>
      <trkpt lat="48.76072" lon="5.60212">
        <ele>181.17</ele>
        <time>2026-08-05T15:10:31.744Z</time>
      </trkpt>
      <trkpt lat="48.76091" lon="5.60176">
        <ele>181.65</ele>
        <time>2026-08-05T15:10:37.740Z</time>
      </trkpt>
      <trkpt lat="48.7611" lon="5.60138">
        <ele>183.61</ele>
        <time>2026-08-05T15:10:43.748Z</time>
      </trkpt>
      <trkpt lat="48.76129" lon="5.60101">
        <ele>185.08</ele>
        <time>2026-08-05T15:10:49.744Z</time>
      </trkpt>
      <trkpt lat="48.76146" lon="5.60064">
        <ele>186.45</ele>
        <time>2026-08-05T15:10:55.742Z</time>
      </trkpt>
      <trkpt lat="48.76165" lon="5.60027">
        <ele>185.3</ele>
        <time>2026-08-05T15:11:01.744Z</time>
      </trkpt>
      <trkpt lat="48.76184" lon="5.59989">
        <ele>185.81</ele>
        <time>2026-08-05T15:11:07.742Z</time>
      </trkpt>
      <trkpt lat="48.76204" lon="5.59953">
        <ele>186</ele>
        <time>2026-08-05T15:11:13.746Z</time>
      </trkpt>
      <trkpt lat="48.76221" lon="5.59919">
        <ele>186.1</ele>
        <time>2026-08-05T15:11:19.737Z</time>
      </trkpt>
      <trkpt lat="48.76243" lon="5.59891">
        <ele>183.57</ele>
        <time>2026-08-05T15:11:25.745Z</time>
      </trkpt>
      <trkpt lat="48.76265" lon="5.59865">
        <ele>183.57</ele>
        <time>2026-08-05T15:11:31.738Z</time>
      </trkpt>
      <trkpt lat="48.76286" lon="5.59843">
        <ele>183.52</ele>
        <time>2026-08-05T15:11:37.758Z</time>
      </trkpt>
      <trkpt lat="48.76301" lon="5.59815">
        <ele>182.64</ele>
        <time>2026-08-05T15:11:43.739Z</time>
      </trkpt>
      <trkpt lat="48.76318" lon="5.59792">
        <ele>183.11</ele>
        <time>2026-08-05T15:11:49.757Z</time>
      </trkpt>
      <trkpt lat="48.76339" lon="5.5977">
        <ele>183.96</ele>
        <time>2026-08-05T15:11:55.748Z</time>
      </trkpt>
      <trkpt lat="48.76356" lon="5.5974">
        <ele>184.27</ele>
        <time>2026-08-05T15:12:01.750Z</time>
      </trkpt>
      <trkpt lat="48.76384" lon="5.59722">
        <ele>181.73</ele>
        <time>2026-08-05T15:12:07.740Z</time>
      </trkpt>
      <trkpt lat="48.76408" lon="5.59695">
        <ele>182.18</ele>
        <time>2026-08-05T15:12:13.749Z</time>
      </trkpt>
      <trkpt lat="48.76427" lon="5.59672">
        <ele>186.22</ele>
        <time>2026-08-05T15:12:19.737Z</time>
      </trkpt>
      <trkpt lat="48.76444" lon="5.59654">
        <ele>186.94</ele>
        <time>2026-08-05T15:12:25.767Z</time>
      </trkpt>
      <trkpt lat="48.76458" lon="5.5964">
        <ele>187.67</ele>
        <time>2026-08-05T15:12:31.747Z</time>
      </trkpt>
      <trkpt lat="48.76469" lon="5.59628">
        <ele>186.96</ele>
        <time>2026-08-05T15:12:37.739Z</time>
      </trkpt>
      <trkpt lat="48.76477" lon="5.59618">
        <ele>186.64</ele>
        <time>2026-08-05T15:12:43.752Z</time>
      </trkpt>
      <trkpt lat="48.76468" lon="5.59625">
        <ele>186.66</ele>
        <time>2026-08-05T15:13:55.754Z</time>
      </trkpt>
      <trkpt lat="48.76451" lon="5.59644">
        <ele>186.82</ele>
        <time>2026-08-05T15:14:01.756Z</time>
      </trkpt>
      <trkpt lat="48.76429" lon="5.59666">
        <ele>184.69</ele>
        <time>2026-08-05T15:14:07.748Z</time>
      </trkpt>
      <trkpt lat="48.76406" lon="5.59692">
        <ele>183.43</ele>
        <time>2026-08-05T15:14:13.740Z</time>
      </trkpt>
      <trkpt lat="48.76383" lon="5.59716">
        <ele>182.2</ele>
        <time>2026-08-05T15:14:19.748Z</time>
      </trkpt>
      <trkpt lat="48.76361" lon="5.59732">
        <ele>180.93</ele>
        <time>2026-08-05T15:14:25.801Z</time>
      </trkpt>
      <trkpt lat="48.76342" lon="5.59761">
        <ele>181.84</ele>
        <time>2026-08-05T15:14:32.181Z</time>
      </trkpt>
      <trkpt lat="48.76326" lon="5.5978">
        <ele>184.7</ele>
        <time>2026-08-05T15:14:38.040Z</time>
      </trkpt>
      <trkpt lat="48.76321" lon="5.5981">
        <ele>183.68</ele>
        <time>2026-08-05T15:14:49.874Z</time>
      </trkpt>
      <trkpt lat="48.76336" lon="5.59799">
        <ele>220.22</ele>
        <time>2026-08-05T15:14:55.820Z</time>
      </trkpt>
      <trkpt lat="48.76347" lon="5.59794">
        <ele>232.31</ele>
        <time>2026-08-05T15:15:01.753Z</time>
      </trkpt>
      <trkpt lat="48.76357" lon="5.59788">
        <ele>232.32</ele>
        <time>2026-08-05T15:15:10.689Z</time>
      </trkpt>
      <trkpt lat="48.76371" lon="5.5977">
        <ele>232.32</ele>
        <time>2026-08-05T15:15:15.691Z</time>
      </trkpt>
      <trkpt lat="48.76371" lon="5.59755">
        <ele>235.62</ele>
        <time>2026-08-05T15:15:27.680Z</time>
      </trkpt>
      <trkpt lat="48.76353" lon="5.59732">
        <ele>232.93</ele>
        <time>2026-08-05T15:15:32.692Z</time>
      </trkpt>
      <trkpt lat="48.76341" lon="5.59718">
        <ele>232.92</ele>
        <time>2026-08-05T15:15:37.884Z</time>
      </trkpt>
      <trkpt lat="48.76322" lon="5.59697">
        <ele>232.92</ele>
        <time>2026-08-05T15:15:43.753Z</time>
      </trkpt>
      <trkpt lat="48.76308" lon="5.59678">
        <ele>232.24</ele>
        <time>2026-08-05T15:15:49.572Z</time>
      </trkpt>
      <trkpt lat="48.76289" lon="5.59656">
        <ele>232.02</ele>
        <time>2026-08-05T15:15:54.721Z</time>
      </trkpt>
      <trkpt lat="48.76269" lon="5.59627">
        <ele>232.17</ele>
        <time>2026-08-05T15:16:00.746Z</time>
      </trkpt>
      <trkpt lat="48.76261" lon="5.59601">
        <ele>232.22</ele>
        <time>2026-08-05T15:16:05.769Z</time>
      </trkpt>
      <trkpt lat="48.76253" lon="5.59575">
        <ele>232.22</ele>
        <time>2026-08-05T15:16:11.730Z</time>
      </trkpt>
      <trkpt lat="48.7624" lon="5.59541">
        <ele>236.81</ele>
        <time>2026-08-05T15:16:17.751Z</time>
      </trkpt>
      <trkpt lat="48.76229" lon="5.59502">
        <ele>236.82</ele>
        <time>2026-08-05T15:16:23.690Z</time>
      </trkpt>
      <trkpt lat="48.7622" lon="5.59469">
        <ele>236.82</ele>
        <time>2026-08-05T15:16:28.690Z</time>
      </trkpt>
      <trkpt lat="48.7621" lon="5.59444">
        <ele>238.04</ele>
        <time>2026-08-05T15:16:33.692Z</time>
      </trkpt>
      <trkpt lat="48.762" lon="5.59417">
        <ele>238.12</ele>
        <time>2026-08-05T15:16:38.693Z</time>
      </trkpt>
      <trkpt lat="48.76192" lon="5.59385">
        <ele>238.12</ele>
        <time>2026-08-05T15:16:43.743Z</time>
      </trkpt>
      <trkpt lat="48.7619" lon="5.59347">
        <ele>240.41</ele>
        <time>2026-08-05T15:16:49.750Z</time>
      </trkpt>
      <trkpt lat="48.7619" lon="5.59318">
        <ele>240.42</ele>
        <time>2026-08-05T15:16:55.745Z</time>
      </trkpt>
      <trkpt lat="48.76188" lon="5.59292">
        <ele>240.42</ele>
        <time>2026-08-05T15:17:01.753Z</time>
      </trkpt>
      <trkpt lat="48.76192" lon="5.59277">
        <ele>240.42</ele>
        <time>2026-08-05T15:17:08.056Z</time>
      </trkpt>
      <trkpt lat="48.7619" lon="5.59258">
        <ele>248.12</ele>
        <time>2026-08-05T15:17:21.699Z</time>
      </trkpt>
      <trkpt lat="48.76185" lon="5.59217">
        <ele>248.12</ele>
        <time>2026-08-05T15:17:27.684Z</time>
      </trkpt>
      <trkpt lat="48.76181" lon="5.59166">
        <ele>248.12</ele>
        <time>2026-08-05T15:17:33.675Z</time>
      </trkpt>
      <trkpt lat="48.76178" lon="5.5913">
        <ele>248.12</ele>
        <time>2026-08-05T15:17:38.692Z</time>
      </trkpt>
      <trkpt lat="48.76173" lon="5.59099">
        <ele>236.96</ele>
        <time>2026-08-05T15:17:43.764Z</time>
      </trkpt>
      <trkpt lat="48.76173" lon="5.59076">
        <ele>236.22</ele>
        <time>2026-08-05T15:17:49.744Z</time>
      </trkpt>
      <trkpt lat="48.7619" lon="5.59057">
        <ele>236.22</ele>
        <time>2026-08-05T15:17:54.757Z</time>
      </trkpt>
      <trkpt lat="48.76204" lon="5.59042">
        <ele>236.22</ele>
        <time>2026-08-05T15:18:00.697Z</time>
      </trkpt>
      <trkpt lat="48.76197" lon="5.59035">
        <ele>234.92</ele>
        <time>2026-08-05T15:26:28.697Z</time>
      </trkpt>
      <trkpt lat="48.76207" lon="5.59028">
        <ele>234.92</ele>
        <time>2026-08-05T15:27:39.941Z</time>
      </trkpt>
      <trkpt lat="48.76236" lon="5.59005">
        <ele>234.92</ele>
        <time>2026-08-05T15:27:45.707Z</time>
      </trkpt>
      <trkpt lat="48.76246" lon="5.59016">
        <ele>234.92</ele>
        <time>2026-08-05T15:27:51.192Z</time>
      </trkpt>
      <trkpt lat="48.76265" lon="5.5905">
        <ele>235.62</ele>
        <time>2026-08-05T15:27:56.520Z</time>
      </trkpt>
      <trkpt lat="48.76284" lon="5.59068">
        <ele>235.62</ele>
        <time>2026-08-05T15:28:01.759Z</time>
      </trkpt>
      <trkpt lat="48.76293" lon="5.59091">
        <ele>235.62</ele>
        <time>2026-08-05T15:28:07.754Z</time>
      </trkpt>
      <trkpt lat="48.76305" lon="5.59112">
        <ele>235.62</ele>
        <time>2026-08-05T15:28:13.728Z</time>
      </trkpt>
      <trkpt lat="48.76314" lon="5.59133">
        <ele>235.62</ele>
        <time>2026-08-05T15:28:19.762Z</time>
      </trkpt>
      <trkpt lat="48.76311" lon="5.59153">
        <ele>235.62</ele>
        <time>2026-08-05T15:28:25.762Z</time>
      </trkpt>
      <trkpt lat="48.76298" lon="5.59164">
        <ele>235.62</ele>
        <time>2026-08-05T15:28:31.749Z</time>
      </trkpt>
      <trkpt lat="48.76287" lon="5.59176">
        <ele>235.62</ele>
        <time>2026-08-05T15:28:37.747Z</time>
      </trkpt>
      <trkpt lat="48.76273" lon="5.59184">
        <ele>235.62</ele>
        <time>2026-08-05T15:28:43.781Z</time>
      </trkpt>
      <trkpt lat="48.76263" lon="5.5921">
        <ele>235.62</ele>
        <time>2026-08-05T15:28:49.731Z</time>
      </trkpt>
      <trkpt lat="48.76248" lon="5.59216">
        <ele>235.62</ele>
        <time>2026-08-05T15:28:55.745Z</time>
      </trkpt>
      <trkpt lat="48.76234" lon="5.59221">
        <ele>235.62</ele>
        <time>2026-08-05T15:29:01.741Z</time>
      </trkpt>
      <trkpt lat="48.76219" lon="5.59233">
        <ele>235.62</ele>
        <time>2026-08-05T15:29:07.764Z</time>
      </trkpt>
      <trkpt lat="48.76205" lon="5.5924">
        <ele>235.62</ele>
        <time>2026-08-05T15:29:13.754Z</time>
      </trkpt>
      <trkpt lat="48.76183" lon="5.5926">
        <ele>235.62</ele>
        <time>2026-08-05T15:29:19.739Z</time>
      </trkpt>
      <trkpt lat="48.76184" lon="5.59302">
        <ele>241.02</ele>
        <time>2026-08-05T15:29:25.785Z</time>
      </trkpt>
      <trkpt lat="48.76191" lon="5.5935">
        <ele>241.02</ele>
        <time>2026-08-05T15:29:31.753Z</time>
      </trkpt>
      <trkpt lat="48.76191" lon="5.59388">
        <ele>241.02</ele>
        <time>2026-08-05T15:29:37.738Z</time>
      </trkpt>
      <trkpt lat="48.76206" lon="5.5943">
        <ele>240.42</ele>
        <time>2026-08-05T15:29:43.735Z</time>
      </trkpt>
      <trkpt lat="48.76221" lon="5.59479">
        <ele>240.42</ele>
        <time>2026-08-05T15:29:49.741Z</time>
      </trkpt>
      <trkpt lat="48.76236" lon="5.59534">
        <ele>240.42</ele>
        <time>2026-08-05T15:29:55.739Z</time>
      </trkpt>
      <trkpt lat="48.7625" lon="5.59576">
        <ele>240.42</ele>
        <time>2026-08-05T15:30:01.742Z</time>
      </trkpt>
      <trkpt lat="48.76262" lon="5.59617">
        <ele>240.42</ele>
        <time>2026-08-05T15:30:07.754Z</time>
      </trkpt>
      <trkpt lat="48.76268" lon="5.59643">
        <ele>240.42</ele>
        <time>2026-08-05T15:30:13.743Z</time>
      </trkpt>
      <trkpt lat="48.76291" lon="5.5967">
        <ele>240.42</ele>
        <time>2026-08-05T15:30:19.738Z</time>
      </trkpt>
      <trkpt lat="48.76312" lon="5.59692">
        <ele>232.15</ele>
        <time>2026-08-05T15:30:25.737Z</time>
      </trkpt>
      <trkpt lat="48.76332" lon="5.59717">
        <ele>232.12</ele>
        <time>2026-08-05T15:30:31.764Z</time>
      </trkpt>
      <trkpt lat="48.76349" lon="5.59736">
        <ele>232.12</ele>
        <time>2026-08-05T15:30:36.826Z</time>
      </trkpt>
      <trkpt lat="48.76364" lon="5.59764">
        <ele>232.12</ele>
        <time>2026-08-05T15:30:42.733Z</time>
      </trkpt>
      <trkpt lat="48.76331" lon="5.59787">
        <ele>232.12</ele>
        <time>2026-08-05T15:30:48.685Z</time>
      </trkpt>
      <trkpt lat="48.76309" lon="5.59802">
        <ele>232.12</ele>
        <time>2026-08-05T15:30:53.686Z</time>
      </trkpt>
      <trkpt lat="48.76317" lon="5.5979">
        <ele>232.12</ele>
        <time>2026-08-05T15:30:59.686Z</time>
      </trkpt>
      <trkpt lat="48.76334" lon="5.59777">
        <ele>232.12</ele>
        <time>2026-08-05T15:31:04.689Z</time>
      </trkpt>
      <trkpt lat="48.76351" lon="5.59748">
        <ele>232.12</ele>
        <time>2026-08-05T15:31:10.684Z</time>
      </trkpt>
      <trkpt lat="48.76369" lon="5.59729">
        <ele>232.12</ele>
        <time>2026-08-05T15:31:15.688Z</time>
      </trkpt>
      <trkpt lat="48.7639" lon="5.59712">
        <ele>232.12</ele>
        <time>2026-08-05T15:31:20.688Z</time>
      </trkpt>
      <trkpt lat="48.76412" lon="5.59689">
        <ele>232.12</ele>
        <time>2026-08-05T15:31:25.739Z</time>
      </trkpt>
      <trkpt lat="48.76438" lon="5.59663">
        <ele>232.12</ele>
        <time>2026-08-05T15:31:31.736Z</time>
      </trkpt>
      <trkpt lat="48.76463" lon="5.59637">
        <ele>232.12</ele>
        <time>2026-08-05T15:31:37.741Z</time>
      </trkpt>
      <trkpt lat="48.76488" lon="5.59611">
        <ele>232.12</ele>
        <time>2026-08-05T15:31:43.734Z</time>
      </trkpt>
      <trkpt lat="48.76512" lon="5.59584">
        <ele>232.12</ele>
        <time>2026-08-05T15:31:49.741Z</time>
      </trkpt>
      <trkpt lat="48.76536" lon="5.59558">
        <ele>185.18</ele>
        <time>2026-08-05T15:31:55.744Z</time>
      </trkpt>
      <trkpt lat="48.76561" lon="5.59532">
        <ele>186.48</ele>
        <time>2026-08-05T15:32:01.743Z</time>
      </trkpt>
      <trkpt lat="48.76585" lon="5.59504">
        <ele>185.25</ele>
        <time>2026-08-05T15:32:07.737Z</time>
      </trkpt>
      <trkpt lat="48.76608" lon="5.59479">
        <ele>184.51</ele>
        <time>2026-08-05T15:32:13.738Z</time>
      </trkpt>
      <trkpt lat="48.76634" lon="5.59448">
        <ele>183.1</ele>
        <time>2026-08-05T15:32:19.737Z</time>
      </trkpt>
      <trkpt lat="48.76658" lon="5.59415">
        <ele>184.2</ele>
        <time>2026-08-05T15:32:25.751Z</time>
      </trkpt>
      <trkpt lat="48.76679" lon="5.59379">
        <ele>184.56</ele>
        <time>2026-08-05T15:32:31.745Z</time>
      </trkpt>
      <trkpt lat="48.76698" lon="5.59345">
        <ele>182.93</ele>
        <time>2026-08-05T15:32:37.737Z</time>
      </trkpt>
      <trkpt lat="48.76718" lon="5.59311">
        <ele>184.42</ele>
        <time>2026-08-05T15:32:43.741Z</time>
      </trkpt>
      <trkpt lat="48.76735" lon="5.59275">
        <ele>184.75</ele>
        <time>2026-08-05T15:32:49.743Z</time>
      </trkpt>
      <trkpt lat="48.76756" lon="5.59241">
        <ele>181.16</ele>
        <time>2026-08-05T15:32:55.744Z</time>
      </trkpt>
      <trkpt lat="48.76773" lon="5.59204">
        <ele>181.96</ele>
        <time>2026-08-05T15:33:01.744Z</time>
      </trkpt>
      <trkpt lat="48.76791" lon="5.59166">
        <ele>180.56</ele>
        <time>2026-08-05T15:33:07.736Z</time>
      </trkpt>
      <trkpt lat="48.76807" lon="5.59127">
        <ele>179.52</ele>
        <time>2026-08-05T15:33:13.742Z</time>
      </trkpt>
      <trkpt lat="48.76821" lon="5.59086">
        <ele>182.02</ele>
        <time>2026-08-05T15:33:19.741Z</time>
      </trkpt>
      <trkpt lat="48.76833" lon="5.59043">
        <ele>182.34</ele>
        <time>2026-08-05T15:33:25.753Z</time>
      </trkpt>
      <trkpt lat="48.76844" lon="5.58999">
        <ele>182.78</ele>
        <time>2026-08-05T15:33:31.751Z</time>
      </trkpt>
      <trkpt lat="48.76853" lon="5.58953">
        <ele>183.32</ele>
        <time>2026-08-05T15:33:37.745Z</time>
      </trkpt>
      <trkpt lat="48.76864" lon="5.58909">
        <ele>183.87</ele>
        <time>2026-08-05T15:33:43.740Z</time>
      </trkpt>
      <trkpt lat="48.76874" lon="5.58865">
        <ele>184.93</ele>
        <time>2026-08-05T15:33:49.737Z</time>
      </trkpt>
      <trkpt lat="48.76884" lon="5.58821">
        <ele>183.61</ele>
        <time>2026-08-05T15:33:55.745Z</time>
      </trkpt>
      <trkpt lat="48.76894" lon="5.58777">
        <ele>182.18</ele>
        <time>2026-08-05T15:34:01.748Z</time>
      </trkpt>
      <trkpt lat="48.76905" lon="5.58737">
        <ele>181.68</ele>
        <time>2026-08-05T15:34:07.740Z</time>
      </trkpt>
      <trkpt lat="48.76917" lon="5.58694">
        <ele>181.64</ele>
        <time>2026-08-05T15:34:13.746Z</time>
      </trkpt>
      <trkpt lat="48.76927" lon="5.5865">
        <ele>182.62</ele>
        <time>2026-08-05T15:34:19.744Z</time>
      </trkpt>
      <trkpt lat="48.76939" lon="5.5861">
        <ele>181.81</ele>
        <time>2026-08-05T15:34:25.744Z</time>
      </trkpt>
      <trkpt lat="48.76952" lon="5.58568">
        <ele>181.58</ele>
        <time>2026-08-05T15:34:31.744Z</time>
      </trkpt>
      <trkpt lat="48.76963" lon="5.58525">
        <ele>182.3</ele>
        <time>2026-08-05T15:34:37.737Z</time>
      </trkpt>
      <trkpt lat="48.76973" lon="5.58482">
        <ele>183.68</ele>
        <time>2026-08-05T15:34:43.739Z</time>
      </trkpt>
      <trkpt lat="48.76984" lon="5.58436">
        <ele>185.45</ele>
        <time>2026-08-05T15:34:49.744Z</time>
      </trkpt>
      <trkpt lat="48.76992" lon="5.58387">
        <ele>185.09</ele>
        <time>2026-08-05T15:34:55.756Z</time>
      </trkpt>
      <trkpt lat="48.77005" lon="5.58346">
        <ele>184.14</ele>
        <time>2026-08-05T15:35:01.745Z</time>
      </trkpt>
      <trkpt lat="48.76999" lon="5.58324">
        <ele>183.37</ele>
        <time>2026-08-05T15:35:07.746Z</time>
      </trkpt>
      <trkpt lat="48.76979" lon="5.58305">
        <ele>182.84</ele>
        <time>2026-08-05T15:35:13.737Z</time>
      </trkpt>
      <trkpt lat="48.76991" lon="5.58258">
        <ele>183.54</ele>
        <time>2026-08-05T15:35:19.736Z</time>
      </trkpt>
      <trkpt lat="48.77006" lon="5.58211">
        <ele>183.47</ele>
        <time>2026-08-05T15:35:25.751Z</time>
      </trkpt>
      <trkpt lat="48.77018" lon="5.58158">
        <ele>182.04</ele>
        <time>2026-08-05T15:35:31.741Z</time>
      </trkpt>
      <trkpt lat="48.77032" lon="5.5811">
        <ele>180.86</ele>
        <time>2026-08-05T15:35:37.742Z</time>
      </trkpt>
      <trkpt lat="48.77043" lon="5.58066">
        <ele>180.5</ele>
        <time>2026-08-05T15:35:43.744Z</time>
      </trkpt>
      <trkpt lat="48.77053" lon="5.58027">
        <ele>181.01</ele>
        <time>2026-08-05T15:35:49.743Z</time>
      </trkpt>
      <trkpt lat="48.77064" lon="5.57987">
        <ele>180.8</ele>
        <time>2026-08-05T15:35:55.739Z</time>
      </trkpt>
      <trkpt lat="48.77074" lon="5.57938">
        <ele>180.38</ele>
        <time>2026-08-05T15:36:01.744Z</time>
      </trkpt>
      <trkpt lat="48.77086" lon="5.57892">
        <ele>179.71</ele>
        <time>2026-08-05T15:36:07.744Z</time>
      </trkpt>
      <trkpt lat="48.77099" lon="5.57847">
        <ele>176.6</ele>
        <time>2026-08-05T15:36:13.739Z</time>
      </trkpt>
      <trkpt lat="48.77113" lon="5.57806">
        <ele>175.82</ele>
        <time>2026-08-05T15:36:19.740Z</time>
      </trkpt>
      <trkpt lat="48.77125" lon="5.57766">
        <ele>176.66</ele>
        <time>2026-08-05T15:36:25.750Z</time>
      </trkpt>
      <trkpt lat="48.77138" lon="5.57721">
        <ele>175.33</ele>
        <time>2026-08-05T15:36:31.746Z</time>
      </trkpt>
      <trkpt lat="48.77148" lon="5.57672">
        <ele>175.06</ele>
        <time>2026-08-05T15:36:37.739Z</time>
      </trkpt>
      <trkpt lat="48.77159" lon="5.57628">
        <ele>175.07</ele>
        <time>2026-08-05T15:36:43.742Z</time>
      </trkpt>
      <trkpt lat="48.77173" lon="5.57586">
        <ele>175.2</ele>
        <time>2026-08-05T15:36:49.743Z</time>
      </trkpt>
      <trkpt lat="48.77188" lon="5.57543">
        <ele>176.48</ele>
        <time>2026-08-05T15:36:55.752Z</time>
      </trkpt>
      <trkpt lat="48.77208" lon="5.57498">
        <ele>176.33</ele>
        <time>2026-08-05T15:37:01.748Z</time>
      </trkpt>
      <trkpt lat="48.77229" lon="5.5745">
        <ele>176.39</ele>
        <time>2026-08-05T15:37:07.742Z</time>
      </trkpt>
      <trkpt lat="48.77251" lon="5.57405">
        <ele>177.49</ele>
        <time>2026-08-05T15:37:13.741Z</time>
      </trkpt>
      <trkpt lat="48.77274" lon="5.57364">
        <ele>179.63</ele>
        <time>2026-08-05T15:37:19.738Z</time>
      </trkpt>
      <trkpt lat="48.77296" lon="5.57324">
        <ele>180.16</ele>
        <time>2026-08-05T15:37:25.750Z</time>
      </trkpt>
      <trkpt lat="48.77319" lon="5.57288">
        <ele>179.06</ele>
        <time>2026-08-05T15:37:31.744Z</time>
      </trkpt>
      <trkpt lat="48.77342" lon="5.57255">
        <ele>179.23</ele>
        <time>2026-08-05T15:37:37.739Z</time>
      </trkpt>
      <trkpt lat="48.77366" lon="5.57222">
        <ele>178.87</ele>
        <time>2026-08-05T15:37:43.740Z</time>
      </trkpt>
      <trkpt lat="48.77391" lon="5.57189">
        <ele>178.92</ele>
        <time>2026-08-05T15:37:49.746Z</time>
      </trkpt>
      <trkpt lat="48.77416" lon="5.57157">
        <ele>180.01</ele>
        <time>2026-08-05T15:37:55.751Z</time>
      </trkpt>
      <trkpt lat="48.77441" lon="5.57126">
        <ele>179.84</ele>
        <time>2026-08-05T15:38:01.740Z</time>
      </trkpt>
      <trkpt lat="48.77468" lon="5.57096">
        <ele>179.85</ele>
        <time>2026-08-05T15:38:07.740Z</time>
      </trkpt>
      <trkpt lat="48.77495" lon="5.57066">
        <ele>179.28</ele>
        <time>2026-08-05T15:38:13.745Z</time>
      </trkpt>
      <trkpt lat="48.77523" lon="5.57038">
        <ele>179.7</ele>
        <time>2026-08-05T15:38:19.744Z</time>
      </trkpt>
      <trkpt lat="48.77551" lon="5.5701">
        <ele>180.41</ele>
        <time>2026-08-05T15:38:25.740Z</time>
      </trkpt>
      <trkpt lat="48.77578" lon="5.56984">
        <ele>180.16</ele>
        <time>2026-08-05T15:38:31.741Z</time>
      </trkpt>
      <trkpt lat="48.77606" lon="5.56958">
        <ele>179.69</ele>
        <time>2026-08-05T15:38:37.744Z</time>
      </trkpt>
      <trkpt lat="48.77635" lon="5.56932">
        <ele>180.25</ele>
        <time>2026-08-05T15:38:43.742Z</time>
      </trkpt>
      <trkpt lat="48.77665" lon="5.56909">
        <ele>179.61</ele>
        <time>2026-08-05T15:38:49.746Z</time>
      </trkpt>
      <trkpt lat="48.77696" lon="5.56886">
        <ele>181.52</ele>
        <time>2026-08-05T15:38:55.749Z</time>
      </trkpt>
      <trkpt lat="48.77727" lon="5.56863">
        <ele>181.09</ele>
        <time>2026-08-05T15:39:01.746Z</time>
      </trkpt>
      <trkpt lat="48.77757" lon="5.5684">
        <ele>179.44</ele>
        <time>2026-08-05T15:39:07.744Z</time>
      </trkpt>
      <trkpt lat="48.77787" lon="5.5682">
        <ele>179.1</ele>
        <time>2026-08-05T15:39:13.738Z</time>
      </trkpt>
      <trkpt lat="48.77817" lon="5.56801">
        <ele>178.74</ele>
        <time>2026-08-05T15:39:19.741Z</time>
      </trkpt>
      <trkpt lat="48.77847" lon="5.56786">
        <ele>179.1</ele>
        <time>2026-08-05T15:39:25.751Z</time>
      </trkpt>
      <trkpt lat="48.77879" lon="5.56771">
        <ele>179.77</ele>
        <time>2026-08-05T15:39:31.735Z</time>
      </trkpt>
      <trkpt lat="48.7791" lon="5.56757">
        <ele>181.88</ele>
        <time>2026-08-05T15:39:37.736Z</time>
      </trkpt>
      <trkpt lat="48.77942" lon="5.56744">
        <ele>184.25</ele>
        <time>2026-08-05T15:39:43.738Z</time>
      </trkpt>
      <trkpt lat="48.77974" lon="5.56734">
        <ele>182.91</ele>
        <time>2026-08-05T15:39:49.742Z</time>
      </trkpt>
      <trkpt lat="48.78006" lon="5.56724">
        <ele>182.03</ele>
        <time>2026-08-05T15:39:55.747Z</time>
      </trkpt>
      <trkpt lat="48.78038" lon="5.56714">
        <ele>181.48</ele>
        <time>2026-08-05T15:40:01.746Z</time>
      </trkpt>
      <trkpt lat="48.78069" lon="5.56708">
        <ele>182.29</ele>
        <time>2026-08-05T15:40:07.738Z</time>
      </trkpt>
      <trkpt lat="48.78101" lon="5.56701">
        <ele>183.38</ele>
        <time>2026-08-05T15:40:13.738Z</time>
      </trkpt>
      <trkpt lat="48.78133" lon="5.56694">
        <ele>184.75</ele>
        <time>2026-08-05T15:40:19.742Z</time>
      </trkpt>
      <trkpt lat="48.78166" lon="5.5669">
        <ele>184.29</ele>
        <time>2026-08-05T15:40:25.750Z</time>
      </trkpt>
      <trkpt lat="48.78197" lon="5.56685">
        <ele>184.3</ele>
        <time>2026-08-05T15:40:31.743Z</time>
      </trkpt>
      <trkpt lat="48.78228" lon="5.56681">
        <ele>186.05</ele>
        <time>2026-08-05T15:40:37.739Z</time>
      </trkpt>
      <trkpt lat="48.78259" lon="5.56677">
        <ele>186.57</ele>
        <time>2026-08-05T15:40:43.739Z</time>
      </trkpt>
      <trkpt lat="48.78294" lon="5.56675">
        <ele>185.92</ele>
        <time>2026-08-05T15:40:49.755Z</time>
      </trkpt>
      <trkpt lat="48.78329" lon="5.5668">
        <ele>183.74</ele>
        <time>2026-08-05T15:40:55.751Z</time>
      </trkpt>
      <trkpt lat="48.78363" lon="5.56686">
        <ele>179.22</ele>
        <time>2026-08-05T15:41:01.738Z</time>
      </trkpt>
      <trkpt lat="48.78394" lon="5.56679">
        <ele>176.48</ele>
        <time>2026-08-05T15:41:07.741Z</time>
      </trkpt>
      <trkpt lat="48.7843" lon="5.56673">
        <ele>177.76</ele>
        <time>2026-08-05T15:41:13.740Z</time>
      </trkpt>
      <trkpt lat="48.78465" lon="5.56669">
        <ele>181.58</ele>
        <time>2026-08-05T15:41:19.740Z</time>
      </trkpt>
      <trkpt lat="48.78499" lon="5.56664">
        <ele>183.18</ele>
        <time>2026-08-05T15:41:25.753Z</time>
      </trkpt>
      <trkpt lat="48.78531" lon="5.56659">
        <ele>183.06</ele>
        <time>2026-08-05T15:41:31.752Z</time>
      </trkpt>
      <trkpt lat="48.78565" lon="5.56654">
        <ele>182.07</ele>
        <time>2026-08-05T15:41:37.747Z</time>
      </trkpt>
      <trkpt lat="48.78597" lon="5.56645">
        <ele>181.17</ele>
        <time>2026-08-05T15:41:43.742Z</time>
      </trkpt>
      <trkpt lat="48.78629" lon="5.56627">
        <ele>180.18</ele>
        <time>2026-08-05T15:41:49.739Z</time>
      </trkpt>
      <trkpt lat="48.78658" lon="5.56603">
        <ele>180.05</ele>
        <time>2026-08-05T15:41:55.756Z</time>
      </trkpt>
      <trkpt lat="48.78685" lon="5.56571">
        <ele>179.7</ele>
        <time>2026-08-05T15:42:01.752Z</time>
      </trkpt>
      <trkpt lat="48.78709" lon="5.56535">
        <ele>178.79</ele>
        <time>2026-08-05T15:42:07.740Z</time>
      </trkpt>
      <trkpt lat="48.78732" lon="5.56499">
        <ele>177.34</ele>
        <time>2026-08-05T15:42:13.748Z</time>
      </trkpt>
      <trkpt lat="48.78752" lon="5.56458">
        <ele>178.54</ele>
        <time>2026-08-05T15:42:19.739Z</time>
      </trkpt>
      <trkpt lat="48.78771" lon="5.56425">
        <ele>177.08</ele>
        <time>2026-08-05T15:42:25.753Z</time>
      </trkpt>
      <trkpt lat="48.78792" lon="5.56392">
        <ele>177.75</ele>
        <time>2026-08-05T15:42:31.741Z</time>
      </trkpt>
      <trkpt lat="48.78812" lon="5.56361">
        <ele>177.58</ele>
        <time>2026-08-05T15:42:37.742Z</time>
      </trkpt>
      <trkpt lat="48.78832" lon="5.5633">
        <ele>177.77</ele>
        <time>2026-08-05T15:42:43.741Z</time>
      </trkpt>
      <trkpt lat="48.78851" lon="5.56301">
        <ele>178.48</ele>
        <time>2026-08-05T15:42:49.748Z</time>
      </trkpt>
      <trkpt lat="48.78868" lon="5.56274">
        <ele>178.69</ele>
        <time>2026-08-05T15:42:55.742Z</time>
      </trkpt>
      <trkpt lat="48.78883" lon="5.5625">
        <ele>178.37</ele>
        <time>2026-08-05T15:43:01.739Z</time>
      </trkpt>
      <trkpt lat="48.78895" lon="5.5623">
        <ele>178.45</ele>
        <time>2026-08-05T15:43:07.739Z</time>
      </trkpt>
      <trkpt lat="48.78905" lon="5.56214">
        <ele>178.74</ele>
        <time>2026-08-05T15:43:13.743Z</time>
      </trkpt>
      <trkpt lat="48.78913" lon="5.56201">
        <ele>177.81</ele>
        <time>2026-08-05T15:43:19.740Z</time>
      </trkpt>
      <trkpt lat="48.78921" lon="5.56187">
        <ele>177.06</ele>
        <time>2026-08-05T15:43:25.741Z</time>
      </trkpt>
      <trkpt lat="48.78929" lon="5.56172">
        <ele>175.77</ele>
        <time>2026-08-05T15:43:31.739Z</time>
      </trkpt>
      <trkpt lat="48.78938" lon="5.56157">
        <ele>174.73</ele>
        <time>2026-08-05T15:43:37.740Z</time>
      </trkpt>
      <trkpt lat="48.78952" lon="5.56135">
        <ele>173.73</ele>
        <time>2026-08-05T15:43:43.745Z</time>
      </trkpt>
      <trkpt lat="48.78972" lon="5.56114">
        <ele>172.3</ele>
        <time>2026-08-05T15:43:49.748Z</time>
      </trkpt>
      <trkpt lat="48.78988" lon="5.56079">
        <ele>170.8</ele>
        <time>2026-08-05T15:43:55.746Z</time>
      </trkpt>
      <trkpt lat="48.79009" lon="5.56047">
        <ele>170.12</ele>
        <time>2026-08-05T15:44:01.747Z</time>
      </trkpt>
      <trkpt lat="48.79032" lon="5.56011">
        <ele>172.09</ele>
        <time>2026-08-05T15:44:07.743Z</time>
      </trkpt>
      <trkpt lat="48.79056" lon="5.55978">
        <ele>171.8</ele>
        <time>2026-08-05T15:44:13.742Z</time>
      </trkpt>
      <trkpt lat="48.79078" lon="5.55935">
        <ele>173.87</ele>
        <time>2026-08-05T15:44:19.747Z</time>
      </trkpt>
      <trkpt lat="48.79095" lon="5.55896">
        <ele>177.84</ele>
        <time>2026-08-05T15:44:25.747Z</time>
      </trkpt>
      <trkpt lat="48.79109" lon="5.55858">
        <ele>178.25</ele>
        <time>2026-08-05T15:44:31.746Z</time>
      </trkpt>
      <trkpt lat="48.79126" lon="5.55823">
        <ele>179.92</ele>
        <time>2026-08-05T15:44:37.748Z</time>
      </trkpt>
      <trkpt lat="48.79141" lon="5.55785">
        <ele>181.87</ele>
        <time>2026-08-05T15:44:43.751Z</time>
      </trkpt>
      <trkpt lat="48.79156" lon="5.55743">
        <ele>182.59</ele>
        <time>2026-08-05T15:44:49.742Z</time>
      </trkpt>
      <trkpt lat="48.79172" lon="5.557">
        <ele>183</ele>
        <time>2026-08-05T15:44:55.751Z</time>
      </trkpt>
      <trkpt lat="48.79187" lon="5.55655">
        <ele>182.49</ele>
        <time>2026-08-05T15:45:01.747Z</time>
      </trkpt>
      <trkpt lat="48.79199" lon="5.55611">
        <ele>180.96</ele>
        <time>2026-08-05T15:45:07.744Z</time>
      </trkpt>
      <trkpt lat="48.79212" lon="5.55566">
        <ele>180.27</ele>
        <time>2026-08-05T15:45:13.741Z</time>
      </trkpt>
      <trkpt lat="48.79225" lon="5.55519">
        <ele>179.1</ele>
        <time>2026-08-05T15:45:19.743Z</time>
      </trkpt>
      <trkpt lat="48.79236" lon="5.55475">
        <ele>178.05</ele>
        <time>2026-08-05T15:45:25.741Z</time>
      </trkpt>
      <trkpt lat="48.79248" lon="5.55433">
        <ele>177.76</ele>
        <time>2026-08-05T15:45:31.750Z</time>
      </trkpt>
      <trkpt lat="48.79261" lon="5.55392">
        <ele>178.66</ele>
        <time>2026-08-05T15:45:37.746Z</time>
      </trkpt>
      <trkpt lat="48.79271" lon="5.55351">
        <ele>180.18</ele>
        <time>2026-08-05T15:45:43.746Z</time>
      </trkpt>
      <trkpt lat="48.79282" lon="5.55312">
        <ele>181.38</ele>
        <time>2026-08-05T15:45:49.741Z</time>
      </trkpt>
      <trkpt lat="48.79291" lon="5.55281">
        <ele>181.77</ele>
        <time>2026-08-05T15:45:54.800Z</time>
      </trkpt>
      <trkpt lat="48.79297" lon="5.55239">
        <ele>183.35</ele>
        <time>2026-08-05T15:45:59.894Z</time>
      </trkpt>
      <trkpt lat="48.79309" lon="5.55212">
        <ele>185.69</ele>
        <time>2026-08-05T15:46:05.732Z</time>
      </trkpt>
      <trkpt lat="48.79319" lon="5.55182">
        <ele>188.86</ele>
        <time>2026-08-05T15:46:10.732Z</time>
      </trkpt>
      <trkpt lat="48.79332" lon="5.55145">
        <ele>191.81</ele>
        <time>2026-08-05T15:46:16.682Z</time>
      </trkpt>
      <trkpt lat="48.79347" lon="5.55112">
        <ele>191.91</ele>
        <time>2026-08-05T15:46:21.691Z</time>
      </trkpt>
      <trkpt lat="48.79357" lon="5.55066">
        <ele>190.37</ele>
        <time>2026-08-05T15:46:27.684Z</time>
      </trkpt>
      <trkpt lat="48.79365" lon="5.55025">
        <ele>189.36</ele>
        <time>2026-08-05T15:46:32.684Z</time>
      </trkpt>
      <trkpt lat="48.79372" lon="5.54989">
        <ele>188.69</ele>
        <time>2026-08-05T15:46:37.737Z</time>
      </trkpt>
      <trkpt lat="48.79383" lon="5.54945">
        <ele>185.96</ele>
        <time>2026-08-05T15:46:43.747Z</time>
      </trkpt>
      <trkpt lat="48.79391" lon="5.54907">
        <ele>183.65</ele>
        <time>2026-08-05T15:46:49.750Z</time>
      </trkpt>
      <trkpt lat="48.794" lon="5.54864">
        <ele>180.53</ele>
        <time>2026-08-05T15:46:55.757Z</time>
      </trkpt>
      <trkpt lat="48.79411" lon="5.54822">
        <ele>179.77</ele>
        <time>2026-08-05T15:47:01.748Z</time>
      </trkpt>
      <trkpt lat="48.79421" lon="5.54776">
        <ele>177.59</ele>
        <time>2026-08-05T15:47:07.748Z</time>
      </trkpt>
      <trkpt lat="48.79434" lon="5.54737">
        <ele>177.3</ele>
        <time>2026-08-05T15:47:13.742Z</time>
      </trkpt>
      <trkpt lat="48.79448" lon="5.54694">
        <ele>179.91</ele>
        <time>2026-08-05T15:47:19.737Z</time>
      </trkpt>
      <trkpt lat="48.79456" lon="5.54652">
        <ele>181.76</ele>
        <time>2026-08-05T15:47:25.748Z</time>
      </trkpt>
      <trkpt lat="48.7947" lon="5.5461">
        <ele>180.61</ele>
        <time>2026-08-05T15:47:31.742Z</time>
      </trkpt>
      <trkpt lat="48.79483" lon="5.54567">
        <ele>179.64</ele>
        <time>2026-08-05T15:47:37.745Z</time>
      </trkpt>
      <trkpt lat="48.795" lon="5.54526">
        <ele>179.56</ele>
        <time>2026-08-05T15:47:43.826Z</time>
      </trkpt>
      <trkpt lat="48.79517" lon="5.54484">
        <ele>181.22</ele>
        <time>2026-08-05T15:47:49.749Z</time>
      </trkpt>
      <trkpt lat="48.79534" lon="5.54445">
        <ele>178.71</ele>
        <time>2026-08-05T15:47:55.749Z</time>
      </trkpt>
      <trkpt lat="48.79549" lon="5.54406">
        <ele>178.37</ele>
        <time>2026-08-05T15:48:01.744Z</time>
      </trkpt>
      <trkpt lat="48.79563" lon="5.54368">
        <ele>179.17</ele>
        <time>2026-08-05T15:48:07.742Z</time>
      </trkpt>
      <trkpt lat="48.79576" lon="5.54333">
        <ele>181.24</ele>
        <time>2026-08-05T15:48:13.751Z</time>
      </trkpt>
      <trkpt lat="48.79584" lon="5.54316">
        <ele>181.7</ele>
        <time>2026-08-05T15:48:19.751Z</time>
      </trkpt>
      <trkpt lat="48.79598" lon="5.5433">
        <ele>182.16</ele>
        <time>2026-08-05T15:48:25.755Z</time>
      </trkpt>
      <trkpt lat="48.79618" lon="5.5435">
        <ele>182.63</ele>
        <time>2026-08-05T15:48:31.748Z</time>
      </trkpt>
      <trkpt lat="48.79645" lon="5.54373">
        <ele>182.64</ele>
        <time>2026-08-05T15:48:37.750Z</time>
      </trkpt>
      <trkpt lat="48.79678" lon="5.54397">
        <ele>181.57</ele>
        <time>2026-08-05T15:48:43.743Z</time>
      </trkpt>
      <trkpt lat="48.79713" lon="5.54423">
        <ele>182.28</ele>
        <time>2026-08-05T15:48:49.746Z</time>
      </trkpt>
      <trkpt lat="48.79749" lon="5.54448">
        <ele>181.05</ele>
        <time>2026-08-05T15:48:55.749Z</time>
      </trkpt>
      <trkpt lat="48.79786" lon="5.54474">
        <ele>180.47</ele>
        <time>2026-08-05T15:49:01.753Z</time>
      </trkpt>
      <trkpt lat="48.79823" lon="5.54496">
        <ele>179.93</ele>
        <time>2026-08-05T15:49:07.759Z</time>
      </trkpt>
      <trkpt lat="48.79856" lon="5.54523">
        <ele>179.61</ele>
        <time>2026-08-05T15:49:13.758Z</time>
      </trkpt>
      <trkpt lat="48.79889" lon="5.54545">
        <ele>178.34</ele>
        <time>2026-08-05T15:49:19.754Z</time>
      </trkpt>
      <trkpt lat="48.79922" lon="5.54567">
        <ele>178.18</ele>
        <time>2026-08-05T15:49:25.756Z</time>
      </trkpt>
      <trkpt lat="48.79953" lon="5.54589">
        <ele>177.75</ele>
        <time>2026-08-05T15:49:31.771Z</time>
      </trkpt>
      <trkpt lat="48.79984" lon="5.54609">
        <ele>178.58</ele>
        <time>2026-08-05T15:49:37.744Z</time>
      </trkpt>
      <trkpt lat="48.80011" lon="5.54623">
        <ele>181.01</ele>
        <time>2026-08-05T15:49:43.766Z</time>
      </trkpt>
      <trkpt lat="48.80037" lon="5.54633">
        <ele>181.83</ele>
        <time>2026-08-05T15:49:49.773Z</time>
      </trkpt>
      <trkpt lat="48.80059" lon="5.54642">
        <ele>182.15</ele>
        <time>2026-08-05T15:49:55.803Z</time>
      </trkpt>
      <trkpt lat="48.80083" lon="5.54653">
        <ele>180.87</ele>
        <time>2026-08-05T15:50:01.734Z</time>
      </trkpt>
      <trkpt lat="48.80107" lon="5.54664">
        <ele>180.21</ele>
        <time>2026-08-05T15:50:07.745Z</time>
      </trkpt>
      <trkpt lat="48.80133" lon="5.54672">
        <ele>177.99</ele>
        <time>2026-08-05T15:50:13.753Z</time>
      </trkpt>
      <trkpt lat="48.80154" lon="5.54675">
        <ele>230.22</ele>
        <time>2026-08-05T15:50:19.751Z</time>
      </trkpt>
      <trkpt lat="48.80169" lon="5.54679">
        <ele>230.43</ele>
        <time>2026-08-05T15:50:25.752Z</time>
      </trkpt>
      <trkpt lat="48.80182" lon="5.54683">
        <ele>230.43</ele>
        <time>2026-08-05T15:50:31.740Z</time>
      </trkpt>
      <trkpt lat="48.80193" lon="5.54686">
        <ele>231.55</ele>
        <time>2026-08-05T15:50:37.242Z</time>
      </trkpt>
      <trkpt lat="48.80203" lon="5.54685">
        <ele>231.93</ele>
        <time>2026-08-05T15:50:43.742Z</time>
      </trkpt>
      <trkpt lat="48.80211" lon="5.54679">
        <ele>231.63</ele>
        <time>2026-08-05T15:50:50.709Z</time>
      </trkpt>
      <trkpt lat="48.80213" lon="5.54664">
        <ele>231.93</ele>
        <time>2026-08-05T15:50:55.741Z</time>
      </trkpt>
      <trkpt lat="48.80205" lon="5.54673">
        <ele>231.93</ele>
        <time>2026-08-05T15:53:26.685Z</time>
      </trkpt>
      <trkpt lat="48.80196" lon="5.54678">
        <ele>231.63</ele>
        <time>2026-08-05T15:53:31.738Z</time>
      </trkpt>
      <trkpt lat="48.80186" lon="5.54682">
        <ele>231.63</ele>
        <time>2026-08-05T15:54:48.691Z</time>
      </trkpt>
      <trkpt lat="48.80195" lon="5.54686">
        <ele>231.93</ele>
        <time>2026-08-05T15:54:55.775Z</time>
      </trkpt>
      <trkpt lat="48.80211" lon="5.5468">
        <ele>231.93</ele>
        <time>2026-08-05T15:55:01.767Z</time>
      </trkpt>
      <trkpt lat="48.80218" lon="5.54656">
        <ele>231.93</ele>
        <time>2026-08-05T15:55:07.757Z</time>
      </trkpt>
      <trkpt lat="48.80223" lon="5.54635">
        <ele>235.02</ele>
        <time>2026-08-05T15:55:13.755Z</time>
      </trkpt>
      <trkpt lat="48.80226" lon="5.54611">
        <ele>235.23</ele>
        <time>2026-08-05T15:55:19.758Z</time>
      </trkpt>
      <trkpt lat="48.80231" lon="5.54586">
        <ele>235.23</ele>
        <time>2026-08-05T15:55:25.751Z</time>
      </trkpt>
      <trkpt lat="48.80236" lon="5.5456">
        <ele>235.23</ele>
        <time>2026-08-05T15:55:31.737Z</time>
      </trkpt>
      <trkpt lat="48.8024" lon="5.54537">
        <ele>235.43</ele>
        <time>2026-08-05T15:55:37.745Z</time>
      </trkpt>
      <trkpt lat="48.80249" lon="5.54504">
        <ele>235.43</ele>
        <time>2026-08-05T15:55:43.747Z</time>
      </trkpt>
      <trkpt lat="48.80258" lon="5.54474">
        <ele>235.43</ele>
        <time>2026-08-05T15:55:49.747Z</time>
      </trkpt>
      <trkpt lat="48.8027" lon="5.54441">
        <ele>236.46</ele>
        <time>2026-08-05T15:55:55.751Z</time>
      </trkpt>
      <trkpt lat="48.80281" lon="5.54426">
        <ele>236.53</ele>
        <time>2026-08-05T15:56:01.741Z</time>
      </trkpt>
      <trkpt lat="48.80273" lon="5.54431">
        <ele>236.46</ele>
        <time>2026-08-05T16:03:20.686Z</time>
      </trkpt>
      <trkpt lat="48.80264" lon="5.54452">
        <ele>236.53</ele>
        <time>2026-08-05T16:03:25.736Z</time>
      </trkpt>
      <trkpt lat="48.80251" lon="5.54474">
        <ele>236.53</ele>
        <time>2026-08-05T16:03:31.162Z</time>
      </trkpt>
      <trkpt lat="48.80242" lon="5.54508">
        <ele>236.53</ele>
        <time>2026-08-05T16:03:36.689Z</time>
      </trkpt>
      <trkpt lat="48.80237" lon="5.54539">
        <ele>236.53</ele>
        <time>2026-08-05T16:03:41.689Z</time>
      </trkpt>
      <trkpt lat="48.80232" lon="5.54564">
        <ele>236.53</ele>
        <time>2026-08-05T16:03:46.692Z</time>
      </trkpt>
      <trkpt lat="48.80226" lon="5.54595">
        <ele>235.43</ele>
        <time>2026-08-05T16:03:52.497Z</time>
      </trkpt>
      <trkpt lat="48.80221" lon="5.54627">
        <ele>235.43</ele>
        <time>2026-08-05T16:03:57.678Z</time>
      </trkpt>
      <trkpt lat="48.80217" lon="5.5467">
        <ele>235.23</ele>
        <time>2026-08-05T16:04:02.817Z</time>
      </trkpt>
      <trkpt lat="48.80194" lon="5.54674">
        <ele>235.23</ele>
        <time>2026-08-05T16:04:08.691Z</time>
      </trkpt>
      <trkpt lat="48.8016" lon="5.5467">
        <ele>235.23</ele>
        <time>2026-08-05T16:04:13.724Z</time>
      </trkpt>
      <trkpt lat="48.80115" lon="5.54656">
        <ele>235.23</ele>
        <time>2026-08-05T16:04:19.722Z</time>
      </trkpt>
      <trkpt lat="48.80089" lon="5.54641">
        <ele>235.23</ele>
        <time>2026-08-05T16:04:25.744Z</time>
      </trkpt>
      <trkpt lat="48.80089" lon="5.54609">
        <ele>235.23</ele>
        <time>2026-08-05T16:04:31.738Z</time>
      </trkpt>
      <trkpt lat="48.80093" lon="5.54577">
        <ele>235.23</ele>
        <time>2026-08-05T16:04:37.732Z</time>
      </trkpt>
      <trkpt lat="48.80096" lon="5.5454">
        <ele>235.23</ele>
        <time>2026-08-05T16:04:43.717Z</time>
      </trkpt>
      <trkpt lat="48.80093" lon="5.54524">
        <ele>182.41</ele>
        <time>2026-08-05T16:06:03.680Z</time>
      </trkpt>
      <trkpt lat="48.801" lon="5.54508">
        <ele>229.23</ele>
        <time>2026-08-05T16:07:13.730Z</time>
        <extensions>
          <visugpx:TrkExtension xmlns:visugpx="https://www.visugpx.com/editgpx/">
            <visugpx:node>1</visugpx:node>
            </visugpx:TrkExtension>
        </extensions>
      </trkpt>
      <trkpt lat="48.801" lon="5.54514">
        <ele>226.03</ele>
        <time>2026-08-06T06:10:26.283Z</time>
      </trkpt>
      <trkpt lat="48.80101" lon="5.54528">
        <ele>226.03</ele>
        <time>2026-08-06T06:10:36.842Z</time>
      </trkpt>
      <trkpt lat="48.80103" lon="5.54543">
        <ele>235.43</ele>
        <time>2026-08-06T06:10:43.225Z</time>
      </trkpt>
      <trkpt lat="48.801" lon="5.54558">
        <ele>229.23</ele>
        <time>2026-08-06T06:10:48.293Z</time>
      </trkpt>
      <trkpt lat="48.80095" lon="5.54573">
        <ele>229.23</ele>
        <time>2026-08-06T06:10:56.298Z</time>
      </trkpt>
      <trkpt lat="48.80093" lon="5.54587">
        <ele>229.23</ele>
        <time>2026-08-06T06:11:01.369Z</time>
      </trkpt>
      <trkpt lat="48.80092" lon="5.54602">
        <ele>229.23</ele>
        <time>2026-08-06T06:11:07.388Z</time>
      </trkpt>
      <trkpt lat="48.80093" lon="5.54624">
        <ele>229.23</ele>
        <time>2026-08-06T06:11:13.325Z</time>
      </trkpt>
      <trkpt lat="48.80094" lon="5.54643">
        <ele>229.23</ele>
        <time>2026-08-06T06:11:18.344Z</time>
      </trkpt>
      <trkpt lat="48.80099" lon="5.54655">
        <ele>229.23</ele>
        <time>2026-08-06T06:11:23.361Z</time>
      </trkpt>
      <trkpt lat="48.80118" lon="5.54663">
        <ele>229.23</ele>
        <time>2026-08-06T06:11:29.306Z</time>
      </trkpt>
      <trkpt lat="48.80138" lon="5.54669">
        <ele>230.35</ele>
        <time>2026-08-06T06:11:35.335Z</time>
      </trkpt>
      <trkpt lat="48.80155" lon="5.54672">
        <ele>230.43</ele>
        <time>2026-08-06T06:11:41.332Z</time>
      </trkpt>
      <trkpt lat="48.80172" lon="5.54678">
        <ele>230.43</ele>
        <time>2026-08-06T06:11:47.288Z</time>
      </trkpt>
      <trkpt lat="48.80185" lon="5.54688">
        <ele>230.43</ele>
        <time>2026-08-06T06:11:52.312Z</time>
      </trkpt>
      <trkpt lat="48.8019" lon="5.54699">
        <ele>231.65</ele>
        <time>2026-08-06T06:12:41.290Z</time>
      </trkpt>
      <trkpt lat="48.80194" lon="5.54686">
        <ele>231.93</ele>
        <time>2026-08-06T06:12:49.299Z</time>
      </trkpt>
      <trkpt lat="48.80207" lon="5.54684">
        <ele>231.93</ele>
        <time>2026-08-06T06:12:55.286Z</time>
      </trkpt>
      <trkpt lat="48.80217" lon="5.54675">
        <ele>231.93</ele>
        <time>2026-08-06T06:13:00.288Z</time>
      </trkpt>
      <trkpt lat="48.80222" lon="5.54656">
        <ele>231.93</ele>
        <time>2026-08-06T06:13:05.295Z</time>
      </trkpt>
      <trkpt lat="48.80224" lon="5.54635">
        <ele>231.93</ele>
        <time>2026-08-06T06:13:11.298Z</time>
      </trkpt>
      <trkpt lat="48.80228" lon="5.54616">
        <ele>231.93</ele>
        <time>2026-08-06T06:13:16.301Z</time>
      </trkpt>
      <trkpt lat="48.8023" lon="5.54592">
        <ele>234.41</ele>
        <time>2026-08-06T06:13:22.297Z</time>
      </trkpt>
      <trkpt lat="48.80235" lon="5.54569">
        <ele>235.23</ele>
        <time>2026-08-06T06:13:28.295Z</time>
      </trkpt>
      <trkpt lat="48.80241" lon="5.54542">
        <ele>235.23</ele>
        <time>2026-08-06T06:13:34.299Z</time>
      </trkpt>
      <trkpt lat="48.80248" lon="5.5451">
        <ele>235.23</ele>
        <time>2026-08-06T06:13:40.292Z</time>
      </trkpt>
      <trkpt lat="48.80256" lon="5.54481">
        <ele>236.53</ele>
        <time>2026-08-06T06:13:45.300Z</time>
      </trkpt>
      <trkpt lat="48.80267" lon="5.54455">
        <ele>236.53</ele>
        <time>2026-08-06T06:13:50.320Z</time>
      </trkpt>
      <trkpt lat="48.80281" lon="5.54425">
        <ele>236.53</ele>
        <time>2026-08-06T06:13:56.298Z</time>
      </trkpt>
      <trkpt lat="48.80288" lon="5.54415">
        <ele>236.51</ele>
        <time>2026-08-06T06:17:23.295Z</time>
      </trkpt>
      <trkpt lat="48.80301" lon="5.54397">
        <ele>231.12</ele>
        <time>2026-08-06T06:17:29.313Z</time>
      </trkpt>
      <trkpt lat="48.80317" lon="5.54375">
        <ele>231.03</ele>
        <time>2026-08-06T06:17:35.291Z</time>
      </trkpt>
      <trkpt lat="48.80332" lon="5.54365">
        <ele>232.13</ele>
        <time>2026-08-06T06:17:40.296Z</time>
      </trkpt>
      <trkpt lat="48.80348" lon="5.54349">
        <ele>232.13</ele>
        <time>2026-08-06T06:17:45.299Z</time>
      </trkpt>
      <trkpt lat="48.80362" lon="5.54331">
        <ele>232.13</ele>
        <time>2026-08-06T06:17:50.342Z</time>
      </trkpt>
      <trkpt lat="48.8038" lon="5.54313">
        <ele>231.57</ele>
        <time>2026-08-06T06:17:56.299Z</time>
      </trkpt>
      <trkpt lat="48.80397" lon="5.54295">
        <ele>231.53</ele>
        <time>2026-08-06T06:18:02.297Z</time>
      </trkpt>
      <trkpt lat="48.80416" lon="5.54276">
        <ele>231.38</ele>
        <time>2026-08-06T06:18:08.341Z</time>
      </trkpt>
      <trkpt lat="48.80435" lon="5.54256">
        <ele>231.33</ele>
        <time>2026-08-06T06:18:14.341Z</time>
      </trkpt>
      <trkpt lat="48.80453" lon="5.54238">
        <ele>231.52</ele>
        <time>2026-08-06T06:18:20.344Z</time>
      </trkpt>
      <trkpt lat="48.80471" lon="5.54218">
        <ele>231.53</ele>
        <time>2026-08-06T06:18:26.295Z</time>
      </trkpt>
      <trkpt lat="48.80488" lon="5.54203">
        <ele>231.53</ele>
        <time>2026-08-06T06:18:31.298Z</time>
      </trkpt>
      <trkpt lat="48.80509" lon="5.54184">
        <ele>231.53</ele>
        <time>2026-08-06T06:18:37.297Z</time>
      </trkpt>
      <trkpt lat="48.80532" lon="5.54166">
        <ele>231.53</ele>
        <time>2026-08-06T06:18:43.290Z</time>
      </trkpt>
      <trkpt lat="48.80551" lon="5.54153">
        <ele>231.53</ele>
        <time>2026-08-06T06:18:48.298Z</time>
      </trkpt>
      <trkpt lat="48.80571" lon="5.54141">
        <ele>231.53</ele>
        <time>2026-08-06T06:18:53.300Z</time>
      </trkpt>
      <trkpt lat="48.80596" lon="5.54129">
        <ele>231.53</ele>
        <time>2026-08-06T06:18:59.296Z</time>
      </trkpt>
      <trkpt lat="48.80624" lon="5.54114">
        <ele>231.53</ele>
        <time>2026-08-06T06:19:05.295Z</time>
      </trkpt>
      <trkpt lat="48.8065" lon="5.54101">
        <ele>231.53</ele>
        <time>2026-08-06T06:19:10.297Z</time>
      </trkpt>
      <trkpt lat="48.80684" lon="5.54085">
        <ele>231.53</ele>
        <time>2026-08-06T06:19:16.293Z</time>
      </trkpt>
      <trkpt lat="48.80712" lon="5.54074">
        <ele>190.59</ele>
        <time>2026-08-06T06:19:21.299Z</time>
      </trkpt>
      <trkpt lat="48.80746" lon="5.54064">
        <ele>189.31</ele>
        <time>2026-08-06T06:19:26.302Z</time>
      </trkpt>
      <trkpt lat="48.80788" lon="5.54056">
        <ele>187.94</ele>
        <time>2026-08-06T06:19:32.298Z</time>
      </trkpt>
      <trkpt lat="48.80821" lon="5.54048">
        <ele>187.46</ele>
        <time>2026-08-06T06:19:37.301Z</time>
      </trkpt>
      <trkpt lat="48.80862" lon="5.5404">
        <ele>186.87</ele>
        <time>2026-08-06T06:19:43.301Z</time>
      </trkpt>
      <trkpt lat="48.80903" lon="5.54033">
        <ele>185.9</ele>
        <time>2026-08-06T06:19:49.304Z</time>
      </trkpt>
      <trkpt lat="48.80938" lon="5.54025">
        <ele>188.01</ele>
        <time>2026-08-06T06:19:55.297Z</time>
      </trkpt>
      <trkpt lat="48.80966" lon="5.5402">
        <ele>187.69</ele>
        <time>2026-08-06T06:20:01.299Z</time>
      </trkpt>
      <trkpt lat="48.80991" lon="5.54014">
        <ele>188.13</ele>
        <time>2026-08-06T06:20:07.298Z</time>
      </trkpt>
      <trkpt lat="48.81015" lon="5.5401">
        <ele>189.88</ele>
        <time>2026-08-06T06:20:13.301Z</time>
      </trkpt>
      <trkpt lat="48.81036" lon="5.54006">
        <ele>191.27</ele>
        <time>2026-08-06T06:20:19.300Z</time>
      </trkpt>
      <trkpt lat="48.81055" lon="5.54001">
        <ele>191.63</ele>
        <time>2026-08-06T06:20:24.300Z</time>
      </trkpt>
      <trkpt lat="48.81072" lon="5.53998">
        <ele>193</ele>
        <time>2026-08-06T06:20:30.301Z</time>
      </trkpt>
      <trkpt lat="48.81094" lon="5.53995">
        <ele>192.75</ele>
        <time>2026-08-06T06:20:36.296Z</time>
      </trkpt>
      <trkpt lat="48.81114" lon="5.5399">
        <ele>192.5</ele>
        <time>2026-08-06T06:20:41.298Z</time>
      </trkpt>
      <trkpt lat="48.81144" lon="5.53985">
        <ele>189.7</ele>
        <time>2026-08-06T06:20:47.295Z</time>
      </trkpt>
      <trkpt lat="48.81169" lon="5.5398">
        <ele>190.36</ele>
        <time>2026-08-06T06:20:52.299Z</time>
      </trkpt>
      <trkpt lat="48.81195" lon="5.53975">
        <ele>190.32</ele>
        <time>2026-08-06T06:20:57.304Z</time>
      </trkpt>
      <trkpt lat="48.81223" lon="5.5397">
        <ele>190.45</ele>
        <time>2026-08-06T06:21:02.308Z</time>
      </trkpt>
      <trkpt lat="48.81252" lon="5.53963">
        <ele>190.27</ele>
        <time>2026-08-06T06:21:08.353Z</time>
      </trkpt>
      <trkpt lat="48.81285" lon="5.53959">
        <ele>189.26</ele>
        <time>2026-08-06T06:21:14.352Z</time>
      </trkpt>
      <trkpt lat="48.81317" lon="5.53952">
        <ele>190.74</ele>
        <time>2026-08-06T06:21:20.347Z</time>
      </trkpt>
      <trkpt lat="48.81347" lon="5.53947">
        <ele>191.73</ele>
        <time>2026-08-06T06:21:26.296Z</time>
      </trkpt>
      <trkpt lat="48.81375" lon="5.53941">
        <ele>192.55</ele>
        <time>2026-08-06T06:21:32.297Z</time>
      </trkpt>
      <trkpt lat="48.81404" lon="5.53935">
        <ele>193.62</ele>
        <time>2026-08-06T06:21:38.351Z</time>
      </trkpt>
      <trkpt lat="48.8143" lon="5.53928">
        <ele>194.1</ele>
        <time>2026-08-06T06:21:44.353Z</time>
      </trkpt>
      <trkpt lat="48.81456" lon="5.53917">
        <ele>195.32</ele>
        <time>2026-08-06T06:21:50.351Z</time>
      </trkpt>
      <trkpt lat="48.81481" lon="5.53899">
        <ele>197.17</ele>
        <time>2026-08-06T06:21:56.354Z</time>
      </trkpt>
      <trkpt lat="48.81507" lon="5.53875">
        <ele>196.77</ele>
        <time>2026-08-06T06:22:02.293Z</time>
      </trkpt>
      <trkpt lat="48.81535" lon="5.53848">
        <ele>193.93</ele>
        <time>2026-08-06T06:22:07.293Z</time>
      </trkpt>
      <trkpt lat="48.81568" lon="5.53828">
        <ele>191.55</ele>
        <time>2026-08-06T06:22:12.294Z</time>
      </trkpt>
      <trkpt lat="48.81611" lon="5.53814">
        <ele>188.38</ele>
        <time>2026-08-06T06:22:18.309Z</time>
      </trkpt>
      <trkpt lat="48.81659" lon="5.53805">
        <ele>187.59</ele>
        <time>2026-08-06T06:22:24.287Z</time>
      </trkpt>
      <trkpt lat="48.81698" lon="5.53799">
        <ele>186.82</ele>
        <time>2026-08-06T06:22:29.296Z</time>
      </trkpt>
      <trkpt lat="48.81742" lon="5.53792">
        <ele>185.54</ele>
        <time>2026-08-06T06:22:35.295Z</time>
      </trkpt>
      <trkpt lat="48.81787" lon="5.53786">
        <ele>185.51</ele>
        <time>2026-08-06T06:22:41.293Z</time>
      </trkpt>
      <trkpt lat="48.81822" lon="5.5378">
        <ele>184.79</ele>
        <time>2026-08-06T06:22:46.298Z</time>
      </trkpt>
      <trkpt lat="48.81865" lon="5.53774">
        <ele>183.7</ele>
        <time>2026-08-06T06:22:52.298Z</time>
      </trkpt>
      <trkpt lat="48.81905" lon="5.53768">
        <ele>182.81</ele>
        <time>2026-08-06T06:22:58.298Z</time>
      </trkpt>
      <trkpt lat="48.81937" lon="5.53763">
        <ele>182.75</ele>
        <time>2026-08-06T06:23:03.301Z</time>
      </trkpt>
      <trkpt lat="48.8197" lon="5.53758">
        <ele>181.88</ele>
        <time>2026-08-06T06:23:08.352Z</time>
      </trkpt>
      <trkpt lat="48.8201" lon="5.53752">
        <ele>181.82</ele>
        <time>2026-08-06T06:23:14.355Z</time>
      </trkpt>
      <trkpt lat="48.82047" lon="5.53746">
        <ele>181.79</ele>
        <time>2026-08-06T06:23:20.352Z</time>
      </trkpt>
      <trkpt lat="48.82084" lon="5.53741">
        <ele>182.06</ele>
        <time>2026-08-06T06:23:26.301Z</time>
      </trkpt>
      <trkpt lat="48.82118" lon="5.53737">
        <ele>181.63</ele>
        <time>2026-08-06T06:23:32.322Z</time>
      </trkpt>
      <trkpt lat="48.8215" lon="5.53733">
        <ele>181.39</ele>
        <time>2026-08-06T06:23:38.347Z</time>
      </trkpt>
      <trkpt lat="48.82185" lon="5.53727">
        <ele>181.5</ele>
        <time>2026-08-06T06:23:44.351Z</time>
      </trkpt>
      <trkpt lat="48.82218" lon="5.53722">
        <ele>181.98</ele>
        <time>2026-08-06T06:23:50.353Z</time>
      </trkpt>
      <trkpt lat="48.82254" lon="5.53718">
        <ele>183.22</ele>
        <time>2026-08-06T06:23:56.353Z</time>
      </trkpt>
      <trkpt lat="48.82288" lon="5.53711">
        <ele>182.73</ele>
        <time>2026-08-06T06:24:02.322Z</time>
      </trkpt>
      <trkpt lat="48.82323" lon="5.53707">
        <ele>182.44</ele>
        <time>2026-08-06T06:24:08.352Z</time>
      </trkpt>
      <trkpt lat="48.82357" lon="5.53702">
        <ele>181.55</ele>
        <time>2026-08-06T06:24:14.349Z</time>
      </trkpt>
      <trkpt lat="48.82391" lon="5.53697">
        <ele>182.54</ele>
        <time>2026-08-06T06:24:20.353Z</time>
      </trkpt>
      <trkpt lat="48.82425" lon="5.53692">
        <ele>182.27</ele>
        <time>2026-08-06T06:24:26.357Z</time>
      </trkpt>
      <trkpt lat="48.8246" lon="5.53687">
        <ele>181.16</ele>
        <time>2026-08-06T06:24:32.357Z</time>
      </trkpt>
      <trkpt lat="48.82495" lon="5.53681">
        <ele>180.73</ele>
        <time>2026-08-06T06:24:38.352Z</time>
      </trkpt>
      <trkpt lat="48.8253" lon="5.53677">
        <ele>180.54</ele>
        <time>2026-08-06T06:24:44.350Z</time>
      </trkpt>
      <trkpt lat="48.82562" lon="5.53672">
        <ele>181.94</ele>
        <time>2026-08-06T06:24:50.352Z</time>
      </trkpt>
      <trkpt lat="48.82591" lon="5.53669">
        <ele>183.94</ele>
        <time>2026-08-06T06:24:56.362Z</time>
      </trkpt>
      <trkpt lat="48.82615" lon="5.53666">
        <ele>185.48</ele>
        <time>2026-08-06T06:25:02.356Z</time>
      </trkpt>
      <trkpt lat="48.82635" lon="5.53664">
        <ele>186.35</ele>
        <time>2026-08-06T06:25:08.354Z</time>
      </trkpt>
      <trkpt lat="48.82656" lon="5.53662">
        <ele>188.47</ele>
        <time>2026-08-06T06:25:14.414Z</time>
      </trkpt>
      <trkpt lat="48.8267" lon="5.53666">
        <ele>189.55</ele>
        <time>2026-08-06T06:25:20.343Z</time>
      </trkpt>
      <trkpt lat="48.82681" lon="5.53669">
        <ele>191.01</ele>
        <time>2026-08-06T06:25:26.359Z</time>
      </trkpt>
      <trkpt lat="48.8269" lon="5.53655">
        <ele>191.72</ele>
        <time>2026-08-06T06:25:32.318Z</time>
      </trkpt>
      <trkpt lat="48.82698" lon="5.53646">
        <ele>234.02</ele>
        <time>2026-08-06T06:25:38.352Z</time>
      </trkpt>
      <trkpt lat="48.8271" lon="5.53657">
        <ele>234.03</ele>
        <time>2026-08-06T06:25:44.349Z</time>
      </trkpt>
      <trkpt lat="48.82718" lon="5.53675">
        <ele>234.03</ele>
        <time>2026-08-06T06:25:50.351Z</time>
      </trkpt>
      <trkpt lat="48.82727" lon="5.53683">
        <ele>234.03</ele>
        <time>2026-08-06T06:25:56.319Z</time>
      </trkpt>
      <trkpt lat="48.82735" lon="5.53696">
        <ele>233.74</ele>
        <time>2026-08-06T06:26:02.359Z</time>
      </trkpt>
      <trkpt lat="48.82744" lon="5.53709">
        <ele>233.73</ele>
        <time>2026-08-06T06:26:08.349Z</time>
      </trkpt>
      <trkpt lat="48.82753" lon="5.53722">
        <ele>233.73</ele>
        <time>2026-08-06T06:26:14.352Z</time>
      </trkpt>
      <trkpt lat="48.82763" lon="5.53733">
        <ele>234.02</ele>
        <time>2026-08-06T06:26:20.349Z</time>
      </trkpt>
      <trkpt lat="48.82774" lon="5.5374">
        <ele>234.03</ele>
        <time>2026-08-06T06:26:26.359Z</time>
      </trkpt>
      <trkpt lat="48.82784" lon="5.53748">
        <ele>234.03</ele>
        <time>2026-08-06T06:26:32.354Z</time>
      </trkpt>
      <trkpt lat="48.82795" lon="5.53755">
        <ele>234.03</ele>
        <time>2026-08-06T06:26:38.346Z</time>
      </trkpt>
      <trkpt lat="48.82807" lon="5.53762">
        <ele>234.03</ele>
        <time>2026-08-06T06:26:44.346Z</time>
      </trkpt>
      <trkpt lat="48.82819" lon="5.53766">
        <ele>234.03</ele>
        <time>2026-08-06T06:26:50.347Z</time>
      </trkpt>
      <trkpt lat="48.8283" lon="5.53773">
        <ele>234.03</ele>
        <time>2026-08-06T06:26:56.356Z</time>
      </trkpt>
      <trkpt lat="48.8284" lon="5.53775">
        <ele>234.03</ele>
        <time>2026-08-06T06:27:02.346Z</time>
      </trkpt>
      <trkpt lat="48.82853" lon="5.53783">
        <ele>234.03</ele>
        <time>2026-08-06T06:27:08.349Z</time>
      </trkpt>
      <trkpt lat="48.82865" lon="5.53791">
        <ele>234.03</ele>
        <time>2026-08-06T06:27:14.347Z</time>
      </trkpt>
      <trkpt lat="48.82875" lon="5.53799">
        <ele>234.03</ele>
        <time>2026-08-06T06:27:20.347Z</time>
      </trkpt>
      <trkpt lat="48.82886" lon="5.53805">
        <ele>234.03</ele>
        <time>2026-08-06T06:27:26.357Z</time>
      </trkpt>
      <trkpt lat="48.82897" lon="5.53813">
        <ele>234.03</ele>
        <time>2026-08-06T06:27:32.353Z</time>
      </trkpt>
      <trkpt lat="48.82909" lon="5.53818">
        <ele>234.03</ele>
        <time>2026-08-06T06:27:38.346Z</time>
      </trkpt>
      <trkpt lat="48.82918" lon="5.53821">
        <ele>234.03</ele>
        <time>2026-08-06T06:27:44.346Z</time>
      </trkpt>
      <trkpt lat="48.82928" lon="5.53823">
        <ele>213.8</ele>
        <time>2026-08-06T06:27:50.349Z</time>
      </trkpt>
      <trkpt lat="48.8294" lon="5.53828">
        <ele>214.1</ele>
        <time>2026-08-06T06:27:56.355Z</time>
      </trkpt>
      <trkpt lat="48.82952" lon="5.53831">
        <ele>215.33</ele>
        <time>2026-08-06T06:28:02.353Z</time>
      </trkpt>
      <trkpt lat="48.82963" lon="5.53832">
        <ele>214.46</ele>
        <time>2026-08-06T06:28:08.350Z</time>
      </trkpt>
      <trkpt lat="48.82975" lon="5.53831">
        <ele>215.2</ele>
        <time>2026-08-06T06:28:14.348Z</time>
      </trkpt>
      <trkpt lat="48.82985" lon="5.53825">
        <ele>216.78</ele>
        <time>2026-08-06T06:28:20.349Z</time>
      </trkpt>
      <trkpt lat="48.82996" lon="5.53821">
        <ele>217.77</ele>
        <time>2026-08-06T06:28:26.353Z</time>
      </trkpt>
      <trkpt lat="48.83007" lon="5.53816">
        <ele>218.71</ele>
        <time>2026-08-06T06:28:32.353Z</time>
      </trkpt>
      <trkpt lat="48.83018" lon="5.53811">
        <ele>218.95</ele>
        <time>2026-08-06T06:28:38.349Z</time>
      </trkpt>
      <trkpt lat="48.83029" lon="5.53807">
        <ele>220.28</ele>
        <time>2026-08-06T06:28:44.347Z</time>
      </trkpt>
      <trkpt lat="48.83041" lon="5.53802">
        <ele>221.07</ele>
        <time>2026-08-06T06:28:50.346Z</time>
      </trkpt>
      <trkpt lat="48.83053" lon="5.538">
        <ele>220.85</ele>
        <time>2026-08-06T06:28:56.350Z</time>
      </trkpt>
      <trkpt lat="48.83068" lon="5.53801">
        <ele>224.43</ele>
        <time>2026-08-06T06:29:02.353Z</time>
      </trkpt>
      <trkpt lat="48.83082" lon="5.53804">
        <ele>228.24</ele>
        <time>2026-08-06T06:29:08.350Z</time>
      </trkpt>
      <trkpt lat="48.83096" lon="5.53804">
        <ele>227.43</ele>
        <time>2026-08-06T06:29:14.351Z</time>
      </trkpt>
      <trkpt lat="48.83111" lon="5.53798">
        <ele>227.3</ele>
        <time>2026-08-06T06:29:20.346Z</time>
      </trkpt>
      <trkpt lat="48.83124" lon="5.53789">
        <ele>226.21</ele>
        <time>2026-08-06T06:29:26.355Z</time>
      </trkpt>
      <trkpt lat="48.8314" lon="5.53778">
        <ele>224.93</ele>
        <time>2026-08-06T06:29:32.351Z</time>
      </trkpt>
      <trkpt lat="48.83156" lon="5.53766">
        <ele>224.01</ele>
        <time>2026-08-06T06:29:38.350Z</time>
      </trkpt>
      <trkpt lat="48.83171" lon="5.53755">
        <ele>224.6</ele>
        <time>2026-08-06T06:29:44.445Z</time>
      </trkpt>
      <trkpt lat="48.83188" lon="5.53742">
        <ele>227.35</ele>
        <time>2026-08-06T06:29:50.349Z</time>
      </trkpt>
      <trkpt lat="48.83202" lon="5.53729">
        <ele>227.55</ele>
        <time>2026-08-06T06:29:56.358Z</time>
      </trkpt>
      <trkpt lat="48.83218" lon="5.53715">
        <ele>228.93</ele>
        <time>2026-08-06T06:30:02.356Z</time>
      </trkpt>
      <trkpt lat="48.83236" lon="5.53702">
        <ele>228.74</ele>
        <time>2026-08-06T06:30:08.352Z</time>
      </trkpt>
      <trkpt lat="48.83259" lon="5.53684">
        <ele>227.15</ele>
        <time>2026-08-06T06:30:14.352Z</time>
      </trkpt>
      <trkpt lat="48.83289" lon="5.53669">
        <ele>224.98</ele>
        <time>2026-08-06T06:30:20.349Z</time>
      </trkpt>
      <trkpt lat="48.83324" lon="5.53657">
        <ele>222.74</ele>
        <time>2026-08-06T06:30:26.357Z</time>
      </trkpt>
      <trkpt lat="48.83364" lon="5.53646">
        <ele>220.47</ele>
        <time>2026-08-06T06:30:32.356Z</time>
      </trkpt>
      <trkpt lat="48.83408" lon="5.5363">
        <ele>219.1</ele>
        <time>2026-08-06T06:30:38.350Z</time>
      </trkpt>
      <trkpt lat="48.83453" lon="5.53612">
        <ele>217.06</ele>
        <time>2026-08-06T06:30:44.348Z</time>
      </trkpt>
      <trkpt lat="48.83499" lon="5.536">
        <ele>216.14</ele>
        <time>2026-08-06T06:30:50.341Z</time>
      </trkpt>
      <trkpt lat="48.83541" lon="5.536">
        <ele>215.86</ele>
        <time>2026-08-06T06:30:56.352Z</time>
      </trkpt>
      <trkpt lat="48.83579" lon="5.53597">
        <ele>215.52</ele>
        <time>2026-08-06T06:31:02.354Z</time>
      </trkpt>
      <trkpt lat="48.83614" lon="5.53581">
        <ele>215.48</ele>
        <time>2026-08-06T06:31:08.351Z</time>
      </trkpt>
      <trkpt lat="48.83643" lon="5.53555">
        <ele>215.94</ele>
        <time>2026-08-06T06:31:14.349Z</time>
      </trkpt>
      <trkpt lat="48.83673" lon="5.53523">
        <ele>215.4</ele>
        <time>2026-08-06T06:31:20.349Z</time>
      </trkpt>
      <trkpt lat="48.83706" lon="5.53488">
        <ele>214.3</ele>
        <time>2026-08-06T06:31:26.355Z</time>
      </trkpt>
      <trkpt lat="48.8374" lon="5.53455">
        <ele>213.45</ele>
        <time>2026-08-06T06:31:32.353Z</time>
      </trkpt>
      <trkpt lat="48.83774" lon="5.53427">
        <ele>212.86</ele>
        <time>2026-08-06T06:31:38.347Z</time>
      </trkpt>
      <trkpt lat="48.83809" lon="5.53406">
        <ele>212.07</ele>
        <time>2026-08-06T06:31:44.350Z</time>
      </trkpt>
      <trkpt lat="48.8384" lon="5.53387">
        <ele>212.38</ele>
        <time>2026-08-06T06:31:50.348Z</time>
      </trkpt>
      <trkpt lat="48.83868" lon="5.53373">
        <ele>213.43</ele>
        <time>2026-08-06T06:31:56.355Z</time>
      </trkpt>
      <trkpt lat="48.83895" lon="5.53358">
        <ele>213.36</ele>
        <time>2026-08-06T06:32:02.355Z</time>
      </trkpt>
      <trkpt lat="48.83923" lon="5.5334">
        <ele>211.88</ele>
        <time>2026-08-06T06:32:08.350Z</time>
      </trkpt>
      <trkpt lat="48.83953" lon="5.5332">
        <ele>211.98</ele>
        <time>2026-08-06T06:32:14.352Z</time>
      </trkpt>
      <trkpt lat="48.83987" lon="5.53299">
        <ele>211.08</ele>
        <time>2026-08-06T06:32:20.350Z</time>
      </trkpt>
      <trkpt lat="48.84022" lon="5.53273">
        <ele>209.64</ele>
        <time>2026-08-06T06:32:26.359Z</time>
      </trkpt>
      <trkpt lat="48.84061" lon="5.53249">
        <ele>209.55</ele>
        <time>2026-08-06T06:32:32.355Z</time>
      </trkpt>
      <trkpt lat="48.84103" lon="5.53227">
        <ele>207.32</ele>
        <time>2026-08-06T06:32:38.349Z</time>
      </trkpt>
      <trkpt lat="48.84147" lon="5.53203">
        <ele>204</ele>
        <time>2026-08-06T06:32:44.349Z</time>
      </trkpt>
      <trkpt lat="48.84196" lon="5.53172">
        <ele>200.66</ele>
        <time>2026-08-06T06:32:50.346Z</time>
      </trkpt>
      <trkpt lat="48.84243" lon="5.53128">
        <ele>199.13</ele>
        <time>2026-08-06T06:32:56.354Z</time>
      </trkpt>
      <trkpt lat="48.8429" lon="5.53081">
        <ele>196.04</ele>
        <time>2026-08-06T06:33:02.359Z</time>
      </trkpt>
      <trkpt lat="48.84335" lon="5.5303">
        <ele>192.94</ele>
        <time>2026-08-06T06:33:08.351Z</time>
      </trkpt>
      <trkpt lat="48.8438" lon="5.52973">
        <ele>189.31</ele>
        <time>2026-08-06T06:33:14.348Z</time>
      </trkpt>
      <trkpt lat="48.84425" lon="5.5291">
        <ele>186.23</ele>
        <time>2026-08-06T06:33:20.350Z</time>
      </trkpt>
      <trkpt lat="48.8447" lon="5.52842">
        <ele>182.15</ele>
        <time>2026-08-06T06:33:26.353Z</time>
      </trkpt>
      <trkpt lat="48.84513" lon="5.52783">
        <ele>180.01</ele>
        <time>2026-08-06T06:33:32.357Z</time>
      </trkpt>
      <trkpt lat="48.8455" lon="5.52734">
        <ele>178.27</ele>
        <time>2026-08-06T06:33:38.350Z</time>
      </trkpt>
      <trkpt lat="48.84583" lon="5.52691">
        <ele>177.17</ele>
        <time>2026-08-06T06:33:44.385Z</time>
      </trkpt>
      <trkpt lat="48.84613" lon="5.52678">
        <ele>178.39</ele>
        <time>2026-08-06T06:33:50.338Z</time>
      </trkpt>
      <trkpt lat="48.8463" lon="5.52711">
        <ele>179.39</ele>
        <time>2026-08-06T06:33:56.343Z</time>
      </trkpt>
      <trkpt lat="48.84649" lon="5.52738">
        <ele>179.69</ele>
        <time>2026-08-06T06:34:02.348Z</time>
      </trkpt>
      <trkpt lat="48.84668" lon="5.52762">
        <ele>180.7</ele>
        <time>2026-08-06T06:34:08.345Z</time>
      </trkpt>
      <trkpt lat="48.8469" lon="5.52789">
        <ele>225.69</ele>
        <time>2026-08-06T06:34:14.346Z</time>
      </trkpt>
      <trkpt lat="48.84708" lon="5.52818">
        <ele>226.34</ele>
        <time>2026-08-06T06:34:20.341Z</time>
      </trkpt>
      <trkpt lat="48.84725" lon="5.52851">
        <ele>226.34</ele>
        <time>2026-08-06T06:34:26.345Z</time>
      </trkpt>
      <trkpt lat="48.8474" lon="5.52876">
        <ele>226.34</ele>
        <time>2026-08-06T06:34:31.384Z</time>
      </trkpt>
      <trkpt lat="48.84756" lon="5.52906">
        <ele>226.34</ele>
        <time>2026-08-06T06:34:37.369Z</time>
      </trkpt>
      <trkpt lat="48.84774" lon="5.52935">
        <ele>225.64</ele>
        <time>2026-08-06T06:34:43.368Z</time>
      </trkpt>
      <trkpt lat="48.8479" lon="5.52966">
        <ele>225.64</ele>
        <time>2026-08-06T06:34:49.295Z</time>
      </trkpt>
      <trkpt lat="48.84809" lon="5.53009">
        <ele>226.76</ele>
        <time>2026-08-06T06:34:55.287Z</time>
      </trkpt>
      <trkpt lat="48.8481" lon="5.53033">
        <ele>226.84</ele>
        <time>2026-08-06T06:35:00.294Z</time>
      </trkpt>
      <trkpt lat="48.84832" lon="5.53076">
        <ele>226.84</ele>
        <time>2026-08-06T06:35:06.295Z</time>
      </trkpt>
      <trkpt lat="48.84845" lon="5.53112">
        <ele>226.84</ele>
        <time>2026-08-06T06:35:11.295Z</time>
      </trkpt>
      <trkpt lat="48.84864" lon="5.5315">
        <ele>226.84</ele>
        <time>2026-08-06T06:35:17.296Z</time>
      </trkpt>
      <trkpt lat="48.84882" lon="5.5318">
        <ele>226.84</ele>
        <time>2026-08-06T06:35:23.297Z</time>
      </trkpt>
      <trkpt lat="48.849" lon="5.53206">
        <ele>226.84</ele>
        <time>2026-08-06T06:35:29.299Z</time>
      </trkpt>
      <trkpt lat="48.84924" lon="5.53238">
        <ele>226.84</ele>
        <time>2026-08-06T06:35:35.298Z</time>
      </trkpt>
      <trkpt lat="48.84945" lon="5.53274">
        <ele>226.84</ele>
        <time>2026-08-06T06:35:41.296Z</time>
      </trkpt>
      <trkpt lat="48.84964" lon="5.53309">
        <ele>226.84</ele>
        <time>2026-08-06T06:35:47.296Z</time>
      </trkpt>
      <trkpt lat="48.84983" lon="5.53343">
        <ele>226.84</ele>
        <time>2026-08-06T06:35:53.296Z</time>
      </trkpt>
      <trkpt lat="48.84999" lon="5.53381">
        <ele>226.84</ele>
        <time>2026-08-06T06:35:59.296Z</time>
      </trkpt>
      <trkpt lat="48.85016" lon="5.53421">
        <ele>226.84</ele>
        <time>2026-08-06T06:36:05.294Z</time>
      </trkpt>
      <trkpt lat="48.8503" lon="5.53461">
        <ele>226.84</ele>
        <time>2026-08-06T06:36:11.290Z</time>
      </trkpt>
      <trkpt lat="48.85042" lon="5.53495">
        <ele>226.84</ele>
        <time>2026-08-06T06:36:16.295Z</time>
      </trkpt>
      <trkpt lat="48.85052" lon="5.53526">
        <ele>226.84</ele>
        <time>2026-08-06T06:36:21.297Z</time>
      </trkpt>
      <trkpt lat="48.8506" lon="5.53554">
        <ele>178.27</ele>
        <time>2026-08-06T06:36:26.361Z</time>
      </trkpt>
      <trkpt lat="48.85072" lon="5.53596">
        <ele>177.64</ele>
        <time>2026-08-06T06:36:32.354Z</time>
      </trkpt>
      <trkpt lat="48.85086" lon="5.53638">
        <ele>178.29</ele>
        <time>2026-08-06T06:36:38.349Z</time>
      </trkpt>
      <trkpt lat="48.85099" lon="5.53679">
        <ele>179.6</ele>
        <time>2026-08-06T06:36:44.353Z</time>
      </trkpt>
      <trkpt lat="48.85112" lon="5.5372">
        <ele>178.51</ele>
        <time>2026-08-06T06:36:50.351Z</time>
      </trkpt>
      <trkpt lat="48.85125" lon="5.53762">
        <ele>176.71</ele>
        <time>2026-08-06T06:36:56.358Z</time>
      </trkpt>
      <trkpt lat="48.85138" lon="5.53803">
        <ele>175.75</ele>
        <time>2026-08-06T06:37:02.357Z</time>
      </trkpt>
      <trkpt lat="48.85153" lon="5.53848">
        <ele>174.83</ele>
        <time>2026-08-06T06:37:08.347Z</time>
      </trkpt>
      <trkpt lat="48.85168" lon="5.53895">
        <ele>174.53</ele>
        <time>2026-08-06T06:37:14.345Z</time>
      </trkpt>
      <trkpt lat="48.85183" lon="5.53943">
        <ele>175.15</ele>
        <time>2026-08-06T06:37:20.346Z</time>
      </trkpt>
      <trkpt lat="48.85196" lon="5.53978">
        <ele>176.59</ele>
        <time>2026-08-06T06:37:25.628Z</time>
      </trkpt>
      <trkpt lat="48.85208" lon="5.54017">
        <ele>176.94</ele>
        <time>2026-08-06T06:37:31.298Z</time>
      </trkpt>
      <trkpt lat="48.85223" lon="5.54061">
        <ele>176.54</ele>
        <time>2026-08-06T06:37:37.292Z</time>
      </trkpt>
      <trkpt lat="48.85236" lon="5.54101">
        <ele>177.51</ele>
        <time>2026-08-06T06:37:42.298Z</time>
      </trkpt>
      <trkpt lat="48.85251" lon="5.54149">
        <ele>178.08</ele>
        <time>2026-08-06T06:37:48.293Z</time>
      </trkpt>
      <trkpt lat="48.85264" lon="5.54187">
        <ele>178.17</ele>
        <time>2026-08-06T06:37:53.294Z</time>
      </trkpt>
      <trkpt lat="48.85279" lon="5.54233">
        <ele>176.63</ele>
        <time>2026-08-06T06:37:59.296Z</time>
      </trkpt>
      <trkpt lat="48.85293" lon="5.54276">
        <ele>175.89</ele>
        <time>2026-08-06T06:38:05.295Z</time>
      </trkpt>
      <trkpt lat="48.85307" lon="5.54319">
        <ele>176.18</ele>
        <time>2026-08-06T06:38:11.297Z</time>
      </trkpt>
      <trkpt lat="48.85322" lon="5.54364">
        <ele>175.32</ele>
        <time>2026-08-06T06:38:17.299Z</time>
      </trkpt>
      <trkpt lat="48.85338" lon="5.54409">
        <ele>174.17</ele>
        <time>2026-08-06T06:38:23.294Z</time>
      </trkpt>
      <trkpt lat="48.85354" lon="5.54452">
        <ele>174.26</ele>
        <time>2026-08-06T06:38:29.293Z</time>
      </trkpt>
      <trkpt lat="48.85366" lon="5.54488">
        <ele>173.84</ele>
        <time>2026-08-06T06:38:34.295Z</time>
      </trkpt>
      <trkpt lat="48.85382" lon="5.54532">
        <ele>174.23</ele>
        <time>2026-08-06T06:38:40.294Z</time>
      </trkpt>
      <trkpt lat="48.85395" lon="5.54567">
        <ele>174.46</ele>
        <time>2026-08-06T06:38:45.295Z</time>
      </trkpt>
      <trkpt lat="48.8541" lon="5.54599">
        <ele>174.15</ele>
        <time>2026-08-06T06:38:50.344Z</time>
      </trkpt>
      <trkpt lat="48.85431" lon="5.54637">
        <ele>175.07</ele>
        <time>2026-08-06T06:38:56.354Z</time>
      </trkpt>
      <trkpt lat="48.85453" lon="5.54675">
        <ele>175.93</ele>
        <time>2026-08-06T06:39:02.351Z</time>
      </trkpt>
      <trkpt lat="48.85478" lon="5.54708">
        <ele>175.23</ele>
        <time>2026-08-06T06:39:08.343Z</time>
      </trkpt>
      <trkpt lat="48.85502" lon="5.54738">
        <ele>176.12</ele>
        <time>2026-08-06T06:39:14.344Z</time>
      </trkpt>
      <trkpt lat="48.85529" lon="5.54769">
        <ele>176.65</ele>
        <time>2026-08-06T06:39:20.346Z</time>
      </trkpt>
      <trkpt lat="48.85558" lon="5.54797">
        <ele>177.17</ele>
        <time>2026-08-06T06:39:26.357Z</time>
      </trkpt>
      <trkpt lat="48.85585" lon="5.54827">
        <ele>177.56</ele>
        <time>2026-08-06T06:39:32.354Z</time>
      </trkpt>
      <trkpt lat="48.85613" lon="5.54856">
        <ele>177.94</ele>
        <time>2026-08-06T06:39:38.351Z</time>
      </trkpt>
      <trkpt lat="48.85641" lon="5.54885">
        <ele>177.97</ele>
        <time>2026-08-06T06:39:44.347Z</time>
      </trkpt>
      <trkpt lat="48.85668" lon="5.54914">
        <ele>177.69</ele>
        <time>2026-08-06T06:39:50.346Z</time>
      </trkpt>
      <trkpt lat="48.85694" lon="5.54942">
        <ele>178.39</ele>
        <time>2026-08-06T06:39:56.360Z</time>
      </trkpt>
      <trkpt lat="48.85721" lon="5.54971">
        <ele>178.26</ele>
        <time>2026-08-06T06:40:02.353Z</time>
      </trkpt>
      <trkpt lat="48.85749" lon="5.55">
        <ele>178.22</ele>
        <time>2026-08-06T06:40:08.345Z</time>
      </trkpt>
      <trkpt lat="48.85776" lon="5.55031">
        <ele>177.15</ele>
        <time>2026-08-06T06:40:14.348Z</time>
      </trkpt>
      <trkpt lat="48.85804" lon="5.55061">
        <ele>176.97</ele>
        <time>2026-08-06T06:40:20.346Z</time>
      </trkpt>
      <trkpt lat="48.85831" lon="5.55089">
        <ele>177.21</ele>
        <time>2026-08-06T06:40:26.355Z</time>
      </trkpt>
      <trkpt lat="48.85858" lon="5.55116">
        <ele>177.93</ele>
        <time>2026-08-06T06:40:32.349Z</time>
      </trkpt>
      <trkpt lat="48.85886" lon="5.55142">
        <ele>178.14</ele>
        <time>2026-08-06T06:40:38.346Z</time>
      </trkpt>
      <trkpt lat="48.85916" lon="5.55167">
        <ele>178.28</ele>
        <time>2026-08-06T06:40:44.343Z</time>
      </trkpt>
      <trkpt lat="48.85945" lon="5.55192">
        <ele>178.43</ele>
        <time>2026-08-06T06:40:50.344Z</time>
      </trkpt>
      <trkpt lat="48.85974" lon="5.55216">
        <ele>178.61</ele>
        <time>2026-08-06T06:40:56.357Z</time>
      </trkpt>
      <trkpt lat="48.86003" lon="5.5524">
        <ele>178.26</ele>
        <time>2026-08-06T06:41:02.354Z</time>
      </trkpt>
      <trkpt lat="48.86033" lon="5.55264">
        <ele>177.8</ele>
        <time>2026-08-06T06:41:08.341Z</time>
      </trkpt>
      <trkpt lat="48.86062" lon="5.55287">
        <ele>177.91</ele>
        <time>2026-08-06T06:41:14.350Z</time>
      </trkpt>
      <trkpt lat="48.86091" lon="5.55309">
        <ele>178.11</ele>
        <time>2026-08-06T06:41:20.349Z</time>
      </trkpt>
      <trkpt lat="48.86121" lon="5.55328">
        <ele>178.42</ele>
        <time>2026-08-06T06:41:26.358Z</time>
      </trkpt>
      <trkpt lat="48.86152" lon="5.55346">
        <ele>179.17</ele>
        <time>2026-08-06T06:41:32.356Z</time>
      </trkpt>
      <trkpt lat="48.86184" lon="5.55357">
        <ele>179.04</ele>
        <time>2026-08-06T06:41:38.350Z</time>
      </trkpt>
      <trkpt lat="48.86218" lon="5.55363">
        <ele>178.03</ele>
        <time>2026-08-06T06:41:44.347Z</time>
      </trkpt>
      <trkpt lat="48.86251" lon="5.55367">
        <ele>177.54</ele>
        <time>2026-08-06T06:41:50.348Z</time>
      </trkpt>
      <trkpt lat="48.86283" lon="5.5537">
        <ele>177.87</ele>
        <time>2026-08-06T06:41:56.358Z</time>
      </trkpt>
      <trkpt lat="48.86315" lon="5.55374">
        <ele>177.75</ele>
        <time>2026-08-06T06:42:02.355Z</time>
      </trkpt>
      <trkpt lat="48.86349" lon="5.55375">
        <ele>177.26</ele>
        <time>2026-08-06T06:42:08.347Z</time>
      </trkpt>
      <trkpt lat="48.8638" lon="5.55368">
        <ele>177.43</ele>
        <time>2026-08-06T06:42:14.343Z</time>
      </trkpt>
      <trkpt lat="48.86412" lon="5.55353">
        <ele>176.3</ele>
        <time>2026-08-06T06:42:20.346Z</time>
      </trkpt>
      <trkpt lat="48.86441" lon="5.55337">
        <ele>177.13</ele>
        <time>2026-08-06T06:42:26.349Z</time>
      </trkpt>
      <trkpt lat="48.86472" lon="5.55324">
        <ele>177.16</ele>
        <time>2026-08-06T06:42:32.346Z</time>
      </trkpt>
      <trkpt lat="48.86506" lon="5.55314">
        <ele>176.29</ele>
        <time>2026-08-06T06:42:38.349Z</time>
      </trkpt>
      <trkpt lat="48.8654" lon="5.55305">
        <ele>176.47</ele>
        <time>2026-08-06T06:42:44.345Z</time>
      </trkpt>
      <trkpt lat="48.86572" lon="5.55291">
        <ele>176.66</ele>
        <time>2026-08-06T06:42:50.344Z</time>
      </trkpt>
      <trkpt lat="48.86602" lon="5.55275">
        <ele>177.67</ele>
        <time>2026-08-06T06:42:56.345Z</time>
      </trkpt>
      <trkpt lat="48.86629" lon="5.55259">
        <ele>179.56</ele>
        <time>2026-08-06T06:43:02.345Z</time>
      </trkpt>
      <trkpt lat="48.86658" lon="5.55244">
        <ele>179.59</ele>
        <time>2026-08-06T06:43:08.346Z</time>
      </trkpt>
      <trkpt lat="48.86686" lon="5.55229">
        <ele>178.87</ele>
        <time>2026-08-06T06:43:14.347Z</time>
      </trkpt>
      <trkpt lat="48.86714" lon="5.5521">
        <ele>178.57</ele>
        <time>2026-08-06T06:43:20.346Z</time>
      </trkpt>
      <trkpt lat="48.86742" lon="5.55185">
        <ele>178.09</ele>
        <time>2026-08-06T06:43:26.346Z</time>
      </trkpt>
      <trkpt lat="48.86768" lon="5.55158">
        <ele>177.57</ele>
        <time>2026-08-06T06:43:32.345Z</time>
      </trkpt>
      <trkpt lat="48.86792" lon="5.55128">
        <ele>178.21</ele>
        <time>2026-08-06T06:43:38.350Z</time>
      </trkpt>
      <trkpt lat="48.86817" lon="5.55098">
        <ele>178.2</ele>
        <time>2026-08-06T06:43:44.346Z</time>
      </trkpt>
      <trkpt lat="48.86839" lon="5.5507">
        <ele>178.56</ele>
        <time>2026-08-06T06:43:50.343Z</time>
      </trkpt>
      <trkpt lat="48.86853" lon="5.55031">
        <ele>180.22</ele>
        <time>2026-08-06T06:43:56.348Z</time>
      </trkpt>
      <trkpt lat="48.86866" lon="5.54988">
        <ele>179.5</ele>
        <time>2026-08-06T06:44:02.343Z</time>
      </trkpt>
      <trkpt lat="48.86878" lon="5.5495">
        <ele>179.44</ele>
        <time>2026-08-06T06:44:08.347Z</time>
      </trkpt>
      <trkpt lat="48.86891" lon="5.54922">
        <ele>181.54</ele>
        <time>2026-08-06T06:44:14.344Z</time>
      </trkpt>
      <trkpt lat="48.86909" lon="5.5493">
        <ele>182.27</ele>
        <time>2026-08-06T06:44:20.346Z</time>
      </trkpt>
      <trkpt lat="48.86925" lon="5.54941">
        <ele>183.37</ele>
        <time>2026-08-06T06:44:26.351Z</time>
      </trkpt>
      <trkpt lat="48.86933" lon="5.5495">
        <ele>182.14</ele>
        <time>2026-08-06T06:44:34.293Z</time>
      </trkpt>
      <trkpt lat="48.86942" lon="5.54957">
        <ele>182.15</ele>
        <time>2026-08-06T06:44:40.294Z</time>
      </trkpt>
      <trkpt lat="48.8695" lon="5.54965">
        <ele>181.45</ele>
        <time>2026-08-06T06:44:46.295Z</time>
      </trkpt>
      <trkpt lat="48.86958" lon="5.5497">
        <ele>182.24</ele>
        <time>2026-08-06T06:44:51.295Z</time>
      </trkpt>
      <trkpt lat="48.86968" lon="5.54977">
        <ele>183.7</ele>
        <time>2026-08-06T06:44:57.300Z</time>
      </trkpt>
      <trkpt lat="48.86976" lon="5.54983">
        <ele>185.11</ele>
        <time>2026-08-06T06:45:03.298Z</time>
      </trkpt>
      <trkpt lat="48.86983" lon="5.54974">
        <ele>187.54</ele>
        <time>2026-08-06T06:47:07.293Z</time>
      </trkpt>
      <trkpt lat="48.86991" lon="5.54987">
        <ele>187.46</ele>
        <time>2026-08-06T06:49:04.295Z</time>
      </trkpt>
      <trkpt lat="48.86998" lon="5.55003">
        <ele>187.79</ele>
        <time>2026-08-06T06:49:10.297Z</time>
      </trkpt>
      <trkpt lat="48.87004" lon="5.55016">
        <ele>189.44</ele>
        <time>2026-08-06T06:49:16.300Z</time>
      </trkpt>
      <trkpt lat="48.87007" lon="5.55029">
        <ele>190.54</ele>
        <time>2026-08-06T06:49:24.298Z</time>
      </trkpt>
      <trkpt lat="48.87008" lon="5.55044">
        <ele>192.21</ele>
        <time>2026-08-06T06:49:34.295Z</time>
      </trkpt>
      <trkpt lat="48.87011" lon="5.55057">
        <ele>191.85</ele>
        <time>2026-08-06T06:49:45.296Z</time>
      </trkpt>
      <trkpt lat="48.87011" lon="5.55072">
        <ele>195.02</ele>
        <time>2026-08-06T06:49:57.294Z</time>
      </trkpt>
      <trkpt lat="48.87011" lon="5.55086">
        <ele>196.58</ele>
        <time>2026-08-06T06:50:07.286Z</time>
      </trkpt>
      <trkpt lat="48.87009" lon="5.551">
        <ele>197.81</ele>
        <time>2026-08-06T06:50:15.300Z</time>
      </trkpt>
      <trkpt lat="48.87007" lon="5.55114">
        <ele>199.05</ele>
        <time>2026-08-06T06:50:22.297Z</time>
      </trkpt>
      <trkpt lat="48.87002" lon="5.55128">
        <ele>200.37</ele>
        <time>2026-08-06T06:50:30.300Z</time>
      </trkpt>
      <trkpt lat="48.86997" lon="5.55141">
        <ele>200.17</ele>
        <time>2026-08-06T06:50:37.299Z</time>
      </trkpt>
      <trkpt lat="48.86992" lon="5.55154">
        <ele>200.51</ele>
        <time>2026-08-06T06:50:44.347Z</time>
      </trkpt>
      <trkpt lat="48.86988" lon="5.55166">
        <ele>201.1</ele>
        <time>2026-08-06T06:50:50.352Z</time>
      </trkpt>
      <trkpt lat="48.86984" lon="5.55179">
        <ele>201.71</ele>
        <time>2026-08-06T06:50:56.338Z</time>
      </trkpt>
      <trkpt lat="48.86978" lon="5.55193">
        <ele>202.38</ele>
        <time>2026-08-06T06:51:03.293Z</time>
      </trkpt>
      <trkpt lat="48.86974" lon="5.55205">
        <ele>202.9</ele>
        <time>2026-08-06T06:51:08.351Z</time>
      </trkpt>
      <trkpt lat="48.8697" lon="5.5522">
        <ele>204.05</ele>
        <time>2026-08-06T06:51:14.350Z</time>
      </trkpt>
      <trkpt lat="48.86964" lon="5.55235">
        <ele>204.51</ele>
        <time>2026-08-06T06:51:20.347Z</time>
      </trkpt>
      <trkpt lat="48.8696" lon="5.55249">
        <ele>205.57</ele>
        <time>2026-08-06T06:51:26.353Z</time>
      </trkpt>
      <trkpt lat="48.86954" lon="5.55264">
        <ele>205.93</ele>
        <time>2026-08-06T06:51:32.351Z</time>
      </trkpt>
      <trkpt lat="48.8695" lon="5.55279">
        <ele>205.75</ele>
        <time>2026-08-06T06:51:38.347Z</time>
      </trkpt>
      <trkpt lat="48.86945" lon="5.55294">
        <ele>206.14</ele>
        <time>2026-08-06T06:51:44.364Z</time>
      </trkpt>
      <trkpt lat="48.86939" lon="5.55309">
        <ele>208.01</ele>
        <time>2026-08-06T06:51:50.348Z</time>
      </trkpt>
      <trkpt lat="48.86934" lon="5.55323">
        <ele>209</ele>
        <time>2026-08-06T06:51:56.353Z</time>
      </trkpt>
      <trkpt lat="48.86928" lon="5.5534">
        <ele>209.39</ele>
        <time>2026-08-06T06:52:02.349Z</time>
      </trkpt>
      <trkpt lat="48.86923" lon="5.55356">
        <ele>210.3</ele>
        <time>2026-08-06T06:52:08.345Z</time>
      </trkpt>
      <trkpt lat="48.86917" lon="5.55371">
        <ele>210.62</ele>
        <time>2026-08-06T06:52:14.347Z</time>
      </trkpt>
      <trkpt lat="48.86912" lon="5.55387">
        <ele>211.41</ele>
        <time>2026-08-06T06:52:20.350Z</time>
      </trkpt>
      <trkpt lat="48.86907" lon="5.55402">
        <ele>211.44</ele>
        <time>2026-08-06T06:52:26.353Z</time>
      </trkpt>
      <trkpt lat="48.86901" lon="5.55416">
        <ele>212.09</ele>
        <time>2026-08-06T06:52:32.346Z</time>
      </trkpt>
      <trkpt lat="48.86896" lon="5.55427">
        <ele>211.87</ele>
        <time>2026-08-06T06:52:38.353Z</time>
      </trkpt>
      <trkpt lat="48.86888" lon="5.55438">
        <ele>212.48</ele>
        <time>2026-08-06T06:52:44.345Z</time>
      </trkpt>
      <trkpt lat="48.86882" lon="5.5545">
        <ele>213.75</ele>
        <time>2026-08-06T06:52:50.351Z</time>
      </trkpt>
      <trkpt lat="48.86874" lon="5.55461">
        <ele>214.8</ele>
        <time>2026-08-06T06:52:56.354Z</time>
      </trkpt>
      <trkpt lat="48.86867" lon="5.55471">
        <ele>215.41</ele>
        <time>2026-08-06T06:53:02.345Z</time>
      </trkpt>
      <trkpt lat="48.86858" lon="5.55481">
        <ele>217.28</ele>
        <time>2026-08-06T06:53:08.344Z</time>
      </trkpt>
      <trkpt lat="48.86851" lon="5.55491">
        <ele>218.9</ele>
        <time>2026-08-06T06:53:14.351Z</time>
      </trkpt>
      <trkpt lat="48.86843" lon="5.55502">
        <ele>219.26</ele>
        <time>2026-08-06T06:53:20.354Z</time>
      </trkpt>
      <trkpt lat="48.86836" lon="5.55513">
        <ele>219.04</ele>
        <time>2026-08-06T06:53:26.352Z</time>
      </trkpt>
      <trkpt lat="48.8683" lon="5.55524">
        <ele>219.6</ele>
        <time>2026-08-06T06:53:32.345Z</time>
      </trkpt>
      <trkpt lat="48.86823" lon="5.55535">
        <ele>220.21</ele>
        <time>2026-08-06T06:53:38.346Z</time>
      </trkpt>
      <trkpt lat="48.86817" lon="5.55547">
        <ele>220.81</ele>
        <time>2026-08-06T06:53:44.349Z</time>
      </trkpt>
      <trkpt lat="48.86812" lon="5.55559">
        <ele>221.48</ele>
        <time>2026-08-06T06:53:50.349Z</time>
      </trkpt>
      <trkpt lat="48.86809" lon="5.55572">
        <ele>222.69</ele>
        <time>2026-08-06T06:53:56.355Z</time>
      </trkpt>
      <trkpt lat="48.86807" lon="5.55586">
        <ele>223.67</ele>
        <time>2026-08-06T06:54:03.291Z</time>
      </trkpt>
      <trkpt lat="48.8681" lon="5.556">
        <ele>225.49</ele>
        <time>2026-08-06T06:54:10.292Z</time>
      </trkpt>
      <trkpt lat="48.86815" lon="5.55612">
        <ele>227.41</ele>
        <time>2026-08-06T06:54:17.295Z</time>
      </trkpt>
      <trkpt lat="48.8682" lon="5.55625">
        <ele>229.17</ele>
        <time>2026-08-06T06:54:24.296Z</time>
      </trkpt>
      <trkpt lat="48.86825" lon="5.55637">
        <ele>230.11</ele>
        <time>2026-08-06T06:54:31.292Z</time>
      </trkpt>
      <trkpt lat="48.8683" lon="5.55649">
        <ele>231.69</ele>
        <time>2026-08-06T06:54:38.347Z</time>
      </trkpt>
      <trkpt lat="48.86834" lon="5.55663">
        <ele>233.4</ele>
        <time>2026-08-06T06:54:46.292Z</time>
      </trkpt>
      <trkpt lat="48.86836" lon="5.55677">
        <ele>234.03</ele>
        <time>2026-08-06T06:54:53.293Z</time>
      </trkpt>
      <trkpt lat="48.86833" lon="5.55691">
        <ele>235.48</ele>
        <time>2026-08-06T06:54:59.298Z</time>
      </trkpt>
      <trkpt lat="48.86828" lon="5.55707">
        <ele>236.87</ele>
        <time>2026-08-06T06:55:05.296Z</time>
      </trkpt>
      <trkpt lat="48.86819" lon="5.55716">
        <ele>238</ele>
        <time>2026-08-06T06:55:11.296Z</time>
      </trkpt>
      <trkpt lat="48.8681" lon="5.55721">
        <ele>238.88</ele>
        <time>2026-08-06T06:55:16.296Z</time>
      </trkpt>
      <trkpt lat="48.868" lon="5.55726">
        <ele>238.94</ele>
        <time>2026-08-06T06:55:22.294Z</time>
      </trkpt>
      <trkpt lat="48.86791" lon="5.55729">
        <ele>239.09</ele>
        <time>2026-08-06T06:55:27.294Z</time>
      </trkpt>
      <trkpt lat="48.86781" lon="5.55732">
        <ele>238.85</ele>
        <time>2026-08-06T06:55:32.349Z</time>
      </trkpt>
      <trkpt lat="48.86769" lon="5.55736">
        <ele>239.58</ele>
        <time>2026-08-06T06:55:38.350Z</time>
      </trkpt>
      <trkpt lat="48.86757" lon="5.5574">
        <ele>239.89</ele>
        <time>2026-08-06T06:55:44.348Z</time>
      </trkpt>
      <trkpt lat="48.86746" lon="5.55744">
        <ele>239.65</ele>
        <time>2026-08-06T06:55:50.356Z</time>
      </trkpt>
      <trkpt lat="48.86734" lon="5.55748">
        <ele>239.05</ele>
        <time>2026-08-06T06:55:56.349Z</time>
      </trkpt>
      <trkpt lat="48.86721" lon="5.55751">
        <ele>238.77</ele>
        <time>2026-08-06T06:56:02.348Z</time>
      </trkpt>
      <trkpt lat="48.86708" lon="5.55754">
        <ele>240.38</ele>
        <time>2026-08-06T06:56:08.349Z</time>
      </trkpt>
      <trkpt lat="48.86696" lon="5.55757">
        <ele>241.07</ele>
        <time>2026-08-06T06:56:14.348Z</time>
      </trkpt>
      <trkpt lat="48.86683" lon="5.5576">
        <ele>242.09</ele>
        <time>2026-08-06T06:56:20.344Z</time>
      </trkpt>
      <trkpt lat="48.86671" lon="5.55762">
        <ele>243.1</ele>
        <time>2026-08-06T06:56:26.350Z</time>
      </trkpt>
      <trkpt lat="48.8666" lon="5.55765">
        <ele>244.3</ele>
        <time>2026-08-06T06:56:32.351Z</time>
      </trkpt>
      <trkpt lat="48.86649" lon="5.5577">
        <ele>244.63</ele>
        <time>2026-08-06T06:56:38.345Z</time>
      </trkpt>
      <trkpt lat="48.86637" lon="5.55779">
        <ele>244.91</ele>
        <time>2026-08-06T06:56:44.345Z</time>
      </trkpt>
      <trkpt lat="48.86627" lon="5.55789">
        <ele>244.92</ele>
        <time>2026-08-06T06:56:50.346Z</time>
      </trkpt>
      <trkpt lat="48.8662" lon="5.55802">
        <ele>244.99</ele>
        <time>2026-08-06T06:56:56.347Z</time>
      </trkpt>
      <trkpt lat="48.86615" lon="5.55818">
        <ele>245.96</ele>
        <time>2026-08-06T06:57:02.345Z</time>
      </trkpt>
      <trkpt lat="48.86614" lon="5.55836">
        <ele>247.3</ele>
        <time>2026-08-06T06:57:08.351Z</time>
      </trkpt>
      <trkpt lat="48.86616" lon="5.55854">
        <ele>247.17</ele>
        <time>2026-08-06T06:57:14.353Z</time>
      </trkpt>
      <trkpt lat="48.86619" lon="5.5587">
        <ele>247.02</ele>
        <time>2026-08-06T06:57:20.348Z</time>
      </trkpt>
      <trkpt lat="48.86622" lon="5.55884">
        <ele>248.41</ele>
        <time>2026-08-06T06:57:26.354Z</time>
      </trkpt>
      <trkpt lat="48.86627" lon="5.55899">
        <ele>250.25</ele>
        <time>2026-08-06T06:57:32.347Z</time>
      </trkpt>
      <trkpt lat="48.86631" lon="5.55914">
        <ele>251.21</ele>
        <time>2026-08-06T06:57:38.346Z</time>
      </trkpt>
      <trkpt lat="48.86636" lon="5.55928">
        <ele>252.51</ele>
        <time>2026-08-06T06:57:44.351Z</time>
      </trkpt>
      <trkpt lat="48.8664" lon="5.55943">
        <ele>252.94</ele>
        <time>2026-08-06T06:57:50.346Z</time>
      </trkpt>
      <trkpt lat="48.86646" lon="5.55954">
        <ele>253.73</ele>
        <time>2026-08-06T06:57:56.347Z</time>
      </trkpt>
      <trkpt lat="48.86653" lon="5.55963">
        <ele>254.81</ele>
        <time>2026-08-06T06:58:02.345Z</time>
      </trkpt>
      <trkpt lat="48.86664" lon="5.55968">
        <ele>255.82</ele>
        <time>2026-08-06T06:58:08.347Z</time>
      </trkpt>
      <trkpt lat="48.86676" lon="5.55967">
        <ele>256.87</ele>
        <time>2026-08-06T06:58:14.350Z</time>
      </trkpt>
      <trkpt lat="48.86688" lon="5.55965">
        <ele>257.74</ele>
        <time>2026-08-06T06:58:20.351Z</time>
      </trkpt>
      <trkpt lat="48.86699" lon="5.55963">
        <ele>257.14</ele>
        <time>2026-08-06T06:58:26.349Z</time>
      </trkpt>
      <trkpt lat="48.86712" lon="5.55959">
        <ele>257.8</ele>
        <time>2026-08-06T06:58:32.345Z</time>
      </trkpt>
      <trkpt lat="48.86724" lon="5.55956">
        <ele>259.63</ele>
        <time>2026-08-06T06:58:38.347Z</time>
      </trkpt>
      <trkpt lat="48.86737" lon="5.55953">
        <ele>260.28</ele>
        <time>2026-08-06T06:58:44.347Z</time>
      </trkpt>
      <trkpt lat="48.86752" lon="5.55949">
        <ele>259.7</ele>
        <time>2026-08-06T06:58:50.346Z</time>
      </trkpt>
      <trkpt lat="48.86768" lon="5.55945">
        <ele>259.76</ele>
        <time>2026-08-06T06:58:56.350Z</time>
      </trkpt>
      <trkpt lat="48.86785" lon="5.55941">
        <ele>260.44</ele>
        <time>2026-08-06T06:59:02.349Z</time>
      </trkpt>
      <trkpt lat="48.86803" lon="5.55936">
        <ele>261.62</ele>
        <time>2026-08-06T06:59:08.347Z</time>
      </trkpt>
      <trkpt lat="48.8682" lon="5.55942">
        <ele>262.5</ele>
        <time>2026-08-06T06:59:14.348Z</time>
      </trkpt>
      <trkpt lat="48.86821" lon="5.55962">
        <ele>262.72</ele>
        <time>2026-08-06T06:59:20.351Z</time>
      </trkpt>
      <trkpt lat="48.86818" lon="5.55979">
        <ele>263.56</ele>
        <time>2026-08-06T06:59:26.350Z</time>
      </trkpt>
      <trkpt lat="48.86814" lon="5.55996">
        <ele>264.06</ele>
        <time>2026-08-06T06:59:32.354Z</time>
      </trkpt>
      <trkpt lat="48.86808" lon="5.56013">
        <ele>264.26</ele>
        <time>2026-08-06T06:59:38.348Z</time>
      </trkpt>
      <trkpt lat="48.86803" lon="5.56031">
        <ele>264.06</ele>
        <time>2026-08-06T06:59:44.353Z</time>
      </trkpt>
      <trkpt lat="48.86798" lon="5.56049">
        <ele>264.73</ele>
        <time>2026-08-06T06:59:50.347Z</time>
      </trkpt>
      <trkpt lat="48.86794" lon="5.56067">
        <ele>265.15</ele>
        <time>2026-08-06T06:59:56.353Z</time>
      </trkpt>
      <trkpt lat="48.8679" lon="5.56085">
        <ele>265.71</ele>
        <time>2026-08-06T07:00:02.348Z</time>
      </trkpt>
      <trkpt lat="48.86787" lon="5.56104">
        <ele>267.33</ele>
        <time>2026-08-06T07:00:08.347Z</time>
      </trkpt>
      <trkpt lat="48.86785" lon="5.56121">
        <ele>268.68</ele>
        <time>2026-08-06T07:00:14.347Z</time>
      </trkpt>
      <trkpt lat="48.86783" lon="5.56138">
        <ele>270.31</ele>
        <time>2026-08-06T07:00:20.345Z</time>
      </trkpt>
      <trkpt lat="48.86783" lon="5.56155">
        <ele>270.29</ele>
        <time>2026-08-06T07:00:26.353Z</time>
      </trkpt>
      <trkpt lat="48.86782" lon="5.56171">
        <ele>271.07</ele>
        <time>2026-08-06T07:00:32.346Z</time>
      </trkpt>
      <trkpt lat="48.86781" lon="5.56185">
        <ele>271.56</ele>
        <time>2026-08-06T07:00:38.345Z</time>
      </trkpt>
      <trkpt lat="48.8678" lon="5.562">
        <ele>273.16</ele>
        <time>2026-08-06T07:00:44.346Z</time>
      </trkpt>
      <trkpt lat="48.86778" lon="5.56214">
        <ele>275.04</ele>
        <time>2026-08-06T07:00:50.348Z</time>
      </trkpt>
      <trkpt lat="48.86775" lon="5.56228">
        <ele>276.02</ele>
        <time>2026-08-06T07:00:56.334Z</time>
      </trkpt>
      <trkpt lat="48.8677" lon="5.56242">
        <ele>276.4</ele>
        <time>2026-08-06T07:01:03.295Z</time>
      </trkpt>
      <trkpt lat="48.86765" lon="5.56254">
        <ele>276.64</ele>
        <time>2026-08-06T07:01:09.296Z</time>
      </trkpt>
      <trkpt lat="48.86761" lon="5.56267">
        <ele>276.74</ele>
        <time>2026-08-06T07:01:15.296Z</time>
      </trkpt>
      <trkpt lat="48.86756" lon="5.5628">
        <ele>276.93</ele>
        <time>2026-08-06T07:01:21.295Z</time>
      </trkpt>
      <trkpt lat="48.86752" lon="5.56292">
        <ele>277.11</ele>
        <time>2026-08-06T07:01:27.300Z</time>
      </trkpt>
      <trkpt lat="48.86748" lon="5.56305">
        <ele>278.86</ele>
        <time>2026-08-06T07:01:33.295Z</time>
      </trkpt>
      <trkpt lat="48.86742" lon="5.56318">
        <ele>280.67</ele>
        <time>2026-08-06T07:01:40.294Z</time>
      </trkpt>
      <trkpt lat="48.86739" lon="5.56332">
        <ele>281.81</ele>
        <time>2026-08-06T07:01:47.295Z</time>
      </trkpt>
      <trkpt lat="48.86737" lon="5.56347">
        <ele>283.18</ele>
        <time>2026-08-06T07:01:54.297Z</time>
      </trkpt>
      <trkpt lat="48.86742" lon="5.5636">
        <ele>284.44</ele>
        <time>2026-08-06T07:02:01.295Z</time>
      </trkpt>
      <trkpt lat="48.86749" lon="5.56372">
        <ele>285.5</ele>
        <time>2026-08-06T07:02:07.293Z</time>
      </trkpt>
      <trkpt lat="48.86757" lon="5.56383">
        <ele>286.3</ele>
        <time>2026-08-06T07:02:13.296Z</time>
      </trkpt>
      <trkpt lat="48.86763" lon="5.56393">
        <ele>286.21</ele>
        <time>2026-08-06T07:02:19.295Z</time>
      </trkpt>
      <trkpt lat="48.86772" lon="5.56403">
        <ele>286.56</ele>
        <time>2026-08-06T07:02:25.296Z</time>
      </trkpt>
      <trkpt lat="48.86777" lon="5.56415">
        <ele>287.3</ele>
        <time>2026-08-06T07:02:30.296Z</time>
      </trkpt>
      <trkpt lat="48.86782" lon="5.56435">
        <ele>287.21</ele>
        <time>2026-08-06T07:02:36.297Z</time>
      </trkpt>
      <trkpt lat="48.86783" lon="5.56453">
        <ele>287.44</ele>
        <time>2026-08-06T07:02:41.297Z</time>
      </trkpt>
      <trkpt lat="48.86783" lon="5.56478">
        <ele>287.27</ele>
        <time>2026-08-06T07:02:47.299Z</time>
      </trkpt>
      <trkpt lat="48.86782" lon="5.56505">
        <ele>288.03</ele>
        <time>2026-08-06T07:02:53.296Z</time>
      </trkpt>
      <trkpt lat="48.86782" lon="5.56533">
        <ele>289.64</ele>
        <time>2026-08-06T07:02:59.300Z</time>
      </trkpt>
      <trkpt lat="48.86779" lon="5.5656">
        <ele>291.06</ele>
        <time>2026-08-06T07:03:05.299Z</time>
      </trkpt>
      <trkpt lat="48.86775" lon="5.56584">
        <ele>291.43</ele>
        <time>2026-08-06T07:03:11.297Z</time>
      </trkpt>
      <trkpt lat="48.86769" lon="5.56607">
        <ele>291.91</ele>
        <time>2026-08-06T07:03:17.296Z</time>
      </trkpt>
      <trkpt lat="48.86763" lon="5.56632">
        <ele>290.82</ele>
        <time>2026-08-06T07:03:23.293Z</time>
      </trkpt>
      <trkpt lat="48.86758" lon="5.56652">
        <ele>290.15</ele>
        <time>2026-08-06T07:03:28.294Z</time>
      </trkpt>
      <trkpt lat="48.86751" lon="5.56677">
        <ele>289.92</ele>
        <time>2026-08-06T07:03:34.292Z</time>
      </trkpt>
      <trkpt lat="48.86745" lon="5.56697">
        <ele>290.68</ele>
        <time>2026-08-06T07:03:39.293Z</time>
      </trkpt>
      <trkpt lat="48.86739" lon="5.56718">
        <ele>290.87</ele>
        <time>2026-08-06T07:03:44.345Z</time>
      </trkpt>
      <trkpt lat="48.86732" lon="5.56743">
        <ele>290.63</ele>
        <time>2026-08-06T07:03:50.347Z</time>
      </trkpt>
      <trkpt lat="48.86726" lon="5.56769">
        <ele>290.71</ele>
        <time>2026-08-06T07:03:56.356Z</time>
      </trkpt>
      <trkpt lat="48.86721" lon="5.56796">
        <ele>290.51</ele>
        <time>2026-08-06T07:04:02.344Z</time>
      </trkpt>
      <trkpt lat="48.86717" lon="5.56822">
        <ele>290.31</ele>
        <time>2026-08-06T07:04:08.344Z</time>
      </trkpt>
      <trkpt lat="48.86713" lon="5.56849">
        <ele>291.56</ele>
        <time>2026-08-06T07:04:14.345Z</time>
      </trkpt>
      <trkpt lat="48.8671" lon="5.56875">
        <ele>293.33</ele>
        <time>2026-08-06T07:04:20.376Z</time>
      </trkpt>
      <trkpt lat="48.86705" lon="5.569">
        <ele>293.95</ele>
        <time>2026-08-06T07:04:26.357Z</time>
      </trkpt>
      <trkpt lat="48.86702" lon="5.56926">
        <ele>293.01</ele>
        <time>2026-08-06T07:04:32.340Z</time>
      </trkpt>
      <trkpt lat="48.867" lon="5.56951">
        <ele>290.6</ele>
        <time>2026-08-06T07:04:38.341Z</time>
      </trkpt>
      <trkpt lat="48.86701" lon="5.56979">
        <ele>290.86</ele>
        <time>2026-08-06T07:04:44.345Z</time>
      </trkpt>
      <trkpt lat="48.86704" lon="5.57007">
        <ele>292.17</ele>
        <time>2026-08-06T07:04:50.348Z</time>
      </trkpt>
      <trkpt lat="48.86711" lon="5.57034">
        <ele>293.17</ele>
        <time>2026-08-06T07:04:56.354Z</time>
      </trkpt>
      <trkpt lat="48.86719" lon="5.57061">
        <ele>294.76</ele>
        <time>2026-08-06T07:05:02.345Z</time>
      </trkpt>
      <trkpt lat="48.86727" lon="5.5709">
        <ele>294.97</ele>
        <time>2026-08-06T07:05:08.347Z</time>
      </trkpt>
      <trkpt lat="48.86735" lon="5.57121">
        <ele>293.55</ele>
        <time>2026-08-06T07:05:14.349Z</time>
      </trkpt>
      <trkpt lat="48.86744" lon="5.57153">
        <ele>292.67</ele>
        <time>2026-08-06T07:05:20.347Z</time>
      </trkpt>
      <trkpt lat="48.86752" lon="5.5718">
        <ele>292.4</ele>
        <time>2026-08-06T07:05:26.355Z</time>
      </trkpt>
      <trkpt lat="48.86761" lon="5.57209">
        <ele>291.58</ele>
        <time>2026-08-06T07:05:32.344Z</time>
      </trkpt>
      <trkpt lat="48.86776" lon="5.57244">
        <ele>291.7</ele>
        <time>2026-08-06T07:05:38.345Z</time>
      </trkpt>
      <trkpt lat="48.86784" lon="5.57275">
        <ele>292.55</ele>
        <time>2026-08-06T07:05:44.346Z</time>
      </trkpt>
      <trkpt lat="48.86791" lon="5.57287">
        <ele>292.93</ele>
        <time>2026-08-06T07:06:30.296Z</time>
      </trkpt>
      <trkpt lat="48.86798" lon="5.57317">
        <ele>294.3</ele>
        <time>2026-08-06T07:06:36.295Z</time>
      </trkpt>
      <trkpt lat="48.86805" lon="5.57344">
        <ele>295.71</ele>
        <time>2026-08-06T07:06:41.296Z</time>
      </trkpt>
      <trkpt lat="48.86814" lon="5.57376">
        <ele>296.53</ele>
        <time>2026-08-06T07:06:47.292Z</time>
      </trkpt>
      <trkpt lat="48.86822" lon="5.57404">
        <ele>296.05</ele>
        <time>2026-08-06T07:06:52.297Z</time>
      </trkpt>
      <trkpt lat="48.86832" lon="5.57434">
        <ele>294.84</ele>
        <time>2026-08-06T07:06:57.300Z</time>
      </trkpt>
      <trkpt lat="48.86844" lon="5.57464">
        <ele>294.74</ele>
        <time>2026-08-06T07:07:02.356Z</time>
      </trkpt>
      <trkpt lat="48.8686" lon="5.575">
        <ele>294.37</ele>
        <time>2026-08-06T07:07:08.345Z</time>
      </trkpt>
      <trkpt lat="48.86877" lon="5.57534">
        <ele>294.48</ele>
        <time>2026-08-06T07:07:14.352Z</time>
      </trkpt>
      <trkpt lat="48.86894" lon="5.5757">
        <ele>295.52</ele>
        <time>2026-08-06T07:07:20.348Z</time>
      </trkpt>
      <trkpt lat="48.8691" lon="5.57608">
        <ele>296.08</ele>
        <time>2026-08-06T07:07:26.362Z</time>
      </trkpt>
      <trkpt lat="48.86923" lon="5.57647">
        <ele>296.55</ele>
        <time>2026-08-06T07:07:32.348Z</time>
      </trkpt>
      <trkpt lat="48.86937" lon="5.57687">
        <ele>296.27</ele>
        <time>2026-08-06T07:07:38.349Z</time>
      </trkpt>
      <trkpt lat="48.86959" lon="5.57719">
        <ele>295.59</ele>
        <time>2026-08-06T07:07:44.410Z</time>
      </trkpt>
      <trkpt lat="48.86982" lon="5.57745">
        <ele>294.52</ele>
        <time>2026-08-06T07:07:50.358Z</time>
      </trkpt>
      <trkpt lat="48.87003" lon="5.57776">
        <ele>290.38</ele>
        <time>2026-08-06T07:07:56.347Z</time>
      </trkpt>
      <trkpt lat="48.87026" lon="5.57812">
        <ele>285.33</ele>
        <time>2026-08-06T07:08:02.348Z</time>
      </trkpt>
      <trkpt lat="48.8706" lon="5.57858">
        <ele>280.51</ele>
        <time>2026-08-06T07:08:08.348Z</time>
      </trkpt>
      <trkpt lat="48.87097" lon="5.57903">
        <ele>276.89</ele>
        <time>2026-08-06T07:08:14.351Z</time>
      </trkpt>
      <trkpt lat="48.87145" lon="5.57953">
        <ele>280.53</ele>
        <time>2026-08-06T07:08:20.346Z</time>
      </trkpt>
      <trkpt lat="48.87179" lon="5.57992">
        <ele>282.43</ele>
        <time>2026-08-06T07:08:26.345Z</time>
      </trkpt>
      <trkpt lat="48.87196" lon="5.57975">
        <ele>284.78</ele>
        <time>2026-08-06T07:08:32.342Z</time>
      </trkpt>
      <trkpt lat="48.87198" lon="5.57939">
        <ele>286.58</ele>
        <time>2026-08-06T07:08:38.346Z</time>
      </trkpt>
      <trkpt lat="48.87198" lon="5.57898">
        <ele>286.88</ele>
        <time>2026-08-06T07:08:44.348Z</time>
      </trkpt>
      <trkpt lat="48.87202" lon="5.57856">
        <ele>285.43</ele>
        <time>2026-08-06T07:08:50.348Z</time>
      </trkpt>
      <trkpt lat="48.87221" lon="5.57817">
        <ele>284.75</ele>
        <time>2026-08-06T07:08:56.346Z</time>
      </trkpt>
      <trkpt lat="48.87251" lon="5.57784">
        <ele>284.98</ele>
        <time>2026-08-06T07:09:02.345Z</time>
      </trkpt>
      <trkpt lat="48.8728" lon="5.57755">
        <ele>284.54</ele>
        <time>2026-08-06T07:09:08.346Z</time>
      </trkpt>
      <trkpt lat="48.87306" lon="5.57727">
        <ele>284.01</ele>
        <time>2026-08-06T07:09:14.348Z</time>
      </trkpt>
      <trkpt lat="48.8733" lon="5.57699">
        <ele>283.19</ele>
        <time>2026-08-06T07:09:20.345Z</time>
      </trkpt>
      <trkpt lat="48.87353" lon="5.57674">
        <ele>283.52</ele>
        <time>2026-08-06T07:09:26.346Z</time>
      </trkpt>
      <trkpt lat="48.8737" lon="5.57656">
        <ele>285.2</ele>
        <time>2026-08-06T07:09:32.349Z</time>
      </trkpt>
      <trkpt lat="48.87387" lon="5.57638">
        <ele>285.03</ele>
        <time>2026-08-06T07:09:38.347Z</time>
      </trkpt>
      <trkpt lat="48.87406" lon="5.57618">
        <ele>284.94</ele>
        <time>2026-08-06T07:09:44.347Z</time>
      </trkpt>
      <trkpt lat="48.87427" lon="5.57595">
        <ele>284.24</ele>
        <time>2026-08-06T07:09:50.349Z</time>
      </trkpt>
      <trkpt lat="48.87455" lon="5.57563">
        <ele>282.84</ele>
        <time>2026-08-06T07:09:56.362Z</time>
      </trkpt>
      <trkpt lat="48.8749" lon="5.57526">
        <ele>280.32</ele>
        <time>2026-08-06T07:10:02.346Z</time>
      </trkpt>
      <trkpt lat="48.87528" lon="5.57485">
        <ele>275.71</ele>
        <time>2026-08-06T07:10:08.346Z</time>
      </trkpt>
      <trkpt lat="48.87569" lon="5.57441">
        <ele>273.19</ele>
        <time>2026-08-06T07:10:14.349Z</time>
      </trkpt>
      <trkpt lat="48.87612" lon="5.57394">
        <ele>272.44</ele>
        <time>2026-08-06T07:10:20.349Z</time>
      </trkpt>
      <trkpt lat="48.87657" lon="5.57345">
        <ele>270.36</ele>
        <time>2026-08-06T07:10:26.350Z</time>
      </trkpt>
      <trkpt lat="48.87698" lon="5.573">
        <ele>267.62</ele>
        <time>2026-08-06T07:10:32.347Z</time>
      </trkpt>
      <trkpt lat="48.87736" lon="5.57258">
        <ele>265</ele>
        <time>2026-08-06T07:10:38.346Z</time>
      </trkpt>
      <trkpt lat="48.87773" lon="5.57218">
        <ele>263.5</ele>
        <time>2026-08-06T07:10:44.344Z</time>
      </trkpt>
      <trkpt lat="48.8781" lon="5.57177">
        <ele>261.47</ele>
        <time>2026-08-06T07:10:50.345Z</time>
      </trkpt>
      <trkpt lat="48.8785" lon="5.57133">
        <ele>258.47</ele>
        <time>2026-08-06T07:10:56.348Z</time>
      </trkpt>
      <trkpt lat="48.87892" lon="5.57087">
        <ele>255.85</ele>
        <time>2026-08-06T07:11:02.346Z</time>
      </trkpt>
      <trkpt lat="48.87934" lon="5.57041">
        <ele>254.05</ele>
        <time>2026-08-06T07:11:08.343Z</time>
      </trkpt>
      <trkpt lat="48.87977" lon="5.56994">
        <ele>251.25</ele>
        <time>2026-08-06T07:11:14.345Z</time>
      </trkpt>
      <trkpt lat="48.8802" lon="5.56946">
        <ele>247.95</ele>
        <time>2026-08-06T07:11:20.346Z</time>
      </trkpt>
      <trkpt lat="48.88065" lon="5.56895">
        <ele>246.01</ele>
        <time>2026-08-06T07:11:26.345Z</time>
      </trkpt>
      <trkpt lat="48.88109" lon="5.56848">
        <ele>244.14</ele>
        <time>2026-08-06T07:11:32.345Z</time>
      </trkpt>
      <trkpt lat="48.88148" lon="5.56804">
        <ele>242.05</ele>
        <time>2026-08-06T07:11:38.345Z</time>
      </trkpt>
      <trkpt lat="48.88183" lon="5.56766">
        <ele>241.13</ele>
        <time>2026-08-06T07:11:44.345Z</time>
      </trkpt>
      <trkpt lat="48.88205" lon="5.56721">
        <ele>240.29</ele>
        <time>2026-08-06T07:11:50.345Z</time>
      </trkpt>
      <trkpt lat="48.88215" lon="5.56679">
        <ele>239.3</ele>
        <time>2026-08-06T07:11:56.346Z</time>
      </trkpt>
      <trkpt lat="48.88238" lon="5.56673">
        <ele>240.26</ele>
        <time>2026-08-06T07:12:02.345Z</time>
      </trkpt>
      <trkpt lat="48.88258" lon="5.56649">
        <ele>241.55</ele>
        <time>2026-08-06T07:12:08.342Z</time>
      </trkpt>
      <trkpt lat="48.88279" lon="5.56617">
        <ele>241.62</ele>
        <time>2026-08-06T07:12:14.346Z</time>
      </trkpt>
      <trkpt lat="48.883" lon="5.56582">
        <ele>240.2</ele>
        <time>2026-08-06T07:12:20.342Z</time>
      </trkpt>
      <trkpt lat="48.88324" lon="5.56542">
        <ele>236.66</ele>
        <time>2026-08-06T07:12:26.350Z</time>
      </trkpt>
      <trkpt lat="48.88353" lon="5.56496">
        <ele>232.89</ele>
        <time>2026-08-06T07:12:32.345Z</time>
      </trkpt>
      <trkpt lat="48.8839" lon="5.56441">
        <ele>228.74</ele>
        <time>2026-08-06T07:12:38.344Z</time>
      </trkpt>
      <trkpt lat="48.88433" lon="5.56376">
        <ele>224.03</ele>
        <time>2026-08-06T07:12:44.349Z</time>
      </trkpt>
      <trkpt lat="48.88476" lon="5.56309">
        <ele>220.67</ele>
        <time>2026-08-06T07:12:50.347Z</time>
      </trkpt>
      <trkpt lat="48.88517" lon="5.56244">
        <ele>218.25</ele>
        <time>2026-08-06T07:12:56.352Z</time>
      </trkpt>
      <trkpt lat="48.88556" lon="5.56184">
        <ele>216</ele>
        <time>2026-08-06T07:13:02.345Z</time>
      </trkpt>
      <trkpt lat="48.88595" lon="5.56125">
        <ele>212.54</ele>
        <time>2026-08-06T07:13:08.348Z</time>
      </trkpt>
      <trkpt lat="48.88637" lon="5.5606">
        <ele>208.84</ele>
        <time>2026-08-06T07:13:14.348Z</time>
      </trkpt>
      <trkpt lat="48.88674" lon="5.55978">
        <ele>202.81</ele>
        <time>2026-08-06T07:13:20.345Z</time>
      </trkpt>
      <trkpt lat="48.88682" lon="5.55878">
        <ele>197.55</ele>
        <time>2026-08-06T07:13:26.384Z</time>
      </trkpt>
      <trkpt lat="48.88685" lon="5.55771">
        <ele>194.81</ele>
        <time>2026-08-06T07:13:32.340Z</time>
      </trkpt>
      <trkpt lat="48.88687" lon="5.55672">
        <ele>186.79</ele>
        <time>2026-08-06T07:13:38.340Z</time>
      </trkpt>
      <trkpt lat="48.88704" lon="5.55607">
        <ele>183.66</ele>
        <time>2026-08-06T07:13:44.332Z</time>
      </trkpt>
      <trkpt lat="48.88728" lon="5.55553">
        <ele>182.8</ele>
        <time>2026-08-06T07:13:50.335Z</time>
      </trkpt>
      <trkpt lat="48.88747" lon="5.55509">
        <ele>184.6</ele>
        <time>2026-08-06T07:13:56.351Z</time>
      </trkpt>
      <trkpt lat="48.88762" lon="5.55465">
        <ele>183.93</ele>
        <time>2026-08-06T07:14:02.346Z</time>
      </trkpt>
      <trkpt lat="48.88775" lon="5.55414">
        <ele>184.23</ele>
        <time>2026-08-06T07:14:08.342Z</time>
      </trkpt>
      <trkpt lat="48.8878" lon="5.55355">
        <ele>183.43</ele>
        <time>2026-08-06T07:14:14.348Z</time>
      </trkpt>
      <trkpt lat="48.88778" lon="5.55298">
        <ele>182.99</ele>
        <time>2026-08-06T07:14:20.343Z</time>
      </trkpt>
      <trkpt lat="48.88774" lon="5.55241">
        <ele>183.44</ele>
        <time>2026-08-06T07:14:26.356Z</time>
      </trkpt>
      <trkpt lat="48.88766" lon="5.55189">
        <ele>182.47</ele>
        <time>2026-08-06T07:14:32.351Z</time>
      </trkpt>
      <trkpt lat="48.88753" lon="5.55141">
        <ele>183.2</ele>
        <time>2026-08-06T07:14:38.345Z</time>
      </trkpt>
      <trkpt lat="48.8874" lon="5.55095">
        <ele>182.45</ele>
        <time>2026-08-06T07:14:44.346Z</time>
      </trkpt>
      <trkpt lat="48.88761" lon="5.55047">
        <ele>182.61</ele>
        <time>2026-08-06T07:14:50.345Z</time>
      </trkpt>
      <trkpt lat="48.88778" lon="5.54996">
        <ele>182.5</ele>
        <time>2026-08-06T07:14:56.353Z</time>
      </trkpt>
      <trkpt lat="48.88791" lon="5.54946">
        <ele>180.62</ele>
        <time>2026-08-06T07:15:02.354Z</time>
      </trkpt>
      <trkpt lat="48.888" lon="5.54896">
        <ele>179.6</ele>
        <time>2026-08-06T07:15:08.345Z</time>
      </trkpt>
      <trkpt lat="48.88805" lon="5.54845">
        <ele>181.15</ele>
        <time>2026-08-06T07:15:14.345Z</time>
      </trkpt>
      <trkpt lat="48.88808" lon="5.54792">
        <ele>181.94</ele>
        <time>2026-08-06T07:15:20.346Z</time>
      </trkpt>
      <trkpt lat="48.88811" lon="5.54741">
        <ele>181.73</ele>
        <time>2026-08-06T07:15:26.350Z</time>
      </trkpt>
      <trkpt lat="48.88812" lon="5.54694">
        <ele>181.51</ele>
        <time>2026-08-06T07:15:32.353Z</time>
      </trkpt>
      <trkpt lat="48.88817" lon="5.54642">
        <ele>182.46</ele>
        <time>2026-08-06T07:15:38.348Z</time>
      </trkpt>
      <trkpt lat="48.88815" lon="5.54597">
        <ele>181.21</ele>
        <time>2026-08-06T07:15:44.352Z</time>
      </trkpt>
      <trkpt lat="48.88804" lon="5.5455">
        <ele>182.17</ele>
        <time>2026-08-06T07:15:50.348Z</time>
      </trkpt>
      <trkpt lat="48.88795" lon="5.54506">
        <ele>181.97</ele>
        <time>2026-08-06T07:15:56.333Z</time>
      </trkpt>
      <trkpt lat="48.88785" lon="5.54461">
        <ele>181.21</ele>
        <time>2026-08-06T07:16:02.354Z</time>
      </trkpt>
      <trkpt lat="48.88782" lon="5.54413">
        <ele>181.23</ele>
        <time>2026-08-06T07:16:08.347Z</time>
      </trkpt>
      <trkpt lat="48.88793" lon="5.5437">
        <ele>180.63</ele>
        <time>2026-08-06T07:16:14.349Z</time>
      </trkpt>
      <trkpt lat="48.88805" lon="5.54325">
        <ele>179.94</ele>
        <time>2026-08-06T07:16:20.349Z</time>
      </trkpt>
      <trkpt lat="48.88814" lon="5.54281">
        <ele>179.13</ele>
        <time>2026-08-06T07:16:26.353Z</time>
      </trkpt>
      <trkpt lat="48.88825" lon="5.54236">
        <ele>179.77</ele>
        <time>2026-08-06T07:16:32.353Z</time>
      </trkpt>
      <trkpt lat="48.88836" lon="5.54192">
        <ele>180.53</ele>
        <time>2026-08-06T07:16:38.348Z</time>
      </trkpt>
      <trkpt lat="48.88846" lon="5.5415">
        <ele>180.34</ele>
        <time>2026-08-06T07:16:44.343Z</time>
      </trkpt>
      <trkpt lat="48.88859" lon="5.54106">
        <ele>179.92</ele>
        <time>2026-08-06T07:16:50.347Z</time>
      </trkpt>
      <trkpt lat="48.88868" lon="5.54064">
        <ele>179.18</ele>
        <time>2026-08-06T07:16:56.351Z</time>
      </trkpt>
      <trkpt lat="48.88885" lon="5.54039">
        <ele>178.36</ele>
        <time>2026-08-06T07:17:02.356Z</time>
      </trkpt>
      <trkpt lat="48.88904" lon="5.54051">
        <ele>179</ele>
        <time>2026-08-06T07:17:08.351Z</time>
      </trkpt>
      <trkpt lat="48.88921" lon="5.54059">
        <ele>177.44</ele>
        <time>2026-08-06T07:17:14.350Z</time>
      </trkpt>
      <trkpt lat="48.88933" lon="5.54074">
        <ele>179.13</ele>
        <time>2026-08-06T07:17:20.346Z</time>
      </trkpt>
      <trkpt lat="48.88928" lon="5.54094">
        <ele>181.11</ele>
        <time>2026-08-06T07:17:26.353Z</time>
      </trkpt>
      <trkpt lat="48.88933" lon="5.54081">
        <ele>181.94</ele>
        <time>2026-08-06T07:18:10.290Z</time>
      </trkpt>
      <trkpt lat="48.88935" lon="5.54095">
        <ele>181.87</ele>
        <time>2026-08-06T07:18:16.294Z</time>
      </trkpt>
      <trkpt lat="48.88915" lon="5.5417">
        <ele>181.94</ele>
        <time>2026-08-06T07:18:21.298Z</time>
      </trkpt>
      <trkpt lat="48.88894" lon="5.54244">
        <ele>181.84</ele>
        <time>2026-08-06T07:18:26.707Z</time>
      </trkpt>
      <trkpt lat="48.88915" lon="5.54151">
        <ele>196.44</ele>
        <time>2026-08-06T07:20:22.298Z</time>
      </trkpt>
      <trkpt lat="48.88919" lon="5.54138">
        <ele>200.84</ele>
        <time>2026-08-06T07:20:27.316Z</time>
      </trkpt>
      <trkpt lat="48.88912" lon="5.54128">
        <ele>185.15</ele>
        <time>2026-08-06T07:20:54.294Z</time>
      </trkpt>
      <trkpt lat="48.88937" lon="5.5409">
        <ele>181.46</ele>
        <time>2026-08-06T07:20:59.640Z</time>
      </trkpt>
      <trkpt lat="48.88929" lon="5.54097">
        <ele>178.94</ele>
        <time>2026-08-06T07:21:12.254Z</time>
      </trkpt>
      <trkpt lat="48.8893" lon="5.54111">
        <ele>178.24</ele>
        <time>2026-08-06T07:29:29.291Z</time>
      </trkpt>
      <trkpt lat="48.88932" lon="5.54096">
        <ele>177.88</ele>
        <time>2026-08-06T07:32:12.301Z</time>
      </trkpt>
      <trkpt lat="48.88937" lon="5.54084">
        <ele>177.51</ele>
        <time>2026-08-06T07:35:30.301Z</time>
      </trkpt>
      <trkpt lat="48.88942" lon="5.54066">
        <ele>176.53</ele>
        <time>2026-08-06T07:35:36.295Z</time>
      </trkpt>
      <trkpt lat="48.88929" lon="5.54055">
        <ele>175.77</ele>
        <time>2026-08-06T07:35:42.297Z</time>
      </trkpt>
      <trkpt lat="48.88915" lon="5.54049">
        <ele>176.1</ele>
        <time>2026-08-06T07:35:47.305Z</time>
      </trkpt>
      <trkpt lat="48.88908" lon="5.54025">
        <ele>179.41</ele>
        <time>2026-08-06T07:35:53.293Z</time>
      </trkpt>
      <trkpt lat="48.88916" lon="5.53995">
        <ele>181.94</ele>
        <time>2026-08-06T07:35:59.299Z</time>
      </trkpt>
      <trkpt lat="48.88923" lon="5.53963">
        <ele>180.9</ele>
        <time>2026-08-06T07:36:05.308Z</time>
      </trkpt>
      <trkpt lat="48.88928" lon="5.53931">
        <ele>179.13</ele>
        <time>2026-08-06T07:36:11.296Z</time>
      </trkpt>
      <trkpt lat="48.88934" lon="5.53905">
        <ele>180.56</ele>
        <time>2026-08-06T07:36:17.294Z</time>
      </trkpt>
      <trkpt lat="48.88946" lon="5.53898">
        <ele>180.14</ele>
        <time>2026-08-06T07:36:22.294Z</time>
      </trkpt>
      <trkpt lat="48.8896" lon="5.53891">
        <ele>181.44</ele>
        <time>2026-08-06T07:36:27.311Z</time>
      </trkpt>
      <trkpt lat="48.88974" lon="5.53874">
        <ele>180.51</ele>
        <time>2026-08-06T07:36:32.356Z</time>
      </trkpt>
      <trkpt lat="48.88992" lon="5.5385">
        <ele>180.57</ele>
        <time>2026-08-06T07:36:38.353Z</time>
      </trkpt>
      <trkpt lat="48.89013" lon="5.53821">
        <ele>179.22</ele>
        <time>2026-08-06T07:36:44.356Z</time>
      </trkpt>
      <trkpt lat="48.89041" lon="5.53808">
        <ele>176.68</ele>
        <time>2026-08-06T07:36:50.351Z</time>
      </trkpt>
      <trkpt lat="48.89071" lon="5.53794">
        <ele>176.85</ele>
        <time>2026-08-06T07:36:56.361Z</time>
      </trkpt>
      <trkpt lat="48.89099" lon="5.53794">
        <ele>177.5</ele>
        <time>2026-08-06T07:37:02.353Z</time>
      </trkpt>
      <trkpt lat="48.89125" lon="5.53802">
        <ele>177.81</ele>
        <time>2026-08-06T07:37:08.352Z</time>
      </trkpt>
      <trkpt lat="48.89146" lon="5.53809">
        <ele>179.43</ele>
        <time>2026-08-06T07:37:14.351Z</time>
      </trkpt>
      <trkpt lat="48.89161" lon="5.53818">
        <ele>179.35</ele>
        <time>2026-08-06T07:37:20.354Z</time>
      </trkpt>
      <trkpt lat="48.89171" lon="5.53816">
        <ele>181.61</ele>
        <time>2026-08-06T07:37:26.350Z</time>
      </trkpt>
      <trkpt lat="48.89155" lon="5.53806">
        <ele>180.49</ele>
        <time>2026-08-06T07:37:32.358Z</time>
      </trkpt>
      <trkpt lat="48.89135" lon="5.53801">
        <ele>178.45</ele>
        <time>2026-08-06T07:37:38.350Z</time>
      </trkpt>
      <trkpt lat="48.89129" lon="5.53831">
        <ele>178.43</ele>
        <time>2026-08-06T07:37:44.365Z</time>
      </trkpt>
      <trkpt lat="48.89125" lon="5.53869">
        <ele>178.17</ele>
        <time>2026-08-06T07:37:50.356Z</time>
      </trkpt>
      <trkpt lat="48.89122" lon="5.53906">
        <ele>176.44</ele>
        <time>2026-08-06T07:37:56.350Z</time>
      </trkpt>
      <trkpt lat="48.89118" lon="5.53944">
        <ele>177.16</ele>
        <time>2026-08-06T07:38:02.354Z</time>
      </trkpt>
      <trkpt lat="48.89116" lon="5.53978">
        <ele>175.79</ele>
        <time>2026-08-06T07:38:08.345Z</time>
      </trkpt>
      <trkpt lat="48.89114" lon="5.5401">
        <ele>174.55</ele>
        <time>2026-08-06T07:38:14.354Z</time>
      </trkpt>
      <trkpt lat="48.8911" lon="5.5404">
        <ele>174.59</ele>
        <time>2026-08-06T07:38:20.357Z</time>
      </trkpt>
      <trkpt lat="48.8911" lon="5.54065">
        <ele>174.58</ele>
        <time>2026-08-06T07:38:26.358Z</time>
      </trkpt>
      <trkpt lat="48.89123" lon="5.54072">
        <ele>176.8</ele>
        <time>2026-08-06T07:38:32.374Z</time>
      </trkpt>
      <trkpt lat="48.8914" lon="5.5408">
        <ele>182.76</ele>
        <time>2026-08-06T07:38:38.357Z</time>
      </trkpt>
      <trkpt lat="48.89152" lon="5.54079">
        <ele>185.42</ele>
        <time>2026-08-06T07:38:44.347Z</time>
      </trkpt>
      <trkpt lat="48.89145" lon="5.54091">
        <ele>187.17</ele>
        <time>2026-08-06T07:40:33.327Z</time>
      </trkpt>
      <trkpt lat="48.89147" lon="5.54075">
        <ele>186.68</ele>
        <time>2026-08-06T07:40:52.292Z</time>
      </trkpt>
      <trkpt lat="48.89151" lon="5.54087">
        <ele>188.74</ele>
        <time>2026-08-06T07:44:39.324Z</time>
      </trkpt>
      <trkpt lat="48.89166" lon="5.541">
        <ele>190.1</ele>
        <time>2026-08-06T07:44:44.369Z</time>
      </trkpt>
      <trkpt lat="48.89183" lon="5.54106">
        <ele>190.63</ele>
        <time>2026-08-06T07:44:50.369Z</time>
      </trkpt>
      <trkpt lat="48.89198" lon="5.54113">
        <ele>186.6</ele>
        <time>2026-08-06T07:44:56.371Z</time>
      </trkpt>
      <trkpt lat="48.89209" lon="5.5412">
        <ele>180.99</ele>
        <time>2026-08-06T07:45:02.359Z</time>
      </trkpt>
      <trkpt lat="48.89232" lon="5.54102">
        <ele>176.56</ele>
        <time>2026-08-06T07:45:08.349Z</time>
      </trkpt>
      <trkpt lat="48.89246" lon="5.54073">
        <ele>173.95</ele>
        <time>2026-08-06T07:45:14.350Z</time>
      </trkpt>
      <trkpt lat="48.89265" lon="5.54044">
        <ele>173.49</ele>
        <time>2026-08-06T07:45:20.364Z</time>
      </trkpt>
      <trkpt lat="48.89281" lon="5.54015">
        <ele>173.32</ele>
        <time>2026-08-06T07:45:26.361Z</time>
      </trkpt>
      <trkpt lat="48.89297" lon="5.53988">
        <ele>173.07</ele>
        <time>2026-08-06T07:45:32.352Z</time>
      </trkpt>
      <trkpt lat="48.89309" lon="5.5396">
        <ele>173.31</ele>
        <time>2026-08-06T07:45:38.358Z</time>
      </trkpt>
      <trkpt lat="48.8932" lon="5.53937">
        <ele>175.85</ele>
        <time>2026-08-06T07:45:44.361Z</time>
      </trkpt>
      <trkpt lat="48.89333" lon="5.53917">
        <ele>178.39</ele>
        <time>2026-08-06T07:45:50.357Z</time>
      </trkpt>
      <trkpt lat="48.89344" lon="5.53896">
        <ele>180.58</ele>
        <time>2026-08-06T07:45:56.351Z</time>
      </trkpt>
      <trkpt lat="48.89355" lon="5.53875">
        <ele>180.81</ele>
        <time>2026-08-06T07:46:02.361Z</time>
      </trkpt>
      <trkpt lat="48.89366" lon="5.53851">
        <ele>180.05</ele>
        <time>2026-08-06T07:46:08.379Z</time>
      </trkpt>
      <trkpt lat="48.89378" lon="5.53826">
        <ele>179.31</ele>
        <time>2026-08-06T07:46:14.362Z</time>
      </trkpt>
      <trkpt lat="48.89394" lon="5.53795">
        <ele>177.9</ele>
        <time>2026-08-06T07:46:20.354Z</time>
      </trkpt>
      <trkpt lat="48.89412" lon="5.53768">
        <ele>175.09</ele>
        <time>2026-08-06T07:46:26.359Z</time>
      </trkpt>
      <trkpt lat="48.89438" lon="5.53741">
        <ele>175.22</ele>
        <time>2026-08-06T07:46:32.352Z</time>
      </trkpt>
      <trkpt lat="48.89465" lon="5.53719">
        <ele>173.69</ele>
        <time>2026-08-06T07:46:38.347Z</time>
      </trkpt>
      <trkpt lat="48.89493" lon="5.53699">
        <ele>174.75</ele>
        <time>2026-08-06T07:46:44.358Z</time>
      </trkpt>
      <trkpt lat="48.89522" lon="5.53688">
        <ele>176.63</ele>
        <time>2026-08-06T07:46:50.353Z</time>
      </trkpt>
      <trkpt lat="48.8955" lon="5.53675">
        <ele>179.26</ele>
        <time>2026-08-06T07:46:56.347Z</time>
      </trkpt>
      <trkpt lat="48.89573" lon="5.5366">
        <ele>180.01</ele>
        <time>2026-08-06T07:47:02.360Z</time>
      </trkpt>
      <trkpt lat="48.89594" lon="5.53642">
        <ele>179.82</ele>
        <time>2026-08-06T07:47:08.342Z</time>
      </trkpt>
      <trkpt lat="48.89609" lon="5.53614">
        <ele>178.99</ele>
        <time>2026-08-06T07:47:14.348Z</time>
      </trkpt>
      <trkpt lat="48.89624" lon="5.53586">
        <ele>181.32</ele>
        <time>2026-08-06T07:47:20.353Z</time>
      </trkpt>
      <trkpt lat="48.8964" lon="5.53559">
        <ele>183.65</ele>
        <time>2026-08-06T07:47:26.364Z</time>
      </trkpt>
      <trkpt lat="48.89654" lon="5.53532">
        <ele>183.47</ele>
        <time>2026-08-06T07:47:32.363Z</time>
      </trkpt>
      <trkpt lat="48.89669" lon="5.53503">
        <ele>183.2</ele>
        <time>2026-08-06T07:47:38.366Z</time>
      </trkpt>
      <trkpt lat="48.89683" lon="5.53474">
        <ele>181.47</ele>
        <time>2026-08-06T07:47:44.364Z</time>
      </trkpt>
      <trkpt lat="48.89699" lon="5.53444">
        <ele>181.15</ele>
        <time>2026-08-06T07:47:50.357Z</time>
      </trkpt>
      <trkpt lat="48.89715" lon="5.53412">
        <ele>180.76</ele>
        <time>2026-08-06T07:47:56.356Z</time>
      </trkpt>
      <trkpt lat="48.8973" lon="5.53381">
        <ele>179.49</ele>
        <time>2026-08-06T07:48:02.356Z</time>
      </trkpt>
      <trkpt lat="48.89746" lon="5.53352">
        <ele>178.77</ele>
        <time>2026-08-06T07:48:08.351Z</time>
      </trkpt>
      <trkpt lat="48.89761" lon="5.53322">
        <ele>178.18</ele>
        <time>2026-08-06T07:48:14.351Z</time>
      </trkpt>
      <trkpt lat="48.89778" lon="5.5329">
        <ele>177.92</ele>
        <time>2026-08-06T07:48:20.346Z</time>
      </trkpt>
      <trkpt lat="48.89796" lon="5.53256">
        <ele>177.36</ele>
        <time>2026-08-06T07:48:26.352Z</time>
      </trkpt>
      <trkpt lat="48.89815" lon="5.53217">
        <ele>177.99</ele>
        <time>2026-08-06T07:48:32.347Z</time>
      </trkpt>
      <trkpt lat="48.89834" lon="5.53179">
        <ele>177.21</ele>
        <time>2026-08-06T07:48:38.363Z</time>
      </trkpt>
      <trkpt lat="48.89853" lon="5.53141">
        <ele>174.93</ele>
        <time>2026-08-06T07:48:44.353Z</time>
      </trkpt>
      <trkpt lat="48.89872" lon="5.53105">
        <ele>173.91</ele>
        <time>2026-08-06T07:48:50.356Z</time>
      </trkpt>
      <trkpt lat="48.8989" lon="5.53071">
        <ele>174.37</ele>
        <time>2026-08-06T07:48:56.355Z</time>
      </trkpt>
      <trkpt lat="48.89907" lon="5.53033">
        <ele>174.95</ele>
        <time>2026-08-06T07:49:02.354Z</time>
      </trkpt>
      <trkpt lat="48.89925" lon="5.52997">
        <ele>174.49</ele>
        <time>2026-08-06T07:49:08.350Z</time>
      </trkpt>
      <trkpt lat="48.89945" lon="5.5296">
        <ele>172.43</ele>
        <time>2026-08-06T07:49:14.353Z</time>
      </trkpt>
      <trkpt lat="48.89963" lon="5.52928">
        <ele>170.07</ele>
        <time>2026-08-06T07:49:20.351Z</time>
      </trkpt>
      <trkpt lat="48.8998" lon="5.5288">
        <ele>171.22</ele>
        <time>2026-08-06T07:49:26.351Z</time>
      </trkpt>
      <trkpt lat="48.89994" lon="5.52829">
        <ele>173.94</ele>
        <time>2026-08-06T07:49:32.354Z</time>
      </trkpt>
      <trkpt lat="48.90012" lon="5.5278">
        <ele>175.74</ele>
        <time>2026-08-06T07:49:38.354Z</time>
      </trkpt>
      <trkpt lat="48.90029" lon="5.52733">
        <ele>175.88</ele>
        <time>2026-08-06T07:49:44.351Z</time>
      </trkpt>
      <trkpt lat="48.90046" lon="5.5269">
        <ele>176</ele>
        <time>2026-08-06T07:49:50.353Z</time>
      </trkpt>
      <trkpt lat="48.90059" lon="5.52653">
        <ele>176.15</ele>
        <time>2026-08-06T07:49:56.364Z</time>
      </trkpt>
      <trkpt lat="48.9007" lon="5.52617">
        <ele>176.7</ele>
        <time>2026-08-06T07:50:02.354Z</time>
      </trkpt>
      <trkpt lat="48.90082" lon="5.52586">
        <ele>175.77</ele>
        <time>2026-08-06T07:50:08.355Z</time>
      </trkpt>
      <trkpt lat="48.90094" lon="5.52552">
        <ele>173.13</ele>
        <time>2026-08-06T07:50:14.352Z</time>
      </trkpt>
      <trkpt lat="48.90105" lon="5.52518">
        <ele>172.99</ele>
        <time>2026-08-06T07:50:20.355Z</time>
      </trkpt>
      <trkpt lat="48.90116" lon="5.52486">
        <ele>173.14</ele>
        <time>2026-08-06T07:50:26.362Z</time>
      </trkpt>
      <trkpt lat="48.90126" lon="5.52458">
        <ele>174.3</ele>
        <time>2026-08-06T07:50:32.354Z</time>
      </trkpt>
      <trkpt lat="48.90136" lon="5.52431">
        <ele>177.4</ele>
        <time>2026-08-06T07:50:38.357Z</time>
      </trkpt>
      <trkpt lat="48.90146" lon="5.52405">
        <ele>178.27</ele>
        <time>2026-08-06T07:50:44.354Z</time>
      </trkpt>
      <trkpt lat="48.90157" lon="5.52377">
        <ele>179.09</ele>
        <time>2026-08-06T07:50:50.352Z</time>
      </trkpt>
      <trkpt lat="48.90167" lon="5.52348">
        <ele>181.91</ele>
        <time>2026-08-06T07:50:56.352Z</time>
      </trkpt>
      <trkpt lat="48.90179" lon="5.52318">
        <ele>181.64</ele>
        <time>2026-08-06T07:51:02.353Z</time>
      </trkpt>
      <trkpt lat="48.90189" lon="5.52289">
        <ele>181.31</ele>
        <time>2026-08-06T07:51:08.356Z</time>
      </trkpt>
      <trkpt lat="48.902" lon="5.52256">
        <ele>181.36</ele>
        <time>2026-08-06T07:51:14.355Z</time>
      </trkpt>
      <trkpt lat="48.90212" lon="5.52225">
        <ele>181.56</ele>
        <time>2026-08-06T07:51:20.355Z</time>
      </trkpt>
      <trkpt lat="48.90226" lon="5.52195">
        <ele>185.29</ele>
        <time>2026-08-06T07:51:26.362Z</time>
      </trkpt>
      <trkpt lat="48.90238" lon="5.5216">
        <ele>184.84</ele>
        <time>2026-08-06T07:51:32.348Z</time>
      </trkpt>
      <trkpt lat="48.90251" lon="5.52123">
        <ele>184.33</ele>
        <time>2026-08-06T07:51:38.348Z</time>
      </trkpt>
      <trkpt lat="48.90265" lon="5.52085">
        <ele>185.17</ele>
        <time>2026-08-06T07:51:44.349Z</time>
      </trkpt>
      <trkpt lat="48.90278" lon="5.52044">
        <ele>184.6</ele>
        <time>2026-08-06T07:51:50.351Z</time>
      </trkpt>
      <trkpt lat="48.90296" lon="5.52003">
        <ele>182.48</ele>
        <time>2026-08-06T07:51:56.358Z</time>
      </trkpt>
      <trkpt lat="48.90325" lon="5.51953">
        <ele>179.98</ele>
        <time>2026-08-06T07:52:02.349Z</time>
      </trkpt>
      <trkpt lat="48.90362" lon="5.51895">
        <ele>175.49</ele>
        <time>2026-08-06T07:52:08.348Z</time>
      </trkpt>
      <trkpt lat="48.90405" lon="5.51834">
        <ele>171.9</ele>
        <time>2026-08-06T07:52:14.350Z</time>
      </trkpt>
      <trkpt lat="48.90443" lon="5.5178">
        <ele>172.31</ele>
        <time>2026-08-06T07:52:20.344Z</time>
      </trkpt>
      <trkpt lat="48.9048" lon="5.51738">
        <ele>172.49</ele>
        <time>2026-08-06T07:52:26.362Z</time>
      </trkpt>
      <trkpt lat="48.90514" lon="5.51701">
        <ele>172.12</ele>
        <time>2026-08-06T07:52:32.347Z</time>
      </trkpt>
      <trkpt lat="48.90546" lon="5.51666">
        <ele>170.68</ele>
        <time>2026-08-06T07:52:38.346Z</time>
      </trkpt>
      <trkpt lat="48.90574" lon="5.51634">
        <ele>171.12</ele>
        <time>2026-08-06T07:52:44.346Z</time>
      </trkpt>
      <trkpt lat="48.90601" lon="5.51604">
        <ele>172.69</ele>
        <time>2026-08-06T07:52:50.347Z</time>
      </trkpt>
      <trkpt lat="48.90628" lon="5.51575">
        <ele>172.01</ele>
        <time>2026-08-06T07:52:56.362Z</time>
      </trkpt>
      <trkpt lat="48.90654" lon="5.51545">
        <ele>172.15</ele>
        <time>2026-08-06T07:53:02.348Z</time>
      </trkpt>
      <trkpt lat="48.9068" lon="5.51516">
        <ele>173.05</ele>
        <time>2026-08-06T07:53:08.351Z</time>
      </trkpt>
      <trkpt lat="48.90703" lon="5.51486">
        <ele>173.15</ele>
        <time>2026-08-06T07:53:14.347Z</time>
      </trkpt>
      <trkpt lat="48.9073" lon="5.5146">
        <ele>172.38</ele>
        <time>2026-08-06T07:53:20.347Z</time>
      </trkpt>
      <trkpt lat="48.90756" lon="5.5143">
        <ele>172.44</ele>
        <time>2026-08-06T07:53:26.339Z</time>
      </trkpt>
      <trkpt lat="48.9078" lon="5.51401">
        <ele>171.87</ele>
        <time>2026-08-06T07:53:32.343Z</time>
      </trkpt>
      <trkpt lat="48.90804" lon="5.51374">
        <ele>173.49</ele>
        <time>2026-08-06T07:53:38.346Z</time>
      </trkpt>
      <trkpt lat="48.90829" lon="5.51346">
        <ele>174.35</ele>
        <time>2026-08-06T07:53:44.349Z</time>
      </trkpt>
      <trkpt lat="48.90854" lon="5.51316">
        <ele>174.92</ele>
        <time>2026-08-06T07:53:50.340Z</time>
      </trkpt>
      <trkpt lat="48.90877" lon="5.51285">
        <ele>177.25</ele>
        <time>2026-08-06T07:53:56.353Z</time>
      </trkpt>
      <trkpt lat="48.90898" lon="5.51252">
        <ele>177.27</ele>
        <time>2026-08-06T07:54:02.343Z</time>
      </trkpt>
      <trkpt lat="48.90917" lon="5.5122">
        <ele>176.2</ele>
        <time>2026-08-06T07:54:08.344Z</time>
      </trkpt>
      <trkpt lat="48.90934" lon="5.5119">
        <ele>175.6</ele>
        <time>2026-08-06T07:54:14.344Z</time>
      </trkpt>
      <trkpt lat="48.90951" lon="5.5116">
        <ele>176.57</ele>
        <time>2026-08-06T07:54:20.346Z</time>
      </trkpt>
      <trkpt lat="48.90967" lon="5.51132">
        <ele>178.11</ele>
        <time>2026-08-06T07:54:26.356Z</time>
      </trkpt>
      <trkpt lat="48.90981" lon="5.51106">
        <ele>177.94</ele>
        <time>2026-08-06T07:54:32.348Z</time>
      </trkpt>
      <trkpt lat="48.90997" lon="5.51079">
        <ele>177.86</ele>
        <time>2026-08-06T07:54:38.349Z</time>
      </trkpt>
      <trkpt lat="48.91013" lon="5.51051">
        <ele>178.11</ele>
        <time>2026-08-06T07:54:44.344Z</time>
      </trkpt>
      <trkpt lat="48.91029" lon="5.51023">
        <ele>177.85</ele>
        <time>2026-08-06T07:54:50.347Z</time>
      </trkpt>
      <trkpt lat="48.91047" lon="5.50994">
        <ele>179.49</ele>
        <time>2026-08-06T07:54:56.356Z</time>
      </trkpt>
      <trkpt lat="48.91067" lon="5.50961">
        <ele>180.61</ele>
        <time>2026-08-06T07:55:02.338Z</time>
      </trkpt>
      <trkpt lat="48.91088" lon="5.50927">
        <ele>179.4</ele>
        <time>2026-08-06T07:55:08.346Z</time>
      </trkpt>
      <trkpt lat="48.91112" lon="5.5089">
        <ele>177.73</ele>
        <time>2026-08-06T07:55:14.345Z</time>
      </trkpt>
      <trkpt lat="48.91136" lon="5.50852">
        <ele>177.02</ele>
        <time>2026-08-06T07:55:20.346Z</time>
      </trkpt>
      <trkpt lat="48.91162" lon="5.50812">
        <ele>176.36</ele>
        <time>2026-08-06T07:55:26.358Z</time>
      </trkpt>
      <trkpt lat="48.91186" lon="5.50773">
        <ele>176.64</ele>
        <time>2026-08-06T07:55:32.342Z</time>
      </trkpt>
      <trkpt lat="48.91209" lon="5.50738">
        <ele>178.1</ele>
        <time>2026-08-06T07:55:38.344Z</time>
      </trkpt>
      <trkpt lat="48.91231" lon="5.50706">
        <ele>178.74</ele>
        <time>2026-08-06T07:55:44.345Z</time>
      </trkpt>
      <trkpt lat="48.91252" lon="5.50674">
        <ele>178.98</ele>
        <time>2026-08-06T07:55:50.346Z</time>
      </trkpt>
      <trkpt lat="48.91272" lon="5.50642">
        <ele>177.98</ele>
        <time>2026-08-06T07:55:56.356Z</time>
      </trkpt>
      <trkpt lat="48.91292" lon="5.50611">
        <ele>177.52</ele>
        <time>2026-08-06T07:56:02.348Z</time>
      </trkpt>
      <trkpt lat="48.91312" lon="5.50578">
        <ele>179</ele>
        <time>2026-08-06T07:56:08.344Z</time>
      </trkpt>
      <trkpt lat="48.91333" lon="5.50546">
        <ele>179.63</ele>
        <time>2026-08-06T07:56:14.343Z</time>
      </trkpt>
      <trkpt lat="48.91355" lon="5.50515">
        <ele>179.47</ele>
        <time>2026-08-06T07:56:20.345Z</time>
      </trkpt>
      <trkpt lat="48.91377" lon="5.50485">
        <ele>179.15</ele>
        <time>2026-08-06T07:56:26.360Z</time>
      </trkpt>
      <trkpt lat="48.91402" lon="5.50458">
        <ele>178.4</ele>
        <time>2026-08-06T07:56:32.352Z</time>
      </trkpt>
      <trkpt lat="48.91429" lon="5.50431">
        <ele>174.23</ele>
        <time>2026-08-06T07:56:38.347Z</time>
      </trkpt>
      <trkpt lat="48.91458" lon="5.50405">
        <ele>175.04</ele>
        <time>2026-08-06T07:56:44.344Z</time>
      </trkpt>
      <trkpt lat="48.91489" lon="5.50376">
        <ele>177.37</ele>
        <time>2026-08-06T07:56:50.346Z</time>
      </trkpt>
      <trkpt lat="48.91519" lon="5.50349">
        <ele>180.68</ele>
        <time>2026-08-06T07:56:56.359Z</time>
      </trkpt>
      <trkpt lat="48.91548" lon="5.50323">
        <ele>183.34</ele>
        <time>2026-08-06T07:57:02.357Z</time>
      </trkpt>
      <trkpt lat="48.91575" lon="5.50298">
        <ele>187.73</ele>
        <time>2026-08-06T07:57:08.344Z</time>
      </trkpt>
      <trkpt lat="48.91597" lon="5.50273">
        <ele>188.3</ele>
        <time>2026-08-06T07:57:14.341Z</time>
      </trkpt>
      <trkpt lat="48.91617" lon="5.50248">
        <ele>189.4</ele>
        <time>2026-08-06T07:57:20.343Z</time>
      </trkpt>
      <trkpt lat="48.91634" lon="5.50224">
        <ele>189.29</ele>
        <time>2026-08-06T07:57:26.357Z</time>
      </trkpt>
      <trkpt lat="48.91654" lon="5.50199">
        <ele>189.36</ele>
        <time>2026-08-06T07:57:32.352Z</time>
      </trkpt>
      <trkpt lat="48.91675" lon="5.50168">
        <ele>187.47</ele>
        <time>2026-08-06T07:57:38.340Z</time>
      </trkpt>
      <trkpt lat="48.91698" lon="5.50131">
        <ele>187.11</ele>
        <time>2026-08-06T07:57:44.346Z</time>
      </trkpt>
      <trkpt lat="48.91724" lon="5.5009">
        <ele>186.12</ele>
        <time>2026-08-06T07:57:50.343Z</time>
      </trkpt>
      <trkpt lat="48.91754" lon="5.50041">
        <ele>182.79</ele>
        <time>2026-08-06T07:57:56.349Z</time>
      </trkpt>
      <trkpt lat="48.91788" lon="5.49978">
        <ele>178.59</ele>
        <time>2026-08-06T07:58:02.351Z</time>
      </trkpt>
      <trkpt lat="48.91823" lon="5.49917">
        <ele>176</ele>
        <time>2026-08-06T07:58:08.346Z</time>
      </trkpt>
      <trkpt lat="48.91853" lon="5.49859">
        <ele>173.08</ele>
        <time>2026-08-06T07:58:14.334Z</time>
      </trkpt>
      <trkpt lat="48.91884" lon="5.49809">
        <ele>173.04</ele>
        <time>2026-08-06T07:58:20.347Z</time>
      </trkpt>
      <trkpt lat="48.91919" lon="5.49771">
        <ele>172.67</ele>
        <time>2026-08-06T07:58:26.350Z</time>
      </trkpt>
      <trkpt lat="48.91953" lon="5.4974">
        <ele>172.01</ele>
        <time>2026-08-06T07:58:32.351Z</time>
      </trkpt>
      <trkpt lat="48.91985" lon="5.4971">
        <ele>172.94</ele>
        <time>2026-08-06T07:58:38.345Z</time>
      </trkpt>
      <trkpt lat="48.92013" lon="5.49683">
        <ele>174.05</ele>
        <time>2026-08-06T07:58:44.347Z</time>
      </trkpt>
      <trkpt lat="48.92039" lon="5.49657">
        <ele>174.49</ele>
        <time>2026-08-06T07:58:50.347Z</time>
      </trkpt>
      <trkpt lat="48.92063" lon="5.49634">
        <ele>174.47</ele>
        <time>2026-08-06T07:58:56.353Z</time>
      </trkpt>
      <trkpt lat="48.92091" lon="5.49609">
        <ele>175.29</ele>
        <time>2026-08-06T07:59:02.353Z</time>
      </trkpt>
      <trkpt lat="48.92118" lon="5.49584">
        <ele>175.29</ele>
        <time>2026-08-06T07:59:08.344Z</time>
      </trkpt>
      <trkpt lat="48.92146" lon="5.4956">
        <ele>174.39</ele>
        <time>2026-08-06T07:59:14.345Z</time>
      </trkpt>
      <trkpt lat="48.92177" lon="5.49531">
        <ele>172.02</ele>
        <time>2026-08-06T07:59:20.347Z</time>
      </trkpt>
      <trkpt lat="48.9221" lon="5.49496">
        <ele>171.79</ele>
        <time>2026-08-06T07:59:26.353Z</time>
      </trkpt>
      <trkpt lat="48.92242" lon="5.4946">
        <ele>170.78</ele>
        <time>2026-08-06T07:59:32.351Z</time>
      </trkpt>
      <trkpt lat="48.92274" lon="5.49426">
        <ele>171.1</ele>
        <time>2026-08-06T07:59:38.292Z</time>
      </trkpt>
      <trkpt lat="48.92305" lon="5.49393">
        <ele>170.47</ele>
        <time>2026-08-06T07:59:44.289Z</time>
      </trkpt>
      <trkpt lat="48.92331" lon="5.49367">
        <ele>170.24</ele>
        <time>2026-08-06T07:59:49.289Z</time>
      </trkpt>
      <trkpt lat="48.9236" lon="5.49335">
        <ele>171.22</ele>
        <time>2026-08-06T07:59:55.287Z</time>
      </trkpt>
      <trkpt lat="48.92384" lon="5.4931">
        <ele>172.24</ele>
        <time>2026-08-06T08:00:00.290Z</time>
      </trkpt>
      <trkpt lat="48.92411" lon="5.4928">
        <ele>173.15</ele>
        <time>2026-08-06T08:00:06.287Z</time>
      </trkpt>
      <trkpt lat="48.92434" lon="5.49255">
        <ele>173.65</ele>
        <time>2026-08-06T08:00:11.293Z</time>
      </trkpt>
      <trkpt lat="48.92459" lon="5.49228">
        <ele>171.66</ele>
        <time>2026-08-06T08:00:16.296Z</time>
      </trkpt>
      <trkpt lat="48.9249" lon="5.49188">
        <ele>170.15</ele>
        <time>2026-08-06T08:00:22.289Z</time>
      </trkpt>
      <trkpt lat="48.92516" lon="5.49155">
        <ele>170.56</ele>
        <time>2026-08-06T08:00:27.290Z</time>
      </trkpt>
      <trkpt lat="48.92542" lon="5.49123">
        <ele>170.55</ele>
        <time>2026-08-06T08:00:32.348Z</time>
      </trkpt>
      <trkpt lat="48.92574" lon="5.49091">
        <ele>170.6</ele>
        <time>2026-08-06T08:00:38.291Z</time>
      </trkpt>
      <trkpt lat="48.926" lon="5.49068">
        <ele>171.26</ele>
        <time>2026-08-06T08:00:43.292Z</time>
      </trkpt>
      <trkpt lat="48.92632" lon="5.49045">
        <ele>171.43</ele>
        <time>2026-08-06T08:00:49.289Z</time>
      </trkpt>
      <trkpt lat="48.9266" lon="5.49027">
        <ele>172.03</ele>
        <time>2026-08-06T08:00:54.290Z</time>
      </trkpt>
      <trkpt lat="48.92687" lon="5.49011">
        <ele>171.67</ele>
        <time>2026-08-06T08:00:59.291Z</time>
      </trkpt>
      <trkpt lat="48.9272" lon="5.48996">
        <ele>171.44</ele>
        <time>2026-08-06T08:01:05.288Z</time>
      </trkpt>
      <trkpt lat="48.92748" lon="5.48987">
        <ele>172.23</ele>
        <time>2026-08-06T08:01:10.292Z</time>
      </trkpt>
      <trkpt lat="48.92781" lon="5.48984">
        <ele>171.84</ele>
        <time>2026-08-06T08:01:16.288Z</time>
      </trkpt>
      <trkpt lat="48.92808" lon="5.48988">
        <ele>173.26</ele>
        <time>2026-08-06T08:01:21.289Z</time>
      </trkpt>
      <trkpt lat="48.92833" lon="5.49">
        <ele>172.99</ele>
        <time>2026-08-06T08:01:26.344Z</time>
      </trkpt>
      <trkpt lat="48.92861" lon="5.4902">
        <ele>172.16</ele>
        <time>2026-08-06T08:01:32.345Z</time>
      </trkpt>
      <trkpt lat="48.92889" lon="5.49038">
        <ele>172.78</ele>
        <time>2026-08-06T08:01:38.296Z</time>
      </trkpt>
      <trkpt lat="48.92917" lon="5.49039">
        <ele>174.02</ele>
        <time>2026-08-06T08:01:44.298Z</time>
      </trkpt>
      <trkpt lat="48.92943" lon="5.4903">
        <ele>176.11</ele>
        <time>2026-08-06T08:01:50.300Z</time>
      </trkpt>
      <trkpt lat="48.92966" lon="5.49028">
        <ele>177.51</ele>
        <time>2026-08-06T08:01:56.337Z</time>
      </trkpt>
      <trkpt lat="48.92993" lon="5.49023">
        <ele>179.63</ele>
        <time>2026-08-06T08:02:02.344Z</time>
      </trkpt>
      <trkpt lat="48.9302" lon="5.49018">
        <ele>181.54</ele>
        <time>2026-08-06T08:02:08.304Z</time>
      </trkpt>
      <trkpt lat="48.93047" lon="5.49012">
        <ele>180.59</ele>
        <time>2026-08-06T08:02:14.303Z</time>
      </trkpt>
      <trkpt lat="48.93072" lon="5.49007">
        <ele>181.1</ele>
        <time>2026-08-06T08:02:20.300Z</time>
      </trkpt>
      <trkpt lat="48.93098" lon="5.49004">
        <ele>180.66</ele>
        <time>2026-08-06T08:02:26.354Z</time>
      </trkpt>
      <trkpt lat="48.93127" lon="5.49">
        <ele>181.1</ele>
        <time>2026-08-06T08:02:32.342Z</time>
      </trkpt>
      <trkpt lat="48.93158" lon="5.49006">
        <ele>179.71</ele>
        <time>2026-08-06T08:02:38.299Z</time>
      </trkpt>
      <trkpt lat="48.93192" lon="5.49023">
        <ele>177.88</ele>
        <time>2026-08-06T08:02:44.304Z</time>
      </trkpt>
      <trkpt lat="48.93225" lon="5.49039">
        <ele>174.96</ele>
        <time>2026-08-06T08:02:50.308Z</time>
      </trkpt>
      <trkpt lat="48.93257" lon="5.49055">
        <ele>173.63</ele>
        <time>2026-08-06T08:02:56.356Z</time>
      </trkpt>
      <trkpt lat="48.93288" lon="5.49071">
        <ele>173.33</ele>
        <time>2026-08-06T08:03:02.342Z</time>
      </trkpt>
      <trkpt lat="48.9332" lon="5.49086">
        <ele>173.76</ele>
        <time>2026-08-06T08:03:08.306Z</time>
      </trkpt>
      <trkpt lat="48.9335" lon="5.49101">
        <ele>174.28</ele>
        <time>2026-08-06T08:03:14.309Z</time>
      </trkpt>
      <trkpt lat="48.9338" lon="5.49116">
        <ele>173.94</ele>
        <time>2026-08-06T08:03:20.306Z</time>
      </trkpt>
      <trkpt lat="48.9341" lon="5.49131">
        <ele>173.32</ele>
        <time>2026-08-06T08:03:26.336Z</time>
      </trkpt>
      <trkpt lat="48.9344" lon="5.49146">
        <ele>174.2</ele>
        <time>2026-08-06T08:03:32.344Z</time>
      </trkpt>
      <trkpt lat="48.93469" lon="5.49161">
        <ele>174.19</ele>
        <time>2026-08-06T08:03:38.307Z</time>
      </trkpt>
      <trkpt lat="48.93499" lon="5.49175">
        <ele>175.83</ele>
        <time>2026-08-06T08:03:44.305Z</time>
      </trkpt>
      <trkpt lat="48.93531" lon="5.49191">
        <ele>175.75</ele>
        <time>2026-08-06T08:03:50.304Z</time>
      </trkpt>
      <trkpt lat="48.93562" lon="5.49207">
        <ele>175.72</ele>
        <time>2026-08-06T08:03:56.356Z</time>
      </trkpt>
      <trkpt lat="48.93593" lon="5.49223">
        <ele>176.19</ele>
        <time>2026-08-06T08:04:02.343Z</time>
      </trkpt>
      <trkpt lat="48.93624" lon="5.49237">
        <ele>175.89</ele>
        <time>2026-08-06T08:04:08.310Z</time>
      </trkpt>
      <trkpt lat="48.93655" lon="5.49255">
        <ele>176.18</ele>
        <time>2026-08-06T08:04:14.307Z</time>
      </trkpt>
      <trkpt lat="48.93687" lon="5.49272">
        <ele>176.25</ele>
        <time>2026-08-06T08:04:20.307Z</time>
      </trkpt>
      <trkpt lat="48.93719" lon="5.49291">
        <ele>175.69</ele>
        <time>2026-08-06T08:04:26.357Z</time>
      </trkpt>
      <trkpt lat="48.9375" lon="5.49312">
        <ele>176.18</ele>
        <time>2026-08-06T08:04:32.340Z</time>
      </trkpt>
      <trkpt lat="48.9378" lon="5.49336">
        <ele>176.76</ele>
        <time>2026-08-06T08:04:38.306Z</time>
      </trkpt>
      <trkpt lat="48.93806" lon="5.49358">
        <ele>173.1</ele>
        <time>2026-08-06T08:04:44.310Z</time>
      </trkpt>
      <trkpt lat="48.9384" lon="5.49384">
        <ele>168.03</ele>
        <time>2026-08-06T08:04:50.304Z</time>
      </trkpt>
      <trkpt lat="48.93865" lon="5.49401">
        <ele>167.4</ele>
        <time>2026-08-06T08:04:56.355Z</time>
      </trkpt>
      <trkpt lat="48.93898" lon="5.49431">
        <ele>165.96</ele>
        <time>2026-08-06T08:05:02.346Z</time>
      </trkpt>
      <trkpt lat="48.93932" lon="5.49461">
        <ele>169.99</ele>
        <time>2026-08-06T08:05:08.313Z</time>
      </trkpt>
      <trkpt lat="48.93966" lon="5.49484">
        <ele>171.37</ele>
        <time>2026-08-06T08:05:14.316Z</time>
      </trkpt>
      <trkpt lat="48.94" lon="5.49504">
        <ele>173.63</ele>
        <time>2026-08-06T08:05:20.314Z</time>
      </trkpt>
      <trkpt lat="48.94033" lon="5.4952">
        <ele>173.91</ele>
        <time>2026-08-06T08:05:26.355Z</time>
      </trkpt>
      <trkpt lat="48.94065" lon="5.49535">
        <ele>173.59</ele>
        <time>2026-08-06T08:05:32.347Z</time>
      </trkpt>
      <trkpt lat="48.94096" lon="5.49549">
        <ele>173.08</ele>
        <time>2026-08-06T08:05:38.316Z</time>
      </trkpt>
      <trkpt lat="48.94126" lon="5.49566">
        <ele>172.3</ele>
        <time>2026-08-06T08:05:44.315Z</time>
      </trkpt>
      <trkpt lat="48.9416" lon="5.49581">
        <ele>173.6</ele>
        <time>2026-08-06T08:05:50.317Z</time>
      </trkpt>
      <trkpt lat="48.94193" lon="5.49597">
        <ele>173.84</ele>
        <time>2026-08-06T08:05:56.339Z</time>
      </trkpt>
      <trkpt lat="48.94225" lon="5.49613">
        <ele>174.13</ele>
        <time>2026-08-06T08:06:02.344Z</time>
      </trkpt>
      <trkpt lat="48.94258" lon="5.49627">
        <ele>174.16</ele>
        <time>2026-08-06T08:06:08.315Z</time>
      </trkpt>
      <trkpt lat="48.94292" lon="5.49642">
        <ele>173.11</ele>
        <time>2026-08-06T08:06:14.316Z</time>
      </trkpt>
      <trkpt lat="48.94324" lon="5.49657">
        <ele>170.56</ele>
        <time>2026-08-06T08:06:20.314Z</time>
      </trkpt>
      <trkpt lat="48.94355" lon="5.49671">
        <ele>168.69</ele>
        <time>2026-08-06T08:06:26.361Z</time>
      </trkpt>
      <trkpt lat="48.94387" lon="5.49685">
        <ele>168.44</ele>
        <time>2026-08-06T08:06:32.345Z</time>
      </trkpt>
      <trkpt lat="48.94417" lon="5.497">
        <ele>170.21</ele>
        <time>2026-08-06T08:06:38.315Z</time>
      </trkpt>
      <trkpt lat="48.94449" lon="5.49715">
        <ele>173.51</ele>
        <time>2026-08-06T08:06:44.313Z</time>
      </trkpt>
      <trkpt lat="48.94477" lon="5.49728">
        <ele>176.22</ele>
        <time>2026-08-06T08:06:50.311Z</time>
      </trkpt>
      <trkpt lat="48.94504" lon="5.4974">
        <ele>177.45</ele>
        <time>2026-08-06T08:06:56.354Z</time>
      </trkpt>
      <trkpt lat="48.94531" lon="5.49752">
        <ele>178.24</ele>
        <time>2026-08-06T08:07:02.345Z</time>
      </trkpt>
      <trkpt lat="48.94558" lon="5.49764">
        <ele>178.2</ele>
        <time>2026-08-06T08:07:08.322Z</time>
      </trkpt>
      <trkpt lat="48.94583" lon="5.49775">
        <ele>176.61</ele>
        <time>2026-08-06T08:07:14.318Z</time>
      </trkpt>
      <trkpt lat="48.9461" lon="5.49783">
        <ele>175.81</ele>
        <time>2026-08-06T08:07:20.319Z</time>
      </trkpt>
      <trkpt lat="48.94637" lon="5.49788">
        <ele>175.34</ele>
        <time>2026-08-06T08:07:26.362Z</time>
      </trkpt>
      <trkpt lat="48.94666" lon="5.49791">
        <ele>174.78</ele>
        <time>2026-08-06T08:07:32.343Z</time>
      </trkpt>
      <trkpt lat="48.94697" lon="5.49795">
        <ele>173.66</ele>
        <time>2026-08-06T08:07:38.324Z</time>
      </trkpt>
      <trkpt lat="48.94727" lon="5.49797">
        <ele>172.85</ele>
        <time>2026-08-06T08:07:44.319Z</time>
      </trkpt>
      <trkpt lat="48.94756" lon="5.498">
        <ele>174.47</ele>
        <time>2026-08-06T08:07:50.321Z</time>
      </trkpt>
      <trkpt lat="48.94783" lon="5.49802">
        <ele>175.41</ele>
        <time>2026-08-06T08:07:56.359Z</time>
      </trkpt>
      <trkpt lat="48.94809" lon="5.49805">
        <ele>176.7</ele>
        <time>2026-08-06T08:08:02.345Z</time>
      </trkpt>
      <trkpt lat="48.94833" lon="5.49807">
        <ele>178.11</ele>
        <time>2026-08-06T08:08:08.324Z</time>
      </trkpt>
      <trkpt lat="48.94857" lon="5.49811">
        <ele>177.57</ele>
        <time>2026-08-06T08:08:14.322Z</time>
      </trkpt>
      <trkpt lat="48.94882" lon="5.49813">
        <ele>177.9</ele>
        <time>2026-08-06T08:08:20.336Z</time>
      </trkpt>
      <trkpt lat="48.94906" lon="5.49816">
        <ele>177.36</ele>
        <time>2026-08-06T08:08:26.359Z</time>
      </trkpt>
      <trkpt lat="48.94931" lon="5.4982">
        <ele>177.14</ele>
        <time>2026-08-06T08:08:32.347Z</time>
      </trkpt>
      <trkpt lat="48.94957" lon="5.49827">
        <ele>178.55</ele>
        <time>2026-08-06T08:08:38.332Z</time>
      </trkpt>
      <trkpt lat="48.94982" lon="5.49834">
        <ele>179.6</ele>
        <time>2026-08-06T08:08:44.338Z</time>
      </trkpt>
      <trkpt lat="48.95008" lon="5.49844">
        <ele>179.41</ele>
        <time>2026-08-06T08:08:50.335Z</time>
      </trkpt>
      <trkpt lat="48.95035" lon="5.49853">
        <ele>178.88</ele>
        <time>2026-08-06T08:08:56.357Z</time>
      </trkpt>
      <trkpt lat="48.95061" lon="5.49863">
        <ele>176.35</ele>
        <time>2026-08-06T08:09:02.353Z</time>
      </trkpt>
      <trkpt lat="48.95087" lon="5.49871">
        <ele>176.86</ele>
        <time>2026-08-06T08:09:08.339Z</time>
      </trkpt>
      <trkpt lat="48.95113" lon="5.49881">
        <ele>177.89</ele>
        <time>2026-08-06T08:09:14.345Z</time>
      </trkpt>
      <trkpt lat="48.9514" lon="5.4989">
        <ele>178.17</ele>
        <time>2026-08-06T08:09:20.341Z</time>
      </trkpt>
      <trkpt lat="48.95167" lon="5.49899">
        <ele>178.46</ele>
        <time>2026-08-06T08:09:26.358Z</time>
      </trkpt>
      <trkpt lat="48.95194" lon="5.49909">
        <ele>177.03</ele>
        <time>2026-08-06T08:09:32.361Z</time>
      </trkpt>
      <trkpt lat="48.95222" lon="5.49919">
        <ele>176.24</ele>
        <time>2026-08-06T08:09:38.341Z</time>
      </trkpt>
      <trkpt lat="48.9525" lon="5.49929">
        <ele>176.61</ele>
        <time>2026-08-06T08:09:44.339Z</time>
      </trkpt>
      <trkpt lat="48.95278" lon="5.49939">
        <ele>175.76</ele>
        <time>2026-08-06T08:09:50.340Z</time>
      </trkpt>
      <trkpt lat="48.95306" lon="5.49948">
        <ele>176</ele>
        <time>2026-08-06T08:09:56.357Z</time>
      </trkpt>
      <trkpt lat="48.95335" lon="5.49955">
        <ele>175.63</ele>
        <time>2026-08-06T08:10:02.352Z</time>
      </trkpt>
      <trkpt lat="48.95364" lon="5.49958">
        <ele>175.34</ele>
        <time>2026-08-06T08:10:08.342Z</time>
      </trkpt>
      <trkpt lat="48.95397" lon="5.49957">
        <ele>173.83</ele>
        <time>2026-08-06T08:10:14.341Z</time>
      </trkpt>
      <trkpt lat="48.95433" lon="5.49954">
        <ele>172.8</ele>
        <time>2026-08-06T08:10:20.340Z</time>
      </trkpt>
      <trkpt lat="48.95469" lon="5.49947">
        <ele>171.54</ele>
        <time>2026-08-06T08:10:26.350Z</time>
      </trkpt>
      <trkpt lat="48.95505" lon="5.49928">
        <ele>170.9</ele>
        <time>2026-08-06T08:10:32.352Z</time>
      </trkpt>
      <trkpt lat="48.95541" lon="5.49905">
        <ele>170.77</ele>
        <time>2026-08-06T08:10:38.344Z</time>
      </trkpt>
      <trkpt lat="48.95576" lon="5.49884">
        <ele>170.8</ele>
        <time>2026-08-06T08:10:44.341Z</time>
      </trkpt>
      <trkpt lat="48.95607" lon="5.49867">
        <ele>172.29</ele>
        <time>2026-08-06T08:10:50.337Z</time>
      </trkpt>
      <trkpt lat="48.95635" lon="5.49853">
        <ele>172.63</ele>
        <time>2026-08-06T08:10:56.351Z</time>
      </trkpt>
      <trkpt lat="48.95661" lon="5.49842">
        <ele>174.28</ele>
        <time>2026-08-06T08:11:02.350Z</time>
      </trkpt>
      <trkpt lat="48.95687" lon="5.49832">
        <ele>174.17</ele>
        <time>2026-08-06T08:11:08.338Z</time>
      </trkpt>
      <trkpt lat="48.95714" lon="5.49822">
        <ele>175.03</ele>
        <time>2026-08-06T08:11:14.339Z</time>
      </trkpt>
      <trkpt lat="48.95742" lon="5.49816">
        <ele>175.58</ele>
        <time>2026-08-06T08:11:20.343Z</time>
      </trkpt>
      <trkpt lat="48.95776" lon="5.49812">
        <ele>173.75</ele>
        <time>2026-08-06T08:11:26.351Z</time>
      </trkpt>
      <trkpt lat="48.95815" lon="5.49812">
        <ele>174.83</ele>
        <time>2026-08-06T08:11:32.354Z</time>
      </trkpt>
      <trkpt lat="48.95854" lon="5.49815">
        <ele>174.55</ele>
        <time>2026-08-06T08:11:38.339Z</time>
      </trkpt>
      <trkpt lat="48.9589" lon="5.49819">
        <ele>174.11</ele>
        <time>2026-08-06T08:11:44.339Z</time>
      </trkpt>
      <trkpt lat="48.95926" lon="5.49824">
        <ele>174.09</ele>
        <time>2026-08-06T08:11:50.339Z</time>
      </trkpt>
      <trkpt lat="48.95961" lon="5.49833">
        <ele>175.43</ele>
        <time>2026-08-06T08:11:56.354Z</time>
      </trkpt>
      <trkpt lat="48.9599" lon="5.49852">
        <ele>174.14</ele>
        <time>2026-08-06T08:12:02.351Z</time>
      </trkpt>
      <trkpt lat="48.96019" lon="5.4987">
        <ele>173.63</ele>
        <time>2026-08-06T08:12:08.340Z</time>
      </trkpt>
      <trkpt lat="48.96049" lon="5.49888">
        <ele>173.52</ele>
        <time>2026-08-06T08:12:14.336Z</time>
      </trkpt>
      <trkpt lat="48.96074" lon="5.49903">
        <ele>174.3</ele>
        <time>2026-08-06T08:12:20.341Z</time>
      </trkpt>
      <trkpt lat="48.96094" lon="5.49917">
        <ele>174.93</ele>
        <time>2026-08-06T08:12:26.353Z</time>
      </trkpt>
      <trkpt lat="48.96118" lon="5.49932">
        <ele>175.23</ele>
        <time>2026-08-06T08:12:32.351Z</time>
      </trkpt>
      <trkpt lat="48.96141" lon="5.49947">
        <ele>176.59</ele>
        <time>2026-08-06T08:12:38.334Z</time>
      </trkpt>
      <trkpt lat="48.96163" lon="5.49961">
        <ele>177.95</ele>
        <time>2026-08-06T08:12:44.338Z</time>
      </trkpt>
      <trkpt lat="48.96186" lon="5.49976">
        <ele>178.19</ele>
        <time>2026-08-06T08:12:50.338Z</time>
      </trkpt>
      <trkpt lat="48.96209" lon="5.49991">
        <ele>177.72</ele>
        <time>2026-08-06T08:12:56.352Z</time>
      </trkpt>
      <trkpt lat="48.96234" lon="5.50008">
        <ele>176.52</ele>
        <time>2026-08-06T08:13:02.346Z</time>
      </trkpt>
      <trkpt lat="48.96261" lon="5.50029">
        <ele>175.23</ele>
        <time>2026-08-06T08:13:08.337Z</time>
      </trkpt>
      <trkpt lat="48.96289" lon="5.50053">
        <ele>173.99</ele>
        <time>2026-08-06T08:13:14.340Z</time>
      </trkpt>
      <trkpt lat="48.96317" lon="5.50078">
        <ele>173.02</ele>
        <time>2026-08-06T08:13:20.340Z</time>
      </trkpt>
      <trkpt lat="48.96344" lon="5.50101">
        <ele>172.68</ele>
        <time>2026-08-06T08:13:26.350Z</time>
      </trkpt>
      <trkpt lat="48.96374" lon="5.50122">
        <ele>171.75</ele>
        <time>2026-08-06T08:13:32.353Z</time>
      </trkpt>
      <trkpt lat="48.96406" lon="5.50139">
        <ele>171.03</ele>
        <time>2026-08-06T08:13:38.336Z</time>
      </trkpt>
      <trkpt lat="48.96442" lon="5.50153">
        <ele>170.25</ele>
        <time>2026-08-06T08:13:44.337Z</time>
      </trkpt>
      <trkpt lat="48.9648" lon="5.50161">
        <ele>170.54</ele>
        <time>2026-08-06T08:13:50.334Z</time>
      </trkpt>
      <trkpt lat="48.96514" lon="5.50163">
        <ele>169.3</ele>
        <time>2026-08-06T08:13:56.349Z</time>
      </trkpt>
      <trkpt lat="48.96551" lon="5.50161">
        <ele>169.73</ele>
        <time>2026-08-06T08:14:02.350Z</time>
      </trkpt>
      <trkpt lat="48.96585" lon="5.50153">
        <ele>168.02</ele>
        <time>2026-08-06T08:14:08.346Z</time>
      </trkpt>
      <trkpt lat="48.96616" lon="5.50142">
        <ele>165.86</ele>
        <time>2026-08-06T08:14:14.336Z</time>
      </trkpt>
      <trkpt lat="48.96646" lon="5.5013">
        <ele>166.78</ele>
        <time>2026-08-06T08:14:20.336Z</time>
      </trkpt>
      <trkpt lat="48.96673" lon="5.5012">
        <ele>167.46</ele>
        <time>2026-08-06T08:14:26.349Z</time>
      </trkpt>
      <trkpt lat="48.967" lon="5.50108">
        <ele>167.01</ele>
        <time>2026-08-06T08:14:32.347Z</time>
      </trkpt>
      <trkpt lat="48.96728" lon="5.50098">
        <ele>166.56</ele>
        <time>2026-08-06T08:14:38.336Z</time>
      </trkpt>
      <trkpt lat="48.96756" lon="5.50087">
        <ele>166.65</ele>
        <time>2026-08-06T08:14:44.339Z</time>
      </trkpt>
      <trkpt lat="48.96787" lon="5.50076">
        <ele>166.63</ele>
        <time>2026-08-06T08:14:50.339Z</time>
      </trkpt>
      <trkpt lat="48.96816" lon="5.50063">
        <ele>166.07</ele>
        <time>2026-08-06T08:14:56.356Z</time>
      </trkpt>
      <trkpt lat="48.96845" lon="5.50044">
        <ele>166.8</ele>
        <time>2026-08-06T08:15:02.347Z</time>
      </trkpt>
      <trkpt lat="48.96875" lon="5.50022">
        <ele>166.79</ele>
        <time>2026-08-06T08:15:08.340Z</time>
      </trkpt>
      <trkpt lat="48.96899" lon="5.49998">
        <ele>168.56</ele>
        <time>2026-08-06T08:15:14.344Z</time>
      </trkpt>
      <trkpt lat="48.96922" lon="5.49971">
        <ele>169.41</ele>
        <time>2026-08-06T08:15:20.342Z</time>
      </trkpt>
      <trkpt lat="48.96945" lon="5.49937">
        <ele>168.05</ele>
        <time>2026-08-06T08:15:26.355Z</time>
      </trkpt>
      <trkpt lat="48.96964" lon="5.49898">
        <ele>168.35</ele>
        <time>2026-08-06T08:15:32.351Z</time>
      </trkpt>
      <trkpt lat="48.9698" lon="5.49858">
        <ele>169.42</ele>
        <time>2026-08-06T08:15:38.342Z</time>
      </trkpt>
      <trkpt lat="48.96996" lon="5.49818">
        <ele>169.49</ele>
        <time>2026-08-06T08:15:44.341Z</time>
      </trkpt>
      <trkpt lat="48.97012" lon="5.49777">
        <ele>169.26</ele>
        <time>2026-08-06T08:15:50.337Z</time>
      </trkpt>
      <trkpt lat="48.97028" lon="5.49737">
        <ele>170.18</ele>
        <time>2026-08-06T08:15:56.333Z</time>
      </trkpt>
      <trkpt lat="48.97043" lon="5.49697">
        <ele>171.05</ele>
        <time>2026-08-06T08:16:02.347Z</time>
      </trkpt>
      <trkpt lat="48.9706" lon="5.49656">
        <ele>170.88</ele>
        <time>2026-08-06T08:16:08.333Z</time>
      </trkpt>
      <trkpt lat="48.97076" lon="5.49614">
        <ele>170.57</ele>
        <time>2026-08-06T08:16:14.323Z</time>
      </trkpt>
      <trkpt lat="48.97092" lon="5.4957">
        <ele>170.87</ele>
        <time>2026-08-06T08:16:20.335Z</time>
      </trkpt>
      <trkpt lat="48.97108" lon="5.49528">
        <ele>170.06</ele>
        <time>2026-08-06T08:16:26.356Z</time>
      </trkpt>
      <trkpt lat="48.97124" lon="5.49485">
        <ele>169.76</ele>
        <time>2026-08-06T08:16:32.345Z</time>
      </trkpt>
      <trkpt lat="48.97139" lon="5.49445">
        <ele>169.64</ele>
        <time>2026-08-06T08:16:38.338Z</time>
      </trkpt>
      <trkpt lat="48.97155" lon="5.49406">
        <ele>171.11</ele>
        <time>2026-08-06T08:16:44.336Z</time>
      </trkpt>
      <trkpt lat="48.97169" lon="5.49367">
        <ele>172.42</ele>
        <time>2026-08-06T08:16:50.343Z</time>
      </trkpt>
      <trkpt lat="48.97185" lon="5.49327">
        <ele>172.01</ele>
        <time>2026-08-06T08:16:56.356Z</time>
      </trkpt>
      <trkpt lat="48.972" lon="5.49287">
        <ele>171.24</ele>
        <time>2026-08-06T08:17:02.350Z</time>
      </trkpt>
      <trkpt lat="48.97215" lon="5.49244">
        <ele>170.99</ele>
        <time>2026-08-06T08:17:08.353Z</time>
      </trkpt>
      <trkpt lat="48.9723" lon="5.49199">
        <ele>171.57</ele>
        <time>2026-08-06T08:17:14.345Z</time>
      </trkpt>
      <trkpt lat="48.97245" lon="5.49152">
        <ele>171.73</ele>
        <time>2026-08-06T08:17:20.347Z</time>
      </trkpt>
      <trkpt lat="48.97257" lon="5.49106">
        <ele>169.55</ele>
        <time>2026-08-06T08:17:26.355Z</time>
      </trkpt>
      <trkpt lat="48.9727" lon="5.49055">
        <ele>169</ele>
        <time>2026-08-06T08:17:32.351Z</time>
      </trkpt>
      <trkpt lat="48.9728" lon="5.49007">
        <ele>168.43</ele>
        <time>2026-08-06T08:17:38.353Z</time>
      </trkpt>
      <trkpt lat="48.97288" lon="5.4896">
        <ele>167.67</ele>
        <time>2026-08-06T08:17:44.349Z</time>
      </trkpt>
      <trkpt lat="48.97297" lon="5.4891">
        <ele>167.08</ele>
        <time>2026-08-06T08:17:50.348Z</time>
      </trkpt>
      <trkpt lat="48.97304" lon="5.48858">
        <ele>166.05</ele>
        <time>2026-08-06T08:17:56.355Z</time>
      </trkpt>
      <trkpt lat="48.97313" lon="5.48806">
        <ele>164.74</ele>
        <time>2026-08-06T08:18:02.357Z</time>
      </trkpt>
      <trkpt lat="48.9732" lon="5.48751">
        <ele>166.48</ele>
        <time>2026-08-06T08:18:08.356Z</time>
      </trkpt>
      <trkpt lat="48.97328" lon="5.48697">
        <ele>166.48</ele>
        <time>2026-08-06T08:18:14.358Z</time>
      </trkpt>
      <trkpt lat="48.97335" lon="5.4865">
        <ele>163.05</ele>
        <time>2026-08-06T08:18:20.354Z</time>
      </trkpt>
      <trkpt lat="48.97343" lon="5.48605">
        <ele>162.3</ele>
        <time>2026-08-06T08:18:26.336Z</time>
      </trkpt>
      <trkpt lat="48.97347" lon="5.48559">
        <ele>160.66</ele>
        <time>2026-08-06T08:18:32.357Z</time>
      </trkpt>
      <trkpt lat="48.97354" lon="5.48507">
        <ele>162.46</ele>
        <time>2026-08-06T08:18:38.356Z</time>
      </trkpt>
      <trkpt lat="48.9736" lon="5.48459">
        <ele>163.08</ele>
        <time>2026-08-06T08:18:44.354Z</time>
      </trkpt>
      <trkpt lat="48.97366" lon="5.48413">
        <ele>161.55</ele>
        <time>2026-08-06T08:18:50.357Z</time>
      </trkpt>
      <trkpt lat="48.97372" lon="5.48366">
        <ele>160.46</ele>
        <time>2026-08-06T08:18:56.351Z</time>
      </trkpt>
      <trkpt lat="48.97378" lon="5.48316">
        <ele>160.77</ele>
        <time>2026-08-06T08:19:02.358Z</time>
      </trkpt>
      <trkpt lat="48.97387" lon="5.48265">
        <ele>162.26</ele>
        <time>2026-08-06T08:19:08.351Z</time>
      </trkpt>
      <trkpt lat="48.97395" lon="5.48217">
        <ele>162.78</ele>
        <time>2026-08-06T08:19:14.352Z</time>
      </trkpt>
      <trkpt lat="48.97404" lon="5.48168">
        <ele>163.64</ele>
        <time>2026-08-06T08:19:20.352Z</time>
      </trkpt>
      <trkpt lat="48.97415" lon="5.4812">
        <ele>163.75</ele>
        <time>2026-08-06T08:19:26.352Z</time>
      </trkpt>
      <trkpt lat="48.97424" lon="5.48072">
        <ele>164.2</ele>
        <time>2026-08-06T08:19:32.354Z</time>
      </trkpt>
      <trkpt lat="48.97433" lon="5.48022">
        <ele>164.58</ele>
        <time>2026-08-06T08:19:38.352Z</time>
      </trkpt>
      <trkpt lat="48.97442" lon="5.47974">
        <ele>164.47</ele>
        <time>2026-08-06T08:19:44.353Z</time>
      </trkpt>
      <trkpt lat="48.97451" lon="5.47925">
        <ele>165.29</ele>
        <time>2026-08-06T08:19:50.353Z</time>
      </trkpt>
      <trkpt lat="48.9746" lon="5.47879">
        <ele>164.99</ele>
        <time>2026-08-06T08:19:56.353Z</time>
      </trkpt>
      <trkpt lat="48.97469" lon="5.47846">
        <ele>165.61</ele>
        <time>2026-08-06T08:20:02.355Z</time>
      </trkpt>
      <trkpt lat="48.97471" lon="5.47827">
        <ele>164.82</ele>
        <time>2026-08-06T08:20:50.351Z</time>
      </trkpt>
      <trkpt lat="48.97479" lon="5.47788">
        <ele>163.58</ele>
        <time>2026-08-06T08:20:56.355Z</time>
      </trkpt>
      <trkpt lat="48.9749" lon="5.47743">
        <ele>164.11</ele>
        <time>2026-08-06T08:21:02.352Z</time>
      </trkpt>
      <trkpt lat="48.97499" lon="5.47696">
        <ele>164.06</ele>
        <time>2026-08-06T08:21:08.354Z</time>
      </trkpt>
      <trkpt lat="48.97509" lon="5.47646">
        <ele>163.51</ele>
        <time>2026-08-06T08:21:14.354Z</time>
      </trkpt>
      <trkpt lat="48.97519" lon="5.47595">
        <ele>164.34</ele>
        <time>2026-08-06T08:21:20.352Z</time>
      </trkpt>
      <trkpt lat="48.97529" lon="5.47545">
        <ele>164.61</ele>
        <time>2026-08-06T08:21:26.353Z</time>
      </trkpt>
      <trkpt lat="48.97539" lon="5.47493">
        <ele>164.85</ele>
        <time>2026-08-06T08:21:32.355Z</time>
      </trkpt>
      <trkpt lat="48.9755" lon="5.47439">
        <ele>165.43</ele>
        <time>2026-08-06T08:21:38.350Z</time>
      </trkpt>
      <trkpt lat="48.97561" lon="5.47384">
        <ele>166.16</ele>
        <time>2026-08-06T08:21:44.348Z</time>
      </trkpt>
      <trkpt lat="48.97572" lon="5.47331">
        <ele>165.53</ele>
        <time>2026-08-06T08:21:50.347Z</time>
      </trkpt>
      <trkpt lat="48.97583" lon="5.47278">
        <ele>165.53</ele>
        <time>2026-08-06T08:21:56.355Z</time>
      </trkpt>
      <trkpt lat="48.97593" lon="5.47224">
        <ele>165.71</ele>
        <time>2026-08-06T08:22:02.356Z</time>
      </trkpt>
      <trkpt lat="48.97603" lon="5.47172">
        <ele>165.08</ele>
        <time>2026-08-06T08:22:08.347Z</time>
      </trkpt>
      <trkpt lat="48.97613" lon="5.4712">
        <ele>165.27</ele>
        <time>2026-08-06T08:22:14.350Z</time>
      </trkpt>
      <trkpt lat="48.97623" lon="5.47065">
        <ele>165.96</ele>
        <time>2026-08-06T08:22:20.352Z</time>
      </trkpt>
      <trkpt lat="48.97633" lon="5.47011">
        <ele>163.91</ele>
        <time>2026-08-06T08:22:26.353Z</time>
      </trkpt>
      <trkpt lat="48.97644" lon="5.46958">
        <ele>163.18</ele>
        <time>2026-08-06T08:22:32.347Z</time>
      </trkpt>
      <trkpt lat="48.97661" lon="5.46907">
        <ele>163.1</ele>
        <time>2026-08-06T08:22:38.345Z</time>
      </trkpt>
      <trkpt lat="48.97687" lon="5.46866">
        <ele>163.82</ele>
        <time>2026-08-06T08:22:44.346Z</time>
      </trkpt>
      <trkpt lat="48.97715" lon="5.46827">
        <ele>165.3</ele>
        <time>2026-08-06T08:22:50.346Z</time>
      </trkpt>
      <trkpt lat="48.9774" lon="5.46792">
        <ele>167.28</ele>
        <time>2026-08-06T08:22:56.351Z</time>
      </trkpt>
      <trkpt lat="48.97767" lon="5.46756">
        <ele>167.7</ele>
        <time>2026-08-06T08:23:02.351Z</time>
      </trkpt>
      <trkpt lat="48.97796" lon="5.46719">
        <ele>167.02</ele>
        <time>2026-08-06T08:23:08.354Z</time>
      </trkpt>
      <trkpt lat="48.97825" lon="5.4668">
        <ele>166.58</ele>
        <time>2026-08-06T08:23:14.376Z</time>
      </trkpt>
      <trkpt lat="48.97854" lon="5.46643">
        <ele>165.82</ele>
        <time>2026-08-06T08:23:20.351Z</time>
      </trkpt>
      <trkpt lat="48.97882" lon="5.46605">
        <ele>167</ele>
        <time>2026-08-06T08:23:26.354Z</time>
      </trkpt>
      <trkpt lat="48.97909" lon="5.46572">
        <ele>166.05</ele>
        <time>2026-08-06T08:23:32.351Z</time>
      </trkpt>
      <trkpt lat="48.97934" lon="5.46539">
        <ele>165.48</ele>
        <time>2026-08-06T08:23:38.350Z</time>
      </trkpt>
      <trkpt lat="48.97956" lon="5.46511">
        <ele>164.93</ele>
        <time>2026-08-06T08:23:44.351Z</time>
      </trkpt>
      <trkpt lat="48.97976" lon="5.46484">
        <ele>165.07</ele>
        <time>2026-08-06T08:23:50.348Z</time>
      </trkpt>
      <trkpt lat="48.97995" lon="5.46457">
        <ele>166.25</ele>
        <time>2026-08-06T08:23:56.361Z</time>
      </trkpt>
      <trkpt lat="48.98014" lon="5.46427">
        <ele>167.39</ele>
        <time>2026-08-06T08:24:02.354Z</time>
      </trkpt>
      <trkpt lat="48.98039" lon="5.46394">
        <ele>167.93</ele>
        <time>2026-08-06T08:24:08.352Z</time>
      </trkpt>
      <trkpt lat="48.98065" lon="5.46361">
        <ele>166.58</ele>
        <time>2026-08-06T08:24:14.355Z</time>
      </trkpt>
      <trkpt lat="48.9809" lon="5.46324">
        <ele>166.24</ele>
        <time>2026-08-06T08:24:20.354Z</time>
      </trkpt>
      <trkpt lat="48.98116" lon="5.46291">
        <ele>165.85</ele>
        <time>2026-08-06T08:24:26.353Z</time>
      </trkpt>
      <trkpt lat="48.98141" lon="5.46256">
        <ele>165.55</ele>
        <time>2026-08-06T08:24:32.354Z</time>
      </trkpt>
      <trkpt lat="48.98165" lon="5.46221">
        <ele>165.54</ele>
        <time>2026-08-06T08:24:38.356Z</time>
      </trkpt>
      <trkpt lat="48.98188" lon="5.46189">
        <ele>164.76</ele>
        <time>2026-08-06T08:24:44.346Z</time>
      </trkpt>
      <trkpt lat="48.9821" lon="5.46155">
        <ele>161.44</ele>
        <time>2026-08-06T08:24:50.354Z</time>
      </trkpt>
      <trkpt lat="48.98235" lon="5.46121">
        <ele>162.19</ele>
        <time>2026-08-06T08:24:56.354Z</time>
      </trkpt>
      <trkpt lat="48.98263" lon="5.46086">
        <ele>164.71</ele>
        <time>2026-08-06T08:25:02.350Z</time>
      </trkpt>
      <trkpt lat="48.98289" lon="5.46051">
        <ele>165.89</ele>
        <time>2026-08-06T08:25:08.350Z</time>
      </trkpt>
      <trkpt lat="48.98314" lon="5.46018">
        <ele>165.66</ele>
        <time>2026-08-06T08:25:14.348Z</time>
      </trkpt>
      <trkpt lat="48.98338" lon="5.45984">
        <ele>165.43</ele>
        <time>2026-08-06T08:25:20.351Z</time>
      </trkpt>
      <trkpt lat="48.98362" lon="5.4595">
        <ele>164.38</ele>
        <time>2026-08-06T08:25:26.350Z</time>
      </trkpt>
      <trkpt lat="48.98386" lon="5.45917">
        <ele>164.74</ele>
        <time>2026-08-06T08:25:32.350Z</time>
      </trkpt>
      <trkpt lat="48.9841" lon="5.45884">
        <ele>164.91</ele>
        <time>2026-08-06T08:25:38.351Z</time>
      </trkpt>
      <trkpt lat="48.98433" lon="5.45851">
        <ele>165.25</ele>
        <time>2026-08-06T08:25:44.352Z</time>
      </trkpt>
      <trkpt lat="48.98457" lon="5.45818">
        <ele>165.52</ele>
        <time>2026-08-06T08:25:50.348Z</time>
      </trkpt>
      <trkpt lat="48.98481" lon="5.45787">
        <ele>165.61</ele>
        <time>2026-08-06T08:25:56.350Z</time>
      </trkpt>
      <trkpt lat="48.98504" lon="5.4576">
        <ele>166.05</ele>
        <time>2026-08-06T08:26:02.352Z</time>
      </trkpt>
      <trkpt lat="48.98527" lon="5.45733">
        <ele>165.76</ele>
        <time>2026-08-06T08:26:08.349Z</time>
      </trkpt>
      <trkpt lat="48.98552" lon="5.45706">
        <ele>166.27</ele>
        <time>2026-08-06T08:26:14.350Z</time>
      </trkpt>
      <trkpt lat="48.98577" lon="5.4568">
        <ele>166.64</ele>
        <time>2026-08-06T08:26:20.348Z</time>
      </trkpt>
      <trkpt lat="48.98603" lon="5.45656">
        <ele>166.86</ele>
        <time>2026-08-06T08:26:26.350Z</time>
      </trkpt>
      <trkpt lat="48.98629" lon="5.45632">
        <ele>166.56</ele>
        <time>2026-08-06T08:26:32.352Z</time>
      </trkpt>
      <trkpt lat="48.98656" lon="5.45608">
        <ele>165.73</ele>
        <time>2026-08-06T08:26:38.349Z</time>
      </trkpt>
      <trkpt lat="48.9868" lon="5.45589">
        <ele>164.4</ele>
        <time>2026-08-06T08:26:44.348Z</time>
      </trkpt>
      <trkpt lat="48.9869" lon="5.45585">
        <ele>165.5</ele>
        <time>2026-08-06T08:28:13.327Z</time>
      </trkpt>
      <trkpt lat="48.98706" lon="5.45572">
        <ele>165.31</ele>
        <time>2026-08-06T08:28:19.293Z</time>
      </trkpt>
      <trkpt lat="48.98726" lon="5.45559">
        <ele>164.42</ele>
        <time>2026-08-06T08:28:24.296Z</time>
      </trkpt>
      <trkpt lat="48.98752" lon="5.45541">
        <ele>164</ele>
        <time>2026-08-06T08:28:30.290Z</time>
      </trkpt>
      <trkpt lat="48.98777" lon="5.45526">
        <ele>164.11</ele>
        <time>2026-08-06T08:28:35.295Z</time>
      </trkpt>
      <trkpt lat="48.98805" lon="5.45508">
        <ele>164.59</ele>
        <time>2026-08-06T08:28:41.293Z</time>
      </trkpt>
      <trkpt lat="48.98826" lon="5.45495">
        <ele>163.94</ele>
        <time>2026-08-06T08:28:46.294Z</time>
      </trkpt>
      <trkpt lat="48.98845" lon="5.45482">
        <ele>163.39</ele>
        <time>2026-08-06T08:28:51.296Z</time>
      </trkpt>
      <trkpt lat="48.98864" lon="5.45467">
        <ele>164.14</ele>
        <time>2026-08-06T08:28:56.359Z</time>
      </trkpt>
      <trkpt lat="48.98887" lon="5.45449">
        <ele>164.82</ele>
        <time>2026-08-06T08:29:02.358Z</time>
      </trkpt>
      <trkpt lat="48.98909" lon="5.4543">
        <ele>165.44</ele>
        <time>2026-08-06T08:29:08.339Z</time>
      </trkpt>
      <trkpt lat="48.98932" lon="5.4541">
        <ele>165.49</ele>
        <time>2026-08-06T08:29:14.354Z</time>
      </trkpt>
      <trkpt lat="48.98952" lon="5.45391">
        <ele>166.12</ele>
        <time>2026-08-06T08:29:20.350Z</time>
      </trkpt>
      <trkpt lat="48.9897" lon="5.45373">
        <ele>166.43</ele>
        <time>2026-08-06T08:29:26.357Z</time>
      </trkpt>
      <trkpt lat="48.98988" lon="5.45355">
        <ele>167.16</ele>
        <time>2026-08-06T08:29:32.361Z</time>
      </trkpt>
      <trkpt lat="48.99004" lon="5.4534">
        <ele>167.29</ele>
        <time>2026-08-06T08:29:38.347Z</time>
      </trkpt>
      <trkpt lat="48.99018" lon="5.45326">
        <ele>167.32</ele>
        <time>2026-08-06T08:29:44.349Z</time>
      </trkpt>
      <trkpt lat="48.99031" lon="5.45313">
        <ele>168.37</ele>
        <time>2026-08-06T08:29:50.351Z</time>
      </trkpt>
      <trkpt lat="48.99044" lon="5.45301">
        <ele>169.77</ele>
        <time>2026-08-06T08:29:56.359Z</time>
      </trkpt>
      <trkpt lat="48.99057" lon="5.4529">
        <ele>169.74</ele>
        <time>2026-08-06T08:30:02.355Z</time>
      </trkpt>
      <trkpt lat="48.9907" lon="5.45279">
        <ele>170.33</ele>
        <time>2026-08-06T08:30:08.350Z</time>
      </trkpt>
      <trkpt lat="48.99082" lon="5.45263">
        <ele>171.13</ele>
        <time>2026-08-06T08:30:14.347Z</time>
      </trkpt>
      <trkpt lat="48.99095" lon="5.45251">
        <ele>172.8</ele>
        <time>2026-08-06T08:30:20.350Z</time>
      </trkpt>
      <trkpt lat="48.9911" lon="5.45238">
        <ele>172.27</ele>
        <time>2026-08-06T08:30:26.359Z</time>
      </trkpt>
      <trkpt lat="48.99125" lon="5.45226">
        <ele>172.42</ele>
        <time>2026-08-06T08:30:32.356Z</time>
      </trkpt>
      <trkpt lat="48.99143" lon="5.45211">
        <ele>173.13</ele>
        <time>2026-08-06T08:30:38.350Z</time>
      </trkpt>
      <trkpt lat="48.9916" lon="5.45194">
        <ele>173.56</ele>
        <time>2026-08-06T08:30:44.347Z</time>
      </trkpt>
      <trkpt lat="48.99181" lon="5.45176">
        <ele>173.49</ele>
        <time>2026-08-06T08:30:50.348Z</time>
      </trkpt>
      <trkpt lat="48.99204" lon="5.45158">
        <ele>172.67</ele>
        <time>2026-08-06T08:30:56.331Z</time>
      </trkpt>
      <trkpt lat="48.99232" lon="5.45135">
        <ele>172.27</ele>
        <time>2026-08-06T08:31:02.360Z</time>
      </trkpt>
      <trkpt lat="48.99262" lon="5.45112">
        <ele>171.92</ele>
        <time>2026-08-06T08:31:08.350Z</time>
      </trkpt>
      <trkpt lat="48.99295" lon="5.45086">
        <ele>170.86</ele>
        <time>2026-08-06T08:31:14.348Z</time>
      </trkpt>
      <trkpt lat="48.99332" lon="5.45055">
        <ele>170.13</ele>
        <time>2026-08-06T08:31:20.354Z</time>
      </trkpt>
      <trkpt lat="48.9937" lon="5.45025">
        <ele>169.52</ele>
        <time>2026-08-06T08:31:26.361Z</time>
      </trkpt>
      <trkpt lat="48.99406" lon="5.44995">
        <ele>168.76</ele>
        <time>2026-08-06T08:31:32.358Z</time>
      </trkpt>
      <trkpt lat="48.99442" lon="5.44966">
        <ele>168.13</ele>
        <time>2026-08-06T08:31:38.348Z</time>
      </trkpt>
      <trkpt lat="48.99475" lon="5.44939">
        <ele>168.39</ele>
        <time>2026-08-06T08:31:44.354Z</time>
      </trkpt>
      <trkpt lat="48.99506" lon="5.44915">
        <ele>167.38</ele>
        <time>2026-08-06T08:31:50.354Z</time>
      </trkpt>
      <trkpt lat="48.99534" lon="5.44892">
        <ele>168.61</ele>
        <time>2026-08-06T08:31:56.361Z</time>
      </trkpt>
      <trkpt lat="48.99561" lon="5.44871">
        <ele>168.88</ele>
        <time>2026-08-06T08:32:02.357Z</time>
      </trkpt>
      <trkpt lat="48.99586" lon="5.44851">
        <ele>169.48</ele>
        <time>2026-08-06T08:32:08.352Z</time>
      </trkpt>
      <trkpt lat="48.99609" lon="5.44833">
        <ele>169.4</ele>
        <time>2026-08-06T08:32:14.353Z</time>
      </trkpt>
      <trkpt lat="48.99631" lon="5.44815">
        <ele>169.41</ele>
        <time>2026-08-06T08:32:20.352Z</time>
      </trkpt>
      <trkpt lat="48.99652" lon="5.44797">
        <ele>170.15</ele>
        <time>2026-08-06T08:32:26.359Z</time>
      </trkpt>
      <trkpt lat="48.99676" lon="5.44779">
        <ele>171.32</ele>
        <time>2026-08-06T08:32:32.355Z</time>
      </trkpt>
      <trkpt lat="48.99698" lon="5.44761">
        <ele>171.63</ele>
        <time>2026-08-06T08:32:38.351Z</time>
      </trkpt>
      <trkpt lat="48.99718" lon="5.44743">
        <ele>172.81</ele>
        <time>2026-08-06T08:32:44.352Z</time>
      </trkpt>
      <trkpt lat="48.99739" lon="5.44723">
        <ele>172.52</ele>
        <time>2026-08-06T08:32:50.356Z</time>
      </trkpt>
      <trkpt lat="48.99761" lon="5.44693">
        <ele>171.61</ele>
        <time>2026-08-06T08:32:56.357Z</time>
      </trkpt>
      <trkpt lat="48.99785" lon="5.44661">
        <ele>171.1</ele>
        <time>2026-08-06T08:33:02.357Z</time>
      </trkpt>
      <trkpt lat="48.99811" lon="5.44624">
        <ele>170.45</ele>
        <time>2026-08-06T08:33:08.355Z</time>
      </trkpt>
      <trkpt lat="48.99839" lon="5.44586">
        <ele>169.34</ele>
        <time>2026-08-06T08:33:14.354Z</time>
      </trkpt>
      <trkpt lat="48.99867" lon="5.44547">
        <ele>168.8</ele>
        <time>2026-08-06T08:33:20.350Z</time>
      </trkpt>
      <trkpt lat="48.99896" lon="5.44507">
        <ele>167.86</ele>
        <time>2026-08-06T08:33:26.356Z</time>
      </trkpt>
      <trkpt lat="48.99926" lon="5.44466">
        <ele>166.56</ele>
        <time>2026-08-06T08:33:32.358Z</time>
      </trkpt>
      <trkpt lat="48.99957" lon="5.44423">
        <ele>165.55</ele>
        <time>2026-08-06T08:33:38.352Z</time>
      </trkpt>
      <trkpt lat="48.99988" lon="5.4438">
        <ele>164.82</ele>
        <time>2026-08-06T08:33:44.351Z</time>
      </trkpt>
      <trkpt lat="49.00018" lon="5.44339">
        <ele>164.41</ele>
        <time>2026-08-06T08:33:50.357Z</time>
      </trkpt>
      <trkpt lat="49.00045" lon="5.44302">
        <ele>164.36</ele>
        <time>2026-08-06T08:33:56.357Z</time>
      </trkpt>
      <trkpt lat="49.0007" lon="5.44268">
        <ele>164.53</ele>
        <time>2026-08-06T08:34:02.357Z</time>
      </trkpt>
      <trkpt lat="49.00093" lon="5.44237">
        <ele>166.06</ele>
        <time>2026-08-06T08:34:08.356Z</time>
      </trkpt>
      <trkpt lat="49.00116" lon="5.44208">
        <ele>166.15</ele>
        <time>2026-08-06T08:34:14.357Z</time>
      </trkpt>
      <trkpt lat="49.00137" lon="5.4418">
        <ele>165.67</ele>
        <time>2026-08-06T08:34:20.357Z</time>
      </trkpt>
      <trkpt lat="49.00158" lon="5.4415">
        <ele>165.6</ele>
        <time>2026-08-06T08:34:26.360Z</time>
      </trkpt>
      <trkpt lat="49.00181" lon="5.44122">
        <ele>165.57</ele>
        <time>2026-08-06T08:34:32.354Z</time>
      </trkpt>
      <trkpt lat="49.00206" lon="5.44098">
        <ele>164.87</ele>
        <time>2026-08-06T08:34:38.355Z</time>
      </trkpt>
      <trkpt lat="49.0023" lon="5.44076">
        <ele>164.37</ele>
        <time>2026-08-06T08:34:44.360Z</time>
      </trkpt>
      <trkpt lat="49.00256" lon="5.44053">
        <ele>165.13</ele>
        <time>2026-08-06T08:34:50.354Z</time>
      </trkpt>
      <trkpt lat="49.00279" lon="5.44029">
        <ele>166.05</ele>
        <time>2026-08-06T08:34:56.355Z</time>
      </trkpt>
      <trkpt lat="49.00297" lon="5.44007">
        <ele>166.56</ele>
        <time>2026-08-06T08:35:02.353Z</time>
      </trkpt>
      <trkpt lat="49.00313" lon="5.44003">
        <ele>167.3</ele>
        <time>2026-08-06T08:35:08.351Z</time>
      </trkpt>
      <trkpt lat="49.00328" lon="5.43966">
        <ele>167.49</ele>
        <time>2026-08-06T08:35:14.354Z</time>
      </trkpt>
      <trkpt lat="49.00348" lon="5.43928">
        <ele>167.71</ele>
        <time>2026-08-06T08:35:20.357Z</time>
      </trkpt>
      <trkpt lat="49.00368" lon="5.43888">
        <ele>166.92</ele>
        <time>2026-08-06T08:35:26.353Z</time>
      </trkpt>
      <trkpt lat="49.00386" lon="5.43851">
        <ele>166.28</ele>
        <time>2026-08-06T08:35:32.352Z</time>
      </trkpt>
      <trkpt lat="49.00403" lon="5.43815">
        <ele>164.54</ele>
        <time>2026-08-06T08:35:38.353Z</time>
      </trkpt>
      <trkpt lat="49.00421" lon="5.43779">
        <ele>162.97</ele>
        <time>2026-08-06T08:35:44.338Z</time>
      </trkpt>
      <trkpt lat="49.00441" lon="5.43743">
        <ele>162.82</ele>
        <time>2026-08-06T08:35:50.352Z</time>
      </trkpt>
      <trkpt lat="49.00457" lon="5.43708">
        <ele>163.25</ele>
        <time>2026-08-06T08:35:56.355Z</time>
      </trkpt>
      <trkpt lat="49.00473" lon="5.43678">
        <ele>165.46</ele>
        <time>2026-08-06T08:36:02.350Z</time>
      </trkpt>
      <trkpt lat="49.00488" lon="5.43648">
        <ele>165.91</ele>
        <time>2026-08-06T08:36:08.352Z</time>
      </trkpt>
      <trkpt lat="49.00508" lon="5.4361">
        <ele>166.41</ele>
        <time>2026-08-06T08:36:14.351Z</time>
      </trkpt>
      <trkpt lat="49.00526" lon="5.4357">
        <ele>167.11</ele>
        <time>2026-08-06T08:36:20.354Z</time>
      </trkpt>
      <trkpt lat="49.00545" lon="5.4353">
        <ele>166.65</ele>
        <time>2026-08-06T08:36:26.354Z</time>
      </trkpt>
      <trkpt lat="49.00564" lon="5.43489">
        <ele>166.25</ele>
        <time>2026-08-06T08:36:32.352Z</time>
      </trkpt>
      <trkpt lat="49.00582" lon="5.4345">
        <ele>166.21</ele>
        <time>2026-08-06T08:36:38.346Z</time>
      </trkpt>
      <trkpt lat="49.006" lon="5.43412">
        <ele>163.6</ele>
        <time>2026-08-06T08:36:44.360Z</time>
      </trkpt>
      <trkpt lat="49.0062" lon="5.43372">
        <ele>163.51</ele>
        <time>2026-08-06T08:36:50.358Z</time>
      </trkpt>
      <trkpt lat="49.00636" lon="5.43334">
        <ele>163.45</ele>
        <time>2026-08-06T08:36:56.350Z</time>
      </trkpt>
      <trkpt lat="49.00649" lon="5.43307">
        <ele>164.48</ele>
        <time>2026-08-06T08:37:02.359Z</time>
      </trkpt>
      <trkpt lat="49.00663" lon="5.43278">
        <ele>164.84</ele>
        <time>2026-08-06T08:37:08.352Z</time>
      </trkpt>
      <trkpt lat="49.00676" lon="5.43249">
        <ele>164.67</ele>
        <time>2026-08-06T08:37:14.355Z</time>
      </trkpt>
      <trkpt lat="49.00691" lon="5.43221">
        <ele>164.39</ele>
        <time>2026-08-06T08:37:20.353Z</time>
      </trkpt>
      <trkpt lat="49.00709" lon="5.43185">
        <ele>164.52</ele>
        <time>2026-08-06T08:37:26.352Z</time>
      </trkpt>
      <trkpt lat="49.00727" lon="5.43143">
        <ele>165.61</ele>
        <time>2026-08-06T08:37:32.380Z</time>
      </trkpt>
      <trkpt lat="49.00745" lon="5.43109">
        <ele>164.63</ele>
        <time>2026-08-06T08:37:38.356Z</time>
      </trkpt>
      <trkpt lat="49.00764" lon="5.43068">
        <ele>164.03</ele>
        <time>2026-08-06T08:37:44.357Z</time>
      </trkpt>
      <trkpt lat="49.00783" lon="5.43028">
        <ele>163.91</ele>
        <time>2026-08-06T08:37:50.361Z</time>
      </trkpt>
      <trkpt lat="49.00801" lon="5.42988">
        <ele>163.92</ele>
        <time>2026-08-06T08:37:56.357Z</time>
      </trkpt>
      <trkpt lat="49.0082" lon="5.42947">
        <ele>163.4</ele>
        <time>2026-08-06T08:38:02.358Z</time>
      </trkpt>
      <trkpt lat="49.00838" lon="5.42909">
        <ele>162.91</ele>
        <time>2026-08-06T08:38:08.357Z</time>
      </trkpt>
      <trkpt lat="49.00857" lon="5.42871">
        <ele>161.92</ele>
        <time>2026-08-06T08:38:14.357Z</time>
      </trkpt>
      <trkpt lat="49.00876" lon="5.42829">
        <ele>162.25</ele>
        <time>2026-08-06T08:38:20.357Z</time>
      </trkpt>
      <trkpt lat="49.00894" lon="5.42789">
        <ele>162.99</ele>
        <time>2026-08-06T08:38:26.356Z</time>
      </trkpt>
      <trkpt lat="49.00913" lon="5.42749">
        <ele>163.37</ele>
        <time>2026-08-06T08:38:32.356Z</time>
      </trkpt>
      <trkpt lat="49.00933" lon="5.4271">
        <ele>163.99</ele>
        <time>2026-08-06T08:38:38.357Z</time>
      </trkpt>
      <trkpt lat="49.0095" lon="5.42673">
        <ele>163.29</ele>
        <time>2026-08-06T08:38:44.358Z</time>
      </trkpt>
      <trkpt lat="49.00968" lon="5.42633">
        <ele>163.78</ele>
        <time>2026-08-06T08:38:50.357Z</time>
      </trkpt>
      <trkpt lat="49.00988" lon="5.42594">
        <ele>163.41</ele>
        <time>2026-08-06T08:38:56.358Z</time>
      </trkpt>
      <trkpt lat="49.01008" lon="5.42559">
        <ele>163.33</ele>
        <time>2026-08-06T08:39:02.358Z</time>
      </trkpt>
      <trkpt lat="49.01029" lon="5.42523">
        <ele>163.19</ele>
        <time>2026-08-06T08:39:08.358Z</time>
      </trkpt>
      <trkpt lat="49.0105" lon="5.4249">
        <ele>163.07</ele>
        <time>2026-08-06T08:39:14.360Z</time>
      </trkpt>
      <trkpt lat="49.01074" lon="5.42458">
        <ele>162.94</ele>
        <time>2026-08-06T08:39:20.357Z</time>
      </trkpt>
      <trkpt lat="49.01097" lon="5.42429">
        <ele>162.16</ele>
        <time>2026-08-06T08:39:26.356Z</time>
      </trkpt>
      <trkpt lat="49.0112" lon="5.42401">
        <ele>161.89</ele>
        <time>2026-08-06T08:39:32.358Z</time>
      </trkpt>
      <trkpt lat="49.01145" lon="5.42372">
        <ele>160.25</ele>
        <time>2026-08-06T08:39:38.355Z</time>
      </trkpt>
      <trkpt lat="49.01173" lon="5.42345">
        <ele>160.72</ele>
        <time>2026-08-06T08:39:44.355Z</time>
      </trkpt>
      <trkpt lat="49.01201" lon="5.4232">
        <ele>161.16</ele>
        <time>2026-08-06T08:39:50.354Z</time>
      </trkpt>
      <trkpt lat="49.0123" lon="5.42298">
        <ele>161.29</ele>
        <time>2026-08-06T08:39:56.356Z</time>
      </trkpt>
      <trkpt lat="49.01261" lon="5.42278">
        <ele>161.51</ele>
        <time>2026-08-06T08:40:02.358Z</time>
      </trkpt>
      <trkpt lat="49.0129" lon="5.42259">
        <ele>162.87</ele>
        <time>2026-08-06T08:40:08.352Z</time>
      </trkpt>
      <trkpt lat="49.01321" lon="5.42244">
        <ele>163.17</ele>
        <time>2026-08-06T08:40:14.354Z</time>
      </trkpt>
      <trkpt lat="49.01352" lon="5.42228">
        <ele>162.36</ele>
        <time>2026-08-06T08:40:20.354Z</time>
      </trkpt>
      <trkpt lat="49.01384" lon="5.42213">
        <ele>161.58</ele>
        <time>2026-08-06T08:40:26.352Z</time>
      </trkpt>
      <trkpt lat="49.01416" lon="5.422">
        <ele>161.5</ele>
        <time>2026-08-06T08:40:32.352Z</time>
      </trkpt>
      <trkpt lat="49.01447" lon="5.42186">
        <ele>160.8</ele>
        <time>2026-08-06T08:40:38.377Z</time>
      </trkpt>
      <trkpt lat="49.01478" lon="5.42172">
        <ele>159.53</ele>
        <time>2026-08-06T08:40:44.355Z</time>
      </trkpt>
      <trkpt lat="49.01508" lon="5.42159">
        <ele>160.47</ele>
        <time>2026-08-06T08:40:50.355Z</time>
      </trkpt>
      <trkpt lat="49.01538" lon="5.42147">
        <ele>161.92</ele>
        <time>2026-08-06T08:40:56.357Z</time>
      </trkpt>
      <trkpt lat="49.01564" lon="5.42136">
        <ele>163.04</ele>
        <time>2026-08-06T08:41:02.355Z</time>
      </trkpt>
      <trkpt lat="49.01593" lon="5.42123">
        <ele>163.34</ele>
        <time>2026-08-06T08:41:08.357Z</time>
      </trkpt>
      <trkpt lat="49.01623" lon="5.42111">
        <ele>163.42</ele>
        <time>2026-08-06T08:41:14.355Z</time>
      </trkpt>
      <trkpt lat="49.01654" lon="5.42098">
        <ele>163.33</ele>
        <time>2026-08-06T08:41:20.355Z</time>
      </trkpt>
      <trkpt lat="49.01684" lon="5.42084">
        <ele>162.91</ele>
        <time>2026-08-06T08:41:26.356Z</time>
      </trkpt>
      <trkpt lat="49.01713" lon="5.42071">
        <ele>162.52</ele>
        <time>2026-08-06T08:41:32.360Z</time>
      </trkpt>
      <trkpt lat="49.01743" lon="5.42056">
        <ele>161.83</ele>
        <time>2026-08-06T08:41:38.356Z</time>
      </trkpt>
      <trkpt lat="49.01771" lon="5.42044">
        <ele>162.07</ele>
        <time>2026-08-06T08:41:44.357Z</time>
      </trkpt>
      <trkpt lat="49.01801" lon="5.42029">
        <ele>162.5</ele>
        <time>2026-08-06T08:41:50.360Z</time>
      </trkpt>
      <trkpt lat="49.01832" lon="5.42016">
        <ele>163.28</ele>
        <time>2026-08-06T08:41:56.356Z</time>
      </trkpt>
      <trkpt lat="49.01864" lon="5.42002">
        <ele>163.65</ele>
        <time>2026-08-06T08:42:02.357Z</time>
      </trkpt>
      <trkpt lat="49.01895" lon="5.41988">
        <ele>163.71</ele>
        <time>2026-08-06T08:42:08.359Z</time>
      </trkpt>
      <trkpt lat="49.01926" lon="5.41974">
        <ele>163.67</ele>
        <time>2026-08-06T08:42:14.356Z</time>
      </trkpt>
      <trkpt lat="49.01957" lon="5.41961">
        <ele>163.7</ele>
        <time>2026-08-06T08:42:20.357Z</time>
      </trkpt>
      <trkpt lat="49.01987" lon="5.41945">
        <ele>162.3</ele>
        <time>2026-08-06T08:42:26.355Z</time>
      </trkpt>
      <trkpt lat="49.02015" lon="5.41926">
        <ele>162.11</ele>
        <time>2026-08-06T08:42:32.352Z</time>
      </trkpt>
      <trkpt lat="49.02036" lon="5.41914">
        <ele>162.65</ele>
        <time>2026-08-06T08:42:38.356Z</time>
      </trkpt>
      <trkpt lat="49.02048" lon="5.41902">
        <ele>162.49</ele>
        <time>2026-08-06T08:42:44.357Z</time>
      </trkpt>
      <trkpt lat="49.02062" lon="5.41893">
        <ele>163.26</ele>
        <time>2026-08-06T08:42:50.360Z</time>
      </trkpt>
      <trkpt lat="49.02085" lon="5.41875">
        <ele>162.82</ele>
        <time>2026-08-06T08:42:56.357Z</time>
      </trkpt>
      <trkpt lat="49.02111" lon="5.4185">
        <ele>162.37</ele>
        <time>2026-08-06T08:43:02.355Z</time>
      </trkpt>
      <trkpt lat="49.02138" lon="5.41821">
        <ele>161.53</ele>
        <time>2026-08-06T08:43:08.356Z</time>
      </trkpt>
      <trkpt lat="49.02164" lon="5.41793">
        <ele>160.8</ele>
        <time>2026-08-06T08:43:14.355Z</time>
      </trkpt>
      <trkpt lat="49.02188" lon="5.41763">
        <ele>160.18</ele>
        <time>2026-08-06T08:43:20.354Z</time>
      </trkpt>
      <trkpt lat="49.02212" lon="5.41733">
        <ele>159.99</ele>
        <time>2026-08-06T08:43:26.346Z</time>
      </trkpt>
      <trkpt lat="49.02236" lon="5.41704">
        <ele>159.89</ele>
        <time>2026-08-06T08:43:32.356Z</time>
      </trkpt>
      <trkpt lat="49.0226" lon="5.41675">
        <ele>160.09</ele>
        <time>2026-08-06T08:43:38.354Z</time>
      </trkpt>
      <trkpt lat="49.02283" lon="5.41646">
        <ele>160.73</ele>
        <time>2026-08-06T08:43:44.358Z</time>
      </trkpt>
      <trkpt lat="49.02309" lon="5.41615">
        <ele>161.29</ele>
        <time>2026-08-06T08:43:50.354Z</time>
      </trkpt>
      <trkpt lat="49.02332" lon="5.41586">
        <ele>160.64</ele>
        <time>2026-08-06T08:43:56.354Z</time>
      </trkpt>
      <trkpt lat="49.02358" lon="5.41558">
        <ele>160.72</ele>
        <time>2026-08-06T08:44:02.355Z</time>
      </trkpt>
      <trkpt lat="49.02385" lon="5.4153">
        <ele>159.01</ele>
        <time>2026-08-06T08:44:08.357Z</time>
      </trkpt>
      <trkpt lat="49.02414" lon="5.41502">
        <ele>158.16</ele>
        <time>2026-08-06T08:44:14.356Z</time>
      </trkpt>
      <trkpt lat="49.02443" lon="5.41477">
        <ele>159</ele>
        <time>2026-08-06T08:44:20.362Z</time>
      </trkpt>
      <trkpt lat="49.02472" lon="5.41455">
        <ele>159.09</ele>
        <time>2026-08-06T08:44:26.351Z</time>
      </trkpt>
      <trkpt lat="49.02503" lon="5.41437">
        <ele>158.83</ele>
        <time>2026-08-06T08:44:32.354Z</time>
      </trkpt>
      <trkpt lat="49.02531" lon="5.41419">
        <ele>156.16</ele>
        <time>2026-08-06T08:44:38.357Z</time>
      </trkpt>
      <trkpt lat="49.02558" lon="5.41405">
        <ele>152.38</ele>
        <time>2026-08-06T08:44:44.357Z</time>
      </trkpt>
      <trkpt lat="49.02589" lon="5.41392">
        <ele>152.4</ele>
        <time>2026-08-06T08:44:50.354Z</time>
      </trkpt>
      <trkpt lat="49.02622" lon="5.4138">
        <ele>152.94</ele>
        <time>2026-08-06T08:44:56.355Z</time>
      </trkpt>
      <trkpt lat="49.02654" lon="5.41368">
        <ele>154.59</ele>
        <time>2026-08-06T08:45:02.355Z</time>
      </trkpt>
      <trkpt lat="49.02684" lon="5.41356">
        <ele>156.38</ele>
        <time>2026-08-06T08:45:08.354Z</time>
      </trkpt>
      <trkpt lat="49.02717" lon="5.41344">
        <ele>157.87</ele>
        <time>2026-08-06T08:45:14.356Z</time>
      </trkpt>
      <trkpt lat="49.0275" lon="5.41332">
        <ele>157.9</ele>
        <time>2026-08-06T08:45:20.357Z</time>
      </trkpt>
      <trkpt lat="49.02781" lon="5.41321">
        <ele>158.26</ele>
        <time>2026-08-06T08:45:26.353Z</time>
      </trkpt>
      <trkpt lat="49.02812" lon="5.41308">
        <ele>159.13</ele>
        <time>2026-08-06T08:45:32.353Z</time>
      </trkpt>
      <trkpt lat="49.02844" lon="5.41296">
        <ele>160.67</ele>
        <time>2026-08-06T08:45:38.358Z</time>
      </trkpt>
      <trkpt lat="49.02876" lon="5.41283">
        <ele>158.87</ele>
        <time>2026-08-06T08:45:44.355Z</time>
      </trkpt>
      <trkpt lat="49.0291" lon="5.41271">
        <ele>159.67</ele>
        <time>2026-08-06T08:45:50.353Z</time>
      </trkpt>
      <trkpt lat="49.02942" lon="5.41259">
        <ele>159.59</ele>
        <time>2026-08-06T08:45:56.352Z</time>
      </trkpt>
      <trkpt lat="49.02973" lon="5.41247">
        <ele>160.38</ele>
        <time>2026-08-06T08:46:02.356Z</time>
      </trkpt>
      <trkpt lat="49.03004" lon="5.41237">
        <ele>161.59</ele>
        <time>2026-08-06T08:46:08.357Z</time>
      </trkpt>
      <trkpt lat="49.03035" lon="5.41231">
        <ele>163.31</ele>
        <time>2026-08-06T08:46:14.356Z</time>
      </trkpt>
      <trkpt lat="49.03068" lon="5.41225">
        <ele>165.09</ele>
        <time>2026-08-06T08:46:20.353Z</time>
      </trkpt>
      <trkpt lat="49.03098" lon="5.41221">
        <ele>164.41</ele>
        <time>2026-08-06T08:46:26.355Z</time>
      </trkpt>
      <trkpt lat="49.0313" lon="5.41218">
        <ele>164.31</ele>
        <time>2026-08-06T08:46:32.353Z</time>
      </trkpt>
      <trkpt lat="49.03164" lon="5.41215">
        <ele>162.46</ele>
        <time>2026-08-06T08:46:38.355Z</time>
      </trkpt>
      <trkpt lat="49.03197" lon="5.41217">
        <ele>161.36</ele>
        <time>2026-08-06T08:46:44.352Z</time>
      </trkpt>
      <trkpt lat="49.0322" lon="5.41221">
        <ele>162.48</ele>
        <time>2026-08-06T08:46:50.353Z</time>
      </trkpt>
      <trkpt lat="49.03228" lon="5.41229">
        <ele>165.42</ele>
        <time>2026-08-06T09:03:01.289Z</time>
      </trkpt>
      <trkpt lat="49.03235" lon="5.4122">
        <ele>165.89</ele>
        <time>2026-08-06T09:07:28.280Z</time>
      </trkpt>
      <trkpt lat="49.03255" lon="5.4122">
        <ele>164.29</ele>
        <time>2026-08-06T09:07:33.971Z</time>
      </trkpt>
      <trkpt lat="49.03275" lon="5.41224">
        <ele>159.66</ele>
        <time>2026-08-06T09:07:39.294Z</time>
      </trkpt>
      <trkpt lat="49.03299" lon="5.41226">
        <ele>159.77</ele>
        <time>2026-08-06T09:07:44.336Z</time>
      </trkpt>
      <trkpt lat="49.03328" lon="5.41229">
        <ele>159.83</ele>
        <time>2026-08-06T09:07:50.348Z</time>
      </trkpt>
      <trkpt lat="49.03348" lon="5.41233">
        <ele>157.32</ele>
        <time>2026-08-06T09:07:55.755Z</time>
      </trkpt>
      <trkpt lat="49.03382" lon="5.41234">
        <ele>157.39</ele>
        <time>2026-08-06T09:08:01.292Z</time>
      </trkpt>
      <trkpt lat="49.03409" lon="5.41238">
        <ele>158.93</ele>
        <time>2026-08-06T09:08:06.292Z</time>
      </trkpt>
      <trkpt lat="49.03441" lon="5.41242">
        <ele>161.22</ele>
        <time>2026-08-06T09:08:12.290Z</time>
      </trkpt>
      <trkpt lat="49.03475" lon="5.41245">
        <ele>163.14</ele>
        <time>2026-08-06T09:08:18.284Z</time>
      </trkpt>
      <trkpt lat="49.03504" lon="5.41251">
        <ele>163.89</ele>
        <time>2026-08-06T09:08:23.292Z</time>
      </trkpt>
      <trkpt lat="49.03539" lon="5.41257">
        <ele>162.91</ele>
        <time>2026-08-06T09:08:29.296Z</time>
      </trkpt>
      <trkpt lat="49.03572" lon="5.41264">
        <ele>161.36</ele>
        <time>2026-08-06T09:08:35.293Z</time>
      </trkpt>
      <trkpt lat="49.03602" lon="5.4127">
        <ele>159.61</ele>
        <time>2026-08-06T09:08:41.291Z</time>
      </trkpt>
      <trkpt lat="49.03633" lon="5.41278">
        <ele>158.06</ele>
        <time>2026-08-06T09:08:47.292Z</time>
      </trkpt>
      <trkpt lat="49.03657" lon="5.41287">
        <ele>156.87</ele>
        <time>2026-08-06T09:08:52.294Z</time>
      </trkpt>
      <trkpt lat="49.03687" lon="5.41299">
        <ele>157.58</ele>
        <time>2026-08-06T09:08:58.290Z</time>
      </trkpt>
      <trkpt lat="49.03717" lon="5.41311">
        <ele>158.09</ele>
        <time>2026-08-06T09:09:04.288Z</time>
      </trkpt>
      <trkpt lat="49.03743" lon="5.41322">
        <ele>158.91</ele>
        <time>2026-08-06T09:09:09.290Z</time>
      </trkpt>
      <trkpt lat="49.03768" lon="5.41333">
        <ele>158.79</ele>
        <time>2026-08-06T09:09:14.348Z</time>
      </trkpt>
      <trkpt lat="49.03799" lon="5.41344">
        <ele>157</ele>
        <time>2026-08-06T09:09:20.350Z</time>
      </trkpt>
      <trkpt lat="49.0383" lon="5.41358">
        <ele>157.18</ele>
        <time>2026-08-06T09:09:26.353Z</time>
      </trkpt>
      <trkpt lat="49.03861" lon="5.4137">
        <ele>157.95</ele>
        <time>2026-08-06T09:09:32.343Z</time>
      </trkpt>
      <trkpt lat="49.03892" lon="5.41382">
        <ele>158.62</ele>
        <time>2026-08-06T09:09:38.344Z</time>
      </trkpt>
      <trkpt lat="49.03923" lon="5.41397">
        <ele>160.55</ele>
        <time>2026-08-06T09:09:44.345Z</time>
      </trkpt>
      <trkpt lat="49.03954" lon="5.4141">
        <ele>159.44</ele>
        <time>2026-08-06T09:09:50.343Z</time>
      </trkpt>
      <trkpt lat="49.03986" lon="5.41421">
        <ele>158.25</ele>
        <time>2026-08-06T09:09:56.354Z</time>
      </trkpt>
      <trkpt lat="49.04017" lon="5.41435">
        <ele>159.32</ele>
        <time>2026-08-06T09:10:02.342Z</time>
      </trkpt>
      <trkpt lat="49.04049" lon="5.41449">
        <ele>160.07</ele>
        <time>2026-08-06T09:10:08.345Z</time>
      </trkpt>
      <trkpt lat="49.0408" lon="5.4146">
        <ele>160.37</ele>
        <time>2026-08-06T09:10:14.343Z</time>
      </trkpt>
      <trkpt lat="49.04111" lon="5.41469">
        <ele>160.65</ele>
        <time>2026-08-06T09:10:20.343Z</time>
      </trkpt>
      <trkpt lat="49.04144" lon="5.41478">
        <ele>160.49</ele>
        <time>2026-08-06T09:10:26.360Z</time>
      </trkpt>
      <trkpt lat="49.04174" lon="5.41486">
        <ele>159.87</ele>
        <time>2026-08-06T09:10:32.344Z</time>
      </trkpt>
      <trkpt lat="49.04203" lon="5.41493">
        <ele>157.35</ele>
        <time>2026-08-06T09:10:38.346Z</time>
      </trkpt>
      <trkpt lat="49.04232" lon="5.41501">
        <ele>157.08</ele>
        <time>2026-08-06T09:10:44.351Z</time>
      </trkpt>
      <trkpt lat="49.04262" lon="5.41507">
        <ele>155.75</ele>
        <time>2026-08-06T09:10:50.348Z</time>
      </trkpt>
      <trkpt lat="49.04291" lon="5.41509">
        <ele>153.6</ele>
        <time>2026-08-06T09:10:56.357Z</time>
      </trkpt>
      <trkpt lat="49.04321" lon="5.41511">
        <ele>152.65</ele>
        <time>2026-08-06T09:11:02.343Z</time>
      </trkpt>
      <trkpt lat="49.04353" lon="5.41507">
        <ele>152.81</ele>
        <time>2026-08-06T09:11:08.346Z</time>
      </trkpt>
      <trkpt lat="49.04386" lon="5.41498">
        <ele>153.49</ele>
        <time>2026-08-06T09:11:14.343Z</time>
      </trkpt>
      <trkpt lat="49.04418" lon="5.41489">
        <ele>154.67</ele>
        <time>2026-08-06T09:11:20.342Z</time>
      </trkpt>
      <trkpt lat="49.04451" lon="5.41479">
        <ele>155.62</ele>
        <time>2026-08-06T09:11:26.357Z</time>
      </trkpt>
      <trkpt lat="49.0448" lon="5.4147">
        <ele>155.74</ele>
        <time>2026-08-06T09:11:32.348Z</time>
      </trkpt>
      <trkpt lat="49.0451" lon="5.4146">
        <ele>157.25</ele>
        <time>2026-08-06T09:11:38.341Z</time>
      </trkpt>
      <trkpt lat="49.04543" lon="5.4145">
        <ele>158.3</ele>
        <time>2026-08-06T09:11:44.343Z</time>
      </trkpt>
      <trkpt lat="49.04577" lon="5.41445">
        <ele>160.1</ele>
        <time>2026-08-06T09:11:50.342Z</time>
      </trkpt>
      <trkpt lat="49.04607" lon="5.41442">
        <ele>159.9</ele>
        <time>2026-08-06T09:11:56.355Z</time>
      </trkpt>
      <trkpt lat="49.04635" lon="5.41438">
        <ele>158.11</ele>
        <time>2026-08-06T09:12:02.342Z</time>
      </trkpt>
      <trkpt lat="49.04662" lon="5.41435">
        <ele>155.85</ele>
        <time>2026-08-06T09:12:08.343Z</time>
      </trkpt>
      <trkpt lat="49.04689" lon="5.41436">
        <ele>157.09</ele>
        <time>2026-08-06T09:12:14.343Z</time>
      </trkpt>
      <trkpt lat="49.04719" lon="5.41435">
        <ele>159.28</ele>
        <time>2026-08-06T09:12:20.345Z</time>
      </trkpt>
      <trkpt lat="49.04748" lon="5.41434">
        <ele>160.36</ele>
        <time>2026-08-06T09:12:26.354Z</time>
      </trkpt>
      <trkpt lat="49.04777" lon="5.41433">
        <ele>162.01</ele>
        <time>2026-08-06T09:12:32.344Z</time>
      </trkpt>
      <trkpt lat="49.04808" lon="5.41433">
        <ele>162.87</ele>
        <time>2026-08-06T09:12:38.344Z</time>
      </trkpt>
      <trkpt lat="49.04838" lon="5.4143">
        <ele>162.12</ele>
        <time>2026-08-06T09:12:44.343Z</time>
      </trkpt>
      <trkpt lat="49.04864" lon="5.41426">
        <ele>161.75</ele>
        <time>2026-08-06T09:12:50.345Z</time>
      </trkpt>
      <trkpt lat="49.04891" lon="5.41424">
        <ele>162.57</ele>
        <time>2026-08-06T09:12:56.346Z</time>
      </trkpt>
      <trkpt lat="49.04924" lon="5.41416">
        <ele>161.61</ele>
        <time>2026-08-06T09:13:02.344Z</time>
      </trkpt>
      <trkpt lat="49.04956" lon="5.41403">
        <ele>160.37</ele>
        <time>2026-08-06T09:13:08.344Z</time>
      </trkpt>
      <trkpt lat="49.04986" lon="5.41387">
        <ele>159.31</ele>
        <time>2026-08-06T09:13:14.344Z</time>
      </trkpt>
      <trkpt lat="49.05016" lon="5.41369">
        <ele>159.55</ele>
        <time>2026-08-06T09:13:20.344Z</time>
      </trkpt>
      <trkpt lat="49.05044" lon="5.41348">
        <ele>159.27</ele>
        <time>2026-08-06T09:13:26.344Z</time>
      </trkpt>
      <trkpt lat="49.05073" lon="5.41324">
        <ele>157.93</ele>
        <time>2026-08-06T09:13:32.343Z</time>
      </trkpt>
      <trkpt lat="49.05101" lon="5.413">
        <ele>156.82</ele>
        <time>2026-08-06T09:13:38.345Z</time>
      </trkpt>
      <trkpt lat="49.05128" lon="5.41276">
        <ele>155.65</ele>
        <time>2026-08-06T09:13:44.343Z</time>
      </trkpt>
      <trkpt lat="49.05157" lon="5.41252">
        <ele>156.04</ele>
        <time>2026-08-06T09:13:50.345Z</time>
      </trkpt>
      <trkpt lat="49.05186" lon="5.41228">
        <ele>157.17</ele>
        <time>2026-08-06T09:13:56.343Z</time>
      </trkpt>
      <trkpt lat="49.05216" lon="5.41204">
        <ele>157.37</ele>
        <time>2026-08-06T09:14:02.345Z</time>
      </trkpt>
      <trkpt lat="49.05245" lon="5.4118">
        <ele>157.89</ele>
        <time>2026-08-06T09:14:08.345Z</time>
      </trkpt>
      <trkpt lat="49.05275" lon="5.41155">
        <ele>157.54</ele>
        <time>2026-08-06T09:14:14.345Z</time>
      </trkpt>
      <trkpt lat="49.05304" lon="5.41132">
        <ele>157.6</ele>
        <time>2026-08-06T09:14:20.345Z</time>
      </trkpt>
      <trkpt lat="49.05335" lon="5.4111">
        <ele>159.32</ele>
        <time>2026-08-06T09:14:26.345Z</time>
      </trkpt>
      <trkpt lat="49.05366" lon="5.41087">
        <ele>159.33</ele>
        <time>2026-08-06T09:14:32.342Z</time>
      </trkpt>
      <trkpt lat="49.05396" lon="5.41063">
        <ele>159.41</ele>
        <time>2026-08-06T09:14:38.342Z</time>
      </trkpt>
      <trkpt lat="49.05424" lon="5.41038">
        <ele>159.27</ele>
        <time>2026-08-06T09:14:44.345Z</time>
      </trkpt>
      <trkpt lat="49.05454" lon="5.41013">
        <ele>160.12</ele>
        <time>2026-08-06T09:14:50.344Z</time>
      </trkpt>
      <trkpt lat="49.05485" lon="5.40989">
        <ele>161.02</ele>
        <time>2026-08-06T09:14:56.355Z</time>
      </trkpt>
      <trkpt lat="49.05515" lon="5.40963">
        <ele>161.3</ele>
        <time>2026-08-06T09:15:02.346Z</time>
      </trkpt>
      <trkpt lat="49.05545" lon="5.4094">
        <ele>161.38</ele>
        <time>2026-08-06T09:15:08.348Z</time>
      </trkpt>
      <trkpt lat="49.05572" lon="5.40917">
        <ele>160.39</ele>
        <time>2026-08-06T09:15:14.344Z</time>
      </trkpt>
      <trkpt lat="49.056" lon="5.40896">
        <ele>158.63</ele>
        <time>2026-08-06T09:15:20.343Z</time>
      </trkpt>
      <trkpt lat="49.05626" lon="5.40875">
        <ele>159.68</ele>
        <time>2026-08-06T09:15:26.342Z</time>
      </trkpt>
      <trkpt lat="49.0564" lon="5.40873">
        <ele>160.29</ele>
        <time>2026-08-06T09:15:32.347Z</time>
      </trkpt>
      <trkpt lat="49.05642" lon="5.4086">
        <ele>160.77</ele>
        <time>2026-08-06T09:15:49.288Z</time>
      </trkpt>
      <trkpt lat="49.05648" lon="5.40849">
        <ele>160.42</ele>
        <time>2026-08-06T09:15:54.291Z</time>
      </trkpt>
      <trkpt lat="49.05663" lon="5.40835">
        <ele>159.33</ele>
        <time>2026-08-06T09:15:59.296Z</time>
      </trkpt>
      <trkpt lat="49.05683" lon="5.40817">
        <ele>155.24</ele>
        <time>2026-08-06T09:16:05.299Z</time>
      </trkpt>
      <trkpt lat="49.05708" lon="5.40794">
        <ele>151.65</ele>
        <time>2026-08-06T09:16:11.291Z</time>
      </trkpt>
      <trkpt lat="49.05732" lon="5.40774">
        <ele>151.43</ele>
        <time>2026-08-06T09:16:16.292Z</time>
      </trkpt>
      <trkpt lat="49.05754" lon="5.40755">
        <ele>149.83</ele>
        <time>2026-08-06T09:16:21.294Z</time>
      </trkpt>
      <trkpt lat="49.05776" lon="5.40737">
        <ele>149.56</ele>
        <time>2026-08-06T09:16:26.352Z</time>
      </trkpt>
      <trkpt lat="49.0581" lon="5.40715">
        <ele>149.36</ele>
        <time>2026-08-06T09:16:32.343Z</time>
      </trkpt>
      <trkpt lat="49.05842" lon="5.40693">
        <ele>150.36</ele>
        <time>2026-08-06T09:16:38.343Z</time>
      </trkpt>
      <trkpt lat="49.05875" lon="5.40677">
        <ele>152.29</ele>
        <time>2026-08-06T09:16:44.343Z</time>
      </trkpt>
      <trkpt lat="49.0591" lon="5.40666">
        <ele>154.66</ele>
        <time>2026-08-06T09:16:50.345Z</time>
      </trkpt>
      <trkpt lat="49.05945" lon="5.40659">
        <ele>155.33</ele>
        <time>2026-08-06T09:16:56.342Z</time>
      </trkpt>
      <trkpt lat="49.05978" lon="5.40654">
        <ele>156.32</ele>
        <time>2026-08-06T09:17:02.344Z</time>
      </trkpt>
      <trkpt lat="49.06005" lon="5.40655">
        <ele>156.84</ele>
        <time>2026-08-06T09:17:08.347Z</time>
      </trkpt>
      <trkpt lat="49.06032" lon="5.40658">
        <ele>158.83</ele>
        <time>2026-08-06T09:17:14.346Z</time>
      </trkpt>
      <trkpt lat="49.06061" lon="5.40663">
        <ele>159.71</ele>
        <time>2026-08-06T09:17:20.342Z</time>
      </trkpt>
      <trkpt lat="49.06096" lon="5.40674">
        <ele>160.17</ele>
        <time>2026-08-06T09:17:26.354Z</time>
      </trkpt>
      <trkpt lat="49.06129" lon="5.40688">
        <ele>158.69</ele>
        <time>2026-08-06T09:17:32.347Z</time>
      </trkpt>
      <trkpt lat="49.0616" lon="5.40703">
        <ele>159.2</ele>
        <time>2026-08-06T09:17:38.344Z</time>
      </trkpt>
      <trkpt lat="49.06191" lon="5.40723">
        <ele>160.11</ele>
        <time>2026-08-06T09:17:44.346Z</time>
      </trkpt>
      <trkpt lat="49.0622" lon="5.40743">
        <ele>157.71</ele>
        <time>2026-08-06T09:17:50.345Z</time>
      </trkpt>
      <trkpt lat="49.06249" lon="5.40766">
        <ele>157.39</ele>
        <time>2026-08-06T09:17:56.354Z</time>
      </trkpt>
      <trkpt lat="49.0628" lon="5.40789">
        <ele>158.08</ele>
        <time>2026-08-06T09:18:02.341Z</time>
      </trkpt>
      <trkpt lat="49.06308" lon="5.40808">
        <ele>158.81</ele>
        <time>2026-08-06T09:18:08.344Z</time>
      </trkpt>
      <trkpt lat="49.06323" lon="5.40817">
        <ele>159.61</ele>
        <time>2026-08-06T09:18:14.346Z</time>
      </trkpt>
      <trkpt lat="49.06331" lon="5.40833">
        <ele>161.41</ele>
        <time>2026-08-06T09:18:20.347Z</time>
      </trkpt>
      <trkpt lat="49.06355" lon="5.4084">
        <ele>159.75</ele>
        <time>2026-08-06T09:18:26.345Z</time>
      </trkpt>
      <trkpt lat="49.06389" lon="5.40855">
        <ele>158.41</ele>
        <time>2026-08-06T09:18:32.342Z</time>
      </trkpt>
      <trkpt lat="49.06426" lon="5.4087">
        <ele>157.55</ele>
        <time>2026-08-06T09:18:38.342Z</time>
      </trkpt>
      <trkpt lat="49.06464" lon="5.40879">
        <ele>156.95</ele>
        <time>2026-08-06T09:18:44.344Z</time>
      </trkpt>
      <trkpt lat="49.06498" lon="5.40889">
        <ele>156.68</ele>
        <time>2026-08-06T09:18:50.341Z</time>
      </trkpt>
      <trkpt lat="49.06532" lon="5.40895">
        <ele>155.02</ele>
        <time>2026-08-06T09:18:56.354Z</time>
      </trkpt>
      <trkpt lat="49.06569" lon="5.40901">
        <ele>153.94</ele>
        <time>2026-08-06T09:19:02.343Z</time>
      </trkpt>
      <trkpt lat="49.06605" lon="5.40905">
        <ele>153.51</ele>
        <time>2026-08-06T09:19:08.345Z</time>
      </trkpt>
      <trkpt lat="49.06642" lon="5.40912">
        <ele>154.04</ele>
        <time>2026-08-06T09:19:14.343Z</time>
      </trkpt>
      <trkpt lat="49.06677" lon="5.4092">
        <ele>155.16</ele>
        <time>2026-08-06T09:19:20.344Z</time>
      </trkpt>
      <trkpt lat="49.06711" lon="5.4093">
        <ele>155.13</ele>
        <time>2026-08-06T09:19:26.355Z</time>
      </trkpt>
      <trkpt lat="49.06744" lon="5.40936">
        <ele>153.84</ele>
        <time>2026-08-06T09:19:32.343Z</time>
      </trkpt>
      <trkpt lat="49.06781" lon="5.40943">
        <ele>154.84</ele>
        <time>2026-08-06T09:19:38.344Z</time>
      </trkpt>
      <trkpt lat="49.06815" lon="5.4095">
        <ele>155.59</ele>
        <time>2026-08-06T09:19:44.347Z</time>
      </trkpt>
      <trkpt lat="49.06848" lon="5.40956">
        <ele>155.23</ele>
        <time>2026-08-06T09:19:50.346Z</time>
      </trkpt>
      <trkpt lat="49.06882" lon="5.40963">
        <ele>155.98</ele>
        <time>2026-08-06T09:19:56.357Z</time>
      </trkpt>
      <trkpt lat="49.06917" lon="5.4097">
        <ele>156.21</ele>
        <time>2026-08-06T09:20:02.346Z</time>
      </trkpt>
      <trkpt lat="49.0695" lon="5.40977">
        <ele>156.44</ele>
        <time>2026-08-06T09:20:08.343Z</time>
      </trkpt>
      <trkpt lat="49.06983" lon="5.40984">
        <ele>156.73</ele>
        <time>2026-08-06T09:20:14.346Z</time>
      </trkpt>
      <trkpt lat="49.07016" lon="5.40993">
        <ele>159.07</ele>
        <time>2026-08-06T09:20:20.350Z</time>
      </trkpt>
      <trkpt lat="49.07051" lon="5.41001">
        <ele>160.91</ele>
        <time>2026-08-06T09:20:26.356Z</time>
      </trkpt>
      <trkpt lat="49.07081" lon="5.41006">
        <ele>164.46</ele>
        <time>2026-08-06T09:20:32.336Z</time>
      </trkpt>
      <trkpt lat="49.07101" lon="5.41011">
        <ele>162.32</ele>
        <time>2026-08-06T09:20:38.346Z</time>
      </trkpt>
      <trkpt lat="49.07111" lon="5.41009">
        <ele>161.15</ele>
        <time>2026-08-06T09:20:44.346Z</time>
      </trkpt>
      <trkpt lat="49.07126" lon="5.41012">
        <ele>160.95</ele>
        <time>2026-08-06T09:20:50.348Z</time>
      </trkpt>
      <trkpt lat="49.07147" lon="5.41015">
        <ele>160.4</ele>
        <time>2026-08-06T09:20:56.346Z</time>
      </trkpt>
      <trkpt lat="49.07176" lon="5.4102">
        <ele>158.25</ele>
        <time>2026-08-06T09:21:02.346Z</time>
      </trkpt>
      <trkpt lat="49.0721" lon="5.4102">
        <ele>156.03</ele>
        <time>2026-08-06T09:21:08.346Z</time>
      </trkpt>
      <trkpt lat="49.07245" lon="5.41016">
        <ele>155.01</ele>
        <time>2026-08-06T09:21:14.344Z</time>
      </trkpt>
      <trkpt lat="49.07276" lon="5.4101">
        <ele>156.16</ele>
        <time>2026-08-06T09:21:20.346Z</time>
      </trkpt>
      <trkpt lat="49.07303" lon="5.41004">
        <ele>156.48</ele>
        <time>2026-08-06T09:21:26.357Z</time>
      </trkpt>
      <trkpt lat="49.07325" lon="5.41002">
        <ele>155.73</ele>
        <time>2026-08-06T09:21:32.348Z</time>
      </trkpt>
      <trkpt lat="49.07354" lon="5.40988">
        <ele>156.43</ele>
        <time>2026-08-06T09:21:38.344Z</time>
      </trkpt>
      <trkpt lat="49.07385" lon="5.40976">
        <ele>156.11</ele>
        <time>2026-08-06T09:21:44.347Z</time>
      </trkpt>
      <trkpt lat="49.07415" lon="5.4096">
        <ele>156.42</ele>
        <time>2026-08-06T09:21:50.347Z</time>
      </trkpt>
      <trkpt lat="49.07445" lon="5.40942">
        <ele>157.53</ele>
        <time>2026-08-06T09:21:56.356Z</time>
      </trkpt>
      <trkpt lat="49.07474" lon="5.40924">
        <ele>158.32</ele>
        <time>2026-08-06T09:22:02.347Z</time>
      </trkpt>
      <trkpt lat="49.07504" lon="5.409">
        <ele>158.19</ele>
        <time>2026-08-06T09:22:08.345Z</time>
      </trkpt>
      <trkpt lat="49.07533" lon="5.40875">
        <ele>158.03</ele>
        <time>2026-08-06T09:22:14.346Z</time>
      </trkpt>
      <trkpt lat="49.07561" lon="5.4085">
        <ele>159.08</ele>
        <time>2026-08-06T09:22:20.345Z</time>
      </trkpt>
      <trkpt lat="49.0759" lon="5.40825">
        <ele>160.07</ele>
        <time>2026-08-06T09:22:26.358Z</time>
      </trkpt>
      <trkpt lat="49.0762" lon="5.408">
        <ele>160.07</ele>
        <time>2026-08-06T09:22:32.348Z</time>
      </trkpt>
      <trkpt lat="49.07649" lon="5.40774">
        <ele>158.25</ele>
        <time>2026-08-06T09:22:38.347Z</time>
      </trkpt>
      <trkpt lat="49.07678" lon="5.4075">
        <ele>156.35</ele>
        <time>2026-08-06T09:22:44.345Z</time>
      </trkpt>
      <trkpt lat="49.07708" lon="5.40727">
        <ele>156.02</ele>
        <time>2026-08-06T09:22:50.346Z</time>
      </trkpt>
      <trkpt lat="49.07738" lon="5.40701">
        <ele>156.32</ele>
        <time>2026-08-06T09:22:56.359Z</time>
      </trkpt>
      <trkpt lat="49.07769" lon="5.40677">
        <ele>157.54</ele>
        <time>2026-08-06T09:23:02.345Z</time>
      </trkpt>
      <trkpt lat="49.078" lon="5.4065">
        <ele>158.14</ele>
        <time>2026-08-06T09:23:08.349Z</time>
      </trkpt>
      <trkpt lat="49.07829" lon="5.40625">
        <ele>157.4</ele>
        <time>2026-08-06T09:23:14.346Z</time>
      </trkpt>
      <trkpt lat="49.07858" lon="5.40598">
        <ele>155.78</ele>
        <time>2026-08-06T09:23:20.350Z</time>
      </trkpt>
      <trkpt lat="49.07888" lon="5.40572">
        <ele>155.02</ele>
        <time>2026-08-06T09:23:26.357Z</time>
      </trkpt>
      <trkpt lat="49.07918" lon="5.40547">
        <ele>154.91</ele>
        <time>2026-08-06T09:23:32.347Z</time>
      </trkpt>
      <trkpt lat="49.07947" lon="5.4052">
        <ele>155.04</ele>
        <time>2026-08-06T09:23:38.347Z</time>
      </trkpt>
      <trkpt lat="49.07977" lon="5.40494">
        <ele>155.88</ele>
        <time>2026-08-06T09:23:44.350Z</time>
      </trkpt>
      <trkpt lat="49.08006" lon="5.40471">
        <ele>156.61</ele>
        <time>2026-08-06T09:23:50.348Z</time>
      </trkpt>
      <trkpt lat="49.08037" lon="5.40447">
        <ele>155.98</ele>
        <time>2026-08-06T09:23:56.357Z</time>
      </trkpt>
      <trkpt lat="49.08065" lon="5.40423">
        <ele>155.46</ele>
        <time>2026-08-06T09:24:02.346Z</time>
      </trkpt>
      <trkpt lat="49.08093" lon="5.40398">
        <ele>155.77</ele>
        <time>2026-08-06T09:24:08.346Z</time>
      </trkpt>
      <trkpt lat="49.08124" lon="5.40374">
        <ele>156.63</ele>
        <time>2026-08-06T09:24:14.350Z</time>
      </trkpt>
      <trkpt lat="49.08154" lon="5.40347">
        <ele>156.68</ele>
        <time>2026-08-06T09:24:20.352Z</time>
      </trkpt>
      <trkpt lat="49.08185" lon="5.40321">
        <ele>157</ele>
        <time>2026-08-06T09:24:26.363Z</time>
      </trkpt>
      <trkpt lat="49.08215" lon="5.40296">
        <ele>157.66</ele>
        <time>2026-08-06T09:24:32.359Z</time>
      </trkpt>
      <trkpt lat="49.08246" lon="5.40271">
        <ele>157.97</ele>
        <time>2026-08-06T09:24:38.346Z</time>
      </trkpt>
      <trkpt lat="49.08276" lon="5.40244">
        <ele>157.75</ele>
        <time>2026-08-06T09:24:44.345Z</time>
      </trkpt>
      <trkpt lat="49.08306" lon="5.40218">
        <ele>157.19</ele>
        <time>2026-08-06T09:24:50.345Z</time>
      </trkpt>
      <trkpt lat="49.08334" lon="5.4019">
        <ele>156.04</ele>
        <time>2026-08-06T09:24:56.358Z</time>
      </trkpt>
      <trkpt lat="49.08363" lon="5.40162">
        <ele>156.99</ele>
        <time>2026-08-06T09:25:02.346Z</time>
      </trkpt>
      <trkpt lat="49.08392" lon="5.40132">
        <ele>157.11</ele>
        <time>2026-08-06T09:25:08.349Z</time>
      </trkpt>
      <trkpt lat="49.08421" lon="5.40101">
        <ele>157.09</ele>
        <time>2026-08-06T09:25:14.347Z</time>
      </trkpt>
      <trkpt lat="49.08449" lon="5.40069">
        <ele>156.5</ele>
        <time>2026-08-06T09:25:20.347Z</time>
      </trkpt>
      <trkpt lat="49.08477" lon="5.4004">
        <ele>156.44</ele>
        <time>2026-08-06T09:25:26.346Z</time>
      </trkpt>
      <trkpt lat="49.08506" lon="5.40012">
        <ele>156.27</ele>
        <time>2026-08-06T09:25:32.344Z</time>
      </trkpt>
      <trkpt lat="49.08534" lon="5.39983">
        <ele>157.71</ele>
        <time>2026-08-06T09:25:38.345Z</time>
      </trkpt>
      <trkpt lat="49.08563" lon="5.39953">
        <ele>157.71</ele>
        <time>2026-08-06T09:25:44.349Z</time>
      </trkpt>
      <trkpt lat="49.08592" lon="5.39924">
        <ele>157.73</ele>
        <time>2026-08-06T09:25:50.348Z</time>
      </trkpt>
      <trkpt lat="49.0862" lon="5.39892">
        <ele>156.78</ele>
        <time>2026-08-06T09:25:56.352Z</time>
      </trkpt>
      <trkpt lat="49.08648" lon="5.39861">
        <ele>156.43</ele>
        <time>2026-08-06T09:26:02.355Z</time>
      </trkpt>
      <trkpt lat="49.08675" lon="5.39833">
        <ele>155.79</ele>
        <time>2026-08-06T09:26:08.345Z</time>
      </trkpt>
      <trkpt lat="49.08704" lon="5.39804">
        <ele>154.67</ele>
        <time>2026-08-06T09:26:14.347Z</time>
      </trkpt>
      <trkpt lat="49.08734" lon="5.39775">
        <ele>154.04</ele>
        <time>2026-08-06T09:26:20.348Z</time>
      </trkpt>
      <trkpt lat="49.08764" lon="5.39742">
        <ele>154.59</ele>
        <time>2026-08-06T09:26:26.356Z</time>
      </trkpt>
      <trkpt lat="49.08792" lon="5.39711">
        <ele>153.98</ele>
        <time>2026-08-06T09:26:32.353Z</time>
      </trkpt>
      <trkpt lat="49.08821" lon="5.3968">
        <ele>154.22</ele>
        <time>2026-08-06T09:26:38.345Z</time>
      </trkpt>
      <trkpt lat="49.08849" lon="5.39649">
        <ele>154.36</ele>
        <time>2026-08-06T09:26:44.350Z</time>
      </trkpt>
      <trkpt lat="49.08877" lon="5.3962">
        <ele>153.52</ele>
        <time>2026-08-06T09:26:50.347Z</time>
      </trkpt>
      <trkpt lat="49.08906" lon="5.39591">
        <ele>152.98</ele>
        <time>2026-08-06T09:26:56.351Z</time>
      </trkpt>
      <trkpt lat="49.08934" lon="5.39559">
        <ele>153.96</ele>
        <time>2026-08-06T09:27:02.355Z</time>
      </trkpt>
      <trkpt lat="49.08962" lon="5.39529">
        <ele>153.5</ele>
        <time>2026-08-06T09:27:08.346Z</time>
      </trkpt>
      <trkpt lat="49.0899" lon="5.39499">
        <ele>153.35</ele>
        <time>2026-08-06T09:27:14.344Z</time>
      </trkpt>
      <trkpt lat="49.09018" lon="5.39469">
        <ele>154.43</ele>
        <time>2026-08-06T09:27:20.347Z</time>
      </trkpt>
      <trkpt lat="49.09047" lon="5.3944">
        <ele>155.2</ele>
        <time>2026-08-06T09:27:26.358Z</time>
      </trkpt>
      <trkpt lat="49.09077" lon="5.3941">
        <ele>154.3</ele>
        <time>2026-08-06T09:27:32.353Z</time>
      </trkpt>
      <trkpt lat="49.09106" lon="5.3938">
        <ele>151.33</ele>
        <time>2026-08-06T09:27:38.348Z</time>
      </trkpt>
      <trkpt lat="49.09136" lon="5.39346">
        <ele>151.18</ele>
        <time>2026-08-06T09:27:44.348Z</time>
      </trkpt>
      <trkpt lat="49.09165" lon="5.39313">
        <ele>151.14</ele>
        <time>2026-08-06T09:27:50.353Z</time>
      </trkpt>
      <trkpt lat="49.09194" lon="5.39284">
        <ele>152.4</ele>
        <time>2026-08-06T09:27:56.352Z</time>
      </trkpt>
      <trkpt lat="49.09218" lon="5.39264">
        <ele>153.54</ele>
        <time>2026-08-06T09:28:02.354Z</time>
      </trkpt>
      <trkpt lat="49.09233" lon="5.39271">
        <ele>155.92</ele>
        <time>2026-08-06T09:28:08.351Z</time>
      </trkpt>
      <trkpt lat="49.09258" lon="5.3926">
        <ele>156.22</ele>
        <time>2026-08-06T09:28:14.352Z</time>
      </trkpt>
      <trkpt lat="49.09291" lon="5.39239">
        <ele>155.87</ele>
        <time>2026-08-06T09:28:20.357Z</time>
      </trkpt>
      <trkpt lat="49.09324" lon="5.39218">
        <ele>154.69</ele>
        <time>2026-08-06T09:28:26.352Z</time>
      </trkpt>
      <trkpt lat="49.09354" lon="5.39198">
        <ele>154.05</ele>
        <time>2026-08-06T09:28:32.354Z</time>
      </trkpt>
      <trkpt lat="49.09384" lon="5.39182">
        <ele>153.32</ele>
        <time>2026-08-06T09:28:38.357Z</time>
      </trkpt>
      <trkpt lat="49.09414" lon="5.39166">
        <ele>153.37</ele>
        <time>2026-08-06T09:28:44.358Z</time>
      </trkpt>
      <trkpt lat="49.09446" lon="5.39149">
        <ele>153.66</ele>
        <time>2026-08-06T09:28:50.355Z</time>
      </trkpt>
      <trkpt lat="49.09477" lon="5.39132">
        <ele>153.7</ele>
        <time>2026-08-06T09:28:56.361Z</time>
      </trkpt>
      <trkpt lat="49.09507" lon="5.39116">
        <ele>154.02</ele>
        <time>2026-08-06T09:29:02.357Z</time>
      </trkpt>
      <trkpt lat="49.09531" lon="5.39102">
        <ele>155.23</ele>
        <time>2026-08-06T09:29:08.354Z</time>
      </trkpt>
      <trkpt lat="49.09546" lon="5.39093">
        <ele>156.45</ele>
        <time>2026-08-06T09:29:14.354Z</time>
      </trkpt>
      <trkpt lat="49.09556" lon="5.39096">
        <ele>156.15</ele>
        <time>2026-08-06T09:29:20.356Z</time>
      </trkpt>
      <trkpt lat="49.09553" lon="5.39114">
        <ele>155.96</ele>
        <time>2026-08-06T09:29:26.359Z</time>
      </trkpt>
      <trkpt lat="49.09546" lon="5.39145">
        <ele>155.45</ele>
        <time>2026-08-06T09:29:32.362Z</time>
      </trkpt>
      <trkpt lat="49.09539" lon="5.39184">
        <ele>156.43</ele>
        <time>2026-08-06T09:29:38.353Z</time>
      </trkpt>
      <trkpt lat="49.09546" lon="5.39231">
        <ele>156.09</ele>
        <time>2026-08-06T09:29:44.355Z</time>
      </trkpt>
      <trkpt lat="49.09555" lon="5.39275">
        <ele>154.47</ele>
        <time>2026-08-06T09:29:50.356Z</time>
      </trkpt>
      <trkpt lat="49.09563" lon="5.39321">
        <ele>154.23</ele>
        <time>2026-08-06T09:29:56.353Z</time>
      </trkpt>
      <trkpt lat="49.09571" lon="5.3937">
        <ele>153.42</ele>
        <time>2026-08-06T09:30:02.359Z</time>
      </trkpt>
      <trkpt lat="49.09579" lon="5.39417">
        <ele>153.31</ele>
        <time>2026-08-06T09:30:08.353Z</time>
      </trkpt>
      <trkpt lat="49.09587" lon="5.39466">
        <ele>154.13</ele>
        <time>2026-08-06T09:30:14.354Z</time>
      </trkpt>
      <trkpt lat="49.09599" lon="5.39515">
        <ele>154.89</ele>
        <time>2026-08-06T09:30:20.353Z</time>
      </trkpt>
      <trkpt lat="49.09615" lon="5.39561">
        <ele>155.17</ele>
        <time>2026-08-06T09:30:26.358Z</time>
      </trkpt>
      <trkpt lat="49.09631" lon="5.39607">
        <ele>155.06</ele>
        <time>2026-08-06T09:30:32.358Z</time>
      </trkpt>
      <trkpt lat="49.09649" lon="5.39654">
        <ele>155.36</ele>
        <time>2026-08-06T09:30:38.355Z</time>
      </trkpt>
      <trkpt lat="49.09666" lon="5.39703">
        <ele>155.32</ele>
        <time>2026-08-06T09:30:44.356Z</time>
      </trkpt>
      <trkpt lat="49.09682" lon="5.39747">
        <ele>155.33</ele>
        <time>2026-08-06T09:30:50.354Z</time>
      </trkpt>
      <trkpt lat="49.09692" lon="5.39796">
        <ele>155.43</ele>
        <time>2026-08-06T09:30:56.348Z</time>
      </trkpt>
      <trkpt lat="49.09701" lon="5.39849">
        <ele>155.09</ele>
        <time>2026-08-06T09:31:02.359Z</time>
      </trkpt>
      <trkpt lat="49.0971" lon="5.399">
        <ele>155.24</ele>
        <time>2026-08-06T09:31:08.352Z</time>
      </trkpt>
      <trkpt lat="49.0972" lon="5.39944">
        <ele>154.59</ele>
        <time>2026-08-06T09:31:14.355Z</time>
      </trkpt>
      <trkpt lat="49.09728" lon="5.39992">
        <ele>154.02</ele>
        <time>2026-08-06T09:31:20.352Z</time>
      </trkpt>
      <trkpt lat="49.09737" lon="5.4004">
        <ele>154.41</ele>
        <time>2026-08-06T09:31:26.359Z</time>
      </trkpt>
      <trkpt lat="49.09745" lon="5.40087">
        <ele>155.28</ele>
        <time>2026-08-06T09:31:32.353Z</time>
      </trkpt>
      <trkpt lat="49.09753" lon="5.40133">
        <ele>154.61</ele>
        <time>2026-08-06T09:31:38.348Z</time>
      </trkpt>
      <trkpt lat="49.0976" lon="5.4018">
        <ele>154.84</ele>
        <time>2026-08-06T09:31:44.344Z</time>
      </trkpt>
      <trkpt lat="49.0977" lon="5.40225">
        <ele>154.88</ele>
        <time>2026-08-06T09:31:50.348Z</time>
      </trkpt>
      <trkpt lat="49.09797" lon="5.40242">
        <ele>154.1</ele>
        <time>2026-08-06T09:31:56.358Z</time>
      </trkpt>
      <trkpt lat="49.09827" lon="5.40256">
        <ele>154.64</ele>
        <time>2026-08-06T09:32:02.360Z</time>
      </trkpt>
      <trkpt lat="49.09856" lon="5.40252">
        <ele>156.03</ele>
        <time>2026-08-06T09:32:08.348Z</time>
      </trkpt>
      <trkpt lat="49.09886" lon="5.40241">
        <ele>156.2</ele>
        <time>2026-08-06T09:32:14.348Z</time>
      </trkpt>
      <trkpt lat="49.09917" lon="5.40228">
        <ele>155.72</ele>
        <time>2026-08-06T09:32:20.347Z</time>
      </trkpt>
      <trkpt lat="49.09947" lon="5.40214">
        <ele>155.35</ele>
        <time>2026-08-06T09:32:26.363Z</time>
      </trkpt>
      <trkpt lat="49.09976" lon="5.40201">
        <ele>153.99</ele>
        <time>2026-08-06T09:32:32.353Z</time>
      </trkpt>
      <trkpt lat="49.10005" lon="5.40189">
        <ele>153.16</ele>
        <time>2026-08-06T09:32:38.349Z</time>
      </trkpt>
      <trkpt lat="49.10035" lon="5.40175">
        <ele>153.75</ele>
        <time>2026-08-06T09:32:44.399Z</time>
      </trkpt>
      <trkpt lat="49.10062" lon="5.40166">
        <ele>155.73</ele>
        <time>2026-08-06T09:32:50.341Z</time>
      </trkpt>
      <trkpt lat="49.10092" lon="5.40153">
        <ele>155.35</ele>
        <time>2026-08-06T09:32:56.349Z</time>
      </trkpt>
      <trkpt lat="49.1012" lon="5.4014">
        <ele>153.3</ele>
        <time>2026-08-06T09:33:02.350Z</time>
      </trkpt>
      <trkpt lat="49.1015" lon="5.40126">
        <ele>153.32</ele>
        <time>2026-08-06T09:33:08.349Z</time>
      </trkpt>
      <trkpt lat="49.1018" lon="5.40115">
        <ele>153.75</ele>
        <time>2026-08-06T09:33:14.348Z</time>
      </trkpt>
      <trkpt lat="49.10211" lon="5.40102">
        <ele>154.32</ele>
        <time>2026-08-06T09:33:20.351Z</time>
      </trkpt>
      <trkpt lat="49.10241" lon="5.40088">
        <ele>154.24</ele>
        <time>2026-08-06T09:33:26.337Z</time>
      </trkpt>
      <trkpt lat="49.10269" lon="5.40074">
        <ele>152.59</ele>
        <time>2026-08-06T09:33:32.356Z</time>
      </trkpt>
      <trkpt lat="49.103" lon="5.40061">
        <ele>152.1</ele>
        <time>2026-08-06T09:33:38.352Z</time>
      </trkpt>
      <trkpt lat="49.1033" lon="5.4005">
        <ele>153.47</ele>
        <time>2026-08-06T09:33:44.349Z</time>
      </trkpt>
      <trkpt lat="49.10359" lon="5.40048">
        <ele>154.66</ele>
        <time>2026-08-06T09:33:50.352Z</time>
      </trkpt>
      <trkpt lat="49.10386" lon="5.40045">
        <ele>153.48</ele>
        <time>2026-08-06T09:33:56.361Z</time>
      </trkpt>
      <trkpt lat="49.10416" lon="5.40043">
        <ele>153.75</ele>
        <time>2026-08-06T09:34:02.356Z</time>
      </trkpt>
      <trkpt lat="49.10445" lon="5.40042">
        <ele>154.12</ele>
        <time>2026-08-06T09:34:08.352Z</time>
      </trkpt>
      <trkpt lat="49.10477" lon="5.40039">
        <ele>154.09</ele>
        <time>2026-08-06T09:34:14.346Z</time>
      </trkpt>
      <trkpt lat="49.10496" lon="5.40039">
        <ele>154.26</ele>
        <time>2026-08-06T09:34:20.347Z</time>
      </trkpt>
      <trkpt lat="49.10506" lon="5.40038">
        <ele>153.86</ele>
        <time>2026-08-06T09:35:40.314Z</time>
      </trkpt>
      <trkpt lat="49.10524" lon="5.40036">
        <ele>153.87</ele>
        <time>2026-08-06T09:35:46.285Z</time>
      </trkpt>
      <trkpt lat="49.10543" lon="5.40036">
        <ele>155.08</ele>
        <time>2026-08-06T09:35:51.294Z</time>
      </trkpt>
      <trkpt lat="49.10566" lon="5.40033">
        <ele>155.81</ele>
        <time>2026-08-06T09:35:56.363Z</time>
      </trkpt>
      <trkpt lat="49.10598" lon="5.40032">
        <ele>154.96</ele>
        <time>2026-08-06T09:36:02.354Z</time>
      </trkpt>
      <trkpt lat="49.1063" lon="5.4003">
        <ele>154.63</ele>
        <time>2026-08-06T09:36:08.349Z</time>
      </trkpt>
      <trkpt lat="49.10663" lon="5.40028">
        <ele>156.47</ele>
        <time>2026-08-06T09:36:14.346Z</time>
      </trkpt>
      <trkpt lat="49.10695" lon="5.40024">
        <ele>156.66</ele>
        <time>2026-08-06T09:36:20.347Z</time>
      </trkpt>
      <trkpt lat="49.10729" lon="5.40019">
        <ele>156.27</ele>
        <time>2026-08-06T09:36:26.359Z</time>
      </trkpt>
      <trkpt lat="49.10762" lon="5.40013">
        <ele>156</ele>
        <time>2026-08-06T09:36:32.360Z</time>
      </trkpt>
      <trkpt lat="49.10795" lon="5.4002">
        <ele>154.44</ele>
        <time>2026-08-06T09:36:38.350Z</time>
      </trkpt>
      <trkpt lat="49.10828" lon="5.40041">
        <ele>154.26</ele>
        <time>2026-08-06T09:36:44.348Z</time>
      </trkpt>
      <trkpt lat="49.10862" lon="5.40063">
        <ele>155.9</ele>
        <time>2026-08-06T09:36:50.354Z</time>
      </trkpt>
      <trkpt lat="49.10894" lon="5.40094">
        <ele>155.67</ele>
        <time>2026-08-06T09:36:56.360Z</time>
      </trkpt>
      <trkpt lat="49.10924" lon="5.40128">
        <ele>155.53</ele>
        <time>2026-08-06T09:37:02.360Z</time>
      </trkpt>
      <trkpt lat="49.10953" lon="5.40162">
        <ele>156.15</ele>
        <time>2026-08-06T09:37:08.350Z</time>
      </trkpt>
      <trkpt lat="49.10983" lon="5.40195">
        <ele>156.72</ele>
        <time>2026-08-06T09:37:14.350Z</time>
      </trkpt>
      <trkpt lat="49.11013" lon="5.40228">
        <ele>156.46</ele>
        <time>2026-08-06T09:37:20.351Z</time>
      </trkpt>
      <trkpt lat="49.11041" lon="5.40258">
        <ele>156.06</ele>
        <time>2026-08-06T09:37:26.359Z</time>
      </trkpt>
      <trkpt lat="49.11068" lon="5.40288">
        <ele>155.36</ele>
        <time>2026-08-06T09:37:32.360Z</time>
      </trkpt>
      <trkpt lat="49.11096" lon="5.40316">
        <ele>155.39</ele>
        <time>2026-08-06T09:37:38.358Z</time>
      </trkpt>
      <trkpt lat="49.11123" lon="5.40344">
        <ele>155.94</ele>
        <time>2026-08-06T09:37:44.347Z</time>
      </trkpt>
      <trkpt lat="49.11152" lon="5.40374">
        <ele>156.03</ele>
        <time>2026-08-06T09:37:50.349Z</time>
      </trkpt>
      <trkpt lat="49.1118" lon="5.40403">
        <ele>155.56</ele>
        <time>2026-08-06T09:37:56.357Z</time>
      </trkpt>
      <trkpt lat="49.11203" lon="5.40428">
        <ele>156.28</ele>
        <time>2026-08-06T09:38:02.355Z</time>
      </trkpt>
      <trkpt lat="49.11225" lon="5.40453">
        <ele>156.92</ele>
        <time>2026-08-06T09:38:08.349Z</time>
      </trkpt>
      <trkpt lat="49.11245" lon="5.40473">
        <ele>157.38</ele>
        <time>2026-08-06T09:38:14.348Z</time>
      </trkpt>
      <trkpt lat="49.11264" lon="5.40469">
        <ele>156.41</ele>
        <time>2026-08-06T09:38:20.386Z</time>
      </trkpt>
      <trkpt lat="49.11278" lon="5.40453">
        <ele>155.84</ele>
        <time>2026-08-06T09:38:26.356Z</time>
      </trkpt>
      <trkpt lat="49.11291" lon="5.40441">
        <ele>156.11</ele>
        <time>2026-08-06T09:38:32.379Z</time>
      </trkpt>
      <trkpt lat="49.11308" lon="5.40414">
        <ele>155.56</ele>
        <time>2026-08-06T09:38:38.352Z</time>
      </trkpt>
      <trkpt lat="49.11328" lon="5.40388">
        <ele>154.41</ele>
        <time>2026-08-06T09:38:44.351Z</time>
      </trkpt>
      <trkpt lat="49.11347" lon="5.40358">
        <ele>155.35</ele>
        <time>2026-08-06T09:38:50.350Z</time>
      </trkpt>
      <trkpt lat="49.11367" lon="5.40329">
        <ele>156.15</ele>
        <time>2026-08-06T09:38:56.361Z</time>
      </trkpt>
      <trkpt lat="49.11387" lon="5.40303">
        <ele>156.65</ele>
        <time>2026-08-06T09:39:02.361Z</time>
      </trkpt>
      <trkpt lat="49.11407" lon="5.40276">
        <ele>156.39</ele>
        <time>2026-08-06T09:39:08.345Z</time>
      </trkpt>
      <trkpt lat="49.11429" lon="5.40249">
        <ele>156.08</ele>
        <time>2026-08-06T09:39:14.349Z</time>
      </trkpt>
      <trkpt lat="49.11452" lon="5.40223">
        <ele>156.07</ele>
        <time>2026-08-06T09:39:20.346Z</time>
      </trkpt>
      <trkpt lat="49.11474" lon="5.40196">
        <ele>156.18</ele>
        <time>2026-08-06T09:39:26.362Z</time>
      </trkpt>
      <trkpt lat="49.11497" lon="5.4017">
        <ele>156.3</ele>
        <time>2026-08-06T09:39:32.361Z</time>
      </trkpt>
      <trkpt lat="49.11519" lon="5.40144">
        <ele>156.01</ele>
        <time>2026-08-06T09:39:38.356Z</time>
      </trkpt>
      <trkpt lat="49.11542" lon="5.4012">
        <ele>154.48</ele>
        <time>2026-08-06T09:39:44.350Z</time>
      </trkpt>
      <trkpt lat="49.11563" lon="5.40101">
        <ele>153.43</ele>
        <time>2026-08-06T09:39:50.354Z</time>
      </trkpt>
      <trkpt lat="49.11573" lon="5.40084">
        <ele>153.7</ele>
        <time>2026-08-06T09:39:56.358Z</time>
      </trkpt>
      <trkpt lat="49.11577" lon="5.4007">
        <ele>156.07</ele>
        <time>2026-08-06T09:40:03.294Z</time>
      </trkpt>
      <trkpt lat="49.11585" lon="5.40055">
        <ele>155.51</ele>
        <time>2026-08-06T09:40:08.342Z</time>
      </trkpt>
      <trkpt lat="49.116" lon="5.40036">
        <ele>154.56</ele>
        <time>2026-08-06T09:40:14.354Z</time>
      </trkpt>
      <trkpt lat="49.11618" lon="5.40011">
        <ele>153.36</ele>
        <time>2026-08-06T09:40:20.351Z</time>
      </trkpt>
      <trkpt lat="49.11634" lon="5.39982">
        <ele>151.94</ele>
        <time>2026-08-06T09:40:26.363Z</time>
      </trkpt>
      <trkpt lat="49.1165" lon="5.39951">
        <ele>151.52</ele>
        <time>2026-08-06T09:40:32.358Z</time>
      </trkpt>
      <trkpt lat="49.11666" lon="5.39926">
        <ele>152.75</ele>
        <time>2026-08-06T09:40:38.353Z</time>
      </trkpt>
      <trkpt lat="49.11679" lon="5.39903">
        <ele>152.6</ele>
        <time>2026-08-06T09:40:44.350Z</time>
      </trkpt>
      <trkpt lat="49.11687" lon="5.39888">
        <ele>153.02</ele>
        <time>2026-08-06T09:40:50.354Z</time>
      </trkpt>
      <trkpt lat="49.11698" lon="5.39886">
        <ele>152.55</ele>
        <time>2026-08-06T09:40:56.361Z</time>
      </trkpt>
      <trkpt lat="49.11711" lon="5.39911">
        <ele>151.69</ele>
        <time>2026-08-06T09:41:02.356Z</time>
      </trkpt>
      <trkpt lat="49.11726" lon="5.39935">
        <ele>153.35</ele>
        <time>2026-08-06T09:41:08.350Z</time>
      </trkpt>
      <trkpt lat="49.11741" lon="5.39956">
        <ele>154.95</ele>
        <time>2026-08-06T09:41:14.349Z</time>
      </trkpt>
      <trkpt lat="49.11751" lon="5.39954">
        <ele>157.65</ele>
        <time>2026-08-06T09:41:21.300Z</time>
      </trkpt>
      <trkpt lat="49.11754" lon="5.3994">
        <ele>159.54</ele>
        <time>2026-08-06T09:41:28.293Z</time>
      </trkpt>
      <trkpt lat="49.11757" lon="5.39927">
        <ele>161.3</ele>
        <time>2026-08-06T09:41:37.295Z</time>
      </trkpt>
      <trkpt lat="49.11761" lon="5.39914">
        <ele>162.14</ele>
        <time>2026-08-06T09:41:43.292Z</time>
      </trkpt>
      <trkpt lat="49.11767" lon="5.39902">
        <ele>162.1</ele>
        <time>2026-08-06T09:41:49.294Z</time>
      </trkpt>
      <trkpt lat="49.1177" lon="5.39889">
        <ele>163.05</ele>
        <time>2026-08-06T09:41:57.290Z</time>
      </trkpt>
      <trkpt lat="49.11774" lon="5.39876">
        <ele>164.77</ele>
        <time>2026-08-06T09:42:03.295Z</time>
      </trkpt>
      <trkpt lat="49.1178" lon="5.39864">
        <ele>165.05</ele>
        <time>2026-08-06T09:42:09.295Z</time>
      </trkpt>
      <trkpt lat="49.11786" lon="5.39851">
        <ele>166.07</ele>
        <time>2026-08-06T09:42:15.294Z</time>
      </trkpt>
      <trkpt lat="49.1179" lon="5.39838">
        <ele>167.35</ele>
        <time>2026-08-06T09:42:21.294Z</time>
      </trkpt>
      <trkpt lat="49.11795" lon="5.39827">
        <ele>168.14</ele>
        <time>2026-08-06T09:42:26.360Z</time>
      </trkpt>
      <trkpt lat="49.118" lon="5.39813">
        <ele>168.25</ele>
        <time>2026-08-06T09:42:32.358Z</time>
      </trkpt>
      <trkpt lat="49.11807" lon="5.39798">
        <ele>168.47</ele>
        <time>2026-08-06T09:42:38.357Z</time>
      </trkpt>
      <trkpt lat="49.11814" lon="5.39782">
        <ele>170.27</ele>
        <time>2026-08-06T09:42:44.353Z</time>
      </trkpt>
      <trkpt lat="49.1182" lon="5.39769">
        <ele>170.08</ele>
        <time>2026-08-06T09:43:41.289Z</time>
      </trkpt>
      <trkpt lat="49.11825" lon="5.39753">
        <ele>169.74</ele>
        <time>2026-08-06T09:43:46.296Z</time>
      </trkpt>
      <trkpt lat="49.11832" lon="5.39735">
        <ele>170.43</ele>
        <time>2026-08-06T09:43:51.300Z</time>
      </trkpt>
      <trkpt lat="49.1184" lon="5.39715">
        <ele>171.58</ele>
        <time>2026-08-06T09:43:56.362Z</time>
      </trkpt>
      <trkpt lat="49.1185" lon="5.39691">
        <ele>171.2</ele>
        <time>2026-08-06T09:44:02.362Z</time>
      </trkpt>
      <trkpt lat="49.11856" lon="5.39667">
        <ele>171.16</ele>
        <time>2026-08-06T09:44:08.376Z</time>
      </trkpt>
      <trkpt lat="49.11862" lon="5.39647">
        <ele>173.57</ele>
        <time>2026-08-06T09:44:14.355Z</time>
      </trkpt>
      <trkpt lat="49.11868" lon="5.39623">
        <ele>170.35</ele>
        <time>2026-08-06T09:44:20.358Z</time>
      </trkpt>
      <trkpt lat="49.11876" lon="5.39596">
        <ele>169.55</ele>
        <time>2026-08-06T09:44:26.361Z</time>
      </trkpt>
      <trkpt lat="49.11882" lon="5.39574">
        <ele>168.48</ele>
        <time>2026-08-06T09:44:32.360Z</time>
      </trkpt>
      <trkpt lat="49.11888" lon="5.3955">
        <ele>169.42</ele>
        <time>2026-08-06T09:44:38.356Z</time>
      </trkpt>
      <trkpt lat="49.11895" lon="5.39526">
        <ele>171.03</ele>
        <time>2026-08-06T09:44:44.347Z</time>
      </trkpt>
      <trkpt lat="49.119" lon="5.39502">
        <ele>171.75</ele>
        <time>2026-08-06T09:44:50.356Z</time>
      </trkpt>
      <trkpt lat="49.11905" lon="5.39478">
        <ele>172.91</ele>
        <time>2026-08-06T09:44:56.363Z</time>
      </trkpt>
      <trkpt lat="49.11907" lon="5.39454">
        <ele>171.69</ele>
        <time>2026-08-06T09:45:02.363Z</time>
      </trkpt>
      <trkpt lat="49.11911" lon="5.39433">
        <ele>172.72</ele>
        <time>2026-08-06T09:45:08.358Z</time>
      </trkpt>
      <trkpt lat="49.11915" lon="5.39411">
        <ele>173.24</ele>
        <time>2026-08-06T09:45:14.361Z</time>
      </trkpt>
      <trkpt lat="49.11919" lon="5.39388">
        <ele>173.97</ele>
        <time>2026-08-06T09:45:20.358Z</time>
      </trkpt>
      <trkpt lat="49.11921" lon="5.39365">
        <ele>174.85</ele>
        <time>2026-08-06T09:45:26.359Z</time>
      </trkpt>
      <trkpt lat="49.11924" lon="5.39342">
        <ele>176.45</ele>
        <time>2026-08-06T09:45:32.363Z</time>
      </trkpt>
      <trkpt lat="49.11927" lon="5.39321">
        <ele>177.53</ele>
        <time>2026-08-06T09:45:38.357Z</time>
      </trkpt>
      <trkpt lat="49.11931" lon="5.39299">
        <ele>177.61</ele>
        <time>2026-08-06T09:45:44.355Z</time>
      </trkpt>
      <trkpt lat="49.11944" lon="5.39288">
        <ele>179.41</ele>
        <time>2026-08-06T09:45:50.356Z</time>
      </trkpt>
      <trkpt lat="49.11959" lon="5.39291">
        <ele>179.85</ele>
        <time>2026-08-06T09:45:56.348Z</time>
      </trkpt>
      <trkpt lat="49.11973" lon="5.39298">
        <ele>178.75</ele>
        <time>2026-08-06T09:46:02.360Z</time>
      </trkpt>
      <trkpt lat="49.11988" lon="5.39306">
        <ele>180.17</ele>
        <time>2026-08-06T09:46:08.419Z</time>
      </trkpt>
      <trkpt lat="49.12006" lon="5.39312">
        <ele>181.39</ele>
        <time>2026-08-06T09:46:14.358Z</time>
      </trkpt>
      <trkpt lat="49.1202" lon="5.39319">
        <ele>181.19</ele>
        <time>2026-08-06T09:46:20.371Z</time>
      </trkpt>
      <trkpt lat="49.12036" lon="5.39323">
        <ele>180.04</ele>
        <time>2026-08-06T09:46:26.358Z</time>
      </trkpt>
      <trkpt lat="49.12056" lon="5.39321">
        <ele>178.87</ele>
        <time>2026-08-06T09:46:32.361Z</time>
      </trkpt>
      <trkpt lat="49.12073" lon="5.39322">
        <ele>178.42</ele>
        <time>2026-08-06T09:46:38.355Z</time>
      </trkpt>
      <trkpt lat="49.12092" lon="5.39326">
        <ele>176</ele>
        <time>2026-08-06T09:46:44.354Z</time>
      </trkpt>
      <trkpt lat="49.12114" lon="5.39335">
        <ele>175.48</ele>
        <time>2026-08-06T09:46:50.370Z</time>
      </trkpt>
      <trkpt lat="49.12131" lon="5.39334">
        <ele>176.69</ele>
        <time>2026-08-06T09:46:56.365Z</time>
      </trkpt>
      <trkpt lat="49.12152" lon="5.39335">
        <ele>173.5</ele>
        <time>2026-08-06T09:47:02.365Z</time>
      </trkpt>
      <trkpt lat="49.12176" lon="5.39338">
        <ele>173.37</ele>
        <time>2026-08-06T09:47:08.363Z</time>
      </trkpt>
      <trkpt lat="49.12197" lon="5.39363">
        <ele>175.42</ele>
        <time>2026-08-06T09:47:14.352Z</time>
      </trkpt>
      <trkpt lat="49.12217" lon="5.39394">
        <ele>177.11</ele>
        <time>2026-08-06T09:47:20.359Z</time>
      </trkpt>
      <trkpt lat="49.12237" lon="5.39423">
        <ele>178.64</ele>
        <time>2026-08-06T09:47:26.365Z</time>
      </trkpt>
      <trkpt lat="49.12257" lon="5.39456">
        <ele>180.3</ele>
        <time>2026-08-06T09:47:32.355Z</time>
      </trkpt>
      <trkpt lat="49.12278" lon="5.39493">
        <ele>183.64</ele>
        <time>2026-08-06T09:47:38.352Z</time>
      </trkpt>
      <trkpt lat="49.12298" lon="5.39531">
        <ele>183.88</ele>
        <time>2026-08-06T09:47:44.358Z</time>
      </trkpt>
      <trkpt lat="49.12318" lon="5.3957">
        <ele>183.44</ele>
        <time>2026-08-06T09:47:50.355Z</time>
      </trkpt>
      <trkpt lat="49.1234" lon="5.39611">
        <ele>181.26</ele>
        <time>2026-08-06T09:47:56.354Z</time>
      </trkpt>
      <trkpt lat="49.1236" lon="5.39651">
        <ele>181.78</ele>
        <time>2026-08-06T09:48:02.357Z</time>
      </trkpt>
      <trkpt lat="49.12382" lon="5.39694">
        <ele>179.84</ele>
        <time>2026-08-06T09:48:08.354Z</time>
      </trkpt>
      <trkpt lat="49.1241" lon="5.39735">
        <ele>182.18</ele>
        <time>2026-08-06T09:48:14.352Z</time>
      </trkpt>
      <trkpt lat="49.12441" lon="5.39772">
        <ele>182.24</ele>
        <time>2026-08-06T09:48:20.354Z</time>
      </trkpt>
      <trkpt lat="49.1247" lon="5.39805">
        <ele>180.88</ele>
        <time>2026-08-06T09:48:26.362Z</time>
      </trkpt>
      <trkpt lat="49.12499" lon="5.39839">
        <ele>179.98</ele>
        <time>2026-08-06T09:48:32.361Z</time>
      </trkpt>
      <trkpt lat="49.12527" lon="5.39873">
        <ele>176.53</ele>
        <time>2026-08-06T09:48:38.353Z</time>
      </trkpt>
      <trkpt lat="49.12557" lon="5.39906">
        <ele>175.39</ele>
        <time>2026-08-06T09:48:44.354Z</time>
      </trkpt>
      <trkpt lat="49.12587" lon="5.39936">
        <ele>173.63</ele>
        <time>2026-08-06T09:48:50.356Z</time>
      </trkpt>
      <trkpt lat="49.12619" lon="5.3996">
        <ele>170.8</ele>
        <time>2026-08-06T09:48:56.359Z</time>
      </trkpt>
      <trkpt lat="49.12656" lon="5.39979">
        <ele>168.3</ele>
        <time>2026-08-06T09:49:02.362Z</time>
      </trkpt>
      <trkpt lat="49.127" lon="5.39993">
        <ele>166</ele>
        <time>2026-08-06T09:49:08.355Z</time>
      </trkpt>
      <trkpt lat="49.12748" lon="5.39999">
        <ele>161.56</ele>
        <time>2026-08-06T09:49:14.356Z</time>
      </trkpt>
      <trkpt lat="49.12798" lon="5.40002">
        <ele>158.81</ele>
        <time>2026-08-06T09:49:20.355Z</time>
      </trkpt>
      <trkpt lat="49.12848" lon="5.40007">
        <ele>157.13</ele>
        <time>2026-08-06T09:49:26.365Z</time>
      </trkpt>
      <trkpt lat="49.12897" lon="5.40009">
        <ele>156.07</ele>
        <time>2026-08-06T09:49:32.362Z</time>
      </trkpt>
      <trkpt lat="49.12946" lon="5.40014">
        <ele>154.27</ele>
        <time>2026-08-06T09:49:38.356Z</time>
      </trkpt>
      <trkpt lat="49.12995" lon="5.40017">
        <ele>152.65</ele>
        <time>2026-08-06T09:49:44.359Z</time>
      </trkpt>
      <trkpt lat="49.13041" lon="5.40022">
        <ele>150.21</ele>
        <time>2026-08-06T09:49:50.356Z</time>
      </trkpt>
      <trkpt lat="49.13085" lon="5.40026">
        <ele>148.77</ele>
        <time>2026-08-06T09:49:56.360Z</time>
      </trkpt>
      <trkpt lat="49.13125" lon="5.40028">
        <ele>146.94</ele>
        <time>2026-08-06T09:50:02.359Z</time>
      </trkpt>
      <trkpt lat="49.13167" lon="5.40031">
        <ele>148.1</ele>
        <time>2026-08-06T09:50:08.357Z</time>
      </trkpt>
      <trkpt lat="49.1321" lon="5.40025">
        <ele>149.03</ele>
        <time>2026-08-06T09:50:14.356Z</time>
      </trkpt>
      <trkpt lat="49.13253" lon="5.40022">
        <ele>151.46</ele>
        <time>2026-08-06T09:50:20.356Z</time>
      </trkpt>
      <trkpt lat="49.13284" lon="5.40031">
        <ele>148.55</ele>
        <time>2026-08-06T09:50:26.358Z</time>
      </trkpt>
      <trkpt lat="49.13316" lon="5.40029">
        <ele>148.51</ele>
        <time>2026-08-06T09:50:32.361Z</time>
      </trkpt>
      <trkpt lat="49.13347" lon="5.40032">
        <ele>148.84</ele>
        <time>2026-08-06T09:50:38.354Z</time>
      </trkpt>
      <trkpt lat="49.1338" lon="5.40034">
        <ele>148.78</ele>
        <time>2026-08-06T09:50:44.358Z</time>
      </trkpt>
      <trkpt lat="49.13418" lon="5.40039">
        <ele>146.51</ele>
        <time>2026-08-06T09:50:50.354Z</time>
      </trkpt>
      <trkpt lat="49.13454" lon="5.40042">
        <ele>144.71</ele>
        <time>2026-08-06T09:50:56.359Z</time>
      </trkpt>
      <trkpt lat="49.13491" lon="5.40039">
        <ele>144.63</ele>
        <time>2026-08-06T09:51:02.364Z</time>
      </trkpt>
      <trkpt lat="49.13527" lon="5.40031">
        <ele>145.13</ele>
        <time>2026-08-06T09:51:08.353Z</time>
      </trkpt>
      <trkpt lat="49.13561" lon="5.40019">
        <ele>145.57</ele>
        <time>2026-08-06T09:51:14.360Z</time>
      </trkpt>
      <trkpt lat="49.13595" lon="5.40006">
        <ele>146.44</ele>
        <time>2026-08-06T09:51:20.357Z</time>
      </trkpt>
      <trkpt lat="49.13624" lon="5.39994">
        <ele>147.55</ele>
        <time>2026-08-06T09:51:26.361Z</time>
      </trkpt>
      <trkpt lat="49.13654" lon="5.39982">
        <ele>147.42</ele>
        <time>2026-08-06T09:51:32.358Z</time>
      </trkpt>
      <trkpt lat="49.13686" lon="5.39969">
        <ele>146.32</ele>
        <time>2026-08-06T09:51:38.353Z</time>
      </trkpt>
      <trkpt lat="49.13721" lon="5.39958">
        <ele>148.2</ele>
        <time>2026-08-06T09:51:44.353Z</time>
      </trkpt>
      <trkpt lat="49.13756" lon="5.39946">
        <ele>150.04</ele>
        <time>2026-08-06T09:51:50.352Z</time>
      </trkpt>
      <trkpt lat="49.1379" lon="5.39932">
        <ele>150.12</ele>
        <time>2026-08-06T09:51:56.360Z</time>
      </trkpt>
      <trkpt lat="49.13825" lon="5.3992">
        <ele>149.74</ele>
        <time>2026-08-06T09:52:02.360Z</time>
      </trkpt>
      <trkpt lat="49.13857" lon="5.39905">
        <ele>149.24</ele>
        <time>2026-08-06T09:52:08.360Z</time>
      </trkpt>
      <trkpt lat="49.13889" lon="5.39893">
        <ele>149</ele>
        <time>2026-08-06T09:52:14.355Z</time>
      </trkpt>
      <trkpt lat="49.13917" lon="5.39883">
        <ele>149.21</ele>
        <time>2026-08-06T09:52:20.354Z</time>
      </trkpt>
      <trkpt lat="49.13943" lon="5.39871">
        <ele>148.51</ele>
        <time>2026-08-06T09:52:26.361Z</time>
      </trkpt>
      <trkpt lat="49.13972" lon="5.39861">
        <ele>147.57</ele>
        <time>2026-08-06T09:52:32.358Z</time>
      </trkpt>
      <trkpt lat="49.14002" lon="5.39849">
        <ele>148.23</ele>
        <time>2026-08-06T09:52:38.352Z</time>
      </trkpt>
      <trkpt lat="49.14027" lon="5.3984">
        <ele>150.01</ele>
        <time>2026-08-06T09:52:44.355Z</time>
      </trkpt>
      <trkpt lat="49.14044" lon="5.39838">
        <ele>151.19</ele>
        <time>2026-08-06T09:52:50.355Z</time>
      </trkpt>
      <trkpt lat="49.14054" lon="5.39818">
        <ele>151.27</ele>
        <time>2026-08-06T09:52:56.359Z</time>
      </trkpt>
      <trkpt lat="49.14053" lon="5.39771">
        <ele>151.98</ele>
        <time>2026-08-06T09:53:02.358Z</time>
      </trkpt>
      <trkpt lat="49.14051" lon="5.39712">
        <ele>151.47</ele>
        <time>2026-08-06T09:53:08.358Z</time>
      </trkpt>
      <trkpt lat="49.14049" lon="5.39658">
        <ele>149.91</ele>
        <time>2026-08-06T09:53:14.357Z</time>
      </trkpt>
      <trkpt lat="49.14048" lon="5.39611">
        <ele>150.09</ele>
        <time>2026-08-06T09:53:20.352Z</time>
      </trkpt>
      <trkpt lat="49.14046" lon="5.39564">
        <ele>149.78</ele>
        <time>2026-08-06T09:53:26.357Z</time>
      </trkpt>
      <trkpt lat="49.14043" lon="5.39514">
        <ele>149.13</ele>
        <time>2026-08-06T09:53:32.365Z</time>
      </trkpt>
      <trkpt lat="49.14041" lon="5.39467">
        <ele>150.56</ele>
        <time>2026-08-06T09:53:38.351Z</time>
      </trkpt>
      <trkpt lat="49.14039" lon="5.39421">
        <ele>151.96</ele>
        <time>2026-08-06T09:53:44.353Z</time>
      </trkpt>
      <trkpt lat="49.14035" lon="5.39375">
        <ele>152.8</ele>
        <time>2026-08-06T09:53:50.358Z</time>
      </trkpt>
      <trkpt lat="49.14036" lon="5.3933">
        <ele>153.39</ele>
        <time>2026-08-06T09:53:56.359Z</time>
      </trkpt>
      <trkpt lat="49.14034" lon="5.39283">
        <ele>153.77</ele>
        <time>2026-08-06T09:54:02.350Z</time>
      </trkpt>
      <trkpt lat="49.14033" lon="5.39239">
        <ele>153.34</ele>
        <time>2026-08-06T09:54:08.348Z</time>
      </trkpt>
      <trkpt lat="49.14034" lon="5.39194">
        <ele>153.58</ele>
        <time>2026-08-06T09:54:14.353Z</time>
      </trkpt>
      <trkpt lat="49.1403" lon="5.39148">
        <ele>151.73</ele>
        <time>2026-08-06T09:54:20.355Z</time>
      </trkpt>
      <trkpt lat="49.14028" lon="5.39102">
        <ele>151.5</ele>
        <time>2026-08-06T09:54:26.360Z</time>
      </trkpt>
      <trkpt lat="49.14025" lon="5.39056">
        <ele>151.03</ele>
        <time>2026-08-06T09:54:32.360Z</time>
      </trkpt>
      <trkpt lat="49.14023" lon="5.39012">
        <ele>149.9</ele>
        <time>2026-08-06T09:54:38.354Z</time>
      </trkpt>
      <trkpt lat="49.14022" lon="5.38967">
        <ele>150.47</ele>
        <time>2026-08-06T09:54:44.356Z</time>
      </trkpt>
      <trkpt lat="49.14019" lon="5.3892">
        <ele>151.31</ele>
        <time>2026-08-06T09:54:50.356Z</time>
      </trkpt>
      <trkpt lat="49.14017" lon="5.38874">
        <ele>151.12</ele>
        <time>2026-08-06T09:54:56.358Z</time>
      </trkpt>
      <trkpt lat="49.14017" lon="5.38829">
        <ele>151.43</ele>
        <time>2026-08-06T09:55:02.360Z</time>
      </trkpt>
      <trkpt lat="49.14016" lon="5.38782">
        <ele>151.83</ele>
        <time>2026-08-06T09:55:08.356Z</time>
      </trkpt>
      <trkpt lat="49.14018" lon="5.38735">
        <ele>151.57</ele>
        <time>2026-08-06T09:55:14.355Z</time>
      </trkpt>
      <trkpt lat="49.14024" lon="5.38693">
        <ele>149.69</ele>
        <time>2026-08-06T09:55:20.357Z</time>
      </trkpt>
      <trkpt lat="49.14028" lon="5.38646">
        <ele>149.6</ele>
        <time>2026-08-06T09:55:26.359Z</time>
      </trkpt>
      <trkpt lat="49.14035" lon="5.38602">
        <ele>148.67</ele>
        <time>2026-08-06T09:55:32.361Z</time>
      </trkpt>
      <trkpt lat="49.1404" lon="5.38557">
        <ele>148.88</ele>
        <time>2026-08-06T09:55:38.355Z</time>
      </trkpt>
      <trkpt lat="49.14046" lon="5.38513">
        <ele>149.25</ele>
        <time>2026-08-06T09:55:44.357Z</time>
      </trkpt>
      <trkpt lat="49.14052" lon="5.38467">
        <ele>149.22</ele>
        <time>2026-08-06T09:55:50.352Z</time>
      </trkpt>
      <trkpt lat="49.14059" lon="5.38418">
        <ele>149.96</ele>
        <time>2026-08-06T09:55:56.348Z</time>
      </trkpt>
      <trkpt lat="49.14065" lon="5.38372">
        <ele>150.24</ele>
        <time>2026-08-06T09:56:02.361Z</time>
      </trkpt>
      <trkpt lat="49.14074" lon="5.3833">
        <ele>151.45</ele>
        <time>2026-08-06T09:56:08.354Z</time>
      </trkpt>
      <trkpt lat="49.14084" lon="5.38286">
        <ele>152.7</ele>
        <time>2026-08-06T09:56:14.353Z</time>
      </trkpt>
      <trkpt lat="49.14094" lon="5.38244">
        <ele>154.92</ele>
        <time>2026-08-06T09:56:20.353Z</time>
      </trkpt>
      <trkpt lat="49.14105" lon="5.38201">
        <ele>154.97</ele>
        <time>2026-08-06T09:56:26.360Z</time>
      </trkpt>
      <trkpt lat="49.14116" lon="5.38157">
        <ele>153.71</ele>
        <time>2026-08-06T09:56:32.360Z</time>
      </trkpt>
      <trkpt lat="49.14131" lon="5.38114">
        <ele>151.8</ele>
        <time>2026-08-06T09:56:38.356Z</time>
      </trkpt>
      <trkpt lat="49.14145" lon="5.38077">
        <ele>149.63</ele>
        <time>2026-08-06T09:56:44.359Z</time>
      </trkpt>
      <trkpt lat="49.14162" lon="5.38035">
        <ele>148.64</ele>
        <time>2026-08-06T09:56:50.354Z</time>
      </trkpt>
      <trkpt lat="49.1418" lon="5.37996">
        <ele>148.39</ele>
        <time>2026-08-06T09:56:56.361Z</time>
      </trkpt>
      <trkpt lat="49.14204" lon="5.37969">
        <ele>148.59</ele>
        <time>2026-08-06T09:57:02.359Z</time>
      </trkpt>
      <trkpt lat="49.14234" lon="5.37956">
        <ele>151.83</ele>
        <time>2026-08-06T09:57:08.342Z</time>
      </trkpt>
      <trkpt lat="49.14264" lon="5.37948">
        <ele>153.95</ele>
        <time>2026-08-06T09:57:14.359Z</time>
      </trkpt>
      <trkpt lat="49.14295" lon="5.37937">
        <ele>154.92</ele>
        <time>2026-08-06T09:57:20.354Z</time>
      </trkpt>
      <trkpt lat="49.14323" lon="5.37922">
        <ele>154.76</ele>
        <time>2026-08-06T09:57:26.363Z</time>
      </trkpt>
      <trkpt lat="49.14352" lon="5.37905">
        <ele>153.32</ele>
        <time>2026-08-06T09:57:32.356Z</time>
      </trkpt>
      <trkpt lat="49.14382" lon="5.37887">
        <ele>150.51</ele>
        <time>2026-08-06T09:57:38.351Z</time>
      </trkpt>
      <trkpt lat="49.14411" lon="5.37868">
        <ele>149.11</ele>
        <time>2026-08-06T09:57:44.354Z</time>
      </trkpt>
      <trkpt lat="49.1444" lon="5.3785">
        <ele>148.88</ele>
        <time>2026-08-06T09:57:50.355Z</time>
      </trkpt>
      <trkpt lat="49.14468" lon="5.37825">
        <ele>149.74</ele>
        <time>2026-08-06T09:57:56.360Z</time>
      </trkpt>
      <trkpt lat="49.14495" lon="5.37798">
        <ele>150.71</ele>
        <time>2026-08-06T09:58:02.360Z</time>
      </trkpt>
      <trkpt lat="49.14523" lon="5.37778">
        <ele>151.64</ele>
        <time>2026-08-06T09:58:08.356Z</time>
      </trkpt>
      <trkpt lat="49.14553" lon="5.3776">
        <ele>153.04</ele>
        <time>2026-08-06T09:58:14.354Z</time>
      </trkpt>
      <trkpt lat="49.14582" lon="5.37744">
        <ele>153.81</ele>
        <time>2026-08-06T09:58:20.359Z</time>
      </trkpt>
      <trkpt lat="49.1461" lon="5.37729">
        <ele>153.32</ele>
        <time>2026-08-06T09:58:26.350Z</time>
      </trkpt>
      <trkpt lat="49.14639" lon="5.37715">
        <ele>152.41</ele>
        <time>2026-08-06T09:58:32.360Z</time>
      </trkpt>
      <trkpt lat="49.14669" lon="5.37705">
        <ele>152.4</ele>
        <time>2026-08-06T09:58:38.356Z</time>
      </trkpt>
      <trkpt lat="49.147" lon="5.37697">
        <ele>153.66</ele>
        <time>2026-08-06T09:58:44.354Z</time>
      </trkpt>
      <trkpt lat="49.14731" lon="5.37688">
        <ele>154.1</ele>
        <time>2026-08-06T09:58:50.354Z</time>
      </trkpt>
      <trkpt lat="49.14762" lon="5.37677">
        <ele>153.04</ele>
        <time>2026-08-06T09:58:56.361Z</time>
      </trkpt>
      <trkpt lat="49.14792" lon="5.37659">
        <ele>152.39</ele>
        <time>2026-08-06T09:59:02.358Z</time>
      </trkpt>
      <trkpt lat="49.14822" lon="5.37644">
        <ele>152.88</ele>
        <time>2026-08-06T09:59:08.353Z</time>
      </trkpt>
      <trkpt lat="49.14853" lon="5.37636">
        <ele>153.67</ele>
        <time>2026-08-06T09:59:14.356Z</time>
      </trkpt>
      <trkpt lat="49.14883" lon="5.37631">
        <ele>155.86</ele>
        <time>2026-08-06T09:59:20.354Z</time>
      </trkpt>
      <trkpt lat="49.14915" lon="5.3763">
        <ele>156.9</ele>
        <time>2026-08-06T09:59:26.361Z</time>
      </trkpt>
      <trkpt lat="49.14946" lon="5.37632">
        <ele>156.15</ele>
        <time>2026-08-06T09:59:32.360Z</time>
      </trkpt>
      <trkpt lat="49.14969" lon="5.3766">
        <ele>154.9</ele>
        <time>2026-08-06T09:59:38.295Z</time>
      </trkpt>
      <trkpt lat="49.14988" lon="5.377">
        <ele>154.89</ele>
        <time>2026-08-06T09:59:44.295Z</time>
      </trkpt>
      <trkpt lat="49.15006" lon="5.37729">
        <ele>154.45</ele>
        <time>2026-08-06T09:59:49.300Z</time>
      </trkpt>
      <trkpt lat="49.15021" lon="5.37761">
        <ele>152.64</ele>
        <time>2026-08-06T09:59:54.313Z</time>
      </trkpt>
      <trkpt lat="49.15038" lon="5.378">
        <ele>153.82</ele>
        <time>2026-08-06T10:00:00.298Z</time>
      </trkpt>
      <trkpt lat="49.15051" lon="5.37835">
        <ele>151.98</ele>
        <time>2026-08-06T10:00:06.296Z</time>
      </trkpt>
      <trkpt lat="49.15061" lon="5.3787">
        <ele>149.98</ele>
        <time>2026-08-06T10:00:11.349Z</time>
      </trkpt>
      <trkpt lat="49.15074" lon="5.37904">
        <ele>149.3</ele>
        <time>2026-08-06T10:00:16.607Z</time>
      </trkpt>
      <trkpt lat="49.15087" lon="5.37945">
        <ele>149.33</ele>
        <time>2026-08-06T10:00:22.376Z</time>
      </trkpt>
      <trkpt lat="49.15102" lon="5.37988">
        <ele>148.47</ele>
        <time>2026-08-06T10:00:28.445Z</time>
      </trkpt>
      <trkpt lat="49.15115" lon="5.3803">
        <ele>147.47</ele>
        <time>2026-08-06T10:00:34.328Z</time>
      </trkpt>
      <trkpt lat="49.15125" lon="5.38071">
        <ele>146.76</ele>
        <time>2026-08-06T10:00:40.295Z</time>
      </trkpt>
      <trkpt lat="49.15135" lon="5.38108">
        <ele>144.57</ele>
        <time>2026-08-06T10:00:45.319Z</time>
      </trkpt>
      <trkpt lat="49.1515" lon="5.3815">
        <ele>145.22</ele>
        <time>2026-08-06T10:00:51.291Z</time>
      </trkpt>
      <trkpt lat="49.15163" lon="5.38188">
        <ele>146.57</ele>
        <time>2026-08-06T10:00:56.360Z</time>
      </trkpt>
      <trkpt lat="49.15177" lon="5.38232">
        <ele>147.25</ele>
        <time>2026-08-06T10:01:02.351Z</time>
      </trkpt>
      <trkpt lat="49.15193" lon="5.38269">
        <ele>148.35</ele>
        <time>2026-08-06T10:01:08.299Z</time>
      </trkpt>
      <trkpt lat="49.15212" lon="5.38301">
        <ele>150.5</ele>
        <time>2026-08-06T10:01:14.297Z</time>
      </trkpt>
      <trkpt lat="49.15228" lon="5.38323">
        <ele>151.22</ele>
        <time>2026-08-06T10:01:19.302Z</time>
      </trkpt>
      <trkpt lat="49.15248" lon="5.38343">
        <ele>150.61</ele>
        <time>2026-08-06T10:01:25.292Z</time>
      </trkpt>
      <trkpt lat="49.15265" lon="5.38358">
        <ele>150.34</ele>
        <time>2026-08-06T10:01:30.303Z</time>
      </trkpt>
      <trkpt lat="49.15286" lon="5.38371">
        <ele>149.72</ele>
        <time>2026-08-06T10:01:35.327Z</time>
      </trkpt>
      <trkpt lat="49.15308" lon="5.38381">
        <ele>147.23</ele>
        <time>2026-08-06T10:01:41.294Z</time>
      </trkpt>
      <trkpt lat="49.15327" lon="5.38389">
        <ele>145.24</ele>
        <time>2026-08-06T10:01:46.300Z</time>
      </trkpt>
      <trkpt lat="49.15338" lon="5.38392">
        <ele>146.78</ele>
        <time>2026-08-06T10:01:52.293Z</time>
      </trkpt>
      <trkpt lat="49.15368" lon="5.38385">
        <ele>146</ele>
        <time>2026-08-06T10:01:57.295Z</time>
      </trkpt>
      <trkpt lat="49.15363" lon="5.38407">
        <ele>201.89</ele>
        <time>2026-08-06T10:02:02.353Z</time>
      </trkpt>
      <trkpt lat="49.15376" lon="5.38423">
        <ele>216.51</ele>
        <time>2026-08-06T10:02:08.302Z</time>
      </trkpt>
      <trkpt lat="49.15394" lon="5.38434">
        <ele>216.74</ele>
        <time>2026-08-06T10:02:14.302Z</time>
      </trkpt>
      <trkpt lat="49.15414" lon="5.38454">
        <ele>198.12</ele>
        <time>2026-08-06T10:02:20.300Z</time>
      </trkpt>
      <trkpt lat="49.15434" lon="5.38469">
        <ele>198.04</ele>
        <time>2026-08-06T10:02:26.363Z</time>
      </trkpt>
      <trkpt lat="49.15453" lon="5.38479">
        <ele>198.04</ele>
        <time>2026-08-06T10:02:32.364Z</time>
      </trkpt>
      <trkpt lat="49.15474" lon="5.38491">
        <ele>201.14</ele>
        <time>2026-08-06T10:02:38.302Z</time>
      </trkpt>
      <trkpt lat="49.15486" lon="5.38498">
        <ele>201.34</ele>
        <time>2026-08-06T10:02:44.400Z</time>
      </trkpt>
      <trkpt lat="49.15478" lon="5.38492">
        <ele>198.84</ele>
        <time>2026-08-06T10:03:09.292Z</time>
      </trkpt>
      <trkpt lat="49.15463" lon="5.38485">
        <ele>198.84</ele>
        <time>2026-08-06T10:03:14.310Z</time>
      </trkpt>
      <trkpt lat="49.15439" lon="5.38472">
        <ele>198.84</ele>
        <time>2026-08-06T10:03:20.312Z</time>
      </trkpt>
      <trkpt lat="49.15423" lon="5.38471">
        <ele>198.84</ele>
        <time>2026-08-06T10:03:26.359Z</time>
      </trkpt>
      <trkpt lat="49.15415" lon="5.38493">
        <ele>200.54</ele>
        <time>2026-08-06T10:03:32.360Z</time>
      </trkpt>
      <trkpt lat="49.15411" lon="5.38511">
        <ele>200.54</ele>
        <time>2026-08-06T10:03:38.326Z</time>
      </trkpt>
      <trkpt lat="49.15399" lon="5.38504">
        <ele>198.85</ele>
        <time>2026-08-06T10:03:44.306Z</time>
      </trkpt>
      <trkpt lat="49.15407" lon="5.38514">
        <ele>198.75</ele>
        <time>2026-08-06T10:04:20.310Z</time>
      </trkpt>
      <trkpt lat="49.15416" lon="5.38538">
        <ele>198.74</ele>
        <time>2026-08-06T10:04:26.361Z</time>
      </trkpt>
      <trkpt lat="49.15429" lon="5.38564">
        <ele>198.74</ele>
        <time>2026-08-06T10:04:32.424Z</time>
      </trkpt>
      <trkpt lat="49.15441" lon="5.38589">
        <ele>198.74</ele>
        <time>2026-08-06T10:04:38.511Z</time>
      </trkpt>
      <trkpt lat="49.15453" lon="5.38613">
        <ele>198.74</ele>
        <time>2026-08-06T10:04:44.309Z</time>
      </trkpt>
      <trkpt lat="49.15467" lon="5.38641">
        <ele>198.84</ele>
        <time>2026-08-06T10:04:50.301Z</time>
      </trkpt>
      <trkpt lat="49.15485" lon="5.38642">
        <ele>198.84</ele>
        <time>2026-08-06T10:04:56.359Z</time>
      </trkpt>
      <trkpt lat="49.15504" lon="5.38647">
        <ele>198.84</ele>
        <time>2026-08-06T10:05:02.351Z</time>
      </trkpt>
      <trkpt lat="49.15522" lon="5.38663">
        <ele>198.84</ele>
        <time>2026-08-06T10:05:08.305Z</time>
      </trkpt>
      <trkpt lat="49.15536" lon="5.38663">
        <ele>198.84</ele>
        <time>2026-08-06T10:05:14.301Z</time>
      </trkpt>
      <trkpt lat="49.15549" lon="5.38658">
        <ele>199.14</ele>
        <time>2026-08-06T10:05:20.334Z</time>
      </trkpt>
      <trkpt lat="49.15565" lon="5.38661">
        <ele>199.14</ele>
        <time>2026-08-06T10:05:26.368Z</time>
      </trkpt>
      <trkpt lat="49.15577" lon="5.38663">
        <ele>199.14</ele>
        <time>2026-08-06T10:05:32.348Z</time>
      </trkpt>
      <trkpt lat="49.15581" lon="5.38645">
        <ele>198.69</ele>
        <time>2026-08-06T10:05:37.828Z</time>
      </trkpt>
      <trkpt lat="49.15584" lon="5.38624">
        <ele>198.54</ele>
        <time>2026-08-06T10:05:43.287Z</time>
      </trkpt>
      <trkpt lat="49.15584" lon="5.38607">
        <ele>198.54</ele>
        <time>2026-08-06T10:05:48.302Z</time>
      </trkpt>
      <trkpt lat="49.15583" lon="5.38593">
        <ele>198.74</ele>
        <time>2026-08-06T10:06:24.288Z</time>
      </trkpt>
      <trkpt lat="49.15592" lon="5.3858">
        <ele>198.64</ele>
        <time>2026-08-06T10:06:29.295Z</time>
      </trkpt>
      <trkpt lat="49.15602" lon="5.38596">
        <ele>198.64</ele>
        <time>2026-08-06T10:06:34.309Z</time>
      </trkpt>
      <trkpt lat="49.15618" lon="5.38614">
        <ele>198.64</ele>
        <time>2026-08-06T10:06:40.290Z</time>
      </trkpt>
      <trkpt lat="49.15632" lon="5.38624">
        <ele>198.64</ele>
        <time>2026-08-06T10:06:45.295Z</time>
      </trkpt>
      <trkpt lat="49.15645" lon="5.38631">
        <ele>198.54</ele>
        <time>2026-08-06T10:06:50.317Z</time>
      </trkpt>
      <trkpt lat="49.15658" lon="5.38647">
        <ele>198.54</ele>
        <time>2026-08-06T10:06:56.370Z</time>
      </trkpt>
      <trkpt lat="49.15675" lon="5.38662">
        <ele>198.61</ele>
        <time>2026-08-06T10:07:02.263Z</time>
      </trkpt>
      <trkpt lat="49.1569" lon="5.38676">
        <ele>198.64</ele>
        <time>2026-08-06T10:07:07.297Z</time>
      </trkpt>
      <trkpt lat="49.15711" lon="5.3868">
        <ele>198.64</ele>
        <time>2026-08-06T10:07:13.286Z</time>
      </trkpt>
      <trkpt lat="49.15736" lon="5.38678">
        <ele>198.64</ele>
        <time>2026-08-06T10:07:18.288Z</time>
      </trkpt>
      <trkpt lat="49.15757" lon="5.38673">
        <ele>198.64</ele>
        <time>2026-08-06T10:07:23.305Z</time>
      </trkpt>
      <trkpt lat="49.1577" lon="5.38673">
        <ele>199.14</ele>
        <time>2026-08-06T10:07:29.306Z</time>
      </trkpt>
      <trkpt lat="49.15783" lon="5.38668">
        <ele>199.14</ele>
        <time>2026-08-06T10:07:35.283Z</time>
      </trkpt>
      <trkpt lat="49.15796" lon="5.38659">
        <ele>199.14</ele>
        <time>2026-08-06T10:07:40.316Z</time>
      </trkpt>
      <trkpt lat="49.15807" lon="5.38648">
        <ele>199.14</ele>
        <time>2026-08-06T10:07:46.286Z</time>
      </trkpt>
      <trkpt lat="49.15813" lon="5.38634">
        <ele>199.14</ele>
        <time>2026-08-06T10:07:52.287Z</time>
      </trkpt>
      <trkpt lat="49.15805" lon="5.38613">
        <ele>199.14</ele>
        <time>2026-08-06T10:07:57.296Z</time>
      </trkpt>
      <trkpt lat="49.15795" lon="5.38594">
        <ele>199.14</ele>
        <time>2026-08-06T10:08:02.368Z</time>
      </trkpt>
      <trkpt lat="49.15783" lon="5.38564">
        <ele>199.14</ele>
        <time>2026-08-06T10:08:08.315Z</time>
      </trkpt>
      <trkpt lat="49.15772" lon="5.38527">
        <ele>200.03</ele>
        <time>2026-08-06T10:08:14.320Z</time>
      </trkpt>
      <trkpt lat="49.15765" lon="5.38496">
        <ele>200.04</ele>
        <time>2026-08-06T10:08:20.326Z</time>
      </trkpt>
      <trkpt lat="49.15783" lon="5.38479">
        <ele>200.04</ele>
        <time>2026-08-06T10:08:26.348Z</time>
      </trkpt>
      <trkpt lat="49.15805" lon="5.38465">
        <ele>200.04</ele>
        <time>2026-08-06T10:08:32.354Z</time>
      </trkpt>
      <trkpt lat="49.15831" lon="5.38444">
        <ele>198.65</ele>
        <time>2026-08-06T10:08:38.327Z</time>
      </trkpt>
      <trkpt lat="49.15848" lon="5.38438">
        <ele>199.02</ele>
        <time>2026-08-06T10:08:44.143Z</time>
      </trkpt>
      <trkpt lat="49.15862" lon="5.38427">
        <ele>199.14</ele>
        <time>2026-08-06T10:08:49.293Z</time>
      </trkpt>
      <trkpt lat="49.15872" lon="5.38429">
        <ele>199.14</ele>
        <time>2026-08-06T10:08:54.304Z</time>
      </trkpt>
      <trkpt lat="49.15864" lon="5.38409">
        <ele>199.14</ele>
        <time>2026-08-06T10:09:00.302Z</time>
      </trkpt>
      <trkpt lat="49.15856" lon="5.38384">
        <ele>199.14</ele>
        <time>2026-08-06T10:09:05.304Z</time>
      </trkpt>
      <trkpt lat="49.15845" lon="5.38362">
        <ele>199.14</ele>
        <time>2026-08-06T10:09:10.304Z</time>
      </trkpt>
      <trkpt lat="49.15843" lon="5.38338">
        <ele>199.14</ele>
        <time>2026-08-06T10:09:16.296Z</time>
      </trkpt>
      <trkpt lat="49.15858" lon="5.38327">
        <ele>199.14</ele>
        <time>2026-08-06T10:09:21.297Z</time>
      </trkpt>
      <trkpt lat="49.15873" lon="5.38309">
        <ele>199.14</ele>
        <time>2026-08-06T10:09:26.359Z</time>
      </trkpt>
      <trkpt lat="49.15877" lon="5.38289">
        <ele>201.14</ele>
        <time>2026-08-06T10:09:32.365Z</time>
      </trkpt>
      <trkpt lat="49.15871" lon="5.3827">
        <ele>201.14</ele>
        <time>2026-08-06T10:09:38.319Z</time>
      </trkpt>
      <trkpt lat="49.15862" lon="5.38239">
        <ele>201.14</ele>
        <time>2026-08-06T10:09:44.312Z</time>
      </trkpt>
      <trkpt lat="49.15854" lon="5.3821">
        <ele>200.44</ele>
        <time>2026-08-06T10:09:50.322Z</time>
      </trkpt>
      <trkpt lat="49.15852" lon="5.3819">
        <ele>200.44</ele>
        <time>2026-08-06T10:09:56.364Z</time>
      </trkpt>
      <trkpt lat="49.15846" lon="5.3817">
        <ele>200.44</ele>
        <time>2026-08-06T10:10:02.359Z</time>
      </trkpt>
      <trkpt lat="49.15843" lon="5.38148">
        <ele>200.89</ele>
        <time>2026-08-06T10:10:08.317Z</time>
      </trkpt>
      <trkpt lat="49.15844" lon="5.38125">
        <ele>201.04</ele>
        <time>2026-08-06T10:10:13.328Z</time>
      </trkpt>
      <trkpt lat="49.15841" lon="5.3811">
        <ele>201.04</ele>
        <time>2026-08-06T10:10:19.285Z</time>
      </trkpt>
      <trkpt lat="49.15836" lon="5.38084">
        <ele>201.14</ele>
        <time>2026-08-06T10:10:24.292Z</time>
      </trkpt>
      <trkpt lat="49.15837" lon="5.38062">
        <ele>201.14</ele>
        <time>2026-08-06T10:10:29.296Z</time>
      </trkpt>
      <trkpt lat="49.15832" lon="5.38029">
        <ele>201.14</ele>
        <time>2026-08-06T10:10:34.297Z</time>
      </trkpt>
      <trkpt lat="49.15822" lon="5.37991">
        <ele>201.14</ele>
        <time>2026-08-06T10:10:39.297Z</time>
      </trkpt>
      <trkpt lat="49.1581" lon="5.37955">
        <ele>200.46</ele>
        <time>2026-08-06T10:10:44.316Z</time>
      </trkpt>
      <trkpt lat="49.15802" lon="5.37926">
        <ele>200.44</ele>
        <time>2026-08-06T10:10:50.331Z</time>
      </trkpt>
      <trkpt lat="49.15803" lon="5.37906">
        <ele>200.44</ele>
        <time>2026-08-06T10:10:56.346Z</time>
      </trkpt>
      <trkpt lat="49.15811" lon="5.3792">
        <ele>200.64</ele>
        <time>2026-08-06T10:11:02.350Z</time>
      </trkpt>
      <trkpt lat="49.15811" lon="5.37946">
        <ele>200.64</ele>
        <time>2026-08-06T10:11:08.320Z</time>
      </trkpt>
      <trkpt lat="49.15817" lon="5.37965">
        <ele>200.64</ele>
        <time>2026-08-06T10:11:14.320Z</time>
      </trkpt>
      <trkpt lat="49.15822" lon="5.37981">
        <ele>200.64</ele>
        <time>2026-08-06T10:11:20.336Z</time>
      </trkpt>
      <trkpt lat="49.15832" lon="5.37969">
        <ele>200.34</ele>
        <time>2026-08-06T10:11:26.353Z</time>
      </trkpt>
      <trkpt lat="49.15825" lon="5.37951">
        <ele>200.34</ele>
        <time>2026-08-06T10:11:32.368Z</time>
      </trkpt>
      <trkpt lat="49.15828" lon="5.37937">
        <ele>200.34</ele>
        <time>2026-08-06T10:11:38.355Z</time>
      </trkpt>
      <trkpt lat="49.15827" lon="5.37922">
        <ele>200.34</ele>
        <time>2026-08-06T10:11:44.333Z</time>
      </trkpt>
      <trkpt lat="49.15824" lon="5.37907">
        <ele>200.34</ele>
        <time>2026-08-06T10:11:51.287Z</time>
      </trkpt>
      <trkpt lat="49.15822" lon="5.37892">
        <ele>200.34</ele>
        <time>2026-08-06T10:11:58.303Z</time>
      </trkpt>
      <trkpt lat="49.1582" lon="5.37878">
        <ele>200.34</ele>
        <time>2026-08-06T10:12:04.291Z</time>
      </trkpt>
      <trkpt lat="49.15819" lon="5.37864">
        <ele>200.34</ele>
        <time>2026-08-06T10:12:10.307Z</time>
      </trkpt>
      <trkpt lat="49.15815" lon="5.37847">
        <ele>200.35</ele>
        <time>2026-08-06T10:12:16.327Z</time>
      </trkpt>
      <trkpt lat="49.15819" lon="5.37833">
        <ele>200.35</ele>
        <time>2026-08-06T10:12:22.296Z</time>
      </trkpt>
      <trkpt lat="49.15827" lon="5.37822">
        <ele>200.35</ele>
        <time>2026-08-06T10:12:27.300Z</time>
      </trkpt>
      <trkpt lat="49.15836" lon="5.37809">
        <ele>200.35</ele>
        <time>2026-08-06T10:12:32.371Z</time>
      </trkpt>
      <trkpt lat="49.15848" lon="5.37791">
        <ele>200.35</ele>
        <time>2026-08-06T10:12:38.322Z</time>
      </trkpt>
      <trkpt lat="49.15865" lon="5.37776">
        <ele>200.35</ele>
        <time>2026-08-06T10:12:44.322Z</time>
      </trkpt>
      <trkpt lat="49.15879" lon="5.37763">
        <ele>170.65</ele>
        <time>2026-08-06T10:12:50.327Z</time>
      </trkpt>
      <trkpt lat="49.15896" lon="5.37751">
        <ele>225.23</ele>
        <time>2026-08-06T10:12:56.360Z</time>
      </trkpt>
      <trkpt lat="49.15914" lon="5.37748">
        <ele>225.25</ele>
        <time>2026-08-06T10:13:02.371Z</time>
      </trkpt>
      <trkpt lat="49.15932" lon="5.37742">
        <ele>225.25</ele>
        <time>2026-08-06T10:13:08.320Z</time>
      </trkpt>
      <trkpt lat="49.15957" lon="5.37741">
        <ele>225.25</ele>
        <time>2026-08-06T10:13:14.337Z</time>
      </trkpt>
      <trkpt lat="49.15982" lon="5.37744">
        <ele>225.25</ele>
        <time>2026-08-06T10:13:20.326Z</time>
      </trkpt>
      <trkpt lat="49.16006" lon="5.37758">
        <ele>216.43</ele>
        <time>2026-08-06T10:13:26.366Z</time>
      </trkpt>
      <trkpt lat="49.1603" lon="5.37758">
        <ele>215.84</ele>
        <time>2026-08-06T10:13:32.357Z</time>
      </trkpt>
      <trkpt lat="49.1605" lon="5.37771">
        <ele>215.84</ele>
        <time>2026-08-06T10:13:38.321Z</time>
      </trkpt>
      <trkpt lat="49.1607" lon="5.37782">
        <ele>215.84</ele>
        <time>2026-08-06T10:13:44.330Z</time>
      </trkpt>
      <trkpt lat="49.16084" lon="5.37793">
        <ele>216.54</ele>
        <time>2026-08-06T10:13:50.326Z</time>
      </trkpt>
      <trkpt lat="49.16079" lon="5.37805">
        <ele>216.54</ele>
        <time>2026-08-06T10:13:57.292Z</time>
      </trkpt>
      <trkpt lat="49.1607" lon="5.3781">
        <ele>216.54</ele>
        <time>2026-08-06T10:14:02.360Z</time>
      </trkpt>
      <trkpt lat="49.16058" lon="5.37817">
        <ele>216.54</ele>
        <time>2026-08-06T10:14:08.317Z</time>
      </trkpt>
      <trkpt lat="49.16049" lon="5.37818">
        <ele>216.54</ele>
        <time>2026-08-06T10:14:14.328Z</time>
      </trkpt>
      <trkpt lat="49.16037" lon="5.37821">
        <ele>216.54</ele>
        <time>2026-08-06T10:14:20.332Z</time>
      </trkpt>
      <trkpt lat="49.16026" lon="5.37825">
        <ele>219.39</ele>
        <time>2026-08-06T10:14:26.361Z</time>
      </trkpt>
      <trkpt lat="49.16016" lon="5.37818">
        <ele>220.34</ele>
        <time>2026-08-06T10:14:33.294Z</time>
      </trkpt>
      <trkpt lat="49.16007" lon="5.37821">
        <ele>220.34</ele>
        <time>2026-08-06T10:14:38.337Z</time>
      </trkpt>
      <trkpt lat="49.15996" lon="5.37822">
        <ele>220.34</ele>
        <time>2026-08-06T10:14:45.295Z</time>
      </trkpt>
      <trkpt lat="49.15986" lon="5.37823">
        <ele>225.24</ele>
        <time>2026-08-06T10:14:50.338Z</time>
      </trkpt>
      <trkpt lat="49.15975" lon="5.37824">
        <ele>225.24</ele>
        <time>2026-08-06T10:14:56.356Z</time>
      </trkpt>
      <trkpt lat="49.15964" lon="5.37828">
        <ele>225.84</ele>
        <time>2026-08-06T10:15:02.355Z</time>
      </trkpt>
      <trkpt lat="49.15953" lon="5.37839">
        <ele>225.84</ele>
        <time>2026-08-06T10:15:08.341Z</time>
      </trkpt>
      <trkpt lat="49.15948" lon="5.37864">
        <ele>225.84</ele>
        <time>2026-08-06T10:15:14.343Z</time>
      </trkpt>
      <trkpt lat="49.15952" lon="5.3789">
        <ele>226.88</ele>
        <time>2026-08-06T10:15:20.343Z</time>
      </trkpt>
      <trkpt lat="49.15959" lon="5.37899">
        <ele>226.94</ele>
        <time>2026-08-06T10:15:26.360Z</time>
      </trkpt>
      <trkpt lat="49.15968" lon="5.37914">
        <ele>227.94</ele>
        <time>2026-08-06T10:15:32.363Z</time>
      </trkpt>
      <trkpt lat="49.15979" lon="5.37924">
        <ele>227.94</ele>
        <time>2026-08-06T10:15:38.345Z</time>
      </trkpt>
      <trkpt lat="49.15986" lon="5.37939">
        <ele>228.04</ele>
        <time>2026-08-06T10:15:44.342Z</time>
      </trkpt>
      <trkpt lat="49.15987" lon="5.37953">
        <ele>228.94</ele>
        <time>2026-08-06T10:15:54.293Z</time>
      </trkpt>
      <trkpt lat="49.15985" lon="5.37968">
        <ele>229.14</ele>
        <time>2026-08-06T10:16:02.356Z</time>
      </trkpt>
      <trkpt lat="49.15996" lon="5.37965">
        <ele>229.04</ele>
        <time>2026-08-06T10:16:13.303Z</time>
      </trkpt>
      <trkpt lat="49.15987" lon="5.37962">
        <ele>229.04</ele>
        <time>2026-08-06T10:16:40.288Z</time>
      </trkpt>
      <trkpt lat="49.15997" lon="5.37972">
        <ele>229.04</ele>
        <time>2026-08-06T10:17:02.374Z</time>
      </trkpt>
      <trkpt lat="49.16012" lon="5.38002">
        <ele>228.94</ele>
        <time>2026-08-06T10:17:08.351Z</time>
      </trkpt>
      <trkpt lat="49.16029" lon="5.38047">
        <ele>228.94</ele>
        <time>2026-08-06T10:17:14.357Z</time>
      </trkpt>
      <trkpt lat="49.16045" lon="5.3811">
        <ele>228.94</ele>
        <time>2026-08-06T10:17:20.364Z</time>
      </trkpt>
      <trkpt lat="49.16055" lon="5.38154">
        <ele>228.94</ele>
        <time>2026-08-06T10:17:26.364Z</time>
      </trkpt>
      <trkpt lat="49.16037" lon="5.38174">
        <ele>228.94</ele>
        <time>2026-08-06T10:17:32.368Z</time>
      </trkpt>
      <trkpt lat="49.16021" lon="5.38179">
        <ele>228.94</ele>
        <time>2026-08-06T10:17:38.364Z</time>
      </trkpt>
      <trkpt lat="49.16011" lon="5.3818">
        <ele>228.94</ele>
        <time>2026-08-06T10:17:45.310Z</time>
      </trkpt>
      <trkpt lat="49.16004" lon="5.38164">
        <ele>223.15</ele>
        <time>2026-08-06T10:17:50.367Z</time>
      </trkpt>
      <trkpt lat="49.15995" lon="5.3816">
        <ele>223.14</ele>
        <time>2026-08-06T10:17:56.368Z</time>
      </trkpt>
      <trkpt lat="49.15984" lon="5.38173">
        <ele>223.14</ele>
        <time>2026-08-06T10:18:02.381Z</time>
      </trkpt>
      <trkpt lat="49.1597" lon="5.3818">
        <ele>224.79</ele>
        <time>2026-08-06T10:18:08.352Z</time>
      </trkpt>
      <trkpt lat="49.15968" lon="5.38198">
        <ele>225.34</ele>
        <time>2026-08-06T10:18:18.286Z</time>
      </trkpt>
      <trkpt lat="49.15972" lon="5.38211">
        <ele>225.34</ele>
        <time>2026-08-06T10:18:23.305Z</time>
      </trkpt>
      <trkpt lat="49.15981" lon="5.38207">
        <ele>225.54</ele>
        <time>2026-08-06T10:20:23.294Z</time>
      </trkpt>
      <trkpt lat="49.15963" lon="5.38188">
        <ele>225.51</ele>
        <time>2026-08-06T10:20:43.301Z</time>
      </trkpt>
      <trkpt lat="49.15955" lon="5.38166">
        <ele>225.54</ele>
        <time>2026-08-06T10:20:49.297Z</time>
      </trkpt>
      <trkpt lat="49.15951" lon="5.38151">
        <ele>225.54</ele>
        <time>2026-08-06T10:20:54.301Z</time>
      </trkpt>
      <trkpt lat="49.15939" lon="5.38138">
        <ele>225.54</ele>
        <time>2026-08-06T10:21:20.353Z</time>
      </trkpt>
      <trkpt lat="49.15923" lon="5.38142">
        <ele>225.84</ele>
        <time>2026-08-06T10:21:42.302Z</time>
      </trkpt>
      <trkpt lat="49.15932" lon="5.38137">
        <ele>225.84</ele>
        <time>2026-08-06T10:22:31.295Z</time>
      </trkpt>
      <trkpt lat="49.15944" lon="5.3813">
        <ele>225.54</ele>
        <time>2026-08-06T10:23:06.299Z</time>
      </trkpt>
      <trkpt lat="49.15955" lon="5.38134">
        <ele>225.54</ele>
        <time>2026-08-06T10:23:18.300Z</time>
      </trkpt>
      <trkpt lat="49.15958" lon="5.38151">
        <ele>225.54</ele>
        <time>2026-08-06T10:24:09.296Z</time>
      </trkpt>
      <trkpt lat="49.15965" lon="5.3818">
        <ele>225.54</ele>
        <time>2026-08-06T10:24:14.341Z</time>
      </trkpt>
      <trkpt lat="49.15977" lon="5.38221">
        <ele>225.54</ele>
        <time>2026-08-06T10:24:20.344Z</time>
      </trkpt>
      <trkpt lat="49.15987" lon="5.38255">
        <ele>223.25</ele>
        <time>2026-08-06T10:24:26.354Z</time>
      </trkpt>
      <trkpt lat="49.15992" lon="5.38276">
        <ele>223.24</ele>
        <time>2026-08-06T10:24:32.352Z</time>
      </trkpt>
      <trkpt lat="49.16001" lon="5.38286">
        <ele>223.24</ele>
        <time>2026-08-06T10:24:38.339Z</time>
      </trkpt>
      <trkpt lat="49.16007" lon="5.38274">
        <ele>219.99</ele>
        <time>2026-08-06T10:24:44.341Z</time>
      </trkpt>
      <trkpt lat="49.16017" lon="5.38267">
        <ele>219.94</ele>
        <time>2026-08-06T10:24:50.373Z</time>
      </trkpt>
      <trkpt lat="49.16032" lon="5.38262">
        <ele>219.84</ele>
        <time>2026-08-06T10:24:56.363Z</time>
      </trkpt>
      <trkpt lat="49.16043" lon="5.38262">
        <ele>218.24</ele>
        <time>2026-08-06T10:25:49.288Z</time>
      </trkpt>
      <trkpt lat="49.16051" lon="5.38255">
        <ele>218.24</ele>
        <time>2026-08-06T10:25:54.289Z</time>
      </trkpt>
      <trkpt lat="49.16065" lon="5.38248">
        <ele>218.24</ele>
        <time>2026-08-06T10:25:59.298Z</time>
      </trkpt>
      <trkpt lat="49.16075" lon="5.38251">
        <ele>218.24</ele>
        <time>2026-08-06T10:26:04.320Z</time>
      </trkpt>
      <trkpt lat="49.16074" lon="5.38271">
        <ele>218.24</ele>
        <time>2026-08-06T10:26:10.286Z</time>
      </trkpt>
      <trkpt lat="49.16077" lon="5.38287">
        <ele>217.75</ele>
        <time>2026-08-06T10:26:15.287Z</time>
      </trkpt>
      <trkpt lat="49.16081" lon="5.38307">
        <ele>217.74</ele>
        <time>2026-08-06T10:26:20.340Z</time>
      </trkpt>
      <trkpt lat="49.16087" lon="5.38339">
        <ele>217.74</ele>
        <time>2026-08-06T10:26:26.357Z</time>
      </trkpt>
      <trkpt lat="49.16106" lon="5.38343">
        <ele>217.74</ele>
        <time>2026-08-06T10:26:32.348Z</time>
      </trkpt>
      <trkpt lat="49.16124" lon="5.38337">
        <ele>215.35</ele>
        <time>2026-08-06T10:26:38.341Z</time>
      </trkpt>
      <trkpt lat="49.16135" lon="5.38348">
        <ele>215.34</ele>
        <time>2026-08-06T10:26:44.349Z</time>
      </trkpt>
      <trkpt lat="49.16137" lon="5.38377">
        <ele>215.34</ele>
        <time>2026-08-06T10:26:50.347Z</time>
      </trkpt>
      <trkpt lat="49.16126" lon="5.38379">
        <ele>215.14</ele>
        <time>2026-08-06T10:27:17.334Z</time>
      </trkpt>
      <trkpt lat="49.16106" lon="5.38374">
        <ele>214.86</ele>
        <time>2026-08-06T10:27:23.294Z</time>
      </trkpt>
      <trkpt lat="49.16096" lon="5.38378">
        <ele>214.84</ele>
        <time>2026-08-06T10:27:29.306Z</time>
      </trkpt>
      <trkpt lat="49.16098" lon="5.38392">
        <ele>214.84</ele>
        <time>2026-08-06T10:28:11.151Z</time>
      </trkpt>
      <trkpt lat="49.16106" lon="5.384">
        <ele>214.84</ele>
        <time>2026-08-06T10:28:23.436Z</time>
      </trkpt>
      <trkpt lat="49.16115" lon="5.38406">
        <ele>214.84</ele>
        <time>2026-08-06T10:28:35.314Z</time>
      </trkpt>
      <trkpt lat="49.16108" lon="5.38395">
        <ele>215.04</ele>
        <time>2026-08-06T10:29:33.191Z</time>
      </trkpt>
      <trkpt lat="49.161" lon="5.38388">
        <ele>215.14</ele>
        <time>2026-08-06T10:29:38.392Z</time>
      </trkpt>
      <trkpt lat="49.16091" lon="5.38383">
        <ele>214.84</ele>
        <time>2026-08-06T10:29:51.287Z</time>
      </trkpt>
      <trkpt lat="49.16083" lon="5.38377">
        <ele>215.14</ele>
        <time>2026-08-06T10:32:07.290Z</time>
      </trkpt>
      <trkpt lat="49.16067" lon="5.38383">
        <ele>214.84</ele>
        <time>2026-08-06T10:32:13.291Z</time>
      </trkpt>
      <trkpt lat="49.16045" lon="5.38383">
        <ele>214.84</ele>
        <time>2026-08-06T10:32:19.288Z</time>
      </trkpt>
      <trkpt lat="49.16031" lon="5.38393">
        <ele>209.56</ele>
        <time>2026-08-06T10:32:24.290Z</time>
      </trkpt>
      <trkpt lat="49.16012" lon="5.38395">
        <ele>209.54</ele>
        <time>2026-08-06T10:32:30.287Z</time>
      </trkpt>
      <trkpt lat="49.15986" lon="5.3839">
        <ele>209.54</ele>
        <time>2026-08-06T10:32:35.287Z</time>
      </trkpt>
      <trkpt lat="49.15975" lon="5.38398">
        <ele>209.54</ele>
        <time>2026-08-06T10:32:40.292Z</time>
      </trkpt>
      <trkpt lat="49.15975" lon="5.38429">
        <ele>201.47</ele>
        <time>2026-08-06T10:32:45.295Z</time>
      </trkpt>
      <trkpt lat="49.15976" lon="5.38444">
        <ele>201.44</ele>
        <time>2026-08-06T10:32:50.349Z</time>
      </trkpt>
      <trkpt lat="49.15965" lon="5.38474">
        <ele>201.44</ele>
        <time>2026-08-06T10:32:56.359Z</time>
      </trkpt>
      <trkpt lat="49.15963" lon="5.38503">
        <ele>200.09</ele>
        <time>2026-08-06T10:33:02.366Z</time>
      </trkpt>
      <trkpt lat="49.15967" lon="5.38487">
        <ele>199.64</ele>
        <time>2026-08-06T10:33:08.364Z</time>
      </trkpt>
      <trkpt lat="49.15963" lon="5.38505">
        <ele>199.56</ele>
        <time>2026-08-06T10:33:15.306Z</time>
      </trkpt>
      <trkpt lat="49.15972" lon="5.38511">
        <ele>199.54</ele>
        <time>2026-08-06T10:33:22.289Z</time>
      </trkpt>
      <trkpt lat="49.15977" lon="5.38523">
        <ele>199.35</ele>
        <time>2026-08-06T10:33:27.304Z</time>
      </trkpt>
      <trkpt lat="49.15989" lon="5.38521">
        <ele>199.34</ele>
        <time>2026-08-06T10:33:32.360Z</time>
      </trkpt>
      <trkpt lat="49.16006" lon="5.38532">
        <ele>199.34</ele>
        <time>2026-08-06T10:33:38.355Z</time>
      </trkpt>
      <trkpt lat="49.16025" lon="5.38545">
        <ele>199.34</ele>
        <time>2026-08-06T10:33:44.359Z</time>
      </trkpt>
      <trkpt lat="49.16043" lon="5.38559">
        <ele>198.31</ele>
        <time>2026-08-06T10:33:50.356Z</time>
      </trkpt>
      <trkpt lat="49.1606" lon="5.38571">
        <ele>198.24</ele>
        <time>2026-08-06T10:33:56.395Z</time>
      </trkpt>
      <trkpt lat="49.16078" lon="5.38585">
        <ele>198.24</ele>
        <time>2026-08-06T10:34:02.363Z</time>
      </trkpt>
      <trkpt lat="49.16094" lon="5.38593">
        <ele>198.16</ele>
        <time>2026-08-06T10:34:08.356Z</time>
      </trkpt>
      <trkpt lat="49.16106" lon="5.38603">
        <ele>198.14</ele>
        <time>2026-08-06T10:34:14.367Z</time>
      </trkpt>
      <trkpt lat="49.1613" lon="5.38619">
        <ele>198.14</ele>
        <time>2026-08-06T10:34:20.366Z</time>
      </trkpt>
      <trkpt lat="49.16139" lon="5.38633">
        <ele>198.14</ele>
        <time>2026-08-06T10:34:26.362Z</time>
      </trkpt>
      <trkpt lat="49.16152" lon="5.38641">
        <ele>198.14</ele>
        <time>2026-08-06T10:34:32.364Z</time>
      </trkpt>
      <trkpt lat="49.1617" lon="5.38647">
        <ele>198.14</ele>
        <time>2026-08-06T10:34:38.352Z</time>
      </trkpt>
      <trkpt lat="49.16183" lon="5.38657">
        <ele>198.34</ele>
        <time>2026-08-06T10:34:44.352Z</time>
      </trkpt>
      <trkpt lat="49.16194" lon="5.38666">
        <ele>198.34</ele>
        <time>2026-08-06T10:34:50.360Z</time>
      </trkpt>
      <trkpt lat="49.16203" lon="5.38683">
        <ele>198.93</ele>
        <time>2026-08-06T10:34:56.376Z</time>
      </trkpt>
      <trkpt lat="49.16201" lon="5.38705">
        <ele>199.01</ele>
        <time>2026-08-06T10:35:02.370Z</time>
      </trkpt>
      <trkpt lat="49.16201" lon="5.38723">
        <ele>199.04</ele>
        <time>2026-08-06T10:35:08.356Z</time>
      </trkpt>
      <trkpt lat="49.16202" lon="5.38756">
        <ele>199.04</ele>
        <time>2026-08-06T10:35:14.363Z</time>
      </trkpt>
      <trkpt lat="49.16192" lon="5.38793">
        <ele>199.04</ele>
        <time>2026-08-06T10:35:20.356Z</time>
      </trkpt>
      <trkpt lat="49.16191" lon="5.38834">
        <ele>199.32</ele>
        <time>2026-08-06T10:35:26.383Z</time>
      </trkpt>
      <trkpt lat="49.16185" lon="5.38862">
        <ele>199.34</ele>
        <time>2026-08-06T10:35:32.362Z</time>
      </trkpt>
      <trkpt lat="49.16197" lon="5.38867">
        <ele>199.34</ele>
        <time>2026-08-06T10:35:38.360Z</time>
      </trkpt>
      <trkpt lat="49.16206" lon="5.38878">
        <ele>199.34</ele>
        <time>2026-08-06T10:35:44.354Z</time>
      </trkpt>
      <trkpt lat="49.16213" lon="5.38897">
        <ele>199.43</ele>
        <time>2026-08-06T10:35:50.360Z</time>
      </trkpt>
      <trkpt lat="49.16204" lon="5.38895">
        <ele>198.69</ele>
        <time>2026-08-06T10:35:58.296Z</time>
      </trkpt>
      <trkpt lat="49.16213" lon="5.38904">
        <ele>198.63</ele>
        <time>2026-08-06T10:36:07.304Z</time>
      </trkpt>
      <trkpt lat="49.16221" lon="5.38913">
        <ele>198.63</ele>
        <time>2026-08-06T10:36:12.318Z</time>
      </trkpt>
      <trkpt lat="49.16235" lon="5.38918">
        <ele>199.29</ele>
        <time>2026-08-06T10:36:18.310Z</time>
      </trkpt>
      <trkpt lat="49.16244" lon="5.38926">
        <ele>199.33</ele>
        <time>2026-08-06T10:36:26.367Z</time>
      </trkpt>
      <trkpt lat="49.16254" lon="5.38922">
        <ele>199.33</ele>
        <time>2026-08-06T10:36:41.308Z</time>
      </trkpt>
      <trkpt lat="49.16257" lon="5.38901">
        <ele>199.33</ele>
        <time>2026-08-06T10:36:47.303Z</time>
      </trkpt>
      <trkpt lat="49.16184" lon="5.38656">
        <ele>147.85</ele>
        <time>2026-08-06T13:05:14.365Z</time>
      </trkpt>
      <trkpt lat="49.16197" lon="5.38656">
        <ele>149.48</ele>
        <time>2026-08-06T13:05:20.360Z</time>
      </trkpt>
      <trkpt lat="49.16212" lon="5.38656">
        <ele>148.21</ele>
        <time>2026-08-06T13:05:26.363Z</time>
      </trkpt>
      <trkpt lat="49.16235" lon="5.3864">
        <ele>145.79</ele>
        <time>2026-08-06T13:05:32.358Z</time>
      </trkpt>
      <trkpt lat="49.16258" lon="5.38636">
        <ele>149.15</ele>
        <time>2026-08-06T13:05:38.349Z</time>
      </trkpt>
      <trkpt lat="49.16283" lon="5.38633">
        <ele>151.01</ele>
        <time>2026-08-06T13:05:44.356Z</time>
      </trkpt>
      <trkpt lat="49.16308" lon="5.3863">
        <ele>150.64</ele>
        <time>2026-08-06T13:05:50.354Z</time>
      </trkpt>
      <trkpt lat="49.16332" lon="5.38627">
        <ele>151.56</ele>
        <time>2026-08-06T13:05:56.352Z</time>
      </trkpt>
      <trkpt lat="49.16356" lon="5.38626">
        <ele>153.57</ele>
        <time>2026-08-06T13:06:02.351Z</time>
      </trkpt>
      <trkpt lat="49.1638" lon="5.38626">
        <ele>153.81</ele>
        <time>2026-08-06T13:06:08.358Z</time>
      </trkpt>
      <trkpt lat="49.164" lon="5.38621">
        <ele>154.01</ele>
        <time>2026-08-06T13:06:14.350Z</time>
      </trkpt>
      <trkpt lat="49.16418" lon="5.38604">
        <ele>153.27</ele>
        <time>2026-08-06T13:06:20.343Z</time>
      </trkpt>
      <trkpt lat="49.16432" lon="5.3858">
        <ele>152.49</ele>
        <time>2026-08-06T13:06:26.371Z</time>
      </trkpt>
      <trkpt lat="49.16443" lon="5.38549">
        <ele>151.9</ele>
        <time>2026-08-06T13:06:32.348Z</time>
      </trkpt>
      <trkpt lat="49.1645" lon="5.38513">
        <ele>152.27</ele>
        <time>2026-08-06T13:06:38.344Z</time>
      </trkpt>
      <trkpt lat="49.16458" lon="5.38476">
        <ele>153.21</ele>
        <time>2026-08-06T13:06:44.359Z</time>
      </trkpt>
      <trkpt lat="49.16464" lon="5.38448">
        <ele>151.84</ele>
        <time>2026-08-06T13:06:50.344Z</time>
      </trkpt>
      <trkpt lat="49.16466" lon="5.38421">
        <ele>152.12</ele>
        <time>2026-08-06T13:06:56.364Z</time>
      </trkpt>
      <trkpt lat="49.16472" lon="5.38387">
        <ele>151.84</ele>
        <time>2026-08-06T13:07:02.360Z</time>
      </trkpt>
      <trkpt lat="49.16481" lon="5.38354">
        <ele>150.47</ele>
        <time>2026-08-06T13:07:08.347Z</time>
      </trkpt>
      <trkpt lat="49.1649" lon="5.38323">
        <ele>150.15</ele>
        <time>2026-08-06T13:07:14.350Z</time>
      </trkpt>
      <trkpt lat="49.16496" lon="5.38287">
        <ele>152.7</ele>
        <time>2026-08-06T13:07:20.347Z</time>
      </trkpt>
      <trkpt lat="49.16503" lon="5.38252">
        <ele>155.3</ele>
        <time>2026-08-06T13:07:26.365Z</time>
      </trkpt>
      <trkpt lat="49.1651" lon="5.38214">
        <ele>156.71</ele>
        <time>2026-08-06T13:07:32.357Z</time>
      </trkpt>
      <trkpt lat="49.16522" lon="5.38185">
        <ele>156.12</ele>
        <time>2026-08-06T13:07:38.347Z</time>
      </trkpt>
      <trkpt lat="49.16533" lon="5.38155">
        <ele>156.16</ele>
        <time>2026-08-06T13:07:44.347Z</time>
      </trkpt>
      <trkpt lat="49.16514" lon="5.38131">
        <ele>155.27</ele>
        <time>2026-08-06T13:07:50.345Z</time>
      </trkpt>
      <trkpt lat="49.16504" lon="5.381">
        <ele>155.05</ele>
        <time>2026-08-06T13:07:56.366Z</time>
      </trkpt>
      <trkpt lat="49.16492" lon="5.38067">
        <ele>154.42</ele>
        <time>2026-08-06T13:08:02.345Z</time>
      </trkpt>
      <trkpt lat="49.16479" lon="5.38036">
        <ele>155.03</ele>
        <time>2026-08-06T13:08:08.349Z</time>
      </trkpt>
      <trkpt lat="49.16464" lon="5.38009">
        <ele>155.58</ele>
        <time>2026-08-06T13:08:14.347Z</time>
      </trkpt>
      <trkpt lat="49.16451" lon="5.37982">
        <ele>156.65</ele>
        <time>2026-08-06T13:08:20.346Z</time>
      </trkpt>
      <trkpt lat="49.16437" lon="5.37955">
        <ele>157.31</ele>
        <time>2026-08-06T13:08:26.362Z</time>
      </trkpt>
      <trkpt lat="49.16419" lon="5.3793">
        <ele>157.95</ele>
        <time>2026-08-06T13:08:32.359Z</time>
      </trkpt>
      <trkpt lat="49.16403" lon="5.37903">
        <ele>158.04</ele>
        <time>2026-08-06T13:08:38.352Z</time>
      </trkpt>
      <trkpt lat="49.16387" lon="5.37877">
        <ele>156.87</ele>
        <time>2026-08-06T13:08:44.345Z</time>
      </trkpt>
      <trkpt lat="49.16372" lon="5.3785">
        <ele>157.04</ele>
        <time>2026-08-06T13:08:50.345Z</time>
      </trkpt>
      <trkpt lat="49.16356" lon="5.37825">
        <ele>159.17</ele>
        <time>2026-08-06T13:08:56.360Z</time>
      </trkpt>
      <trkpt lat="49.1634" lon="5.37797">
        <ele>160.15</ele>
        <time>2026-08-06T13:09:02.354Z</time>
      </trkpt>
      <trkpt lat="49.16325" lon="5.37765">
        <ele>160.14</ele>
        <time>2026-08-06T13:09:08.341Z</time>
      </trkpt>
      <trkpt lat="49.16313" lon="5.37732">
        <ele>159.15</ele>
        <time>2026-08-06T13:09:14.352Z</time>
      </trkpt>
      <trkpt lat="49.16304" lon="5.37699">
        <ele>159.86</ele>
        <time>2026-08-06T13:09:20.345Z</time>
      </trkpt>
      <trkpt lat="49.16296" lon="5.37665">
        <ele>159.48</ele>
        <time>2026-08-06T13:09:26.374Z</time>
      </trkpt>
      <trkpt lat="49.16293" lon="5.37633">
        <ele>159.27</ele>
        <time>2026-08-06T13:09:32.374Z</time>
      </trkpt>
      <trkpt lat="49.16296" lon="5.37595">
        <ele>157.88</ele>
        <time>2026-08-06T13:09:38.350Z</time>
      </trkpt>
      <trkpt lat="49.16286" lon="5.37559">
        <ele>157.79</ele>
        <time>2026-08-06T13:09:44.353Z</time>
      </trkpt>
      <trkpt lat="49.16281" lon="5.37522">
        <ele>158.04</ele>
        <time>2026-08-06T13:09:50.347Z</time>
      </trkpt>
      <trkpt lat="49.16288" lon="5.37487">
        <ele>157.7</ele>
        <time>2026-08-06T13:09:56.363Z</time>
      </trkpt>
      <trkpt lat="49.16305" lon="5.37464">
        <ele>159.44</ele>
        <time>2026-08-06T13:10:02.363Z</time>
      </trkpt>
      <trkpt lat="49.16325" lon="5.37461">
        <ele>161.89</ele>
        <time>2026-08-06T13:10:08.358Z</time>
      </trkpt>
      <trkpt lat="49.16346" lon="5.3746">
        <ele>162.78</ele>
        <time>2026-08-06T13:10:14.358Z</time>
      </trkpt>
      <trkpt lat="49.16364" lon="5.3746">
        <ele>162.08</ele>
        <time>2026-08-06T13:10:20.346Z</time>
      </trkpt>
      <trkpt lat="49.16386" lon="5.3746">
        <ele>161.66</ele>
        <time>2026-08-06T13:10:26.353Z</time>
      </trkpt>
      <trkpt lat="49.16411" lon="5.37459">
        <ele>160.74</ele>
        <time>2026-08-06T13:10:32.362Z</time>
      </trkpt>
      <trkpt lat="49.16438" lon="5.37436">
        <ele>159.93</ele>
        <time>2026-08-06T13:10:38.348Z</time>
      </trkpt>
      <trkpt lat="49.16449" lon="5.37387">
        <ele>158.7</ele>
        <time>2026-08-06T13:10:44.354Z</time>
      </trkpt>
      <trkpt lat="49.16439" lon="5.37334">
        <ele>157.13</ele>
        <time>2026-08-06T13:10:50.348Z</time>
      </trkpt>
      <trkpt lat="49.16423" lon="5.37281">
        <ele>155.32</ele>
        <time>2026-08-06T13:10:56.358Z</time>
      </trkpt>
      <trkpt lat="49.16401" lon="5.37224">
        <ele>155.3</ele>
        <time>2026-08-06T13:11:02.358Z</time>
      </trkpt>
      <trkpt lat="49.16384" lon="5.37174">
        <ele>156.26</ele>
        <time>2026-08-06T13:11:08.346Z</time>
      </trkpt>
      <trkpt lat="49.16388" lon="5.37146">
        <ele>155.27</ele>
        <time>2026-08-06T13:11:14.357Z</time>
      </trkpt>
      <trkpt lat="49.16386" lon="5.37103">
        <ele>154.93</ele>
        <time>2026-08-06T13:11:20.343Z</time>
      </trkpt>
      <trkpt lat="49.16377" lon="5.37063">
        <ele>155.55</ele>
        <time>2026-08-06T13:11:26.359Z</time>
      </trkpt>
      <trkpt lat="49.16376" lon="5.37019">
        <ele>154.31</ele>
        <time>2026-08-06T13:11:32.357Z</time>
      </trkpt>
      <trkpt lat="49.16376" lon="5.3697">
        <ele>154.21</ele>
        <time>2026-08-06T13:11:38.351Z</time>
      </trkpt>
      <trkpt lat="49.16375" lon="5.36922">
        <ele>155.11</ele>
        <time>2026-08-06T13:11:44.356Z</time>
      </trkpt>
      <trkpt lat="49.16373" lon="5.36874">
        <ele>152.5</ele>
        <time>2026-08-06T13:11:50.348Z</time>
      </trkpt>
      <trkpt lat="49.16374" lon="5.36823">
        <ele>151.63</ele>
        <time>2026-08-06T13:11:56.355Z</time>
      </trkpt>
      <trkpt lat="49.16377" lon="5.36772">
        <ele>151.43</ele>
        <time>2026-08-06T13:12:02.357Z</time>
      </trkpt>
      <trkpt lat="49.16388" lon="5.3673">
        <ele>152.23</ele>
        <time>2026-08-06T13:12:08.353Z</time>
      </trkpt>
      <trkpt lat="49.16397" lon="5.36692">
        <ele>153.98</ele>
        <time>2026-08-06T13:12:14.347Z</time>
      </trkpt>
      <trkpt lat="49.16406" lon="5.36657">
        <ele>155.95</ele>
        <time>2026-08-06T13:12:20.352Z</time>
      </trkpt>
      <trkpt lat="49.16415" lon="5.36628">
        <ele>154.46</ele>
        <time>2026-08-06T13:12:26.366Z</time>
      </trkpt>
      <trkpt lat="49.16414" lon="5.36601">
        <ele>154.11</ele>
        <time>2026-08-06T13:12:32.366Z</time>
      </trkpt>
      <trkpt lat="49.16413" lon="5.36573">
        <ele>156.41</ele>
        <time>2026-08-06T13:12:38.355Z</time>
      </trkpt>
      <trkpt lat="49.16414" lon="5.36545">
        <ele>155.76</ele>
        <time>2026-08-06T13:12:44.347Z</time>
      </trkpt>
      <trkpt lat="49.16418" lon="5.36521">
        <ele>157.51</ele>
        <time>2026-08-06T13:12:50.348Z</time>
      </trkpt>
      <trkpt lat="49.16421" lon="5.36494">
        <ele>157.65</ele>
        <time>2026-08-06T13:12:56.366Z</time>
      </trkpt>
      <trkpt lat="49.16428" lon="5.36469">
        <ele>156.73</ele>
        <time>2026-08-06T13:13:02.358Z</time>
      </trkpt>
      <trkpt lat="49.16437" lon="5.36447">
        <ele>157.36</ele>
        <time>2026-08-06T13:13:08.354Z</time>
      </trkpt>
      <trkpt lat="49.16446" lon="5.36425">
        <ele>157.67</ele>
        <time>2026-08-06T13:13:14.346Z</time>
      </trkpt>
      <trkpt lat="49.16455" lon="5.364">
        <ele>157.85</ele>
        <time>2026-08-06T13:13:20.368Z</time>
      </trkpt>
      <trkpt lat="49.16466" lon="5.36377">
        <ele>154.65</ele>
        <time>2026-08-06T13:13:26.370Z</time>
      </trkpt>
      <trkpt lat="49.16476" lon="5.3635">
        <ele>153.8</ele>
        <time>2026-08-06T13:13:32.375Z</time>
      </trkpt>
      <trkpt lat="49.16487" lon="5.36321">
        <ele>156.4</ele>
        <time>2026-08-06T13:13:38.365Z</time>
      </trkpt>
      <trkpt lat="49.16498" lon="5.36291">
        <ele>158.54</ele>
        <time>2026-08-06T13:13:44.364Z</time>
      </trkpt>
      <trkpt lat="49.16509" lon="5.36259">
        <ele>160.24</ele>
        <time>2026-08-06T13:13:50.358Z</time>
      </trkpt>
      <trkpt lat="49.16521" lon="5.36225">
        <ele>159.85</ele>
        <time>2026-08-06T13:13:56.375Z</time>
      </trkpt>
      <trkpt lat="49.16532" lon="5.36193">
        <ele>158.71</ele>
        <time>2026-08-06T13:14:02.377Z</time>
      </trkpt>
      <trkpt lat="49.16545" lon="5.3616">
        <ele>156.9</ele>
        <time>2026-08-06T13:14:08.370Z</time>
      </trkpt>
      <trkpt lat="49.16559" lon="5.3612">
        <ele>155.13</ele>
        <time>2026-08-06T13:14:14.366Z</time>
      </trkpt>
      <trkpt lat="49.16575" lon="5.36078">
        <ele>153.84</ele>
        <time>2026-08-06T13:14:20.363Z</time>
      </trkpt>
      <trkpt lat="49.16592" lon="5.36029">
        <ele>154.79</ele>
        <time>2026-08-06T13:14:26.372Z</time>
      </trkpt>
      <trkpt lat="49.16611" lon="5.35975">
        <ele>156.53</ele>
        <time>2026-08-06T13:14:32.373Z</time>
      </trkpt>
      <trkpt lat="49.16632" lon="5.35918">
        <ele>156.71</ele>
        <time>2026-08-06T13:14:38.363Z</time>
      </trkpt>
      <trkpt lat="49.16654" lon="5.35856">
        <ele>156.19</ele>
        <time>2026-08-06T13:14:44.362Z</time>
      </trkpt>
      <trkpt lat="49.16675" lon="5.35798">
        <ele>153.7</ele>
        <time>2026-08-06T13:14:50.362Z</time>
      </trkpt>
      <trkpt lat="49.16694" lon="5.35749">
        <ele>152.55</ele>
        <time>2026-08-06T13:14:56.377Z</time>
      </trkpt>
      <trkpt lat="49.16712" lon="5.357">
        <ele>152.12</ele>
        <time>2026-08-06T13:15:02.370Z</time>
      </trkpt>
      <trkpt lat="49.1673" lon="5.35653">
        <ele>152.82</ele>
        <time>2026-08-06T13:15:08.364Z</time>
      </trkpt>
      <trkpt lat="49.16747" lon="5.35603">
        <ele>152.57</ele>
        <time>2026-08-06T13:15:14.368Z</time>
      </trkpt>
      <trkpt lat="49.16764" lon="5.35555">
        <ele>150.78</ele>
        <time>2026-08-06T13:15:20.364Z</time>
      </trkpt>
      <trkpt lat="49.16782" lon="5.35507">
        <ele>151.14</ele>
        <time>2026-08-06T13:15:26.375Z</time>
      </trkpt>
      <trkpt lat="49.16798" lon="5.35462">
        <ele>152.73</ele>
        <time>2026-08-06T13:15:32.373Z</time>
      </trkpt>
      <trkpt lat="49.16815" lon="5.3542">
        <ele>152.59</ele>
        <time>2026-08-06T13:15:38.363Z</time>
      </trkpt>
      <trkpt lat="49.16837" lon="5.35381">
        <ele>153.49</ele>
        <time>2026-08-06T13:15:44.365Z</time>
      </trkpt>
      <trkpt lat="49.16867" lon="5.35346">
        <ele>153.06</ele>
        <time>2026-08-06T13:15:50.365Z</time>
      </trkpt>
      <trkpt lat="49.16896" lon="5.35314">
        <ele>153.28</ele>
        <time>2026-08-06T13:15:56.341Z</time>
      </trkpt>
      <trkpt lat="49.16925" lon="5.35283">
        <ele>154.31</ele>
        <time>2026-08-06T13:16:02.371Z</time>
      </trkpt>
      <trkpt lat="49.16953" lon="5.35251">
        <ele>153.62</ele>
        <time>2026-08-06T13:16:08.367Z</time>
      </trkpt>
      <trkpt lat="49.16981" lon="5.3522">
        <ele>152.99</ele>
        <time>2026-08-06T13:16:14.363Z</time>
      </trkpt>
      <trkpt lat="49.17007" lon="5.35191">
        <ele>152.59</ele>
        <time>2026-08-06T13:16:20.371Z</time>
      </trkpt>
      <trkpt lat="49.17034" lon="5.35161">
        <ele>151.22</ele>
        <time>2026-08-06T13:16:26.377Z</time>
      </trkpt>
      <trkpt lat="49.1706" lon="5.35133">
        <ele>150.06</ele>
        <time>2026-08-06T13:16:32.370Z</time>
      </trkpt>
      <trkpt lat="49.17085" lon="5.35107">
        <ele>149.37</ele>
        <time>2026-08-06T13:16:38.373Z</time>
      </trkpt>
      <trkpt lat="49.17111" lon="5.35079">
        <ele>148.43</ele>
        <time>2026-08-06T13:16:44.369Z</time>
      </trkpt>
      <trkpt lat="49.17137" lon="5.35052">
        <ele>148.48</ele>
        <time>2026-08-06T13:16:50.371Z</time>
      </trkpt>
      <trkpt lat="49.17161" lon="5.35025">
        <ele>148.95</ele>
        <time>2026-08-06T13:16:56.375Z</time>
      </trkpt>
      <trkpt lat="49.17186" lon="5.34997">
        <ele>148.97</ele>
        <time>2026-08-06T13:17:02.373Z</time>
      </trkpt>
      <trkpt lat="49.17212" lon="5.34969">
        <ele>148.53</ele>
        <time>2026-08-06T13:17:08.371Z</time>
      </trkpt>
      <trkpt lat="49.1724" lon="5.34942">
        <ele>147.51</ele>
        <time>2026-08-06T13:17:14.370Z</time>
      </trkpt>
      <trkpt lat="49.17267" lon="5.34913">
        <ele>146.28</ele>
        <time>2026-08-06T13:17:20.369Z</time>
      </trkpt>
      <trkpt lat="49.17294" lon="5.34882">
        <ele>146.09</ele>
        <time>2026-08-06T13:17:26.376Z</time>
      </trkpt>
      <trkpt lat="49.17321" lon="5.34852">
        <ele>145.46</ele>
        <time>2026-08-06T13:17:32.378Z</time>
      </trkpt>
      <trkpt lat="49.17347" lon="5.34823">
        <ele>145.44</ele>
        <time>2026-08-06T13:17:38.368Z</time>
      </trkpt>
      <trkpt lat="49.17374" lon="5.34794">
        <ele>145.59</ele>
        <time>2026-08-06T13:17:44.371Z</time>
      </trkpt>
      <trkpt lat="49.174" lon="5.34765">
        <ele>145.62</ele>
        <time>2026-08-06T13:17:50.372Z</time>
      </trkpt>
      <trkpt lat="49.17426" lon="5.34737">
        <ele>145.49</ele>
        <time>2026-08-06T13:17:56.383Z</time>
      </trkpt>
      <trkpt lat="49.17453" lon="5.34707">
        <ele>146.85</ele>
        <time>2026-08-06T13:18:02.377Z</time>
      </trkpt>
      <trkpt lat="49.17479" lon="5.34677">
        <ele>147.41</ele>
        <time>2026-08-06T13:18:08.370Z</time>
      </trkpt>
      <trkpt lat="49.17504" lon="5.34649">
        <ele>146.93</ele>
        <time>2026-08-06T13:18:14.372Z</time>
      </trkpt>
      <trkpt lat="49.1753" lon="5.34623">
        <ele>146.26</ele>
        <time>2026-08-06T13:18:20.367Z</time>
      </trkpt>
      <trkpt lat="49.17554" lon="5.34596">
        <ele>145.73</ele>
        <time>2026-08-06T13:18:26.354Z</time>
      </trkpt>
      <trkpt lat="49.17579" lon="5.34569">
        <ele>145.78</ele>
        <time>2026-08-06T13:18:32.377Z</time>
      </trkpt>
      <trkpt lat="49.17604" lon="5.34541">
        <ele>145.83</ele>
        <time>2026-08-06T13:18:38.374Z</time>
      </trkpt>
      <trkpt lat="49.17627" lon="5.34513">
        <ele>145.63</ele>
        <time>2026-08-06T13:18:44.373Z</time>
      </trkpt>
      <trkpt lat="49.17652" lon="5.34486">
        <ele>144.82</ele>
        <time>2026-08-06T13:18:50.371Z</time>
      </trkpt>
      <trkpt lat="49.17677" lon="5.34458">
        <ele>144.84</ele>
        <time>2026-08-06T13:18:56.378Z</time>
      </trkpt>
      <trkpt lat="49.17703" lon="5.3443">
        <ele>144.94</ele>
        <time>2026-08-06T13:19:02.379Z</time>
      </trkpt>
      <trkpt lat="49.17727" lon="5.34404">
        <ele>145.11</ele>
        <time>2026-08-06T13:19:08.371Z</time>
      </trkpt>
      <trkpt lat="49.1775" lon="5.34379">
        <ele>145.09</ele>
        <time>2026-08-06T13:19:14.373Z</time>
      </trkpt>
      <trkpt lat="49.17773" lon="5.34355">
        <ele>145.23</ele>
        <time>2026-08-06T13:19:20.372Z</time>
      </trkpt>
      <trkpt lat="49.17796" lon="5.34329">
        <ele>145.32</ele>
        <time>2026-08-06T13:19:26.377Z</time>
      </trkpt>
      <trkpt lat="49.1782" lon="5.34303">
        <ele>145.91</ele>
        <time>2026-08-06T13:19:32.374Z</time>
      </trkpt>
      <trkpt lat="49.17844" lon="5.34276">
        <ele>146.44</ele>
        <time>2026-08-06T13:19:38.373Z</time>
      </trkpt>
      <trkpt lat="49.17868" lon="5.34249">
        <ele>146.12</ele>
        <time>2026-08-06T13:19:44.369Z</time>
      </trkpt>
      <trkpt lat="49.17892" lon="5.34223">
        <ele>146.55</ele>
        <time>2026-08-06T13:19:50.377Z</time>
      </trkpt>
      <trkpt lat="49.17913" lon="5.342">
        <ele>147.28</ele>
        <time>2026-08-06T13:19:56.379Z</time>
      </trkpt>
      <trkpt lat="49.17937" lon="5.34174">
        <ele>146.55</ele>
        <time>2026-08-06T13:20:02.377Z</time>
      </trkpt>
      <trkpt lat="49.17961" lon="5.34147">
        <ele>145.85</ele>
        <time>2026-08-06T13:20:08.376Z</time>
      </trkpt>
      <trkpt lat="49.17983" lon="5.34122">
        <ele>144.79</ele>
        <time>2026-08-06T13:20:14.366Z</time>
      </trkpt>
      <trkpt lat="49.18007" lon="5.34096">
        <ele>144.93</ele>
        <time>2026-08-06T13:20:20.376Z</time>
      </trkpt>
      <trkpt lat="49.18029" lon="5.34073">
        <ele>144.69</ele>
        <time>2026-08-06T13:20:26.379Z</time>
      </trkpt>
      <trkpt lat="49.18052" lon="5.34047">
        <ele>144.09</ele>
        <time>2026-08-06T13:20:32.382Z</time>
      </trkpt>
      <trkpt lat="49.18075" lon="5.34021">
        <ele>144.87</ele>
        <time>2026-08-06T13:20:38.374Z</time>
      </trkpt>
      <trkpt lat="49.18099" lon="5.33994">
        <ele>144.84</ele>
        <time>2026-08-06T13:20:44.373Z</time>
      </trkpt>
      <trkpt lat="49.18123" lon="5.33968">
        <ele>144.73</ele>
        <time>2026-08-06T13:20:50.376Z</time>
      </trkpt>
      <trkpt lat="49.18147" lon="5.33942">
        <ele>145</ele>
        <time>2026-08-06T13:20:56.380Z</time>
      </trkpt>
      <trkpt lat="49.1817" lon="5.33917">
        <ele>145.19</ele>
        <time>2026-08-06T13:21:02.374Z</time>
      </trkpt>
      <trkpt lat="49.18193" lon="5.33891">
        <ele>144.96</ele>
        <time>2026-08-06T13:21:08.373Z</time>
      </trkpt>
      <trkpt lat="49.18216" lon="5.33865">
        <ele>144.63</ele>
        <time>2026-08-06T13:21:14.372Z</time>
      </trkpt>
      <trkpt lat="49.1824" lon="5.3384">
        <ele>145.1</ele>
        <time>2026-08-06T13:21:20.372Z</time>
      </trkpt>
      <trkpt lat="49.18262" lon="5.33815">
        <ele>145.15</ele>
        <time>2026-08-06T13:21:26.372Z</time>
      </trkpt>
      <trkpt lat="49.18287" lon="5.33789">
        <ele>145.3</ele>
        <time>2026-08-06T13:21:32.369Z</time>
      </trkpt>
      <trkpt lat="49.1831" lon="5.33764">
        <ele>145.88</ele>
        <time>2026-08-06T13:21:38.371Z</time>
      </trkpt>
      <trkpt lat="49.18331" lon="5.33738">
        <ele>146.36</ele>
        <time>2026-08-06T13:21:44.438Z</time>
      </trkpt>
      <trkpt lat="49.18354" lon="5.33712">
        <ele>146.87</ele>
        <time>2026-08-06T13:21:50.372Z</time>
      </trkpt>
      <trkpt lat="49.18376" lon="5.33687">
        <ele>145.46</ele>
        <time>2026-08-06T13:21:56.371Z</time>
      </trkpt>
      <trkpt lat="49.18399" lon="5.33663">
        <ele>145.38</ele>
        <time>2026-08-06T13:22:02.371Z</time>
      </trkpt>
      <trkpt lat="49.18421" lon="5.33638">
        <ele>146.16</ele>
        <time>2026-08-06T13:22:08.370Z</time>
      </trkpt>
      <trkpt lat="49.18444" lon="5.33613">
        <ele>146.14</ele>
        <time>2026-08-06T13:22:14.369Z</time>
      </trkpt>
      <trkpt lat="49.18467" lon="5.3359">
        <ele>146.46</ele>
        <time>2026-08-06T13:22:20.369Z</time>
      </trkpt>
      <trkpt lat="49.18494" lon="5.33573">
        <ele>145.6</ele>
        <time>2026-08-06T13:22:26.370Z</time>
      </trkpt>
      <trkpt lat="49.18525" lon="5.33571">
        <ele>145.81</ele>
        <time>2026-08-06T13:22:32.371Z</time>
      </trkpt>
      <trkpt lat="49.18554" lon="5.33584">
        <ele>146.26</ele>
        <time>2026-08-06T13:22:38.373Z</time>
      </trkpt>
      <trkpt lat="49.18579" lon="5.33611">
        <ele>146.28</ele>
        <time>2026-08-06T13:22:44.369Z</time>
      </trkpt>
      <trkpt lat="49.18601" lon="5.33646">
        <ele>146.24</ele>
        <time>2026-08-06T13:22:50.372Z</time>
      </trkpt>
      <trkpt lat="49.18624" lon="5.33683">
        <ele>145.74</ele>
        <time>2026-08-06T13:22:56.375Z</time>
      </trkpt>
      <trkpt lat="49.18647" lon="5.33722">
        <ele>145.41</ele>
        <time>2026-08-06T13:23:02.373Z</time>
      </trkpt>
      <trkpt lat="49.18671" lon="5.3376">
        <ele>145.13</ele>
        <time>2026-08-06T13:23:08.376Z</time>
      </trkpt>
      <trkpt lat="49.18694" lon="5.33799">
        <ele>144.61</ele>
        <time>2026-08-06T13:23:14.374Z</time>
      </trkpt>
      <trkpt lat="49.18717" lon="5.33838">
        <ele>145.01</ele>
        <time>2026-08-06T13:23:20.365Z</time>
      </trkpt>
      <trkpt lat="49.18741" lon="5.33879">
        <ele>145.26</ele>
        <time>2026-08-06T13:23:26.374Z</time>
      </trkpt>
      <trkpt lat="49.18765" lon="5.33918">
        <ele>145.18</ele>
        <time>2026-08-06T13:23:32.369Z</time>
      </trkpt>
      <trkpt lat="49.18788" lon="5.33956">
        <ele>146.01</ele>
        <time>2026-08-06T13:23:38.372Z</time>
      </trkpt>
      <trkpt lat="49.18811" lon="5.33994">
        <ele>146.51</ele>
        <time>2026-08-06T13:23:44.371Z</time>
      </trkpt>
      <trkpt lat="49.18834" lon="5.34029">
        <ele>146.06</ele>
        <time>2026-08-06T13:23:50.373Z</time>
      </trkpt>
      <trkpt lat="49.18856" lon="5.34067">
        <ele>145.12</ele>
        <time>2026-08-06T13:23:56.373Z</time>
      </trkpt>
      <trkpt lat="49.18882" lon="5.34098">
        <ele>144.42</ele>
        <time>2026-08-06T13:24:02.372Z</time>
      </trkpt>
      <trkpt lat="49.18911" lon="5.3412">
        <ele>144.94</ele>
        <time>2026-08-06T13:24:08.377Z</time>
      </trkpt>
      <trkpt lat="49.18942" lon="5.34131">
        <ele>145.24</ele>
        <time>2026-08-06T13:24:14.372Z</time>
      </trkpt>
      <trkpt lat="49.18973" lon="5.34137">
        <ele>145.22</ele>
        <time>2026-08-06T13:24:20.373Z</time>
      </trkpt>
      <trkpt lat="49.19005" lon="5.34144">
        <ele>144.67</ele>
        <time>2026-08-06T13:24:26.373Z</time>
      </trkpt>
      <trkpt lat="49.19035" lon="5.34149">
        <ele>145.5</ele>
        <time>2026-08-06T13:24:32.374Z</time>
      </trkpt>
      <trkpt lat="49.19066" lon="5.34156">
        <ele>145.04</ele>
        <time>2026-08-06T13:24:38.372Z</time>
      </trkpt>
      <trkpt lat="49.19096" lon="5.34163">
        <ele>144.61</ele>
        <time>2026-08-06T13:24:44.373Z</time>
      </trkpt>
      <trkpt lat="49.19124" lon="5.34169">
        <ele>144.39</ele>
        <time>2026-08-06T13:24:50.372Z</time>
      </trkpt>
      <trkpt lat="49.19154" lon="5.34174">
        <ele>144.55</ele>
        <time>2026-08-06T13:24:56.381Z</time>
      </trkpt>
      <trkpt lat="49.19185" lon="5.34179">
        <ele>144.06</ele>
        <time>2026-08-06T13:25:02.372Z</time>
      </trkpt>
      <trkpt lat="49.19217" lon="5.34186">
        <ele>143.8</ele>
        <time>2026-08-06T13:25:08.369Z</time>
      </trkpt>
      <trkpt lat="49.19249" lon="5.34192">
        <ele>143.94</ele>
        <time>2026-08-06T13:25:14.372Z</time>
      </trkpt>
      <trkpt lat="49.1928" lon="5.34192">
        <ele>144.11</ele>
        <time>2026-08-06T13:25:20.372Z</time>
      </trkpt>
      <trkpt lat="49.19311" lon="5.34185">
        <ele>143.69</ele>
        <time>2026-08-06T13:25:26.370Z</time>
      </trkpt>
      <trkpt lat="49.19341" lon="5.34175">
        <ele>143.16</ele>
        <time>2026-08-06T13:25:32.373Z</time>
      </trkpt>
      <trkpt lat="49.19369" lon="5.3417">
        <ele>144.01</ele>
        <time>2026-08-06T13:25:38.372Z</time>
      </trkpt>
      <trkpt lat="49.19399" lon="5.3417">
        <ele>145.25</ele>
        <time>2026-08-06T13:25:44.372Z</time>
      </trkpt>
      <trkpt lat="49.19428" lon="5.34178">
        <ele>146.23</ele>
        <time>2026-08-06T13:25:50.368Z</time>
      </trkpt>
      <trkpt lat="49.19455" lon="5.34195">
        <ele>147.35</ele>
        <time>2026-08-06T13:25:56.376Z</time>
      </trkpt>
      <trkpt lat="49.19478" lon="5.34216">
        <ele>148.01</ele>
        <time>2026-08-06T13:26:02.373Z</time>
      </trkpt>
      <trkpt lat="49.19501" lon="5.34243">
        <ele>149.58</ele>
        <time>2026-08-06T13:26:08.373Z</time>
      </trkpt>
      <trkpt lat="49.19524" lon="5.34271">
        <ele>150.05</ele>
        <time>2026-08-06T13:26:14.370Z</time>
      </trkpt>
      <trkpt lat="49.19547" lon="5.343">
        <ele>150.41</ele>
        <time>2026-08-06T13:26:20.371Z</time>
      </trkpt>
      <trkpt lat="49.19571" lon="5.34328">
        <ele>150.72</ele>
        <time>2026-08-06T13:26:26.370Z</time>
      </trkpt>
      <trkpt lat="49.19594" lon="5.34358">
        <ele>151.47</ele>
        <time>2026-08-06T13:26:32.371Z</time>
      </trkpt>
      <trkpt lat="49.19617" lon="5.34386">
        <ele>152.08</ele>
        <time>2026-08-06T13:26:38.371Z</time>
      </trkpt>
      <trkpt lat="49.19641" lon="5.34415">
        <ele>152.12</ele>
        <time>2026-08-06T13:26:44.372Z</time>
      </trkpt>
      <trkpt lat="49.19664" lon="5.34444">
        <ele>152.89</ele>
        <time>2026-08-06T13:26:50.371Z</time>
      </trkpt>
      <trkpt lat="49.19685" lon="5.34476">
        <ele>153.13</ele>
        <time>2026-08-06T13:26:56.373Z</time>
      </trkpt>
      <trkpt lat="49.19703" lon="5.34511">
        <ele>153.58</ele>
        <time>2026-08-06T13:27:02.373Z</time>
      </trkpt>
      <trkpt lat="49.1972" lon="5.34549">
        <ele>154.05</ele>
        <time>2026-08-06T13:27:08.377Z</time>
      </trkpt>
      <trkpt lat="49.19736" lon="5.34587">
        <ele>155.38</ele>
        <time>2026-08-06T13:27:14.374Z</time>
      </trkpt>
      <trkpt lat="49.1975" lon="5.34624">
        <ele>156.39</ele>
        <time>2026-08-06T13:27:20.371Z</time>
      </trkpt>
      <trkpt lat="49.19765" lon="5.34658">
        <ele>156.84</ele>
        <time>2026-08-06T13:27:26.377Z</time>
      </trkpt>
      <trkpt lat="49.19779" lon="5.34693">
        <ele>158.08</ele>
        <time>2026-08-06T13:27:32.376Z</time>
      </trkpt>
      <trkpt lat="49.19795" lon="5.34723">
        <ele>159.63</ele>
        <time>2026-08-06T13:27:38.374Z</time>
      </trkpt>
      <trkpt lat="49.19813" lon="5.3475">
        <ele>161.57</ele>
        <time>2026-08-06T13:27:44.375Z</time>
      </trkpt>
      <trkpt lat="49.19831" lon="5.34772">
        <ele>162.34</ele>
        <time>2026-08-06T13:27:50.373Z</time>
      </trkpt>
      <trkpt lat="49.19849" lon="5.34791">
        <ele>163.23</ele>
        <time>2026-08-06T13:27:56.381Z</time>
      </trkpt>
      <trkpt lat="49.19867" lon="5.34808">
        <ele>163.43</ele>
        <time>2026-08-06T13:28:02.373Z</time>
      </trkpt>
      <trkpt lat="49.19884" lon="5.34825">
        <ele>164.41</ele>
        <time>2026-08-06T13:28:08.374Z</time>
      </trkpt>
      <trkpt lat="49.19901" lon="5.34842">
        <ele>164.23</ele>
        <time>2026-08-06T13:28:14.377Z</time>
      </trkpt>
      <trkpt lat="49.19916" lon="5.34857">
        <ele>163.71</ele>
        <time>2026-08-06T13:28:20.375Z</time>
      </trkpt>
      <trkpt lat="49.1993" lon="5.34872">
        <ele>163.56</ele>
        <time>2026-08-06T13:28:26.358Z</time>
      </trkpt>
      <trkpt lat="49.19946" lon="5.34888">
        <ele>165.12</ele>
        <time>2026-08-06T13:28:32.373Z</time>
      </trkpt>
      <trkpt lat="49.1996" lon="5.34904">
        <ele>165.77</ele>
        <time>2026-08-06T13:28:38.375Z</time>
      </trkpt>
      <trkpt lat="49.19973" lon="5.34922">
        <ele>166.55</ele>
        <time>2026-08-06T13:28:44.371Z</time>
      </trkpt>
      <trkpt lat="49.19986" lon="5.3494">
        <ele>167.88</ele>
        <time>2026-08-06T13:28:50.375Z</time>
      </trkpt>
      <trkpt lat="49.19998" lon="5.34957">
        <ele>168.96</ele>
        <time>2026-08-06T13:28:56.378Z</time>
      </trkpt>
      <trkpt lat="49.20011" lon="5.34976">
        <ele>169.22</ele>
        <time>2026-08-06T13:29:02.376Z</time>
      </trkpt>
      <trkpt lat="49.20024" lon="5.34993">
        <ele>169.5</ele>
        <time>2026-08-06T13:29:08.372Z</time>
      </trkpt>
      <trkpt lat="49.20042" lon="5.35016">
        <ele>170.09</ele>
        <time>2026-08-06T13:29:14.382Z</time>
      </trkpt>
      <trkpt lat="49.2006" lon="5.35039">
        <ele>169.55</ele>
        <time>2026-08-06T13:29:20.377Z</time>
      </trkpt>
      <trkpt lat="49.20081" lon="5.35065">
        <ele>166.31</ele>
        <time>2026-08-06T13:29:26.376Z</time>
      </trkpt>
      <trkpt lat="49.20106" lon="5.35094">
        <ele>164.76</ele>
        <time>2026-08-06T13:29:32.373Z</time>
      </trkpt>
      <trkpt lat="49.20133" lon="5.35123">
        <ele>165.31</ele>
        <time>2026-08-06T13:29:38.373Z</time>
      </trkpt>
      <trkpt lat="49.20159" lon="5.35151">
        <ele>165.67</ele>
        <time>2026-08-06T13:29:44.372Z</time>
      </trkpt>
      <trkpt lat="49.20185" lon="5.35179">
        <ele>165.08</ele>
        <time>2026-08-06T13:29:50.364Z</time>
      </trkpt>
      <trkpt lat="49.20211" lon="5.35209">
        <ele>163.76</ele>
        <time>2026-08-06T13:29:56.378Z</time>
      </trkpt>
      <trkpt lat="49.20238" lon="5.35241">
        <ele>161.86</ele>
        <time>2026-08-06T13:30:02.371Z</time>
      </trkpt>
      <trkpt lat="49.20269" lon="5.35282">
        <ele>158.05</ele>
        <time>2026-08-06T13:30:08.367Z</time>
      </trkpt>
      <trkpt lat="49.20304" lon="5.35334">
        <ele>154.35</ele>
        <time>2026-08-06T13:30:14.364Z</time>
      </trkpt>
      <trkpt lat="49.20337" lon="5.35395">
        <ele>152.01</ele>
        <time>2026-08-06T13:30:20.370Z</time>
      </trkpt>
      <trkpt lat="49.20369" lon="5.35457">
        <ele>150.1</ele>
        <time>2026-08-06T13:30:26.376Z</time>
      </trkpt>
      <trkpt lat="49.20396" lon="5.35512">
        <ele>149.92</ele>
        <time>2026-08-06T13:30:32.373Z</time>
      </trkpt>
      <trkpt lat="49.20422" lon="5.35559">
        <ele>149.92</ele>
        <time>2026-08-06T13:30:38.368Z</time>
      </trkpt>
      <trkpt lat="49.20445" lon="5.35601">
        <ele>149.73</ele>
        <time>2026-08-06T13:30:44.367Z</time>
      </trkpt>
      <trkpt lat="49.20469" lon="5.35615">
        <ele>151.38</ele>
        <time>2026-08-06T13:30:50.369Z</time>
      </trkpt>
      <trkpt lat="49.20485" lon="5.35592">
        <ele>153.28</ele>
        <time>2026-08-06T13:30:56.364Z</time>
      </trkpt>
      <trkpt lat="49.20499" lon="5.3557">
        <ele>155.28</ele>
        <time>2026-08-06T13:31:02.372Z</time>
      </trkpt>
      <trkpt lat="49.20514" lon="5.35552">
        <ele>157.02</ele>
        <time>2026-08-06T13:31:08.372Z</time>
      </trkpt>
      <trkpt lat="49.20529" lon="5.35533">
        <ele>158.45</ele>
        <time>2026-08-06T13:31:14.367Z</time>
      </trkpt>
      <trkpt lat="49.20543" lon="5.35514">
        <ele>159.76</ele>
        <time>2026-08-06T13:31:20.367Z</time>
      </trkpt>
      <trkpt lat="49.20555" lon="5.35499">
        <ele>159.78</ele>
        <time>2026-08-06T13:31:26.378Z</time>
      </trkpt>
      <trkpt lat="49.20567" lon="5.35483">
        <ele>160.56</ele>
        <time>2026-08-06T13:31:32.371Z</time>
      </trkpt>
      <trkpt lat="49.2058" lon="5.35468">
        <ele>160.7</ele>
        <time>2026-08-06T13:31:38.372Z</time>
      </trkpt>
      <trkpt lat="49.20593" lon="5.35453">
        <ele>160.69</ele>
        <time>2026-08-06T13:31:44.363Z</time>
      </trkpt>
      <trkpt lat="49.20606" lon="5.35436">
        <ele>161.19</ele>
        <time>2026-08-06T13:31:50.367Z</time>
      </trkpt>
      <trkpt lat="49.20619" lon="5.35419">
        <ele>162.1</ele>
        <time>2026-08-06T13:31:56.379Z</time>
      </trkpt>
      <trkpt lat="49.20631" lon="5.35401">
        <ele>162.26</ele>
        <time>2026-08-06T13:32:02.375Z</time>
      </trkpt>
      <trkpt lat="49.20643" lon="5.35384">
        <ele>162.63</ele>
        <time>2026-08-06T13:32:08.367Z</time>
      </trkpt>
      <trkpt lat="49.20656" lon="5.35365">
        <ele>163.15</ele>
        <time>2026-08-06T13:32:14.370Z</time>
      </trkpt>
      <trkpt lat="49.2067" lon="5.35344">
        <ele>163.26</ele>
        <time>2026-08-06T13:32:20.370Z</time>
      </trkpt>
      <trkpt lat="49.20683" lon="5.35323">
        <ele>163.88</ele>
        <time>2026-08-06T13:32:26.378Z</time>
      </trkpt>
      <trkpt lat="49.20696" lon="5.353">
        <ele>164.63</ele>
        <time>2026-08-06T13:32:32.372Z</time>
      </trkpt>
      <trkpt lat="49.20711" lon="5.35274">
        <ele>164.78</ele>
        <time>2026-08-06T13:32:38.368Z</time>
      </trkpt>
      <trkpt lat="49.20726" lon="5.35247">
        <ele>163.74</ele>
        <time>2026-08-06T13:32:44.371Z</time>
      </trkpt>
      <trkpt lat="49.2074" lon="5.35221">
        <ele>163.55</ele>
        <time>2026-08-06T13:32:50.372Z</time>
      </trkpt>
      <trkpt lat="49.20755" lon="5.35194">
        <ele>162.66</ele>
        <time>2026-08-06T13:32:56.378Z</time>
      </trkpt>
      <trkpt lat="49.20772" lon="5.35166">
        <ele>162.89</ele>
        <time>2026-08-06T13:33:02.365Z</time>
      </trkpt>
      <trkpt lat="49.2079" lon="5.35137">
        <ele>162.61</ele>
        <time>2026-08-06T13:33:08.369Z</time>
      </trkpt>
      <trkpt lat="49.20812" lon="5.35102">
        <ele>161.15</ele>
        <time>2026-08-06T13:33:14.367Z</time>
      </trkpt>
      <trkpt lat="49.20837" lon="5.35066">
        <ele>160.08</ele>
        <time>2026-08-06T13:33:20.368Z</time>
      </trkpt>
      <trkpt lat="49.20863" lon="5.35028">
        <ele>159.26</ele>
        <time>2026-08-06T13:33:26.380Z</time>
      </trkpt>
      <trkpt lat="49.20888" lon="5.34993">
        <ele>159.91</ele>
        <time>2026-08-06T13:33:32.374Z</time>
      </trkpt>
      <trkpt lat="49.20909" lon="5.3496">
        <ele>160.52</ele>
        <time>2026-08-06T13:33:38.369Z</time>
      </trkpt>
      <trkpt lat="49.20928" lon="5.34932">
        <ele>161.21</ele>
        <time>2026-08-06T13:33:44.370Z</time>
      </trkpt>
      <trkpt lat="49.20948" lon="5.34903">
        <ele>161.01</ele>
        <time>2026-08-06T13:33:50.368Z</time>
      </trkpt>
      <trkpt lat="49.20967" lon="5.34876">
        <ele>159.79</ele>
        <time>2026-08-06T13:33:56.384Z</time>
      </trkpt>
      <trkpt lat="49.20985" lon="5.3485">
        <ele>159.9</ele>
        <time>2026-08-06T13:34:02.374Z</time>
      </trkpt>
      <trkpt lat="49.21006" lon="5.34823">
        <ele>159.77</ele>
        <time>2026-08-06T13:34:08.370Z</time>
      </trkpt>
      <trkpt lat="49.21024" lon="5.34797">
        <ele>162.05</ele>
        <time>2026-08-06T13:34:14.371Z</time>
      </trkpt>
      <trkpt lat="49.21041" lon="5.34771">
        <ele>163.51</ele>
        <time>2026-08-06T13:34:20.372Z</time>
      </trkpt>
      <trkpt lat="49.21055" lon="5.34741">
        <ele>163.2</ele>
        <time>2026-08-06T13:34:26.381Z</time>
      </trkpt>
      <trkpt lat="49.21066" lon="5.34709">
        <ele>161.96</ele>
        <time>2026-08-06T13:34:32.378Z</time>
      </trkpt>
      <trkpt lat="49.21075" lon="5.34671">
        <ele>160.59</ele>
        <time>2026-08-06T13:34:38.366Z</time>
      </trkpt>
      <trkpt lat="49.21084" lon="5.34631">
        <ele>159.46</ele>
        <time>2026-08-06T13:34:44.365Z</time>
      </trkpt>
      <trkpt lat="49.21093" lon="5.34588">
        <ele>158.96</ele>
        <time>2026-08-06T13:34:50.370Z</time>
      </trkpt>
      <trkpt lat="49.21102" lon="5.34544">
        <ele>158.75</ele>
        <time>2026-08-06T13:34:56.379Z</time>
      </trkpt>
      <trkpt lat="49.21111" lon="5.34497">
        <ele>157.18</ele>
        <time>2026-08-06T13:35:02.377Z</time>
      </trkpt>
      <trkpt lat="49.21118" lon="5.34451">
        <ele>156.39</ele>
        <time>2026-08-06T13:35:08.375Z</time>
      </trkpt>
      <trkpt lat="49.21125" lon="5.34404">
        <ele>156.04</ele>
        <time>2026-08-06T13:35:14.372Z</time>
      </trkpt>
      <trkpt lat="49.21133" lon="5.34355">
        <ele>156.15</ele>
        <time>2026-08-06T13:35:20.375Z</time>
      </trkpt>
      <trkpt lat="49.2114" lon="5.3431">
        <ele>156.44</ele>
        <time>2026-08-06T13:35:26.379Z</time>
      </trkpt>
      <trkpt lat="49.21147" lon="5.34266">
        <ele>156.76</ele>
        <time>2026-08-06T13:35:32.382Z</time>
      </trkpt>
      <trkpt lat="49.21152" lon="5.34224">
        <ele>157.43</ele>
        <time>2026-08-06T13:35:38.374Z</time>
      </trkpt>
      <trkpt lat="49.21156" lon="5.34181">
        <ele>156.58</ele>
        <time>2026-08-06T13:35:44.374Z</time>
      </trkpt>
      <trkpt lat="49.21159" lon="5.3414">
        <ele>156.63</ele>
        <time>2026-08-06T13:35:50.379Z</time>
      </trkpt>
      <trkpt lat="49.2116" lon="5.341">
        <ele>157.75</ele>
        <time>2026-08-06T13:35:56.378Z</time>
      </trkpt>
      <trkpt lat="49.2116" lon="5.34062">
        <ele>159.33</ele>
        <time>2026-08-06T13:36:02.379Z</time>
      </trkpt>
      <trkpt lat="49.21161" lon="5.34024">
        <ele>160.76</ele>
        <time>2026-08-06T13:36:08.381Z</time>
      </trkpt>
      <trkpt lat="49.21161" lon="5.33985">
        <ele>161.3</ele>
        <time>2026-08-06T13:36:14.377Z</time>
      </trkpt>
      <trkpt lat="49.2116" lon="5.33944">
        <ele>161.39</ele>
        <time>2026-08-06T13:36:20.377Z</time>
      </trkpt>
      <trkpt lat="49.2116" lon="5.33899">
        <ele>160.42</ele>
        <time>2026-08-06T13:36:26.379Z</time>
      </trkpt>
      <trkpt lat="49.2116" lon="5.33854">
        <ele>158.88</ele>
        <time>2026-08-06T13:36:32.380Z</time>
      </trkpt>
      <trkpt lat="49.2116" lon="5.33806">
        <ele>157.26</ele>
        <time>2026-08-06T13:36:38.381Z</time>
      </trkpt>
      <trkpt lat="49.2116" lon="5.33757">
        <ele>156.13</ele>
        <time>2026-08-06T13:36:44.380Z</time>
      </trkpt>
      <trkpt lat="49.21159" lon="5.33708">
        <ele>155.27</ele>
        <time>2026-08-06T13:36:50.370Z</time>
      </trkpt>
      <trkpt lat="49.21159" lon="5.33661">
        <ele>158.4</ele>
        <time>2026-08-06T13:36:56.370Z</time>
      </trkpt>
      <trkpt lat="49.21154" lon="5.33612">
        <ele>159.17</ele>
        <time>2026-08-06T13:37:02.386Z</time>
      </trkpt>
      <trkpt lat="49.21144" lon="5.33565">
        <ele>156.78</ele>
        <time>2026-08-06T13:37:08.379Z</time>
      </trkpt>
      <trkpt lat="49.21131" lon="5.33512">
        <ele>153.77</ele>
        <time>2026-08-06T13:37:14.381Z</time>
      </trkpt>
      <trkpt lat="49.21118" lon="5.33452">
        <ele>152.16</ele>
        <time>2026-08-06T13:37:20.371Z</time>
      </trkpt>
      <trkpt lat="49.21106" lon="5.33386">
        <ele>151.45</ele>
        <time>2026-08-06T13:37:26.369Z</time>
      </trkpt>
      <trkpt lat="49.21094" lon="5.33316">
        <ele>150.67</ele>
        <time>2026-08-06T13:37:32.380Z</time>
      </trkpt>
      <trkpt lat="49.21082" lon="5.3325">
        <ele>150.5</ele>
        <time>2026-08-06T13:37:38.368Z</time>
      </trkpt>
      <trkpt lat="49.21073" lon="5.33202">
        <ele>151.34</ele>
        <time>2026-08-06T13:37:44.374Z</time>
      </trkpt>
      <trkpt lat="49.21067" lon="5.33163">
        <ele>152.23</ele>
        <time>2026-08-06T13:37:50.382Z</time>
      </trkpt>
      <trkpt lat="49.2106" lon="5.33122">
        <ele>152.97</ele>
        <time>2026-08-06T13:37:56.378Z</time>
      </trkpt>
      <trkpt lat="49.21053" lon="5.33083">
        <ele>153.95</ele>
        <time>2026-08-06T13:38:02.380Z</time>
      </trkpt>
      <trkpt lat="49.21049" lon="5.33042">
        <ele>156.13</ele>
        <time>2026-08-06T13:38:08.380Z</time>
      </trkpt>
      <trkpt lat="49.21044" lon="5.32999">
        <ele>157.22</ele>
        <time>2026-08-06T13:38:14.381Z</time>
      </trkpt>
      <trkpt lat="49.21039" lon="5.32951">
        <ele>156.57</ele>
        <time>2026-08-06T13:38:20.383Z</time>
      </trkpt>
      <trkpt lat="49.21033" lon="5.32899">
        <ele>153.88</ele>
        <time>2026-08-06T13:38:26.382Z</time>
      </trkpt>
      <trkpt lat="49.21026" lon="5.32842">
        <ele>150.94</ele>
        <time>2026-08-06T13:38:32.381Z</time>
      </trkpt>
      <trkpt lat="49.21017" lon="5.32782">
        <ele>148.49</ele>
        <time>2026-08-06T13:38:38.383Z</time>
      </trkpt>
      <trkpt lat="49.21012" lon="5.3272">
        <ele>146.68</ele>
        <time>2026-08-06T13:38:44.382Z</time>
      </trkpt>
      <trkpt lat="49.21011" lon="5.32663">
        <ele>146.13</ele>
        <time>2026-08-06T13:38:50.383Z</time>
      </trkpt>
      <trkpt lat="49.21014" lon="5.32619">
        <ele>146.76</ele>
        <time>2026-08-06T13:38:56.383Z</time>
      </trkpt>
      <trkpt lat="49.21016" lon="5.3258">
        <ele>147.41</ele>
        <time>2026-08-06T13:39:02.379Z</time>
      </trkpt>
      <trkpt lat="49.21016" lon="5.32536">
        <ele>147.85</ele>
        <time>2026-08-06T13:39:08.380Z</time>
      </trkpt>
      <trkpt lat="49.21013" lon="5.32495">
        <ele>148.21</ele>
        <time>2026-08-06T13:39:14.382Z</time>
      </trkpt>
      <trkpt lat="49.21009" lon="5.3245">
        <ele>148.11</ele>
        <time>2026-08-06T13:39:20.383Z</time>
      </trkpt>
      <trkpt lat="49.21001" lon="5.32405">
        <ele>147.55</ele>
        <time>2026-08-06T13:39:26.383Z</time>
      </trkpt>
      <trkpt lat="49.20992" lon="5.32358">
        <ele>147.19</ele>
        <time>2026-08-06T13:39:32.384Z</time>
      </trkpt>
      <trkpt lat="49.20982" lon="5.32309">
        <ele>146.14</ele>
        <time>2026-08-06T13:39:38.382Z</time>
      </trkpt>
      <trkpt lat="49.20973" lon="5.32261">
        <ele>144.37</ele>
        <time>2026-08-06T13:39:44.384Z</time>
      </trkpt>
      <trkpt lat="49.20966" lon="5.32213">
        <ele>143.51</ele>
        <time>2026-08-06T13:39:50.383Z</time>
      </trkpt>
      <trkpt lat="49.20962" lon="5.32164">
        <ele>142.6</ele>
        <time>2026-08-06T13:39:56.380Z</time>
      </trkpt>
      <trkpt lat="49.20961" lon="5.32119">
        <ele>142.09</ele>
        <time>2026-08-06T13:40:02.382Z</time>
      </trkpt>
      <trkpt lat="49.2096" lon="5.32076">
        <ele>142.78</ele>
        <time>2026-08-06T13:40:08.385Z</time>
      </trkpt>
      <trkpt lat="49.20958" lon="5.32035">
        <ele>143.4</ele>
        <time>2026-08-06T13:40:14.383Z</time>
      </trkpt>
      <trkpt lat="49.20956" lon="5.31997">
        <ele>144.68</ele>
        <time>2026-08-06T13:40:20.382Z</time>
      </trkpt>
      <trkpt lat="49.20954" lon="5.31955">
        <ele>146.04</ele>
        <time>2026-08-06T13:40:26.386Z</time>
      </trkpt>
      <trkpt lat="49.20952" lon="5.31912">
        <ele>146.09</ele>
        <time>2026-08-06T13:40:32.380Z</time>
      </trkpt>
      <trkpt lat="49.2095" lon="5.31868">
        <ele>145.6</ele>
        <time>2026-08-06T13:40:38.382Z</time>
      </trkpt>
      <trkpt lat="49.20951" lon="5.31823">
        <ele>146.21</ele>
        <time>2026-08-06T13:40:44.380Z</time>
      </trkpt>
      <trkpt lat="49.20953" lon="5.31778">
        <ele>145.31</ele>
        <time>2026-08-06T13:40:50.380Z</time>
      </trkpt>
      <trkpt lat="49.20956" lon="5.31735">
        <ele>145.62</ele>
        <time>2026-08-06T13:40:56.355Z</time>
      </trkpt>
      <trkpt lat="49.20959" lon="5.31694">
        <ele>145.35</ele>
        <time>2026-08-06T13:41:02.380Z</time>
      </trkpt>
      <trkpt lat="49.20963" lon="5.31656">
        <ele>146.14</ele>
        <time>2026-08-06T13:41:08.383Z</time>
      </trkpt>
      <trkpt lat="49.20965" lon="5.31618">
        <ele>148.27</ele>
        <time>2026-08-06T13:41:14.384Z</time>
      </trkpt>
      <trkpt lat="49.20965" lon="5.31581">
        <ele>148.99</ele>
        <time>2026-08-06T13:41:20.382Z</time>
      </trkpt>
      <trkpt lat="49.20965" lon="5.31543">
        <ele>149.06</ele>
        <time>2026-08-06T13:41:26.380Z</time>
      </trkpt>
      <trkpt lat="49.20964" lon="5.31506">
        <ele>149.46</ele>
        <time>2026-08-06T13:41:32.382Z</time>
      </trkpt>
      <trkpt lat="49.20963" lon="5.31469">
        <ele>149.75</ele>
        <time>2026-08-06T13:41:38.385Z</time>
      </trkpt>
      <trkpt lat="49.20962" lon="5.31427">
        <ele>149.3</ele>
        <time>2026-08-06T13:41:44.386Z</time>
      </trkpt>
      <trkpt lat="49.20961" lon="5.31384">
        <ele>148.46</ele>
        <time>2026-08-06T13:41:50.378Z</time>
      </trkpt>
      <trkpt lat="49.20961" lon="5.3134">
        <ele>148.1</ele>
        <time>2026-08-06T13:41:56.379Z</time>
      </trkpt>
      <trkpt lat="49.20963" lon="5.31297">
        <ele>147.29</ele>
        <time>2026-08-06T13:42:02.382Z</time>
      </trkpt>
      <trkpt lat="49.20967" lon="5.31253">
        <ele>146.04</ele>
        <time>2026-08-06T13:42:08.381Z</time>
      </trkpt>
      <trkpt lat="49.20974" lon="5.31212">
        <ele>145.86</ele>
        <time>2026-08-06T13:42:14.384Z</time>
      </trkpt>
      <trkpt lat="49.20983" lon="5.3117">
        <ele>145.52</ele>
        <time>2026-08-06T13:42:20.387Z</time>
      </trkpt>
      <trkpt lat="49.20994" lon="5.31129">
        <ele>146</ele>
        <time>2026-08-06T13:42:26.378Z</time>
      </trkpt>
      <trkpt lat="49.21003" lon="5.31092">
        <ele>146.72</ele>
        <time>2026-08-06T13:42:32.382Z</time>
      </trkpt>
      <trkpt lat="49.21008" lon="5.31056">
        <ele>147.83</ele>
        <time>2026-08-06T13:42:38.381Z</time>
      </trkpt>
      <trkpt lat="49.2101" lon="5.31018">
        <ele>148.35</ele>
        <time>2026-08-06T13:42:44.381Z</time>
      </trkpt>
      <trkpt lat="49.21009" lon="5.30983">
        <ele>150.53</ele>
        <time>2026-08-06T13:42:50.377Z</time>
      </trkpt>
      <trkpt lat="49.21008" lon="5.30948">
        <ele>149.49</ele>
        <time>2026-08-06T13:42:56.380Z</time>
      </trkpt>
      <trkpt lat="49.21007" lon="5.30913">
        <ele>148.84</ele>
        <time>2026-08-06T13:43:02.382Z</time>
      </trkpt>
      <trkpt lat="49.21005" lon="5.30873">
        <ele>148.32</ele>
        <time>2026-08-06T13:43:08.379Z</time>
      </trkpt>
      <trkpt lat="49.21005" lon="5.30824">
        <ele>146.55</ele>
        <time>2026-08-06T13:43:14.381Z</time>
      </trkpt>
      <trkpt lat="49.21011" lon="5.30771">
        <ele>145.46</ele>
        <time>2026-08-06T13:43:20.385Z</time>
      </trkpt>
      <trkpt lat="49.21026" lon="5.30722">
        <ele>144.96</ele>
        <time>2026-08-06T13:43:26.367Z</time>
      </trkpt>
      <trkpt lat="49.21043" lon="5.30673">
        <ele>144.82</ele>
        <time>2026-08-06T13:43:32.380Z</time>
      </trkpt>
      <trkpt lat="49.21059" lon="5.30627">
        <ele>144.88</ele>
        <time>2026-08-06T13:43:38.383Z</time>
      </trkpt>
      <trkpt lat="49.21077" lon="5.30587">
        <ele>144.42</ele>
        <time>2026-08-06T13:43:44.378Z</time>
      </trkpt>
      <trkpt lat="49.21097" lon="5.30549">
        <ele>144.3</ele>
        <time>2026-08-06T13:43:50.382Z</time>
      </trkpt>
      <trkpt lat="49.21116" lon="5.30513">
        <ele>143.86</ele>
        <time>2026-08-06T13:43:56.381Z</time>
      </trkpt>
      <trkpt lat="49.21137" lon="5.30476">
        <ele>143</ele>
        <time>2026-08-06T13:44:02.380Z</time>
      </trkpt>
      <trkpt lat="49.21156" lon="5.30436">
        <ele>142.12</ele>
        <time>2026-08-06T13:44:08.383Z</time>
      </trkpt>
      <trkpt lat="49.21169" lon="5.30388">
        <ele>143.13</ele>
        <time>2026-08-06T13:44:14.381Z</time>
      </trkpt>
      <trkpt lat="49.21173" lon="5.30339">
        <ele>146.51</ele>
        <time>2026-08-06T13:44:20.385Z</time>
      </trkpt>
      <trkpt lat="49.21163" lon="5.30294">
        <ele>146.71</ele>
        <time>2026-08-06T13:44:26.381Z</time>
      </trkpt>
      <trkpt lat="49.21146" lon="5.30254">
        <ele>146.53</ele>
        <time>2026-08-06T13:44:32.383Z</time>
      </trkpt>
      <trkpt lat="49.21136" lon="5.30214">
        <ele>145.46</ele>
        <time>2026-08-06T13:44:38.381Z</time>
      </trkpt>
      <trkpt lat="49.21142" lon="5.3017">
        <ele>146.31</ele>
        <time>2026-08-06T13:44:44.379Z</time>
      </trkpt>
      <trkpt lat="49.21154" lon="5.30134">
        <ele>143.12</ele>
        <time>2026-08-06T13:44:50.382Z</time>
      </trkpt>
      <trkpt lat="49.21165" lon="5.30094">
        <ele>143.08</ele>
        <time>2026-08-06T13:44:56.380Z</time>
      </trkpt>
      <trkpt lat="49.21174" lon="5.30048">
        <ele>144.89</ele>
        <time>2026-08-06T13:45:02.383Z</time>
      </trkpt>
      <trkpt lat="49.21181" lon="5.30003">
        <ele>145.71</ele>
        <time>2026-08-06T13:45:08.381Z</time>
      </trkpt>
      <trkpt lat="49.21188" lon="5.29955">
        <ele>144.28</ele>
        <time>2026-08-06T13:45:14.383Z</time>
      </trkpt>
      <trkpt lat="49.21195" lon="5.29906">
        <ele>143.05</ele>
        <time>2026-08-06T13:45:20.376Z</time>
      </trkpt>
      <trkpt lat="49.21206" lon="5.29857">
        <ele>143.44</ele>
        <time>2026-08-06T13:45:26.381Z</time>
      </trkpt>
      <trkpt lat="49.2122" lon="5.29812">
        <ele>145.1</ele>
        <time>2026-08-06T13:45:32.385Z</time>
      </trkpt>
      <trkpt lat="49.21229" lon="5.29771">
        <ele>145.63</ele>
        <time>2026-08-06T13:45:38.375Z</time>
      </trkpt>
      <trkpt lat="49.21237" lon="5.29731">
        <ele>145.07</ele>
        <time>2026-08-06T13:45:44.372Z</time>
      </trkpt>
      <trkpt lat="49.21243" lon="5.29695">
        <ele>145.87</ele>
        <time>2026-08-06T13:45:50.379Z</time>
      </trkpt>
      <trkpt lat="49.21249" lon="5.29659">
        <ele>146.81</ele>
        <time>2026-08-06T13:45:56.379Z</time>
      </trkpt>
      <trkpt lat="49.21254" lon="5.29623">
        <ele>147.22</ele>
        <time>2026-08-06T13:46:02.380Z</time>
      </trkpt>
      <trkpt lat="49.21259" lon="5.29586">
        <ele>147.52</ele>
        <time>2026-08-06T13:46:08.381Z</time>
      </trkpt>
      <trkpt lat="49.21265" lon="5.2955">
        <ele>148.25</ele>
        <time>2026-08-06T13:46:14.375Z</time>
      </trkpt>
      <trkpt lat="49.21271" lon="5.29508">
        <ele>147.13</ele>
        <time>2026-08-06T13:46:20.377Z</time>
      </trkpt>
      <trkpt lat="49.2128" lon="5.29463">
        <ele>145.59</ele>
        <time>2026-08-06T13:46:26.383Z</time>
      </trkpt>
      <trkpt lat="49.2129" lon="5.29418">
        <ele>143.97</ele>
        <time>2026-08-06T13:46:32.379Z</time>
      </trkpt>
      <trkpt lat="49.213" lon="5.29378">
        <ele>143.22</ele>
        <time>2026-08-06T13:46:38.382Z</time>
      </trkpt>
      <trkpt lat="49.2131" lon="5.29336">
        <ele>143.12</ele>
        <time>2026-08-06T13:46:44.377Z</time>
      </trkpt>
      <trkpt lat="49.21319" lon="5.29296">
        <ele>143.01</ele>
        <time>2026-08-06T13:46:50.377Z</time>
      </trkpt>
      <trkpt lat="49.21329" lon="5.29258">
        <ele>142.78</ele>
        <time>2026-08-06T13:46:56.381Z</time>
      </trkpt>
      <trkpt lat="49.2134" lon="5.2922">
        <ele>143.91</ele>
        <time>2026-08-06T13:47:02.381Z</time>
      </trkpt>
      <trkpt lat="49.21354" lon="5.29183">
        <ele>143.87</ele>
        <time>2026-08-06T13:47:08.377Z</time>
      </trkpt>
      <trkpt lat="49.21372" lon="5.29151">
        <ele>143.82</ele>
        <time>2026-08-06T13:47:14.381Z</time>
      </trkpt>
      <trkpt lat="49.21393" lon="5.29124">
        <ele>143.47</ele>
        <time>2026-08-06T13:47:20.378Z</time>
      </trkpt>
      <trkpt lat="49.21416" lon="5.29099">
        <ele>143.15</ele>
        <time>2026-08-06T13:47:26.383Z</time>
      </trkpt>
      <trkpt lat="49.21441" lon="5.29073">
        <ele>142.72</ele>
        <time>2026-08-06T13:47:32.381Z</time>
      </trkpt>
      <trkpt lat="49.21465" lon="5.29046">
        <ele>142.32</ele>
        <time>2026-08-06T13:47:38.381Z</time>
      </trkpt>
      <trkpt lat="49.21489" lon="5.2902">
        <ele>142.32</ele>
        <time>2026-08-06T13:47:44.381Z</time>
      </trkpt>
      <trkpt lat="49.21512" lon="5.28991">
        <ele>142.66</ele>
        <time>2026-08-06T13:47:50.379Z</time>
      </trkpt>
      <trkpt lat="49.21534" lon="5.28963">
        <ele>142.3</ele>
        <time>2026-08-06T13:47:56.381Z</time>
      </trkpt>
      <trkpt lat="49.21556" lon="5.28935">
        <ele>142.51</ele>
        <time>2026-08-06T13:48:02.384Z</time>
      </trkpt>
      <trkpt lat="49.21577" lon="5.28906">
        <ele>142.94</ele>
        <time>2026-08-06T13:48:08.379Z</time>
      </trkpt>
      <trkpt lat="49.21598" lon="5.28877">
        <ele>142.82</ele>
        <time>2026-08-06T13:48:14.381Z</time>
      </trkpt>
      <trkpt lat="49.21619" lon="5.28848">
        <ele>142.7</ele>
        <time>2026-08-06T13:48:20.379Z</time>
      </trkpt>
      <trkpt lat="49.2164" lon="5.28819">
        <ele>142.46</ele>
        <time>2026-08-06T13:48:26.383Z</time>
      </trkpt>
      <trkpt lat="49.21662" lon="5.28789">
        <ele>142.63</ele>
        <time>2026-08-06T13:48:32.383Z</time>
      </trkpt>
      <trkpt lat="49.21683" lon="5.2876">
        <ele>143.31</ele>
        <time>2026-08-06T13:48:38.384Z</time>
      </trkpt>
      <trkpt lat="49.21705" lon="5.2873">
        <ele>143.48</ele>
        <time>2026-08-06T13:48:44.382Z</time>
      </trkpt>
      <trkpt lat="49.21726" lon="5.287">
        <ele>143.66</ele>
        <time>2026-08-06T13:48:50.380Z</time>
      </trkpt>
      <trkpt lat="49.21747" lon="5.28672">
        <ele>143.89</ele>
        <time>2026-08-06T13:48:56.382Z</time>
      </trkpt>
      <trkpt lat="49.21767" lon="5.28643">
        <ele>143.73</ele>
        <time>2026-08-06T13:49:02.386Z</time>
      </trkpt>
      <trkpt lat="49.21789" lon="5.28613">
        <ele>142.81</ele>
        <time>2026-08-06T13:49:08.384Z</time>
      </trkpt>
      <trkpt lat="49.2181" lon="5.28584">
        <ele>142.61</ele>
        <time>2026-08-06T13:49:14.384Z</time>
      </trkpt>
      <trkpt lat="49.21829" lon="5.28556">
        <ele>142.65</ele>
        <time>2026-08-06T13:49:20.386Z</time>
      </trkpt>
      <trkpt lat="49.21848" lon="5.28529">
        <ele>142.84</ele>
        <time>2026-08-06T13:49:26.386Z</time>
      </trkpt>
      <trkpt lat="49.21868" lon="5.28503">
        <ele>142.94</ele>
        <time>2026-08-06T13:49:32.381Z</time>
      </trkpt>
      <trkpt lat="49.21889" lon="5.28473">
        <ele>143.17</ele>
        <time>2026-08-06T13:49:38.383Z</time>
      </trkpt>
      <trkpt lat="49.2191" lon="5.28444">
        <ele>143.07</ele>
        <time>2026-08-06T13:49:44.386Z</time>
      </trkpt>
      <trkpt lat="49.2193" lon="5.28417">
        <ele>143.93</ele>
        <time>2026-08-06T13:49:50.378Z</time>
      </trkpt>
      <trkpt lat="49.2195" lon="5.28388">
        <ele>143.74</ele>
        <time>2026-08-06T13:49:56.381Z</time>
      </trkpt>
      <trkpt lat="49.21971" lon="5.28359">
        <ele>143.12</ele>
        <time>2026-08-06T13:50:02.384Z</time>
      </trkpt>
      <trkpt lat="49.21992" lon="5.28329">
        <ele>142.72</ele>
        <time>2026-08-06T13:50:08.382Z</time>
      </trkpt>
      <trkpt lat="49.2201" lon="5.28302">
        <ele>143.96</ele>
        <time>2026-08-06T13:50:14.383Z</time>
      </trkpt>
      <trkpt lat="49.22031" lon="5.28277">
        <ele>145.33</ele>
        <time>2026-08-06T13:50:20.380Z</time>
      </trkpt>
      <trkpt lat="49.22055" lon="5.28251">
        <ele>144.65</ele>
        <time>2026-08-06T13:50:26.383Z</time>
      </trkpt>
      <trkpt lat="49.22078" lon="5.28228">
        <ele>145.36</ele>
        <time>2026-08-06T13:50:32.383Z</time>
      </trkpt>
      <trkpt lat="49.22101" lon="5.28213">
        <ele>144.87</ele>
        <time>2026-08-06T13:50:38.384Z</time>
      </trkpt>
      <trkpt lat="49.2213" lon="5.282">
        <ele>145.26</ele>
        <time>2026-08-06T13:50:44.373Z</time>
      </trkpt>
      <trkpt lat="49.22158" lon="5.28185">
        <ele>145.25</ele>
        <time>2026-08-06T13:50:50.371Z</time>
      </trkpt>
      <trkpt lat="49.22187" lon="5.2817">
        <ele>143.13</ele>
        <time>2026-08-06T13:50:56.371Z</time>
      </trkpt>
      <trkpt lat="49.22215" lon="5.28155">
        <ele>142.38</ele>
        <time>2026-08-06T13:51:02.370Z</time>
      </trkpt>
      <trkpt lat="49.22245" lon="5.28141">
        <ele>142.31</ele>
        <time>2026-08-06T13:51:08.372Z</time>
      </trkpt>
      <trkpt lat="49.22274" lon="5.28126">
        <ele>142.99</ele>
        <time>2026-08-06T13:51:14.373Z</time>
      </trkpt>
      <trkpt lat="49.22302" lon="5.28113">
        <ele>141.99</ele>
        <time>2026-08-06T13:51:20.373Z</time>
      </trkpt>
      <trkpt lat="49.2233" lon="5.28095">
        <ele>142.24</ele>
        <time>2026-08-06T13:51:26.372Z</time>
      </trkpt>
      <trkpt lat="49.22358" lon="5.28078">
        <ele>142.89</ele>
        <time>2026-08-06T13:51:32.375Z</time>
      </trkpt>
      <trkpt lat="49.22385" lon="5.28062">
        <ele>143.55</ele>
        <time>2026-08-06T13:51:38.382Z</time>
      </trkpt>
      <trkpt lat="49.22414" lon="5.28046">
        <ele>143.52</ele>
        <time>2026-08-06T13:51:44.377Z</time>
      </trkpt>
      <trkpt lat="49.22441" lon="5.2803">
        <ele>143.72</ele>
        <time>2026-08-06T13:51:50.373Z</time>
      </trkpt>
      <trkpt lat="49.22468" lon="5.28014">
        <ele>144.04</ele>
        <time>2026-08-06T13:51:56.370Z</time>
      </trkpt>
      <trkpt lat="49.22495" lon="5.28002">
        <ele>144.02</ele>
        <time>2026-08-06T13:52:02.368Z</time>
      </trkpt>
      <trkpt lat="49.22523" lon="5.27994">
        <ele>143.72</ele>
        <time>2026-08-06T13:52:08.369Z</time>
      </trkpt>
      <trkpt lat="49.22552" lon="5.27991">
        <ele>143.79</ele>
        <time>2026-08-06T13:52:14.378Z</time>
      </trkpt>
      <trkpt lat="49.22578" lon="5.27989">
        <ele>143.62</ele>
        <time>2026-08-06T13:52:20.371Z</time>
      </trkpt>
      <trkpt lat="49.22605" lon="5.27988">
        <ele>143.84</ele>
        <time>2026-08-06T13:52:26.371Z</time>
      </trkpt>
      <trkpt lat="49.22635" lon="5.27987">
        <ele>143.93</ele>
        <time>2026-08-06T13:52:32.379Z</time>
      </trkpt>
      <trkpt lat="49.22665" lon="5.27986">
        <ele>143.33</ele>
        <time>2026-08-06T13:52:38.381Z</time>
      </trkpt>
      <trkpt lat="49.22695" lon="5.27986">
        <ele>143.29</ele>
        <time>2026-08-06T13:52:44.371Z</time>
      </trkpt>
      <trkpt lat="49.22724" lon="5.27987">
        <ele>143.62</ele>
        <time>2026-08-06T13:52:50.380Z</time>
      </trkpt>
      <trkpt lat="49.22754" lon="5.27989">
        <ele>143</ele>
        <time>2026-08-06T13:52:56.380Z</time>
      </trkpt>
      <trkpt lat="49.22784" lon="5.27992">
        <ele>143.09</ele>
        <time>2026-08-06T13:53:02.369Z</time>
      </trkpt>
      <trkpt lat="49.22815" lon="5.27998">
        <ele>143.88</ele>
        <time>2026-08-06T13:53:08.372Z</time>
      </trkpt>
      <trkpt lat="49.22846" lon="5.28008">
        <ele>144.94</ele>
        <time>2026-08-06T13:53:14.375Z</time>
      </trkpt>
      <trkpt lat="49.22876" lon="5.2802">
        <ele>145.45</ele>
        <time>2026-08-06T13:53:20.374Z</time>
      </trkpt>
      <trkpt lat="49.22909" lon="5.28035">
        <ele>145.72</ele>
        <time>2026-08-06T13:53:26.367Z</time>
      </trkpt>
      <trkpt lat="49.2294" lon="5.28048">
        <ele>146.1</ele>
        <time>2026-08-06T13:53:32.386Z</time>
      </trkpt>
      <trkpt lat="49.22973" lon="5.28058">
        <ele>145.92</ele>
        <time>2026-08-06T13:53:38.378Z</time>
      </trkpt>
      <trkpt lat="49.23009" lon="5.28051">
        <ele>145.85</ele>
        <time>2026-08-06T13:53:44.386Z</time>
      </trkpt>
      <trkpt lat="49.23042" lon="5.2803">
        <ele>145.69</ele>
        <time>2026-08-06T13:53:50.385Z</time>
      </trkpt>
      <trkpt lat="49.23076" lon="5.28019">
        <ele>146.88</ele>
        <time>2026-08-06T13:53:56.384Z</time>
      </trkpt>
      <trkpt lat="49.23107" lon="5.28027">
        <ele>146.68</ele>
        <time>2026-08-06T13:54:02.381Z</time>
      </trkpt>
      <trkpt lat="49.23136" lon="5.28038">
        <ele>146.03</ele>
        <time>2026-08-06T13:54:08.387Z</time>
      </trkpt>
      <trkpt lat="49.23159" lon="5.28042">
        <ele>145.58</ele>
        <time>2026-08-06T13:54:14.384Z</time>
      </trkpt>
      <trkpt lat="49.23179" lon="5.2804">
        <ele>146.6</ele>
        <time>2026-08-06T13:54:20.384Z</time>
      </trkpt>
      <trkpt lat="49.23204" lon="5.28029">
        <ele>147.93</ele>
        <time>2026-08-06T13:54:26.382Z</time>
      </trkpt>
      <trkpt lat="49.2323" lon="5.28016">
        <ele>148.16</ele>
        <time>2026-08-06T13:54:32.396Z</time>
      </trkpt>
      <trkpt lat="49.23253" lon="5.27994">
        <ele>149.07</ele>
        <time>2026-08-06T13:54:38.381Z</time>
      </trkpt>
      <trkpt lat="49.23274" lon="5.27973">
        <ele>149.46</ele>
        <time>2026-08-06T13:54:44.384Z</time>
      </trkpt>
      <trkpt lat="49.23295" lon="5.27961">
        <ele>151.25</ele>
        <time>2026-08-06T13:54:50.382Z</time>
      </trkpt>
      <trkpt lat="49.23317" lon="5.27949">
        <ele>152.64</ele>
        <time>2026-08-06T13:54:56.381Z</time>
      </trkpt>
      <trkpt lat="49.23337" lon="5.27937">
        <ele>154.09</ele>
        <time>2026-08-06T13:55:02.385Z</time>
      </trkpt>
      <trkpt lat="49.23358" lon="5.27926">
        <ele>156.73</ele>
        <time>2026-08-06T13:55:08.375Z</time>
      </trkpt>
      <trkpt lat="49.23377" lon="5.27915">
        <ele>156.21</ele>
        <time>2026-08-06T13:55:14.382Z</time>
      </trkpt>
      <trkpt lat="49.23397" lon="5.27904">
        <ele>157.33</ele>
        <time>2026-08-06T13:55:20.380Z</time>
      </trkpt>
      <trkpt lat="49.23415" lon="5.27895">
        <ele>157.57</ele>
        <time>2026-08-06T13:55:26.386Z</time>
      </trkpt>
      <trkpt lat="49.23432" lon="5.27885">
        <ele>157.79</ele>
        <time>2026-08-06T13:55:32.387Z</time>
      </trkpt>
      <trkpt lat="49.23448" lon="5.27876">
        <ele>159.19</ele>
        <time>2026-08-06T13:55:38.383Z</time>
      </trkpt>
      <trkpt lat="49.23465" lon="5.27872">
        <ele>159.46</ele>
        <time>2026-08-06T13:55:44.382Z</time>
      </trkpt>
      <trkpt lat="49.23482" lon="5.27873">
        <ele>160.5</ele>
        <time>2026-08-06T13:55:50.386Z</time>
      </trkpt>
      <trkpt lat="49.23501" lon="5.27878">
        <ele>160.6</ele>
        <time>2026-08-06T13:55:56.377Z</time>
      </trkpt>
      <trkpt lat="49.23517" lon="5.27883">
        <ele>160.24</ele>
        <time>2026-08-06T13:56:02.383Z</time>
      </trkpt>
      <trkpt lat="49.23532" lon="5.2789">
        <ele>159.7</ele>
        <time>2026-08-06T13:56:08.384Z</time>
      </trkpt>
      <trkpt lat="49.23547" lon="5.27899">
        <ele>160.4</ele>
        <time>2026-08-06T13:56:14.385Z</time>
      </trkpt>
      <trkpt lat="49.23561" lon="5.27907">
        <ele>159.86</ele>
        <time>2026-08-06T13:56:20.382Z</time>
      </trkpt>
      <trkpt lat="49.23576" lon="5.27914">
        <ele>160.67</ele>
        <time>2026-08-06T13:56:26.389Z</time>
      </trkpt>
      <trkpt lat="49.2359" lon="5.27924">
        <ele>161.46</ele>
        <time>2026-08-06T13:56:32.386Z</time>
      </trkpt>
      <trkpt lat="49.23604" lon="5.27933">
        <ele>163</ele>
        <time>2026-08-06T13:56:38.382Z</time>
      </trkpt>
      <trkpt lat="49.23617" lon="5.27941">
        <ele>164.14</ele>
        <time>2026-08-06T13:56:44.385Z</time>
      </trkpt>
      <trkpt lat="49.23631" lon="5.27949">
        <ele>164.95</ele>
        <time>2026-08-06T13:56:50.386Z</time>
      </trkpt>
      <trkpt lat="49.23644" lon="5.27957">
        <ele>165.29</ele>
        <time>2026-08-06T13:56:56.385Z</time>
      </trkpt>
      <trkpt lat="49.23658" lon="5.27966">
        <ele>165.69</ele>
        <time>2026-08-06T13:57:02.387Z</time>
      </trkpt>
      <trkpt lat="49.23672" lon="5.27974">
        <ele>165.39</ele>
        <time>2026-08-06T13:57:08.379Z</time>
      </trkpt>
      <trkpt lat="49.23686" lon="5.27982">
        <ele>166.4</ele>
        <time>2026-08-06T13:57:14.383Z</time>
      </trkpt>
      <trkpt lat="49.237" lon="5.2799">
        <ele>167.56</ele>
        <time>2026-08-06T13:57:20.380Z</time>
      </trkpt>
      <trkpt lat="49.23715" lon="5.28">
        <ele>168.97</ele>
        <time>2026-08-06T13:57:26.386Z</time>
      </trkpt>
      <trkpt lat="49.2373" lon="5.2801">
        <ele>168.63</ele>
        <time>2026-08-06T13:57:32.384Z</time>
      </trkpt>
      <trkpt lat="49.23744" lon="5.28018">
        <ele>169.96</ele>
        <time>2026-08-06T13:57:38.388Z</time>
      </trkpt>
      <trkpt lat="49.23758" lon="5.28027">
        <ele>171.08</ele>
        <time>2026-08-06T13:57:44.388Z</time>
      </trkpt>
      <trkpt lat="49.23772" lon="5.28037">
        <ele>171.83</ele>
        <time>2026-08-06T13:57:50.387Z</time>
      </trkpt>
      <trkpt lat="49.23785" lon="5.28046">
        <ele>173.12</ele>
        <time>2026-08-06T13:57:56.384Z</time>
      </trkpt>
      <trkpt lat="49.23798" lon="5.28054">
        <ele>173.94</ele>
        <time>2026-08-06T13:58:02.385Z</time>
      </trkpt>
      <trkpt lat="49.23811" lon="5.28062">
        <ele>173.94</ele>
        <time>2026-08-06T13:58:08.380Z</time>
      </trkpt>
      <trkpt lat="49.23825" lon="5.28072">
        <ele>174.18</ele>
        <time>2026-08-06T13:58:14.378Z</time>
      </trkpt>
      <trkpt lat="49.23838" lon="5.28081">
        <ele>174.88</ele>
        <time>2026-08-06T13:58:20.380Z</time>
      </trkpt>
      <trkpt lat="49.23851" lon="5.2809">
        <ele>174.99</ele>
        <time>2026-08-06T13:58:26.383Z</time>
      </trkpt>
      <trkpt lat="49.23865" lon="5.28099">
        <ele>175.47</ele>
        <time>2026-08-06T13:58:32.391Z</time>
      </trkpt>
      <trkpt lat="49.23878" lon="5.28108">
        <ele>176.99</ele>
        <time>2026-08-06T13:58:38.380Z</time>
      </trkpt>
      <trkpt lat="49.2389" lon="5.28118">
        <ele>179.76</ele>
        <time>2026-08-06T13:58:44.381Z</time>
      </trkpt>
      <trkpt lat="49.23902" lon="5.28128">
        <ele>181.5</ele>
        <time>2026-08-06T13:58:50.383Z</time>
      </trkpt>
      <trkpt lat="49.23915" lon="5.28138">
        <ele>182.57</ele>
        <time>2026-08-06T13:58:56.387Z</time>
      </trkpt>
      <trkpt lat="49.23927" lon="5.28149">
        <ele>183.66</ele>
        <time>2026-08-06T13:59:02.387Z</time>
      </trkpt>
      <trkpt lat="49.23939" lon="5.28158">
        <ele>185.06</ele>
        <time>2026-08-06T13:59:08.381Z</time>
      </trkpt>
      <trkpt lat="49.23952" lon="5.28171">
        <ele>186.94</ele>
        <time>2026-08-06T13:59:14.380Z</time>
      </trkpt>
      <trkpt lat="49.23964" lon="5.28182">
        <ele>187.42</ele>
        <time>2026-08-06T13:59:20.382Z</time>
      </trkpt>
      <trkpt lat="49.23976" lon="5.28193">
        <ele>187.7</ele>
        <time>2026-08-06T13:59:26.375Z</time>
      </trkpt>
      <trkpt lat="49.23988" lon="5.28205">
        <ele>188.52</ele>
        <time>2026-08-06T13:59:32.386Z</time>
      </trkpt>
      <trkpt lat="49.24" lon="5.28217">
        <ele>189.21</ele>
        <time>2026-08-06T13:59:38.320Z</time>
      </trkpt>
      <trkpt lat="49.24013" lon="5.28229">
        <ele>189.81</ele>
        <time>2026-08-06T13:59:44.321Z</time>
      </trkpt>
      <trkpt lat="49.24024" lon="5.2824">
        <ele>190.37</ele>
        <time>2026-08-06T13:59:49.321Z</time>
      </trkpt>
      <trkpt lat="49.24034" lon="5.2825">
        <ele>190.85</ele>
        <time>2026-08-06T13:59:54.321Z</time>
      </trkpt>
      <trkpt lat="49.24046" lon="5.28264">
        <ele>191.19</ele>
        <time>2026-08-06T14:00:00.326Z</time>
      </trkpt>
      <trkpt lat="49.24058" lon="5.28277">
        <ele>192.14</ele>
        <time>2026-08-06T14:00:06.323Z</time>
      </trkpt>
      <trkpt lat="49.2407" lon="5.28291">
        <ele>192.95</ele>
        <time>2026-08-06T14:00:12.322Z</time>
      </trkpt>
      <trkpt lat="49.24083" lon="5.28305">
        <ele>193.02</ele>
        <time>2026-08-06T14:00:18.322Z</time>
      </trkpt>
      <trkpt lat="49.24095" lon="5.28318">
        <ele>193.98</ele>
        <time>2026-08-06T14:00:24.324Z</time>
      </trkpt>
      <trkpt lat="49.24108" lon="5.28332">
        <ele>194.19</ele>
        <time>2026-08-06T14:00:30.322Z</time>
      </trkpt>
      <trkpt lat="49.24119" lon="5.28344">
        <ele>194.07</ele>
        <time>2026-08-06T14:00:35.322Z</time>
      </trkpt>
      <trkpt lat="49.24128" lon="5.28353">
        <ele>193.59</ele>
        <time>2026-08-06T14:00:40.326Z</time>
      </trkpt>
      <trkpt lat="49.24141" lon="5.28366">
        <ele>193.68</ele>
        <time>2026-08-06T14:00:46.320Z</time>
      </trkpt>
      <trkpt lat="49.24154" lon="5.28378">
        <ele>194.56</ele>
        <time>2026-08-06T14:00:52.319Z</time>
      </trkpt>
      <trkpt lat="49.24166" lon="5.28391">
        <ele>195.74</ele>
        <time>2026-08-06T14:00:58.320Z</time>
      </trkpt>
      <trkpt lat="49.24179" lon="5.28405">
        <ele>196.59</ele>
        <time>2026-08-06T14:01:04.319Z</time>
      </trkpt>
      <trkpt lat="49.24191" lon="5.28415">
        <ele>196.47</ele>
        <time>2026-08-06T14:01:09.323Z</time>
      </trkpt>
      <trkpt lat="49.24202" lon="5.28427">
        <ele>196.35</ele>
        <time>2026-08-06T14:01:14.331Z</time>
      </trkpt>
      <trkpt lat="49.24217" lon="5.28442">
        <ele>196.06</ele>
        <time>2026-08-06T14:01:20.330Z</time>
      </trkpt>
      <trkpt lat="49.24232" lon="5.28458">
        <ele>197.46</ele>
        <time>2026-08-06T14:01:26.385Z</time>
      </trkpt>
      <trkpt lat="49.24247" lon="5.28475">
        <ele>198.37</ele>
        <time>2026-08-06T14:01:32.385Z</time>
      </trkpt>
      <trkpt lat="49.24262" lon="5.2849">
        <ele>198.45</ele>
        <time>2026-08-06T14:01:38.328Z</time>
      </trkpt>
      <trkpt lat="49.24278" lon="5.28506">
        <ele>198.06</ele>
        <time>2026-08-06T14:01:44.333Z</time>
      </trkpt>
      <trkpt lat="49.24296" lon="5.28518">
        <ele>198.84</ele>
        <time>2026-08-06T14:01:50.327Z</time>
      </trkpt>
      <trkpt lat="49.2431" lon="5.28524">
        <ele>200.54</ele>
        <time>2026-08-06T14:01:55.389Z</time>
      </trkpt>
      <trkpt lat="49.24329" lon="5.28532">
        <ele>202.04</ele>
        <time>2026-08-06T14:02:01.322Z</time>
      </trkpt>
      <trkpt lat="49.24351" lon="5.28537">
        <ele>200.08</ele>
        <time>2026-08-06T14:02:06.323Z</time>
      </trkpt>
      <trkpt lat="49.24376" lon="5.28538">
        <ele>200.11</ele>
        <time>2026-08-06T14:02:11.323Z</time>
      </trkpt>
      <trkpt lat="49.24402" lon="5.28536">
        <ele>202.86</ele>
        <time>2026-08-06T14:02:16.323Z</time>
      </trkpt>
      <trkpt lat="49.24441" lon="5.28533">
        <ele>203.91</ele>
        <time>2026-08-06T14:02:22.322Z</time>
      </trkpt>
      <trkpt lat="49.2448" lon="5.28531">
        <ele>201.89</ele>
        <time>2026-08-06T14:02:28.320Z</time>
      </trkpt>
      <trkpt lat="49.2451" lon="5.28532">
        <ele>200.68</ele>
        <time>2026-08-06T14:02:33.320Z</time>
      </trkpt>
      <trkpt lat="49.24536" lon="5.28535">
        <ele>198.17</ele>
        <time>2026-08-06T14:02:38.328Z</time>
      </trkpt>
      <trkpt lat="49.24569" lon="5.28543">
        <ele>196.72</ele>
        <time>2026-08-06T14:02:44.332Z</time>
      </trkpt>
      <trkpt lat="49.24608" lon="5.28553">
        <ele>196.04</ele>
        <time>2026-08-06T14:02:50.330Z</time>
      </trkpt>
      <trkpt lat="49.24652" lon="5.28571">
        <ele>193.82</ele>
        <time>2026-08-06T14:02:56.389Z</time>
      </trkpt>
      <trkpt lat="49.24703" lon="5.28598">
        <ele>191.37</ele>
        <time>2026-08-06T14:03:02.382Z</time>
      </trkpt>
      <trkpt lat="49.24754" lon="5.28629">
        <ele>189.32</ele>
        <time>2026-08-06T14:03:08.324Z</time>
      </trkpt>
      <trkpt lat="49.2481" lon="5.28661">
        <ele>186.08</ele>
        <time>2026-08-06T14:03:14.332Z</time>
      </trkpt>
      <trkpt lat="49.24866" lon="5.28695">
        <ele>182.93</ele>
        <time>2026-08-06T14:03:20.328Z</time>
      </trkpt>
      <trkpt lat="49.24924" lon="5.2873">
        <ele>178.8</ele>
        <time>2026-08-06T14:03:26.385Z</time>
      </trkpt>
      <trkpt lat="49.24981" lon="5.28765">
        <ele>174.79</ele>
        <time>2026-08-06T14:03:32.388Z</time>
      </trkpt>
      <trkpt lat="49.25039" lon="5.28798">
        <ele>170.48</ele>
        <time>2026-08-06T14:03:38.336Z</time>
      </trkpt>
      <trkpt lat="49.25098" lon="5.28832">
        <ele>167.24</ele>
        <time>2026-08-06T14:03:44.338Z</time>
      </trkpt>
      <trkpt lat="49.25158" lon="5.28858">
        <ele>164.44</ele>
        <time>2026-08-06T14:03:50.334Z</time>
      </trkpt>
      <trkpt lat="49.25218" lon="5.28868">
        <ele>161.6</ele>
        <time>2026-08-06T14:03:56.389Z</time>
      </trkpt>
      <trkpt lat="49.25277" lon="5.2887">
        <ele>157.59</ele>
        <time>2026-08-06T14:04:02.386Z</time>
      </trkpt>
      <trkpt lat="49.25331" lon="5.28863">
        <ele>153.78</ele>
        <time>2026-08-06T14:04:08.341Z</time>
      </trkpt>
      <trkpt lat="49.2538" lon="5.28844">
        <ele>150.62</ele>
        <time>2026-08-06T14:04:14.342Z</time>
      </trkpt>
      <trkpt lat="49.25423" lon="5.28821">
        <ele>147.82</ele>
        <time>2026-08-06T14:04:20.342Z</time>
      </trkpt>
      <trkpt lat="49.25463" lon="5.28792">
        <ele>144.6</ele>
        <time>2026-08-06T14:04:26.390Z</time>
      </trkpt>
      <trkpt lat="49.25502" lon="5.28763">
        <ele>143.45</ele>
        <time>2026-08-06T14:04:32.387Z</time>
      </trkpt>
      <trkpt lat="49.25537" lon="5.28735">
        <ele>141.98</ele>
        <time>2026-08-06T14:04:38.342Z</time>
      </trkpt>
      <trkpt lat="49.25571" lon="5.28711">
        <ele>140.38</ele>
        <time>2026-08-06T14:04:44.340Z</time>
      </trkpt>
      <trkpt lat="49.25607" lon="5.28699">
        <ele>138.84</ele>
        <time>2026-08-06T14:04:50.339Z</time>
      </trkpt>
      <trkpt lat="49.25644" lon="5.28709">
        <ele>139.34</ele>
        <time>2026-08-06T14:04:56.384Z</time>
      </trkpt>
      <trkpt lat="49.25675" lon="5.28733">
        <ele>139.88</ele>
        <time>2026-08-06T14:05:02.389Z</time>
      </trkpt>
      <trkpt lat="49.25701" lon="5.28756">
        <ele>140.81</ele>
        <time>2026-08-06T14:05:08.340Z</time>
      </trkpt>
      <trkpt lat="49.25725" lon="5.28777">
        <ele>138.8</ele>
        <time>2026-08-06T14:05:14.342Z</time>
      </trkpt>
      <trkpt lat="49.2575" lon="5.28799">
        <ele>136.33</ele>
        <time>2026-08-06T14:05:20.343Z</time>
      </trkpt>
      <trkpt lat="49.25778" lon="5.28829">
        <ele>132.41</ele>
        <time>2026-08-06T14:05:26.392Z</time>
      </trkpt>
      <trkpt lat="49.25809" lon="5.28861">
        <ele>131.88</ele>
        <time>2026-08-06T14:05:32.387Z</time>
      </trkpt>
      <trkpt lat="49.25841" lon="5.28896">
        <ele>133.38</ele>
        <time>2026-08-06T14:05:38.350Z</time>
      </trkpt>
      <trkpt lat="49.25862" lon="5.28942">
        <ele>135.23</ele>
        <time>2026-08-06T14:05:44.349Z</time>
      </trkpt>
      <trkpt lat="49.25874" lon="5.28994">
        <ele>135.27</ele>
        <time>2026-08-06T14:05:50.353Z</time>
      </trkpt>
      <trkpt lat="49.2589" lon="5.29042">
        <ele>135.56</ele>
        <time>2026-08-06T14:05:56.376Z</time>
      </trkpt>
      <trkpt lat="49.25914" lon="5.29079">
        <ele>136.09</ele>
        <time>2026-08-06T14:06:02.389Z</time>
      </trkpt>
      <trkpt lat="49.25946" lon="5.29104">
        <ele>136.09</ele>
        <time>2026-08-06T14:06:08.362Z</time>
      </trkpt>
      <trkpt lat="49.25977" lon="5.29127">
        <ele>135.36</ele>
        <time>2026-08-06T14:06:14.366Z</time>
      </trkpt>
      <trkpt lat="49.26007" lon="5.29149">
        <ele>135.5</ele>
        <time>2026-08-06T14:06:20.361Z</time>
      </trkpt>
      <trkpt lat="49.26038" lon="5.29166">
        <ele>135.69</ele>
        <time>2026-08-06T14:06:26.386Z</time>
      </trkpt>
      <trkpt lat="49.2607" lon="5.29168">
        <ele>133.78</ele>
        <time>2026-08-06T14:06:32.386Z</time>
      </trkpt>
      <trkpt lat="49.26098" lon="5.29163">
        <ele>134.32</ele>
        <time>2026-08-06T14:06:38.356Z</time>
      </trkpt>
      <trkpt lat="49.26125" lon="5.29157">
        <ele>135.64</ele>
        <time>2026-08-06T14:06:44.356Z</time>
      </trkpt>
      <trkpt lat="49.26156" lon="5.29151">
        <ele>137.12</ele>
        <time>2026-08-06T14:06:50.358Z</time>
      </trkpt>
      <trkpt lat="49.26185" lon="5.29145">
        <ele>138.23</ele>
        <time>2026-08-06T14:06:56.389Z</time>
      </trkpt>
      <trkpt lat="49.26213" lon="5.29139">
        <ele>139.32</ele>
        <time>2026-08-06T14:07:02.386Z</time>
      </trkpt>
      <trkpt lat="49.26238" lon="5.29133">
        <ele>139.96</ele>
        <time>2026-08-06T14:07:08.367Z</time>
      </trkpt>
      <trkpt lat="49.26261" lon="5.29126">
        <ele>141.4</ele>
        <time>2026-08-06T14:07:14.364Z</time>
      </trkpt>
      <trkpt lat="49.26278" lon="5.29117">
        <ele>142.87</ele>
        <time>2026-08-06T14:07:20.366Z</time>
      </trkpt>
      <trkpt lat="49.26291" lon="5.29113">
        <ele>144.21</ele>
        <time>2026-08-06T14:07:26.389Z</time>
      </trkpt>
      <trkpt lat="49.26301" lon="5.29111">
        <ele>145.37</ele>
        <time>2026-08-06T14:07:32.389Z</time>
      </trkpt>
      <trkpt lat="49.26311" lon="5.29121">
        <ele>145.58</ele>
        <time>2026-08-06T14:07:38.368Z</time>
      </trkpt>
      <trkpt lat="49.26319" lon="5.29126">
        <ele>146.14</ele>
        <time>2026-08-06T14:07:44.378Z</time>
      </trkpt>
      <trkpt lat="49.26304" lon="5.29127">
        <ele>147.74</ele>
        <time>2026-08-06T14:10:11.489Z</time>
      </trkpt>
      <trkpt lat="49.26318" lon="5.29124">
        <ele>191.47</ele>
        <time>2026-08-06T14:11:59.312Z</time>
      </trkpt>
      <trkpt lat="49.26311" lon="5.29115">
        <ele>148.09</ele>
        <time>2026-08-06T14:16:20.380Z</time>
      </trkpt>
      <trkpt lat="49.26316" lon="5.29098">
        <ele>147.57</ele>
        <time>2026-08-06T14:16:26.389Z</time>
      </trkpt>
      <trkpt lat="49.26328" lon="5.29092">
        <ele>147.77</ele>
        <time>2026-08-06T14:16:32.386Z</time>
      </trkpt>
      <trkpt lat="49.2634" lon="5.29086">
        <ele>148.51</ele>
        <time>2026-08-06T14:16:38.389Z</time>
      </trkpt>
      <trkpt lat="49.26351" lon="5.29079">
        <ele>149.87</ele>
        <time>2026-08-06T14:16:44.384Z</time>
      </trkpt>
      <trkpt lat="49.26362" lon="5.29074">
        <ele>151.03</ele>
        <time>2026-08-06T14:16:50.389Z</time>
      </trkpt>
      <trkpt lat="49.26375" lon="5.29071">
        <ele>149.75</ele>
        <time>2026-08-06T14:16:56.379Z</time>
      </trkpt>
      <trkpt lat="49.26389" lon="5.2907">
        <ele>148.63</ele>
        <time>2026-08-06T14:17:02.386Z</time>
      </trkpt>
      <trkpt lat="49.26403" lon="5.2907">
        <ele>149.24</ele>
        <time>2026-08-06T14:17:08.390Z</time>
      </trkpt>
      <trkpt lat="49.26415" lon="5.2907">
        <ele>149.61</ele>
        <time>2026-08-06T14:17:14.385Z</time>
      </trkpt>
      <trkpt lat="49.26427" lon="5.29072">
        <ele>150.72</ele>
        <time>2026-08-06T14:17:20.385Z</time>
      </trkpt>
      <trkpt lat="49.2644" lon="5.29074">
        <ele>150.92</ele>
        <time>2026-08-06T14:17:26.385Z</time>
      </trkpt>
      <trkpt lat="49.26454" lon="5.29077">
        <ele>151.21</ele>
        <time>2026-08-06T14:17:32.387Z</time>
      </trkpt>
      <trkpt lat="49.26468" lon="5.2908">
        <ele>151.69</ele>
        <time>2026-08-06T14:17:38.383Z</time>
      </trkpt>
      <trkpt lat="49.26481" lon="5.29083">
        <ele>151.16</ele>
        <time>2026-08-06T14:17:44.387Z</time>
      </trkpt>
      <trkpt lat="49.26496" lon="5.29085">
        <ele>151.45</ele>
        <time>2026-08-06T14:17:50.385Z</time>
      </trkpt>
      <trkpt lat="49.26513" lon="5.29086">
        <ele>153.17</ele>
        <time>2026-08-06T14:17:56.383Z</time>
      </trkpt>
      <trkpt lat="49.26533" lon="5.29085">
        <ele>153.06</ele>
        <time>2026-08-06T14:18:02.381Z</time>
      </trkpt>
      <trkpt lat="49.26557" lon="5.29081">
        <ele>151.83</ele>
        <time>2026-08-06T14:18:08.384Z</time>
      </trkpt>
      <trkpt lat="49.26582" lon="5.29073">
        <ele>150.56</ele>
        <time>2026-08-06T14:18:14.382Z</time>
      </trkpt>
      <trkpt lat="49.2661" lon="5.29058">
        <ele>149.12</ele>
        <time>2026-08-06T14:18:20.383Z</time>
      </trkpt>
      <trkpt lat="49.26638" lon="5.29038">
        <ele>148.98</ele>
        <time>2026-08-06T14:18:26.376Z</time>
      </trkpt>
      <trkpt lat="49.26664" lon="5.29017">
        <ele>149.36</ele>
        <time>2026-08-06T14:18:32.384Z</time>
      </trkpt>
      <trkpt lat="49.26689" lon="5.28993">
        <ele>149.45</ele>
        <time>2026-08-06T14:18:38.382Z</time>
      </trkpt>
      <trkpt lat="49.26712" lon="5.2897">
        <ele>149.28</ele>
        <time>2026-08-06T14:18:44.385Z</time>
      </trkpt>
      <trkpt lat="49.26736" lon="5.28941">
        <ele>149.15</ele>
        <time>2026-08-06T14:18:50.383Z</time>
      </trkpt>
      <trkpt lat="49.2676" lon="5.28909">
        <ele>149.19</ele>
        <time>2026-08-06T14:18:56.384Z</time>
      </trkpt>
      <trkpt lat="49.26784" lon="5.28875">
        <ele>149.24</ele>
        <time>2026-08-06T14:19:02.384Z</time>
      </trkpt>
      <trkpt lat="49.26808" lon="5.28842">
        <ele>148.75</ele>
        <time>2026-08-06T14:19:08.382Z</time>
      </trkpt>
      <trkpt lat="49.26833" lon="5.28808">
        <ele>147.88</ele>
        <time>2026-08-06T14:19:14.386Z</time>
      </trkpt>
      <trkpt lat="49.2686" lon="5.28772">
        <ele>148.51</ele>
        <time>2026-08-06T14:19:20.381Z</time>
      </trkpt>
      <trkpt lat="49.26888" lon="5.28736">
        <ele>149.02</ele>
        <time>2026-08-06T14:19:26.383Z</time>
      </trkpt>
      <trkpt lat="49.26916" lon="5.287">
        <ele>149.01</ele>
        <time>2026-08-06T14:19:32.385Z</time>
      </trkpt>
      <trkpt lat="49.26944" lon="5.28661">
        <ele>149.1</ele>
        <time>2026-08-06T14:19:38.383Z</time>
      </trkpt>
      <trkpt lat="49.26973" lon="5.28622">
        <ele>149.76</ele>
        <time>2026-08-06T14:19:44.383Z</time>
      </trkpt>
      <trkpt lat="49.27001" lon="5.28583">
        <ele>150.13</ele>
        <time>2026-08-06T14:19:50.386Z</time>
      </trkpt>
      <trkpt lat="49.2703" lon="5.28542">
        <ele>150.4</ele>
        <time>2026-08-06T14:19:56.383Z</time>
      </trkpt>
      <trkpt lat="49.27059" lon="5.28502">
        <ele>148.87</ele>
        <time>2026-08-06T14:20:02.382Z</time>
      </trkpt>
      <trkpt lat="49.27087" lon="5.28464">
        <ele>147.27</ele>
        <time>2026-08-06T14:20:08.382Z</time>
      </trkpt>
      <trkpt lat="49.27117" lon="5.28424">
        <ele>145.04</ele>
        <time>2026-08-06T14:20:14.381Z</time>
      </trkpt>
      <trkpt lat="49.27151" lon="5.28387">
        <ele>143.98</ele>
        <time>2026-08-06T14:20:20.386Z</time>
      </trkpt>
      <trkpt lat="49.27184" lon="5.28357">
        <ele>142.7</ele>
        <time>2026-08-06T14:20:26.384Z</time>
      </trkpt>
      <trkpt lat="49.27213" lon="5.28331">
        <ele>142.25</ele>
        <time>2026-08-06T14:20:32.384Z</time>
      </trkpt>
      <trkpt lat="49.27241" lon="5.28306">
        <ele>142.63</ele>
        <time>2026-08-06T14:20:38.383Z</time>
      </trkpt>
      <trkpt lat="49.27269" lon="5.2828">
        <ele>142.48</ele>
        <time>2026-08-06T14:20:44.382Z</time>
      </trkpt>
      <trkpt lat="49.27295" lon="5.28255">
        <ele>142.22</ele>
        <time>2026-08-06T14:20:50.375Z</time>
      </trkpt>
      <trkpt lat="49.2732" lon="5.28231">
        <ele>142.03</ele>
        <time>2026-08-06T14:20:56.371Z</time>
      </trkpt>
      <trkpt lat="49.27346" lon="5.28205">
        <ele>141.67</ele>
        <time>2026-08-06T14:21:02.384Z</time>
      </trkpt>
      <trkpt lat="49.27373" lon="5.2818">
        <ele>141.38</ele>
        <time>2026-08-06T14:21:08.384Z</time>
      </trkpt>
      <trkpt lat="49.27399" lon="5.28155">
        <ele>141.56</ele>
        <time>2026-08-06T14:21:14.381Z</time>
      </trkpt>
      <trkpt lat="49.27426" lon="5.2813">
        <ele>141.74</ele>
        <time>2026-08-06T14:21:20.383Z</time>
      </trkpt>
      <trkpt lat="49.27453" lon="5.28105">
        <ele>141.9</ele>
        <time>2026-08-06T14:21:26.382Z</time>
      </trkpt>
      <trkpt lat="49.2748" lon="5.28079">
        <ele>141.79</ele>
        <time>2026-08-06T14:21:32.381Z</time>
      </trkpt>
      <trkpt lat="49.27507" lon="5.28053">
        <ele>142.4</ele>
        <time>2026-08-06T14:21:38.383Z</time>
      </trkpt>
      <trkpt lat="49.27535" lon="5.28035">
        <ele>142.57</ele>
        <time>2026-08-06T14:21:44.385Z</time>
      </trkpt>
      <trkpt lat="49.27562" lon="5.28015">
        <ele>143.06</ele>
        <time>2026-08-06T14:21:50.383Z</time>
      </trkpt>
      <trkpt lat="49.27588" lon="5.27995">
        <ele>143.75</ele>
        <time>2026-08-06T14:21:56.384Z</time>
      </trkpt>
      <trkpt lat="49.27615" lon="5.27975">
        <ele>145.21</ele>
        <time>2026-08-06T14:22:02.385Z</time>
      </trkpt>
      <trkpt lat="49.27641" lon="5.27955">
        <ele>145.99</ele>
        <time>2026-08-06T14:22:08.378Z</time>
      </trkpt>
      <trkpt lat="49.27669" lon="5.27935">
        <ele>147.51</ele>
        <time>2026-08-06T14:22:14.378Z</time>
      </trkpt>
      <trkpt lat="49.27696" lon="5.27913">
        <ele>147.56</ele>
        <time>2026-08-06T14:22:20.378Z</time>
      </trkpt>
      <trkpt lat="49.27724" lon="5.27891">
        <ele>148.43</ele>
        <time>2026-08-06T14:22:26.379Z</time>
      </trkpt>
      <trkpt lat="49.27752" lon="5.27869">
        <ele>147.09</ele>
        <time>2026-08-06T14:22:32.379Z</time>
      </trkpt>
      <trkpt lat="49.27781" lon="5.27848">
        <ele>145.84</ele>
        <time>2026-08-06T14:22:38.377Z</time>
      </trkpt>
      <trkpt lat="49.27808" lon="5.27827">
        <ele>144.01</ele>
        <time>2026-08-06T14:22:44.378Z</time>
      </trkpt>
      <trkpt lat="49.27837" lon="5.27805">
        <ele>146.14</ele>
        <time>2026-08-06T14:22:50.377Z</time>
      </trkpt>
      <trkpt lat="49.27864" lon="5.27784">
        <ele>146.61</ele>
        <time>2026-08-06T14:22:56.378Z</time>
      </trkpt>
      <trkpt lat="49.27893" lon="5.27764">
        <ele>146.14</ele>
        <time>2026-08-06T14:23:02.381Z</time>
      </trkpt>
      <trkpt lat="49.27923" lon="5.27741">
        <ele>145.21</ele>
        <time>2026-08-06T14:23:08.380Z</time>
      </trkpt>
      <trkpt lat="49.27956" lon="5.27716">
        <ele>143.82</ele>
        <time>2026-08-06T14:23:14.380Z</time>
      </trkpt>
      <trkpt lat="49.27989" lon="5.2769">
        <ele>143.59</ele>
        <time>2026-08-06T14:23:20.380Z</time>
      </trkpt>
      <trkpt lat="49.28023" lon="5.27662">
        <ele>141.88</ele>
        <time>2026-08-06T14:23:26.376Z</time>
      </trkpt>
      <trkpt lat="49.28056" lon="5.27633">
        <ele>141</ele>
        <time>2026-08-06T14:23:32.379Z</time>
      </trkpt>
      <trkpt lat="49.28087" lon="5.27605">
        <ele>140.31</ele>
        <time>2026-08-06T14:23:38.380Z</time>
      </trkpt>
      <trkpt lat="49.28118" lon="5.27574">
        <ele>139.88</ele>
        <time>2026-08-06T14:23:44.380Z</time>
      </trkpt>
      <trkpt lat="49.28149" lon="5.27541">
        <ele>140.62</ele>
        <time>2026-08-06T14:23:50.376Z</time>
      </trkpt>
      <trkpt lat="49.28183" lon="5.2751">
        <ele>141.22</ele>
        <time>2026-08-06T14:23:56.375Z</time>
      </trkpt>
      <trkpt lat="49.28216" lon="5.27483">
        <ele>141.94</ele>
        <time>2026-08-06T14:24:02.377Z</time>
      </trkpt>
      <trkpt lat="49.28244" lon="5.27462">
        <ele>143.37</ele>
        <time>2026-08-06T14:24:08.377Z</time>
      </trkpt>
      <trkpt lat="49.28271" lon="5.27443">
        <ele>144.32</ele>
        <time>2026-08-06T14:24:14.376Z</time>
      </trkpt>
      <trkpt lat="49.28295" lon="5.27423">
        <ele>146.01</ele>
        <time>2026-08-06T14:24:20.381Z</time>
      </trkpt>
      <trkpt lat="49.28321" lon="5.27403">
        <ele>146.49</ele>
        <time>2026-08-06T14:24:26.375Z</time>
      </trkpt>
      <trkpt lat="49.28344" lon="5.27382">
        <ele>147.08</ele>
        <time>2026-08-06T14:24:32.377Z</time>
      </trkpt>
      <trkpt lat="49.28366" lon="5.27363">
        <ele>145.84</ele>
        <time>2026-08-06T14:24:38.379Z</time>
      </trkpt>
      <trkpt lat="49.28386" lon="5.27341">
        <ele>144.59</ele>
        <time>2026-08-06T14:24:44.379Z</time>
      </trkpt>
      <trkpt lat="49.28403" lon="5.27315">
        <ele>145.01</ele>
        <time>2026-08-06T14:24:50.379Z</time>
      </trkpt>
      <trkpt lat="49.28421" lon="5.2729">
        <ele>146.21</ele>
        <time>2026-08-06T14:24:56.379Z</time>
      </trkpt>
      <trkpt lat="49.28437" lon="5.2727">
        <ele>144.83</ele>
        <time>2026-08-06T14:25:02.382Z</time>
      </trkpt>
      <trkpt lat="49.28451" lon="5.27252">
        <ele>143.8</ele>
        <time>2026-08-06T14:25:08.380Z</time>
      </trkpt>
      <trkpt lat="49.28465" lon="5.27231">
        <ele>145.61</ele>
        <time>2026-08-06T14:25:14.377Z</time>
      </trkpt>
      <trkpt lat="49.28479" lon="5.27212">
        <ele>145.7</ele>
        <time>2026-08-06T14:25:20.381Z</time>
      </trkpt>
      <trkpt lat="49.28492" lon="5.27192">
        <ele>146.97</ele>
        <time>2026-08-06T14:25:26.377Z</time>
      </trkpt>
      <trkpt lat="49.28505" lon="5.27171">
        <ele>149.93</ele>
        <time>2026-08-06T14:25:32.382Z</time>
      </trkpt>
      <trkpt lat="49.28517" lon="5.27151">
        <ele>151.1</ele>
        <time>2026-08-06T14:25:38.368Z</time>
      </trkpt>
      <trkpt lat="49.28528" lon="5.2713">
        <ele>151.85</ele>
        <time>2026-08-06T14:25:44.378Z</time>
      </trkpt>
      <trkpt lat="49.28538" lon="5.27109">
        <ele>151.74</ele>
        <time>2026-08-06T14:25:50.384Z</time>
      </trkpt>
      <trkpt lat="49.28547" lon="5.27088">
        <ele>152.35</ele>
        <time>2026-08-06T14:25:56.382Z</time>
      </trkpt>
      <trkpt lat="49.28555" lon="5.27063">
        <ele>153.06</ele>
        <time>2026-08-06T14:26:02.381Z</time>
      </trkpt>
      <trkpt lat="49.28563" lon="5.2704">
        <ele>153.35</ele>
        <time>2026-08-06T14:26:08.379Z</time>
      </trkpt>
      <trkpt lat="49.28573" lon="5.2702">
        <ele>154.29</ele>
        <time>2026-08-06T14:26:14.383Z</time>
      </trkpt>
      <trkpt lat="49.28584" lon="5.27003">
        <ele>155.6</ele>
        <time>2026-08-06T14:26:20.377Z</time>
      </trkpt>
      <trkpt lat="49.28598" lon="5.26989">
        <ele>156.36</ele>
        <time>2026-08-06T14:26:26.383Z</time>
      </trkpt>
      <trkpt lat="49.28611" lon="5.2698">
        <ele>157.15</ele>
        <time>2026-08-06T14:26:32.378Z</time>
      </trkpt>
      <trkpt lat="49.28626" lon="5.26972">
        <ele>158.93</ele>
        <time>2026-08-06T14:26:38.392Z</time>
      </trkpt>
      <trkpt lat="49.2864" lon="5.26965">
        <ele>160.26</ele>
        <time>2026-08-06T14:26:44.382Z</time>
      </trkpt>
      <trkpt lat="49.28654" lon="5.26956">
        <ele>161.91</ele>
        <time>2026-08-06T14:26:50.376Z</time>
      </trkpt>
      <trkpt lat="49.28668" lon="5.26946">
        <ele>161.9</ele>
        <time>2026-08-06T14:26:56.376Z</time>
      </trkpt>
      <trkpt lat="49.2868" lon="5.26934">
        <ele>161.3</ele>
        <time>2026-08-06T14:27:02.385Z</time>
      </trkpt>
      <trkpt lat="49.28693" lon="5.26917">
        <ele>160.93</ele>
        <time>2026-08-06T14:27:08.377Z</time>
      </trkpt>
      <trkpt lat="49.28705" lon="5.26903">
        <ele>161.6</ele>
        <time>2026-08-06T14:27:14.376Z</time>
      </trkpt>
      <trkpt lat="49.28717" lon="5.26889">
        <ele>161.18</ele>
        <time>2026-08-06T14:27:20.377Z</time>
      </trkpt>
      <trkpt lat="49.28729" lon="5.26875">
        <ele>162.34</ele>
        <time>2026-08-06T14:27:26.378Z</time>
      </trkpt>
      <trkpt lat="49.28741" lon="5.2686">
        <ele>164.68</ele>
        <time>2026-08-06T14:27:32.378Z</time>
      </trkpt>
      <trkpt lat="49.28753" lon="5.26846">
        <ele>164.42</ele>
        <time>2026-08-06T14:27:38.375Z</time>
      </trkpt>
      <trkpt lat="49.28764" lon="5.26831">
        <ele>163.59</ele>
        <time>2026-08-06T14:27:44.377Z</time>
      </trkpt>
      <trkpt lat="49.28776" lon="5.26814">
        <ele>161.11</ele>
        <time>2026-08-06T14:27:50.379Z</time>
      </trkpt>
      <trkpt lat="49.28788" lon="5.26801">
        <ele>159.39</ele>
        <time>2026-08-06T14:27:56.377Z</time>
      </trkpt>
      <trkpt lat="49.28801" lon="5.26787">
        <ele>160.82</ele>
        <time>2026-08-06T14:28:02.379Z</time>
      </trkpt>
      <trkpt lat="49.28815" lon="5.26773">
        <ele>163.33</ele>
        <time>2026-08-06T14:28:08.378Z</time>
      </trkpt>
      <trkpt lat="49.28828" lon="5.26757">
        <ele>165.59</ele>
        <time>2026-08-06T14:28:14.380Z</time>
      </trkpt>
      <trkpt lat="49.28842" lon="5.26742">
        <ele>167.2</ele>
        <time>2026-08-06T14:28:20.381Z</time>
      </trkpt>
      <trkpt lat="49.28855" lon="5.26726">
        <ele>168.85</ele>
        <time>2026-08-06T14:28:26.379Z</time>
      </trkpt>
      <trkpt lat="49.28867" lon="5.26711">
        <ele>168.18</ele>
        <time>2026-08-06T14:28:32.378Z</time>
      </trkpt>
      <trkpt lat="49.28878" lon="5.26699">
        <ele>167.68</ele>
        <time>2026-08-06T14:28:38.378Z</time>
      </trkpt>
      <trkpt lat="49.28889" lon="5.26685">
        <ele>168.21</ele>
        <time>2026-08-06T14:28:44.376Z</time>
      </trkpt>
      <trkpt lat="49.28902" lon="5.26669">
        <ele>169.56</ele>
        <time>2026-08-06T14:28:50.380Z</time>
      </trkpt>
      <trkpt lat="49.28917" lon="5.26651">
        <ele>169.89</ele>
        <time>2026-08-06T14:28:56.383Z</time>
      </trkpt>
      <trkpt lat="49.28934" lon="5.2663">
        <ele>169.37</ele>
        <time>2026-08-06T14:29:02.378Z</time>
      </trkpt>
      <trkpt lat="49.28958" lon="5.26605">
        <ele>168.79</ele>
        <time>2026-08-06T14:29:08.380Z</time>
      </trkpt>
      <trkpt lat="49.28985" lon="5.2658">
        <ele>168.59</ele>
        <time>2026-08-06T14:29:14.376Z</time>
      </trkpt>
      <trkpt lat="49.29012" lon="5.26558">
        <ele>168.49</ele>
        <time>2026-08-06T14:29:20.381Z</time>
      </trkpt>
      <trkpt lat="49.2904" lon="5.2654">
        <ele>168</ele>
        <time>2026-08-06T14:29:26.375Z</time>
      </trkpt>
      <trkpt lat="49.29065" lon="5.26525">
        <ele>167.89</ele>
        <time>2026-08-06T14:29:32.379Z</time>
      </trkpt>
      <trkpt lat="49.2909" lon="5.26511">
        <ele>167.21</ele>
        <time>2026-08-06T14:29:38.379Z</time>
      </trkpt>
      <trkpt lat="49.29114" lon="5.26496">
        <ele>167.26</ele>
        <time>2026-08-06T14:29:44.377Z</time>
      </trkpt>
      <trkpt lat="49.29138" lon="5.26479">
        <ele>167.01</ele>
        <time>2026-08-06T14:29:50.376Z</time>
      </trkpt>
      <trkpt lat="49.2916" lon="5.26461">
        <ele>167.74</ele>
        <time>2026-08-06T14:29:56.377Z</time>
      </trkpt>
      <trkpt lat="49.29183" lon="5.26439">
        <ele>167.52</ele>
        <time>2026-08-06T14:30:02.379Z</time>
      </trkpt>
      <trkpt lat="49.29208" lon="5.26416">
        <ele>166.82</ele>
        <time>2026-08-06T14:30:08.378Z</time>
      </trkpt>
      <trkpt lat="49.2923" lon="5.26396">
        <ele>166.17</ele>
        <time>2026-08-06T14:30:14.381Z</time>
      </trkpt>
      <trkpt lat="49.29253" lon="5.26375">
        <ele>166.61</ele>
        <time>2026-08-06T14:30:20.376Z</time>
      </trkpt>
      <trkpt lat="49.29276" lon="5.26357">
        <ele>166.05</ele>
        <time>2026-08-06T14:30:26.377Z</time>
      </trkpt>
      <trkpt lat="49.293" lon="5.26337">
        <ele>166.53</ele>
        <time>2026-08-06T14:30:32.378Z</time>
      </trkpt>
      <trkpt lat="49.29324" lon="5.2632">
        <ele>166.97</ele>
        <time>2026-08-06T14:30:38.384Z</time>
      </trkpt>
      <trkpt lat="49.29345" lon="5.26302">
        <ele>166.41</ele>
        <time>2026-08-06T14:30:44.378Z</time>
      </trkpt>
      <trkpt lat="49.29366" lon="5.26286">
        <ele>166.9</ele>
        <time>2026-08-06T14:30:50.378Z</time>
      </trkpt>
      <trkpt lat="49.29387" lon="5.2627">
        <ele>166.1</ele>
        <time>2026-08-06T14:30:56.371Z</time>
      </trkpt>
      <trkpt lat="49.29407" lon="5.26254">
        <ele>166.07</ele>
        <time>2026-08-06T14:31:02.381Z</time>
      </trkpt>
      <trkpt lat="49.29426" lon="5.26239">
        <ele>165.92</ele>
        <time>2026-08-06T14:31:08.381Z</time>
      </trkpt>
      <trkpt lat="49.29445" lon="5.26224">
        <ele>165.47</ele>
        <time>2026-08-06T14:31:14.384Z</time>
      </trkpt>
      <trkpt lat="49.29466" lon="5.26208">
        <ele>164.71</ele>
        <time>2026-08-06T14:31:20.379Z</time>
      </trkpt>
      <trkpt lat="49.29487" lon="5.26191">
        <ele>164.57</ele>
        <time>2026-08-06T14:31:26.382Z</time>
      </trkpt>
      <trkpt lat="49.29508" lon="5.26172">
        <ele>163.89</ele>
        <time>2026-08-06T14:31:32.376Z</time>
      </trkpt>
      <trkpt lat="49.29532" lon="5.26152">
        <ele>164.42</ele>
        <time>2026-08-06T14:31:38.377Z</time>
      </trkpt>
      <trkpt lat="49.29555" lon="5.26134">
        <ele>163.86</ele>
        <time>2026-08-06T14:31:44.382Z</time>
      </trkpt>
      <trkpt lat="49.29578" lon="5.26113">
        <ele>162.84</ele>
        <time>2026-08-06T14:31:50.378Z</time>
      </trkpt>
      <trkpt lat="49.29602" lon="5.26092">
        <ele>162.63</ele>
        <time>2026-08-06T14:31:56.376Z</time>
      </trkpt>
      <trkpt lat="49.29627" lon="5.26069">
        <ele>161.95</ele>
        <time>2026-08-06T14:32:02.377Z</time>
      </trkpt>
      <trkpt lat="49.29653" lon="5.26046">
        <ele>160.65</ele>
        <time>2026-08-06T14:32:08.379Z</time>
      </trkpt>
      <trkpt lat="49.29681" lon="5.2602">
        <ele>159.08</ele>
        <time>2026-08-06T14:32:14.378Z</time>
      </trkpt>
      <trkpt lat="49.2971" lon="5.25994">
        <ele>157.39</ele>
        <time>2026-08-06T14:32:20.381Z</time>
      </trkpt>
      <trkpt lat="49.29742" lon="5.25964">
        <ele>156.06</ele>
        <time>2026-08-06T14:32:26.384Z</time>
      </trkpt>
      <trkpt lat="49.29775" lon="5.25935">
        <ele>154.39</ele>
        <time>2026-08-06T14:32:32.378Z</time>
      </trkpt>
      <trkpt lat="49.29808" lon="5.25912">
        <ele>153.1</ele>
        <time>2026-08-06T14:32:38.378Z</time>
      </trkpt>
      <trkpt lat="49.2984" lon="5.25889">
        <ele>152.39</ele>
        <time>2026-08-06T14:32:44.381Z</time>
      </trkpt>
      <trkpt lat="49.29869" lon="5.25869">
        <ele>152.66</ele>
        <time>2026-08-06T14:32:50.377Z</time>
      </trkpt>
      <trkpt lat="49.29895" lon="5.25849">
        <ele>152.57</ele>
        <time>2026-08-06T14:32:56.382Z</time>
      </trkpt>
      <trkpt lat="49.2992" lon="5.25831">
        <ele>152.07</ele>
        <time>2026-08-06T14:33:02.378Z</time>
      </trkpt>
      <trkpt lat="49.29945" lon="5.25813">
        <ele>152.09</ele>
        <time>2026-08-06T14:33:08.380Z</time>
      </trkpt>
      <trkpt lat="49.29969" lon="5.25795">
        <ele>152.39</ele>
        <time>2026-08-06T14:33:14.384Z</time>
      </trkpt>
      <trkpt lat="49.29993" lon="5.25777">
        <ele>153.19</ele>
        <time>2026-08-06T14:33:20.378Z</time>
      </trkpt>
      <trkpt lat="49.30016" lon="5.2576">
        <ele>153.92</ele>
        <time>2026-08-06T14:33:26.366Z</time>
      </trkpt>
      <trkpt lat="49.3004" lon="5.25742">
        <ele>154.45</ele>
        <time>2026-08-06T14:33:32.379Z</time>
      </trkpt>
      <trkpt lat="49.30065" lon="5.25725">
        <ele>154.84</ele>
        <time>2026-08-06T14:33:38.382Z</time>
      </trkpt>
      <trkpt lat="49.30088" lon="5.25708">
        <ele>154.81</ele>
        <time>2026-08-06T14:33:44.378Z</time>
      </trkpt>
      <trkpt lat="49.30112" lon="5.2569">
        <ele>154.3</ele>
        <time>2026-08-06T14:33:50.377Z</time>
      </trkpt>
      <trkpt lat="49.30138" lon="5.25672">
        <ele>153.9</ele>
        <time>2026-08-06T14:33:56.384Z</time>
      </trkpt>
      <trkpt lat="49.30164" lon="5.25655">
        <ele>153.62</ele>
        <time>2026-08-06T14:34:02.376Z</time>
      </trkpt>
      <trkpt lat="49.30191" lon="5.25636">
        <ele>152.95</ele>
        <time>2026-08-06T14:34:08.368Z</time>
      </trkpt>
      <trkpt lat="49.30218" lon="5.25618">
        <ele>152.27</ele>
        <time>2026-08-06T14:34:14.377Z</time>
      </trkpt>
      <trkpt lat="49.30245" lon="5.25599">
        <ele>151.75</ele>
        <time>2026-08-06T14:34:20.373Z</time>
      </trkpt>
      <trkpt lat="49.30272" lon="5.25582">
        <ele>151.03</ele>
        <time>2026-08-06T14:34:26.386Z</time>
      </trkpt>
      <trkpt lat="49.30297" lon="5.25566">
        <ele>150.37</ele>
        <time>2026-08-06T14:34:32.381Z</time>
      </trkpt>
      <trkpt lat="49.30324" lon="5.25548">
        <ele>149.16</ele>
        <time>2026-08-06T14:34:38.372Z</time>
      </trkpt>
      <trkpt lat="49.30352" lon="5.2553">
        <ele>148.13</ele>
        <time>2026-08-06T14:34:44.375Z</time>
      </trkpt>
      <trkpt lat="49.30381" lon="5.25509">
        <ele>146.46</ele>
        <time>2026-08-06T14:34:50.372Z</time>
      </trkpt>
      <trkpt lat="49.30412" lon="5.25487">
        <ele>145.87</ele>
        <time>2026-08-06T14:34:56.389Z</time>
      </trkpt>
      <trkpt lat="49.30444" lon="5.25464">
        <ele>144.28</ele>
        <time>2026-08-06T14:35:02.384Z</time>
      </trkpt>
      <trkpt lat="49.30478" lon="5.2544">
        <ele>142.66</ele>
        <time>2026-08-06T14:35:08.370Z</time>
      </trkpt>
      <trkpt lat="49.30514" lon="5.25414">
        <ele>141.06</ele>
        <time>2026-08-06T14:35:14.375Z</time>
      </trkpt>
      <trkpt lat="49.30553" lon="5.25387">
        <ele>139.66</ele>
        <time>2026-08-06T14:35:20.374Z</time>
      </trkpt>
      <trkpt lat="49.30595" lon="5.25366">
        <ele>137.43</ele>
        <time>2026-08-06T14:35:26.387Z</time>
      </trkpt>
      <trkpt lat="49.30641" lon="5.25355">
        <ele>135.46</ele>
        <time>2026-08-06T14:35:32.378Z</time>
      </trkpt>
      <trkpt lat="49.30687" lon="5.25356">
        <ele>133.63</ele>
        <time>2026-08-06T14:35:38.376Z</time>
      </trkpt>
      <trkpt lat="49.3073" lon="5.25362">
        <ele>134.26</ele>
        <time>2026-08-06T14:35:44.376Z</time>
      </trkpt>
      <trkpt lat="49.30764" lon="5.25368">
        <ele>134.76</ele>
        <time>2026-08-06T14:35:50.374Z</time>
      </trkpt>
      <trkpt lat="49.30792" lon="5.25375">
        <ele>136.58</ele>
        <time>2026-08-06T14:35:56.383Z</time>
      </trkpt>
      <trkpt lat="49.30815" lon="5.25379">
        <ele>138.5</ele>
        <time>2026-08-06T14:36:02.381Z</time>
      </trkpt>
      <trkpt lat="49.30835" lon="5.25382">
        <ele>139.24</ele>
        <time>2026-08-06T14:36:08.371Z</time>
      </trkpt>
      <trkpt lat="49.30855" lon="5.25382">
        <ele>139.95</ele>
        <time>2026-08-06T14:36:14.371Z</time>
      </trkpt>
      <trkpt lat="49.30875" lon="5.25379">
        <ele>141.13</ele>
        <time>2026-08-06T14:36:20.376Z</time>
      </trkpt>
      <trkpt lat="49.30895" lon="5.25374">
        <ele>141.83</ele>
        <time>2026-08-06T14:36:26.384Z</time>
      </trkpt>
      <trkpt lat="49.30917" lon="5.25366">
        <ele>142.86</ele>
        <time>2026-08-06T14:36:32.380Z</time>
      </trkpt>
      <trkpt lat="49.3094" lon="5.25358">
        <ele>142.65</ele>
        <time>2026-08-06T14:36:38.363Z</time>
      </trkpt>
      <trkpt lat="49.30969" lon="5.2535">
        <ele>140.84</ele>
        <time>2026-08-06T14:36:44.377Z</time>
      </trkpt>
      <trkpt lat="49.31003" lon="5.25338">
        <ele>138.09</ele>
        <time>2026-08-06T14:36:50.371Z</time>
      </trkpt>
      <trkpt lat="49.31043" lon="5.25324">
        <ele>137.16</ele>
        <time>2026-08-06T14:36:56.385Z</time>
      </trkpt>
      <trkpt lat="49.31084" lon="5.25312">
        <ele>135.64</ele>
        <time>2026-08-06T14:37:02.386Z</time>
      </trkpt>
      <trkpt lat="49.31119" lon="5.253">
        <ele>135.5</ele>
        <time>2026-08-06T14:37:08.373Z</time>
      </trkpt>
      <trkpt lat="49.31146" lon="5.2529">
        <ele>136.06</ele>
        <time>2026-08-06T14:37:14.377Z</time>
      </trkpt>
      <trkpt lat="49.31172" lon="5.25279">
        <ele>137.05</ele>
        <time>2026-08-06T14:37:20.374Z</time>
      </trkpt>
      <trkpt lat="49.31198" lon="5.25273">
        <ele>137.19</ele>
        <time>2026-08-06T14:37:26.384Z</time>
      </trkpt>
      <trkpt lat="49.31222" lon="5.25265">
        <ele>138.41</ele>
        <time>2026-08-06T14:37:32.382Z</time>
      </trkpt>
      <trkpt lat="49.31244" lon="5.25258">
        <ele>139.07</ele>
        <time>2026-08-06T14:37:38.372Z</time>
      </trkpt>
      <trkpt lat="49.31266" lon="5.2525">
        <ele>138.52</ele>
        <time>2026-08-06T14:37:44.373Z</time>
      </trkpt>
      <trkpt lat="49.31288" lon="5.25242">
        <ele>138.98</ele>
        <time>2026-08-06T14:37:50.378Z</time>
      </trkpt>
      <trkpt lat="49.31312" lon="5.25234">
        <ele>138.9</ele>
        <time>2026-08-06T14:37:56.377Z</time>
      </trkpt>
      <trkpt lat="49.31338" lon="5.25224">
        <ele>138.05</ele>
        <time>2026-08-06T14:38:02.379Z</time>
      </trkpt>
      <trkpt lat="49.31367" lon="5.25214">
        <ele>137.47</ele>
        <time>2026-08-06T14:38:08.371Z</time>
      </trkpt>
      <trkpt lat="49.31393" lon="5.25206">
        <ele>136.51</ele>
        <time>2026-08-06T14:38:14.374Z</time>
      </trkpt>
      <trkpt lat="49.31417" lon="5.25197">
        <ele>136.07</ele>
        <time>2026-08-06T14:38:20.377Z</time>
      </trkpt>
      <trkpt lat="49.31444" lon="5.25188">
        <ele>136.46</ele>
        <time>2026-08-06T14:38:26.384Z</time>
      </trkpt>
      <trkpt lat="49.31471" lon="5.25179">
        <ele>136.45</ele>
        <time>2026-08-06T14:38:32.385Z</time>
      </trkpt>
      <trkpt lat="49.315" lon="5.25173">
        <ele>136.05</ele>
        <time>2026-08-06T14:38:38.374Z</time>
      </trkpt>
      <trkpt lat="49.31532" lon="5.25174">
        <ele>134.91</ele>
        <time>2026-08-06T14:38:44.374Z</time>
      </trkpt>
      <trkpt lat="49.31563" lon="5.25175">
        <ele>133.91</ele>
        <time>2026-08-06T14:38:50.379Z</time>
      </trkpt>
      <trkpt lat="49.31593" lon="5.25179">
        <ele>133.54</ele>
        <time>2026-08-06T14:38:56.381Z</time>
      </trkpt>
      <trkpt lat="49.3162" lon="5.25182">
        <ele>134.41</ele>
        <time>2026-08-06T14:39:02.380Z</time>
      </trkpt>
      <trkpt lat="49.3165" lon="5.25187">
        <ele>137.75</ele>
        <time>2026-08-06T14:39:08.378Z</time>
      </trkpt>
      <trkpt lat="49.31678" lon="5.25193">
        <ele>138.03</ele>
        <time>2026-08-06T14:39:14.377Z</time>
      </trkpt>
      <trkpt lat="49.31705" lon="5.25198">
        <ele>138.95</ele>
        <time>2026-08-06T14:39:20.373Z</time>
      </trkpt>
      <trkpt lat="49.31732" lon="5.25208">
        <ele>138.19</ele>
        <time>2026-08-06T14:39:26.382Z</time>
      </trkpt>
      <trkpt lat="49.31764" lon="5.25223">
        <ele>138.66</ele>
        <time>2026-08-06T14:39:32.381Z</time>
      </trkpt>
      <trkpt lat="49.31796" lon="5.25236">
        <ele>139.24</ele>
        <time>2026-08-06T14:39:38.377Z</time>
      </trkpt>
      <trkpt lat="49.31825" lon="5.25249">
        <ele>139.02</ele>
        <time>2026-08-06T14:39:44.374Z</time>
      </trkpt>
      <trkpt lat="49.31858" lon="5.25268">
        <ele>139.07</ele>
        <time>2026-08-06T14:39:50.374Z</time>
      </trkpt>
      <trkpt lat="49.3189" lon="5.25288">
        <ele>138.96</ele>
        <time>2026-08-06T14:39:56.385Z</time>
      </trkpt>
      <trkpt lat="49.31922" lon="5.25304">
        <ele>138.91</ele>
        <time>2026-08-06T14:40:02.378Z</time>
      </trkpt>
      <trkpt lat="49.3195" lon="5.25324">
        <ele>138</ele>
        <time>2026-08-06T14:40:08.375Z</time>
      </trkpt>
      <trkpt lat="49.31979" lon="5.25338">
        <ele>136.83</ele>
        <time>2026-08-06T14:40:14.375Z</time>
      </trkpt>
      <trkpt lat="49.32014" lon="5.25348">
        <ele>136.53</ele>
        <time>2026-08-06T14:40:20.392Z</time>
      </trkpt>
      <trkpt lat="49.32044" lon="5.25352">
        <ele>138.13</ele>
        <time>2026-08-06T14:40:26.373Z</time>
      </trkpt>
      <trkpt lat="49.32074" lon="5.25359">
        <ele>134.94</ele>
        <time>2026-08-06T14:40:32.374Z</time>
      </trkpt>
      <trkpt lat="49.32106" lon="5.25364">
        <ele>131.65</ele>
        <time>2026-08-06T14:40:38.368Z</time>
      </trkpt>
      <trkpt lat="49.32136" lon="5.2537">
        <ele>128.9</ele>
        <time>2026-08-06T14:40:44.372Z</time>
      </trkpt>
      <trkpt lat="49.32157" lon="5.25381">
        <ele>128.41</ele>
        <time>2026-08-06T14:40:50.369Z</time>
      </trkpt>
      <trkpt lat="49.32161" lon="5.25428">
        <ele>130.2</ele>
        <time>2026-08-06T14:40:56.377Z</time>
      </trkpt>
      <trkpt lat="49.32156" lon="5.2547">
        <ele>131.56</ele>
        <time>2026-08-06T14:41:02.378Z</time>
      </trkpt>
      <trkpt lat="49.3215" lon="5.25498">
        <ele>132.48</ele>
        <time>2026-08-06T14:41:08.369Z</time>
      </trkpt>
      <trkpt lat="49.32142" lon="5.25526">
        <ele>134.9</ele>
        <time>2026-08-06T14:41:14.374Z</time>
      </trkpt>
      <trkpt lat="49.32137" lon="5.25553">
        <ele>135.29</ele>
        <time>2026-08-06T14:41:20.376Z</time>
      </trkpt>
      <trkpt lat="49.32135" lon="5.25575">
        <ele>135.55</ele>
        <time>2026-08-06T14:41:26.380Z</time>
      </trkpt>
      <trkpt lat="49.32131" lon="5.25595">
        <ele>136.66</ele>
        <time>2026-08-06T14:41:32.381Z</time>
      </trkpt>
      <trkpt lat="49.32127" lon="5.25615">
        <ele>137.21</ele>
        <time>2026-08-06T14:41:38.367Z</time>
      </trkpt>
      <trkpt lat="49.32123" lon="5.25634">
        <ele>136.5</ele>
        <time>2026-08-06T14:41:44.373Z</time>
      </trkpt>
      <trkpt lat="49.3212" lon="5.25657">
        <ele>135.65</ele>
        <time>2026-08-06T14:41:50.372Z</time>
      </trkpt>
      <trkpt lat="49.32117" lon="5.25671">
        <ele>135.29</ele>
        <time>2026-08-06T14:41:57.318Z</time>
      </trkpt>
      <trkpt lat="49.32122" lon="5.25659">
        <ele>135.6</ele>
        <time>2026-08-06T14:42:10.318Z</time>
      </trkpt>
      <trkpt lat="49.32125" lon="5.2564">
        <ele>135.37</ele>
        <time>2026-08-06T14:42:15.318Z</time>
      </trkpt>
      <trkpt lat="49.32129" lon="5.25618">
        <ele>135.02</ele>
        <time>2026-08-06T14:42:20.372Z</time>
      </trkpt>
      <trkpt lat="49.32134" lon="5.25589">
        <ele>134.95</ele>
        <time>2026-08-06T14:42:26.386Z</time>
      </trkpt>
      <trkpt lat="49.32137" lon="5.25559">
        <ele>135.15</ele>
        <time>2026-08-06T14:42:32.383Z</time>
      </trkpt>
      <trkpt lat="49.32143" lon="5.25525">
        <ele>134.6</ele>
        <time>2026-08-06T14:42:38.372Z</time>
      </trkpt>
      <trkpt lat="49.3215" lon="5.25492">
        <ele>133.84</ele>
        <time>2026-08-06T14:42:44.377Z</time>
      </trkpt>
      <trkpt lat="49.32148" lon="5.25471">
        <ele>133.4</ele>
        <time>2026-08-06T14:42:50.373Z</time>
      </trkpt>
      <trkpt lat="49.32152" lon="5.25458">
        <ele>131.86</ele>
        <time>2026-08-06T15:03:26.379Z</time>
      </trkpt>
      <trkpt lat="49.32159" lon="5.25433">
        <ele>130.99</ele>
        <time>2026-08-06T15:03:31.823Z</time>
      </trkpt>
      <trkpt lat="49.32164" lon="5.25406">
        <ele>131.17</ele>
        <time>2026-08-06T15:03:37.325Z</time>
      </trkpt>
      <trkpt lat="49.3217" lon="5.25395">
        <ele>131.2</ele>
        <time>2026-08-06T15:03:42.646Z</time>
      </trkpt>
      <trkpt lat="49.32182" lon="5.25395">
        <ele>132.45</ele>
        <time>2026-08-06T15:03:48.243Z</time>
      </trkpt>
      <trkpt lat="49.32195" lon="5.254">
        <ele>132.29</ele>
        <time>2026-08-06T15:03:54.001Z</time>
      </trkpt>
      <trkpt lat="49.32209" lon="5.25402">
        <ele>132.98</ele>
        <time>2026-08-06T15:03:59.226Z</time>
      </trkpt>
      <trkpt lat="49.3222" lon="5.25406">
        <ele>135.21</ele>
        <time>2026-08-06T15:04:04.326Z</time>
      </trkpt>
      <trkpt lat="49.32231" lon="5.25413">
        <ele>136.52</ele>
        <time>2026-08-06T15:04:09.327Z</time>
      </trkpt>
      <trkpt lat="49.32243" lon="5.25416">
        <ele>136.52</ele>
        <time>2026-08-06T15:04:14.371Z</time>
      </trkpt>
      <trkpt lat="49.32259" lon="5.2542">
        <ele>136.87</ele>
        <time>2026-08-06T15:04:20.372Z</time>
      </trkpt>
      <trkpt lat="49.32272" lon="5.25423">
        <ele>137.29</ele>
        <time>2026-08-06T15:04:26.380Z</time>
      </trkpt>
      <trkpt lat="49.32288" lon="5.25426">
        <ele>137.1</ele>
        <time>2026-08-06T15:04:32.377Z</time>
      </trkpt>
      <trkpt lat="49.32302" lon="5.25431">
        <ele>137.28</ele>
        <time>2026-08-06T15:04:38.373Z</time>
      </trkpt>
      <trkpt lat="49.32319" lon="5.25433">
        <ele>138.26</ele>
        <time>2026-08-06T15:04:44.372Z</time>
      </trkpt>
      <trkpt lat="49.32333" lon="5.25436">
        <ele>139.46</ele>
        <time>2026-08-06T15:04:50.376Z</time>
      </trkpt>
      <trkpt lat="49.32347" lon="5.25439">
        <ele>140.64</ele>
        <time>2026-08-06T15:04:56.385Z</time>
      </trkpt>
      <trkpt lat="49.32363" lon="5.25442">
        <ele>141.48</ele>
        <time>2026-08-06T15:05:02.375Z</time>
      </trkpt>
      <trkpt lat="49.32377" lon="5.25445">
        <ele>142.63</ele>
        <time>2026-08-06T15:05:08.373Z</time>
      </trkpt>
      <trkpt lat="49.32393" lon="5.25449">
        <ele>144.32</ele>
        <time>2026-08-06T15:05:14.377Z</time>
      </trkpt>
      <trkpt lat="49.32409" lon="5.25451">
        <ele>144.07</ele>
        <time>2026-08-06T15:05:20.384Z</time>
      </trkpt>
      <trkpt lat="49.32424" lon="5.25454">
        <ele>144.75</ele>
        <time>2026-08-06T15:05:26.385Z</time>
      </trkpt>
      <trkpt lat="49.3244" lon="5.25454">
        <ele>146.52</ele>
        <time>2026-08-06T15:05:32.382Z</time>
      </trkpt>
      <trkpt lat="49.32454" lon="5.25454">
        <ele>148.78</ele>
        <time>2026-08-06T15:05:38.383Z</time>
      </trkpt>
      <trkpt lat="49.32471" lon="5.25455">
        <ele>147.97</ele>
        <time>2026-08-06T15:05:44.373Z</time>
      </trkpt>
      <trkpt lat="49.32487" lon="5.25454">
        <ele>145.64</ele>
        <time>2026-08-06T15:05:50.376Z</time>
      </trkpt>
      <trkpt lat="49.32505" lon="5.2545">
        <ele>147.33</ele>
        <time>2026-08-06T15:05:56.382Z</time>
      </trkpt>
      <trkpt lat="49.32523" lon="5.2544">
        <ele>147.84</ele>
        <time>2026-08-06T15:06:02.380Z</time>
      </trkpt>
      <trkpt lat="49.32541" lon="5.25424">
        <ele>145.81</ele>
        <time>2026-08-06T15:06:08.376Z</time>
      </trkpt>
      <trkpt lat="49.32557" lon="5.25404">
        <ele>145.27</ele>
        <time>2026-08-06T15:06:14.373Z</time>
      </trkpt>
      <trkpt lat="49.32571" lon="5.25378">
        <ele>144.82</ele>
        <time>2026-08-06T15:06:20.373Z</time>
      </trkpt>
      <trkpt lat="49.32583" lon="5.2534">
        <ele>145.75</ele>
        <time>2026-08-06T15:06:26.380Z</time>
      </trkpt>
      <trkpt lat="49.32588" lon="5.25297">
        <ele>144.08</ele>
        <time>2026-08-06T15:06:32.380Z</time>
      </trkpt>
      <trkpt lat="49.32585" lon="5.25252">
        <ele>142.28</ele>
        <time>2026-08-06T15:06:38.380Z</time>
      </trkpt>
      <trkpt lat="49.3258" lon="5.25207">
        <ele>140.9</ele>
        <time>2026-08-06T15:06:44.381Z</time>
      </trkpt>
      <trkpt lat="49.32573" lon="5.25159">
        <ele>139.5</ele>
        <time>2026-08-06T15:06:50.378Z</time>
      </trkpt>
      <trkpt lat="49.32568" lon="5.25111">
        <ele>139.4</ele>
        <time>2026-08-06T15:06:56.388Z</time>
      </trkpt>
      <trkpt lat="49.32562" lon="5.25063">
        <ele>139.94</ele>
        <time>2026-08-06T15:07:02.389Z</time>
      </trkpt>
      <trkpt lat="49.32557" lon="5.25018">
        <ele>139.73</ele>
        <time>2026-08-06T15:07:08.378Z</time>
      </trkpt>
      <trkpt lat="49.32551" lon="5.24972">
        <ele>139.2</ele>
        <time>2026-08-06T15:07:14.383Z</time>
      </trkpt>
      <trkpt lat="49.32546" lon="5.24928">
        <ele>137.8</ele>
        <time>2026-08-06T15:07:20.380Z</time>
      </trkpt>
      <trkpt lat="49.32541" lon="5.24885">
        <ele>137.42</ele>
        <time>2026-08-06T15:07:26.390Z</time>
      </trkpt>
      <trkpt lat="49.32536" lon="5.24842">
        <ele>136.86</ele>
        <time>2026-08-06T15:07:32.391Z</time>
      </trkpt>
      <trkpt lat="49.32531" lon="5.24798">
        <ele>136.82</ele>
        <time>2026-08-06T15:07:38.381Z</time>
      </trkpt>
      <trkpt lat="49.32525" lon="5.24757">
        <ele>136.21</ele>
        <time>2026-08-06T15:07:44.383Z</time>
      </trkpt>
      <trkpt lat="49.3252" lon="5.24716">
        <ele>135.53</ele>
        <time>2026-08-06T15:07:50.381Z</time>
      </trkpt>
      <trkpt lat="49.32515" lon="5.24676">
        <ele>134.66</ele>
        <time>2026-08-06T15:07:56.394Z</time>
      </trkpt>
      <trkpt lat="49.32511" lon="5.24633">
        <ele>134.78</ele>
        <time>2026-08-06T15:08:02.392Z</time>
      </trkpt>
      <trkpt lat="49.32506" lon="5.24591">
        <ele>134.7</ele>
        <time>2026-08-06T15:08:08.380Z</time>
      </trkpt>
      <trkpt lat="49.32501" lon="5.24547">
        <ele>134.94</ele>
        <time>2026-08-06T15:08:14.380Z</time>
      </trkpt>
      <trkpt lat="49.32497" lon="5.24502">
        <ele>135.53</ele>
        <time>2026-08-06T15:08:20.384Z</time>
      </trkpt>
      <trkpt lat="49.32491" lon="5.24456">
        <ele>136.56</ele>
        <time>2026-08-06T15:08:26.385Z</time>
      </trkpt>
      <trkpt lat="49.32486" lon="5.24412">
        <ele>136.64</ele>
        <time>2026-08-06T15:08:32.392Z</time>
      </trkpt>
      <trkpt lat="49.32481" lon="5.24368">
        <ele>136.03</ele>
        <time>2026-08-06T15:08:38.381Z</time>
      </trkpt>
      <trkpt lat="49.32475" lon="5.24324">
        <ele>135.83</ele>
        <time>2026-08-06T15:08:44.382Z</time>
      </trkpt>
      <trkpt lat="49.32469" lon="5.24279">
        <ele>135.81</ele>
        <time>2026-08-06T15:08:50.377Z</time>
      </trkpt>
      <trkpt lat="49.32464" lon="5.24235">
        <ele>136.3</ele>
        <time>2026-08-06T15:08:56.393Z</time>
      </trkpt>
      <trkpt lat="49.3246" lon="5.24191">
        <ele>136.1</ele>
        <time>2026-08-06T15:09:02.392Z</time>
      </trkpt>
      <trkpt lat="49.32454" lon="5.24147">
        <ele>135.74</ele>
        <time>2026-08-06T15:09:08.377Z</time>
      </trkpt>
      <trkpt lat="49.32449" lon="5.24101">
        <ele>135.29</ele>
        <time>2026-08-06T15:09:14.382Z</time>
      </trkpt>
      <trkpt lat="49.32444" lon="5.24057">
        <ele>134.84</ele>
        <time>2026-08-06T15:09:20.378Z</time>
      </trkpt>
      <trkpt lat="49.32439" lon="5.24015">
        <ele>133.92</ele>
        <time>2026-08-06T15:09:26.393Z</time>
      </trkpt>
      <trkpt lat="49.32434" lon="5.23973">
        <ele>133.91</ele>
        <time>2026-08-06T15:09:32.394Z</time>
      </trkpt>
      <trkpt lat="49.32428" lon="5.23928">
        <ele>134.2</ele>
        <time>2026-08-06T15:09:38.380Z</time>
      </trkpt>
      <trkpt lat="49.32423" lon="5.23884">
        <ele>134.13</ele>
        <time>2026-08-06T15:09:44.378Z</time>
      </trkpt>
      <trkpt lat="49.32417" lon="5.23841">
        <ele>134.48</ele>
        <time>2026-08-06T15:09:50.380Z</time>
      </trkpt>
      <trkpt lat="49.32412" lon="5.23798">
        <ele>134.43</ele>
        <time>2026-08-06T15:09:56.393Z</time>
      </trkpt>
      <trkpt lat="49.32407" lon="5.23758">
        <ele>134.4</ele>
        <time>2026-08-06T15:10:02.396Z</time>
      </trkpt>
      <trkpt lat="49.32402" lon="5.23717">
        <ele>135.54</ele>
        <time>2026-08-06T15:10:08.391Z</time>
      </trkpt>
      <trkpt lat="49.32397" lon="5.23676">
        <ele>135.53</ele>
        <time>2026-08-06T15:10:14.380Z</time>
      </trkpt>
      <trkpt lat="49.32392" lon="5.23635">
        <ele>135.48</ele>
        <time>2026-08-06T15:10:20.378Z</time>
      </trkpt>
      <trkpt lat="49.32388" lon="5.23596">
        <ele>134.95</ele>
        <time>2026-08-06T15:10:26.392Z</time>
      </trkpt>
      <trkpt lat="49.32384" lon="5.23556">
        <ele>134.86</ele>
        <time>2026-08-06T15:10:32.393Z</time>
      </trkpt>
      <trkpt lat="49.3238" lon="5.23518">
        <ele>134.54</ele>
        <time>2026-08-06T15:10:38.384Z</time>
      </trkpt>
      <trkpt lat="49.32376" lon="5.23476">
        <ele>134.5</ele>
        <time>2026-08-06T15:10:44.382Z</time>
      </trkpt>
      <trkpt lat="49.32371" lon="5.23435">
        <ele>133.26</ele>
        <time>2026-08-06T15:10:50.382Z</time>
      </trkpt>
      <trkpt lat="49.32367" lon="5.23395">
        <ele>133.69</ele>
        <time>2026-08-06T15:10:56.383Z</time>
      </trkpt>
      <trkpt lat="49.32364" lon="5.23355">
        <ele>133.94</ele>
        <time>2026-08-06T15:11:02.392Z</time>
      </trkpt>
      <trkpt lat="49.3236" lon="5.23315">
        <ele>133.98</ele>
        <time>2026-08-06T15:11:08.375Z</time>
      </trkpt>
      <trkpt lat="49.32356" lon="5.23275">
        <ele>133.22</ele>
        <time>2026-08-06T15:11:14.370Z</time>
      </trkpt>
      <trkpt lat="49.32352" lon="5.23232">
        <ele>132.86</ele>
        <time>2026-08-06T15:11:20.376Z</time>
      </trkpt>
      <trkpt lat="49.32348" lon="5.23188">
        <ele>133.12</ele>
        <time>2026-08-06T15:11:26.390Z</time>
      </trkpt>
      <trkpt lat="49.32344" lon="5.2315">
        <ele>133.53</ele>
        <time>2026-08-06T15:11:32.397Z</time>
      </trkpt>
      <trkpt lat="49.32341" lon="5.2311">
        <ele>133.72</ele>
        <time>2026-08-06T15:11:38.374Z</time>
      </trkpt>
      <trkpt lat="49.32336" lon="5.2307">
        <ele>133.6</ele>
        <time>2026-08-06T15:11:44.376Z</time>
      </trkpt>
      <trkpt lat="49.32332" lon="5.23029">
        <ele>133.72</ele>
        <time>2026-08-06T15:11:50.371Z</time>
      </trkpt>
      <trkpt lat="49.32329" lon="5.22988">
        <ele>133.6</ele>
        <time>2026-08-06T15:11:56.391Z</time>
      </trkpt>
      <trkpt lat="49.32325" lon="5.22944">
        <ele>133.57</ele>
        <time>2026-08-06T15:12:02.393Z</time>
      </trkpt>
      <trkpt lat="49.32322" lon="5.229">
        <ele>134.34</ele>
        <time>2026-08-06T15:12:08.380Z</time>
      </trkpt>
      <trkpt lat="49.32319" lon="5.22855">
        <ele>134.43</ele>
        <time>2026-08-06T15:12:14.382Z</time>
      </trkpt>
      <trkpt lat="49.32317" lon="5.2281">
        <ele>133.75</ele>
        <time>2026-08-06T15:12:20.378Z</time>
      </trkpt>
      <trkpt lat="49.32316" lon="5.22762">
        <ele>132.95</ele>
        <time>2026-08-06T15:12:26.392Z</time>
      </trkpt>
      <trkpt lat="49.32317" lon="5.22716">
        <ele>133.42</ele>
        <time>2026-08-06T15:12:32.392Z</time>
      </trkpt>
      <trkpt lat="49.32317" lon="5.22669">
        <ele>133.8</ele>
        <time>2026-08-06T15:12:38.371Z</time>
      </trkpt>
      <trkpt lat="49.32317" lon="5.22623">
        <ele>133.77</ele>
        <time>2026-08-06T15:12:44.366Z</time>
      </trkpt>
      <trkpt lat="49.32317" lon="5.22577">
        <ele>133.84</ele>
        <time>2026-08-06T15:12:50.370Z</time>
      </trkpt>
      <trkpt lat="49.32319" lon="5.22531">
        <ele>134.35</ele>
        <time>2026-08-06T15:12:56.385Z</time>
      </trkpt>
      <trkpt lat="49.3232" lon="5.22485">
        <ele>134.72</ele>
        <time>2026-08-06T15:13:02.392Z</time>
      </trkpt>
      <trkpt lat="49.32321" lon="5.2244">
        <ele>134.72</ele>
        <time>2026-08-06T15:13:08.365Z</time>
      </trkpt>
      <trkpt lat="49.32323" lon="5.22396">
        <ele>134.4</ele>
        <time>2026-08-06T15:13:14.370Z</time>
      </trkpt>
      <trkpt lat="49.32323" lon="5.22351">
        <ele>135.16</ele>
        <time>2026-08-06T15:13:20.373Z</time>
      </trkpt>
      <trkpt lat="49.32323" lon="5.22307">
        <ele>134.5</ele>
        <time>2026-08-06T15:13:26.396Z</time>
      </trkpt>
      <trkpt lat="49.32323" lon="5.22264">
        <ele>134.1</ele>
        <time>2026-08-06T15:13:32.392Z</time>
      </trkpt>
      <trkpt lat="49.32325" lon="5.22222">
        <ele>133.59</ele>
        <time>2026-08-06T15:13:38.378Z</time>
      </trkpt>
      <trkpt lat="49.32323" lon="5.2218">
        <ele>131.59</ele>
        <time>2026-08-06T15:13:44.366Z</time>
      </trkpt>
      <trkpt lat="49.32324" lon="5.22136">
        <ele>131.55</ele>
        <time>2026-08-06T15:13:50.369Z</time>
      </trkpt>
      <trkpt lat="49.32325" lon="5.2209">
        <ele>131.34</ele>
        <time>2026-08-06T15:13:56.389Z</time>
      </trkpt>
      <trkpt lat="49.32329" lon="5.22044">
        <ele>133.24</ele>
        <time>2026-08-06T15:14:02.393Z</time>
      </trkpt>
      <trkpt lat="49.32332" lon="5.22">
        <ele>133.29</ele>
        <time>2026-08-06T15:14:08.372Z</time>
      </trkpt>
      <trkpt lat="49.32338" lon="5.21952">
        <ele>134.34</ele>
        <time>2026-08-06T15:14:14.365Z</time>
      </trkpt>
      <trkpt lat="49.32345" lon="5.21906">
        <ele>134.33</ele>
        <time>2026-08-06T15:14:20.376Z</time>
      </trkpt>
      <trkpt lat="49.32351" lon="5.2186">
        <ele>134.34</ele>
        <time>2026-08-06T15:14:26.391Z</time>
      </trkpt>
      <trkpt lat="49.32358" lon="5.21815">
        <ele>134.12</ele>
        <time>2026-08-06T15:14:32.389Z</time>
      </trkpt>
      <trkpt lat="49.32364" lon="5.21771">
        <ele>134.5</ele>
        <time>2026-08-06T15:14:38.368Z</time>
      </trkpt>
      <trkpt lat="49.32369" lon="5.21727">
        <ele>133.69</ele>
        <time>2026-08-06T15:14:44.370Z</time>
      </trkpt>
      <trkpt lat="49.32375" lon="5.21683">
        <ele>133.73</ele>
        <time>2026-08-06T15:14:50.370Z</time>
      </trkpt>
      <trkpt lat="49.32381" lon="5.21639">
        <ele>133.91</ele>
        <time>2026-08-06T15:14:56.390Z</time>
      </trkpt>
      <trkpt lat="49.32387" lon="5.21595">
        <ele>133.69</ele>
        <time>2026-08-06T15:15:02.392Z</time>
      </trkpt>
      <trkpt lat="49.32393" lon="5.2155">
        <ele>133.36</ele>
        <time>2026-08-06T15:15:08.368Z</time>
      </trkpt>
      <trkpt lat="49.32398" lon="5.21508">
        <ele>133.27</ele>
        <time>2026-08-06T15:15:14.373Z</time>
      </trkpt>
      <trkpt lat="49.32405" lon="5.21467">
        <ele>133.8</ele>
        <time>2026-08-06T15:15:20.371Z</time>
      </trkpt>
      <trkpt lat="49.32414" lon="5.21428">
        <ele>133.84</ele>
        <time>2026-08-06T15:15:26.392Z</time>
      </trkpt>
      <trkpt lat="49.32424" lon="5.2139">
        <ele>133.62</ele>
        <time>2026-08-06T15:15:32.392Z</time>
      </trkpt>
      <trkpt lat="49.32436" lon="5.2135">
        <ele>133.89</ele>
        <time>2026-08-06T15:15:38.375Z</time>
      </trkpt>
      <trkpt lat="49.32448" lon="5.2131">
        <ele>133.88</ele>
        <time>2026-08-06T15:15:44.364Z</time>
      </trkpt>
      <trkpt lat="49.32459" lon="5.21271">
        <ele>133.49</ele>
        <time>2026-08-06T15:15:50.375Z</time>
      </trkpt>
      <trkpt lat="49.32471" lon="5.21232">
        <ele>133.53</ele>
        <time>2026-08-06T15:15:56.395Z</time>
      </trkpt>
      <trkpt lat="49.32482" lon="5.21193">
        <ele>133.84</ele>
        <time>2026-08-06T15:16:02.394Z</time>
      </trkpt>
      <trkpt lat="49.32494" lon="5.21154">
        <ele>134.06</ele>
        <time>2026-08-06T15:16:08.375Z</time>
      </trkpt>
      <trkpt lat="49.32507" lon="5.21119">
        <ele>134.59</ele>
        <time>2026-08-06T15:16:14.378Z</time>
      </trkpt>
      <trkpt lat="49.32521" lon="5.21086">
        <ele>135.44</ele>
        <time>2026-08-06T15:16:20.373Z</time>
      </trkpt>
      <trkpt lat="49.32536" lon="5.21051">
        <ele>135.99</ele>
        <time>2026-08-06T15:16:26.391Z</time>
      </trkpt>
      <trkpt lat="49.3255" lon="5.2102">
        <ele>137</ele>
        <time>2026-08-06T15:16:32.394Z</time>
      </trkpt>
      <trkpt lat="49.32563" lon="5.2099">
        <ele>137.4</ele>
        <time>2026-08-06T15:16:38.374Z</time>
      </trkpt>
      <trkpt lat="49.32576" lon="5.2096">
        <ele>137.29</ele>
        <time>2026-08-06T15:16:44.378Z</time>
      </trkpt>
      <trkpt lat="49.3259" lon="5.20926">
        <ele>138.62</ele>
        <time>2026-08-06T15:16:50.373Z</time>
      </trkpt>
      <trkpt lat="49.32602" lon="5.20889">
        <ele>137.71</ele>
        <time>2026-08-06T15:16:56.395Z</time>
      </trkpt>
      <trkpt lat="49.32614" lon="5.20846">
        <ele>136.68</ele>
        <time>2026-08-06T15:17:02.391Z</time>
      </trkpt>
      <trkpt lat="49.32627" lon="5.20794">
        <ele>134.82</ele>
        <time>2026-08-06T15:17:08.378Z</time>
      </trkpt>
      <trkpt lat="49.32641" lon="5.20742">
        <ele>130.54</ele>
        <time>2026-08-06T15:17:14.377Z</time>
      </trkpt>
      <trkpt lat="49.32655" lon="5.20689">
        <ele>127.98</ele>
        <time>2026-08-06T15:17:20.379Z</time>
      </trkpt>
      <trkpt lat="49.32672" lon="5.20634">
        <ele>129.9</ele>
        <time>2026-08-06T15:17:26.382Z</time>
      </trkpt>
      <trkpt lat="49.32688" lon="5.20582">
        <ele>132.84</ele>
        <time>2026-08-06T15:17:32.392Z</time>
      </trkpt>
      <trkpt lat="49.32703" lon="5.2053">
        <ele>133.34</ele>
        <time>2026-08-06T15:17:38.374Z</time>
      </trkpt>
      <trkpt lat="49.32721" lon="5.20477">
        <ele>133.23</ele>
        <time>2026-08-06T15:17:44.372Z</time>
      </trkpt>
      <trkpt lat="49.32746" lon="5.20426">
        <ele>133.8</ele>
        <time>2026-08-06T15:17:50.380Z</time>
      </trkpt>
      <trkpt lat="49.32767" lon="5.20377">
        <ele>132.79</ele>
        <time>2026-08-06T15:17:56.394Z</time>
      </trkpt>
      <trkpt lat="49.32785" lon="5.20326">
        <ele>132.05</ele>
        <time>2026-08-06T15:18:02.393Z</time>
      </trkpt>
      <trkpt lat="49.32803" lon="5.20273">
        <ele>132.62</ele>
        <time>2026-08-06T15:18:08.381Z</time>
      </trkpt>
      <trkpt lat="49.3282" lon="5.20221">
        <ele>132.94</ele>
        <time>2026-08-06T15:18:14.383Z</time>
      </trkpt>
      <trkpt lat="49.32837" lon="5.20173">
        <ele>132.61</ele>
        <time>2026-08-06T15:18:20.383Z</time>
      </trkpt>
      <trkpt lat="49.32854" lon="5.20125">
        <ele>133.07</ele>
        <time>2026-08-06T15:18:26.390Z</time>
      </trkpt>
      <trkpt lat="49.32872" lon="5.20075">
        <ele>132.99</ele>
        <time>2026-08-06T15:18:32.392Z</time>
      </trkpt>
      <trkpt lat="49.32888" lon="5.20026">
        <ele>132.69</ele>
        <time>2026-08-06T15:18:38.383Z</time>
      </trkpt>
      <trkpt lat="49.32904" lon="5.19981">
        <ele>132.02</ele>
        <time>2026-08-06T15:18:44.379Z</time>
      </trkpt>
      <trkpt lat="49.32917" lon="5.19934">
        <ele>131.64</ele>
        <time>2026-08-06T15:18:50.380Z</time>
      </trkpt>
      <trkpt lat="49.32931" lon="5.19888">
        <ele>131.63</ele>
        <time>2026-08-06T15:18:56.393Z</time>
      </trkpt>
      <trkpt lat="49.32943" lon="5.19845">
        <ele>131.95</ele>
        <time>2026-08-06T15:19:02.392Z</time>
      </trkpt>
      <trkpt lat="49.32953" lon="5.19808">
        <ele>132.48</ele>
        <time>2026-08-06T15:19:08.379Z</time>
      </trkpt>
      <trkpt lat="49.32965" lon="5.19766">
        <ele>133.04</ele>
        <time>2026-08-06T15:19:14.379Z</time>
      </trkpt>
      <trkpt lat="49.32978" lon="5.19726">
        <ele>133.23</ele>
        <time>2026-08-06T15:19:20.382Z</time>
      </trkpt>
      <trkpt lat="49.32993" lon="5.19686">
        <ele>133.39</ele>
        <time>2026-08-06T15:19:26.391Z</time>
      </trkpt>
      <trkpt lat="49.33008" lon="5.19646">
        <ele>133.06</ele>
        <time>2026-08-06T15:19:32.391Z</time>
      </trkpt>
      <trkpt lat="49.33024" lon="5.19608">
        <ele>132.8</ele>
        <time>2026-08-06T15:19:38.382Z</time>
      </trkpt>
      <trkpt lat="49.3304" lon="5.19566">
        <ele>131.36</ele>
        <time>2026-08-06T15:19:44.378Z</time>
      </trkpt>
      <trkpt lat="49.33054" lon="5.19526">
        <ele>131.82</ele>
        <time>2026-08-06T15:19:50.377Z</time>
      </trkpt>
      <trkpt lat="49.33066" lon="5.19486">
        <ele>132.12</ele>
        <time>2026-08-06T15:19:56.387Z</time>
      </trkpt>
      <trkpt lat="49.3308" lon="5.19447">
        <ele>133.11</ele>
        <time>2026-08-06T15:20:02.395Z</time>
      </trkpt>
      <trkpt lat="49.33092" lon="5.19405">
        <ele>132.3</ele>
        <time>2026-08-06T15:20:08.381Z</time>
      </trkpt>
      <trkpt lat="49.33108" lon="5.19368">
        <ele>133.2</ele>
        <time>2026-08-06T15:20:14.379Z</time>
      </trkpt>
      <trkpt lat="49.33122" lon="5.19331">
        <ele>134.24</ele>
        <time>2026-08-06T15:20:20.379Z</time>
      </trkpt>
      <trkpt lat="49.33138" lon="5.19295">
        <ele>135.04</ele>
        <time>2026-08-06T15:20:26.392Z</time>
      </trkpt>
      <trkpt lat="49.33153" lon="5.19261">
        <ele>135.04</ele>
        <time>2026-08-06T15:20:32.391Z</time>
      </trkpt>
      <trkpt lat="49.33172" lon="5.19226">
        <ele>134.29</ele>
        <time>2026-08-06T15:20:38.380Z</time>
      </trkpt>
      <trkpt lat="49.33192" lon="5.19189">
        <ele>131.73</ele>
        <time>2026-08-06T15:20:44.373Z</time>
      </trkpt>
      <trkpt lat="49.33214" lon="5.19151">
        <ele>130.34</ele>
        <time>2026-08-06T15:20:50.377Z</time>
      </trkpt>
      <trkpt lat="49.33234" lon="5.19115">
        <ele>129.49</ele>
        <time>2026-08-06T15:20:56.385Z</time>
      </trkpt>
      <trkpt lat="49.33253" lon="5.19078">
        <ele>130.45</ele>
        <time>2026-08-06T15:21:02.391Z</time>
      </trkpt>
      <trkpt lat="49.33274" lon="5.19038">
        <ele>131.85</ele>
        <time>2026-08-06T15:21:08.375Z</time>
      </trkpt>
      <trkpt lat="49.33296" lon="5.19002">
        <ele>133.51</ele>
        <time>2026-08-06T15:21:14.378Z</time>
      </trkpt>
      <trkpt lat="49.33319" lon="5.18974">
        <ele>133.35</ele>
        <time>2026-08-06T15:21:20.376Z</time>
      </trkpt>
      <trkpt lat="49.3335" lon="5.1895">
        <ele>132.5</ele>
        <time>2026-08-06T15:21:26.393Z</time>
      </trkpt>
      <trkpt lat="49.33379" lon="5.18919">
        <ele>130.6</ele>
        <time>2026-08-06T15:21:32.393Z</time>
      </trkpt>
      <trkpt lat="49.33406" lon="5.18882">
        <ele>130.73</ele>
        <time>2026-08-06T15:21:38.376Z</time>
      </trkpt>
      <trkpt lat="49.33431" lon="5.18842">
        <ele>130.28</ele>
        <time>2026-08-06T15:21:44.381Z</time>
      </trkpt>
      <trkpt lat="49.33454" lon="5.18807">
        <ele>130.9</ele>
        <time>2026-08-06T15:21:50.385Z</time>
      </trkpt>
      <trkpt lat="49.33476" lon="5.18776">
        <ele>132.13</ele>
        <time>2026-08-06T15:21:56.391Z</time>
      </trkpt>
      <trkpt lat="49.33499" lon="5.18749">
        <ele>133.27</ele>
        <time>2026-08-06T15:22:02.395Z</time>
      </trkpt>
      <trkpt lat="49.33521" lon="5.18726">
        <ele>131.89</ele>
        <time>2026-08-06T15:22:08.376Z</time>
      </trkpt>
      <trkpt lat="49.33545" lon="5.18703">
        <ele>131.7</ele>
        <time>2026-08-06T15:22:14.382Z</time>
      </trkpt>
      <trkpt lat="49.33569" lon="5.18682">
        <ele>131.56</ele>
        <time>2026-08-06T15:22:20.385Z</time>
      </trkpt>
      <trkpt lat="49.33594" lon="5.18662">
        <ele>133.38</ele>
        <time>2026-08-06T15:22:26.391Z</time>
      </trkpt>
      <trkpt lat="49.33618" lon="5.18639">
        <ele>134.55</ele>
        <time>2026-08-06T15:22:32.392Z</time>
      </trkpt>
      <trkpt lat="49.33642" lon="5.18617">
        <ele>133.43</ele>
        <time>2026-08-06T15:22:38.371Z</time>
      </trkpt>
      <trkpt lat="49.33664" lon="5.18595">
        <ele>131.05</ele>
        <time>2026-08-06T15:22:44.375Z</time>
      </trkpt>
      <trkpt lat="49.33688" lon="5.18572">
        <ele>132.09</ele>
        <time>2026-08-06T15:22:50.377Z</time>
      </trkpt>
      <trkpt lat="49.33711" lon="5.18551">
        <ele>132.27</ele>
        <time>2026-08-06T15:22:56.394Z</time>
      </trkpt>
      <trkpt lat="49.33733" lon="5.18531">
        <ele>132.42</ele>
        <time>2026-08-06T15:23:02.392Z</time>
      </trkpt>
      <trkpt lat="49.33752" lon="5.18515">
        <ele>131.74</ele>
        <time>2026-08-06T15:23:08.378Z</time>
      </trkpt>
      <trkpt lat="49.33771" lon="5.18497">
        <ele>132.12</ele>
        <time>2026-08-06T15:23:14.372Z</time>
      </trkpt>
      <trkpt lat="49.33793" lon="5.18477">
        <ele>130.79</ele>
        <time>2026-08-06T15:23:20.378Z</time>
      </trkpt>
      <trkpt lat="49.33815" lon="5.18455">
        <ele>130.97</ele>
        <time>2026-08-06T15:23:26.385Z</time>
      </trkpt>
      <trkpt lat="49.33842" lon="5.18432">
        <ele>130.8</ele>
        <time>2026-08-06T15:23:32.393Z</time>
      </trkpt>
      <trkpt lat="49.33867" lon="5.18409">
        <ele>129.38</ele>
        <time>2026-08-06T15:23:38.382Z</time>
      </trkpt>
      <trkpt lat="49.33892" lon="5.18388">
        <ele>129.24</ele>
        <time>2026-08-06T15:23:44.375Z</time>
      </trkpt>
      <trkpt lat="49.33918" lon="5.18363">
        <ele>130.18</ele>
        <time>2026-08-06T15:23:50.376Z</time>
      </trkpt>
      <trkpt lat="49.33942" lon="5.18337">
        <ele>130.41</ele>
        <time>2026-08-06T15:23:56.389Z</time>
      </trkpt>
      <trkpt lat="49.33967" lon="5.18313">
        <ele>131.24</ele>
        <time>2026-08-06T15:24:02.399Z</time>
      </trkpt>
      <trkpt lat="49.33992" lon="5.18288">
        <ele>130.82</ele>
        <time>2026-08-06T15:24:08.377Z</time>
      </trkpt>
      <trkpt lat="49.34016" lon="5.18264">
        <ele>129.52</ele>
        <time>2026-08-06T15:24:14.383Z</time>
      </trkpt>
      <trkpt lat="49.34041" lon="5.18239">
        <ele>127.75</ele>
        <time>2026-08-06T15:24:20.380Z</time>
      </trkpt>
      <trkpt lat="49.34064" lon="5.18217">
        <ele>126.14</ele>
        <time>2026-08-06T15:24:26.391Z</time>
      </trkpt>
      <trkpt lat="49.34087" lon="5.18193">
        <ele>127.09</ele>
        <time>2026-08-06T15:24:32.392Z</time>
      </trkpt>
      <trkpt lat="49.3411" lon="5.18169">
        <ele>127.06</ele>
        <time>2026-08-06T15:24:38.376Z</time>
      </trkpt>
      <trkpt lat="49.34132" lon="5.18149">
        <ele>128.76</ele>
        <time>2026-08-06T15:24:44.380Z</time>
      </trkpt>
      <trkpt lat="49.34154" lon="5.18127">
        <ele>130.43</ele>
        <time>2026-08-06T15:24:50.378Z</time>
      </trkpt>
      <trkpt lat="49.34178" lon="5.18106">
        <ele>130.91</ele>
        <time>2026-08-06T15:24:56.392Z</time>
      </trkpt>
      <trkpt lat="49.34203" lon="5.1809">
        <ele>131.64</ele>
        <time>2026-08-06T15:25:02.389Z</time>
      </trkpt>
      <trkpt lat="49.3423" lon="5.18075">
        <ele>131.02</ele>
        <time>2026-08-06T15:25:08.378Z</time>
      </trkpt>
      <trkpt lat="49.34255" lon="5.18061">
        <ele>129.09</ele>
        <time>2026-08-06T15:25:14.382Z</time>
      </trkpt>
      <trkpt lat="49.3428" lon="5.18047">
        <ele>130.15</ele>
        <time>2026-08-06T15:25:20.373Z</time>
      </trkpt>
      <trkpt lat="49.34306" lon="5.18034">
        <ele>131.16</ele>
        <time>2026-08-06T15:25:26.393Z</time>
      </trkpt>
      <trkpt lat="49.34331" lon="5.1802">
        <ele>131.26</ele>
        <time>2026-08-06T15:25:32.391Z</time>
      </trkpt>
      <trkpt lat="49.34357" lon="5.18009">
        <ele>131.18</ele>
        <time>2026-08-06T15:25:38.374Z</time>
      </trkpt>
      <trkpt lat="49.34383" lon="5.17998">
        <ele>130.62</ele>
        <time>2026-08-06T15:25:44.376Z</time>
      </trkpt>
      <trkpt lat="49.34408" lon="5.17989">
        <ele>131.35</ele>
        <time>2026-08-06T15:25:50.376Z</time>
      </trkpt>
      <trkpt lat="49.34432" lon="5.17981">
        <ele>132.37</ele>
        <time>2026-08-06T15:25:56.391Z</time>
      </trkpt>
      <trkpt lat="49.34457" lon="5.17973">
        <ele>134.02</ele>
        <time>2026-08-06T15:26:02.391Z</time>
      </trkpt>
      <trkpt lat="49.34486" lon="5.17966">
        <ele>134.58</ele>
        <time>2026-08-06T15:26:08.375Z</time>
      </trkpt>
      <trkpt lat="49.34516" lon="5.17959">
        <ele>133.31</ele>
        <time>2026-08-06T15:26:14.377Z</time>
      </trkpt>
      <trkpt lat="49.34546" lon="5.17951">
        <ele>132.55</ele>
        <time>2026-08-06T15:26:20.376Z</time>
      </trkpt>
      <trkpt lat="49.34578" lon="5.17943">
        <ele>131.76</ele>
        <time>2026-08-06T15:26:26.390Z</time>
      </trkpt>
      <trkpt lat="49.34611" lon="5.17934">
        <ele>131.32</ele>
        <time>2026-08-06T15:26:32.394Z</time>
      </trkpt>
      <trkpt lat="49.34643" lon="5.17927">
        <ele>131.96</ele>
        <time>2026-08-06T15:26:38.371Z</time>
      </trkpt>
      <trkpt lat="49.34677" lon="5.1792">
        <ele>132.57</ele>
        <time>2026-08-06T15:26:44.372Z</time>
      </trkpt>
      <trkpt lat="49.34711" lon="5.17911">
        <ele>132.18</ele>
        <time>2026-08-06T15:26:50.376Z</time>
      </trkpt>
      <trkpt lat="49.34745" lon="5.17904">
        <ele>131.41</ele>
        <time>2026-08-06T15:26:56.391Z</time>
      </trkpt>
      <trkpt lat="49.34778" lon="5.17896">
        <ele>131.65</ele>
        <time>2026-08-06T15:27:02.393Z</time>
      </trkpt>
      <trkpt lat="49.3481" lon="5.17889">
        <ele>129.9</ele>
        <time>2026-08-06T15:27:08.376Z</time>
      </trkpt>
      <trkpt lat="49.34842" lon="5.17878">
        <ele>128.73</ele>
        <time>2026-08-06T15:27:14.375Z</time>
      </trkpt>
      <trkpt lat="49.34872" lon="5.1787">
        <ele>129.95</ele>
        <time>2026-08-06T15:27:20.378Z</time>
      </trkpt>
      <trkpt lat="49.34904" lon="5.17862">
        <ele>130.81</ele>
        <time>2026-08-06T15:27:26.391Z</time>
      </trkpt>
      <trkpt lat="49.34936" lon="5.17856">
        <ele>131.51</ele>
        <time>2026-08-06T15:27:32.391Z</time>
      </trkpt>
      <trkpt lat="49.34966" lon="5.1785">
        <ele>132.71</ele>
        <time>2026-08-06T15:27:38.372Z</time>
      </trkpt>
      <trkpt lat="49.34996" lon="5.17845">
        <ele>132.39</ele>
        <time>2026-08-06T15:27:44.374Z</time>
      </trkpt>
      <trkpt lat="49.35027" lon="5.17839">
        <ele>131.28</ele>
        <time>2026-08-06T15:27:50.379Z</time>
      </trkpt>
      <trkpt lat="49.35058" lon="5.17836">
        <ele>131.48</ele>
        <time>2026-08-06T15:27:56.393Z</time>
      </trkpt>
      <trkpt lat="49.35087" lon="5.17834">
        <ele>132.72</ele>
        <time>2026-08-06T15:28:02.392Z</time>
      </trkpt>
      <trkpt lat="49.35116" lon="5.17831">
        <ele>131.79</ele>
        <time>2026-08-06T15:28:08.376Z</time>
      </trkpt>
      <trkpt lat="49.35147" lon="5.17831">
        <ele>132.8</ele>
        <time>2026-08-06T15:28:14.375Z</time>
      </trkpt>
      <trkpt lat="49.35178" lon="5.17832">
        <ele>133.08</ele>
        <time>2026-08-06T15:28:20.375Z</time>
      </trkpt>
      <trkpt lat="49.35209" lon="5.17834">
        <ele>134.69</ele>
        <time>2026-08-06T15:28:26.396Z</time>
      </trkpt>
      <trkpt lat="49.35239" lon="5.17836">
        <ele>136.2</ele>
        <time>2026-08-06T15:28:32.398Z</time>
      </trkpt>
      <trkpt lat="49.35268" lon="5.17841">
        <ele>136.43</ele>
        <time>2026-08-06T15:28:38.383Z</time>
      </trkpt>
      <trkpt lat="49.35297" lon="5.17847">
        <ele>136.28</ele>
        <time>2026-08-06T15:28:44.383Z</time>
      </trkpt>
      <trkpt lat="49.35325" lon="5.17852">
        <ele>138.14</ele>
        <time>2026-08-06T15:28:50.381Z</time>
      </trkpt>
      <trkpt lat="49.35352" lon="5.17856">
        <ele>140.6</ele>
        <time>2026-08-06T15:28:56.391Z</time>
      </trkpt>
      <trkpt lat="49.35376" lon="5.17861">
        <ele>141.67</ele>
        <time>2026-08-06T15:29:02.394Z</time>
      </trkpt>
      <trkpt lat="49.35401" lon="5.17867">
        <ele>143.47</ele>
        <time>2026-08-06T15:29:08.382Z</time>
      </trkpt>
      <trkpt lat="49.35424" lon="5.1787">
        <ele>143.1</ele>
        <time>2026-08-06T15:29:14.377Z</time>
      </trkpt>
      <trkpt lat="49.35445" lon="5.17874">
        <ele>142.78</ele>
        <time>2026-08-06T15:29:20.387Z</time>
      </trkpt>
      <trkpt lat="49.35467" lon="5.17877">
        <ele>142.3</ele>
        <time>2026-08-06T15:29:26.393Z</time>
      </trkpt>
      <trkpt lat="49.35488" lon="5.17879">
        <ele>143.4</ele>
        <time>2026-08-06T15:29:32.394Z</time>
      </trkpt>
      <trkpt lat="49.35514" lon="5.17882">
        <ele>145.19</ele>
        <time>2026-08-06T15:29:38.376Z</time>
      </trkpt>
      <trkpt lat="49.35543" lon="5.17886">
        <ele>143.68</ele>
        <time>2026-08-06T15:29:44.382Z</time>
      </trkpt>
      <trkpt lat="49.35575" lon="5.17893">
        <ele>142.97</ele>
        <time>2026-08-06T15:29:50.377Z</time>
      </trkpt>
      <trkpt lat="49.35608" lon="5.17898">
        <ele>143.9</ele>
        <time>2026-08-06T15:29:56.395Z</time>
      </trkpt>
      <trkpt lat="49.3564" lon="5.17898">
        <ele>141.99</ele>
        <time>2026-08-06T15:30:02.393Z</time>
      </trkpt>
      <trkpt lat="49.35678" lon="5.17883">
        <ele>138.45</ele>
        <time>2026-08-06T15:30:08.376Z</time>
      </trkpt>
      <trkpt lat="49.35721" lon="5.17856">
        <ele>134.79</ele>
        <time>2026-08-06T15:30:14.374Z</time>
      </trkpt>
      <trkpt lat="49.3577" lon="5.17849">
        <ele>134.14</ele>
        <time>2026-08-06T15:30:20.381Z</time>
      </trkpt>
      <trkpt lat="49.35808" lon="5.17863">
        <ele>135.2</ele>
        <time>2026-08-06T15:30:26.394Z</time>
      </trkpt>
      <trkpt lat="49.35833" lon="5.17885">
        <ele>135.43</ele>
        <time>2026-08-06T15:30:32.394Z</time>
      </trkpt>
      <trkpt lat="49.35853" lon="5.17911">
        <ele>138.06</ele>
        <time>2026-08-06T15:30:38.381Z</time>
      </trkpt>
      <trkpt lat="49.35872" lon="5.17941">
        <ele>139.77</ele>
        <time>2026-08-06T15:30:44.384Z</time>
      </trkpt>
      <trkpt lat="49.35886" lon="5.17965">
        <ele>140.87</ele>
        <time>2026-08-06T15:30:50.384Z</time>
      </trkpt>
      <trkpt lat="49.35902" lon="5.17989">
        <ele>142.92</ele>
        <time>2026-08-06T15:30:56.397Z</time>
      </trkpt>
      <trkpt lat="49.35917" lon="5.18012">
        <ele>144.27</ele>
        <time>2026-08-06T15:31:02.397Z</time>
      </trkpt>
      <trkpt lat="49.35932" lon="5.18034">
        <ele>145.24</ele>
        <time>2026-08-06T15:31:08.384Z</time>
      </trkpt>
      <trkpt lat="49.35948" lon="5.18051">
        <ele>146.63</ele>
        <time>2026-08-06T15:31:14.379Z</time>
      </trkpt>
      <trkpt lat="49.35965" lon="5.18066">
        <ele>146.64</ele>
        <time>2026-08-06T15:31:20.377Z</time>
      </trkpt>
      <trkpt lat="49.35983" lon="5.18081">
        <ele>147.3</ele>
        <time>2026-08-06T15:31:26.395Z</time>
      </trkpt>
      <trkpt lat="49.36001" lon="5.18095">
        <ele>147.39</ele>
        <time>2026-08-06T15:31:32.392Z</time>
      </trkpt>
      <trkpt lat="49.3602" lon="5.1811">
        <ele>149.01</ele>
        <time>2026-08-06T15:31:38.376Z</time>
      </trkpt>
      <trkpt lat="49.3604" lon="5.18124">
        <ele>148.87</ele>
        <time>2026-08-06T15:31:44.378Z</time>
      </trkpt>
      <trkpt lat="49.36057" lon="5.18135">
        <ele>148.6</ele>
        <time>2026-08-06T15:31:50.381Z</time>
      </trkpt>
      <trkpt lat="49.36076" lon="5.18141">
        <ele>148.98</ele>
        <time>2026-08-06T15:31:56.397Z</time>
      </trkpt>
      <trkpt lat="49.361" lon="5.18144">
        <ele>148.45</ele>
        <time>2026-08-06T15:32:02.403Z</time>
      </trkpt>
      <trkpt lat="49.36121" lon="5.18147">
        <ele>149.69</ele>
        <time>2026-08-06T15:32:08.375Z</time>
      </trkpt>
      <trkpt lat="49.36145" lon="5.1815">
        <ele>149.83</ele>
        <time>2026-08-06T15:32:14.373Z</time>
      </trkpt>
      <trkpt lat="49.36167" lon="5.18153">
        <ele>151.05</ele>
        <time>2026-08-06T15:32:20.381Z</time>
      </trkpt>
      <trkpt lat="49.36189" lon="5.18154">
        <ele>150.98</ele>
        <time>2026-08-06T15:32:26.395Z</time>
      </trkpt>
      <trkpt lat="49.36209" lon="5.18154">
        <ele>152.39</ele>
        <time>2026-08-06T15:32:32.395Z</time>
      </trkpt>
      <trkpt lat="49.36228" lon="5.18152">
        <ele>154.65</ele>
        <time>2026-08-06T15:32:38.378Z</time>
      </trkpt>
      <trkpt lat="49.36248" lon="5.1815">
        <ele>155.9</ele>
        <time>2026-08-06T15:32:44.375Z</time>
      </trkpt>
      <trkpt lat="49.3627" lon="5.1815">
        <ele>156.91</ele>
        <time>2026-08-06T15:32:50.379Z</time>
      </trkpt>
      <trkpt lat="49.36292" lon="5.18152">
        <ele>157.81</ele>
        <time>2026-08-06T15:32:56.394Z</time>
      </trkpt>
      <trkpt lat="49.36314" lon="5.18156">
        <ele>158.3</ele>
        <time>2026-08-06T15:33:02.394Z</time>
      </trkpt>
      <trkpt lat="49.36335" lon="5.18157">
        <ele>157.9</ele>
        <time>2026-08-06T15:33:08.380Z</time>
      </trkpt>
      <trkpt lat="49.36356" lon="5.18157">
        <ele>157.75</ele>
        <time>2026-08-06T15:33:14.378Z</time>
      </trkpt>
      <trkpt lat="49.36378" lon="5.18154">
        <ele>157.27</ele>
        <time>2026-08-06T15:33:20.376Z</time>
      </trkpt>
      <trkpt lat="49.36401" lon="5.18151">
        <ele>156.88</ele>
        <time>2026-08-06T15:33:26.385Z</time>
      </trkpt>
      <trkpt lat="49.36427" lon="5.18148">
        <ele>156.38</ele>
        <time>2026-08-06T15:33:32.397Z</time>
      </trkpt>
      <trkpt lat="49.36454" lon="5.18144">
        <ele>156.24</ele>
        <time>2026-08-06T15:33:38.378Z</time>
      </trkpt>
      <trkpt lat="49.36484" lon="5.18133">
        <ele>155.65</ele>
        <time>2026-08-06T15:33:44.380Z</time>
      </trkpt>
      <trkpt lat="49.36519" lon="5.18113">
        <ele>153.57</ele>
        <time>2026-08-06T15:33:50.380Z</time>
      </trkpt>
      <trkpt lat="49.36556" lon="5.18081">
        <ele>149.87</ele>
        <time>2026-08-06T15:33:56.395Z</time>
      </trkpt>
      <trkpt lat="49.36594" lon="5.18041">
        <ele>145.05</ele>
        <time>2026-08-06T15:34:02.395Z</time>
      </trkpt>
      <trkpt lat="49.36636" lon="5.17999">
        <ele>140.57</ele>
        <time>2026-08-06T15:34:08.382Z</time>
      </trkpt>
      <trkpt lat="49.36675" lon="5.17959">
        <ele>135.34</ele>
        <time>2026-08-06T15:34:14.388Z</time>
      </trkpt>
      <trkpt lat="49.36719" lon="5.17936">
        <ele>133.3</ele>
        <time>2026-08-06T15:34:20.385Z</time>
      </trkpt>
      <trkpt lat="49.36762" lon="5.17935">
        <ele>130.4</ele>
        <time>2026-08-06T15:34:26.395Z</time>
      </trkpt>
      <trkpt lat="49.36801" lon="5.17934">
        <ele>128.04</ele>
        <time>2026-08-06T15:34:32.396Z</time>
      </trkpt>
      <trkpt lat="49.3683" lon="5.17924">
        <ele>131.49</ele>
        <time>2026-08-06T15:34:38.382Z</time>
      </trkpt>
      <trkpt lat="49.36859" lon="5.17917">
        <ele>133.54</ele>
        <time>2026-08-06T15:34:44.382Z</time>
      </trkpt>
      <trkpt lat="49.36883" lon="5.17911">
        <ele>135.38</ele>
        <time>2026-08-06T15:34:50.381Z</time>
      </trkpt>
      <trkpt lat="49.36902" lon="5.17909">
        <ele>133.49</ele>
        <time>2026-08-06T15:34:56.393Z</time>
      </trkpt>
      <trkpt lat="49.36921" lon="5.17905">
        <ele>132.3</ele>
        <time>2026-08-06T15:35:02.395Z</time>
      </trkpt>
      <trkpt lat="49.36936" lon="5.17902">
        <ele>133.14</ele>
        <time>2026-08-06T15:35:07.395Z</time>
      </trkpt>
      <trkpt lat="49.36953" lon="5.17899">
        <ele>132.32</ele>
        <time>2026-08-06T15:35:13.320Z</time>
      </trkpt>
      <trkpt lat="49.36963" lon="5.179">
        <ele>131</ele>
        <time>2026-08-06T15:35:18.327Z</time>
      </trkpt>
      <trkpt lat="49.36981" lon="5.17897">
        <ele>130.63</ele>
        <time>2026-08-06T15:35:24.320Z</time>
      </trkpt>
      <trkpt lat="49.36994" lon="5.17893">
        <ele>130.64</ele>
        <time>2026-08-06T15:35:30.390Z</time>
      </trkpt>
      <trkpt lat="49.3701" lon="5.17887">
        <ele>132.56</ele>
        <time>2026-08-06T15:35:35.414Z</time>
      </trkpt>
      <trkpt lat="49.37032" lon="5.17879">
        <ele>133.02</ele>
        <time>2026-08-06T15:35:41.395Z</time>
      </trkpt>
      <trkpt lat="49.37055" lon="5.17867">
        <ele>129.09</ele>
        <time>2026-08-06T15:35:47.321Z</time>
      </trkpt>
      <trkpt lat="49.37076" lon="5.17862">
        <ele>127.87</ele>
        <time>2026-08-06T15:35:52.426Z</time>
      </trkpt>
      <trkpt lat="49.37097" lon="5.1785">
        <ele>129.12</ele>
        <time>2026-08-06T15:35:58.335Z</time>
      </trkpt>
      <trkpt lat="49.37113" lon="5.17843">
        <ele>128.82</ele>
        <time>2026-08-06T15:36:03.376Z</time>
      </trkpt>
      <trkpt lat="49.37131" lon="5.17836">
        <ele>127.62</ele>
        <time>2026-08-06T15:36:08.384Z</time>
      </trkpt>
      <trkpt lat="49.37157" lon="5.17823">
        <ele>125.03</ele>
        <time>2026-08-06T15:36:14.373Z</time>
      </trkpt>
      <trkpt lat="49.37185" lon="5.17809">
        <ele>125.58</ele>
        <time>2026-08-06T15:36:20.372Z</time>
      </trkpt>
      <trkpt lat="49.37216" lon="5.17797">
        <ele>126.8</ele>
        <time>2026-08-06T15:36:26.379Z</time>
      </trkpt>
      <trkpt lat="49.37245" lon="5.17782">
        <ele>128.49</ele>
        <time>2026-08-06T15:36:32.386Z</time>
      </trkpt>
      <trkpt lat="49.37269" lon="5.17771">
        <ele>130.05</ele>
        <time>2026-08-06T15:36:38.385Z</time>
      </trkpt>
      <trkpt lat="49.37288" lon="5.17767">
        <ele>128.88</ele>
        <time>2026-08-06T15:36:44.371Z</time>
      </trkpt>
      <trkpt lat="49.37311" lon="5.17755">
        <ele>128.79</ele>
        <time>2026-08-06T15:36:50.375Z</time>
      </trkpt>
      <trkpt lat="49.37337" lon="5.17742">
        <ele>129.47</ele>
        <time>2026-08-06T15:36:56.383Z</time>
      </trkpt>
      <trkpt lat="49.37362" lon="5.17728">
        <ele>130.44</ele>
        <time>2026-08-06T15:37:02.378Z</time>
      </trkpt>
      <trkpt lat="49.37387" lon="5.17711">
        <ele>130.2</ele>
        <time>2026-08-06T15:37:08.379Z</time>
      </trkpt>
      <trkpt lat="49.37407" lon="5.17695">
        <ele>130.09</ele>
        <time>2026-08-06T15:37:14.368Z</time>
      </trkpt>
      <trkpt lat="49.37429" lon="5.17677">
        <ele>128.21</ele>
        <time>2026-08-06T15:37:20.373Z</time>
      </trkpt>
      <trkpt lat="49.37448" lon="5.17661">
        <ele>128.31</ele>
        <time>2026-08-06T15:37:26.378Z</time>
      </trkpt>
      <trkpt lat="49.3747" lon="5.17635">
        <ele>129.28</ele>
        <time>2026-08-06T15:37:32.388Z</time>
      </trkpt>
      <trkpt lat="49.37486" lon="5.17611">
        <ele>129.93</ele>
        <time>2026-08-06T15:37:38.381Z</time>
      </trkpt>
      <trkpt lat="49.37502" lon="5.17581">
        <ele>130.75</ele>
        <time>2026-08-06T15:37:44.380Z</time>
      </trkpt>
      <trkpt lat="49.37515" lon="5.17553">
        <ele>131.23</ele>
        <time>2026-08-06T15:37:50.391Z</time>
      </trkpt>
      <trkpt lat="49.37527" lon="5.17523">
        <ele>131.33</ele>
        <time>2026-08-06T15:37:56.401Z</time>
      </trkpt>
      <trkpt lat="49.37538" lon="5.17493">
        <ele>130.71</ele>
        <time>2026-08-06T15:38:02.395Z</time>
      </trkpt>
      <trkpt lat="49.3755" lon="5.17462">
        <ele>130.92</ele>
        <time>2026-08-06T15:38:08.381Z</time>
      </trkpt>
      <trkpt lat="49.37564" lon="5.1743">
        <ele>132.58</ele>
        <time>2026-08-06T15:38:14.393Z</time>
      </trkpt>
      <trkpt lat="49.37578" lon="5.17399">
        <ele>135.19</ele>
        <time>2026-08-06T15:38:20.385Z</time>
      </trkpt>
      <trkpt lat="49.37592" lon="5.17374">
        <ele>135.13</ele>
        <time>2026-08-06T15:38:26.383Z</time>
      </trkpt>
      <trkpt lat="49.37605" lon="5.17347">
        <ele>136.53</ele>
        <time>2026-08-06T15:38:32.389Z</time>
      </trkpt>
      <trkpt lat="49.37618" lon="5.17322">
        <ele>136.71</ele>
        <time>2026-08-06T15:38:38.381Z</time>
      </trkpt>
      <trkpt lat="49.37633" lon="5.17298">
        <ele>135.98</ele>
        <time>2026-08-06T15:38:44.377Z</time>
      </trkpt>
      <trkpt lat="49.37649" lon="5.17276">
        <ele>135.91</ele>
        <time>2026-08-06T15:38:50.381Z</time>
      </trkpt>
      <trkpt lat="49.37665" lon="5.17256">
        <ele>136.09</ele>
        <time>2026-08-06T15:38:56.397Z</time>
      </trkpt>
      <trkpt lat="49.37682" lon="5.17237">
        <ele>135.55</ele>
        <time>2026-08-06T15:39:02.394Z</time>
      </trkpt>
      <trkpt lat="49.37699" lon="5.17222">
        <ele>135.79</ele>
        <time>2026-08-06T15:39:08.382Z</time>
      </trkpt>
      <trkpt lat="49.37719" lon="5.17202">
        <ele>137.01</ele>
        <time>2026-08-06T15:39:14.382Z</time>
      </trkpt>
      <trkpt lat="49.37736" lon="5.17186">
        <ele>138.77</ele>
        <time>2026-08-06T15:39:20.383Z</time>
      </trkpt>
      <trkpt lat="49.37755" lon="5.17169">
        <ele>139.4</ele>
        <time>2026-08-06T15:39:26.390Z</time>
      </trkpt>
      <trkpt lat="49.37773" lon="5.17154">
        <ele>138.6</ele>
        <time>2026-08-06T15:39:32.398Z</time>
      </trkpt>
      <trkpt lat="49.37788" lon="5.17139">
        <ele>137.83</ele>
        <time>2026-08-06T15:39:38.374Z</time>
      </trkpt>
      <trkpt lat="49.37809" lon="5.1712">
        <ele>136.65</ele>
        <time>2026-08-06T15:39:44.381Z</time>
      </trkpt>
      <trkpt lat="49.37833" lon="5.17095">
        <ele>135.1</ele>
        <time>2026-08-06T15:39:50.382Z</time>
      </trkpt>
      <trkpt lat="49.3786" lon="5.1707">
        <ele>134.31</ele>
        <time>2026-08-06T15:39:56.394Z</time>
      </trkpt>
      <trkpt lat="49.37888" lon="5.17045">
        <ele>132.96</ele>
        <time>2026-08-06T15:40:02.391Z</time>
      </trkpt>
      <trkpt lat="49.37913" lon="5.1702">
        <ele>132.53</ele>
        <time>2026-08-06T15:40:08.382Z</time>
      </trkpt>
      <trkpt lat="49.37936" lon="5.16999">
        <ele>131.93</ele>
        <time>2026-08-06T15:40:14.387Z</time>
      </trkpt>
      <trkpt lat="49.37957" lon="5.1698">
        <ele>131.27</ele>
        <time>2026-08-06T15:40:20.386Z</time>
      </trkpt>
      <trkpt lat="49.37977" lon="5.16963">
        <ele>132.56</ele>
        <time>2026-08-06T15:40:26.396Z</time>
      </trkpt>
      <trkpt lat="49.37998" lon="5.16946">
        <ele>135.12</ele>
        <time>2026-08-06T15:40:32.415Z</time>
      </trkpt>
      <trkpt lat="49.38015" lon="5.16929">
        <ele>134.8</ele>
        <time>2026-08-06T15:40:38.389Z</time>
      </trkpt>
      <trkpt lat="49.38036" lon="5.16915">
        <ele>180.62</ele>
        <time>2026-08-06T15:40:44.390Z</time>
      </trkpt>
      <trkpt lat="49.38056" lon="5.16904">
        <ele>180.8</ele>
        <time>2026-08-06T15:40:50.383Z</time>
      </trkpt>
      <trkpt lat="49.38072" lon="5.1689">
        <ele>180.8</ele>
        <time>2026-08-06T15:40:56.393Z</time>
      </trkpt>
      <trkpt lat="49.38072" lon="5.16865">
        <ele>181.4</ele>
        <time>2026-08-06T15:41:02.392Z</time>
      </trkpt>
      <trkpt lat="49.38062" lon="5.16849">
        <ele>181.4</ele>
        <time>2026-08-06T15:41:08.376Z</time>
      </trkpt>
      <trkpt lat="49.38052" lon="5.16831">
        <ele>181.4</ele>
        <time>2026-08-06T15:41:14.388Z</time>
      </trkpt>
      <trkpt lat="49.38042" lon="5.16813">
        <ele>182.29</ele>
        <time>2026-08-06T15:41:20.384Z</time>
      </trkpt>
      <trkpt lat="49.38031" lon="5.16792">
        <ele>182.3</ele>
        <time>2026-08-06T15:41:26.403Z</time>
      </trkpt>
      <trkpt lat="49.3802" lon="5.16772">
        <ele>182.3</ele>
        <time>2026-08-06T15:41:32.399Z</time>
      </trkpt>
      <trkpt lat="49.38013" lon="5.16761">
        <ele>183.2</ele>
        <time>2026-08-06T15:42:32.388Z</time>
      </trkpt>
      <trkpt lat="49.38002" lon="5.16742">
        <ele>183.2</ele>
        <time>2026-08-06T15:42:38.385Z</time>
      </trkpt>
      <trkpt lat="49.37992" lon="5.16718">
        <ele>183.9</ele>
        <time>2026-08-06T15:42:44.383Z</time>
      </trkpt>
      <trkpt lat="49.37978" lon="5.16696">
        <ele>183.9</ele>
        <time>2026-08-06T15:42:50.392Z</time>
      </trkpt>
      <trkpt lat="49.37966" lon="5.16673">
        <ele>183.91</ele>
        <time>2026-08-06T15:42:56.420Z</time>
      </trkpt>
      <trkpt lat="49.37952" lon="5.16654">
        <ele>184.8</ele>
        <time>2026-08-06T15:43:02.395Z</time>
      </trkpt>
      <trkpt lat="49.3794" lon="5.16635">
        <ele>184.81</ele>
        <time>2026-08-06T15:43:08.384Z</time>
      </trkpt>
      <trkpt lat="49.3792" lon="5.16623">
        <ele>186.4</ele>
        <time>2026-08-06T15:43:14.411Z</time>
      </trkpt>
      <trkpt lat="49.37906" lon="5.16602">
        <ele>186.41</ele>
        <time>2026-08-06T15:43:20.386Z</time>
      </trkpt>
      <trkpt lat="49.37894" lon="5.16589">
        <ele>187.61</ele>
        <time>2026-08-06T15:43:26.401Z</time>
      </trkpt>
      <trkpt lat="49.37882" lon="5.16571">
        <ele>187.61</ele>
        <time>2026-08-06T15:43:32.414Z</time>
      </trkpt>
      <trkpt lat="49.37869" lon="5.16553">
        <ele>188.81</ele>
        <time>2026-08-06T15:43:38.388Z</time>
      </trkpt>
      <trkpt lat="49.37857" lon="5.16534">
        <ele>188.81</ele>
        <time>2026-08-06T15:43:44.412Z</time>
      </trkpt>
      <trkpt lat="49.37842" lon="5.16512">
        <ele>189.51</ele>
        <time>2026-08-06T15:43:50.390Z</time>
      </trkpt>
      <trkpt lat="49.37826" lon="5.16482">
        <ele>189.51</ele>
        <time>2026-08-06T15:43:56.399Z</time>
      </trkpt>
      <trkpt lat="49.37813" lon="5.16464">
        <ele>188.91</ele>
        <time>2026-08-06T15:44:02.406Z</time>
      </trkpt>
      <trkpt lat="49.378" lon="5.16438">
        <ele>188.91</ele>
        <time>2026-08-06T15:44:08.401Z</time>
      </trkpt>
      <trkpt lat="49.37787" lon="5.16414">
        <ele>189.41</ele>
        <time>2026-08-06T15:44:14.395Z</time>
      </trkpt>
      <trkpt lat="49.37774" lon="5.16391">
        <ele>189.41</ele>
        <time>2026-08-06T15:44:20.399Z</time>
      </trkpt>
      <trkpt lat="49.37763" lon="5.16367">
        <ele>190.61</ele>
        <time>2026-08-06T15:44:26.399Z</time>
      </trkpt>
      <trkpt lat="49.37759" lon="5.1634">
        <ele>190.61</ele>
        <time>2026-08-06T15:44:32.424Z</time>
      </trkpt>
      <trkpt lat="49.37759" lon="5.16301">
        <ele>190.61</ele>
        <time>2026-08-06T15:44:38.404Z</time>
      </trkpt>
      <trkpt lat="49.37759" lon="5.16256">
        <ele>190.61</ele>
        <time>2026-08-06T15:44:44.387Z</time>
      </trkpt>
      <trkpt lat="49.37761" lon="5.16206">
        <ele>190.61</ele>
        <time>2026-08-06T15:44:50.397Z</time>
      </trkpt>
      <trkpt lat="49.37767" lon="5.1616">
        <ele>190.61</ele>
        <time>2026-08-06T15:44:56.413Z</time>
      </trkpt>
      <trkpt lat="49.37776" lon="5.1612">
        <ele>190.61</ele>
        <time>2026-08-06T15:45:02.398Z</time>
      </trkpt>
      <trkpt lat="49.37779" lon="5.16086">
        <ele>190.62</ele>
        <time>2026-08-06T15:45:08.386Z</time>
      </trkpt>
      <trkpt lat="49.37782" lon="5.16061">
        <ele>190.62</ele>
        <time>2026-08-06T15:45:14.400Z</time>
      </trkpt>
      <trkpt lat="49.37785" lon="5.16045">
        <ele>190.62</ele>
        <time>2026-08-06T15:45:20.386Z</time>
      </trkpt>
      <trkpt lat="49.37785" lon="5.1606">
        <ele>189.82</ele>
        <time>2026-08-06T15:45:31.362Z</time>
      </trkpt>
      <trkpt lat="49.3778" lon="5.16075">
        <ele>189.82</ele>
        <time>2026-08-06T15:45:37.332Z</time>
      </trkpt>
      <trkpt lat="49.37779" lon="5.16091">
        <ele>189.82</ele>
        <time>2026-08-06T15:55:45.835Z</time>
      </trkpt>
      <trkpt lat="49.37773" lon="5.16119">
        <ele>189.81</ele>
        <time>2026-08-06T15:55:51.326Z</time>
      </trkpt>
      <trkpt lat="49.37767" lon="5.16148">
        <ele>189.81</ele>
        <time>2026-08-06T15:55:56.390Z</time>
      </trkpt>
      <trkpt lat="49.37761" lon="5.16189">
        <ele>189.81</ele>
        <time>2026-08-06T15:56:02.383Z</time>
      </trkpt>
      <trkpt lat="49.37758" lon="5.16223">
        <ele>189.81</ele>
        <time>2026-08-06T15:56:08.384Z</time>
      </trkpt>
      <trkpt lat="49.37758" lon="5.16251">
        <ele>189.81</ele>
        <time>2026-08-06T15:56:14.378Z</time>
      </trkpt>
      <trkpt lat="49.37757" lon="5.16279">
        <ele>189.81</ele>
        <time>2026-08-06T15:56:20.382Z</time>
      </trkpt>
      <trkpt lat="49.37756" lon="5.16305">
        <ele>189.81</ele>
        <time>2026-08-06T15:56:26.392Z</time>
      </trkpt>
      <trkpt lat="49.37755" lon="5.16329">
        <ele>189.81</ele>
        <time>2026-08-06T15:56:32.377Z</time>
      </trkpt>
      <trkpt lat="49.37755" lon="5.16351">
        <ele>189.81</ele>
        <time>2026-08-06T15:56:38.382Z</time>
      </trkpt>
      <trkpt lat="49.37756" lon="5.16364">
        <ele>189.81</ele>
        <time>2026-08-06T15:56:49.326Z</time>
      </trkpt>
      <trkpt lat="49.37763" lon="5.16384">
        <ele>189.81</ele>
        <time>2026-08-06T15:56:54.331Z</time>
      </trkpt>
      <trkpt lat="49.37777" lon="5.16405">
        <ele>189.81</ele>
        <time>2026-08-06T15:57:00.327Z</time>
      </trkpt>
      <trkpt lat="49.37791" lon="5.16429">
        <ele>137.87</ele>
        <time>2026-08-06T15:57:05.334Z</time>
      </trkpt>
      <trkpt lat="49.37806" lon="5.16457">
        <ele>135.59</ele>
        <time>2026-08-06T15:57:10.334Z</time>
      </trkpt>
      <trkpt lat="49.37829" lon="5.16496">
        <ele>134.88</ele>
        <time>2026-08-06T15:57:16.329Z</time>
      </trkpt>
      <trkpt lat="49.37851" lon="5.16534">
        <ele>135.98</ele>
        <time>2026-08-06T15:57:22.327Z</time>
      </trkpt>
      <trkpt lat="49.37868" lon="5.16557">
        <ele>138.59</ele>
        <time>2026-08-06T15:57:27.328Z</time>
      </trkpt>
      <trkpt lat="49.37886" lon="5.16583">
        <ele>138.18</ele>
        <time>2026-08-06T15:57:32.385Z</time>
      </trkpt>
      <trkpt lat="49.37911" lon="5.16616">
        <ele>136.54</ele>
        <time>2026-08-06T15:57:38.384Z</time>
      </trkpt>
      <trkpt lat="49.3794" lon="5.16648">
        <ele>136.74</ele>
        <time>2026-08-06T15:57:44.382Z</time>
      </trkpt>
      <trkpt lat="49.37966" lon="5.16687">
        <ele>136.63</ele>
        <time>2026-08-06T15:57:50.382Z</time>
      </trkpt>
      <trkpt lat="49.37989" lon="5.16728">
        <ele>136.42</ele>
        <time>2026-08-06T15:57:56.394Z</time>
      </trkpt>
      <trkpt lat="49.38012" lon="5.16769">
        <ele>134.91</ele>
        <time>2026-08-06T15:58:02.386Z</time>
      </trkpt>
      <trkpt lat="49.38037" lon="5.16815">
        <ele>135.03</ele>
        <time>2026-08-06T15:58:08.379Z</time>
      </trkpt>
      <trkpt lat="49.38064" lon="5.16862">
        <ele>136.08</ele>
        <time>2026-08-06T15:58:14.380Z</time>
      </trkpt>
      <trkpt lat="49.38087" lon="5.16905">
        <ele>135</ele>
        <time>2026-08-06T15:58:20.380Z</time>
      </trkpt>
      <trkpt lat="49.38116" lon="5.16928">
        <ele>133.76</ele>
        <time>2026-08-06T15:58:26.387Z</time>
      </trkpt>
      <trkpt lat="49.38144" lon="5.16914">
        <ele>134.29</ele>
        <time>2026-08-06T15:58:32.387Z</time>
      </trkpt>
      <trkpt lat="49.38166" lon="5.16896">
        <ele>134.42</ele>
        <time>2026-08-06T15:58:38.379Z</time>
      </trkpt>
      <trkpt lat="49.3819" lon="5.16875">
        <ele>133.59</ele>
        <time>2026-08-06T15:58:44.385Z</time>
      </trkpt>
      <trkpt lat="49.38211" lon="5.16857">
        <ele>132.32</ele>
        <time>2026-08-06T15:58:50.381Z</time>
      </trkpt>
      <trkpt lat="49.38234" lon="5.16837">
        <ele>132.5</ele>
        <time>2026-08-06T15:58:56.390Z</time>
      </trkpt>
      <trkpt lat="49.38258" lon="5.16816">
        <ele>131.87</ele>
        <time>2026-08-06T15:59:02.385Z</time>
      </trkpt>
      <trkpt lat="49.38284" lon="5.16794">
        <ele>132.06</ele>
        <time>2026-08-06T15:59:08.383Z</time>
      </trkpt>
      <trkpt lat="49.38312" lon="5.16772">
        <ele>132.3</ele>
        <time>2026-08-06T15:59:14.387Z</time>
      </trkpt>
      <trkpt lat="49.38345" lon="5.1675">
        <ele>131.65</ele>
        <time>2026-08-06T15:59:20.380Z</time>
      </trkpt>
      <trkpt lat="49.38385" lon="5.16729">
        <ele>130.52</ele>
        <time>2026-08-06T15:59:26.395Z</time>
      </trkpt>
      <trkpt lat="49.38424" lon="5.16712">
        <ele>129.96</ele>
        <time>2026-08-06T15:59:32.387Z</time>
      </trkpt>
      <trkpt lat="49.38463" lon="5.16703">
        <ele>128.33</ele>
        <time>2026-08-06T15:59:38.329Z</time>
      </trkpt>
      <trkpt lat="49.385" lon="5.16697">
        <ele>126.7</ele>
        <time>2026-08-06T15:59:44.327Z</time>
      </trkpt>
      <trkpt lat="49.38531" lon="5.16697">
        <ele>126.39</ele>
        <time>2026-08-06T15:59:49.327Z</time>
      </trkpt>
      <trkpt lat="49.38565" lon="5.16711">
        <ele>126.55</ele>
        <time>2026-08-06T15:59:55.333Z</time>
      </trkpt>
      <trkpt lat="49.38596" lon="5.16726">
        <ele>126.97</ele>
        <time>2026-08-06T16:00:01.333Z</time>
      </trkpt>
      <trkpt lat="49.38624" lon="5.16732">
        <ele>127.81</ele>
        <time>2026-08-06T16:00:07.329Z</time>
      </trkpt>
      <trkpt lat="49.38642" lon="5.16731">
        <ele>125.84</ele>
        <time>2026-08-06T16:00:13.326Z</time>
      </trkpt>
      <trkpt lat="49.38644" lon="5.16748">
        <ele>122.43</ele>
        <time>2026-08-06T16:00:24.321Z</time>
      </trkpt>
      <trkpt lat="49.38655" lon="5.16781">
        <ele>122.39</ele>
        <time>2026-08-06T16:00:30.320Z</time>
      </trkpt>
      <trkpt lat="49.38664" lon="5.16806">
        <ele>122.3</ele>
        <time>2026-08-06T16:00:35.326Z</time>
      </trkpt>
      <trkpt lat="49.38678" lon="5.16841">
        <ele>124.19</ele>
        <time>2026-08-06T16:00:41.313Z</time>
      </trkpt>
      <trkpt lat="49.38689" lon="5.16868">
        <ele>125.58</ele>
        <time>2026-08-06T16:00:46.327Z</time>
      </trkpt>
      <trkpt lat="49.38702" lon="5.16903">
        <ele>125.74</ele>
        <time>2026-08-06T16:00:52.320Z</time>
      </trkpt>
      <trkpt lat="49.38713" lon="5.16929">
        <ele>125.09</ele>
        <time>2026-08-06T16:00:57.326Z</time>
      </trkpt>
      <trkpt lat="49.3872" lon="5.16945">
        <ele>124.31</ele>
        <time>2026-08-06T16:01:02.381Z</time>
      </trkpt>
      <trkpt lat="49.38728" lon="5.16954">
        <ele>124.72</ele>
        <time>2026-08-06T16:01:10.330Z</time>
      </trkpt>
      <trkpt lat="49.3874" lon="5.1697">
        <ele>123.06</ele>
        <time>2026-08-06T16:01:16.319Z</time>
      </trkpt>
      <trkpt lat="49.38755" lon="5.16989">
        <ele>121.14</ele>
        <time>2026-08-06T16:01:22.328Z</time>
      </trkpt>
      <trkpt lat="49.38765" lon="5.16999">
        <ele>120.18</ele>
        <time>2026-08-06T16:01:27.330Z</time>
      </trkpt>
      <trkpt lat="49.38772" lon="5.17008">
        <ele>120.9</ele>
        <time>2026-08-06T16:01:53.320Z</time>
      </trkpt>
      <trkpt lat="49.38783" lon="5.1702">
        <ele>121.56</ele>
        <time>2026-08-06T16:01:59.313Z</time>
      </trkpt>
      <trkpt lat="49.38795" lon="5.17034">
        <ele>122.6</ele>
        <time>2026-08-06T16:02:04.315Z</time>
      </trkpt>
      <trkpt lat="49.3881" lon="5.17047">
        <ele>124.2</ele>
        <time>2026-08-06T16:02:09.320Z</time>
      </trkpt>
      <trkpt lat="49.38827" lon="5.17054">
        <ele>126.11</ele>
        <time>2026-08-06T16:02:14.330Z</time>
      </trkpt>
      <trkpt lat="49.38845" lon="5.1706">
        <ele>127.47</ele>
        <time>2026-08-06T16:02:20.333Z</time>
      </trkpt>
      <trkpt lat="49.38862" lon="5.17062">
        <ele>128.15</ele>
        <time>2026-08-06T16:02:26.381Z</time>
      </trkpt>
      <trkpt lat="49.38881" lon="5.17061">
        <ele>127.83</ele>
        <time>2026-08-06T16:02:32.372Z</time>
      </trkpt>
      <trkpt lat="49.38898" lon="5.17064">
        <ele>127.68</ele>
        <time>2026-08-06T16:02:38.334Z</time>
      </trkpt>
      <trkpt lat="49.38914" lon="5.17069">
        <ele>126.55</ele>
        <time>2026-08-06T16:02:44.331Z</time>
      </trkpt>
      <trkpt lat="49.3893" lon="5.17076">
        <ele>127.31</ele>
        <time>2026-08-06T16:02:50.344Z</time>
      </trkpt>
      <trkpt lat="49.3894" lon="5.1708">
        <ele>127.2</ele>
        <time>2026-08-06T16:02:56.389Z</time>
      </trkpt>
      <trkpt lat="49.38948" lon="5.17087">
        <ele>125.76</ele>
        <time>2026-08-06T16:06:55.324Z</time>
      </trkpt>
      <trkpt lat="49.38953" lon="5.17107">
        <ele>125.55</ele>
        <time>2026-08-06T16:07:14.376Z</time>
      </trkpt>
      <trkpt lat="49.38963" lon="5.17118">
        <ele>125.72</ele>
        <time>2026-08-06T16:07:20.371Z</time>
      </trkpt>
      <trkpt lat="49.38973" lon="5.17115">
        <ele>126.45</ele>
        <time>2026-08-06T16:07:26.390Z</time>
      </trkpt>
      <trkpt lat="49.38979" lon="5.17128">
        <ele>125.85</ele>
        <time>2026-08-06T16:07:32.396Z</time>
      </trkpt>
      <trkpt lat="49.38985" lon="5.17153">
        <ele>125.29</ele>
        <time>2026-08-06T16:07:38.381Z</time>
      </trkpt>
      <trkpt lat="49.38994" lon="5.17163">
        <ele>123.92</ele>
        <time>2026-08-06T16:07:44.377Z</time>
      </trkpt>
      <trkpt lat="49.39003" lon="5.1717">
        <ele>123.42</ele>
        <time>2026-08-06T16:07:51.334Z</time>
      </trkpt>
      <trkpt lat="49.39004" lon="5.17154">
        <ele>152.83</ele>
        <time>2026-08-07T06:04:53.481Z</time>
      </trkpt>
      <trkpt lat="49.38995" lon="5.17154">
        <ele>151.05</ele>
        <time>2026-08-07T06:05:08.789Z</time>
      </trkpt>
      <trkpt lat="49.38987" lon="5.17145">
        <ele>151.29</ele>
        <time>2026-08-07T06:05:13.821Z</time>
      </trkpt>
      <trkpt lat="49.38983" lon="5.1713">
        <ele>150.15</ele>
        <time>2026-08-07T06:05:19.247Z</time>
      </trkpt>
      <trkpt lat="49.38982" lon="5.17116">
        <ele>145.46</ele>
        <time>2026-08-07T06:05:24.431Z</time>
      </trkpt>
      <trkpt lat="49.38972" lon="5.17114">
        <ele>141.85</ele>
        <time>2026-08-07T06:05:34.426Z</time>
      </trkpt>
      <trkpt lat="49.38959" lon="5.17119">
        <ele>132.67</ele>
        <time>2026-08-07T06:05:40.002Z</time>
      </trkpt>
      <trkpt lat="49.38953" lon="5.17101">
        <ele>126.47</ele>
        <time>2026-08-07T06:05:45.025Z</time>
      </trkpt>
      <trkpt lat="49.38949" lon="5.17085">
        <ele>119.97</ele>
        <time>2026-08-07T06:05:50.461Z</time>
      </trkpt>
      <trkpt lat="49.38931" lon="5.17077">
        <ele>119.28</ele>
        <time>2026-08-07T06:05:55.926Z</time>
      </trkpt>
      <trkpt lat="49.38913" lon="5.1707">
        <ele>116.21</ele>
        <time>2026-08-07T06:06:01.479Z</time>
      </trkpt>
      <trkpt lat="49.38895" lon="5.17061">
        <ele>114.9</ele>
        <time>2026-08-07T06:06:07.089Z</time>
      </trkpt>
      <trkpt lat="49.38878" lon="5.17059">
        <ele>109.15</ele>
        <time>2026-08-07T06:06:12.457Z</time>
      </trkpt>
      <trkpt lat="49.38864" lon="5.17062">
        <ele>110.8</ele>
        <time>2026-08-07T06:06:17.466Z</time>
      </trkpt>
      <trkpt lat="49.38849" lon="5.17058">
        <ele>113.19</ele>
        <time>2026-08-07T06:06:23.345Z</time>
      </trkpt>
      <trkpt lat="49.38833" lon="5.1705">
        <ele>115.51</ele>
        <time>2026-08-07T06:06:29.023Z</time>
      </trkpt>
      <trkpt lat="49.38818" lon="5.17045">
        <ele>118.74</ele>
        <time>2026-08-07T06:06:34.462Z</time>
      </trkpt>
      <trkpt lat="49.38803" lon="5.17037">
        <ele>118.89</ele>
        <time>2026-08-07T06:06:40.226Z</time>
      </trkpt>
      <trkpt lat="49.38791" lon="5.17023">
        <ele>117.76</ele>
        <time>2026-08-07T06:06:45.460Z</time>
      </trkpt>
      <trkpt lat="49.38779" lon="5.17009">
        <ele>118.35</ele>
        <time>2026-08-07T06:06:50.470Z</time>
      </trkpt>
      <trkpt lat="49.38765" lon="5.16993">
        <ele>117.57</ele>
        <time>2026-08-07T06:06:56.461Z</time>
      </trkpt>
      <trkpt lat="49.38749" lon="5.16976">
        <ele>120.29</ele>
        <time>2026-08-07T06:07:02.461Z</time>
      </trkpt>
      <trkpt lat="49.38734" lon="5.16957">
        <ele>121.76</ele>
        <time>2026-08-07T06:07:08.478Z</time>
      </trkpt>
      <trkpt lat="49.3872" lon="5.16937">
        <ele>121.68</ele>
        <time>2026-08-07T06:07:14.482Z</time>
      </trkpt>
      <trkpt lat="49.38709" lon="5.16907">
        <ele>120.42</ele>
        <time>2026-08-07T06:07:20.475Z</time>
      </trkpt>
      <trkpt lat="49.38697" lon="5.16879">
        <ele>120.32</ele>
        <time>2026-08-07T06:07:26.467Z</time>
      </trkpt>
      <trkpt lat="49.38684" lon="5.1685">
        <ele>121.72</ele>
        <time>2026-08-07T06:07:32.460Z</time>
      </trkpt>
      <trkpt lat="49.38675" lon="5.16825">
        <ele>123.01</ele>
        <time>2026-08-07T06:07:37.461Z</time>
      </trkpt>
      <trkpt lat="49.38665" lon="5.16801">
        <ele>123.58</ele>
        <time>2026-08-07T06:07:42.466Z</time>
      </trkpt>
      <trkpt lat="49.38655" lon="5.16775">
        <ele>123.53</ele>
        <time>2026-08-07T06:07:48.463Z</time>
      </trkpt>
      <trkpt lat="49.38646" lon="5.16751">
        <ele>123.71</ele>
        <time>2026-08-07T06:07:53.469Z</time>
      </trkpt>
      <trkpt lat="49.38644" lon="5.16725">
        <ele>124.14</ele>
        <time>2026-08-07T06:07:59.464Z</time>
      </trkpt>
      <trkpt lat="49.38654" lon="5.16723">
        <ele>124.19</ele>
        <time>2026-08-07T06:08:05.466Z</time>
      </trkpt>
      <trkpt lat="49.38671" lon="5.16717">
        <ele>123.67</ele>
        <time>2026-08-07T06:08:11.460Z</time>
      </trkpt>
      <trkpt lat="49.38687" lon="5.16711">
        <ele>123.64</ele>
        <time>2026-08-07T06:08:16.464Z</time>
      </trkpt>
      <trkpt lat="49.38705" lon="5.16706">
        <ele>124.02</ele>
        <time>2026-08-07T06:08:22.457Z</time>
      </trkpt>
      <trkpt lat="49.38719" lon="5.167">
        <ele>124.36</ele>
        <time>2026-08-07T06:08:27.467Z</time>
      </trkpt>
      <trkpt lat="49.38734" lon="5.16695">
        <ele>125.42</ele>
        <time>2026-08-07T06:08:33.465Z</time>
      </trkpt>
      <trkpt lat="49.38747" lon="5.16692">
        <ele>126.02</ele>
        <time>2026-08-07T06:08:38.502Z</time>
      </trkpt>
      <trkpt lat="49.38761" lon="5.16691">
        <ele>127.96</ele>
        <time>2026-08-07T06:08:44.500Z</time>
      </trkpt>
      <trkpt lat="49.38776" lon="5.16691">
        <ele>127.78</ele>
        <time>2026-08-07T06:08:50.491Z</time>
      </trkpt>
      <trkpt lat="49.38791" lon="5.16693">
        <ele>128.93</ele>
        <time>2026-08-07T06:08:56.455Z</time>
      </trkpt>
      <trkpt lat="49.38805" lon="5.16695">
        <ele>128.43</ele>
        <time>2026-08-07T06:09:02.442Z</time>
      </trkpt>
      <trkpt lat="49.38817" lon="5.16696">
        <ele>128.43</ele>
        <time>2026-08-07T06:09:07.446Z</time>
      </trkpt>
      <trkpt lat="49.38833" lon="5.16695">
        <ele>129.31</ele>
        <time>2026-08-07T06:09:12.463Z</time>
      </trkpt>
      <trkpt lat="49.38852" lon="5.16692">
        <ele>129.66</ele>
        <time>2026-08-07T06:09:17.466Z</time>
      </trkpt>
      <trkpt lat="49.38881" lon="5.16685">
        <ele>129.27</ele>
        <time>2026-08-07T06:09:23.462Z</time>
      </trkpt>
      <trkpt lat="49.38917" lon="5.16677">
        <ele>127.48</ele>
        <time>2026-08-07T06:09:29.461Z</time>
      </trkpt>
      <trkpt lat="49.38951" lon="5.16674">
        <ele>126.43</ele>
        <time>2026-08-07T06:09:34.464Z</time>
      </trkpt>
      <trkpt lat="49.38991" lon="5.16674">
        <ele>124.11</ele>
        <time>2026-08-07T06:09:40.466Z</time>
      </trkpt>
      <trkpt lat="49.39031" lon="5.16675">
        <ele>124.09</ele>
        <time>2026-08-07T06:09:46.466Z</time>
      </trkpt>
      <trkpt lat="49.39062" lon="5.16677">
        <ele>123.71</ele>
        <time>2026-08-07T06:09:51.467Z</time>
      </trkpt>
      <trkpt lat="49.39092" lon="5.1668">
        <ele>123.37</ele>
        <time>2026-08-07T06:09:56.518Z</time>
      </trkpt>
      <trkpt lat="49.39124" lon="5.16681">
        <ele>123.97</ele>
        <time>2026-08-07T06:10:02.460Z</time>
      </trkpt>
      <trkpt lat="49.39149" lon="5.16683">
        <ele>123.42</ele>
        <time>2026-08-07T06:10:07.466Z</time>
      </trkpt>
      <trkpt lat="49.39174" lon="5.16685">
        <ele>123.06</ele>
        <time>2026-08-07T06:10:13.459Z</time>
      </trkpt>
      <trkpt lat="49.39192" lon="5.16686">
        <ele>124.04</ele>
        <time>2026-08-07T06:10:19.460Z</time>
      </trkpt>
      <trkpt lat="49.39204" lon="5.16687">
        <ele>124.36</ele>
        <time>2026-08-07T06:10:24.466Z</time>
      </trkpt>
      <trkpt lat="49.39216" lon="5.16682">
        <ele>124.93</ele>
        <time>2026-08-07T06:10:30.464Z</time>
      </trkpt>
      <trkpt lat="49.39228" lon="5.16684">
        <ele>125.23</ele>
        <time>2026-08-07T06:10:36.462Z</time>
      </trkpt>
      <trkpt lat="49.39235" lon="5.16693">
        <ele>124.81</ele>
        <time>2026-08-07T06:10:51.454Z</time>
      </trkpt>
      <trkpt lat="49.3925" lon="5.16706">
        <ele>125.98</ele>
        <time>2026-08-07T06:10:57.465Z</time>
      </trkpt>
      <trkpt lat="49.39265" lon="5.16721">
        <ele>127.95</ele>
        <time>2026-08-07T06:11:03.452Z</time>
      </trkpt>
      <trkpt lat="49.39277" lon="5.16739">
        <ele>128.25</ele>
        <time>2026-08-07T06:11:08.496Z</time>
      </trkpt>
      <trkpt lat="49.39287" lon="5.16764">
        <ele>129.07</ele>
        <time>2026-08-07T06:11:14.500Z</time>
      </trkpt>
      <trkpt lat="49.39295" lon="5.16794">
        <ele>130.3</ele>
        <time>2026-08-07T06:11:20.507Z</time>
      </trkpt>
      <trkpt lat="49.39301" lon="5.16826">
        <ele>130.7</ele>
        <time>2026-08-07T06:11:26.460Z</time>
      </trkpt>
      <trkpt lat="49.39307" lon="5.16861">
        <ele>130.96</ele>
        <time>2026-08-07T06:11:32.462Z</time>
      </trkpt>
      <trkpt lat="49.39314" lon="5.16899">
        <ele>129.83</ele>
        <time>2026-08-07T06:11:38.497Z</time>
      </trkpt>
      <trkpt lat="49.39321" lon="5.16937">
        <ele>129.98</ele>
        <time>2026-08-07T06:11:44.501Z</time>
      </trkpt>
      <trkpt lat="49.39328" lon="5.16974">
        <ele>129.24</ele>
        <time>2026-08-07T06:11:50.500Z</time>
      </trkpt>
      <trkpt lat="49.39332" lon="5.17007">
        <ele>128.05</ele>
        <time>2026-08-07T06:11:56.463Z</time>
      </trkpt>
      <trkpt lat="49.39344" lon="5.17044">
        <ele>128.64</ele>
        <time>2026-08-07T06:12:02.456Z</time>
      </trkpt>
      <trkpt lat="49.3936" lon="5.17079">
        <ele>129.27</ele>
        <time>2026-08-07T06:12:08.500Z</time>
      </trkpt>
      <trkpt lat="49.39377" lon="5.1711">
        <ele>129.02</ele>
        <time>2026-08-07T06:12:14.500Z</time>
      </trkpt>
      <trkpt lat="49.39397" lon="5.17138">
        <ele>129.42</ele>
        <time>2026-08-07T06:12:20.500Z</time>
      </trkpt>
      <trkpt lat="49.39418" lon="5.17165">
        <ele>129.46</ele>
        <time>2026-08-07T06:12:26.520Z</time>
      </trkpt>
      <trkpt lat="49.39437" lon="5.1719">
        <ele>130.25</ele>
        <time>2026-08-07T06:12:32.459Z</time>
      </trkpt>
      <trkpt lat="49.39453" lon="5.17211">
        <ele>130.48</ele>
        <time>2026-08-07T06:12:37.463Z</time>
      </trkpt>
      <trkpt lat="49.39474" lon="5.17237">
        <ele>130.64</ele>
        <time>2026-08-07T06:12:43.457Z</time>
      </trkpt>
      <trkpt lat="49.39491" lon="5.17258">
        <ele>131.22</ele>
        <time>2026-08-07T06:12:48.457Z</time>
      </trkpt>
      <trkpt lat="49.3951" lon="5.17283">
        <ele>132.8</ele>
        <time>2026-08-07T06:12:54.458Z</time>
      </trkpt>
      <trkpt lat="49.39527" lon="5.17311">
        <ele>133.41</ele>
        <time>2026-08-07T06:13:00.455Z</time>
      </trkpt>
      <trkpt lat="49.39541" lon="5.17334">
        <ele>134.07</ele>
        <time>2026-08-07T06:13:05.457Z</time>
      </trkpt>
      <trkpt lat="49.39557" lon="5.17364">
        <ele>134.17</ele>
        <time>2026-08-07T06:13:11.457Z</time>
      </trkpt>
      <trkpt lat="49.39573" lon="5.17396">
        <ele>134.75</ele>
        <time>2026-08-07T06:13:17.453Z</time>
      </trkpt>
      <trkpt lat="49.39587" lon="5.17423">
        <ele>134.95</ele>
        <time>2026-08-07T06:13:22.456Z</time>
      </trkpt>
      <trkpt lat="49.39601" lon="5.17451">
        <ele>134.6</ele>
        <time>2026-08-07T06:13:27.456Z</time>
      </trkpt>
      <trkpt lat="49.39615" lon="5.1748">
        <ele>134.22</ele>
        <time>2026-08-07T06:13:32.459Z</time>
      </trkpt>
      <trkpt lat="49.39633" lon="5.17514">
        <ele>134.03</ele>
        <time>2026-08-07T06:13:38.501Z</time>
      </trkpt>
      <trkpt lat="49.39651" lon="5.17548">
        <ele>133.14</ele>
        <time>2026-08-07T06:13:44.497Z</time>
      </trkpt>
      <trkpt lat="49.39669" lon="5.17583">
        <ele>131.91</ele>
        <time>2026-08-07T06:13:50.494Z</time>
      </trkpt>
      <trkpt lat="49.39689" lon="5.17625">
        <ele>131.41</ele>
        <time>2026-08-07T06:13:56.515Z</time>
      </trkpt>
      <trkpt lat="49.39712" lon="5.17672">
        <ele>131.31</ele>
        <time>2026-08-07T06:14:02.456Z</time>
      </trkpt>
      <trkpt lat="49.39732" lon="5.17714">
        <ele>130.32</ele>
        <time>2026-08-07T06:14:07.457Z</time>
      </trkpt>
      <trkpt lat="49.39757" lon="5.17767">
        <ele>129.15</ele>
        <time>2026-08-07T06:14:13.456Z</time>
      </trkpt>
      <trkpt lat="49.39779" lon="5.17808">
        <ele>129.01</ele>
        <time>2026-08-07T06:14:18.456Z</time>
      </trkpt>
      <trkpt lat="49.39803" lon="5.17857">
        <ele>128.83</ele>
        <time>2026-08-07T06:14:24.459Z</time>
      </trkpt>
      <trkpt lat="49.39825" lon="5.17901">
        <ele>128.78</ele>
        <time>2026-08-07T06:14:30.460Z</time>
      </trkpt>
      <trkpt lat="49.39845" lon="5.17942">
        <ele>127.69</ele>
        <time>2026-08-07T06:14:36.457Z</time>
      </trkpt>
      <trkpt lat="49.39867" lon="5.17983">
        <ele>127.84</ele>
        <time>2026-08-07T06:14:42.458Z</time>
      </trkpt>
      <trkpt lat="49.39889" lon="5.18026">
        <ele>126.94</ele>
        <time>2026-08-07T06:14:48.458Z</time>
      </trkpt>
      <trkpt lat="49.39912" lon="5.18068">
        <ele>125.58</ele>
        <time>2026-08-07T06:14:54.458Z</time>
      </trkpt>
      <trkpt lat="49.39935" lon="5.1811">
        <ele>125.84</ele>
        <time>2026-08-07T06:15:00.456Z</time>
      </trkpt>
      <trkpt lat="49.39958" lon="5.18154">
        <ele>127.25</ele>
        <time>2026-08-07T06:15:06.456Z</time>
      </trkpt>
      <trkpt lat="49.3998" lon="5.18195">
        <ele>127.01</ele>
        <time>2026-08-07T06:15:12.458Z</time>
      </trkpt>
      <trkpt lat="49.39998" lon="5.18232">
        <ele>126.82</ele>
        <time>2026-08-07T06:15:18.453Z</time>
      </trkpt>
      <trkpt lat="49.40013" lon="5.18263">
        <ele>126.77</ele>
        <time>2026-08-07T06:15:23.458Z</time>
      </trkpt>
      <trkpt lat="49.40032" lon="5.18303">
        <ele>126.62</ele>
        <time>2026-08-07T06:15:29.451Z</time>
      </trkpt>
      <trkpt lat="49.40048" lon="5.18336">
        <ele>125.93</ele>
        <time>2026-08-07T06:15:34.455Z</time>
      </trkpt>
      <trkpt lat="49.40063" lon="5.18369">
        <ele>125.56</ele>
        <time>2026-08-07T06:15:39.456Z</time>
      </trkpt>
      <trkpt lat="49.40078" lon="5.18399">
        <ele>125.16</ele>
        <time>2026-08-07T06:15:44.496Z</time>
      </trkpt>
      <trkpt lat="49.40097" lon="5.18435">
        <ele>125.49</ele>
        <time>2026-08-07T06:15:50.498Z</time>
      </trkpt>
      <trkpt lat="49.40115" lon="5.18473">
        <ele>126.06</ele>
        <time>2026-08-07T06:15:56.451Z</time>
      </trkpt>
      <trkpt lat="49.40132" lon="5.18503">
        <ele>126.13</ele>
        <time>2026-08-07T06:16:01.457Z</time>
      </trkpt>
      <trkpt lat="49.40148" lon="5.18535">
        <ele>126.18</ele>
        <time>2026-08-07T06:16:06.457Z</time>
      </trkpt>
      <trkpt lat="49.40166" lon="5.18564">
        <ele>126.09</ele>
        <time>2026-08-07T06:16:11.457Z</time>
      </trkpt>
      <trkpt lat="49.40184" lon="5.18593">
        <ele>125.78</ele>
        <time>2026-08-07T06:16:16.460Z</time>
      </trkpt>
      <trkpt lat="49.40205" lon="5.18626">
        <ele>124.99</ele>
        <time>2026-08-07T06:16:22.454Z</time>
      </trkpt>
      <trkpt lat="49.40223" lon="5.18654">
        <ele>124.93</ele>
        <time>2026-08-07T06:16:27.456Z</time>
      </trkpt>
      <trkpt lat="49.40246" lon="5.18684">
        <ele>125.5</ele>
        <time>2026-08-07T06:16:33.451Z</time>
      </trkpt>
      <trkpt lat="49.40265" lon="5.18709">
        <ele>126.13</ele>
        <time>2026-08-07T06:16:38.498Z</time>
      </trkpt>
      <trkpt lat="49.40291" lon="5.18737">
        <ele>126.73</ele>
        <time>2026-08-07T06:16:44.494Z</time>
      </trkpt>
      <trkpt lat="49.40316" lon="5.18764">
        <ele>127.47</ele>
        <time>2026-08-07T06:16:50.499Z</time>
      </trkpt>
      <trkpt lat="49.40341" lon="5.18783">
        <ele>127.16</ele>
        <time>2026-08-07T06:16:56.445Z</time>
      </trkpt>
      <trkpt lat="49.40364" lon="5.18791">
        <ele>127.8</ele>
        <time>2026-08-07T06:17:01.457Z</time>
      </trkpt>
      <trkpt lat="49.40385" lon="5.18796">
        <ele>127.13</ele>
        <time>2026-08-07T06:17:06.459Z</time>
      </trkpt>
      <trkpt lat="49.40406" lon="5.18806">
        <ele>128.04</ele>
        <time>2026-08-07T06:17:11.461Z</time>
      </trkpt>
      <trkpt lat="49.40428" lon="5.18821">
        <ele>129.27</ele>
        <time>2026-08-07T06:17:17.458Z</time>
      </trkpt>
      <trkpt lat="49.40449" lon="5.18837">
        <ele>130.18</ele>
        <time>2026-08-07T06:17:23.461Z</time>
      </trkpt>
      <trkpt lat="49.40468" lon="5.18851">
        <ele>130.26</ele>
        <time>2026-08-07T06:17:29.453Z</time>
      </trkpt>
      <trkpt lat="49.40476" lon="5.18859">
        <ele>129.58</ele>
        <time>2026-08-07T06:17:34.565Z</time>
      </trkpt>
      <trkpt lat="49.40485" lon="5.18864">
        <ele>130.69</ele>
        <time>2026-08-07T06:18:12.450Z</time>
      </trkpt>
      <trkpt lat="49.40493" lon="5.18872">
        <ele>131.82</ele>
        <time>2026-08-07T06:18:17.453Z</time>
      </trkpt>
      <trkpt lat="49.40504" lon="5.18881">
        <ele>132.47</ele>
        <time>2026-08-07T06:18:22.459Z</time>
      </trkpt>
      <trkpt lat="49.40523" lon="5.18896">
        <ele>133.13</ele>
        <time>2026-08-07T06:18:28.454Z</time>
      </trkpt>
      <trkpt lat="49.40542" lon="5.18909">
        <ele>132.67</ele>
        <time>2026-08-07T06:18:33.454Z</time>
      </trkpt>
      <trkpt lat="49.40563" lon="5.18924">
        <ele>131.15</ele>
        <time>2026-08-07T06:18:38.501Z</time>
      </trkpt>
      <trkpt lat="49.40591" lon="5.18939">
        <ele>130.09</ele>
        <time>2026-08-07T06:18:44.496Z</time>
      </trkpt>
      <trkpt lat="49.4062" lon="5.18956">
        <ele>126.74</ele>
        <time>2026-08-07T06:18:50.499Z</time>
      </trkpt>
      <trkpt lat="49.4065" lon="5.18977">
        <ele>127.94</ele>
        <time>2026-08-07T06:18:56.497Z</time>
      </trkpt>
      <trkpt lat="49.40679" lon="5.18998">
        <ele>127.58</ele>
        <time>2026-08-07T06:19:02.497Z</time>
      </trkpt>
      <trkpt lat="49.40707" lon="5.1902">
        <ele>128.25</ele>
        <time>2026-08-07T06:19:08.490Z</time>
      </trkpt>
      <trkpt lat="49.40731" lon="5.1904">
        <ele>128.46</ele>
        <time>2026-08-07T06:19:14.497Z</time>
      </trkpt>
      <trkpt lat="49.40762" lon="5.19062">
        <ele>125.96</ele>
        <time>2026-08-07T06:19:20.496Z</time>
      </trkpt>
      <trkpt lat="49.40796" lon="5.19084">
        <ele>129.06</ele>
        <time>2026-08-07T06:19:26.453Z</time>
      </trkpt>
      <trkpt lat="49.40824" lon="5.19095">
        <ele>129.55</ele>
        <time>2026-08-07T06:19:31.458Z</time>
      </trkpt>
      <trkpt lat="49.4085" lon="5.19099">
        <ele>130.73</ele>
        <time>2026-08-07T06:19:36.467Z</time>
      </trkpt>
      <trkpt lat="49.4088" lon="5.19102">
        <ele>131.53</ele>
        <time>2026-08-07T06:19:42.458Z</time>
      </trkpt>
      <trkpt lat="49.40909" lon="5.19103">
        <ele>130.17</ele>
        <time>2026-08-07T06:19:48.457Z</time>
      </trkpt>
      <trkpt lat="49.40939" lon="5.19103">
        <ele>127.16</ele>
        <time>2026-08-07T06:19:54.457Z</time>
      </trkpt>
      <trkpt lat="49.40971" lon="5.191">
        <ele>126.99</ele>
        <time>2026-08-07T06:20:00.457Z</time>
      </trkpt>
      <trkpt lat="49.41005" lon="5.19093">
        <ele>128.63</ele>
        <time>2026-08-07T06:20:06.457Z</time>
      </trkpt>
      <trkpt lat="49.41036" lon="5.19087">
        <ele>130.81</ele>
        <time>2026-08-07T06:20:12.461Z</time>
      </trkpt>
      <trkpt lat="49.4107" lon="5.1908">
        <ele>130.33</ele>
        <time>2026-08-07T06:20:18.454Z</time>
      </trkpt>
      <trkpt lat="49.41102" lon="5.19071">
        <ele>127.95</ele>
        <time>2026-08-07T06:20:23.454Z</time>
      </trkpt>
      <trkpt lat="49.41144" lon="5.19061">
        <ele>125.15</ele>
        <time>2026-08-07T06:20:29.456Z</time>
      </trkpt>
      <trkpt lat="49.41185" lon="5.19048">
        <ele>123.4</ele>
        <time>2026-08-07T06:20:35.458Z</time>
      </trkpt>
      <trkpt lat="49.41222" lon="5.19028">
        <ele>123.05</ele>
        <time>2026-08-07T06:20:41.455Z</time>
      </trkpt>
      <trkpt lat="49.4125" lon="5.1901">
        <ele>124.23</ele>
        <time>2026-08-07T06:20:46.457Z</time>
      </trkpt>
      <trkpt lat="49.41279" lon="5.18989">
        <ele>124.39</ele>
        <time>2026-08-07T06:20:52.455Z</time>
      </trkpt>
      <trkpt lat="49.41302" lon="5.18974">
        <ele>124.08</ele>
        <time>2026-08-07T06:20:57.460Z</time>
      </trkpt>
      <trkpt lat="49.41325" lon="5.18956">
        <ele>123.96</ele>
        <time>2026-08-07T06:21:02.507Z</time>
      </trkpt>
      <trkpt lat="49.41347" lon="5.18948">
        <ele>121.79</ele>
        <time>2026-08-07T06:21:08.502Z</time>
      </trkpt>
      <trkpt lat="49.41361" lon="5.18916">
        <ele>119.9</ele>
        <time>2026-08-07T06:21:14.497Z</time>
      </trkpt>
      <trkpt lat="49.41379" lon="5.18885">
        <ele>121.31</ele>
        <time>2026-08-07T06:21:20.497Z</time>
      </trkpt>
      <trkpt lat="49.41391" lon="5.18849">
        <ele>122.43</ele>
        <time>2026-08-07T06:21:26.516Z</time>
      </trkpt>
      <trkpt lat="49.41394" lon="5.1881">
        <ele>124.91</ele>
        <time>2026-08-07T06:21:32.495Z</time>
      </trkpt>
      <trkpt lat="49.41383" lon="5.18769">
        <ele>126.53</ele>
        <time>2026-08-07T06:21:38.499Z</time>
      </trkpt>
      <trkpt lat="49.41371" lon="5.1873">
        <ele>128</ele>
        <time>2026-08-07T06:21:44.496Z</time>
      </trkpt>
      <trkpt lat="49.4136" lon="5.18689">
        <ele>128.38</ele>
        <time>2026-08-07T06:21:50.498Z</time>
      </trkpt>
      <trkpt lat="49.41367" lon="5.1865">
        <ele>129.35</ele>
        <time>2026-08-07T06:21:56.516Z</time>
      </trkpt>
      <trkpt lat="49.41387" lon="5.18624">
        <ele>128.82</ele>
        <time>2026-08-07T06:22:02.485Z</time>
      </trkpt>
      <trkpt lat="49.41403" lon="5.18596">
        <ele>129.54</ele>
        <time>2026-08-07T06:22:08.498Z</time>
      </trkpt>
      <trkpt lat="49.41411" lon="5.18565">
        <ele>131.46</ele>
        <time>2026-08-07T06:22:14.502Z</time>
      </trkpt>
      <trkpt lat="49.41417" lon="5.18531">
        <ele>131.56</ele>
        <time>2026-08-07T06:22:20.486Z</time>
      </trkpt>
      <trkpt lat="49.41424" lon="5.18499">
        <ele>130.78</ele>
        <time>2026-08-07T06:22:26.518Z</time>
      </trkpt>
      <trkpt lat="49.41431" lon="5.18467">
        <ele>131.88</ele>
        <time>2026-08-07T06:22:32.487Z</time>
      </trkpt>
      <trkpt lat="49.41438" lon="5.18441">
        <ele>133.21</ele>
        <time>2026-08-07T06:22:38.499Z</time>
      </trkpt>
      <trkpt lat="49.41449" lon="5.18418">
        <ele>133.95</ele>
        <time>2026-08-07T06:22:44.496Z</time>
      </trkpt>
      <trkpt lat="49.41463" lon="5.18399">
        <ele>134.11</ele>
        <time>2026-08-07T06:22:50.492Z</time>
      </trkpt>
      <trkpt lat="49.41479" lon="5.18383">
        <ele>135.23</ele>
        <time>2026-08-07T06:22:56.518Z</time>
      </trkpt>
      <trkpt lat="49.41497" lon="5.18367">
        <ele>136.3</ele>
        <time>2026-08-07T06:23:02.505Z</time>
      </trkpt>
      <trkpt lat="49.41513" lon="5.1835">
        <ele>137.53</ele>
        <time>2026-08-07T06:23:08.501Z</time>
      </trkpt>
      <trkpt lat="49.41532" lon="5.18331">
        <ele>137.69</ele>
        <time>2026-08-07T06:23:14.499Z</time>
      </trkpt>
      <trkpt lat="49.41555" lon="5.18308">
        <ele>137.11</ele>
        <time>2026-08-07T06:23:20.498Z</time>
      </trkpt>
      <trkpt lat="49.41582" lon="5.18281">
        <ele>135.69</ele>
        <time>2026-08-07T06:23:26.493Z</time>
      </trkpt>
      <trkpt lat="49.41613" lon="5.1825">
        <ele>133.73</ele>
        <time>2026-08-07T06:23:32.507Z</time>
      </trkpt>
      <trkpt lat="49.41644" lon="5.18219">
        <ele>132.55</ele>
        <time>2026-08-07T06:23:38.510Z</time>
      </trkpt>
      <trkpt lat="49.41674" lon="5.18179">
        <ele>131.17</ele>
        <time>2026-08-07T06:23:44.512Z</time>
      </trkpt>
      <trkpt lat="49.41699" lon="5.18129">
        <ele>129.77</ele>
        <time>2026-08-07T06:23:50.506Z</time>
      </trkpt>
      <trkpt lat="49.41722" lon="5.18074">
        <ele>128.48</ele>
        <time>2026-08-07T06:23:56.517Z</time>
      </trkpt>
      <trkpt lat="49.41751" lon="5.18026">
        <ele>128.46</ele>
        <time>2026-08-07T06:24:02.512Z</time>
      </trkpt>
      <trkpt lat="49.4178" lon="5.1798">
        <ele>127.55</ele>
        <time>2026-08-07T06:24:08.511Z</time>
      </trkpt>
      <trkpt lat="49.41809" lon="5.17934">
        <ele>127</ele>
        <time>2026-08-07T06:24:14.508Z</time>
      </trkpt>
      <trkpt lat="49.41837" lon="5.1789">
        <ele>126.58</ele>
        <time>2026-08-07T06:24:20.509Z</time>
      </trkpt>
      <trkpt lat="49.41872" lon="5.17863">
        <ele>125.69</ele>
        <time>2026-08-07T06:24:26.519Z</time>
      </trkpt>
      <trkpt lat="49.41906" lon="5.17843">
        <ele>126.51</ele>
        <time>2026-08-07T06:24:32.509Z</time>
      </trkpt>
      <trkpt lat="49.41936" lon="5.17826">
        <ele>128.1</ele>
        <time>2026-08-07T06:24:38.508Z</time>
      </trkpt>
      <trkpt lat="49.41965" lon="5.17809">
        <ele>129.05</ele>
        <time>2026-08-07T06:24:44.513Z</time>
      </trkpt>
      <trkpt lat="49.41991" lon="5.17794">
        <ele>129.67</ele>
        <time>2026-08-07T06:24:50.510Z</time>
      </trkpt>
      <trkpt lat="49.42016" lon="5.17782">
        <ele>130.92</ele>
        <time>2026-08-07T06:24:56.519Z</time>
      </trkpt>
      <trkpt lat="49.4204" lon="5.17771">
        <ele>132.53</ele>
        <time>2026-08-07T06:25:02.518Z</time>
      </trkpt>
      <trkpt lat="49.42065" lon="5.17762">
        <ele>133.64</ele>
        <time>2026-08-07T06:25:08.513Z</time>
      </trkpt>
      <trkpt lat="49.4209" lon="5.17754">
        <ele>133.75</ele>
        <time>2026-08-07T06:25:14.508Z</time>
      </trkpt>
      <trkpt lat="49.42115" lon="5.17748">
        <ele>133.23</ele>
        <time>2026-08-07T06:25:20.514Z</time>
      </trkpt>
      <trkpt lat="49.42139" lon="5.17741">
        <ele>133.82</ele>
        <time>2026-08-07T06:25:26.519Z</time>
      </trkpt>
      <trkpt lat="49.42164" lon="5.17735">
        <ele>133.98</ele>
        <time>2026-08-07T06:25:32.514Z</time>
      </trkpt>
      <trkpt lat="49.42196" lon="5.17727">
        <ele>131.74</ele>
        <time>2026-08-07T06:25:38.510Z</time>
      </trkpt>
      <trkpt lat="49.42232" lon="5.17718">
        <ele>129.74</ele>
        <time>2026-08-07T06:25:44.511Z</time>
      </trkpt>
      <trkpt lat="49.42271" lon="5.17709">
        <ele>128.07</ele>
        <time>2026-08-07T06:25:50.504Z</time>
      </trkpt>
      <trkpt lat="49.42311" lon="5.17701">
        <ele>127.2</ele>
        <time>2026-08-07T06:25:56.522Z</time>
      </trkpt>
      <trkpt lat="49.42349" lon="5.17696">
        <ele>128.04</ele>
        <time>2026-08-07T06:26:02.511Z</time>
      </trkpt>
      <trkpt lat="49.42388" lon="5.17691">
        <ele>128.1</ele>
        <time>2026-08-07T06:26:08.513Z</time>
      </trkpt>
      <trkpt lat="49.42424" lon="5.17686">
        <ele>127.97</ele>
        <time>2026-08-07T06:26:14.512Z</time>
      </trkpt>
      <trkpt lat="49.42458" lon="5.17682">
        <ele>129.1</ele>
        <time>2026-08-07T06:26:20.509Z</time>
      </trkpt>
      <trkpt lat="49.42489" lon="5.17674">
        <ele>130.43</ele>
        <time>2026-08-07T06:26:26.517Z</time>
      </trkpt>
      <trkpt lat="49.42517" lon="5.17667">
        <ele>131.84</ele>
        <time>2026-08-07T06:26:32.507Z</time>
      </trkpt>
      <trkpt lat="49.42543" lon="5.1766">
        <ele>132.2</ele>
        <time>2026-08-07T06:26:38.509Z</time>
      </trkpt>
      <trkpt lat="49.42571" lon="5.17654">
        <ele>132.34</ele>
        <time>2026-08-07T06:26:44.512Z</time>
      </trkpt>
      <trkpt lat="49.42599" lon="5.17647">
        <ele>132.98</ele>
        <time>2026-08-07T06:26:50.509Z</time>
      </trkpt>
      <trkpt lat="49.42627" lon="5.17641">
        <ele>132.39</ele>
        <time>2026-08-07T06:26:56.514Z</time>
      </trkpt>
      <trkpt lat="49.42655" lon="5.17635">
        <ele>131.7</ele>
        <time>2026-08-07T06:27:02.516Z</time>
      </trkpt>
      <trkpt lat="49.42686" lon="5.17628">
        <ele>131.47</ele>
        <time>2026-08-07T06:27:08.510Z</time>
      </trkpt>
      <trkpt lat="49.4272" lon="5.17621">
        <ele>131.19</ele>
        <time>2026-08-07T06:27:14.514Z</time>
      </trkpt>
      <trkpt lat="49.42755" lon="5.17616">
        <ele>129.94</ele>
        <time>2026-08-07T06:27:20.510Z</time>
      </trkpt>
      <trkpt lat="49.42792" lon="5.1762">
        <ele>130.08</ele>
        <time>2026-08-07T06:27:26.516Z</time>
      </trkpt>
      <trkpt lat="49.42827" lon="5.1763">
        <ele>128.53</ele>
        <time>2026-08-07T06:27:32.508Z</time>
      </trkpt>
      <trkpt lat="49.42863" lon="5.1764">
        <ele>127.79</ele>
        <time>2026-08-07T06:27:38.510Z</time>
      </trkpt>
      <trkpt lat="49.429" lon="5.17651">
        <ele>127.67</ele>
        <time>2026-08-07T06:27:44.512Z</time>
      </trkpt>
      <trkpt lat="49.42935" lon="5.17659">
        <ele>127.77</ele>
        <time>2026-08-07T06:27:50.511Z</time>
      </trkpt>
      <trkpt lat="49.4297" lon="5.17663">
        <ele>128.15</ele>
        <time>2026-08-07T06:27:56.510Z</time>
      </trkpt>
      <trkpt lat="49.43006" lon="5.17665">
        <ele>127.7</ele>
        <time>2026-08-07T06:28:02.507Z</time>
      </trkpt>
      <trkpt lat="49.43041" lon="5.1767">
        <ele>127.84</ele>
        <time>2026-08-07T06:28:08.511Z</time>
      </trkpt>
      <trkpt lat="49.43077" lon="5.17674">
        <ele>127.45</ele>
        <time>2026-08-07T06:28:14.510Z</time>
      </trkpt>
      <trkpt lat="49.43112" lon="5.17672">
        <ele>125.71</ele>
        <time>2026-08-07T06:28:20.510Z</time>
      </trkpt>
      <trkpt lat="49.43147" lon="5.17669">
        <ele>126.37</ele>
        <time>2026-08-07T06:28:26.514Z</time>
      </trkpt>
      <trkpt lat="49.43183" lon="5.17665">
        <ele>125.94</ele>
        <time>2026-08-07T06:28:32.511Z</time>
      </trkpt>
      <trkpt lat="49.43218" lon="5.1766">
        <ele>125.04</ele>
        <time>2026-08-07T06:28:38.512Z</time>
      </trkpt>
      <trkpt lat="49.43255" lon="5.17659">
        <ele>125.18</ele>
        <time>2026-08-07T06:28:44.510Z</time>
      </trkpt>
      <trkpt lat="49.43292" lon="5.17668">
        <ele>125.09</ele>
        <time>2026-08-07T06:28:50.511Z</time>
      </trkpt>
      <trkpt lat="49.43328" lon="5.17676">
        <ele>122.61</ele>
        <time>2026-08-07T06:28:56.515Z</time>
      </trkpt>
      <trkpt lat="49.43362" lon="5.17684">
        <ele>122.34</ele>
        <time>2026-08-07T06:29:02.511Z</time>
      </trkpt>
      <trkpt lat="49.43396" lon="5.17691">
        <ele>123.08</ele>
        <time>2026-08-07T06:29:08.513Z</time>
      </trkpt>
      <trkpt lat="49.43428" lon="5.177">
        <ele>123.92</ele>
        <time>2026-08-07T06:29:14.508Z</time>
      </trkpt>
      <trkpt lat="49.43461" lon="5.17711">
        <ele>122.64</ele>
        <time>2026-08-07T06:29:20.512Z</time>
      </trkpt>
      <trkpt lat="49.43493" lon="5.17719">
        <ele>122.89</ele>
        <time>2026-08-07T06:29:26.487Z</time>
      </trkpt>
      <trkpt lat="49.43523" lon="5.17722">
        <ele>123.14</ele>
        <time>2026-08-07T06:29:32.511Z</time>
      </trkpt>
      <trkpt lat="49.43552" lon="5.17726">
        <ele>124.01</ele>
        <time>2026-08-07T06:29:38.514Z</time>
      </trkpt>
      <trkpt lat="49.43581" lon="5.17727">
        <ele>124.14</ele>
        <time>2026-08-07T06:29:44.512Z</time>
      </trkpt>
      <trkpt lat="49.4361" lon="5.17731">
        <ele>123.26</ele>
        <time>2026-08-07T06:29:50.511Z</time>
      </trkpt>
      <trkpt lat="49.43641" lon="5.17736">
        <ele>122.92</ele>
        <time>2026-08-07T06:29:56.518Z</time>
      </trkpt>
      <trkpt lat="49.43671" lon="5.17746">
        <ele>122.25</ele>
        <time>2026-08-07T06:30:02.506Z</time>
      </trkpt>
      <trkpt lat="49.43703" lon="5.17757">
        <ele>122.09</ele>
        <time>2026-08-07T06:30:08.511Z</time>
      </trkpt>
      <trkpt lat="49.43735" lon="5.17759">
        <ele>124.2</ele>
        <time>2026-08-07T06:30:14.511Z</time>
      </trkpt>
      <trkpt lat="49.43767" lon="5.17757">
        <ele>123.78</ele>
        <time>2026-08-07T06:30:20.513Z</time>
      </trkpt>
      <trkpt lat="49.43798" lon="5.17748">
        <ele>123.57</ele>
        <time>2026-08-07T06:30:26.508Z</time>
      </trkpt>
      <trkpt lat="49.43828" lon="5.17737">
        <ele>122.37</ele>
        <time>2026-08-07T06:30:32.514Z</time>
      </trkpt>
      <trkpt lat="49.43859" lon="5.17727">
        <ele>121.87</ele>
        <time>2026-08-07T06:30:38.510Z</time>
      </trkpt>
      <trkpt lat="49.43889" lon="5.1772">
        <ele>122.5</ele>
        <time>2026-08-07T06:30:44.509Z</time>
      </trkpt>
      <trkpt lat="49.4392" lon="5.17713">
        <ele>123.35</ele>
        <time>2026-08-07T06:30:50.513Z</time>
      </trkpt>
      <trkpt lat="49.43951" lon="5.17706">
        <ele>123.69</ele>
        <time>2026-08-07T06:30:56.488Z</time>
      </trkpt>
      <trkpt lat="49.43981" lon="5.17699">
        <ele>123.37</ele>
        <time>2026-08-07T06:31:02.510Z</time>
      </trkpt>
      <trkpt lat="49.44012" lon="5.17693">
        <ele>123.03</ele>
        <time>2026-08-07T06:31:08.513Z</time>
      </trkpt>
      <trkpt lat="49.44045" lon="5.17686">
        <ele>122.26</ele>
        <time>2026-08-07T06:31:14.518Z</time>
      </trkpt>
      <trkpt lat="49.44077" lon="5.17678">
        <ele>121.9</ele>
        <time>2026-08-07T06:31:20.511Z</time>
      </trkpt>
      <trkpt lat="49.44108" lon="5.17669">
        <ele>121.9</ele>
        <time>2026-08-07T06:31:26.512Z</time>
      </trkpt>
      <trkpt lat="49.44136" lon="5.17655">
        <ele>121.26</ele>
        <time>2026-08-07T06:31:32.514Z</time>
      </trkpt>
      <trkpt lat="49.44163" lon="5.17637">
        <ele>122.03</ele>
        <time>2026-08-07T06:31:38.512Z</time>
      </trkpt>
      <trkpt lat="49.44186" lon="5.17619">
        <ele>122.9</ele>
        <time>2026-08-07T06:31:44.516Z</time>
      </trkpt>
      <trkpt lat="49.44209" lon="5.17606">
        <ele>123.46</ele>
        <time>2026-08-07T06:31:50.512Z</time>
      </trkpt>
      <trkpt lat="49.44233" lon="5.17595">
        <ele>124.34</ele>
        <time>2026-08-07T06:31:56.510Z</time>
      </trkpt>
      <trkpt lat="49.44259" lon="5.17589">
        <ele>126.16</ele>
        <time>2026-08-07T06:32:02.487Z</time>
      </trkpt>
      <trkpt lat="49.44285" lon="5.17587">
        <ele>127.11</ele>
        <time>2026-08-07T06:32:08.512Z</time>
      </trkpt>
      <trkpt lat="49.44311" lon="5.17584">
        <ele>128.39</ele>
        <time>2026-08-07T06:32:14.511Z</time>
      </trkpt>
      <trkpt lat="49.44337" lon="5.17581">
        <ele>128.61</ele>
        <time>2026-08-07T06:32:20.510Z</time>
      </trkpt>
      <trkpt lat="49.44365" lon="5.17571">
        <ele>127.41</ele>
        <time>2026-08-07T06:32:26.518Z</time>
      </trkpt>
      <trkpt lat="49.44394" lon="5.1756">
        <ele>124.83</ele>
        <time>2026-08-07T06:32:32.509Z</time>
      </trkpt>
      <trkpt lat="49.44425" lon="5.17547">
        <ele>124.06</ele>
        <time>2026-08-07T06:32:38.511Z</time>
      </trkpt>
      <trkpt lat="49.44458" lon="5.17535">
        <ele>124.38</ele>
        <time>2026-08-07T06:32:44.511Z</time>
      </trkpt>
      <trkpt lat="49.44488" lon="5.1752">
        <ele>125.31</ele>
        <time>2026-08-07T06:32:50.511Z</time>
      </trkpt>
      <trkpt lat="49.44518" lon="5.17511">
        <ele>124.74</ele>
        <time>2026-08-07T06:32:56.521Z</time>
      </trkpt>
      <trkpt lat="49.44552" lon="5.175">
        <ele>124.85</ele>
        <time>2026-08-07T06:33:02.510Z</time>
      </trkpt>
      <trkpt lat="49.44585" lon="5.17488">
        <ele>124.84</ele>
        <time>2026-08-07T06:33:08.514Z</time>
      </trkpt>
      <trkpt lat="49.44616" lon="5.17477">
        <ele>124.36</ele>
        <time>2026-08-07T06:33:14.512Z</time>
      </trkpt>
      <trkpt lat="49.44647" lon="5.17465">
        <ele>124.46</ele>
        <time>2026-08-07T06:33:20.517Z</time>
      </trkpt>
      <trkpt lat="49.4472" lon="5.17439">
        <ele>122.34</ele>
        <time>2026-08-07T06:33:33.616Z</time>
      </trkpt>
      <trkpt lat="49.44748" lon="5.17428">
        <ele>125.43</ele>
        <time>2026-08-07T06:33:39.097Z</time>
      </trkpt>
      <trkpt lat="49.44776" lon="5.17416">
        <ele>125.28</ele>
        <time>2026-08-07T06:33:44.455Z</time>
      </trkpt>
      <trkpt lat="49.44802" lon="5.17405">
        <ele>126.16</ele>
        <time>2026-08-07T06:33:49.455Z</time>
      </trkpt>
      <trkpt lat="49.44837" lon="5.17389">
        <ele>128.61</ele>
        <time>2026-08-07T06:33:54.455Z</time>
      </trkpt>
      <trkpt lat="49.44858" lon="5.17384">
        <ele>127.27</ele>
        <time>2026-08-07T06:33:59.458Z</time>
      </trkpt>
      <trkpt lat="49.44884" lon="5.17378">
        <ele>126.02</ele>
        <time>2026-08-07T06:34:04.459Z</time>
      </trkpt>
      <trkpt lat="49.44918" lon="5.17391">
        <ele>125.27</ele>
        <time>2026-08-07T06:34:10.454Z</time>
      </trkpt>
      <trkpt lat="49.44944" lon="5.17408">
        <ele>124.81</ele>
        <time>2026-08-07T06:34:15.455Z</time>
      </trkpt>
      <trkpt lat="49.44971" lon="5.17423">
        <ele>124.23</ele>
        <time>2026-08-07T06:34:20.467Z</time>
      </trkpt>
      <trkpt lat="49.45005" lon="5.17431">
        <ele>122.86</ele>
        <time>2026-08-07T06:34:26.459Z</time>
      </trkpt>
      <trkpt lat="49.45034" lon="5.17433">
        <ele>122.75</ele>
        <time>2026-08-07T06:34:31.459Z</time>
      </trkpt>
      <trkpt lat="49.45063" lon="5.17429">
        <ele>122.73</ele>
        <time>2026-08-07T06:34:36.459Z</time>
      </trkpt>
      <trkpt lat="49.45098" lon="5.17425">
        <ele>123.64</ele>
        <time>2026-08-07T06:34:42.451Z</time>
      </trkpt>
      <trkpt lat="49.45129" lon="5.17424">
        <ele>122.59</ele>
        <time>2026-08-07T06:34:48.465Z</time>
      </trkpt>
      <trkpt lat="49.45153" lon="5.17418">
        <ele>118.04</ele>
        <time>2026-08-07T06:34:54.458Z</time>
      </trkpt>
      <trkpt lat="49.45189" lon="5.1742">
        <ele>119.41</ele>
        <time>2026-08-07T06:34:59.461Z</time>
      </trkpt>
      <trkpt lat="49.45222" lon="5.1744">
        <ele>120.78</ele>
        <time>2026-08-07T06:35:05.460Z</time>
      </trkpt>
      <trkpt lat="49.45248" lon="5.1747">
        <ele>124.64</ele>
        <time>2026-08-07T06:35:11.457Z</time>
      </trkpt>
      <trkpt lat="49.4527" lon="5.17496">
        <ele>124.53</ele>
        <time>2026-08-07T06:35:16.457Z</time>
      </trkpt>
      <trkpt lat="49.45294" lon="5.17524">
        <ele>125.01</ele>
        <time>2026-08-07T06:35:22.455Z</time>
      </trkpt>
      <trkpt lat="49.45318" lon="5.1754">
        <ele>124.39</ele>
        <time>2026-08-07T06:35:27.455Z</time>
      </trkpt>
      <trkpt lat="49.45345" lon="5.17542">
        <ele>122.85</ele>
        <time>2026-08-07T06:35:32.460Z</time>
      </trkpt>
      <trkpt lat="49.45377" lon="5.17531">
        <ele>121.19</ele>
        <time>2026-08-07T06:35:38.491Z</time>
      </trkpt>
      <trkpt lat="49.4541" lon="5.17519">
        <ele>121.37</ele>
        <time>2026-08-07T06:35:44.487Z</time>
      </trkpt>
      <trkpt lat="49.45441" lon="5.17509">
        <ele>122.24</ele>
        <time>2026-08-07T06:35:50.490Z</time>
      </trkpt>
      <trkpt lat="49.45472" lon="5.17499">
        <ele>122.77</ele>
        <time>2026-08-07T06:35:56.459Z</time>
      </trkpt>
      <trkpt lat="49.45499" lon="5.17489">
        <ele>122.8</ele>
        <time>2026-08-07T06:36:01.462Z</time>
      </trkpt>
      <trkpt lat="49.4553" lon="5.17479">
        <ele>123.13</ele>
        <time>2026-08-07T06:36:07.459Z</time>
      </trkpt>
      <trkpt lat="49.45554" lon="5.17468">
        <ele>123.15</ele>
        <time>2026-08-07T06:36:12.460Z</time>
      </trkpt>
      <trkpt lat="49.45582" lon="5.17444">
        <ele>123.3</ele>
        <time>2026-08-07T06:36:18.457Z</time>
      </trkpt>
      <trkpt lat="49.45602" lon="5.17426">
        <ele>124.05</ele>
        <time>2026-08-07T06:36:23.462Z</time>
      </trkpt>
      <trkpt lat="49.45626" lon="5.17406">
        <ele>123.11</ele>
        <time>2026-08-07T06:36:29.462Z</time>
      </trkpt>
      <trkpt lat="49.45656" lon="5.17381">
        <ele>122.17</ele>
        <time>2026-08-07T06:36:35.459Z</time>
      </trkpt>
      <trkpt lat="49.45683" lon="5.17354">
        <ele>121.34</ele>
        <time>2026-08-07T06:36:41.450Z</time>
      </trkpt>
      <trkpt lat="49.45703" lon="5.17334">
        <ele>119.76</ele>
        <time>2026-08-07T06:36:46.456Z</time>
      </trkpt>
      <trkpt lat="49.45724" lon="5.17317">
        <ele>120.86</ele>
        <time>2026-08-07T06:36:51.459Z</time>
      </trkpt>
      <trkpt lat="49.45747" lon="5.17297">
        <ele>120.84</ele>
        <time>2026-08-07T06:36:57.453Z</time>
      </trkpt>
      <trkpt lat="49.45767" lon="5.17281">
        <ele>120.33</ele>
        <time>2026-08-07T06:37:02.459Z</time>
      </trkpt>
      <trkpt lat="49.45788" lon="5.17263">
        <ele>121.53</ele>
        <time>2026-08-07T06:37:07.460Z</time>
      </trkpt>
      <trkpt lat="49.45812" lon="5.17238">
        <ele>123.55</ele>
        <time>2026-08-07T06:37:13.459Z</time>
      </trkpt>
      <trkpt lat="49.45835" lon="5.17214">
        <ele>124.89</ele>
        <time>2026-08-07T06:37:19.459Z</time>
      </trkpt>
      <trkpt lat="49.45854" lon="5.17193">
        <ele>125.62</ele>
        <time>2026-08-07T06:37:24.460Z</time>
      </trkpt>
      <trkpt lat="49.45878" lon="5.17169">
        <ele>126.19</ele>
        <time>2026-08-07T06:37:30.460Z</time>
      </trkpt>
      <trkpt lat="49.45903" lon="5.17143">
        <ele>125.81</ele>
        <time>2026-08-07T06:37:36.459Z</time>
      </trkpt>
      <trkpt lat="49.45927" lon="5.17116">
        <ele>125.98</ele>
        <time>2026-08-07T06:37:42.460Z</time>
      </trkpt>
      <trkpt lat="49.45951" lon="5.17089">
        <ele>124.51</ele>
        <time>2026-08-07T06:37:48.458Z</time>
      </trkpt>
      <trkpt lat="49.45981" lon="5.17074">
        <ele>122.92</ele>
        <time>2026-08-07T06:37:54.458Z</time>
      </trkpt>
      <trkpt lat="49.46001" lon="5.17099">
        <ele>122.38</ele>
        <time>2026-08-07T06:37:59.458Z</time>
      </trkpt>
      <trkpt lat="49.46025" lon="5.17129">
        <ele>122.82</ele>
        <time>2026-08-07T06:38:05.459Z</time>
      </trkpt>
      <trkpt lat="49.46056" lon="5.1714">
        <ele>123.09</ele>
        <time>2026-08-07T06:38:11.459Z</time>
      </trkpt>
      <trkpt lat="49.46088" lon="5.17143">
        <ele>122.75</ele>
        <time>2026-08-07T06:38:17.460Z</time>
      </trkpt>
      <trkpt lat="49.46119" lon="5.17142">
        <ele>122.96</ele>
        <time>2026-08-07T06:38:23.459Z</time>
      </trkpt>
      <trkpt lat="49.46149" lon="5.17139">
        <ele>123.15</ele>
        <time>2026-08-07T06:38:29.460Z</time>
      </trkpt>
      <trkpt lat="49.4618" lon="5.17134">
        <ele>123.45</ele>
        <time>2026-08-07T06:38:35.457Z</time>
      </trkpt>
      <trkpt lat="49.46213" lon="5.17136">
        <ele>122.52</ele>
        <time>2026-08-07T06:38:41.455Z</time>
      </trkpt>
      <trkpt lat="49.46239" lon="5.17145">
        <ele>123.11</ele>
        <time>2026-08-07T06:38:46.455Z</time>
      </trkpt>
      <trkpt lat="49.46264" lon="5.17151">
        <ele>123.76</ele>
        <time>2026-08-07T06:38:51.455Z</time>
      </trkpt>
      <trkpt lat="49.46294" lon="5.17148">
        <ele>123.79</ele>
        <time>2026-08-07T06:38:57.460Z</time>
      </trkpt>
      <trkpt lat="49.46324" lon="5.17136">
        <ele>124.16</ele>
        <time>2026-08-07T06:39:03.456Z</time>
      </trkpt>
      <trkpt lat="49.46348" lon="5.17127">
        <ele>123.76</ele>
        <time>2026-08-07T06:39:08.512Z</time>
      </trkpt>
      <trkpt lat="49.46379" lon="5.17122">
        <ele>124.02</ele>
        <time>2026-08-07T06:39:14.511Z</time>
      </trkpt>
      <trkpt lat="49.46409" lon="5.1713">
        <ele>123.71</ele>
        <time>2026-08-07T06:39:20.509Z</time>
      </trkpt>
      <trkpt lat="49.46438" lon="5.17143">
        <ele>123.74</ele>
        <time>2026-08-07T06:39:26.459Z</time>
      </trkpt>
      <trkpt lat="49.46469" lon="5.17156">
        <ele>124.1</ele>
        <time>2026-08-07T06:39:32.458Z</time>
      </trkpt>
      <trkpt lat="49.465" lon="5.17169">
        <ele>123.04</ele>
        <time>2026-08-07T06:39:38.506Z</time>
      </trkpt>
      <trkpt lat="49.46532" lon="5.17184">
        <ele>122.15</ele>
        <time>2026-08-07T06:39:44.505Z</time>
      </trkpt>
      <trkpt lat="49.46563" lon="5.17208">
        <ele>121.9</ele>
        <time>2026-08-07T06:39:50.506Z</time>
      </trkpt>
      <trkpt lat="49.46586" lon="5.17249">
        <ele>124.49</ele>
        <time>2026-08-07T06:39:56.512Z</time>
      </trkpt>
      <trkpt lat="49.46598" lon="5.17298">
        <ele>124.77</ele>
        <time>2026-08-07T06:40:02.454Z</time>
      </trkpt>
      <trkpt lat="49.46608" lon="5.17335">
        <ele>123.66</ele>
        <time>2026-08-07T06:40:07.456Z</time>
      </trkpt>
      <trkpt lat="49.46636" lon="5.17362">
        <ele>122.63</ele>
        <time>2026-08-07T06:40:13.459Z</time>
      </trkpt>
      <trkpt lat="49.46671" lon="5.17357">
        <ele>122.66</ele>
        <time>2026-08-07T06:40:19.452Z</time>
      </trkpt>
      <trkpt lat="49.46697" lon="5.17342">
        <ele>122.76</ele>
        <time>2026-08-07T06:40:24.457Z</time>
      </trkpt>
      <trkpt lat="49.46729" lon="5.1732">
        <ele>122.79</ele>
        <time>2026-08-07T06:40:30.458Z</time>
      </trkpt>
      <trkpt lat="49.46756" lon="5.17291">
        <ele>122.3</ele>
        <time>2026-08-07T06:40:36.458Z</time>
      </trkpt>
      <trkpt lat="49.46776" lon="5.17261">
        <ele>122.02</ele>
        <time>2026-08-07T06:40:41.458Z</time>
      </trkpt>
      <trkpt lat="49.46798" lon="5.17224">
        <ele>122.04</ele>
        <time>2026-08-07T06:40:47.453Z</time>
      </trkpt>
      <trkpt lat="49.46816" lon="5.17191">
        <ele>122.01</ele>
        <time>2026-08-07T06:40:52.454Z</time>
      </trkpt>
      <trkpt lat="49.46832" lon="5.17157">
        <ele>122</ele>
        <time>2026-08-07T06:40:57.454Z</time>
      </trkpt>
      <trkpt lat="49.46849" lon="5.17126">
        <ele>122.17</ele>
        <time>2026-08-07T06:41:02.457Z</time>
      </trkpt>
      <trkpt lat="49.46866" lon="5.17095">
        <ele>122.11</ele>
        <time>2026-08-07T06:41:07.458Z</time>
      </trkpt>
      <trkpt lat="49.46888" lon="5.17061">
        <ele>122.55</ele>
        <time>2026-08-07T06:41:13.456Z</time>
      </trkpt>
      <trkpt lat="49.46909" lon="5.17036">
        <ele>122.38</ele>
        <time>2026-08-07T06:41:18.456Z</time>
      </trkpt>
      <trkpt lat="49.46937" lon="5.17009">
        <ele>122.28</ele>
        <time>2026-08-07T06:41:24.456Z</time>
      </trkpt>
      <trkpt lat="49.4696" lon="5.16987">
        <ele>122.69</ele>
        <time>2026-08-07T06:41:29.458Z</time>
      </trkpt>
      <trkpt lat="49.46982" lon="5.16965">
        <ele>122.26</ele>
        <time>2026-08-07T06:41:34.458Z</time>
      </trkpt>
      <trkpt lat="49.47008" lon="5.16939">
        <ele>122.96</ele>
        <time>2026-08-07T06:41:40.450Z</time>
      </trkpt>
      <trkpt lat="49.4703" lon="5.16917">
        <ele>122.68</ele>
        <time>2026-08-07T06:41:45.457Z</time>
      </trkpt>
      <trkpt lat="49.47053" lon="5.16896">
        <ele>122.33</ele>
        <time>2026-08-07T06:41:50.508Z</time>
      </trkpt>
      <trkpt lat="49.47071" lon="5.16865">
        <ele>121.17</ele>
        <time>2026-08-07T06:41:56.455Z</time>
      </trkpt>
      <trkpt lat="49.47082" lon="5.16834">
        <ele>120.49</ele>
        <time>2026-08-07T06:42:01.455Z</time>
      </trkpt>
      <trkpt lat="49.47108" lon="5.16812">
        <ele>120.57</ele>
        <time>2026-08-07T06:42:06.455Z</time>
      </trkpt>
      <trkpt lat="49.47139" lon="5.16804">
        <ele>119.77</ele>
        <time>2026-08-07T06:42:11.455Z</time>
      </trkpt>
      <trkpt lat="49.47167" lon="5.16788">
        <ele>120.17</ele>
        <time>2026-08-07T06:42:16.455Z</time>
      </trkpt>
      <trkpt lat="49.47197" lon="5.16769">
        <ele>121.17</ele>
        <time>2026-08-07T06:42:22.454Z</time>
      </trkpt>
      <trkpt lat="49.47222" lon="5.16754">
        <ele>121.58</ele>
        <time>2026-08-07T06:42:27.456Z</time>
      </trkpt>
      <trkpt lat="49.47246" lon="5.16739">
        <ele>120.61</ele>
        <time>2026-08-07T06:42:32.458Z</time>
      </trkpt>
      <trkpt lat="49.4727" lon="5.16714">
        <ele>120.97</ele>
        <time>2026-08-07T06:42:38.514Z</time>
      </trkpt>
      <trkpt lat="49.4729" lon="5.16682">
        <ele>120.68</ele>
        <time>2026-08-07T06:42:44.511Z</time>
      </trkpt>
      <trkpt lat="49.4731" lon="5.16649">
        <ele>121.84</ele>
        <time>2026-08-07T06:42:50.515Z</time>
      </trkpt>
      <trkpt lat="49.47331" lon="5.1662">
        <ele>122.97</ele>
        <time>2026-08-07T06:42:56.455Z</time>
      </trkpt>
      <trkpt lat="49.47351" lon="5.16597">
        <ele>122.71</ele>
        <time>2026-08-07T06:43:01.458Z</time>
      </trkpt>
      <trkpt lat="49.47374" lon="5.16569">
        <ele>121.51</ele>
        <time>2026-08-07T06:43:07.458Z</time>
      </trkpt>
      <trkpt lat="49.47394" lon="5.16544">
        <ele>120.85</ele>
        <time>2026-08-07T06:43:12.465Z</time>
      </trkpt>
      <trkpt lat="49.47418" lon="5.16513">
        <ele>121.02</ele>
        <time>2026-08-07T06:43:18.456Z</time>
      </trkpt>
      <trkpt lat="49.47438" lon="5.16488">
        <ele>120.95</ele>
        <time>2026-08-07T06:43:23.459Z</time>
      </trkpt>
      <trkpt lat="49.47461" lon="5.16459">
        <ele>121.21</ele>
        <time>2026-08-07T06:43:29.452Z</time>
      </trkpt>
      <trkpt lat="49.47483" lon="5.16433">
        <ele>121.58</ele>
        <time>2026-08-07T06:43:35.458Z</time>
      </trkpt>
      <trkpt lat="49.47504" lon="5.16407">
        <ele>120.82</ele>
        <time>2026-08-07T06:43:41.457Z</time>
      </trkpt>
      <trkpt lat="49.47526" lon="5.16381">
        <ele>121.42</ele>
        <time>2026-08-07T06:43:47.454Z</time>
      </trkpt>
      <trkpt lat="49.47548" lon="5.16362">
        <ele>122.9</ele>
        <time>2026-08-07T06:43:52.456Z</time>
      </trkpt>
      <trkpt lat="49.47574" lon="5.16348">
        <ele>123.66</ele>
        <time>2026-08-07T06:43:58.455Z</time>
      </trkpt>
      <trkpt lat="49.47595" lon="5.16345">
        <ele>125.76</ele>
        <time>2026-08-07T06:44:03.458Z</time>
      </trkpt>
      <trkpt lat="49.47616" lon="5.16343">
        <ele>127.66</ele>
        <time>2026-08-07T06:44:08.513Z</time>
      </trkpt>
      <trkpt lat="49.4764" lon="5.16345">
        <ele>128.82</ele>
        <time>2026-08-07T06:44:14.519Z</time>
      </trkpt>
      <trkpt lat="49.4767" lon="5.16354">
        <ele>127.92</ele>
        <time>2026-08-07T06:44:20.512Z</time>
      </trkpt>
      <trkpt lat="49.47705" lon="5.1637">
        <ele>125.39</ele>
        <time>2026-08-07T06:44:26.457Z</time>
      </trkpt>
      <trkpt lat="49.47747" lon="5.16389">
        <ele>122.66</ele>
        <time>2026-08-07T06:44:32.458Z</time>
      </trkpt>
      <trkpt lat="49.47785" lon="5.16409">
        <ele>121.61</ele>
        <time>2026-08-07T06:44:38.517Z</time>
      </trkpt>
      <trkpt lat="49.47817" lon="5.16424">
        <ele>121.95</ele>
        <time>2026-08-07T06:44:44.514Z</time>
      </trkpt>
      <trkpt lat="49.47846" lon="5.16437">
        <ele>121.96</ele>
        <time>2026-08-07T06:44:50.516Z</time>
      </trkpt>
      <trkpt lat="49.47875" lon="5.1644">
        <ele>123.65</ele>
        <time>2026-08-07T06:44:56.517Z</time>
      </trkpt>
      <trkpt lat="49.47902" lon="5.16438">
        <ele>124.23</ele>
        <time>2026-08-07T06:45:02.461Z</time>
      </trkpt>
      <trkpt lat="49.47928" lon="5.16433">
        <ele>125.03</ele>
        <time>2026-08-07T06:45:08.515Z</time>
      </trkpt>
      <trkpt lat="49.47953" lon="5.16428">
        <ele>126.34</ele>
        <time>2026-08-07T06:45:14.522Z</time>
      </trkpt>
      <trkpt lat="49.47979" lon="5.16422">
        <ele>126.11</ele>
        <time>2026-08-07T06:45:20.515Z</time>
      </trkpt>
      <trkpt lat="49.48011" lon="5.16415">
        <ele>124.43</ele>
        <time>2026-08-07T06:45:26.516Z</time>
      </trkpt>
      <trkpt lat="49.48051" lon="5.16407">
        <ele>122.41</ele>
        <time>2026-08-07T06:45:32.460Z</time>
      </trkpt>
      <trkpt lat="49.4809" lon="5.16399">
        <ele>120.48</ele>
        <time>2026-08-07T06:45:38.516Z</time>
      </trkpt>
      <trkpt lat="49.48125" lon="5.16386">
        <ele>119.19</ele>
        <time>2026-08-07T06:45:44.518Z</time>
      </trkpt>
      <trkpt lat="49.4816" lon="5.1637">
        <ele>119.17</ele>
        <time>2026-08-07T06:45:50.517Z</time>
      </trkpt>
      <trkpt lat="49.48192" lon="5.16356">
        <ele>119.24</ele>
        <time>2026-08-07T06:45:56.458Z</time>
      </trkpt>
      <trkpt lat="49.48224" lon="5.16346">
        <ele>120.14</ele>
        <time>2026-08-07T06:46:02.515Z</time>
      </trkpt>
      <trkpt lat="49.48251" lon="5.16341">
        <ele>122.16</ele>
        <time>2026-08-07T06:46:08.514Z</time>
      </trkpt>
      <trkpt lat="49.48279" lon="5.16338">
        <ele>124.08</ele>
        <time>2026-08-07T06:46:14.516Z</time>
      </trkpt>
      <trkpt lat="49.48304" lon="5.16335">
        <ele>124.3</ele>
        <time>2026-08-07T06:46:20.514Z</time>
      </trkpt>
      <trkpt lat="49.48332" lon="5.16331">
        <ele>124.48</ele>
        <time>2026-08-07T06:46:26.513Z</time>
      </trkpt>
      <trkpt lat="49.4836" lon="5.16326">
        <ele>124.49</ele>
        <time>2026-08-07T06:46:32.495Z</time>
      </trkpt>
      <trkpt lat="49.48389" lon="5.16321">
        <ele>123.58</ele>
        <time>2026-08-07T06:46:38.515Z</time>
      </trkpt>
      <trkpt lat="49.48418" lon="5.16314">
        <ele>123.65</ele>
        <time>2026-08-07T06:46:44.515Z</time>
      </trkpt>
      <trkpt lat="49.48449" lon="5.16304">
        <ele>123.58</ele>
        <time>2026-08-07T06:46:50.513Z</time>
      </trkpt>
      <trkpt lat="49.48479" lon="5.16292">
        <ele>123.58</ele>
        <time>2026-08-07T06:46:56.515Z</time>
      </trkpt>
      <trkpt lat="49.4851" lon="5.16281">
        <ele>124.1</ele>
        <time>2026-08-07T06:47:02.500Z</time>
      </trkpt>
      <trkpt lat="49.48538" lon="5.16274">
        <ele>123.53</ele>
        <time>2026-08-07T06:47:08.516Z</time>
      </trkpt>
      <trkpt lat="49.48566" lon="5.16266">
        <ele>121.3</ele>
        <time>2026-08-07T06:47:14.515Z</time>
      </trkpt>
      <trkpt lat="49.48597" lon="5.16257">
        <ele>119.81</ele>
        <time>2026-08-07T06:47:20.519Z</time>
      </trkpt>
      <trkpt lat="49.48629" lon="5.16249">
        <ele>120.05</ele>
        <time>2026-08-07T06:47:26.517Z</time>
      </trkpt>
      <trkpt lat="49.48662" lon="5.16239">
        <ele>119.83</ele>
        <time>2026-08-07T06:47:32.515Z</time>
      </trkpt>
      <trkpt lat="49.48696" lon="5.16228">
        <ele>120.26</ele>
        <time>2026-08-07T06:47:38.518Z</time>
      </trkpt>
      <trkpt lat="49.48729" lon="5.16213">
        <ele>121.25</ele>
        <time>2026-08-07T06:47:44.518Z</time>
      </trkpt>
      <trkpt lat="49.48762" lon="5.16198">
        <ele>121.53</ele>
        <time>2026-08-07T06:47:50.516Z</time>
      </trkpt>
      <trkpt lat="49.48793" lon="5.16183">
        <ele>121.35</ele>
        <time>2026-08-07T06:47:56.514Z</time>
      </trkpt>
      <trkpt lat="49.48825" lon="5.16171">
        <ele>121.47</ele>
        <time>2026-08-07T06:48:02.513Z</time>
      </trkpt>
      <trkpt lat="49.48857" lon="5.16166">
        <ele>120.36</ele>
        <time>2026-08-07T06:48:08.518Z</time>
      </trkpt>
      <trkpt lat="49.48886" lon="5.16162">
        <ele>120.23</ele>
        <time>2026-08-07T06:48:14.517Z</time>
      </trkpt>
      <trkpt lat="49.48913" lon="5.16155">
        <ele>121.27</ele>
        <time>2026-08-07T06:48:20.517Z</time>
      </trkpt>
      <trkpt lat="49.4894" lon="5.16139">
        <ele>120.52</ele>
        <time>2026-08-07T06:48:26.498Z</time>
      </trkpt>
      <trkpt lat="49.48966" lon="5.16125">
        <ele>122.06</ele>
        <time>2026-08-07T06:48:32.495Z</time>
      </trkpt>
      <trkpt lat="49.48981" lon="5.16121">
        <ele>122.24</ele>
        <time>2026-08-07T06:48:38.518Z</time>
      </trkpt>
      <trkpt lat="49.48989" lon="5.16149">
        <ele>121.78</ele>
        <time>2026-08-07T06:48:44.516Z</time>
      </trkpt>
      <trkpt lat="49.48998" lon="5.16191">
        <ele>120.95</ele>
        <time>2026-08-07T06:48:50.515Z</time>
      </trkpt>
      <trkpt lat="49.4901" lon="5.1623">
        <ele>119.53</ele>
        <time>2026-08-07T06:48:56.517Z</time>
      </trkpt>
      <trkpt lat="49.4903" lon="5.16258">
        <ele>118.78</ele>
        <time>2026-08-07T06:49:02.508Z</time>
      </trkpt>
      <trkpt lat="49.49051" lon="5.16286">
        <ele>118.53</ele>
        <time>2026-08-07T06:49:08.517Z</time>
      </trkpt>
      <trkpt lat="49.49074" lon="5.16315">
        <ele>118.93</ele>
        <time>2026-08-07T06:49:14.515Z</time>
      </trkpt>
      <trkpt lat="49.49093" lon="5.16341">
        <ele>121.58</ele>
        <time>2026-08-07T06:49:20.514Z</time>
      </trkpt>
      <trkpt lat="49.49112" lon="5.16359">
        <ele>123.11</ele>
        <time>2026-08-07T06:49:26.518Z</time>
      </trkpt>
      <trkpt lat="49.49134" lon="5.16338">
        <ele>121.33</ele>
        <time>2026-08-07T06:49:32.514Z</time>
      </trkpt>
      <trkpt lat="49.49145" lon="5.16317">
        <ele>121.49</ele>
        <time>2026-08-07T06:49:38.516Z</time>
      </trkpt>
      <trkpt lat="49.49142" lon="5.16331">
        <ele>123.04</ele>
        <time>2026-08-07T06:49:45.460Z</time>
      </trkpt>
      <trkpt lat="49.49142" lon="5.16346">
        <ele>123.81</ele>
        <time>2026-08-07T06:50:02.520Z</time>
      </trkpt>
      <trkpt lat="49.4915" lon="5.16355">
        <ele>123.78</ele>
        <time>2026-08-07T06:50:13.453Z</time>
      </trkpt>
      <trkpt lat="49.49141" lon="5.16349">
        <ele>121.88</ele>
        <time>2026-08-07T06:50:53.452Z</time>
      </trkpt>
      <trkpt lat="49.49143" lon="5.1633">
        <ele>121.42</ele>
        <time>2026-08-07T06:52:02.503Z</time>
      </trkpt>
      <trkpt lat="49.49151" lon="5.16308">
        <ele>121.4</ele>
        <time>2026-08-07T06:52:08.509Z</time>
      </trkpt>
      <trkpt lat="49.49157" lon="5.16289">
        <ele>121.08</ele>
        <time>2026-08-07T06:52:14.514Z</time>
      </trkpt>
      <trkpt lat="49.49163" lon="5.16271">
        <ele>121.65</ele>
        <time>2026-08-07T06:52:20.510Z</time>
      </trkpt>
      <trkpt lat="49.49177" lon="5.16255">
        <ele>120.64</ele>
        <time>2026-08-07T06:52:26.510Z</time>
      </trkpt>
      <trkpt lat="49.49191" lon="5.1624">
        <ele>120.45</ele>
        <time>2026-08-07T06:52:32.514Z</time>
      </trkpt>
      <trkpt lat="49.49207" lon="5.16225">
        <ele>120.95</ele>
        <time>2026-08-07T06:52:38.514Z</time>
      </trkpt>
      <trkpt lat="49.49224" lon="5.16209">
        <ele>122.07</ele>
        <time>2026-08-07T06:52:44.516Z</time>
      </trkpt>
      <trkpt lat="49.49242" lon="5.16194">
        <ele>121.8</ele>
        <time>2026-08-07T06:52:50.514Z</time>
      </trkpt>
      <trkpt lat="49.4926" lon="5.16179">
        <ele>121.71</ele>
        <time>2026-08-07T06:52:56.516Z</time>
      </trkpt>
      <trkpt lat="49.4928" lon="5.16162">
        <ele>122.41</ele>
        <time>2026-08-07T06:53:02.516Z</time>
      </trkpt>
      <trkpt lat="49.49299" lon="5.16148">
        <ele>123.13</ele>
        <time>2026-08-07T06:53:08.528Z</time>
      </trkpt>
      <trkpt lat="49.4932" lon="5.16132">
        <ele>123.62</ele>
        <time>2026-08-07T06:53:14.514Z</time>
      </trkpt>
      <trkpt lat="49.49342" lon="5.16116">
        <ele>124.4</ele>
        <time>2026-08-07T06:53:20.519Z</time>
      </trkpt>
      <trkpt lat="49.49365" lon="5.16103">
        <ele>125.69</ele>
        <time>2026-08-07T06:53:26.517Z</time>
      </trkpt>
      <trkpt lat="49.49388" lon="5.16089">
        <ele>125.04</ele>
        <time>2026-08-07T06:53:32.518Z</time>
      </trkpt>
      <trkpt lat="49.49411" lon="5.16075">
        <ele>125.65</ele>
        <time>2026-08-07T06:53:38.515Z</time>
      </trkpt>
      <trkpt lat="49.49435" lon="5.16055">
        <ele>124.83</ele>
        <time>2026-08-07T06:53:44.514Z</time>
      </trkpt>
      <trkpt lat="49.49461" lon="5.16047">
        <ele>124.25</ele>
        <time>2026-08-07T06:53:50.515Z</time>
      </trkpt>
      <trkpt lat="49.49487" lon="5.1605">
        <ele>124.23</ele>
        <time>2026-08-07T06:53:56.516Z</time>
      </trkpt>
      <trkpt lat="49.49513" lon="5.16044">
        <ele>125.38</ele>
        <time>2026-08-07T06:54:02.514Z</time>
      </trkpt>
      <trkpt lat="49.49537" lon="5.16026">
        <ele>126.65</ele>
        <time>2026-08-07T06:54:08.516Z</time>
      </trkpt>
      <trkpt lat="49.49558" lon="5.16004">
        <ele>127.34</ele>
        <time>2026-08-07T06:54:14.517Z</time>
      </trkpt>
      <trkpt lat="49.49579" lon="5.1598">
        <ele>127.36</ele>
        <time>2026-08-07T06:54:20.517Z</time>
      </trkpt>
      <trkpt lat="49.49597" lon="5.15952">
        <ele>127.27</ele>
        <time>2026-08-07T06:54:26.512Z</time>
      </trkpt>
      <trkpt lat="49.49615" lon="5.15922">
        <ele>126.38</ele>
        <time>2026-08-07T06:54:32.515Z</time>
      </trkpt>
      <trkpt lat="49.49633" lon="5.15893">
        <ele>125.04</ele>
        <time>2026-08-07T06:54:38.515Z</time>
      </trkpt>
      <trkpt lat="49.49655" lon="5.15869">
        <ele>124.32</ele>
        <time>2026-08-07T06:54:44.514Z</time>
      </trkpt>
      <trkpt lat="49.49679" lon="5.15853">
        <ele>124.51</ele>
        <time>2026-08-07T06:54:50.513Z</time>
      </trkpt>
      <trkpt lat="49.49704" lon="5.15845">
        <ele>124.13</ele>
        <time>2026-08-07T06:54:56.516Z</time>
      </trkpt>
      <trkpt lat="49.49728" lon="5.15839">
        <ele>124.67</ele>
        <time>2026-08-07T06:55:02.502Z</time>
      </trkpt>
      <trkpt lat="49.49752" lon="5.15832">
        <ele>125.35</ele>
        <time>2026-08-07T06:55:08.517Z</time>
      </trkpt>
      <trkpt lat="49.49776" lon="5.15824">
        <ele>126.48</ele>
        <time>2026-08-07T06:55:14.514Z</time>
      </trkpt>
      <trkpt lat="49.498" lon="5.15809">
        <ele>126.1</ele>
        <time>2026-08-07T06:55:20.515Z</time>
      </trkpt>
      <trkpt lat="49.49827" lon="5.15793">
        <ele>125.19</ele>
        <time>2026-08-07T06:55:26.513Z</time>
      </trkpt>
      <trkpt lat="49.49855" lon="5.15779">
        <ele>123.71</ele>
        <time>2026-08-07T06:55:32.513Z</time>
      </trkpt>
      <trkpt lat="49.49884" lon="5.15766">
        <ele>123.43</ele>
        <time>2026-08-07T06:55:38.513Z</time>
      </trkpt>
      <trkpt lat="49.49913" lon="5.15753">
        <ele>123.5</ele>
        <time>2026-08-07T06:55:44.513Z</time>
      </trkpt>
      <trkpt lat="49.49942" lon="5.15741">
        <ele>123.91</ele>
        <time>2026-08-07T06:55:50.516Z</time>
      </trkpt>
      <trkpt lat="49.4997" lon="5.1573">
        <ele>122.88</ele>
        <time>2026-08-07T06:55:56.515Z</time>
      </trkpt>
      <trkpt lat="49.5" lon="5.15719">
        <ele>123.44</ele>
        <time>2026-08-07T06:56:02.517Z</time>
      </trkpt>
      <trkpt lat="49.50028" lon="5.15709">
        <ele>124.01</ele>
        <time>2026-08-07T06:56:08.517Z</time>
      </trkpt>
      <trkpt lat="49.50055" lon="5.15701">
        <ele>124.78</ele>
        <time>2026-08-07T06:56:14.511Z</time>
      </trkpt>
      <trkpt lat="49.50082" lon="5.15692">
        <ele>125.34</ele>
        <time>2026-08-07T06:56:20.513Z</time>
      </trkpt>
      <trkpt lat="49.5011" lon="5.1568">
        <ele>125.96</ele>
        <time>2026-08-07T06:56:26.515Z</time>
      </trkpt>
      <trkpt lat="49.50138" lon="5.15665">
        <ele>125.54</ele>
        <time>2026-08-07T06:56:32.512Z</time>
      </trkpt>
      <trkpt lat="49.50166" lon="5.1565">
        <ele>124.51</ele>
        <time>2026-08-07T06:56:38.511Z</time>
      </trkpt>
      <trkpt lat="49.50195" lon="5.15635">
        <ele>124.66</ele>
        <time>2026-08-07T06:56:44.509Z</time>
      </trkpt>
      <trkpt lat="49.50225" lon="5.15623">
        <ele>123.22</ele>
        <time>2026-08-07T06:56:50.511Z</time>
      </trkpt>
      <trkpt lat="49.50261" lon="5.15615">
        <ele>123.07</ele>
        <time>2026-08-07T06:56:56.514Z</time>
      </trkpt>
      <trkpt lat="49.50297" lon="5.15622">
        <ele>122.91</ele>
        <time>2026-08-07T06:57:02.510Z</time>
      </trkpt>
      <trkpt lat="49.50329" lon="5.15638">
        <ele>121.25</ele>
        <time>2026-08-07T06:57:08.510Z</time>
      </trkpt>
      <trkpt lat="49.50358" lon="5.15655">
        <ele>121.05</ele>
        <time>2026-08-07T06:57:14.512Z</time>
      </trkpt>
      <trkpt lat="49.50384" lon="5.15678">
        <ele>121.12</ele>
        <time>2026-08-07T06:57:20.508Z</time>
      </trkpt>
      <trkpt lat="49.50407" lon="5.15709">
        <ele>121.78</ele>
        <time>2026-08-07T06:57:26.514Z</time>
      </trkpt>
      <trkpt lat="49.5043" lon="5.15739">
        <ele>122.15</ele>
        <time>2026-08-07T06:57:32.514Z</time>
      </trkpt>
      <trkpt lat="49.50454" lon="5.15758">
        <ele>122.61</ele>
        <time>2026-08-07T06:57:38.513Z</time>
      </trkpt>
      <trkpt lat="49.50479" lon="5.15769">
        <ele>123.28</ele>
        <time>2026-08-07T06:57:44.515Z</time>
      </trkpt>
      <trkpt lat="49.50506" lon="5.15774">
        <ele>123.95</ele>
        <time>2026-08-07T06:57:50.513Z</time>
      </trkpt>
      <trkpt lat="49.50534" lon="5.15777">
        <ele>124.14</ele>
        <time>2026-08-07T06:57:56.511Z</time>
      </trkpt>
      <trkpt lat="49.50561" lon="5.15779">
        <ele>124.42</ele>
        <time>2026-08-07T06:58:02.514Z</time>
      </trkpt>
      <trkpt lat="49.50588" lon="5.1578">
        <ele>124.4</ele>
        <time>2026-08-07T06:58:08.517Z</time>
      </trkpt>
      <trkpt lat="49.50615" lon="5.1578">
        <ele>123.7</ele>
        <time>2026-08-07T06:58:14.514Z</time>
      </trkpt>
      <trkpt lat="49.50642" lon="5.15782">
        <ele>123.5</ele>
        <time>2026-08-07T06:58:20.517Z</time>
      </trkpt>
      <trkpt lat="49.50668" lon="5.15784">
        <ele>124.23</ele>
        <time>2026-08-07T06:58:26.489Z</time>
      </trkpt>
      <trkpt lat="49.50697" lon="5.15789">
        <ele>124.43</ele>
        <time>2026-08-07T06:58:32.516Z</time>
      </trkpt>
      <trkpt lat="49.50726" lon="5.15795">
        <ele>123.91</ele>
        <time>2026-08-07T06:58:38.512Z</time>
      </trkpt>
      <trkpt lat="49.50755" lon="5.15801">
        <ele>123.29</ele>
        <time>2026-08-07T06:58:44.515Z</time>
      </trkpt>
      <trkpt lat="49.50786" lon="5.15806">
        <ele>122.46</ele>
        <time>2026-08-07T06:58:50.511Z</time>
      </trkpt>
      <trkpt lat="49.50818" lon="5.15814">
        <ele>122.86</ele>
        <time>2026-08-07T06:58:56.512Z</time>
      </trkpt>
      <trkpt lat="49.50853" lon="5.15824">
        <ele>122.15</ele>
        <time>2026-08-07T06:59:02.517Z</time>
      </trkpt>
      <trkpt lat="49.50889" lon="5.15845">
        <ele>120.66</ele>
        <time>2026-08-07T06:59:08.512Z</time>
      </trkpt>
      <trkpt lat="49.5091" lon="5.15895">
        <ele>120.01</ele>
        <time>2026-08-07T06:59:14.512Z</time>
      </trkpt>
      <trkpt lat="49.50929" lon="5.15939">
        <ele>120.51</ele>
        <time>2026-08-07T06:59:20.505Z</time>
      </trkpt>
      <trkpt lat="49.50962" lon="5.15961">
        <ele>120.29</ele>
        <time>2026-08-07T06:59:26.513Z</time>
      </trkpt>
      <trkpt lat="49.50998" lon="5.15962">
        <ele>120.03</ele>
        <time>2026-08-07T06:59:32.517Z</time>
      </trkpt>
      <trkpt lat="49.51031" lon="5.15961">
        <ele>119.45</ele>
        <time>2026-08-07T06:59:38.515Z</time>
      </trkpt>
      <trkpt lat="49.51062" lon="5.15955">
        <ele>120.51</ele>
        <time>2026-08-07T06:59:44.513Z</time>
      </trkpt>
      <trkpt lat="49.5109" lon="5.15941">
        <ele>121.09</ele>
        <time>2026-08-07T06:59:50.513Z</time>
      </trkpt>
      <trkpt lat="49.51108" lon="5.15907">
        <ele>120.66</ele>
        <time>2026-08-07T06:59:56.510Z</time>
      </trkpt>
      <trkpt lat="49.51129" lon="5.15879">
        <ele>119.54</ele>
        <time>2026-08-07T07:00:02.514Z</time>
      </trkpt>
      <trkpt lat="49.51148" lon="5.15858">
        <ele>119.12</ele>
        <time>2026-08-07T07:00:08.516Z</time>
      </trkpt>
      <trkpt lat="49.51167" lon="5.15845">
        <ele>120.83</ele>
        <time>2026-08-07T07:00:14.514Z</time>
      </trkpt>
      <trkpt lat="49.51183" lon="5.15838">
        <ele>119.22</ele>
        <time>2026-08-07T07:00:20.513Z</time>
      </trkpt>
      <trkpt lat="49.51205" lon="5.15835">
        <ele>120.09</ele>
        <time>2026-08-07T07:00:26.515Z</time>
      </trkpt>
      <trkpt lat="49.51229" lon="5.15834">
        <ele>119.85</ele>
        <time>2026-08-07T07:00:32.514Z</time>
      </trkpt>
      <trkpt lat="49.5125" lon="5.15831">
        <ele>121.47</ele>
        <time>2026-08-07T07:00:38.517Z</time>
      </trkpt>
      <trkpt lat="49.5126" lon="5.15873">
        <ele>118.64</ele>
        <time>2026-08-07T07:00:44.513Z</time>
      </trkpt>
      <trkpt lat="49.51277" lon="5.15938">
        <ele>119.31</ele>
        <time>2026-08-07T07:00:50.515Z</time>
      </trkpt>
      <trkpt lat="49.51295" lon="5.15994">
        <ele>120.15</ele>
        <time>2026-08-07T07:00:56.503Z</time>
      </trkpt>
      <trkpt lat="49.51329" lon="5.15986">
        <ele>119.27</ele>
        <time>2026-08-07T07:01:02.490Z</time>
      </trkpt>
      <trkpt lat="49.51361" lon="5.15964">
        <ele>119.04</ele>
        <time>2026-08-07T07:01:08.517Z</time>
      </trkpt>
      <trkpt lat="49.5139" lon="5.15945">
        <ele>118.89</ele>
        <time>2026-08-07T07:01:14.499Z</time>
      </trkpt>
      <trkpt lat="49.51414" lon="5.15916">
        <ele>118.76</ele>
        <time>2026-08-07T07:01:20.514Z</time>
      </trkpt>
      <trkpt lat="49.51436" lon="5.15884">
        <ele>119.25</ele>
        <time>2026-08-07T07:01:26.511Z</time>
      </trkpt>
      <trkpt lat="49.51449" lon="5.15848">
        <ele>117.29</ele>
        <time>2026-08-07T07:01:32.509Z</time>
      </trkpt>
      <trkpt lat="49.51434" lon="5.15812">
        <ele>117.98</ele>
        <time>2026-08-07T07:01:38.511Z</time>
      </trkpt>
      <trkpt lat="49.51425" lon="5.15771">
        <ele>119.19</ele>
        <time>2026-08-07T07:01:44.519Z</time>
      </trkpt>
      <trkpt lat="49.51451" lon="5.15746">
        <ele>120.98</ele>
        <time>2026-08-07T07:01:50.513Z</time>
      </trkpt>
      <trkpt lat="49.51478" lon="5.15721">
        <ele>122.18</ele>
        <time>2026-08-07T07:01:56.500Z</time>
      </trkpt>
      <trkpt lat="49.51502" lon="5.15692">
        <ele>122.38</ele>
        <time>2026-08-07T07:02:02.512Z</time>
      </trkpt>
      <trkpt lat="49.51525" lon="5.15664">
        <ele>121.5</ele>
        <time>2026-08-07T07:02:08.515Z</time>
      </trkpt>
      <trkpt lat="49.51552" lon="5.1564">
        <ele>121.86</ele>
        <time>2026-08-07T07:02:14.515Z</time>
      </trkpt>
      <trkpt lat="49.5158" lon="5.15628">
        <ele>121.72</ele>
        <time>2026-08-07T07:02:20.512Z</time>
      </trkpt>
      <trkpt lat="49.51608" lon="5.15616">
        <ele>120.91</ele>
        <time>2026-08-07T07:02:26.510Z</time>
      </trkpt>
      <trkpt lat="49.51636" lon="5.15603">
        <ele>121.38</ele>
        <time>2026-08-07T07:02:32.512Z</time>
      </trkpt>
      <trkpt lat="49.51665" lon="5.15591">
        <ele>122.66</ele>
        <time>2026-08-07T07:02:38.516Z</time>
      </trkpt>
      <trkpt lat="49.51695" lon="5.15582">
        <ele>122.49</ele>
        <time>2026-08-07T07:02:44.509Z</time>
      </trkpt>
      <trkpt lat="49.51724" lon="5.15577">
        <ele>122.59</ele>
        <time>2026-08-07T07:02:50.513Z</time>
      </trkpt>
      <trkpt lat="49.51751" lon="5.1556">
        <ele>122.31</ele>
        <time>2026-08-07T07:02:56.510Z</time>
      </trkpt>
      <trkpt lat="49.51783" lon="5.15551">
        <ele>121.16</ele>
        <time>2026-08-07T07:03:02.514Z</time>
      </trkpt>
      <trkpt lat="49.51816" lon="5.15551">
        <ele>121.54</ele>
        <time>2026-08-07T07:03:08.514Z</time>
      </trkpt>
      <trkpt lat="49.5185" lon="5.15549">
        <ele>121.08</ele>
        <time>2026-08-07T07:03:14.510Z</time>
      </trkpt>
      <trkpt lat="49.51883" lon="5.15549">
        <ele>122.54</ele>
        <time>2026-08-07T07:03:20.512Z</time>
      </trkpt>
      <trkpt lat="49.51914" lon="5.15558">
        <ele>123.51</ele>
        <time>2026-08-07T07:03:26.512Z</time>
      </trkpt>
      <trkpt lat="49.51947" lon="5.15572">
        <ele>123.03</ele>
        <time>2026-08-07T07:03:32.505Z</time>
      </trkpt>
      <trkpt lat="49.51978" lon="5.15585">
        <ele>122.98</ele>
        <time>2026-08-07T07:03:38.510Z</time>
      </trkpt>
      <trkpt lat="49.52007" lon="5.15598">
        <ele>123.55</ele>
        <time>2026-08-07T07:03:44.512Z</time>
      </trkpt>
      <trkpt lat="49.52033" lon="5.1561">
        <ele>124.74</ele>
        <time>2026-08-07T07:03:50.517Z</time>
      </trkpt>
      <trkpt lat="49.5206" lon="5.15621">
        <ele>125.51</ele>
        <time>2026-08-07T07:03:56.514Z</time>
      </trkpt>
      <trkpt lat="49.52084" lon="5.15626">
        <ele>127.19</ele>
        <time>2026-08-07T07:04:02.517Z</time>
      </trkpt>
      <trkpt lat="49.5211" lon="5.1563">
        <ele>126.59</ele>
        <time>2026-08-07T07:04:08.513Z</time>
      </trkpt>
      <trkpt lat="49.52139" lon="5.15633">
        <ele>126.51</ele>
        <time>2026-08-07T07:04:14.516Z</time>
      </trkpt>
      <trkpt lat="49.52167" lon="5.15637">
        <ele>126.13</ele>
        <time>2026-08-07T07:04:20.512Z</time>
      </trkpt>
      <trkpt lat="49.52194" lon="5.1564">
        <ele>126.07</ele>
        <time>2026-08-07T07:04:26.514Z</time>
      </trkpt>
      <trkpt lat="49.5222" lon="5.15644">
        <ele>128.03</ele>
        <time>2026-08-07T07:04:32.519Z</time>
      </trkpt>
      <trkpt lat="49.52249" lon="5.15646">
        <ele>130.04</ele>
        <time>2026-08-07T07:04:38.516Z</time>
      </trkpt>
      <trkpt lat="49.52284" lon="5.1565">
        <ele>129.95</ele>
        <time>2026-08-07T07:04:44.517Z</time>
      </trkpt>
      <trkpt lat="49.52322" lon="5.15647">
        <ele>129.74</ele>
        <time>2026-08-07T07:04:50.515Z</time>
      </trkpt>
      <trkpt lat="49.52357" lon="5.15639">
        <ele>127.63</ele>
        <time>2026-08-07T07:04:56.516Z</time>
      </trkpt>
      <trkpt lat="49.52393" lon="5.15633">
        <ele>124.05</ele>
        <time>2026-08-07T07:05:02.538Z</time>
      </trkpt>
      <trkpt lat="49.52426" lon="5.15622">
        <ele>124.52</ele>
        <time>2026-08-07T07:05:08.513Z</time>
      </trkpt>
      <trkpt lat="49.52454" lon="5.15612">
        <ele>124.93</ele>
        <time>2026-08-07T07:05:14.513Z</time>
      </trkpt>
      <trkpt lat="49.52474" lon="5.1561">
        <ele>126.77</ele>
        <time>2026-08-07T07:05:20.515Z</time>
      </trkpt>
      <trkpt lat="49.52488" lon="5.15642">
        <ele>129.87</ele>
        <time>2026-08-07T07:05:26.515Z</time>
      </trkpt>
      <trkpt lat="49.52511" lon="5.1566">
        <ele>128.85</ele>
        <time>2026-08-07T07:05:32.516Z</time>
      </trkpt>
      <trkpt lat="49.52541" lon="5.15693">
        <ele>123.35</ele>
        <time>2026-08-07T07:05:38.514Z</time>
      </trkpt>
      <trkpt lat="49.52562" lon="5.15753">
        <ele>120.86</ele>
        <time>2026-08-07T07:05:44.517Z</time>
      </trkpt>
      <trkpt lat="49.52605" lon="5.15765">
        <ele>119.76</ele>
        <time>2026-08-07T07:05:50.516Z</time>
      </trkpt>
      <trkpt lat="49.52643" lon="5.15772">
        <ele>118.73</ele>
        <time>2026-08-07T07:05:56.511Z</time>
      </trkpt>
      <trkpt lat="49.52679" lon="5.15787">
        <ele>118.24</ele>
        <time>2026-08-07T07:06:02.524Z</time>
      </trkpt>
      <trkpt lat="49.52712" lon="5.15806">
        <ele>117.77</ele>
        <time>2026-08-07T07:06:08.513Z</time>
      </trkpt>
      <trkpt lat="49.52745" lon="5.15824">
        <ele>117.88</ele>
        <time>2026-08-07T07:06:14.516Z</time>
      </trkpt>
      <trkpt lat="49.52778" lon="5.15842">
        <ele>118.78</ele>
        <time>2026-08-07T07:06:20.513Z</time>
      </trkpt>
      <trkpt lat="49.52811" lon="5.15855">
        <ele>118.59</ele>
        <time>2026-08-07T07:06:26.514Z</time>
      </trkpt>
      <trkpt lat="49.52843" lon="5.15843">
        <ele>119.29</ele>
        <time>2026-08-07T07:06:32.514Z</time>
      </trkpt>
      <trkpt lat="49.52872" lon="5.15819">
        <ele>120.37</ele>
        <time>2026-08-07T07:06:38.513Z</time>
      </trkpt>
      <trkpt lat="49.52899" lon="5.15796">
        <ele>120.79</ele>
        <time>2026-08-07T07:06:44.514Z</time>
      </trkpt>
      <trkpt lat="49.52924" lon="5.15777">
        <ele>120.38</ele>
        <time>2026-08-07T07:06:50.513Z</time>
      </trkpt>
      <trkpt lat="49.5295" lon="5.1577">
        <ele>121.12</ele>
        <time>2026-08-07T07:06:56.513Z</time>
      </trkpt>
      <trkpt lat="49.52978" lon="5.15769">
        <ele>123.25</ele>
        <time>2026-08-07T07:07:02.510Z</time>
      </trkpt>
      <trkpt lat="49.53" lon="5.15768">
        <ele>124.93</ele>
        <time>2026-08-07T07:07:08.505Z</time>
      </trkpt>
      <trkpt lat="49.5302" lon="5.15767">
        <ele>126.6</ele>
        <time>2026-08-07T07:07:14.515Z</time>
      </trkpt>
      <trkpt lat="49.53047" lon="5.15767">
        <ele>126.75</ele>
        <time>2026-08-07T07:07:20.515Z</time>
      </trkpt>
      <trkpt lat="49.53072" lon="5.15765">
        <ele>127.75</ele>
        <time>2026-08-07T07:07:26.511Z</time>
      </trkpt>
      <trkpt lat="49.53096" lon="5.15761">
        <ele>128.52</ele>
        <time>2026-08-07T07:07:32.511Z</time>
      </trkpt>
      <trkpt lat="49.53118" lon="5.15757">
        <ele>129.58</ele>
        <time>2026-08-07T07:07:38.510Z</time>
      </trkpt>
      <trkpt lat="49.53141" lon="5.15752">
        <ele>130.08</ele>
        <time>2026-08-07T07:07:44.512Z</time>
      </trkpt>
      <trkpt lat="49.53164" lon="5.15748">
        <ele>129.76</ele>
        <time>2026-08-07T07:07:50.515Z</time>
      </trkpt>
      <trkpt lat="49.53188" lon="5.15746">
        <ele>130.9</ele>
        <time>2026-08-07T07:07:56.511Z</time>
      </trkpt>
      <trkpt lat="49.53215" lon="5.15746">
        <ele>130.35</ele>
        <time>2026-08-07T07:08:02.511Z</time>
      </trkpt>
      <trkpt lat="49.53244" lon="5.15747">
        <ele>130.22</ele>
        <time>2026-08-07T07:08:08.513Z</time>
      </trkpt>
      <trkpt lat="49.5327" lon="5.15747">
        <ele>130.58</ele>
        <time>2026-08-07T07:08:14.513Z</time>
      </trkpt>
      <trkpt lat="49.53296" lon="5.15748">
        <ele>131.36</ele>
        <time>2026-08-07T07:08:20.502Z</time>
      </trkpt>
      <trkpt lat="49.53316" lon="5.1575">
        <ele>128.44</ele>
        <time>2026-08-07T07:08:26.515Z</time>
      </trkpt>
      <trkpt lat="49.53353" lon="5.15731">
        <ele>127.7</ele>
        <time>2026-08-07T07:08:32.514Z</time>
      </trkpt>
      <trkpt lat="49.53387" lon="5.15691">
        <ele>125.72</ele>
        <time>2026-08-07T07:08:38.510Z</time>
      </trkpt>
      <trkpt lat="49.53417" lon="5.15654">
        <ele>124.67</ele>
        <time>2026-08-07T07:08:44.515Z</time>
      </trkpt>
      <trkpt lat="49.5344" lon="5.15624">
        <ele>125.85</ele>
        <time>2026-08-07T07:08:50.515Z</time>
      </trkpt>
      <trkpt lat="49.53465" lon="5.15591">
        <ele>127.49</ele>
        <time>2026-08-07T07:08:56.515Z</time>
      </trkpt>
      <trkpt lat="49.53483" lon="5.15564">
        <ele>130.77</ele>
        <time>2026-08-07T07:09:02.511Z</time>
      </trkpt>
      <trkpt lat="49.53499" lon="5.1554">
        <ele>129.97</ele>
        <time>2026-08-07T07:09:08.510Z</time>
      </trkpt>
      <trkpt lat="49.53514" lon="5.15509">
        <ele>131.21</ele>
        <time>2026-08-07T07:09:14.509Z</time>
      </trkpt>
      <trkpt lat="49.53529" lon="5.1548">
        <ele>131.93</ele>
        <time>2026-08-07T07:09:20.510Z</time>
      </trkpt>
      <trkpt lat="49.53542" lon="5.15451">
        <ele>132.05</ele>
        <time>2026-08-07T07:09:26.513Z</time>
      </trkpt>
      <trkpt lat="49.53554" lon="5.15424">
        <ele>132.38</ele>
        <time>2026-08-07T07:09:32.515Z</time>
      </trkpt>
      <trkpt lat="49.53567" lon="5.15398">
        <ele>132.57</ele>
        <time>2026-08-07T07:09:38.512Z</time>
      </trkpt>
      <trkpt lat="49.53579" lon="5.15372">
        <ele>133.35</ele>
        <time>2026-08-07T07:09:44.512Z</time>
      </trkpt>
      <trkpt lat="49.53589" lon="5.15349">
        <ele>133.38</ele>
        <time>2026-08-07T07:09:50.516Z</time>
      </trkpt>
      <trkpt lat="49.53599" lon="5.15327">
        <ele>133.5</ele>
        <time>2026-08-07T07:09:56.514Z</time>
      </trkpt>
      <trkpt lat="49.53609" lon="5.15307">
        <ele>135.57</ele>
        <time>2026-08-07T07:10:02.513Z</time>
      </trkpt>
      <trkpt lat="49.53619" lon="5.15287">
        <ele>136.14</ele>
        <time>2026-08-07T07:10:08.514Z</time>
      </trkpt>
      <trkpt lat="49.5363" lon="5.15263">
        <ele>137.58</ele>
        <time>2026-08-07T07:10:14.515Z</time>
      </trkpt>
      <trkpt lat="49.53644" lon="5.15238">
        <ele>136.78</ele>
        <time>2026-08-07T07:10:20.510Z</time>
      </trkpt>
      <trkpt lat="49.53651" lon="5.15199">
        <ele>134.24</ele>
        <time>2026-08-07T07:10:26.512Z</time>
      </trkpt>
      <trkpt lat="49.53652" lon="5.15136">
        <ele>129.3</ele>
        <time>2026-08-07T07:10:32.513Z</time>
      </trkpt>
      <trkpt lat="49.53669" lon="5.15082">
        <ele>127.95</ele>
        <time>2026-08-07T07:10:38.508Z</time>
      </trkpt>
      <trkpt lat="49.53685" lon="5.15065">
        <ele>132.43</ele>
        <time>2026-08-07T07:10:44.512Z</time>
      </trkpt>
      <trkpt lat="49.53694" lon="5.15052">
        <ele>136.19</ele>
        <time>2026-08-07T07:10:50.516Z</time>
      </trkpt>
      <trkpt lat="49.537" lon="5.15041">
        <ele>137.62</ele>
        <time>2026-08-07T07:10:56.502Z</time>
      </trkpt>
      <trkpt lat="49.53709" lon="5.1503">
        <ele>137.54</ele>
        <time>2026-08-07T07:11:02.508Z</time>
      </trkpt>
      <trkpt lat="49.53717" lon="5.15015">
        <ele>137.22</ele>
        <time>2026-08-07T07:11:08.513Z</time>
      </trkpt>
      <trkpt lat="49.53723" lon="5.14998">
        <ele>136.76</ele>
        <time>2026-08-07T07:11:14.513Z</time>
      </trkpt>
      <trkpt lat="49.53729" lon="5.14982">
        <ele>138.24</ele>
        <time>2026-08-07T07:11:20.504Z</time>
      </trkpt>
      <trkpt lat="49.53734" lon="5.14968">
        <ele>140.57</ele>
        <time>2026-08-07T07:11:26.513Z</time>
      </trkpt>
      <trkpt lat="49.5374" lon="5.14952">
        <ele>142.8</ele>
        <time>2026-08-07T07:11:32.512Z</time>
      </trkpt>
      <trkpt lat="49.53744" lon="5.14936">
        <ele>143.8</ele>
        <time>2026-08-07T07:11:38.511Z</time>
      </trkpt>
      <trkpt lat="49.53748" lon="5.1492">
        <ele>144.51</ele>
        <time>2026-08-07T07:11:44.512Z</time>
      </trkpt>
      <trkpt lat="49.53753" lon="5.14904">
        <ele>144.14</ele>
        <time>2026-08-07T07:11:50.508Z</time>
      </trkpt>
      <trkpt lat="49.53756" lon="5.14887">
        <ele>145.43</ele>
        <time>2026-08-07T07:11:56.508Z</time>
      </trkpt>
      <trkpt lat="49.5376" lon="5.14868">
        <ele>146.62</ele>
        <time>2026-08-07T07:12:02.513Z</time>
      </trkpt>
      <trkpt lat="49.53763" lon="5.14852">
        <ele>147.73</ele>
        <time>2026-08-07T07:12:08.504Z</time>
      </trkpt>
      <trkpt lat="49.53765" lon="5.14832">
        <ele>147.54</ele>
        <time>2026-08-07T07:12:14.513Z</time>
      </trkpt>
      <trkpt lat="49.53768" lon="5.14812">
        <ele>149.68</ele>
        <time>2026-08-07T07:12:20.508Z</time>
      </trkpt>
      <trkpt lat="49.53768" lon="5.14793">
        <ele>150.7</ele>
        <time>2026-08-07T07:12:26.514Z</time>
      </trkpt>
      <trkpt lat="49.53768" lon="5.14775">
        <ele>152.49</ele>
        <time>2026-08-07T07:12:32.511Z</time>
      </trkpt>
      <trkpt lat="49.53768" lon="5.14758">
        <ele>153.72</ele>
        <time>2026-08-07T07:12:38.510Z</time>
      </trkpt>
      <trkpt lat="49.53768" lon="5.14742">
        <ele>154.53</ele>
        <time>2026-08-07T07:12:44.512Z</time>
      </trkpt>
      <trkpt lat="49.53766" lon="5.14726">
        <ele>155.86</ele>
        <time>2026-08-07T07:12:50.513Z</time>
      </trkpt>
      <trkpt lat="49.53762" lon="5.1471">
        <ele>157.66</ele>
        <time>2026-08-07T07:12:56.514Z</time>
      </trkpt>
      <trkpt lat="49.53758" lon="5.14691">
        <ele>160.22</ele>
        <time>2026-08-07T07:13:02.514Z</time>
      </trkpt>
      <trkpt lat="49.53755" lon="5.14671">
        <ele>162.9</ele>
        <time>2026-08-07T07:13:08.514Z</time>
      </trkpt>
      <trkpt lat="49.53752" lon="5.14654">
        <ele>163.45</ele>
        <time>2026-08-07T07:13:14.514Z</time>
      </trkpt>
      <trkpt lat="49.53752" lon="5.14635">
        <ele>164.55</ele>
        <time>2026-08-07T07:13:20.509Z</time>
      </trkpt>
      <trkpt lat="49.53752" lon="5.14618">
        <ele>164.79</ele>
        <time>2026-08-07T07:13:26.497Z</time>
      </trkpt>
      <trkpt lat="49.53754" lon="5.146">
        <ele>165.73</ele>
        <time>2026-08-07T07:13:32.517Z</time>
      </trkpt>
      <trkpt lat="49.53759" lon="5.14584">
        <ele>164.58</ele>
        <time>2026-08-07T07:13:38.512Z</time>
      </trkpt>
      <trkpt lat="49.53766" lon="5.14572">
        <ele>163.6</ele>
        <time>2026-08-07T07:13:44.513Z</time>
      </trkpt>
      <trkpt lat="49.53773" lon="5.14561">
        <ele>161.89</ele>
        <time>2026-08-07T07:13:50.514Z</time>
      </trkpt>
      <trkpt lat="49.53784" lon="5.14552">
        <ele>162.1</ele>
        <time>2026-08-07T07:13:56.517Z</time>
      </trkpt>
      <trkpt lat="49.53796" lon="5.14543">
        <ele>163.6</ele>
        <time>2026-08-07T07:14:02.512Z</time>
      </trkpt>
      <trkpt lat="49.53811" lon="5.14529">
        <ele>164.71</ele>
        <time>2026-08-07T07:14:08.518Z</time>
      </trkpt>
      <trkpt lat="49.53827" lon="5.14508">
        <ele>164.11</ele>
        <time>2026-08-07T07:14:14.514Z</time>
      </trkpt>
      <trkpt lat="49.53843" lon="5.14484">
        <ele>162.91</ele>
        <time>2026-08-07T07:14:20.514Z</time>
      </trkpt>
      <trkpt lat="49.53859" lon="5.14461">
        <ele>162.3</ele>
        <time>2026-08-07T07:14:26.510Z</time>
      </trkpt>
      <trkpt lat="49.53873" lon="5.14437">
        <ele>162.13</ele>
        <time>2026-08-07T07:14:32.515Z</time>
      </trkpt>
      <trkpt lat="49.53888" lon="5.14407">
        <ele>160.85</ele>
        <time>2026-08-07T07:14:38.514Z</time>
      </trkpt>
      <trkpt lat="49.53904" lon="5.14372">
        <ele>162.63</ele>
        <time>2026-08-07T07:14:44.514Z</time>
      </trkpt>
      <trkpt lat="49.53918" lon="5.14336">
        <ele>163.05</ele>
        <time>2026-08-07T07:14:50.512Z</time>
      </trkpt>
      <trkpt lat="49.53934" lon="5.143">
        <ele>161.93</ele>
        <time>2026-08-07T07:14:56.516Z</time>
      </trkpt>
      <trkpt lat="49.53949" lon="5.14264">
        <ele>162.77</ele>
        <time>2026-08-07T07:15:02.518Z</time>
      </trkpt>
      <trkpt lat="49.53961" lon="5.14226">
        <ele>163.21</ele>
        <time>2026-08-07T07:15:08.510Z</time>
      </trkpt>
      <trkpt lat="49.53969" lon="5.14187">
        <ele>163.34</ele>
        <time>2026-08-07T07:15:14.512Z</time>
      </trkpt>
      <trkpt lat="49.53975" lon="5.14145">
        <ele>162.55</ele>
        <time>2026-08-07T07:15:20.512Z</time>
      </trkpt>
      <trkpt lat="49.53975" lon="5.14102">
        <ele>161.3</ele>
        <time>2026-08-07T07:15:26.511Z</time>
      </trkpt>
      <trkpt lat="49.53973" lon="5.14055">
        <ele>159.62</ele>
        <time>2026-08-07T07:15:32.502Z</time>
      </trkpt>
      <trkpt lat="49.53972" lon="5.14006">
        <ele>159.62</ele>
        <time>2026-08-07T07:15:38.514Z</time>
      </trkpt>
      <trkpt lat="49.53969" lon="5.13963">
        <ele>159.75</ele>
        <time>2026-08-07T07:15:44.513Z</time>
      </trkpt>
      <trkpt lat="49.53963" lon="5.13918">
        <ele>162.14</ele>
        <time>2026-08-07T07:15:50.515Z</time>
      </trkpt>
      <trkpt lat="49.5395" lon="5.13876">
        <ele>164.57</ele>
        <time>2026-08-07T07:15:56.513Z</time>
      </trkpt>
      <trkpt lat="49.53934" lon="5.13842">
        <ele>165.56</ele>
        <time>2026-08-07T07:16:02.510Z</time>
      </trkpt>
      <trkpt lat="49.53918" lon="5.13813">
        <ele>168.79</ele>
        <time>2026-08-07T07:16:08.517Z</time>
      </trkpt>
      <trkpt lat="49.53902" lon="5.13784">
        <ele>169.1</ele>
        <time>2026-08-07T07:16:14.511Z</time>
      </trkpt>
      <trkpt lat="49.53886" lon="5.13752">
        <ele>168.57</ele>
        <time>2026-08-07T07:16:20.509Z</time>
      </trkpt>
      <trkpt lat="49.53877" lon="5.13721">
        <ele>169.04</ele>
        <time>2026-08-07T07:16:26.512Z</time>
      </trkpt>
      <trkpt lat="49.53882" lon="5.1368">
        <ele>168.85</ele>
        <time>2026-08-07T07:16:32.503Z</time>
      </trkpt>
      <trkpt lat="49.539" lon="5.1365">
        <ele>165.35</ele>
        <time>2026-08-07T07:16:38.513Z</time>
      </trkpt>
      <trkpt lat="49.53919" lon="5.13628">
        <ele>163.59</ele>
        <time>2026-08-07T07:16:44.511Z</time>
      </trkpt>
      <trkpt lat="49.53942" lon="5.13603">
        <ele>167.68</ele>
        <time>2026-08-07T07:16:50.517Z</time>
      </trkpt>
      <trkpt lat="49.53968" lon="5.13578">
        <ele>169.81</ele>
        <time>2026-08-07T07:16:56.513Z</time>
      </trkpt>
      <trkpt lat="49.53992" lon="5.1355">
        <ele>167.94</ele>
        <time>2026-08-07T07:17:02.511Z</time>
      </trkpt>
      <trkpt lat="49.54016" lon="5.13519">
        <ele>164.91</ele>
        <time>2026-08-07T07:17:08.515Z</time>
      </trkpt>
      <trkpt lat="49.54032" lon="5.13485">
        <ele>161.5</ele>
        <time>2026-08-07T07:17:14.516Z</time>
      </trkpt>
      <trkpt lat="49.54039" lon="5.13441">
        <ele>156.13</ele>
        <time>2026-08-07T07:17:20.512Z</time>
      </trkpt>
      <trkpt lat="49.54041" lon="5.13394">
        <ele>152.78</ele>
        <time>2026-08-07T07:17:26.515Z</time>
      </trkpt>
      <trkpt lat="49.54039" lon="5.13347">
        <ele>150.48</ele>
        <time>2026-08-07T07:17:32.512Z</time>
      </trkpt>
      <trkpt lat="49.54033" lon="5.13298">
        <ele>151.3</ele>
        <time>2026-08-07T07:17:38.515Z</time>
      </trkpt>
      <trkpt lat="49.54025" lon="5.1325">
        <ele>156.61</ele>
        <time>2026-08-07T07:17:44.516Z</time>
      </trkpt>
      <trkpt lat="49.54016" lon="5.13198">
        <ele>159.65</ele>
        <time>2026-08-07T07:17:50.517Z</time>
      </trkpt>
      <trkpt lat="49.54006" lon="5.13144">
        <ele>161.67</ele>
        <time>2026-08-07T07:17:56.514Z</time>
      </trkpt>
      <trkpt lat="49.53992" lon="5.13083">
        <ele>163.19</ele>
        <time>2026-08-07T07:18:02.515Z</time>
      </trkpt>
      <trkpt lat="49.53976" lon="5.1301">
        <ele>160.17</ele>
        <time>2026-08-07T07:18:08.512Z</time>
      </trkpt>
      <trkpt lat="49.53958" lon="5.12932">
        <ele>154.83</ele>
        <time>2026-08-07T07:18:14.516Z</time>
      </trkpt>
      <trkpt lat="49.53939" lon="5.12847">
        <ele>151.94</ele>
        <time>2026-08-07T07:18:20.512Z</time>
      </trkpt>
      <trkpt lat="49.53919" lon="5.12759">
        <ele>147.91</ele>
        <time>2026-08-07T07:18:26.513Z</time>
      </trkpt>
      <trkpt lat="49.53899" lon="5.12668">
        <ele>144.58</ele>
        <time>2026-08-07T07:18:32.515Z</time>
      </trkpt>
      <trkpt lat="49.53879" lon="5.12577">
        <ele>140.89</ele>
        <time>2026-08-07T07:18:38.512Z</time>
      </trkpt>
      <trkpt lat="49.53858" lon="5.12485">
        <ele>138.33</ele>
        <time>2026-08-07T07:18:44.516Z</time>
      </trkpt>
      <trkpt lat="49.53836" lon="5.12397">
        <ele>136.29</ele>
        <time>2026-08-07T07:18:50.515Z</time>
      </trkpt>
      <trkpt lat="49.53812" lon="5.12318">
        <ele>134.18</ele>
        <time>2026-08-07T07:18:56.510Z</time>
      </trkpt>
      <trkpt lat="49.53786" lon="5.1225">
        <ele>133.29</ele>
        <time>2026-08-07T07:19:02.515Z</time>
      </trkpt>
      <trkpt lat="49.53759" lon="5.12195">
        <ele>131.23</ele>
        <time>2026-08-07T07:19:08.515Z</time>
      </trkpt>
      <trkpt lat="49.53737" lon="5.12144">
        <ele>130.27</ele>
        <time>2026-08-07T07:19:14.516Z</time>
      </trkpt>
      <trkpt lat="49.53716" lon="5.12098">
        <ele>129.8</ele>
        <time>2026-08-07T07:19:20.517Z</time>
      </trkpt>
      <trkpt lat="49.53697" lon="5.12055">
        <ele>129.6</ele>
        <time>2026-08-07T07:19:26.510Z</time>
      </trkpt>
      <trkpt lat="49.5368" lon="5.1201">
        <ele>129.22</ele>
        <time>2026-08-07T07:19:32.514Z</time>
      </trkpt>
      <trkpt lat="49.53665" lon="5.11955">
        <ele>128.34</ele>
        <time>2026-08-07T07:19:38.516Z</time>
      </trkpt>
      <trkpt lat="49.53657" lon="5.11903">
        <ele>126.57</ele>
        <time>2026-08-07T07:19:44.513Z</time>
      </trkpt>
      <trkpt lat="49.53646" lon="5.11897">
        <ele>126.6</ele>
        <time>2026-08-07T07:19:50.516Z</time>
      </trkpt>
      <trkpt lat="49.53644" lon="5.11911">
        <ele>127.18</ele>
        <time>2026-08-07T07:19:57.449Z</time>
      </trkpt>
      <trkpt lat="49.5364" lon="5.11924">
        <ele>128.52</ele>
        <time>2026-08-07T07:20:03.460Z</time>
      </trkpt>
      <trkpt lat="49.53636" lon="5.11938">
        <ele>129.78</ele>
        <time>2026-08-07T07:20:10.449Z</time>
      </trkpt>
      <trkpt lat="49.53631" lon="5.11949">
        <ele>131.85</ele>
        <time>2026-08-07T07:20:18.455Z</time>
      </trkpt>
      <trkpt lat="49.53624" lon="5.11961">
        <ele>133.24</ele>
        <time>2026-08-07T07:20:28.452Z</time>
      </trkpt>
      <trkpt lat="49.53616" lon="5.1197">
        <ele>136</ele>
        <time>2026-08-07T07:20:38.514Z</time>
      </trkpt>
      <trkpt lat="49.53607" lon="5.11972">
        <ele>137.97</ele>
        <time>2026-08-07T07:20:46.453Z</time>
      </trkpt>
      <trkpt lat="49.53597" lon="5.11972">
        <ele>138.79</ele>
        <time>2026-08-07T07:20:53.452Z</time>
      </trkpt>
      <trkpt lat="49.53588" lon="5.11969">
        <ele>139.9</ele>
        <time>2026-08-07T07:21:00.455Z</time>
      </trkpt>
      <trkpt lat="49.53579" lon="5.11966">
        <ele>140.51</ele>
        <time>2026-08-07T07:21:08.513Z</time>
      </trkpt>
      <trkpt lat="49.5357" lon="5.11962">
        <ele>140.66</ele>
        <time>2026-08-07T07:21:16.457Z</time>
      </trkpt>
      <trkpt lat="49.5356" lon="5.11956">
        <ele>141.24</ele>
        <time>2026-08-07T07:21:22.449Z</time>
      </trkpt>
      <trkpt lat="49.53551" lon="5.1195">
        <ele>142.4</ele>
        <time>2026-08-07T07:21:29.455Z</time>
      </trkpt>
      <trkpt lat="49.53543" lon="5.11943">
        <ele>142.88</ele>
        <time>2026-08-07T07:21:35.453Z</time>
      </trkpt>
      <trkpt lat="49.53534" lon="5.11936">
        <ele>143.83</ele>
        <time>2026-08-07T07:21:41.456Z</time>
      </trkpt>
      <trkpt lat="49.53523" lon="5.11926">
        <ele>144.85</ele>
        <time>2026-08-07T07:21:47.459Z</time>
      </trkpt>
      <trkpt lat="49.53511" lon="5.11917">
        <ele>145.17</ele>
        <time>2026-08-07T07:21:53.456Z</time>
      </trkpt>
      <trkpt lat="49.53501" lon="5.11906">
        <ele>147.32</ele>
        <time>2026-08-07T07:21:59.459Z</time>
      </trkpt>
      <trkpt lat="49.53491" lon="5.11892">
        <ele>146.34</ele>
        <time>2026-08-07T07:22:05.460Z</time>
      </trkpt>
      <trkpt lat="49.53479" lon="5.11871">
        <ele>144.54</ele>
        <time>2026-08-07T07:22:11.451Z</time>
      </trkpt>
      <trkpt lat="49.5347" lon="5.11851">
        <ele>142.69</ele>
        <time>2026-08-07T07:22:16.454Z</time>
      </trkpt>
      <trkpt lat="49.53461" lon="5.11828">
        <ele>141.91</ele>
        <time>2026-08-07T07:22:21.454Z</time>
      </trkpt>
      <trkpt lat="49.5345" lon="5.11803">
        <ele>143.43</ele>
        <time>2026-08-07T07:22:26.514Z</time>
      </trkpt>
      <trkpt lat="49.53435" lon="5.11767">
        <ele>144.53</ele>
        <time>2026-08-07T07:22:32.515Z</time>
      </trkpt>
      <trkpt lat="49.53419" lon="5.11728">
        <ele>145.23</ele>
        <time>2026-08-07T07:22:38.514Z</time>
      </trkpt>
      <trkpt lat="49.534" lon="5.11687">
        <ele>146.48</ele>
        <time>2026-08-07T07:22:44.515Z</time>
      </trkpt>
      <trkpt lat="49.53381" lon="5.11646">
        <ele>147.74</ele>
        <time>2026-08-07T07:22:50.511Z</time>
      </trkpt>
      <trkpt lat="49.53362" lon="5.11601">
        <ele>147.12</ele>
        <time>2026-08-07T07:22:56.512Z</time>
      </trkpt>
      <trkpt lat="49.53341" lon="5.11558">
        <ele>146.06</ele>
        <time>2026-08-07T07:23:02.514Z</time>
      </trkpt>
      <trkpt lat="49.53323" lon="5.11513">
        <ele>143.55</ele>
        <time>2026-08-07T07:23:08.514Z</time>
      </trkpt>
      <trkpt lat="49.53308" lon="5.11457">
        <ele>141.16</ele>
        <time>2026-08-07T07:23:14.521Z</time>
      </trkpt>
      <trkpt lat="49.53292" lon="5.11396">
        <ele>139.1</ele>
        <time>2026-08-07T07:23:20.515Z</time>
      </trkpt>
      <trkpt lat="49.53273" lon="5.11337">
        <ele>137.8</ele>
        <time>2026-08-07T07:23:26.509Z</time>
      </trkpt>
      <trkpt lat="49.53253" lon="5.11278">
        <ele>136.23</ele>
        <time>2026-08-07T07:23:32.517Z</time>
      </trkpt>
      <trkpt lat="49.53232" lon="5.11218">
        <ele>135.72</ele>
        <time>2026-08-07T07:23:38.516Z</time>
      </trkpt>
      <trkpt lat="49.53209" lon="5.11165">
        <ele>137.47</ele>
        <time>2026-08-07T07:23:44.511Z</time>
      </trkpt>
      <trkpt lat="49.53187" lon="5.11114">
        <ele>138.11</ele>
        <time>2026-08-07T07:23:50.512Z</time>
      </trkpt>
      <trkpt lat="49.53167" lon="5.1106">
        <ele>137.51</ele>
        <time>2026-08-07T07:23:56.515Z</time>
      </trkpt>
      <trkpt lat="49.53146" lon="5.11001">
        <ele>135.66</ele>
        <time>2026-08-07T07:24:02.516Z</time>
      </trkpt>
      <trkpt lat="49.53118" lon="5.10948">
        <ele>135.09</ele>
        <time>2026-08-07T07:24:08.515Z</time>
      </trkpt>
      <trkpt lat="49.53093" lon="5.109">
        <ele>135.2</ele>
        <time>2026-08-07T07:24:14.517Z</time>
      </trkpt>
      <trkpt lat="49.53076" lon="5.10857">
        <ele>135.76</ele>
        <time>2026-08-07T07:24:20.515Z</time>
      </trkpt>
      <trkpt lat="49.53061" lon="5.10813">
        <ele>136.33</ele>
        <time>2026-08-07T07:24:26.509Z</time>
      </trkpt>
      <trkpt lat="49.53049" lon="5.10771">
        <ele>136.04</ele>
        <time>2026-08-07T07:24:32.513Z</time>
      </trkpt>
      <trkpt lat="49.53038" lon="5.10734">
        <ele>135.31</ele>
        <time>2026-08-07T07:24:38.511Z</time>
      </trkpt>
      <trkpt lat="49.53031" lon="5.10702">
        <ele>134.25</ele>
        <time>2026-08-07T07:24:44.518Z</time>
      </trkpt>
      <trkpt lat="49.53021" lon="5.1067">
        <ele>134.33</ele>
        <time>2026-08-07T07:24:50.516Z</time>
      </trkpt>
      <trkpt lat="49.5301" lon="5.10645">
        <ele>135.39</ele>
        <time>2026-08-07T07:24:56.516Z</time>
      </trkpt>
      <trkpt lat="49.52999" lon="5.10622">
        <ele>138.37</ele>
        <time>2026-08-07T07:25:02.517Z</time>
      </trkpt>
      <trkpt lat="49.52988" lon="5.10602">
        <ele>140.63</ele>
        <time>2026-08-07T07:25:08.513Z</time>
      </trkpt>
      <trkpt lat="49.52978" lon="5.10583">
        <ele>142.36</ele>
        <time>2026-08-07T07:25:14.515Z</time>
      </trkpt>
      <trkpt lat="49.52967" lon="5.10565">
        <ele>142.92</ele>
        <time>2026-08-07T07:25:20.505Z</time>
      </trkpt>
      <trkpt lat="49.52957" lon="5.10545">
        <ele>144.63</ele>
        <time>2026-08-07T07:25:26.512Z</time>
      </trkpt>
      <trkpt lat="49.52947" lon="5.10526">
        <ele>145.76</ele>
        <time>2026-08-07T07:25:32.516Z</time>
      </trkpt>
      <trkpt lat="49.52937" lon="5.10506">
        <ele>147.04</ele>
        <time>2026-08-07T07:25:38.515Z</time>
      </trkpt>
      <trkpt lat="49.52929" lon="5.10486">
        <ele>147.84</ele>
        <time>2026-08-07T07:25:44.510Z</time>
      </trkpt>
      <trkpt lat="49.52919" lon="5.10465">
        <ele>147.88</ele>
        <time>2026-08-07T07:25:50.516Z</time>
      </trkpt>
      <trkpt lat="49.52909" lon="5.10444">
        <ele>147.45</ele>
        <time>2026-08-07T07:25:56.509Z</time>
      </trkpt>
      <trkpt lat="49.529" lon="5.10422">
        <ele>148.13</ele>
        <time>2026-08-07T07:26:02.515Z</time>
      </trkpt>
      <trkpt lat="49.52889" lon="5.10395">
        <ele>149</ele>
        <time>2026-08-07T07:26:08.516Z</time>
      </trkpt>
      <trkpt lat="49.5288" lon="5.10373">
        <ele>146.77</ele>
        <time>2026-08-07T07:26:14.519Z</time>
      </trkpt>
      <trkpt lat="49.52871" lon="5.1035">
        <ele>147.14</ele>
        <time>2026-08-07T07:26:20.517Z</time>
      </trkpt>
      <trkpt lat="49.52861" lon="5.10328">
        <ele>147.04</ele>
        <time>2026-08-07T07:26:26.515Z</time>
      </trkpt>
      <trkpt lat="49.52851" lon="5.10307">
        <ele>146.74</ele>
        <time>2026-08-07T07:26:32.513Z</time>
      </trkpt>
      <trkpt lat="49.52838" lon="5.10284">
        <ele>148.06</ele>
        <time>2026-08-07T07:26:38.514Z</time>
      </trkpt>
      <trkpt lat="49.52823" lon="5.10259">
        <ele>150.21</ele>
        <time>2026-08-07T07:26:44.516Z</time>
      </trkpt>
      <trkpt lat="49.52808" lon="5.1023">
        <ele>150.48</ele>
        <time>2026-08-07T07:26:50.519Z</time>
      </trkpt>
      <trkpt lat="49.52791" lon="5.102">
        <ele>150.95</ele>
        <time>2026-08-07T07:26:56.514Z</time>
      </trkpt>
      <trkpt lat="49.52773" lon="5.10166">
        <ele>150.44</ele>
        <time>2026-08-07T07:27:02.515Z</time>
      </trkpt>
      <trkpt lat="49.52753" lon="5.10123">
        <ele>148.61</ele>
        <time>2026-08-07T07:27:08.516Z</time>
      </trkpt>
      <trkpt lat="49.52728" lon="5.10069">
        <ele>145.7</ele>
        <time>2026-08-07T07:27:14.517Z</time>
      </trkpt>
      <trkpt lat="49.52695" lon="5.10001">
        <ele>139.92</ele>
        <time>2026-08-07T07:27:20.512Z</time>
      </trkpt>
      <trkpt lat="49.52656" lon="5.09922">
        <ele>131.92</ele>
        <time>2026-08-07T07:27:26.514Z</time>
      </trkpt>
      <trkpt lat="49.52626" lon="5.09816">
        <ele>124.5</ele>
        <time>2026-08-07T07:27:32.518Z</time>
      </trkpt>
      <trkpt lat="49.52592" lon="5.09735">
        <ele>122.64</ele>
        <time>2026-08-07T07:27:38.514Z</time>
      </trkpt>
      <trkpt lat="49.52561" lon="5.09682">
        <ele>123.4</ele>
        <time>2026-08-07T07:27:44.518Z</time>
      </trkpt>
      <trkpt lat="49.52541" lon="5.09643">
        <ele>124.04</ele>
        <time>2026-08-07T07:27:50.514Z</time>
      </trkpt>
      <trkpt lat="49.52525" lon="5.09612">
        <ele>125.3</ele>
        <time>2026-08-07T07:27:56.521Z</time>
      </trkpt>
      <trkpt lat="49.52512" lon="5.09585">
        <ele>125.96</ele>
        <time>2026-08-07T07:28:02.519Z</time>
      </trkpt>
      <trkpt lat="49.52498" lon="5.0956">
        <ele>126.9</ele>
        <time>2026-08-07T07:28:08.515Z</time>
      </trkpt>
      <trkpt lat="49.52484" lon="5.09535">
        <ele>127.74</ele>
        <time>2026-08-07T07:28:14.518Z</time>
      </trkpt>
      <trkpt lat="49.5247" lon="5.0951">
        <ele>128.44</ele>
        <time>2026-08-07T07:28:20.519Z</time>
      </trkpt>
      <trkpt lat="49.52457" lon="5.09488">
        <ele>129.55</ele>
        <time>2026-08-07T07:28:26.515Z</time>
      </trkpt>
      <trkpt lat="49.52445" lon="5.09467">
        <ele>130.01</ele>
        <time>2026-08-07T07:28:32.515Z</time>
      </trkpt>
      <trkpt lat="49.52431" lon="5.09445">
        <ele>132.13</ele>
        <time>2026-08-07T07:28:38.519Z</time>
      </trkpt>
      <trkpt lat="49.52417" lon="5.09424">
        <ele>133.17</ele>
        <time>2026-08-07T07:28:44.517Z</time>
      </trkpt>
      <trkpt lat="49.52405" lon="5.09402">
        <ele>133.72</ele>
        <time>2026-08-07T07:28:50.519Z</time>
      </trkpt>
      <trkpt lat="49.52392" lon="5.09381">
        <ele>134.02</ele>
        <time>2026-08-07T07:28:56.515Z</time>
      </trkpt>
      <trkpt lat="49.52379" lon="5.09359">
        <ele>135.22</ele>
        <time>2026-08-07T07:29:02.516Z</time>
      </trkpt>
      <trkpt lat="49.52365" lon="5.09336">
        <ele>136.55</ele>
        <time>2026-08-07T07:29:08.515Z</time>
      </trkpt>
      <trkpt lat="49.5235" lon="5.09317">
        <ele>137.71</ele>
        <time>2026-08-07T07:29:14.530Z</time>
      </trkpt>
      <trkpt lat="49.52334" lon="5.09299">
        <ele>139.01</ele>
        <time>2026-08-07T07:29:20.519Z</time>
      </trkpt>
      <trkpt lat="49.5232" lon="5.09279">
        <ele>139.02</ele>
        <time>2026-08-07T07:29:26.515Z</time>
      </trkpt>
      <trkpt lat="49.52303" lon="5.09258">
        <ele>137.74</ele>
        <time>2026-08-07T07:29:32.515Z</time>
      </trkpt>
      <trkpt lat="49.52281" lon="5.09233">
        <ele>135.63</ele>
        <time>2026-08-07T07:29:38.518Z</time>
      </trkpt>
      <trkpt lat="49.52252" lon="5.09198">
        <ele>133.82</ele>
        <time>2026-08-07T07:29:44.516Z</time>
      </trkpt>
      <trkpt lat="49.52213" lon="5.09158">
        <ele>130.76</ele>
        <time>2026-08-07T07:29:50.517Z</time>
      </trkpt>
      <trkpt lat="49.52166" lon="5.09112">
        <ele>125.15</ele>
        <time>2026-08-07T07:29:56.510Z</time>
      </trkpt>
      <trkpt lat="49.52112" lon="5.09061">
        <ele>121.29</ele>
        <time>2026-08-07T07:30:02.516Z</time>
      </trkpt>
      <trkpt lat="49.52051" lon="5.09058">
        <ele>120.81</ele>
        <time>2026-08-07T07:30:08.516Z</time>
      </trkpt>
      <trkpt lat="49.52008" lon="5.09064">
        <ele>119.6</ele>
        <time>2026-08-07T07:30:14.515Z</time>
      </trkpt>
      <trkpt lat="49.52023" lon="5.09033">
        <ele>120.05</ele>
        <time>2026-08-07T07:30:20.515Z</time>
      </trkpt>
      <trkpt lat="49.52047" lon="5.09003">
        <ele>121.87</ele>
        <time>2026-08-07T07:30:26.508Z</time>
      </trkpt>
      <trkpt lat="49.52068" lon="5.08982">
        <ele>121.13</ele>
        <time>2026-08-07T07:30:32.515Z</time>
      </trkpt>
      <trkpt lat="49.52095" lon="5.08946">
        <ele>119.7</ele>
        <time>2026-08-07T07:30:38.517Z</time>
      </trkpt>
      <trkpt lat="49.52122" lon="5.08914">
        <ele>120.35</ele>
        <time>2026-08-07T07:30:44.516Z</time>
      </trkpt>
      <trkpt lat="49.52147" lon="5.08881">
        <ele>120.6</ele>
        <time>2026-08-07T07:30:50.516Z</time>
      </trkpt>
      <trkpt lat="49.52166" lon="5.08845">
        <ele>120.14</ele>
        <time>2026-08-07T07:30:56.517Z</time>
      </trkpt>
      <trkpt lat="49.52182" lon="5.08803">
        <ele>119.05</ele>
        <time>2026-08-07T07:31:02.515Z</time>
      </trkpt>
      <trkpt lat="49.52196" lon="5.08764">
        <ele>119.88</ele>
        <time>2026-08-07T07:31:08.513Z</time>
      </trkpt>
      <trkpt lat="49.52209" lon="5.08729">
        <ele>122.55</ele>
        <time>2026-08-07T07:31:14.512Z</time>
      </trkpt>
      <trkpt lat="49.5222" lon="5.08698">
        <ele>124.51</ele>
        <time>2026-08-07T07:31:20.515Z</time>
      </trkpt>
      <trkpt lat="49.52225" lon="5.08715">
        <ele>124.67</ele>
        <time>2026-08-07T07:31:26.516Z</time>
      </trkpt>
      <trkpt lat="49.52234" lon="5.08734">
        <ele>125.61</ele>
        <time>2026-08-07T07:31:32.514Z</time>
      </trkpt>
      <trkpt lat="49.52246" lon="5.08755">
        <ele>126.84</ele>
        <time>2026-08-07T07:31:38.516Z</time>
      </trkpt>
      <trkpt lat="49.52262" lon="5.08773">
        <ele>126.63</ele>
        <time>2026-08-07T07:31:44.516Z</time>
      </trkpt>
      <trkpt lat="49.52279" lon="5.08787">
        <ele>128.06</ele>
        <time>2026-08-07T07:31:50.515Z</time>
      </trkpt>
      <trkpt lat="49.52295" lon="5.088">
        <ele>129.53</ele>
        <time>2026-08-07T07:31:56.514Z</time>
      </trkpt>
      <trkpt lat="49.52314" lon="5.08814">
        <ele>129.51</ele>
        <time>2026-08-07T07:32:02.513Z</time>
      </trkpt>
      <trkpt lat="49.52342" lon="5.08834">
        <ele>128.55</ele>
        <time>2026-08-07T07:32:08.516Z</time>
      </trkpt>
      <trkpt lat="49.52375" lon="5.08853">
        <ele>127.55</ele>
        <time>2026-08-07T07:32:14.519Z</time>
      </trkpt>
      <trkpt lat="49.5241" lon="5.08865">
        <ele>126.73</ele>
        <time>2026-08-07T07:32:20.515Z</time>
      </trkpt>
      <trkpt lat="49.52441" lon="5.08876">
        <ele>127.05</ele>
        <time>2026-08-07T07:32:26.516Z</time>
      </trkpt>
      <trkpt lat="49.52473" lon="5.08886">
        <ele>128.21</ele>
        <time>2026-08-07T07:32:32.515Z</time>
      </trkpt>
      <trkpt lat="49.52504" lon="5.08895">
        <ele>128.95</ele>
        <time>2026-08-07T07:32:38.515Z</time>
      </trkpt>
      <trkpt lat="49.52533" lon="5.08905">
        <ele>128.87</ele>
        <time>2026-08-07T07:32:44.516Z</time>
      </trkpt>
      <trkpt lat="49.52563" lon="5.08918">
        <ele>128.97</ele>
        <time>2026-08-07T07:32:50.521Z</time>
      </trkpt>
      <trkpt lat="49.52594" lon="5.08939">
        <ele>127.23</ele>
        <time>2026-08-07T07:32:56.510Z</time>
      </trkpt>
      <trkpt lat="49.52624" lon="5.08966">
        <ele>126.08</ele>
        <time>2026-08-07T07:33:02.518Z</time>
      </trkpt>
      <trkpt lat="49.52651" lon="5.08993">
        <ele>126.27</ele>
        <time>2026-08-07T07:33:08.510Z</time>
      </trkpt>
      <trkpt lat="49.52674" lon="5.09023">
        <ele>126.32</ele>
        <time>2026-08-07T07:33:14.513Z</time>
      </trkpt>
      <trkpt lat="49.52691" lon="5.09052">
        <ele>126.76</ele>
        <time>2026-08-07T07:33:20.514Z</time>
      </trkpt>
      <trkpt lat="49.52708" lon="5.09081">
        <ele>127.56</ele>
        <time>2026-08-07T07:33:26.514Z</time>
      </trkpt>
      <trkpt lat="49.52728" lon="5.0911">
        <ele>128.01</ele>
        <time>2026-08-07T07:33:32.513Z</time>
      </trkpt>
      <trkpt lat="49.52748" lon="5.09136">
        <ele>128.11</ele>
        <time>2026-08-07T07:33:38.519Z</time>
      </trkpt>
      <trkpt lat="49.52768" lon="5.09161">
        <ele>128.03</ele>
        <time>2026-08-07T07:33:44.520Z</time>
      </trkpt>
      <trkpt lat="49.52789" lon="5.09186">
        <ele>127.41</ele>
        <time>2026-08-07T07:33:50.520Z</time>
      </trkpt>
      <trkpt lat="49.5281" lon="5.09209">
        <ele>127.51</ele>
        <time>2026-08-07T07:33:56.513Z</time>
      </trkpt>
      <trkpt lat="49.52831" lon="5.0923">
        <ele>127.23</ele>
        <time>2026-08-07T07:34:02.512Z</time>
      </trkpt>
      <trkpt lat="49.52852" lon="5.09249">
        <ele>127.14</ele>
        <time>2026-08-07T07:34:08.516Z</time>
      </trkpt>
      <trkpt lat="49.52876" lon="5.09265">
        <ele>126.82</ele>
        <time>2026-08-07T07:34:14.515Z</time>
      </trkpt>
      <trkpt lat="49.52898" lon="5.09276">
        <ele>127.2</ele>
        <time>2026-08-07T07:34:20.519Z</time>
      </trkpt>
      <trkpt lat="49.5292" lon="5.09279">
        <ele>125.44</ele>
        <time>2026-08-07T07:34:26.520Z</time>
      </trkpt>
      <trkpt lat="49.52958" lon="5.09269">
        <ele>125.53</ele>
        <time>2026-08-07T07:34:32.520Z</time>
      </trkpt>
      <trkpt lat="49.52989" lon="5.09256">
        <ele>128.01</ele>
        <time>2026-08-07T07:34:38.518Z</time>
      </trkpt>
      <trkpt lat="49.53022" lon="5.09236">
        <ele>130.25</ele>
        <time>2026-08-07T07:34:44.515Z</time>
      </trkpt>
      <trkpt lat="49.53052" lon="5.09213">
        <ele>132.03</ele>
        <time>2026-08-07T07:34:50.516Z</time>
      </trkpt>
      <trkpt lat="49.53087" lon="5.09193">
        <ele>132.32</ele>
        <time>2026-08-07T07:34:56.512Z</time>
      </trkpt>
      <trkpt lat="49.53124" lon="5.09178">
        <ele>129.64</ele>
        <time>2026-08-07T07:35:02.512Z</time>
      </trkpt>
      <trkpt lat="49.53166" lon="5.09164">
        <ele>125.95</ele>
        <time>2026-08-07T07:35:08.514Z</time>
      </trkpt>
      <trkpt lat="49.53206" lon="5.09137">
        <ele>124.43</ele>
        <time>2026-08-07T07:35:14.517Z</time>
      </trkpt>
      <trkpt lat="49.53239" lon="5.09102">
        <ele>123.48</ele>
        <time>2026-08-07T07:35:20.515Z</time>
      </trkpt>
      <trkpt lat="49.5327" lon="5.0907">
        <ele>121.82</ele>
        <time>2026-08-07T07:35:26.518Z</time>
      </trkpt>
      <trkpt lat="49.53299" lon="5.09038">
        <ele>121.05</ele>
        <time>2026-08-07T07:35:32.513Z</time>
      </trkpt>
      <trkpt lat="49.53329" lon="5.09008">
        <ele>122.11</ele>
        <time>2026-08-07T07:35:38.513Z</time>
      </trkpt>
      <trkpt lat="49.5336" lon="5.08979">
        <ele>123.16</ele>
        <time>2026-08-07T07:35:44.513Z</time>
      </trkpt>
      <trkpt lat="49.53391" lon="5.08952">
        <ele>123.3</ele>
        <time>2026-08-07T07:35:50.518Z</time>
      </trkpt>
      <trkpt lat="49.53424" lon="5.08924">
        <ele>121.72</ele>
        <time>2026-08-07T07:35:56.510Z</time>
      </trkpt>
      <trkpt lat="49.53458" lon="5.08902">
        <ele>122.44</ele>
        <time>2026-08-07T07:36:02.514Z</time>
      </trkpt>
      <trkpt lat="49.53489" lon="5.0888">
        <ele>123.35</ele>
        <time>2026-08-07T07:36:08.515Z</time>
      </trkpt>
      <trkpt lat="49.53519" lon="5.0886">
        <ele>123.29</ele>
        <time>2026-08-07T07:36:14.516Z</time>
      </trkpt>
      <trkpt lat="49.53549" lon="5.08839">
        <ele>123.8</ele>
        <time>2026-08-07T07:36:20.516Z</time>
      </trkpt>
      <trkpt lat="49.53576" lon="5.08819">
        <ele>125.5</ele>
        <time>2026-08-07T07:36:26.513Z</time>
      </trkpt>
      <trkpt lat="49.53605" lon="5.08798">
        <ele>126.16</ele>
        <time>2026-08-07T07:36:32.515Z</time>
      </trkpt>
      <trkpt lat="49.53635" lon="5.08779">
        <ele>126.53</ele>
        <time>2026-08-07T07:36:38.518Z</time>
      </trkpt>
      <trkpt lat="49.53669" lon="5.08757">
        <ele>124.11</ele>
        <time>2026-08-07T07:36:44.513Z</time>
      </trkpt>
      <trkpt lat="49.53707" lon="5.08734">
        <ele>123.61</ele>
        <time>2026-08-07T07:36:50.517Z</time>
      </trkpt>
      <trkpt lat="49.53745" lon="5.08711">
        <ele>123.15</ele>
        <time>2026-08-07T07:36:56.513Z</time>
      </trkpt>
      <trkpt lat="49.53777" lon="5.08691">
        <ele>121.13</ele>
        <time>2026-08-07T07:37:02.516Z</time>
      </trkpt>
      <trkpt lat="49.53809" lon="5.08669">
        <ele>120.11</ele>
        <time>2026-08-07T07:37:08.516Z</time>
      </trkpt>
      <trkpt lat="49.53841" lon="5.08646">
        <ele>120.81</ele>
        <time>2026-08-07T07:37:14.516Z</time>
      </trkpt>
      <trkpt lat="49.53872" lon="5.08625">
        <ele>122.8</ele>
        <time>2026-08-07T07:37:20.517Z</time>
      </trkpt>
      <trkpt lat="49.53904" lon="5.08606">
        <ele>124.67</ele>
        <time>2026-08-07T07:37:26.514Z</time>
      </trkpt>
      <trkpt lat="49.53935" lon="5.08582">
        <ele>124.94</ele>
        <time>2026-08-07T07:37:32.517Z</time>
      </trkpt>
      <trkpt lat="49.53965" lon="5.08557">
        <ele>124</ele>
        <time>2026-08-07T07:37:38.515Z</time>
      </trkpt>
      <trkpt lat="49.53994" lon="5.08537">
        <ele>123.17</ele>
        <time>2026-08-07T07:37:44.515Z</time>
      </trkpt>
      <trkpt lat="49.54023" lon="5.08518">
        <ele>122.81</ele>
        <time>2026-08-07T07:37:50.515Z</time>
      </trkpt>
      <trkpt lat="49.5405" lon="5.08501">
        <ele>123.79</ele>
        <time>2026-08-07T07:37:56.512Z</time>
      </trkpt>
      <trkpt lat="49.54077" lon="5.08482">
        <ele>125.58</ele>
        <time>2026-08-07T07:38:02.517Z</time>
      </trkpt>
      <trkpt lat="49.54101" lon="5.08468">
        <ele>127.14</ele>
        <time>2026-08-07T07:38:08.515Z</time>
      </trkpt>
      <trkpt lat="49.54124" lon="5.08452">
        <ele>130.31</ele>
        <time>2026-08-07T07:38:14.514Z</time>
      </trkpt>
      <trkpt lat="49.54145" lon="5.08434">
        <ele>129.71</ele>
        <time>2026-08-07T07:38:20.515Z</time>
      </trkpt>
      <trkpt lat="49.54165" lon="5.08418">
        <ele>125.68</ele>
        <time>2026-08-07T07:38:26.504Z</time>
      </trkpt>
      <trkpt lat="49.54183" lon="5.08403">
        <ele>123.41</ele>
        <time>2026-08-07T07:38:32.515Z</time>
      </trkpt>
      <trkpt lat="49.542" lon="5.08392">
        <ele>125.45</ele>
        <time>2026-08-07T07:38:38.511Z</time>
      </trkpt>
      <trkpt lat="49.54219" lon="5.08381">
        <ele>127.94</ele>
        <time>2026-08-07T07:38:44.514Z</time>
      </trkpt>
      <trkpt lat="49.54247" lon="5.08362">
        <ele>126.27</ele>
        <time>2026-08-07T07:38:50.512Z</time>
      </trkpt>
      <trkpt lat="49.54281" lon="5.08321">
        <ele>122.23</ele>
        <time>2026-08-07T07:38:56.522Z</time>
      </trkpt>
      <trkpt lat="49.54316" lon="5.08276">
        <ele>120.67</ele>
        <time>2026-08-07T07:39:02.516Z</time>
      </trkpt>
      <trkpt lat="49.54361" lon="5.08269">
        <ele>118.63</ele>
        <time>2026-08-07T07:39:08.514Z</time>
      </trkpt>
      <trkpt lat="49.54405" lon="5.08275">
        <ele>117.92</ele>
        <time>2026-08-07T07:39:14.515Z</time>
      </trkpt>
      <trkpt lat="49.54431" lon="5.08281">
        <ele>118.02</ele>
        <time>2026-08-07T07:39:20.510Z</time>
      </trkpt>
      <trkpt lat="49.5443" lon="5.08253">
        <ele>115.14</ele>
        <time>2026-08-07T07:39:26.521Z</time>
      </trkpt>
      <trkpt lat="49.54445" lon="5.0824">
        <ele>115.96</ele>
        <time>2026-08-07T07:39:32.509Z</time>
      </trkpt>
      <trkpt lat="49.5447" lon="5.08239">
        <ele>118.37</ele>
        <time>2026-08-07T07:39:38.513Z</time>
      </trkpt>
      <trkpt lat="49.5449" lon="5.08241">
        <ele>119.95</ele>
        <time>2026-08-07T07:39:44.517Z</time>
      </trkpt>
      <trkpt lat="49.54502" lon="5.0823">
        <ele>114.9</ele>
        <time>2026-08-07T07:39:50.512Z</time>
      </trkpt>
      <trkpt lat="49.54504" lon="5.08193">
        <ele>112.12</ele>
        <time>2026-08-07T07:39:56.521Z</time>
      </trkpt>
      <trkpt lat="49.54506" lon="5.08158">
        <ele>113.85</ele>
        <time>2026-08-07T07:40:02.514Z</time>
      </trkpt>
      <trkpt lat="49.54506" lon="5.08122">
        <ele>116.22</ele>
        <time>2026-08-07T07:40:08.515Z</time>
      </trkpt>
      <trkpt lat="49.54503" lon="5.08082">
        <ele>116.08</ele>
        <time>2026-08-07T07:40:14.514Z</time>
      </trkpt>
      <trkpt lat="49.54501" lon="5.08049">
        <ele>117.22</ele>
        <time>2026-08-07T07:40:20.518Z</time>
      </trkpt>
      <trkpt lat="49.54498" lon="5.08023">
        <ele>120.86</ele>
        <time>2026-08-07T07:40:26.518Z</time>
      </trkpt>
      <trkpt lat="49.54495" lon="5.07995">
        <ele>122.66</ele>
        <time>2026-08-07T07:40:32.511Z</time>
      </trkpt>
      <trkpt lat="49.54491" lon="5.07968">
        <ele>122.5</ele>
        <time>2026-08-07T07:40:38.518Z</time>
      </trkpt>
      <trkpt lat="49.54484" lon="5.07941">
        <ele>122.08</ele>
        <time>2026-08-07T07:40:44.515Z</time>
      </trkpt>
      <trkpt lat="49.54479" lon="5.07911">
        <ele>120.57</ele>
        <time>2026-08-07T07:40:50.518Z</time>
      </trkpt>
      <trkpt lat="49.54472" lon="5.07878">
        <ele>122.13</ele>
        <time>2026-08-07T07:40:56.517Z</time>
      </trkpt>
      <trkpt lat="49.54465" lon="5.07843">
        <ele>123.4</ele>
        <time>2026-08-07T07:41:02.517Z</time>
      </trkpt>
      <trkpt lat="49.54461" lon="5.07811">
        <ele>124.88</ele>
        <time>2026-08-07T07:41:08.517Z</time>
      </trkpt>
      <trkpt lat="49.54457" lon="5.07779">
        <ele>126.08</ele>
        <time>2026-08-07T07:41:14.516Z</time>
      </trkpt>
      <trkpt lat="49.54451" lon="5.07748">
        <ele>126.96</ele>
        <time>2026-08-07T07:41:20.519Z</time>
      </trkpt>
      <trkpt lat="49.54443" lon="5.07714">
        <ele>127.74</ele>
        <time>2026-08-07T07:41:26.519Z</time>
      </trkpt>
      <trkpt lat="49.54438" lon="5.07675">
        <ele>126.13</ele>
        <time>2026-08-07T07:41:32.514Z</time>
      </trkpt>
      <trkpt lat="49.54433" lon="5.07625">
        <ele>123.95</ele>
        <time>2026-08-07T07:41:38.515Z</time>
      </trkpt>
      <trkpt lat="49.54432" lon="5.07572">
        <ele>120.78</ele>
        <time>2026-08-07T07:41:44.514Z</time>
      </trkpt>
      <trkpt lat="49.54434" lon="5.07514">
        <ele>119.34</ele>
        <time>2026-08-07T07:41:50.515Z</time>
      </trkpt>
      <trkpt lat="49.54433" lon="5.07453">
        <ele>120.03</ele>
        <time>2026-08-07T07:41:56.519Z</time>
      </trkpt>
      <trkpt lat="49.54425" lon="5.07394">
        <ele>121.5</ele>
        <time>2026-08-07T07:42:02.521Z</time>
      </trkpt>
      <trkpt lat="49.54414" lon="5.07339">
        <ele>122.63</ele>
        <time>2026-08-07T07:42:08.520Z</time>
      </trkpt>
      <trkpt lat="49.54404" lon="5.07289">
        <ele>124.57</ele>
        <time>2026-08-07T07:42:14.514Z</time>
      </trkpt>
      <trkpt lat="49.54396" lon="5.07242">
        <ele>125.56</ele>
        <time>2026-08-07T07:42:20.516Z</time>
      </trkpt>
      <trkpt lat="49.54387" lon="5.07191">
        <ele>125.73</ele>
        <time>2026-08-07T07:42:26.522Z</time>
      </trkpt>
      <trkpt lat="49.54376" lon="5.07133">
        <ele>124.93</ele>
        <time>2026-08-07T07:42:32.517Z</time>
      </trkpt>
      <trkpt lat="49.54364" lon="5.07075">
        <ele>125.04</ele>
        <time>2026-08-07T07:42:38.516Z</time>
      </trkpt>
      <trkpt lat="49.54345" lon="5.07025">
        <ele>125.2</ele>
        <time>2026-08-07T07:42:44.516Z</time>
      </trkpt>
      <trkpt lat="49.54324" lon="5.0698">
        <ele>126.41</ele>
        <time>2026-08-07T07:42:50.516Z</time>
      </trkpt>
      <trkpt lat="49.54305" lon="5.06943">
        <ele>127.26</ele>
        <time>2026-08-07T07:42:56.513Z</time>
      </trkpt>
      <trkpt lat="49.54289" lon="5.0691">
        <ele>128.56</ele>
        <time>2026-08-07T07:43:02.517Z</time>
      </trkpt>
      <trkpt lat="49.54274" lon="5.06878">
        <ele>128.51</ele>
        <time>2026-08-07T07:43:08.514Z</time>
      </trkpt>
      <trkpt lat="49.54259" lon="5.06837">
        <ele>128.73</ele>
        <time>2026-08-07T07:43:14.515Z</time>
      </trkpt>
      <trkpt lat="49.54243" lon="5.06797">
        <ele>128.74</ele>
        <time>2026-08-07T07:43:20.512Z</time>
      </trkpt>
      <trkpt lat="49.54227" lon="5.06754">
        <ele>128.38</ele>
        <time>2026-08-07T07:43:26.512Z</time>
      </trkpt>
      <trkpt lat="49.5421" lon="5.06711">
        <ele>127.63</ele>
        <time>2026-08-07T07:43:32.514Z</time>
      </trkpt>
      <trkpt lat="49.54193" lon="5.06668">
        <ele>127.25</ele>
        <time>2026-08-07T07:43:38.513Z</time>
      </trkpt>
      <trkpt lat="49.54177" lon="5.06624">
        <ele>127.47</ele>
        <time>2026-08-07T07:43:44.516Z</time>
      </trkpt>
      <trkpt lat="49.5416" lon="5.06581">
        <ele>127.84</ele>
        <time>2026-08-07T07:43:50.512Z</time>
      </trkpt>
      <trkpt lat="49.54143" lon="5.06535">
        <ele>127.46</ele>
        <time>2026-08-07T07:43:56.512Z</time>
      </trkpt>
      <trkpt lat="49.54125" lon="5.06489">
        <ele>127.25</ele>
        <time>2026-08-07T07:44:02.512Z</time>
      </trkpt>
      <trkpt lat="49.54108" lon="5.06445">
        <ele>127.68</ele>
        <time>2026-08-07T07:44:08.514Z</time>
      </trkpt>
      <trkpt lat="49.54089" lon="5.06403">
        <ele>128.06</ele>
        <time>2026-08-07T07:44:14.518Z</time>
      </trkpt>
      <trkpt lat="49.5407" lon="5.06361">
        <ele>127.07</ele>
        <time>2026-08-07T07:44:20.519Z</time>
      </trkpt>
      <trkpt lat="49.54048" lon="5.06318">
        <ele>126.49</ele>
        <time>2026-08-07T07:44:26.513Z</time>
      </trkpt>
      <trkpt lat="49.54025" lon="5.06273">
        <ele>126.98</ele>
        <time>2026-08-07T07:44:32.513Z</time>
      </trkpt>
      <trkpt lat="49.54004" lon="5.06228">
        <ele>126.45</ele>
        <time>2026-08-07T07:44:38.517Z</time>
      </trkpt>
      <trkpt lat="49.53982" lon="5.06184">
        <ele>126.14</ele>
        <time>2026-08-07T07:44:44.518Z</time>
      </trkpt>
      <trkpt lat="49.53961" lon="5.06143">
        <ele>126.17</ele>
        <time>2026-08-07T07:44:50.515Z</time>
      </trkpt>
      <trkpt lat="49.53941" lon="5.06104">
        <ele>126.4</ele>
        <time>2026-08-07T07:44:56.520Z</time>
      </trkpt>
      <trkpt lat="49.53925" lon="5.06072">
        <ele>128.14</ele>
        <time>2026-08-07T07:45:02.510Z</time>
      </trkpt>
      <trkpt lat="49.53917" lon="5.06056">
        <ele>130.17</ele>
        <time>2026-08-07T07:45:08.499Z</time>
      </trkpt>
      <trkpt lat="49.53908" lon="5.06042">
        <ele>132.75</ele>
        <time>2026-08-07T07:45:14.497Z</time>
      </trkpt>
      <trkpt lat="49.53903" lon="5.0603">
        <ele>131.13</ele>
        <time>2026-08-07T07:45:20.503Z</time>
      </trkpt>
      <trkpt lat="49.53897" lon="5.06018">
        <ele>130.93</ele>
        <time>2026-08-07T07:45:26.502Z</time>
      </trkpt>
      <trkpt lat="49.53891" lon="5.06003">
        <ele>131.84</ele>
        <time>2026-08-07T07:45:32.516Z</time>
      </trkpt>
      <trkpt lat="49.53884" lon="5.05987">
        <ele>133.3</ele>
        <time>2026-08-07T07:45:38.510Z</time>
      </trkpt>
      <trkpt lat="49.53877" lon="5.05971">
        <ele>135.05</ele>
        <time>2026-08-07T07:45:44.511Z</time>
      </trkpt>
      <trkpt lat="49.5387" lon="5.05955">
        <ele>136.43</ele>
        <time>2026-08-07T07:45:50.514Z</time>
      </trkpt>
      <trkpt lat="49.53865" lon="5.05939">
        <ele>137.89</ele>
        <time>2026-08-07T07:45:56.516Z</time>
      </trkpt>
      <trkpt lat="49.53858" lon="5.05921">
        <ele>137.35</ele>
        <time>2026-08-07T07:46:02.515Z</time>
      </trkpt>
      <trkpt lat="49.53853" lon="5.05902">
        <ele>136.83</ele>
        <time>2026-08-07T07:46:08.512Z</time>
      </trkpt>
      <trkpt lat="49.53847" lon="5.05883">
        <ele>136.77</ele>
        <time>2026-08-07T07:46:14.517Z</time>
      </trkpt>
      <trkpt lat="49.53839" lon="5.05863">
        <ele>138.09</ele>
        <time>2026-08-07T07:46:20.514Z</time>
      </trkpt>
      <trkpt lat="49.53833" lon="5.05843">
        <ele>137.39</ele>
        <time>2026-08-07T07:46:26.513Z</time>
      </trkpt>
      <trkpt lat="49.53829" lon="5.05823">
        <ele>138.43</ele>
        <time>2026-08-07T07:46:32.513Z</time>
      </trkpt>
      <trkpt lat="49.53822" lon="5.05804">
        <ele>139.53</ele>
        <time>2026-08-07T07:46:38.516Z</time>
      </trkpt>
      <trkpt lat="49.5382" lon="5.05786">
        <ele>140.33</ele>
        <time>2026-08-07T07:46:44.514Z</time>
      </trkpt>
      <trkpt lat="49.53811" lon="5.05776">
        <ele>139.82</ele>
        <time>2026-08-07T07:46:50.514Z</time>
      </trkpt>
      <trkpt lat="49.53809" lon="5.05753">
        <ele>138.53</ele>
        <time>2026-08-07T07:46:56.513Z</time>
      </trkpt>
      <trkpt lat="49.53815" lon="5.05739">
        <ele>141.77</ele>
        <time>2026-08-07T07:49:07.448Z</time>
      </trkpt>
      <trkpt lat="49.53809" lon="5.05754">
        <ele>141.1</ele>
        <time>2026-08-07T07:49:22.456Z</time>
      </trkpt>
      <trkpt lat="49.53817" lon="5.05765">
        <ele>140.11</ele>
        <time>2026-08-07T07:49:28.450Z</time>
      </trkpt>
      <trkpt lat="49.53824" lon="5.05773">
        <ele>139.7</ele>
        <time>2026-08-07T07:49:34.449Z</time>
      </trkpt>
      <trkpt lat="49.53834" lon="5.05771">
        <ele>139.16</ele>
        <time>2026-08-07T07:49:41.453Z</time>
      </trkpt>
      <trkpt lat="49.53841" lon="5.0576">
        <ele>139.54</ele>
        <time>2026-08-07T07:49:50.511Z</time>
      </trkpt>
      <trkpt lat="49.53849" lon="5.05753">
        <ele>140.97</ele>
        <time>2026-08-07T07:59:13.444Z</time>
      </trkpt>
      <trkpt lat="49.53858" lon="5.05744">
        <ele>141.06</ele>
        <time>2026-08-07T07:59:20.486Z</time>
      </trkpt>
      <trkpt lat="49.53866" lon="5.05735">
        <ele>141.78</ele>
        <time>2026-08-07T07:59:27.441Z</time>
      </trkpt>
      <trkpt lat="49.53862" lon="5.05722">
        <ele>142.58</ele>
        <time>2026-08-07T07:59:34.440Z</time>
      </trkpt>
      <trkpt lat="49.53857" lon="5.05711">
        <ele>143.22</ele>
        <time>2026-08-07T07:59:41.439Z</time>
      </trkpt>
      <trkpt lat="49.53852" lon="5.05699">
        <ele>142.78</ele>
        <time>2026-08-07T07:59:48.447Z</time>
      </trkpt>
      <trkpt lat="49.53844" lon="5.0569">
        <ele>141.75</ele>
        <time>2026-08-07T07:59:56.510Z</time>
      </trkpt>
      <trkpt lat="49.53841" lon="5.05704">
        <ele>141.95</ele>
        <time>2026-08-07T08:01:17.187Z</time>
      </trkpt>
      <trkpt lat="49.53842" lon="5.05724">
        <ele>140.75</ele>
        <time>2026-08-07T08:01:51.452Z</time>
      </trkpt>
      <trkpt lat="49.53837" lon="5.05736">
        <ele>142.05</ele>
        <time>2026-08-07T08:02:24.451Z</time>
      </trkpt>
      <trkpt lat="49.53835" lon="5.05722">
        <ele>141.85</ele>
        <time>2026-08-07T08:03:23.242Z</time>
      </trkpt>
      <trkpt lat="49.53828" lon="5.05709">
        <ele>141.45</ele>
        <time>2026-08-07T08:03:41.200Z</time>
      </trkpt>
      <trkpt lat="49.53829" lon="5.05691">
        <ele>141.74</ele>
        <time>2026-08-07T08:03:59.439Z</time>
      </trkpt>
      <trkpt lat="49.53841" lon="5.0568">
        <ele>183.3</ele>
        <time>2026-08-07T08:06:14.727Z</time>
      </trkpt>
      <trkpt lat="49.53837" lon="5.05667">
        <ele>183.65</ele>
        <time>2026-08-07T08:11:34.517Z</time>
      </trkpt>
      <trkpt lat="49.53839" lon="5.0568">
        <ele>183.65</ele>
        <time>2026-08-07T08:11:45.478Z</time>
      </trkpt>
      <trkpt lat="49.53848" lon="5.05688">
        <ele>144.4</ele>
        <time>2026-08-07T08:13:49.450Z</time>
      </trkpt>
      <trkpt lat="49.5385" lon="5.05671">
        <ele>142.07</ele>
        <time>2026-08-07T08:13:55.438Z</time>
      </trkpt>
      <trkpt lat="49.53842" lon="5.05655">
        <ele>139.98</ele>
        <time>2026-08-07T08:14:00.442Z</time>
      </trkpt>
      <trkpt lat="49.53842" lon="5.05625">
        <ele>139.67</ele>
        <time>2026-08-07T08:14:06.439Z</time>
      </trkpt>
      <trkpt lat="49.53843" lon="5.05587">
        <ele>138.74</ele>
        <time>2026-08-07T08:14:12.439Z</time>
      </trkpt>
      <trkpt lat="49.53848" lon="5.05539">
        <ele>135.49</ele>
        <time>2026-08-07T08:14:18.442Z</time>
      </trkpt>
      <trkpt lat="49.53853" lon="5.05488">
        <ele>134.4</ele>
        <time>2026-08-07T08:14:24.438Z</time>
      </trkpt>
      <trkpt lat="49.53849" lon="5.0547">
        <ele>134.15</ele>
        <time>2026-08-07T08:15:31.440Z</time>
      </trkpt>
      <trkpt lat="49.53854" lon="5.05433">
        <ele>133.93</ele>
        <time>2026-08-07T08:15:37.435Z</time>
      </trkpt>
      <trkpt lat="49.53857" lon="5.05394">
        <ele>134.31</ele>
        <time>2026-08-07T08:15:42.439Z</time>
      </trkpt>
      <trkpt lat="49.53861" lon="5.05354">
        <ele>134.15</ele>
        <time>2026-08-07T08:15:47.442Z</time>
      </trkpt>
      <trkpt lat="49.53867" lon="5.05305">
        <ele>133.54</ele>
        <time>2026-08-07T08:15:53.439Z</time>
      </trkpt>
      <trkpt lat="49.53875" lon="5.05257">
        <ele>133.84</ele>
        <time>2026-08-07T08:15:59.436Z</time>
      </trkpt>
      <trkpt lat="49.53884" lon="5.05219">
        <ele>133.82</ele>
        <time>2026-08-07T08:16:04.438Z</time>
      </trkpt>
      <trkpt lat="49.53895" lon="5.05182">
        <ele>132.94</ele>
        <time>2026-08-07T08:16:10.435Z</time>
      </trkpt>
      <trkpt lat="49.53905" lon="5.05151">
        <ele>131.89</ele>
        <time>2026-08-07T08:16:15.436Z</time>
      </trkpt>
      <trkpt lat="49.53915" lon="5.05122">
        <ele>131.8</ele>
        <time>2026-08-07T08:16:20.481Z</time>
      </trkpt>
      <trkpt lat="49.53926" lon="5.05087">
        <ele>132.3</ele>
        <time>2026-08-07T08:16:26.506Z</time>
      </trkpt>
      <trkpt lat="49.53937" lon="5.05055">
        <ele>132.38</ele>
        <time>2026-08-07T08:16:32.486Z</time>
      </trkpt>
      <trkpt lat="49.53947" lon="5.05026">
        <ele>132.83</ele>
        <time>2026-08-07T08:16:38.480Z</time>
      </trkpt>
      <trkpt lat="49.53955" lon="5.05">
        <ele>135.01</ele>
        <time>2026-08-07T08:16:44.486Z</time>
      </trkpt>
      <trkpt lat="49.53961" lon="5.0498">
        <ele>136.26</ele>
        <time>2026-08-07T08:16:50.482Z</time>
      </trkpt>
      <trkpt lat="49.53965" lon="5.04965">
        <ele>138.19</ele>
        <time>2026-08-07T08:16:56.501Z</time>
      </trkpt>
      <trkpt lat="49.5397" lon="5.04951">
        <ele>138.73</ele>
        <time>2026-08-07T08:17:03.437Z</time>
      </trkpt>
      <trkpt lat="49.53974" lon="5.04936">
        <ele>139.45</ele>
        <time>2026-08-07T08:17:09.437Z</time>
      </trkpt>
      <trkpt lat="49.53978" lon="5.04924">
        <ele>139.64</ele>
        <time>2026-08-07T08:17:15.435Z</time>
      </trkpt>
      <trkpt lat="49.53982" lon="5.04911">
        <ele>140.02</ele>
        <time>2026-08-07T08:17:21.441Z</time>
      </trkpt>
      <trkpt lat="49.53985" lon="5.04898">
        <ele>140.45</ele>
        <time>2026-08-07T08:17:26.505Z</time>
      </trkpt>
      <trkpt lat="49.53989" lon="5.04883">
        <ele>140.95</ele>
        <time>2026-08-07T08:17:32.484Z</time>
      </trkpt>
      <trkpt lat="49.53993" lon="5.04867">
        <ele>141.86</ele>
        <time>2026-08-07T08:17:38.480Z</time>
      </trkpt>
      <trkpt lat="49.53998" lon="5.04851">
        <ele>142.6</ele>
        <time>2026-08-07T08:17:44.478Z</time>
      </trkpt>
      <trkpt lat="49.54003" lon="5.04832">
        <ele>142.67</ele>
        <time>2026-08-07T08:17:50.481Z</time>
      </trkpt>
      <trkpt lat="49.54009" lon="5.04814">
        <ele>142.71</ele>
        <time>2026-08-07T08:17:56.504Z</time>
      </trkpt>
      <trkpt lat="49.54015" lon="5.04795">
        <ele>142.75</ele>
        <time>2026-08-07T08:18:02.490Z</time>
      </trkpt>
      <trkpt lat="49.5402" lon="5.04777">
        <ele>143.7</ele>
        <time>2026-08-07T08:18:08.479Z</time>
      </trkpt>
      <trkpt lat="49.54026" lon="5.04759">
        <ele>144.97</ele>
        <time>2026-08-07T08:18:14.486Z</time>
      </trkpt>
      <trkpt lat="49.54033" lon="5.04739">
        <ele>147.23</ele>
        <time>2026-08-07T08:18:20.490Z</time>
      </trkpt>
      <trkpt lat="49.5404" lon="5.04721">
        <ele>148.51</ele>
        <time>2026-08-07T08:18:26.503Z</time>
      </trkpt>
      <trkpt lat="49.54046" lon="5.04702">
        <ele>149.56</ele>
        <time>2026-08-07T08:18:32.488Z</time>
      </trkpt>
      <trkpt lat="49.54051" lon="5.04684">
        <ele>151.39</ele>
        <time>2026-08-07T08:18:38.484Z</time>
      </trkpt>
      <trkpt lat="49.54056" lon="5.04665">
        <ele>152.67</ele>
        <time>2026-08-07T08:18:44.491Z</time>
      </trkpt>
      <trkpt lat="49.54062" lon="5.04648">
        <ele>153.81</ele>
        <time>2026-08-07T08:18:50.476Z</time>
      </trkpt>
      <trkpt lat="49.54066" lon="5.04634">
        <ele>154.82</ele>
        <time>2026-08-07T08:18:56.503Z</time>
      </trkpt>
      <trkpt lat="49.5407" lon="5.04618">
        <ele>155.16</ele>
        <time>2026-08-07T08:19:02.490Z</time>
      </trkpt>
      <trkpt lat="49.54075" lon="5.04599">
        <ele>155.88</ele>
        <time>2026-08-07T08:19:08.487Z</time>
      </trkpt>
      <trkpt lat="49.5408" lon="5.04577">
        <ele>155.91</ele>
        <time>2026-08-07T08:19:14.483Z</time>
      </trkpt>
      <trkpt lat="49.54085" lon="5.04553">
        <ele>156.72</ele>
        <time>2026-08-07T08:19:20.487Z</time>
      </trkpt>
      <trkpt lat="49.54089" lon="5.04529">
        <ele>157.46</ele>
        <time>2026-08-07T08:19:26.506Z</time>
      </trkpt>
      <trkpt lat="49.54092" lon="5.04504">
        <ele>157.96</ele>
        <time>2026-08-07T08:19:32.504Z</time>
      </trkpt>
      <trkpt lat="49.54096" lon="5.04478">
        <ele>158.46</ele>
        <time>2026-08-07T08:19:38.492Z</time>
      </trkpt>
      <trkpt lat="49.541" lon="5.04454">
        <ele>158.73</ele>
        <time>2026-08-07T08:19:44.484Z</time>
      </trkpt>
      <trkpt lat="49.54103" lon="5.04429">
        <ele>159.72</ele>
        <time>2026-08-07T08:19:50.481Z</time>
      </trkpt>
      <trkpt lat="49.54107" lon="5.04404">
        <ele>160.46</ele>
        <time>2026-08-07T08:19:56.506Z</time>
      </trkpt>
      <trkpt lat="49.54111" lon="5.04378">
        <ele>161.16</ele>
        <time>2026-08-07T08:20:02.490Z</time>
      </trkpt>
      <trkpt lat="49.54115" lon="5.04352">
        <ele>161.76</ele>
        <time>2026-08-07T08:20:08.484Z</time>
      </trkpt>
      <trkpt lat="49.54118" lon="5.04327">
        <ele>161.77</ele>
        <time>2026-08-07T08:20:14.486Z</time>
      </trkpt>
      <trkpt lat="49.54122" lon="5.04302">
        <ele>162.76</ele>
        <time>2026-08-07T08:20:20.484Z</time>
      </trkpt>
      <trkpt lat="49.54125" lon="5.04279">
        <ele>163.33</ele>
        <time>2026-08-07T08:20:26.492Z</time>
      </trkpt>
      <trkpt lat="49.5413" lon="5.04251">
        <ele>163.39</ele>
        <time>2026-08-07T08:20:32.492Z</time>
      </trkpt>
      <trkpt lat="49.54135" lon="5.04215">
        <ele>162.39</ele>
        <time>2026-08-07T08:20:38.489Z</time>
      </trkpt>
      <trkpt lat="49.54142" lon="5.04168">
        <ele>160.37</ele>
        <time>2026-08-07T08:20:44.484Z</time>
      </trkpt>
      <trkpt lat="49.54149" lon="5.04126">
        <ele>158.64</ele>
        <time>2026-08-07T08:20:50.483Z</time>
      </trkpt>
      <trkpt lat="49.54153" lon="5.04094">
        <ele>158.6</ele>
        <time>2026-08-07T08:20:56.491Z</time>
      </trkpt>
      <trkpt lat="49.54156" lon="5.0407">
        <ele>160.72</ele>
        <time>2026-08-07T08:21:02.494Z</time>
      </trkpt>
      <trkpt lat="49.54159" lon="5.04051">
        <ele>162.42</ele>
        <time>2026-08-07T08:21:08.486Z</time>
      </trkpt>
      <trkpt lat="49.54162" lon="5.04032">
        <ele>163.67</ele>
        <time>2026-08-07T08:21:14.484Z</time>
      </trkpt>
      <trkpt lat="49.54165" lon="5.04014">
        <ele>164.65</ele>
        <time>2026-08-07T08:21:20.484Z</time>
      </trkpt>
      <trkpt lat="49.54168" lon="5.03994">
        <ele>165.98</ele>
        <time>2026-08-07T08:21:26.494Z</time>
      </trkpt>
      <trkpt lat="49.54171" lon="5.03975">
        <ele>167.59</ele>
        <time>2026-08-07T08:21:32.492Z</time>
      </trkpt>
      <trkpt lat="49.54174" lon="5.03956">
        <ele>169.08</ele>
        <time>2026-08-07T08:21:38.489Z</time>
      </trkpt>
      <trkpt lat="49.54177" lon="5.03938">
        <ele>169.17</ele>
        <time>2026-08-07T08:21:44.487Z</time>
      </trkpt>
      <trkpt lat="49.5418" lon="5.03919">
        <ele>169.26</ele>
        <time>2026-08-07T08:21:50.482Z</time>
      </trkpt>
      <trkpt lat="49.54182" lon="5.03902">
        <ele>170.44</ele>
        <time>2026-08-07T08:21:56.487Z</time>
      </trkpt>
      <trkpt lat="49.54184" lon="5.03882">
        <ele>171.68</ele>
        <time>2026-08-07T08:22:02.493Z</time>
      </trkpt>
      <trkpt lat="49.54187" lon="5.03868">
        <ele>172.75</ele>
        <time>2026-08-07T08:22:08.487Z</time>
      </trkpt>
      <trkpt lat="49.5419" lon="5.0385">
        <ele>172.86</ele>
        <time>2026-08-07T08:22:14.488Z</time>
      </trkpt>
      <trkpt lat="49.54193" lon="5.03831">
        <ele>173.74</ele>
        <time>2026-08-07T08:22:20.487Z</time>
      </trkpt>
      <trkpt lat="49.54196" lon="5.03811">
        <ele>174.08</ele>
        <time>2026-08-07T08:22:26.504Z</time>
      </trkpt>
      <trkpt lat="49.54201" lon="5.03787">
        <ele>174.25</ele>
        <time>2026-08-07T08:22:32.490Z</time>
      </trkpt>
      <trkpt lat="49.54205" lon="5.03758">
        <ele>174.66</ele>
        <time>2026-08-07T08:22:38.485Z</time>
      </trkpt>
      <trkpt lat="49.5421" lon="5.03725">
        <ele>174.68</ele>
        <time>2026-08-07T08:22:44.485Z</time>
      </trkpt>
      <trkpt lat="49.54215" lon="5.03689">
        <ele>174.42</ele>
        <time>2026-08-07T08:22:50.485Z</time>
      </trkpt>
      <trkpt lat="49.54223" lon="5.03642">
        <ele>171.68</ele>
        <time>2026-08-07T08:22:56.493Z</time>
      </trkpt>
      <trkpt lat="49.54232" lon="5.0358">
        <ele>167.15</ele>
        <time>2026-08-07T08:23:02.491Z</time>
      </trkpt>
      <trkpt lat="49.54244" lon="5.03503">
        <ele>162.53</ele>
        <time>2026-08-07T08:23:08.486Z</time>
      </trkpt>
      <trkpt lat="49.54258" lon="5.03418">
        <ele>159.91</ele>
        <time>2026-08-07T08:23:14.487Z</time>
      </trkpt>
      <trkpt lat="49.5427" lon="5.0334">
        <ele>158.92</ele>
        <time>2026-08-07T08:23:20.488Z</time>
      </trkpt>
      <trkpt lat="49.5428" lon="5.03273">
        <ele>158.69</ele>
        <time>2026-08-07T08:23:26.493Z</time>
      </trkpt>
      <trkpt lat="49.54289" lon="5.03216">
        <ele>159.91</ele>
        <time>2026-08-07T08:23:32.491Z</time>
      </trkpt>
      <trkpt lat="49.54295" lon="5.03175">
        <ele>161.44</ele>
        <time>2026-08-07T08:23:38.490Z</time>
      </trkpt>
      <trkpt lat="49.543" lon="5.0315">
        <ele>163.58</ele>
        <time>2026-08-07T08:23:44.485Z</time>
      </trkpt>
      <trkpt lat="49.54304" lon="5.0313">
        <ele>165.56</ele>
        <time>2026-08-07T08:23:50.497Z</time>
      </trkpt>
      <trkpt lat="49.54306" lon="5.03108">
        <ele>167.69</ele>
        <time>2026-08-07T08:23:56.493Z</time>
      </trkpt>
      <trkpt lat="49.5431" lon="5.03085">
        <ele>169.25</ele>
        <time>2026-08-07T08:24:02.489Z</time>
      </trkpt>
      <trkpt lat="49.54312" lon="5.03065">
        <ele>169.25</ele>
        <time>2026-08-07T08:24:08.485Z</time>
      </trkpt>
      <trkpt lat="49.54316" lon="5.03043">
        <ele>169.49</ele>
        <time>2026-08-07T08:24:14.483Z</time>
      </trkpt>
      <trkpt lat="49.5432" lon="5.03017">
        <ele>168.85</ele>
        <time>2026-08-07T08:24:20.485Z</time>
      </trkpt>
      <trkpt lat="49.54324" lon="5.02988">
        <ele>168.36</ele>
        <time>2026-08-07T08:24:26.490Z</time>
      </trkpt>
      <trkpt lat="49.54329" lon="5.02958">
        <ele>168.52</ele>
        <time>2026-08-07T08:24:32.492Z</time>
      </trkpt>
      <trkpt lat="49.54334" lon="5.02921">
        <ele>168.8</ele>
        <time>2026-08-07T08:24:38.486Z</time>
      </trkpt>
      <trkpt lat="49.54341" lon="5.02883">
        <ele>168.08</ele>
        <time>2026-08-07T08:24:44.484Z</time>
      </trkpt>
      <trkpt lat="49.54347" lon="5.02843">
        <ele>166.61</ele>
        <time>2026-08-07T08:24:50.488Z</time>
      </trkpt>
      <trkpt lat="49.54354" lon="5.02801">
        <ele>165.57</ele>
        <time>2026-08-07T08:24:56.502Z</time>
      </trkpt>
      <trkpt lat="49.54361" lon="5.02752">
        <ele>163.36</ele>
        <time>2026-08-07T08:25:02.493Z</time>
      </trkpt>
      <trkpt lat="49.5437" lon="5.02691">
        <ele>159.99</ele>
        <time>2026-08-07T08:25:08.485Z</time>
      </trkpt>
      <trkpt lat="49.5438" lon="5.02633">
        <ele>159.88</ele>
        <time>2026-08-07T08:25:14.487Z</time>
      </trkpt>
      <trkpt lat="49.54386" lon="5.02594">
        <ele>162.12</ele>
        <time>2026-08-07T08:25:20.484Z</time>
      </trkpt>
      <trkpt lat="49.54389" lon="5.0257">
        <ele>164.02</ele>
        <time>2026-08-07T08:25:26.503Z</time>
      </trkpt>
      <trkpt lat="49.54393" lon="5.02547">
        <ele>165.86</ele>
        <time>2026-08-07T08:25:32.490Z</time>
      </trkpt>
      <trkpt lat="49.54398" lon="5.0252">
        <ele>166.8</ele>
        <time>2026-08-07T08:25:38.485Z</time>
      </trkpt>
      <trkpt lat="49.54401" lon="5.02494">
        <ele>167.73</ele>
        <time>2026-08-07T08:25:44.485Z</time>
      </trkpt>
      <trkpt lat="49.54403" lon="5.02473">
        <ele>168.39</ele>
        <time>2026-08-07T08:25:50.486Z</time>
      </trkpt>
      <trkpt lat="49.54405" lon="5.02451">
        <ele>169.04</ele>
        <time>2026-08-07T08:25:56.480Z</time>
      </trkpt>
      <trkpt lat="49.54406" lon="5.02428">
        <ele>169.57</ele>
        <time>2026-08-07T08:26:02.489Z</time>
      </trkpt>
      <trkpt lat="49.54405" lon="5.02407">
        <ele>170.81</ele>
        <time>2026-08-07T08:26:08.484Z</time>
      </trkpt>
      <trkpt lat="49.54406" lon="5.02385">
        <ele>171.36</ele>
        <time>2026-08-07T08:26:14.486Z</time>
      </trkpt>
      <trkpt lat="49.54405" lon="5.02361">
        <ele>172.03</ele>
        <time>2026-08-07T08:26:20.492Z</time>
      </trkpt>
      <trkpt lat="49.54405" lon="5.02337">
        <ele>172.66</ele>
        <time>2026-08-07T08:26:26.506Z</time>
      </trkpt>
      <trkpt lat="49.54404" lon="5.02314">
        <ele>173.53</ele>
        <time>2026-08-07T08:26:32.492Z</time>
      </trkpt>
      <trkpt lat="49.54404" lon="5.0229">
        <ele>173.87</ele>
        <time>2026-08-07T08:26:38.485Z</time>
      </trkpt>
      <trkpt lat="49.54403" lon="5.02267">
        <ele>174.75</ele>
        <time>2026-08-07T08:26:44.482Z</time>
      </trkpt>
      <trkpt lat="49.54402" lon="5.02243">
        <ele>175.83</ele>
        <time>2026-08-07T08:26:50.484Z</time>
      </trkpt>
      <trkpt lat="49.54402" lon="5.02221">
        <ele>176.78</ele>
        <time>2026-08-07T08:26:56.500Z</time>
      </trkpt>
      <trkpt lat="49.54401" lon="5.02196">
        <ele>177.19</ele>
        <time>2026-08-07T08:27:02.494Z</time>
      </trkpt>
      <trkpt lat="49.544" lon="5.02166">
        <ele>178.21</ele>
        <time>2026-08-07T08:27:08.487Z</time>
      </trkpt>
      <trkpt lat="49.544" lon="5.0214">
        <ele>180.39</ele>
        <time>2026-08-07T08:27:14.486Z</time>
      </trkpt>
      <trkpt lat="49.544" lon="5.0212">
        <ele>180.72</ele>
        <time>2026-08-07T08:27:20.488Z</time>
      </trkpt>
      <trkpt lat="49.54399" lon="5.02094">
        <ele>182.05</ele>
        <time>2026-08-07T08:27:26.502Z</time>
      </trkpt>
      <trkpt lat="49.54395" lon="5.0207">
        <ele>183.21</ele>
        <time>2026-08-07T08:27:32.496Z</time>
      </trkpt>
      <trkpt lat="49.5439" lon="5.02046">
        <ele>183.46</ele>
        <time>2026-08-07T08:27:38.487Z</time>
      </trkpt>
      <trkpt lat="49.54382" lon="5.02018">
        <ele>182.65</ele>
        <time>2026-08-07T08:27:44.492Z</time>
      </trkpt>
      <trkpt lat="49.54375" lon="5.01982">
        <ele>181.7</ele>
        <time>2026-08-07T08:27:50.489Z</time>
      </trkpt>
      <trkpt lat="49.54369" lon="5.01941">
        <ele>180.79</ele>
        <time>2026-08-07T08:27:56.505Z</time>
      </trkpt>
      <trkpt lat="49.54366" lon="5.01898">
        <ele>179.89</ele>
        <time>2026-08-07T08:28:02.495Z</time>
      </trkpt>
      <trkpt lat="49.54361" lon="5.01845">
        <ele>177.82</ele>
        <time>2026-08-07T08:28:08.485Z</time>
      </trkpt>
      <trkpt lat="49.54355" lon="5.01781">
        <ele>175.61</ele>
        <time>2026-08-07T08:28:14.487Z</time>
      </trkpt>
      <trkpt lat="49.54348" lon="5.01709">
        <ele>173.96</ele>
        <time>2026-08-07T08:28:20.486Z</time>
      </trkpt>
      <trkpt lat="49.54342" lon="5.01623">
        <ele>170.64</ele>
        <time>2026-08-07T08:28:26.481Z</time>
      </trkpt>
      <trkpt lat="49.54346" lon="5.01529">
        <ele>167.06</ele>
        <time>2026-08-07T08:28:32.493Z</time>
      </trkpt>
      <trkpt lat="49.54355" lon="5.01438">
        <ele>164.92</ele>
        <time>2026-08-07T08:28:38.486Z</time>
      </trkpt>
      <trkpt lat="49.54363" lon="5.01359">
        <ele>163.98</ele>
        <time>2026-08-07T08:28:44.481Z</time>
      </trkpt>
      <trkpt lat="49.54369" lon="5.01286">
        <ele>163.62</ele>
        <time>2026-08-07T08:28:50.489Z</time>
      </trkpt>
      <trkpt lat="49.54376" lon="5.01218">
        <ele>162.71</ele>
        <time>2026-08-07T08:28:56.503Z</time>
      </trkpt>
      <trkpt lat="49.54384" lon="5.0116">
        <ele>158.17</ele>
        <time>2026-08-07T08:29:02.495Z</time>
      </trkpt>
      <trkpt lat="49.54392" lon="5.011">
        <ele>155.46</ele>
        <time>2026-08-07T08:29:08.486Z</time>
      </trkpt>
      <trkpt lat="49.54402" lon="5.01031">
        <ele>154.72</ele>
        <time>2026-08-07T08:29:14.486Z</time>
      </trkpt>
      <trkpt lat="49.54414" lon="5.00952">
        <ele>153.35</ele>
        <time>2026-08-07T08:29:20.484Z</time>
      </trkpt>
      <trkpt lat="49.54431" lon="5.0086">
        <ele>148.2</ele>
        <time>2026-08-07T08:29:26.503Z</time>
      </trkpt>
      <trkpt lat="49.54455" lon="5.00787">
        <ele>142.81</ele>
        <time>2026-08-07T08:29:32.493Z</time>
      </trkpt>
      <trkpt lat="49.54497" lon="5.00783">
        <ele>140.13</ele>
        <time>2026-08-07T08:29:38.492Z</time>
      </trkpt>
      <trkpt lat="49.54539" lon="5.00782">
        <ele>138.35</ele>
        <time>2026-08-07T08:29:44.494Z</time>
      </trkpt>
      <trkpt lat="49.54589" lon="5.00788">
        <ele>137.09</ele>
        <time>2026-08-07T08:29:50.490Z</time>
      </trkpt>
      <trkpt lat="49.54643" lon="5.00795">
        <ele>135.95</ele>
        <time>2026-08-07T08:29:56.505Z</time>
      </trkpt>
      <trkpt lat="49.54697" lon="5.00801">
        <ele>134.65</ele>
        <time>2026-08-07T08:30:02.499Z</time>
      </trkpt>
      <trkpt lat="49.54743" lon="5.00809">
        <ele>133.2</ele>
        <time>2026-08-07T08:30:08.495Z</time>
      </trkpt>
      <trkpt lat="49.54784" lon="5.00812">
        <ele>133.25</ele>
        <time>2026-08-07T08:30:14.494Z</time>
      </trkpt>
      <trkpt lat="49.54822" lon="5.00819">
        <ele>133.45</ele>
        <time>2026-08-07T08:30:20.491Z</time>
      </trkpt>
      <trkpt lat="49.54857" lon="5.00828">
        <ele>134.3</ele>
        <time>2026-08-07T08:30:26.506Z</time>
      </trkpt>
      <trkpt lat="49.54894" lon="5.00844">
        <ele>133.79</ele>
        <time>2026-08-07T08:30:32.500Z</time>
      </trkpt>
      <trkpt lat="49.54929" lon="5.00867">
        <ele>133.18</ele>
        <time>2026-08-07T08:30:38.495Z</time>
      </trkpt>
      <trkpt lat="49.54955" lon="5.00898">
        <ele>133.86</ele>
        <time>2026-08-07T08:30:44.491Z</time>
      </trkpt>
      <trkpt lat="49.54975" lon="5.0093">
        <ele>136.61</ele>
        <time>2026-08-07T08:30:50.517Z</time>
      </trkpt>
      <trkpt lat="49.54988" lon="5.00964">
        <ele>134.63</ele>
        <time>2026-08-07T08:30:56.500Z</time>
      </trkpt>
      <trkpt lat="49.54999" lon="5.00995">
        <ele>134.43</ele>
        <time>2026-08-07T08:31:02.502Z</time>
      </trkpt>
      <trkpt lat="49.55007" lon="5.01024">
        <ele>134.71</ele>
        <time>2026-08-07T08:31:08.490Z</time>
      </trkpt>
      <trkpt lat="49.55019" lon="5.01045">
        <ele>134.39</ele>
        <time>2026-08-07T08:31:14.491Z</time>
      </trkpt>
      <trkpt lat="49.55033" lon="5.01062">
        <ele>137.26</ele>
        <time>2026-08-07T08:31:20.494Z</time>
      </trkpt>
      <trkpt lat="49.55045" lon="5.01077">
        <ele>141.86</ele>
        <time>2026-08-07T08:31:26.495Z</time>
      </trkpt>
      <trkpt lat="49.5506" lon="5.0109">
        <ele>142.92</ele>
        <time>2026-08-07T08:31:32.507Z</time>
      </trkpt>
      <trkpt lat="49.55086" lon="5.01104">
        <ele>142.58</ele>
        <time>2026-08-07T08:31:38.488Z</time>
      </trkpt>
      <trkpt lat="49.55118" lon="5.01116">
        <ele>142.76</ele>
        <time>2026-08-07T08:31:44.485Z</time>
      </trkpt>
      <trkpt lat="49.55146" lon="5.01127">
        <ele>143.58</ele>
        <time>2026-08-07T08:31:50.487Z</time>
      </trkpt>
      <trkpt lat="49.55176" lon="5.01135">
        <ele>143.69</ele>
        <time>2026-08-07T08:31:56.503Z</time>
      </trkpt>
      <trkpt lat="49.55202" lon="5.01143">
        <ele>143.01</ele>
        <time>2026-08-07T08:32:02.502Z</time>
      </trkpt>
      <trkpt lat="49.5523" lon="5.01149">
        <ele>141.35</ele>
        <time>2026-08-07T08:32:08.493Z</time>
      </trkpt>
      <trkpt lat="49.55258" lon="5.01155">
        <ele>140.84</ele>
        <time>2026-08-07T08:32:14.497Z</time>
      </trkpt>
      <trkpt lat="49.55284" lon="5.01163">
        <ele>140.43</ele>
        <time>2026-08-07T08:32:20.491Z</time>
      </trkpt>
      <trkpt lat="49.55311" lon="5.01169">
        <ele>141.54</ele>
        <time>2026-08-07T08:32:26.507Z</time>
      </trkpt>
      <trkpt lat="49.55336" lon="5.01177">
        <ele>142.02</ele>
        <time>2026-08-07T08:32:32.504Z</time>
      </trkpt>
      <trkpt lat="49.5536" lon="5.01187">
        <ele>142.55</ele>
        <time>2026-08-07T08:32:38.499Z</time>
      </trkpt>
      <trkpt lat="49.55388" lon="5.01198">
        <ele>142.42</ele>
        <time>2026-08-07T08:32:44.495Z</time>
      </trkpt>
      <trkpt lat="49.55424" lon="5.01206">
        <ele>139.49</ele>
        <time>2026-08-07T08:32:50.490Z</time>
      </trkpt>
      <trkpt lat="49.55469" lon="5.01202">
        <ele>136.15</ele>
        <time>2026-08-07T08:32:56.501Z</time>
      </trkpt>
      <trkpt lat="49.55512" lon="5.01181">
        <ele>134.69</ele>
        <time>2026-08-07T08:33:02.501Z</time>
      </trkpt>
      <trkpt lat="49.55542" lon="5.01147">
        <ele>135.68</ele>
        <time>2026-08-07T08:33:08.496Z</time>
      </trkpt>
      <trkpt lat="49.5557" lon="5.01109">
        <ele>136.13</ele>
        <time>2026-08-07T08:33:14.493Z</time>
      </trkpt>
      <trkpt lat="49.55595" lon="5.01078">
        <ele>136.32</ele>
        <time>2026-08-07T08:33:20.492Z</time>
      </trkpt>
      <trkpt lat="49.5562" lon="5.01049">
        <ele>135.89</ele>
        <time>2026-08-07T08:33:26.499Z</time>
      </trkpt>
      <trkpt lat="49.55644" lon="5.0102">
        <ele>136.32</ele>
        <time>2026-08-07T08:33:32.503Z</time>
      </trkpt>
      <trkpt lat="49.5567" lon="5.00992">
        <ele>136.32</ele>
        <time>2026-08-07T08:33:38.495Z</time>
      </trkpt>
      <trkpt lat="49.55697" lon="5.00967">
        <ele>136.45</ele>
        <time>2026-08-07T08:33:44.494Z</time>
      </trkpt>
      <trkpt lat="49.55723" lon="5.00948">
        <ele>135.63</ele>
        <time>2026-08-07T08:33:50.499Z</time>
      </trkpt>
      <trkpt lat="49.55749" lon="5.00936">
        <ele>135.63</ele>
        <time>2026-08-07T08:33:56.502Z</time>
      </trkpt>
      <trkpt lat="49.55778" lon="5.00929">
        <ele>136.57</ele>
        <time>2026-08-07T08:34:02.505Z</time>
      </trkpt>
      <trkpt lat="49.55808" lon="5.00925">
        <ele>136.4</ele>
        <time>2026-08-07T08:34:08.494Z</time>
      </trkpt>
      <trkpt lat="49.55838" lon="5.00924">
        <ele>136.77</ele>
        <time>2026-08-07T08:34:14.494Z</time>
      </trkpt>
      <trkpt lat="49.55865" lon="5.00924">
        <ele>136.4</ele>
        <time>2026-08-07T08:34:20.492Z</time>
      </trkpt>
      <trkpt lat="49.55892" lon="5.00926">
        <ele>137.64</ele>
        <time>2026-08-07T08:34:26.504Z</time>
      </trkpt>
      <trkpt lat="49.55915" lon="5.00929">
        <ele>138.29</ele>
        <time>2026-08-07T08:34:32.504Z</time>
      </trkpt>
      <trkpt lat="49.55936" lon="5.00933">
        <ele>138.06</ele>
        <time>2026-08-07T08:34:38.494Z</time>
      </trkpt>
      <trkpt lat="49.55959" lon="5.00939">
        <ele>138.99</ele>
        <time>2026-08-07T08:34:44.490Z</time>
      </trkpt>
      <trkpt lat="49.55982" lon="5.00946">
        <ele>138.87</ele>
        <time>2026-08-07T08:34:50.491Z</time>
      </trkpt>
      <trkpt lat="49.56005" lon="5.00955">
        <ele>138.74</ele>
        <time>2026-08-07T08:34:56.506Z</time>
      </trkpt>
      <trkpt lat="49.56026" lon="5.00967">
        <ele>138.5</ele>
        <time>2026-08-07T08:35:02.503Z</time>
      </trkpt>
      <trkpt lat="49.56047" lon="5.0098">
        <ele>138.49</ele>
        <time>2026-08-07T08:35:08.493Z</time>
      </trkpt>
      <trkpt lat="49.56067" lon="5.00997">
        <ele>138.79</ele>
        <time>2026-08-07T08:35:14.491Z</time>
      </trkpt>
      <trkpt lat="49.56087" lon="5.01016">
        <ele>139.32</ele>
        <time>2026-08-07T08:35:20.492Z</time>
      </trkpt>
      <trkpt lat="49.56106" lon="5.01036">
        <ele>139.6</ele>
        <time>2026-08-07T08:35:26.501Z</time>
      </trkpt>
      <trkpt lat="49.56124" lon="5.01055">
        <ele>140.28</ele>
        <time>2026-08-07T08:35:32.502Z</time>
      </trkpt>
      <trkpt lat="49.56142" lon="5.01075">
        <ele>140.51</ele>
        <time>2026-08-07T08:35:38.497Z</time>
      </trkpt>
      <trkpt lat="49.5616" lon="5.01096">
        <ele>140.75</ele>
        <time>2026-08-07T08:35:44.499Z</time>
      </trkpt>
      <trkpt lat="49.56178" lon="5.01116">
        <ele>141.15</ele>
        <time>2026-08-07T08:35:50.505Z</time>
      </trkpt>
      <trkpt lat="49.56197" lon="5.01135">
        <ele>140.77</ele>
        <time>2026-08-07T08:35:56.503Z</time>
      </trkpt>
      <trkpt lat="49.56215" lon="5.01155">
        <ele>141.67</ele>
        <time>2026-08-07T08:36:02.504Z</time>
      </trkpt>
      <trkpt lat="49.56234" lon="5.01174">
        <ele>142.42</ele>
        <time>2026-08-07T08:36:08.507Z</time>
      </trkpt>
      <trkpt lat="49.56253" lon="5.01194">
        <ele>142.54</ele>
        <time>2026-08-07T08:36:14.503Z</time>
      </trkpt>
      <trkpt lat="49.56272" lon="5.01214">
        <ele>142.29</ele>
        <time>2026-08-07T08:36:20.496Z</time>
      </trkpt>
      <trkpt lat="49.56291" lon="5.01233">
        <ele>142.34</ele>
        <time>2026-08-07T08:36:26.507Z</time>
      </trkpt>
      <trkpt lat="49.56311" lon="5.01251">
        <ele>142.17</ele>
        <time>2026-08-07T08:36:32.502Z</time>
      </trkpt>
      <trkpt lat="49.56332" lon="5.01268">
        <ele>142.84</ele>
        <time>2026-08-07T08:36:38.503Z</time>
      </trkpt>
      <trkpt lat="49.56351" lon="5.01285">
        <ele>143.16</ele>
        <time>2026-08-07T08:36:44.504Z</time>
      </trkpt>
      <trkpt lat="49.56371" lon="5.01303">
        <ele>144.37</ele>
        <time>2026-08-07T08:36:50.502Z</time>
      </trkpt>
      <trkpt lat="49.56391" lon="5.01323">
        <ele>144.31</ele>
        <time>2026-08-07T08:36:56.501Z</time>
      </trkpt>
      <trkpt lat="49.56412" lon="5.0134">
        <ele>144.06</ele>
        <time>2026-08-07T08:37:02.503Z</time>
      </trkpt>
      <trkpt lat="49.56435" lon="5.01353">
        <ele>143.62</ele>
        <time>2026-08-07T08:37:08.505Z</time>
      </trkpt>
      <trkpt lat="49.56461" lon="5.01359">
        <ele>143.82</ele>
        <time>2026-08-07T08:37:14.506Z</time>
      </trkpt>
      <trkpt lat="49.56491" lon="5.01357">
        <ele>141.43</ele>
        <time>2026-08-07T08:37:20.502Z</time>
      </trkpt>
      <trkpt lat="49.5653" lon="5.01344">
        <ele>138.42</ele>
        <time>2026-08-07T08:37:26.504Z</time>
      </trkpt>
      <trkpt lat="49.56576" lon="5.01346">
        <ele>134.6</ele>
        <time>2026-08-07T08:37:32.505Z</time>
      </trkpt>
      <trkpt lat="49.56615" lon="5.01384">
        <ele>133.31</ele>
        <time>2026-08-07T08:37:38.509Z</time>
      </trkpt>
      <trkpt lat="49.56633" lon="5.01436">
        <ele>134.26</ele>
        <time>2026-08-07T08:37:44.504Z</time>
      </trkpt>
      <trkpt lat="49.56641" lon="5.01484">
        <ele>134.04</ele>
        <time>2026-08-07T08:37:50.502Z</time>
      </trkpt>
      <trkpt lat="49.5665" lon="5.01534">
        <ele>132.92</ele>
        <time>2026-08-07T08:37:56.508Z</time>
      </trkpt>
      <trkpt lat="49.56663" lon="5.01587">
        <ele>130.87</ele>
        <time>2026-08-07T08:38:02.499Z</time>
      </trkpt>
      <trkpt lat="49.56674" lon="5.01645">
        <ele>128.99</ele>
        <time>2026-08-07T08:38:08.503Z</time>
      </trkpt>
      <trkpt lat="49.5668" lon="5.01689">
        <ele>130.66</ele>
        <time>2026-08-07T08:38:14.508Z</time>
      </trkpt>
      <trkpt lat="49.5668" lon="5.0172">
        <ele>131.52</ele>
        <time>2026-08-07T08:38:20.510Z</time>
      </trkpt>
      <trkpt lat="49.56682" lon="5.01752">
        <ele>132.48</ele>
        <time>2026-08-07T08:38:26.493Z</time>
      </trkpt>
      <trkpt lat="49.56693" lon="5.01782">
        <ele>134.03</ele>
        <time>2026-08-07T08:38:32.507Z</time>
      </trkpt>
      <trkpt lat="49.56706" lon="5.01811">
        <ele>134.64</ele>
        <time>2026-08-07T08:38:38.504Z</time>
      </trkpt>
      <trkpt lat="49.56719" lon="5.01837">
        <ele>134.8</ele>
        <time>2026-08-07T08:38:44.495Z</time>
      </trkpt>
      <trkpt lat="49.5673" lon="5.01868">
        <ele>135.81</ele>
        <time>2026-08-07T08:38:50.507Z</time>
      </trkpt>
      <trkpt lat="49.56744" lon="5.01895">
        <ele>135.26</ele>
        <time>2026-08-07T08:38:56.503Z</time>
      </trkpt>
      <trkpt lat="49.56763" lon="5.01922">
        <ele>135.29</ele>
        <time>2026-08-07T08:39:02.500Z</time>
      </trkpt>
      <trkpt lat="49.56785" lon="5.01953">
        <ele>133.19</ele>
        <time>2026-08-07T08:39:08.508Z</time>
      </trkpt>
      <trkpt lat="49.5681" lon="5.01989">
        <ele>129.75</ele>
        <time>2026-08-07T08:39:14.505Z</time>
      </trkpt>
      <trkpt lat="49.56836" lon="5.02026">
        <ele>128.67</ele>
        <time>2026-08-07T08:39:20.505Z</time>
      </trkpt>
      <trkpt lat="49.56862" lon="5.0206">
        <ele>129.04</ele>
        <time>2026-08-07T08:39:26.507Z</time>
      </trkpt>
      <trkpt lat="49.5689" lon="5.02093">
        <ele>128.29</ele>
        <time>2026-08-07T08:39:32.502Z</time>
      </trkpt>
      <trkpt lat="49.56915" lon="5.02126">
        <ele>129.67</ele>
        <time>2026-08-07T08:39:38.506Z</time>
      </trkpt>
      <trkpt lat="49.56938" lon="5.02152">
        <ele>131.42</ele>
        <time>2026-08-07T08:39:44.506Z</time>
      </trkpt>
      <trkpt lat="49.5696" lon="5.02173">
        <ele>132.19</ele>
        <time>2026-08-07T08:39:50.510Z</time>
      </trkpt>
      <trkpt lat="49.5698" lon="5.02193">
        <ele>132.52</ele>
        <time>2026-08-07T08:39:56.508Z</time>
      </trkpt>
      <trkpt lat="49.56998" lon="5.0221">
        <ele>132.94</ele>
        <time>2026-08-07T08:40:02.505Z</time>
      </trkpt>
      <trkpt lat="49.57014" lon="5.02223">
        <ele>133.52</ele>
        <time>2026-08-07T08:40:08.508Z</time>
      </trkpt>
      <trkpt lat="49.5703" lon="5.02236">
        <ele>134.79</ele>
        <time>2026-08-07T08:40:14.506Z</time>
      </trkpt>
      <trkpt lat="49.57045" lon="5.02249">
        <ele>135.1</ele>
        <time>2026-08-07T08:40:20.506Z</time>
      </trkpt>
      <trkpt lat="49.57061" lon="5.02261">
        <ele>137.13</ele>
        <time>2026-08-07T08:40:26.506Z</time>
      </trkpt>
      <trkpt lat="49.57075" lon="5.02271">
        <ele>138.04</ele>
        <time>2026-08-07T08:40:32.504Z</time>
      </trkpt>
      <trkpt lat="49.5709" lon="5.02281">
        <ele>138.8</ele>
        <time>2026-08-07T08:40:38.506Z</time>
      </trkpt>
      <trkpt lat="49.57104" lon="5.02291">
        <ele>138.72</ele>
        <time>2026-08-07T08:40:44.507Z</time>
      </trkpt>
      <trkpt lat="49.57119" lon="5.02304">
        <ele>139.86</ele>
        <time>2026-08-07T08:40:50.505Z</time>
      </trkpt>
      <trkpt lat="49.57134" lon="5.02316">
        <ele>140.2</ele>
        <time>2026-08-07T08:40:56.489Z</time>
      </trkpt>
      <trkpt lat="49.57151" lon="5.02327">
        <ele>140.78</ele>
        <time>2026-08-07T08:41:02.500Z</time>
      </trkpt>
      <trkpt lat="49.57167" lon="5.02338">
        <ele>141.49</ele>
        <time>2026-08-07T08:41:08.508Z</time>
      </trkpt>
      <trkpt lat="49.57181" lon="5.02349">
        <ele>142.06</ele>
        <time>2026-08-07T08:41:14.503Z</time>
      </trkpt>
      <trkpt lat="49.57195" lon="5.02362">
        <ele>141.95</ele>
        <time>2026-08-07T08:41:20.506Z</time>
      </trkpt>
      <trkpt lat="49.57207" lon="5.02377">
        <ele>142.66</ele>
        <time>2026-08-07T08:41:26.505Z</time>
      </trkpt>
      <trkpt lat="49.5722" lon="5.02392">
        <ele>143.97</ele>
        <time>2026-08-07T08:41:32.504Z</time>
      </trkpt>
      <trkpt lat="49.57233" lon="5.02409">
        <ele>145.26</ele>
        <time>2026-08-07T08:41:38.507Z</time>
      </trkpt>
      <trkpt lat="49.57247" lon="5.02425">
        <ele>145.31</ele>
        <time>2026-08-07T08:41:44.506Z</time>
      </trkpt>
      <trkpt lat="49.57262" lon="5.02441">
        <ele>145.26</ele>
        <time>2026-08-07T08:41:50.504Z</time>
      </trkpt>
      <trkpt lat="49.57277" lon="5.02457">
        <ele>144.33</ele>
        <time>2026-08-07T08:41:56.505Z</time>
      </trkpt>
      <trkpt lat="49.57299" lon="5.02476">
        <ele>142.95</ele>
        <time>2026-08-07T08:42:02.498Z</time>
      </trkpt>
      <trkpt lat="49.57324" lon="5.02495">
        <ele>142.22</ele>
        <time>2026-08-07T08:42:08.502Z</time>
      </trkpt>
      <trkpt lat="49.57348" lon="5.02515">
        <ele>142.27</ele>
        <time>2026-08-07T08:42:14.505Z</time>
      </trkpt>
      <trkpt lat="49.57371" lon="5.02536">
        <ele>142.2</ele>
        <time>2026-08-07T08:42:20.506Z</time>
      </trkpt>
      <trkpt lat="49.57392" lon="5.02556">
        <ele>143.5</ele>
        <time>2026-08-07T08:42:26.504Z</time>
      </trkpt>
      <trkpt lat="49.57412" lon="5.02575">
        <ele>144.71</ele>
        <time>2026-08-07T08:42:32.490Z</time>
      </trkpt>
      <trkpt lat="49.57433" lon="5.02595">
        <ele>145.25</ele>
        <time>2026-08-07T08:42:38.503Z</time>
      </trkpt>
      <trkpt lat="49.57456" lon="5.02617">
        <ele>145.15</ele>
        <time>2026-08-07T08:42:44.509Z</time>
      </trkpt>
      <trkpt lat="49.57478" lon="5.02638">
        <ele>145.3</ele>
        <time>2026-08-07T08:42:50.504Z</time>
      </trkpt>
      <trkpt lat="49.57502" lon="5.02661">
        <ele>144.22</ele>
        <time>2026-08-07T08:42:56.506Z</time>
      </trkpt>
      <trkpt lat="49.57526" lon="5.02685">
        <ele>141.83</ele>
        <time>2026-08-07T08:43:02.501Z</time>
      </trkpt>
      <trkpt lat="49.57549" lon="5.0271">
        <ele>140.32</ele>
        <time>2026-08-07T08:43:08.506Z</time>
      </trkpt>
      <trkpt lat="49.57572" lon="5.02735">
        <ele>140.61</ele>
        <time>2026-08-07T08:43:14.508Z</time>
      </trkpt>
      <trkpt lat="49.57592" lon="5.02761">
        <ele>140.75</ele>
        <time>2026-08-07T08:43:20.510Z</time>
      </trkpt>
      <trkpt lat="49.5761" lon="5.02787">
        <ele>141.46</ele>
        <time>2026-08-07T08:43:26.513Z</time>
      </trkpt>
      <trkpt lat="49.57626" lon="5.02813">
        <ele>143.28</ele>
        <time>2026-08-07T08:43:32.501Z</time>
      </trkpt>
      <trkpt lat="49.57642" lon="5.02842">
        <ele>144.08</ele>
        <time>2026-08-07T08:43:38.509Z</time>
      </trkpt>
      <trkpt lat="49.57657" lon="5.02871">
        <ele>144.49</ele>
        <time>2026-08-07T08:43:44.507Z</time>
      </trkpt>
      <trkpt lat="49.57672" lon="5.02898">
        <ele>144.05</ele>
        <time>2026-08-07T08:43:50.506Z</time>
      </trkpt>
      <trkpt lat="49.57686" lon="5.02923">
        <ele>144.24</ele>
        <time>2026-08-07T08:43:56.509Z</time>
      </trkpt>
      <trkpt lat="49.57705" lon="5.02949">
        <ele>143.88</ele>
        <time>2026-08-07T08:44:02.502Z</time>
      </trkpt>
      <trkpt lat="49.57724" lon="5.02974">
        <ele>143.84</ele>
        <time>2026-08-07T08:44:08.510Z</time>
      </trkpt>
      <trkpt lat="49.57743" lon="5.02999">
        <ele>144.06</ele>
        <time>2026-08-07T08:44:14.507Z</time>
      </trkpt>
      <trkpt lat="49.57763" lon="5.03022">
        <ele>144.86</ele>
        <time>2026-08-07T08:44:20.509Z</time>
      </trkpt>
      <trkpt lat="49.57782" lon="5.03045">
        <ele>146.32</ele>
        <time>2026-08-07T08:44:26.506Z</time>
      </trkpt>
      <trkpt lat="49.57801" lon="5.03067">
        <ele>146.78</ele>
        <time>2026-08-07T08:44:32.505Z</time>
      </trkpt>
      <trkpt lat="49.5782" lon="5.03089">
        <ele>146.28</ele>
        <time>2026-08-07T08:44:38.504Z</time>
      </trkpt>
      <trkpt lat="49.57841" lon="5.03107">
        <ele>146.43</ele>
        <time>2026-08-07T08:44:44.505Z</time>
      </trkpt>
      <trkpt lat="49.57866" lon="5.03117">
        <ele>146.52</ele>
        <time>2026-08-07T08:44:50.509Z</time>
      </trkpt>
      <trkpt lat="49.57892" lon="5.03117">
        <ele>146.36</ele>
        <time>2026-08-07T08:44:56.509Z</time>
      </trkpt>
      <trkpt lat="49.57916" lon="5.0312">
        <ele>147.53</ele>
        <time>2026-08-07T08:45:02.504Z</time>
      </trkpt>
      <trkpt lat="49.5794" lon="5.03125">
        <ele>147.62</ele>
        <time>2026-08-07T08:45:08.506Z</time>
      </trkpt>
      <trkpt lat="49.57967" lon="5.03134">
        <ele>146.83</ele>
        <time>2026-08-07T08:45:14.505Z</time>
      </trkpt>
      <trkpt lat="49.57998" lon="5.03145">
        <ele>146.27</ele>
        <time>2026-08-07T08:45:20.506Z</time>
      </trkpt>
      <trkpt lat="49.58027" lon="5.0316">
        <ele>145.46</ele>
        <time>2026-08-07T08:45:26.500Z</time>
      </trkpt>
      <trkpt lat="49.58055" lon="5.03177">
        <ele>144.68</ele>
        <time>2026-08-07T08:45:32.503Z</time>
      </trkpt>
      <trkpt lat="49.58084" lon="5.03196">
        <ele>144.6</ele>
        <time>2026-08-07T08:45:38.506Z</time>
      </trkpt>
      <trkpt lat="49.58112" lon="5.03218">
        <ele>143.83</ele>
        <time>2026-08-07T08:45:44.506Z</time>
      </trkpt>
      <trkpt lat="49.58138" lon="5.03247">
        <ele>143.73</ele>
        <time>2026-08-07T08:45:50.507Z</time>
      </trkpt>
      <trkpt lat="49.5816" lon="5.0328">
        <ele>144.14</ele>
        <time>2026-08-07T08:45:56.500Z</time>
      </trkpt>
      <trkpt lat="49.58182" lon="5.03319">
        <ele>143.27</ele>
        <time>2026-08-07T08:46:02.502Z</time>
      </trkpt>
      <trkpt lat="49.58201" lon="5.03377">
        <ele>139.33</ele>
        <time>2026-08-07T08:46:08.505Z</time>
      </trkpt>
      <trkpt lat="49.58208" lon="5.03454">
        <ele>136.7</ele>
        <time>2026-08-07T08:46:14.506Z</time>
      </trkpt>
      <trkpt lat="49.58217" lon="5.03526">
        <ele>135.26</ele>
        <time>2026-08-07T08:46:20.505Z</time>
      </trkpt>
      <trkpt lat="49.58229" lon="5.03586">
        <ele>135.2</ele>
        <time>2026-08-07T08:46:26.501Z</time>
      </trkpt>
      <trkpt lat="49.5824" lon="5.03643">
        <ele>134.91</ele>
        <time>2026-08-07T08:46:32.499Z</time>
      </trkpt>
      <trkpt lat="49.58253" lon="5.03699">
        <ele>134.47</ele>
        <time>2026-08-07T08:46:38.507Z</time>
      </trkpt>
      <trkpt lat="49.58268" lon="5.03751">
        <ele>133.34</ele>
        <time>2026-08-07T08:46:44.504Z</time>
      </trkpt>
      <trkpt lat="49.58287" lon="5.03803">
        <ele>132.75</ele>
        <time>2026-08-07T08:46:50.510Z</time>
      </trkpt>
      <trkpt lat="49.58309" lon="5.03861">
        <ele>131.49</ele>
        <time>2026-08-07T08:46:56.501Z</time>
      </trkpt>
      <trkpt lat="49.58332" lon="5.03921">
        <ele>129.12</ele>
        <time>2026-08-07T08:47:02.502Z</time>
      </trkpt>
      <trkpt lat="49.58353" lon="5.03978">
        <ele>128.28</ele>
        <time>2026-08-07T08:47:08.507Z</time>
      </trkpt>
      <trkpt lat="49.5837" lon="5.04034">
        <ele>129.26</ele>
        <time>2026-08-07T08:47:14.508Z</time>
      </trkpt>
      <trkpt lat="49.58387" lon="5.04091">
        <ele>129.4</ele>
        <time>2026-08-07T08:47:20.505Z</time>
      </trkpt>
      <trkpt lat="49.58404" lon="5.04138">
        <ele>129.07</ele>
        <time>2026-08-07T08:47:26.507Z</time>
      </trkpt>
      <trkpt lat="49.58424" lon="5.04178">
        <ele>128.98</ele>
        <time>2026-08-07T08:47:32.499Z</time>
      </trkpt>
      <trkpt lat="49.58454" lon="5.04203">
        <ele>129.7</ele>
        <time>2026-08-07T08:47:38.498Z</time>
      </trkpt>
      <trkpt lat="49.58483" lon="5.04215">
        <ele>127.98</ele>
        <time>2026-08-07T08:47:44.619Z</time>
      </trkpt>
      <trkpt lat="49.58516" lon="5.04227">
        <ele>126.14</ele>
        <time>2026-08-07T08:47:50.495Z</time>
      </trkpt>
      <trkpt lat="49.58547" lon="5.04258">
        <ele>122.69</ele>
        <time>2026-08-07T08:47:56.496Z</time>
      </trkpt>
      <trkpt lat="49.5857" lon="5.04307">
        <ele>123.83</ele>
        <time>2026-08-07T08:48:02.500Z</time>
      </trkpt>
      <trkpt lat="49.58594" lon="5.04359">
        <ele>123.6</ele>
        <time>2026-08-07T08:48:08.508Z</time>
      </trkpt>
      <trkpt lat="49.58619" lon="5.0441">
        <ele>125.13</ele>
        <time>2026-08-07T08:48:14.510Z</time>
      </trkpt>
      <trkpt lat="49.5864" lon="5.04455">
        <ele>125.11</ele>
        <time>2026-08-07T08:48:20.505Z</time>
      </trkpt>
      <trkpt lat="49.58659" lon="5.04494">
        <ele>124.47</ele>
        <time>2026-08-07T08:48:26.500Z</time>
      </trkpt>
      <trkpt lat="49.58677" lon="5.0453">
        <ele>123.15</ele>
        <time>2026-08-07T08:48:32.504Z</time>
      </trkpt>
      <trkpt lat="49.58695" lon="5.04563">
        <ele>122.6</ele>
        <time>2026-08-07T08:48:38.507Z</time>
      </trkpt>
      <trkpt lat="49.58718" lon="5.04588">
        <ele>121.56</ele>
        <time>2026-08-07T08:48:44.505Z</time>
      </trkpt>
      <trkpt lat="49.58745" lon="5.0461">
        <ele>124.51</ele>
        <time>2026-08-07T08:48:50.508Z</time>
      </trkpt>
      <trkpt lat="49.58767" lon="5.0464">
        <ele>125.38</ele>
        <time>2026-08-07T08:48:56.502Z</time>
      </trkpt>
      <trkpt lat="49.58784" lon="5.04676">
        <ele>125.38</ele>
        <time>2026-08-07T08:49:02.501Z</time>
      </trkpt>
      <trkpt lat="49.58798" lon="5.04712">
        <ele>125.75</ele>
        <time>2026-08-07T08:49:08.506Z</time>
      </trkpt>
      <trkpt lat="49.58812" lon="5.0475">
        <ele>126.6</ele>
        <time>2026-08-07T08:49:14.508Z</time>
      </trkpt>
      <trkpt lat="49.58827" lon="5.04787">
        <ele>127.27</ele>
        <time>2026-08-07T08:49:20.507Z</time>
      </trkpt>
      <trkpt lat="49.58843" lon="5.04821">
        <ele>126.72</ele>
        <time>2026-08-07T08:49:26.501Z</time>
      </trkpt>
      <trkpt lat="49.58861" lon="5.04852">
        <ele>126.46</ele>
        <time>2026-08-07T08:49:32.504Z</time>
      </trkpt>
      <trkpt lat="49.58878" lon="5.0488">
        <ele>127.85</ele>
        <time>2026-08-07T08:49:38.510Z</time>
      </trkpt>
      <trkpt lat="49.58897" lon="5.0491">
        <ele>128.61</ele>
        <time>2026-08-07T08:49:44.508Z</time>
      </trkpt>
      <trkpt lat="49.58911" lon="5.04939">
        <ele>128.59</ele>
        <time>2026-08-07T08:49:50.509Z</time>
      </trkpt>
      <trkpt lat="49.58924" lon="5.0497">
        <ele>129</ele>
        <time>2026-08-07T08:49:56.510Z</time>
      </trkpt>
      <trkpt lat="49.58938" lon="5.05001">
        <ele>130.15</ele>
        <time>2026-08-07T08:50:02.505Z</time>
      </trkpt>
      <trkpt lat="49.58951" lon="5.05033">
        <ele>130.46</ele>
        <time>2026-08-07T08:50:08.507Z</time>
      </trkpt>
      <trkpt lat="49.58963" lon="5.05063">
        <ele>130.65</ele>
        <time>2026-08-07T08:50:14.509Z</time>
      </trkpt>
      <trkpt lat="49.58975" lon="5.05094">
        <ele>132.09</ele>
        <time>2026-08-07T08:50:20.509Z</time>
      </trkpt>
      <trkpt lat="49.58989" lon="5.05125">
        <ele>132.22</ele>
        <time>2026-08-07T08:50:26.506Z</time>
      </trkpt>
      <trkpt lat="49.59002" lon="5.05155">
        <ele>133.45</ele>
        <time>2026-08-07T08:50:32.500Z</time>
      </trkpt>
      <trkpt lat="49.59013" lon="5.05185">
        <ele>133.53</ele>
        <time>2026-08-07T08:50:38.507Z</time>
      </trkpt>
      <trkpt lat="49.59026" lon="5.05216">
        <ele>133.61</ele>
        <time>2026-08-07T08:50:44.506Z</time>
      </trkpt>
      <trkpt lat="49.59037" lon="5.05249">
        <ele>134.17</ele>
        <time>2026-08-07T08:50:50.508Z</time>
      </trkpt>
      <trkpt lat="49.59051" lon="5.05285">
        <ele>134.66</ele>
        <time>2026-08-07T08:50:56.489Z</time>
      </trkpt>
      <trkpt lat="49.59068" lon="5.05326">
        <ele>132.69</ele>
        <time>2026-08-07T08:51:02.501Z</time>
      </trkpt>
      <trkpt lat="49.59089" lon="5.05366">
        <ele>130.16</ele>
        <time>2026-08-07T08:51:08.507Z</time>
      </trkpt>
      <trkpt lat="49.5911" lon="5.05407">
        <ele>129.59</ele>
        <time>2026-08-07T08:51:14.513Z</time>
      </trkpt>
      <trkpt lat="49.59131" lon="5.0545">
        <ele>128.77</ele>
        <time>2026-08-07T08:51:20.505Z</time>
      </trkpt>
      <trkpt lat="49.59151" lon="5.05494">
        <ele>127.57</ele>
        <time>2026-08-07T08:51:26.505Z</time>
      </trkpt>
      <trkpt lat="49.59174" lon="5.05545">
        <ele>126.7</ele>
        <time>2026-08-07T08:51:32.498Z</time>
      </trkpt>
      <trkpt lat="49.59198" lon="5.056">
        <ele>126.7</ele>
        <time>2026-08-07T08:51:38.505Z</time>
      </trkpt>
      <trkpt lat="49.59218" lon="5.05649">
        <ele>126.68</ele>
        <time>2026-08-07T08:51:44.504Z</time>
      </trkpt>
      <trkpt lat="49.59235" lon="5.05699">
        <ele>126.47</ele>
        <time>2026-08-07T08:51:50.504Z</time>
      </trkpt>
      <trkpt lat="49.59254" lon="5.05751">
        <ele>126.16</ele>
        <time>2026-08-07T08:51:56.504Z</time>
      </trkpt>
      <trkpt lat="49.59275" lon="5.058">
        <ele>125.82</ele>
        <time>2026-08-07T08:52:02.508Z</time>
      </trkpt>
      <trkpt lat="49.59299" lon="5.05844">
        <ele>126.9</ele>
        <time>2026-08-07T08:52:08.506Z</time>
      </trkpt>
      <trkpt lat="49.59325" lon="5.05886">
        <ele>125.68</ele>
        <time>2026-08-07T08:52:14.508Z</time>
      </trkpt>
      <trkpt lat="49.59355" lon="5.0593">
        <ele>123.77</ele>
        <time>2026-08-07T08:52:20.508Z</time>
      </trkpt>
      <trkpt lat="49.59384" lon="5.05974">
        <ele>122.59</ele>
        <time>2026-08-07T08:52:26.508Z</time>
      </trkpt>
      <trkpt lat="49.59411" lon="5.06015">
        <ele>122.37</ele>
        <time>2026-08-07T08:52:32.504Z</time>
      </trkpt>
      <trkpt lat="49.59438" lon="5.06051">
        <ele>123.12</ele>
        <time>2026-08-07T08:52:38.501Z</time>
      </trkpt>
      <trkpt lat="49.59467" lon="5.06086">
        <ele>122.66</ele>
        <time>2026-08-07T08:52:44.500Z</time>
      </trkpt>
      <trkpt lat="49.59497" lon="5.06121">
        <ele>121.36</ele>
        <time>2026-08-07T08:52:50.503Z</time>
      </trkpt>
      <trkpt lat="49.59525" lon="5.06155">
        <ele>120.22</ele>
        <time>2026-08-07T08:52:56.506Z</time>
      </trkpt>
      <trkpt lat="49.59552" lon="5.06184">
        <ele>120.98</ele>
        <time>2026-08-07T08:53:02.499Z</time>
      </trkpt>
      <trkpt lat="49.59563" lon="5.062">
        <ele>122.45</ele>
        <time>2026-08-07T08:53:08.506Z</time>
      </trkpt>
      <trkpt lat="49.59572" lon="5.06206">
        <ele>122.55</ele>
        <time>2026-08-07T08:53:24.444Z</time>
      </trkpt>
      <trkpt lat="49.59594" lon="5.06199">
        <ele>120.64</ele>
        <time>2026-08-07T08:53:30.445Z</time>
      </trkpt>
      <trkpt lat="49.59619" lon="5.0619">
        <ele>121.02</ele>
        <time>2026-08-07T08:53:36.445Z</time>
      </trkpt>
      <trkpt lat="49.59644" lon="5.06182">
        <ele>121.58</ele>
        <time>2026-08-07T08:53:42.442Z</time>
      </trkpt>
      <trkpt lat="49.59663" lon="5.06174">
        <ele>121.06</ele>
        <time>2026-08-07T08:53:47.442Z</time>
      </trkpt>
      <trkpt lat="49.59683" lon="5.06167">
        <ele>121.02</ele>
        <time>2026-08-07T08:53:52.443Z</time>
      </trkpt>
      <trkpt lat="49.59704" lon="5.06161">
        <ele>120.36</ele>
        <time>2026-08-07T08:53:57.449Z</time>
      </trkpt>
      <trkpt lat="49.59726" lon="5.06153">
        <ele>120</ele>
        <time>2026-08-07T08:54:02.498Z</time>
      </trkpt>
      <trkpt lat="49.59754" lon="5.06143">
        <ele>120.92</ele>
        <time>2026-08-07T08:54:08.499Z</time>
      </trkpt>
      <trkpt lat="49.59781" lon="5.06134">
        <ele>120.36</ele>
        <time>2026-08-07T08:54:14.508Z</time>
      </trkpt>
      <trkpt lat="49.59811" lon="5.06124">
        <ele>118.97</ele>
        <time>2026-08-07T08:54:20.491Z</time>
      </trkpt>
      <trkpt lat="49.59841" lon="5.06116">
        <ele>118.86</ele>
        <time>2026-08-07T08:54:26.513Z</time>
      </trkpt>
      <trkpt lat="49.59873" lon="5.06104">
        <ele>119.65</ele>
        <time>2026-08-07T08:54:32.502Z</time>
      </trkpt>
      <trkpt lat="49.59903" lon="5.06095">
        <ele>118.81</ele>
        <time>2026-08-07T08:54:38.502Z</time>
      </trkpt>
      <trkpt lat="49.59932" lon="5.06082">
        <ele>118.14</ele>
        <time>2026-08-07T08:54:44.503Z</time>
      </trkpt>
      <trkpt lat="49.59964" lon="5.06074">
        <ele>118.11</ele>
        <time>2026-08-07T08:54:50.500Z</time>
      </trkpt>
      <trkpt lat="49.59992" lon="5.06115">
        <ele>117.73</ele>
        <time>2026-08-07T08:54:56.508Z</time>
      </trkpt>
      <trkpt lat="49.6001" lon="5.06173">
        <ele>117.24</ele>
        <time>2026-08-07T08:55:02.507Z</time>
      </trkpt>
      <trkpt lat="49.60031" lon="5.06229">
        <ele>116.05</ele>
        <time>2026-08-07T08:55:08.501Z</time>
      </trkpt>
      <trkpt lat="49.60053" lon="5.06281">
        <ele>115.01</ele>
        <time>2026-08-07T08:55:14.501Z</time>
      </trkpt>
      <trkpt lat="49.60074" lon="5.06328">
        <ele>115.52</ele>
        <time>2026-08-07T08:55:20.500Z</time>
      </trkpt>
      <trkpt lat="49.60088" lon="5.06362">
        <ele>113.44</ele>
        <time>2026-08-07T08:55:26.505Z</time>
      </trkpt>
      <trkpt lat="49.60101" lon="5.06405">
        <ele>114.22</ele>
        <time>2026-08-07T08:55:32.503Z</time>
      </trkpt>
      <trkpt lat="49.60112" lon="5.06449">
        <ele>113.21</ele>
        <time>2026-08-07T08:55:38.502Z</time>
      </trkpt>
      <trkpt lat="49.60125" lon="5.06492">
        <ele>111.53</ele>
        <time>2026-08-07T08:55:44.502Z</time>
      </trkpt>
      <trkpt lat="49.60137" lon="5.06536">
        <ele>110.79</ele>
        <time>2026-08-07T08:55:50.501Z</time>
      </trkpt>
      <trkpt lat="49.6015" lon="5.06584">
        <ele>111.11</ele>
        <time>2026-08-07T08:55:56.508Z</time>
      </trkpt>
      <trkpt lat="49.60163" lon="5.06632">
        <ele>112.63</ele>
        <time>2026-08-07T08:56:02.499Z</time>
      </trkpt>
      <trkpt lat="49.60178" lon="5.06678">
        <ele>112.44</ele>
        <time>2026-08-07T08:56:08.504Z</time>
      </trkpt>
      <trkpt lat="49.60193" lon="5.06722">
        <ele>112.84</ele>
        <time>2026-08-07T08:56:14.499Z</time>
      </trkpt>
      <trkpt lat="49.6021" lon="5.06764">
        <ele>112.21</ele>
        <time>2026-08-07T08:56:20.499Z</time>
      </trkpt>
      <trkpt lat="49.60226" lon="5.06807">
        <ele>112.5</ele>
        <time>2026-08-07T08:56:26.506Z</time>
      </trkpt>
      <trkpt lat="49.60241" lon="5.06853">
        <ele>111.93</ele>
        <time>2026-08-07T08:56:32.500Z</time>
      </trkpt>
      <trkpt lat="49.60257" lon="5.069">
        <ele>111.44</ele>
        <time>2026-08-07T08:56:38.503Z</time>
      </trkpt>
      <trkpt lat="49.60272" lon="5.06945">
        <ele>111.21</ele>
        <time>2026-08-07T08:56:44.500Z</time>
      </trkpt>
      <trkpt lat="49.60287" lon="5.0699">
        <ele>112.37</ele>
        <time>2026-08-07T08:56:50.503Z</time>
      </trkpt>
      <trkpt lat="49.60301" lon="5.07032">
        <ele>111.64</ele>
        <time>2026-08-07T08:56:56.506Z</time>
      </trkpt>
      <trkpt lat="49.60311" lon="5.07071">
        <ele>112.22</ele>
        <time>2026-08-07T08:57:02.505Z</time>
      </trkpt>
      <trkpt lat="49.60319" lon="5.07098">
        <ele>111.9</ele>
        <time>2026-08-07T08:57:08.498Z</time>
      </trkpt>
      <trkpt lat="49.60326" lon="5.07125">
        <ele>112</ele>
        <time>2026-08-07T08:57:14.501Z</time>
      </trkpt>
      <trkpt lat="49.60341" lon="5.07156">
        <ele>113.63</ele>
        <time>2026-08-07T08:57:20.499Z</time>
      </trkpt>
      <trkpt lat="49.60355" lon="5.07182">
        <ele>114.84</ele>
        <time>2026-08-07T08:57:26.509Z</time>
      </trkpt>
      <trkpt lat="49.6037" lon="5.07206">
        <ele>116.05</ele>
        <time>2026-08-07T08:57:32.502Z</time>
      </trkpt>
      <trkpt lat="49.60384" lon="5.07231">
        <ele>115.86</ele>
        <time>2026-08-07T08:57:38.500Z</time>
      </trkpt>
      <trkpt lat="49.60399" lon="5.07254">
        <ele>115.24</ele>
        <time>2026-08-07T08:57:44.503Z</time>
      </trkpt>
      <trkpt lat="49.60415" lon="5.0728">
        <ele>114.62</ele>
        <time>2026-08-07T08:57:50.500Z</time>
      </trkpt>
      <trkpt lat="49.60428" lon="5.07304">
        <ele>114.51</ele>
        <time>2026-08-07T08:57:56.500Z</time>
      </trkpt>
      <trkpt lat="49.6044" lon="5.07322">
        <ele>114.24</ele>
        <time>2026-08-07T08:58:02.498Z</time>
      </trkpt>
      <trkpt lat="49.60454" lon="5.07347">
        <ele>114.44</ele>
        <time>2026-08-07T08:58:08.501Z</time>
      </trkpt>
      <trkpt lat="49.60475" lon="5.0738">
        <ele>113.84</ele>
        <time>2026-08-07T08:58:14.497Z</time>
      </trkpt>
      <trkpt lat="49.60498" lon="5.07416">
        <ele>111.48</ele>
        <time>2026-08-07T08:58:20.501Z</time>
      </trkpt>
      <trkpt lat="49.60517" lon="5.07443">
        <ele>109.35</ele>
        <time>2026-08-07T08:58:26.503Z</time>
      </trkpt>
      <trkpt lat="49.60532" lon="5.07469">
        <ele>109.19</ele>
        <time>2026-08-07T08:58:32.501Z</time>
      </trkpt>
      <trkpt lat="49.60539" lon="5.07494">
        <ele>110.95</ele>
        <time>2026-08-07T08:58:38.502Z</time>
      </trkpt>
      <trkpt lat="49.60538" lon="5.07515">
        <ele>114.46</ele>
        <time>2026-08-07T08:58:44.502Z</time>
      </trkpt>
      <trkpt lat="49.60528" lon="5.0753">
        <ele>117.31</ele>
        <time>2026-08-07T08:58:50.498Z</time>
      </trkpt>
      <trkpt lat="49.60516" lon="5.07543">
        <ele>117.22</ele>
        <time>2026-08-07T08:58:56.503Z</time>
      </trkpt>
      <trkpt lat="49.60507" lon="5.07551">
        <ele>116.22</ele>
        <time>2026-08-07T08:59:02.505Z</time>
      </trkpt>
      <trkpt lat="49.60505" lon="5.07565">
        <ele>113.04</ele>
        <time>2026-08-07T09:03:30.446Z</time>
      </trkpt>
      <trkpt lat="49.60504" lon="5.07581">
        <ele>115.39</ele>
        <time>2026-08-07T09:03:41.443Z</time>
      </trkpt>
      <trkpt lat="49.6051" lon="5.07595">
        <ele>114.92</ele>
        <time>2026-08-07T09:13:52.442Z</time>
      </trkpt>
      <trkpt lat="49.60499" lon="5.07604">
        <ele>114.8</ele>
        <time>2026-08-07T09:15:31.543Z</time>
      </trkpt>
      <trkpt lat="49.60509" lon="5.07604">
        <ele>115.62</ele>
        <time>2026-08-07T09:15:37.595Z</time>
      </trkpt>
      <trkpt lat="49.60502" lon="5.07593">
        <ele>161.32</ele>
        <time>2026-08-07T09:17:46.465Z</time>
      </trkpt>
      <trkpt lat="49.60506" lon="5.07574">
        <ele>161.32</ele>
        <time>2026-08-07T09:17:52.443Z</time>
      </trkpt>
      <trkpt lat="49.60489" lon="5.07573">
        <ele>161.32</ele>
        <time>2026-08-07T09:17:57.460Z</time>
      </trkpt>
      <trkpt lat="49.6048" lon="5.07564">
        <ele>161.42</ele>
        <time>2026-08-07T09:18:04.462Z</time>
      </trkpt>
      <trkpt lat="49.60486" lon="5.07553">
        <ele>161.32</ele>
        <time>2026-08-07T09:18:23.369Z</time>
      </trkpt>
      <trkpt lat="49.60506" lon="5.07551">
        <ele>161.42</ele>
        <time>2026-08-07T09:23:31.903Z</time>
      </trkpt>
      <trkpt lat="49.60526" lon="5.07572">
        <ele>161.42</ele>
        <time>2026-08-07T09:23:37.099Z</time>
      </trkpt>
      <trkpt lat="49.60516" lon="5.07581">
        <ele>161.42</ele>
        <time>2026-08-07T09:24:08.516Z</time>
      </trkpt>
      <trkpt lat="49.6051" lon="5.07592">
        <ele>161.42</ele>
        <time>2026-08-07T09:24:14.501Z</time>
      </trkpt>
      <trkpt lat="49.60499" lon="5.07598">
        <ele>114.29</ele>
        <time>2026-08-07T09:27:19.575Z</time>
      </trkpt>
      <trkpt lat="49.60487" lon="5.07593">
        <ele>114.72</ele>
        <time>2026-08-07T09:27:25.452Z</time>
      </trkpt>
      <trkpt lat="49.60502" lon="5.07596">
        <ele>115.3</ele>
        <time>2026-08-07T09:27:31.472Z</time>
      </trkpt>
      <trkpt lat="49.60511" lon="5.07622">
        <ele>115.42</ele>
        <time>2026-08-07T09:27:36.479Z</time>
      </trkpt>
      <trkpt lat="49.60506" lon="5.07636">
        <ele>115.95</ele>
        <time>2026-08-07T09:27:42.466Z</time>
      </trkpt>
      <trkpt lat="49.60515" lon="5.07656">
        <ele>115.48</ele>
        <time>2026-08-07T09:27:48.472Z</time>
      </trkpt>
      <trkpt lat="49.60521" lon="5.07675">
        <ele>115.94</ele>
        <time>2026-08-07T09:27:54.468Z</time>
      </trkpt>
      <trkpt lat="49.60529" lon="5.07691">
        <ele>114.83</ele>
        <time>2026-08-07T09:28:00.471Z</time>
      </trkpt>
      <trkpt lat="49.60537" lon="5.07711">
        <ele>113.4</ele>
        <time>2026-08-07T09:28:06.464Z</time>
      </trkpt>
      <trkpt lat="49.60543" lon="5.07732">
        <ele>113.64</ele>
        <time>2026-08-07T09:28:12.449Z</time>
      </trkpt>
      <trkpt lat="49.60545" lon="5.07747">
        <ele>113.46</ele>
        <time>2026-08-07T09:28:18.444Z</time>
      </trkpt>
      <trkpt lat="49.60556" lon="5.07751">
        <ele>117.5</ele>
        <time>2026-08-07T09:28:23.447Z</time>
      </trkpt>
      <trkpt lat="49.60568" lon="5.07733">
        <ele>122.81</ele>
        <time>2026-08-07T09:28:29.442Z</time>
      </trkpt>
      <trkpt lat="49.6058" lon="5.07721">
        <ele>124.36</ele>
        <time>2026-08-07T09:28:34.444Z</time>
      </trkpt>
      <trkpt lat="49.60594" lon="5.07707">
        <ele>123.28</ele>
        <time>2026-08-07T09:28:39.445Z</time>
      </trkpt>
      <trkpt lat="49.60606" lon="5.07695">
        <ele>122.57</ele>
        <time>2026-08-07T09:28:44.513Z</time>
      </trkpt>
      <trkpt lat="49.60597" lon="5.07692">
        <ele>119.7</ele>
        <time>2026-08-07T09:28:55.447Z</time>
      </trkpt>
      <trkpt lat="49.60587" lon="5.0769">
        <ele>118.39</ele>
        <time>2026-08-07T09:29:01.444Z</time>
      </trkpt>
      <trkpt lat="49.6058" lon="5.07678">
        <ele>118.51</ele>
        <time>2026-08-07T09:29:07.470Z</time>
      </trkpt>
      <trkpt lat="49.60574" lon="5.07666">
        <ele>118.72</ele>
        <time>2026-08-07T09:29:19.475Z</time>
      </trkpt>
      <trkpt lat="49.60582" lon="5.07679">
        <ele>117.39</ele>
        <time>2026-08-07T09:29:27.447Z</time>
      </trkpt>
      <trkpt lat="49.60586" lon="5.07695">
        <ele>118.16</ele>
        <time>2026-08-07T09:29:47.449Z</time>
      </trkpt>
      <trkpt lat="49.60593" lon="5.07705">
        <ele>117.1</ele>
        <time>2026-08-07T09:29:53.446Z</time>
      </trkpt>
      <trkpt lat="49.60583" lon="5.07713">
        <ele>116.1</ele>
        <time>2026-08-07T09:29:58.448Z</time>
      </trkpt>
      <trkpt lat="49.6057" lon="5.07727">
        <ele>116.21</ele>
        <time>2026-08-07T09:30:04.442Z</time>
      </trkpt>
      <trkpt lat="49.6056" lon="5.07739">
        <ele>116.55</ele>
        <time>2026-08-07T09:30:09.453Z</time>
      </trkpt>
      <trkpt lat="49.6055" lon="5.07748">
        <ele>116.9</ele>
        <time>2026-08-07T09:30:14.515Z</time>
      </trkpt>
      <trkpt lat="49.60544" lon="5.07761">
        <ele>115.93</ele>
        <time>2026-08-07T09:30:22.442Z</time>
      </trkpt>
      <trkpt lat="49.60538" lon="5.07772">
        <ele>116.98</ele>
        <time>2026-08-07T09:30:28.446Z</time>
      </trkpt>
      <trkpt lat="49.60548" lon="5.07781">
        <ele>119.78</ele>
        <time>2026-08-07T09:30:36.448Z</time>
      </trkpt>
      <trkpt lat="49.60559" lon="5.07812">
        <ele>120.04</ele>
        <time>2026-08-07T09:30:42.443Z</time>
      </trkpt>
      <trkpt lat="49.60566" lon="5.07837">
        <ele>120.95</ele>
        <time>2026-08-07T09:30:48.444Z</time>
      </trkpt>
      <trkpt lat="49.60569" lon="5.07853">
        <ele>120.79</ele>
        <time>2026-08-07T09:30:53.450Z</time>
      </trkpt>
      <trkpt lat="49.60573" lon="5.07873">
        <ele>121.39</ele>
        <time>2026-08-07T09:30:59.448Z</time>
      </trkpt>
      <trkpt lat="49.60569" lon="5.0786">
        <ele>120.22</ele>
        <time>2026-08-07T09:31:09.445Z</time>
      </trkpt>
      <trkpt lat="49.60573" lon="5.07876">
        <ele>118.27</ele>
        <time>2026-08-07T09:31:43.441Z</time>
      </trkpt>
      <trkpt lat="49.60578" lon="5.079">
        <ele>117.47</ele>
        <time>2026-08-07T09:31:48.446Z</time>
      </trkpt>
      <trkpt lat="49.60588" lon="5.07933">
        <ele>117.59</ele>
        <time>2026-08-07T09:31:54.445Z</time>
      </trkpt>
      <trkpt lat="49.60596" lon="5.07964">
        <ele>116.86</ele>
        <time>2026-08-07T09:32:00.458Z</time>
      </trkpt>
      <trkpt lat="49.606" lon="5.0798">
        <ele>118.32</ele>
        <time>2026-08-07T09:33:44.501Z</time>
      </trkpt>
      <trkpt lat="49.60611" lon="5.0801">
        <ele>117.88</ele>
        <time>2026-08-07T09:33:50.502Z</time>
      </trkpt>
      <trkpt lat="49.60621" lon="5.08042">
        <ele>118.99</ele>
        <time>2026-08-07T09:33:56.517Z</time>
      </trkpt>
      <trkpt lat="49.60626" lon="5.08063">
        <ele>120.6</ele>
        <time>2026-08-07T09:34:02.503Z</time>
      </trkpt>
      <trkpt lat="49.60632" lon="5.08079">
        <ele>121.36</ele>
        <time>2026-08-07T09:34:08.503Z</time>
      </trkpt>
      <trkpt lat="49.60637" lon="5.08091">
        <ele>122.16</ele>
        <time>2026-08-07T09:34:14.502Z</time>
      </trkpt>
      <trkpt lat="49.60638" lon="5.08107">
        <ele>123.4</ele>
        <time>2026-08-07T09:34:21.446Z</time>
      </trkpt>
      <trkpt lat="49.60634" lon="5.08093">
        <ele>124.37</ele>
        <time>2026-08-07T09:36:08.506Z</time>
      </trkpt>
      <trkpt lat="49.60625" lon="5.08049">
        <ele>123.31</ele>
        <time>2026-08-07T09:36:14.504Z</time>
      </trkpt>
      <trkpt lat="49.60609" lon="5.08">
        <ele>122.38</ele>
        <time>2026-08-07T09:36:20.501Z</time>
      </trkpt>
      <trkpt lat="49.606" lon="5.07969">
        <ele>119.65</ele>
        <time>2026-08-07T09:36:26.506Z</time>
      </trkpt>
      <trkpt lat="49.60589" lon="5.07938">
        <ele>117.95</ele>
        <time>2026-08-07T09:36:32.503Z</time>
      </trkpt>
      <trkpt lat="49.6058" lon="5.07905">
        <ele>117.29</ele>
        <time>2026-08-07T09:36:38.507Z</time>
      </trkpt>
      <trkpt lat="49.60571" lon="5.07867">
        <ele>117.25</ele>
        <time>2026-08-07T09:36:44.505Z</time>
      </trkpt>
      <trkpt lat="49.60563" lon="5.0782">
        <ele>114.39</ele>
        <time>2026-08-07T09:36:50.500Z</time>
      </trkpt>
      <trkpt lat="49.60551" lon="5.07782">
        <ele>112.97</ele>
        <time>2026-08-07T09:36:56.502Z</time>
      </trkpt>
      <trkpt lat="49.60548" lon="5.07769">
        <ele>114.68</ele>
        <time>2026-08-07T09:37:02.494Z</time>
      </trkpt>
      <trkpt lat="49.60543" lon="5.07749">
        <ele>114.98</ele>
        <time>2026-08-07T09:37:08.501Z</time>
      </trkpt>
      <trkpt lat="49.60532" lon="5.07722">
        <ele>115.91</ele>
        <time>2026-08-07T09:37:14.494Z</time>
      </trkpt>
      <trkpt lat="49.60524" lon="5.07697">
        <ele>117.75</ele>
        <time>2026-08-07T09:37:20.504Z</time>
      </trkpt>
      <trkpt lat="49.60515" lon="5.07666">
        <ele>117.9</ele>
        <time>2026-08-07T09:37:26.506Z</time>
      </trkpt>
      <trkpt lat="49.60505" lon="5.07634">
        <ele>116.69</ele>
        <time>2026-08-07T09:37:32.502Z</time>
      </trkpt>
      <trkpt lat="49.60497" lon="5.07601">
        <ele>115.31</ele>
        <time>2026-08-07T09:37:38.512Z</time>
      </trkpt>
      <trkpt lat="49.60482" lon="5.07579">
        <ele>115.16</ele>
        <time>2026-08-07T09:37:44.506Z</time>
      </trkpt>
      <trkpt lat="49.6047" lon="5.07552">
        <ele>114.28</ele>
        <time>2026-08-07T09:37:50.065Z</time>
      </trkpt>
      <trkpt lat="49.60459" lon="5.0753">
        <ele>113.15</ele>
        <time>2026-08-07T09:37:55.448Z</time>
      </trkpt>
      <trkpt lat="49.60452" lon="5.07516">
        <ele>114</ele>
        <time>2026-08-07T09:38:01.440Z</time>
      </trkpt>
      <trkpt lat="49.60457" lon="5.07503">
        <ele>120.82</ele>
        <time>2026-08-07T09:51:52.440Z</time>
      </trkpt>
      <trkpt lat="49.60434" lon="5.07515">
        <ele>120.55</ele>
        <time>2026-08-07T09:51:57.448Z</time>
      </trkpt>
      <trkpt lat="49.60446" lon="5.07512">
        <ele>120.13</ele>
        <time>2026-08-07T09:52:02.530Z</time>
      </trkpt>
      <trkpt lat="49.60455" lon="5.07511">
        <ele>120.31</ele>
        <time>2026-08-07T09:53:17.047Z</time>
      </trkpt>
      <trkpt lat="49.60457" lon="5.07492">
        <ele>121.09</ele>
        <time>2026-08-07T09:58:14.510Z</time>
      </trkpt>
      <trkpt lat="49.60465" lon="5.07474">
        <ele>120.47</ele>
        <time>2026-08-07T09:58:19.890Z</time>
      </trkpt>
      <trkpt lat="49.60475" lon="5.07458">
        <ele>117.97</ele>
        <time>2026-08-07T09:58:25.045Z</time>
      </trkpt>
      <trkpt lat="49.60471" lon="5.07445">
        <ele>112.14</ele>
        <time>2026-08-07T09:58:49.406Z</time>
      </trkpt>
      <trkpt lat="49.60471" lon="5.07429">
        <ele>111.63</ele>
        <time>2026-08-07T09:58:55.990Z</time>
      </trkpt>
      <trkpt lat="49.60485" lon="5.07407">
        <ele>110.34</ele>
        <time>2026-08-07T09:59:01.405Z</time>
      </trkpt>
      <trkpt lat="49.60482" lon="5.07393">
        <ele>111</ele>
        <time>2026-08-07T09:59:10.442Z</time>
      </trkpt>
      <trkpt lat="49.60473" lon="5.07367">
        <ele>111.05</ele>
        <time>2026-08-07T09:59:16.446Z</time>
      </trkpt>
      <trkpt lat="49.60463" lon="5.07353">
        <ele>113.08</ele>
        <time>2026-08-07T09:59:21.447Z</time>
      </trkpt>
      <trkpt lat="49.60454" lon="5.07338">
        <ele>114.3</ele>
        <time>2026-08-07T09:59:26.509Z</time>
      </trkpt>
      <trkpt lat="49.60442" lon="5.0732">
        <ele>116.24</ele>
        <time>2026-08-07T09:59:32.508Z</time>
      </trkpt>
      <trkpt lat="49.60429" lon="5.07298">
        <ele>117.13</ele>
        <time>2026-08-07T09:59:38.444Z</time>
      </trkpt>
      <trkpt lat="49.6041" lon="5.07268">
        <ele>116.28</ele>
        <time>2026-08-07T09:59:44.443Z</time>
      </trkpt>
      <trkpt lat="49.60394" lon="5.07241">
        <ele>116.02</ele>
        <time>2026-08-07T09:59:49.446Z</time>
      </trkpt>
      <trkpt lat="49.60375" lon="5.07209">
        <ele>115.91</ele>
        <time>2026-08-07T09:59:55.445Z</time>
      </trkpt>
      <trkpt lat="49.60357" lon="5.07176">
        <ele>115.93</ele>
        <time>2026-08-07T10:00:01.444Z</time>
      </trkpt>
      <trkpt lat="49.6034" lon="5.07149">
        <ele>114.59</ele>
        <time>2026-08-07T10:00:06.444Z</time>
      </trkpt>
      <trkpt lat="49.60328" lon="5.07121">
        <ele>114.5</ele>
        <time>2026-08-07T10:00:11.445Z</time>
      </trkpt>
      <trkpt lat="49.60319" lon="5.07087">
        <ele>113.88</ele>
        <time>2026-08-07T10:00:17.444Z</time>
      </trkpt>
      <trkpt lat="49.60309" lon="5.07052">
        <ele>114.38</ele>
        <time>2026-08-07T10:00:23.446Z</time>
      </trkpt>
      <trkpt lat="49.60299" lon="5.07022">
        <ele>113.9</ele>
        <time>2026-08-07T10:00:28.450Z</time>
      </trkpt>
      <trkpt lat="49.60286" lon="5.06982">
        <ele>114.73</ele>
        <time>2026-08-07T10:00:34.432Z</time>
      </trkpt>
      <trkpt lat="49.60277" lon="5.06949">
        <ele>115.48</ele>
        <time>2026-08-07T10:00:39.442Z</time>
      </trkpt>
      <trkpt lat="49.60267" lon="5.06918">
        <ele>115.45</ele>
        <time>2026-08-07T10:00:44.445Z</time>
      </trkpt>
      <trkpt lat="49.60258" lon="5.06888">
        <ele>115.65</ele>
        <time>2026-08-07T10:00:49.449Z</time>
      </trkpt>
      <trkpt lat="49.60246" lon="5.06853">
        <ele>116.21</ele>
        <time>2026-08-07T10:00:55.443Z</time>
      </trkpt>
      <trkpt lat="49.60236" lon="5.06825">
        <ele>117.14</ele>
        <time>2026-08-07T10:01:00.445Z</time>
      </trkpt>
      <trkpt lat="49.60223" lon="5.0679">
        <ele>117.31</ele>
        <time>2026-08-07T10:01:06.447Z</time>
      </trkpt>
      <trkpt lat="49.6021" lon="5.06752">
        <ele>115.48</ele>
        <time>2026-08-07T10:01:12.444Z</time>
      </trkpt>
      <trkpt lat="49.60195" lon="5.06714">
        <ele>113.21</ele>
        <time>2026-08-07T10:01:18.444Z</time>
      </trkpt>
      <trkpt lat="49.60184" lon="5.06684">
        <ele>112.89</ele>
        <time>2026-08-07T10:01:23.445Z</time>
      </trkpt>
      <trkpt lat="49.60173" lon="5.06653">
        <ele>113.26</ele>
        <time>2026-08-07T10:01:28.447Z</time>
      </trkpt>
      <trkpt lat="49.60162" lon="5.06616">
        <ele>113.56</ele>
        <time>2026-08-07T10:01:34.445Z</time>
      </trkpt>
      <trkpt lat="49.60153" lon="5.06585">
        <ele>114.64</ele>
        <time>2026-08-07T10:01:39.446Z</time>
      </trkpt>
      <trkpt lat="49.60145" lon="5.06554">
        <ele>114.95</ele>
        <time>2026-08-07T10:01:44.453Z</time>
      </trkpt>
      <trkpt lat="49.60135" lon="5.06519">
        <ele>115.16</ele>
        <time>2026-08-07T10:01:50.456Z</time>
      </trkpt>
      <trkpt lat="49.60125" lon="5.06482">
        <ele>115.09</ele>
        <time>2026-08-07T10:01:56.502Z</time>
      </trkpt>
      <trkpt lat="49.60116" lon="5.06442">
        <ele>114.74</ele>
        <time>2026-08-07T10:02:02.502Z</time>
      </trkpt>
      <trkpt lat="49.60106" lon="5.06402">
        <ele>115.77</ele>
        <time>2026-08-07T10:02:08.451Z</time>
      </trkpt>
      <trkpt lat="49.60094" lon="5.06367">
        <ele>117.33</ele>
        <time>2026-08-07T10:02:14.452Z</time>
      </trkpt>
      <trkpt lat="49.60094" lon="5.06333">
        <ele>116.78</ele>
        <time>2026-08-07T10:02:20.454Z</time>
      </trkpt>
      <trkpt lat="49.60119" lon="5.06305">
        <ele>115.76</ele>
        <time>2026-08-07T10:02:26.507Z</time>
      </trkpt>
      <trkpt lat="49.60144" lon="5.06278">
        <ele>114.2</ele>
        <time>2026-08-07T10:02:32.502Z</time>
      </trkpt>
      <trkpt lat="49.60169" lon="5.06252">
        <ele>113.71</ele>
        <time>2026-08-07T10:02:38.446Z</time>
      </trkpt>
      <trkpt lat="49.60196" lon="5.06226">
        <ele>113.48</ele>
        <time>2026-08-07T10:02:44.450Z</time>
      </trkpt>
      <trkpt lat="49.60221" lon="5.06201">
        <ele>112.29</ele>
        <time>2026-08-07T10:02:50.453Z</time>
      </trkpt>
      <trkpt lat="49.60247" lon="5.06177">
        <ele>111.23</ele>
        <time>2026-08-07T10:02:56.506Z</time>
      </trkpt>
      <trkpt lat="49.60272" lon="5.06151">
        <ele>110.26</ele>
        <time>2026-08-07T10:03:02.507Z</time>
      </trkpt>
      <trkpt lat="49.60295" lon="5.06119">
        <ele>109.77</ele>
        <time>2026-08-07T10:03:08.460Z</time>
      </trkpt>
      <trkpt lat="49.60317" lon="5.06081">
        <ele>109.69</ele>
        <time>2026-08-07T10:03:14.461Z</time>
      </trkpt>
      <trkpt lat="49.60336" lon="5.06041">
        <ele>108.85</ele>
        <time>2026-08-07T10:03:20.468Z</time>
      </trkpt>
      <trkpt lat="49.60351" lon="5.05998">
        <ele>109.29</ele>
        <time>2026-08-07T10:03:26.508Z</time>
      </trkpt>
      <trkpt lat="49.60362" lon="5.05953">
        <ele>109.15</ele>
        <time>2026-08-07T10:03:32.506Z</time>
      </trkpt>
      <trkpt lat="49.60371" lon="5.05908">
        <ele>109.08</ele>
        <time>2026-08-07T10:03:38.465Z</time>
      </trkpt>
      <trkpt lat="49.6038" lon="5.05861">
        <ele>109.22</ele>
        <time>2026-08-07T10:03:44.466Z</time>
      </trkpt>
      <trkpt lat="49.6039" lon="5.05814">
        <ele>108.61</ele>
        <time>2026-08-07T10:03:50.470Z</time>
      </trkpt>
      <trkpt lat="49.604" lon="5.05765">
        <ele>108.75</ele>
        <time>2026-08-07T10:03:56.507Z</time>
      </trkpt>
      <trkpt lat="49.60411" lon="5.05717">
        <ele>107.82</ele>
        <time>2026-08-07T10:04:02.511Z</time>
      </trkpt>
      <trkpt lat="49.60423" lon="5.05669">
        <ele>107.78</ele>
        <time>2026-08-07T10:04:08.478Z</time>
      </trkpt>
      <trkpt lat="49.60436" lon="5.05624">
        <ele>107.56</ele>
        <time>2026-08-07T10:04:14.475Z</time>
      </trkpt>
      <trkpt lat="49.60451" lon="5.05582">
        <ele>107.11</ele>
        <time>2026-08-07T10:04:20.478Z</time>
      </trkpt>
      <trkpt lat="49.60467" lon="5.05543">
        <ele>107.32</ele>
        <time>2026-08-07T10:04:26.510Z</time>
      </trkpt>
      <trkpt lat="49.60484" lon="5.05502">
        <ele>108.26</ele>
        <time>2026-08-07T10:04:32.505Z</time>
      </trkpt>
      <trkpt lat="49.60501" lon="5.05464">
        <ele>109.56</ele>
        <time>2026-08-07T10:04:38.476Z</time>
      </trkpt>
      <trkpt lat="49.60518" lon="5.05426">
        <ele>109.12</ele>
        <time>2026-08-07T10:04:44.478Z</time>
      </trkpt>
      <trkpt lat="49.60535" lon="5.05387">
        <ele>109.23</ele>
        <time>2026-08-07T10:04:50.477Z</time>
      </trkpt>
      <trkpt lat="49.60552" lon="5.05347">
        <ele>109.3</ele>
        <time>2026-08-07T10:04:56.506Z</time>
      </trkpt>
      <trkpt lat="49.60568" lon="5.05308">
        <ele>108.72</ele>
        <time>2026-08-07T10:05:02.511Z</time>
      </trkpt>
      <trkpt lat="49.60585" lon="5.05269">
        <ele>108.37</ele>
        <time>2026-08-07T10:05:08.480Z</time>
      </trkpt>
      <trkpt lat="49.60604" lon="5.0523">
        <ele>108.26</ele>
        <time>2026-08-07T10:05:14.479Z</time>
      </trkpt>
      <trkpt lat="49.60623" lon="5.05192">
        <ele>108.23</ele>
        <time>2026-08-07T10:05:20.482Z</time>
      </trkpt>
      <trkpt lat="49.60645" lon="5.05156">
        <ele>108.7</ele>
        <time>2026-08-07T10:05:26.506Z</time>
      </trkpt>
      <trkpt lat="49.60668" lon="5.0512">
        <ele>109.53</ele>
        <time>2026-08-07T10:05:32.507Z</time>
      </trkpt>
      <trkpt lat="49.60691" lon="5.05085">
        <ele>110.31</ele>
        <time>2026-08-07T10:05:38.484Z</time>
      </trkpt>
      <trkpt lat="49.60714" lon="5.05051">
        <ele>110.21</ele>
        <time>2026-08-07T10:05:44.485Z</time>
      </trkpt>
      <trkpt lat="49.60738" lon="5.05016">
        <ele>110.21</ele>
        <time>2026-08-07T10:05:50.484Z</time>
      </trkpt>
      <trkpt lat="49.60762" lon="5.04982">
        <ele>110.73</ele>
        <time>2026-08-07T10:05:56.502Z</time>
      </trkpt>
      <trkpt lat="49.60785" lon="5.0495">
        <ele>109.83</ele>
        <time>2026-08-07T10:06:02.507Z</time>
      </trkpt>
      <trkpt lat="49.60807" lon="5.04919">
        <ele>109.2</ele>
        <time>2026-08-07T10:06:08.488Z</time>
      </trkpt>
      <trkpt lat="49.6083" lon="5.04886">
        <ele>108.21</ele>
        <time>2026-08-07T10:06:14.491Z</time>
      </trkpt>
      <trkpt lat="49.60854" lon="5.04851">
        <ele>108.16</ele>
        <time>2026-08-07T10:06:20.489Z</time>
      </trkpt>
      <trkpt lat="49.6088" lon="5.04818">
        <ele>108.47</ele>
        <time>2026-08-07T10:06:26.511Z</time>
      </trkpt>
      <trkpt lat="49.60907" lon="5.04786">
        <ele>108.87</ele>
        <time>2026-08-07T10:06:32.508Z</time>
      </trkpt>
      <trkpt lat="49.60935" lon="5.04757">
        <ele>109.39</ele>
        <time>2026-08-07T10:06:38.496Z</time>
      </trkpt>
      <trkpt lat="49.60961" lon="5.0473">
        <ele>109.31</ele>
        <time>2026-08-07T10:06:44.495Z</time>
      </trkpt>
      <trkpt lat="49.60988" lon="5.04702">
        <ele>109.36</ele>
        <time>2026-08-07T10:06:50.495Z</time>
      </trkpt>
      <trkpt lat="49.61015" lon="5.04675">
        <ele>108.66</ele>
        <time>2026-08-07T10:06:56.509Z</time>
      </trkpt>
      <trkpt lat="49.61041" lon="5.04648">
        <ele>108.62</ele>
        <time>2026-08-07T10:07:02.510Z</time>
      </trkpt>
      <trkpt lat="49.61068" lon="5.04621">
        <ele>108.49</ele>
        <time>2026-08-07T10:07:08.504Z</time>
      </trkpt>
      <trkpt lat="49.61094" lon="5.04595">
        <ele>107.98</ele>
        <time>2026-08-07T10:07:14.500Z</time>
      </trkpt>
      <trkpt lat="49.61119" lon="5.04569">
        <ele>107.72</ele>
        <time>2026-08-07T10:07:20.501Z</time>
      </trkpt>
      <trkpt lat="49.61144" lon="5.04543">
        <ele>108.11</ele>
        <time>2026-08-07T10:07:26.506Z</time>
      </trkpt>
      <trkpt lat="49.61168" lon="5.04516">
        <ele>109.16</ele>
        <time>2026-08-07T10:07:32.507Z</time>
      </trkpt>
      <trkpt lat="49.61194" lon="5.04491">
        <ele>110</ele>
        <time>2026-08-07T10:07:38.497Z</time>
      </trkpt>
      <trkpt lat="49.61222" lon="5.04461">
        <ele>110.22</ele>
        <time>2026-08-07T10:07:44.499Z</time>
      </trkpt>
      <trkpt lat="49.6125" lon="5.04433">
        <ele>109.51</ele>
        <time>2026-08-07T10:07:50.500Z</time>
      </trkpt>
      <trkpt lat="49.61276" lon="5.04406">
        <ele>108.64</ele>
        <time>2026-08-07T10:07:56.506Z</time>
      </trkpt>
      <trkpt lat="49.61303" lon="5.04379">
        <ele>108.75</ele>
        <time>2026-08-07T10:08:02.507Z</time>
      </trkpt>
      <trkpt lat="49.61329" lon="5.0435">
        <ele>110.1</ele>
        <time>2026-08-07T10:08:08.502Z</time>
      </trkpt>
      <trkpt lat="49.61357" lon="5.04322">
        <ele>110.78</ele>
        <time>2026-08-07T10:08:14.501Z</time>
      </trkpt>
      <trkpt lat="49.61385" lon="5.04293">
        <ele>111.44</ele>
        <time>2026-08-07T10:08:20.497Z</time>
      </trkpt>
      <trkpt lat="49.61413" lon="5.04265">
        <ele>111.46</ele>
        <time>2026-08-07T10:08:26.500Z</time>
      </trkpt>
      <trkpt lat="49.61439" lon="5.04236">
        <ele>110.66</ele>
        <time>2026-08-07T10:08:32.510Z</time>
      </trkpt>
      <trkpt lat="49.61463" lon="5.042">
        <ele>110.28</ele>
        <time>2026-08-07T10:08:38.505Z</time>
      </trkpt>
      <trkpt lat="49.61483" lon="5.04157">
        <ele>111.27</ele>
        <time>2026-08-07T10:08:44.499Z</time>
      </trkpt>
      <trkpt lat="49.61498" lon="5.04112">
        <ele>111.15</ele>
        <time>2026-08-07T10:08:50.502Z</time>
      </trkpt>
      <trkpt lat="49.61511" lon="5.04063">
        <ele>111.03</ele>
        <time>2026-08-07T10:08:56.508Z</time>
      </trkpt>
      <trkpt lat="49.61526" lon="5.04015">
        <ele>110.56</ele>
        <time>2026-08-07T10:09:02.511Z</time>
      </trkpt>
      <trkpt lat="49.61539" lon="5.03967">
        <ele>109.89</ele>
        <time>2026-08-07T10:09:08.505Z</time>
      </trkpt>
      <trkpt lat="49.61552" lon="5.03918">
        <ele>108.95</ele>
        <time>2026-08-07T10:09:14.500Z</time>
      </trkpt>
      <trkpt lat="49.61566" lon="5.03869">
        <ele>109.17</ele>
        <time>2026-08-07T10:09:20.500Z</time>
      </trkpt>
      <trkpt lat="49.6158" lon="5.03823">
        <ele>109.09</ele>
        <time>2026-08-07T10:09:26.512Z</time>
      </trkpt>
      <trkpt lat="49.61593" lon="5.03776">
        <ele>107.91</ele>
        <time>2026-08-07T10:09:32.508Z</time>
      </trkpt>
      <trkpt lat="49.61606" lon="5.03729">
        <ele>108.58</ele>
        <time>2026-08-07T10:09:38.507Z</time>
      </trkpt>
      <trkpt lat="49.61618" lon="5.03684">
        <ele>108.56</ele>
        <time>2026-08-07T10:09:44.508Z</time>
      </trkpt>
      <trkpt lat="49.61626" lon="5.03636">
        <ele>108.01</ele>
        <time>2026-08-07T10:09:50.508Z</time>
      </trkpt>
      <trkpt lat="49.6163" lon="5.03588">
        <ele>108.49</ele>
        <time>2026-08-07T10:09:56.511Z</time>
      </trkpt>
      <trkpt lat="49.61633" lon="5.03543">
        <ele>109.13</ele>
        <time>2026-08-07T10:10:02.509Z</time>
      </trkpt>
      <trkpt lat="49.61636" lon="5.035">
        <ele>110.44</ele>
        <time>2026-08-07T10:10:08.508Z</time>
      </trkpt>
      <trkpt lat="49.61631" lon="5.03461">
        <ele>111.32</ele>
        <time>2026-08-07T10:10:14.510Z</time>
      </trkpt>
      <trkpt lat="49.61618" lon="5.03426">
        <ele>111.97</ele>
        <time>2026-08-07T10:10:20.509Z</time>
      </trkpt>
      <trkpt lat="49.61602" lon="5.03396">
        <ele>112.92</ele>
        <time>2026-08-07T10:10:26.508Z</time>
      </trkpt>
      <trkpt lat="49.61592" lon="5.03361">
        <ele>114.98</ele>
        <time>2026-08-07T10:10:32.510Z</time>
      </trkpt>
      <trkpt lat="49.61599" lon="5.03323">
        <ele>116.44</ele>
        <time>2026-08-07T10:10:38.516Z</time>
      </trkpt>
      <trkpt lat="49.61622" lon="5.03295">
        <ele>116.43</ele>
        <time>2026-08-07T10:10:44.507Z</time>
      </trkpt>
      <trkpt lat="49.6165" lon="5.03273">
        <ele>115.18</ele>
        <time>2026-08-07T10:10:50.506Z</time>
      </trkpt>
      <trkpt lat="49.61679" lon="5.0325">
        <ele>113.89</ele>
        <time>2026-08-07T10:10:56.508Z</time>
      </trkpt>
      <trkpt lat="49.61709" lon="5.03227">
        <ele>112.24</ele>
        <time>2026-08-07T10:11:02.511Z</time>
      </trkpt>
      <trkpt lat="49.6174" lon="5.03203">
        <ele>111.8</ele>
        <time>2026-08-07T10:11:08.505Z</time>
      </trkpt>
      <trkpt lat="49.6177" lon="5.0318">
        <ele>111.77</ele>
        <time>2026-08-07T10:11:14.512Z</time>
      </trkpt>
      <trkpt lat="49.61801" lon="5.03156">
        <ele>111.49</ele>
        <time>2026-08-07T10:11:20.512Z</time>
      </trkpt>
      <trkpt lat="49.61832" lon="5.03133">
        <ele>111.13</ele>
        <time>2026-08-07T10:11:26.510Z</time>
      </trkpt>
      <trkpt lat="49.61859" lon="5.03102">
        <ele>110.52</ele>
        <time>2026-08-07T10:11:32.508Z</time>
      </trkpt>
      <trkpt lat="49.61881" lon="5.0306">
        <ele>110.11</ele>
        <time>2026-08-07T10:11:38.509Z</time>
      </trkpt>
      <trkpt lat="49.61902" lon="5.03021">
        <ele>110.18</ele>
        <time>2026-08-07T10:11:44.511Z</time>
      </trkpt>
      <trkpt lat="49.61926" lon="5.02992">
        <ele>111.95</ele>
        <time>2026-08-07T10:11:50.508Z</time>
      </trkpt>
      <trkpt lat="49.61956" lon="5.02977">
        <ele>112.98</ele>
        <time>2026-08-07T10:11:56.507Z</time>
      </trkpt>
      <trkpt lat="49.61988" lon="5.02975">
        <ele>111.84</ele>
        <time>2026-08-07T10:12:02.512Z</time>
      </trkpt>
      <trkpt lat="49.6202" lon="5.02977">
        <ele>111.86</ele>
        <time>2026-08-07T10:12:08.508Z</time>
      </trkpt>
      <trkpt lat="49.62052" lon="5.02979">
        <ele>111.89</ele>
        <time>2026-08-07T10:12:14.512Z</time>
      </trkpt>
      <trkpt lat="49.62086" lon="5.02979">
        <ele>111.51</ele>
        <time>2026-08-07T10:12:20.509Z</time>
      </trkpt>
      <trkpt lat="49.62119" lon="5.02973">
        <ele>111.27</ele>
        <time>2026-08-07T10:12:26.509Z</time>
      </trkpt>
      <trkpt lat="49.62153" lon="5.02964">
        <ele>111.74</ele>
        <time>2026-08-07T10:12:32.504Z</time>
      </trkpt>
      <trkpt lat="49.62188" lon="5.02956">
        <ele>111.41</ele>
        <time>2026-08-07T10:12:38.511Z</time>
      </trkpt>
      <trkpt lat="49.62224" lon="5.02947">
        <ele>111.99</ele>
        <time>2026-08-07T10:12:44.506Z</time>
      </trkpt>
      <trkpt lat="49.6226" lon="5.02941">
        <ele>112.22</ele>
        <time>2026-08-07T10:12:50.510Z</time>
      </trkpt>
      <trkpt lat="49.62296" lon="5.02941">
        <ele>112.06</ele>
        <time>2026-08-07T10:12:56.511Z</time>
      </trkpt>
      <trkpt lat="49.62328" lon="5.02943">
        <ele>112.94</ele>
        <time>2026-08-07T10:13:02.509Z</time>
      </trkpt>
      <trkpt lat="49.62358" lon="5.02938">
        <ele>113.46</ele>
        <time>2026-08-07T10:13:08.517Z</time>
      </trkpt>
      <trkpt lat="49.62386" lon="5.02922">
        <ele>113.96</ele>
        <time>2026-08-07T10:13:14.511Z</time>
      </trkpt>
      <trkpt lat="49.62412" lon="5.02902">
        <ele>114.49</ele>
        <time>2026-08-07T10:13:20.506Z</time>
      </trkpt>
      <trkpt lat="49.62443" lon="5.02888">
        <ele>113.18</ele>
        <time>2026-08-07T10:13:26.519Z</time>
      </trkpt>
      <trkpt lat="49.62472" lon="5.02884">
        <ele>112.45</ele>
        <time>2026-08-07T10:13:32.509Z</time>
      </trkpt>
      <trkpt lat="49.62502" lon="5.02882">
        <ele>113.36</ele>
        <time>2026-08-07T10:13:38.512Z</time>
      </trkpt>
      <trkpt lat="49.62531" lon="5.0288">
        <ele>113.47</ele>
        <time>2026-08-07T10:13:44.507Z</time>
      </trkpt>
      <trkpt lat="49.6256" lon="5.02878">
        <ele>113.41</ele>
        <time>2026-08-07T10:13:50.508Z</time>
      </trkpt>
      <trkpt lat="49.62589" lon="5.02877">
        <ele>113.31</ele>
        <time>2026-08-07T10:13:56.509Z</time>
      </trkpt>
      <trkpt lat="49.62618" lon="5.02876">
        <ele>112.75</ele>
        <time>2026-08-07T10:14:02.509Z</time>
      </trkpt>
      <trkpt lat="49.62648" lon="5.02874">
        <ele>112.23</ele>
        <time>2026-08-07T10:14:08.513Z</time>
      </trkpt>
      <trkpt lat="49.62678" lon="5.02874">
        <ele>111.87</ele>
        <time>2026-08-07T10:14:14.511Z</time>
      </trkpt>
      <trkpt lat="49.62707" lon="5.02873">
        <ele>112.34</ele>
        <time>2026-08-07T10:14:20.511Z</time>
      </trkpt>
      <trkpt lat="49.62736" lon="5.02871">
        <ele>113.87</ele>
        <time>2026-08-07T10:14:26.510Z</time>
      </trkpt>
      <trkpt lat="49.62766" lon="5.0287">
        <ele>113.65</ele>
        <time>2026-08-07T10:14:32.508Z</time>
      </trkpt>
      <trkpt lat="49.62795" lon="5.02868">
        <ele>113.83</ele>
        <time>2026-08-07T10:14:38.510Z</time>
      </trkpt>
      <trkpt lat="49.62823" lon="5.02866">
        <ele>114.98</ele>
        <time>2026-08-07T10:14:44.509Z</time>
      </trkpt>
      <trkpt lat="49.62851" lon="5.02864">
        <ele>116.01</ele>
        <time>2026-08-07T10:14:50.512Z</time>
      </trkpt>
      <trkpt lat="49.6288" lon="5.02863">
        <ele>115.83</ele>
        <time>2026-08-07T10:14:56.510Z</time>
      </trkpt>
      <trkpt lat="49.62908" lon="5.02862">
        <ele>115.5</ele>
        <time>2026-08-07T10:15:02.508Z</time>
      </trkpt>
      <trkpt lat="49.62937" lon="5.0286">
        <ele>116.26</ele>
        <time>2026-08-07T10:15:08.508Z</time>
      </trkpt>
      <trkpt lat="49.62964" lon="5.02858">
        <ele>116.57</ele>
        <time>2026-08-07T10:15:14.508Z</time>
      </trkpt>
      <trkpt lat="49.62991" lon="5.02854">
        <ele>116.43</ele>
        <time>2026-08-07T10:15:20.507Z</time>
      </trkpt>
      <trkpt lat="49.63017" lon="5.02851">
        <ele>116.76</ele>
        <time>2026-08-07T10:15:26.509Z</time>
      </trkpt>
      <trkpt lat="49.63044" lon="5.02846">
        <ele>117.75</ele>
        <time>2026-08-07T10:15:32.511Z</time>
      </trkpt>
      <trkpt lat="49.63071" lon="5.02842">
        <ele>118.76</ele>
        <time>2026-08-07T10:15:38.511Z</time>
      </trkpt>
      <trkpt lat="49.63097" lon="5.02838">
        <ele>118.46</ele>
        <time>2026-08-07T10:15:44.511Z</time>
      </trkpt>
      <trkpt lat="49.63124" lon="5.0283">
        <ele>117.81</ele>
        <time>2026-08-07T10:15:50.503Z</time>
      </trkpt>
      <trkpt lat="49.63151" lon="5.02815">
        <ele>117.31</ele>
        <time>2026-08-07T10:15:56.501Z</time>
      </trkpt>
      <trkpt lat="49.63176" lon="5.02795">
        <ele>116.27</ele>
        <time>2026-08-07T10:16:02.504Z</time>
      </trkpt>
      <trkpt lat="49.63197" lon="5.02773">
        <ele>116.04</ele>
        <time>2026-08-07T10:16:08.502Z</time>
      </trkpt>
      <trkpt lat="49.63219" lon="5.02748">
        <ele>115.83</ele>
        <time>2026-08-07T10:16:14.502Z</time>
      </trkpt>
      <trkpt lat="49.63243" lon="5.0272">
        <ele>114.66</ele>
        <time>2026-08-07T10:16:20.502Z</time>
      </trkpt>
      <trkpt lat="49.63267" lon="5.02697">
        <ele>114.3</ele>
        <time>2026-08-07T10:16:26.502Z</time>
      </trkpt>
      <trkpt lat="49.63291" lon="5.02684">
        <ele>114.74</ele>
        <time>2026-08-07T10:16:32.506Z</time>
      </trkpt>
      <trkpt lat="49.63313" lon="5.02674">
        <ele>116.67</ele>
        <time>2026-08-07T10:16:38.502Z</time>
      </trkpt>
      <trkpt lat="49.63332" lon="5.02669">
        <ele>118.6</ele>
        <time>2026-08-07T10:16:44.504Z</time>
      </trkpt>
      <trkpt lat="49.6335" lon="5.02664">
        <ele>119.67</ele>
        <time>2026-08-07T10:16:50.506Z</time>
      </trkpt>
      <trkpt lat="49.63367" lon="5.0266">
        <ele>120.76</ele>
        <time>2026-08-07T10:16:56.506Z</time>
      </trkpt>
      <trkpt lat="49.63383" lon="5.02656">
        <ele>121.77</ele>
        <time>2026-08-07T10:17:02.503Z</time>
      </trkpt>
      <trkpt lat="49.63399" lon="5.02652">
        <ele>121.81</ele>
        <time>2026-08-07T10:17:08.506Z</time>
      </trkpt>
      <trkpt lat="49.63415" lon="5.02648">
        <ele>122.34</ele>
        <time>2026-08-07T10:17:14.507Z</time>
      </trkpt>
      <trkpt lat="49.63431" lon="5.02644">
        <ele>122.78</ele>
        <time>2026-08-07T10:17:20.503Z</time>
      </trkpt>
      <trkpt lat="49.63447" lon="5.0264">
        <ele>123.3</ele>
        <time>2026-08-07T10:17:26.508Z</time>
      </trkpt>
      <trkpt lat="49.63462" lon="5.02636">
        <ele>123.72</ele>
        <time>2026-08-07T10:17:32.504Z</time>
      </trkpt>
      <trkpt lat="49.63476" lon="5.02633">
        <ele>125.72</ele>
        <time>2026-08-07T10:17:38.503Z</time>
      </trkpt>
      <trkpt lat="49.6349" lon="5.0263">
        <ele>126.16</ele>
        <time>2026-08-07T10:17:44.506Z</time>
      </trkpt>
      <trkpt lat="49.63503" lon="5.02627">
        <ele>126.5</ele>
        <time>2026-08-07T10:17:50.503Z</time>
      </trkpt>
      <trkpt lat="49.63517" lon="5.02623">
        <ele>128.22</ele>
        <time>2026-08-07T10:17:56.517Z</time>
      </trkpt>
      <trkpt lat="49.6353" lon="5.0262">
        <ele>129.5</ele>
        <time>2026-08-07T10:18:02.508Z</time>
      </trkpt>
      <trkpt lat="49.63543" lon="5.02616">
        <ele>130.86</ele>
        <time>2026-08-07T10:18:08.503Z</time>
      </trkpt>
      <trkpt lat="49.63556" lon="5.02611">
        <ele>131.38</ele>
        <time>2026-08-07T10:18:14.503Z</time>
      </trkpt>
      <trkpt lat="49.63569" lon="5.02609">
        <ele>131.83</ele>
        <time>2026-08-07T10:18:20.506Z</time>
      </trkpt>
      <trkpt lat="49.63583" lon="5.02606">
        <ele>132.54</ele>
        <time>2026-08-07T10:18:26.514Z</time>
      </trkpt>
      <trkpt lat="49.63594" lon="5.02604">
        <ele>132.83</ele>
        <time>2026-08-07T10:18:32.503Z</time>
      </trkpt>
      <trkpt lat="49.63606" lon="5.02602">
        <ele>132.81</ele>
        <time>2026-08-07T10:18:38.506Z</time>
      </trkpt>
      <trkpt lat="49.63619" lon="5.02598">
        <ele>134.43</ele>
        <time>2026-08-07T10:18:44.507Z</time>
      </trkpt>
      <trkpt lat="49.63631" lon="5.02595">
        <ele>134.55</ele>
        <time>2026-08-07T10:18:50.503Z</time>
      </trkpt>
      <trkpt lat="49.63641" lon="5.02592">
        <ele>135.83</ele>
        <time>2026-08-07T10:18:56.512Z</time>
      </trkpt>
      <trkpt lat="49.63654" lon="5.0259">
        <ele>136.24</ele>
        <time>2026-08-07T10:19:02.504Z</time>
      </trkpt>
      <trkpt lat="49.63665" lon="5.02587">
        <ele>137.6</ele>
        <time>2026-08-07T10:19:08.509Z</time>
      </trkpt>
      <trkpt lat="49.63675" lon="5.02585">
        <ele>139.13</ele>
        <time>2026-08-07T10:19:14.504Z</time>
      </trkpt>
      <trkpt lat="49.63686" lon="5.02582">
        <ele>139.37</ele>
        <time>2026-08-07T10:19:20.503Z</time>
      </trkpt>
      <trkpt lat="49.637" lon="5.02579">
        <ele>140.09</ele>
        <time>2026-08-07T10:19:26.512Z</time>
      </trkpt>
      <trkpt lat="49.63713" lon="5.02575">
        <ele>141.02</ele>
        <time>2026-08-07T10:19:32.506Z</time>
      </trkpt>
      <trkpt lat="49.63728" lon="5.02572">
        <ele>142.31</ele>
        <time>2026-08-07T10:19:38.504Z</time>
      </trkpt>
      <trkpt lat="49.63743" lon="5.0257">
        <ele>141.91</ele>
        <time>2026-08-07T10:19:44.512Z</time>
      </trkpt>
      <trkpt lat="49.63758" lon="5.02566">
        <ele>142.19</ele>
        <time>2026-08-07T10:19:50.505Z</time>
      </trkpt>
      <trkpt lat="49.63775" lon="5.02565">
        <ele>141.74</ele>
        <time>2026-08-07T10:19:56.511Z</time>
      </trkpt>
      <trkpt lat="49.63793" lon="5.02562">
        <ele>140.81</ele>
        <time>2026-08-07T10:20:02.511Z</time>
      </trkpt>
      <trkpt lat="49.63811" lon="5.0256">
        <ele>141</ele>
        <time>2026-08-07T10:20:08.511Z</time>
      </trkpt>
      <trkpt lat="49.63831" lon="5.02555">
        <ele>141.37</ele>
        <time>2026-08-07T10:20:14.505Z</time>
      </trkpt>
      <trkpt lat="49.63851" lon="5.02553">
        <ele>140.93</ele>
        <time>2026-08-07T10:20:20.511Z</time>
      </trkpt>
      <trkpt lat="49.63873" lon="5.02548">
        <ele>140.59</ele>
        <time>2026-08-07T10:20:26.512Z</time>
      </trkpt>
      <trkpt lat="49.639" lon="5.02543">
        <ele>139.7</ele>
        <time>2026-08-07T10:20:32.510Z</time>
      </trkpt>
      <trkpt lat="49.63934" lon="5.02537">
        <ele>137.21</ele>
        <time>2026-08-07T10:20:38.515Z</time>
      </trkpt>
      <trkpt lat="49.63972" lon="5.02529">
        <ele>134.71</ele>
        <time>2026-08-07T10:20:44.514Z</time>
      </trkpt>
      <trkpt lat="49.64013" lon="5.02514">
        <ele>131.39</ele>
        <time>2026-08-07T10:20:50.524Z</time>
      </trkpt>
      <trkpt lat="49.64053" lon="5.02494">
        <ele>128.38</ele>
        <time>2026-08-07T10:20:56.510Z</time>
      </trkpt>
      <trkpt lat="49.64091" lon="5.02469">
        <ele>127.37</ele>
        <time>2026-08-07T10:21:02.509Z</time>
      </trkpt>
      <trkpt lat="49.64124" lon="5.02442">
        <ele>126.76</ele>
        <time>2026-08-07T10:21:08.510Z</time>
      </trkpt>
      <trkpt lat="49.64153" lon="5.02413">
        <ele>125.53</ele>
        <time>2026-08-07T10:21:14.510Z</time>
      </trkpt>
      <trkpt lat="49.64182" lon="5.02378">
        <ele>125.17</ele>
        <time>2026-08-07T10:21:20.512Z</time>
      </trkpt>
      <trkpt lat="49.6421" lon="5.02338">
        <ele>125.7</ele>
        <time>2026-08-07T10:21:26.511Z</time>
      </trkpt>
      <trkpt lat="49.64236" lon="5.02295">
        <ele>124.73</ele>
        <time>2026-08-07T10:21:32.512Z</time>
      </trkpt>
      <trkpt lat="49.6426" lon="5.0225">
        <ele>123.69</ele>
        <time>2026-08-07T10:21:38.512Z</time>
      </trkpt>
      <trkpt lat="49.64282" lon="5.02205">
        <ele>124.12</ele>
        <time>2026-08-07T10:21:44.510Z</time>
      </trkpt>
      <trkpt lat="49.64303" lon="5.02156">
        <ele>123.64</ele>
        <time>2026-08-07T10:21:50.514Z</time>
      </trkpt>
      <trkpt lat="49.64321" lon="5.02096">
        <ele>121.59</ele>
        <time>2026-08-07T10:21:56.509Z</time>
      </trkpt>
      <trkpt lat="49.64332" lon="5.0203">
        <ele>118.1</ele>
        <time>2026-08-07T10:22:02.513Z</time>
      </trkpt>
      <trkpt lat="49.6434" lon="5.01964">
        <ele>115.96</ele>
        <time>2026-08-07T10:22:08.513Z</time>
      </trkpt>
      <trkpt lat="49.64348" lon="5.019">
        <ele>113.18</ele>
        <time>2026-08-07T10:22:14.515Z</time>
      </trkpt>
      <trkpt lat="49.64355" lon="5.01833">
        <ele>111.69</ele>
        <time>2026-08-07T10:22:20.509Z</time>
      </trkpt>
      <trkpt lat="49.64364" lon="5.01766">
        <ele>110.11</ele>
        <time>2026-08-07T10:22:26.512Z</time>
      </trkpt>
      <trkpt lat="49.64372" lon="5.01697">
        <ele>109.03</ele>
        <time>2026-08-07T10:22:32.514Z</time>
      </trkpt>
      <trkpt lat="49.64379" lon="5.0163">
        <ele>107.64</ele>
        <time>2026-08-07T10:22:38.514Z</time>
      </trkpt>
      <trkpt lat="49.64386" lon="5.01574">
        <ele>109.24</ele>
        <time>2026-08-07T10:22:44.510Z</time>
      </trkpt>
      <trkpt lat="49.64391" lon="5.01528">
        <ele>109.7</ele>
        <time>2026-08-07T10:22:50.510Z</time>
      </trkpt>
      <trkpt lat="49.64395" lon="5.01491">
        <ele>111.11</ele>
        <time>2026-08-07T10:22:56.511Z</time>
      </trkpt>
      <trkpt lat="49.64398" lon="5.01459">
        <ele>112.06</ele>
        <time>2026-08-07T10:23:02.504Z</time>
      </trkpt>
      <trkpt lat="49.64402" lon="5.01429">
        <ele>112.6</ele>
        <time>2026-08-07T10:23:08.505Z</time>
      </trkpt>
      <trkpt lat="49.64405" lon="5.01399">
        <ele>113.61</ele>
        <time>2026-08-07T10:23:14.511Z</time>
      </trkpt>
      <trkpt lat="49.64409" lon="5.01367">
        <ele>114.72</ele>
        <time>2026-08-07T10:23:20.509Z</time>
      </trkpt>
      <trkpt lat="49.64412" lon="5.01336">
        <ele>115.6</ele>
        <time>2026-08-07T10:23:26.513Z</time>
      </trkpt>
      <trkpt lat="49.64416" lon="5.01305">
        <ele>116.6</ele>
        <time>2026-08-07T10:23:32.501Z</time>
      </trkpt>
      <trkpt lat="49.6442" lon="5.01274">
        <ele>117.71</ele>
        <time>2026-08-07T10:23:38.506Z</time>
      </trkpt>
      <trkpt lat="49.64426" lon="5.01244">
        <ele>118.64</ele>
        <time>2026-08-07T10:23:44.506Z</time>
      </trkpt>
      <trkpt lat="49.64432" lon="5.01211">
        <ele>118.45</ele>
        <time>2026-08-07T10:23:50.506Z</time>
      </trkpt>
      <trkpt lat="49.64441" lon="5.0118">
        <ele>117.88</ele>
        <time>2026-08-07T10:23:56.509Z</time>
      </trkpt>
      <trkpt lat="49.64453" lon="5.01149">
        <ele>118.37</ele>
        <time>2026-08-07T10:24:02.503Z</time>
      </trkpt>
      <trkpt lat="49.64467" lon="5.01119">
        <ele>118.88</ele>
        <time>2026-08-07T10:24:08.508Z</time>
      </trkpt>
      <trkpt lat="49.64484" lon="5.01086">
        <ele>119.2</ele>
        <time>2026-08-07T10:24:14.503Z</time>
      </trkpt>
      <trkpt lat="49.64503" lon="5.01051">
        <ele>118.89</ele>
        <time>2026-08-07T10:24:20.503Z</time>
      </trkpt>
      <trkpt lat="49.64521" lon="5.01016">
        <ele>118.79</ele>
        <time>2026-08-07T10:24:26.511Z</time>
      </trkpt>
      <trkpt lat="49.64538" lon="5.00984">
        <ele>119.12</ele>
        <time>2026-08-07T10:24:32.513Z</time>
      </trkpt>
      <trkpt lat="49.64557" lon="5.00955">
        <ele>120.06</ele>
        <time>2026-08-07T10:24:38.510Z</time>
      </trkpt>
      <trkpt lat="49.64578" lon="5.00926">
        <ele>120.07</ele>
        <time>2026-08-07T10:24:44.516Z</time>
      </trkpt>
      <trkpt lat="49.64598" lon="5.0089">
        <ele>119.61</ele>
        <time>2026-08-07T10:24:50.512Z</time>
      </trkpt>
      <trkpt lat="49.64617" lon="5.00848">
        <ele>119.35</ele>
        <time>2026-08-07T10:24:56.515Z</time>
      </trkpt>
      <trkpt lat="49.64638" lon="5.00801">
        <ele>118.03</ele>
        <time>2026-08-07T10:25:02.511Z</time>
      </trkpt>
      <trkpt lat="49.64659" lon="5.00749">
        <ele>116.22</ele>
        <time>2026-08-07T10:25:08.511Z</time>
      </trkpt>
      <trkpt lat="49.64683" lon="5.00695">
        <ele>115.1</ele>
        <time>2026-08-07T10:25:14.520Z</time>
      </trkpt>
      <trkpt lat="49.64709" lon="5.00645">
        <ele>114.28</ele>
        <time>2026-08-07T10:25:20.510Z</time>
      </trkpt>
      <trkpt lat="49.64736" lon="5.00591">
        <ele>112.9</ele>
        <time>2026-08-07T10:25:26.509Z</time>
      </trkpt>
      <trkpt lat="49.64761" lon="5.00529">
        <ele>111.33</ele>
        <time>2026-08-07T10:25:32.510Z</time>
      </trkpt>
      <trkpt lat="49.64782" lon="5.00471">
        <ele>110.61</ele>
        <time>2026-08-07T10:25:38.504Z</time>
      </trkpt>
      <trkpt lat="49.64801" lon="5.00423">
        <ele>112.22</ele>
        <time>2026-08-07T10:25:44.504Z</time>
      </trkpt>
      <trkpt lat="49.6482" lon="5.0038">
        <ele>112.95</ele>
        <time>2026-08-07T10:25:50.502Z</time>
      </trkpt>
      <trkpt lat="49.64839" lon="5.00343">
        <ele>112.89</ele>
        <time>2026-08-07T10:25:56.503Z</time>
      </trkpt>
      <trkpt lat="49.64856" lon="5.00307">
        <ele>113.98</ele>
        <time>2026-08-07T10:26:02.507Z</time>
      </trkpt>
      <trkpt lat="49.64873" lon="5.00268">
        <ele>113.85</ele>
        <time>2026-08-07T10:26:08.502Z</time>
      </trkpt>
      <trkpt lat="49.64891" lon="5.00228">
        <ele>113.63</ele>
        <time>2026-08-07T10:26:14.504Z</time>
      </trkpt>
      <trkpt lat="49.64909" lon="5.00188">
        <ele>113.08</ele>
        <time>2026-08-07T10:26:20.503Z</time>
      </trkpt>
      <trkpt lat="49.64928" lon="5.00149">
        <ele>112.87</ele>
        <time>2026-08-07T10:26:26.504Z</time>
      </trkpt>
      <trkpt lat="49.64948" lon="5.00112">
        <ele>112.74</ele>
        <time>2026-08-07T10:26:32.504Z</time>
      </trkpt>
      <trkpt lat="49.64967" lon="5.00073">
        <ele>112.57</ele>
        <time>2026-08-07T10:26:38.506Z</time>
      </trkpt>
      <trkpt lat="49.64987" lon="5.00035">
        <ele>112.02</ele>
        <time>2026-08-07T10:26:44.505Z</time>
      </trkpt>
      <trkpt lat="49.65005" lon="4.99994">
        <ele>112.3</ele>
        <time>2026-08-07T10:26:50.503Z</time>
      </trkpt>
      <trkpt lat="49.65022" lon="4.99954">
        <ele>112.87</ele>
        <time>2026-08-07T10:26:56.502Z</time>
      </trkpt>
      <trkpt lat="49.65041" lon="4.99916">
        <ele>113.24</ele>
        <time>2026-08-07T10:27:02.504Z</time>
      </trkpt>
      <trkpt lat="49.65068" lon="4.99882">
        <ele>113.14</ele>
        <time>2026-08-07T10:27:08.505Z</time>
      </trkpt>
      <trkpt lat="49.65103" lon="4.9985">
        <ele>112.06</ele>
        <time>2026-08-07T10:27:14.502Z</time>
      </trkpt>
      <trkpt lat="49.65133" lon="4.99859">
        <ele>110.21</ele>
        <time>2026-08-07T10:27:20.503Z</time>
      </trkpt>
      <trkpt lat="49.65152" lon="4.99908">
        <ele>109.48</ele>
        <time>2026-08-07T10:27:26.513Z</time>
      </trkpt>
      <trkpt lat="49.65169" lon="4.9994">
        <ele>109.61</ele>
        <time>2026-08-07T10:27:32.503Z</time>
      </trkpt>
      <trkpt lat="49.65188" lon="4.99938">
        <ele>110.41</ele>
        <time>2026-08-07T10:27:38.504Z</time>
      </trkpt>
      <trkpt lat="49.652" lon="4.99917">
        <ele>111.95</ele>
        <time>2026-08-07T10:27:44.504Z</time>
      </trkpt>
      <trkpt lat="49.65213" lon="4.99898">
        <ele>114.36</ele>
        <time>2026-08-07T10:27:50.502Z</time>
      </trkpt>
      <trkpt lat="49.65221" lon="4.99884">
        <ele>114.38</ele>
        <time>2026-08-07T10:27:56.503Z</time>
      </trkpt>
      <trkpt lat="49.65242" lon="4.99848">
        <ele>112.3</ele>
        <time>2026-08-07T10:28:02.503Z</time>
      </trkpt>
      <trkpt lat="49.6527" lon="4.99797">
        <ele>109.3</ele>
        <time>2026-08-07T10:28:08.504Z</time>
      </trkpt>
      <trkpt lat="49.65291" lon="4.99749">
        <ele>108.6</ele>
        <time>2026-08-07T10:28:14.504Z</time>
      </trkpt>
      <trkpt lat="49.65311" lon="4.99703">
        <ele>107.53</ele>
        <time>2026-08-07T10:28:20.504Z</time>
      </trkpt>
      <trkpt lat="49.65331" lon="4.99657">
        <ele>107.93</ele>
        <time>2026-08-07T10:28:26.504Z</time>
      </trkpt>
      <trkpt lat="49.65348" lon="4.99618">
        <ele>107.96</ele>
        <time>2026-08-07T10:28:32.503Z</time>
      </trkpt>
      <trkpt lat="49.65366" lon="4.99583">
        <ele>109.21</ele>
        <time>2026-08-07T10:28:38.503Z</time>
      </trkpt>
      <trkpt lat="49.65383" lon="4.99551">
        <ele>109.23</ele>
        <time>2026-08-07T10:28:44.506Z</time>
      </trkpt>
      <trkpt lat="49.65396" lon="4.99526">
        <ele>109.3</ele>
        <time>2026-08-07T10:28:50.504Z</time>
      </trkpt>
      <trkpt lat="49.65403" lon="4.99514">
        <ele>108.69</ele>
        <time>2026-08-07T10:30:32.501Z</time>
      </trkpt>
      <trkpt lat="49.6542" lon="4.99488">
        <ele>109.61</ele>
        <time>2026-08-07T10:30:38.518Z</time>
      </trkpt>
      <trkpt lat="49.65438" lon="4.99458">
        <ele>110.58</ele>
        <time>2026-08-07T10:30:44.506Z</time>
      </trkpt>
      <trkpt lat="49.65456" lon="4.99428">
        <ele>110.55</ele>
        <time>2026-08-07T10:30:50.506Z</time>
      </trkpt>
      <trkpt lat="49.65475" lon="4.99396">
        <ele>108.39</ele>
        <time>2026-08-07T10:30:56.504Z</time>
      </trkpt>
      <trkpt lat="49.65495" lon="4.99364">
        <ele>108.98</ele>
        <time>2026-08-07T10:31:02.505Z</time>
      </trkpt>
      <trkpt lat="49.65511" lon="4.99337">
        <ele>108.76</ele>
        <time>2026-08-07T10:31:08.503Z</time>
      </trkpt>
      <trkpt lat="49.65531" lon="4.99304">
        <ele>109.14</ele>
        <time>2026-08-07T10:31:14.502Z</time>
      </trkpt>
      <trkpt lat="49.65552" lon="4.9927">
        <ele>108.83</ele>
        <time>2026-08-07T10:31:20.505Z</time>
      </trkpt>
      <trkpt lat="49.65574" lon="4.99233">
        <ele>107.73</ele>
        <time>2026-08-07T10:31:26.508Z</time>
      </trkpt>
      <trkpt lat="49.65596" lon="4.99195">
        <ele>107.69</ele>
        <time>2026-08-07T10:31:32.507Z</time>
      </trkpt>
      <trkpt lat="49.65619" lon="4.99159">
        <ele>107.71</ele>
        <time>2026-08-07T10:31:38.504Z</time>
      </trkpt>
      <trkpt lat="49.65641" lon="4.99121">
        <ele>108.96</ele>
        <time>2026-08-07T10:31:44.503Z</time>
      </trkpt>
      <trkpt lat="49.65663" lon="4.99085">
        <ele>109.83</ele>
        <time>2026-08-07T10:31:50.508Z</time>
      </trkpt>
      <trkpt lat="49.65684" lon="4.99051">
        <ele>109.81</ele>
        <time>2026-08-07T10:31:56.514Z</time>
      </trkpt>
      <trkpt lat="49.65703" lon="4.99016">
        <ele>109.97</ele>
        <time>2026-08-07T10:32:02.508Z</time>
      </trkpt>
      <trkpt lat="49.65722" lon="4.98983">
        <ele>109.04</ele>
        <time>2026-08-07T10:32:08.505Z</time>
      </trkpt>
      <trkpt lat="49.65743" lon="4.98946">
        <ele>108.66</ele>
        <time>2026-08-07T10:32:14.503Z</time>
      </trkpt>
      <trkpt lat="49.65761" lon="4.9891">
        <ele>107.27</ele>
        <time>2026-08-07T10:32:20.504Z</time>
      </trkpt>
      <trkpt lat="49.65781" lon="4.98873">
        <ele>106.79</ele>
        <time>2026-08-07T10:32:26.511Z</time>
      </trkpt>
      <trkpt lat="49.65801" lon="4.98835">
        <ele>107.44</ele>
        <time>2026-08-07T10:32:32.505Z</time>
      </trkpt>
      <trkpt lat="49.65822" lon="4.98797">
        <ele>107.38</ele>
        <time>2026-08-07T10:32:38.503Z</time>
      </trkpt>
      <trkpt lat="49.65842" lon="4.98757">
        <ele>107.48</ele>
        <time>2026-08-07T10:32:44.506Z</time>
      </trkpt>
      <trkpt lat="49.65864" lon="4.98717">
        <ele>106.88</ele>
        <time>2026-08-07T10:32:50.507Z</time>
      </trkpt>
      <trkpt lat="49.65884" lon="4.98677">
        <ele>106.94</ele>
        <time>2026-08-07T10:32:56.509Z</time>
      </trkpt>
      <trkpt lat="49.65905" lon="4.98638">
        <ele>107.55</ele>
        <time>2026-08-07T10:33:02.504Z</time>
      </trkpt>
      <trkpt lat="49.65924" lon="4.98599">
        <ele>107.7</ele>
        <time>2026-08-07T10:33:08.506Z</time>
      </trkpt>
      <trkpt lat="49.65945" lon="4.98562">
        <ele>108.05</ele>
        <time>2026-08-07T10:33:14.505Z</time>
      </trkpt>
      <trkpt lat="49.65967" lon="4.98522">
        <ele>108.78</ele>
        <time>2026-08-07T10:33:20.503Z</time>
      </trkpt>
      <trkpt lat="49.65986" lon="4.98485">
        <ele>109.19</ele>
        <time>2026-08-07T10:33:26.500Z</time>
      </trkpt>
      <trkpt lat="49.66009" lon="4.9844">
        <ele>109.99</ele>
        <time>2026-08-07T10:33:32.505Z</time>
      </trkpt>
      <trkpt lat="49.66028" lon="4.98398">
        <ele>109.21</ele>
        <time>2026-08-07T10:33:38.502Z</time>
      </trkpt>
      <trkpt lat="49.6605" lon="4.98357">
        <ele>108.95</ele>
        <time>2026-08-07T10:33:44.503Z</time>
      </trkpt>
      <trkpt lat="49.66071" lon="4.98319">
        <ele>109.61</ele>
        <time>2026-08-07T10:33:50.503Z</time>
      </trkpt>
      <trkpt lat="49.66091" lon="4.9828">
        <ele>107.31</ele>
        <time>2026-08-07T10:33:56.509Z</time>
      </trkpt>
      <trkpt lat="49.66113" lon="4.9824">
        <ele>106.43</ele>
        <time>2026-08-07T10:34:02.501Z</time>
      </trkpt>
      <trkpt lat="49.66133" lon="4.98201">
        <ele>106.41</ele>
        <time>2026-08-07T10:34:08.503Z</time>
      </trkpt>
      <trkpt lat="49.66154" lon="4.98159">
        <ele>106.69</ele>
        <time>2026-08-07T10:34:14.502Z</time>
      </trkpt>
      <trkpt lat="49.66177" lon="4.98115">
        <ele>105.08</ele>
        <time>2026-08-07T10:34:20.504Z</time>
      </trkpt>
      <trkpt lat="49.66197" lon="4.98073">
        <ele>105.29</ele>
        <time>2026-08-07T10:34:26.510Z</time>
      </trkpt>
      <trkpt lat="49.6622" lon="4.9803">
        <ele>105.66</ele>
        <time>2026-08-07T10:34:32.503Z</time>
      </trkpt>
      <trkpt lat="49.66244" lon="4.97986">
        <ele>107.01</ele>
        <time>2026-08-07T10:34:38.497Z</time>
      </trkpt>
      <trkpt lat="49.66266" lon="4.97942">
        <ele>109.85</ele>
        <time>2026-08-07T10:34:44.504Z</time>
      </trkpt>
      <trkpt lat="49.66289" lon="4.97897">
        <ele>110.78</ele>
        <time>2026-08-07T10:34:50.505Z</time>
      </trkpt>
      <trkpt lat="49.66312" lon="4.97855">
        <ele>110.17</ele>
        <time>2026-08-07T10:34:56.513Z</time>
      </trkpt>
      <trkpt lat="49.66334" lon="4.97813">
        <ele>108.91</ele>
        <time>2026-08-07T10:35:02.505Z</time>
      </trkpt>
      <trkpt lat="49.66356" lon="4.9777">
        <ele>110.06</ele>
        <time>2026-08-07T10:35:08.507Z</time>
      </trkpt>
      <trkpt lat="49.66378" lon="4.97728">
        <ele>109.82</ele>
        <time>2026-08-07T10:35:14.506Z</time>
      </trkpt>
      <trkpt lat="49.66399" lon="4.97688">
        <ele>109.67</ele>
        <time>2026-08-07T10:35:20.504Z</time>
      </trkpt>
      <trkpt lat="49.6642" lon="4.97647">
        <ele>109.31</ele>
        <time>2026-08-07T10:35:26.509Z</time>
      </trkpt>
      <trkpt lat="49.6644" lon="4.97608">
        <ele>109.29</ele>
        <time>2026-08-07T10:35:32.503Z</time>
      </trkpt>
      <trkpt lat="49.66461" lon="4.97567">
        <ele>109.23</ele>
        <time>2026-08-07T10:35:38.520Z</time>
      </trkpt>
      <trkpt lat="49.66482" lon="4.97529">
        <ele>109.79</ele>
        <time>2026-08-07T10:35:44.508Z</time>
      </trkpt>
      <trkpt lat="49.66499" lon="4.975">
        <ele>109.25</ele>
        <time>2026-08-07T10:35:50.510Z</time>
      </trkpt>
      <trkpt lat="49.66513" lon="4.97472">
        <ele>108.16</ele>
        <time>2026-08-07T10:35:56.512Z</time>
      </trkpt>
      <trkpt lat="49.66524" lon="4.97441">
        <ele>108.33</ele>
        <time>2026-08-07T10:36:02.508Z</time>
      </trkpt>
      <trkpt lat="49.66544" lon="4.97402">
        <ele>105.37</ele>
        <time>2026-08-07T10:36:08.507Z</time>
      </trkpt>
      <trkpt lat="49.66564" lon="4.97362">
        <ele>104.27</ele>
        <time>2026-08-07T10:36:14.504Z</time>
      </trkpt>
      <trkpt lat="49.66588" lon="4.97318">
        <ele>104.47</ele>
        <time>2026-08-07T10:36:20.504Z</time>
      </trkpt>
      <trkpt lat="49.6661" lon="4.97275">
        <ele>106.09</ele>
        <time>2026-08-07T10:36:26.512Z</time>
      </trkpt>
      <trkpt lat="49.66629" lon="4.97228">
        <ele>105.83</ele>
        <time>2026-08-07T10:36:32.508Z</time>
      </trkpt>
      <trkpt lat="49.66644" lon="4.97177">
        <ele>105.16</ele>
        <time>2026-08-07T10:36:38.508Z</time>
      </trkpt>
      <trkpt lat="49.66658" lon="4.97131">
        <ele>106.11</ele>
        <time>2026-08-07T10:36:44.509Z</time>
      </trkpt>
      <trkpt lat="49.66674" lon="4.97086">
        <ele>105.83</ele>
        <time>2026-08-07T10:36:50.505Z</time>
      </trkpt>
      <trkpt lat="49.66694" lon="4.97043">
        <ele>105.96</ele>
        <time>2026-08-07T10:36:56.513Z</time>
      </trkpt>
      <trkpt lat="49.66718" lon="4.97005">
        <ele>105.46</ele>
        <time>2026-08-07T10:37:02.514Z</time>
      </trkpt>
      <trkpt lat="49.66741" lon="4.96968">
        <ele>105.42</ele>
        <time>2026-08-07T10:37:08.507Z</time>
      </trkpt>
      <trkpt lat="49.66767" lon="4.96934">
        <ele>105.56</ele>
        <time>2026-08-07T10:37:14.508Z</time>
      </trkpt>
      <trkpt lat="49.66788" lon="4.96898">
        <ele>105.44</ele>
        <time>2026-08-07T10:37:20.504Z</time>
      </trkpt>
      <trkpt lat="49.66805" lon="4.96857">
        <ele>104.55</ele>
        <time>2026-08-07T10:37:26.508Z</time>
      </trkpt>
      <trkpt lat="49.6682" lon="4.96809">
        <ele>104.28</ele>
        <time>2026-08-07T10:37:32.497Z</time>
      </trkpt>
      <trkpt lat="49.66829" lon="4.96759">
        <ele>105.33</ele>
        <time>2026-08-07T10:37:38.500Z</time>
      </trkpt>
      <trkpt lat="49.66828" lon="4.96708">
        <ele>106.43</ele>
        <time>2026-08-07T10:37:44.501Z</time>
      </trkpt>
      <trkpt lat="49.66821" lon="4.9666">
        <ele>105.69</ele>
        <time>2026-08-07T10:37:50.498Z</time>
      </trkpt>
      <trkpt lat="49.66812" lon="4.96619">
        <ele>102.89</ele>
        <time>2026-08-07T10:37:56.504Z</time>
      </trkpt>
      <trkpt lat="49.66803" lon="4.96572">
        <ele>101.15</ele>
        <time>2026-08-07T10:38:02.501Z</time>
      </trkpt>
      <trkpt lat="49.66796" lon="4.96522">
        <ele>100.17</ele>
        <time>2026-08-07T10:38:08.496Z</time>
      </trkpt>
      <trkpt lat="49.66788" lon="4.96471">
        <ele>101.48</ele>
        <time>2026-08-07T10:38:14.498Z</time>
      </trkpt>
      <trkpt lat="49.66778" lon="4.96422">
        <ele>103.37</ele>
        <time>2026-08-07T10:38:20.499Z</time>
      </trkpt>
      <trkpt lat="49.66771" lon="4.96377">
        <ele>103.64</ele>
        <time>2026-08-07T10:38:26.500Z</time>
      </trkpt>
      <trkpt lat="49.66769" lon="4.96334">
        <ele>103.12</ele>
        <time>2026-08-07T10:38:32.500Z</time>
      </trkpt>
      <trkpt lat="49.66772" lon="4.96286">
        <ele>102.06</ele>
        <time>2026-08-07T10:38:38.500Z</time>
      </trkpt>
      <trkpt lat="49.6678" lon="4.96239">
        <ele>101.7</ele>
        <time>2026-08-07T10:38:44.502Z</time>
      </trkpt>
      <trkpt lat="49.66791" lon="4.96194">
        <ele>103.48</ele>
        <time>2026-08-07T10:38:50.497Z</time>
      </trkpt>
      <trkpt lat="49.66805" lon="4.96144">
        <ele>104.18</ele>
        <time>2026-08-07T10:38:56.498Z</time>
      </trkpt>
      <trkpt lat="49.66823" lon="4.96096">
        <ele>103.37</ele>
        <time>2026-08-07T10:39:02.500Z</time>
      </trkpt>
      <trkpt lat="49.6684" lon="4.96054">
        <ele>102.43</ele>
        <time>2026-08-07T10:39:08.499Z</time>
      </trkpt>
      <trkpt lat="49.66857" lon="4.96012">
        <ele>103.34</ele>
        <time>2026-08-07T10:39:14.502Z</time>
      </trkpt>
      <trkpt lat="49.66873" lon="4.95975">
        <ele>105.72</ele>
        <time>2026-08-07T10:39:20.499Z</time>
      </trkpt>
      <trkpt lat="49.66885" lon="4.95946">
        <ele>107.98</ele>
        <time>2026-08-07T10:39:26.506Z</time>
      </trkpt>
      <trkpt lat="49.66901" lon="4.95907">
        <ele>107.44</ele>
        <time>2026-08-07T10:39:32.498Z</time>
      </trkpt>
      <trkpt lat="49.66923" lon="4.95863">
        <ele>105.24</ele>
        <time>2026-08-07T10:39:38.500Z</time>
      </trkpt>
      <trkpt lat="49.66947" lon="4.95818">
        <ele>104.92</ele>
        <time>2026-08-07T10:39:44.500Z</time>
      </trkpt>
      <trkpt lat="49.66975" lon="4.95778">
        <ele>104.78</ele>
        <time>2026-08-07T10:39:50.497Z</time>
      </trkpt>
      <trkpt lat="49.67002" lon="4.95744">
        <ele>104.56</ele>
        <time>2026-08-07T10:39:56.503Z</time>
      </trkpt>
      <trkpt lat="49.67029" lon="4.9571">
        <ele>104.99</ele>
        <time>2026-08-07T10:40:02.497Z</time>
      </trkpt>
      <trkpt lat="49.67056" lon="4.95678">
        <ele>106.34</ele>
        <time>2026-08-07T10:40:08.498Z</time>
      </trkpt>
      <trkpt lat="49.67087" lon="4.9565">
        <ele>106.43</ele>
        <time>2026-08-07T10:40:14.497Z</time>
      </trkpt>
      <trkpt lat="49.67117" lon="4.95624">
        <ele>107.03</ele>
        <time>2026-08-07T10:40:20.497Z</time>
      </trkpt>
      <trkpt lat="49.67146" lon="4.95598">
        <ele>106.4</ele>
        <time>2026-08-07T10:40:26.498Z</time>
      </trkpt>
      <trkpt lat="49.6717" lon="4.9556">
        <ele>106.68</ele>
        <time>2026-08-07T10:40:32.496Z</time>
      </trkpt>
      <trkpt lat="49.6719" lon="4.95516">
        <ele>106.54</ele>
        <time>2026-08-07T10:40:38.496Z</time>
      </trkpt>
      <trkpt lat="49.67206" lon="4.9547">
        <ele>105.61</ele>
        <time>2026-08-07T10:40:44.498Z</time>
      </trkpt>
      <trkpt lat="49.67221" lon="4.95422">
        <ele>105.01</ele>
        <time>2026-08-07T10:40:50.500Z</time>
      </trkpt>
      <trkpt lat="49.67234" lon="4.95376">
        <ele>104.88</ele>
        <time>2026-08-07T10:40:56.498Z</time>
      </trkpt>
      <trkpt lat="49.67247" lon="4.95329">
        <ele>104.06</ele>
        <time>2026-08-07T10:41:02.501Z</time>
      </trkpt>
      <trkpt lat="49.67259" lon="4.95285">
        <ele>102.8</ele>
        <time>2026-08-07T10:41:08.490Z</time>
      </trkpt>
      <trkpt lat="49.67272" lon="4.95237">
        <ele>102.75</ele>
        <time>2026-08-07T10:41:14.498Z</time>
      </trkpt>
      <trkpt lat="49.67285" lon="4.95183">
        <ele>103.4</ele>
        <time>2026-08-07T10:41:20.496Z</time>
      </trkpt>
      <trkpt lat="49.67296" lon="4.95128">
        <ele>103.09</ele>
        <time>2026-08-07T10:41:26.503Z</time>
      </trkpt>
      <trkpt lat="49.67305" lon="4.95076">
        <ele>103.18</ele>
        <time>2026-08-07T10:41:32.504Z</time>
      </trkpt>
      <trkpt lat="49.67315" lon="4.95023">
        <ele>103.18</ele>
        <time>2026-08-07T10:41:38.499Z</time>
      </trkpt>
      <trkpt lat="49.67324" lon="4.94972">
        <ele>103.72</ele>
        <time>2026-08-07T10:41:44.502Z</time>
      </trkpt>
      <trkpt lat="49.67336" lon="4.94922">
        <ele>104.39</ele>
        <time>2026-08-07T10:41:50.499Z</time>
      </trkpt>
      <trkpt lat="49.67348" lon="4.94873">
        <ele>103.25</ele>
        <time>2026-08-07T10:41:56.497Z</time>
      </trkpt>
      <trkpt lat="49.67364" lon="4.94829">
        <ele>103.68</ele>
        <time>2026-08-07T10:42:02.502Z</time>
      </trkpt>
      <trkpt lat="49.67383" lon="4.94791">
        <ele>104.6</ele>
        <time>2026-08-07T10:42:08.502Z</time>
      </trkpt>
      <trkpt lat="49.67408" lon="4.94769">
        <ele>105.74</ele>
        <time>2026-08-07T10:42:14.501Z</time>
      </trkpt>
      <trkpt lat="49.67435" lon="4.94749">
        <ele>107.42</ele>
        <time>2026-08-07T10:42:20.497Z</time>
      </trkpt>
      <trkpt lat="49.67463" lon="4.9473">
        <ele>109.25</ele>
        <time>2026-08-07T10:42:26.509Z</time>
      </trkpt>
      <trkpt lat="49.67495" lon="4.94715">
        <ele>110.36</ele>
        <time>2026-08-07T10:42:32.496Z</time>
      </trkpt>
      <trkpt lat="49.67527" lon="4.94699">
        <ele>109.31</ele>
        <time>2026-08-07T10:42:38.500Z</time>
      </trkpt>
      <trkpt lat="49.67565" lon="4.94692">
        <ele>108.49</ele>
        <time>2026-08-07T10:42:44.498Z</time>
      </trkpt>
      <trkpt lat="49.67609" lon="4.94685">
        <ele>107.51</ele>
        <time>2026-08-07T10:42:50.496Z</time>
      </trkpt>
      <trkpt lat="49.67646" lon="4.94674">
        <ele>107.12</ele>
        <time>2026-08-07T10:42:56.512Z</time>
      </trkpt>
      <trkpt lat="49.67681" lon="4.94671">
        <ele>106.01</ele>
        <time>2026-08-07T10:43:02.501Z</time>
      </trkpt>
      <trkpt lat="49.67719" lon="4.94669">
        <ele>105.47</ele>
        <time>2026-08-07T10:43:08.499Z</time>
      </trkpt>
      <trkpt lat="49.67756" lon="4.94667">
        <ele>106.36</ele>
        <time>2026-08-07T10:43:14.503Z</time>
      </trkpt>
      <trkpt lat="49.67792" lon="4.94661">
        <ele>106.54</ele>
        <time>2026-08-07T10:43:20.504Z</time>
      </trkpt>
      <trkpt lat="49.67828" lon="4.94655">
        <ele>108.84</ele>
        <time>2026-08-07T10:43:26.501Z</time>
      </trkpt>
      <trkpt lat="49.67863" lon="4.94653">
        <ele>110.2</ele>
        <time>2026-08-07T10:43:32.501Z</time>
      </trkpt>
      <trkpt lat="49.679" lon="4.94652">
        <ele>109.86</ele>
        <time>2026-08-07T10:43:38.501Z</time>
      </trkpt>
      <trkpt lat="49.67937" lon="4.94646">
        <ele>109.58</ele>
        <time>2026-08-07T10:43:44.502Z</time>
      </trkpt>
      <trkpt lat="49.67975" lon="4.94634">
        <ele>108.81</ele>
        <time>2026-08-07T10:43:50.502Z</time>
      </trkpt>
      <trkpt lat="49.68008" lon="4.94608">
        <ele>107.78</ele>
        <time>2026-08-07T10:43:56.517Z</time>
      </trkpt>
      <trkpt lat="49.6804" lon="4.94584">
        <ele>107.93</ele>
        <time>2026-08-07T10:44:02.508Z</time>
      </trkpt>
      <trkpt lat="49.68073" lon="4.94561">
        <ele>107.58</ele>
        <time>2026-08-07T10:44:08.498Z</time>
      </trkpt>
      <trkpt lat="49.68106" lon="4.94536">
        <ele>107.58</ele>
        <time>2026-08-07T10:44:14.498Z</time>
      </trkpt>
      <trkpt lat="49.68141" lon="4.94516">
        <ele>107.94</ele>
        <time>2026-08-07T10:44:20.508Z</time>
      </trkpt>
      <trkpt lat="49.68176" lon="4.94498">
        <ele>106.17</ele>
        <time>2026-08-07T10:44:26.508Z</time>
      </trkpt>
      <trkpt lat="49.68214" lon="4.94487">
        <ele>105.16</ele>
        <time>2026-08-07T10:44:32.504Z</time>
      </trkpt>
      <trkpt lat="49.6825" lon="4.94475">
        <ele>104.19</ele>
        <time>2026-08-07T10:44:38.504Z</time>
      </trkpt>
      <trkpt lat="49.68287" lon="4.94465">
        <ele>104.38</ele>
        <time>2026-08-07T10:44:44.508Z</time>
      </trkpt>
      <trkpt lat="49.68323" lon="4.94457">
        <ele>104.62</ele>
        <time>2026-08-07T10:44:50.503Z</time>
      </trkpt>
      <trkpt lat="49.68359" lon="4.94446">
        <ele>105.67</ele>
        <time>2026-08-07T10:44:56.513Z</time>
      </trkpt>
      <trkpt lat="49.68398" lon="4.94436">
        <ele>104.94</ele>
        <time>2026-08-07T10:45:02.507Z</time>
      </trkpt>
      <trkpt lat="49.68435" lon="4.94426">
        <ele>104.73</ele>
        <time>2026-08-07T10:45:08.508Z</time>
      </trkpt>
      <trkpt lat="49.68471" lon="4.94412">
        <ele>104.89</ele>
        <time>2026-08-07T10:45:14.510Z</time>
      </trkpt>
      <trkpt lat="49.68507" lon="4.94395">
        <ele>105.14</ele>
        <time>2026-08-07T10:45:20.508Z</time>
      </trkpt>
      <trkpt lat="49.6854" lon="4.94374">
        <ele>104.44</ele>
        <time>2026-08-07T10:45:26.519Z</time>
      </trkpt>
      <trkpt lat="49.68571" lon="4.9436">
        <ele>105.3</ele>
        <time>2026-08-07T10:45:32.504Z</time>
      </trkpt>
      <trkpt lat="49.68604" lon="4.94363">
        <ele>105.7</ele>
        <time>2026-08-07T10:45:38.504Z</time>
      </trkpt>
      <trkpt lat="49.6864" lon="4.94356">
        <ele>106.11</ele>
        <time>2026-08-07T10:45:44.506Z</time>
      </trkpt>
      <trkpt lat="49.68674" lon="4.94349">
        <ele>105.77</ele>
        <time>2026-08-07T10:45:50.505Z</time>
      </trkpt>
      <trkpt lat="49.6871" lon="4.94344">
        <ele>107.84</ele>
        <time>2026-08-07T10:45:56.503Z</time>
      </trkpt>
      <trkpt lat="49.68743" lon="4.94338">
        <ele>108.28</ele>
        <time>2026-08-07T10:46:02.512Z</time>
      </trkpt>
      <trkpt lat="49.68774" lon="4.94322">
        <ele>108.76</ele>
        <time>2026-08-07T10:46:08.507Z</time>
      </trkpt>
      <trkpt lat="49.68803" lon="4.9431">
        <ele>108.54</ele>
        <time>2026-08-07T10:46:14.503Z</time>
      </trkpt>
      <trkpt lat="49.6884" lon="4.94292">
        <ele>107.66</ele>
        <time>2026-08-07T10:46:20.506Z</time>
      </trkpt>
      <trkpt lat="49.68875" lon="4.94275">
        <ele>108.23</ele>
        <time>2026-08-07T10:46:26.511Z</time>
      </trkpt>
      <trkpt lat="49.6891" lon="4.94256">
        <ele>108.58</ele>
        <time>2026-08-07T10:46:32.510Z</time>
      </trkpt>
      <trkpt lat="49.68944" lon="4.94229">
        <ele>107.42</ele>
        <time>2026-08-07T10:46:38.506Z</time>
      </trkpt>
      <trkpt lat="49.68975" lon="4.94195">
        <ele>106.03</ele>
        <time>2026-08-07T10:46:44.507Z</time>
      </trkpt>
      <trkpt lat="49.68999" lon="4.94156">
        <ele>105.72</ele>
        <time>2026-08-07T10:46:50.498Z</time>
      </trkpt>
      <trkpt lat="49.69021" lon="4.94109">
        <ele>105.89</ele>
        <time>2026-08-07T10:46:56.515Z</time>
      </trkpt>
      <trkpt lat="49.69039" lon="4.94063">
        <ele>105.07</ele>
        <time>2026-08-07T10:47:02.512Z</time>
      </trkpt>
      <trkpt lat="49.69058" lon="4.9402">
        <ele>104.84</ele>
        <time>2026-08-07T10:47:08.506Z</time>
      </trkpt>
      <trkpt lat="49.69083" lon="4.93981">
        <ele>107.46</ele>
        <time>2026-08-07T10:47:14.506Z</time>
      </trkpt>
      <trkpt lat="49.69107" lon="4.93943">
        <ele>107.18</ele>
        <time>2026-08-07T10:47:20.508Z</time>
      </trkpt>
      <trkpt lat="49.69133" lon="4.93905">
        <ele>106.14</ele>
        <time>2026-08-07T10:47:26.514Z</time>
      </trkpt>
      <trkpt lat="49.69159" lon="4.93872">
        <ele>107.84</ele>
        <time>2026-08-07T10:47:32.512Z</time>
      </trkpt>
      <trkpt lat="49.69188" lon="4.93841">
        <ele>111.62</ele>
        <time>2026-08-07T10:47:38.506Z</time>
      </trkpt>
      <trkpt lat="49.69212" lon="4.93809">
        <ele>112.83</ele>
        <time>2026-08-07T10:47:44.510Z</time>
      </trkpt>
      <trkpt lat="49.69238" lon="4.93778">
        <ele>111.42</ele>
        <time>2026-08-07T10:47:50.507Z</time>
      </trkpt>
      <trkpt lat="49.69265" lon="4.93749">
        <ele>111.72</ele>
        <time>2026-08-07T10:47:56.508Z</time>
      </trkpt>
      <trkpt lat="49.6929" lon="4.93717">
        <ele>111.47</ele>
        <time>2026-08-07T10:48:02.511Z</time>
      </trkpt>
      <trkpt lat="49.69312" lon="4.93681">
        <ele>106.99</ele>
        <time>2026-08-07T10:48:08.507Z</time>
      </trkpt>
      <trkpt lat="49.6934" lon="4.9364">
        <ele>106.08</ele>
        <time>2026-08-07T10:48:14.512Z</time>
      </trkpt>
      <trkpt lat="49.69361" lon="4.93588">
        <ele>104.72</ele>
        <time>2026-08-07T10:48:20.511Z</time>
      </trkpt>
      <trkpt lat="49.6938" lon="4.93538">
        <ele>104.19</ele>
        <time>2026-08-07T10:48:26.517Z</time>
      </trkpt>
      <trkpt lat="49.69402" lon="4.93492">
        <ele>104.16</ele>
        <time>2026-08-07T10:48:32.513Z</time>
      </trkpt>
      <trkpt lat="49.69425" lon="4.93451">
        <ele>104.88</ele>
        <time>2026-08-07T10:48:38.506Z</time>
      </trkpt>
      <trkpt lat="49.69451" lon="4.93419">
        <ele>103.87</ele>
        <time>2026-08-07T10:48:44.507Z</time>
      </trkpt>
      <trkpt lat="49.69481" lon="4.93401">
        <ele>104.78</ele>
        <time>2026-08-07T10:48:50.508Z</time>
      </trkpt>
      <trkpt lat="49.69511" lon="4.93386">
        <ele>109.18</ele>
        <time>2026-08-07T10:48:56.513Z</time>
      </trkpt>
      <trkpt lat="49.69541" lon="4.93372">
        <ele>113.17</ele>
        <time>2026-08-07T10:49:02.502Z</time>
      </trkpt>
      <trkpt lat="49.69566" lon="4.93366">
        <ele>108.82</ele>
        <time>2026-08-07T10:49:08.507Z</time>
      </trkpt>
      <trkpt lat="49.69588" lon="4.93351">
        <ele>109.23</ele>
        <time>2026-08-07T10:49:14.511Z</time>
      </trkpt>
      <trkpt lat="49.69612" lon="4.93339">
        <ele>107.64</ele>
        <time>2026-08-07T10:49:20.519Z</time>
      </trkpt>
      <trkpt lat="49.69628" lon="4.93326">
        <ele>106.67</ele>
        <time>2026-08-07T10:49:26.514Z</time>
      </trkpt>
      <trkpt lat="49.70188" lon="4.94951">
        <ele>137.5</ele>
        <time>2026-08-07T13:15:20.511Z</time>
      </trkpt>
      <trkpt lat="49.70198" lon="4.94952">
        <ele>136.33</ele>
        <time>2026-08-07T13:15:36.460Z</time>
      </trkpt>
      <trkpt lat="49.70219" lon="4.94959">
        <ele>134.58</ele>
        <time>2026-08-07T13:15:42.449Z</time>
      </trkpt>
      <trkpt lat="49.7023" lon="4.94973">
        <ele>131.44</ele>
        <time>2026-08-07T13:15:48.461Z</time>
      </trkpt>
      <trkpt lat="49.70244" lon="4.94999">
        <ele>129.27</ele>
        <time>2026-08-07T13:15:54.450Z</time>
      </trkpt>
      <trkpt lat="49.70251" lon="4.95017">
        <ele>126.92</ele>
        <time>2026-08-07T13:15:59.455Z</time>
      </trkpt>
      <trkpt lat="49.70263" lon="4.95037">
        <ele>125.07</ele>
        <time>2026-08-07T13:16:05.445Z</time>
      </trkpt>
      <trkpt lat="49.70256" lon="4.9505">
        <ele>125.37</ele>
        <time>2026-08-07T13:16:17.449Z</time>
      </trkpt>
      <trkpt lat="49.70246" lon="4.95075">
        <ele>125.65</ele>
        <time>2026-08-07T13:16:23.453Z</time>
      </trkpt>
      <trkpt lat="49.70237" lon="4.95105">
        <ele>125.5</ele>
        <time>2026-08-07T13:16:29.445Z</time>
      </trkpt>
      <trkpt lat="49.70227" lon="4.95132">
        <ele>125.35</ele>
        <time>2026-08-07T13:16:34.448Z</time>
      </trkpt>
      <trkpt lat="49.7022" lon="4.95155">
        <ele>125.69</ele>
        <time>2026-08-07T13:16:39.450Z</time>
      </trkpt>
      <trkpt lat="49.70207" lon="4.95174">
        <ele>125.92</ele>
        <time>2026-08-07T13:16:44.516Z</time>
      </trkpt>
      <trkpt lat="49.70185" lon="4.95168">
        <ele>124.11</ele>
        <time>2026-08-07T13:16:50.501Z</time>
      </trkpt>
      <trkpt lat="49.70168" lon="4.95135">
        <ele>123</ele>
        <time>2026-08-07T13:16:56.505Z</time>
      </trkpt>
      <trkpt lat="49.70146" lon="4.95091">
        <ele>121.14</ele>
        <time>2026-08-07T13:17:02.505Z</time>
      </trkpt>
      <trkpt lat="49.7013" lon="4.95076">
        <ele>115.21</ele>
        <time>2026-08-07T13:17:08.500Z</time>
      </trkpt>
      <trkpt lat="49.70109" lon="4.9509">
        <ele>115.12</ele>
        <time>2026-08-07T13:17:14.498Z</time>
      </trkpt>
      <trkpt lat="49.70092" lon="4.95107">
        <ele>116.83</ele>
        <time>2026-08-07T13:17:20.502Z</time>
      </trkpt>
      <trkpt lat="49.70077" lon="4.95113">
        <ele>117.82</ele>
        <time>2026-08-07T13:17:26.506Z</time>
      </trkpt>
      <trkpt lat="49.70075" lon="4.95083">
        <ele>121.33</ele>
        <time>2026-08-07T13:17:32.509Z</time>
      </trkpt>
      <trkpt lat="49.7006" lon="4.95046">
        <ele>119.62</ele>
        <time>2026-08-07T13:17:38.499Z</time>
      </trkpt>
      <trkpt lat="49.7004" lon="4.95005">
        <ele>117.09</ele>
        <time>2026-08-07T13:17:44.498Z</time>
      </trkpt>
      <trkpt lat="49.70042" lon="4.94959">
        <ele>115.61</ele>
        <time>2026-08-07T13:17:50.507Z</time>
      </trkpt>
      <trkpt lat="49.70056" lon="4.94937">
        <ele>115.31</ele>
        <time>2026-08-07T13:17:56.509Z</time>
      </trkpt>
      <trkpt lat="49.70076" lon="4.94914">
        <ele>116.1</ele>
        <time>2026-08-07T13:18:02.498Z</time>
      </trkpt>
      <trkpt lat="49.70092" lon="4.94889">
        <ele>117.79</ele>
        <time>2026-08-07T13:18:08.505Z</time>
      </trkpt>
      <trkpt lat="49.70108" lon="4.94867">
        <ele>120.45</ele>
        <time>2026-08-07T13:18:14.502Z</time>
      </trkpt>
      <trkpt lat="49.7012" lon="4.94841">
        <ele>122.26</ele>
        <time>2026-08-07T13:18:20.499Z</time>
      </trkpt>
      <trkpt lat="49.70133" lon="4.94806">
        <ele>124.68</ele>
        <time>2026-08-07T13:18:26.515Z</time>
      </trkpt>
      <trkpt lat="49.70144" lon="4.9477">
        <ele>125.57</ele>
        <time>2026-08-07T13:18:32.496Z</time>
      </trkpt>
      <trkpt lat="49.70159" lon="4.94742">
        <ele>125.68</ele>
        <time>2026-08-07T13:18:38.500Z</time>
      </trkpt>
      <trkpt lat="49.70185" lon="4.94748">
        <ele>123.96</ele>
        <time>2026-08-07T13:18:44.500Z</time>
      </trkpt>
      <trkpt lat="49.70203" lon="4.94759">
        <ele>124.9</ele>
        <time>2026-08-07T13:18:50.502Z</time>
      </trkpt>
      <trkpt lat="49.70218" lon="4.94745">
        <ele>128.93</ele>
        <time>2026-08-07T13:18:56.514Z</time>
      </trkpt>
      <trkpt lat="49.70229" lon="4.94727">
        <ele>129.85</ele>
        <time>2026-08-07T13:19:02.500Z</time>
      </trkpt>
      <trkpt lat="49.70236" lon="4.94716">
        <ele>132.1</ele>
        <time>2026-08-07T13:19:08.514Z</time>
      </trkpt>
      <trkpt lat="49.70242" lon="4.94706">
        <ele>133.88</ele>
        <time>2026-08-07T13:19:14.500Z</time>
      </trkpt>
      <trkpt lat="49.70238" lon="4.94694">
        <ele>134.02</ele>
        <time>2026-08-07T13:19:24.451Z</time>
      </trkpt>
      <trkpt lat="49.70227" lon="4.94684">
        <ele>130.54</ele>
        <time>2026-08-07T13:19:30.444Z</time>
      </trkpt>
      <trkpt lat="49.70215" lon="4.94672">
        <ele>125.36</ele>
        <time>2026-08-07T13:19:35.460Z</time>
      </trkpt>
      <trkpt lat="49.70203" lon="4.94657">
        <ele>119.98</ele>
        <time>2026-08-07T13:19:41.446Z</time>
      </trkpt>
      <trkpt lat="49.70193" lon="4.94645">
        <ele>116.14</ele>
        <time>2026-08-07T13:19:46.454Z</time>
      </trkpt>
      <trkpt lat="49.70183" lon="4.94631">
        <ele>110.89</ele>
        <time>2026-08-07T13:19:52.452Z</time>
      </trkpt>
      <trkpt lat="49.70173" lon="4.94616">
        <ele>111.31</ele>
        <time>2026-08-07T13:19:58.451Z</time>
      </trkpt>
      <trkpt lat="49.70165" lon="4.946">
        <ele>110.91</ele>
        <time>2026-08-07T13:20:03.454Z</time>
      </trkpt>
      <trkpt lat="49.70156" lon="4.94585">
        <ele>112.33</ele>
        <time>2026-08-07T13:20:08.490Z</time>
      </trkpt>
      <trkpt lat="49.70149" lon="4.94574">
        <ele>113.02</ele>
        <time>2026-08-07T13:20:14.496Z</time>
      </trkpt>
      <trkpt lat="49.70138" lon="4.94561">
        <ele>112.37</ele>
        <time>2026-08-07T13:20:20.495Z</time>
      </trkpt>
      <trkpt lat="49.70128" lon="4.94544">
        <ele>112.74</ele>
        <time>2026-08-07T13:20:26.501Z</time>
      </trkpt>
      <trkpt lat="49.70129" lon="4.94531">
        <ele>116.01</ele>
        <time>2026-08-07T13:20:32.502Z</time>
      </trkpt>
      <trkpt lat="49.7014" lon="4.9452">
        <ele>119.84</ele>
        <time>2026-08-07T13:20:38.499Z</time>
      </trkpt>
      <trkpt lat="49.7015" lon="4.94507">
        <ele>121.54</ele>
        <time>2026-08-07T13:20:44.497Z</time>
      </trkpt>
      <trkpt lat="49.70162" lon="4.94496">
        <ele>121.74</ele>
        <time>2026-08-07T13:20:50.502Z</time>
      </trkpt>
      <trkpt lat="49.70173" lon="4.94484">
        <ele>119.33</ele>
        <time>2026-08-07T13:20:56.493Z</time>
      </trkpt>
      <trkpt lat="49.70185" lon="4.94475">
        <ele>114.58</ele>
        <time>2026-08-07T13:21:02.494Z</time>
      </trkpt>
      <trkpt lat="49.70197" lon="4.94464">
        <ele>114.19</ele>
        <time>2026-08-07T13:21:08.506Z</time>
      </trkpt>
      <trkpt lat="49.70208" lon="4.94454">
        <ele>115.34</ele>
        <time>2026-08-07T13:21:14.493Z</time>
      </trkpt>
      <trkpt lat="49.70211" lon="4.94436">
        <ele>116.74</ele>
        <time>2026-08-07T13:21:26.762Z</time>
      </trkpt>
      <trkpt lat="49.70216" lon="4.94422">
        <ele>157.51</ele>
        <time>2026-08-07T13:22:31.467Z</time>
      </trkpt>
      <trkpt lat="49.70228" lon="4.9441">
        <ele>157.51</ele>
        <time>2026-08-07T13:22:36.474Z</time>
      </trkpt>
      <trkpt lat="49.70243" lon="4.94391">
        <ele>157.51</ele>
        <time>2026-08-07T13:22:42.477Z</time>
      </trkpt>
      <trkpt lat="49.70258" lon="4.94383">
        <ele>157.51</ele>
        <time>2026-08-07T13:22:48.477Z</time>
      </trkpt>
      <trkpt lat="49.70271" lon="4.94388">
        <ele>157.51</ele>
        <time>2026-08-07T13:22:53.516Z</time>
      </trkpt>
      <trkpt lat="49.70287" lon="4.94386">
        <ele>157.51</ele>
        <time>2026-08-07T13:22:59.455Z</time>
      </trkpt>
      <trkpt lat="49.70296" lon="4.94385">
        <ele>157.51</ele>
        <time>2026-08-07T13:23:04.473Z</time>
      </trkpt>
      <trkpt lat="49.70309" lon="4.9438">
        <ele>157.51</ele>
        <time>2026-08-07T13:23:10.470Z</time>
      </trkpt>
      <trkpt lat="49.70326" lon="4.94367">
        <ele>157.51</ele>
        <time>2026-08-07T13:23:16.480Z</time>
      </trkpt>
      <trkpt lat="49.70342" lon="4.94348">
        <ele>157.51</ele>
        <time>2026-08-07T13:23:21.523Z</time>
      </trkpt>
      <trkpt lat="49.70358" lon="4.94328">
        <ele>157.51</ele>
        <time>2026-08-07T13:23:26.548Z</time>
      </trkpt>
      <trkpt lat="49.70375" lon="4.94311">
        <ele>157.51</ele>
        <time>2026-08-07T13:23:32.586Z</time>
      </trkpt>
      <trkpt lat="49.70393" lon="4.94288">
        <ele>157.51</ele>
        <time>2026-08-07T13:23:38.521Z</time>
      </trkpt>
      <trkpt lat="49.70408" lon="4.94263">
        <ele>157.51</ele>
        <time>2026-08-07T13:23:44.507Z</time>
      </trkpt>
      <trkpt lat="49.70419" lon="4.94231">
        <ele>157.51</ele>
        <time>2026-08-07T13:23:50.520Z</time>
      </trkpt>
      <trkpt lat="49.70435" lon="4.94214">
        <ele>110.07</ele>
        <time>2026-08-07T13:23:56.537Z</time>
      </trkpt>
      <trkpt lat="49.70453" lon="4.94196">
        <ele>108.6</ele>
        <time>2026-08-07T13:24:02.515Z</time>
      </trkpt>
      <trkpt lat="49.70473" lon="4.94169">
        <ele>105.49</ele>
        <time>2026-08-07T13:24:08.520Z</time>
      </trkpt>
      <trkpt lat="49.70489" lon="4.9414">
        <ele>105.29</ele>
        <time>2026-08-07T13:24:14.527Z</time>
      </trkpt>
      <trkpt lat="49.70505" lon="4.94111">
        <ele>104</ele>
        <time>2026-08-07T13:24:20.517Z</time>
      </trkpt>
      <trkpt lat="49.70514" lon="4.9408">
        <ele>103.94</ele>
        <time>2026-08-07T13:24:26.510Z</time>
      </trkpt>
      <trkpt lat="49.70527" lon="4.94047">
        <ele>157.66</ele>
        <time>2026-08-07T13:24:32.528Z</time>
      </trkpt>
      <trkpt lat="49.70542" lon="4.9402">
        <ele>157.72</ele>
        <time>2026-08-07T13:24:38.535Z</time>
      </trkpt>
      <trkpt lat="49.70557" lon="4.93995">
        <ele>157.72</ele>
        <time>2026-08-07T13:24:44.525Z</time>
      </trkpt>
      <trkpt lat="49.7057" lon="4.93961">
        <ele>158.11</ele>
        <time>2026-08-07T13:24:50.532Z</time>
      </trkpt>
      <trkpt lat="49.70591" lon="4.93934">
        <ele>158.12</ele>
        <time>2026-08-07T13:24:56.525Z</time>
      </trkpt>
      <trkpt lat="49.70606" lon="4.93914">
        <ele>158.12</ele>
        <time>2026-08-07T13:25:02.524Z</time>
      </trkpt>
      <trkpt lat="49.70615" lon="4.93896">
        <ele>157.13</ele>
        <time>2026-08-07T13:25:08.516Z</time>
      </trkpt>
      <trkpt lat="49.70624" lon="4.93888">
        <ele>157.12</ele>
        <time>2026-08-07T13:25:14.550Z</time>
      </trkpt>
      <trkpt lat="49.70629" lon="4.93874">
        <ele>157.12</ele>
        <time>2026-08-07T13:25:20.509Z</time>
      </trkpt>
      <trkpt lat="49.70638" lon="4.93866">
        <ele>157.12</ele>
        <time>2026-08-07T13:25:26.108Z</time>
      </trkpt>
      <trkpt lat="49.70655" lon="4.9385">
        <ele>157.12</ele>
        <time>2026-08-07T13:25:31.473Z</time>
      </trkpt>
      <trkpt lat="49.70669" lon="4.93819">
        <ele>157.12</ele>
        <time>2026-08-07T13:25:37.458Z</time>
      </trkpt>
      <trkpt lat="49.70662" lon="4.93779">
        <ele>157.52</ele>
        <time>2026-08-07T13:25:43.524Z</time>
      </trkpt>
      <trkpt lat="49.70635" lon="4.9375">
        <ele>157.52</ele>
        <time>2026-08-07T13:25:49.451Z</time>
      </trkpt>
      <trkpt lat="49.70611" lon="4.93724">
        <ele>161.75</ele>
        <time>2026-08-07T13:25:54.453Z</time>
      </trkpt>
      <trkpt lat="49.70603" lon="4.93684">
        <ele>161.82</ele>
        <time>2026-08-07T13:25:59.454Z</time>
      </trkpt>
      <trkpt lat="49.70592" lon="4.93646">
        <ele>161.82</ele>
        <time>2026-08-07T13:26:05.449Z</time>
      </trkpt>
      <trkpt lat="49.7058" lon="4.93614">
        <ele>161.82</ele>
        <time>2026-08-07T13:26:10.452Z</time>
      </trkpt>
      <trkpt lat="49.70567" lon="4.93589">
        <ele>155.35</ele>
        <time>2026-08-07T13:26:15.459Z</time>
      </trkpt>
      <trkpt lat="49.70559" lon="4.93562">
        <ele>155.32</ele>
        <time>2026-08-07T13:26:20.495Z</time>
      </trkpt>
      <trkpt lat="49.70547" lon="4.9353">
        <ele>155.32</ele>
        <time>2026-08-07T13:26:26.513Z</time>
      </trkpt>
      <trkpt lat="49.70535" lon="4.93506">
        <ele>155.32</ele>
        <time>2026-08-07T13:26:32.506Z</time>
      </trkpt>
      <trkpt lat="49.70524" lon="4.93481">
        <ele>181.57</ele>
        <time>2026-08-07T13:26:38.495Z</time>
      </trkpt>
      <trkpt lat="49.70509" lon="4.93453">
        <ele>183.32</ele>
        <time>2026-08-07T13:26:44.503Z</time>
      </trkpt>
      <trkpt lat="49.70494" lon="4.93424">
        <ele>183.32</ele>
        <time>2026-08-07T13:26:50.493Z</time>
      </trkpt>
      <trkpt lat="49.70504" lon="4.93412">
        <ele>158.74</ele>
        <time>2026-08-07T13:27:32.514Z</time>
      </trkpt>
      <trkpt lat="49.70524" lon="4.93394">
        <ele>158.72</ele>
        <time>2026-08-07T13:27:38.493Z</time>
      </trkpt>
      <trkpt lat="49.70541" lon="4.93379">
        <ele>157.52</ele>
        <time>2026-08-07T13:27:44.507Z</time>
      </trkpt>
      <trkpt lat="49.70561" lon="4.93359">
        <ele>157.12</ele>
        <time>2026-08-07T13:27:50.506Z</time>
      </trkpt>
      <trkpt lat="49.7058" lon="4.93347">
        <ele>157.13</ele>
        <time>2026-08-07T13:27:56.513Z</time>
      </trkpt>
      <trkpt lat="49.70595" lon="4.93341">
        <ele>157.13</ele>
        <time>2026-08-07T13:28:02.502Z</time>
      </trkpt>
      <trkpt lat="49.70612" lon="4.93321">
        <ele>158.02</ele>
        <time>2026-08-07T13:28:08.492Z</time>
      </trkpt>
      <trkpt lat="49.70622" lon="4.93298">
        <ele>158.03</ele>
        <time>2026-08-07T13:28:14.517Z</time>
      </trkpt>
      <trkpt lat="49.70615" lon="4.93278">
        <ele>158.03</ele>
        <time>2026-08-07T13:28:20.491Z</time>
      </trkpt>
      <trkpt lat="49.70611" lon="4.93259">
        <ele>158.03</ele>
        <time>2026-08-07T13:28:26.488Z</time>
      </trkpt>
      <trkpt lat="49.70602" lon="4.9325">
        <ele>158.03</ele>
        <time>2026-08-07T13:28:32.502Z</time>
      </trkpt>
      <trkpt lat="49.70588" lon="4.93238">
        <ele>158.03</ele>
        <time>2026-08-07T13:28:38.492Z</time>
      </trkpt>
      <trkpt lat="49.70573" lon="4.93218">
        <ele>158.03</ele>
        <time>2026-08-07T13:28:44.492Z</time>
      </trkpt>
      <trkpt lat="49.70559" lon="4.93198">
        <ele>158.03</ele>
        <time>2026-08-07T13:28:50.505Z</time>
      </trkpt>
      <trkpt lat="49.70548" lon="4.93174">
        <ele>109.15</ele>
        <time>2026-08-07T13:28:56.526Z</time>
      </trkpt>
      <trkpt lat="49.70543" lon="4.93143">
        <ele>108.47</ele>
        <time>2026-08-07T13:29:02.508Z</time>
      </trkpt>
      <trkpt lat="49.70527" lon="4.93113">
        <ele>103.69</ele>
        <time>2026-08-07T13:29:08.494Z</time>
      </trkpt>
      <trkpt lat="49.70536" lon="4.93107">
        <ele>115.56</ele>
        <time>2026-08-07T13:29:18.452Z</time>
      </trkpt>
      <trkpt lat="49.7056" lon="4.9313">
        <ele>143.78</ele>
        <time>2026-08-07T13:29:24.445Z</time>
      </trkpt>
      <trkpt lat="49.70584" lon="4.93151">
        <ele>100.96</ele>
        <time>2026-08-07T13:29:29.452Z</time>
      </trkpt>
      <trkpt lat="49.70602" lon="4.93169">
        <ele>105.1</ele>
        <time>2026-08-07T13:29:34.467Z</time>
      </trkpt>
      <trkpt lat="49.70622" lon="4.93191">
        <ele>107.46</ele>
        <time>2026-08-07T13:29:40.445Z</time>
      </trkpt>
      <trkpt lat="49.70628" lon="4.93203">
        <ele>110.49</ele>
        <time>2026-08-07T13:29:57.459Z</time>
      </trkpt>
      <trkpt lat="49.70631" lon="4.93218">
        <ele>110.55</ele>
        <time>2026-08-07T13:30:02.506Z</time>
      </trkpt>
      <trkpt lat="49.70638" lon="4.93237">
        <ele>109.7</ele>
        <time>2026-08-07T13:30:08.495Z</time>
      </trkpt>
      <trkpt lat="49.70648" lon="4.9326">
        <ele>109.95</ele>
        <time>2026-08-07T13:30:14.503Z</time>
      </trkpt>
      <trkpt lat="49.70659" lon="4.93287">
        <ele>111.48</ele>
        <time>2026-08-07T13:30:20.491Z</time>
      </trkpt>
      <trkpt lat="49.70668" lon="4.9331">
        <ele>110.01</ele>
        <time>2026-08-07T13:30:26.510Z</time>
      </trkpt>
      <trkpt lat="49.70684" lon="4.93315">
        <ele>111.37</ele>
        <time>2026-08-07T13:30:31.551Z</time>
      </trkpt>
      <trkpt lat="49.70712" lon="4.93315">
        <ele>113.32</ele>
        <time>2026-08-07T13:30:37.460Z</time>
      </trkpt>
      <trkpt lat="49.7074" lon="4.93306">
        <ele>112.17</ele>
        <time>2026-08-07T13:30:43.450Z</time>
      </trkpt>
      <trkpt lat="49.70773" lon="4.9329">
        <ele>112.71</ele>
        <time>2026-08-07T13:30:49.449Z</time>
      </trkpt>
      <trkpt lat="49.70805" lon="4.93278">
        <ele>112.75</ele>
        <time>2026-08-07T13:30:55.451Z</time>
      </trkpt>
      <trkpt lat="49.70836" lon="4.93262">
        <ele>111.64</ele>
        <time>2026-08-07T13:31:01.450Z</time>
      </trkpt>
      <trkpt lat="49.7086" lon="4.93245">
        <ele>111.28</ele>
        <time>2026-08-07T13:31:06.456Z</time>
      </trkpt>
      <trkpt lat="49.70882" lon="4.93221">
        <ele>110.51</ele>
        <time>2026-08-07T13:31:11.463Z</time>
      </trkpt>
      <trkpt lat="49.70901" lon="4.9318">
        <ele>110.25</ele>
        <time>2026-08-07T13:31:17.462Z</time>
      </trkpt>
      <trkpt lat="49.70919" lon="4.93136">
        <ele>110.58</ele>
        <time>2026-08-07T13:31:23.465Z</time>
      </trkpt>
      <trkpt lat="49.70938" lon="4.93095">
        <ele>109.62</ele>
        <time>2026-08-07T13:31:29.461Z</time>
      </trkpt>
      <trkpt lat="49.70958" lon="4.9305">
        <ele>112.06</ele>
        <time>2026-08-07T13:31:35.456Z</time>
      </trkpt>
      <trkpt lat="49.70974" lon="4.93001">
        <ele>110.16</ele>
        <time>2026-08-07T13:31:41.460Z</time>
      </trkpt>
      <trkpt lat="49.70989" lon="4.92951">
        <ele>107.8</ele>
        <time>2026-08-07T13:31:47.461Z</time>
      </trkpt>
      <trkpt lat="49.71004" lon="4.92901">
        <ele>106.61</ele>
        <time>2026-08-07T13:31:53.460Z</time>
      </trkpt>
      <trkpt lat="49.71016" lon="4.92848">
        <ele>106.7</ele>
        <time>2026-08-07T13:31:59.461Z</time>
      </trkpt>
      <trkpt lat="49.71029" lon="4.92801">
        <ele>106.21</ele>
        <time>2026-08-07T13:32:05.462Z</time>
      </trkpt>
      <trkpt lat="49.71038" lon="4.92756">
        <ele>106.99</ele>
        <time>2026-08-07T13:32:11.461Z</time>
      </trkpt>
      <trkpt lat="49.71049" lon="4.92712">
        <ele>106.33</ele>
        <time>2026-08-07T13:32:17.460Z</time>
      </trkpt>
      <trkpt lat="49.71062" lon="4.92666">
        <ele>105.56</ele>
        <time>2026-08-07T13:32:23.460Z</time>
      </trkpt>
      <trkpt lat="49.7108" lon="4.92619">
        <ele>107.15</ele>
        <time>2026-08-07T13:32:29.460Z</time>
      </trkpt>
      <trkpt lat="49.71098" lon="4.92573">
        <ele>107.53</ele>
        <time>2026-08-07T13:32:35.458Z</time>
      </trkpt>
      <trkpt lat="49.71116" lon="4.92526">
        <ele>107.73</ele>
        <time>2026-08-07T13:32:41.459Z</time>
      </trkpt>
      <trkpt lat="49.71134" lon="4.9248">
        <ele>107.94</ele>
        <time>2026-08-07T13:32:47.458Z</time>
      </trkpt>
      <trkpt lat="49.71147" lon="4.92444">
        <ele>108.21</ele>
        <time>2026-08-07T13:32:52.460Z</time>
      </trkpt>
      <trkpt lat="49.71163" lon="4.924">
        <ele>109.64</ele>
        <time>2026-08-07T13:32:58.460Z</time>
      </trkpt>
      <trkpt lat="49.71179" lon="4.92357">
        <ele>106.18</ele>
        <time>2026-08-07T13:33:04.458Z</time>
      </trkpt>
      <trkpt lat="49.71194" lon="4.92307">
        <ele>104.73</ele>
        <time>2026-08-07T13:33:10.460Z</time>
      </trkpt>
      <trkpt lat="49.71209" lon="4.92253">
        <ele>102.35</ele>
        <time>2026-08-07T13:33:16.455Z</time>
      </trkpt>
      <trkpt lat="49.71221" lon="4.92212">
        <ele>101.21</ele>
        <time>2026-08-07T13:33:21.461Z</time>
      </trkpt>
      <trkpt lat="49.71233" lon="4.9217">
        <ele>100.18</ele>
        <time>2026-08-07T13:33:26.520Z</time>
      </trkpt>
      <trkpt lat="49.71249" lon="4.92119">
        <ele>99.87</ele>
        <time>2026-08-07T13:33:32.518Z</time>
      </trkpt>
      <trkpt lat="49.71263" lon="4.92067">
        <ele>100.18</ele>
        <time>2026-08-07T13:33:38.504Z</time>
      </trkpt>
      <trkpt lat="49.71276" lon="4.92015">
        <ele>100.65</ele>
        <time>2026-08-07T13:33:44.509Z</time>
      </trkpt>
      <trkpt lat="49.71287" lon="4.91963">
        <ele>99.8</ele>
        <time>2026-08-07T13:33:50.506Z</time>
      </trkpt>
      <trkpt lat="49.71295" lon="4.91909">
        <ele>99.82</ele>
        <time>2026-08-07T13:33:56.526Z</time>
      </trkpt>
      <trkpt lat="49.71299" lon="4.91856">
        <ele>100.83</ele>
        <time>2026-08-07T13:34:02.524Z</time>
      </trkpt>
      <trkpt lat="49.71301" lon="4.91806">
        <ele>102.57</ele>
        <time>2026-08-07T13:34:08.498Z</time>
      </trkpt>
      <trkpt lat="49.71304" lon="4.91763">
        <ele>104.78</ele>
        <time>2026-08-07T13:34:14.502Z</time>
      </trkpt>
      <trkpt lat="49.71302" lon="4.91718">
        <ele>103.69</ele>
        <time>2026-08-07T13:34:20.503Z</time>
      </trkpt>
      <trkpt lat="49.71299" lon="4.91673">
        <ele>103.4</ele>
        <time>2026-08-07T13:34:26.527Z</time>
      </trkpt>
      <trkpt lat="49.71295" lon="4.91631">
        <ele>104.37</ele>
        <time>2026-08-07T13:34:32.522Z</time>
      </trkpt>
      <trkpt lat="49.71289" lon="4.9159">
        <ele>102.93</ele>
        <time>2026-08-07T13:34:38.497Z</time>
      </trkpt>
      <trkpt lat="49.71281" lon="4.91542">
        <ele>104.21</ele>
        <time>2026-08-07T13:34:44.502Z</time>
      </trkpt>
      <trkpt lat="49.71274" lon="4.91496">
        <ele>104.48</ele>
        <time>2026-08-07T13:34:50.500Z</time>
      </trkpt>
      <trkpt lat="49.71266" lon="4.9146">
        <ele>104.63</ele>
        <time>2026-08-07T13:34:56.521Z</time>
      </trkpt>
      <trkpt lat="49.71262" lon="4.91447">
        <ele>104.87</ele>
        <time>2026-08-07T13:36:48.456Z</time>
      </trkpt>
      <trkpt lat="49.71254" lon="4.9142">
        <ele>103.65</ele>
        <time>2026-08-07T13:36:53.475Z</time>
      </trkpt>
      <trkpt lat="49.71242" lon="4.91381">
        <ele>103.2</ele>
        <time>2026-08-07T13:36:59.463Z</time>
      </trkpt>
      <trkpt lat="49.71232" lon="4.91344">
        <ele>104.35</ele>
        <time>2026-08-07T13:37:05.460Z</time>
      </trkpt>
      <trkpt lat="49.71223" lon="4.91315">
        <ele>105.05</ele>
        <time>2026-08-07T13:37:10.461Z</time>
      </trkpt>
      <trkpt lat="49.7121" lon="4.91284">
        <ele>106.12</ele>
        <time>2026-08-07T13:37:15.461Z</time>
      </trkpt>
      <trkpt lat="49.71199" lon="4.91256">
        <ele>107.43</ele>
        <time>2026-08-07T13:37:20.509Z</time>
      </trkpt>
      <trkpt lat="49.71198" lon="4.91229">
        <ele>109.08</ele>
        <time>2026-08-07T13:37:26.525Z</time>
      </trkpt>
      <trkpt lat="49.71218" lon="4.91212">
        <ele>110.55</ele>
        <time>2026-08-07T13:37:32.523Z</time>
      </trkpt>
      <trkpt lat="49.71229" lon="4.9118">
        <ele>108.38</ele>
        <time>2026-08-07T13:37:38.510Z</time>
      </trkpt>
      <trkpt lat="49.71213" lon="4.91131">
        <ele>105.96</ele>
        <time>2026-08-07T13:37:44.504Z</time>
      </trkpt>
      <trkpt lat="49.71197" lon="4.91087">
        <ele>106.57</ele>
        <time>2026-08-07T13:37:49.542Z</time>
      </trkpt>
      <trkpt lat="49.71182" lon="4.91039">
        <ele>109.65</ele>
        <time>2026-08-07T13:37:55.462Z</time>
      </trkpt>
      <trkpt lat="49.71165" lon="4.90988">
        <ele>107.7</ele>
        <time>2026-08-07T13:38:01.463Z</time>
      </trkpt>
      <trkpt lat="49.7115" lon="4.90946">
        <ele>107.08</ele>
        <time>2026-08-07T13:38:06.463Z</time>
      </trkpt>
      <trkpt lat="49.71136" lon="4.90905">
        <ele>106.96</ele>
        <time>2026-08-07T13:38:11.464Z</time>
      </trkpt>
      <trkpt lat="49.71119" lon="4.90856">
        <ele>106.88</ele>
        <time>2026-08-07T13:38:17.463Z</time>
      </trkpt>
      <trkpt lat="49.71102" lon="4.90807">
        <ele>106.34</ele>
        <time>2026-08-07T13:38:23.462Z</time>
      </trkpt>
      <trkpt lat="49.71087" lon="4.90762">
        <ele>106.71</ele>
        <time>2026-08-07T13:38:29.462Z</time>
      </trkpt>
      <trkpt lat="49.71072" lon="4.90718">
        <ele>107.42</ele>
        <time>2026-08-07T13:38:35.462Z</time>
      </trkpt>
      <trkpt lat="49.71058" lon="4.90676">
        <ele>108.63</ele>
        <time>2026-08-07T13:38:41.462Z</time>
      </trkpt>
      <trkpt lat="49.71044" lon="4.90634">
        <ele>108.83</ele>
        <time>2026-08-07T13:38:47.463Z</time>
      </trkpt>
      <trkpt lat="49.7103" lon="4.90591">
        <ele>110.03</ele>
        <time>2026-08-07T13:38:53.460Z</time>
      </trkpt>
      <trkpt lat="49.71015" lon="4.90547">
        <ele>110.41</ele>
        <time>2026-08-07T13:38:59.464Z</time>
      </trkpt>
      <trkpt lat="49.71" lon="4.90503">
        <ele>110.56</ele>
        <time>2026-08-07T13:39:05.467Z</time>
      </trkpt>
      <trkpt lat="49.70986" lon="4.90459">
        <ele>109.82</ele>
        <time>2026-08-07T13:39:11.463Z</time>
      </trkpt>
      <trkpt lat="49.70971" lon="4.90417">
        <ele>109.26</ele>
        <time>2026-08-07T13:39:17.463Z</time>
      </trkpt>
      <trkpt lat="49.70957" lon="4.90373">
        <ele>110.35</ele>
        <time>2026-08-07T13:39:23.464Z</time>
      </trkpt>
      <trkpt lat="49.70943" lon="4.90332">
        <ele>111.16</ele>
        <time>2026-08-07T13:39:29.462Z</time>
      </trkpt>
      <trkpt lat="49.70931" lon="4.903">
        <ele>110.92</ele>
        <time>2026-08-07T13:39:34.462Z</time>
      </trkpt>
      <trkpt lat="49.70918" lon="4.90259">
        <ele>110.93</ele>
        <time>2026-08-07T13:39:40.454Z</time>
      </trkpt>
      <trkpt lat="49.70908" lon="4.90227">
        <ele>110.84</ele>
        <time>2026-08-07T13:39:45.458Z</time>
      </trkpt>
      <trkpt lat="49.70897" lon="4.90194">
        <ele>111.96</ele>
        <time>2026-08-07T13:39:50.506Z</time>
      </trkpt>
      <trkpt lat="49.70887" lon="4.9016">
        <ele>112</ele>
        <time>2026-08-07T13:39:56.530Z</time>
      </trkpt>
      <trkpt lat="49.70872" lon="4.90158">
        <ele>112.12</ele>
        <time>2026-08-07T13:40:02.525Z</time>
      </trkpt>
      <trkpt lat="49.70852" lon="4.90176">
        <ele>113.69</ele>
        <time>2026-08-07T13:40:08.507Z</time>
      </trkpt>
      <trkpt lat="49.70827" lon="4.90198">
        <ele>113.72</ele>
        <time>2026-08-07T13:40:14.511Z</time>
      </trkpt>
      <trkpt lat="49.7081" lon="4.90225">
        <ele>113.38</ele>
        <time>2026-08-07T13:40:20.505Z</time>
      </trkpt>
      <trkpt lat="49.7082" lon="4.90198">
        <ele>113.31</ele>
        <time>2026-08-07T13:40:26.530Z</time>
      </trkpt>
      <trkpt lat="49.70831" lon="4.90159">
        <ele>112.09</ele>
        <time>2026-08-07T13:40:32.525Z</time>
      </trkpt>
      <trkpt lat="49.70815" lon="4.90108">
        <ele>112.77</ele>
        <time>2026-08-07T13:40:38.506Z</time>
      </trkpt>
      <trkpt lat="49.70798" lon="4.90062">
        <ele>113.59</ele>
        <time>2026-08-07T13:40:44.508Z</time>
      </trkpt>
      <trkpt lat="49.70781" lon="4.90011">
        <ele>113.57</ele>
        <time>2026-08-07T13:40:50.508Z</time>
      </trkpt>
      <trkpt lat="49.70763" lon="4.8996">
        <ele>110.94</ele>
        <time>2026-08-07T13:40:56.493Z</time>
      </trkpt>
      <trkpt lat="49.70755" lon="4.89901">
        <ele>110.42</ele>
        <time>2026-08-07T13:41:02.524Z</time>
      </trkpt>
      <trkpt lat="49.70724" lon="4.89848">
        <ele>110.84</ele>
        <time>2026-08-07T13:41:08.506Z</time>
      </trkpt>
      <trkpt lat="49.70679" lon="4.89819">
        <ele>111.32</ele>
        <time>2026-08-07T13:41:14.505Z</time>
      </trkpt>
      <trkpt lat="49.70639" lon="4.89798">
        <ele>110.17</ele>
        <time>2026-08-07T13:41:20.506Z</time>
      </trkpt>
      <trkpt lat="49.7059" lon="4.89792">
        <ele>106.73</ele>
        <time>2026-08-07T13:41:26.523Z</time>
      </trkpt>
      <trkpt lat="49.70539" lon="4.89786">
        <ele>105.67</ele>
        <time>2026-08-07T13:41:32.529Z</time>
      </trkpt>
      <trkpt lat="49.70493" lon="4.89769">
        <ele>105.65</ele>
        <time>2026-08-07T13:41:38.507Z</time>
      </trkpt>
      <trkpt lat="49.70451" lon="4.89741">
        <ele>105.87</ele>
        <time>2026-08-07T13:41:44.507Z</time>
      </trkpt>
      <trkpt lat="49.70412" lon="4.89707">
        <ele>106</ele>
        <time>2026-08-07T13:41:50.506Z</time>
      </trkpt>
      <trkpt lat="49.70375" lon="4.89679">
        <ele>106.27</ele>
        <time>2026-08-07T13:41:56.524Z</time>
      </trkpt>
      <trkpt lat="49.7034" lon="4.89654">
        <ele>106.29</ele>
        <time>2026-08-07T13:42:02.523Z</time>
      </trkpt>
      <trkpt lat="49.70307" lon="4.89653">
        <ele>104.91</ele>
        <time>2026-08-07T13:42:08.509Z</time>
      </trkpt>
      <trkpt lat="49.70275" lon="4.8968">
        <ele>104.44</ele>
        <time>2026-08-07T13:42:14.504Z</time>
      </trkpt>
      <trkpt lat="49.70241" lon="4.89702">
        <ele>102.55</ele>
        <time>2026-08-07T13:42:20.506Z</time>
      </trkpt>
      <trkpt lat="49.70212" lon="4.8973">
        <ele>102.99</ele>
        <time>2026-08-07T13:42:26.523Z</time>
      </trkpt>
      <trkpt lat="49.70188" lon="4.89772">
        <ele>103.79</ele>
        <time>2026-08-07T13:42:32.526Z</time>
      </trkpt>
      <trkpt lat="49.70167" lon="4.89816">
        <ele>105.85</ele>
        <time>2026-08-07T13:42:38.508Z</time>
      </trkpt>
      <trkpt lat="49.70148" lon="4.89863">
        <ele>106.01</ele>
        <time>2026-08-07T13:42:44.511Z</time>
      </trkpt>
      <trkpt lat="49.7013" lon="4.89914">
        <ele>105</ele>
        <time>2026-08-07T13:42:50.509Z</time>
      </trkpt>
      <trkpt lat="49.7011" lon="4.89962">
        <ele>104.16</ele>
        <time>2026-08-07T13:42:56.526Z</time>
      </trkpt>
      <trkpt lat="49.70083" lon="4.89995">
        <ele>103.59</ele>
        <time>2026-08-07T13:43:02.529Z</time>
      </trkpt>
      <trkpt lat="49.70055" lon="4.90013">
        <ele>104.47</ele>
        <time>2026-08-07T13:43:08.504Z</time>
      </trkpt>
      <trkpt lat="49.70025" lon="4.90007">
        <ele>103.87</ele>
        <time>2026-08-07T13:43:14.509Z</time>
      </trkpt>
      <trkpt lat="49.69988" lon="4.90004">
        <ele>101.33</ele>
        <time>2026-08-07T13:43:20.508Z</time>
      </trkpt>
      <trkpt lat="49.6995" lon="4.89988">
        <ele>102.33</ele>
        <time>2026-08-07T13:43:26.524Z</time>
      </trkpt>
      <trkpt lat="49.69912" lon="4.89971">
        <ele>103.59</ele>
        <time>2026-08-07T13:43:32.526Z</time>
      </trkpt>
      <trkpt lat="49.69874" lon="4.89957">
        <ele>104.45</ele>
        <time>2026-08-07T13:43:38.506Z</time>
      </trkpt>
      <trkpt lat="49.69837" lon="4.8994">
        <ele>104.34</ele>
        <time>2026-08-07T13:43:44.507Z</time>
      </trkpt>
      <trkpt lat="49.698" lon="4.89925">
        <ele>104.62</ele>
        <time>2026-08-07T13:43:50.510Z</time>
      </trkpt>
      <trkpt lat="49.69762" lon="4.89919">
        <ele>104.38</ele>
        <time>2026-08-07T13:43:56.529Z</time>
      </trkpt>
      <trkpt lat="49.69725" lon="4.89922">
        <ele>103.87</ele>
        <time>2026-08-07T13:44:02.529Z</time>
      </trkpt>
      <trkpt lat="49.69689" lon="4.89925">
        <ele>102.72</ele>
        <time>2026-08-07T13:44:08.490Z</time>
      </trkpt>
      <trkpt lat="49.69656" lon="4.89923">
        <ele>101.64</ele>
        <time>2026-08-07T13:44:14.506Z</time>
      </trkpt>
      <trkpt lat="49.69623" lon="4.89915">
        <ele>101.32</ele>
        <time>2026-08-07T13:44:20.505Z</time>
      </trkpt>
      <trkpt lat="49.6959" lon="4.89903">
        <ele>100.21</ele>
        <time>2026-08-07T13:44:26.524Z</time>
      </trkpt>
      <trkpt lat="49.69556" lon="4.89893">
        <ele>99.72</ele>
        <time>2026-08-07T13:44:32.524Z</time>
      </trkpt>
      <trkpt lat="49.69521" lon="4.89881">
        <ele>102.2</ele>
        <time>2026-08-07T13:44:38.502Z</time>
      </trkpt>
      <trkpt lat="49.69488" lon="4.89865">
        <ele>103.44</ele>
        <time>2026-08-07T13:44:44.506Z</time>
      </trkpt>
      <trkpt lat="49.69456" lon="4.89838">
        <ele>103.71</ele>
        <time>2026-08-07T13:44:50.508Z</time>
      </trkpt>
      <trkpt lat="49.69426" lon="4.89811">
        <ele>104.7</ele>
        <time>2026-08-07T13:44:56.522Z</time>
      </trkpt>
      <trkpt lat="49.69395" lon="4.89778">
        <ele>105.56</ele>
        <time>2026-08-07T13:45:02.520Z</time>
      </trkpt>
      <trkpt lat="49.69365" lon="4.89745">
        <ele>106.23</ele>
        <time>2026-08-07T13:45:08.509Z</time>
      </trkpt>
      <trkpt lat="49.69344" lon="4.89703">
        <ele>105.57</ele>
        <time>2026-08-07T13:45:14.511Z</time>
      </trkpt>
      <trkpt lat="49.69324" lon="4.89655">
        <ele>105.98</ele>
        <time>2026-08-07T13:45:20.506Z</time>
      </trkpt>
      <trkpt lat="49.69306" lon="4.89605">
        <ele>107.28</ele>
        <time>2026-08-07T13:45:26.519Z</time>
      </trkpt>
      <trkpt lat="49.69291" lon="4.89555">
        <ele>108.21</ele>
        <time>2026-08-07T13:45:32.518Z</time>
      </trkpt>
      <trkpt lat="49.69278" lon="4.89497">
        <ele>107.8</ele>
        <time>2026-08-07T13:45:38.507Z</time>
      </trkpt>
      <trkpt lat="49.69265" lon="4.89439">
        <ele>107.95</ele>
        <time>2026-08-07T13:45:44.508Z</time>
      </trkpt>
      <trkpt lat="49.69255" lon="4.89382">
        <ele>107.73</ele>
        <time>2026-08-07T13:45:50.505Z</time>
      </trkpt>
      <trkpt lat="49.69248" lon="4.89319">
        <ele>106.65</ele>
        <time>2026-08-07T13:45:56.524Z</time>
      </trkpt>
      <trkpt lat="49.69242" lon="4.89256">
        <ele>105.44</ele>
        <time>2026-08-07T13:46:02.519Z</time>
      </trkpt>
      <trkpt lat="49.69237" lon="4.89197">
        <ele>105.6</ele>
        <time>2026-08-07T13:46:08.506Z</time>
      </trkpt>
      <trkpt lat="49.69235" lon="4.89139">
        <ele>106.5</ele>
        <time>2026-08-07T13:46:14.507Z</time>
      </trkpt>
      <trkpt lat="49.69237" lon="4.89081">
        <ele>106.54</ele>
        <time>2026-08-07T13:46:20.505Z</time>
      </trkpt>
      <trkpt lat="49.6924" lon="4.89019">
        <ele>106.02</ele>
        <time>2026-08-07T13:46:26.524Z</time>
      </trkpt>
      <trkpt lat="49.69242" lon="4.8896">
        <ele>105.2</ele>
        <time>2026-08-07T13:46:32.517Z</time>
      </trkpt>
      <trkpt lat="49.69244" lon="4.88899">
        <ele>105.54</ele>
        <time>2026-08-07T13:46:38.508Z</time>
      </trkpt>
      <trkpt lat="49.69246" lon="4.88838">
        <ele>104.8</ele>
        <time>2026-08-07T13:46:44.509Z</time>
      </trkpt>
      <trkpt lat="49.69249" lon="4.88775">
        <ele>105.16</ele>
        <time>2026-08-07T13:46:50.507Z</time>
      </trkpt>
      <trkpt lat="49.69252" lon="4.88714">
        <ele>106.23</ele>
        <time>2026-08-07T13:46:56.518Z</time>
      </trkpt>
      <trkpt lat="49.69254" lon="4.88656">
        <ele>105.84</ele>
        <time>2026-08-07T13:47:02.521Z</time>
      </trkpt>
      <trkpt lat="49.69258" lon="4.88597">
        <ele>105.35</ele>
        <time>2026-08-07T13:47:08.510Z</time>
      </trkpt>
      <trkpt lat="49.69263" lon="4.88539">
        <ele>104.19</ele>
        <time>2026-08-07T13:47:14.511Z</time>
      </trkpt>
      <trkpt lat="49.69268" lon="4.88481">
        <ele>104.68</ele>
        <time>2026-08-07T13:47:20.510Z</time>
      </trkpt>
      <trkpt lat="49.69275" lon="4.88421">
        <ele>104.12</ele>
        <time>2026-08-07T13:47:26.533Z</time>
      </trkpt>
      <trkpt lat="49.69281" lon="4.88359">
        <ele>104.71</ele>
        <time>2026-08-07T13:47:32.539Z</time>
      </trkpt>
      <trkpt lat="49.6929" lon="4.883">
        <ele>104.24</ele>
        <time>2026-08-07T13:47:38.506Z</time>
      </trkpt>
      <trkpt lat="49.693" lon="4.88242">
        <ele>103.87</ele>
        <time>2026-08-07T13:47:44.516Z</time>
      </trkpt>
      <trkpt lat="49.69309" lon="4.88184">
        <ele>104.88</ele>
        <time>2026-08-07T13:47:50.508Z</time>
      </trkpt>
      <trkpt lat="49.69313" lon="4.88129">
        <ele>104.93</ele>
        <time>2026-08-07T13:47:56.523Z</time>
      </trkpt>
      <trkpt lat="49.69314" lon="4.88076">
        <ele>105.5</ele>
        <time>2026-08-07T13:48:02.525Z</time>
      </trkpt>
      <trkpt lat="49.69307" lon="4.88016">
        <ele>106.56</ele>
        <time>2026-08-07T13:48:08.504Z</time>
      </trkpt>
      <trkpt lat="49.69292" lon="4.87961">
        <ele>106.27</ele>
        <time>2026-08-07T13:48:14.505Z</time>
      </trkpt>
      <trkpt lat="49.69276" lon="4.87904">
        <ele>106.9</ele>
        <time>2026-08-07T13:48:20.506Z</time>
      </trkpt>
      <trkpt lat="49.6926" lon="4.87847">
        <ele>107.07</ele>
        <time>2026-08-07T13:48:26.524Z</time>
      </trkpt>
      <trkpt lat="49.69246" lon="4.87792">
        <ele>107.22</ele>
        <time>2026-08-07T13:48:32.525Z</time>
      </trkpt>
      <trkpt lat="49.69232" lon="4.87741">
        <ele>107.69</ele>
        <time>2026-08-07T13:48:38.506Z</time>
      </trkpt>
      <trkpt lat="49.69218" lon="4.8769">
        <ele>108.71</ele>
        <time>2026-08-07T13:48:44.506Z</time>
      </trkpt>
      <trkpt lat="49.69206" lon="4.87638">
        <ele>110.18</ele>
        <time>2026-08-07T13:48:50.507Z</time>
      </trkpt>
      <trkpt lat="49.69205" lon="4.87578">
        <ele>109.97</ele>
        <time>2026-08-07T13:48:56.524Z</time>
      </trkpt>
      <trkpt lat="49.69209" lon="4.87518">
        <ele>106.6</ele>
        <time>2026-08-07T13:49:02.525Z</time>
      </trkpt>
      <trkpt lat="49.69219" lon="4.87461">
        <ele>105.24</ele>
        <time>2026-08-07T13:49:08.506Z</time>
      </trkpt>
      <trkpt lat="49.6922" lon="4.87395">
        <ele>104.33</ele>
        <time>2026-08-07T13:49:14.507Z</time>
      </trkpt>
      <trkpt lat="49.69221" lon="4.87335">
        <ele>107.14</ele>
        <time>2026-08-07T13:49:20.506Z</time>
      </trkpt>
      <trkpt lat="49.69227" lon="4.87276">
        <ele>109.09</ele>
        <time>2026-08-07T13:49:26.524Z</time>
      </trkpt>
      <trkpt lat="49.69239" lon="4.87219">
        <ele>107.99</ele>
        <time>2026-08-07T13:49:32.525Z</time>
      </trkpt>
      <trkpt lat="49.6925" lon="4.87158">
        <ele>107.25</ele>
        <time>2026-08-07T13:49:38.506Z</time>
      </trkpt>
      <trkpt lat="49.69261" lon="4.87099">
        <ele>107.97</ele>
        <time>2026-08-07T13:49:44.513Z</time>
      </trkpt>
      <trkpt lat="49.69271" lon="4.87041">
        <ele>108.04</ele>
        <time>2026-08-07T13:49:50.506Z</time>
      </trkpt>
      <trkpt lat="49.69281" lon="4.86984">
        <ele>108.26</ele>
        <time>2026-08-07T13:49:56.524Z</time>
      </trkpt>
      <trkpt lat="49.69292" lon="4.86931">
        <ele>108.1</ele>
        <time>2026-08-07T13:50:02.524Z</time>
      </trkpt>
      <trkpt lat="49.69306" lon="4.86872">
        <ele>106.33</ele>
        <time>2026-08-07T13:50:08.514Z</time>
      </trkpt>
      <trkpt lat="49.69303" lon="4.86814">
        <ele>106.33</ele>
        <time>2026-08-07T13:50:14.514Z</time>
      </trkpt>
      <trkpt lat="49.693" lon="4.86758">
        <ele>105.15</ele>
        <time>2026-08-07T13:50:20.514Z</time>
      </trkpt>
      <trkpt lat="49.69303" lon="4.86696">
        <ele>104.9</ele>
        <time>2026-08-07T13:50:26.524Z</time>
      </trkpt>
      <trkpt lat="49.69302" lon="4.86636">
        <ele>105.9</ele>
        <time>2026-08-07T13:50:32.527Z</time>
      </trkpt>
      <trkpt lat="49.69296" lon="4.86578">
        <ele>106.56</ele>
        <time>2026-08-07T13:50:38.513Z</time>
      </trkpt>
      <trkpt lat="49.69294" lon="4.8652">
        <ele>106.06</ele>
        <time>2026-08-07T13:50:44.515Z</time>
      </trkpt>
      <trkpt lat="49.69295" lon="4.8646">
        <ele>105.72</ele>
        <time>2026-08-07T13:50:50.513Z</time>
      </trkpt>
      <trkpt lat="49.69301" lon="4.86403">
        <ele>104.7</ele>
        <time>2026-08-07T13:50:56.506Z</time>
      </trkpt>
      <trkpt lat="49.69308" lon="4.86349">
        <ele>105.01</ele>
        <time>2026-08-07T13:51:02.521Z</time>
      </trkpt>
      <trkpt lat="49.69316" lon="4.86296">
        <ele>105.17</ele>
        <time>2026-08-07T13:51:08.512Z</time>
      </trkpt>
      <trkpt lat="49.69328" lon="4.86243">
        <ele>105.64</ele>
        <time>2026-08-07T13:51:14.516Z</time>
      </trkpt>
      <trkpt lat="49.69344" lon="4.86195">
        <ele>105.83</ele>
        <time>2026-08-07T13:51:20.513Z</time>
      </trkpt>
      <trkpt lat="49.69364" lon="4.86148">
        <ele>104.93</ele>
        <time>2026-08-07T13:51:26.525Z</time>
      </trkpt>
      <trkpt lat="49.69388" lon="4.86102">
        <ele>104.33</ele>
        <time>2026-08-07T13:51:32.523Z</time>
      </trkpt>
      <trkpt lat="49.69411" lon="4.86056">
        <ele>104.63</ele>
        <time>2026-08-07T13:51:38.515Z</time>
      </trkpt>
      <trkpt lat="49.69437" lon="4.86015">
        <ele>105.58</ele>
        <time>2026-08-07T13:51:44.512Z</time>
      </trkpt>
      <trkpt lat="49.69466" lon="4.85986">
        <ele>105.72</ele>
        <time>2026-08-07T13:51:50.510Z</time>
      </trkpt>
      <trkpt lat="49.69495" lon="4.85954">
        <ele>106.83</ele>
        <time>2026-08-07T13:51:56.525Z</time>
      </trkpt>
      <trkpt lat="49.69521" lon="4.85918">
        <ele>107.67</ele>
        <time>2026-08-07T13:52:02.522Z</time>
      </trkpt>
      <trkpt lat="49.69549" lon="4.85883">
        <ele>108.35</ele>
        <time>2026-08-07T13:52:08.512Z</time>
      </trkpt>
      <trkpt lat="49.69577" lon="4.8585">
        <ele>108.48</ele>
        <time>2026-08-07T13:52:14.511Z</time>
      </trkpt>
      <trkpt lat="49.69612" lon="4.85825">
        <ele>108.13</ele>
        <time>2026-08-07T13:52:20.514Z</time>
      </trkpt>
      <trkpt lat="49.69645" lon="4.85802">
        <ele>108.43</ele>
        <time>2026-08-07T13:52:26.522Z</time>
      </trkpt>
      <trkpt lat="49.69679" lon="4.85779">
        <ele>109.1</ele>
        <time>2026-08-07T13:52:32.525Z</time>
      </trkpt>
      <trkpt lat="49.69713" lon="4.85756">
        <ele>109.03</ele>
        <time>2026-08-07T13:52:38.514Z</time>
      </trkpt>
      <trkpt lat="49.69748" lon="4.8573">
        <ele>108.53</ele>
        <time>2026-08-07T13:52:44.512Z</time>
      </trkpt>
      <trkpt lat="49.6978" lon="4.85697">
        <ele>109.31</ele>
        <time>2026-08-07T13:52:50.515Z</time>
      </trkpt>
      <trkpt lat="49.69806" lon="4.85652">
        <ele>108.87</ele>
        <time>2026-08-07T13:52:56.600Z</time>
      </trkpt>
      <trkpt lat="49.69826" lon="4.85605">
        <ele>109.4</ele>
        <time>2026-08-07T13:53:02.514Z</time>
      </trkpt>
      <trkpt lat="49.69839" lon="4.85555">
        <ele>107.48</ele>
        <time>2026-08-07T13:53:08.526Z</time>
      </trkpt>
      <trkpt lat="49.69844" lon="4.85495">
        <ele>108.37</ele>
        <time>2026-08-07T13:53:14.519Z</time>
      </trkpt>
      <trkpt lat="49.69843" lon="4.8544">
        <ele>105.17</ele>
        <time>2026-08-07T13:53:20.554Z</time>
      </trkpt>
      <trkpt lat="49.69829" lon="4.85385">
        <ele>102.25</ele>
        <time>2026-08-07T13:53:26.495Z</time>
      </trkpt>
      <trkpt lat="49.69811" lon="4.8533">
        <ele>101.4</ele>
        <time>2026-08-07T13:53:32.525Z</time>
      </trkpt>
      <trkpt lat="49.69795" lon="4.85276">
        <ele>102.23</ele>
        <time>2026-08-07T13:53:38.514Z</time>
      </trkpt>
      <trkpt lat="49.69778" lon="4.85224">
        <ele>103.09</ele>
        <time>2026-08-07T13:53:44.515Z</time>
      </trkpt>
      <trkpt lat="49.69757" lon="4.85178">
        <ele>104.54</ele>
        <time>2026-08-07T13:53:50.515Z</time>
      </trkpt>
      <trkpt lat="49.69737" lon="4.85137">
        <ele>105.32</ele>
        <time>2026-08-07T13:53:56.526Z</time>
      </trkpt>
      <trkpt lat="49.69721" lon="4.85085">
        <ele>104.65</ele>
        <time>2026-08-07T13:54:02.527Z</time>
      </trkpt>
      <trkpt lat="49.69715" lon="4.85032">
        <ele>104.48</ele>
        <time>2026-08-07T13:54:08.511Z</time>
      </trkpt>
      <trkpt lat="49.69709" lon="4.84973">
        <ele>104.04</ele>
        <time>2026-08-07T13:54:14.514Z</time>
      </trkpt>
      <trkpt lat="49.69707" lon="4.84912">
        <ele>102.52</ele>
        <time>2026-08-07T13:54:20.515Z</time>
      </trkpt>
      <trkpt lat="49.69708" lon="4.84851">
        <ele>101.98</ele>
        <time>2026-08-07T13:54:26.524Z</time>
      </trkpt>
      <trkpt lat="49.6971" lon="4.84791">
        <ele>101.49</ele>
        <time>2026-08-07T13:54:32.524Z</time>
      </trkpt>
      <trkpt lat="49.69716" lon="4.84734">
        <ele>101.91</ele>
        <time>2026-08-07T13:54:38.515Z</time>
      </trkpt>
      <trkpt lat="49.69725" lon="4.84675">
        <ele>103.88</ele>
        <time>2026-08-07T13:54:44.515Z</time>
      </trkpt>
      <trkpt lat="49.69732" lon="4.84616">
        <ele>101.79</ele>
        <time>2026-08-07T13:54:50.514Z</time>
      </trkpt>
      <trkpt lat="49.6974" lon="4.84557">
        <ele>99.92</ele>
        <time>2026-08-07T13:54:56.528Z</time>
      </trkpt>
      <trkpt lat="49.69747" lon="4.84504">
        <ele>97.55</ele>
        <time>2026-08-07T13:55:02.525Z</time>
      </trkpt>
      <trkpt lat="49.69755" lon="4.84448">
        <ele>98.95</ele>
        <time>2026-08-07T13:55:08.509Z</time>
      </trkpt>
      <trkpt lat="49.6976" lon="4.84391">
        <ele>100.33</ele>
        <time>2026-08-07T13:55:14.513Z</time>
      </trkpt>
      <trkpt lat="49.69758" lon="4.84332">
        <ele>99.65</ele>
        <time>2026-08-07T13:55:20.516Z</time>
      </trkpt>
      <trkpt lat="49.69753" lon="4.84274">
        <ele>101.12</ele>
        <time>2026-08-07T13:55:26.516Z</time>
      </trkpt>
      <trkpt lat="49.69743" lon="4.84217">
        <ele>103.16</ele>
        <time>2026-08-07T13:55:32.527Z</time>
      </trkpt>
      <trkpt lat="49.69734" lon="4.8416">
        <ele>104.39</ele>
        <time>2026-08-07T13:55:38.513Z</time>
      </trkpt>
      <trkpt lat="49.69721" lon="4.84109">
        <ele>103.88</ele>
        <time>2026-08-07T13:55:44.514Z</time>
      </trkpt>
      <trkpt lat="49.69713" lon="4.84059">
        <ele>101.92</ele>
        <time>2026-08-07T13:55:50.513Z</time>
      </trkpt>
      <trkpt lat="49.69717" lon="4.84003">
        <ele>100.61</ele>
        <time>2026-08-07T13:55:56.535Z</time>
      </trkpt>
      <trkpt lat="49.69723" lon="4.83943">
        <ele>99.33</ele>
        <time>2026-08-07T13:56:02.517Z</time>
      </trkpt>
      <trkpt lat="49.69735" lon="4.83887">
        <ele>99.59</ele>
        <time>2026-08-07T13:56:08.517Z</time>
      </trkpt>
      <trkpt lat="49.69747" lon="4.8383">
        <ele>100.48</ele>
        <time>2026-08-07T13:56:14.514Z</time>
      </trkpt>
      <trkpt lat="49.6975" lon="4.83774">
        <ele>98.96</ele>
        <time>2026-08-07T13:56:20.512Z</time>
      </trkpt>
      <trkpt lat="49.69742" lon="4.83714">
        <ele>99.46</ele>
        <time>2026-08-07T13:56:26.528Z</time>
      </trkpt>
      <trkpt lat="49.69732" lon="4.83657">
        <ele>100.78</ele>
        <time>2026-08-07T13:56:32.520Z</time>
      </trkpt>
      <trkpt lat="49.69714" lon="4.83604">
        <ele>101.6</ele>
        <time>2026-08-07T13:56:38.514Z</time>
      </trkpt>
      <trkpt lat="49.69694" lon="4.83555">
        <ele>100.71</ele>
        <time>2026-08-07T13:56:44.516Z</time>
      </trkpt>
      <trkpt lat="49.69672" lon="4.83509">
        <ele>100.45</ele>
        <time>2026-08-07T13:56:50.515Z</time>
      </trkpt>
      <trkpt lat="49.69651" lon="4.83461">
        <ele>100.13</ele>
        <time>2026-08-07T13:56:56.524Z</time>
      </trkpt>
      <trkpt lat="49.69628" lon="4.83415">
        <ele>100.17</ele>
        <time>2026-08-07T13:57:02.527Z</time>
      </trkpt>
      <trkpt lat="49.69605" lon="4.83368">
        <ele>100.79</ele>
        <time>2026-08-07T13:57:08.515Z</time>
      </trkpt>
      <trkpt lat="49.69579" lon="4.83325">
        <ele>101.5</ele>
        <time>2026-08-07T13:57:14.514Z</time>
      </trkpt>
      <trkpt lat="49.69551" lon="4.83284">
        <ele>101.44</ele>
        <time>2026-08-07T13:57:20.513Z</time>
      </trkpt>
      <trkpt lat="49.69526" lon="4.83244">
        <ele>101.59</ele>
        <time>2026-08-07T13:57:26.525Z</time>
      </trkpt>
      <trkpt lat="49.69501" lon="4.83204">
        <ele>101.55</ele>
        <time>2026-08-07T13:57:32.516Z</time>
      </trkpt>
      <trkpt lat="49.69479" lon="4.83169">
        <ele>99.45</ele>
        <time>2026-08-07T13:57:38.512Z</time>
      </trkpt>
      <trkpt lat="49.69458" lon="4.83135">
        <ele>99.98</ele>
        <time>2026-08-07T13:57:44.505Z</time>
      </trkpt>
      <trkpt lat="49.69443" lon="4.83087">
        <ele>100.97</ele>
        <time>2026-08-07T13:57:50.513Z</time>
      </trkpt>
      <trkpt lat="49.69425" lon="4.83035">
        <ele>98.17</ele>
        <time>2026-08-07T13:57:56.514Z</time>
      </trkpt>
      <trkpt lat="49.69404" lon="4.82984">
        <ele>99.42</ele>
        <time>2026-08-07T13:58:02.516Z</time>
      </trkpt>
      <trkpt lat="49.69391" lon="4.82951">
        <ele>101.82</ele>
        <time>2026-08-07T13:58:08.513Z</time>
      </trkpt>
      <trkpt lat="49.69378" lon="4.8293">
        <ele>102.88</ele>
        <time>2026-08-07T13:58:14.512Z</time>
      </trkpt>
      <trkpt lat="49.69361" lon="4.82919">
        <ele>104.03</ele>
        <time>2026-08-07T13:58:20.510Z</time>
      </trkpt>
      <trkpt lat="49.69361" lon="4.82882">
        <ele>103.97</ele>
        <time>2026-08-07T13:58:26.518Z</time>
      </trkpt>
      <trkpt lat="49.69357" lon="4.82821">
        <ele>103.27</ele>
        <time>2026-08-07T13:58:32.517Z</time>
      </trkpt>
      <trkpt lat="49.69351" lon="4.82752">
        <ele>101.9</ele>
        <time>2026-08-07T13:58:38.514Z</time>
      </trkpt>
      <trkpt lat="49.69344" lon="4.82686">
        <ele>102.27</ele>
        <time>2026-08-07T13:58:44.515Z</time>
      </trkpt>
      <trkpt lat="49.6934" lon="4.82629">
        <ele>103.7</ele>
        <time>2026-08-07T13:58:50.513Z</time>
      </trkpt>
      <trkpt lat="49.69337" lon="4.82576">
        <ele>104.44</ele>
        <time>2026-08-07T13:58:56.519Z</time>
      </trkpt>
      <trkpt lat="49.6933" lon="4.8252">
        <ele>103.14</ele>
        <time>2026-08-07T13:59:02.521Z</time>
      </trkpt>
      <trkpt lat="49.69326" lon="4.82465">
        <ele>102.86</ele>
        <time>2026-08-07T13:59:08.514Z</time>
      </trkpt>
      <trkpt lat="49.69322" lon="4.82409">
        <ele>101</ele>
        <time>2026-08-07T13:59:14.512Z</time>
      </trkpt>
      <trkpt lat="49.69318" lon="4.82352">
        <ele>99.77</ele>
        <time>2026-08-07T13:59:20.512Z</time>
      </trkpt>
      <trkpt lat="49.69317" lon="4.82296">
        <ele>99.58</ele>
        <time>2026-08-07T13:59:26.519Z</time>
      </trkpt>
      <trkpt lat="49.69317" lon="4.82239">
        <ele>101.13</ele>
        <time>2026-08-07T13:59:32.521Z</time>
      </trkpt>
      <trkpt lat="49.69318" lon="4.82182">
        <ele>101.18</ele>
        <time>2026-08-07T13:59:38.461Z</time>
      </trkpt>
      <trkpt lat="49.69318" lon="4.82127">
        <ele>101.44</ele>
        <time>2026-08-07T13:59:44.459Z</time>
      </trkpt>
      <trkpt lat="49.6932" lon="4.8208">
        <ele>103.2</ele>
        <time>2026-08-07T13:59:49.464Z</time>
      </trkpt>
      <trkpt lat="49.69322" lon="4.82021">
        <ele>103.11</ele>
        <time>2026-08-07T13:59:55.462Z</time>
      </trkpt>
      <trkpt lat="49.69324" lon="4.81974">
        <ele>102.89</ele>
        <time>2026-08-07T14:00:00.462Z</time>
      </trkpt>
      <trkpt lat="49.69328" lon="4.81917">
        <ele>103.07</ele>
        <time>2026-08-07T14:00:06.461Z</time>
      </trkpt>
      <trkpt lat="49.69331" lon="4.81858">
        <ele>103.49</ele>
        <time>2026-08-07T14:00:12.458Z</time>
      </trkpt>
      <trkpt lat="49.69339" lon="4.81809">
        <ele>101.71</ele>
        <time>2026-08-07T14:00:17.462Z</time>
      </trkpt>
      <trkpt lat="49.69347" lon="4.81751">
        <ele>100.62</ele>
        <time>2026-08-07T14:00:23.463Z</time>
      </trkpt>
      <trkpt lat="49.69353" lon="4.81695">
        <ele>101.47</ele>
        <time>2026-08-07T14:00:29.457Z</time>
      </trkpt>
      <trkpt lat="49.69359" lon="4.81651">
        <ele>103.25</ele>
        <time>2026-08-07T14:00:34.460Z</time>
      </trkpt>
      <trkpt lat="49.69366" lon="4.81612">
        <ele>103.22</ele>
        <time>2026-08-07T14:00:39.461Z</time>
      </trkpt>
      <trkpt lat="49.69373" lon="4.81568">
        <ele>102.46</ele>
        <time>2026-08-07T14:00:44.465Z</time>
      </trkpt>
      <trkpt lat="49.69382" lon="4.81515">
        <ele>101.91</ele>
        <time>2026-08-07T14:00:50.472Z</time>
      </trkpt>
      <trkpt lat="49.69395" lon="4.8146">
        <ele>101.81</ele>
        <time>2026-08-07T14:00:56.515Z</time>
      </trkpt>
      <trkpt lat="49.69414" lon="4.81406">
        <ele>102.35</ele>
        <time>2026-08-07T14:01:02.521Z</time>
      </trkpt>
      <trkpt lat="49.69436" lon="4.81357">
        <ele>101.84</ele>
        <time>2026-08-07T14:01:08.465Z</time>
      </trkpt>
      <trkpt lat="49.69459" lon="4.81311">
        <ele>102.28</ele>
        <time>2026-08-07T14:01:14.461Z</time>
      </trkpt>
      <trkpt lat="49.69479" lon="4.81273">
        <ele>102.89</ele>
        <time>2026-08-07T14:01:19.462Z</time>
      </trkpt>
      <trkpt lat="49.69499" lon="4.81225">
        <ele>102.63</ele>
        <time>2026-08-07T14:01:25.462Z</time>
      </trkpt>
      <trkpt lat="49.69516" lon="4.81174">
        <ele>102.7</ele>
        <time>2026-08-07T14:01:31.459Z</time>
      </trkpt>
      <trkpt lat="49.69528" lon="4.81129">
        <ele>102.19</ele>
        <time>2026-08-07T14:01:36.462Z</time>
      </trkpt>
      <trkpt lat="49.69537" lon="4.81081">
        <ele>102.68</ele>
        <time>2026-08-07T14:01:41.462Z</time>
      </trkpt>
      <trkpt lat="49.69548" lon="4.81035">
        <ele>103.22</ele>
        <time>2026-08-07T14:01:46.465Z</time>
      </trkpt>
      <trkpt lat="49.69561" lon="4.80979">
        <ele>101.19</ele>
        <time>2026-08-07T14:01:52.457Z</time>
      </trkpt>
      <trkpt lat="49.69565" lon="4.80928">
        <ele>101.33</ele>
        <time>2026-08-07T14:01:57.460Z</time>
      </trkpt>
      <trkpt lat="49.69567" lon="4.80877">
        <ele>100.11</ele>
        <time>2026-08-07T14:02:02.521Z</time>
      </trkpt>
      <trkpt lat="49.69568" lon="4.80818">
        <ele>100.52</ele>
        <time>2026-08-07T14:02:08.469Z</time>
      </trkpt>
      <trkpt lat="49.69566" lon="4.80756">
        <ele>99.63</ele>
        <time>2026-08-07T14:02:14.471Z</time>
      </trkpt>
      <trkpt lat="49.69562" lon="4.80696">
        <ele>98.61</ele>
        <time>2026-08-07T14:02:20.472Z</time>
      </trkpt>
      <trkpt lat="49.69553" lon="4.80637">
        <ele>98.57</ele>
        <time>2026-08-07T14:02:26.524Z</time>
      </trkpt>
      <trkpt lat="49.69544" lon="4.8058">
        <ele>98.5</ele>
        <time>2026-08-07T14:02:32.521Z</time>
      </trkpt>
      <trkpt lat="49.69535" lon="4.80521">
        <ele>98.85</ele>
        <time>2026-08-07T14:02:38.473Z</time>
      </trkpt>
      <trkpt lat="49.69528" lon="4.80463">
        <ele>98.19</ele>
        <time>2026-08-07T14:02:44.471Z</time>
      </trkpt>
      <trkpt lat="49.69515" lon="4.80405">
        <ele>97.56</ele>
        <time>2026-08-07T14:02:50.470Z</time>
      </trkpt>
      <trkpt lat="49.69506" lon="4.80347">
        <ele>97.19</ele>
        <time>2026-08-07T14:02:56.523Z</time>
      </trkpt>
      <trkpt lat="49.69499" lon="4.80288">
        <ele>97.22</ele>
        <time>2026-08-07T14:03:02.519Z</time>
      </trkpt>
      <trkpt lat="49.69498" lon="4.8023">
        <ele>98.68</ele>
        <time>2026-08-07T14:03:08.478Z</time>
      </trkpt>
      <trkpt lat="49.69497" lon="4.80172">
        <ele>99.43</ele>
        <time>2026-08-07T14:03:14.471Z</time>
      </trkpt>
      <trkpt lat="49.69495" lon="4.8011">
        <ele>100.67</ele>
        <time>2026-08-07T14:03:20.474Z</time>
      </trkpt>
      <trkpt lat="49.69494" lon="4.80049">
        <ele>101.54</ele>
        <time>2026-08-07T14:03:26.508Z</time>
      </trkpt>
      <trkpt lat="49.69496" lon="4.7999">
        <ele>102.24</ele>
        <time>2026-08-07T14:03:32.518Z</time>
      </trkpt>
      <trkpt lat="49.69503" lon="4.7993">
        <ele>102.57</ele>
        <time>2026-08-07T14:03:38.477Z</time>
      </trkpt>
      <trkpt lat="49.69504" lon="4.79872">
        <ele>102.65</ele>
        <time>2026-08-07T14:03:44.475Z</time>
      </trkpt>
      <trkpt lat="49.69504" lon="4.79815">
        <ele>102.5</ele>
        <time>2026-08-07T14:03:50.478Z</time>
      </trkpt>
      <trkpt lat="49.69508" lon="4.79755">
        <ele>101.77</ele>
        <time>2026-08-07T14:03:56.523Z</time>
      </trkpt>
      <trkpt lat="49.6951" lon="4.79695">
        <ele>100.53</ele>
        <time>2026-08-07T14:04:02.522Z</time>
      </trkpt>
      <trkpt lat="49.69511" lon="4.79637">
        <ele>100.53</ele>
        <time>2026-08-07T14:04:08.476Z</time>
      </trkpt>
      <trkpt lat="49.69517" lon="4.79577">
        <ele>102.61</ele>
        <time>2026-08-07T14:04:14.477Z</time>
      </trkpt>
      <trkpt lat="49.69527" lon="4.7952">
        <ele>103.53</ele>
        <time>2026-08-07T14:04:20.477Z</time>
      </trkpt>
      <trkpt lat="49.69535" lon="4.79463">
        <ele>103.75</ele>
        <time>2026-08-07T14:04:26.524Z</time>
      </trkpt>
      <trkpt lat="49.69541" lon="4.79408">
        <ele>104.16</ele>
        <time>2026-08-07T14:04:32.509Z</time>
      </trkpt>
      <trkpt lat="49.69546" lon="4.79353">
        <ele>104.66</ele>
        <time>2026-08-07T14:04:38.478Z</time>
      </trkpt>
      <trkpt lat="49.6955" lon="4.79295">
        <ele>104.53</ele>
        <time>2026-08-07T14:04:44.479Z</time>
      </trkpt>
      <trkpt lat="49.69556" lon="4.79238">
        <ele>104.29</ele>
        <time>2026-08-07T14:04:50.484Z</time>
      </trkpt>
      <trkpt lat="49.69562" lon="4.79179">
        <ele>102.59</ele>
        <time>2026-08-07T14:04:56.526Z</time>
      </trkpt>
      <trkpt lat="49.69568" lon="4.79122">
        <ele>100.81</ele>
        <time>2026-08-07T14:05:02.517Z</time>
      </trkpt>
      <trkpt lat="49.6957" lon="4.79066">
        <ele>100.88</ele>
        <time>2026-08-07T14:05:08.479Z</time>
      </trkpt>
      <trkpt lat="49.69576" lon="4.79009">
        <ele>101.32</ele>
        <time>2026-08-07T14:05:14.477Z</time>
      </trkpt>
      <trkpt lat="49.69585" lon="4.78953">
        <ele>102.02</ele>
        <time>2026-08-07T14:05:20.479Z</time>
      </trkpt>
      <trkpt lat="49.69593" lon="4.78897">
        <ele>102.28</ele>
        <time>2026-08-07T14:05:26.527Z</time>
      </trkpt>
      <trkpt lat="49.69602" lon="4.78841">
        <ele>103.44</ele>
        <time>2026-08-07T14:05:32.520Z</time>
      </trkpt>
      <trkpt lat="49.69613" lon="4.78784">
        <ele>103.56</ele>
        <time>2026-08-07T14:05:38.477Z</time>
      </trkpt>
      <trkpt lat="49.69622" lon="4.78727">
        <ele>103.35</ele>
        <time>2026-08-07T14:05:44.482Z</time>
      </trkpt>
      <trkpt lat="49.69631" lon="4.78668">
        <ele>104.01</ele>
        <time>2026-08-07T14:05:50.480Z</time>
      </trkpt>
      <trkpt lat="49.6964" lon="4.78613">
        <ele>105.86</ele>
        <time>2026-08-07T14:05:56.504Z</time>
      </trkpt>
      <trkpt lat="49.69656" lon="4.78561">
        <ele>106.4</ele>
        <time>2026-08-07T14:06:02.521Z</time>
      </trkpt>
      <trkpt lat="49.69671" lon="4.78509">
        <ele>106.9</ele>
        <time>2026-08-07T14:06:08.484Z</time>
      </trkpt>
      <trkpt lat="49.69685" lon="4.78459">
        <ele>108.55</ele>
        <time>2026-08-07T14:06:14.478Z</time>
      </trkpt>
      <trkpt lat="49.697" lon="4.78408">
        <ele>108.05</ele>
        <time>2026-08-07T14:06:20.477Z</time>
      </trkpt>
      <trkpt lat="49.69714" lon="4.78353">
        <ele>108.78</ele>
        <time>2026-08-07T14:06:26.525Z</time>
      </trkpt>
      <trkpt lat="49.6973" lon="4.78298">
        <ele>109.16</ele>
        <time>2026-08-07T14:06:32.518Z</time>
      </trkpt>
      <trkpt lat="49.69747" lon="4.78247">
        <ele>107.92</ele>
        <time>2026-08-07T14:06:38.479Z</time>
      </trkpt>
      <trkpt lat="49.69764" lon="4.78196">
        <ele>107.25</ele>
        <time>2026-08-07T14:06:44.477Z</time>
      </trkpt>
      <trkpt lat="49.69781" lon="4.78143">
        <ele>107.21</ele>
        <time>2026-08-07T14:06:50.477Z</time>
      </trkpt>
      <trkpt lat="49.69798" lon="4.78092">
        <ele>107.9</ele>
        <time>2026-08-07T14:06:56.526Z</time>
      </trkpt>
      <trkpt lat="49.69816" lon="4.7804">
        <ele>107.09</ele>
        <time>2026-08-07T14:07:02.519Z</time>
      </trkpt>
      <trkpt lat="49.69833" lon="4.77988">
        <ele>106.78</ele>
        <time>2026-08-07T14:07:08.481Z</time>
      </trkpt>
      <trkpt lat="49.69852" lon="4.77942">
        <ele>105.08</ele>
        <time>2026-08-07T14:07:14.477Z</time>
      </trkpt>
      <trkpt lat="49.69871" lon="4.77892">
        <ele>104.53</ele>
        <time>2026-08-07T14:07:20.478Z</time>
      </trkpt>
      <trkpt lat="49.69889" lon="4.77847">
        <ele>103.05</ele>
        <time>2026-08-07T14:07:26.527Z</time>
      </trkpt>
      <trkpt lat="49.69914" lon="4.77808">
        <ele>102.55</ele>
        <time>2026-08-07T14:07:32.519Z</time>
      </trkpt>
      <trkpt lat="49.69942" lon="4.77771">
        <ele>102.53</ele>
        <time>2026-08-07T14:07:38.477Z</time>
      </trkpt>
      <trkpt lat="49.6997" lon="4.77737">
        <ele>103.79</ele>
        <time>2026-08-07T14:07:44.480Z</time>
      </trkpt>
      <trkpt lat="49.69998" lon="4.77699">
        <ele>104.65</ele>
        <time>2026-08-07T14:07:50.480Z</time>
      </trkpt>
      <trkpt lat="49.70014" lon="4.77661">
        <ele>106.77</ele>
        <time>2026-08-07T14:07:56.524Z</time>
      </trkpt>
      <trkpt lat="49.70019" lon="4.77631">
        <ele>107.06</ele>
        <time>2026-08-07T14:08:02.524Z</time>
      </trkpt>
      <trkpt lat="49.70031" lon="4.77642">
        <ele>109.04</ele>
        <time>2026-08-07T14:08:08.481Z</time>
      </trkpt>
      <trkpt lat="49.70044" lon="4.77671">
        <ele>109.03</ele>
        <time>2026-08-07T14:08:14.489Z</time>
      </trkpt>
      <trkpt lat="49.70056" lon="4.77699">
        <ele>107.34</ele>
        <time>2026-08-07T14:08:20.488Z</time>
      </trkpt>
      <trkpt lat="49.7007" lon="4.7773">
        <ele>110.11</ele>
        <time>2026-08-07T14:08:26.527Z</time>
      </trkpt>
      <trkpt lat="49.70087" lon="4.77756">
        <ele>110.39</ele>
        <time>2026-08-07T14:08:32.520Z</time>
      </trkpt>
      <trkpt lat="49.70119" lon="4.77732">
        <ele>108.85</ele>
        <time>2026-08-07T14:08:38.485Z</time>
      </trkpt>
      <trkpt lat="49.70153" lon="4.77692">
        <ele>106</ele>
        <time>2026-08-07T14:08:44.483Z</time>
      </trkpt>
      <trkpt lat="49.70178" lon="4.7766">
        <ele>106.57</ele>
        <time>2026-08-07T14:08:50.484Z</time>
      </trkpt>
      <trkpt lat="49.70207" lon="4.77633">
        <ele>105.93</ele>
        <time>2026-08-07T14:08:56.529Z</time>
      </trkpt>
      <trkpt lat="49.70239" lon="4.77611">
        <ele>106.35</ele>
        <time>2026-08-07T14:09:02.525Z</time>
      </trkpt>
      <trkpt lat="49.70269" lon="4.77591">
        <ele>105.81</ele>
        <time>2026-08-07T14:09:08.485Z</time>
      </trkpt>
      <trkpt lat="49.70298" lon="4.7757">
        <ele>108.04</ele>
        <time>2026-08-07T14:09:14.484Z</time>
      </trkpt>
      <trkpt lat="49.70328" lon="4.77549">
        <ele>108.43</ele>
        <time>2026-08-07T14:09:20.480Z</time>
      </trkpt>
      <trkpt lat="49.70358" lon="4.77529">
        <ele>108.85</ele>
        <time>2026-08-07T14:09:26.528Z</time>
      </trkpt>
      <trkpt lat="49.70386" lon="4.77512">
        <ele>108.9</ele>
        <time>2026-08-07T14:09:32.530Z</time>
      </trkpt>
      <trkpt lat="49.70415" lon="4.77492">
        <ele>107.93</ele>
        <time>2026-08-07T14:09:38.478Z</time>
      </trkpt>
      <trkpt lat="49.70444" lon="4.77472">
        <ele>107.61</ele>
        <time>2026-08-07T14:09:44.477Z</time>
      </trkpt>
      <trkpt lat="49.70475" lon="4.77448">
        <ele>107.21</ele>
        <time>2026-08-07T14:09:50.483Z</time>
      </trkpt>
      <trkpt lat="49.70508" lon="4.77426">
        <ele>107.04</ele>
        <time>2026-08-07T14:09:56.525Z</time>
      </trkpt>
      <trkpt lat="49.70537" lon="4.77402">
        <ele>107.62</ele>
        <time>2026-08-07T14:10:02.521Z</time>
      </trkpt>
      <trkpt lat="49.70567" lon="4.77381">
        <ele>109.06</ele>
        <time>2026-08-07T14:10:08.483Z</time>
      </trkpt>
      <trkpt lat="49.70596" lon="4.77358">
        <ele>108.47</ele>
        <time>2026-08-07T14:10:14.485Z</time>
      </trkpt>
      <trkpt lat="49.70626" lon="4.77336">
        <ele>110.24</ele>
        <time>2026-08-07T14:10:20.490Z</time>
      </trkpt>
      <trkpt lat="49.70655" lon="4.77312">
        <ele>110.91</ele>
        <time>2026-08-07T14:10:26.529Z</time>
      </trkpt>
      <trkpt lat="49.70687" lon="4.77289">
        <ele>109.44</ele>
        <time>2026-08-07T14:10:32.528Z</time>
      </trkpt>
      <trkpt lat="49.70714" lon="4.7727">
        <ele>109.26</ele>
        <time>2026-08-07T14:10:38.490Z</time>
      </trkpt>
      <trkpt lat="49.7074" lon="4.77255">
        <ele>108.12</ele>
        <time>2026-08-07T14:10:44.492Z</time>
      </trkpt>
      <trkpt lat="49.70765" lon="4.77232">
        <ele>109.55</ele>
        <time>2026-08-07T14:10:50.491Z</time>
      </trkpt>
      <trkpt lat="49.70795" lon="4.77205">
        <ele>106.83</ele>
        <time>2026-08-07T14:10:56.528Z</time>
      </trkpt>
      <trkpt lat="49.70822" lon="4.77179">
        <ele>107.34</ele>
        <time>2026-08-07T14:11:02.527Z</time>
      </trkpt>
      <trkpt lat="49.70846" lon="4.7715">
        <ele>106.25</ele>
        <time>2026-08-07T14:11:08.489Z</time>
      </trkpt>
      <trkpt lat="49.70869" lon="4.77118">
        <ele>106.19</ele>
        <time>2026-08-07T14:11:14.490Z</time>
      </trkpt>
      <trkpt lat="49.70891" lon="4.7708">
        <ele>106.19</ele>
        <time>2026-08-07T14:11:20.492Z</time>
      </trkpt>
      <trkpt lat="49.70912" lon="4.77041">
        <ele>105.09</ele>
        <time>2026-08-07T14:11:26.527Z</time>
      </trkpt>
      <trkpt lat="49.70931" lon="4.76998">
        <ele>106.28</ele>
        <time>2026-08-07T14:11:32.521Z</time>
      </trkpt>
      <trkpt lat="49.70952" lon="4.76957">
        <ele>106.11</ele>
        <time>2026-08-07T14:11:38.487Z</time>
      </trkpt>
      <trkpt lat="49.70974" lon="4.76918">
        <ele>106.64</ele>
        <time>2026-08-07T14:11:44.496Z</time>
      </trkpt>
      <trkpt lat="49.70997" lon="4.7688">
        <ele>107.36</ele>
        <time>2026-08-07T14:11:50.498Z</time>
      </trkpt>
      <trkpt lat="49.71019" lon="4.76842">
        <ele>107.77</ele>
        <time>2026-08-07T14:11:56.522Z</time>
      </trkpt>
      <trkpt lat="49.71045" lon="4.76811">
        <ele>108</ele>
        <time>2026-08-07T14:12:02.523Z</time>
      </trkpt>
      <trkpt lat="49.71072" lon="4.76785">
        <ele>107.64</ele>
        <time>2026-08-07T14:12:08.499Z</time>
      </trkpt>
      <trkpt lat="49.71104" lon="4.76769">
        <ele>106.52</ele>
        <time>2026-08-07T14:12:14.498Z</time>
      </trkpt>
      <trkpt lat="49.71137" lon="4.76759">
        <ele>105.71</ele>
        <time>2026-08-07T14:12:20.501Z</time>
      </trkpt>
      <trkpt lat="49.71168" lon="4.76752">
        <ele>106.59</ele>
        <time>2026-08-07T14:12:26.527Z</time>
      </trkpt>
      <trkpt lat="49.71201" lon="4.76746">
        <ele>106.55</ele>
        <time>2026-08-07T14:12:32.524Z</time>
      </trkpt>
      <trkpt lat="49.71232" lon="4.76756">
        <ele>105.2</ele>
        <time>2026-08-07T14:12:38.499Z</time>
      </trkpt>
      <trkpt lat="49.7126" lon="4.76785">
        <ele>104.59</ele>
        <time>2026-08-07T14:12:44.503Z</time>
      </trkpt>
      <trkpt lat="49.71281" lon="4.76824">
        <ele>103.89</ele>
        <time>2026-08-07T14:12:50.500Z</time>
      </trkpt>
      <trkpt lat="49.713" lon="4.76869">
        <ele>104.22</ele>
        <time>2026-08-07T14:12:56.530Z</time>
      </trkpt>
      <trkpt lat="49.71319" lon="4.76919">
        <ele>105.11</ele>
        <time>2026-08-07T14:13:02.530Z</time>
      </trkpt>
      <trkpt lat="49.71335" lon="4.76965">
        <ele>105.43</ele>
        <time>2026-08-07T14:13:08.501Z</time>
      </trkpt>
      <trkpt lat="49.71354" lon="4.77008">
        <ele>106.32</ele>
        <time>2026-08-07T14:13:14.502Z</time>
      </trkpt>
      <trkpt lat="49.71376" lon="4.77048">
        <ele>106.65</ele>
        <time>2026-08-07T14:13:20.497Z</time>
      </trkpt>
      <trkpt lat="49.71393" lon="4.77091">
        <ele>107.01</ele>
        <time>2026-08-07T14:13:26.529Z</time>
      </trkpt>
      <trkpt lat="49.71414" lon="4.77123">
        <ele>106.73</ele>
        <time>2026-08-07T14:13:32.527Z</time>
      </trkpt>
      <trkpt lat="49.7144" lon="4.77147">
        <ele>106.24</ele>
        <time>2026-08-07T14:13:38.499Z</time>
      </trkpt>
      <trkpt lat="49.71466" lon="4.77176">
        <ele>106.46</ele>
        <time>2026-08-07T14:13:44.500Z</time>
      </trkpt>
      <trkpt lat="49.71494" lon="4.77196">
        <ele>106.63</ele>
        <time>2026-08-07T14:13:50.500Z</time>
      </trkpt>
      <trkpt lat="49.71523" lon="4.7721">
        <ele>107.02</ele>
        <time>2026-08-07T14:13:56.529Z</time>
      </trkpt>
      <trkpt lat="49.71552" lon="4.77229">
        <ele>106.73</ele>
        <time>2026-08-07T14:14:02.528Z</time>
      </trkpt>
      <trkpt lat="49.71581" lon="4.77248">
        <ele>106.23</ele>
        <time>2026-08-07T14:14:08.498Z</time>
      </trkpt>
      <trkpt lat="49.71611" lon="4.77263">
        <ele>106.16</ele>
        <time>2026-08-07T14:14:14.500Z</time>
      </trkpt>
      <trkpt lat="49.71642" lon="4.77271">
        <ele>106.35</ele>
        <time>2026-08-07T14:14:20.497Z</time>
      </trkpt>
      <trkpt lat="49.71666" lon="4.77295">
        <ele>104.5</ele>
        <time>2026-08-07T14:14:26.531Z</time>
      </trkpt>
      <trkpt lat="49.71675" lon="4.77347">
        <ele>104.79</ele>
        <time>2026-08-07T14:14:32.530Z</time>
      </trkpt>
      <trkpt lat="49.71686" lon="4.77397">
        <ele>104.62</ele>
        <time>2026-08-07T14:14:38.497Z</time>
      </trkpt>
      <trkpt lat="49.71699" lon="4.77453">
        <ele>105.16</ele>
        <time>2026-08-07T14:14:44.498Z</time>
      </trkpt>
      <trkpt lat="49.71707" lon="4.7751">
        <ele>105.05</ele>
        <time>2026-08-07T14:14:50.498Z</time>
      </trkpt>
      <trkpt lat="49.71692" lon="4.77564">
        <ele>105.32</ele>
        <time>2026-08-07T14:14:56.527Z</time>
      </trkpt>
      <trkpt lat="49.7166" lon="4.77593">
        <ele>104.63</ele>
        <time>2026-08-07T14:15:02.528Z</time>
      </trkpt>
      <trkpt lat="49.71625" lon="4.77607">
        <ele>103.56</ele>
        <time>2026-08-07T14:15:08.497Z</time>
      </trkpt>
      <trkpt lat="49.71588" lon="4.77609">
        <ele>102.86</ele>
        <time>2026-08-07T14:15:14.495Z</time>
      </trkpt>
      <trkpt lat="49.71555" lon="4.77611">
        <ele>102.26</ele>
        <time>2026-08-07T14:15:20.496Z</time>
      </trkpt>
      <trkpt lat="49.7155" lon="4.7766">
        <ele>103.86</ele>
        <time>2026-08-07T14:15:26.528Z</time>
      </trkpt>
      <trkpt lat="49.71549" lon="4.77711">
        <ele>105.64</ele>
        <time>2026-08-07T14:15:32.529Z</time>
      </trkpt>
      <trkpt lat="49.71518" lon="4.77726">
        <ele>105.51</ele>
        <time>2026-08-07T14:15:38.524Z</time>
      </trkpt>
      <trkpt lat="49.71489" lon="4.77731">
        <ele>106.8</ele>
        <time>2026-08-07T14:15:43.647Z</time>
      </trkpt>
      <trkpt lat="49.71457" lon="4.77732">
        <ele>108.34</ele>
        <time>2026-08-07T14:15:49.472Z</time>
      </trkpt>
      <trkpt lat="49.71427" lon="4.77737">
        <ele>107.67</ele>
        <time>2026-08-07T14:15:54.499Z</time>
      </trkpt>
      <trkpt lat="49.71402" lon="4.77746">
        <ele>105.4</ele>
        <time>2026-08-07T14:15:59.535Z</time>
      </trkpt>
      <trkpt lat="49.71401" lon="4.77764">
        <ele>103.33</ele>
        <time>2026-08-07T14:16:05.482Z</time>
      </trkpt>
      <trkpt lat="49.71415" lon="4.77774">
        <ele>104.47</ele>
        <time>2026-08-07T14:16:10.504Z</time>
      </trkpt>
      <trkpt lat="49.71433" lon="4.7779">
        <ele>105.08</ele>
        <time>2026-08-07T14:16:15.558Z</time>
      </trkpt>
      <trkpt lat="49.71454" lon="4.77812">
        <ele>104.16</ele>
        <time>2026-08-07T14:16:20.577Z</time>
      </trkpt>
      <trkpt lat="49.71479" lon="4.77842">
        <ele>103.85</ele>
        <time>2026-08-07T14:16:26.513Z</time>
      </trkpt>
      <trkpt lat="49.71482" lon="4.77874">
        <ele>104.29</ele>
        <time>2026-08-07T14:16:32.521Z</time>
      </trkpt>
      <trkpt lat="49.71483" lon="4.77859">
        <ele>109</ele>
        <time>2026-08-07T14:18:56.519Z</time>
      </trkpt>
      <trkpt lat="49.71494" lon="4.77868">
        <ele>107.48</ele>
        <time>2026-08-07T14:19:02.522Z</time>
      </trkpt>
      <trkpt lat="49.7151" lon="4.77891">
        <ele>108.6</ele>
        <time>2026-08-07T14:19:08.501Z</time>
      </trkpt>
      <trkpt lat="49.71526" lon="4.77915">
        <ele>107.82</ele>
        <time>2026-08-07T14:19:14.503Z</time>
      </trkpt>
      <trkpt lat="49.71544" lon="4.77947">
        <ele>107.31</ele>
        <time>2026-08-07T14:19:20.505Z</time>
      </trkpt>
      <trkpt lat="49.71559" lon="4.7798">
        <ele>107.75</ele>
        <time>2026-08-07T14:19:26.521Z</time>
      </trkpt>
      <trkpt lat="49.71575" lon="4.78016">
        <ele>107.14</ele>
        <time>2026-08-07T14:19:32.520Z</time>
      </trkpt>
      <trkpt lat="49.71592" lon="4.78052">
        <ele>107.02</ele>
        <time>2026-08-07T14:19:38.500Z</time>
      </trkpt>
      <trkpt lat="49.71607" lon="4.7809">
        <ele>107.4</ele>
        <time>2026-08-07T14:19:44.505Z</time>
      </trkpt>
      <trkpt lat="49.71624" lon="4.78128">
        <ele>108.2</ele>
        <time>2026-08-07T14:19:50.501Z</time>
      </trkpt>
      <trkpt lat="49.71641" lon="4.78159">
        <ele>109.31</ele>
        <time>2026-08-07T14:19:56.522Z</time>
      </trkpt>
      <trkpt lat="49.71661" lon="4.78158">
        <ele>106.83</ele>
        <time>2026-08-07T14:20:02.521Z</time>
      </trkpt>
      <trkpt lat="49.71677" lon="4.78183">
        <ele>105.98</ele>
        <time>2026-08-07T14:20:08.503Z</time>
      </trkpt>
      <trkpt lat="49.71703" lon="4.78206">
        <ele>106.08</ele>
        <time>2026-08-07T14:20:14.504Z</time>
      </trkpt>
      <trkpt lat="49.71733" lon="4.78222">
        <ele>105.24</ele>
        <time>2026-08-07T14:20:20.503Z</time>
      </trkpt>
      <trkpt lat="49.71767" lon="4.78225">
        <ele>104.9</ele>
        <time>2026-08-07T14:20:26.523Z</time>
      </trkpt>
      <trkpt lat="49.71801" lon="4.7823">
        <ele>104.18</ele>
        <time>2026-08-07T14:20:32.519Z</time>
      </trkpt>
      <trkpt lat="49.71836" lon="4.78226">
        <ele>105.36</ele>
        <time>2026-08-07T14:20:38.503Z</time>
      </trkpt>
      <trkpt lat="49.71867" lon="4.78218">
        <ele>108.66</ele>
        <time>2026-08-07T14:20:44.503Z</time>
      </trkpt>
      <trkpt lat="49.71899" lon="4.7822">
        <ele>110.73</ele>
        <time>2026-08-07T14:20:50.503Z</time>
      </trkpt>
      <trkpt lat="49.71928" lon="4.78231">
        <ele>110.38</ele>
        <time>2026-08-07T14:20:56.521Z</time>
      </trkpt>
      <trkpt lat="49.71959" lon="4.78243">
        <ele>109.83</ele>
        <time>2026-08-07T14:21:02.521Z</time>
      </trkpt>
      <trkpt lat="49.71992" lon="4.78255">
        <ele>110.95</ele>
        <time>2026-08-07T14:21:08.503Z</time>
      </trkpt>
      <trkpt lat="49.72025" lon="4.7826">
        <ele>110.99</ele>
        <time>2026-08-07T14:21:14.504Z</time>
      </trkpt>
      <trkpt lat="49.72058" lon="4.78261">
        <ele>107.6</ele>
        <time>2026-08-07T14:21:20.502Z</time>
      </trkpt>
      <trkpt lat="49.72098" lon="4.78265">
        <ele>105.93</ele>
        <time>2026-08-07T14:21:26.521Z</time>
      </trkpt>
      <trkpt lat="49.72132" lon="4.78272">
        <ele>106.01</ele>
        <time>2026-08-07T14:21:32.519Z</time>
      </trkpt>
      <trkpt lat="49.72166" lon="4.7828">
        <ele>105.51</ele>
        <time>2026-08-07T14:21:38.503Z</time>
      </trkpt>
      <trkpt lat="49.72202" lon="4.78288">
        <ele>104.66</ele>
        <time>2026-08-07T14:21:44.504Z</time>
      </trkpt>
      <trkpt lat="49.7224" lon="4.78296">
        <ele>101.67</ele>
        <time>2026-08-07T14:21:50.503Z</time>
      </trkpt>
      <trkpt lat="49.72276" lon="4.78303">
        <ele>101</ele>
        <time>2026-08-07T14:21:56.521Z</time>
      </trkpt>
      <trkpt lat="49.72311" lon="4.78311">
        <ele>102.04</ele>
        <time>2026-08-07T14:22:02.521Z</time>
      </trkpt>
      <trkpt lat="49.72345" lon="4.78317">
        <ele>102.58</ele>
        <time>2026-08-07T14:22:08.505Z</time>
      </trkpt>
      <trkpt lat="49.72377" lon="4.78323">
        <ele>104.86</ele>
        <time>2026-08-07T14:22:14.503Z</time>
      </trkpt>
      <trkpt lat="49.72408" lon="4.78329">
        <ele>107.81</ele>
        <time>2026-08-07T14:22:20.504Z</time>
      </trkpt>
      <trkpt lat="49.72441" lon="4.78348">
        <ele>110.11</ele>
        <time>2026-08-07T14:22:26.526Z</time>
      </trkpt>
      <trkpt lat="49.72473" lon="4.78379">
        <ele>109.61</ele>
        <time>2026-08-07T14:22:32.519Z</time>
      </trkpt>
      <trkpt lat="49.72498" lon="4.78404">
        <ele>108.83</ele>
        <time>2026-08-07T14:22:38.502Z</time>
      </trkpt>
      <trkpt lat="49.72522" lon="4.78424">
        <ele>106.28</ele>
        <time>2026-08-07T14:22:44.503Z</time>
      </trkpt>
      <trkpt lat="49.72549" lon="4.7844">
        <ele>105.64</ele>
        <time>2026-08-07T14:22:50.503Z</time>
      </trkpt>
      <trkpt lat="49.7258" lon="4.78454">
        <ele>106.49</ele>
        <time>2026-08-07T14:22:56.522Z</time>
      </trkpt>
      <trkpt lat="49.72614" lon="4.78468">
        <ele>105.67</ele>
        <time>2026-08-07T14:23:02.529Z</time>
      </trkpt>
      <trkpt lat="49.7265" lon="4.78477">
        <ele>103.14</ele>
        <time>2026-08-07T14:23:08.503Z</time>
      </trkpt>
      <trkpt lat="49.72685" lon="4.78485">
        <ele>100.81</ele>
        <time>2026-08-07T14:23:14.507Z</time>
      </trkpt>
      <trkpt lat="49.72717" lon="4.78492">
        <ele>101.57</ele>
        <time>2026-08-07T14:23:20.503Z</time>
      </trkpt>
      <trkpt lat="49.72747" lon="4.78496">
        <ele>102.2</ele>
        <time>2026-08-07T14:23:26.519Z</time>
      </trkpt>
      <trkpt lat="49.72774" lon="4.78508">
        <ele>100.59</ele>
        <time>2026-08-07T14:23:32.521Z</time>
      </trkpt>
      <trkpt lat="49.72803" lon="4.78513">
        <ele>101.36</ele>
        <time>2026-08-07T14:23:38.501Z</time>
      </trkpt>
      <trkpt lat="49.72834" lon="4.78514">
        <ele>103.2</ele>
        <time>2026-08-07T14:23:44.501Z</time>
      </trkpt>
      <trkpt lat="49.72869" lon="4.78519">
        <ele>104.49</ele>
        <time>2026-08-07T14:23:50.500Z</time>
      </trkpt>
      <trkpt lat="49.72902" lon="4.78518">
        <ele>104.03</ele>
        <time>2026-08-07T14:23:56.526Z</time>
      </trkpt>
      <trkpt lat="49.72936" lon="4.78515">
        <ele>103.18</ele>
        <time>2026-08-07T14:24:02.524Z</time>
      </trkpt>
      <trkpt lat="49.72968" lon="4.78508">
        <ele>102.84</ele>
        <time>2026-08-07T14:24:08.501Z</time>
      </trkpt>
      <trkpt lat="49.73003" lon="4.78498">
        <ele>102.93</ele>
        <time>2026-08-07T14:24:14.508Z</time>
      </trkpt>
      <trkpt lat="49.73036" lon="4.78488">
        <ele>103.58</ele>
        <time>2026-08-07T14:24:20.505Z</time>
      </trkpt>
      <trkpt lat="49.7307" lon="4.78473">
        <ele>104.05</ele>
        <time>2026-08-07T14:24:26.520Z</time>
      </trkpt>
      <trkpt lat="49.73097" lon="4.78457">
        <ele>105.09</ele>
        <time>2026-08-07T14:24:31.546Z</time>
      </trkpt>
      <trkpt lat="49.7313" lon="4.78438">
        <ele>106.18</ele>
        <time>2026-08-07T14:24:37.479Z</time>
      </trkpt>
      <trkpt lat="49.73153" lon="4.78423">
        <ele>105.74</ele>
        <time>2026-08-07T14:24:42.546Z</time>
      </trkpt>
      <trkpt lat="49.73182" lon="4.78402">
        <ele>104.85</ele>
        <time>2026-08-07T14:24:48.474Z</time>
      </trkpt>
      <trkpt lat="49.73214" lon="4.78376">
        <ele>102.57</ele>
        <time>2026-08-07T14:24:54.469Z</time>
      </trkpt>
      <trkpt lat="49.73237" lon="4.78353">
        <ele>103.2</ele>
        <time>2026-08-07T14:24:59.538Z</time>
      </trkpt>
      <trkpt lat="49.73266" lon="4.78318">
        <ele>103.12</ele>
        <time>2026-08-07T14:25:05.496Z</time>
      </trkpt>
      <trkpt lat="49.73296" lon="4.78279">
        <ele>102.85</ele>
        <time>2026-08-07T14:25:11.454Z</time>
      </trkpt>
      <trkpt lat="49.73323" lon="4.7825">
        <ele>100.58</ele>
        <time>2026-08-07T14:25:16.503Z</time>
      </trkpt>
      <trkpt lat="49.73354" lon="4.78218">
        <ele>100.72</ele>
        <time>2026-08-07T14:25:22.465Z</time>
      </trkpt>
      <trkpt lat="49.73376" lon="4.78188">
        <ele>99.31</ele>
        <time>2026-08-07T14:25:27.476Z</time>
      </trkpt>
      <trkpt lat="49.73394" lon="4.78155">
        <ele>99.26</ele>
        <time>2026-08-07T14:25:32.516Z</time>
      </trkpt>
      <trkpt lat="49.73413" lon="4.78109">
        <ele>100.57</ele>
        <time>2026-08-07T14:25:38.509Z</time>
      </trkpt>
      <trkpt lat="49.73426" lon="4.7806">
        <ele>100.75</ele>
        <time>2026-08-07T14:25:44.504Z</time>
      </trkpt>
      <trkpt lat="49.73453" lon="4.78022">
        <ele>99.17</ele>
        <time>2026-08-07T14:25:50.506Z</time>
      </trkpt>
      <trkpt lat="49.73465" lon="4.77981">
        <ele>99.32</ele>
        <time>2026-08-07T14:25:56.526Z</time>
      </trkpt>
      <trkpt lat="49.73453" lon="4.77979">
        <ele>102.93</ele>
        <time>2026-08-07T14:26:09.461Z</time>
      </trkpt>
      <trkpt lat="49.73431" lon="4.77949">
        <ele>99.7</ele>
        <time>2026-08-07T14:26:14.511Z</time>
      </trkpt>
      <trkpt lat="49.73401" lon="4.77906">
        <ele>98.11</ele>
        <time>2026-08-07T14:26:20.509Z</time>
      </trkpt>
      <trkpt lat="49.73372" lon="4.77862">
        <ele>99.53</ele>
        <time>2026-08-07T14:26:26.508Z</time>
      </trkpt>
      <trkpt lat="49.73352" lon="4.77814">
        <ele>100.2</ele>
        <time>2026-08-07T14:26:32.529Z</time>
      </trkpt>
      <trkpt lat="49.73374" lon="4.77759">
        <ele>101.58</ele>
        <time>2026-08-07T14:26:38.505Z</time>
      </trkpt>
      <trkpt lat="49.73402" lon="4.77712">
        <ele>100.06</ele>
        <time>2026-08-07T14:26:44.499Z</time>
      </trkpt>
      <trkpt lat="49.73434" lon="4.77674">
        <ele>100.63</ele>
        <time>2026-08-07T14:26:50.504Z</time>
      </trkpt>
      <trkpt lat="49.73467" lon="4.77646">
        <ele>100.19</ele>
        <time>2026-08-07T14:26:56.526Z</time>
      </trkpt>
      <trkpt lat="49.73499" lon="4.77628">
        <ele>101.03</ele>
        <time>2026-08-07T14:27:02.510Z</time>
      </trkpt>
      <trkpt lat="49.73533" lon="4.7761">
        <ele>100.19</ele>
        <time>2026-08-07T14:27:08.496Z</time>
      </trkpt>
      <trkpt lat="49.73565" lon="4.77592">
        <ele>99.8</ele>
        <time>2026-08-07T14:27:14.504Z</time>
      </trkpt>
      <trkpt lat="49.73597" lon="4.77585">
        <ele>97.5</ele>
        <time>2026-08-07T14:27:20.498Z</time>
      </trkpt>
      <trkpt lat="49.73632" lon="4.77599">
        <ele>98.88</ele>
        <time>2026-08-07T14:27:26.524Z</time>
      </trkpt>
      <trkpt lat="49.73665" lon="4.77603">
        <ele>98.75</ele>
        <time>2026-08-07T14:27:32.521Z</time>
      </trkpt>
      <trkpt lat="49.73694" lon="4.77601">
        <ele>98.59</ele>
        <time>2026-08-07T14:27:38.499Z</time>
      </trkpt>
      <trkpt lat="49.73727" lon="4.77573">
        <ele>99.73</ele>
        <time>2026-08-07T14:27:44.494Z</time>
      </trkpt>
      <trkpt lat="49.73756" lon="4.77555">
        <ele>101.85</ele>
        <time>2026-08-07T14:27:50.494Z</time>
      </trkpt>
      <trkpt lat="49.7378" lon="4.77554">
        <ele>102.18</ele>
        <time>2026-08-07T14:27:56.533Z</time>
      </trkpt>
      <trkpt lat="49.73799" lon="4.77559">
        <ele>101.54</ele>
        <time>2026-08-07T14:28:02.542Z</time>
      </trkpt>
      <trkpt lat="49.73816" lon="4.77548">
        <ele>102.82</ele>
        <time>2026-08-07T14:28:08.609Z</time>
      </trkpt>
      <trkpt lat="49.73829" lon="4.77543">
        <ele>106.3</ele>
        <time>2026-08-07T14:28:14.503Z</time>
      </trkpt>
      <trkpt lat="49.7384" lon="4.77548">
        <ele>105.65</ele>
        <time>2026-08-07T14:28:20.501Z</time>
      </trkpt>
      <trkpt lat="49.73849" lon="4.77548">
        <ele>106.83</ele>
        <time>2026-08-07T14:28:26.504Z</time>
      </trkpt>
      <trkpt lat="49.73858" lon="4.77543">
        <ele>106.33</ele>
        <time>2026-08-07T14:28:35.465Z</time>
      </trkpt>
      <trkpt lat="49.73859" lon="4.77558">
        <ele>104.54</ele>
        <time>2026-08-07T14:29:24.461Z</time>
      </trkpt>
      <trkpt lat="49.7387" lon="4.77559">
        <ele>103.85</ele>
        <time>2026-08-07T14:29:32.527Z</time>
      </trkpt>
      <trkpt lat="49.73896" lon="4.77545">
        <ele>100.5</ele>
        <time>2026-08-07T14:29:38.517Z</time>
      </trkpt>
      <trkpt lat="49.73925" lon="4.77537">
        <ele>99</ele>
        <time>2026-08-07T14:29:44.511Z</time>
      </trkpt>
      <trkpt lat="49.73962" lon="4.77553">
        <ele>99.18</ele>
        <time>2026-08-07T14:29:50.515Z</time>
      </trkpt>
      <trkpt lat="49.73997" lon="4.77567">
        <ele>99.56</ele>
        <time>2026-08-07T14:29:56.517Z</time>
      </trkpt>
      <trkpt lat="49.74033" lon="4.77578">
        <ele>100.45</ele>
        <time>2026-08-07T14:30:02.525Z</time>
      </trkpt>
      <trkpt lat="49.7407" lon="4.77589">
        <ele>100.54</ele>
        <time>2026-08-07T14:30:08.515Z</time>
      </trkpt>
      <trkpt lat="49.74108" lon="4.77601">
        <ele>99.11</ele>
        <time>2026-08-07T14:30:14.492Z</time>
      </trkpt>
      <trkpt lat="49.74144" lon="4.77621">
        <ele>98.62</ele>
        <time>2026-08-07T14:30:20.503Z</time>
      </trkpt>
      <trkpt lat="49.74176" lon="4.77657">
        <ele>98.74</ele>
        <time>2026-08-07T14:30:26.531Z</time>
      </trkpt>
      <trkpt lat="49.74205" lon="4.77696">
        <ele>100.26</ele>
        <time>2026-08-07T14:30:32.526Z</time>
      </trkpt>
      <trkpt lat="49.74233" lon="4.77734">
        <ele>100.53</ele>
        <time>2026-08-07T14:30:38.508Z</time>
      </trkpt>
      <trkpt lat="49.74264" lon="4.77771">
        <ele>99.81</ele>
        <time>2026-08-07T14:30:44.517Z</time>
      </trkpt>
      <trkpt lat="49.74294" lon="4.77806">
        <ele>98.97</ele>
        <time>2026-08-07T14:30:50.503Z</time>
      </trkpt>
      <trkpt lat="49.74324" lon="4.77837">
        <ele>101.36</ele>
        <time>2026-08-07T14:30:56.519Z</time>
      </trkpt>
      <trkpt lat="49.74351" lon="4.77867">
        <ele>101.11</ele>
        <time>2026-08-07T14:31:02.509Z</time>
      </trkpt>
      <trkpt lat="49.74377" lon="4.77895">
        <ele>101.67</ele>
        <time>2026-08-07T14:31:08.499Z</time>
      </trkpt>
      <trkpt lat="49.7441" lon="4.77912">
        <ele>99.95</ele>
        <time>2026-08-07T14:31:14.503Z</time>
      </trkpt>
      <trkpt lat="49.74441" lon="4.77917">
        <ele>101.84</ele>
        <time>2026-08-07T14:31:20.502Z</time>
      </trkpt>
      <trkpt lat="49.7447" lon="4.77912">
        <ele>105.27</ele>
        <time>2026-08-07T14:31:26.534Z</time>
      </trkpt>
      <trkpt lat="49.74499" lon="4.77902">
        <ele>106.87</ele>
        <time>2026-08-07T14:31:32.515Z</time>
      </trkpt>
      <trkpt lat="49.74521" lon="4.7788">
        <ele>105.35</ele>
        <time>2026-08-07T14:31:38.500Z</time>
      </trkpt>
      <trkpt lat="49.74538" lon="4.77859">
        <ele>103.45</ele>
        <time>2026-08-07T14:31:44.501Z</time>
      </trkpt>
      <trkpt lat="49.74553" lon="4.77838">
        <ele>105.4</ele>
        <time>2026-08-07T14:31:50.507Z</time>
      </trkpt>
      <trkpt lat="49.74575" lon="4.77813">
        <ele>105.46</ele>
        <time>2026-08-07T14:31:56.530Z</time>
      </trkpt>
      <trkpt lat="49.74598" lon="4.77782">
        <ele>104.96</ele>
        <time>2026-08-07T14:32:02.517Z</time>
      </trkpt>
      <trkpt lat="49.7462" lon="4.77746">
        <ele>103.12</ele>
        <time>2026-08-07T14:32:08.500Z</time>
      </trkpt>
      <trkpt lat="49.74639" lon="4.777">
        <ele>102.13</ele>
        <time>2026-08-07T14:32:14.498Z</time>
      </trkpt>
      <trkpt lat="49.74657" lon="4.77657">
        <ele>101.71</ele>
        <time>2026-08-07T14:32:20.501Z</time>
      </trkpt>
      <trkpt lat="49.74675" lon="4.77611">
        <ele>102.49</ele>
        <time>2026-08-07T14:32:26.528Z</time>
      </trkpt>
      <trkpt lat="49.74693" lon="4.7756">
        <ele>102.79</ele>
        <time>2026-08-07T14:32:32.517Z</time>
      </trkpt>
      <trkpt lat="49.74712" lon="4.77512">
        <ele>102.25</ele>
        <time>2026-08-07T14:32:38.498Z</time>
      </trkpt>
      <trkpt lat="49.74733" lon="4.7746">
        <ele>101.85</ele>
        <time>2026-08-07T14:32:44.503Z</time>
      </trkpt>
      <trkpt lat="49.74753" lon="4.77406">
        <ele>101.83</ele>
        <time>2026-08-07T14:32:50.502Z</time>
      </trkpt>
      <trkpt lat="49.74775" lon="4.77354">
        <ele>101.33</ele>
        <time>2026-08-07T14:32:56.528Z</time>
      </trkpt>
      <trkpt lat="49.74795" lon="4.77298">
        <ele>102.25</ele>
        <time>2026-08-07T14:33:02.521Z</time>
      </trkpt>
      <trkpt lat="49.74817" lon="4.77246">
        <ele>104.02</ele>
        <time>2026-08-07T14:33:08.496Z</time>
      </trkpt>
      <trkpt lat="49.74837" lon="4.77194">
        <ele>103.15</ele>
        <time>2026-08-07T14:33:14.495Z</time>
      </trkpt>
      <trkpt lat="49.74858" lon="4.77142">
        <ele>103.87</ele>
        <time>2026-08-07T14:33:20.507Z</time>
      </trkpt>
      <trkpt lat="49.74877" lon="4.77089">
        <ele>102.9</ele>
        <time>2026-08-07T14:33:26.531Z</time>
      </trkpt>
      <trkpt lat="49.74897" lon="4.77038">
        <ele>101.84</ele>
        <time>2026-08-07T14:33:32.517Z</time>
      </trkpt>
      <trkpt lat="49.74917" lon="4.76987">
        <ele>101.89</ele>
        <time>2026-08-07T14:33:38.504Z</time>
      </trkpt>
      <trkpt lat="49.74937" lon="4.76937">
        <ele>102.92</ele>
        <time>2026-08-07T14:33:44.508Z</time>
      </trkpt>
      <trkpt lat="49.74955" lon="4.76886">
        <ele>103</ele>
        <time>2026-08-07T14:33:50.505Z</time>
      </trkpt>
      <trkpt lat="49.74975" lon="4.76837">
        <ele>103.31</ele>
        <time>2026-08-07T14:33:56.533Z</time>
      </trkpt>
      <trkpt lat="49.74993" lon="4.76787">
        <ele>104.13</ele>
        <time>2026-08-07T14:34:02.519Z</time>
      </trkpt>
      <trkpt lat="49.7501" lon="4.76747">
        <ele>105.42</ele>
        <time>2026-08-07T14:34:08.506Z</time>
      </trkpt>
      <trkpt lat="49.75026" lon="4.76709">
        <ele>105.48</ele>
        <time>2026-08-07T14:34:14.507Z</time>
      </trkpt>
      <trkpt lat="49.75045" lon="4.76656">
        <ele>104.81</ele>
        <time>2026-08-07T14:34:20.508Z</time>
      </trkpt>
      <trkpt lat="49.75066" lon="4.76598">
        <ele>104.75</ele>
        <time>2026-08-07T14:34:26.529Z</time>
      </trkpt>
      <trkpt lat="49.75088" lon="4.76542">
        <ele>104.01</ele>
        <time>2026-08-07T14:34:32.530Z</time>
      </trkpt>
      <trkpt lat="49.7511" lon="4.7649">
        <ele>104.1</ele>
        <time>2026-08-07T14:34:38.507Z</time>
      </trkpt>
      <trkpt lat="49.75134" lon="4.7644">
        <ele>104.28</ele>
        <time>2026-08-07T14:34:44.507Z</time>
      </trkpt>
      <trkpt lat="49.75158" lon="4.76397">
        <ele>103.9</ele>
        <time>2026-08-07T14:34:50.506Z</time>
      </trkpt>
      <trkpt lat="49.75183" lon="4.76351">
        <ele>103.46</ele>
        <time>2026-08-07T14:34:56.528Z</time>
      </trkpt>
      <trkpt lat="49.75206" lon="4.76307">
        <ele>104.32</ele>
        <time>2026-08-07T14:35:02.515Z</time>
      </trkpt>
      <trkpt lat="49.75228" lon="4.76263">
        <ele>104.18</ele>
        <time>2026-08-07T14:35:08.513Z</time>
      </trkpt>
      <trkpt lat="49.7525" lon="4.76218">
        <ele>103.47</ele>
        <time>2026-08-07T14:35:14.509Z</time>
      </trkpt>
      <trkpt lat="49.75273" lon="4.76172">
        <ele>103.04</ele>
        <time>2026-08-07T14:35:20.509Z</time>
      </trkpt>
      <trkpt lat="49.75297" lon="4.76127">
        <ele>102.13</ele>
        <time>2026-08-07T14:35:26.521Z</time>
      </trkpt>
      <trkpt lat="49.75318" lon="4.76086">
        <ele>101.05</ele>
        <time>2026-08-07T14:35:32.516Z</time>
      </trkpt>
      <trkpt lat="49.7534" lon="4.76041">
        <ele>100.99</ele>
        <time>2026-08-07T14:35:38.509Z</time>
      </trkpt>
      <trkpt lat="49.75364" lon="4.75994">
        <ele>100.13</ele>
        <time>2026-08-07T14:35:44.495Z</time>
      </trkpt>
      <trkpt lat="49.75394" lon="4.75949">
        <ele>100.15</ele>
        <time>2026-08-07T14:35:50.509Z</time>
      </trkpt>
      <trkpt lat="49.75423" lon="4.75904">
        <ele>100.78</ele>
        <time>2026-08-07T14:35:56.517Z</time>
      </trkpt>
      <trkpt lat="49.75446" lon="4.75857">
        <ele>101.37</ele>
        <time>2026-08-07T14:36:02.516Z</time>
      </trkpt>
      <trkpt lat="49.75467" lon="4.75815">
        <ele>101.77</ele>
        <time>2026-08-07T14:36:08.513Z</time>
      </trkpt>
      <trkpt lat="49.75488" lon="4.75779">
        <ele>101.3</ele>
        <time>2026-08-07T14:36:14.510Z</time>
      </trkpt>
      <trkpt lat="49.75506" lon="4.75735">
        <ele>99.04</ele>
        <time>2026-08-07T14:36:20.508Z</time>
      </trkpt>
      <trkpt lat="49.75525" lon="4.75685">
        <ele>98.59</ele>
        <time>2026-08-07T14:36:26.521Z</time>
      </trkpt>
      <trkpt lat="49.75538" lon="4.75634">
        <ele>101.16</ele>
        <time>2026-08-07T14:36:32.515Z</time>
      </trkpt>
      <trkpt lat="49.75549" lon="4.75579">
        <ele>101.64</ele>
        <time>2026-08-07T14:36:38.511Z</time>
      </trkpt>
      <trkpt lat="49.75559" lon="4.75524">
        <ele>101.66</ele>
        <time>2026-08-07T14:36:44.507Z</time>
      </trkpt>
      <trkpt lat="49.75567" lon="4.75469">
        <ele>101.64</ele>
        <time>2026-08-07T14:36:50.512Z</time>
      </trkpt>
      <trkpt lat="49.75575" lon="4.75412">
        <ele>101.82</ele>
        <time>2026-08-07T14:36:56.518Z</time>
      </trkpt>
      <trkpt lat="49.75583" lon="4.75359">
        <ele>102.52</ele>
        <time>2026-08-07T14:37:02.516Z</time>
      </trkpt>
      <trkpt lat="49.75592" lon="4.75307">
        <ele>102.34</ele>
        <time>2026-08-07T14:37:08.513Z</time>
      </trkpt>
      <trkpt lat="49.756" lon="4.7525">
        <ele>101.36</ele>
        <time>2026-08-07T14:37:14.514Z</time>
      </trkpt>
      <trkpt lat="49.75606" lon="4.7519">
        <ele>104.58</ele>
        <time>2026-08-07T14:37:20.517Z</time>
      </trkpt>
      <trkpt lat="49.75612" lon="4.75132">
        <ele>105.41</ele>
        <time>2026-08-07T14:37:26.532Z</time>
      </trkpt>
      <trkpt lat="49.75618" lon="4.75074">
        <ele>104.59</ele>
        <time>2026-08-07T14:37:32.517Z</time>
      </trkpt>
      <trkpt lat="49.75621" lon="4.75014">
        <ele>103.11</ele>
        <time>2026-08-07T14:37:38.512Z</time>
      </trkpt>
      <trkpt lat="49.75623" lon="4.74955">
        <ele>102.11</ele>
        <time>2026-08-07T14:37:44.517Z</time>
      </trkpt>
      <trkpt lat="49.75628" lon="4.74904">
        <ele>101.31</ele>
        <time>2026-08-07T14:37:50.512Z</time>
      </trkpt>
      <trkpt lat="49.75632" lon="4.7485">
        <ele>102.28</ele>
        <time>2026-08-07T14:37:56.515Z</time>
      </trkpt>
      <trkpt lat="49.75634" lon="4.74793">
        <ele>102.64</ele>
        <time>2026-08-07T14:38:02.516Z</time>
      </trkpt>
      <trkpt lat="49.75636" lon="4.74737">
        <ele>101.88</ele>
        <time>2026-08-07T14:38:08.515Z</time>
      </trkpt>
      <trkpt lat="49.75639" lon="4.74679">
        <ele>101.02</ele>
        <time>2026-08-07T14:38:14.511Z</time>
      </trkpt>
      <trkpt lat="49.75643" lon="4.74624">
        <ele>100.89</ele>
        <time>2026-08-07T14:38:20.512Z</time>
      </trkpt>
      <trkpt lat="49.75647" lon="4.74566">
        <ele>100.61</ele>
        <time>2026-08-07T14:38:26.519Z</time>
      </trkpt>
      <trkpt lat="49.7565" lon="4.74508">
        <ele>101.62</ele>
        <time>2026-08-07T14:38:32.516Z</time>
      </trkpt>
      <trkpt lat="49.75653" lon="4.74449">
        <ele>102.87</ele>
        <time>2026-08-07T14:38:38.512Z</time>
      </trkpt>
      <trkpt lat="49.75655" lon="4.74388">
        <ele>104.13</ele>
        <time>2026-08-07T14:38:44.513Z</time>
      </trkpt>
      <trkpt lat="49.75658" lon="4.74329">
        <ele>104.16</ele>
        <time>2026-08-07T14:38:50.513Z</time>
      </trkpt>
      <trkpt lat="49.75657" lon="4.74269">
        <ele>105.02</ele>
        <time>2026-08-07T14:38:56.513Z</time>
      </trkpt>
      <trkpt lat="49.75655" lon="4.74209">
        <ele>105.45</ele>
        <time>2026-08-07T14:39:02.512Z</time>
      </trkpt>
      <trkpt lat="49.75651" lon="4.7415">
        <ele>104.32</ele>
        <time>2026-08-07T14:39:08.514Z</time>
      </trkpt>
      <trkpt lat="49.75648" lon="4.74093">
        <ele>102.87</ele>
        <time>2026-08-07T14:39:14.510Z</time>
      </trkpt>
      <trkpt lat="49.75643" lon="4.74033">
        <ele>104.37</ele>
        <time>2026-08-07T14:39:20.510Z</time>
      </trkpt>
      <trkpt lat="49.75635" lon="4.73973">
        <ele>104.57</ele>
        <time>2026-08-07T14:39:26.509Z</time>
      </trkpt>
      <trkpt lat="49.75625" lon="4.73915">
        <ele>104.65</ele>
        <time>2026-08-07T14:39:32.510Z</time>
      </trkpt>
      <trkpt lat="49.75614" lon="4.73856">
        <ele>105.25</ele>
        <time>2026-08-07T14:39:38.509Z</time>
      </trkpt>
      <trkpt lat="49.75604" lon="4.73797">
        <ele>107.45</ele>
        <time>2026-08-07T14:39:44.523Z</time>
      </trkpt>
      <trkpt lat="49.75597" lon="4.73734">
        <ele>105.94</ele>
        <time>2026-08-07T14:39:50.510Z</time>
      </trkpt>
      <trkpt lat="49.7559" lon="4.73675">
        <ele>102.55</ele>
        <time>2026-08-07T14:39:56.524Z</time>
      </trkpt>
      <trkpt lat="49.75586" lon="4.73614">
        <ele>101.37</ele>
        <time>2026-08-07T14:40:02.511Z</time>
      </trkpt>
      <trkpt lat="49.75586" lon="4.73552">
        <ele>100.97</ele>
        <time>2026-08-07T14:40:08.510Z</time>
      </trkpt>
      <trkpt lat="49.7559" lon="4.73492">
        <ele>100.39</ele>
        <time>2026-08-07T14:40:14.503Z</time>
      </trkpt>
      <trkpt lat="49.75598" lon="4.73432">
        <ele>100.59</ele>
        <time>2026-08-07T14:40:20.511Z</time>
      </trkpt>
      <trkpt lat="49.7561" lon="4.73373">
        <ele>100.24</ele>
        <time>2026-08-07T14:40:26.520Z</time>
      </trkpt>
      <trkpt lat="49.7562" lon="4.73315">
        <ele>100.97</ele>
        <time>2026-08-07T14:40:32.507Z</time>
      </trkpt>
      <trkpt lat="49.75632" lon="4.73258">
        <ele>100.3</ele>
        <time>2026-08-07T14:40:38.511Z</time>
      </trkpt>
      <trkpt lat="49.75646" lon="4.73201">
        <ele>101.08</ele>
        <time>2026-08-07T14:40:44.513Z</time>
      </trkpt>
      <trkpt lat="49.7566" lon="4.73144">
        <ele>101.64</ele>
        <time>2026-08-07T14:40:50.507Z</time>
      </trkpt>
      <trkpt lat="49.75674" lon="4.7309">
        <ele>99.95</ele>
        <time>2026-08-07T14:40:56.495Z</time>
      </trkpt>
      <trkpt lat="49.75688" lon="4.73035">
        <ele>102.22</ele>
        <time>2026-08-07T14:41:02.511Z</time>
      </trkpt>
      <trkpt lat="49.757" lon="4.72981">
        <ele>101.92</ele>
        <time>2026-08-07T14:41:08.512Z</time>
      </trkpt>
      <trkpt lat="49.75711" lon="4.72929">
        <ele>100.49</ele>
        <time>2026-08-07T14:41:14.510Z</time>
      </trkpt>
      <trkpt lat="49.75724" lon="4.72878">
        <ele>101</ele>
        <time>2026-08-07T14:41:20.514Z</time>
      </trkpt>
      <trkpt lat="49.75729" lon="4.72822">
        <ele>102.03</ele>
        <time>2026-08-07T14:41:26.523Z</time>
      </trkpt>
      <trkpt lat="49.75738" lon="4.72769">
        <ele>101.76</ele>
        <time>2026-08-07T14:41:32.517Z</time>
      </trkpt>
      <trkpt lat="49.75747" lon="4.72714">
        <ele>101.53</ele>
        <time>2026-08-07T14:41:38.498Z</time>
      </trkpt>
      <trkpt lat="49.75755" lon="4.72658">
        <ele>101.75</ele>
        <time>2026-08-07T14:41:44.509Z</time>
      </trkpt>
      <trkpt lat="49.75772" lon="4.72615">
        <ele>99.96</ele>
        <time>2026-08-07T14:41:50.556Z</time>
      </trkpt>
      <trkpt lat="49.75779" lon="4.72584">
        <ele>100.59</ele>
        <time>2026-08-07T14:41:56.526Z</time>
      </trkpt>
      <trkpt lat="49.75789" lon="4.72593">
        <ele>101.07</ele>
        <time>2026-08-07T14:42:02.509Z</time>
      </trkpt>
      <trkpt lat="49.75795" lon="4.72583">
        <ele>161.06</ele>
        <time>2026-08-07T14:43:15.453Z</time>
      </trkpt>
      <trkpt lat="49.7581" lon="4.72575">
        <ele>161.06</ele>
        <time>2026-08-07T14:43:20.514Z</time>
      </trkpt>
      <trkpt lat="49.75835" lon="4.72564">
        <ele>161.06</ele>
        <time>2026-08-07T14:43:26.499Z</time>
      </trkpt>
      <trkpt lat="49.75866" lon="4.72554">
        <ele>161.06</ele>
        <time>2026-08-07T14:43:32.508Z</time>
      </trkpt>
      <trkpt lat="49.75896" lon="4.72542">
        <ele>161.06</ele>
        <time>2026-08-07T14:43:38.532Z</time>
      </trkpt>
      <trkpt lat="49.75926" lon="4.72519">
        <ele>161.06</ele>
        <time>2026-08-07T14:43:44.518Z</time>
      </trkpt>
      <trkpt lat="49.75954" lon="4.72514">
        <ele>161.06</ele>
        <time>2026-08-07T14:43:50.497Z</time>
      </trkpt>
      <trkpt lat="49.75981" lon="4.72499">
        <ele>161.06</ele>
        <time>2026-08-07T14:43:56.521Z</time>
      </trkpt>
      <trkpt lat="49.76012" lon="4.72483">
        <ele>161.06</ele>
        <time>2026-08-07T14:44:02.522Z</time>
      </trkpt>
      <trkpt lat="49.76041" lon="4.72475">
        <ele>161.06</ele>
        <time>2026-08-07T14:44:08.514Z</time>
      </trkpt>
      <trkpt lat="49.76069" lon="4.72464">
        <ele>161.06</ele>
        <time>2026-08-07T14:44:14.508Z</time>
      </trkpt>
      <trkpt lat="49.76093" lon="4.72434">
        <ele>161.07</ele>
        <time>2026-08-07T14:44:20.505Z</time>
      </trkpt>
      <trkpt lat="49.76124" lon="4.72411">
        <ele>161.07</ele>
        <time>2026-08-07T14:44:26.528Z</time>
      </trkpt>
      <trkpt lat="49.76156" lon="4.72395">
        <ele>161.07</ele>
        <time>2026-08-07T14:44:32.515Z</time>
      </trkpt>
      <trkpt lat="49.76194" lon="4.72397">
        <ele>161.07</ele>
        <time>2026-08-07T14:44:38.506Z</time>
      </trkpt>
      <trkpt lat="49.76207" lon="4.72459">
        <ele>93.72</ele>
        <time>2026-08-07T14:44:44.512Z</time>
      </trkpt>
      <trkpt lat="49.76219" lon="4.72514">
        <ele>93.38</ele>
        <time>2026-08-07T14:44:50.503Z</time>
      </trkpt>
      <trkpt lat="49.76231" lon="4.72566">
        <ele>92.18</ele>
        <time>2026-08-07T14:44:56.524Z</time>
      </trkpt>
      <trkpt lat="49.76246" lon="4.72613">
        <ele>90.08</ele>
        <time>2026-08-07T14:45:02.509Z</time>
      </trkpt>
      <trkpt lat="49.76259" lon="4.72665">
        <ele>90.39</ele>
        <time>2026-08-07T14:45:08.514Z</time>
      </trkpt>
      <trkpt lat="49.76277" lon="4.72708">
        <ele>94.94</ele>
        <time>2026-08-07T14:45:14.503Z</time>
      </trkpt>
      <trkpt lat="49.76296" lon="4.72739">
        <ele>95.47</ele>
        <time>2026-08-07T14:45:20.511Z</time>
      </trkpt>
      <trkpt lat="49.7631" lon="4.72764">
        <ele>94.55</ele>
        <time>2026-08-07T14:45:26.510Z</time>
      </trkpt>
      <trkpt lat="49.76303" lon="4.72747">
        <ele>94.25</ele>
        <time>2026-08-07T14:45:36.468Z</time>
      </trkpt>
      <trkpt lat="49.76293" lon="4.72729">
        <ele>95.71</ele>
        <time>2026-08-07T14:45:42.455Z</time>
      </trkpt>
      <trkpt lat="49.76279" lon="4.72716">
        <ele>96.09</ele>
        <time>2026-08-07T14:45:47.473Z</time>
      </trkpt>
      <trkpt lat="49.76269" lon="4.72695">
        <ele>98.46</ele>
        <time>2026-08-07T14:45:53.449Z</time>
      </trkpt>
      <trkpt lat="49.76263" lon="4.72671">
        <ele>100.37</ele>
        <time>2026-08-07T14:45:59.455Z</time>
      </trkpt>
      <trkpt lat="49.76257" lon="4.72648">
        <ele>103.64</ele>
        <time>2026-08-07T14:46:05.472Z</time>
      </trkpt>
      <trkpt lat="49.76253" lon="4.72627">
        <ele>106.29</ele>
        <time>2026-08-07T14:46:11.465Z</time>
      </trkpt>
      <trkpt lat="49.76242" lon="4.72608">
        <ele>106.32</ele>
        <time>2026-08-07T14:46:16.471Z</time>
      </trkpt>
      <trkpt lat="49.76234" lon="4.72581">
        <ele>105.55</ele>
        <time>2026-08-07T14:46:22.464Z</time>
      </trkpt>
      <trkpt lat="49.76225" lon="4.72545">
        <ele>103.84</ele>
        <time>2026-08-07T14:46:28.470Z</time>
      </trkpt>
      <trkpt lat="49.76219" lon="4.72504">
        <ele>103.82</ele>
        <time>2026-08-07T14:46:34.460Z</time>
      </trkpt>
      <trkpt lat="49.76212" lon="4.72468">
        <ele>104.52</ele>
        <time>2026-08-07T14:46:40.458Z</time>
      </trkpt>
      <trkpt lat="49.76207" lon="4.72439">
        <ele>104.28</ele>
        <time>2026-08-07T14:46:45.459Z</time>
      </trkpt>
      <trkpt lat="49.76199" lon="4.72416">
        <ele>102.2</ele>
        <time>2026-08-07T14:46:50.501Z</time>
      </trkpt>
      <trkpt lat="49.76178" lon="4.72396">
        <ele>100.13</ele>
        <time>2026-08-07T14:46:56.529Z</time>
      </trkpt>
      <trkpt lat="49.7615" lon="4.72397">
        <ele>100.8</ele>
        <time>2026-08-07T14:47:02.519Z</time>
      </trkpt>
      <trkpt lat="49.76127" lon="4.724">
        <ele>164.5</ele>
        <time>2026-08-07T14:47:08.502Z</time>
      </trkpt>
      <trkpt lat="49.76103" lon="4.72419">
        <ele>164.57</ele>
        <time>2026-08-07T14:47:14.508Z</time>
      </trkpt>
      <trkpt lat="49.7608" lon="4.72446">
        <ele>164.56</ele>
        <time>2026-08-07T14:47:20.508Z</time>
      </trkpt>
      <trkpt lat="49.76052" lon="4.72467">
        <ele>105.73</ele>
        <time>2026-08-07T14:47:26.528Z</time>
      </trkpt>
      <trkpt lat="49.76019" lon="4.72478">
        <ele>101.8</ele>
        <time>2026-08-07T14:47:32.523Z</time>
      </trkpt>
      <trkpt lat="49.75985" lon="4.7249">
        <ele>102.88</ele>
        <time>2026-08-07T14:47:38.509Z</time>
      </trkpt>
      <trkpt lat="49.75951" lon="4.72508">
        <ele>102.45</ele>
        <time>2026-08-07T14:47:44.512Z</time>
      </trkpt>
      <trkpt lat="49.75918" lon="4.72528">
        <ele>101.19</ele>
        <time>2026-08-07T14:47:50.510Z</time>
      </trkpt>
      <trkpt lat="49.75883" lon="4.72547">
        <ele>101.1</ele>
        <time>2026-08-07T14:47:56.508Z</time>
      </trkpt>
      <trkpt lat="49.75866" lon="4.72564">
        <ele>104</ele>
        <time>2026-08-07T14:48:02.522Z</time>
      </trkpt>
      <trkpt lat="49.75858" lon="4.72558">
        <ele>149.19</ele>
        <time>2026-08-07T14:48:11.478Z</time>
      </trkpt>
      <trkpt lat="49.75854" lon="4.72537">
        <ele>149.36</ele>
        <time>2026-08-07T14:48:17.463Z</time>
      </trkpt>
      <trkpt lat="49.75846" lon="4.72501">
        <ele>150.02</ele>
        <time>2026-08-07T14:48:23.452Z</time>
      </trkpt>
      <trkpt lat="49.75841" lon="4.72461">
        <ele>150.06</ele>
        <time>2026-08-07T14:48:28.468Z</time>
      </trkpt>
      <trkpt lat="49.75846" lon="4.72396">
        <ele>150.07</ele>
        <time>2026-08-07T14:48:34.467Z</time>
      </trkpt>
      <trkpt lat="49.75857" lon="4.7234">
        <ele>150.07</ele>
        <time>2026-08-07T14:48:40.471Z</time>
      </trkpt>
      <trkpt lat="49.75865" lon="4.72296">
        <ele>150.07</ele>
        <time>2026-08-07T14:48:46.450Z</time>
      </trkpt>
      <trkpt lat="49.75868" lon="4.72282">
        <ele>150.07</ele>
        <time>2026-08-07T14:48:52.458Z</time>
      </trkpt>
      <trkpt lat="49.75871" lon="4.72265">
        <ele>153.46</ele>
        <time>2026-08-07T14:49:06.450Z</time>
      </trkpt>
      <trkpt lat="49.75878" lon="4.7224">
        <ele>153.47</ele>
        <time>2026-08-07T14:49:11.466Z</time>
      </trkpt>
      <trkpt lat="49.75887" lon="4.72209">
        <ele>153.47</ele>
        <time>2026-08-07T14:49:16.469Z</time>
      </trkpt>
      <trkpt lat="49.75899" lon="4.72175">
        <ele>153.47</ele>
        <time>2026-08-07T14:49:21.469Z</time>
      </trkpt>
      <trkpt lat="49.75918" lon="4.72147">
        <ele>153.47</ele>
        <time>2026-08-07T14:49:26.533Z</time>
      </trkpt>
      <trkpt lat="49.75936" lon="4.72117">
        <ele>153.47</ele>
        <time>2026-08-07T14:49:32.518Z</time>
      </trkpt>
      <trkpt lat="49.75953" lon="4.72088">
        <ele>153.47</ele>
        <time>2026-08-07T14:49:38.513Z</time>
      </trkpt>
      <trkpt lat="49.75966" lon="4.72062">
        <ele>153.47</ele>
        <time>2026-08-07T14:49:44.519Z</time>
      </trkpt>
      <trkpt lat="49.75982" lon="4.72037">
        <ele>153.47</ele>
        <time>2026-08-07T14:49:50.505Z</time>
      </trkpt>
      <trkpt lat="49.76001" lon="4.72006">
        <ele>153.47</ele>
        <time>2026-08-07T14:49:56.521Z</time>
      </trkpt>
      <trkpt lat="49.76025" lon="4.71989">
        <ele>153.47</ele>
        <time>2026-08-07T14:50:02.518Z</time>
      </trkpt>
      <trkpt lat="49.76054" lon="4.7199">
        <ele>153.47</ele>
        <time>2026-08-07T14:50:08.508Z</time>
      </trkpt>
      <trkpt lat="49.76061" lon="4.71961">
        <ele>153.47</ele>
        <time>2026-08-07T14:50:14.498Z</time>
      </trkpt>
      <trkpt lat="49.76065" lon="4.71938">
        <ele>148.09</ele>
        <time>2026-08-07T14:50:20.495Z</time>
      </trkpt>
      <trkpt lat="49.76068" lon="4.71925">
        <ele>148.07</ele>
        <time>2026-08-07T14:50:28.450Z</time>
      </trkpt>
      <trkpt lat="49.7607" lon="4.71912">
        <ele>148.27</ele>
        <time>2026-08-07T14:50:37.466Z</time>
      </trkpt>
      <trkpt lat="49.7606" lon="4.71917">
        <ele>148.27</ele>
        <time>2026-08-07T14:52:08.508Z</time>
      </trkpt>
      <trkpt lat="49.76054" lon="4.71895">
        <ele>148.55</ele>
        <time>2026-08-07T14:52:14.505Z</time>
      </trkpt>
      <trkpt lat="49.76062" lon="4.71847">
        <ele>148.57</ele>
        <time>2026-08-07T14:52:20.502Z</time>
      </trkpt>
      <trkpt lat="49.76062" lon="4.7181">
        <ele>148.57</ele>
        <time>2026-08-07T14:52:26.516Z</time>
      </trkpt>
      <trkpt lat="49.76067" lon="4.71766">
        <ele>148.57</ele>
        <time>2026-08-07T14:52:32.520Z</time>
      </trkpt>
      <trkpt lat="49.76065" lon="4.71732">
        <ele>148.2</ele>
        <time>2026-08-07T14:52:38.522Z</time>
      </trkpt>
      <trkpt lat="49.76054" lon="4.71734">
        <ele>148.1</ele>
        <time>2026-08-07T14:52:44.500Z</time>
      </trkpt>
      <trkpt lat="49.7603" lon="4.71728">
        <ele>148.07</ele>
        <time>2026-08-07T14:52:50.508Z</time>
      </trkpt>
      <trkpt lat="49.76004" lon="4.7173">
        <ele>148.07</ele>
        <time>2026-08-07T14:52:56.531Z</time>
      </trkpt>
      <trkpt lat="49.75987" lon="4.71729">
        <ele>148.07</ele>
        <time>2026-08-07T14:53:02.538Z</time>
      </trkpt>
      <trkpt lat="49.75977" lon="4.71731">
        <ele>147.67</ele>
        <time>2026-08-07T14:53:26.488Z</time>
      </trkpt>
      <trkpt lat="49.75952" lon="4.71732">
        <ele>147.67</ele>
        <time>2026-08-07T14:53:32.528Z</time>
      </trkpt>
      <trkpt lat="49.75924" lon="4.71735">
        <ele>147.67</ele>
        <time>2026-08-07T14:53:38.498Z</time>
      </trkpt>
      <trkpt lat="49.75898" lon="4.7174">
        <ele>148.07</ele>
        <time>2026-08-07T14:53:44.506Z</time>
      </trkpt>
      <trkpt lat="49.7589" lon="4.71707">
        <ele>148.07</ele>
        <time>2026-08-07T14:53:50.510Z</time>
      </trkpt>
      <trkpt lat="49.75892" lon="4.7165">
        <ele>148.07</ele>
        <time>2026-08-07T14:53:56.519Z</time>
      </trkpt>
      <trkpt lat="49.7589" lon="4.71591">
        <ele>148.07</ele>
        <time>2026-08-07T14:54:02.514Z</time>
      </trkpt>
      <trkpt lat="49.75891" lon="4.71532">
        <ele>148.07</ele>
        <time>2026-08-07T14:54:08.501Z</time>
      </trkpt>
      <trkpt lat="49.75891" lon="4.71479">
        <ele>148.07</ele>
        <time>2026-08-07T14:54:14.496Z</time>
      </trkpt>
      <trkpt lat="49.75892" lon="4.71434">
        <ele>148.08</ele>
        <time>2026-08-07T14:54:20.491Z</time>
      </trkpt>
      <trkpt lat="49.75894" lon="4.7139">
        <ele>148.08</ele>
        <time>2026-08-07T14:54:26.521Z</time>
      </trkpt>
      <trkpt lat="49.75894" lon="4.71337">
        <ele>148.08</ele>
        <time>2026-08-07T14:54:32.523Z</time>
      </trkpt>
      <trkpt lat="49.75891" lon="4.71286">
        <ele>148.08</ele>
        <time>2026-08-07T14:54:38.499Z</time>
      </trkpt>
      <trkpt lat="49.75889" lon="4.71232">
        <ele>148.08</ele>
        <time>2026-08-07T14:54:44.495Z</time>
      </trkpt>
      <trkpt lat="49.75889" lon="4.71182">
        <ele>148.08</ele>
        <time>2026-08-07T14:54:50.508Z</time>
      </trkpt>
      <trkpt lat="49.75877" lon="4.71137">
        <ele>148.08</ele>
        <time>2026-08-07T14:54:56.542Z</time>
      </trkpt>
      <trkpt lat="49.75848" lon="4.71121">
        <ele>148.08</ele>
        <time>2026-08-07T14:55:02.531Z</time>
      </trkpt>
      <trkpt lat="49.75819" lon="4.71134">
        <ele>148.08</ele>
        <time>2026-08-07T14:55:08.490Z</time>
      </trkpt>
      <trkpt lat="49.7579" lon="4.71137">
        <ele>98.21</ele>
        <time>2026-08-07T14:55:14.512Z</time>
      </trkpt>
      <trkpt lat="49.75759" lon="4.71132">
        <ele>96.8</ele>
        <time>2026-08-07T14:55:20.510Z</time>
      </trkpt>
      <trkpt lat="49.75729" lon="4.71129">
        <ele>97.95</ele>
        <time>2026-08-07T14:55:26.534Z</time>
      </trkpt>
      <trkpt lat="49.75699" lon="4.71126">
        <ele>100.74</ele>
        <time>2026-08-07T14:55:32.528Z</time>
      </trkpt>
      <trkpt lat="49.75686" lon="4.71085">
        <ele>102.39</ele>
        <time>2026-08-07T14:55:38.513Z</time>
      </trkpt>
      <trkpt lat="49.75684" lon="4.71043">
        <ele>100.93</ele>
        <time>2026-08-07T14:55:44.515Z</time>
      </trkpt>
      <trkpt lat="49.75682" lon="4.70984">
        <ele>100.19</ele>
        <time>2026-08-07T14:55:50.501Z</time>
      </trkpt>
      <trkpt lat="49.75679" lon="4.70917">
        <ele>100.93</ele>
        <time>2026-08-07T14:55:56.508Z</time>
      </trkpt>
      <trkpt lat="49.75673" lon="4.70855">
        <ele>100.11</ele>
        <time>2026-08-07T14:56:02.512Z</time>
      </trkpt>
      <trkpt lat="49.75649" lon="4.70831">
        <ele>102.25</ele>
        <time>2026-08-07T14:56:08.512Z</time>
      </trkpt>
      <trkpt lat="49.75619" lon="4.70834">
        <ele>102.96</ele>
        <time>2026-08-07T14:56:14.502Z</time>
      </trkpt>
      <trkpt lat="49.75591" lon="4.70832">
        <ele>103.02</ele>
        <time>2026-08-07T14:56:20.521Z</time>
      </trkpt>
      <trkpt lat="49.75572" lon="4.70826">
        <ele>104.55</ele>
        <time>2026-08-07T14:56:26.536Z</time>
      </trkpt>
      <trkpt lat="49.75563" lon="4.70823">
        <ele>107.35</ele>
        <time>2026-08-07T14:56:32.530Z</time>
      </trkpt>
      <trkpt lat="49.75554" lon="4.70829">
        <ele>149.48</ele>
        <time>2026-08-07T14:57:19.451Z</time>
      </trkpt>
      <trkpt lat="49.75537" lon="4.70817">
        <ele>150.42</ele>
        <time>2026-08-07T14:57:24.474Z</time>
      </trkpt>
      <trkpt lat="49.75514" lon="4.70798">
        <ele>150.48</ele>
        <time>2026-08-07T14:57:30.452Z</time>
      </trkpt>
      <trkpt lat="49.75491" lon="4.70792">
        <ele>149.5</ele>
        <time>2026-08-07T14:57:35.470Z</time>
      </trkpt>
      <trkpt lat="49.75459" lon="4.70784">
        <ele>149.48</ele>
        <time>2026-08-07T14:57:41.464Z</time>
      </trkpt>
      <trkpt lat="49.75429" lon="4.70779">
        <ele>149.48</ele>
        <time>2026-08-07T14:57:47.473Z</time>
      </trkpt>
      <trkpt lat="49.75407" lon="4.70762">
        <ele>149.48</ele>
        <time>2026-08-07T14:57:52.473Z</time>
      </trkpt>
      <trkpt lat="49.75387" lon="4.70727">
        <ele>149.48</ele>
        <time>2026-08-07T14:57:58.459Z</time>
      </trkpt>
      <trkpt lat="49.75376" lon="4.70699">
        <ele>149.48</ele>
        <time>2026-08-07T14:58:03.472Z</time>
      </trkpt>
      <trkpt lat="49.75368" lon="4.70673">
        <ele>149.48</ele>
        <time>2026-08-07T14:58:08.497Z</time>
      </trkpt>
      <trkpt lat="49.7536" lon="4.70639">
        <ele>149.48</ele>
        <time>2026-08-07T14:58:14.492Z</time>
      </trkpt>
      <trkpt lat="49.75355" lon="4.70606">
        <ele>149.48</ele>
        <time>2026-08-07T14:58:20.512Z</time>
      </trkpt>
      <trkpt lat="49.75346" lon="4.70578">
        <ele>149.48</ele>
        <time>2026-08-07T14:58:26.535Z</time>
      </trkpt>
      <trkpt lat="49.75338" lon="4.70562">
        <ele>149.48</ele>
        <time>2026-08-07T14:58:32.515Z</time>
      </trkpt>
      <trkpt lat="49.75343" lon="4.70577">
        <ele>158.78</ele>
        <time>2026-08-07T14:58:44.506Z</time>
      </trkpt>
      <trkpt lat="49.7535" lon="4.70598">
        <ele>158.78</ele>
        <time>2026-08-07T14:58:50.495Z</time>
      </trkpt>
      <trkpt lat="49.75352" lon="4.70612">
        <ele>154.58</ele>
        <time>2026-08-07T14:59:07.456Z</time>
      </trkpt>
      <trkpt lat="49.75361" lon="4.70644">
        <ele>151.69</ele>
        <time>2026-08-07T14:59:13.467Z</time>
      </trkpt>
      <trkpt lat="49.75374" lon="4.70695">
        <ele>151.68</ele>
        <time>2026-08-07T14:59:19.459Z</time>
      </trkpt>
      <trkpt lat="49.7539" lon="4.70738">
        <ele>151.68</ele>
        <time>2026-08-07T14:59:24.465Z</time>
      </trkpt>
      <trkpt lat="49.75408" lon="4.70769">
        <ele>151.68</ele>
        <time>2026-08-07T14:59:29.467Z</time>
      </trkpt>
      <trkpt lat="49.75415" lon="4.70779">
        <ele>155.9</ele>
        <time>2026-08-07T14:59:37.448Z</time>
      </trkpt>
      <trkpt lat="49.75429" lon="4.70785">
        <ele>154.78</ele>
        <time>2026-08-07T14:59:49.464Z</time>
      </trkpt>
      <trkpt lat="49.75458" lon="4.70789">
        <ele>154.78</ele>
        <time>2026-08-07T14:59:54.465Z</time>
      </trkpt>
      <trkpt lat="49.75483" lon="4.70795">
        <ele>154.78</ele>
        <time>2026-08-07T14:59:59.489Z</time>
      </trkpt>
      <trkpt lat="49.75511" lon="4.70802">
        <ele>154.78</ele>
        <time>2026-08-07T15:00:05.480Z</time>
      </trkpt>
      <trkpt lat="49.75534" lon="4.70817">
        <ele>153.21</ele>
        <time>2026-08-07T15:00:11.469Z</time>
      </trkpt>
      <trkpt lat="49.75543" lon="4.70821">
        <ele>149.38</ele>
        <time>2026-08-07T15:01:12.468Z</time>
      </trkpt>
      <trkpt lat="49.75557" lon="4.70806">
        <ele>149.48</ele>
        <time>2026-08-07T15:01:18.453Z</time>
      </trkpt>
      <trkpt lat="49.75562" lon="4.70767">
        <ele>149.29</ele>
        <time>2026-08-07T15:01:23.455Z</time>
      </trkpt>
      <trkpt lat="49.75567" lon="4.70724">
        <ele>149.28</ele>
        <time>2026-08-07T15:01:28.461Z</time>
      </trkpt>
      <trkpt lat="49.75565" lon="4.70674">
        <ele>149.28</ele>
        <time>2026-08-07T15:01:34.466Z</time>
      </trkpt>
      <trkpt lat="49.75561" lon="4.70625">
        <ele>149.28</ele>
        <time>2026-08-07T15:01:40.451Z</time>
      </trkpt>
      <trkpt lat="49.75555" lon="4.70578">
        <ele>149.28</ele>
        <time>2026-08-07T15:01:46.448Z</time>
      </trkpt>
      <trkpt lat="49.75553" lon="4.70543">
        <ele>149.28</ele>
        <time>2026-08-07T15:01:51.451Z</time>
      </trkpt>
      <trkpt lat="49.7555" lon="4.70508">
        <ele>149.28</ele>
        <time>2026-08-07T15:01:56.540Z</time>
      </trkpt>
      <trkpt lat="49.7555" lon="4.70469">
        <ele>149.28</ele>
        <time>2026-08-07T15:02:02.517Z</time>
      </trkpt>
      <trkpt lat="49.7556" lon="4.70429">
        <ele>149.29</ele>
        <time>2026-08-07T15:02:08.503Z</time>
      </trkpt>
      <trkpt lat="49.75538" lon="4.704">
        <ele>149.29</ele>
        <time>2026-08-07T15:02:14.510Z</time>
      </trkpt>
      <trkpt lat="49.75518" lon="4.7042">
        <ele>149.29</ele>
        <time>2026-08-07T15:02:20.499Z</time>
      </trkpt>
      <trkpt lat="49.75527" lon="4.70455">
        <ele>149.29</ele>
        <time>2026-08-07T15:02:26.520Z</time>
      </trkpt>
      <trkpt lat="49.75541" lon="4.70492">
        <ele>149.28</ele>
        <time>2026-08-07T15:02:32.515Z</time>
      </trkpt>
      <trkpt lat="49.75536" lon="4.70541">
        <ele>149.28</ele>
        <time>2026-08-07T15:02:38.511Z</time>
      </trkpt>
      <trkpt lat="49.75515" lon="4.70542">
        <ele>149.28</ele>
        <time>2026-08-07T15:02:44.508Z</time>
      </trkpt>
      <trkpt lat="49.75499" lon="4.7054">
        <ele>149.28</ele>
        <time>2026-08-07T15:02:50.502Z</time>
      </trkpt>
      <trkpt lat="49.75481" lon="4.70541">
        <ele>107.61</ele>
        <time>2026-08-07T15:02:56.525Z</time>
      </trkpt>
      <trkpt lat="49.75471" lon="4.70535">
        <ele>109.67</ele>
        <time>2026-08-07T15:03:02.532Z</time>
      </trkpt>
      <trkpt lat="49.75468" lon="4.70515">
        <ele>110.23</ele>
        <time>2026-08-07T15:03:08.512Z</time>
      </trkpt>
      <trkpt lat="49.75463" lon="4.70496">
        <ele>111.59</ele>
        <time>2026-08-07T15:03:14.510Z</time>
      </trkpt>
      <trkpt lat="49.75446" lon="4.70497">
        <ele>111.2</ele>
        <time>2026-08-07T15:03:20.512Z</time>
      </trkpt>
      <trkpt lat="49.75433" lon="4.70489">
        <ele>109.42</ele>
        <time>2026-08-07T15:03:26.513Z</time>
      </trkpt>
      <trkpt lat="49.75421" lon="4.7048">
        <ele>157.08</ele>
        <time>2026-08-07T15:03:56.518Z</time>
      </trkpt>
      <trkpt lat="49.75412" lon="4.7049">
        <ele>157.18</ele>
        <time>2026-08-07T15:04:02.526Z</time>
      </trkpt>
      <trkpt lat="49.75422" lon="4.70489">
        <ele>157.18</ele>
        <time>2026-08-07T15:04:18.464Z</time>
      </trkpt>
      <trkpt lat="49.754" lon="4.70521">
        <ele>157.18</ele>
        <time>2026-08-07T15:09:24.462Z</time>
      </trkpt>
      <trkpt lat="49.75411" lon="4.70505">
        <ele>157.18</ele>
        <time>2026-08-07T15:09:30.249Z</time>
      </trkpt>
      <trkpt lat="49.7542" lon="4.70494">
        <ele>157.18</ele>
        <time>2026-08-07T15:09:35.445Z</time>
      </trkpt>
      <trkpt lat="49.75425" lon="4.70482">
        <ele>157.18</ele>
        <time>2026-08-07T15:09:41.459Z</time>
      </trkpt>
      <trkpt lat="49.75417" lon="4.70475">
        <ele>157.18</ele>
        <time>2026-08-07T15:10:11.464Z</time>
      </trkpt>
      <trkpt lat="49.75418" lon="4.70489">
        <ele>157.18</ele>
        <time>2026-08-07T15:10:19.469Z</time>
      </trkpt>
      <trkpt lat="49.75405" lon="4.70515">
        <ele>157.18</ele>
        <time>2026-08-07T15:10:31.453Z</time>
      </trkpt>
      <trkpt lat="49.7539" lon="4.70535">
        <ele>157.18</ele>
        <time>2026-08-07T15:10:36.461Z</time>
      </trkpt>
      <trkpt lat="49.75415" lon="4.70496">
        <ele>157.18</ele>
        <time>2026-08-07T15:10:51.364Z</time>
      </trkpt>
      <trkpt lat="49.7542" lon="4.70471">
        <ele>157.18</ele>
        <time>2026-08-07T15:10:57.144Z</time>
      </trkpt>
      <trkpt lat="49.75422" lon="4.70485">
        <ele>157.18</ele>
        <time>2026-08-07T15:13:10.459Z</time>
      </trkpt>
      <trkpt lat="49.7543" lon="4.70495">
        <ele>157.18</ele>
        <time>2026-08-07T15:13:17.282Z</time>
      </trkpt>
      <trkpt lat="49.754" lon="4.70505">
        <ele>157.18</ele>
        <time>2026-08-07T15:14:34.863Z</time>
      </trkpt>
      <trkpt lat="49.75408" lon="4.70497">
        <ele>157.28</ele>
        <time>2026-08-07T15:14:40.468Z</time>
      </trkpt>
      <trkpt lat="49.75422" lon="4.70486">
        <ele>157.19</ele>
        <time>2026-08-07T15:14:45.979Z</time>
      </trkpt>
      <trkpt lat="49.75422" lon="4.70472">
        <ele>113.95</ele>
        <time>2026-08-07T15:14:54.464Z</time>
      </trkpt>
      <trkpt lat="49.75415" lon="4.70462">
        <ele>157.19</ele>
        <time>2026-08-07T15:16:12.451Z</time>
      </trkpt>
      <trkpt lat="49.75423" lon="4.70475">
        <ele>157.18</ele>
        <time>2026-08-07T15:31:17.452Z</time>
      </trkpt>
      <trkpt lat="49.75427" lon="4.70463">
        <ele>157.19</ele>
        <time>2026-08-07T15:31:23.471Z</time>
      </trkpt>
      <trkpt lat="49.75426" lon="4.70446">
        <ele>157.19</ele>
        <time>2026-08-07T15:31:28.475Z</time>
      </trkpt>
      <trkpt lat="49.75448" lon="4.70445">
        <ele>157.19</ele>
        <time>2026-08-07T15:31:34.460Z</time>
      </trkpt>
      <trkpt lat="49.75467" lon="4.70444">
        <ele>157.19</ele>
        <time>2026-08-07T15:31:39.464Z</time>
      </trkpt>
      <trkpt lat="49.75488" lon="4.7044">
        <ele>113.44</ele>
        <time>2026-08-07T15:31:44.515Z</time>
      </trkpt>
      <trkpt lat="49.75523" lon="4.7045">
        <ele>109.19</ele>
        <time>2026-08-07T15:31:50.541Z</time>
      </trkpt>
      <trkpt lat="49.75541" lon="4.70501">
        <ele>106.97</ele>
        <time>2026-08-07T15:31:56.529Z</time>
      </trkpt>
      <trkpt lat="49.75541" lon="4.70554">
        <ele>104.58</ele>
        <time>2026-08-07T15:32:02.513Z</time>
      </trkpt>
      <trkpt lat="49.7555" lon="4.70607">
        <ele>103.9</ele>
        <time>2026-08-07T15:32:08.522Z</time>
      </trkpt>
      <trkpt lat="49.75558" lon="4.7066">
        <ele>104.57</ele>
        <time>2026-08-07T15:32:14.508Z</time>
      </trkpt>
      <trkpt lat="49.75561" lon="4.70714">
        <ele>105.25</ele>
        <time>2026-08-07T15:32:20.508Z</time>
      </trkpt>
      <trkpt lat="49.75555" lon="4.70766">
        <ele>106.33</ele>
        <time>2026-08-07T15:32:26.528Z</time>
      </trkpt>
      <trkpt lat="49.75547" lon="4.70809">
        <ele>104.6</ele>
        <time>2026-08-07T15:32:32.520Z</time>
      </trkpt>
      <trkpt lat="49.75539" lon="4.70839">
        <ele>103.88</ele>
        <time>2026-08-07T15:32:38.523Z</time>
      </trkpt>
      <trkpt lat="49.75533" lon="4.70872">
        <ele>105.01</ele>
        <time>2026-08-07T15:32:44.530Z</time>
      </trkpt>
      <trkpt lat="49.7553" lon="4.70904">
        <ele>106.43</ele>
        <time>2026-08-07T15:32:50.506Z</time>
      </trkpt>
      <trkpt lat="49.75527" lon="4.70939">
        <ele>105.86</ele>
        <time>2026-08-07T15:32:56.516Z</time>
      </trkpt>
      <trkpt lat="49.7552" lon="4.70973">
        <ele>106.88</ele>
        <time>2026-08-07T15:33:02.523Z</time>
      </trkpt>
      <trkpt lat="49.75514" lon="4.71002">
        <ele>109.43</ele>
        <time>2026-08-07T15:33:08.513Z</time>
      </trkpt>
      <trkpt lat="49.7551" lon="4.71031">
        <ele>111.67</ele>
        <time>2026-08-07T15:33:14.506Z</time>
      </trkpt>
      <trkpt lat="49.75505" lon="4.71061">
        <ele>113.08</ele>
        <time>2026-08-07T15:33:20.514Z</time>
      </trkpt>
      <trkpt lat="49.75499" lon="4.7109">
        <ele>113.79</ele>
        <time>2026-08-07T15:33:26.511Z</time>
      </trkpt>
      <trkpt lat="49.75494" lon="4.7112">
        <ele>113.21</ele>
        <time>2026-08-07T15:33:32.523Z</time>
      </trkpt>
      <trkpt lat="49.75491" lon="4.71151">
        <ele>112.87</ele>
        <time>2026-08-07T15:33:38.530Z</time>
      </trkpt>
      <trkpt lat="49.75487" lon="4.71181">
        <ele>113.86</ele>
        <time>2026-08-07T15:33:44.528Z</time>
      </trkpt>
      <trkpt lat="49.75483" lon="4.71212">
        <ele>113.94</ele>
        <time>2026-08-07T15:33:50.513Z</time>
      </trkpt>
      <trkpt lat="49.7548" lon="4.71253">
        <ele>111.45</ele>
        <time>2026-08-07T15:33:56.540Z</time>
      </trkpt>
      <trkpt lat="49.75482" lon="4.71293">
        <ele>110.15</ele>
        <time>2026-08-07T15:34:02.517Z</time>
      </trkpt>
      <trkpt lat="49.75488" lon="4.71339">
        <ele>107.16</ele>
        <time>2026-08-07T15:34:08.517Z</time>
      </trkpt>
      <trkpt lat="49.75492" lon="4.71385">
        <ele>107.87</ele>
        <time>2026-08-07T15:34:14.519Z</time>
      </trkpt>
      <trkpt lat="49.75497" lon="4.71438">
        <ele>106.99</ele>
        <time>2026-08-07T15:34:20.518Z</time>
      </trkpt>
      <trkpt lat="49.75501" lon="4.71491">
        <ele>108.06</ele>
        <time>2026-08-07T15:34:26.524Z</time>
      </trkpt>
      <trkpt lat="49.75508" lon="4.71546">
        <ele>109.53</ele>
        <time>2026-08-07T15:34:32.520Z</time>
      </trkpt>
      <trkpt lat="49.75513" lon="4.71602">
        <ele>109.17</ele>
        <time>2026-08-07T15:34:38.524Z</time>
      </trkpt>
      <trkpt lat="49.75523" lon="4.71659">
        <ele>107.51</ele>
        <time>2026-08-07T15:34:44.519Z</time>
      </trkpt>
      <trkpt lat="49.75528" lon="4.71714">
        <ele>106.47</ele>
        <time>2026-08-07T15:34:50.521Z</time>
      </trkpt>
      <trkpt lat="49.75523" lon="4.71757">
        <ele>106.19</ele>
        <time>2026-08-07T15:34:56.519Z</time>
      </trkpt>
      <trkpt lat="49.75518" lon="4.718">
        <ele>104.54</ele>
        <time>2026-08-07T15:35:02.518Z</time>
      </trkpt>
      <trkpt lat="49.75512" lon="4.71839">
        <ele>105.05</ele>
        <time>2026-08-07T15:35:08.521Z</time>
      </trkpt>
      <trkpt lat="49.75507" lon="4.71872">
        <ele>106.94</ele>
        <time>2026-08-07T15:35:14.515Z</time>
      </trkpt>
      <trkpt lat="49.75503" lon="4.71897">
        <ele>108.97</ele>
        <time>2026-08-07T15:35:20.537Z</time>
      </trkpt>
      <trkpt lat="49.75501" lon="4.71924">
        <ele>108.79</ele>
        <time>2026-08-07T15:35:26.527Z</time>
      </trkpt>
      <trkpt lat="49.75495" lon="4.71961">
        <ele>106.82</ele>
        <time>2026-08-07T15:35:32.514Z</time>
      </trkpt>
      <trkpt lat="49.75491" lon="4.71989">
        <ele>107.87</ele>
        <time>2026-08-07T15:35:38.524Z</time>
      </trkpt>
      <trkpt lat="49.75486" lon="4.72025">
        <ele>142.51</ele>
        <time>2026-08-07T15:35:44.606Z</time>
      </trkpt>
      <trkpt lat="49.75495" lon="4.72012">
        <ele>154.37</ele>
        <time>2026-08-07T15:35:52.454Z</time>
      </trkpt>
      <trkpt lat="49.755" lon="4.71982">
        <ele>154.37</ele>
        <time>2026-08-07T15:35:57.519Z</time>
      </trkpt>
      <trkpt lat="49.75517" lon="4.71989">
        <ele>154.37</ele>
        <time>2026-08-07T15:36:03.466Z</time>
      </trkpt>
      <trkpt lat="49.75538" lon="4.71992">
        <ele>153.37</ele>
        <time>2026-08-07T15:36:08.525Z</time>
      </trkpt>
      <trkpt lat="49.75565" lon="4.72013">
        <ele>153.37</ele>
        <time>2026-08-07T15:36:14.516Z</time>
      </trkpt>
      <trkpt lat="49.75608" lon="4.72013">
        <ele>153.37</ele>
        <time>2026-08-07T15:36:20.522Z</time>
      </trkpt>
      <trkpt lat="49.75639" lon="4.72009">
        <ele>153.37</ele>
        <time>2026-08-07T15:36:26.519Z</time>
      </trkpt>
      <trkpt lat="49.75673" lon="4.72007">
        <ele>153.37</ele>
        <time>2026-08-07T15:36:32.519Z</time>
      </trkpt>
      <trkpt lat="49.75699" lon="4.72008">
        <ele>153.37</ele>
        <time>2026-08-07T15:36:38.516Z</time>
      </trkpt>
      <trkpt lat="49.75725" lon="4.7202">
        <ele>153.37</ele>
        <time>2026-08-07T15:36:44.527Z</time>
      </trkpt>
      <trkpt lat="49.7575" lon="4.72028">
        <ele>153.37</ele>
        <time>2026-08-07T15:36:50.517Z</time>
      </trkpt>
      <trkpt lat="49.75771" lon="4.72014">
        <ele>153.37</ele>
        <time>2026-08-07T15:36:56.548Z</time>
      </trkpt>
      <trkpt lat="49.75786" lon="4.71976">
        <ele>153.37</ele>
        <time>2026-08-07T15:37:02.517Z</time>
      </trkpt>
      <trkpt lat="49.75799" lon="4.71946">
        <ele>147.59</ele>
        <time>2026-08-07T15:37:08.530Z</time>
      </trkpt>
      <trkpt lat="49.75811" lon="4.71909">
        <ele>147.57</ele>
        <time>2026-08-07T15:37:14.516Z</time>
      </trkpt>
      <trkpt lat="49.75825" lon="4.71871">
        <ele>147.57</ele>
        <time>2026-08-07T15:37:20.534Z</time>
      </trkpt>
      <trkpt lat="49.75841" lon="4.71861">
        <ele>147.57</ele>
        <time>2026-08-07T15:37:26.541Z</time>
      </trkpt>
      <trkpt lat="49.75857" lon="4.71868">
        <ele>147.57</ele>
        <time>2026-08-07T15:37:32.520Z</time>
      </trkpt>
      <trkpt lat="49.7588" lon="4.71877">
        <ele>147.57</ele>
        <time>2026-08-07T15:37:38.525Z</time>
      </trkpt>
      <trkpt lat="49.75904" lon="4.71886">
        <ele>147.57</ele>
        <time>2026-08-07T15:37:44.516Z</time>
      </trkpt>
      <trkpt lat="49.75926" lon="4.71897">
        <ele>147.87</ele>
        <time>2026-08-07T15:37:50.531Z</time>
      </trkpt>
      <trkpt lat="49.75951" lon="4.7191">
        <ele>147.87</ele>
        <time>2026-08-07T15:37:56.514Z</time>
      </trkpt>
      <trkpt lat="49.75971" lon="4.71931">
        <ele>147.87</ele>
        <time>2026-08-07T15:38:02.572Z</time>
      </trkpt>
      <trkpt lat="49.75972" lon="4.71971">
        <ele>147.97</ele>
        <time>2026-08-07T15:38:08.641Z</time>
      </trkpt>
      <trkpt lat="49.75971" lon="4.71957">
        <ele>147.97</ele>
        <time>2026-08-07T15:38:16.457Z</time>
      </trkpt>
      <trkpt lat="49.75974" lon="4.71942">
        <ele>147.97</ele>
        <time>2026-08-07T15:38:59.451Z</time>
      </trkpt>
      <trkpt lat="49.75968" lon="4.71923">
        <ele>147.97</ele>
        <time>2026-08-07T15:39:05.459Z</time>
      </trkpt>
      <trkpt lat="49.75958" lon="4.71917">
        <ele>147.97</ele>
        <time>2026-08-07T15:39:10.507Z</time>
      </trkpt>
      <trkpt lat="49.75947" lon="4.71918">
        <ele>147.87</ele>
        <time>2026-08-07T15:39:19.456Z</time>
      </trkpt>
      <trkpt lat="49.75945" lon="4.71903">
        <ele>147.95</ele>
        <time>2026-08-07T15:39:27.467Z</time>
      </trkpt>
      <trkpt lat="49.75953" lon="4.71891">
        <ele>148.07</ele>
        <time>2026-08-07T15:39:40.518Z</time>
      </trkpt>
      <trkpt lat="49.75977" lon="4.71888">
        <ele>148.07</ele>
        <time>2026-08-07T15:39:46.471Z</time>
      </trkpt>
      <trkpt lat="49.75996" lon="4.71882">
        <ele>148.07</ele>
        <time>2026-08-07T15:39:52.470Z</time>
      </trkpt>
      <trkpt lat="49.76008" lon="4.71872">
        <ele>148.47</ele>
        <time>2026-08-07T15:39:58.453Z</time>
      </trkpt>
      <trkpt lat="49.75999" lon="4.71867">
        <ele>148.27</ele>
        <time>2026-08-07T15:40:53.562Z</time>
      </trkpt>
      <trkpt lat="49.76009" lon="4.71875">
        <ele>148.27</ele>
        <time>2026-08-07T15:41:10.464Z</time>
      </trkpt>
      <trkpt lat="49.76018" lon="4.71881">
        <ele>148.36</ele>
        <time>2026-08-07T15:42:07.452Z</time>
      </trkpt>
      <trkpt lat="49.76032" lon="4.71885">
        <ele>148.37</ele>
        <time>2026-08-07T15:42:12.458Z</time>
      </trkpt>
      <trkpt lat="49.76045" lon="4.71886">
        <ele>148.37</ele>
        <time>2026-08-07T15:42:17.470Z</time>
      </trkpt>
      <trkpt lat="49.76052" lon="4.71874">
        <ele>148.47</ele>
        <time>2026-08-07T15:42:23.463Z</time>
      </trkpt>
      <trkpt lat="49.76054" lon="4.7186">
        <ele>148.47</ele>
        <time>2026-08-07T15:42:28.467Z</time>
      </trkpt>
      <trkpt lat="49.76055" lon="4.71846">
        <ele>148.57</ele>
        <time>2026-08-07T15:42:34.458Z</time>
      </trkpt>
      <trkpt lat="49.76059" lon="4.71826">
        <ele>148.57</ele>
        <time>2026-08-07T15:42:39.460Z</time>
      </trkpt>
      <trkpt lat="49.76064" lon="4.718">
        <ele>148.67</ele>
        <time>2026-08-07T15:42:44.509Z</time>
      </trkpt>
      <trkpt lat="49.76068" lon="4.71769">
        <ele>148.67</ele>
        <time>2026-08-07T15:42:50.512Z</time>
      </trkpt>
      <trkpt lat="49.76069" lon="4.71741">
        <ele>148.67</ele>
        <time>2026-08-07T15:42:56.521Z</time>
      </trkpt>
      <trkpt lat="49.76067" lon="4.71719">
        <ele>148.27</ele>
        <time>2026-08-07T15:43:29.447Z</time>
      </trkpt>
      <trkpt lat="49.7607" lon="4.71695">
        <ele>148.27</ele>
        <time>2026-08-07T15:43:34.459Z</time>
      </trkpt>
      <trkpt lat="49.7607" lon="4.71667">
        <ele>148.27</ele>
        <time>2026-08-07T15:43:39.463Z</time>
      </trkpt>
      <trkpt lat="49.76074" lon="4.71644">
        <ele>149.02</ele>
        <time>2026-08-07T15:43:44.518Z</time>
      </trkpt>
      <trkpt lat="49.76077" lon="4.7163">
        <ele>149.27</ele>
        <time>2026-08-07T15:43:50.515Z</time>
      </trkpt>
      <trkpt lat="49.76086" lon="4.71628">
        <ele>150.77</ele>
        <time>2026-08-07T15:44:00.466Z</time>
      </trkpt>
      <trkpt lat="49.76099" lon="4.71626">
        <ele>150.77</ele>
        <time>2026-08-07T15:44:06.464Z</time>
      </trkpt>
      <trkpt lat="49.76109" lon="4.71627">
        <ele>150.77</ele>
        <time>2026-08-07T15:44:15.467Z</time>
      </trkpt>
      <trkpt lat="49.76119" lon="4.71627">
        <ele>151.9</ele>
        <time>2026-08-07T15:44:22.603Z</time>
      </trkpt>
      <trkpt lat="49.76126" lon="4.71617">
        <ele>153.77</ele>
        <time>2026-08-07T15:44:34.465Z</time>
      </trkpt>
      <trkpt lat="49.76131" lon="4.71603">
        <ele>153.77</ele>
        <time>2026-08-07T15:44:41.462Z</time>
      </trkpt>
      <trkpt lat="49.76139" lon="4.71592">
        <ele>156</ele>
        <time>2026-08-07T15:45:25.549Z</time>
      </trkpt>
      <trkpt lat="49.76129" lon="4.71604">
        <ele>155.97</ele>
        <time>2026-08-07T15:45:31.467Z</time>
      </trkpt>
      <trkpt lat="49.76124" lon="4.71628">
        <ele>151.6</ele>
        <time>2026-08-07T15:47:26.840Z</time>
      </trkpt>
      <trkpt lat="49.76108" lon="4.71626">
        <ele>153.8</ele>
        <time>2026-08-07T15:47:46.533Z</time>
      </trkpt>
      <trkpt lat="49.76117" lon="4.7162">
        <ele>154.97</ele>
        <time>2026-08-07T15:47:52.500Z</time>
      </trkpt>
      <trkpt lat="49.7612" lon="4.71605">
        <ele>154.97</ele>
        <time>2026-08-07T15:48:01.452Z</time>
      </trkpt>
      <trkpt lat="49.76115" lon="4.71592">
        <ele>154.97</ele>
        <time>2026-08-07T15:48:07.466Z</time>
      </trkpt>
      <trkpt lat="49.76107" lon="4.71585">
        <ele>156.09</ele>
        <time>2026-08-07T15:48:19.490Z</time>
      </trkpt>
      <trkpt lat="49.76117" lon="4.71574">
        <ele>155.98</ele>
        <time>2026-08-07T15:48:27.489Z</time>
      </trkpt>
      <trkpt lat="49.7613" lon="4.71564">
        <ele>155.97</ele>
        <time>2026-08-07T15:48:32.522Z</time>
      </trkpt>
      <trkpt lat="49.76128" lon="4.71578">
        <ele>155.98</ele>
        <time>2026-08-07T15:49:26.523Z</time>
      </trkpt>
      <trkpt lat="49.76129" lon="4.71592">
        <ele>156.07</ele>
        <time>2026-08-07T15:50:22.455Z</time>
      </trkpt>
      <trkpt lat="49.76134" lon="4.7158">
        <ele>155.97</ele>
        <time>2026-08-07T15:52:21.461Z</time>
      </trkpt>
      <trkpt lat="49.76133" lon="4.71594">
        <ele>155.97</ele>
        <time>2026-08-07T15:52:54.460Z</time>
      </trkpt>
      <trkpt lat="49.76136" lon="4.71608">
        <ele>155.97</ele>
        <time>2026-08-07T15:53:15.485Z</time>
      </trkpt>
      <trkpt lat="49.76121" lon="4.71601">
        <ele>155.97</ele>
        <time>2026-08-07T15:53:20.599Z</time>
      </trkpt>
      <trkpt lat="49.76133" lon="4.71599">
        <ele>156.07</ele>
        <time>2026-08-07T15:53:53.450Z</time>
      </trkpt>
      <trkpt lat="49.76138" lon="4.71583">
        <ele>156.07</ele>
        <time>2026-08-07T15:55:23.461Z</time>
      </trkpt>
      <trkpt lat="49.76135" lon="4.71565">
        <ele>156.07</ele>
        <time>2026-08-07T15:55:29.459Z</time>
      </trkpt>
      <trkpt lat="49.76133" lon="4.71545">
        <ele>156.07</ele>
        <time>2026-08-07T15:55:34.463Z</time>
      </trkpt>
      <trkpt lat="49.76125" lon="4.71535">
        <ele>156.17</ele>
        <time>2026-08-07T15:55:40.479Z</time>
      </trkpt>
      <trkpt lat="49.76125" lon="4.7152">
        <ele>156.27</ele>
        <time>2026-08-07T15:55:49.463Z</time>
      </trkpt>
      <trkpt lat="49.76133" lon="4.71533">
        <ele>156.27</ele>
        <time>2026-08-07T15:56:48.493Z</time>
      </trkpt>
      <trkpt lat="49.76132" lon="4.7156">
        <ele>156.17</ele>
        <time>2026-08-07T15:56:54.467Z</time>
      </trkpt>
      <trkpt lat="49.76136" lon="4.71579">
        <ele>156.17</ele>
        <time>2026-08-07T15:56:59.517Z</time>
      </trkpt>
      <trkpt lat="49.76135" lon="4.71611">
        <ele>156.07</ele>
        <time>2026-08-07T15:57:05.476Z</time>
      </trkpt>
      <trkpt lat="49.76124" lon="4.7164">
        <ele>156.07</ele>
        <time>2026-08-07T15:57:11.461Z</time>
      </trkpt>
      <trkpt lat="49.76135" lon="4.71656">
        <ele>156.07</ele>
        <time>2026-08-07T15:57:16.469Z</time>
      </trkpt>
      <trkpt lat="49.7615" lon="4.71686">
        <ele>152.28</ele>
        <time>2026-08-07T15:57:22.466Z</time>
      </trkpt>
      <trkpt lat="49.7616" lon="4.71695">
        <ele>152.27</ele>
        <time>2026-08-07T15:57:27.486Z</time>
      </trkpt>
      <trkpt lat="49.76185" lon="4.71706">
        <ele>152.27</ele>
        <time>2026-08-07T15:57:32.508Z</time>
      </trkpt>
      <trkpt lat="49.76194" lon="4.71715">
        <ele>152.27</ele>
        <time>2026-08-07T15:57:39.465Z</time>
      </trkpt>
      <trkpt lat="49.76205" lon="4.71725">
        <ele>155.46</ele>
        <time>2026-08-07T15:57:44.534Z</time>
      </trkpt>
      <trkpt lat="49.76228" lon="4.71728">
        <ele>148.57</ele>
        <time>2026-08-07T15:57:50.528Z</time>
      </trkpt>
      <trkpt lat="49.76246" lon="4.7172">
        <ele>146.27</ele>
        <time>2026-08-07T15:57:56.523Z</time>
      </trkpt>
      <trkpt lat="49.76266" lon="4.71707">
        <ele>146.27</ele>
        <time>2026-08-07T15:58:02.507Z</time>
      </trkpt>
      <trkpt lat="49.76289" lon="4.71689">
        <ele>146.27</ele>
        <time>2026-08-07T15:58:08.499Z</time>
      </trkpt>
      <trkpt lat="49.7631" lon="4.71677">
        <ele>144.97</ele>
        <time>2026-08-07T15:58:14.518Z</time>
      </trkpt>
      <trkpt lat="49.76331" lon="4.71661">
        <ele>144.97</ele>
        <time>2026-08-07T15:58:20.507Z</time>
      </trkpt>
      <trkpt lat="49.76353" lon="4.7166">
        <ele>144.77</ele>
        <time>2026-08-07T15:58:26.499Z</time>
      </trkpt>
      <trkpt lat="49.76361" lon="4.71681">
        <ele>144.77</ele>
        <time>2026-08-07T15:58:32.555Z</time>
      </trkpt>
      <trkpt lat="49.76366" lon="4.71706">
        <ele>144.77</ele>
        <time>2026-08-07T15:58:38.506Z</time>
      </trkpt>
      <trkpt lat="49.76373" lon="4.71752">
        <ele>144.97</ele>
        <time>2026-08-07T15:58:44.515Z</time>
      </trkpt>
      <trkpt lat="49.76378" lon="4.71789">
        <ele>144.97</ele>
        <time>2026-08-07T15:58:50.515Z</time>
      </trkpt>
      <trkpt lat="49.76379" lon="4.71826">
        <ele>144.97</ele>
        <time>2026-08-07T15:58:56.525Z</time>
      </trkpt>
      <trkpt lat="49.76377" lon="4.71856">
        <ele>144.67</ele>
        <time>2026-08-07T15:59:02.204Z</time>
      </trkpt>
      <trkpt lat="49.76379" lon="4.71883">
        <ele>144.57</ele>
        <time>2026-08-07T15:59:07.461Z</time>
      </trkpt>
      <trkpt lat="49.76381" lon="4.7191">
        <ele>144.57</ele>
        <time>2026-08-07T15:59:12.466Z</time>
      </trkpt>
      <trkpt lat="49.76377" lon="4.71928">
        <ele>144.97</ele>
        <time>2026-08-07T15:59:44.464Z</time>
      </trkpt>
      <trkpt lat="49.76378" lon="4.71949">
        <ele>144.97</ele>
        <time>2026-08-07T15:59:49.469Z</time>
      </trkpt>
      <trkpt lat="49.76389" lon="4.71945">
        <ele>144.97</ele>
        <time>2026-08-07T16:01:16.465Z</time>
      </trkpt>
      <trkpt lat="49.76402" lon="4.71947">
        <ele>144.97</ele>
        <time>2026-08-07T16:01:21.498Z</time>
      </trkpt>
      <trkpt lat="49.76412" lon="4.71948">
        <ele>144.97</ele>
        <time>2026-08-07T16:01:26.532Z</time>
      </trkpt>
      <trkpt lat="49.76422" lon="4.71948">
        <ele>145.56</ele>
        <time>2026-08-07T16:01:32.520Z</time>
      </trkpt>
      <trkpt lat="49.76442" lon="4.71958">
        <ele>145.57</ele>
        <time>2026-08-07T16:01:38.484Z</time>
      </trkpt>
      <trkpt lat="49.7646" lon="4.71952">
        <ele>143.92</ele>
        <time>2026-08-07T16:01:44.480Z</time>
      </trkpt>
      <trkpt lat="49.76472" lon="4.71951">
        <ele>143.37</ele>
        <time>2026-08-07T16:01:50.485Z</time>
      </trkpt>
      <trkpt lat="49.76494" lon="4.71962">
        <ele>143.37</ele>
        <time>2026-08-07T16:01:56.512Z</time>
      </trkpt>
      <trkpt lat="49.76519" lon="4.71954">
        <ele>143.37</ele>
        <time>2026-08-07T16:02:02.512Z</time>
      </trkpt>
      <trkpt lat="49.76541" lon="4.71955">
        <ele>143.37</ele>
        <time>2026-08-07T16:02:08.477Z</time>
      </trkpt>
      <trkpt lat="49.76563" lon="4.71961">
        <ele>146.07</ele>
        <time>2026-08-07T16:02:14.488Z</time>
      </trkpt>
      <trkpt lat="49.76588" lon="4.71967">
        <ele>146.07</ele>
        <time>2026-08-07T16:02:20.488Z</time>
      </trkpt>
      <trkpt lat="49.76614" lon="4.71963">
        <ele>146.07</ele>
        <time>2026-08-07T16:02:26.525Z</time>
      </trkpt>
      <trkpt lat="49.76638" lon="4.71967">
        <ele>146.07</ele>
        <time>2026-08-07T16:02:32.511Z</time>
      </trkpt>
      <trkpt lat="49.76648" lon="4.72008">
        <ele>146.07</ele>
        <time>2026-08-07T16:02:38.477Z</time>
      </trkpt>
      <trkpt lat="49.76662" lon="4.72042">
        <ele>146.07</ele>
        <time>2026-08-07T16:02:44.489Z</time>
      </trkpt>
      <trkpt lat="49.76675" lon="4.7207">
        <ele>146.07</ele>
        <time>2026-08-07T16:02:50.475Z</time>
      </trkpt>
      <trkpt lat="49.7668" lon="4.7211">
        <ele>146.07</ele>
        <time>2026-08-07T16:02:56.505Z</time>
      </trkpt>
      <trkpt lat="49.76692" lon="4.72148">
        <ele>146.07</ele>
        <time>2026-08-07T16:03:02.521Z</time>
      </trkpt>
      <trkpt lat="49.76701" lon="4.72182">
        <ele>147.25</ele>
        <time>2026-08-07T16:03:08.486Z</time>
      </trkpt>
      <trkpt lat="49.76703" lon="4.72217">
        <ele>147.27</ele>
        <time>2026-08-07T16:03:14.472Z</time>
      </trkpt>
      <trkpt lat="49.76714" lon="4.72241">
        <ele>147.97</ele>
        <time>2026-08-07T16:03:20.484Z</time>
      </trkpt>
      <trkpt lat="49.76716" lon="4.72256">
        <ele>147.82</ele>
        <time>2026-08-07T16:03:27.450Z</time>
      </trkpt>
      <trkpt lat="49.76726" lon="4.72271">
        <ele>147.77</ele>
        <time>2026-08-07T16:03:32.512Z</time>
      </trkpt>
      <trkpt lat="49.76737" lon="4.72293">
        <ele>147.77</ele>
        <time>2026-08-07T16:03:38.497Z</time>
      </trkpt>
      <trkpt lat="49.76759" lon="4.72308">
        <ele>147.77</ele>
        <time>2026-08-07T16:03:44.494Z</time>
      </trkpt>
      <trkpt lat="49.76787" lon="4.7232">
        <ele>147.77</ele>
        <time>2026-08-07T16:03:50.488Z</time>
      </trkpt>
      <trkpt lat="49.76815" lon="4.72337">
        <ele>147.77</ele>
        <time>2026-08-07T16:03:56.499Z</time>
      </trkpt>
      <trkpt lat="49.76846" lon="4.72355">
        <ele>147.77</ele>
        <time>2026-08-07T16:04:02.510Z</time>
      </trkpt>
      <trkpt lat="49.76874" lon="4.72372">
        <ele>147.77</ele>
        <time>2026-08-07T16:04:08.493Z</time>
      </trkpt>
      <trkpt lat="49.76899" lon="4.7239">
        <ele>147.77</ele>
        <time>2026-08-07T16:04:14.495Z</time>
      </trkpt>
      <trkpt lat="49.76921" lon="4.72398">
        <ele>147.76</ele>
        <time>2026-08-07T16:04:20.489Z</time>
      </trkpt>
      <trkpt lat="49.76929" lon="4.72405">
        <ele>147.76</ele>
        <time>2026-08-07T16:04:26.506Z</time>
      </trkpt>
      <trkpt lat="49.76937" lon="4.72414">
        <ele>148.56</ele>
        <time>2026-08-07T16:05:07.460Z</time>
      </trkpt>
      <trkpt lat="49.76953" lon="4.72425">
        <ele>148.56</ele>
        <time>2026-08-07T16:05:12.462Z</time>
      </trkpt>
      <trkpt lat="49.7698" lon="4.72436">
        <ele>148.56</ele>
        <time>2026-08-07T16:05:18.457Z</time>
      </trkpt>
      <trkpt lat="49.77002" lon="4.72446">
        <ele>148.56</ele>
        <time>2026-08-07T16:05:23.457Z</time>
      </trkpt>
      <trkpt lat="49.77023" lon="4.72455">
        <ele>148.86</ele>
        <time>2026-08-07T16:05:28.463Z</time>
      </trkpt>
      <trkpt lat="49.77052" lon="4.72474">
        <ele>148.86</ele>
        <time>2026-08-07T16:05:34.463Z</time>
      </trkpt>
      <trkpt lat="49.77075" lon="4.7249">
        <ele>148.86</ele>
        <time>2026-08-07T16:05:39.469Z</time>
      </trkpt>
      <trkpt lat="49.771" lon="4.72505">
        <ele>148.86</ele>
        <time>2026-08-07T16:05:44.478Z</time>
      </trkpt>
      <trkpt lat="49.77129" lon="4.72527">
        <ele>148.86</ele>
        <time>2026-08-07T16:05:50.488Z</time>
      </trkpt>
      <trkpt lat="49.77157" lon="4.72543">
        <ele>148.86</ele>
        <time>2026-08-07T16:05:56.523Z</time>
      </trkpt>
      <trkpt lat="49.77184" lon="4.72561">
        <ele>148.86</ele>
        <time>2026-08-07T16:06:02.510Z</time>
      </trkpt>
      <trkpt lat="49.77213" lon="4.72578">
        <ele>148.86</ele>
        <time>2026-08-07T16:06:08.481Z</time>
      </trkpt>
      <trkpt lat="49.77237" lon="4.72588">
        <ele>148.86</ele>
        <time>2026-08-07T16:06:14.494Z</time>
      </trkpt>
      <trkpt lat="49.7725" lon="4.72551">
        <ele>148.86</ele>
        <time>2026-08-07T16:06:20.500Z</time>
      </trkpt>
      <trkpt lat="49.77265" lon="4.72506">
        <ele>148.86</ele>
        <time>2026-08-07T16:06:26.516Z</time>
      </trkpt>
      <trkpt lat="49.77268" lon="4.72468">
        <ele>148.49</ele>
        <time>2026-08-07T16:06:32.516Z</time>
      </trkpt>
      <trkpt lat="49.77277" lon="4.72433">
        <ele>148.36</ele>
        <time>2026-08-07T16:06:38.490Z</time>
      </trkpt>
      <trkpt lat="49.77285" lon="4.72399">
        <ele>148.36</ele>
        <time>2026-08-07T16:06:44.497Z</time>
      </trkpt>
      <trkpt lat="49.77294" lon="4.72361">
        <ele>148.37</ele>
        <time>2026-08-07T16:06:50.508Z</time>
      </trkpt>
      <trkpt lat="49.77303" lon="4.72324">
        <ele>148.46</ele>
        <time>2026-08-07T16:06:56.517Z</time>
      </trkpt>
      <trkpt lat="49.77311" lon="4.7229">
        <ele>148.47</ele>
        <time>2026-08-07T16:07:02.541Z</time>
      </trkpt>
      <trkpt lat="49.77305" lon="4.72305">
        <ele>148.66</ele>
        <time>2026-08-07T16:07:12.472Z</time>
      </trkpt>
      <trkpt lat="49.773" lon="4.72319">
        <ele>148.67</ele>
        <time>2026-08-07T16:07:17.482Z</time>
      </trkpt>
      <trkpt lat="49.77311" lon="4.7232">
        <ele>148.47</ele>
        <time>2026-08-07T16:14:03.462Z</time>
      </trkpt>
      <trkpt lat="49.77325" lon="4.72323">
        <ele>148.39</ele>
        <time>2026-08-07T16:14:08.499Z</time>
      </trkpt>
      <trkpt lat="49.77335" lon="4.7233">
        <ele>148.37</ele>
        <time>2026-08-07T16:14:14.508Z</time>
      </trkpt>
      <trkpt lat="49.77331" lon="4.72344">
        <ele>147.87</ele>
        <time>2026-08-07T16:14:53.566Z</time>
      </trkpt>
      <trkpt lat="49.77333" lon="4.72322">
        <ele>147.97</ele>
        <time>2026-08-07T16:15:06.459Z</time>
      </trkpt>
      <trkpt lat="49.77325" lon="4.72338">
        <ele>147.97</ele>
        <time>2026-08-07T16:15:11.461Z</time>
      </trkpt>
      <trkpt lat="49.77328" lon="4.72353">
        <ele>147.97</ele>
        <time>2026-08-07T16:15:22.459Z</time>
      </trkpt>
      <trkpt lat="49.7733" lon="4.72368">
        <ele>147.97</ele>
        <time>2026-08-07T16:15:28.453Z</time>
      </trkpt>
      <trkpt lat="49.77343" lon="4.72371">
        <ele>147.87</ele>
        <time>2026-08-07T16:15:34.475Z</time>
      </trkpt>
      <trkpt lat="49.77354" lon="4.72378">
        <ele>147.86</ele>
        <time>2026-08-07T16:15:40.485Z</time>
      </trkpt>
      <trkpt lat="49.77359" lon="4.72365">
        <ele>147.87</ele>
        <time>2026-08-07T16:16:40.457Z</time>
      </trkpt>
      <trkpt lat="49.77363" lon="4.72351">
        <ele>147.97</ele>
        <time>2026-08-07T16:16:46.460Z</time>
      </trkpt>
      <trkpt lat="49.77347" lon="4.72343">
        <ele>147.97</ele>
        <time>2026-08-07T16:16:51.463Z</time>
      </trkpt>
      <trkpt lat="49.77332" lon="4.72336">
        <ele>147.97</ele>
        <time>2026-08-07T16:16:56.521Z</time>
      </trkpt>
      <trkpt lat="49.77316" lon="4.72322">
        <ele>147.97</ele>
        <time>2026-08-07T16:17:02.518Z</time>
      </trkpt>
      <trkpt lat="49.77302" lon="4.7231">
        <ele>148.47</ele>
        <time>2026-08-07T16:17:08.497Z</time>
      </trkpt>
      <trkpt lat="49.77311" lon="4.72289">
        <ele>148.47</ele>
        <time>2026-08-07T16:17:14.503Z</time>
      </trkpt>
      <trkpt lat="49.77317" lon="4.72269">
        <ele>148.47</ele>
        <time>2026-08-07T16:17:20.482Z</time>
      </trkpt>
      <trkpt lat="49.77319" lon="4.72247">
        <ele>148.65</ele>
        <time>2026-08-07T16:17:26.526Z</time>
      </trkpt>
      <trkpt lat="49.77323" lon="4.72234">
        <ele>148.67</ele>
        <time>2026-08-07T16:17:33.458Z</time>
      </trkpt>
      <trkpt lat="49.77329" lon="4.72215">
        <ele>148.67</ele>
        <time>2026-08-07T16:17:38.491Z</time>
      </trkpt>
      <trkpt lat="49.77336" lon="4.722">
        <ele>148.67</ele>
        <time>2026-08-07T16:17:44.494Z</time>
      </trkpt>
      <trkpt lat="49.77339" lon="4.72179">
        <ele>148.67</ele>
        <time>2026-08-07T16:17:50.497Z</time>
      </trkpt>
      <trkpt lat="49.77342" lon="4.72165">
        <ele>148.67</ele>
        <time>2026-08-07T16:17:58.457Z</time>
      </trkpt>
      <trkpt lat="49.77347" lon="4.72153">
        <ele>148.59</ele>
        <time>2026-08-07T16:18:07.462Z</time>
      </trkpt>
      <trkpt lat="49.77358" lon="4.72167">
        <ele>148.57</ele>
        <time>2026-08-07T16:18:13.460Z</time>
      </trkpt>
      <trkpt lat="49.77367" lon="4.72163">
        <ele>148.57</ele>
        <time>2026-08-07T16:18:19.461Z</time>
      </trkpt>
      <trkpt lat="49.77369" lon="4.72148">
        <ele>148.57</ele>
        <time>2026-08-07T16:18:27.458Z</time>
      </trkpt>
      <trkpt lat="49.77368" lon="4.72163">
        <ele>148.67</ele>
        <time>2026-08-07T16:18:43.456Z</time>
      </trkpt>
      <trkpt lat="49.77358" lon="4.72167">
        <ele>148.67</ele>
        <time>2026-08-07T16:18:48.464Z</time>
      </trkpt>
      <trkpt lat="49.77347" lon="4.72161">
        <ele>148.57</ele>
        <time>2026-08-07T16:19:47.569Z</time>
      </trkpt>
      <trkpt lat="49.77356" lon="4.72166">
        <ele>148.57</ele>
        <time>2026-08-07T16:22:16.455Z</time>
      </trkpt>
      <trkpt lat="49.77368" lon="4.72178">
        <ele>148.57</ele>
        <time>2026-08-07T16:22:21.458Z</time>
      </trkpt>
      <trkpt lat="49.77362" lon="4.72167">
        <ele>148.57</ele>
        <time>2026-08-07T16:22:51.458Z</time>
      </trkpt>
      <trkpt lat="49.77358" lon="4.72153">
        <ele>148.57</ele>
        <time>2026-08-07T16:23:02.521Z</time>
      </trkpt>
      <trkpt lat="49.77358" lon="4.72169">
        <ele>148.67</ele>
        <time>2026-08-07T16:23:13.455Z</time>
      </trkpt>
      <trkpt lat="49.77358" lon="4.72154">
        <ele>148.57</ele>
        <time>2026-08-07T16:24:59.456Z</time>
      </trkpt>
      <trkpt lat="49.77367" lon="4.72158">
        <ele>148.57</ele>
        <time>2026-08-07T16:47:14.510Z</time>
      </trkpt>
      <trkpt lat="49.77358" lon="4.72159">
        <ele>148.57</ele>
        <time>2026-08-07T16:49:56.511Z</time>
      </trkpt>
      <trkpt lat="49.77349" lon="4.72165">
        <ele>148.67</ele>
        <time>2026-08-07T16:56:39.532Z</time>
      </trkpt>
      <trkpt lat="49.77336" lon="4.72173">
        <ele>148.67</ele>
        <time>2026-08-07T16:56:45.454Z</time>
      </trkpt>
      <trkpt lat="49.77312" lon="4.7214">
        <ele>148.67</ele>
        <time>2026-08-07T16:56:50.891Z</time>
      </trkpt>
      <trkpt lat="49.77313" lon="4.72121">
        <ele>148.67</ele>
        <time>2026-08-07T16:56:56.490Z</time>
      </trkpt>
      <trkpt lat="49.77315" lon="4.72108">
        <ele>148.97</ele>
        <time>2026-08-07T16:57:02.905Z</time>
      </trkpt>
      <trkpt lat="49.77318" lon="4.72094">
        <ele>148.97</ele>
        <time>2026-08-07T16:57:23.450Z</time>
      </trkpt>
      <trkpt lat="49.77321" lon="4.7208">
        <ele>149.17</ele>
        <time>2026-08-07T16:58:00.455Z</time>
      </trkpt>
      <trkpt lat="49.77329" lon="4.7207">
        <ele>149.37</ele>
        <time>2026-08-07T16:58:09.459Z</time>
      </trkpt>
      <trkpt lat="49.77331" lon="4.72055">
        <ele>149.27</ele>
        <time>2026-08-07T16:58:19.452Z</time>
      </trkpt>
      <trkpt lat="49.77334" lon="4.72031">
        <ele>149.37</ele>
        <time>2026-08-07T16:58:24.469Z</time>
      </trkpt>
      <trkpt lat="49.77335" lon="4.72014">
        <ele>149.37</ele>
        <time>2026-08-07T16:58:30.454Z</time>
      </trkpt>
      <trkpt lat="49.77343" lon="4.72007">
        <ele>149.37</ele>
        <time>2026-08-07T16:58:35.492Z</time>
      </trkpt>
      <trkpt lat="49.77353" lon="4.7201">
        <ele>149.57</ele>
        <time>2026-08-07T16:58:42.466Z</time>
      </trkpt>
      <trkpt lat="49.77363" lon="4.71999">
        <ele>149.57</ele>
        <time>2026-08-07T16:58:47.466Z</time>
      </trkpt>
      <trkpt lat="49.77372" lon="4.71997">
        <ele>149.57</ele>
        <time>2026-08-07T16:58:56.520Z</time>
      </trkpt>
      <trkpt lat="49.77374" lon="4.71983">
        <ele>149.57</ele>
        <time>2026-08-07T16:59:02.630Z</time>
      </trkpt>
      <trkpt lat="49.77384" lon="4.71975">
        <ele>152.85</ele>
        <time>2026-08-07T16:59:09.467Z</time>
      </trkpt>
      <trkpt lat="49.77388" lon="4.71962">
        <ele>153.07</ele>
        <time>2026-08-07T16:59:18.463Z</time>
      </trkpt>
      <trkpt lat="49.77393" lon="4.71946">
        <ele>153.43</ele>
        <time>2026-08-07T16:59:28.469Z</time>
      </trkpt>
      <trkpt lat="49.77401" lon="4.71958">
        <ele>153.27</ele>
        <time>2026-08-07T17:00:00.461Z</time>
      </trkpt>
      <trkpt lat="49.77404" lon="4.71988">
        <ele>153.07</ele>
        <time>2026-08-07T17:00:06.468Z</time>
      </trkpt>
      <trkpt lat="49.77421" lon="4.72007">
        <ele>153.07</ele>
        <time>2026-08-07T17:00:12.459Z</time>
      </trkpt>
      <trkpt lat="49.77435" lon="4.72011">
        <ele>153.07</ele>
        <time>2026-08-07T17:00:17.462Z</time>
      </trkpt>
      <trkpt lat="49.77435" lon="4.72049">
        <ele>153.07</ele>
        <time>2026-08-07T17:00:23.468Z</time>
      </trkpt>
      <trkpt lat="49.77456" lon="4.72069">
        <ele>153.07</ele>
        <time>2026-08-07T17:00:29.458Z</time>
      </trkpt>
      <trkpt lat="49.77461" lon="4.72085">
        <ele>153.07</ele>
        <time>2026-08-07T17:00:38.511Z</time>
      </trkpt>
      <trkpt lat="49.7747" lon="4.72121">
        <ele>149.17</ele>
        <time>2026-08-07T17:00:44.504Z</time>
      </trkpt>
      <trkpt lat="49.77463" lon="4.72139">
        <ele>149.17</ele>
        <time>2026-08-07T17:00:50.506Z</time>
      </trkpt>
      <trkpt lat="49.77468" lon="4.72151">
        <ele>147.77</ele>
        <time>2026-08-07T17:00:59.458Z</time>
      </trkpt>
      <trkpt lat="49.77477" lon="4.7216">
        <ele>147.77</ele>
        <time>2026-08-07T17:01:05.455Z</time>
      </trkpt>
      <trkpt lat="49.77492" lon="4.72165">
        <ele>147.77</ele>
        <time>2026-08-07T17:01:11.461Z</time>
      </trkpt>
      <trkpt lat="49.77512" lon="4.72176">
        <ele>146.79</ele>
        <time>2026-08-07T17:01:17.474Z</time>
      </trkpt>
      <trkpt lat="49.77532" lon="4.72189">
        <ele>146.47</ele>
        <time>2026-08-07T17:01:23.467Z</time>
      </trkpt>
      <trkpt lat="49.77544" lon="4.72194">
        <ele>145.27</ele>
        <time>2026-08-07T17:02:02.512Z</time>
      </trkpt>
      <trkpt lat="49.77554" lon="4.72209">
        <ele>144.57</ele>
        <time>2026-08-07T17:02:08.560Z</time>
      </trkpt>
      <trkpt lat="49.77565" lon="4.72211">
        <ele>144.37</ele>
        <time>2026-08-07T17:02:16.461Z</time>
      </trkpt>
      <trkpt lat="49.77579" lon="4.72219">
        <ele>144.37</ele>
        <time>2026-08-07T17:02:22.463Z</time>
      </trkpt>
      <trkpt lat="49.77593" lon="4.72227">
        <ele>144.37</ele>
        <time>2026-08-07T17:02:28.457Z</time>
      </trkpt>
      <trkpt lat="49.77604" lon="4.72232">
        <ele>144.37</ele>
        <time>2026-08-07T17:02:34.472Z</time>
      </trkpt>
      <trkpt lat="49.77617" lon="4.72236">
        <ele>144.37</ele>
        <time>2026-08-07T17:02:40.473Z</time>
      </trkpt>
      <trkpt lat="49.77625" lon="4.72247">
        <ele>144.37</ele>
        <time>2026-08-07T17:02:47.463Z</time>
      </trkpt>
      <trkpt lat="49.77636" lon="4.72254">
        <ele>144.37</ele>
        <time>2026-08-07T17:02:52.465Z</time>
      </trkpt>
      <trkpt lat="49.77649" lon="4.72259">
        <ele>142.94</ele>
        <time>2026-08-07T17:02:57.466Z</time>
      </trkpt>
      <trkpt lat="49.77664" lon="4.72264">
        <ele>142.47</ele>
        <time>2026-08-07T17:03:02.532Z</time>
      </trkpt>
      <trkpt lat="49.7768" lon="4.72274">
        <ele>142.47</ele>
        <time>2026-08-07T17:03:08.518Z</time>
      </trkpt>
      <trkpt lat="49.77692" lon="4.72281">
        <ele>142.47</ele>
        <time>2026-08-07T17:03:14.523Z</time>
      </trkpt>
      <trkpt lat="49.77703" lon="4.72287">
        <ele>142.66</ele>
        <time>2026-08-07T17:03:20.514Z</time>
      </trkpt>
      <trkpt lat="49.77714" lon="4.72294">
        <ele>142.67</ele>
        <time>2026-08-07T17:03:26.535Z</time>
      </trkpt>
      <trkpt lat="49.77723" lon="4.72301">
        <ele>142.67</ele>
        <time>2026-08-07T17:03:32.532Z</time>
      </trkpt>
      <trkpt lat="49.77732" lon="4.72308">
        <ele>144.27</ele>
        <time>2026-08-07T17:03:38.516Z</time>
      </trkpt>
      <trkpt lat="49.77742" lon="4.72313">
        <ele>142.47</ele>
        <time>2026-08-07T17:03:49.461Z</time>
      </trkpt>
      <trkpt lat="49.77753" lon="4.72318">
        <ele>144.27</ele>
        <time>2026-08-07T17:04:02.525Z</time>
      </trkpt>
      <trkpt lat="49.77745" lon="4.72325">
        <ele>144.27</ele>
        <time>2026-08-07T17:04:23.457Z</time>
      </trkpt>
      <trkpt lat="49.77731" lon="4.72335">
        <ele>144.27</ele>
        <time>2026-08-07T17:04:28.459Z</time>
      </trkpt>
      <trkpt lat="49.77722" lon="4.72316">
        <ele>142.37</ele>
        <time>2026-08-07T17:04:34.463Z</time>
      </trkpt>
      <trkpt lat="49.77736" lon="4.72297">
        <ele>142.59</ele>
        <time>2026-08-07T17:04:40.112Z</time>
      </trkpt>
      <trkpt lat="49.77748" lon="4.7228">
        <ele>142.67</ele>
        <time>2026-08-07T17:04:45.458Z</time>
      </trkpt>
      <trkpt lat="49.77737" lon="4.72268">
        <ele>142.67</ele>
        <time>2026-08-07T17:04:50.520Z</time>
      </trkpt>
      <trkpt lat="49.7772" lon="4.72259">
        <ele>142.67</ele>
        <time>2026-08-07T17:04:56.523Z</time>
      </trkpt>
      <trkpt lat="49.777" lon="4.72251">
        <ele>142.67</ele>
        <time>2026-08-07T17:05:02.530Z</time>
      </trkpt>
      <trkpt lat="49.77694" lon="4.72233">
        <ele>142.67</ele>
        <time>2026-08-07T17:05:08.517Z</time>
      </trkpt>
      <trkpt lat="49.77698" lon="4.7222">
        <ele>142.37</ele>
        <time>2026-08-07T17:05:16.466Z</time>
      </trkpt>
      <trkpt lat="49.77703" lon="4.72199">
        <ele>142.47</ele>
        <time>2026-08-07T17:05:22.460Z</time>
      </trkpt>
      <trkpt lat="49.77711" lon="4.72181">
        <ele>142.47</ele>
        <time>2026-08-07T17:05:27.463Z</time>
      </trkpt>
      <trkpt lat="49.77716" lon="4.72149">
        <ele>141.25</ele>
        <time>2026-08-07T17:05:33.464Z</time>
      </trkpt>
      <trkpt lat="49.77721" lon="4.72115">
        <ele>141.17</ele>
        <time>2026-08-07T17:05:38.519Z</time>
      </trkpt>
      <trkpt lat="49.77727" lon="4.72085">
        <ele>141.17</ele>
        <time>2026-08-07T17:05:44.511Z</time>
      </trkpt>
      <trkpt lat="49.77736" lon="4.72052">
        <ele>141.17</ele>
        <time>2026-08-07T17:05:50.521Z</time>
      </trkpt>
      <trkpt lat="49.77748" lon="4.72018">
        <ele>141.17</ele>
        <time>2026-08-07T17:05:56.539Z</time>
      </trkpt>
      <trkpt lat="49.77756" lon="4.71991">
        <ele>141.17</ele>
        <time>2026-08-07T17:06:02.539Z</time>
      </trkpt>
      <trkpt lat="49.77767" lon="4.71968">
        <ele>141.17</ele>
        <time>2026-08-07T17:06:08.524Z</time>
      </trkpt>
      <trkpt lat="49.77775" lon="4.71977">
        <ele>141.17</ele>
        <time>2026-08-07T17:06:17.475Z</time>
      </trkpt>
      <trkpt lat="49.77781" lon="4.71996">
        <ele>141.17</ele>
        <time>2026-08-07T17:06:23.470Z</time>
      </trkpt>
      <trkpt lat="49.77789" lon="4.72016">
        <ele>141.17</ele>
        <time>2026-08-07T17:06:29.483Z</time>
      </trkpt>
      <trkpt lat="49.77801" lon="4.72025">
        <ele>141.17</ele>
        <time>2026-08-07T17:06:35.480Z</time>
      </trkpt>
      <trkpt lat="49.77813" lon="4.7201">
        <ele>141.17</ele>
        <time>2026-08-07T17:06:41.490Z</time>
      </trkpt>
      <trkpt lat="49.7783" lon="4.71992">
        <ele>141.17</ele>
        <time>2026-08-07T17:06:47.473Z</time>
      </trkpt>
      <trkpt lat="49.77843" lon="4.71978">
        <ele>141.17</ele>
        <time>2026-08-07T17:06:52.486Z</time>
      </trkpt>
      <trkpt lat="49.77858" lon="4.71961">
        <ele>141.17</ele>
        <time>2026-08-07T17:06:58.469Z</time>
      </trkpt>
      <trkpt lat="49.7788" lon="4.71966">
        <ele>95.08</ele>
        <time>2026-08-07T17:07:04.462Z</time>
      </trkpt>
      <trkpt lat="49.77894" lon="4.71986">
        <ele>96.37</ele>
        <time>2026-08-07T17:07:10.472Z</time>
      </trkpt>
      <trkpt lat="49.77905" lon="4.72005">
        <ele>98.13</ele>
        <time>2026-08-07T17:07:16.470Z</time>
      </trkpt>
      <trkpt lat="49.77917" lon="4.72022">
        <ele>99.35</ele>
        <time>2026-08-07T17:07:22.471Z</time>
      </trkpt>
      <trkpt lat="49.77914" lon="4.72044">
        <ele>101.76</ele>
        <time>2026-08-07T17:07:28.462Z</time>
      </trkpt>
      <trkpt lat="49.77912" lon="4.7206">
        <ele>101.66</ele>
        <time>2026-08-07T17:07:33.475Z</time>
      </trkpt>
      <trkpt lat="49.77911" lon="4.72075">
        <ele>144.7</ele>
        <time>2026-08-07T17:07:43.462Z</time>
      </trkpt>
      <trkpt lat="49.77909" lon="4.72089">
        <ele>144.77</ele>
        <time>2026-08-07T17:07:50.518Z</time>
      </trkpt>
      <trkpt lat="49.77904" lon="4.72103">
        <ele>144.87</ele>
        <time>2026-08-07T17:08:08.537Z</time>
      </trkpt>
      <trkpt lat="49.77903" lon="4.72085">
        <ele>144.86</ele>
        <time>2026-08-07T17:08:42.483Z</time>
      </trkpt>
      <trkpt lat="49.77895" lon="4.72072">
        <ele>144.87</ele>
        <time>2026-08-07T17:10:10.461Z</time>
      </trkpt>
      <trkpt lat="49.77886" lon="4.72072">
        <ele>144.79</ele>
        <time>2026-08-07T17:10:15.461Z</time>
      </trkpt>
      <trkpt lat="49.77896" lon="4.72087">
        <ele>144.77</ele>
        <time>2026-08-07T17:10:33.543Z</time>
      </trkpt>
      <trkpt lat="49.77892" lon="4.7207">
        <ele>144.87</ele>
        <time>2026-08-08T10:24:50.620Z</time>
      </trkpt>
      <trkpt lat="49.77901" lon="4.72068">
        <ele>144.87</ele>
        <time>2026-08-08T10:25:12.535Z</time>
      </trkpt>
      <trkpt lat="49.77907" lon="4.72082">
        <ele>144.87</ele>
        <time>2026-08-08T10:25:20.600Z</time>
      </trkpt>
      <trkpt lat="49.77916" lon="4.72094">
        <ele>144.87</ele>
        <time>2026-08-08T10:25:26.605Z</time>
      </trkpt>
      <trkpt lat="49.7792" lon="4.72109">
        <ele>144.87</ele>
        <time>2026-08-08T10:25:32.623Z</time>
      </trkpt>
      <trkpt lat="49.77905" lon="4.72127">
        <ele>144.87</ele>
        <time>2026-08-08T10:25:38.599Z</time>
      </trkpt>
      <trkpt lat="49.7789" lon="4.72143">
        <ele>144.87</ele>
        <time>2026-08-08T10:25:44.593Z</time>
      </trkpt>
      <trkpt lat="49.77877" lon="4.72159">
        <ele>144.87</ele>
        <time>2026-08-08T10:25:50.593Z</time>
      </trkpt>
      <trkpt lat="49.77861" lon="4.7217">
        <ele>144.87</ele>
        <time>2026-08-08T10:25:56.618Z</time>
      </trkpt>
      <trkpt lat="49.77834" lon="4.7218">
        <ele>144.87</ele>
        <time>2026-08-08T10:26:02.620Z</time>
      </trkpt>
      <trkpt lat="49.7781" lon="4.72204">
        <ele>144.87</ele>
        <time>2026-08-08T10:26:08.595Z</time>
      </trkpt>
      <trkpt lat="49.77785" lon="4.72235">
        <ele>144.87</ele>
        <time>2026-08-08T10:26:14.605Z</time>
      </trkpt>
      <trkpt lat="49.77759" lon="4.72265">
        <ele>144.87</ele>
        <time>2026-08-08T10:26:20.591Z</time>
      </trkpt>
      <trkpt lat="49.77732" lon="4.72292">
        <ele>144.87</ele>
        <time>2026-08-08T10:26:26.600Z</time>
      </trkpt>
      <trkpt lat="49.7771" lon="4.7232">
        <ele>144.87</ele>
        <time>2026-08-08T10:26:32.617Z</time>
      </trkpt>
      <trkpt lat="49.77689" lon="4.72353">
        <ele>144.86</ele>
        <time>2026-08-08T10:26:38.594Z</time>
      </trkpt>
      <trkpt lat="49.77668" lon="4.72392">
        <ele>144.86</ele>
        <time>2026-08-08T10:26:44.593Z</time>
      </trkpt>
      <trkpt lat="49.77654" lon="4.72432">
        <ele>144.86</ele>
        <time>2026-08-08T10:26:50.591Z</time>
      </trkpt>
      <trkpt lat="49.77641" lon="4.72471">
        <ele>144.16</ele>
        <time>2026-08-08T10:26:56.619Z</time>
      </trkpt>
      <trkpt lat="49.77634" lon="4.72514">
        <ele>144.16</ele>
        <time>2026-08-08T10:27:02.604Z</time>
      </trkpt>
      <trkpt lat="49.77627" lon="4.72552">
        <ele>144.16</ele>
        <time>2026-08-08T10:27:08.597Z</time>
      </trkpt>
      <trkpt lat="49.77622" lon="4.72592">
        <ele>144.16</ele>
        <time>2026-08-08T10:27:14.579Z</time>
      </trkpt>
      <trkpt lat="49.7762" lon="4.72637">
        <ele>144.36</ele>
        <time>2026-08-08T10:27:20.592Z</time>
      </trkpt>
      <trkpt lat="49.77615" lon="4.72694">
        <ele>144.36</ele>
        <time>2026-08-08T10:27:26.608Z</time>
      </trkpt>
      <trkpt lat="49.77616" lon="4.72744">
        <ele>145.06</ele>
        <time>2026-08-08T10:27:32.614Z</time>
      </trkpt>
      <trkpt lat="49.77619" lon="4.72778">
        <ele>145.06</ele>
        <time>2026-08-08T10:27:38.601Z</time>
      </trkpt>
      <trkpt lat="49.77622" lon="4.72806">
        <ele>145.06</ele>
        <time>2026-08-08T10:27:44.595Z</time>
      </trkpt>
      <trkpt lat="49.77621" lon="4.7282">
        <ele>146.57</ele>
        <time>2026-08-08T10:28:04.527Z</time>
      </trkpt>
      <trkpt lat="49.77621" lon="4.72839">
        <ele>146.26</ele>
        <time>2026-08-08T10:28:09.535Z</time>
      </trkpt>
      <trkpt lat="49.77617" lon="4.72872">
        <ele>151.26</ele>
        <time>2026-08-08T10:28:14.580Z</time>
      </trkpt>
      <trkpt lat="49.77614" lon="4.72924">
        <ele>151.26</ele>
        <time>2026-08-08T10:28:20.589Z</time>
      </trkpt>
      <trkpt lat="49.77613" lon="4.72962">
        <ele>151.26</ele>
        <time>2026-08-08T10:28:26.591Z</time>
      </trkpt>
      <trkpt lat="49.77614" lon="4.72987">
        <ele>143.27</ele>
        <time>2026-08-08T10:28:32.622Z</time>
      </trkpt>
      <trkpt lat="49.77611" lon="4.73016">
        <ele>143.26</ele>
        <time>2026-08-08T10:28:38.594Z</time>
      </trkpt>
      <trkpt lat="49.77607" lon="4.73041">
        <ele>155.45</ele>
        <time>2026-08-08T10:28:44.596Z</time>
      </trkpt>
      <trkpt lat="49.776" lon="4.73061">
        <ele>156.26</ele>
        <time>2026-08-08T10:28:50.596Z</time>
      </trkpt>
      <trkpt lat="49.77591" lon="4.73083">
        <ele>144.07</ele>
        <time>2026-08-08T10:28:56.617Z</time>
      </trkpt>
      <trkpt lat="49.77582" lon="4.73104">
        <ele>143.26</ele>
        <time>2026-08-08T10:29:02.614Z</time>
      </trkpt>
      <trkpt lat="49.77573" lon="4.73123">
        <ele>153.38</ele>
        <time>2026-08-08T10:29:08.592Z</time>
      </trkpt>
      <trkpt lat="49.77561" lon="4.73145">
        <ele>154.06</ele>
        <time>2026-08-08T10:29:14.597Z</time>
      </trkpt>
      <trkpt lat="49.77548" lon="4.73174">
        <ele>154.06</ele>
        <time>2026-08-08T10:29:20.579Z</time>
      </trkpt>
      <trkpt lat="49.77534" lon="4.73199">
        <ele>153.86</ele>
        <time>2026-08-08T10:29:26.602Z</time>
      </trkpt>
      <trkpt lat="49.77522" lon="4.73235">
        <ele>153.86</ele>
        <time>2026-08-08T10:29:32.614Z</time>
      </trkpt>
      <trkpt lat="49.77515" lon="4.73273">
        <ele>153.86</ele>
        <time>2026-08-08T10:29:38.597Z</time>
      </trkpt>
      <trkpt lat="49.7751" lon="4.73307">
        <ele>154.04</ele>
        <time>2026-08-08T10:29:44.599Z</time>
      </trkpt>
      <trkpt lat="49.77504" lon="4.73346">
        <ele>154.06</ele>
        <time>2026-08-08T10:29:50.574Z</time>
      </trkpt>
      <trkpt lat="49.77495" lon="4.73383">
        <ele>154.05</ele>
        <time>2026-08-08T10:29:56.616Z</time>
      </trkpt>
      <trkpt lat="49.7749" lon="4.73426">
        <ele>154.05</ele>
        <time>2026-08-08T10:30:02.602Z</time>
      </trkpt>
      <trkpt lat="49.77484" lon="4.73467">
        <ele>153.15</ele>
        <time>2026-08-08T10:30:08.598Z</time>
      </trkpt>
      <trkpt lat="49.77479" lon="4.73512">
        <ele>153.15</ele>
        <time>2026-08-08T10:30:14.593Z</time>
      </trkpt>
      <trkpt lat="49.77467" lon="4.73553">
        <ele>153.15</ele>
        <time>2026-08-08T10:30:20.594Z</time>
      </trkpt>
      <trkpt lat="49.77466" lon="4.73592">
        <ele>153.15</ele>
        <time>2026-08-08T10:30:26.613Z</time>
      </trkpt>
      <trkpt lat="49.77458" lon="4.73631">
        <ele>152.27</ele>
        <time>2026-08-08T10:30:32.605Z</time>
      </trkpt>
      <trkpt lat="49.77443" lon="4.73678">
        <ele>150.85</ele>
        <time>2026-08-08T10:30:38.600Z</time>
      </trkpt>
      <trkpt lat="49.77428" lon="4.73726">
        <ele>150.85</ele>
        <time>2026-08-08T10:30:44.601Z</time>
      </trkpt>
      <trkpt lat="49.7741" lon="4.73786">
        <ele>150.85</ele>
        <time>2026-08-08T10:30:50.600Z</time>
      </trkpt>
      <trkpt lat="49.77394" lon="4.73849">
        <ele>150.85</ele>
        <time>2026-08-08T10:30:56.599Z</time>
      </trkpt>
      <trkpt lat="49.77381" lon="4.73904">
        <ele>150.85</ele>
        <time>2026-08-08T10:31:02.619Z</time>
      </trkpt>
      <trkpt lat="49.77377" lon="4.73939">
        <ele>150.85</ele>
        <time>2026-08-08T10:31:08.604Z</time>
      </trkpt>
      <trkpt lat="49.77377" lon="4.73954">
        <ele>144.66</ele>
        <time>2026-08-08T10:31:21.538Z</time>
      </trkpt>
      <trkpt lat="49.77378" lon="4.73973">
        <ele>144.65</ele>
        <time>2026-08-08T10:31:26.603Z</time>
      </trkpt>
      <trkpt lat="49.77385" lon="4.74002">
        <ele>144.85</ele>
        <time>2026-08-08T10:31:32.621Z</time>
      </trkpt>
      <trkpt lat="49.7739" lon="4.74029">
        <ele>144.85</ele>
        <time>2026-08-08T10:31:38.598Z</time>
      </trkpt>
      <trkpt lat="49.77396" lon="4.74063">
        <ele>144.85</ele>
        <time>2026-08-08T10:31:44.603Z</time>
      </trkpt>
      <trkpt lat="49.77402" lon="4.74099">
        <ele>144.85</ele>
        <time>2026-08-08T10:31:50.600Z</time>
      </trkpt>
      <trkpt lat="49.77408" lon="4.7413">
        <ele>144.85</ele>
        <time>2026-08-08T10:31:56.619Z</time>
      </trkpt>
      <trkpt lat="49.7738" lon="4.74148">
        <ele>144.85</ele>
        <time>2026-08-08T10:32:02.602Z</time>
      </trkpt>
      <trkpt lat="49.77331" lon="4.7416">
        <ele>144.85</ele>
        <time>2026-08-08T10:32:08.598Z</time>
      </trkpt>
      <trkpt lat="49.77292" lon="4.74175">
        <ele>144.85</ele>
        <time>2026-08-08T10:32:14.605Z</time>
      </trkpt>
      <trkpt lat="49.77254" lon="4.74192">
        <ele>144.85</ele>
        <time>2026-08-08T10:32:20.603Z</time>
      </trkpt>
      <trkpt lat="49.77216" lon="4.7421">
        <ele>144.85</ele>
        <time>2026-08-08T10:32:26.617Z</time>
      </trkpt>
      <trkpt lat="49.7718" lon="4.7423">
        <ele>144.85</ele>
        <time>2026-08-08T10:32:32.616Z</time>
      </trkpt>
      <trkpt lat="49.77145" lon="4.74249">
        <ele>144.85</ele>
        <time>2026-08-08T10:32:38.596Z</time>
      </trkpt>
      <trkpt lat="49.77116" lon="4.74278">
        <ele>144.85</ele>
        <time>2026-08-08T10:32:44.599Z</time>
      </trkpt>
      <trkpt lat="49.7709" lon="4.74312">
        <ele>144.85</ele>
        <time>2026-08-08T10:32:50.597Z</time>
      </trkpt>
      <trkpt lat="49.7707" lon="4.74353">
        <ele>144.85</ele>
        <time>2026-08-08T10:32:56.616Z</time>
      </trkpt>
      <trkpt lat="49.77055" lon="4.744">
        <ele>87.86</ele>
        <time>2026-08-08T10:33:02.613Z</time>
      </trkpt>
      <trkpt lat="49.77044" lon="4.74451">
        <ele>90.29</ele>
        <time>2026-08-08T10:33:08.602Z</time>
      </trkpt>
      <trkpt lat="49.7704" lon="4.745">
        <ele>89.7</ele>
        <time>2026-08-08T10:33:14.598Z</time>
      </trkpt>
      <trkpt lat="49.77038" lon="4.74551">
        <ele>90.85</ele>
        <time>2026-08-08T10:33:20.600Z</time>
      </trkpt>
      <trkpt lat="49.77039" lon="4.74605">
        <ele>90.4</ele>
        <time>2026-08-08T10:33:26.619Z</time>
      </trkpt>
      <trkpt lat="49.77043" lon="4.74658">
        <ele>89.63</ele>
        <time>2026-08-08T10:33:32.612Z</time>
      </trkpt>
      <trkpt lat="49.7705" lon="4.74712">
        <ele>87.88</ele>
        <time>2026-08-08T10:33:38.601Z</time>
      </trkpt>
      <trkpt lat="49.77061" lon="4.74765">
        <ele>86.1</ele>
        <time>2026-08-08T10:33:44.602Z</time>
      </trkpt>
      <trkpt lat="49.77075" lon="4.74814">
        <ele>88.94</ele>
        <time>2026-08-08T10:33:50.602Z</time>
      </trkpt>
      <trkpt lat="49.77093" lon="4.74858">
        <ele>92.02</ele>
        <time>2026-08-08T10:33:56.612Z</time>
      </trkpt>
      <trkpt lat="49.77116" lon="4.74898">
        <ele>92.72</ele>
        <time>2026-08-08T10:34:02.614Z</time>
      </trkpt>
      <trkpt lat="49.77142" lon="4.74937">
        <ele>91.75</ele>
        <time>2026-08-08T10:34:08.598Z</time>
      </trkpt>
      <trkpt lat="49.77167" lon="4.74976">
        <ele>92.5</ele>
        <time>2026-08-08T10:34:14.605Z</time>
      </trkpt>
      <trkpt lat="49.77195" lon="4.75014">
        <ele>92.51</ele>
        <time>2026-08-08T10:34:20.599Z</time>
      </trkpt>
      <trkpt lat="49.77226" lon="4.75045">
        <ele>89.91</ele>
        <time>2026-08-08T10:34:26.610Z</time>
      </trkpt>
      <trkpt lat="49.77254" lon="4.75079">
        <ele>87.98</ele>
        <time>2026-08-08T10:34:32.610Z</time>
      </trkpt>
      <trkpt lat="49.77283" lon="4.75112">
        <ele>88.18</ele>
        <time>2026-08-08T10:34:38.584Z</time>
      </trkpt>
      <trkpt lat="49.77315" lon="4.75136">
        <ele>89.41</ele>
        <time>2026-08-08T10:34:44.585Z</time>
      </trkpt>
      <trkpt lat="49.7735" lon="4.75155">
        <ele>88.5</ele>
        <time>2026-08-08T10:34:50.601Z</time>
      </trkpt>
      <trkpt lat="49.77384" lon="4.75162">
        <ele>89</ele>
        <time>2026-08-08T10:34:56.612Z</time>
      </trkpt>
      <trkpt lat="49.77418" lon="4.75158">
        <ele>88.32</ele>
        <time>2026-08-08T10:35:02.615Z</time>
      </trkpt>
      <trkpt lat="49.77451" lon="4.7515">
        <ele>89.41</ele>
        <time>2026-08-08T10:35:08.587Z</time>
      </trkpt>
      <trkpt lat="49.77485" lon="4.75146">
        <ele>90.85</ele>
        <time>2026-08-08T10:35:14.599Z</time>
      </trkpt>
      <trkpt lat="49.77519" lon="4.75141">
        <ele>91.32</ele>
        <time>2026-08-08T10:35:20.602Z</time>
      </trkpt>
      <trkpt lat="49.77554" lon="4.75142">
        <ele>91.68</ele>
        <time>2026-08-08T10:35:26.611Z</time>
      </trkpt>
      <trkpt lat="49.77589" lon="4.75141">
        <ele>92.88</ele>
        <time>2026-08-08T10:35:32.614Z</time>
      </trkpt>
      <trkpt lat="49.77625" lon="4.75138">
        <ele>92.69</ele>
        <time>2026-08-08T10:35:38.599Z</time>
      </trkpt>
      <trkpt lat="49.7766" lon="4.75138">
        <ele>93.07</ele>
        <time>2026-08-08T10:35:44.602Z</time>
      </trkpt>
      <trkpt lat="49.77694" lon="4.75139">
        <ele>93.21</ele>
        <time>2026-08-08T10:35:50.601Z</time>
      </trkpt>
      <trkpt lat="49.77728" lon="4.75138">
        <ele>93.35</ele>
        <time>2026-08-08T10:35:56.613Z</time>
      </trkpt>
      <trkpt lat="49.77765" lon="4.75138">
        <ele>93.01</ele>
        <time>2026-08-08T10:36:02.609Z</time>
      </trkpt>
      <trkpt lat="49.77801" lon="4.75134">
        <ele>91.93</ele>
        <time>2026-08-08T10:36:08.601Z</time>
      </trkpt>
      <trkpt lat="49.77837" lon="4.75128">
        <ele>93.27</ele>
        <time>2026-08-08T10:36:14.598Z</time>
      </trkpt>
      <trkpt lat="49.77871" lon="4.75119">
        <ele>93.26</ele>
        <time>2026-08-08T10:36:20.601Z</time>
      </trkpt>
      <trkpt lat="49.77908" lon="4.75113">
        <ele>92.18</ele>
        <time>2026-08-08T10:36:26.615Z</time>
      </trkpt>
      <trkpt lat="49.77944" lon="4.751">
        <ele>91.63</ele>
        <time>2026-08-08T10:36:32.612Z</time>
      </trkpt>
      <trkpt lat="49.77978" lon="4.75091">
        <ele>89.7</ele>
        <time>2026-08-08T10:36:38.600Z</time>
      </trkpt>
      <trkpt lat="49.78014" lon="4.75089">
        <ele>90.26</ele>
        <time>2026-08-08T10:36:44.598Z</time>
      </trkpt>
      <trkpt lat="49.78053" lon="4.75098">
        <ele>91.56</ele>
        <time>2026-08-08T10:36:50.607Z</time>
      </trkpt>
      <trkpt lat="49.78088" lon="4.75114">
        <ele>92.43</ele>
        <time>2026-08-08T10:36:56.615Z</time>
      </trkpt>
      <trkpt lat="49.78121" lon="4.75132">
        <ele>91.87</ele>
        <time>2026-08-08T10:37:02.614Z</time>
      </trkpt>
      <trkpt lat="49.78152" lon="4.75153">
        <ele>91.87</ele>
        <time>2026-08-08T10:37:08.607Z</time>
      </trkpt>
      <trkpt lat="49.78185" lon="4.75176">
        <ele>92.18</ele>
        <time>2026-08-08T10:37:14.608Z</time>
      </trkpt>
      <trkpt lat="49.78217" lon="4.75201">
        <ele>92.93</ele>
        <time>2026-08-08T10:37:20.606Z</time>
      </trkpt>
      <trkpt lat="49.7825" lon="4.75226">
        <ele>93.73</ele>
        <time>2026-08-08T10:37:26.620Z</time>
      </trkpt>
      <trkpt lat="49.78284" lon="4.75247">
        <ele>93.17</ele>
        <time>2026-08-08T10:37:32.614Z</time>
      </trkpt>
      <trkpt lat="49.78318" lon="4.7527">
        <ele>93.34</ele>
        <time>2026-08-08T10:37:38.608Z</time>
      </trkpt>
      <trkpt lat="49.78352" lon="4.75295">
        <ele>93.8</ele>
        <time>2026-08-08T10:37:44.613Z</time>
      </trkpt>
      <trkpt lat="49.78384" lon="4.75318">
        <ele>93.7</ele>
        <time>2026-08-08T10:37:50.605Z</time>
      </trkpt>
      <trkpt lat="49.78416" lon="4.75344">
        <ele>94.09</ele>
        <time>2026-08-08T10:37:56.612Z</time>
      </trkpt>
      <trkpt lat="49.78451" lon="4.7537">
        <ele>92.62</ele>
        <time>2026-08-08T10:38:02.613Z</time>
      </trkpt>
      <trkpt lat="49.78482" lon="4.75392">
        <ele>91.52</ele>
        <time>2026-08-08T10:38:08.605Z</time>
      </trkpt>
      <trkpt lat="49.78515" lon="4.75413">
        <ele>90.65</ele>
        <time>2026-08-08T10:38:14.608Z</time>
      </trkpt>
      <trkpt lat="49.78548" lon="4.75435">
        <ele>90.33</ele>
        <time>2026-08-08T10:38:20.609Z</time>
      </trkpt>
      <trkpt lat="49.78578" lon="4.75459">
        <ele>89.73</ele>
        <time>2026-08-08T10:38:26.612Z</time>
      </trkpt>
      <trkpt lat="49.78611" lon="4.75482">
        <ele>91.86</ele>
        <time>2026-08-08T10:38:32.613Z</time>
      </trkpt>
      <trkpt lat="49.78645" lon="4.75504">
        <ele>91.48</ele>
        <time>2026-08-08T10:38:38.606Z</time>
      </trkpt>
      <trkpt lat="49.78678" lon="4.75525">
        <ele>90.75</ele>
        <time>2026-08-08T10:38:44.606Z</time>
      </trkpt>
      <trkpt lat="49.7871" lon="4.75546">
        <ele>91.56</ele>
        <time>2026-08-08T10:38:50.606Z</time>
      </trkpt>
      <trkpt lat="49.78742" lon="4.75567">
        <ele>90.65</ele>
        <time>2026-08-08T10:38:56.613Z</time>
      </trkpt>
      <trkpt lat="49.78774" lon="4.75589">
        <ele>91.32</ele>
        <time>2026-08-08T10:39:02.615Z</time>
      </trkpt>
      <trkpt lat="49.78806" lon="4.75609">
        <ele>92.93</ele>
        <time>2026-08-08T10:39:08.607Z</time>
      </trkpt>
      <trkpt lat="49.7884" lon="4.75628">
        <ele>93.27</ele>
        <time>2026-08-08T10:39:14.606Z</time>
      </trkpt>
      <trkpt lat="49.78871" lon="4.75648">
        <ele>93.4</ele>
        <time>2026-08-08T10:39:20.606Z</time>
      </trkpt>
      <trkpt lat="49.78907" lon="4.7566">
        <ele>93.33</ele>
        <time>2026-08-08T10:39:26.616Z</time>
      </trkpt>
      <trkpt lat="49.78943" lon="4.75675">
        <ele>92.89</ele>
        <time>2026-08-08T10:39:32.613Z</time>
      </trkpt>
      <trkpt lat="49.78977" lon="4.7569">
        <ele>93.87</ele>
        <time>2026-08-08T10:39:38.607Z</time>
      </trkpt>
      <trkpt lat="49.79014" lon="4.75703">
        <ele>94.13</ele>
        <time>2026-08-08T10:39:44.592Z</time>
      </trkpt>
      <trkpt lat="49.79051" lon="4.75716">
        <ele>94.35</ele>
        <time>2026-08-08T10:39:50.591Z</time>
      </trkpt>
      <trkpt lat="49.79088" lon="4.75728">
        <ele>95.46</ele>
        <time>2026-08-08T10:39:56.618Z</time>
      </trkpt>
      <trkpt lat="49.79124" lon="4.7574">
        <ele>95.54</ele>
        <time>2026-08-08T10:40:02.614Z</time>
      </trkpt>
      <trkpt lat="49.79159" lon="4.75749">
        <ele>94.04</ele>
        <time>2026-08-08T10:40:08.606Z</time>
      </trkpt>
      <trkpt lat="49.79196" lon="4.7576">
        <ele>91.82</ele>
        <time>2026-08-08T10:40:14.609Z</time>
      </trkpt>
      <trkpt lat="49.79235" lon="4.7577">
        <ele>91.95</ele>
        <time>2026-08-08T10:40:20.607Z</time>
      </trkpt>
      <trkpt lat="49.79273" lon="4.75776">
        <ele>93.93</ele>
        <time>2026-08-08T10:40:26.618Z</time>
      </trkpt>
      <trkpt lat="49.79311" lon="4.75779">
        <ele>92.9</ele>
        <time>2026-08-08T10:40:32.613Z</time>
      </trkpt>
      <trkpt lat="49.79349" lon="4.75781">
        <ele>91.36</ele>
        <time>2026-08-08T10:40:38.607Z</time>
      </trkpt>
      <trkpt lat="49.79387" lon="4.75781">
        <ele>91.86</ele>
        <time>2026-08-08T10:40:44.607Z</time>
      </trkpt>
      <trkpt lat="49.79423" lon="4.75779">
        <ele>92.92</ele>
        <time>2026-08-08T10:40:50.612Z</time>
      </trkpt>
      <trkpt lat="49.79459" lon="4.75778">
        <ele>94.66</ele>
        <time>2026-08-08T10:40:56.591Z</time>
      </trkpt>
      <trkpt lat="49.79496" lon="4.75777">
        <ele>92.75</ele>
        <time>2026-08-08T10:41:02.612Z</time>
      </trkpt>
      <trkpt lat="49.79532" lon="4.75775">
        <ele>93.37</ele>
        <time>2026-08-08T10:41:08.605Z</time>
      </trkpt>
      <trkpt lat="49.79571" lon="4.75772">
        <ele>92.99</ele>
        <time>2026-08-08T10:41:14.607Z</time>
      </trkpt>
      <trkpt lat="49.79608" lon="4.7577">
        <ele>92.05</ele>
        <time>2026-08-08T10:41:20.607Z</time>
      </trkpt>
      <trkpt lat="49.79643" lon="4.75768">
        <ele>91.09</ele>
        <time>2026-08-08T10:41:26.620Z</time>
      </trkpt>
      <trkpt lat="49.79679" lon="4.75766">
        <ele>90.53</ele>
        <time>2026-08-08T10:41:32.612Z</time>
      </trkpt>
      <trkpt lat="49.79716" lon="4.75766">
        <ele>90.54</ele>
        <time>2026-08-08T10:41:38.606Z</time>
      </trkpt>
      <trkpt lat="49.79753" lon="4.75763">
        <ele>90.63</ele>
        <time>2026-08-08T10:41:44.605Z</time>
      </trkpt>
      <trkpt lat="49.79789" lon="4.7576">
        <ele>90.04</ele>
        <time>2026-08-08T10:41:50.610Z</time>
      </trkpt>
      <trkpt lat="49.79825" lon="4.75753">
        <ele>89.16</ele>
        <time>2026-08-08T10:41:56.616Z</time>
      </trkpt>
      <trkpt lat="49.79863" lon="4.75743">
        <ele>89.3</ele>
        <time>2026-08-08T10:42:02.612Z</time>
      </trkpt>
      <trkpt lat="49.79897" lon="4.75727">
        <ele>88.76</ele>
        <time>2026-08-08T10:42:08.609Z</time>
      </trkpt>
      <trkpt lat="49.79932" lon="4.75703">
        <ele>89.67</ele>
        <time>2026-08-08T10:42:14.601Z</time>
      </trkpt>
      <trkpt lat="49.79965" lon="4.75669">
        <ele>90.93</ele>
        <time>2026-08-08T10:42:20.606Z</time>
      </trkpt>
      <trkpt lat="49.79994" lon="4.75632">
        <ele>92.91</ele>
        <time>2026-08-08T10:42:26.617Z</time>
      </trkpt>
      <trkpt lat="49.80023" lon="4.75591">
        <ele>93.57</ele>
        <time>2026-08-08T10:42:32.609Z</time>
      </trkpt>
      <trkpt lat="49.80049" lon="4.75546">
        <ele>92.72</ele>
        <time>2026-08-08T10:42:38.613Z</time>
      </trkpt>
      <trkpt lat="49.80071" lon="4.75495">
        <ele>94.27</ele>
        <time>2026-08-08T10:42:44.609Z</time>
      </trkpt>
      <trkpt lat="49.80093" lon="4.75449">
        <ele>94.97</ele>
        <time>2026-08-08T10:42:50.617Z</time>
      </trkpt>
      <trkpt lat="49.80112" lon="4.75399">
        <ele>95.12</ele>
        <time>2026-08-08T10:42:56.619Z</time>
      </trkpt>
      <trkpt lat="49.80132" lon="4.75351">
        <ele>94.32</ele>
        <time>2026-08-08T10:43:02.612Z</time>
      </trkpt>
      <trkpt lat="49.80152" lon="4.75306">
        <ele>93.52</ele>
        <time>2026-08-08T10:43:08.618Z</time>
      </trkpt>
      <trkpt lat="49.80176" lon="4.75265">
        <ele>92.84</ele>
        <time>2026-08-08T10:43:14.612Z</time>
      </trkpt>
      <trkpt lat="49.802" lon="4.75221">
        <ele>91.44</ele>
        <time>2026-08-08T10:43:20.611Z</time>
      </trkpt>
      <trkpt lat="49.80224" lon="4.75178">
        <ele>90.1</ele>
        <time>2026-08-08T10:43:26.603Z</time>
      </trkpt>
      <trkpt lat="49.80247" lon="4.75134">
        <ele>89.31</ele>
        <time>2026-08-08T10:43:32.612Z</time>
      </trkpt>
      <trkpt lat="49.80273" lon="4.75088">
        <ele>88.41</ele>
        <time>2026-08-08T10:43:38.612Z</time>
      </trkpt>
      <trkpt lat="49.80298" lon="4.75045">
        <ele>88.91</ele>
        <time>2026-08-08T10:43:44.615Z</time>
      </trkpt>
      <trkpt lat="49.80323" lon="4.75002">
        <ele>89.12</ele>
        <time>2026-08-08T10:43:50.611Z</time>
      </trkpt>
      <trkpt lat="49.80351" lon="4.74961">
        <ele>90.94</ele>
        <time>2026-08-08T10:43:56.630Z</time>
      </trkpt>
      <trkpt lat="49.80377" lon="4.74922">
        <ele>90.49</ele>
        <time>2026-08-08T10:44:02.614Z</time>
      </trkpt>
      <trkpt lat="49.80404" lon="4.74884">
        <ele>91.23</ele>
        <time>2026-08-08T10:44:08.611Z</time>
      </trkpt>
      <trkpt lat="49.80428" lon="4.74839">
        <ele>90.18</ele>
        <time>2026-08-08T10:44:14.611Z</time>
      </trkpt>
      <trkpt lat="49.80452" lon="4.74795">
        <ele>90.71</ele>
        <time>2026-08-08T10:44:20.613Z</time>
      </trkpt>
      <trkpt lat="49.80479" lon="4.74756">
        <ele>91.1</ele>
        <time>2026-08-08T10:44:26.618Z</time>
      </trkpt>
      <trkpt lat="49.80504" lon="4.74712">
        <ele>91.03</ele>
        <time>2026-08-08T10:44:32.613Z</time>
      </trkpt>
      <trkpt lat="49.80525" lon="4.74671">
        <ele>90.1</ele>
        <time>2026-08-08T10:44:38.612Z</time>
      </trkpt>
      <trkpt lat="49.80551" lon="4.74629">
        <ele>89.6</ele>
        <time>2026-08-08T10:44:44.618Z</time>
      </trkpt>
      <trkpt lat="49.80581" lon="4.74586">
        <ele>89.46</ele>
        <time>2026-08-08T10:44:50.598Z</time>
      </trkpt>
      <trkpt lat="49.80606" lon="4.74547">
        <ele>91.62</ele>
        <time>2026-08-08T10:44:56.621Z</time>
      </trkpt>
      <trkpt lat="49.80635" lon="4.74509">
        <ele>90.32</ele>
        <time>2026-08-08T10:45:02.615Z</time>
      </trkpt>
      <trkpt lat="49.80662" lon="4.74471">
        <ele>90.63</ele>
        <time>2026-08-08T10:45:08.616Z</time>
      </trkpt>
      <trkpt lat="49.8069" lon="4.74432">
        <ele>90.24</ele>
        <time>2026-08-08T10:45:14.617Z</time>
      </trkpt>
      <trkpt lat="49.80717" lon="4.74394">
        <ele>88.14</ele>
        <time>2026-08-08T10:45:20.612Z</time>
      </trkpt>
      <trkpt lat="49.80747" lon="4.74356">
        <ele>88.57</ele>
        <time>2026-08-08T10:45:26.619Z</time>
      </trkpt>
      <trkpt lat="49.8078" lon="4.74321">
        <ele>90.04</ele>
        <time>2026-08-08T10:45:32.613Z</time>
      </trkpt>
      <trkpt lat="49.80814" lon="4.74288">
        <ele>89.28</ele>
        <time>2026-08-08T10:45:38.619Z</time>
      </trkpt>
      <trkpt lat="49.80846" lon="4.74255">
        <ele>89.72</ele>
        <time>2026-08-08T10:45:44.617Z</time>
      </trkpt>
      <trkpt lat="49.80875" lon="4.74224">
        <ele>90.6</ele>
        <time>2026-08-08T10:45:50.616Z</time>
      </trkpt>
      <trkpt lat="49.80904" lon="4.74194">
        <ele>91.11</ele>
        <time>2026-08-08T10:45:56.620Z</time>
      </trkpt>
      <trkpt lat="49.80936" lon="4.74165">
        <ele>89.33</ele>
        <time>2026-08-08T10:46:02.611Z</time>
      </trkpt>
      <trkpt lat="49.80967" lon="4.74134">
        <ele>89.35</ele>
        <time>2026-08-08T10:46:08.614Z</time>
      </trkpt>
      <trkpt lat="49.81" lon="4.74106">
        <ele>89.59</ele>
        <time>2026-08-08T10:46:14.619Z</time>
      </trkpt>
      <trkpt lat="49.81034" lon="4.7408">
        <ele>89.82</ele>
        <time>2026-08-08T10:46:20.611Z</time>
      </trkpt>
      <trkpt lat="49.81069" lon="4.74059">
        <ele>91.49</ele>
        <time>2026-08-08T10:46:26.621Z</time>
      </trkpt>
      <trkpt lat="49.81102" lon="4.74039">
        <ele>91.4</ele>
        <time>2026-08-08T10:46:32.612Z</time>
      </trkpt>
      <trkpt lat="49.81137" lon="4.7402">
        <ele>90.79</ele>
        <time>2026-08-08T10:46:38.619Z</time>
      </trkpt>
      <trkpt lat="49.81169" lon="4.74005">
        <ele>91.89</ele>
        <time>2026-08-08T10:46:44.616Z</time>
      </trkpt>
      <trkpt lat="49.81203" lon="4.7399">
        <ele>91.03</ele>
        <time>2026-08-08T10:46:50.611Z</time>
      </trkpt>
      <trkpt lat="49.81236" lon="4.7398">
        <ele>89.85</ele>
        <time>2026-08-08T10:46:56.652Z</time>
      </trkpt>
      <trkpt lat="49.81264" lon="4.73972">
        <ele>88</ele>
        <time>2026-08-08T10:47:02.679Z</time>
      </trkpt>
      <trkpt lat="49.81293" lon="4.73967">
        <ele>87.86</ele>
        <time>2026-08-08T10:47:08.626Z</time>
      </trkpt>
      <trkpt lat="49.81325" lon="4.73964">
        <ele>88.85</ele>
        <time>2026-08-08T10:47:14.614Z</time>
      </trkpt>
      <trkpt lat="49.81398" lon="4.73981">
        <ele>88.88</ele>
        <time>2026-08-08T10:47:28.592Z</time>
      </trkpt>
      <trkpt lat="49.81419" lon="4.73982">
        <ele>88.51</ele>
        <time>2026-08-08T10:47:34.711Z</time>
      </trkpt>
      <trkpt lat="49.81457" lon="4.73997">
        <ele>130.2</ele>
        <time>2026-08-08T10:47:40.585Z</time>
      </trkpt>
      <trkpt lat="49.8149" lon="4.7401">
        <ele>144.04</ele>
        <time>2026-08-08T10:47:46.555Z</time>
      </trkpt>
      <trkpt lat="49.81515" lon="4.74019">
        <ele>144.05</ele>
        <time>2026-08-08T10:47:51.556Z</time>
      </trkpt>
      <trkpt lat="49.81546" lon="4.74024">
        <ele>144.05</ele>
        <time>2026-08-08T10:47:57.556Z</time>
      </trkpt>
      <trkpt lat="49.81575" lon="4.74029">
        <ele>144.05</ele>
        <time>2026-08-08T10:48:02.563Z</time>
      </trkpt>
      <trkpt lat="49.81611" lon="4.74042">
        <ele>144.05</ele>
        <time>2026-08-08T10:48:08.555Z</time>
      </trkpt>
      <trkpt lat="49.81636" lon="4.74055">
        <ele>144.05</ele>
        <time>2026-08-08T10:48:13.555Z</time>
      </trkpt>
      <trkpt lat="49.81668" lon="4.74068">
        <ele>144.05</ele>
        <time>2026-08-08T10:48:18.557Z</time>
      </trkpt>
      <trkpt lat="49.81699" lon="4.74084">
        <ele>144.05</ele>
        <time>2026-08-08T10:48:23.560Z</time>
      </trkpt>
      <trkpt lat="49.81731" lon="4.74103">
        <ele>144.05</ele>
        <time>2026-08-08T10:48:28.560Z</time>
      </trkpt>
      <trkpt lat="49.81767" lon="4.74122">
        <ele>144.05</ele>
        <time>2026-08-08T10:48:34.552Z</time>
      </trkpt>
      <trkpt lat="49.81795" lon="4.74142">
        <ele>144.05</ele>
        <time>2026-08-08T10:48:39.559Z</time>
      </trkpt>
      <trkpt lat="49.81831" lon="4.74166">
        <ele>144.05</ele>
        <time>2026-08-08T10:48:45.549Z</time>
      </trkpt>
      <trkpt lat="49.81859" lon="4.74188">
        <ele>144.05</ele>
        <time>2026-08-08T10:48:50.554Z</time>
      </trkpt>
      <trkpt lat="49.81885" lon="4.74209">
        <ele>144.04</ele>
        <time>2026-08-08T10:48:55.555Z</time>
      </trkpt>
      <trkpt lat="49.81912" lon="4.74231">
        <ele>91.66</ele>
        <time>2026-08-08T10:49:00.561Z</time>
      </trkpt>
      <trkpt lat="49.81945" lon="4.74257">
        <ele>88.31</ele>
        <time>2026-08-08T10:49:06.546Z</time>
      </trkpt>
      <trkpt lat="49.81972" lon="4.74274">
        <ele>88.88</ele>
        <time>2026-08-08T10:49:11.559Z</time>
      </trkpt>
      <trkpt lat="49.82004" lon="4.74296">
        <ele>90.07</ele>
        <time>2026-08-08T10:49:17.562Z</time>
      </trkpt>
      <trkpt lat="49.8204" lon="4.7431">
        <ele>91.19</ele>
        <time>2026-08-08T10:49:23.550Z</time>
      </trkpt>
      <trkpt lat="49.82072" lon="4.74319">
        <ele>91.47</ele>
        <time>2026-08-08T10:49:28.550Z</time>
      </trkpt>
      <trkpt lat="49.82103" lon="4.74329">
        <ele>89.28</ele>
        <time>2026-08-08T10:49:33.561Z</time>
      </trkpt>
      <trkpt lat="49.82138" lon="4.74343">
        <ele>88.94</ele>
        <time>2026-08-08T10:49:39.553Z</time>
      </trkpt>
      <trkpt lat="49.82167" lon="4.74354">
        <ele>90.73</ele>
        <time>2026-08-08T10:49:44.557Z</time>
      </trkpt>
      <trkpt lat="49.82196" lon="4.74368">
        <ele>90.54</ele>
        <time>2026-08-08T10:49:49.558Z</time>
      </trkpt>
      <trkpt lat="49.82227" lon="4.74382">
        <ele>89.67</ele>
        <time>2026-08-08T10:49:54.560Z</time>
      </trkpt>
      <trkpt lat="49.82263" lon="4.74398">
        <ele>89.66</ele>
        <time>2026-08-08T10:50:00.560Z</time>
      </trkpt>
      <trkpt lat="49.82298" lon="4.74412">
        <ele>89.37</ele>
        <time>2026-08-08T10:50:06.559Z</time>
      </trkpt>
      <trkpt lat="49.82333" lon="4.74421">
        <ele>90.49</ele>
        <time>2026-08-08T10:50:12.548Z</time>
      </trkpt>
      <trkpt lat="49.82363" lon="4.74431">
        <ele>91.06</ele>
        <time>2026-08-08T10:50:17.560Z</time>
      </trkpt>
      <trkpt lat="49.82395" lon="4.74443">
        <ele>90.93</ele>
        <time>2026-08-08T10:50:23.558Z</time>
      </trkpt>
      <trkpt lat="49.82429" lon="4.74461">
        <ele>89.18</ele>
        <time>2026-08-08T10:50:29.560Z</time>
      </trkpt>
      <trkpt lat="49.82464" lon="4.74479">
        <ele>88.35</ele>
        <time>2026-08-08T10:50:35.560Z</time>
      </trkpt>
      <trkpt lat="49.82497" lon="4.74502">
        <ele>86.87</ele>
        <time>2026-08-08T10:50:41.565Z</time>
      </trkpt>
      <trkpt lat="49.8253" lon="4.74524">
        <ele>85.21</ele>
        <time>2026-08-08T10:50:47.578Z</time>
      </trkpt>
      <trkpt lat="49.82564" lon="4.74546">
        <ele>86.76</ele>
        <time>2026-08-08T10:50:53.562Z</time>
      </trkpt>
      <trkpt lat="49.82596" lon="4.7457">
        <ele>86.85</ele>
        <time>2026-08-08T10:50:59.545Z</time>
      </trkpt>
      <trkpt lat="49.82626" lon="4.74592">
        <ele>84.57</ele>
        <time>2026-08-08T10:51:04.549Z</time>
      </trkpt>
      <trkpt lat="49.82658" lon="4.7461">
        <ele>82.02</ele>
        <time>2026-08-08T10:51:10.533Z</time>
      </trkpt>
      <trkpt lat="49.82688" lon="4.74625">
        <ele>83.16</ele>
        <time>2026-08-08T10:51:15.535Z</time>
      </trkpt>
      <trkpt lat="49.82717" lon="4.74641">
        <ele>84.75</ele>
        <time>2026-08-08T10:51:20.582Z</time>
      </trkpt>
      <trkpt lat="49.82753" lon="4.74663">
        <ele>88.02</ele>
        <time>2026-08-08T10:51:26.559Z</time>
      </trkpt>
      <trkpt lat="49.82787" lon="4.74685">
        <ele>89.72</ele>
        <time>2026-08-08T10:51:32.548Z</time>
      </trkpt>
      <trkpt lat="49.82813" lon="4.74705">
        <ele>88.76</ele>
        <time>2026-08-08T10:51:37.550Z</time>
      </trkpt>
      <trkpt lat="49.82842" lon="4.74728">
        <ele>89.67</ele>
        <time>2026-08-08T10:51:42.560Z</time>
      </trkpt>
      <trkpt lat="49.82876" lon="4.74754">
        <ele>91.06</ele>
        <time>2026-08-08T10:51:48.564Z</time>
      </trkpt>
      <trkpt lat="49.82906" lon="4.74779">
        <ele>92.91</ele>
        <time>2026-08-08T10:51:54.559Z</time>
      </trkpt>
      <trkpt lat="49.82937" lon="4.74799">
        <ele>91.66</ele>
        <time>2026-08-08T10:52:00.545Z</time>
      </trkpt>
      <trkpt lat="49.82962" lon="4.74816">
        <ele>90.36</ele>
        <time>2026-08-08T10:52:05.559Z</time>
      </trkpt>
      <trkpt lat="49.82986" lon="4.74832">
        <ele>89.54</ele>
        <time>2026-08-08T10:52:10.562Z</time>
      </trkpt>
      <trkpt lat="49.83016" lon="4.74852">
        <ele>89.04</ele>
        <time>2026-08-08T10:52:16.557Z</time>
      </trkpt>
      <trkpt lat="49.83041" lon="4.74869">
        <ele>87.88</ele>
        <time>2026-08-08T10:52:21.564Z</time>
      </trkpt>
      <trkpt lat="49.83065" lon="4.74887">
        <ele>86.86</ele>
        <time>2026-08-08T10:52:26.620Z</time>
      </trkpt>
      <trkpt lat="49.83096" lon="4.74908">
        <ele>85.16</ele>
        <time>2026-08-08T10:52:32.558Z</time>
      </trkpt>
      <trkpt lat="49.83128" lon="4.7493">
        <ele>85.46</ele>
        <time>2026-08-08T10:52:38.569Z</time>
      </trkpt>
      <trkpt lat="49.83161" lon="4.74951">
        <ele>85.76</ele>
        <time>2026-08-08T10:52:44.573Z</time>
      </trkpt>
      <trkpt lat="49.83195" lon="4.7497">
        <ele>85.97</ele>
        <time>2026-08-08T10:52:50.572Z</time>
      </trkpt>
      <trkpt lat="49.8323" lon="4.74989">
        <ele>86.86</ele>
        <time>2026-08-08T10:52:56.560Z</time>
      </trkpt>
      <trkpt lat="49.83266" lon="4.75005">
        <ele>88.88</ele>
        <time>2026-08-08T10:53:02.559Z</time>
      </trkpt>
      <trkpt lat="49.83299" lon="4.75024">
        <ele>90.2</ele>
        <time>2026-08-08T10:53:08.571Z</time>
      </trkpt>
      <trkpt lat="49.83335" lon="4.75045">
        <ele>88.68</ele>
        <time>2026-08-08T10:53:14.571Z</time>
      </trkpt>
      <trkpt lat="49.83372" lon="4.75071">
        <ele>89.04</ele>
        <time>2026-08-08T10:53:20.568Z</time>
      </trkpt>
      <trkpt lat="49.83399" lon="4.75094">
        <ele>87.95</ele>
        <time>2026-08-08T10:53:26.558Z</time>
      </trkpt>
      <trkpt lat="49.83422" lon="4.75111">
        <ele>87.98</ele>
        <time>2026-08-08T10:53:32.565Z</time>
      </trkpt>
      <trkpt lat="49.83449" lon="4.75131">
        <ele>88.99</ele>
        <time>2026-08-08T10:53:38.570Z</time>
      </trkpt>
      <trkpt lat="49.83477" lon="4.75152">
        <ele>89.88</ele>
        <time>2026-08-08T10:53:44.569Z</time>
      </trkpt>
      <trkpt lat="49.83506" lon="4.75173">
        <ele>89.54</ele>
        <time>2026-08-08T10:53:50.571Z</time>
      </trkpt>
      <trkpt lat="49.83535" lon="4.75193">
        <ele>89.92</ele>
        <time>2026-08-08T10:53:56.558Z</time>
      </trkpt>
      <trkpt lat="49.83565" lon="4.75216">
        <ele>89.91</ele>
        <time>2026-08-08T10:54:02.561Z</time>
      </trkpt>
      <trkpt lat="49.83595" lon="4.7524">
        <ele>88.85</ele>
        <time>2026-08-08T10:54:08.571Z</time>
      </trkpt>
      <trkpt lat="49.83624" lon="4.75267">
        <ele>90.72</ele>
        <time>2026-08-08T10:54:14.566Z</time>
      </trkpt>
      <trkpt lat="49.83653" lon="4.75297">
        <ele>92.48</ele>
        <time>2026-08-08T10:54:20.552Z</time>
      </trkpt>
      <trkpt lat="49.83676" lon="4.75324">
        <ele>93.73</ele>
        <time>2026-08-08T10:54:25.563Z</time>
      </trkpt>
      <trkpt lat="49.83703" lon="4.75359">
        <ele>93.12</ele>
        <time>2026-08-08T10:54:31.561Z</time>
      </trkpt>
      <trkpt lat="49.83725" lon="4.75395">
        <ele>92.46</ele>
        <time>2026-08-08T10:54:37.566Z</time>
      </trkpt>
      <trkpt lat="49.83743" lon="4.75432">
        <ele>91.72</ele>
        <time>2026-08-08T10:54:43.556Z</time>
      </trkpt>
      <trkpt lat="49.83762" lon="4.75465">
        <ele>90.17</ele>
        <time>2026-08-08T10:54:48.558Z</time>
      </trkpt>
      <trkpt lat="49.83788" lon="4.75506">
        <ele>88.85</ele>
        <time>2026-08-08T10:54:53.559Z</time>
      </trkpt>
      <trkpt lat="49.83819" lon="4.75552">
        <ele>91.76</ele>
        <time>2026-08-08T10:54:59.553Z</time>
      </trkpt>
      <trkpt lat="49.83844" lon="4.75588">
        <ele>91.65</ele>
        <time>2026-08-08T10:55:04.556Z</time>
      </trkpt>
      <trkpt lat="49.83874" lon="4.75631">
        <ele>89.73</ele>
        <time>2026-08-08T10:55:10.557Z</time>
      </trkpt>
      <trkpt lat="49.839" lon="4.75671">
        <ele>88.39</ele>
        <time>2026-08-08T10:55:15.564Z</time>
      </trkpt>
      <trkpt lat="49.83927" lon="4.75709">
        <ele>87.07</ele>
        <time>2026-08-08T10:55:20.574Z</time>
      </trkpt>
      <trkpt lat="49.83956" lon="4.75756">
        <ele>87.03</ele>
        <time>2026-08-08T10:55:26.559Z</time>
      </trkpt>
      <trkpt lat="49.83982" lon="4.75804">
        <ele>86.73</ele>
        <time>2026-08-08T10:55:32.555Z</time>
      </trkpt>
      <trkpt lat="49.84001" lon="4.75846">
        <ele>86.35</ele>
        <time>2026-08-08T10:55:37.555Z</time>
      </trkpt>
      <trkpt lat="49.84019" lon="4.75889">
        <ele>85.22</ele>
        <time>2026-08-08T10:55:42.560Z</time>
      </trkpt>
      <trkpt lat="49.84034" lon="4.75944">
        <ele>85.25</ele>
        <time>2026-08-08T10:55:48.551Z</time>
      </trkpt>
      <trkpt lat="49.84043" lon="4.75989">
        <ele>85.38</ele>
        <time>2026-08-08T10:55:53.558Z</time>
      </trkpt>
      <trkpt lat="49.84046" lon="4.76037">
        <ele>86.6</ele>
        <time>2026-08-08T10:55:58.559Z</time>
      </trkpt>
      <trkpt lat="49.84046" lon="4.76087">
        <ele>87.76</ele>
        <time>2026-08-08T10:56:03.561Z</time>
      </trkpt>
      <trkpt lat="49.84041" lon="4.76137">
        <ele>88.17</ele>
        <time>2026-08-08T10:56:08.567Z</time>
      </trkpt>
      <trkpt lat="49.84032" lon="4.76195">
        <ele>88.54</ele>
        <time>2026-08-08T10:56:14.560Z</time>
      </trkpt>
      <trkpt lat="49.84025" lon="4.7625">
        <ele>86.67</ele>
        <time>2026-08-08T10:56:20.576Z</time>
      </trkpt>
      <trkpt lat="49.84017" lon="4.76306">
        <ele>85.17</ele>
        <time>2026-08-08T10:56:26.558Z</time>
      </trkpt>
      <trkpt lat="49.84011" lon="4.76353">
        <ele>83.95</ele>
        <time>2026-08-08T10:56:31.558Z</time>
      </trkpt>
      <trkpt lat="49.84002" lon="4.764">
        <ele>83.57</ele>
        <time>2026-08-08T10:56:36.563Z</time>
      </trkpt>
      <trkpt lat="49.83992" lon="4.76455">
        <ele>84.39</ele>
        <time>2026-08-08T10:56:42.558Z</time>
      </trkpt>
      <trkpt lat="49.83975" lon="4.76499">
        <ele>85.02</ele>
        <time>2026-08-08T10:56:47.558Z</time>
      </trkpt>
      <trkpt lat="49.83956" lon="4.76543">
        <ele>86.18</ele>
        <time>2026-08-08T10:56:53.559Z</time>
      </trkpt>
      <trkpt lat="49.83938" lon="4.76582">
        <ele>86.57</ele>
        <time>2026-08-08T10:56:59.562Z</time>
      </trkpt>
      <trkpt lat="49.83918" lon="4.76631">
        <ele>87.86</ele>
        <time>2026-08-08T10:57:05.555Z</time>
      </trkpt>
      <trkpt lat="49.83899" lon="4.76667">
        <ele>88.98</ele>
        <time>2026-08-08T10:57:10.555Z</time>
      </trkpt>
      <trkpt lat="49.83881" lon="4.76704">
        <ele>89.33</ele>
        <time>2026-08-08T10:57:15.559Z</time>
      </trkpt>
      <trkpt lat="49.83862" lon="4.76741">
        <ele>89.17</ele>
        <time>2026-08-08T10:57:20.578Z</time>
      </trkpt>
      <trkpt lat="49.8384" lon="4.76787">
        <ele>89.5</ele>
        <time>2026-08-08T10:57:26.623Z</time>
      </trkpt>
      <trkpt lat="49.83819" lon="4.76834">
        <ele>89.37</ele>
        <time>2026-08-08T10:57:32.560Z</time>
      </trkpt>
      <trkpt lat="49.83797" lon="4.76875">
        <ele>88.01</ele>
        <time>2026-08-08T10:57:38.584Z</time>
      </trkpt>
      <trkpt lat="49.83769" lon="4.76916">
        <ele>87.12</ele>
        <time>2026-08-08T10:57:44.575Z</time>
      </trkpt>
      <trkpt lat="49.83736" lon="4.76948">
        <ele>87.51</ele>
        <time>2026-08-08T10:57:50.581Z</time>
      </trkpt>
      <trkpt lat="49.83701" lon="4.76972">
        <ele>86.76</ele>
        <time>2026-08-08T10:57:56.559Z</time>
      </trkpt>
      <trkpt lat="49.83667" lon="4.76991">
        <ele>85.86</ele>
        <time>2026-08-08T10:58:02.560Z</time>
      </trkpt>
      <trkpt lat="49.83629" lon="4.77003">
        <ele>85.82</ele>
        <time>2026-08-08T10:58:08.582Z</time>
      </trkpt>
      <trkpt lat="49.83592" lon="4.77012">
        <ele>85.82</ele>
        <time>2026-08-08T10:58:14.582Z</time>
      </trkpt>
      <trkpt lat="49.83558" lon="4.77022">
        <ele>83.82</ele>
        <time>2026-08-08T10:58:20.582Z</time>
      </trkpt>
      <trkpt lat="49.83525" lon="4.77027">
        <ele>83.85</ele>
        <time>2026-08-08T10:58:26.558Z</time>
      </trkpt>
      <trkpt lat="49.83498" lon="4.77034">
        <ele>84.06</ele>
        <time>2026-08-08T10:58:31.566Z</time>
      </trkpt>
      <trkpt lat="49.83469" lon="4.77048">
        <ele>85.27</ele>
        <time>2026-08-08T10:58:37.558Z</time>
      </trkpt>
      <trkpt lat="49.83442" lon="4.77056">
        <ele>85.94</ele>
        <time>2026-08-08T10:58:42.559Z</time>
      </trkpt>
      <trkpt lat="49.83413" lon="4.77065">
        <ele>89.28</ele>
        <time>2026-08-08T10:58:47.560Z</time>
      </trkpt>
      <trkpt lat="49.83383" lon="4.77084">
        <ele>88.47</ele>
        <time>2026-08-08T10:58:53.561Z</time>
      </trkpt>
      <trkpt lat="49.83352" lon="4.77102">
        <ele>87.11</ele>
        <time>2026-08-08T10:58:59.558Z</time>
      </trkpt>
      <trkpt lat="49.83326" lon="4.77119">
        <ele>86.98</ele>
        <time>2026-08-08T10:59:04.561Z</time>
      </trkpt>
      <trkpt lat="49.833" lon="4.77137">
        <ele>87.19</ele>
        <time>2026-08-08T10:59:09.561Z</time>
      </trkpt>
      <trkpt lat="49.83276" lon="4.77156">
        <ele>87.39</ele>
        <time>2026-08-08T10:59:14.590Z</time>
      </trkpt>
      <trkpt lat="49.83247" lon="4.7718">
        <ele>87.58</ele>
        <time>2026-08-08T10:59:20.590Z</time>
      </trkpt>
      <trkpt lat="49.83219" lon="4.77206">
        <ele>88.8</ele>
        <time>2026-08-08T10:59:26.542Z</time>
      </trkpt>
      <trkpt lat="49.83195" lon="4.77237">
        <ele>90.3</ele>
        <time>2026-08-08T10:59:31.560Z</time>
      </trkpt>
      <trkpt lat="49.8318" lon="4.77275">
        <ele>88.92</ele>
        <time>2026-08-08T10:59:36.564Z</time>
      </trkpt>
      <trkpt lat="49.83168" lon="4.77319">
        <ele>89.1</ele>
        <time>2026-08-08T10:59:42.557Z</time>
      </trkpt>
      <trkpt lat="49.83166" lon="4.77361">
        <ele>91.76</ele>
        <time>2026-08-08T10:59:47.560Z</time>
      </trkpt>
      <trkpt lat="49.83166" lon="4.77421">
        <ele>92.49</ele>
        <time>2026-08-08T10:59:53.562Z</time>
      </trkpt>
      <trkpt lat="49.83175" lon="4.77471">
        <ele>92.59</ele>
        <time>2026-08-08T10:59:58.562Z</time>
      </trkpt>
      <trkpt lat="49.83189" lon="4.77531">
        <ele>93.98</ele>
        <time>2026-08-08T11:00:04.557Z</time>
      </trkpt>
      <trkpt lat="49.83197" lon="4.7758">
        <ele>93.11</ele>
        <time>2026-08-08T11:00:09.558Z</time>
      </trkpt>
      <trkpt lat="49.83211" lon="4.77628">
        <ele>92.06</ele>
        <time>2026-08-08T11:00:14.597Z</time>
      </trkpt>
      <trkpt lat="49.83229" lon="4.77683">
        <ele>90.03</ele>
        <time>2026-08-08T11:00:20.599Z</time>
      </trkpt>
      <trkpt lat="49.83247" lon="4.77736">
        <ele>90.82</ele>
        <time>2026-08-08T11:00:26.561Z</time>
      </trkpt>
      <trkpt lat="49.83271" lon="4.77782">
        <ele>91.61</ele>
        <time>2026-08-08T11:00:32.589Z</time>
      </trkpt>
      <trkpt lat="49.83296" lon="4.77823">
        <ele>91.08</ele>
        <time>2026-08-08T11:00:38.600Z</time>
      </trkpt>
      <trkpt lat="49.83321" lon="4.77864">
        <ele>90.1</ele>
        <time>2026-08-08T11:00:44.604Z</time>
      </trkpt>
      <trkpt lat="49.83351" lon="4.77898">
        <ele>90.03</ele>
        <time>2026-08-08T11:00:50.606Z</time>
      </trkpt>
      <trkpt lat="49.83383" lon="4.77927">
        <ele>88.98</ele>
        <time>2026-08-08T11:00:56.588Z</time>
      </trkpt>
      <trkpt lat="49.83416" lon="4.77951">
        <ele>89.11</ele>
        <time>2026-08-08T11:01:02.591Z</time>
      </trkpt>
      <trkpt lat="49.8345" lon="4.77971">
        <ele>89.63</ele>
        <time>2026-08-08T11:01:08.607Z</time>
      </trkpt>
      <trkpt lat="49.83484" lon="4.7799">
        <ele>90.74</ele>
        <time>2026-08-08T11:01:14.589Z</time>
      </trkpt>
      <trkpt lat="49.83517" lon="4.78005">
        <ele>92.58</ele>
        <time>2026-08-08T11:01:20.590Z</time>
      </trkpt>
      <trkpt lat="49.83549" lon="4.78022">
        <ele>91.67</ele>
        <time>2026-08-08T11:01:26.590Z</time>
      </trkpt>
      <trkpt lat="49.83582" lon="4.78032">
        <ele>90.31</ele>
        <time>2026-08-08T11:01:32.590Z</time>
      </trkpt>
      <trkpt lat="49.83615" lon="4.78038">
        <ele>89.55</ele>
        <time>2026-08-08T11:01:38.606Z</time>
      </trkpt>
      <trkpt lat="49.83649" lon="4.78041">
        <ele>89.41</ele>
        <time>2026-08-08T11:01:44.609Z</time>
      </trkpt>
      <trkpt lat="49.83682" lon="4.78046">
        <ele>90.36</ele>
        <time>2026-08-08T11:01:50.607Z</time>
      </trkpt>
      <trkpt lat="49.83715" lon="4.78052">
        <ele>91.53</ele>
        <time>2026-08-08T11:01:56.568Z</time>
      </trkpt>
      <trkpt lat="49.83748" lon="4.78064">
        <ele>92.33</ele>
        <time>2026-08-08T11:02:02.593Z</time>
      </trkpt>
      <trkpt lat="49.83783" lon="4.7808">
        <ele>92.66</ele>
        <time>2026-08-08T11:02:08.605Z</time>
      </trkpt>
      <trkpt lat="49.83818" lon="4.78096">
        <ele>92.63</ele>
        <time>2026-08-08T11:02:14.602Z</time>
      </trkpt>
      <trkpt lat="49.83855" lon="4.78109">
        <ele>91.71</ele>
        <time>2026-08-08T11:02:20.607Z</time>
      </trkpt>
      <trkpt lat="49.83893" lon="4.78113">
        <ele>91.81</ele>
        <time>2026-08-08T11:02:26.624Z</time>
      </trkpt>
      <trkpt lat="49.83931" lon="4.78113">
        <ele>90.99</ele>
        <time>2026-08-08T11:02:32.562Z</time>
      </trkpt>
      <trkpt lat="49.8397" lon="4.78111">
        <ele>90.52</ele>
        <time>2026-08-08T11:02:38.611Z</time>
      </trkpt>
      <trkpt lat="49.84011" lon="4.78108">
        <ele>89.64</ele>
        <time>2026-08-08T11:02:44.609Z</time>
      </trkpt>
      <trkpt lat="49.84051" lon="4.78099">
        <ele>90.1</ele>
        <time>2026-08-08T11:02:50.616Z</time>
      </trkpt>
      <trkpt lat="49.84091" lon="4.78087">
        <ele>89.85</ele>
        <time>2026-08-08T11:02:56.560Z</time>
      </trkpt>
      <trkpt lat="49.84131" lon="4.78071">
        <ele>89.9</ele>
        <time>2026-08-08T11:03:02.594Z</time>
      </trkpt>
      <trkpt lat="49.84171" lon="4.78054">
        <ele>89.72</ele>
        <time>2026-08-08T11:03:08.619Z</time>
      </trkpt>
      <trkpt lat="49.84209" lon="4.78037">
        <ele>89.98</ele>
        <time>2026-08-08T11:03:14.622Z</time>
      </trkpt>
      <trkpt lat="49.84245" lon="4.78018">
        <ele>90.82</ele>
        <time>2026-08-08T11:03:20.618Z</time>
      </trkpt>
      <trkpt lat="49.84284" lon="4.78001">
        <ele>91.06</ele>
        <time>2026-08-08T11:03:26.559Z</time>
      </trkpt>
      <trkpt lat="49.84322" lon="4.77985">
        <ele>91.76</ele>
        <time>2026-08-08T11:03:32.561Z</time>
      </trkpt>
      <trkpt lat="49.84355" lon="4.77975">
        <ele>91.63</ele>
        <time>2026-08-08T11:03:37.562Z</time>
      </trkpt>
      <trkpt lat="49.84395" lon="4.7796">
        <ele>91.18</ele>
        <time>2026-08-08T11:03:43.560Z</time>
      </trkpt>
      <trkpt lat="49.84436" lon="4.77946">
        <ele>90.8</ele>
        <time>2026-08-08T11:03:49.556Z</time>
      </trkpt>
      <trkpt lat="49.84468" lon="4.77937">
        <ele>90.82</ele>
        <time>2026-08-08T11:03:54.562Z</time>
      </trkpt>
      <trkpt lat="49.84502" lon="4.77928">
        <ele>90.22</ele>
        <time>2026-08-08T11:03:59.562Z</time>
      </trkpt>
      <trkpt lat="49.8454" lon="4.77915">
        <ele>89.81</ele>
        <time>2026-08-08T11:04:05.558Z</time>
      </trkpt>
      <trkpt lat="49.8457" lon="4.779">
        <ele>89.8</ele>
        <time>2026-08-08T11:04:10.559Z</time>
      </trkpt>
      <trkpt lat="49.846" lon="4.77887">
        <ele>90.99</ele>
        <time>2026-08-08T11:04:15.559Z</time>
      </trkpt>
      <trkpt lat="49.84632" lon="4.77872">
        <ele>89.97</ele>
        <time>2026-08-08T11:04:20.614Z</time>
      </trkpt>
      <trkpt lat="49.84666" lon="4.77848">
        <ele>90.36</ele>
        <time>2026-08-08T11:04:26.558Z</time>
      </trkpt>
      <trkpt lat="49.84703" lon="4.7782">
        <ele>91.34</ele>
        <time>2026-08-08T11:04:32.560Z</time>
      </trkpt>
      <trkpt lat="49.8473" lon="4.77795">
        <ele>92.16</ele>
        <time>2026-08-08T11:04:37.562Z</time>
      </trkpt>
      <trkpt lat="49.84766" lon="4.7776">
        <ele>92.51</ele>
        <time>2026-08-08T11:04:43.562Z</time>
      </trkpt>
      <trkpt lat="49.84796" lon="4.77723">
        <ele>92.06</ele>
        <time>2026-08-08T11:04:49.553Z</time>
      </trkpt>
      <trkpt lat="49.84815" lon="4.77693">
        <ele>90.91</ele>
        <time>2026-08-08T11:04:54.561Z</time>
      </trkpt>
      <trkpt lat="49.84843" lon="4.77652">
        <ele>89.16</ele>
        <time>2026-08-08T11:05:00.551Z</time>
      </trkpt>
      <trkpt lat="49.84863" lon="4.77617">
        <ele>90.11</ele>
        <time>2026-08-08T11:05:05.556Z</time>
      </trkpt>
      <trkpt lat="49.84886" lon="4.7758">
        <ele>90.99</ele>
        <time>2026-08-08T11:05:11.551Z</time>
      </trkpt>
      <trkpt lat="49.84905" lon="4.77547">
        <ele>91.4</ele>
        <time>2026-08-08T11:05:16.554Z</time>
      </trkpt>
      <trkpt lat="49.84924" lon="4.77516">
        <ele>90.67</ele>
        <time>2026-08-08T11:05:21.565Z</time>
      </trkpt>
      <trkpt lat="49.84941" lon="4.77486">
        <ele>89.71</ele>
        <time>2026-08-08T11:05:26.623Z</time>
      </trkpt>
      <trkpt lat="49.84964" lon="4.77444">
        <ele>89.56</ele>
        <time>2026-08-08T11:05:32.595Z</time>
      </trkpt>
      <trkpt lat="49.84982" lon="4.77401">
        <ele>89.13</ele>
        <time>2026-08-08T11:05:38.614Z</time>
      </trkpt>
      <trkpt lat="49.85006" lon="4.77361">
        <ele>90.21</ele>
        <time>2026-08-08T11:05:44.618Z</time>
      </trkpt>
      <trkpt lat="49.85033" lon="4.77321">
        <ele>90.65</ele>
        <time>2026-08-08T11:05:50.621Z</time>
      </trkpt>
      <trkpt lat="49.85057" lon="4.77276">
        <ele>89.98</ele>
        <time>2026-08-08T11:05:56.560Z</time>
      </trkpt>
      <trkpt lat="49.8508" lon="4.77226">
        <ele>90.4</ele>
        <time>2026-08-08T11:06:02.597Z</time>
      </trkpt>
      <trkpt lat="49.85101" lon="4.77173">
        <ele>89.33</ele>
        <time>2026-08-08T11:06:08.623Z</time>
      </trkpt>
      <trkpt lat="49.8512" lon="4.77122">
        <ele>89.76</ele>
        <time>2026-08-08T11:06:14.618Z</time>
      </trkpt>
      <trkpt lat="49.85141" lon="4.77072">
        <ele>89.81</ele>
        <time>2026-08-08T11:06:20.600Z</time>
      </trkpt>
      <trkpt lat="49.8516" lon="4.77023">
        <ele>90.98</ele>
        <time>2026-08-08T11:06:26.607Z</time>
      </trkpt>
      <trkpt lat="49.85181" lon="4.76968">
        <ele>90.43</ele>
        <time>2026-08-08T11:06:32.597Z</time>
      </trkpt>
      <trkpt lat="49.852" lon="4.76913">
        <ele>91.65</ele>
        <time>2026-08-08T11:06:38.615Z</time>
      </trkpt>
      <trkpt lat="49.8522" lon="4.76866">
        <ele>91.69</ele>
        <time>2026-08-08T11:06:44.619Z</time>
      </trkpt>
      <trkpt lat="49.85241" lon="4.76819">
        <ele>90.06</ele>
        <time>2026-08-08T11:06:50.618Z</time>
      </trkpt>
      <trkpt lat="49.85246" lon="4.76767">
        <ele>88.31</ele>
        <time>2026-08-08T11:06:56.624Z</time>
      </trkpt>
      <trkpt lat="49.85247" lon="4.76714">
        <ele>87.82</ele>
        <time>2026-08-08T11:07:02.619Z</time>
      </trkpt>
      <trkpt lat="49.8526" lon="4.7666">
        <ele>87.08</ele>
        <time>2026-08-08T11:07:08.621Z</time>
      </trkpt>
      <trkpt lat="49.85271" lon="4.76611">
        <ele>87.19</ele>
        <time>2026-08-08T11:07:14.619Z</time>
      </trkpt>
      <trkpt lat="49.85279" lon="4.76558">
        <ele>89.67</ele>
        <time>2026-08-08T11:07:20.616Z</time>
      </trkpt>
      <trkpt lat="49.85289" lon="4.76507">
        <ele>89.61</ele>
        <time>2026-08-08T11:07:26.623Z</time>
      </trkpt>
      <trkpt lat="49.85297" lon="4.76449">
        <ele>88.7</ele>
        <time>2026-08-08T11:07:32.583Z</time>
      </trkpt>
      <trkpt lat="49.85309" lon="4.76395">
        <ele>88.97</ele>
        <time>2026-08-08T11:07:38.619Z</time>
      </trkpt>
      <trkpt lat="49.85328" lon="4.76345">
        <ele>88.55</ele>
        <time>2026-08-08T11:07:44.617Z</time>
      </trkpt>
      <trkpt lat="49.85347" lon="4.76296">
        <ele>87.5</ele>
        <time>2026-08-08T11:07:50.618Z</time>
      </trkpt>
      <trkpt lat="49.85371" lon="4.76252">
        <ele>87.39</ele>
        <time>2026-08-08T11:07:56.622Z</time>
      </trkpt>
      <trkpt lat="49.85398" lon="4.7621">
        <ele>88.36</ele>
        <time>2026-08-08T11:08:02.639Z</time>
      </trkpt>
      <trkpt lat="49.8542" lon="4.76164">
        <ele>89.83</ele>
        <time>2026-08-08T11:08:08.598Z</time>
      </trkpt>
      <trkpt lat="49.85444" lon="4.76123">
        <ele>89.7</ele>
        <time>2026-08-08T11:08:14.619Z</time>
      </trkpt>
      <trkpt lat="49.85466" lon="4.7608">
        <ele>88.67</ele>
        <time>2026-08-08T11:08:20.615Z</time>
      </trkpt>
      <trkpt lat="49.85493" lon="4.76031">
        <ele>87.98</ele>
        <time>2026-08-08T11:08:26.574Z</time>
      </trkpt>
      <trkpt lat="49.8552" lon="4.75988">
        <ele>90.07</ele>
        <time>2026-08-08T11:08:32.560Z</time>
      </trkpt>
      <trkpt lat="49.85545" lon="4.75943">
        <ele>90.37</ele>
        <time>2026-08-08T11:08:38.620Z</time>
      </trkpt>
      <trkpt lat="49.8557" lon="4.75898">
        <ele>91.28</ele>
        <time>2026-08-08T11:08:44.602Z</time>
      </trkpt>
      <trkpt lat="49.85597" lon="4.75854">
        <ele>93.4</ele>
        <time>2026-08-08T11:08:50.618Z</time>
      </trkpt>
      <trkpt lat="49.85621" lon="4.7581">
        <ele>92.4</ele>
        <time>2026-08-08T11:08:56.625Z</time>
      </trkpt>
      <trkpt lat="49.85646" lon="4.75765">
        <ele>90.81</ele>
        <time>2026-08-08T11:09:02.618Z</time>
      </trkpt>
      <trkpt lat="49.85669" lon="4.75721">
        <ele>88.3</ele>
        <time>2026-08-08T11:09:08.620Z</time>
      </trkpt>
      <trkpt lat="49.8569" lon="4.75677">
        <ele>85.44</ele>
        <time>2026-08-08T11:09:14.613Z</time>
      </trkpt>
      <trkpt lat="49.85709" lon="4.75637">
        <ele>84.72</ele>
        <time>2026-08-08T11:09:20.618Z</time>
      </trkpt>
      <trkpt lat="49.85729" lon="4.75597">
        <ele>86.59</ele>
        <time>2026-08-08T11:09:26.624Z</time>
      </trkpt>
      <trkpt lat="49.85751" lon="4.7556">
        <ele>90.34</ele>
        <time>2026-08-08T11:09:32.619Z</time>
      </trkpt>
      <trkpt lat="49.85772" lon="4.75522">
        <ele>92.25</ele>
        <time>2026-08-08T11:09:38.615Z</time>
      </trkpt>
      <trkpt lat="49.85791" lon="4.75484">
        <ele>91.89</ele>
        <time>2026-08-08T11:09:44.619Z</time>
      </trkpt>
      <trkpt lat="49.85812" lon="4.75443">
        <ele>90.43</ele>
        <time>2026-08-08T11:09:50.618Z</time>
      </trkpt>
      <trkpt lat="49.85832" lon="4.75406">
        <ele>89.04</ele>
        <time>2026-08-08T11:09:56.624Z</time>
      </trkpt>
      <trkpt lat="49.85854" lon="4.75369">
        <ele>87.58</ele>
        <time>2026-08-08T11:10:02.557Z</time>
      </trkpt>
      <trkpt lat="49.85872" lon="4.75339">
        <ele>86.49</ele>
        <time>2026-08-08T11:10:07.558Z</time>
      </trkpt>
      <trkpt lat="49.8589" lon="4.75307">
        <ele>87.18</ele>
        <time>2026-08-08T11:10:12.558Z</time>
      </trkpt>
      <trkpt lat="49.85909" lon="4.7528">
        <ele>88.02</ele>
        <time>2026-08-08T11:10:17.559Z</time>
      </trkpt>
      <trkpt lat="49.85931" lon="4.75257">
        <ele>91.11</ele>
        <time>2026-08-08T11:10:23.559Z</time>
      </trkpt>
      <trkpt lat="49.8595" lon="4.75236">
        <ele>92.37</ele>
        <time>2026-08-08T11:10:28.559Z</time>
      </trkpt>
      <trkpt lat="49.85972" lon="4.75206">
        <ele>89.53</ele>
        <time>2026-08-08T11:10:33.560Z</time>
      </trkpt>
      <trkpt lat="49.85997" lon="4.75174">
        <ele>88.07</ele>
        <time>2026-08-08T11:10:38.621Z</time>
      </trkpt>
      <trkpt lat="49.86026" lon="4.75134">
        <ele>87.18</ele>
        <time>2026-08-08T11:10:44.621Z</time>
      </trkpt>
      <trkpt lat="49.86052" lon="4.75099">
        <ele>86.86</ele>
        <time>2026-08-08T11:10:50.617Z</time>
      </trkpt>
      <trkpt lat="49.86072" lon="4.75059">
        <ele>85.14</ele>
        <time>2026-08-08T11:10:56.623Z</time>
      </trkpt>
      <trkpt lat="49.8609" lon="4.75014">
        <ele>84.23</ele>
        <time>2026-08-08T11:11:02.555Z</time>
      </trkpt>
      <trkpt lat="49.86103" lon="4.7497">
        <ele>84.93</ele>
        <time>2026-08-08T11:11:07.562Z</time>
      </trkpt>
      <trkpt lat="49.86111" lon="4.74914">
        <ele>84.41</ele>
        <time>2026-08-08T11:11:13.558Z</time>
      </trkpt>
      <trkpt lat="49.86109" lon="4.74865">
        <ele>84.38</ele>
        <time>2026-08-08T11:11:18.560Z</time>
      </trkpt>
      <trkpt lat="49.86098" lon="4.74821">
        <ele>85.23</ele>
        <time>2026-08-08T11:11:23.565Z</time>
      </trkpt>
      <trkpt lat="49.86077" lon="4.74778">
        <ele>87.09</ele>
        <time>2026-08-08T11:11:29.544Z</time>
      </trkpt>
      <trkpt lat="49.86055" lon="4.74735">
        <ele>88.55</ele>
        <time>2026-08-08T11:11:35.565Z</time>
      </trkpt>
      <trkpt lat="49.86033" lon="4.74691">
        <ele>88.05</ele>
        <time>2026-08-08T11:11:41.562Z</time>
      </trkpt>
      <trkpt lat="49.86012" lon="4.74647">
        <ele>86.15</ele>
        <time>2026-08-08T11:11:47.561Z</time>
      </trkpt>
      <trkpt lat="49.85993" lon="4.74598">
        <ele>85.4</ele>
        <time>2026-08-08T11:11:53.566Z</time>
      </trkpt>
      <trkpt lat="49.8597" lon="4.74555">
        <ele>86.25</ele>
        <time>2026-08-08T11:11:59.565Z</time>
      </trkpt>
      <trkpt lat="49.85947" lon="4.74507">
        <ele>86.86</ele>
        <time>2026-08-08T11:12:05.559Z</time>
      </trkpt>
      <trkpt lat="49.8592" lon="4.74462">
        <ele>86.42</ele>
        <time>2026-08-08T11:12:11.559Z</time>
      </trkpt>
      <trkpt lat="49.85898" lon="4.74425">
        <ele>86.6</ele>
        <time>2026-08-08T11:12:16.564Z</time>
      </trkpt>
      <trkpt lat="49.85872" lon="4.74385">
        <ele>87.5</ele>
        <time>2026-08-08T11:12:22.556Z</time>
      </trkpt>
      <trkpt lat="49.85849" lon="4.7435">
        <ele>87</ele>
        <time>2026-08-08T11:12:27.558Z</time>
      </trkpt>
      <trkpt lat="49.85826" lon="4.74314">
        <ele>85.69</ele>
        <time>2026-08-08T11:12:32.616Z</time>
      </trkpt>
      <trkpt lat="49.858" lon="4.7427">
        <ele>86.06</ele>
        <time>2026-08-08T11:12:38.623Z</time>
      </trkpt>
      <trkpt lat="49.85775" lon="4.74228">
        <ele>85.32</ele>
        <time>2026-08-08T11:12:44.618Z</time>
      </trkpt>
      <trkpt lat="49.8575" lon="4.74186">
        <ele>86.81</ele>
        <time>2026-08-08T11:12:50.616Z</time>
      </trkpt>
      <trkpt lat="49.85727" lon="4.74147">
        <ele>88.03</ele>
        <time>2026-08-08T11:12:56.620Z</time>
      </trkpt>
      <trkpt lat="49.85708" lon="4.74112">
        <ele>87.6</ele>
        <time>2026-08-08T11:13:02.617Z</time>
      </trkpt>
      <trkpt lat="49.8569" lon="4.74072">
        <ele>86.67</ele>
        <time>2026-08-08T11:13:08.618Z</time>
      </trkpt>
      <trkpt lat="49.85674" lon="4.74032">
        <ele>84.85</ele>
        <time>2026-08-08T11:13:14.623Z</time>
      </trkpt>
      <trkpt lat="49.85661" lon="4.73991">
        <ele>81.96</ele>
        <time>2026-08-08T11:13:20.621Z</time>
      </trkpt>
      <trkpt lat="49.85653" lon="4.73952">
        <ele>80.66</ele>
        <time>2026-08-08T11:13:26.612Z</time>
      </trkpt>
      <trkpt lat="49.85646" lon="4.73907">
        <ele>82.35</ele>
        <time>2026-08-08T11:13:32.615Z</time>
      </trkpt>
      <trkpt lat="49.85645" lon="4.7386">
        <ele>85.65</ele>
        <time>2026-08-08T11:13:38.613Z</time>
      </trkpt>
      <trkpt lat="49.85644" lon="4.7381">
        <ele>88.12</ele>
        <time>2026-08-08T11:13:44.617Z</time>
      </trkpt>
      <trkpt lat="49.85643" lon="4.73754">
        <ele>89.16</ele>
        <time>2026-08-08T11:13:50.623Z</time>
      </trkpt>
      <trkpt lat="49.85651" lon="4.73695">
        <ele>89.07</ele>
        <time>2026-08-08T11:13:56.619Z</time>
      </trkpt>
      <trkpt lat="49.85668" lon="4.73644">
        <ele>88.63</ele>
        <time>2026-08-08T11:14:02.617Z</time>
      </trkpt>
      <trkpt lat="49.85689" lon="4.73596">
        <ele>86.3</ele>
        <time>2026-08-08T11:14:08.617Z</time>
      </trkpt>
      <trkpt lat="49.85718" lon="4.73557">
        <ele>85.42</ele>
        <time>2026-08-08T11:14:14.615Z</time>
      </trkpt>
      <trkpt lat="49.85744" lon="4.73529">
        <ele>84.74</ele>
        <time>2026-08-08T11:14:20.617Z</time>
      </trkpt>
      <trkpt lat="49.8577" lon="4.73505">
        <ele>84.34</ele>
        <time>2026-08-08T11:14:26.617Z</time>
      </trkpt>
      <trkpt lat="49.85798" lon="4.73485">
        <ele>83.88</ele>
        <time>2026-08-08T11:14:32.618Z</time>
      </trkpt>
      <trkpt lat="49.85827" lon="4.73473">
        <ele>81.67</ele>
        <time>2026-08-08T11:14:38.618Z</time>
      </trkpt>
      <trkpt lat="49.85862" lon="4.73467">
        <ele>81.11</ele>
        <time>2026-08-08T11:14:44.644Z</time>
      </trkpt>
      <trkpt lat="49.85897" lon="4.73463">
        <ele>82.45</ele>
        <time>2026-08-08T11:14:50.617Z</time>
      </trkpt>
      <trkpt lat="49.85932" lon="4.73458">
        <ele>86.65</ele>
        <time>2026-08-08T11:14:56.626Z</time>
      </trkpt>
      <trkpt lat="49.85965" lon="4.7345">
        <ele>87.72</ele>
        <time>2026-08-08T11:15:02.620Z</time>
      </trkpt>
      <trkpt lat="49.85995" lon="4.73443">
        <ele>89.51</ele>
        <time>2026-08-08T11:15:08.617Z</time>
      </trkpt>
      <trkpt lat="49.86025" lon="4.73434">
        <ele>89.8</ele>
        <time>2026-08-08T11:15:14.615Z</time>
      </trkpt>
      <trkpt lat="49.86056" lon="4.73423">
        <ele>89.26</ele>
        <time>2026-08-08T11:15:20.617Z</time>
      </trkpt>
      <trkpt lat="49.86089" lon="4.7342">
        <ele>87.4</ele>
        <time>2026-08-08T11:15:26.614Z</time>
      </trkpt>
      <trkpt lat="49.86121" lon="4.73426">
        <ele>86.61</ele>
        <time>2026-08-08T11:15:32.614Z</time>
      </trkpt>
      <trkpt lat="49.86152" lon="4.73436">
        <ele>88.49</ele>
        <time>2026-08-08T11:15:38.622Z</time>
      </trkpt>
      <trkpt lat="49.86178" lon="4.73462">
        <ele>89.67</ele>
        <time>2026-08-08T11:15:44.619Z</time>
      </trkpt>
      <trkpt lat="49.86202" lon="4.73501">
        <ele>90.01</ele>
        <time>2026-08-08T11:15:50.618Z</time>
      </trkpt>
      <trkpt lat="49.86226" lon="4.73546">
        <ele>89.95</ele>
        <time>2026-08-08T11:15:56.620Z</time>
      </trkpt>
      <trkpt lat="49.86252" lon="4.73587">
        <ele>89.95</ele>
        <time>2026-08-08T11:16:02.619Z</time>
      </trkpt>
      <trkpt lat="49.86277" lon="4.73628">
        <ele>89.44</ele>
        <time>2026-08-08T11:16:08.620Z</time>
      </trkpt>
      <trkpt lat="49.86301" lon="4.73664">
        <ele>90.01</ele>
        <time>2026-08-08T11:16:14.620Z</time>
      </trkpt>
      <trkpt lat="49.86329" lon="4.73696">
        <ele>88.13</ele>
        <time>2026-08-08T11:16:20.618Z</time>
      </trkpt>
      <trkpt lat="49.86358" lon="4.73728">
        <ele>88.07</ele>
        <time>2026-08-08T11:16:26.566Z</time>
      </trkpt>
      <trkpt lat="49.86384" lon="4.7376">
        <ele>86.42</ele>
        <time>2026-08-08T11:16:32.573Z</time>
      </trkpt>
      <trkpt lat="49.8641" lon="4.73789">
        <ele>85.63</ele>
        <time>2026-08-08T11:16:38.619Z</time>
      </trkpt>
      <trkpt lat="49.86437" lon="4.73814">
        <ele>85.78</ele>
        <time>2026-08-08T11:16:44.609Z</time>
      </trkpt>
      <trkpt lat="49.86468" lon="4.73831">
        <ele>85.8</ele>
        <time>2026-08-08T11:16:50.622Z</time>
      </trkpt>
      <trkpt lat="49.86501" lon="4.7384">
        <ele>85.68</ele>
        <time>2026-08-08T11:16:56.591Z</time>
      </trkpt>
      <trkpt lat="49.86534" lon="4.73844">
        <ele>86.22</ele>
        <time>2026-08-08T11:17:02.598Z</time>
      </trkpt>
      <trkpt lat="49.86566" lon="4.73849">
        <ele>86.55</ele>
        <time>2026-08-08T11:17:08.623Z</time>
      </trkpt>
      <trkpt lat="49.86599" lon="4.73857">
        <ele>88.45</ele>
        <time>2026-08-08T11:17:14.613Z</time>
      </trkpt>
      <trkpt lat="49.86633" lon="4.73862">
        <ele>88.44</ele>
        <time>2026-08-08T11:17:20.615Z</time>
      </trkpt>
      <trkpt lat="49.86668" lon="4.7387">
        <ele>88.82</ele>
        <time>2026-08-08T11:17:26.623Z</time>
      </trkpt>
      <trkpt lat="49.86699" lon="4.73879">
        <ele>89.3</ele>
        <time>2026-08-08T11:17:32.594Z</time>
      </trkpt>
      <trkpt lat="49.86732" lon="4.73889">
        <ele>88.17</ele>
        <time>2026-08-08T11:17:38.611Z</time>
      </trkpt>
      <trkpt lat="49.86767" lon="4.739">
        <ele>90.16</ele>
        <time>2026-08-08T11:17:44.614Z</time>
      </trkpt>
      <trkpt lat="49.86804" lon="4.73903">
        <ele>87.54</ele>
        <time>2026-08-08T11:17:50.612Z</time>
      </trkpt>
      <trkpt lat="49.86838" lon="4.73909">
        <ele>87.77</ele>
        <time>2026-08-08T11:17:56.624Z</time>
      </trkpt>
      <trkpt lat="49.86872" lon="4.73916">
        <ele>86.97</ele>
        <time>2026-08-08T11:18:02.613Z</time>
      </trkpt>
      <trkpt lat="49.8691" lon="4.73927">
        <ele>86.65</ele>
        <time>2026-08-08T11:18:08.612Z</time>
      </trkpt>
      <trkpt lat="49.86945" lon="4.73942">
        <ele>87.08</ele>
        <time>2026-08-08T11:18:14.616Z</time>
      </trkpt>
      <trkpt lat="49.86982" lon="4.73956">
        <ele>85.71</ele>
        <time>2026-08-08T11:18:20.613Z</time>
      </trkpt>
      <trkpt lat="49.87019" lon="4.7397">
        <ele>85.64</ele>
        <time>2026-08-08T11:18:26.577Z</time>
      </trkpt>
      <trkpt lat="49.87057" lon="4.73985">
        <ele>84</ele>
        <time>2026-08-08T11:18:32.621Z</time>
      </trkpt>
      <trkpt lat="49.87097" lon="4.74003">
        <ele>84.25</ele>
        <time>2026-08-08T11:18:38.612Z</time>
      </trkpt>
      <trkpt lat="49.87136" lon="4.74018">
        <ele>84.23</ele>
        <time>2026-08-08T11:18:44.605Z</time>
      </trkpt>
      <trkpt lat="49.87175" lon="4.74035">
        <ele>85.83</ele>
        <time>2026-08-08T11:18:50.607Z</time>
      </trkpt>
      <trkpt lat="49.87213" lon="4.74052">
        <ele>88.66</ele>
        <time>2026-08-08T11:18:56.623Z</time>
      </trkpt>
      <trkpt lat="49.8725" lon="4.74069">
        <ele>89.16</ele>
        <time>2026-08-08T11:19:02.596Z</time>
      </trkpt>
      <trkpt lat="49.87287" lon="4.74089">
        <ele>89.66</ele>
        <time>2026-08-08T11:19:08.615Z</time>
      </trkpt>
      <trkpt lat="49.87323" lon="4.74109">
        <ele>89.66</ele>
        <time>2026-08-08T11:19:14.613Z</time>
      </trkpt>
      <trkpt lat="49.87359" lon="4.74125">
        <ele>90.43</ele>
        <time>2026-08-08T11:19:20.612Z</time>
      </trkpt>
      <trkpt lat="49.87394" lon="4.7414">
        <ele>91.83</ele>
        <time>2026-08-08T11:19:26.624Z</time>
      </trkpt>
      <trkpt lat="49.87429" lon="4.7415">
        <ele>93.15</ele>
        <time>2026-08-08T11:19:32.610Z</time>
      </trkpt>
      <trkpt lat="49.87464" lon="4.74156">
        <ele>93.5</ele>
        <time>2026-08-08T11:19:38.610Z</time>
      </trkpt>
      <trkpt lat="49.87499" lon="4.74162">
        <ele>92.42</ele>
        <time>2026-08-08T11:19:44.613Z</time>
      </trkpt>
      <trkpt lat="49.87536" lon="4.74163">
        <ele>91.22</ele>
        <time>2026-08-08T11:19:50.611Z</time>
      </trkpt>
      <trkpt lat="49.87575" lon="4.74158">
        <ele>89.56</ele>
        <time>2026-08-08T11:19:56.623Z</time>
      </trkpt>
      <trkpt lat="49.87611" lon="4.74141">
        <ele>90.53</ele>
        <time>2026-08-08T11:20:02.601Z</time>
      </trkpt>
      <trkpt lat="49.87644" lon="4.74116">
        <ele>91.34</ele>
        <time>2026-08-08T11:20:08.611Z</time>
      </trkpt>
      <trkpt lat="49.87674" lon="4.74087">
        <ele>90.66</ele>
        <time>2026-08-08T11:20:14.608Z</time>
      </trkpt>
      <trkpt lat="49.87703" lon="4.74049">
        <ele>90.63</ele>
        <time>2026-08-08T11:20:20.613Z</time>
      </trkpt>
      <trkpt lat="49.87732" lon="4.74013">
        <ele>89.93</ele>
        <time>2026-08-08T11:20:26.626Z</time>
      </trkpt>
      <trkpt lat="49.87761" lon="4.73981">
        <ele>89.12</ele>
        <time>2026-08-08T11:20:32.613Z</time>
      </trkpt>
      <trkpt lat="49.87792" lon="4.73944">
        <ele>87.97</ele>
        <time>2026-08-08T11:20:38.613Z</time>
      </trkpt>
      <trkpt lat="49.87823" lon="4.73908">
        <ele>87.19</ele>
        <time>2026-08-08T11:20:44.610Z</time>
      </trkpt>
      <trkpt lat="49.87854" lon="4.73874">
        <ele>85.34</ele>
        <time>2026-08-08T11:20:50.617Z</time>
      </trkpt>
      <trkpt lat="49.87889" lon="4.73837">
        <ele>85.78</ele>
        <time>2026-08-08T11:20:56.568Z</time>
      </trkpt>
      <trkpt lat="49.87924" lon="4.73802">
        <ele>88.8</ele>
        <time>2026-08-08T11:21:02.590Z</time>
      </trkpt>
      <trkpt lat="49.87958" lon="4.73769">
        <ele>89.2</ele>
        <time>2026-08-08T11:21:08.610Z</time>
      </trkpt>
      <trkpt lat="49.87992" lon="4.7374">
        <ele>87.35</ele>
        <time>2026-08-08T11:21:14.612Z</time>
      </trkpt>
      <trkpt lat="49.88032" lon="4.73721">
        <ele>89.32</ele>
        <time>2026-08-08T11:21:20.611Z</time>
      </trkpt>
      <trkpt lat="49.88071" lon="4.73707">
        <ele>89.03</ele>
        <time>2026-08-08T11:21:26.624Z</time>
      </trkpt>
      <trkpt lat="49.88104" lon="4.73702">
        <ele>88.27</ele>
        <time>2026-08-08T11:21:32.610Z</time>
      </trkpt>
      <trkpt lat="49.88138" lon="4.73701">
        <ele>86.12</ele>
        <time>2026-08-08T11:21:38.597Z</time>
      </trkpt>
      <trkpt lat="49.88175" lon="4.73698">
        <ele>84.36</ele>
        <time>2026-08-08T11:21:44.610Z</time>
      </trkpt>
      <trkpt lat="49.88215" lon="4.73694">
        <ele>83.28</ele>
        <time>2026-08-08T11:21:50.613Z</time>
      </trkpt>
      <trkpt lat="49.88253" lon="4.73698">
        <ele>84.68</ele>
        <time>2026-08-08T11:21:56.628Z</time>
      </trkpt>
      <trkpt lat="49.88296" lon="4.73701">
        <ele>86.81</ele>
        <time>2026-08-08T11:22:02.612Z</time>
      </trkpt>
      <trkpt lat="49.88333" lon="4.73698">
        <ele>86.7</ele>
        <time>2026-08-08T11:22:08.611Z</time>
      </trkpt>
      <trkpt lat="49.8837" lon="4.73699">
        <ele>86.88</ele>
        <time>2026-08-08T11:22:14.614Z</time>
      </trkpt>
      <trkpt lat="49.88408" lon="4.73698">
        <ele>87.78</ele>
        <time>2026-08-08T11:22:20.609Z</time>
      </trkpt>
      <trkpt lat="49.88445" lon="4.73691">
        <ele>86.72</ele>
        <time>2026-08-08T11:22:26.623Z</time>
      </trkpt>
      <trkpt lat="49.88482" lon="4.73685">
        <ele>86.38</ele>
        <time>2026-08-08T11:22:32.596Z</time>
      </trkpt>
      <trkpt lat="49.88514" lon="4.7367">
        <ele>86.05</ele>
        <time>2026-08-08T11:22:38.611Z</time>
      </trkpt>
      <trkpt lat="49.88541" lon="4.73649">
        <ele>86.14</ele>
        <time>2026-08-08T11:22:44.612Z</time>
      </trkpt>
      <trkpt lat="49.88567" lon="4.73627">
        <ele>87.79</ele>
        <time>2026-08-08T11:22:50.615Z</time>
      </trkpt>
      <trkpt lat="49.88587" lon="4.73605">
        <ele>87.22</ele>
        <time>2026-08-08T11:22:56.623Z</time>
      </trkpt>
      <trkpt lat="49.88605" lon="4.73583">
        <ele>87.48</ele>
        <time>2026-08-08T11:23:02.592Z</time>
      </trkpt>
      <trkpt lat="49.88615" lon="4.73578">
        <ele>87.6</ele>
        <time>2026-08-08T11:23:08.612Z</time>
      </trkpt>
      <trkpt lat="49.88623" lon="4.7357">
        <ele>87.93</ele>
        <time>2026-08-08T11:23:14.692Z</time>
      </trkpt>
      <trkpt lat="49.88626" lon="4.73585">
        <ele>141.12</ele>
        <time>2026-08-08T11:23:35.540Z</time>
      </trkpt>
      <trkpt lat="49.88619" lon="4.73595">
        <ele>141.15</ele>
        <time>2026-08-08T11:23:40.559Z</time>
      </trkpt>
      <trkpt lat="49.88615" lon="4.73581">
        <ele>94.7</ele>
        <time>2026-08-08T12:42:33.564Z</time>
      </trkpt>
      <trkpt lat="49.88619" lon="4.73568">
        <ele>90</ele>
        <time>2026-08-08T12:42:48.243Z</time>
      </trkpt>
      <trkpt lat="49.88628" lon="4.73552">
        <ele>88.76</ele>
        <time>2026-08-08T12:42:53.522Z</time>
      </trkpt>
      <trkpt lat="49.88641" lon="4.73532">
        <ele>87.17</ele>
        <time>2026-08-08T12:42:58.573Z</time>
      </trkpt>
      <trkpt lat="49.88659" lon="4.73507">
        <ele>87.22</ele>
        <time>2026-08-08T12:43:04.548Z</time>
      </trkpt>
      <trkpt lat="49.8867" lon="4.73487">
        <ele>88.67</ele>
        <time>2026-08-08T12:43:09.601Z</time>
      </trkpt>
      <trkpt lat="49.88679" lon="4.73469">
        <ele>90.52</ele>
        <time>2026-08-08T12:43:14.623Z</time>
      </trkpt>
      <trkpt lat="49.88685" lon="4.73445">
        <ele>91.81</ele>
        <time>2026-08-08T12:43:20.619Z</time>
      </trkpt>
      <trkpt lat="49.88693" lon="4.73437">
        <ele>96.22</ele>
        <time>2026-08-08T12:43:26.604Z</time>
      </trkpt>
      <trkpt lat="49.88703" lon="4.73442">
        <ele>99.31</ele>
        <time>2026-08-08T12:43:32.610Z</time>
      </trkpt>
      <trkpt lat="49.8872" lon="4.73458">
        <ele>97.3</ele>
        <time>2026-08-08T12:43:38.625Z</time>
      </trkpt>
      <trkpt lat="49.88737" lon="4.73473">
        <ele>96.01</ele>
        <time>2026-08-08T12:43:44.626Z</time>
      </trkpt>
      <trkpt lat="49.88757" lon="4.73488">
        <ele>96.04</ele>
        <time>2026-08-08T12:43:50.621Z</time>
      </trkpt>
      <trkpt lat="49.88777" lon="4.73504">
        <ele>95.98</ele>
        <time>2026-08-08T12:43:56.621Z</time>
      </trkpt>
      <trkpt lat="49.88797" lon="4.7351">
        <ele>95.06</ele>
        <time>2026-08-08T12:44:02.621Z</time>
      </trkpt>
      <trkpt lat="49.88814" lon="4.73468">
        <ele>93.27</ele>
        <time>2026-08-08T12:44:08.614Z</time>
      </trkpt>
      <trkpt lat="49.88823" lon="4.73425">
        <ele>93.2</ele>
        <time>2026-08-08T12:44:14.621Z</time>
      </trkpt>
      <trkpt lat="49.88832" lon="4.73389">
        <ele>91.05</ele>
        <time>2026-08-08T12:44:20.620Z</time>
      </trkpt>
      <trkpt lat="49.88831" lon="4.73338">
        <ele>88.45</ele>
        <time>2026-08-08T12:44:26.616Z</time>
      </trkpt>
      <trkpt lat="49.88817" lon="4.7328">
        <ele>91.34</ele>
        <time>2026-08-08T12:44:32.621Z</time>
      </trkpt>
      <trkpt lat="49.88813" lon="4.73225">
        <ele>92.94</ele>
        <time>2026-08-08T12:44:38.613Z</time>
      </trkpt>
      <trkpt lat="49.88808" lon="4.73178">
        <ele>89.2</ele>
        <time>2026-08-08T12:44:44.613Z</time>
      </trkpt>
      <trkpt lat="49.88799" lon="4.73133">
        <ele>86.39</ele>
        <time>2026-08-08T12:44:50.609Z</time>
      </trkpt>
      <trkpt lat="49.88789" lon="4.73091">
        <ele>82.73</ele>
        <time>2026-08-08T12:44:56.628Z</time>
      </trkpt>
      <trkpt lat="49.88777" lon="4.7306">
        <ele>81.73</ele>
        <time>2026-08-08T12:45:02.614Z</time>
      </trkpt>
      <trkpt lat="49.88767" lon="4.73035">
        <ele>82.2</ele>
        <time>2026-08-08T12:45:08.611Z</time>
      </trkpt>
      <trkpt lat="49.88751" lon="4.73007">
        <ele>83.72</ele>
        <time>2026-08-08T12:45:14.618Z</time>
      </trkpt>
      <trkpt lat="49.88737" lon="4.72973">
        <ele>84.33</ele>
        <time>2026-08-08T12:45:20.614Z</time>
      </trkpt>
      <trkpt lat="49.88722" lon="4.72934">
        <ele>84.37</ele>
        <time>2026-08-08T12:45:26.633Z</time>
      </trkpt>
      <trkpt lat="49.88706" lon="4.72893">
        <ele>84.01</ele>
        <time>2026-08-08T12:45:32.611Z</time>
      </trkpt>
      <trkpt lat="49.88687" lon="4.72859">
        <ele>84.47</ele>
        <time>2026-08-08T12:45:38.613Z</time>
      </trkpt>
      <trkpt lat="49.88665" lon="4.72826">
        <ele>86.01</ele>
        <time>2026-08-08T12:45:44.617Z</time>
      </trkpt>
      <trkpt lat="49.88643" lon="4.72793">
        <ele>85.56</ele>
        <time>2026-08-08T12:45:50.612Z</time>
      </trkpt>
      <trkpt lat="49.88615" lon="4.72753">
        <ele>85.38</ele>
        <time>2026-08-08T12:45:56.604Z</time>
      </trkpt>
      <trkpt lat="49.88583" lon="4.7272">
        <ele>84.15</ele>
        <time>2026-08-08T12:46:02.616Z</time>
      </trkpt>
      <trkpt lat="49.88549" lon="4.72692">
        <ele>87.27</ele>
        <time>2026-08-08T12:46:08.614Z</time>
      </trkpt>
      <trkpt lat="49.88515" lon="4.72668">
        <ele>88.48</ele>
        <time>2026-08-08T12:46:14.615Z</time>
      </trkpt>
      <trkpt lat="49.88481" lon="4.72655">
        <ele>88.87</ele>
        <time>2026-08-08T12:46:20.615Z</time>
      </trkpt>
      <trkpt lat="49.88447" lon="4.72645">
        <ele>88.86</ele>
        <time>2026-08-08T12:46:26.625Z</time>
      </trkpt>
      <trkpt lat="49.88414" lon="4.72642">
        <ele>89.88</ele>
        <time>2026-08-08T12:46:32.612Z</time>
      </trkpt>
      <trkpt lat="49.88381" lon="4.72645">
        <ele>89.84</ele>
        <time>2026-08-08T12:46:38.611Z</time>
      </trkpt>
      <trkpt lat="49.88349" lon="4.72651">
        <ele>89.63</ele>
        <time>2026-08-08T12:46:44.613Z</time>
      </trkpt>
      <trkpt lat="49.88318" lon="4.72663">
        <ele>88.32</ele>
        <time>2026-08-08T12:46:50.612Z</time>
      </trkpt>
      <trkpt lat="49.88289" lon="4.72676">
        <ele>87.2</ele>
        <time>2026-08-08T12:46:56.633Z</time>
      </trkpt>
      <trkpt lat="49.88259" lon="4.72695">
        <ele>84.28</ele>
        <time>2026-08-08T12:47:02.611Z</time>
      </trkpt>
      <trkpt lat="49.88227" lon="4.72715">
        <ele>82.9</ele>
        <time>2026-08-08T12:47:08.622Z</time>
      </trkpt>
      <trkpt lat="49.88193" lon="4.72735">
        <ele>84.01</ele>
        <time>2026-08-08T12:47:14.615Z</time>
      </trkpt>
      <trkpt lat="49.88166" lon="4.72756">
        <ele>85.42</ele>
        <time>2026-08-08T12:47:20.617Z</time>
      </trkpt>
      <trkpt lat="49.88137" lon="4.72776">
        <ele>85.34</ele>
        <time>2026-08-08T12:47:26.631Z</time>
      </trkpt>
      <trkpt lat="49.88107" lon="4.72797">
        <ele>86.62</ele>
        <time>2026-08-08T12:47:32.615Z</time>
      </trkpt>
      <trkpt lat="49.88077" lon="4.72812">
        <ele>84.48</ele>
        <time>2026-08-08T12:47:38.615Z</time>
      </trkpt>
      <trkpt lat="49.88047" lon="4.72836">
        <ele>83.41</ele>
        <time>2026-08-08T12:47:44.613Z</time>
      </trkpt>
      <trkpt lat="49.88013" lon="4.72853">
        <ele>84.76</ele>
        <time>2026-08-08T12:47:50.613Z</time>
      </trkpt>
      <trkpt lat="49.87981" lon="4.72864">
        <ele>86.5</ele>
        <time>2026-08-08T12:47:56.630Z</time>
      </trkpt>
      <trkpt lat="49.87949" lon="4.72875">
        <ele>86.38</ele>
        <time>2026-08-08T12:48:02.613Z</time>
      </trkpt>
      <trkpt lat="49.87918" lon="4.72883">
        <ele>84.04</ele>
        <time>2026-08-08T12:48:08.617Z</time>
      </trkpt>
      <trkpt lat="49.87885" lon="4.72896">
        <ele>81.97</ele>
        <time>2026-08-08T12:48:14.609Z</time>
      </trkpt>
      <trkpt lat="49.87851" lon="4.72911">
        <ele>80.3</ele>
        <time>2026-08-08T12:48:20.614Z</time>
      </trkpt>
      <trkpt lat="49.87818" lon="4.72924">
        <ele>78.87</ele>
        <time>2026-08-08T12:48:26.607Z</time>
      </trkpt>
      <trkpt lat="49.87784" lon="4.72937">
        <ele>78.95</ele>
        <time>2026-08-08T12:48:32.614Z</time>
      </trkpt>
      <trkpt lat="49.8775" lon="4.7295">
        <ele>78.46</ele>
        <time>2026-08-08T12:48:38.612Z</time>
      </trkpt>
      <trkpt lat="49.87716" lon="4.72966">
        <ele>78.54</ele>
        <time>2026-08-08T12:48:44.614Z</time>
      </trkpt>
      <trkpt lat="49.87679" lon="4.72978">
        <ele>80.47</ele>
        <time>2026-08-08T12:48:50.613Z</time>
      </trkpt>
      <trkpt lat="49.87641" lon="4.72981">
        <ele>82.33</ele>
        <time>2026-08-08T12:48:56.630Z</time>
      </trkpt>
      <trkpt lat="49.87606" lon="4.72975">
        <ele>84.84</ele>
        <time>2026-08-08T12:49:02.615Z</time>
      </trkpt>
      <trkpt lat="49.87572" lon="4.72952">
        <ele>85.96</ele>
        <time>2026-08-08T12:49:08.618Z</time>
      </trkpt>
      <trkpt lat="49.8754" lon="4.72921">
        <ele>86.07</ele>
        <time>2026-08-08T12:49:14.612Z</time>
      </trkpt>
      <trkpt lat="49.8751" lon="4.72888">
        <ele>84.89</ele>
        <time>2026-08-08T12:49:20.617Z</time>
      </trkpt>
      <trkpt lat="49.87481" lon="4.72854">
        <ele>84.47</ele>
        <time>2026-08-08T12:49:26.632Z</time>
      </trkpt>
      <trkpt lat="49.87453" lon="4.72823">
        <ele>84.37</ele>
        <time>2026-08-08T12:49:32.614Z</time>
      </trkpt>
      <trkpt lat="49.87425" lon="4.7279">
        <ele>84.64</ele>
        <time>2026-08-08T12:49:38.611Z</time>
      </trkpt>
      <trkpt lat="49.87396" lon="4.72759">
        <ele>84.2</ele>
        <time>2026-08-08T12:49:44.610Z</time>
      </trkpt>
      <trkpt lat="49.87367" lon="4.72724">
        <ele>83.56</ele>
        <time>2026-08-08T12:49:50.611Z</time>
      </trkpt>
      <trkpt lat="49.87339" lon="4.72689">
        <ele>81.83</ele>
        <time>2026-08-08T12:49:56.632Z</time>
      </trkpt>
      <trkpt lat="49.87311" lon="4.72656">
        <ele>80.66</ele>
        <time>2026-08-08T12:50:02.616Z</time>
      </trkpt>
      <trkpt lat="49.87283" lon="4.72618">
        <ele>78.21</ele>
        <time>2026-08-08T12:50:08.616Z</time>
      </trkpt>
      <trkpt lat="49.87253" lon="4.72583">
        <ele>79.25</ele>
        <time>2026-08-08T12:50:14.614Z</time>
      </trkpt>
      <trkpt lat="49.87222" lon="4.72549">
        <ele>81.29</ele>
        <time>2026-08-08T12:50:20.609Z</time>
      </trkpt>
      <trkpt lat="49.87192" lon="4.72515">
        <ele>84.57</ele>
        <time>2026-08-08T12:50:26.633Z</time>
      </trkpt>
      <trkpt lat="49.87164" lon="4.7248">
        <ele>86.96</ele>
        <time>2026-08-08T12:50:32.614Z</time>
      </trkpt>
      <trkpt lat="49.87137" lon="4.72443">
        <ele>87.42</ele>
        <time>2026-08-08T12:50:38.611Z</time>
      </trkpt>
      <trkpt lat="49.87109" lon="4.72406">
        <ele>88.77</ele>
        <time>2026-08-08T12:50:44.616Z</time>
      </trkpt>
      <trkpt lat="49.87083" lon="4.72369">
        <ele>89.73</ele>
        <time>2026-08-08T12:50:50.613Z</time>
      </trkpt>
      <trkpt lat="49.87059" lon="4.72329">
        <ele>91.98</ele>
        <time>2026-08-08T12:50:56.633Z</time>
      </trkpt>
      <trkpt lat="49.87031" lon="4.72288">
        <ele>94.31</ele>
        <time>2026-08-08T12:51:02.614Z</time>
      </trkpt>
      <trkpt lat="49.87002" lon="4.72238">
        <ele>94.49</ele>
        <time>2026-08-08T12:51:08.612Z</time>
      </trkpt>
      <trkpt lat="49.86973" lon="4.72188">
        <ele>95.33</ele>
        <time>2026-08-08T12:51:14.610Z</time>
      </trkpt>
      <trkpt lat="49.86949" lon="4.72137">
        <ele>95.38</ele>
        <time>2026-08-08T12:51:20.612Z</time>
      </trkpt>
      <trkpt lat="49.86929" lon="4.72084">
        <ele>94.95</ele>
        <time>2026-08-08T12:51:26.632Z</time>
      </trkpt>
      <trkpt lat="49.86912" lon="4.72031">
        <ele>93.43</ele>
        <time>2026-08-08T12:51:32.612Z</time>
      </trkpt>
      <trkpt lat="49.86901" lon="4.71977">
        <ele>92.98</ele>
        <time>2026-08-08T12:51:38.618Z</time>
      </trkpt>
      <trkpt lat="49.86891" lon="4.7192">
        <ele>92.02</ele>
        <time>2026-08-08T12:51:44.615Z</time>
      </trkpt>
      <trkpt lat="49.86885" lon="4.71863">
        <ele>90.61</ele>
        <time>2026-08-08T12:51:50.618Z</time>
      </trkpt>
      <trkpt lat="49.86884" lon="4.71807">
        <ele>89.22</ele>
        <time>2026-08-08T12:51:56.634Z</time>
      </trkpt>
      <trkpt lat="49.86882" lon="4.71747">
        <ele>89.71</ele>
        <time>2026-08-08T12:52:02.632Z</time>
      </trkpt>
      <trkpt lat="49.86889" lon="4.71693">
        <ele>91.97</ele>
        <time>2026-08-08T12:52:08.614Z</time>
      </trkpt>
      <trkpt lat="49.86899" lon="4.71636">
        <ele>92.5</ele>
        <time>2026-08-08T12:52:14.612Z</time>
      </trkpt>
      <trkpt lat="49.86914" lon="4.71577">
        <ele>94.72</ele>
        <time>2026-08-08T12:52:20.615Z</time>
      </trkpt>
      <trkpt lat="49.86935" lon="4.71526">
        <ele>97.56</ele>
        <time>2026-08-08T12:52:26.629Z</time>
      </trkpt>
      <trkpt lat="49.8696" lon="4.71481">
        <ele>97.32</ele>
        <time>2026-08-08T12:52:32.617Z</time>
      </trkpt>
      <trkpt lat="49.86993" lon="4.7145">
        <ele>97.23</ele>
        <time>2026-08-08T12:52:38.598Z</time>
      </trkpt>
      <trkpt lat="49.87027" lon="4.71425">
        <ele>97.71</ele>
        <time>2026-08-08T12:52:44.616Z</time>
      </trkpt>
      <trkpt lat="49.8706" lon="4.71398">
        <ele>101.41</ele>
        <time>2026-08-08T12:52:50.616Z</time>
      </trkpt>
      <trkpt lat="49.87092" lon="4.71368">
        <ele>101.93</ele>
        <time>2026-08-08T12:52:56.616Z</time>
      </trkpt>
      <trkpt lat="49.87124" lon="4.7134">
        <ele>100.26</ele>
        <time>2026-08-08T12:53:02.612Z</time>
      </trkpt>
      <trkpt lat="49.87158" lon="4.71313">
        <ele>100.52</ele>
        <time>2026-08-08T12:53:08.614Z</time>
      </trkpt>
      <trkpt lat="49.87193" lon="4.71288">
        <ele>101.88</ele>
        <time>2026-08-08T12:53:14.613Z</time>
      </trkpt>
      <trkpt lat="49.87228" lon="4.71261">
        <ele>100.84</ele>
        <time>2026-08-08T12:53:20.613Z</time>
      </trkpt>
      <trkpt lat="49.87264" lon="4.71235">
        <ele>100.54</ele>
        <time>2026-08-08T12:53:26.611Z</time>
      </trkpt>
      <trkpt lat="49.87301" lon="4.71204">
        <ele>101.11</ele>
        <time>2026-08-08T12:53:32.611Z</time>
      </trkpt>
      <trkpt lat="49.87335" lon="4.71177">
        <ele>99.45</ele>
        <time>2026-08-08T12:53:38.618Z</time>
      </trkpt>
      <trkpt lat="49.87373" lon="4.71158">
        <ele>98.57</ele>
        <time>2026-08-08T12:53:44.611Z</time>
      </trkpt>
      <trkpt lat="49.8741" lon="4.71142">
        <ele>98.14</ele>
        <time>2026-08-08T12:53:50.611Z</time>
      </trkpt>
      <trkpt lat="49.87448" lon="4.71131">
        <ele>95.7</ele>
        <time>2026-08-08T12:53:56.620Z</time>
      </trkpt>
      <trkpt lat="49.87483" lon="4.71128">
        <ele>92.62</ele>
        <time>2026-08-08T12:54:02.620Z</time>
      </trkpt>
      <trkpt lat="49.87523" lon="4.71126">
        <ele>90.53</ele>
        <time>2026-08-08T12:54:08.616Z</time>
      </trkpt>
      <trkpt lat="49.87564" lon="4.7113">
        <ele>90.3</ele>
        <time>2026-08-08T12:54:14.614Z</time>
      </trkpt>
      <trkpt lat="49.87606" lon="4.71142">
        <ele>90.95</ele>
        <time>2026-08-08T12:54:20.612Z</time>
      </trkpt>
      <trkpt lat="49.87647" lon="4.71139">
        <ele>91.15</ele>
        <time>2026-08-08T12:54:26.620Z</time>
      </trkpt>
      <trkpt lat="49.87684" lon="4.71117">
        <ele>91.39</ele>
        <time>2026-08-08T12:54:32.616Z</time>
      </trkpt>
      <trkpt lat="49.87723" lon="4.71099">
        <ele>90.04</ele>
        <time>2026-08-08T12:54:38.613Z</time>
      </trkpt>
      <trkpt lat="49.87765" lon="4.71075">
        <ele>89.1</ele>
        <time>2026-08-08T12:54:44.613Z</time>
      </trkpt>
      <trkpt lat="49.87805" lon="4.71054">
        <ele>89.91</ele>
        <time>2026-08-08T12:54:50.613Z</time>
      </trkpt>
      <trkpt lat="49.87843" lon="4.71033">
        <ele>89.57</ele>
        <time>2026-08-08T12:54:56.633Z</time>
      </trkpt>
      <trkpt lat="49.8788" lon="4.71013">
        <ele>89.81</ele>
        <time>2026-08-08T12:55:02.620Z</time>
      </trkpt>
      <trkpt lat="49.87917" lon="4.70995">
        <ele>91.25</ele>
        <time>2026-08-08T12:55:08.610Z</time>
      </trkpt>
      <trkpt lat="49.87953" lon="4.70973">
        <ele>92.41</ele>
        <time>2026-08-08T12:55:14.613Z</time>
      </trkpt>
      <trkpt lat="49.87988" lon="4.70946">
        <ele>91.76</ele>
        <time>2026-08-08T12:55:20.612Z</time>
      </trkpt>
      <trkpt lat="49.88021" lon="4.70914">
        <ele>92.11</ele>
        <time>2026-08-08T12:55:26.621Z</time>
      </trkpt>
      <trkpt lat="49.88051" lon="4.70879">
        <ele>91.62</ele>
        <time>2026-08-08T12:55:32.613Z</time>
      </trkpt>
      <trkpt lat="49.88082" lon="4.70848">
        <ele>92.71</ele>
        <time>2026-08-08T12:55:38.612Z</time>
      </trkpt>
      <trkpt lat="49.88115" lon="4.70825">
        <ele>92.44</ele>
        <time>2026-08-08T12:55:44.611Z</time>
      </trkpt>
      <trkpt lat="49.88148" lon="4.70796">
        <ele>92.03</ele>
        <time>2026-08-08T12:55:50.613Z</time>
      </trkpt>
      <trkpt lat="49.88181" lon="4.70763">
        <ele>91.97</ele>
        <time>2026-08-08T12:55:56.621Z</time>
      </trkpt>
      <trkpt lat="49.88214" lon="4.70739">
        <ele>92.22</ele>
        <time>2026-08-08T12:56:02.618Z</time>
      </trkpt>
      <trkpt lat="49.8825" lon="4.7072">
        <ele>91.12</ele>
        <time>2026-08-08T12:56:08.615Z</time>
      </trkpt>
      <trkpt lat="49.88286" lon="4.70702">
        <ele>90.31</ele>
        <time>2026-08-08T12:56:14.613Z</time>
      </trkpt>
      <trkpt lat="49.88322" lon="4.70682">
        <ele>91.52</ele>
        <time>2026-08-08T12:56:20.612Z</time>
      </trkpt>
      <trkpt lat="49.88358" lon="4.70664">
        <ele>92.01</ele>
        <time>2026-08-08T12:56:26.618Z</time>
      </trkpt>
      <trkpt lat="49.88394" lon="4.70646">
        <ele>91.99</ele>
        <time>2026-08-08T12:56:32.615Z</time>
      </trkpt>
      <trkpt lat="49.8843" lon="4.70626">
        <ele>91.72</ele>
        <time>2026-08-08T12:56:38.613Z</time>
      </trkpt>
      <trkpt lat="49.88469" lon="4.70607">
        <ele>91.65</ele>
        <time>2026-08-08T12:56:44.612Z</time>
      </trkpt>
      <trkpt lat="49.88508" lon="4.70588">
        <ele>92.2</ele>
        <time>2026-08-08T12:56:50.611Z</time>
      </trkpt>
      <trkpt lat="49.88546" lon="4.70568">
        <ele>92.4</ele>
        <time>2026-08-08T12:56:56.617Z</time>
      </trkpt>
      <trkpt lat="49.88585" lon="4.7055">
        <ele>91.61</ele>
        <time>2026-08-08T12:57:02.621Z</time>
      </trkpt>
      <trkpt lat="49.88624" lon="4.70534">
        <ele>91.78</ele>
        <time>2026-08-08T12:57:08.612Z</time>
      </trkpt>
      <trkpt lat="49.88663" lon="4.7052">
        <ele>92.78</ele>
        <time>2026-08-08T12:57:14.615Z</time>
      </trkpt>
      <trkpt lat="49.88702" lon="4.70506">
        <ele>92.67</ele>
        <time>2026-08-08T12:57:20.610Z</time>
      </trkpt>
      <trkpt lat="49.88741" lon="4.70489">
        <ele>92.52</ele>
        <time>2026-08-08T12:57:26.627Z</time>
      </trkpt>
      <trkpt lat="49.8878" lon="4.70473">
        <ele>91.77</ele>
        <time>2026-08-08T12:57:32.619Z</time>
      </trkpt>
      <trkpt lat="49.88821" lon="4.70456">
        <ele>91.94</ele>
        <time>2026-08-08T12:57:38.614Z</time>
      </trkpt>
      <trkpt lat="49.88862" lon="4.70439">
        <ele>92.13</ele>
        <time>2026-08-08T12:57:44.617Z</time>
      </trkpt>
      <trkpt lat="49.88902" lon="4.70426">
        <ele>90.66</ele>
        <time>2026-08-08T12:57:50.612Z</time>
      </trkpt>
      <trkpt lat="49.88943" lon="4.70415">
        <ele>89.64</ele>
        <time>2026-08-08T12:57:56.635Z</time>
      </trkpt>
      <trkpt lat="49.88983" lon="4.7041">
        <ele>88.91</ele>
        <time>2026-08-08T12:58:02.617Z</time>
      </trkpt>
      <trkpt lat="49.89023" lon="4.70407">
        <ele>88.5</ele>
        <time>2026-08-08T12:58:08.614Z</time>
      </trkpt>
      <trkpt lat="49.89063" lon="4.70412">
        <ele>88.89</ele>
        <time>2026-08-08T12:58:14.612Z</time>
      </trkpt>
      <trkpt lat="49.89104" lon="4.70417">
        <ele>91.32</ele>
        <time>2026-08-08T12:58:20.613Z</time>
      </trkpt>
      <trkpt lat="49.89143" lon="4.70431">
        <ele>93.06</ele>
        <time>2026-08-08T12:58:26.605Z</time>
      </trkpt>
      <trkpt lat="49.8918" lon="4.70451">
        <ele>93.48</ele>
        <time>2026-08-08T12:58:32.615Z</time>
      </trkpt>
      <trkpt lat="49.89217" lon="4.70471">
        <ele>91.97</ele>
        <time>2026-08-08T12:58:38.645Z</time>
      </trkpt>
      <trkpt lat="49.89255" lon="4.70485">
        <ele>93.26</ele>
        <time>2026-08-08T12:58:44.605Z</time>
      </trkpt>
      <trkpt lat="49.89292" lon="4.70506">
        <ele>91.82</ele>
        <time>2026-08-08T12:58:50.613Z</time>
      </trkpt>
      <trkpt lat="49.89331" lon="4.70519">
        <ele>92.91</ele>
        <time>2026-08-08T12:58:56.637Z</time>
      </trkpt>
      <trkpt lat="49.89369" lon="4.70531">
        <ele>91.75</ele>
        <time>2026-08-08T12:59:02.611Z</time>
      </trkpt>
      <trkpt lat="49.8941" lon="4.70542">
        <ele>90.54</ele>
        <time>2026-08-08T12:59:08.629Z</time>
      </trkpt>
      <trkpt lat="49.89451" lon="4.70543">
        <ele>91.06</ele>
        <time>2026-08-08T12:59:14.601Z</time>
      </trkpt>
      <trkpt lat="49.89491" lon="4.70539">
        <ele>89.33</ele>
        <time>2026-08-08T12:59:20.613Z</time>
      </trkpt>
      <trkpt lat="49.89534" lon="4.70538">
        <ele>89.46</ele>
        <time>2026-08-08T12:59:26.634Z</time>
      </trkpt>
      <trkpt lat="49.89576" lon="4.70543">
        <ele>89.3</ele>
        <time>2026-08-08T12:59:32.619Z</time>
      </trkpt>
      <trkpt lat="49.89618" lon="4.70554">
        <ele>91.31</ele>
        <time>2026-08-08T12:59:38.617Z</time>
      </trkpt>
      <trkpt lat="49.89659" lon="4.70571">
        <ele>94.27</ele>
        <time>2026-08-08T12:59:44.615Z</time>
      </trkpt>
      <trkpt lat="49.897" lon="4.70584">
        <ele>94.77</ele>
        <time>2026-08-08T12:59:50.610Z</time>
      </trkpt>
      <trkpt lat="49.89741" lon="4.70587">
        <ele>94.16</ele>
        <time>2026-08-08T12:59:56.629Z</time>
      </trkpt>
      <trkpt lat="49.89781" lon="4.70589">
        <ele>93.56</ele>
        <time>2026-08-08T13:00:02.617Z</time>
      </trkpt>
      <trkpt lat="49.89824" lon="4.70592">
        <ele>92.25</ele>
        <time>2026-08-08T13:00:08.613Z</time>
      </trkpt>
      <trkpt lat="49.89865" lon="4.70598">
        <ele>90.59</ele>
        <time>2026-08-08T13:00:14.613Z</time>
      </trkpt>
      <trkpt lat="49.89906" lon="4.70606">
        <ele>88.98</ele>
        <time>2026-08-08T13:00:20.616Z</time>
      </trkpt>
      <trkpt lat="49.89949" lon="4.70616">
        <ele>88.47</ele>
        <time>2026-08-08T13:00:26.631Z</time>
      </trkpt>
      <trkpt lat="49.89991" lon="4.70629">
        <ele>85.69</ele>
        <time>2026-08-08T13:00:32.617Z</time>
      </trkpt>
      <trkpt lat="49.90032" lon="4.70646">
        <ele>83.84</ele>
        <time>2026-08-08T13:00:38.611Z</time>
      </trkpt>
      <trkpt lat="49.90072" lon="4.70661">
        <ele>83.55</ele>
        <time>2026-08-08T13:00:44.613Z</time>
      </trkpt>
      <trkpt lat="49.90112" lon="4.70678">
        <ele>84.62</ele>
        <time>2026-08-08T13:00:50.611Z</time>
      </trkpt>
      <trkpt lat="49.90154" lon="4.70693">
        <ele>85.12</ele>
        <time>2026-08-08T13:00:56.608Z</time>
      </trkpt>
      <trkpt lat="49.90194" lon="4.70708">
        <ele>84.55</ele>
        <time>2026-08-08T13:01:02.620Z</time>
      </trkpt>
      <trkpt lat="49.90236" lon="4.70724">
        <ele>85.25</ele>
        <time>2026-08-08T13:01:08.610Z</time>
      </trkpt>
      <trkpt lat="49.90278" lon="4.70739">
        <ele>85.1</ele>
        <time>2026-08-08T13:01:14.612Z</time>
      </trkpt>
      <trkpt lat="49.9032" lon="4.70753">
        <ele>85.92</ele>
        <time>2026-08-08T13:01:20.611Z</time>
      </trkpt>
      <trkpt lat="49.90362" lon="4.70765">
        <ele>86.98</ele>
        <time>2026-08-08T13:01:26.627Z</time>
      </trkpt>
      <trkpt lat="49.90402" lon="4.70774">
        <ele>88.5</ele>
        <time>2026-08-08T13:01:32.618Z</time>
      </trkpt>
      <trkpt lat="49.90442" lon="4.70774">
        <ele>86.88</ele>
        <time>2026-08-08T13:01:38.608Z</time>
      </trkpt>
      <trkpt lat="49.90484" lon="4.70766">
        <ele>84.98</ele>
        <time>2026-08-08T13:01:44.611Z</time>
      </trkpt>
      <trkpt lat="49.9053" lon="4.70748">
        <ele>85.39</ele>
        <time>2026-08-08T13:01:50.612Z</time>
      </trkpt>
      <trkpt lat="49.90569" lon="4.70721">
        <ele>88.04</ele>
        <time>2026-08-08T13:01:56.631Z</time>
      </trkpt>
      <trkpt lat="49.90604" lon="4.70693">
        <ele>90.52</ele>
        <time>2026-08-08T13:02:02.614Z</time>
      </trkpt>
      <trkpt lat="49.90639" lon="4.70665">
        <ele>91.19</ele>
        <time>2026-08-08T13:02:08.611Z</time>
      </trkpt>
      <trkpt lat="49.90674" lon="4.7063">
        <ele>89.97</ele>
        <time>2026-08-08T13:02:14.613Z</time>
      </trkpt>
      <trkpt lat="49.90709" lon="4.70597">
        <ele>89.23</ele>
        <time>2026-08-08T13:02:20.612Z</time>
      </trkpt>
      <trkpt lat="49.90744" lon="4.70564">
        <ele>88.5</ele>
        <time>2026-08-08T13:02:26.631Z</time>
      </trkpt>
      <trkpt lat="49.90779" lon="4.70538">
        <ele>87.92</ele>
        <time>2026-08-08T13:02:32.619Z</time>
      </trkpt>
      <trkpt lat="49.90816" lon="4.70519">
        <ele>88.04</ele>
        <time>2026-08-08T13:02:38.613Z</time>
      </trkpt>
      <trkpt lat="49.90853" lon="4.70499">
        <ele>88.61</ele>
        <time>2026-08-08T13:02:44.613Z</time>
      </trkpt>
      <trkpt lat="49.9089" lon="4.70481">
        <ele>89.54</ele>
        <time>2026-08-08T13:02:50.613Z</time>
      </trkpt>
      <trkpt lat="49.90927" lon="4.70469">
        <ele>89.83</ele>
        <time>2026-08-08T13:02:56.628Z</time>
      </trkpt>
      <trkpt lat="49.90962" lon="4.70462">
        <ele>90.16</ele>
        <time>2026-08-08T13:03:02.631Z</time>
      </trkpt>
      <trkpt lat="49.91002" lon="4.70456">
        <ele>90.69</ele>
        <time>2026-08-08T13:03:08.615Z</time>
      </trkpt>
      <trkpt lat="49.91042" lon="4.7045">
        <ele>90.77</ele>
        <time>2026-08-08T13:03:14.614Z</time>
      </trkpt>
      <trkpt lat="49.91083" lon="4.70443">
        <ele>91.18</ele>
        <time>2026-08-08T13:03:20.611Z</time>
      </trkpt>
      <trkpt lat="49.91122" lon="4.70436">
        <ele>90.67</ele>
        <time>2026-08-08T13:03:26.629Z</time>
      </trkpt>
      <trkpt lat="49.9116" lon="4.70431">
        <ele>91.36</ele>
        <time>2026-08-08T13:03:32.628Z</time>
      </trkpt>
      <trkpt lat="49.91198" lon="4.70424">
        <ele>91.7</ele>
        <time>2026-08-08T13:03:38.613Z</time>
      </trkpt>
      <trkpt lat="49.91237" lon="4.70415">
        <ele>90.62</ele>
        <time>2026-08-08T13:03:44.612Z</time>
      </trkpt>
      <trkpt lat="49.91273" lon="4.70396">
        <ele>90.47</ele>
        <time>2026-08-08T13:03:50.609Z</time>
      </trkpt>
      <trkpt lat="49.91306" lon="4.70362">
        <ele>91.3</ele>
        <time>2026-08-08T13:03:56.627Z</time>
      </trkpt>
      <trkpt lat="49.91335" lon="4.70321">
        <ele>91.65</ele>
        <time>2026-08-08T13:04:02.628Z</time>
      </trkpt>
      <trkpt lat="49.91368" lon="4.70281">
        <ele>92.1</ele>
        <time>2026-08-08T13:04:08.611Z</time>
      </trkpt>
      <trkpt lat="49.91402" lon="4.70245">
        <ele>91.46</ele>
        <time>2026-08-08T13:04:14.618Z</time>
      </trkpt>
      <trkpt lat="49.91432" lon="4.70206">
        <ele>92.19</ele>
        <time>2026-08-08T13:04:20.614Z</time>
      </trkpt>
      <trkpt lat="49.9146" lon="4.7016">
        <ele>91.82</ele>
        <time>2026-08-08T13:04:26.628Z</time>
      </trkpt>
      <trkpt lat="49.91486" lon="4.7011">
        <ele>92.67</ele>
        <time>2026-08-08T13:04:32.630Z</time>
      </trkpt>
      <trkpt lat="49.91509" lon="4.70054">
        <ele>91.36</ele>
        <time>2026-08-08T13:04:38.611Z</time>
      </trkpt>
      <trkpt lat="49.91527" lon="4.69994">
        <ele>90.97</ele>
        <time>2026-08-08T13:04:44.614Z</time>
      </trkpt>
      <trkpt lat="49.9154" lon="4.69933">
        <ele>89.52</ele>
        <time>2026-08-08T13:04:50.609Z</time>
      </trkpt>
      <trkpt lat="49.91548" lon="4.69871">
        <ele>89.01</ele>
        <time>2026-08-08T13:04:56.631Z</time>
      </trkpt>
      <trkpt lat="49.91551" lon="4.69808">
        <ele>89.68</ele>
        <time>2026-08-08T13:05:02.624Z</time>
      </trkpt>
      <trkpt lat="49.91551" lon="4.69747">
        <ele>88.59</ele>
        <time>2026-08-08T13:05:08.616Z</time>
      </trkpt>
      <trkpt lat="49.9155" lon="4.69685">
        <ele>86.39</ele>
        <time>2026-08-08T13:05:14.614Z</time>
      </trkpt>
      <trkpt lat="49.91546" lon="4.69627">
        <ele>84.82</ele>
        <time>2026-08-08T13:05:20.609Z</time>
      </trkpt>
      <trkpt lat="49.91539" lon="4.69567">
        <ele>84.76</ele>
        <time>2026-08-08T13:05:26.620Z</time>
      </trkpt>
      <trkpt lat="49.91525" lon="4.69505">
        <ele>85.82</ele>
        <time>2026-08-08T13:05:32.625Z</time>
      </trkpt>
      <trkpt lat="49.91509" lon="4.69446">
        <ele>86.01</ele>
        <time>2026-08-08T13:05:38.613Z</time>
      </trkpt>
      <trkpt lat="49.91493" lon="4.69387">
        <ele>87.07</ele>
        <time>2026-08-08T13:05:44.608Z</time>
      </trkpt>
      <trkpt lat="49.91476" lon="4.69329">
        <ele>87.41</ele>
        <time>2026-08-08T13:05:50.612Z</time>
      </trkpt>
      <trkpt lat="49.91458" lon="4.69276">
        <ele>88.58</ele>
        <time>2026-08-08T13:05:56.622Z</time>
      </trkpt>
      <trkpt lat="49.91437" lon="4.69226">
        <ele>88.55</ele>
        <time>2026-08-08T13:06:02.625Z</time>
      </trkpt>
      <trkpt lat="49.91414" lon="4.69177">
        <ele>89.28</ele>
        <time>2026-08-08T13:06:08.616Z</time>
      </trkpt>
      <trkpt lat="49.91387" lon="4.69132">
        <ele>90.34</ele>
        <time>2026-08-08T13:06:14.615Z</time>
      </trkpt>
      <trkpt lat="49.9136" lon="4.69091">
        <ele>89.1</ele>
        <time>2026-08-08T13:06:20.612Z</time>
      </trkpt>
      <trkpt lat="49.91331" lon="4.69055">
        <ele>89.17</ele>
        <time>2026-08-08T13:06:26.625Z</time>
      </trkpt>
      <trkpt lat="49.91301" lon="4.69019">
        <ele>88.16</ele>
        <time>2026-08-08T13:06:32.626Z</time>
      </trkpt>
      <trkpt lat="49.9127" lon="4.68991">
        <ele>87.65</ele>
        <time>2026-08-08T13:06:38.612Z</time>
      </trkpt>
      <trkpt lat="49.91237" lon="4.68962">
        <ele>88.46</ele>
        <time>2026-08-08T13:06:44.614Z</time>
      </trkpt>
      <trkpt lat="49.91203" lon="4.68937">
        <ele>88.27</ele>
        <time>2026-08-08T13:06:50.615Z</time>
      </trkpt>
      <trkpt lat="49.9117" lon="4.68911">
        <ele>88.53</ele>
        <time>2026-08-08T13:06:56.624Z</time>
      </trkpt>
      <trkpt lat="49.91139" lon="4.68884">
        <ele>88.67</ele>
        <time>2026-08-08T13:07:02.626Z</time>
      </trkpt>
      <trkpt lat="49.91104" lon="4.68858">
        <ele>88.41</ele>
        <time>2026-08-08T13:07:08.615Z</time>
      </trkpt>
      <trkpt lat="49.91069" lon="4.68835">
        <ele>87.33</ele>
        <time>2026-08-08T13:07:14.615Z</time>
      </trkpt>
      <trkpt lat="49.91034" lon="4.68816">
        <ele>85.49</ele>
        <time>2026-08-08T13:07:20.615Z</time>
      </trkpt>
      <trkpt lat="49.90997" lon="4.68803">
        <ele>83.83</ele>
        <time>2026-08-08T13:07:26.633Z</time>
      </trkpt>
      <trkpt lat="49.9096" lon="4.68796">
        <ele>81.93</ele>
        <time>2026-08-08T13:07:32.626Z</time>
      </trkpt>
      <trkpt lat="49.90922" lon="4.68787">
        <ele>83.36</ele>
        <time>2026-08-08T13:07:38.611Z</time>
      </trkpt>
      <trkpt lat="49.90885" lon="4.68781">
        <ele>83.86</ele>
        <time>2026-08-08T13:07:44.613Z</time>
      </trkpt>
      <trkpt lat="49.90848" lon="4.68787">
        <ele>84.85</ele>
        <time>2026-08-08T13:07:50.614Z</time>
      </trkpt>
      <trkpt lat="49.90811" lon="4.68794">
        <ele>85.56</ele>
        <time>2026-08-08T13:07:56.625Z</time>
      </trkpt>
      <trkpt lat="49.90773" lon="4.68803">
        <ele>84.96</ele>
        <time>2026-08-08T13:08:02.626Z</time>
      </trkpt>
      <trkpt lat="49.90736" lon="4.68813">
        <ele>84.72</ele>
        <time>2026-08-08T13:08:08.611Z</time>
      </trkpt>
      <trkpt lat="49.90697" lon="4.68825">
        <ele>84.02</ele>
        <time>2026-08-08T13:08:14.613Z</time>
      </trkpt>
      <trkpt lat="49.90658" lon="4.68836">
        <ele>82.79</ele>
        <time>2026-08-08T13:08:20.609Z</time>
      </trkpt>
      <trkpt lat="49.90622" lon="4.68845">
        <ele>84.07</ele>
        <time>2026-08-08T13:08:26.631Z</time>
      </trkpt>
      <trkpt lat="49.90585" lon="4.68851">
        <ele>84.65</ele>
        <time>2026-08-08T13:08:32.625Z</time>
      </trkpt>
      <trkpt lat="49.90547" lon="4.68855">
        <ele>85.36</ele>
        <time>2026-08-08T13:08:38.617Z</time>
      </trkpt>
      <trkpt lat="49.90508" lon="4.68853">
        <ele>85.64</ele>
        <time>2026-08-08T13:08:44.618Z</time>
      </trkpt>
      <trkpt lat="49.90472" lon="4.68843">
        <ele>84.66</ele>
        <time>2026-08-08T13:08:50.616Z</time>
      </trkpt>
      <trkpt lat="49.90437" lon="4.68824">
        <ele>85.16</ele>
        <time>2026-08-08T13:08:56.627Z</time>
      </trkpt>
      <trkpt lat="49.90409" lon="4.6879">
        <ele>86.9</ele>
        <time>2026-08-08T13:09:02.630Z</time>
      </trkpt>
      <trkpt lat="49.90389" lon="4.68743">
        <ele>87</ele>
        <time>2026-08-08T13:09:08.610Z</time>
      </trkpt>
      <trkpt lat="49.9038" lon="4.68696">
        <ele>87.38</ele>
        <time>2026-08-08T13:09:14.613Z</time>
      </trkpt>
      <trkpt lat="49.90374" lon="4.68642">
        <ele>85.06</ele>
        <time>2026-08-08T13:09:20.610Z</time>
      </trkpt>
      <trkpt lat="49.9037" lon="4.68586">
        <ele>84.42</ele>
        <time>2026-08-08T13:09:26.624Z</time>
      </trkpt>
      <trkpt lat="49.90376" lon="4.68534">
        <ele>86.51</ele>
        <time>2026-08-08T13:09:32.621Z</time>
      </trkpt>
      <trkpt lat="49.9038" lon="4.68492">
        <ele>87.12</ele>
        <time>2026-08-08T13:09:38.613Z</time>
      </trkpt>
      <trkpt lat="49.90378" lon="4.68447">
        <ele>88.46</ele>
        <time>2026-08-08T13:09:44.614Z</time>
      </trkpt>
      <trkpt lat="49.90385" lon="4.684">
        <ele>88.01</ele>
        <time>2026-08-08T13:09:50.610Z</time>
      </trkpt>
      <trkpt lat="49.90395" lon="4.68363">
        <ele>89.55</ele>
        <time>2026-08-08T13:09:56.628Z</time>
      </trkpt>
      <trkpt lat="49.90411" lon="4.68338">
        <ele>92.05</ele>
        <time>2026-08-08T13:10:02.626Z</time>
      </trkpt>
      <trkpt lat="49.90433" lon="4.68305">
        <ele>92.76</ele>
        <time>2026-08-08T13:10:08.616Z</time>
      </trkpt>
      <trkpt lat="49.90457" lon="4.68266">
        <ele>93.15</ele>
        <time>2026-08-08T13:10:14.617Z</time>
      </trkpt>
      <trkpt lat="49.9048" lon="4.68226">
        <ele>94.07</ele>
        <time>2026-08-08T13:10:20.615Z</time>
      </trkpt>
      <trkpt lat="49.90504" lon="4.68187">
        <ele>95.06</ele>
        <time>2026-08-08T13:10:26.629Z</time>
      </trkpt>
      <trkpt lat="49.90529" lon="4.68148">
        <ele>96.52</ele>
        <time>2026-08-08T13:10:32.625Z</time>
      </trkpt>
      <trkpt lat="49.90557" lon="4.68116">
        <ele>93.82</ele>
        <time>2026-08-08T13:10:38.611Z</time>
      </trkpt>
      <trkpt lat="49.90585" lon="4.68085">
        <ele>92.44</ele>
        <time>2026-08-08T13:10:44.615Z</time>
      </trkpt>
      <trkpt lat="49.90614" lon="4.68053">
        <ele>92.04</ele>
        <time>2026-08-08T13:10:50.618Z</time>
      </trkpt>
      <trkpt lat="49.90645" lon="4.68023">
        <ele>92.99</ele>
        <time>2026-08-08T13:10:56.605Z</time>
      </trkpt>
      <trkpt lat="49.90676" lon="4.67991">
        <ele>92.35</ele>
        <time>2026-08-08T13:11:02.623Z</time>
      </trkpt>
      <trkpt lat="49.90707" lon="4.6796">
        <ele>91.85</ele>
        <time>2026-08-08T13:11:08.615Z</time>
      </trkpt>
      <trkpt lat="49.90741" lon="4.67933">
        <ele>91.58</ele>
        <time>2026-08-08T13:11:14.623Z</time>
      </trkpt>
      <trkpt lat="49.90779" lon="4.67913">
        <ele>92.67</ele>
        <time>2026-08-08T13:11:20.603Z</time>
      </trkpt>
      <trkpt lat="49.90818" lon="4.67892">
        <ele>96.05</ele>
        <time>2026-08-08T13:11:26.639Z</time>
      </trkpt>
      <trkpt lat="49.90855" lon="4.67871">
        <ele>96.32</ele>
        <time>2026-08-08T13:11:32.627Z</time>
      </trkpt>
      <trkpt lat="49.90893" lon="4.6785">
        <ele>96.69</ele>
        <time>2026-08-08T13:11:38.613Z</time>
      </trkpt>
      <trkpt lat="49.90931" lon="4.67827">
        <ele>95.25</ele>
        <time>2026-08-08T13:11:44.615Z</time>
      </trkpt>
      <trkpt lat="49.90968" lon="4.67807">
        <ele>94.41</ele>
        <time>2026-08-08T13:11:50.612Z</time>
      </trkpt>
      <trkpt lat="49.91006" lon="4.67786">
        <ele>94.13</ele>
        <time>2026-08-08T13:11:56.631Z</time>
      </trkpt>
      <trkpt lat="49.91043" lon="4.67766">
        <ele>94.35</ele>
        <time>2026-08-08T13:12:02.629Z</time>
      </trkpt>
      <trkpt lat="49.91079" lon="4.67746">
        <ele>94.86</ele>
        <time>2026-08-08T13:12:08.617Z</time>
      </trkpt>
      <trkpt lat="49.91114" lon="4.67725">
        <ele>94.38</ele>
        <time>2026-08-08T13:12:14.616Z</time>
      </trkpt>
      <trkpt lat="49.9115" lon="4.67707">
        <ele>93.67</ele>
        <time>2026-08-08T13:12:20.619Z</time>
      </trkpt>
      <trkpt lat="49.91186" lon="4.67692">
        <ele>92.35</ele>
        <time>2026-08-08T13:12:26.633Z</time>
      </trkpt>
      <trkpt lat="49.91221" lon="4.67678">
        <ele>91.84</ele>
        <time>2026-08-08T13:12:32.626Z</time>
      </trkpt>
      <trkpt lat="49.91257" lon="4.67663">
        <ele>91.91</ele>
        <time>2026-08-08T13:12:38.613Z</time>
      </trkpt>
      <trkpt lat="49.91292" lon="4.6765">
        <ele>92.53</ele>
        <time>2026-08-08T13:12:44.615Z</time>
      </trkpt>
      <trkpt lat="49.91329" lon="4.67634">
        <ele>92.25</ele>
        <time>2026-08-08T13:12:50.609Z</time>
      </trkpt>
      <trkpt lat="49.91366" lon="4.6762">
        <ele>91.92</ele>
        <time>2026-08-08T13:12:56.632Z</time>
      </trkpt>
      <trkpt lat="49.914" lon="4.67606">
        <ele>92.2</ele>
        <time>2026-08-08T13:13:02.624Z</time>
      </trkpt>
      <trkpt lat="49.91433" lon="4.67594">
        <ele>91.73</ele>
        <time>2026-08-08T13:13:08.618Z</time>
      </trkpt>
      <trkpt lat="49.91466" lon="4.67579">
        <ele>91.09</ele>
        <time>2026-08-08T13:13:14.615Z</time>
      </trkpt>
      <trkpt lat="49.91498" lon="4.67566">
        <ele>90.64</ele>
        <time>2026-08-08T13:13:20.615Z</time>
      </trkpt>
      <trkpt lat="49.9153" lon="4.67553">
        <ele>90.82</ele>
        <time>2026-08-08T13:13:26.613Z</time>
      </trkpt>
      <trkpt lat="49.91562" lon="4.67541">
        <ele>91.85</ele>
        <time>2026-08-08T13:13:32.634Z</time>
      </trkpt>
      <trkpt lat="49.91593" lon="4.6753">
        <ele>91.73</ele>
        <time>2026-08-08T13:13:38.615Z</time>
      </trkpt>
      <trkpt lat="49.91625" lon="4.67524">
        <ele>91.33</ele>
        <time>2026-08-08T13:13:44.613Z</time>
      </trkpt>
      <trkpt lat="49.91658" lon="4.67526">
        <ele>91.27</ele>
        <time>2026-08-08T13:13:50.615Z</time>
      </trkpt>
      <trkpt lat="49.91691" lon="4.67536">
        <ele>90.27</ele>
        <time>2026-08-08T13:13:56.631Z</time>
      </trkpt>
      <trkpt lat="49.91727" lon="4.67547">
        <ele>89.54</ele>
        <time>2026-08-08T13:14:02.628Z</time>
      </trkpt>
      <trkpt lat="49.91764" lon="4.67556">
        <ele>89.56</ele>
        <time>2026-08-08T13:14:08.611Z</time>
      </trkpt>
      <trkpt lat="49.91801" lon="4.67567">
        <ele>91.03</ele>
        <time>2026-08-08T13:14:14.614Z</time>
      </trkpt>
      <trkpt lat="49.91839" lon="4.67581">
        <ele>90.73</ele>
        <time>2026-08-08T13:14:20.615Z</time>
      </trkpt>
      <trkpt lat="49.91875" lon="4.67591">
        <ele>90.34</ele>
        <time>2026-08-08T13:14:26.620Z</time>
      </trkpt>
      <trkpt lat="49.91911" lon="4.67601">
        <ele>91.5</ele>
        <time>2026-08-08T13:14:32.627Z</time>
      </trkpt>
      <trkpt lat="49.91947" lon="4.67612">
        <ele>91.53</ele>
        <time>2026-08-08T13:14:38.614Z</time>
      </trkpt>
      <trkpt lat="49.91983" lon="4.67622">
        <ele>89.99</ele>
        <time>2026-08-08T13:14:44.614Z</time>
      </trkpt>
      <trkpt lat="49.92019" lon="4.67633">
        <ele>87.83</ele>
        <time>2026-08-08T13:14:50.610Z</time>
      </trkpt>
      <trkpt lat="49.92053" lon="4.67641">
        <ele>87.59</ele>
        <time>2026-08-08T13:14:56.627Z</time>
      </trkpt>
      <trkpt lat="49.92087" lon="4.67651">
        <ele>89.51</ele>
        <time>2026-08-08T13:15:02.627Z</time>
      </trkpt>
      <trkpt lat="49.92122" lon="4.67659">
        <ele>88.37</ele>
        <time>2026-08-08T13:15:08.615Z</time>
      </trkpt>
      <trkpt lat="49.92167" lon="4.67674">
        <ele>86.83</ele>
        <time>2026-08-08T13:15:14.630Z</time>
      </trkpt>
      <trkpt lat="49.9221" lon="4.67693">
        <ele>87.42</ele>
        <time>2026-08-08T13:15:20.615Z</time>
      </trkpt>
      <trkpt lat="49.92248" lon="4.67713">
        <ele>86.69</ele>
        <time>2026-08-08T13:15:26.632Z</time>
      </trkpt>
      <trkpt lat="49.92284" lon="4.67736">
        <ele>86.61</ele>
        <time>2026-08-08T13:15:32.629Z</time>
      </trkpt>
      <trkpt lat="49.92319" lon="4.67757">
        <ele>85.89</ele>
        <time>2026-08-08T13:15:38.618Z</time>
      </trkpt>
      <trkpt lat="49.92355" lon="4.67778">
        <ele>84.76</ele>
        <time>2026-08-08T13:15:44.610Z</time>
      </trkpt>
      <trkpt lat="49.92391" lon="4.67799">
        <ele>85.68</ele>
        <time>2026-08-08T13:15:50.617Z</time>
      </trkpt>
      <trkpt lat="49.92428" lon="4.67819">
        <ele>86.37</ele>
        <time>2026-08-08T13:15:56.634Z</time>
      </trkpt>
      <trkpt lat="49.92464" lon="4.67838">
        <ele>85.69</ele>
        <time>2026-08-08T13:16:02.630Z</time>
      </trkpt>
      <trkpt lat="49.925" lon="4.67856">
        <ele>86.14</ele>
        <time>2026-08-08T13:16:08.618Z</time>
      </trkpt>
      <trkpt lat="49.92535" lon="4.67874">
        <ele>85.74</ele>
        <time>2026-08-08T13:16:14.616Z</time>
      </trkpt>
      <trkpt lat="49.92568" lon="4.67897">
        <ele>85.71</ele>
        <time>2026-08-08T13:16:20.619Z</time>
      </trkpt>
      <trkpt lat="49.92604" lon="4.67913">
        <ele>84.29</ele>
        <time>2026-08-08T13:16:26.633Z</time>
      </trkpt>
      <trkpt lat="49.92641" lon="4.67931">
        <ele>84.12</ele>
        <time>2026-08-08T13:16:32.627Z</time>
      </trkpt>
      <trkpt lat="49.92681" lon="4.67942">
        <ele>85.85</ele>
        <time>2026-08-08T13:16:38.617Z</time>
      </trkpt>
      <trkpt lat="49.9272" lon="4.67949">
        <ele>85.99</ele>
        <time>2026-08-08T13:16:44.614Z</time>
      </trkpt>
      <trkpt lat="49.9276" lon="4.6795">
        <ele>85.88</ele>
        <time>2026-08-08T13:16:50.616Z</time>
      </trkpt>
      <trkpt lat="49.92799" lon="4.67953">
        <ele>86.64</ele>
        <time>2026-08-08T13:16:56.631Z</time>
      </trkpt>
      <trkpt lat="49.92838" lon="4.67955">
        <ele>85.99</ele>
        <time>2026-08-08T13:17:02.640Z</time>
      </trkpt>
      <trkpt lat="49.92877" lon="4.67952">
        <ele>86.32</ele>
        <time>2026-08-08T13:17:08.625Z</time>
      </trkpt>
      <trkpt lat="49.92915" lon="4.67944">
        <ele>85.74</ele>
        <time>2026-08-08T13:17:14.615Z</time>
      </trkpt>
      <trkpt lat="49.9295" lon="4.67931">
        <ele>86.06</ele>
        <time>2026-08-08T13:17:20.612Z</time>
      </trkpt>
      <trkpt lat="49.92986" lon="4.67914">
        <ele>86.37</ele>
        <time>2026-08-08T13:17:26.632Z</time>
      </trkpt>
      <trkpt lat="49.93024" lon="4.67892">
        <ele>86.81</ele>
        <time>2026-08-08T13:17:32.623Z</time>
      </trkpt>
      <trkpt lat="49.93061" lon="4.67874">
        <ele>86.22</ele>
        <time>2026-08-08T13:17:38.616Z</time>
      </trkpt>
      <trkpt lat="49.93098" lon="4.67853">
        <ele>86.03</ele>
        <time>2026-08-08T13:17:44.619Z</time>
      </trkpt>
      <trkpt lat="49.93134" lon="4.67825">
        <ele>87.01</ele>
        <time>2026-08-08T13:17:50.621Z</time>
      </trkpt>
      <trkpt lat="49.93166" lon="4.67791">
        <ele>86.5</ele>
        <time>2026-08-08T13:17:56.625Z</time>
      </trkpt>
      <trkpt lat="49.93196" lon="4.67751">
        <ele>87.49</ele>
        <time>2026-08-08T13:18:02.626Z</time>
      </trkpt>
      <trkpt lat="49.93222" lon="4.67701">
        <ele>88.15</ele>
        <time>2026-08-08T13:18:08.621Z</time>
      </trkpt>
      <trkpt lat="49.9324" lon="4.67645">
        <ele>87.43</ele>
        <time>2026-08-08T13:18:14.620Z</time>
      </trkpt>
      <trkpt lat="49.93257" lon="4.67586">
        <ele>86.67</ele>
        <time>2026-08-08T13:18:20.618Z</time>
      </trkpt>
      <trkpt lat="49.93273" lon="4.67529">
        <ele>86.14</ele>
        <time>2026-08-08T13:18:26.629Z</time>
      </trkpt>
      <trkpt lat="49.93286" lon="4.67474">
        <ele>86.34</ele>
        <time>2026-08-08T13:18:32.624Z</time>
      </trkpt>
      <trkpt lat="49.93296" lon="4.67418">
        <ele>86.11</ele>
        <time>2026-08-08T13:18:38.628Z</time>
      </trkpt>
      <trkpt lat="49.93299" lon="4.67361">
        <ele>85.15</ele>
        <time>2026-08-08T13:18:44.619Z</time>
      </trkpt>
      <trkpt lat="49.93295" lon="4.67304">
        <ele>84.56</ele>
        <time>2026-08-08T13:18:50.617Z</time>
      </trkpt>
      <trkpt lat="49.93293" lon="4.6725">
        <ele>84.7</ele>
        <time>2026-08-08T13:18:56.627Z</time>
      </trkpt>
      <trkpt lat="49.93288" lon="4.67195">
        <ele>85.15</ele>
        <time>2026-08-08T13:19:02.626Z</time>
      </trkpt>
      <trkpt lat="49.93278" lon="4.67139">
        <ele>84.81</ele>
        <time>2026-08-08T13:19:08.619Z</time>
      </trkpt>
      <trkpt lat="49.93265" lon="4.67087">
        <ele>85.48</ele>
        <time>2026-08-08T13:19:14.621Z</time>
      </trkpt>
      <trkpt lat="49.93253" lon="4.67036">
        <ele>86.06</ele>
        <time>2026-08-08T13:19:20.620Z</time>
      </trkpt>
      <trkpt lat="49.93241" lon="4.66988">
        <ele>86.17</ele>
        <time>2026-08-08T13:19:26.627Z</time>
      </trkpt>
      <trkpt lat="49.9323" lon="4.66943">
        <ele>86.3</ele>
        <time>2026-08-08T13:19:32.624Z</time>
      </trkpt>
      <trkpt lat="49.9322" lon="4.66897">
        <ele>85.79</ele>
        <time>2026-08-08T13:19:38.622Z</time>
      </trkpt>
      <trkpt lat="49.93208" lon="4.66849">
        <ele>85.29</ele>
        <time>2026-08-08T13:19:44.620Z</time>
      </trkpt>
      <trkpt lat="49.93197" lon="4.66803">
        <ele>85.49</ele>
        <time>2026-08-08T13:19:50.623Z</time>
      </trkpt>
      <trkpt lat="49.93187" lon="4.66758">
        <ele>85.98</ele>
        <time>2026-08-08T13:19:56.631Z</time>
      </trkpt>
      <trkpt lat="49.93175" lon="4.66713">
        <ele>85.97</ele>
        <time>2026-08-08T13:20:02.626Z</time>
      </trkpt>
      <trkpt lat="49.93165" lon="4.66668">
        <ele>85.62</ele>
        <time>2026-08-08T13:20:08.623Z</time>
      </trkpt>
      <trkpt lat="49.93153" lon="4.66621">
        <ele>86.05</ele>
        <time>2026-08-08T13:20:14.620Z</time>
      </trkpt>
      <trkpt lat="49.93141" lon="4.66573">
        <ele>86.47</ele>
        <time>2026-08-08T13:20:20.619Z</time>
      </trkpt>
      <trkpt lat="49.9313" lon="4.66522">
        <ele>86.5</ele>
        <time>2026-08-08T13:20:26.624Z</time>
      </trkpt>
      <trkpt lat="49.93116" lon="4.66469">
        <ele>85.13</ele>
        <time>2026-08-08T13:20:32.627Z</time>
      </trkpt>
      <trkpt lat="49.931" lon="4.66418">
        <ele>84.19</ele>
        <time>2026-08-08T13:20:38.617Z</time>
      </trkpt>
      <trkpt lat="49.93081" lon="4.66367">
        <ele>85.45</ele>
        <time>2026-08-08T13:20:44.624Z</time>
      </trkpt>
      <trkpt lat="49.93062" lon="4.66313">
        <ele>85.48</ele>
        <time>2026-08-08T13:20:50.624Z</time>
      </trkpt>
      <trkpt lat="49.93044" lon="4.66262">
        <ele>85.22</ele>
        <time>2026-08-08T13:20:56.627Z</time>
      </trkpt>
      <trkpt lat="49.93026" lon="4.6621">
        <ele>84.85</ele>
        <time>2026-08-08T13:21:02.628Z</time>
      </trkpt>
      <trkpt lat="49.93007" lon="4.66158">
        <ele>84.11</ele>
        <time>2026-08-08T13:21:08.621Z</time>
      </trkpt>
      <trkpt lat="49.92986" lon="4.66106">
        <ele>83.84</ele>
        <time>2026-08-08T13:21:14.618Z</time>
      </trkpt>
      <trkpt lat="49.92962" lon="4.66053">
        <ele>85.06</ele>
        <time>2026-08-08T13:21:20.620Z</time>
      </trkpt>
      <trkpt lat="49.92937" lon="4.66">
        <ele>85.9</ele>
        <time>2026-08-08T13:21:26.625Z</time>
      </trkpt>
      <trkpt lat="49.92912" lon="4.6595">
        <ele>85.55</ele>
        <time>2026-08-08T13:21:32.629Z</time>
      </trkpt>
      <trkpt lat="49.92887" lon="4.659">
        <ele>85.1</ele>
        <time>2026-08-08T13:21:38.620Z</time>
      </trkpt>
      <trkpt lat="49.92863" lon="4.6585">
        <ele>85.63</ele>
        <time>2026-08-08T13:21:44.618Z</time>
      </trkpt>
      <trkpt lat="49.92838" lon="4.658">
        <ele>85.47</ele>
        <time>2026-08-08T13:21:50.621Z</time>
      </trkpt>
      <trkpt lat="49.92811" lon="4.65754">
        <ele>85.31</ele>
        <time>2026-08-08T13:21:56.627Z</time>
      </trkpt>
      <trkpt lat="49.92783" lon="4.65711">
        <ele>85.74</ele>
        <time>2026-08-08T13:22:02.627Z</time>
      </trkpt>
      <trkpt lat="49.92755" lon="4.65669">
        <ele>85.19</ele>
        <time>2026-08-08T13:22:08.619Z</time>
      </trkpt>
      <trkpt lat="49.92726" lon="4.65632">
        <ele>83.89</ele>
        <time>2026-08-08T13:22:14.621Z</time>
      </trkpt>
      <trkpt lat="49.92697" lon="4.65594">
        <ele>82.83</ele>
        <time>2026-08-08T13:22:20.619Z</time>
      </trkpt>
      <trkpt lat="49.92671" lon="4.65552">
        <ele>83.31</ele>
        <time>2026-08-08T13:22:26.631Z</time>
      </trkpt>
      <trkpt lat="49.92646" lon="4.65509">
        <ele>84.02</ele>
        <time>2026-08-08T13:22:32.622Z</time>
      </trkpt>
      <trkpt lat="49.92622" lon="4.65464">
        <ele>83.66</ele>
        <time>2026-08-08T13:22:38.616Z</time>
      </trkpt>
      <trkpt lat="49.92596" lon="4.65422">
        <ele>84.59</ele>
        <time>2026-08-08T13:22:44.616Z</time>
      </trkpt>
      <trkpt lat="49.92569" lon="4.6538">
        <ele>86.8</ele>
        <time>2026-08-08T13:22:50.614Z</time>
      </trkpt>
      <trkpt lat="49.92543" lon="4.65337">
        <ele>85.98</ele>
        <time>2026-08-08T13:22:56.631Z</time>
      </trkpt>
      <trkpt lat="49.92517" lon="4.65292">
        <ele>83.74</ele>
        <time>2026-08-08T13:23:02.626Z</time>
      </trkpt>
      <trkpt lat="49.92492" lon="4.65246">
        <ele>84.78</ele>
        <time>2026-08-08T13:23:08.620Z</time>
      </trkpt>
      <trkpt lat="49.92468" lon="4.65205">
        <ele>83.07</ele>
        <time>2026-08-08T13:23:14.621Z</time>
      </trkpt>
      <trkpt lat="49.92443" lon="4.65161">
        <ele>83.76</ele>
        <time>2026-08-08T13:23:20.617Z</time>
      </trkpt>
      <trkpt lat="49.92426" lon="4.65114">
        <ele>86.39</ele>
        <time>2026-08-08T13:23:26.607Z</time>
      </trkpt>
      <trkpt lat="49.92413" lon="4.6506">
        <ele>86.39</ele>
        <time>2026-08-08T13:23:32.625Z</time>
      </trkpt>
      <trkpt lat="49.924" lon="4.65007">
        <ele>86.1</ele>
        <time>2026-08-08T13:23:38.618Z</time>
      </trkpt>
      <trkpt lat="49.92397" lon="4.6495">
        <ele>85.86</ele>
        <time>2026-08-08T13:23:44.613Z</time>
      </trkpt>
      <trkpt lat="49.92409" lon="4.64892">
        <ele>85.9</ele>
        <time>2026-08-08T13:23:50.616Z</time>
      </trkpt>
      <trkpt lat="49.92426" lon="4.64838">
        <ele>85.81</ele>
        <time>2026-08-08T13:23:56.631Z</time>
      </trkpt>
      <trkpt lat="49.92444" lon="4.64787">
        <ele>85.45</ele>
        <time>2026-08-08T13:24:02.630Z</time>
      </trkpt>
      <trkpt lat="49.92469" lon="4.64744">
        <ele>87.36</ele>
        <time>2026-08-08T13:24:08.618Z</time>
      </trkpt>
      <trkpt lat="49.92497" lon="4.64705">
        <ele>88.63</ele>
        <time>2026-08-08T13:24:14.618Z</time>
      </trkpt>
      <trkpt lat="49.92527" lon="4.6467">
        <ele>88.32</ele>
        <time>2026-08-08T13:24:20.618Z</time>
      </trkpt>
      <trkpt lat="49.92557" lon="4.64634">
        <ele>89.77</ele>
        <time>2026-08-08T13:24:26.634Z</time>
      </trkpt>
      <trkpt lat="49.92587" lon="4.64598">
        <ele>88.49</ele>
        <time>2026-08-08T13:24:32.624Z</time>
      </trkpt>
      <trkpt lat="49.92621" lon="4.64569">
        <ele>86.81</ele>
        <time>2026-08-08T13:24:38.619Z</time>
      </trkpt>
      <trkpt lat="49.92658" lon="4.64544">
        <ele>86.56</ele>
        <time>2026-08-08T13:24:44.619Z</time>
      </trkpt>
      <trkpt lat="49.92696" lon="4.64523">
        <ele>87.65</ele>
        <time>2026-08-08T13:24:50.620Z</time>
      </trkpt>
      <trkpt lat="49.92734" lon="4.64506">
        <ele>87.91</ele>
        <time>2026-08-08T13:24:56.634Z</time>
      </trkpt>
      <trkpt lat="49.92772" lon="4.64495">
        <ele>88.37</ele>
        <time>2026-08-08T13:25:02.628Z</time>
      </trkpt>
      <trkpt lat="49.92808" lon="4.64496">
        <ele>88.5</ele>
        <time>2026-08-08T13:25:08.619Z</time>
      </trkpt>
      <trkpt lat="49.92845" lon="4.64498">
        <ele>87.59</ele>
        <time>2026-08-08T13:25:14.616Z</time>
      </trkpt>
      <trkpt lat="49.92884" lon="4.64499">
        <ele>88.47</ele>
        <time>2026-08-08T13:25:20.617Z</time>
      </trkpt>
      <trkpt lat="49.92924" lon="4.64504">
        <ele>88.43</ele>
        <time>2026-08-08T13:25:26.636Z</time>
      </trkpt>
      <trkpt lat="49.92963" lon="4.64508">
        <ele>88.93</ele>
        <time>2026-08-08T13:25:32.626Z</time>
      </trkpt>
      <trkpt lat="49.93001" lon="4.64522">
        <ele>89.47</ele>
        <time>2026-08-08T13:25:38.616Z</time>
      </trkpt>
      <trkpt lat="49.93037" lon="4.64539">
        <ele>89.2</ele>
        <time>2026-08-08T13:25:44.615Z</time>
      </trkpt>
      <trkpt lat="49.93074" lon="4.64563">
        <ele>88.76</ele>
        <time>2026-08-08T13:25:50.613Z</time>
      </trkpt>
      <trkpt lat="49.93107" lon="4.64593">
        <ele>88.28</ele>
        <time>2026-08-08T13:25:56.608Z</time>
      </trkpt>
      <trkpt lat="49.93139" lon="4.64629">
        <ele>88.66</ele>
        <time>2026-08-08T13:26:02.626Z</time>
      </trkpt>
      <trkpt lat="49.9317" lon="4.64665">
        <ele>87.79</ele>
        <time>2026-08-08T13:26:08.620Z</time>
      </trkpt>
      <trkpt lat="49.93199" lon="4.64703">
        <ele>88.59</ele>
        <time>2026-08-08T13:26:14.615Z</time>
      </trkpt>
      <trkpt lat="49.93232" lon="4.64735">
        <ele>88.41</ele>
        <time>2026-08-08T13:26:20.616Z</time>
      </trkpt>
      <trkpt lat="49.93264" lon="4.64767">
        <ele>86.77</ele>
        <time>2026-08-08T13:26:26.634Z</time>
      </trkpt>
      <trkpt lat="49.93302" lon="4.6481">
        <ele>84.24</ele>
        <time>2026-08-08T13:26:32.622Z</time>
      </trkpt>
      <trkpt lat="49.93337" lon="4.64856">
        <ele>85.15</ele>
        <time>2026-08-08T13:26:38.615Z</time>
      </trkpt>
      <trkpt lat="49.93371" lon="4.64899">
        <ele>84.68</ele>
        <time>2026-08-08T13:26:44.616Z</time>
      </trkpt>
      <trkpt lat="49.93403" lon="4.64941">
        <ele>84.98</ele>
        <time>2026-08-08T13:26:50.610Z</time>
      </trkpt>
      <trkpt lat="49.93433" lon="4.64978">
        <ele>84.53</ele>
        <time>2026-08-08T13:26:56.632Z</time>
      </trkpt>
      <trkpt lat="49.93462" lon="4.65014">
        <ele>82.84</ele>
        <time>2026-08-08T13:27:02.629Z</time>
      </trkpt>
      <trkpt lat="49.93492" lon="4.65047">
        <ele>82.14</ele>
        <time>2026-08-08T13:27:08.610Z</time>
      </trkpt>
      <trkpt lat="49.93526" lon="4.65069">
        <ele>83.14</ele>
        <time>2026-08-08T13:27:14.617Z</time>
      </trkpt>
      <trkpt lat="49.93556" lon="4.6509">
        <ele>82.1</ele>
        <time>2026-08-08T13:27:20.618Z</time>
      </trkpt>
      <trkpt lat="49.93594" lon="4.651">
        <ele>82.93</ele>
        <time>2026-08-08T13:27:26.631Z</time>
      </trkpt>
      <trkpt lat="49.93631" lon="4.65098">
        <ele>85.56</ele>
        <time>2026-08-08T13:27:32.630Z</time>
      </trkpt>
      <trkpt lat="49.93665" lon="4.65086">
        <ele>86.07</ele>
        <time>2026-08-08T13:27:38.613Z</time>
      </trkpt>
      <trkpt lat="49.937" lon="4.65072">
        <ele>85.54</ele>
        <time>2026-08-08T13:27:44.619Z</time>
      </trkpt>
      <trkpt lat="49.93735" lon="4.65054">
        <ele>84.57</ele>
        <time>2026-08-08T13:27:50.609Z</time>
      </trkpt>
      <trkpt lat="49.93769" lon="4.65032">
        <ele>84.23</ele>
        <time>2026-08-08T13:27:56.632Z</time>
      </trkpt>
      <trkpt lat="49.93802" lon="4.65005">
        <ele>85</ele>
        <time>2026-08-08T13:28:02.633Z</time>
      </trkpt>
      <trkpt lat="49.93835" lon="4.64977">
        <ele>85.46</ele>
        <time>2026-08-08T13:28:08.617Z</time>
      </trkpt>
      <trkpt lat="49.93866" lon="4.64945">
        <ele>85.84</ele>
        <time>2026-08-08T13:28:14.616Z</time>
      </trkpt>
      <trkpt lat="49.93895" lon="4.64908">
        <ele>85.99</ele>
        <time>2026-08-08T13:28:20.619Z</time>
      </trkpt>
      <trkpt lat="49.93922" lon="4.64869">
        <ele>87.29</ele>
        <time>2026-08-08T13:28:26.636Z</time>
      </trkpt>
      <trkpt lat="49.93946" lon="4.64824">
        <ele>87.52</ele>
        <time>2026-08-08T13:28:32.628Z</time>
      </trkpt>
      <trkpt lat="49.93968" lon="4.64777">
        <ele>87.62</ele>
        <time>2026-08-08T13:28:38.616Z</time>
      </trkpt>
      <trkpt lat="49.93988" lon="4.64731">
        <ele>88.21</ele>
        <time>2026-08-08T13:28:44.618Z</time>
      </trkpt>
      <trkpt lat="49.94007" lon="4.64685">
        <ele>88.17</ele>
        <time>2026-08-08T13:28:50.613Z</time>
      </trkpt>
      <trkpt lat="49.94029" lon="4.64637">
        <ele>88.32</ele>
        <time>2026-08-08T13:28:56.636Z</time>
      </trkpt>
      <trkpt lat="49.94049" lon="4.64591">
        <ele>88.31</ele>
        <time>2026-08-08T13:29:02.628Z</time>
      </trkpt>
      <trkpt lat="49.94071" lon="4.6455">
        <ele>88.52</ele>
        <time>2026-08-08T13:29:08.616Z</time>
      </trkpt>
      <trkpt lat="49.94094" lon="4.64521">
        <ele>87.98</ele>
        <time>2026-08-08T13:29:14.617Z</time>
      </trkpt>
      <trkpt lat="49.94112" lon="4.6451">
        <ele>86.59</ele>
        <time>2026-08-08T13:29:20.613Z</time>
      </trkpt>
      <trkpt lat="49.94122" lon="4.64504">
        <ele>84.86</ele>
        <time>2026-08-08T13:29:35.563Z</time>
      </trkpt>
      <trkpt lat="49.94136" lon="4.64499">
        <ele>84.16</ele>
        <time>2026-08-08T13:29:41.557Z</time>
      </trkpt>
      <trkpt lat="49.94127" lon="4.6449">
        <ele>82.92</ele>
        <time>2026-08-08T13:29:59.561Z</time>
      </trkpt>
      <trkpt lat="49.9412" lon="4.64498">
        <ele>82.43</ele>
        <time>2026-08-08T13:30:06.564Z</time>
      </trkpt>
      <trkpt lat="49.94296" lon="4.64409">
        <ele>83.13</ele>
        <time>2026-08-08T13:33:09.556Z</time>
      </trkpt>
      <trkpt lat="49.94304" lon="4.6442">
        <ele>82.83</ele>
        <time>2026-08-08T13:33:15.556Z</time>
      </trkpt>
      <trkpt lat="49.94316" lon="4.64407">
        <ele>83.29</ele>
        <time>2026-08-08T13:33:20.556Z</time>
      </trkpt>
      <trkpt lat="49.94326" lon="4.64402">
        <ele>84.38</ele>
        <time>2026-08-08T13:33:25.571Z</time>
      </trkpt>
      <trkpt lat="49.94337" lon="4.6441">
        <ele>84.64</ele>
        <time>2026-08-08T13:33:31.570Z</time>
      </trkpt>
      <trkpt lat="49.94346" lon="4.64423">
        <ele>85.43</ele>
        <time>2026-08-08T13:33:36.571Z</time>
      </trkpt>
      <trkpt lat="49.9436" lon="4.64441">
        <ele>86.02</ele>
        <time>2026-08-08T13:33:42.574Z</time>
      </trkpt>
      <trkpt lat="49.94372" lon="4.64469">
        <ele>86.05</ele>
        <time>2026-08-08T13:33:48.572Z</time>
      </trkpt>
      <trkpt lat="49.94386" lon="4.64493">
        <ele>86.01</ele>
        <time>2026-08-08T13:33:54.577Z</time>
      </trkpt>
      <trkpt lat="49.94404" lon="4.6453">
        <ele>84.44</ele>
        <time>2026-08-08T13:34:00.570Z</time>
      </trkpt>
      <trkpt lat="49.94423" lon="4.64575">
        <ele>82.88</ele>
        <time>2026-08-08T13:34:05.570Z</time>
      </trkpt>
      <trkpt lat="49.94436" lon="4.64639">
        <ele>79.42</ele>
        <time>2026-08-08T13:34:11.567Z</time>
      </trkpt>
      <trkpt lat="49.94443" lon="4.64688">
        <ele>78.91</ele>
        <time>2026-08-08T13:34:16.569Z</time>
      </trkpt>
      <trkpt lat="49.94451" lon="4.64742">
        <ele>79.34</ele>
        <time>2026-08-08T13:34:22.569Z</time>
      </trkpt>
      <trkpt lat="49.94459" lon="4.64786">
        <ele>80</ele>
        <time>2026-08-08T13:34:27.570Z</time>
      </trkpt>
      <trkpt lat="49.94471" lon="4.64836">
        <ele>80.2</ele>
        <time>2026-08-08T13:34:33.554Z</time>
      </trkpt>
      <trkpt lat="49.94481" lon="4.64878">
        <ele>79.74</ele>
        <time>2026-08-08T13:34:38.575Z</time>
      </trkpt>
      <trkpt lat="49.94493" lon="4.64929">
        <ele>80.7</ele>
        <time>2026-08-08T13:34:44.573Z</time>
      </trkpt>
      <trkpt lat="49.94502" lon="4.64976">
        <ele>82.31</ele>
        <time>2026-08-08T13:34:50.576Z</time>
      </trkpt>
      <trkpt lat="49.9451" lon="4.65015">
        <ele>85.22</ele>
        <time>2026-08-08T13:34:56.576Z</time>
      </trkpt>
      <trkpt lat="49.94526" lon="4.65052">
        <ele>85.32</ele>
        <time>2026-08-08T13:35:02.569Z</time>
      </trkpt>
      <trkpt lat="49.94544" lon="4.65089">
        <ele>85.84</ele>
        <time>2026-08-08T13:35:08.590Z</time>
      </trkpt>
      <trkpt lat="49.94562" lon="4.65122">
        <ele>86.01</ele>
        <time>2026-08-08T13:35:14.590Z</time>
      </trkpt>
      <trkpt lat="49.94577" lon="4.65154">
        <ele>88.28</ele>
        <time>2026-08-08T13:35:20.578Z</time>
      </trkpt>
      <trkpt lat="49.94565" lon="4.65173">
        <ele>85.93</ele>
        <time>2026-08-08T13:35:26.561Z</time>
      </trkpt>
      <trkpt lat="49.94578" lon="4.65201">
        <ele>83.16</ele>
        <time>2026-08-08T13:35:31.571Z</time>
      </trkpt>
      <trkpt lat="49.94593" lon="4.65221">
        <ele>77.07</ele>
        <time>2026-08-08T13:35:36.572Z</time>
      </trkpt>
      <trkpt lat="49.94619" lon="4.65246">
        <ele>73.76</ele>
        <time>2026-08-08T13:35:42.591Z</time>
      </trkpt>
      <trkpt lat="49.94644" lon="4.65263">
        <ele>76.65</ele>
        <time>2026-08-08T13:35:48.568Z</time>
      </trkpt>
      <trkpt lat="49.94666" lon="4.6528">
        <ele>78.96</ele>
        <time>2026-08-08T13:35:53.568Z</time>
      </trkpt>
      <trkpt lat="49.94688" lon="4.65294">
        <ele>82.41</ele>
        <time>2026-08-08T13:35:58.592Z</time>
      </trkpt>
      <trkpt lat="49.94716" lon="4.65314">
        <ele>83.64</ele>
        <time>2026-08-08T13:36:04.566Z</time>
      </trkpt>
      <trkpt lat="49.94744" lon="4.65336">
        <ele>83.42</ele>
        <time>2026-08-08T13:36:10.564Z</time>
      </trkpt>
      <trkpt lat="49.9477" lon="4.65353">
        <ele>82.64</ele>
        <time>2026-08-08T13:36:15.573Z</time>
      </trkpt>
      <trkpt lat="49.94797" lon="4.6537">
        <ele>80.43</ele>
        <time>2026-08-08T13:36:20.596Z</time>
      </trkpt>
      <trkpt lat="49.9483" lon="4.6539">
        <ele>78.26</ele>
        <time>2026-08-08T13:36:26.568Z</time>
      </trkpt>
      <trkpt lat="49.94864" lon="4.65408">
        <ele>79.64</ele>
        <time>2026-08-08T13:36:32.568Z</time>
      </trkpt>
      <trkpt lat="49.94899" lon="4.65421">
        <ele>81.92</ele>
        <time>2026-08-08T13:36:38.594Z</time>
      </trkpt>
      <trkpt lat="49.94935" lon="4.65429">
        <ele>85.14</ele>
        <time>2026-08-08T13:36:44.595Z</time>
      </trkpt>
      <trkpt lat="49.94969" lon="4.65439">
        <ele>86.12</ele>
        <time>2026-08-08T13:36:50.588Z</time>
      </trkpt>
      <trkpt lat="49.95006" lon="4.6545">
        <ele>85.02</ele>
        <time>2026-08-08T13:36:56.567Z</time>
      </trkpt>
      <trkpt lat="49.95036" lon="4.65458">
        <ele>85.08</ele>
        <time>2026-08-08T13:37:01.567Z</time>
      </trkpt>
      <trkpt lat="49.95066" lon="4.65465">
        <ele>83.79</ele>
        <time>2026-08-08T13:37:06.568Z</time>
      </trkpt>
      <trkpt lat="49.95097" lon="4.65472">
        <ele>83.93</ele>
        <time>2026-08-08T13:37:11.573Z</time>
      </trkpt>
      <trkpt lat="49.95134" lon="4.6548">
        <ele>85.11</ele>
        <time>2026-08-08T13:37:17.567Z</time>
      </trkpt>
      <trkpt lat="49.95169" lon="4.65488">
        <ele>84.2</ele>
        <time>2026-08-08T13:37:23.568Z</time>
      </trkpt>
      <trkpt lat="49.95199" lon="4.65494">
        <ele>83.39</ele>
        <time>2026-08-08T13:37:28.573Z</time>
      </trkpt>
      <trkpt lat="49.95234" lon="4.65503">
        <ele>81.85</ele>
        <time>2026-08-08T13:37:34.567Z</time>
      </trkpt>
      <trkpt lat="49.95263" lon="4.65508">
        <ele>80.75</ele>
        <time>2026-08-08T13:37:39.567Z</time>
      </trkpt>
      <trkpt lat="49.9529" lon="4.65515">
        <ele>80.49</ele>
        <time>2026-08-08T13:37:44.596Z</time>
      </trkpt>
      <trkpt lat="49.95316" lon="4.6553">
        <ele>80.25</ele>
        <time>2026-08-08T13:37:50.593Z</time>
      </trkpt>
      <trkpt lat="49.95338" lon="4.65541">
        <ele>80.31</ele>
        <time>2026-08-08T13:37:56.569Z</time>
      </trkpt>
      <trkpt lat="49.95355" lon="4.65552">
        <ele>82.25</ele>
        <time>2026-08-08T13:38:01.575Z</time>
      </trkpt>
      <trkpt lat="49.95373" lon="4.65561">
        <ele>82.43</ele>
        <time>2026-08-08T13:38:07.568Z</time>
      </trkpt>
      <trkpt lat="49.95387" lon="4.65567">
        <ele>84.26</ele>
        <time>2026-08-08T13:38:12.569Z</time>
      </trkpt>
      <trkpt lat="49.954" lon="4.65575">
        <ele>87.04</ele>
        <time>2026-08-08T13:38:17.570Z</time>
      </trkpt>
      <trkpt lat="49.95414" lon="4.65584">
        <ele>88.19</ele>
        <time>2026-08-08T13:38:23.566Z</time>
      </trkpt>
      <trkpt lat="49.95427" lon="4.65593">
        <ele>88.75</ele>
        <time>2026-08-08T13:38:28.569Z</time>
      </trkpt>
      <trkpt lat="49.95441" lon="4.65603">
        <ele>89.41</ele>
        <time>2026-08-08T13:38:34.564Z</time>
      </trkpt>
      <trkpt lat="49.95453" lon="4.6561">
        <ele>91.64</ele>
        <time>2026-08-08T13:38:39.569Z</time>
      </trkpt>
      <trkpt lat="49.95466" lon="4.65616">
        <ele>92.75</ele>
        <time>2026-08-08T13:38:44.593Z</time>
      </trkpt>
      <trkpt lat="49.95483" lon="4.65624">
        <ele>92.71</ele>
        <time>2026-08-08T13:38:50.590Z</time>
      </trkpt>
      <trkpt lat="49.95511" lon="4.65639">
        <ele>90.99</ele>
        <time>2026-08-08T13:38:56.569Z</time>
      </trkpt>
      <trkpt lat="49.95542" lon="4.65656">
        <ele>90.37</ele>
        <time>2026-08-08T13:39:01.571Z</time>
      </trkpt>
      <trkpt lat="49.95576" lon="4.65677">
        <ele>89.11</ele>
        <time>2026-08-08T13:39:07.566Z</time>
      </trkpt>
      <trkpt lat="49.956" lon="4.65693">
        <ele>87.62</ele>
        <time>2026-08-08T13:39:12.566Z</time>
      </trkpt>
      <trkpt lat="49.95624" lon="4.65707">
        <ele>88.34</ele>
        <time>2026-08-08T13:39:17.571Z</time>
      </trkpt>
      <trkpt lat="49.95658" lon="4.65724">
        <ele>89.85</ele>
        <time>2026-08-08T13:39:23.567Z</time>
      </trkpt>
      <trkpt lat="49.9569" lon="4.6574">
        <ele>88.52</ele>
        <time>2026-08-08T13:39:28.568Z</time>
      </trkpt>
      <trkpt lat="49.95722" lon="4.65756">
        <ele>88.12</ele>
        <time>2026-08-08T13:39:33.569Z</time>
      </trkpt>
      <trkpt lat="49.95756" lon="4.65772">
        <ele>87.73</ele>
        <time>2026-08-08T13:39:38.599Z</time>
      </trkpt>
      <trkpt lat="49.95798" lon="4.65794">
        <ele>87.18</ele>
        <time>2026-08-08T13:39:44.602Z</time>
      </trkpt>
      <trkpt lat="49.95834" lon="4.65818">
        <ele>86.1</ele>
        <time>2026-08-08T13:39:50.597Z</time>
      </trkpt>
      <trkpt lat="49.95864" lon="4.65842">
        <ele>86.09</ele>
        <time>2026-08-08T13:39:56.633Z</time>
      </trkpt>
      <trkpt lat="49.95893" lon="4.65865">
        <ele>85.3</ele>
        <time>2026-08-08T13:40:02.570Z</time>
      </trkpt>
      <trkpt lat="49.95918" lon="4.65885">
        <ele>85.89</ele>
        <time>2026-08-08T13:40:07.576Z</time>
      </trkpt>
      <trkpt lat="49.95949" lon="4.65909">
        <ele>86.13</ele>
        <time>2026-08-08T13:40:13.570Z</time>
      </trkpt>
      <trkpt lat="49.9598" lon="4.65934">
        <ele>86.5</ele>
        <time>2026-08-08T13:40:19.573Z</time>
      </trkpt>
      <trkpt lat="49.96012" lon="4.65959">
        <ele>86.55</ele>
        <time>2026-08-08T13:40:25.569Z</time>
      </trkpt>
      <trkpt lat="49.96046" lon="4.65987">
        <ele>86.84</ele>
        <time>2026-08-08T13:40:31.570Z</time>
      </trkpt>
      <trkpt lat="49.96081" lon="4.66018">
        <ele>86.02</ele>
        <time>2026-08-08T13:40:37.569Z</time>
      </trkpt>
      <trkpt lat="49.96109" lon="4.66041">
        <ele>85.44</ele>
        <time>2026-08-08T13:40:42.569Z</time>
      </trkpt>
      <trkpt lat="49.96139" lon="4.66061">
        <ele>85.16</ele>
        <time>2026-08-08T13:40:47.571Z</time>
      </trkpt>
      <trkpt lat="49.96177" lon="4.6609">
        <ele>84.9</ele>
        <time>2026-08-08T13:40:53.568Z</time>
      </trkpt>
      <trkpt lat="49.96208" lon="4.66125">
        <ele>84.86</ele>
        <time>2026-08-08T13:40:59.571Z</time>
      </trkpt>
      <trkpt lat="49.96236" lon="4.66161">
        <ele>85.3</ele>
        <time>2026-08-08T13:41:05.569Z</time>
      </trkpt>
      <trkpt lat="49.96272" lon="4.66178">
        <ele>85.4</ele>
        <time>2026-08-08T13:41:11.569Z</time>
      </trkpt>
      <trkpt lat="49.96308" lon="4.66199">
        <ele>85.41</ele>
        <time>2026-08-08T13:41:17.573Z</time>
      </trkpt>
      <trkpt lat="49.96342" lon="4.66227">
        <ele>85.7</ele>
        <time>2026-08-08T13:41:23.569Z</time>
      </trkpt>
      <trkpt lat="49.96375" lon="4.66254">
        <ele>85.79</ele>
        <time>2026-08-08T13:41:29.569Z</time>
      </trkpt>
      <trkpt lat="49.96408" lon="4.6628">
        <ele>85.74</ele>
        <time>2026-08-08T13:41:35.569Z</time>
      </trkpt>
      <trkpt lat="49.96435" lon="4.66301">
        <ele>85.2</ele>
        <time>2026-08-08T13:41:40.570Z</time>
      </trkpt>
      <trkpt lat="49.96463" lon="4.66319">
        <ele>85.67</ele>
        <time>2026-08-08T13:41:46.563Z</time>
      </trkpt>
      <trkpt lat="49.96487" lon="4.66333">
        <ele>86.43</ele>
        <time>2026-08-08T13:41:51.568Z</time>
      </trkpt>
      <trkpt lat="49.96518" lon="4.66351">
        <ele>85.34</ele>
        <time>2026-08-08T13:41:57.567Z</time>
      </trkpt>
      <trkpt lat="49.96543" lon="4.66365">
        <ele>85.99</ele>
        <time>2026-08-08T13:42:02.567Z</time>
      </trkpt>
      <trkpt lat="49.96568" lon="4.6638">
        <ele>86.36</ele>
        <time>2026-08-08T13:42:07.568Z</time>
      </trkpt>
      <trkpt lat="49.9659" lon="4.66391">
        <ele>85.88</ele>
        <time>2026-08-08T13:42:12.570Z</time>
      </trkpt>
      <trkpt lat="49.96615" lon="4.66402">
        <ele>87.64</ele>
        <time>2026-08-08T13:42:18.569Z</time>
      </trkpt>
      <trkpt lat="49.96642" lon="4.66412">
        <ele>88.28</ele>
        <time>2026-08-08T13:42:24.568Z</time>
      </trkpt>
      <trkpt lat="49.96669" lon="4.66422">
        <ele>89.04</ele>
        <time>2026-08-08T13:42:30.571Z</time>
      </trkpt>
      <trkpt lat="49.96697" lon="4.6643">
        <ele>89.59</ele>
        <time>2026-08-08T13:42:36.571Z</time>
      </trkpt>
      <trkpt lat="49.9672" lon="4.66437">
        <ele>90.01</ele>
        <time>2026-08-08T13:42:41.571Z</time>
      </trkpt>
      <trkpt lat="49.9675" lon="4.66445">
        <ele>89.24</ele>
        <time>2026-08-08T13:42:47.570Z</time>
      </trkpt>
      <trkpt lat="49.96777" lon="4.66453">
        <ele>88.34</ele>
        <time>2026-08-08T13:42:52.572Z</time>
      </trkpt>
      <trkpt lat="49.96809" lon="4.66461">
        <ele>88.45</ele>
        <time>2026-08-08T13:42:58.569Z</time>
      </trkpt>
      <trkpt lat="49.96835" lon="4.66465">
        <ele>89.53</ele>
        <time>2026-08-08T13:43:03.573Z</time>
      </trkpt>
      <trkpt lat="49.96863" lon="4.66469">
        <ele>90.86</ele>
        <time>2026-08-08T13:43:08.609Z</time>
      </trkpt>
      <trkpt lat="49.96897" lon="4.66471">
        <ele>88.94</ele>
        <time>2026-08-08T13:43:14.610Z</time>
      </trkpt>
      <trkpt lat="49.96936" lon="4.66469">
        <ele>87.51</ele>
        <time>2026-08-08T13:43:20.609Z</time>
      </trkpt>
      <trkpt lat="49.96977" lon="4.66466">
        <ele>87.92</ele>
        <time>2026-08-08T13:43:26.569Z</time>
      </trkpt>
      <trkpt lat="49.97012" lon="4.66459">
        <ele>86.74</ele>
        <time>2026-08-08T13:43:31.571Z</time>
      </trkpt>
      <trkpt lat="49.97055" lon="4.66452">
        <ele>84.55</ele>
        <time>2026-08-08T13:43:37.571Z</time>
      </trkpt>
      <trkpt lat="49.97091" lon="4.66449">
        <ele>82.12</ele>
        <time>2026-08-08T13:43:42.571Z</time>
      </trkpt>
      <trkpt lat="49.97129" lon="4.66454">
        <ele>82.6</ele>
        <time>2026-08-08T13:43:47.572Z</time>
      </trkpt>
      <trkpt lat="49.97172" lon="4.6644">
        <ele>80.95</ele>
        <time>2026-08-08T13:43:53.567Z</time>
      </trkpt>
      <trkpt lat="49.97207" lon="4.66395">
        <ele>80.61</ele>
        <time>2026-08-08T13:43:59.570Z</time>
      </trkpt>
      <trkpt lat="49.97237" lon="4.66367">
        <ele>80.78</ele>
        <time>2026-08-08T13:44:04.570Z</time>
      </trkpt>
      <trkpt lat="49.97273" lon="4.66349">
        <ele>80.68</ele>
        <time>2026-08-08T13:44:10.562Z</time>
      </trkpt>
      <trkpt lat="49.97305" lon="4.66338">
        <ele>81.28</ele>
        <time>2026-08-08T13:44:15.568Z</time>
      </trkpt>
      <trkpt lat="49.97335" lon="4.66328">
        <ele>81.83</ele>
        <time>2026-08-08T13:44:20.611Z</time>
      </trkpt>
      <trkpt lat="49.97369" lon="4.6632">
        <ele>81.56</ele>
        <time>2026-08-08T13:44:26.572Z</time>
      </trkpt>
      <trkpt lat="49.97401" lon="4.66316">
        <ele>81.72</ele>
        <time>2026-08-08T13:44:32.569Z</time>
      </trkpt>
      <trkpt lat="49.97429" lon="4.66315">
        <ele>82.94</ele>
        <time>2026-08-08T13:44:37.569Z</time>
      </trkpt>
      <trkpt lat="49.97456" lon="4.66318">
        <ele>82.9</ele>
        <time>2026-08-08T13:44:42.569Z</time>
      </trkpt>
      <trkpt lat="49.97485" lon="4.6632">
        <ele>83.15</ele>
        <time>2026-08-08T13:44:47.570Z</time>
      </trkpt>
      <trkpt lat="49.97518" lon="4.66328">
        <ele>82.41</ele>
        <time>2026-08-08T13:44:53.569Z</time>
      </trkpt>
      <trkpt lat="49.9755" lon="4.66338">
        <ele>82.97</ele>
        <time>2026-08-08T13:44:59.568Z</time>
      </trkpt>
      <trkpt lat="49.97581" lon="4.66351">
        <ele>83.41</ele>
        <time>2026-08-08T13:45:05.567Z</time>
      </trkpt>
      <trkpt lat="49.97614" lon="4.66369">
        <ele>85.27</ele>
        <time>2026-08-08T13:45:11.570Z</time>
      </trkpt>
      <trkpt lat="49.97643" lon="4.66389">
        <ele>85.65</ele>
        <time>2026-08-08T13:45:17.569Z</time>
      </trkpt>
      <trkpt lat="49.97671" lon="4.66411">
        <ele>85.54</ele>
        <time>2026-08-08T13:45:23.569Z</time>
      </trkpt>
      <trkpt lat="49.97699" lon="4.66435">
        <ele>85.1</ele>
        <time>2026-08-08T13:45:29.569Z</time>
      </trkpt>
      <trkpt lat="49.97725" lon="4.66461">
        <ele>85.09</ele>
        <time>2026-08-08T13:45:35.567Z</time>
      </trkpt>
      <trkpt lat="49.97745" lon="4.66484">
        <ele>85.96</ele>
        <time>2026-08-08T13:45:40.567Z</time>
      </trkpt>
      <trkpt lat="49.97765" lon="4.66512">
        <ele>86.04</ele>
        <time>2026-08-08T13:45:45.572Z</time>
      </trkpt>
      <trkpt lat="49.97777" lon="4.66548">
        <ele>85.61</ele>
        <time>2026-08-08T13:45:50.616Z</time>
      </trkpt>
      <trkpt lat="49.97787" lon="4.66588">
        <ele>85.53</ele>
        <time>2026-08-08T13:45:56.561Z</time>
      </trkpt>
      <trkpt lat="49.97795" lon="4.66627">
        <ele>85.65</ele>
        <time>2026-08-08T13:46:02.598Z</time>
      </trkpt>
      <trkpt lat="49.97802" lon="4.66661">
        <ele>85.31</ele>
        <time>2026-08-08T13:46:08.610Z</time>
      </trkpt>
      <trkpt lat="49.9781" lon="4.66691">
        <ele>85.73</ele>
        <time>2026-08-08T13:46:14.612Z</time>
      </trkpt>
      <trkpt lat="49.97821" lon="4.66723">
        <ele>86.89</ele>
        <time>2026-08-08T13:46:20.612Z</time>
      </trkpt>
      <trkpt lat="49.9783" lon="4.66754">
        <ele>87.73</ele>
        <time>2026-08-08T13:46:26.593Z</time>
      </trkpt>
      <trkpt lat="49.97837" lon="4.66778">
        <ele>88.96</ele>
        <time>2026-08-08T13:46:32.608Z</time>
      </trkpt>
      <trkpt lat="49.97842" lon="4.66805">
        <ele>89.32</ele>
        <time>2026-08-08T13:46:38.608Z</time>
      </trkpt>
      <trkpt lat="49.97854" lon="4.66833">
        <ele>89.8</ele>
        <time>2026-08-08T13:46:44.611Z</time>
      </trkpt>
      <trkpt lat="49.97872" lon="4.66867">
        <ele>90.54</ele>
        <time>2026-08-08T13:46:50.611Z</time>
      </trkpt>
      <trkpt lat="49.97894" lon="4.66915">
        <ele>90.52</ele>
        <time>2026-08-08T13:46:56.587Z</time>
      </trkpt>
      <trkpt lat="49.97913" lon="4.6697">
        <ele>86.66</ele>
        <time>2026-08-08T13:47:02.612Z</time>
      </trkpt>
      <trkpt lat="49.97922" lon="4.67028">
        <ele>84.69</ele>
        <time>2026-08-08T13:47:08.611Z</time>
      </trkpt>
      <trkpt lat="49.97933" lon="4.67093">
        <ele>83.54</ele>
        <time>2026-08-08T13:47:14.613Z</time>
      </trkpt>
      <trkpt lat="49.97941" lon="4.67159">
        <ele>84.79</ele>
        <time>2026-08-08T13:47:20.609Z</time>
      </trkpt>
      <trkpt lat="49.97943" lon="4.67222">
        <ele>86.73</ele>
        <time>2026-08-08T13:47:26.636Z</time>
      </trkpt>
      <trkpt lat="49.9794" lon="4.6727">
        <ele>89.42</ele>
        <time>2026-08-08T13:47:32.621Z</time>
      </trkpt>
      <trkpt lat="49.97936" lon="4.67302">
        <ele>91.92</ele>
        <time>2026-08-08T13:47:38.617Z</time>
      </trkpt>
      <trkpt lat="49.97931" lon="4.67339">
        <ele>93.08</ele>
        <time>2026-08-08T13:47:44.610Z</time>
      </trkpt>
      <trkpt lat="49.97923" lon="4.67377">
        <ele>93.5</ele>
        <time>2026-08-08T13:47:50.614Z</time>
      </trkpt>
      <trkpt lat="49.97914" lon="4.67412">
        <ele>93.58</ele>
        <time>2026-08-08T13:47:56.634Z</time>
      </trkpt>
      <trkpt lat="49.97899" lon="4.67457">
        <ele>93.12</ele>
        <time>2026-08-08T13:48:02.569Z</time>
      </trkpt>
      <trkpt lat="49.97885" lon="4.67494">
        <ele>94.29</ele>
        <time>2026-08-08T13:48:07.569Z</time>
      </trkpt>
      <trkpt lat="49.97874" lon="4.6752">
        <ele>96.35</ele>
        <time>2026-08-08T13:48:13.569Z</time>
      </trkpt>
      <trkpt lat="49.97867" lon="4.67538">
        <ele>97.61</ele>
        <time>2026-08-08T13:48:18.570Z</time>
      </trkpt>
      <trkpt lat="49.97859" lon="4.67565">
        <ele>97.84</ele>
        <time>2026-08-08T13:48:24.579Z</time>
      </trkpt>
      <trkpt lat="49.97848" lon="4.67595">
        <ele>98.36</ele>
        <time>2026-08-08T13:48:30.571Z</time>
      </trkpt>
      <trkpt lat="49.97838" lon="4.67624">
        <ele>98.77</ele>
        <time>2026-08-08T13:48:36.563Z</time>
      </trkpt>
      <trkpt lat="49.97829" lon="4.6765">
        <ele>99.1</ele>
        <time>2026-08-08T13:48:41.570Z</time>
      </trkpt>
      <trkpt lat="49.97818" lon="4.67683">
        <ele>99.25</ele>
        <time>2026-08-08T13:48:47.573Z</time>
      </trkpt>
      <trkpt lat="49.97809" lon="4.67712">
        <ele>98.18</ele>
        <time>2026-08-08T13:48:53.571Z</time>
      </trkpt>
      <trkpt lat="49.97797" lon="4.67742">
        <ele>94.91</ele>
        <time>2026-08-08T13:48:59.566Z</time>
      </trkpt>
      <trkpt lat="49.97788" lon="4.67772">
        <ele>90.27</ele>
        <time>2026-08-08T13:49:04.577Z</time>
      </trkpt>
      <trkpt lat="49.97775" lon="4.67812">
        <ele>88.97</ele>
        <time>2026-08-08T13:49:10.570Z</time>
      </trkpt>
      <trkpt lat="49.97782" lon="4.67833">
        <ele>90.64</ele>
        <time>2026-08-08T13:49:15.572Z</time>
      </trkpt>
      <trkpt lat="49.97807" lon="4.67851">
        <ele>88.3</ele>
        <time>2026-08-08T13:49:20.611Z</time>
      </trkpt>
      <trkpt lat="49.97843" lon="4.67858">
        <ele>85.68</ele>
        <time>2026-08-08T13:49:26.634Z</time>
      </trkpt>
      <trkpt lat="49.97874" lon="4.67829">
        <ele>82.85</ele>
        <time>2026-08-08T13:49:32.574Z</time>
      </trkpt>
      <trkpt lat="49.97898" lon="4.67809">
        <ele>77.79</ele>
        <time>2026-08-08T13:49:38.611Z</time>
      </trkpt>
      <trkpt lat="49.97905" lon="4.67838">
        <ele>72.65</ele>
        <time>2026-08-08T13:49:44.613Z</time>
      </trkpt>
      <trkpt lat="49.97886" lon="4.67869">
        <ele>67.94</ele>
        <time>2026-08-08T13:49:50.612Z</time>
      </trkpt>
      <trkpt lat="49.97878" lon="4.67904">
        <ele>63.63</ele>
        <time>2026-08-08T13:49:56.630Z</time>
      </trkpt>
      <trkpt lat="49.97864" lon="4.67953">
        <ele>60.9</ele>
        <time>2026-08-08T13:50:02.586Z</time>
      </trkpt>
      <trkpt lat="49.97839" lon="4.67973">
        <ele>63.65</ele>
        <time>2026-08-08T13:50:08.614Z</time>
      </trkpt>
      <trkpt lat="49.97817" lon="4.68">
        <ele>72.23</ele>
        <time>2026-08-08T13:50:14.613Z</time>
      </trkpt>
      <trkpt lat="49.97802" lon="4.68029">
        <ele>78.3</ele>
        <time>2026-08-08T13:50:20.609Z</time>
      </trkpt>
      <trkpt lat="49.97791" lon="4.68059">
        <ele>82.79</ele>
        <time>2026-08-08T13:50:26.573Z</time>
      </trkpt>
      <trkpt lat="49.97784" lon="4.68085">
        <ele>84.76</ele>
        <time>2026-08-08T13:50:32.569Z</time>
      </trkpt>
      <trkpt lat="49.97777" lon="4.68135">
        <ele>83.32</ele>
        <time>2026-08-08T13:50:38.615Z</time>
      </trkpt>
      <trkpt lat="49.97777" lon="4.68192">
        <ele>83.76</ele>
        <time>2026-08-08T13:50:44.614Z</time>
      </trkpt>
      <trkpt lat="49.97783" lon="4.68252">
        <ele>83.12</ele>
        <time>2026-08-08T13:50:50.610Z</time>
      </trkpt>
      <trkpt lat="49.9779" lon="4.68294">
        <ele>83.95</ele>
        <time>2026-08-08T13:50:56.577Z</time>
      </trkpt>
      <trkpt lat="49.97794" lon="4.68327">
        <ele>84.21</ele>
        <time>2026-08-08T13:51:02.605Z</time>
      </trkpt>
      <trkpt lat="49.978" lon="4.68367">
        <ele>84.41</ele>
        <time>2026-08-08T13:51:08.618Z</time>
      </trkpt>
      <trkpt lat="49.97807" lon="4.68409">
        <ele>85.38</ele>
        <time>2026-08-08T13:51:14.610Z</time>
      </trkpt>
      <trkpt lat="49.97817" lon="4.68448">
        <ele>86.42</ele>
        <time>2026-08-08T13:51:20.618Z</time>
      </trkpt>
      <trkpt lat="49.97826" lon="4.68487">
        <ele>85.58</ele>
        <time>2026-08-08T13:51:26.635Z</time>
      </trkpt>
      <trkpt lat="49.97836" lon="4.68528">
        <ele>85.48</ele>
        <time>2026-08-08T13:51:32.579Z</time>
      </trkpt>
      <trkpt lat="49.97844" lon="4.68564">
        <ele>84.86</ele>
        <time>2026-08-08T13:51:38.641Z</time>
      </trkpt>
      <trkpt lat="49.97858" lon="4.68599">
        <ele>82.3</ele>
        <time>2026-08-08T13:51:44.618Z</time>
      </trkpt>
      <trkpt lat="49.97875" lon="4.6864">
        <ele>80.22</ele>
        <time>2026-08-08T13:51:50.619Z</time>
      </trkpt>
      <trkpt lat="49.97891" lon="4.68675">
        <ele>78.78</ele>
        <time>2026-08-08T13:51:56.638Z</time>
      </trkpt>
      <trkpt lat="49.97888" lon="4.68712">
        <ele>75.19</ele>
        <time>2026-08-08T13:52:02.618Z</time>
      </trkpt>
      <trkpt lat="49.97858" lon="4.6873">
        <ele>73.9</ele>
        <time>2026-08-08T13:52:08.614Z</time>
      </trkpt>
      <trkpt lat="49.97848" lon="4.68766">
        <ele>72.47</ele>
        <time>2026-08-08T13:52:14.616Z</time>
      </trkpt>
      <trkpt lat="49.97856" lon="4.68814">
        <ele>72.57</ele>
        <time>2026-08-08T13:52:20.615Z</time>
      </trkpt>
      <trkpt lat="49.97867" lon="4.68868">
        <ele>72.97</ele>
        <time>2026-08-08T13:52:26.635Z</time>
      </trkpt>
      <trkpt lat="49.97877" lon="4.68919">
        <ele>75.66</ele>
        <time>2026-08-08T13:52:32.600Z</time>
      </trkpt>
      <trkpt lat="49.9789" lon="4.68967">
        <ele>76.53</ele>
        <time>2026-08-08T13:52:38.618Z</time>
      </trkpt>
      <trkpt lat="49.97908" lon="4.69008">
        <ele>75.89</ele>
        <time>2026-08-08T13:52:44.615Z</time>
      </trkpt>
      <trkpt lat="49.97931" lon="4.69039">
        <ele>77.33</ele>
        <time>2026-08-08T13:52:50.616Z</time>
      </trkpt>
      <trkpt lat="49.97958" lon="4.69068">
        <ele>77.12</ele>
        <time>2026-08-08T13:52:56.633Z</time>
      </trkpt>
      <trkpt lat="49.97986" lon="4.69092">
        <ele>76.83</ele>
        <time>2026-08-08T13:53:02.597Z</time>
      </trkpt>
      <trkpt lat="49.98014" lon="4.6911">
        <ele>76.45</ele>
        <time>2026-08-08T13:53:08.613Z</time>
      </trkpt>
      <trkpt lat="49.98041" lon="4.69118">
        <ele>76.19</ele>
        <time>2026-08-08T13:53:14.617Z</time>
      </trkpt>
      <trkpt lat="49.98066" lon="4.69127">
        <ele>77.06</ele>
        <time>2026-08-08T13:53:20.615Z</time>
      </trkpt>
      <trkpt lat="49.98091" lon="4.69136">
        <ele>77.44</ele>
        <time>2026-08-08T13:53:26.634Z</time>
      </trkpt>
      <trkpt lat="49.98116" lon="4.69147">
        <ele>77.19</ele>
        <time>2026-08-08T13:53:32.566Z</time>
      </trkpt>
      <trkpt lat="49.98138" lon="4.69158">
        <ele>77.18</ele>
        <time>2026-08-08T13:53:37.566Z</time>
      </trkpt>
      <trkpt lat="49.9816" lon="4.6917">
        <ele>76.52</ele>
        <time>2026-08-08T13:53:42.568Z</time>
      </trkpt>
      <trkpt lat="49.98181" lon="4.69182">
        <ele>75.84</ele>
        <time>2026-08-08T13:53:47.573Z</time>
      </trkpt>
      <trkpt lat="49.98208" lon="4.69196">
        <ele>75.45</ele>
        <time>2026-08-08T13:53:53.570Z</time>
      </trkpt>
      <trkpt lat="49.98236" lon="4.69215">
        <ele>74.47</ele>
        <time>2026-08-08T13:53:59.567Z</time>
      </trkpt>
      <trkpt lat="49.98261" lon="4.69229">
        <ele>73.22</ele>
        <time>2026-08-08T13:54:04.567Z</time>
      </trkpt>
      <trkpt lat="49.98286" lon="4.69243">
        <ele>73.28</ele>
        <time>2026-08-08T13:54:09.569Z</time>
      </trkpt>
      <trkpt lat="49.98312" lon="4.69256">
        <ele>72.84</ele>
        <time>2026-08-08T13:54:14.616Z</time>
      </trkpt>
      <trkpt lat="49.98342" lon="4.6927">
        <ele>71.39</ele>
        <time>2026-08-08T13:54:20.616Z</time>
      </trkpt>
      <trkpt lat="49.98369" lon="4.69285">
        <ele>70.94</ele>
        <time>2026-08-08T13:54:26.635Z</time>
      </trkpt>
      <trkpt lat="49.98397" lon="4.69301">
        <ele>72.15</ele>
        <time>2026-08-08T13:54:32.632Z</time>
      </trkpt>
      <trkpt lat="49.98425" lon="4.69316">
        <ele>73.63</ele>
        <time>2026-08-08T13:54:38.617Z</time>
      </trkpt>
      <trkpt lat="49.98454" lon="4.6933">
        <ele>74.45</ele>
        <time>2026-08-08T13:54:44.615Z</time>
      </trkpt>
      <trkpt lat="49.98482" lon="4.69344">
        <ele>75.32</ele>
        <time>2026-08-08T13:54:50.619Z</time>
      </trkpt>
      <trkpt lat="49.98511" lon="4.6936">
        <ele>74.82</ele>
        <time>2026-08-08T13:54:56.634Z</time>
      </trkpt>
      <trkpt lat="49.98539" lon="4.69374">
        <ele>74.47</ele>
        <time>2026-08-08T13:55:02.567Z</time>
      </trkpt>
      <trkpt lat="49.98569" lon="4.69388">
        <ele>75.2</ele>
        <time>2026-08-08T13:55:08.617Z</time>
      </trkpt>
      <trkpt lat="49.98598" lon="4.69402">
        <ele>75.87</ele>
        <time>2026-08-08T13:55:14.615Z</time>
      </trkpt>
      <trkpt lat="49.98625" lon="4.69417">
        <ele>76.4</ele>
        <time>2026-08-08T13:55:20.613Z</time>
      </trkpt>
      <trkpt lat="49.98654" lon="4.6943">
        <ele>76.77</ele>
        <time>2026-08-08T13:55:26.577Z</time>
      </trkpt>
      <trkpt lat="49.98678" lon="4.69442">
        <ele>76.27</ele>
        <time>2026-08-08T13:55:32.573Z</time>
      </trkpt>
      <trkpt lat="49.98704" lon="4.69457">
        <ele>75.64</ele>
        <time>2026-08-08T13:55:38.616Z</time>
      </trkpt>
      <trkpt lat="49.98734" lon="4.69477">
        <ele>77.1</ele>
        <time>2026-08-08T13:55:44.612Z</time>
      </trkpt>
      <trkpt lat="49.98763" lon="4.69495">
        <ele>77.99</ele>
        <time>2026-08-08T13:55:50.616Z</time>
      </trkpt>
      <trkpt lat="49.98791" lon="4.69513">
        <ele>77.89</ele>
        <time>2026-08-08T13:55:56.614Z</time>
      </trkpt>
      <trkpt lat="49.98819" lon="4.69529">
        <ele>78.38</ele>
        <time>2026-08-08T13:56:02.569Z</time>
      </trkpt>
      <trkpt lat="49.98846" lon="4.69545">
        <ele>78.48</ele>
        <time>2026-08-08T13:56:08.616Z</time>
      </trkpt>
      <trkpt lat="49.98875" lon="4.69563">
        <ele>78.56</ele>
        <time>2026-08-08T13:56:14.616Z</time>
      </trkpt>
      <trkpt lat="49.989" lon="4.69584">
        <ele>79.18</ele>
        <time>2026-08-08T13:56:20.616Z</time>
      </trkpt>
      <trkpt lat="49.98926" lon="4.69614">
        <ele>79.47</ele>
        <time>2026-08-08T13:56:26.585Z</time>
      </trkpt>
      <trkpt lat="49.98947" lon="4.69653">
        <ele>79.01</ele>
        <time>2026-08-08T13:56:32.618Z</time>
      </trkpt>
      <trkpt lat="49.98961" lon="4.69697">
        <ele>78.73</ele>
        <time>2026-08-08T13:56:38.615Z</time>
      </trkpt>
      <trkpt lat="49.98975" lon="4.69744">
        <ele>76.03</ele>
        <time>2026-08-08T13:56:44.616Z</time>
      </trkpt>
      <trkpt lat="49.9898" lon="4.69791">
        <ele>74.94</ele>
        <time>2026-08-08T13:56:50.615Z</time>
      </trkpt>
      <trkpt lat="49.98982" lon="4.69843">
        <ele>75.64</ele>
        <time>2026-08-08T13:56:56.613Z</time>
      </trkpt>
      <trkpt lat="49.98982" lon="4.69893">
        <ele>76.09</ele>
        <time>2026-08-08T13:57:02.595Z</time>
      </trkpt>
      <trkpt lat="49.98978" lon="4.69939">
        <ele>76.58</ele>
        <time>2026-08-08T13:57:08.618Z</time>
      </trkpt>
      <trkpt lat="49.98968" lon="4.69991">
        <ele>76.87</ele>
        <time>2026-08-08T13:57:14.615Z</time>
      </trkpt>
      <trkpt lat="49.98959" lon="4.70042">
        <ele>78.9</ele>
        <time>2026-08-08T13:57:20.624Z</time>
      </trkpt>
      <trkpt lat="49.98949" lon="4.70092">
        <ele>80.44</ele>
        <time>2026-08-08T13:57:26.633Z</time>
      </trkpt>
      <trkpt lat="49.98937" lon="4.70143">
        <ele>80.79</ele>
        <time>2026-08-08T13:57:32.566Z</time>
      </trkpt>
      <trkpt lat="49.98926" lon="4.70183">
        <ele>81.56</ele>
        <time>2026-08-08T13:57:37.571Z</time>
      </trkpt>
      <trkpt lat="49.98907" lon="4.70229">
        <ele>81.2</ele>
        <time>2026-08-08T13:57:43.569Z</time>
      </trkpt>
      <trkpt lat="49.98887" lon="4.70264">
        <ele>81.4</ele>
        <time>2026-08-08T13:57:48.569Z</time>
      </trkpt>
      <trkpt lat="49.9886" lon="4.703">
        <ele>81.28</ele>
        <time>2026-08-08T13:57:54.568Z</time>
      </trkpt>
      <trkpt lat="49.98833" lon="4.70324">
        <ele>81.68</ele>
        <time>2026-08-08T13:57:59.573Z</time>
      </trkpt>
      <trkpt lat="49.98798" lon="4.70343">
        <ele>82.07</ele>
        <time>2026-08-08T13:58:05.571Z</time>
      </trkpt>
      <trkpt lat="49.98761" lon="4.70355">
        <ele>81.02</ele>
        <time>2026-08-08T13:58:11.569Z</time>
      </trkpt>
      <trkpt lat="49.98726" lon="4.70363">
        <ele>79.94</ele>
        <time>2026-08-08T13:58:17.566Z</time>
      </trkpt>
      <trkpt lat="49.98689" lon="4.70368">
        <ele>79.44</ele>
        <time>2026-08-08T13:58:23.571Z</time>
      </trkpt>
      <trkpt lat="49.98659" lon="4.70376">
        <ele>78.66</ele>
        <time>2026-08-08T13:58:28.571Z</time>
      </trkpt>
      <trkpt lat="49.98624" lon="4.70388">
        <ele>77.05</ele>
        <time>2026-08-08T13:58:34.564Z</time>
      </trkpt>
      <trkpt lat="49.98594" lon="4.70398">
        <ele>77.48</ele>
        <time>2026-08-08T13:58:39.568Z</time>
      </trkpt>
      <trkpt lat="49.98564" lon="4.7041">
        <ele>79.28</ele>
        <time>2026-08-08T13:58:44.623Z</time>
      </trkpt>
      <trkpt lat="49.9853" lon="4.70435">
        <ele>82.25</ele>
        <time>2026-08-08T13:58:50.623Z</time>
      </trkpt>
      <trkpt lat="49.98494" lon="4.70442">
        <ele>83.99</ele>
        <time>2026-08-08T13:58:56.608Z</time>
      </trkpt>
      <trkpt lat="49.98462" lon="4.70436">
        <ele>82.01</ele>
        <time>2026-08-08T13:59:02.623Z</time>
      </trkpt>
      <trkpt lat="49.98435" lon="4.70434">
        <ele>80.84</ele>
        <time>2026-08-08T13:59:08.624Z</time>
      </trkpt>
      <trkpt lat="49.98398" lon="4.70434">
        <ele>80.72</ele>
        <time>2026-08-08T13:59:14.617Z</time>
      </trkpt>
      <trkpt lat="49.98363" lon="4.70447">
        <ele>78.66</ele>
        <time>2026-08-08T13:59:20.620Z</time>
      </trkpt>
      <trkpt lat="49.98332" lon="4.70476">
        <ele>77.25</ele>
        <time>2026-08-08T13:59:26.623Z</time>
      </trkpt>
      <trkpt lat="49.98305" lon="4.70513">
        <ele>75.25</ele>
        <time>2026-08-08T13:59:32.622Z</time>
      </trkpt>
      <trkpt lat="49.98282" lon="4.70558">
        <ele>74.67</ele>
        <time>2026-08-08T13:59:38.567Z</time>
      </trkpt>
      <trkpt lat="49.98267" lon="4.70597">
        <ele>74.54</ele>
        <time>2026-08-08T13:59:43.568Z</time>
      </trkpt>
      <trkpt lat="49.98258" lon="4.70636">
        <ele>74.19</ele>
        <time>2026-08-08T13:59:48.571Z</time>
      </trkpt>
      <trkpt lat="49.98252" lon="4.70677">
        <ele>74.92</ele>
        <time>2026-08-08T13:59:53.571Z</time>
      </trkpt>
      <trkpt lat="49.9825" lon="4.70723">
        <ele>74.87</ele>
        <time>2026-08-08T13:59:59.572Z</time>
      </trkpt>
      <trkpt lat="49.98253" lon="4.70763">
        <ele>76.17</ele>
        <time>2026-08-08T14:00:05.572Z</time>
      </trkpt>
      <trkpt lat="49.98259" lon="4.70803">
        <ele>78.28</ele>
        <time>2026-08-08T14:00:11.570Z</time>
      </trkpt>
      <trkpt lat="49.98264" lon="4.70834">
        <ele>78.86</ele>
        <time>2026-08-08T14:00:16.573Z</time>
      </trkpt>
      <trkpt lat="49.98271" lon="4.70866">
        <ele>79.44</ele>
        <time>2026-08-08T14:00:22.568Z</time>
      </trkpt>
      <trkpt lat="49.98276" lon="4.70886">
        <ele>78.92</ele>
        <time>2026-08-08T14:00:27.576Z</time>
      </trkpt>
      <trkpt lat="49.98284" lon="4.70909">
        <ele>79.43</ele>
        <time>2026-08-08T14:00:32.591Z</time>
      </trkpt>
      <trkpt lat="49.98294" lon="4.70939">
        <ele>78.49</ele>
        <time>2026-08-08T14:00:38.571Z</time>
      </trkpt>
      <trkpt lat="49.98303" lon="4.70956">
        <ele>78.04</ele>
        <time>2026-08-08T14:00:43.618Z</time>
      </trkpt>
      <trkpt lat="49.98308" lon="4.7097">
        <ele>78.74</ele>
        <time>2026-08-08T14:02:24.561Z</time>
      </trkpt>
      <trkpt lat="49.98315" lon="4.7099">
        <ele>78.4</ele>
        <time>2026-08-08T14:02:29.564Z</time>
      </trkpt>
      <trkpt lat="49.98325" lon="4.71011">
        <ele>78.48</ele>
        <time>2026-08-08T14:02:34.570Z</time>
      </trkpt>
      <trkpt lat="49.98335" lon="4.71033">
        <ele>77.54</ele>
        <time>2026-08-08T14:02:39.573Z</time>
      </trkpt>
      <trkpt lat="49.98346" lon="4.71058">
        <ele>76.05</ele>
        <time>2026-08-08T14:02:44.594Z</time>
      </trkpt>
      <trkpt lat="49.98362" lon="4.71091">
        <ele>75.07</ele>
        <time>2026-08-08T14:02:50.595Z</time>
      </trkpt>
      <trkpt lat="49.98378" lon="4.71123">
        <ele>73.15</ele>
        <time>2026-08-08T14:02:56.636Z</time>
      </trkpt>
      <trkpt lat="49.98397" lon="4.71155">
        <ele>72.27</ele>
        <time>2026-08-08T14:03:02.629Z</time>
      </trkpt>
      <trkpt lat="49.98417" lon="4.71184">
        <ele>72.13</ele>
        <time>2026-08-08T14:03:08.598Z</time>
      </trkpt>
      <trkpt lat="49.9844" lon="4.71214">
        <ele>71.56</ele>
        <time>2026-08-08T14:03:14.601Z</time>
      </trkpt>
      <trkpt lat="49.98463" lon="4.71237">
        <ele>71.58</ele>
        <time>2026-08-08T14:03:20.598Z</time>
      </trkpt>
      <trkpt lat="49.98488" lon="4.7124">
        <ele>73.11</ele>
        <time>2026-08-08T14:03:26.593Z</time>
      </trkpt>
      <trkpt lat="49.98511" lon="4.71249">
        <ele>74.1</ele>
        <time>2026-08-08T14:03:32.633Z</time>
      </trkpt>
      <trkpt lat="49.98531" lon="4.71277">
        <ele>72.17</ele>
        <time>2026-08-08T14:03:38.602Z</time>
      </trkpt>
      <trkpt lat="49.98555" lon="4.713">
        <ele>72.24</ele>
        <time>2026-08-08T14:03:44.600Z</time>
      </trkpt>
      <trkpt lat="49.98581" lon="4.71316">
        <ele>71.84</ele>
        <time>2026-08-08T14:03:50.609Z</time>
      </trkpt>
      <trkpt lat="49.98606" lon="4.71332">
        <ele>71.6</ele>
        <time>2026-08-08T14:03:56.635Z</time>
      </trkpt>
      <trkpt lat="49.98632" lon="4.71346">
        <ele>71.7</ele>
        <time>2026-08-08T14:04:02.629Z</time>
      </trkpt>
      <trkpt lat="49.98657" lon="4.71362">
        <ele>71.67</ele>
        <time>2026-08-08T14:04:08.596Z</time>
      </trkpt>
      <trkpt lat="49.98683" lon="4.71378">
        <ele>71.61</ele>
        <time>2026-08-08T14:04:14.599Z</time>
      </trkpt>
      <trkpt lat="49.98709" lon="4.71396">
        <ele>71.44</ele>
        <time>2026-08-08T14:04:20.608Z</time>
      </trkpt>
      <trkpt lat="49.98737" lon="4.71411">
        <ele>70.43</ele>
        <time>2026-08-08T14:04:26.630Z</time>
      </trkpt>
      <trkpt lat="49.98765" lon="4.71424">
        <ele>70.03</ele>
        <time>2026-08-08T14:04:32.629Z</time>
      </trkpt>
      <trkpt lat="49.98793" lon="4.71435">
        <ele>70.39</ele>
        <time>2026-08-08T14:04:38.607Z</time>
      </trkpt>
      <trkpt lat="49.98819" lon="4.71447">
        <ele>71.16</ele>
        <time>2026-08-08T14:04:44.606Z</time>
      </trkpt>
      <trkpt lat="49.98845" lon="4.71457">
        <ele>71.78</ele>
        <time>2026-08-08T14:04:50.614Z</time>
      </trkpt>
      <trkpt lat="49.98872" lon="4.71469">
        <ele>71.79</ele>
        <time>2026-08-08T14:04:56.632Z</time>
      </trkpt>
      <trkpt lat="49.98901" lon="4.71477">
        <ele>72.44</ele>
        <time>2026-08-08T14:05:02.628Z</time>
      </trkpt>
      <trkpt lat="49.98927" lon="4.71484">
        <ele>75.3</ele>
        <time>2026-08-08T14:05:08.609Z</time>
      </trkpt>
      <trkpt lat="49.98955" lon="4.71492">
        <ele>75.65</ele>
        <time>2026-08-08T14:05:14.611Z</time>
      </trkpt>
      <trkpt lat="49.98984" lon="4.715">
        <ele>75.98</ele>
        <time>2026-08-08T14:05:20.612Z</time>
      </trkpt>
      <trkpt lat="49.99015" lon="4.71512">
        <ele>75.84</ele>
        <time>2026-08-08T14:05:26.633Z</time>
      </trkpt>
      <trkpt lat="49.99046" lon="4.71521">
        <ele>75.51</ele>
        <time>2026-08-08T14:05:32.625Z</time>
      </trkpt>
      <trkpt lat="49.99077" lon="4.71528">
        <ele>74.62</ele>
        <time>2026-08-08T14:05:38.611Z</time>
      </trkpt>
      <trkpt lat="49.99106" lon="4.71533">
        <ele>75.34</ele>
        <time>2026-08-08T14:05:44.613Z</time>
      </trkpt>
      <trkpt lat="49.99136" lon="4.71536">
        <ele>76.56</ele>
        <time>2026-08-08T14:05:50.617Z</time>
      </trkpt>
      <trkpt lat="49.99165" lon="4.71538">
        <ele>76.87</ele>
        <time>2026-08-08T14:05:56.636Z</time>
      </trkpt>
      <trkpt lat="49.99195" lon="4.7154">
        <ele>76.48</ele>
        <time>2026-08-08T14:06:02.625Z</time>
      </trkpt>
      <trkpt lat="49.99225" lon="4.7154">
        <ele>76.43</ele>
        <time>2026-08-08T14:06:08.614Z</time>
      </trkpt>
      <trkpt lat="49.99256" lon="4.71539">
        <ele>75.24</ele>
        <time>2026-08-08T14:06:14.618Z</time>
      </trkpt>
      <trkpt lat="49.99284" lon="4.71533">
        <ele>74.94</ele>
        <time>2026-08-08T14:06:20.615Z</time>
      </trkpt>
      <trkpt lat="49.99311" lon="4.71525">
        <ele>74.74</ele>
        <time>2026-08-08T14:06:26.641Z</time>
      </trkpt>
      <trkpt lat="49.99337" lon="4.71514">
        <ele>73.77</ele>
        <time>2026-08-08T14:06:32.615Z</time>
      </trkpt>
      <trkpt lat="49.99365" lon="4.71496">
        <ele>73.01</ele>
        <time>2026-08-08T14:06:38.613Z</time>
      </trkpt>
      <trkpt lat="49.99392" lon="4.7148">
        <ele>74.38</ele>
        <time>2026-08-08T14:06:44.615Z</time>
      </trkpt>
      <trkpt lat="49.99419" lon="4.71459">
        <ele>75.97</ele>
        <time>2026-08-08T14:06:50.611Z</time>
      </trkpt>
      <trkpt lat="49.99445" lon="4.71435">
        <ele>77.03</ele>
        <time>2026-08-08T14:06:56.637Z</time>
      </trkpt>
      <trkpt lat="49.99471" lon="4.7141">
        <ele>77.83</ele>
        <time>2026-08-08T14:07:02.636Z</time>
      </trkpt>
      <trkpt lat="49.99499" lon="4.71385">
        <ele>77.58</ele>
        <time>2026-08-08T14:07:08.612Z</time>
      </trkpt>
      <trkpt lat="49.99526" lon="4.71363">
        <ele>76.89</ele>
        <time>2026-08-08T14:07:14.610Z</time>
      </trkpt>
      <trkpt lat="49.99551" lon="4.71341">
        <ele>75.11</ele>
        <time>2026-08-08T14:07:20.612Z</time>
      </trkpt>
      <trkpt lat="49.99576" lon="4.71318">
        <ele>75.07</ele>
        <time>2026-08-08T14:07:26.634Z</time>
      </trkpt>
      <trkpt lat="49.99603" lon="4.71292">
        <ele>74.64</ele>
        <time>2026-08-08T14:07:32.629Z</time>
      </trkpt>
      <trkpt lat="49.99628" lon="4.71268">
        <ele>74.3</ele>
        <time>2026-08-08T14:07:38.610Z</time>
      </trkpt>
      <trkpt lat="49.99653" lon="4.71242">
        <ele>75.12</ele>
        <time>2026-08-08T14:07:44.615Z</time>
      </trkpt>
      <trkpt lat="49.99676" lon="4.71211">
        <ele>75.71</ele>
        <time>2026-08-08T14:07:50.608Z</time>
      </trkpt>
      <trkpt lat="49.99696" lon="4.71179">
        <ele>76.57</ele>
        <time>2026-08-08T14:07:56.627Z</time>
      </trkpt>
      <trkpt lat="49.99714" lon="4.71146">
        <ele>76.87</ele>
        <time>2026-08-08T14:08:02.625Z</time>
      </trkpt>
      <trkpt lat="49.99728" lon="4.71109">
        <ele>76.85</ele>
        <time>2026-08-08T14:08:08.612Z</time>
      </trkpt>
      <trkpt lat="49.99739" lon="4.71068">
        <ele>77.06</ele>
        <time>2026-08-08T14:08:14.612Z</time>
      </trkpt>
      <trkpt lat="49.99744" lon="4.71021">
        <ele>76.61</ele>
        <time>2026-08-08T14:08:20.611Z</time>
      </trkpt>
      <trkpt lat="49.99745" lon="4.70973">
        <ele>76.5</ele>
        <time>2026-08-08T14:08:26.627Z</time>
      </trkpt>
      <trkpt lat="49.99738" lon="4.70924">
        <ele>76.65</ele>
        <time>2026-08-08T14:08:32.627Z</time>
      </trkpt>
      <trkpt lat="49.99723" lon="4.70881">
        <ele>75.74</ele>
        <time>2026-08-08T14:08:38.606Z</time>
      </trkpt>
      <trkpt lat="49.99702" lon="4.70842">
        <ele>74.81</ele>
        <time>2026-08-08T14:08:44.612Z</time>
      </trkpt>
      <trkpt lat="49.99677" lon="4.70808">
        <ele>74.28</ele>
        <time>2026-08-08T14:08:50.610Z</time>
      </trkpt>
      <trkpt lat="49.99652" lon="4.70779">
        <ele>73.77</ele>
        <time>2026-08-08T14:08:56.579Z</time>
      </trkpt>
      <trkpt lat="49.99628" lon="4.70755">
        <ele>74.24</ele>
        <time>2026-08-08T14:09:02.627Z</time>
      </trkpt>
      <trkpt lat="49.99603" lon="4.70733">
        <ele>72.09</ele>
        <time>2026-08-08T14:09:08.611Z</time>
      </trkpt>
      <trkpt lat="49.99582" lon="4.70706">
        <ele>71.03</ele>
        <time>2026-08-08T14:09:14.615Z</time>
      </trkpt>
      <trkpt lat="49.99563" lon="4.70683">
        <ele>71.02</ele>
        <time>2026-08-08T14:09:20.617Z</time>
      </trkpt>
      <trkpt lat="49.99543" lon="4.70661">
        <ele>73.06</ele>
        <time>2026-08-08T14:09:26.626Z</time>
      </trkpt>
      <trkpt lat="49.99524" lon="4.70642">
        <ele>74.1</ele>
        <time>2026-08-08T14:09:32.614Z</time>
      </trkpt>
      <trkpt lat="49.99508" lon="4.70622">
        <ele>75.03</ele>
        <time>2026-08-08T14:09:38.623Z</time>
      </trkpt>
      <trkpt lat="49.99493" lon="4.70604">
        <ele>76.2</ele>
        <time>2026-08-08T14:09:44.619Z</time>
      </trkpt>
      <trkpt lat="49.9948" lon="4.70585">
        <ele>77.55</ele>
        <time>2026-08-08T14:09:50.616Z</time>
      </trkpt>
      <trkpt lat="49.99472" lon="4.70594">
        <ele>76.83</ele>
        <time>2026-08-08T14:10:00.570Z</time>
      </trkpt>
      <trkpt lat="49.99466" lon="4.70604">
        <ele>76.93</ele>
        <time>2026-08-08T14:10:05.571Z</time>
      </trkpt>
      <trkpt lat="49.99457" lon="4.70611">
        <ele>78.13</ele>
        <time>2026-08-08T14:10:11.575Z</time>
      </trkpt>
      <trkpt lat="49.99447" lon="4.70622">
        <ele>79.77</ele>
        <time>2026-08-08T14:10:17.576Z</time>
      </trkpt>
      <trkpt lat="49.99435" lon="4.7063">
        <ele>82.16</ele>
        <time>2026-08-08T14:10:23.566Z</time>
      </trkpt>
      <trkpt lat="49.99426" lon="4.70637">
        <ele>83.25</ele>
        <time>2026-08-08T14:10:29.566Z</time>
      </trkpt>
      <trkpt lat="49.99417" lon="4.70644">
        <ele>84.25</ele>
        <time>2026-08-08T14:10:35.571Z</time>
      </trkpt>
      <trkpt lat="49.99407" lon="4.70651">
        <ele>85.72</ele>
        <time>2026-08-08T14:10:41.570Z</time>
      </trkpt>
      <trkpt lat="49.99397" lon="4.70656">
        <ele>88.66</ele>
        <time>2026-08-08T14:10:47.569Z</time>
      </trkpt>
      <trkpt lat="49.99387" lon="4.7066">
        <ele>90.56</ele>
        <time>2026-08-08T14:10:53.566Z</time>
      </trkpt>
      <trkpt lat="49.99378" lon="4.70652">
        <ele>91.45</ele>
        <time>2026-08-08T14:10:59.573Z</time>
      </trkpt>
      <trkpt lat="49.99367" lon="4.70639">
        <ele>91.59</ele>
        <time>2026-08-08T14:11:05.568Z</time>
      </trkpt>
      <trkpt lat="49.99357" lon="4.70631">
        <ele>90.62</ele>
        <time>2026-08-08T14:11:10.568Z</time>
      </trkpt>
      <trkpt lat="49.9935" lon="4.7062">
        <ele>90.49</ele>
        <time>2026-08-08T14:11:15.573Z</time>
      </trkpt>
      <trkpt lat="49.99341" lon="4.70616">
        <ele>89.11</ele>
        <time>2026-08-08T14:11:22.571Z</time>
      </trkpt>
      <trkpt lat="49.99333" lon="4.70623">
        <ele>88.08</ele>
        <time>2026-08-08T14:11:30.570Z</time>
      </trkpt>
      <trkpt lat="49.99324" lon="4.70634">
        <ele>88.31</ele>
        <time>2026-08-08T14:11:36.569Z</time>
      </trkpt>
      <trkpt lat="49.99318" lon="4.70648">
        <ele>87.02</ele>
        <time>2026-08-08T14:11:42.570Z</time>
      </trkpt>
      <trkpt lat="49.99317" lon="4.70662">
        <ele>86.41</ele>
        <time>2026-08-08T14:11:48.571Z</time>
      </trkpt>
      <trkpt lat="49.99319" lon="4.70676">
        <ele>86.46</ele>
        <time>2026-08-08T14:11:53.572Z</time>
      </trkpt>
      <trkpt lat="49.99324" lon="4.70691">
        <ele>87.61</ele>
        <time>2026-08-08T14:11:59.569Z</time>
      </trkpt>
      <trkpt lat="49.99328" lon="4.70704">
        <ele>87.31</ele>
        <time>2026-08-08T14:12:07.564Z</time>
      </trkpt>
      <trkpt lat="49.99331" lon="4.70719">
        <ele>88.18</ele>
        <time>2026-08-08T14:12:15.574Z</time>
      </trkpt>
      <trkpt lat="49.99332" lon="4.70734">
        <ele>90.34</ele>
        <time>2026-08-08T14:12:21.571Z</time>
      </trkpt>
      <trkpt lat="49.99338" lon="4.70744">
        <ele>92.73</ele>
        <time>2026-08-08T14:12:28.573Z</time>
      </trkpt>
      <trkpt lat="49.99347" lon="4.70742">
        <ele>93.9</ele>
        <time>2026-08-08T14:12:35.575Z</time>
      </trkpt>
      <trkpt lat="49.99357" lon="4.70742">
        <ele>95.86</ele>
        <time>2026-08-08T14:12:41.567Z</time>
      </trkpt>
      <trkpt lat="49.99348" lon="4.70748">
        <ele>97.07</ele>
        <time>2026-08-08T14:13:24.404Z</time>
      </trkpt>
      <trkpt lat="49.99339" lon="4.70742">
        <ele>96.96</ele>
        <time>2026-08-08T14:13:37.583Z</time>
      </trkpt>
      <trkpt lat="49.99333" lon="4.70732">
        <ele>97.43</ele>
        <time>2026-08-08T14:14:05.216Z</time>
      </trkpt>
      <trkpt lat="49.9934" lon="4.70741">
        <ele>96.97</ele>
        <time>2026-08-08T14:14:25.125Z</time>
      </trkpt>
      <trkpt lat="49.99349" lon="4.70743">
        <ele>94.87</ele>
        <time>2026-08-08T14:14:34.571Z</time>
      </trkpt>
      <trkpt lat="49.99361" lon="4.70751">
        <ele>95.87</ele>
        <time>2026-08-08T14:23:30.559Z</time>
      </trkpt>
      <trkpt lat="49.99365" lon="4.70739">
        <ele>134.27</ele>
        <time>2026-08-08T14:29:14.622Z</time>
      </trkpt>
      <trkpt lat="49.99357" lon="4.70746">
        <ele>134.27</ele>
        <time>2026-08-08T14:39:51.568Z</time>
      </trkpt>
      <trkpt lat="49.99348" lon="4.70744">
        <ele>134.67</ele>
        <time>2026-08-08T14:46:07.448Z</time>
      </trkpt>
      <trkpt lat="49.99339" lon="4.70736">
        <ele>134.27</ele>
        <time>2026-08-08T14:46:13.783Z</time>
      </trkpt>
      <trkpt lat="49.9933" lon="4.70719">
        <ele>134.27</ele>
        <time>2026-08-08T14:46:19.574Z</time>
      </trkpt>
      <trkpt lat="49.99323" lon="4.70691">
        <ele>134.27</ele>
        <time>2026-08-08T14:46:24.574Z</time>
      </trkpt>
      <trkpt lat="49.99319" lon="4.70654">
        <ele>134.27</ele>
        <time>2026-08-08T14:46:30.573Z</time>
      </trkpt>
      <trkpt lat="49.99327" lon="4.70628">
        <ele>129.02</ele>
        <time>2026-08-08T14:46:35.574Z</time>
      </trkpt>
      <trkpt lat="49.99332" lon="4.706">
        <ele>128.67</ele>
        <time>2026-08-08T14:46:41.573Z</time>
      </trkpt>
      <trkpt lat="49.99322" lon="4.70583">
        <ele>128.67</ele>
        <time>2026-08-08T14:46:47.553Z</time>
      </trkpt>
      <trkpt lat="49.99313" lon="4.70569">
        <ele>128.67</ele>
        <time>2026-08-08T14:46:52.576Z</time>
      </trkpt>
      <trkpt lat="49.99309" lon="4.70547">
        <ele>127.54</ele>
        <time>2026-08-08T14:46:58.571Z</time>
      </trkpt>
      <trkpt lat="49.9932" lon="4.70525">
        <ele>127.47</ele>
        <time>2026-08-08T14:47:03.573Z</time>
      </trkpt>
      <trkpt lat="49.99346" lon="4.70504">
        <ele>127.47</ele>
        <time>2026-08-08T14:47:08.600Z</time>
      </trkpt>
      <trkpt lat="49.99381" lon="4.70465">
        <ele>124.47</ele>
        <time>2026-08-08T14:47:14.618Z</time>
      </trkpt>
      <trkpt lat="49.9939" lon="4.70438">
        <ele>124.27</ele>
        <time>2026-08-08T14:47:20.615Z</time>
      </trkpt>
      <trkpt lat="49.99381" lon="4.70428">
        <ele>124.27</ele>
        <time>2026-08-08T14:47:28.568Z</time>
      </trkpt>
      <trkpt lat="49.99384" lon="4.70414">
        <ele>124.27</ele>
        <time>2026-08-08T14:47:34.568Z</time>
      </trkpt>
      <trkpt lat="49.99392" lon="4.70403">
        <ele>124.27</ele>
        <time>2026-08-08T14:47:39.580Z</time>
      </trkpt>
      <trkpt lat="49.99403" lon="4.70393">
        <ele>124.27</ele>
        <time>2026-08-08T14:47:44.613Z</time>
      </trkpt>
      <trkpt lat="49.99419" lon="4.70374">
        <ele>119.35</ele>
        <time>2026-08-08T14:47:50.714Z</time>
      </trkpt>
      <trkpt lat="49.99433" lon="4.70359">
        <ele>119.27</ele>
        <time>2026-08-08T14:47:56.610Z</time>
      </trkpt>
      <trkpt lat="49.9945" lon="4.70345">
        <ele>119.27</ele>
        <time>2026-08-08T14:48:02.628Z</time>
      </trkpt>
      <trkpt lat="49.99469" lon="4.70333">
        <ele>119.27</ele>
        <time>2026-08-08T14:48:08.597Z</time>
      </trkpt>
      <trkpt lat="49.9948" lon="4.70305">
        <ele>119.27</ele>
        <time>2026-08-08T14:48:14.601Z</time>
      </trkpt>
      <trkpt lat="49.99487" lon="4.70287">
        <ele>123.3</ele>
        <time>2026-08-08T14:48:20.604Z</time>
      </trkpt>
      <trkpt lat="49.99487" lon="4.70309">
        <ele>123.57</ele>
        <time>2026-08-08T14:48:26.605Z</time>
      </trkpt>
      <trkpt lat="49.99486" lon="4.70358">
        <ele>123.57</ele>
        <time>2026-08-08T14:48:32.596Z</time>
      </trkpt>
      <trkpt lat="49.99465" lon="4.70349">
        <ele>147.05</ele>
        <time>2026-08-08T14:48:38.592Z</time>
      </trkpt>
      <trkpt lat="49.99454" lon="4.70313">
        <ele>147.07</ele>
        <time>2026-08-08T14:48:44.592Z</time>
      </trkpt>
      <trkpt lat="49.9944" lon="4.70271">
        <ele>147.07</ele>
        <time>2026-08-08T14:48:50.588Z</time>
      </trkpt>
      <trkpt lat="49.99424" lon="4.70226">
        <ele>147.07</ele>
        <time>2026-08-08T14:48:56.596Z</time>
      </trkpt>
      <trkpt lat="49.9941" lon="4.70181">
        <ele>147.07</ele>
        <time>2026-08-08T14:49:02.617Z</time>
      </trkpt>
      <trkpt lat="49.99403" lon="4.70136">
        <ele>147.07</ele>
        <time>2026-08-08T14:49:08.595Z</time>
      </trkpt>
      <trkpt lat="49.99401" lon="4.7009">
        <ele>147.07</ele>
        <time>2026-08-08T14:49:14.626Z</time>
      </trkpt>
      <trkpt lat="49.99405" lon="4.70053">
        <ele>147.07</ele>
        <time>2026-08-08T14:49:20.592Z</time>
      </trkpt>
      <trkpt lat="49.99411" lon="4.70033">
        <ele>147.07</ele>
        <time>2026-08-08T14:49:26.620Z</time>
      </trkpt>
      <trkpt lat="49.99413" lon="4.70016">
        <ele>135.67</ele>
        <time>2026-08-08T14:50:33.559Z</time>
      </trkpt>
      <trkpt lat="49.99423" lon="4.69992">
        <ele>135.67</ele>
        <time>2026-08-08T14:50:38.604Z</time>
      </trkpt>
      <trkpt lat="49.99437" lon="4.69963">
        <ele>135.67</ele>
        <time>2026-08-08T14:50:44.594Z</time>
      </trkpt>
      <trkpt lat="49.99457" lon="4.69937">
        <ele>135.67</ele>
        <time>2026-08-08T14:50:50.607Z</time>
      </trkpt>
      <trkpt lat="49.9948" lon="4.69916">
        <ele>135.67</ele>
        <time>2026-08-08T14:50:56.581Z</time>
      </trkpt>
      <trkpt lat="49.99502" lon="4.69889">
        <ele>135.67</ele>
        <time>2026-08-08T14:51:02.606Z</time>
      </trkpt>
      <trkpt lat="49.99523" lon="4.69874">
        <ele>135.67</ele>
        <time>2026-08-08T14:51:08.597Z</time>
      </trkpt>
      <trkpt lat="49.99542" lon="4.69857">
        <ele>135.67</ele>
        <time>2026-08-08T14:51:14.596Z</time>
      </trkpt>
      <trkpt lat="49.99564" lon="4.69837">
        <ele>135.67</ele>
        <time>2026-08-08T14:51:20.593Z</time>
      </trkpt>
      <trkpt lat="49.99586" lon="4.69813">
        <ele>127.78</ele>
        <time>2026-08-08T14:51:26.625Z</time>
      </trkpt>
      <trkpt lat="49.99609" lon="4.69787">
        <ele>127.77</ele>
        <time>2026-08-08T14:51:32.610Z</time>
      </trkpt>
      <trkpt lat="49.99639" lon="4.69792">
        <ele>127.77</ele>
        <time>2026-08-08T14:51:38.598Z</time>
      </trkpt>
      <trkpt lat="49.9966" lon="4.69755">
        <ele>127.77</ele>
        <time>2026-08-08T14:51:44.600Z</time>
      </trkpt>
      <trkpt lat="49.9969" lon="4.6973">
        <ele>127.77</ele>
        <time>2026-08-08T14:51:50.602Z</time>
      </trkpt>
      <trkpt lat="49.99719" lon="4.69706">
        <ele>127.77</ele>
        <time>2026-08-08T14:51:56.625Z</time>
      </trkpt>
      <trkpt lat="49.99748" lon="4.69683">
        <ele>127.77</ele>
        <time>2026-08-08T14:52:02.607Z</time>
      </trkpt>
      <trkpt lat="49.99779" lon="4.69659">
        <ele>127.78</ele>
        <time>2026-08-08T14:52:08.601Z</time>
      </trkpt>
      <trkpt lat="49.99811" lon="4.69643">
        <ele>127.78</ele>
        <time>2026-08-08T14:52:14.596Z</time>
      </trkpt>
      <trkpt lat="49.9984" lon="4.69628">
        <ele>127.78</ele>
        <time>2026-08-08T14:52:20.601Z</time>
      </trkpt>
      <trkpt lat="49.99868" lon="4.69614">
        <ele>127.78</ele>
        <time>2026-08-08T14:52:26.624Z</time>
      </trkpt>
      <trkpt lat="49.99896" lon="4.696">
        <ele>127.78</ele>
        <time>2026-08-08T14:52:32.608Z</time>
      </trkpt>
      <trkpt lat="49.99923" lon="4.69587">
        <ele>127.78</ele>
        <time>2026-08-08T14:52:38.601Z</time>
      </trkpt>
      <trkpt lat="49.99951" lon="4.69574">
        <ele>127.78</ele>
        <time>2026-08-08T14:52:44.598Z</time>
      </trkpt>
      <trkpt lat="49.99978" lon="4.69565">
        <ele>127.78</ele>
        <time>2026-08-08T14:52:50.598Z</time>
      </trkpt>
      <trkpt lat="50.00004" lon="4.69561">
        <ele>127.78</ele>
        <time>2026-08-08T14:52:56.621Z</time>
      </trkpt>
      <trkpt lat="50.00031" lon="4.6956">
        <ele>69.26</ele>
        <time>2026-08-08T14:53:02.608Z</time>
      </trkpt>
      <trkpt lat="50.00059" lon="4.6956">
        <ele>67.26</ele>
        <time>2026-08-08T14:53:08.598Z</time>
      </trkpt>
      <trkpt lat="50.00085" lon="4.6956">
        <ele>64.63</ele>
        <time>2026-08-08T14:53:14.596Z</time>
      </trkpt>
      <trkpt lat="50.00111" lon="4.69562">
        <ele>64.23</ele>
        <time>2026-08-08T14:53:20.601Z</time>
      </trkpt>
      <trkpt lat="50.00138" lon="4.69561">
        <ele>63.97</ele>
        <time>2026-08-08T14:53:26.589Z</time>
      </trkpt>
      <trkpt lat="50.00164" lon="4.69561">
        <ele>65.07</ele>
        <time>2026-08-08T14:53:32.611Z</time>
      </trkpt>
      <trkpt lat="50.00186" lon="4.6956">
        <ele>68.06</ele>
        <time>2026-08-08T14:53:38.601Z</time>
      </trkpt>
      <trkpt lat="50.00205" lon="4.69562">
        <ele>69.05</ele>
        <time>2026-08-08T14:53:44.601Z</time>
      </trkpt>
      <trkpt lat="50.00225" lon="4.69564">
        <ele>69.96</ele>
        <time>2026-08-08T14:53:50.599Z</time>
      </trkpt>
      <trkpt lat="50.00249" lon="4.69565">
        <ele>71.22</ele>
        <time>2026-08-08T14:53:56.622Z</time>
      </trkpt>
      <trkpt lat="50.00274" lon="4.69566">
        <ele>72.39</ele>
        <time>2026-08-08T14:54:02.611Z</time>
      </trkpt>
      <trkpt lat="50.003" lon="4.69569">
        <ele>72.24</ele>
        <time>2026-08-08T14:54:08.599Z</time>
      </trkpt>
      <trkpt lat="50.00329" lon="4.69568">
        <ele>74.46</ele>
        <time>2026-08-08T14:54:14.595Z</time>
      </trkpt>
      <trkpt lat="50.00359" lon="4.69567">
        <ele>75.04</ele>
        <time>2026-08-08T14:54:20.596Z</time>
      </trkpt>
      <trkpt lat="50.00389" lon="4.69568">
        <ele>74.02</ele>
        <time>2026-08-08T14:54:26.619Z</time>
      </trkpt>
      <trkpt lat="50.00421" lon="4.69574">
        <ele>73.4</ele>
        <time>2026-08-08T14:54:32.611Z</time>
      </trkpt>
      <trkpt lat="50.00453" lon="4.6958">
        <ele>73.58</ele>
        <time>2026-08-08T14:54:38.594Z</time>
      </trkpt>
      <trkpt lat="50.00484" lon="4.69587">
        <ele>72.97</ele>
        <time>2026-08-08T14:54:44.598Z</time>
      </trkpt>
      <trkpt lat="50.00518" lon="4.69595">
        <ele>73.11</ele>
        <time>2026-08-08T14:54:50.597Z</time>
      </trkpt>
      <trkpt lat="50.00552" lon="4.69601">
        <ele>73.55</ele>
        <time>2026-08-08T14:54:56.620Z</time>
      </trkpt>
      <trkpt lat="50.00586" lon="4.6961">
        <ele>72.7</ele>
        <time>2026-08-08T14:55:02.610Z</time>
      </trkpt>
      <trkpt lat="50.00621" lon="4.69623">
        <ele>72.84</ele>
        <time>2026-08-08T14:55:08.601Z</time>
      </trkpt>
      <trkpt lat="50.00657" lon="4.69637">
        <ele>72.23</ele>
        <time>2026-08-08T14:55:14.596Z</time>
      </trkpt>
      <trkpt lat="50.00698" lon="4.69658">
        <ele>71.49</ele>
        <time>2026-08-08T14:55:20.598Z</time>
      </trkpt>
      <trkpt lat="50.00737" lon="4.69684">
        <ele>70.45</ele>
        <time>2026-08-08T14:55:26.623Z</time>
      </trkpt>
      <trkpt lat="50.00774" lon="4.6971">
        <ele>70.67</ele>
        <time>2026-08-08T14:55:32.607Z</time>
      </trkpt>
      <trkpt lat="50.00806" lon="4.69743">
        <ele>69.8</ele>
        <time>2026-08-08T14:55:38.594Z</time>
      </trkpt>
      <trkpt lat="50.00834" lon="4.69783">
        <ele>70.64</ele>
        <time>2026-08-08T14:55:44.597Z</time>
      </trkpt>
      <trkpt lat="50.00858" lon="4.6983">
        <ele>72.09</ele>
        <time>2026-08-08T14:55:50.598Z</time>
      </trkpt>
      <trkpt lat="50.00877" lon="4.6988">
        <ele>70.8</ele>
        <time>2026-08-08T14:55:56.621Z</time>
      </trkpt>
      <trkpt lat="50.00895" lon="4.6993">
        <ele>68.24</ele>
        <time>2026-08-08T14:56:02.611Z</time>
      </trkpt>
      <trkpt lat="50.00913" lon="4.69981">
        <ele>70.07</ele>
        <time>2026-08-08T14:56:08.593Z</time>
      </trkpt>
      <trkpt lat="50.00933" lon="4.70032">
        <ele>72.18</ele>
        <time>2026-08-08T14:56:14.600Z</time>
      </trkpt>
      <trkpt lat="50.00951" lon="4.70085">
        <ele>73.15</ele>
        <time>2026-08-08T14:56:20.598Z</time>
      </trkpt>
      <trkpt lat="50.00969" lon="4.70134">
        <ele>72.57</ele>
        <time>2026-08-08T14:56:26.624Z</time>
      </trkpt>
      <trkpt lat="50.00986" lon="4.70184">
        <ele>71.46</ele>
        <time>2026-08-08T14:56:32.608Z</time>
      </trkpt>
      <trkpt lat="50.01001" lon="4.70233">
        <ele>70.72</ele>
        <time>2026-08-08T14:56:38.604Z</time>
      </trkpt>
      <trkpt lat="50.01013" lon="4.70281">
        <ele>69.79</ele>
        <time>2026-08-08T14:56:44.596Z</time>
      </trkpt>
      <trkpt lat="50.01023" lon="4.70326">
        <ele>71.11</ele>
        <time>2026-08-08T14:56:50.601Z</time>
      </trkpt>
      <trkpt lat="50.01034" lon="4.7037">
        <ele>71.61</ele>
        <time>2026-08-08T14:56:56.622Z</time>
      </trkpt>
      <trkpt lat="50.01044" lon="4.70415">
        <ele>69.57</ele>
        <time>2026-08-08T14:57:02.619Z</time>
      </trkpt>
      <trkpt lat="50.01054" lon="4.70459">
        <ele>68.29</ele>
        <time>2026-08-08T14:57:08.595Z</time>
      </trkpt>
      <trkpt lat="50.01069" lon="4.70491">
        <ele>68</ele>
        <time>2026-08-08T14:57:14.585Z</time>
      </trkpt>
      <trkpt lat="50.0108" lon="4.70529">
        <ele>68.31</ele>
        <time>2026-08-08T14:57:20.598Z</time>
      </trkpt>
      <trkpt lat="50.01087" lon="4.7058">
        <ele>67.56</ele>
        <time>2026-08-08T14:57:26.617Z</time>
      </trkpt>
      <trkpt lat="50.01095" lon="4.70629">
        <ele>67.23</ele>
        <time>2026-08-08T14:57:32.608Z</time>
      </trkpt>
      <trkpt lat="50.01084" lon="4.70655">
        <ele>65.3</ele>
        <time>2026-08-08T14:57:38.601Z</time>
      </trkpt>
      <trkpt lat="50.01087" lon="4.70687">
        <ele>65.44</ele>
        <time>2026-08-08T14:57:44.599Z</time>
      </trkpt>
      <trkpt lat="50.01092" lon="4.70732">
        <ele>67.87</ele>
        <time>2026-08-08T14:57:50.594Z</time>
      </trkpt>
      <trkpt lat="50.01094" lon="4.70784">
        <ele>70.01</ele>
        <time>2026-08-08T14:57:56.606Z</time>
      </trkpt>
      <trkpt lat="50.01093" lon="4.70836">
        <ele>68.74</ele>
        <time>2026-08-08T14:58:02.605Z</time>
      </trkpt>
      <trkpt lat="50.01091" lon="4.70889">
        <ele>67.81</ele>
        <time>2026-08-08T14:58:08.600Z</time>
      </trkpt>
      <trkpt lat="50.01087" lon="4.7094">
        <ele>68.81</ele>
        <time>2026-08-08T14:58:14.592Z</time>
      </trkpt>
      <trkpt lat="50.01079" lon="4.70988">
        <ele>68.08</ele>
        <time>2026-08-08T14:58:20.596Z</time>
      </trkpt>
      <trkpt lat="50.01072" lon="4.71038">
        <ele>68.93</ele>
        <time>2026-08-08T14:58:26.606Z</time>
      </trkpt>
      <trkpt lat="50.01064" lon="4.71088">
        <ele>70.39</ele>
        <time>2026-08-08T14:58:32.605Z</time>
      </trkpt>
      <trkpt lat="50.01055" lon="4.71139">
        <ele>69.45</ele>
        <time>2026-08-08T14:58:38.604Z</time>
      </trkpt>
      <trkpt lat="50.01045" lon="4.7119">
        <ele>69.69</ele>
        <time>2026-08-08T14:58:44.601Z</time>
      </trkpt>
      <trkpt lat="50.01036" lon="4.71243">
        <ele>69.49</ele>
        <time>2026-08-08T14:58:50.604Z</time>
      </trkpt>
      <trkpt lat="50.01029" lon="4.71299">
        <ele>69.43</ele>
        <time>2026-08-08T14:58:56.606Z</time>
      </trkpt>
      <trkpt lat="50.01024" lon="4.71355">
        <ele>69.44</ele>
        <time>2026-08-08T14:59:02.610Z</time>
      </trkpt>
      <trkpt lat="50.0102" lon="4.71416">
        <ele>70.13</ele>
        <time>2026-08-08T14:59:08.604Z</time>
      </trkpt>
      <trkpt lat="50.01016" lon="4.71476">
        <ele>71.68</ele>
        <time>2026-08-08T14:59:14.602Z</time>
      </trkpt>
      <trkpt lat="50.01015" lon="4.71536">
        <ele>71.95</ele>
        <time>2026-08-08T14:59:20.601Z</time>
      </trkpt>
      <trkpt lat="50.01018" lon="4.71596">
        <ele>71.81</ele>
        <time>2026-08-08T14:59:26.608Z</time>
      </trkpt>
      <trkpt lat="50.01025" lon="4.71654">
        <ele>69.49</ele>
        <time>2026-08-08T14:59:32.608Z</time>
      </trkpt>
      <trkpt lat="50.01033" lon="4.7171">
        <ele>70.15</ele>
        <time>2026-08-08T14:59:38.602Z</time>
      </trkpt>
      <trkpt lat="50.01044" lon="4.71763">
        <ele>69.69</ele>
        <time>2026-08-08T14:59:44.600Z</time>
      </trkpt>
      <trkpt lat="50.01061" lon="4.7181">
        <ele>70.87</ele>
        <time>2026-08-08T14:59:50.604Z</time>
      </trkpt>
      <trkpt lat="50.01078" lon="4.71852">
        <ele>70.92</ele>
        <time>2026-08-08T14:59:56.617Z</time>
      </trkpt>
      <trkpt lat="50.01096" lon="4.71897">
        <ele>71.67</ele>
        <time>2026-08-08T15:00:02.608Z</time>
      </trkpt>
      <trkpt lat="50.01112" lon="4.71944">
        <ele>72.62</ele>
        <time>2026-08-08T15:00:08.602Z</time>
      </trkpt>
      <trkpt lat="50.01126" lon="4.71992">
        <ele>71.74</ele>
        <time>2026-08-08T15:00:14.599Z</time>
      </trkpt>
      <trkpt lat="50.01137" lon="4.72045">
        <ele>71.67</ele>
        <time>2026-08-08T15:00:20.604Z</time>
      </trkpt>
      <trkpt lat="50.01145" lon="4.72101">
        <ele>71.87</ele>
        <time>2026-08-08T15:00:26.607Z</time>
      </trkpt>
      <trkpt lat="50.01153" lon="4.72155">
        <ele>72.4</ele>
        <time>2026-08-08T15:00:32.610Z</time>
      </trkpt>
      <trkpt lat="50.01161" lon="4.72206">
        <ele>72.69</ele>
        <time>2026-08-08T15:00:38.602Z</time>
      </trkpt>
      <trkpt lat="50.01165" lon="4.72247">
        <ele>72.07</ele>
        <time>2026-08-08T15:00:44.605Z</time>
      </trkpt>
      <trkpt lat="50.01174" lon="4.7229">
        <ele>71.03</ele>
        <time>2026-08-08T15:00:50.599Z</time>
      </trkpt>
      <trkpt lat="50.01186" lon="4.72338">
        <ele>70.95</ele>
        <time>2026-08-08T15:00:56.609Z</time>
      </trkpt>
      <trkpt lat="50.01199" lon="4.7239">
        <ele>71.08</ele>
        <time>2026-08-08T15:01:02.604Z</time>
      </trkpt>
      <trkpt lat="50.01214" lon="4.72443">
        <ele>70.28</ele>
        <time>2026-08-08T15:01:08.598Z</time>
      </trkpt>
      <trkpt lat="50.0123" lon="4.72496">
        <ele>70.77</ele>
        <time>2026-08-08T15:01:14.602Z</time>
      </trkpt>
      <trkpt lat="50.01246" lon="4.7255">
        <ele>70.83</ele>
        <time>2026-08-08T15:01:20.601Z</time>
      </trkpt>
      <trkpt lat="50.01263" lon="4.72603">
        <ele>71.15</ele>
        <time>2026-08-08T15:01:26.608Z</time>
      </trkpt>
      <trkpt lat="50.01284" lon="4.72653">
        <ele>72.1</ele>
        <time>2026-08-08T15:01:32.605Z</time>
      </trkpt>
      <trkpt lat="50.01308" lon="4.72699">
        <ele>71.02</ele>
        <time>2026-08-08T15:01:38.597Z</time>
      </trkpt>
      <trkpt lat="50.01332" lon="4.72744">
        <ele>67.96</ele>
        <time>2026-08-08T15:01:44.599Z</time>
      </trkpt>
      <trkpt lat="50.01359" lon="4.72789">
        <ele>66.76</ele>
        <time>2026-08-08T15:01:50.603Z</time>
      </trkpt>
      <trkpt lat="50.01388" lon="4.72831">
        <ele>64.64</ele>
        <time>2026-08-08T15:01:56.610Z</time>
      </trkpt>
      <trkpt lat="50.01413" lon="4.72874">
        <ele>63.01</ele>
        <time>2026-08-08T15:02:02.614Z</time>
      </trkpt>
      <trkpt lat="50.01443" lon="4.72911">
        <ele>64.67</ele>
        <time>2026-08-08T15:02:08.603Z</time>
      </trkpt>
      <trkpt lat="50.01475" lon="4.72946">
        <ele>66.7</ele>
        <time>2026-08-08T15:02:14.606Z</time>
      </trkpt>
      <trkpt lat="50.01509" lon="4.72978">
        <ele>69.8</ele>
        <time>2026-08-08T15:02:20.601Z</time>
      </trkpt>
      <trkpt lat="50.01541" lon="4.73009">
        <ele>71.93</ele>
        <time>2026-08-08T15:02:26.620Z</time>
      </trkpt>
      <trkpt lat="50.01572" lon="4.73042">
        <ele>71.73</ele>
        <time>2026-08-08T15:02:32.607Z</time>
      </trkpt>
      <trkpt lat="50.01599" lon="4.73071">
        <ele>72.07</ele>
        <time>2026-08-08T15:02:38.594Z</time>
      </trkpt>
      <trkpt lat="50.01624" lon="4.731">
        <ele>72.9</ele>
        <time>2026-08-08T15:02:44.594Z</time>
      </trkpt>
      <trkpt lat="50.01648" lon="4.7313">
        <ele>73.09</ele>
        <time>2026-08-08T15:02:50.594Z</time>
      </trkpt>
      <trkpt lat="50.01672" lon="4.73159">
        <ele>72.29</ele>
        <time>2026-08-08T15:02:56.615Z</time>
      </trkpt>
      <trkpt lat="50.01695" lon="4.73187">
        <ele>72.02</ele>
        <time>2026-08-08T15:03:02.604Z</time>
      </trkpt>
      <trkpt lat="50.01719" lon="4.73213">
        <ele>73.47</ele>
        <time>2026-08-08T15:03:08.598Z</time>
      </trkpt>
      <trkpt lat="50.01743" lon="4.73239">
        <ele>74.06</ele>
        <time>2026-08-08T15:03:14.592Z</time>
      </trkpt>
      <trkpt lat="50.01769" lon="4.73266">
        <ele>74.04</ele>
        <time>2026-08-08T15:03:20.594Z</time>
      </trkpt>
      <trkpt lat="50.01794" lon="4.73295">
        <ele>73.97</ele>
        <time>2026-08-08T15:03:26.590Z</time>
      </trkpt>
      <trkpt lat="50.01819" lon="4.73325">
        <ele>73.09</ele>
        <time>2026-08-08T15:03:32.605Z</time>
      </trkpt>
      <trkpt lat="50.0185" lon="4.73347">
        <ele>72.36</ele>
        <time>2026-08-08T15:03:38.593Z</time>
      </trkpt>
      <trkpt lat="50.01892" lon="4.73351">
        <ele>72.7</ele>
        <time>2026-08-08T15:03:44.594Z</time>
      </trkpt>
      <trkpt lat="50.01936" lon="4.73345">
        <ele>71.69</ele>
        <time>2026-08-08T15:03:50.594Z</time>
      </trkpt>
      <trkpt lat="50.01983" lon="4.73348">
        <ele>69.09</ele>
        <time>2026-08-08T15:03:56.617Z</time>
      </trkpt>
      <trkpt lat="50.02024" lon="4.73349">
        <ele>68.85</ele>
        <time>2026-08-08T15:04:02.607Z</time>
      </trkpt>
      <trkpt lat="50.02062" lon="4.73349">
        <ele>67.79</ele>
        <time>2026-08-08T15:04:08.596Z</time>
      </trkpt>
      <trkpt lat="50.02102" lon="4.73349">
        <ele>69.75</ele>
        <time>2026-08-08T15:04:14.595Z</time>
      </trkpt>
      <trkpt lat="50.02143" lon="4.73343">
        <ele>70.83</ele>
        <time>2026-08-08T15:04:20.595Z</time>
      </trkpt>
      <trkpt lat="50.02184" lon="4.73333">
        <ele>70.69</ele>
        <time>2026-08-08T15:04:26.619Z</time>
      </trkpt>
      <trkpt lat="50.02223" lon="4.73313">
        <ele>70.57</ele>
        <time>2026-08-08T15:04:32.607Z</time>
      </trkpt>
      <trkpt lat="50.02258" lon="4.73283">
        <ele>72.32</ele>
        <time>2026-08-08T15:04:38.594Z</time>
      </trkpt>
      <trkpt lat="50.02287" lon="4.73243">
        <ele>73.25</ele>
        <time>2026-08-08T15:04:44.596Z</time>
      </trkpt>
      <trkpt lat="50.02315" lon="4.73204">
        <ele>71.78</ele>
        <time>2026-08-08T15:04:50.599Z</time>
      </trkpt>
      <trkpt lat="50.02338" lon="4.7316">
        <ele>72.32</ele>
        <time>2026-08-08T15:04:56.619Z</time>
      </trkpt>
      <trkpt lat="50.0236" lon="4.73117">
        <ele>72.27</ele>
        <time>2026-08-08T15:05:02.608Z</time>
      </trkpt>
      <trkpt lat="50.02381" lon="4.73072">
        <ele>72.18</ele>
        <time>2026-08-08T15:05:08.601Z</time>
      </trkpt>
      <trkpt lat="50.02404" lon="4.73029">
        <ele>71.52</ele>
        <time>2026-08-08T15:05:14.604Z</time>
      </trkpt>
      <trkpt lat="50.02424" lon="4.72985">
        <ele>70</ele>
        <time>2026-08-08T15:05:20.603Z</time>
      </trkpt>
      <trkpt lat="50.02443" lon="4.72937">
        <ele>69.65</ele>
        <time>2026-08-08T15:05:26.618Z</time>
      </trkpt>
      <trkpt lat="50.02459" lon="4.72886">
        <ele>69.93</ele>
        <time>2026-08-08T15:05:32.612Z</time>
      </trkpt>
      <trkpt lat="50.02475" lon="4.72837">
        <ele>69.84</ele>
        <time>2026-08-08T15:05:38.610Z</time>
      </trkpt>
      <trkpt lat="50.02492" lon="4.72789">
        <ele>69.38</ele>
        <time>2026-08-08T15:05:44.615Z</time>
      </trkpt>
      <trkpt lat="50.02513" lon="4.72744">
        <ele>70.03</ele>
        <time>2026-08-08T15:05:50.610Z</time>
      </trkpt>
      <trkpt lat="50.02537" lon="4.72701">
        <ele>71.21</ele>
        <time>2026-08-08T15:05:56.584Z</time>
      </trkpt>
      <trkpt lat="50.02561" lon="4.72658">
        <ele>73.1</ele>
        <time>2026-08-08T15:06:02.614Z</time>
      </trkpt>
      <trkpt lat="50.02586" lon="4.72614">
        <ele>73.18</ele>
        <time>2026-08-08T15:06:08.611Z</time>
      </trkpt>
      <trkpt lat="50.02612" lon="4.72571">
        <ele>71.92</ele>
        <time>2026-08-08T15:06:14.597Z</time>
      </trkpt>
      <trkpt lat="50.0264" lon="4.72531">
        <ele>71.48</ele>
        <time>2026-08-08T15:06:20.606Z</time>
      </trkpt>
      <trkpt lat="50.02669" lon="4.72495">
        <ele>71.17</ele>
        <time>2026-08-08T15:06:26.617Z</time>
      </trkpt>
      <trkpt lat="50.02699" lon="4.72457">
        <ele>70.86</ele>
        <time>2026-08-08T15:06:32.614Z</time>
      </trkpt>
      <trkpt lat="50.02731" lon="4.72428">
        <ele>69.97</ele>
        <time>2026-08-08T15:06:38.610Z</time>
      </trkpt>
      <trkpt lat="50.02765" lon="4.72403">
        <ele>68.69</ele>
        <time>2026-08-08T15:06:44.610Z</time>
      </trkpt>
      <trkpt lat="50.02802" lon="4.72389">
        <ele>68.84</ele>
        <time>2026-08-08T15:06:50.610Z</time>
      </trkpt>
      <trkpt lat="50.02838" lon="4.72391">
        <ele>69.58</ele>
        <time>2026-08-08T15:06:56.618Z</time>
      </trkpt>
      <trkpt lat="50.02873" lon="4.72401">
        <ele>69.26</ele>
        <time>2026-08-08T15:07:02.616Z</time>
      </trkpt>
      <trkpt lat="50.02907" lon="4.72416">
        <ele>70.71</ele>
        <time>2026-08-08T15:07:08.605Z</time>
      </trkpt>
      <trkpt lat="50.02942" lon="4.72435">
        <ele>70.03</ele>
        <time>2026-08-08T15:07:14.610Z</time>
      </trkpt>
      <trkpt lat="50.02973" lon="4.72463">
        <ele>68.22</ele>
        <time>2026-08-08T15:07:20.607Z</time>
      </trkpt>
      <trkpt lat="50.02998" lon="4.72497">
        <ele>66.81</ele>
        <time>2026-08-08T15:07:26.622Z</time>
      </trkpt>
      <trkpt lat="50.03027" lon="4.72527">
        <ele>67.51</ele>
        <time>2026-08-08T15:07:32.615Z</time>
      </trkpt>
      <trkpt lat="50.03055" lon="4.7256">
        <ele>68.51</ele>
        <time>2026-08-08T15:07:38.608Z</time>
      </trkpt>
      <trkpt lat="50.03085" lon="4.72597">
        <ele>70.08</ele>
        <time>2026-08-08T15:07:44.606Z</time>
      </trkpt>
      <trkpt lat="50.03116" lon="4.72635">
        <ele>71.65</ele>
        <time>2026-08-08T15:07:50.612Z</time>
      </trkpt>
      <trkpt lat="50.03148" lon="4.7267">
        <ele>71.17</ele>
        <time>2026-08-08T15:07:56.619Z</time>
      </trkpt>
      <trkpt lat="50.03179" lon="4.72706">
        <ele>70.13</ele>
        <time>2026-08-08T15:08:02.615Z</time>
      </trkpt>
      <trkpt lat="50.03212" lon="4.72741">
        <ele>70.27</ele>
        <time>2026-08-08T15:08:08.608Z</time>
      </trkpt>
      <trkpt lat="50.03244" lon="4.72777">
        <ele>69.02</ele>
        <time>2026-08-08T15:08:14.609Z</time>
      </trkpt>
      <trkpt lat="50.03277" lon="4.7281">
        <ele>69.61</ele>
        <time>2026-08-08T15:08:20.611Z</time>
      </trkpt>
      <trkpt lat="50.03309" lon="4.72845">
        <ele>71.02</ele>
        <time>2026-08-08T15:08:26.619Z</time>
      </trkpt>
      <trkpt lat="50.03341" lon="4.72874">
        <ele>70.53</ele>
        <time>2026-08-08T15:08:32.614Z</time>
      </trkpt>
      <trkpt lat="50.03379" lon="4.72891">
        <ele>69.06</ele>
        <time>2026-08-08T15:08:38.608Z</time>
      </trkpt>
      <trkpt lat="50.03421" lon="4.72902">
        <ele>68.69</ele>
        <time>2026-08-08T15:08:44.608Z</time>
      </trkpt>
      <trkpt lat="50.03462" lon="4.72908">
        <ele>68</ele>
        <time>2026-08-08T15:08:50.610Z</time>
      </trkpt>
      <trkpt lat="50.03502" lon="4.72911">
        <ele>67.43</ele>
        <time>2026-08-08T15:08:56.623Z</time>
      </trkpt>
      <trkpt lat="50.03541" lon="4.72913">
        <ele>67.43</ele>
        <time>2026-08-08T15:09:02.617Z</time>
      </trkpt>
      <trkpt lat="50.0358" lon="4.72913">
        <ele>69.26</ele>
        <time>2026-08-08T15:09:08.608Z</time>
      </trkpt>
      <trkpt lat="50.03619" lon="4.729">
        <ele>70.77</ele>
        <time>2026-08-08T15:09:14.612Z</time>
      </trkpt>
      <trkpt lat="50.03658" lon="4.72902">
        <ele>70.53</ele>
        <time>2026-08-08T15:09:20.610Z</time>
      </trkpt>
      <trkpt lat="50.03696" lon="4.72904">
        <ele>70.13</ele>
        <time>2026-08-08T15:09:26.622Z</time>
      </trkpt>
      <trkpt lat="50.03734" lon="4.72896">
        <ele>68.69</ele>
        <time>2026-08-08T15:09:32.621Z</time>
      </trkpt>
      <trkpt lat="50.03771" lon="4.7289">
        <ele>69.59</ele>
        <time>2026-08-08T15:09:38.616Z</time>
      </trkpt>
      <trkpt lat="50.03809" lon="4.72885">
        <ele>71</ele>
        <time>2026-08-08T15:09:44.614Z</time>
      </trkpt>
      <trkpt lat="50.03847" lon="4.72881">
        <ele>69.84</ele>
        <time>2026-08-08T15:09:50.615Z</time>
      </trkpt>
      <trkpt lat="50.03886" lon="4.72875">
        <ele>69.17</ele>
        <time>2026-08-08T15:09:56.619Z</time>
      </trkpt>
      <trkpt lat="50.03924" lon="4.72864">
        <ele>68.22</ele>
        <time>2026-08-08T15:10:02.621Z</time>
      </trkpt>
      <trkpt lat="50.03962" lon="4.72852">
        <ele>69.65</ele>
        <time>2026-08-08T15:10:08.616Z</time>
      </trkpt>
      <trkpt lat="50.04" lon="4.72838">
        <ele>70.13</ele>
        <time>2026-08-08T15:10:14.630Z</time>
      </trkpt>
      <trkpt lat="50.04039" lon="4.72829">
        <ele>69.87</ele>
        <time>2026-08-08T15:10:20.613Z</time>
      </trkpt>
      <trkpt lat="50.04074" lon="4.72818">
        <ele>68.35</ele>
        <time>2026-08-08T15:10:26.620Z</time>
      </trkpt>
      <trkpt lat="50.04108" lon="4.72807">
        <ele>66.42</ele>
        <time>2026-08-08T15:10:32.615Z</time>
      </trkpt>
      <trkpt lat="50.04147" lon="4.72791">
        <ele>64.88</ele>
        <time>2026-08-08T15:10:38.619Z</time>
      </trkpt>
      <trkpt lat="50.04184" lon="4.72772">
        <ele>64.04</ele>
        <time>2026-08-08T15:10:44.618Z</time>
      </trkpt>
      <trkpt lat="50.04221" lon="4.7275">
        <ele>62.97</ele>
        <time>2026-08-08T15:10:50.614Z</time>
      </trkpt>
      <trkpt lat="50.04257" lon="4.72731">
        <ele>60.94</ele>
        <time>2026-08-08T15:10:56.621Z</time>
      </trkpt>
      <trkpt lat="50.04293" lon="4.72706">
        <ele>61.52</ele>
        <time>2026-08-08T15:11:02.623Z</time>
      </trkpt>
      <trkpt lat="50.04328" lon="4.72674">
        <ele>64.18</ele>
        <time>2026-08-08T15:11:08.620Z</time>
      </trkpt>
      <trkpt lat="50.04364" lon="4.72651">
        <ele>66.58</ele>
        <time>2026-08-08T15:11:14.619Z</time>
      </trkpt>
      <trkpt lat="50.04401" lon="4.72626">
        <ele>68.15</ele>
        <time>2026-08-08T15:11:20.615Z</time>
      </trkpt>
      <trkpt lat="50.04437" lon="4.72609">
        <ele>67.15</ele>
        <time>2026-08-08T15:11:26.621Z</time>
      </trkpt>
      <trkpt lat="50.04474" lon="4.72587">
        <ele>67.21</ele>
        <time>2026-08-08T15:11:32.622Z</time>
      </trkpt>
      <trkpt lat="50.04513" lon="4.72573">
        <ele>67.69</ele>
        <time>2026-08-08T15:11:38.620Z</time>
      </trkpt>
      <trkpt lat="50.04551" lon="4.72562">
        <ele>66.51</ele>
        <time>2026-08-08T15:11:44.618Z</time>
      </trkpt>
      <trkpt lat="50.04591" lon="4.72555">
        <ele>68.31</ele>
        <time>2026-08-08T15:11:50.616Z</time>
      </trkpt>
      <trkpt lat="50.0463" lon="4.72551">
        <ele>69.07</ele>
        <time>2026-08-08T15:11:56.624Z</time>
      </trkpt>
      <trkpt lat="50.04672" lon="4.72546">
        <ele>69.85</ele>
        <time>2026-08-08T15:12:02.622Z</time>
      </trkpt>
      <trkpt lat="50.04726" lon="4.72549">
        <ele>68.65</ele>
        <time>2026-08-08T15:12:08.616Z</time>
      </trkpt>
      <trkpt lat="50.04775" lon="4.72566">
        <ele>67.36</ele>
        <time>2026-08-08T15:12:14.617Z</time>
      </trkpt>
      <trkpt lat="50.04822" lon="4.72577">
        <ele>68.31</ele>
        <time>2026-08-08T15:12:20.616Z</time>
      </trkpt>
      <trkpt lat="50.04865" lon="4.72586">
        <ele>68.73</ele>
        <time>2026-08-08T15:12:26.622Z</time>
      </trkpt>
      <trkpt lat="50.04908" lon="4.72596">
        <ele>69.24</ele>
        <time>2026-08-08T15:12:32.621Z</time>
      </trkpt>
      <trkpt lat="50.0495" lon="4.72606">
        <ele>70.16</ele>
        <time>2026-08-08T15:12:38.617Z</time>
      </trkpt>
      <trkpt lat="50.04991" lon="4.72616">
        <ele>70.39</ele>
        <time>2026-08-08T15:12:44.616Z</time>
      </trkpt>
      <trkpt lat="50.05032" lon="4.72626">
        <ele>70.9</ele>
        <time>2026-08-08T15:12:50.611Z</time>
      </trkpt>
      <trkpt lat="50.05075" lon="4.72635">
        <ele>70.91</ele>
        <time>2026-08-08T15:12:56.623Z</time>
      </trkpt>
      <trkpt lat="50.05118" lon="4.72643">
        <ele>70.31</ele>
        <time>2026-08-08T15:13:02.623Z</time>
      </trkpt>
      <trkpt lat="50.05162" lon="4.72645">
        <ele>70.05</ele>
        <time>2026-08-08T15:13:08.617Z</time>
      </trkpt>
      <trkpt lat="50.05205" lon="4.72641">
        <ele>69.84</ele>
        <time>2026-08-08T15:13:14.613Z</time>
      </trkpt>
      <trkpt lat="50.05246" lon="4.72629">
        <ele>70.38</ele>
        <time>2026-08-08T15:13:20.618Z</time>
      </trkpt>
      <trkpt lat="50.05288" lon="4.72612">
        <ele>69.99</ele>
        <time>2026-08-08T15:13:26.621Z</time>
      </trkpt>
      <trkpt lat="50.05329" lon="4.72594">
        <ele>68.6</ele>
        <time>2026-08-08T15:13:32.623Z</time>
      </trkpt>
      <trkpt lat="50.05371" lon="4.72576">
        <ele>69.29</ele>
        <time>2026-08-08T15:13:38.616Z</time>
      </trkpt>
      <trkpt lat="50.05412" lon="4.72561">
        <ele>69.31</ele>
        <time>2026-08-08T15:13:44.615Z</time>
      </trkpt>
      <trkpt lat="50.05455" lon="4.72538">
        <ele>68.14</ele>
        <time>2026-08-08T15:13:50.614Z</time>
      </trkpt>
      <trkpt lat="50.05499" lon="4.72517">
        <ele>69.02</ele>
        <time>2026-08-08T15:13:56.624Z</time>
      </trkpt>
      <trkpt lat="50.05542" lon="4.72501">
        <ele>69.85</ele>
        <time>2026-08-08T15:14:02.622Z</time>
      </trkpt>
      <trkpt lat="50.05585" lon="4.72484">
        <ele>68.98</ele>
        <time>2026-08-08T15:14:08.615Z</time>
      </trkpt>
      <trkpt lat="50.05628" lon="4.72468">
        <ele>67.57</ele>
        <time>2026-08-08T15:14:14.617Z</time>
      </trkpt>
      <trkpt lat="50.05672" lon="4.72458">
        <ele>67.29</ele>
        <time>2026-08-08T15:14:20.617Z</time>
      </trkpt>
      <trkpt lat="50.0572" lon="4.72451">
        <ele>68.48</ele>
        <time>2026-08-08T15:14:26.622Z</time>
      </trkpt>
      <trkpt lat="50.05766" lon="4.72449">
        <ele>69.06</ele>
        <time>2026-08-08T15:14:32.626Z</time>
      </trkpt>
      <trkpt lat="50.05817" lon="4.72444">
        <ele>68.45</ele>
        <time>2026-08-08T15:14:38.615Z</time>
      </trkpt>
      <trkpt lat="50.05867" lon="4.72439">
        <ele>69.18</ele>
        <time>2026-08-08T15:14:44.614Z</time>
      </trkpt>
      <trkpt lat="50.05916" lon="4.72433">
        <ele>69.93</ele>
        <time>2026-08-08T15:14:50.616Z</time>
      </trkpt>
      <trkpt lat="50.05965" lon="4.72428">
        <ele>68.95</ele>
        <time>2026-08-08T15:14:56.623Z</time>
      </trkpt>
      <trkpt lat="50.06013" lon="4.72424">
        <ele>69.7</ele>
        <time>2026-08-08T15:15:02.599Z</time>
      </trkpt>
      <trkpt lat="50.06062" lon="4.72415">
        <ele>69.32</ele>
        <time>2026-08-08T15:15:08.618Z</time>
      </trkpt>
      <trkpt lat="50.06108" lon="4.72403">
        <ele>69.31</ele>
        <time>2026-08-08T15:15:14.616Z</time>
      </trkpt>
      <trkpt lat="50.06152" lon="4.72387">
        <ele>67.24</ele>
        <time>2026-08-08T15:15:20.608Z</time>
      </trkpt>
      <trkpt lat="50.06197" lon="4.72372">
        <ele>67.67</ele>
        <time>2026-08-08T15:15:26.621Z</time>
      </trkpt>
      <trkpt lat="50.06239" lon="4.72356">
        <ele>68.04</ele>
        <time>2026-08-08T15:15:32.625Z</time>
      </trkpt>
      <trkpt lat="50.06281" lon="4.72343">
        <ele>67.3</ele>
        <time>2026-08-08T15:15:38.616Z</time>
      </trkpt>
      <trkpt lat="50.06327" lon="4.72325">
        <ele>65.59</ele>
        <time>2026-08-08T15:15:44.617Z</time>
      </trkpt>
      <trkpt lat="50.06372" lon="4.72322">
        <ele>64.62</ele>
        <time>2026-08-08T15:15:50.615Z</time>
      </trkpt>
      <trkpt lat="50.06417" lon="4.72331">
        <ele>65.29</ele>
        <time>2026-08-08T15:15:56.592Z</time>
      </trkpt>
      <trkpt lat="50.06461" lon="4.72342">
        <ele>65.06</ele>
        <time>2026-08-08T15:16:02.621Z</time>
      </trkpt>
      <trkpt lat="50.06505" lon="4.72353">
        <ele>65.43</ele>
        <time>2026-08-08T15:16:08.616Z</time>
      </trkpt>
      <trkpt lat="50.06547" lon="4.72366">
        <ele>64.66</ele>
        <time>2026-08-08T15:16:14.617Z</time>
      </trkpt>
      <trkpt lat="50.06588" lon="4.72381">
        <ele>62.89</ele>
        <time>2026-08-08T15:16:20.616Z</time>
      </trkpt>
      <trkpt lat="50.06631" lon="4.72393">
        <ele>63.51</ele>
        <time>2026-08-08T15:16:26.621Z</time>
      </trkpt>
      <trkpt lat="50.06674" lon="4.72416">
        <ele>65.96</ele>
        <time>2026-08-08T15:16:32.617Z</time>
      </trkpt>
      <trkpt lat="50.06717" lon="4.72439">
        <ele>65.94</ele>
        <time>2026-08-08T15:16:38.611Z</time>
      </trkpt>
      <trkpt lat="50.06759" lon="4.72456">
        <ele>66.21</ele>
        <time>2026-08-08T15:16:44.613Z</time>
      </trkpt>
      <trkpt lat="50.06798" lon="4.72473">
        <ele>65.39</ele>
        <time>2026-08-08T15:16:50.613Z</time>
      </trkpt>
      <trkpt lat="50.06837" lon="4.72494">
        <ele>66.23</ele>
        <time>2026-08-08T15:16:56.619Z</time>
      </trkpt>
      <trkpt lat="50.06873" lon="4.72521">
        <ele>65.71</ele>
        <time>2026-08-08T15:17:02.624Z</time>
      </trkpt>
      <trkpt lat="50.06911" lon="4.7255">
        <ele>63.86</ele>
        <time>2026-08-08T15:17:08.613Z</time>
      </trkpt>
      <trkpt lat="50.06948" lon="4.72581">
        <ele>64.18</ele>
        <time>2026-08-08T15:17:14.613Z</time>
      </trkpt>
      <trkpt lat="50.06986" lon="4.72612">
        <ele>64.23</ele>
        <time>2026-08-08T15:17:20.614Z</time>
      </trkpt>
      <trkpt lat="50.07024" lon="4.72645">
        <ele>64</ele>
        <time>2026-08-08T15:17:26.621Z</time>
      </trkpt>
      <trkpt lat="50.07059" lon="4.72679">
        <ele>64.84</ele>
        <time>2026-08-08T15:17:32.620Z</time>
      </trkpt>
      <trkpt lat="50.07093" lon="4.72712">
        <ele>64.01</ele>
        <time>2026-08-08T15:17:38.615Z</time>
      </trkpt>
      <trkpt lat="50.07128" lon="4.72741">
        <ele>63.74</ele>
        <time>2026-08-08T15:17:44.614Z</time>
      </trkpt>
      <trkpt lat="50.07162" lon="4.72765">
        <ele>66.01</ele>
        <time>2026-08-08T15:17:50.618Z</time>
      </trkpt>
      <trkpt lat="50.07195" lon="4.72785">
        <ele>66.93</ele>
        <time>2026-08-08T15:17:56.622Z</time>
      </trkpt>
      <trkpt lat="50.07233" lon="4.72805">
        <ele>66.53</ele>
        <time>2026-08-08T15:18:02.623Z</time>
      </trkpt>
      <trkpt lat="50.07272" lon="4.7282">
        <ele>67.12</ele>
        <time>2026-08-08T15:18:08.612Z</time>
      </trkpt>
      <trkpt lat="50.07313" lon="4.7283">
        <ele>67.11</ele>
        <time>2026-08-08T15:18:14.623Z</time>
      </trkpt>
      <trkpt lat="50.07354" lon="4.72844">
        <ele>67.29</ele>
        <time>2026-08-08T15:18:20.617Z</time>
      </trkpt>
      <trkpt lat="50.07397" lon="4.72854">
        <ele>67.51</ele>
        <time>2026-08-08T15:18:26.592Z</time>
      </trkpt>
      <trkpt lat="50.07439" lon="4.72864">
        <ele>65.71</ele>
        <time>2026-08-08T15:18:32.614Z</time>
      </trkpt>
      <trkpt lat="50.07482" lon="4.72872">
        <ele>65.61</ele>
        <time>2026-08-08T15:18:38.615Z</time>
      </trkpt>
      <trkpt lat="50.07524" lon="4.72877">
        <ele>66.45</ele>
        <time>2026-08-08T15:18:44.612Z</time>
      </trkpt>
      <trkpt lat="50.07566" lon="4.72881">
        <ele>66.02</ele>
        <time>2026-08-08T15:18:50.613Z</time>
      </trkpt>
      <trkpt lat="50.07609" lon="4.72875">
        <ele>65.05</ele>
        <time>2026-08-08T15:18:56.631Z</time>
      </trkpt>
      <trkpt lat="50.0765" lon="4.72868">
        <ele>65.54</ele>
        <time>2026-08-08T15:19:02.616Z</time>
      </trkpt>
      <trkpt lat="50.07692" lon="4.72862">
        <ele>65.35</ele>
        <time>2026-08-08T15:19:08.610Z</time>
      </trkpt>
      <trkpt lat="50.07732" lon="4.72857">
        <ele>65.69</ele>
        <time>2026-08-08T15:19:14.610Z</time>
      </trkpt>
      <trkpt lat="50.07772" lon="4.72853">
        <ele>65.8</ele>
        <time>2026-08-08T15:19:20.613Z</time>
      </trkpt>
      <trkpt lat="50.07811" lon="4.72852">
        <ele>66.27</ele>
        <time>2026-08-08T15:19:26.627Z</time>
      </trkpt>
      <trkpt lat="50.0785" lon="4.72853">
        <ele>66.06</ele>
        <time>2026-08-08T15:19:32.617Z</time>
      </trkpt>
      <trkpt lat="50.07889" lon="4.72856">
        <ele>65.53</ele>
        <time>2026-08-08T15:19:38.613Z</time>
      </trkpt>
      <trkpt lat="50.07929" lon="4.72861">
        <ele>65.71</ele>
        <time>2026-08-08T15:19:44.611Z</time>
      </trkpt>
      <trkpt lat="50.07968" lon="4.72862">
        <ele>65.73</ele>
        <time>2026-08-08T15:19:50.611Z</time>
      </trkpt>
      <trkpt lat="50.0801" lon="4.72857">
        <ele>64.82</ele>
        <time>2026-08-08T15:19:56.626Z</time>
      </trkpt>
      <trkpt lat="50.08049" lon="4.72847">
        <ele>64.36</ele>
        <time>2026-08-08T15:20:02.614Z</time>
      </trkpt>
      <trkpt lat="50.08085" lon="4.72833">
        <ele>64.62</ele>
        <time>2026-08-08T15:20:08.613Z</time>
      </trkpt>
      <trkpt lat="50.08119" lon="4.72809">
        <ele>63.66</ele>
        <time>2026-08-08T15:20:14.611Z</time>
      </trkpt>
      <trkpt lat="50.08152" lon="4.72781">
        <ele>64.2</ele>
        <time>2026-08-08T15:20:20.610Z</time>
      </trkpt>
      <trkpt lat="50.08184" lon="4.72749">
        <ele>64.03</ele>
        <time>2026-08-08T15:20:26.622Z</time>
      </trkpt>
      <trkpt lat="50.08216" lon="4.72718">
        <ele>65.07</ele>
        <time>2026-08-08T15:20:32.616Z</time>
      </trkpt>
      <trkpt lat="50.08249" lon="4.72697">
        <ele>64.55</ele>
        <time>2026-08-08T15:20:38.612Z</time>
      </trkpt>
      <trkpt lat="50.08284" lon="4.72686">
        <ele>64.53</ele>
        <time>2026-08-08T15:20:44.616Z</time>
      </trkpt>
      <trkpt lat="50.08319" lon="4.72678">
        <ele>64.62</ele>
        <time>2026-08-08T15:20:50.613Z</time>
      </trkpt>
      <trkpt lat="50.08353" lon="4.72677">
        <ele>65.67</ele>
        <time>2026-08-08T15:20:56.621Z</time>
      </trkpt>
      <trkpt lat="50.08388" lon="4.72671">
        <ele>64.96</ele>
        <time>2026-08-08T15:21:02.617Z</time>
      </trkpt>
      <trkpt lat="50.08423" lon="4.72659">
        <ele>64.46</ele>
        <time>2026-08-08T15:21:08.612Z</time>
      </trkpt>
      <trkpt lat="50.08459" lon="4.7265">
        <ele>63.9</ele>
        <time>2026-08-08T15:21:14.618Z</time>
      </trkpt>
      <trkpt lat="50.08495" lon="4.72644">
        <ele>63.65</ele>
        <time>2026-08-08T15:21:20.615Z</time>
      </trkpt>
      <trkpt lat="50.08529" lon="4.72643">
        <ele>64.03</ele>
        <time>2026-08-08T15:21:26.621Z</time>
      </trkpt>
      <trkpt lat="50.08561" lon="4.72649">
        <ele>64.75</ele>
        <time>2026-08-08T15:21:32.617Z</time>
      </trkpt>
      <trkpt lat="50.08596" lon="4.72658">
        <ele>65.43</ele>
        <time>2026-08-08T15:21:38.611Z</time>
      </trkpt>
      <trkpt lat="50.08628" lon="4.7267">
        <ele>65.97</ele>
        <time>2026-08-08T15:21:44.621Z</time>
      </trkpt>
      <trkpt lat="50.08663" lon="4.72679">
        <ele>66.79</ele>
        <time>2026-08-08T15:21:50.615Z</time>
      </trkpt>
      <trkpt lat="50.08695" lon="4.72701">
        <ele>66.79</ele>
        <time>2026-08-08T15:21:56.620Z</time>
      </trkpt>
      <trkpt lat="50.08727" lon="4.72733">
        <ele>66.44</ele>
        <time>2026-08-08T15:22:02.624Z</time>
      </trkpt>
      <trkpt lat="50.0876" lon="4.72765">
        <ele>65.52</ele>
        <time>2026-08-08T15:22:08.616Z</time>
      </trkpt>
      <trkpt lat="50.08788" lon="4.72804">
        <ele>63.93</ele>
        <time>2026-08-08T15:22:14.619Z</time>
      </trkpt>
      <trkpt lat="50.08816" lon="4.72847">
        <ele>63.43</ele>
        <time>2026-08-08T15:22:20.616Z</time>
      </trkpt>
      <trkpt lat="50.08847" lon="4.72888">
        <ele>64.61</ele>
        <time>2026-08-08T15:22:26.619Z</time>
      </trkpt>
      <trkpt lat="50.08879" lon="4.72924">
        <ele>66.25</ele>
        <time>2026-08-08T15:22:32.620Z</time>
      </trkpt>
      <trkpt lat="50.08912" lon="4.72959">
        <ele>65.97</ele>
        <time>2026-08-08T15:22:38.616Z</time>
      </trkpt>
      <trkpt lat="50.08947" lon="4.72994">
        <ele>65.21</ele>
        <time>2026-08-08T15:22:44.619Z</time>
      </trkpt>
      <trkpt lat="50.08984" lon="4.73025">
        <ele>63.24</ele>
        <time>2026-08-08T15:22:50.615Z</time>
      </trkpt>
      <trkpt lat="50.09018" lon="4.73054">
        <ele>63.02</ele>
        <time>2026-08-08T15:22:56.620Z</time>
      </trkpt>
      <trkpt lat="50.09052" lon="4.73083">
        <ele>62.83</ele>
        <time>2026-08-08T15:23:02.621Z</time>
      </trkpt>
      <trkpt lat="50.09086" lon="4.73113">
        <ele>64.38</ele>
        <time>2026-08-08T15:23:08.616Z</time>
      </trkpt>
      <trkpt lat="50.0912" lon="4.73145">
        <ele>64.38</ele>
        <time>2026-08-08T15:23:14.613Z</time>
      </trkpt>
      <trkpt lat="50.09155" lon="4.73184">
        <ele>64.03</ele>
        <time>2026-08-08T15:23:20.613Z</time>
      </trkpt>
      <trkpt lat="50.09189" lon="4.73226">
        <ele>65.61</ele>
        <time>2026-08-08T15:23:26.624Z</time>
      </trkpt>
      <trkpt lat="50.09218" lon="4.73271">
        <ele>66.04</ele>
        <time>2026-08-08T15:23:32.619Z</time>
      </trkpt>
      <trkpt lat="50.09242" lon="4.73322">
        <ele>67.62</ele>
        <time>2026-08-08T15:23:38.616Z</time>
      </trkpt>
      <trkpt lat="50.0926" lon="4.73382">
        <ele>68.08</ele>
        <time>2026-08-08T15:23:44.619Z</time>
      </trkpt>
      <trkpt lat="50.09274" lon="4.73443">
        <ele>67.65</ele>
        <time>2026-08-08T15:23:50.616Z</time>
      </trkpt>
      <trkpt lat="50.09286" lon="4.73504">
        <ele>66.6</ele>
        <time>2026-08-08T15:23:56.619Z</time>
      </trkpt>
      <trkpt lat="50.093" lon="4.73565">
        <ele>67.15</ele>
        <time>2026-08-08T15:24:02.616Z</time>
      </trkpt>
      <trkpt lat="50.09311" lon="4.73627">
        <ele>67.13</ele>
        <time>2026-08-08T15:24:08.610Z</time>
      </trkpt>
      <trkpt lat="50.09322" lon="4.73689">
        <ele>66.28</ele>
        <time>2026-08-08T15:24:14.608Z</time>
      </trkpt>
      <trkpt lat="50.09324" lon="4.73754">
        <ele>65.7</ele>
        <time>2026-08-08T15:24:20.609Z</time>
      </trkpt>
      <trkpt lat="50.0932" lon="4.7382">
        <ele>64.21</ele>
        <time>2026-08-08T15:24:26.617Z</time>
      </trkpt>
      <trkpt lat="50.09314" lon="4.73887">
        <ele>62.58</ele>
        <time>2026-08-08T15:24:32.615Z</time>
      </trkpt>
      <trkpt lat="50.09306" lon="4.73955">
        <ele>62.76</ele>
        <time>2026-08-08T15:24:38.615Z</time>
      </trkpt>
      <trkpt lat="50.09291" lon="4.74019">
        <ele>63.42</ele>
        <time>2026-08-08T15:24:44.611Z</time>
      </trkpt>
      <trkpt lat="50.09271" lon="4.74083">
        <ele>63.18</ele>
        <time>2026-08-08T15:24:50.609Z</time>
      </trkpt>
      <trkpt lat="50.09252" lon="4.74139">
        <ele>63.52</ele>
        <time>2026-08-08T15:24:56.621Z</time>
      </trkpt>
      <trkpt lat="50.09239" lon="4.74197">
        <ele>64.23</ele>
        <time>2026-08-08T15:25:02.617Z</time>
      </trkpt>
      <trkpt lat="50.09225" lon="4.74256">
        <ele>63.57</ele>
        <time>2026-08-08T15:25:08.617Z</time>
      </trkpt>
      <trkpt lat="50.09211" lon="4.74318">
        <ele>63.57</ele>
        <time>2026-08-08T15:25:14.608Z</time>
      </trkpt>
      <trkpt lat="50.09196" lon="4.7438">
        <ele>63.19</ele>
        <time>2026-08-08T15:25:20.612Z</time>
      </trkpt>
      <trkpt lat="50.09181" lon="4.74442">
        <ele>63.92</ele>
        <time>2026-08-08T15:25:26.615Z</time>
      </trkpt>
      <trkpt lat="50.09169" lon="4.74505">
        <ele>64.5</ele>
        <time>2026-08-08T15:25:32.616Z</time>
      </trkpt>
      <trkpt lat="50.09158" lon="4.74571">
        <ele>65.09</ele>
        <time>2026-08-08T15:25:38.608Z</time>
      </trkpt>
      <trkpt lat="50.09151" lon="4.74637">
        <ele>64.89</ele>
        <time>2026-08-08T15:25:44.608Z</time>
      </trkpt>
      <trkpt lat="50.09145" lon="4.74701">
        <ele>65</ele>
        <time>2026-08-08T15:25:50.610Z</time>
      </trkpt>
      <trkpt lat="50.09143" lon="4.74767">
        <ele>65.74</ele>
        <time>2026-08-08T15:25:56.618Z</time>
      </trkpt>
      <trkpt lat="50.09141" lon="4.74832">
        <ele>65.74</ele>
        <time>2026-08-08T15:26:02.620Z</time>
      </trkpt>
      <trkpt lat="50.09146" lon="4.74896">
        <ele>66.03</ele>
        <time>2026-08-08T15:26:08.611Z</time>
      </trkpt>
      <trkpt lat="50.09148" lon="4.74955">
        <ele>65.27</ele>
        <time>2026-08-08T15:26:14.611Z</time>
      </trkpt>
      <trkpt lat="50.09153" lon="4.75016">
        <ele>63.45</ele>
        <time>2026-08-08T15:26:20.610Z</time>
      </trkpt>
      <trkpt lat="50.09158" lon="4.75082">
        <ele>62.46</ele>
        <time>2026-08-08T15:26:26.617Z</time>
      </trkpt>
      <trkpt lat="50.09165" lon="4.75146">
        <ele>60.4</ele>
        <time>2026-08-08T15:26:32.619Z</time>
      </trkpt>
      <trkpt lat="50.09173" lon="4.75207">
        <ele>59.08</ele>
        <time>2026-08-08T15:26:38.614Z</time>
      </trkpt>
      <trkpt lat="50.09183" lon="4.75267">
        <ele>58.73</ele>
        <time>2026-08-08T15:26:44.612Z</time>
      </trkpt>
      <trkpt lat="50.09194" lon="4.75327">
        <ele>60.54</ele>
        <time>2026-08-08T15:26:50.610Z</time>
      </trkpt>
      <trkpt lat="50.09205" lon="4.75388">
        <ele>62.28</ele>
        <time>2026-08-08T15:26:56.616Z</time>
      </trkpt>
      <trkpt lat="50.09219" lon="4.7545">
        <ele>63.89</ele>
        <time>2026-08-08T15:27:02.617Z</time>
      </trkpt>
      <trkpt lat="50.09236" lon="4.75513">
        <ele>64.52</ele>
        <time>2026-08-08T15:27:08.613Z</time>
      </trkpt>
      <trkpt lat="50.09252" lon="4.75578">
        <ele>62.81</ele>
        <time>2026-08-08T15:27:14.613Z</time>
      </trkpt>
      <trkpt lat="50.09272" lon="4.7564">
        <ele>63.27</ele>
        <time>2026-08-08T15:27:20.615Z</time>
      </trkpt>
      <trkpt lat="50.09293" lon="4.75695">
        <ele>62.77</ele>
        <time>2026-08-08T15:27:26.622Z</time>
      </trkpt>
      <trkpt lat="50.09317" lon="4.75749">
        <ele>62.2</ele>
        <time>2026-08-08T15:27:32.619Z</time>
      </trkpt>
      <trkpt lat="50.09342" lon="4.75799">
        <ele>60.89</ele>
        <time>2026-08-08T15:27:38.612Z</time>
      </trkpt>
      <trkpt lat="50.09367" lon="4.75848">
        <ele>62.21</ele>
        <time>2026-08-08T15:27:44.612Z</time>
      </trkpt>
      <trkpt lat="50.09393" lon="4.75898">
        <ele>61.26</ele>
        <time>2026-08-08T15:27:50.614Z</time>
      </trkpt>
      <trkpt lat="50.09418" lon="4.75948">
        <ele>61.22</ele>
        <time>2026-08-08T15:27:56.624Z</time>
      </trkpt>
      <trkpt lat="50.0944" lon="4.75996">
        <ele>61.42</ele>
        <time>2026-08-08T15:28:02.617Z</time>
      </trkpt>
      <trkpt lat="50.09463" lon="4.76046">
        <ele>60.39</ele>
        <time>2026-08-08T15:28:08.610Z</time>
      </trkpt>
      <trkpt lat="50.09486" lon="4.76094">
        <ele>59.36</ele>
        <time>2026-08-08T15:28:14.617Z</time>
      </trkpt>
      <trkpt lat="50.09511" lon="4.76143">
        <ele>58.91</ele>
        <time>2026-08-08T15:28:20.613Z</time>
      </trkpt>
      <trkpt lat="50.09533" lon="4.76193">
        <ele>58.8</ele>
        <time>2026-08-08T15:28:26.596Z</time>
      </trkpt>
      <trkpt lat="50.09561" lon="4.76238">
        <ele>60.46</ele>
        <time>2026-08-08T15:28:32.620Z</time>
      </trkpt>
      <trkpt lat="50.09589" lon="4.76282">
        <ele>60.99</ele>
        <time>2026-08-08T15:28:38.612Z</time>
      </trkpt>
      <trkpt lat="50.09617" lon="4.76327">
        <ele>59.94</ele>
        <time>2026-08-08T15:28:44.612Z</time>
      </trkpt>
      <trkpt lat="50.09646" lon="4.76374">
        <ele>59.88</ele>
        <time>2026-08-08T15:28:50.610Z</time>
      </trkpt>
      <trkpt lat="50.0967" lon="4.76418">
        <ele>59.1</ele>
        <time>2026-08-08T15:28:56.628Z</time>
      </trkpt>
      <trkpt lat="50.097" lon="4.76461">
        <ele>58.96</ele>
        <time>2026-08-08T15:29:02.615Z</time>
      </trkpt>
      <trkpt lat="50.0973" lon="4.765">
        <ele>58.5</ele>
        <time>2026-08-08T15:29:08.611Z</time>
      </trkpt>
      <trkpt lat="50.09764" lon="4.76537">
        <ele>58.77</ele>
        <time>2026-08-08T15:29:14.610Z</time>
      </trkpt>
      <trkpt lat="50.09799" lon="4.76565">
        <ele>60.93</ele>
        <time>2026-08-08T15:29:20.611Z</time>
      </trkpt>
      <trkpt lat="50.09835" lon="4.76593">
        <ele>60.71</ele>
        <time>2026-08-08T15:29:26.623Z</time>
      </trkpt>
      <trkpt lat="50.09871" lon="4.76615">
        <ele>61.52</ele>
        <time>2026-08-08T15:29:32.619Z</time>
      </trkpt>
      <trkpt lat="50.09908" lon="4.76635">
        <ele>61.5</ele>
        <time>2026-08-08T15:29:38.615Z</time>
      </trkpt>
      <trkpt lat="50.09944" lon="4.76648">
        <ele>62.36</ele>
        <time>2026-08-08T15:29:44.612Z</time>
      </trkpt>
      <trkpt lat="50.09983" lon="4.76659">
        <ele>62.8</ele>
        <time>2026-08-08T15:29:50.609Z</time>
      </trkpt>
      <trkpt lat="50.10024" lon="4.7666">
        <ele>63.32</ele>
        <time>2026-08-08T15:29:56.624Z</time>
      </trkpt>
      <trkpt lat="50.10067" lon="4.76664">
        <ele>63.64</ele>
        <time>2026-08-08T15:30:02.619Z</time>
      </trkpt>
      <trkpt lat="50.10108" lon="4.76666">
        <ele>62.71</ele>
        <time>2026-08-08T15:30:08.612Z</time>
      </trkpt>
      <trkpt lat="50.10148" lon="4.76663">
        <ele>62.15</ele>
        <time>2026-08-08T15:30:14.610Z</time>
      </trkpt>
      <trkpt lat="50.10186" lon="4.76668">
        <ele>61.47</ele>
        <time>2026-08-08T15:30:20.612Z</time>
      </trkpt>
      <trkpt lat="50.10229" lon="4.76668">
        <ele>61.42</ele>
        <time>2026-08-08T15:30:26.627Z</time>
      </trkpt>
      <trkpt lat="50.10271" lon="4.76672">
        <ele>62.23</ele>
        <time>2026-08-08T15:30:32.615Z</time>
      </trkpt>
      <trkpt lat="50.10309" lon="4.76677">
        <ele>62.79</ele>
        <time>2026-08-08T15:30:38.616Z</time>
      </trkpt>
      <trkpt lat="50.10346" lon="4.76687">
        <ele>61.25</ele>
        <time>2026-08-08T15:30:44.612Z</time>
      </trkpt>
      <trkpt lat="50.10379" lon="4.76696">
        <ele>59.78</ele>
        <time>2026-08-08T15:30:50.613Z</time>
      </trkpt>
      <trkpt lat="50.10415" lon="4.76708">
        <ele>59.83</ele>
        <time>2026-08-08T15:30:56.603Z</time>
      </trkpt>
      <trkpt lat="50.10455" lon="4.76714">
        <ele>59.04</ele>
        <time>2026-08-08T15:31:02.619Z</time>
      </trkpt>
      <trkpt lat="50.10494" lon="4.76721">
        <ele>61.55</ele>
        <time>2026-08-08T15:31:08.615Z</time>
      </trkpt>
      <trkpt lat="50.10531" lon="4.76723">
        <ele>62.31</ele>
        <time>2026-08-08T15:31:14.611Z</time>
      </trkpt>
      <trkpt lat="50.10564" lon="4.76746">
        <ele>62.87</ele>
        <time>2026-08-08T15:31:20.615Z</time>
      </trkpt>
      <trkpt lat="50.10558" lon="4.76809">
        <ele>62.8</ele>
        <time>2026-08-08T15:31:26.622Z</time>
      </trkpt>
      <trkpt lat="50.10584" lon="4.7685">
        <ele>62.09</ele>
        <time>2026-08-08T15:31:32.620Z</time>
      </trkpt>
      <trkpt lat="50.10624" lon="4.76874">
        <ele>61.42</ele>
        <time>2026-08-08T15:31:38.619Z</time>
      </trkpt>
      <trkpt lat="50.1066" lon="4.76899">
        <ele>64.05</ele>
        <time>2026-08-08T15:31:44.611Z</time>
      </trkpt>
      <trkpt lat="50.10694" lon="4.76915">
        <ele>64.19</ele>
        <time>2026-08-08T15:31:50.614Z</time>
      </trkpt>
      <trkpt lat="50.10728" lon="4.76932">
        <ele>63.9</ele>
        <time>2026-08-08T15:31:56.622Z</time>
      </trkpt>
      <trkpt lat="50.10769" lon="4.76936">
        <ele>62.78</ele>
        <time>2026-08-08T15:32:02.617Z</time>
      </trkpt>
      <trkpt lat="50.1081" lon="4.76948">
        <ele>61.41</ele>
        <time>2026-08-08T15:32:08.611Z</time>
      </trkpt>
      <trkpt lat="50.10844" lon="4.76974">
        <ele>61.47</ele>
        <time>2026-08-08T15:32:14.609Z</time>
      </trkpt>
      <trkpt lat="50.10828" lon="4.77029">
        <ele>61.66</ele>
        <time>2026-08-08T15:32:20.608Z</time>
      </trkpt>
      <trkpt lat="50.10811" lon="4.7708">
        <ele>63.91</ele>
        <time>2026-08-08T15:32:26.624Z</time>
      </trkpt>
      <trkpt lat="50.10825" lon="4.77122">
        <ele>63.22</ele>
        <time>2026-08-08T15:32:32.613Z</time>
      </trkpt>
      <trkpt lat="50.10865" lon="4.77137">
        <ele>62.92</ele>
        <time>2026-08-08T15:32:38.605Z</time>
      </trkpt>
      <trkpt lat="50.109" lon="4.77157">
        <ele>63.01</ele>
        <time>2026-08-08T15:32:44.609Z</time>
      </trkpt>
      <trkpt lat="50.10937" lon="4.77185">
        <ele>62.18</ele>
        <time>2026-08-08T15:32:50.615Z</time>
      </trkpt>
      <trkpt lat="50.10974" lon="4.77213">
        <ele>62.31</ele>
        <time>2026-08-08T15:32:56.623Z</time>
      </trkpt>
      <trkpt lat="50.11009" lon="4.77243">
        <ele>61.53</ele>
        <time>2026-08-08T15:33:02.620Z</time>
      </trkpt>
      <trkpt lat="50.11047" lon="4.77269">
        <ele>60.51</ele>
        <time>2026-08-08T15:33:08.610Z</time>
      </trkpt>
      <trkpt lat="50.11082" lon="4.77293">
        <ele>59.83</ele>
        <time>2026-08-08T15:33:14.609Z</time>
      </trkpt>
      <trkpt lat="50.11116" lon="4.77321">
        <ele>60.43</ele>
        <time>2026-08-08T15:33:20.612Z</time>
      </trkpt>
      <trkpt lat="50.11145" lon="4.77361">
        <ele>61.51</ele>
        <time>2026-08-08T15:33:26.623Z</time>
      </trkpt>
      <trkpt lat="50.11159" lon="4.77408">
        <ele>60.05</ele>
        <time>2026-08-08T15:33:32.623Z</time>
      </trkpt>
      <trkpt lat="50.11171" lon="4.7745">
        <ele>59.63</ele>
        <time>2026-08-08T15:33:38.613Z</time>
      </trkpt>
      <trkpt lat="50.1118" lon="4.77489">
        <ele>55.06</ele>
        <time>2026-08-08T15:33:44.611Z</time>
      </trkpt>
      <trkpt lat="50.11199" lon="4.77526">
        <ele>51.88</ele>
        <time>2026-08-08T15:33:50.609Z</time>
      </trkpt>
      <trkpt lat="50.11224" lon="4.77566">
        <ele>53.72</ele>
        <time>2026-08-08T15:33:56.622Z</time>
      </trkpt>
      <trkpt lat="50.11247" lon="4.77602">
        <ele>54.57</ele>
        <time>2026-08-08T15:34:02.617Z</time>
      </trkpt>
      <trkpt lat="50.11277" lon="4.77646">
        <ele>56.52</ele>
        <time>2026-08-08T15:34:08.609Z</time>
      </trkpt>
      <trkpt lat="50.1131" lon="4.777">
        <ele>56.95</ele>
        <time>2026-08-08T15:34:14.612Z</time>
      </trkpt>
      <trkpt lat="50.11341" lon="4.77755">
        <ele>57.35</ele>
        <time>2026-08-08T15:34:20.616Z</time>
      </trkpt>
      <trkpt lat="50.11365" lon="4.77805">
        <ele>58.74</ele>
        <time>2026-08-08T15:34:26.622Z</time>
      </trkpt>
      <trkpt lat="50.11384" lon="4.77854">
        <ele>59.15</ele>
        <time>2026-08-08T15:34:32.631Z</time>
      </trkpt>
      <trkpt lat="50.11399" lon="4.77905">
        <ele>60.18</ele>
        <time>2026-08-08T15:34:38.608Z</time>
      </trkpt>
      <trkpt lat="50.11408" lon="4.77952">
        <ele>61.11</ele>
        <time>2026-08-08T15:34:44.612Z</time>
      </trkpt>
      <trkpt lat="50.11416" lon="4.77991">
        <ele>62.23</ele>
        <time>2026-08-08T15:34:50.612Z</time>
      </trkpt>
      <trkpt lat="50.11423" lon="4.78018">
        <ele>63.21</ele>
        <time>2026-08-08T15:34:56.623Z</time>
      </trkpt>
      <trkpt lat="50.11422" lon="4.78035">
        <ele>61.29</ele>
        <time>2026-08-08T15:37:07.606Z</time>
      </trkpt>
      <trkpt lat="50.11418" lon="4.78052">
        <ele>109.74</ele>
        <time>2026-08-08T15:37:13.558Z</time>
      </trkpt>
      <trkpt lat="50.11407" lon="4.78063">
        <ele>109.76</ele>
        <time>2026-08-08T15:37:18.573Z</time>
      </trkpt>
      <trkpt lat="50.11392" lon="4.78059">
        <ele>109.76</ele>
        <time>2026-08-08T15:37:23.586Z</time>
      </trkpt>
      <trkpt lat="50.11371" lon="4.78059">
        <ele>109.76</ele>
        <time>2026-08-08T15:37:29.586Z</time>
      </trkpt>
      <trkpt lat="50.1135" lon="4.78067">
        <ele>109.76</ele>
        <time>2026-08-08T15:37:35.562Z</time>
      </trkpt>
      <trkpt lat="50.11333" lon="4.78081">
        <ele>109.36</ele>
        <time>2026-08-08T15:37:40.578Z</time>
      </trkpt>
      <trkpt lat="50.1132" lon="4.78087">
        <ele>109.35</ele>
        <time>2026-08-08T15:37:46.562Z</time>
      </trkpt>
      <trkpt lat="50.11311" lon="4.78093">
        <ele>109.35</ele>
        <time>2026-08-08T15:37:51.562Z</time>
      </trkpt>
      <trkpt lat="50.11301" lon="4.78092">
        <ele>113.1</ele>
        <time>2026-08-08T15:37:57.568Z</time>
      </trkpt>
      <trkpt lat="50.11291" lon="4.78091">
        <ele>114.35</ele>
        <time>2026-08-08T15:38:02.626Z</time>
      </trkpt>
      <trkpt lat="50.11281" lon="4.78083">
        <ele>114.35</ele>
        <time>2026-08-08T15:38:08.635Z</time>
      </trkpt>
      <trkpt lat="50.11271" lon="4.78084">
        <ele>117.73</ele>
        <time>2026-08-08T15:38:15.578Z</time>
      </trkpt>
      <trkpt lat="50.11261" lon="4.78083">
        <ele>118.85</ele>
        <time>2026-08-08T15:38:21.554Z</time>
      </trkpt>
      <trkpt lat="50.11253" lon="4.78069">
        <ele>118.85</ele>
        <time>2026-08-08T15:38:27.571Z</time>
      </trkpt>
      <trkpt lat="50.11246" lon="4.78058">
        <ele>118.85</ele>
        <time>2026-08-08T15:38:34.563Z</time>
      </trkpt>
      <trkpt lat="50.11245" lon="4.78043">
        <ele>118.85</ele>
        <time>2026-08-08T15:38:42.565Z</time>
      </trkpt>
      <trkpt lat="50.11249" lon="4.7803">
        <ele>119.25</ele>
        <time>2026-08-08T15:38:47.565Z</time>
      </trkpt>
      <trkpt lat="50.11242" lon="4.78042">
        <ele>119.29</ele>
        <time>2026-08-08T15:39:01.557Z</time>
      </trkpt>
      <trkpt lat="50.11242" lon="4.78069">
        <ele>119.25</ele>
        <time>2026-08-08T15:39:06.567Z</time>
      </trkpt>
      <trkpt lat="50.11243" lon="4.7809">
        <ele>119.25</ele>
        <time>2026-08-08T15:39:11.578Z</time>
      </trkpt>
      <trkpt lat="50.1125" lon="4.781">
        <ele>119.85</ele>
        <time>2026-08-08T15:39:26.630Z</time>
      </trkpt>
      <trkpt lat="50.11271" lon="4.78107">
        <ele>119.25</ele>
        <time>2026-08-08T15:39:32.639Z</time>
      </trkpt>
      <trkpt lat="50.11294" lon="4.78114">
        <ele>119.25</ele>
        <time>2026-08-08T15:39:38.620Z</time>
      </trkpt>
      <trkpt lat="50.11304" lon="4.78113">
        <ele>114.66</ele>
        <time>2026-08-08T15:39:47.561Z</time>
      </trkpt>
      <trkpt lat="50.11311" lon="4.78129">
        <ele>114.35</ele>
        <time>2026-08-08T15:39:52.562Z</time>
      </trkpt>
      <trkpt lat="50.11318" lon="4.7816">
        <ele>113.75</ele>
        <time>2026-08-08T15:39:58.553Z</time>
      </trkpt>
      <trkpt lat="50.11315" lon="4.78186">
        <ele>113.75</ele>
        <time>2026-08-08T15:40:03.571Z</time>
      </trkpt>
      <trkpt lat="50.1131" lon="4.78219">
        <ele>113.75</ele>
        <time>2026-08-08T15:40:08.626Z</time>
      </trkpt>
      <trkpt lat="50.11305" lon="4.7826">
        <ele>112.7</ele>
        <time>2026-08-08T15:40:14.638Z</time>
      </trkpt>
      <trkpt lat="50.11291" lon="4.78266">
        <ele>112.35</ele>
        <time>2026-08-08T15:40:20.633Z</time>
      </trkpt>
      <trkpt lat="50.11278" lon="4.7826">
        <ele>112.35</ele>
        <time>2026-08-08T15:40:26.622Z</time>
      </trkpt>
      <trkpt lat="50.11266" lon="4.78258">
        <ele>112.35</ele>
        <time>2026-08-08T15:40:32.634Z</time>
      </trkpt>
      <trkpt lat="50.11253" lon="4.78258">
        <ele>112.35</ele>
        <time>2026-08-08T15:40:38.637Z</time>
      </trkpt>
      <trkpt lat="50.11241" lon="4.78253">
        <ele>112.35</ele>
        <time>2026-08-08T15:40:44.641Z</time>
      </trkpt>
      <trkpt lat="50.1123" lon="4.78249">
        <ele>112.35</ele>
        <time>2026-08-08T15:40:50.637Z</time>
      </trkpt>
      <trkpt lat="50.11219" lon="4.78252">
        <ele>112.35</ele>
        <time>2026-08-08T15:40:56.609Z</time>
      </trkpt>
      <trkpt lat="50.11214" lon="4.78241">
        <ele>112.35</ele>
        <time>2026-08-08T15:41:02.638Z</time>
      </trkpt>
      <trkpt lat="50.11214" lon="4.78226">
        <ele>72.62</ele>
        <time>2026-08-08T15:43:02.622Z</time>
      </trkpt>
      <trkpt lat="50.11214" lon="4.78243">
        <ele>110.04</ele>
        <time>2026-08-08T15:46:37.649Z</time>
      </trkpt>
      <trkpt lat="50.11204" lon="4.7824">
        <ele>73.85</ele>
        <time>2026-08-08T15:55:08.617Z</time>
      </trkpt>
      <trkpt lat="50.11212" lon="4.78245">
        <ele>67.05</ele>
        <time>2026-08-08T15:58:29.602Z</time>
      </trkpt>
      <trkpt lat="50.11211" lon="4.7823">
        <ele>70.32</ele>
        <time>2026-08-08T16:02:21.553Z</time>
      </trkpt>
      <trkpt lat="50.1122" lon="4.78237">
        <ele>112.45</ele>
        <time>2026-08-08T16:09:51.577Z</time>
      </trkpt>
      <trkpt lat="50.11219" lon="4.78251">
        <ele>112.45</ele>
        <time>2026-08-08T16:11:22.070Z</time>
      </trkpt>
      <trkpt lat="50.11236" lon="4.78253">
        <ele>112.45</ele>
        <time>2026-08-08T16:11:27.555Z</time>
      </trkpt>
      <trkpt lat="50.11255" lon="4.78258">
        <ele>112.45</ele>
        <time>2026-08-08T16:11:32.977Z</time>
      </trkpt>
      <trkpt lat="50.11278" lon="4.7826">
        <ele>112.45</ele>
        <time>2026-08-08T16:11:38.617Z</time>
      </trkpt>
      <trkpt lat="50.11305" lon="4.78265">
        <ele>112.45</ele>
        <time>2026-08-08T16:11:44.617Z</time>
      </trkpt>
      <trkpt lat="50.11316" lon="4.78285">
        <ele>62.39</ele>
        <time>2026-08-08T16:11:50.616Z</time>
      </trkpt>
      <trkpt lat="50.11324" lon="4.783">
        <ele>63.31</ele>
        <time>2026-08-08T16:11:56.623Z</time>
      </trkpt>
      <trkpt lat="50.1134" lon="4.78321">
        <ele>64.95</ele>
        <time>2026-08-08T16:12:02.710Z</time>
      </trkpt>
      <trkpt lat="50.11349" lon="4.78338">
        <ele>65.93</ele>
        <time>2026-08-08T16:12:08.650Z</time>
      </trkpt>
      <trkpt lat="50.11359" lon="4.78353">
        <ele>64.24</ele>
        <time>2026-08-08T16:12:14.618Z</time>
      </trkpt>
      <trkpt lat="50.11376" lon="4.78371">
        <ele>64.24</ele>
        <time>2026-08-08T16:12:20.614Z</time>
      </trkpt>
      <trkpt lat="50.11392" lon="4.78391">
        <ele>64.87</ele>
        <time>2026-08-08T16:12:26.627Z</time>
      </trkpt>
      <trkpt lat="50.11409" lon="4.78412">
        <ele>65.54</ele>
        <time>2026-08-08T16:12:32.627Z</time>
      </trkpt>
      <trkpt lat="50.11423" lon="4.7843">
        <ele>65.02</ele>
        <time>2026-08-08T16:12:38.619Z</time>
      </trkpt>
      <trkpt lat="50.11437" lon="4.78447">
        <ele>64.91</ele>
        <time>2026-08-08T16:12:44.617Z</time>
      </trkpt>
      <trkpt lat="50.11451" lon="4.78461">
        <ele>64.51</ele>
        <time>2026-08-08T16:12:50.614Z</time>
      </trkpt>
      <trkpt lat="50.11463" lon="4.78474">
        <ele>65.26</ele>
        <time>2026-08-08T16:12:56.618Z</time>
      </trkpt>
      <trkpt lat="50.11477" lon="4.78487">
        <ele>65.53</ele>
        <time>2026-08-08T16:13:02.615Z</time>
      </trkpt>
      <trkpt lat="50.11493" lon="4.78507">
        <ele>63.23</ele>
        <time>2026-08-08T16:13:08.617Z</time>
      </trkpt>
      <trkpt lat="50.11513" lon="4.7853">
        <ele>60.35</ele>
        <time>2026-08-08T16:13:14.623Z</time>
      </trkpt>
      <trkpt lat="50.11533" lon="4.78544">
        <ele>58.14</ele>
        <time>2026-08-08T16:13:20.620Z</time>
      </trkpt>
      <trkpt lat="50.11546" lon="4.78539">
        <ele>58.01</ele>
        <time>2026-08-08T16:13:26.616Z</time>
      </trkpt>
      <trkpt lat="50.11555" lon="4.78532">
        <ele>61.25</ele>
        <time>2026-08-08T16:13:33.561Z</time>
      </trkpt>
      <trkpt lat="50.11563" lon="4.78523">
        <ele>64.28</ele>
        <time>2026-08-08T16:13:39.552Z</time>
      </trkpt>
      <trkpt lat="50.11573" lon="4.78518">
        <ele>67.05</ele>
        <time>2026-08-08T16:13:45.558Z</time>
      </trkpt>
      <trkpt lat="50.11583" lon="4.78515">
        <ele>68.5</ele>
        <time>2026-08-08T16:13:50.619Z</time>
      </trkpt>
      <trkpt lat="50.11593" lon="4.78511">
        <ele>69.79</ele>
        <time>2026-08-08T16:13:56.615Z</time>
      </trkpt>
      <trkpt lat="50.11604" lon="4.78506">
        <ele>71.64</ele>
        <time>2026-08-08T16:14:02.620Z</time>
      </trkpt>
      <trkpt lat="50.11614" lon="4.785">
        <ele>73.13</ele>
        <time>2026-08-08T16:14:08.617Z</time>
      </trkpt>
      <trkpt lat="50.11624" lon="4.78498">
        <ele>74.57</ele>
        <time>2026-08-08T16:14:15.556Z</time>
      </trkpt>
      <trkpt lat="50.11633" lon="4.78493">
        <ele>75.96</ele>
        <time>2026-08-08T16:14:21.559Z</time>
      </trkpt>
      <trkpt lat="50.1164" lon="4.78483">
        <ele>76.01</ele>
        <time>2026-08-08T16:14:27.560Z</time>
      </trkpt>
      <trkpt lat="50.11648" lon="4.78474">
        <ele>74.56</ele>
        <time>2026-08-08T16:14:33.562Z</time>
      </trkpt>
      <trkpt lat="50.11647" lon="4.78456">
        <ele>72.21</ele>
        <time>2026-08-08T16:14:38.620Z</time>
      </trkpt>
      <trkpt lat="50.11636" lon="4.7843">
        <ele>68.61</ele>
        <time>2026-08-08T16:14:44.620Z</time>
      </trkpt>
      <trkpt lat="50.11623" lon="4.78406">
        <ele>64.89</ele>
        <time>2026-08-08T16:14:50.613Z</time>
      </trkpt>
      <trkpt lat="50.11603" lon="4.78371">
        <ele>60.15</ele>
        <time>2026-08-08T16:14:56.631Z</time>
      </trkpt>
      <trkpt lat="50.11589" lon="4.7835">
        <ele>56.39</ele>
        <time>2026-08-08T16:15:02.618Z</time>
      </trkpt>
      <trkpt lat="50.11596" lon="4.78361">
        <ele>60.09</ele>
        <time>2026-08-08T16:19:27.557Z</time>
      </trkpt>
      <trkpt lat="50.11603" lon="4.7837">
        <ele>61.16</ele>
        <time>2026-08-08T16:19:33.567Z</time>
      </trkpt>
      <trkpt lat="50.11609" lon="4.78382">
        <ele>62.02</ele>
        <time>2026-08-08T16:19:40.572Z</time>
      </trkpt>
      <trkpt lat="50.11615" lon="4.78393">
        <ele>62.27</ele>
        <time>2026-08-08T16:19:46.563Z</time>
      </trkpt>
      <trkpt lat="50.11623" lon="4.78402">
        <ele>62.65</ele>
        <time>2026-08-08T16:19:54.562Z</time>
      </trkpt>
      <trkpt lat="50.11629" lon="4.78414">
        <ele>64.47</ele>
        <time>2026-08-08T16:20:02.624Z</time>
      </trkpt>
      <trkpt lat="50.11635" lon="4.78426">
        <ele>67.47</ele>
        <time>2026-08-08T16:20:11.557Z</time>
      </trkpt>
      <trkpt lat="50.11641" lon="4.78438">
        <ele>69.44</ele>
        <time>2026-08-08T16:20:20.621Z</time>
      </trkpt>
      <trkpt lat="50.11647" lon="4.78449">
        <ele>71.45</ele>
        <time>2026-08-08T16:20:28.559Z</time>
      </trkpt>
      <trkpt lat="50.1165" lon="4.78462">
        <ele>74.38</ele>
        <time>2026-08-08T16:20:37.565Z</time>
      </trkpt>
      <trkpt lat="50.11648" lon="4.78477">
        <ele>76.77</ele>
        <time>2026-08-08T16:20:47.562Z</time>
      </trkpt>
      <trkpt lat="50.11642" lon="4.78488">
        <ele>76.75</ele>
        <time>2026-08-08T16:20:55.561Z</time>
      </trkpt>
      <trkpt lat="50.11636" lon="4.78499">
        <ele>77.16</ele>
        <time>2026-08-08T16:21:02.622Z</time>
      </trkpt>
      <trkpt lat="50.11645" lon="4.78499">
        <ele>79.58</ele>
        <time>2026-08-08T16:21:12.563Z</time>
      </trkpt>
      <trkpt lat="50.11654" lon="4.78496">
        <ele>80.2</ele>
        <time>2026-08-08T16:21:23.569Z</time>
      </trkpt>
      <trkpt lat="50.11663" lon="4.78502">
        <ele>80.11</ele>
        <time>2026-08-08T16:21:51.565Z</time>
      </trkpt>
      <trkpt lat="50.11672" lon="4.78507">
        <ele>80.08</ele>
        <time>2026-08-08T16:21:57.556Z</time>
      </trkpt>
      <trkpt lat="50.11682" lon="4.78512">
        <ele>80.9</ele>
        <time>2026-08-08T16:22:04.560Z</time>
      </trkpt>
      <trkpt lat="50.11692" lon="4.78516">
        <ele>81.35</ele>
        <time>2026-08-08T16:22:12.559Z</time>
      </trkpt>
      <trkpt lat="50.11701" lon="4.78521">
        <ele>81.65</ele>
        <time>2026-08-08T16:22:20.623Z</time>
      </trkpt>
      <trkpt lat="50.11709" lon="4.78529">
        <ele>82.52</ele>
        <time>2026-08-08T16:22:28.558Z</time>
      </trkpt>
      <trkpt lat="50.11717" lon="4.78538">
        <ele>83.95</ele>
        <time>2026-08-08T16:22:35.559Z</time>
      </trkpt>
      <trkpt lat="50.11723" lon="4.78551">
        <ele>84.73</ele>
        <time>2026-08-08T16:22:42.560Z</time>
      </trkpt>
      <trkpt lat="50.11727" lon="4.78566">
        <ele>85.69</ele>
        <time>2026-08-08T16:22:48.566Z</time>
      </trkpt>
      <trkpt lat="50.11729" lon="4.7858">
        <ele>86.74</ele>
        <time>2026-08-08T16:22:54.558Z</time>
      </trkpt>
      <trkpt lat="50.1173" lon="4.78595">
        <ele>87.29</ele>
        <time>2026-08-08T16:22:59.563Z</time>
      </trkpt>
      <trkpt lat="50.11729" lon="4.78614">
        <ele>88.67</ele>
        <time>2026-08-08T16:23:05.558Z</time>
      </trkpt>
      <trkpt lat="50.11728" lon="4.78629">
        <ele>89.59</ele>
        <time>2026-08-08T16:23:11.559Z</time>
      </trkpt>
      <trkpt lat="50.11728" lon="4.78644">
        <ele>90.52</ele>
        <time>2026-08-08T16:23:17.562Z</time>
      </trkpt>
      <trkpt lat="50.11726" lon="4.78661">
        <ele>91.88</ele>
        <time>2026-08-08T16:23:23.581Z</time>
      </trkpt>
      <trkpt lat="50.11725" lon="4.78675">
        <ele>91.53</ele>
        <time>2026-08-08T16:23:30.593Z</time>
      </trkpt>
      <trkpt lat="50.11725" lon="4.78689">
        <ele>91.14</ele>
        <time>2026-08-08T16:23:36.544Z</time>
      </trkpt>
      <trkpt lat="50.11725" lon="4.78705">
        <ele>89.59</ele>
        <time>2026-08-08T16:23:42.563Z</time>
      </trkpt>
      <trkpt lat="50.11722" lon="4.78722">
        <ele>92.51</ele>
        <time>2026-08-08T16:23:48.558Z</time>
      </trkpt>
      <trkpt lat="50.11721" lon="4.78736">
        <ele>91.85</ele>
        <time>2026-08-08T16:23:53.593Z</time>
      </trkpt>
      <trkpt lat="50.11719" lon="4.78753">
        <ele>90.79</ele>
        <time>2026-08-08T16:23:59.562Z</time>
      </trkpt>
      <trkpt lat="50.11718" lon="4.78773">
        <ele>90.5</ele>
        <time>2026-08-08T16:24:04.564Z</time>
      </trkpt>
      <trkpt lat="50.11713" lon="4.78798">
        <ele>90.75</ele>
        <time>2026-08-08T16:24:10.545Z</time>
      </trkpt>
      <trkpt lat="50.11709" lon="4.7882">
        <ele>91.7</ele>
        <time>2026-08-08T16:24:15.547Z</time>
      </trkpt>
      <trkpt lat="50.11702" lon="4.78841">
        <ele>91.62</ele>
        <time>2026-08-08T16:24:20.621Z</time>
      </trkpt>
      <trkpt lat="50.11695" lon="4.78867">
        <ele>90.58</ele>
        <time>2026-08-08T16:24:26.624Z</time>
      </trkpt>
      <trkpt lat="50.11686" lon="4.78894">
        <ele>90.43</ele>
        <time>2026-08-08T16:24:32.616Z</time>
      </trkpt>
      <trkpt lat="50.11675" lon="4.78912">
        <ele>90.28</ele>
        <time>2026-08-08T16:24:38.612Z</time>
      </trkpt>
      <trkpt lat="50.11665" lon="4.78924">
        <ele>90.67</ele>
        <time>2026-08-08T16:25:39.557Z</time>
      </trkpt>
      <trkpt lat="50.11655" lon="4.78922">
        <ele>93.78</ele>
        <time>2026-08-08T16:26:07.552Z</time>
      </trkpt>
      <trkpt lat="50.1164" lon="4.78913">
        <ele>94.97</ele>
        <time>2026-08-08T16:26:13.560Z</time>
      </trkpt>
      <trkpt lat="50.11625" lon="4.78907">
        <ele>93.54</ele>
        <time>2026-08-08T16:26:18.562Z</time>
      </trkpt>
      <trkpt lat="50.11611" lon="4.78906">
        <ele>91.78</ele>
        <time>2026-08-08T16:26:24.546Z</time>
      </trkpt>
      <trkpt lat="50.11599" lon="4.78903">
        <ele>90.1</ele>
        <time>2026-08-08T16:26:29.572Z</time>
      </trkpt>
      <trkpt lat="50.11585" lon="4.789">
        <ele>91.05</ele>
        <time>2026-08-08T16:26:35.551Z</time>
      </trkpt>
      <trkpt lat="50.11572" lon="4.78897">
        <ele>93.73</ele>
        <time>2026-08-08T16:26:41.546Z</time>
      </trkpt>
      <trkpt lat="50.11561" lon="4.78895">
        <ele>94.58</ele>
        <time>2026-08-08T16:26:46.554Z</time>
      </trkpt>
      <trkpt lat="50.11546" lon="4.78899">
        <ele>95.4</ele>
        <time>2026-08-08T16:26:52.545Z</time>
      </trkpt>
      <trkpt lat="50.11536" lon="4.78898">
        <ele>95.44</ele>
        <time>2026-08-08T16:26:57.558Z</time>
      </trkpt>
      <trkpt lat="50.11523" lon="4.78901">
        <ele>96.52</ele>
        <time>2026-08-08T16:27:02.610Z</time>
      </trkpt>
      <trkpt lat="50.11505" lon="4.78902">
        <ele>95.99</ele>
        <time>2026-08-08T16:27:08.613Z</time>
      </trkpt>
      <trkpt lat="50.11487" lon="4.78904">
        <ele>96.87</ele>
        <time>2026-08-08T16:27:14.615Z</time>
      </trkpt>
      <trkpt lat="50.11468" lon="4.78909">
        <ele>98.41</ele>
        <time>2026-08-08T16:27:20.638Z</time>
      </trkpt>
      <trkpt lat="50.11451" lon="4.7891">
        <ele>98.49</ele>
        <time>2026-08-08T16:27:26.622Z</time>
      </trkpt>
      <trkpt lat="50.11435" lon="4.78913">
        <ele>98.7</ele>
        <time>2026-08-08T16:27:32.619Z</time>
      </trkpt>
      <trkpt lat="50.1142" lon="4.78914">
        <ele>98.03</ele>
        <time>2026-08-08T16:27:38.612Z</time>
      </trkpt>
      <trkpt lat="50.114" lon="4.78919">
        <ele>96.39</ele>
        <time>2026-08-08T16:27:44.611Z</time>
      </trkpt>
      <trkpt lat="50.11376" lon="4.78928">
        <ele>95.33</ele>
        <time>2026-08-08T16:27:50.614Z</time>
      </trkpt>
      <trkpt lat="50.1135" lon="4.78937">
        <ele>95.17</ele>
        <time>2026-08-08T16:27:56.615Z</time>
      </trkpt>
      <trkpt lat="50.11322" lon="4.78948">
        <ele>93.77</ele>
        <time>2026-08-08T16:28:02.613Z</time>
      </trkpt>
      <trkpt lat="50.11293" lon="4.7896">
        <ele>92.16</ele>
        <time>2026-08-08T16:28:08.606Z</time>
      </trkpt>
      <trkpt lat="50.11263" lon="4.78975">
        <ele>91.57</ele>
        <time>2026-08-08T16:28:14.614Z</time>
      </trkpt>
      <trkpt lat="50.11232" lon="4.78995">
        <ele>90.58</ele>
        <time>2026-08-08T16:28:20.613Z</time>
      </trkpt>
      <trkpt lat="50.11201" lon="4.79022">
        <ele>90.03</ele>
        <time>2026-08-08T16:28:26.608Z</time>
      </trkpt>
      <trkpt lat="50.11166" lon="4.79056">
        <ele>89.22</ele>
        <time>2026-08-08T16:28:32.641Z</time>
      </trkpt>
      <trkpt lat="50.11134" lon="4.79085">
        <ele>88.39</ele>
        <time>2026-08-08T16:28:38.629Z</time>
      </trkpt>
      <trkpt lat="50.11108" lon="4.79119">
        <ele>88.11</ele>
        <time>2026-08-08T16:28:44.640Z</time>
      </trkpt>
      <trkpt lat="50.11085" lon="4.79161">
        <ele>88.33</ele>
        <time>2026-08-08T16:28:50.649Z</time>
      </trkpt>
      <trkpt lat="50.11063" lon="4.79205">
        <ele>87.66</ele>
        <time>2026-08-08T16:28:56.619Z</time>
      </trkpt>
      <trkpt lat="50.11039" lon="4.7925">
        <ele>87.99</ele>
        <time>2026-08-08T16:29:02.632Z</time>
      </trkpt>
      <trkpt lat="50.11017" lon="4.79299">
        <ele>86.57</ele>
        <time>2026-08-08T16:29:08.631Z</time>
      </trkpt>
      <trkpt lat="50.10999" lon="4.79356">
        <ele>87.45</ele>
        <time>2026-08-08T16:29:14.631Z</time>
      </trkpt>
      <trkpt lat="50.10983" lon="4.79412">
        <ele>85.95</ele>
        <time>2026-08-08T16:29:20.638Z</time>
      </trkpt>
      <trkpt lat="50.1096" lon="4.79464">
        <ele>83.66</ele>
        <time>2026-08-08T16:29:26.639Z</time>
      </trkpt>
      <trkpt lat="50.10935" lon="4.79506">
        <ele>83.47</ele>
        <time>2026-08-08T16:29:32.667Z</time>
      </trkpt>
      <trkpt lat="50.10912" lon="4.79545">
        <ele>83.62</ele>
        <time>2026-08-08T16:29:38.630Z</time>
      </trkpt>
      <trkpt lat="50.10889" lon="4.79589">
        <ele>81.99</ele>
        <time>2026-08-08T16:29:44.639Z</time>
      </trkpt>
      <trkpt lat="50.10865" lon="4.79635">
        <ele>82.06</ele>
        <time>2026-08-08T16:29:50.639Z</time>
      </trkpt>
      <trkpt lat="50.10841" lon="4.79677">
        <ele>81.77</ele>
        <time>2026-08-08T16:29:56.640Z</time>
      </trkpt>
      <trkpt lat="50.10821" lon="4.79715">
        <ele>81.09</ele>
        <time>2026-08-08T16:30:02.628Z</time>
      </trkpt>
      <trkpt lat="50.10805" lon="4.79742">
        <ele>81.75</ele>
        <time>2026-08-08T16:30:08.646Z</time>
      </trkpt>
      <trkpt lat="50.10797" lon="4.79733">
        <ele>83.39</ele>
        <time>2026-08-08T16:30:15.579Z</time>
      </trkpt>
      <trkpt lat="50.10801" lon="4.79718">
        <ele>81.6</ele>
        <time>2026-08-08T16:30:20.631Z</time>
      </trkpt>
      <trkpt lat="50.10811" lon="4.79691">
        <ele>78.07</ele>
        <time>2026-08-08T16:30:26.638Z</time>
      </trkpt>
      <trkpt lat="50.10821" lon="4.79663">
        <ele>74.79</ele>
        <time>2026-08-08T16:30:32.637Z</time>
      </trkpt>
      <trkpt lat="50.10831" lon="4.79632">
        <ele>71.52</ele>
        <time>2026-08-08T16:30:38.631Z</time>
      </trkpt>
      <trkpt lat="50.10835" lon="4.79619">
        <ele>69.89</ele>
        <time>2026-08-08T16:30:45.560Z</time>
      </trkpt>
      <trkpt lat="50.10841" lon="4.79603">
        <ele>68.23</ele>
        <time>2026-08-08T16:30:50.632Z</time>
      </trkpt>
      <trkpt lat="50.1085" lon="4.79579">
        <ele>65.91</ele>
        <time>2026-08-08T16:30:56.629Z</time>
      </trkpt>
      <trkpt lat="50.10862" lon="4.79552">
        <ele>63.94</ele>
        <time>2026-08-08T16:31:02.622Z</time>
      </trkpt>
      <trkpt lat="50.10869" lon="4.79529">
        <ele>61.88</ele>
        <time>2026-08-08T16:31:08.636Z</time>
      </trkpt>
      <trkpt lat="50.10873" lon="4.7951">
        <ele>61.56</ele>
        <time>2026-08-08T16:31:38.639Z</time>
      </trkpt>
      <trkpt lat="50.10882" lon="4.79481">
        <ele>61.33</ele>
        <time>2026-08-08T16:31:44.624Z</time>
      </trkpt>
      <trkpt lat="50.1089" lon="4.79458">
        <ele>57.99</ele>
        <time>2026-08-08T16:31:50.631Z</time>
      </trkpt>
      <trkpt lat="50.10896" lon="4.79436">
        <ele>56.61</ele>
        <time>2026-08-08T16:31:56.649Z</time>
      </trkpt>
      <trkpt lat="50.10901" lon="4.79421">
        <ele>58.13</ele>
        <time>2026-08-08T16:32:04.558Z</time>
      </trkpt>
      <trkpt lat="50.1091" lon="4.79412">
        <ele>59.45</ele>
        <time>2026-08-08T16:32:10.560Z</time>
      </trkpt>
      <trkpt lat="50.10917" lon="4.794">
        <ele>60.21</ele>
        <time>2026-08-08T16:32:15.563Z</time>
      </trkpt>
      <trkpt lat="50.10925" lon="4.79384">
        <ele>60.17</ele>
        <time>2026-08-08T16:32:20.637Z</time>
      </trkpt>
      <trkpt lat="50.10933" lon="4.79365">
        <ele>59.81</ele>
        <time>2026-08-08T16:32:26.636Z</time>
      </trkpt>
      <trkpt lat="50.10941" lon="4.79345">
        <ele>60.35</ele>
        <time>2026-08-08T16:32:32.632Z</time>
      </trkpt>
      <trkpt lat="50.10948" lon="4.79326">
        <ele>62.01</ele>
        <time>2026-08-08T16:32:38.625Z</time>
      </trkpt>
      <trkpt lat="50.10953" lon="4.79299">
        <ele>63.62</ele>
        <time>2026-08-08T16:32:44.625Z</time>
      </trkpt>
      <trkpt lat="50.10962" lon="4.7929">
        <ele>62.4</ele>
        <time>2026-08-08T16:32:50.627Z</time>
      </trkpt>
      <trkpt lat="50.10967" lon="4.79272">
        <ele>59.88</ele>
        <time>2026-08-08T16:32:56.634Z</time>
      </trkpt>
      <trkpt lat="50.10972" lon="4.79253">
        <ele>57.55</ele>
        <time>2026-08-08T16:33:02.615Z</time>
      </trkpt>
      <trkpt lat="50.10977" lon="4.79239">
        <ele>58.24</ele>
        <time>2026-08-08T16:33:08.628Z</time>
      </trkpt>
      <trkpt lat="50.10984" lon="4.79221">
        <ele>58.59</ele>
        <time>2026-08-08T16:33:14.630Z</time>
      </trkpt>
      <trkpt lat="50.1099" lon="4.79203">
        <ele>59.51</ele>
        <time>2026-08-08T16:33:20.626Z</time>
      </trkpt>
      <trkpt lat="50.10993" lon="4.79188">
        <ele>61.57</ele>
        <time>2026-08-08T16:33:26.618Z</time>
      </trkpt>
      <trkpt lat="50.11002" lon="4.79178">
        <ele>62.45</ele>
        <time>2026-08-08T16:33:32.633Z</time>
      </trkpt>
      <trkpt lat="50.11001" lon="4.79164">
        <ele>63.34</ele>
        <time>2026-08-08T16:34:26.610Z</time>
      </trkpt>
      <trkpt lat="50.10994" lon="4.79156">
        <ele>77.34</ele>
        <time>2026-08-08T16:43:51.555Z</time>
      </trkpt>
      <trkpt lat="50.11001" lon="4.79166">
        <ele>71.85</ele>
        <time>2026-08-08T16:48:13.559Z</time>
      </trkpt>
      <trkpt lat="50.10993" lon="4.79176">
        <ele>75.27</ele>
        <time>2026-08-08T16:51:43.037Z</time>
      </trkpt>
      <trkpt lat="50.10994" lon="4.79193">
        <ele>71.7</ele>
        <time>2026-08-08T16:51:49.281Z</time>
      </trkpt>
      <trkpt lat="50.1099" lon="4.79209">
        <ele>69.08</ele>
        <time>2026-08-08T16:51:54.580Z</time>
      </trkpt>
      <trkpt lat="50.10988" lon="4.79224">
        <ele>66.5</ele>
        <time>2026-08-08T16:52:20.925Z</time>
      </trkpt>
      <trkpt lat="50.10984" lon="4.7924">
        <ele>65.25</ele>
        <time>2026-08-08T16:52:26.172Z</time>
      </trkpt>
      <trkpt lat="50.10971" lon="4.79263">
        <ele>65.2</ele>
        <time>2026-08-08T16:52:31.576Z</time>
      </trkpt>
      <trkpt lat="50.10967" lon="4.79277">
        <ele>64.64</ele>
        <time>2026-08-08T16:52:36.687Z</time>
      </trkpt>
      <trkpt lat="50.10961" lon="4.79293">
        <ele>63.75</ele>
        <time>2026-08-08T16:52:42.146Z</time>
      </trkpt>
      <trkpt lat="50.10955" lon="4.7931">
        <ele>63.66</ele>
        <time>2026-08-08T16:52:47.332Z</time>
      </trkpt>
      <trkpt lat="50.10949" lon="4.79326">
        <ele>62.47</ele>
        <time>2026-08-08T16:52:52.851Z</time>
      </trkpt>
      <trkpt lat="50.10942" lon="4.79344">
        <ele>60.8</ele>
        <time>2026-08-08T16:52:58.048Z</time>
      </trkpt>
      <trkpt lat="50.10936" lon="4.79361">
        <ele>60.93</ele>
        <time>2026-08-08T16:53:03.446Z</time>
      </trkpt>
      <trkpt lat="50.10928" lon="4.79378">
        <ele>61.64</ele>
        <time>2026-08-08T16:53:08.637Z</time>
      </trkpt>
      <trkpt lat="50.10922" lon="4.79396">
        <ele>61.44</ele>
        <time>2026-08-08T16:53:14.172Z</time>
      </trkpt>
      <trkpt lat="50.10915" lon="4.79414">
        <ele>61.29</ele>
        <time>2026-08-08T16:53:19.589Z</time>
      </trkpt>
      <trkpt lat="50.10906" lon="4.79425">
        <ele>62.03</ele>
        <time>2026-08-08T16:53:25.029Z</time>
      </trkpt>
      <trkpt lat="50.10898" lon="4.79434">
        <ele>62.02</ele>
        <time>2026-08-08T16:53:30.225Z</time>
      </trkpt>
      <trkpt lat="50.10888" lon="4.79453">
        <ele>63.95</ele>
        <time>2026-08-08T16:53:35.251Z</time>
      </trkpt>
      <trkpt lat="50.10885" lon="4.79466">
        <ele>65.13</ele>
        <time>2026-08-08T16:53:42.553Z</time>
      </trkpt>
      <trkpt lat="50.10883" lon="4.7948">
        <ele>65.53</ele>
        <time>2026-08-08T16:53:48.555Z</time>
      </trkpt>
      <trkpt lat="50.10878" lon="4.79499">
        <ele>67.47</ele>
        <time>2026-08-08T16:53:53.571Z</time>
      </trkpt>
      <trkpt lat="50.10875" lon="4.79514">
        <ele>68.62</ele>
        <time>2026-08-08T16:54:01.577Z</time>
      </trkpt>
      <trkpt lat="50.10865" lon="4.79521">
        <ele>70.41</ele>
        <time>2026-08-08T16:54:09.579Z</time>
      </trkpt>
      <trkpt lat="50.10848" lon="4.79515">
        <ele>70.02</ele>
        <time>2026-08-08T16:54:14.636Z</time>
      </trkpt>
      <trkpt lat="50.10826" lon="4.79519">
        <ele>67.81</ele>
        <time>2026-08-08T16:54:20.616Z</time>
      </trkpt>
      <trkpt lat="50.10807" lon="4.79525">
        <ele>66.05</ele>
        <time>2026-08-08T16:54:26.634Z</time>
      </trkpt>
      <trkpt lat="50.10793" lon="4.79527">
        <ele>64.3</ele>
        <time>2026-08-08T16:54:32.637Z</time>
      </trkpt>
      <trkpt lat="50.10779" lon="4.79527">
        <ele>64.17</ele>
        <time>2026-08-08T16:54:38.632Z</time>
      </trkpt>
      <trkpt lat="50.10765" lon="4.79532">
        <ele>63.66</ele>
        <time>2026-08-08T16:54:44.637Z</time>
      </trkpt>
      <trkpt lat="50.10748" lon="4.79535">
        <ele>63.67</ele>
        <time>2026-08-08T16:54:50.633Z</time>
      </trkpt>
      <trkpt lat="50.10731" lon="4.79536">
        <ele>62.46</ele>
        <time>2026-08-08T16:54:56.638Z</time>
      </trkpt>
      <trkpt lat="50.10716" lon="4.79537">
        <ele>61.65</ele>
        <time>2026-08-08T16:55:02.634Z</time>
      </trkpt>
      <trkpt lat="50.10699" lon="4.79538">
        <ele>64.26</ele>
        <time>2026-08-08T16:55:08.634Z</time>
      </trkpt>
      <trkpt lat="50.10685" lon="4.79539">
        <ele>63.74</ele>
        <time>2026-08-08T16:55:14.634Z</time>
      </trkpt>
      <trkpt lat="50.10674" lon="4.7954">
        <ele>63</ele>
        <time>2026-08-08T16:55:20.618Z</time>
      </trkpt>
      <trkpt lat="50.10663" lon="4.7954">
        <ele>62.75</ele>
        <time>2026-08-08T16:55:26.642Z</time>
      </trkpt>
      <trkpt lat="50.10652" lon="4.79539">
        <ele>62.76</ele>
        <time>2026-08-08T16:55:32.631Z</time>
      </trkpt>
      <trkpt lat="50.10638" lon="4.79538">
        <ele>61.3</ele>
        <time>2026-08-08T16:55:38.634Z</time>
      </trkpt>
      <trkpt lat="50.10625" lon="4.79536">
        <ele>60.77</ele>
        <time>2026-08-08T16:55:44.641Z</time>
      </trkpt>
      <trkpt lat="50.10612" lon="4.79535">
        <ele>62.14</ele>
        <time>2026-08-08T16:55:50.641Z</time>
      </trkpt>
      <trkpt lat="50.10596" lon="4.79533">
        <ele>62.04</ele>
        <time>2026-08-08T16:55:56.608Z</time>
      </trkpt>
      <trkpt lat="50.10578" lon="4.79531">
        <ele>63.64</ele>
        <time>2026-08-08T16:56:02.614Z</time>
      </trkpt>
      <trkpt lat="50.10564" lon="4.79522">
        <ele>62.99</ele>
        <time>2026-08-08T16:56:08.633Z</time>
      </trkpt>
      <trkpt lat="50.1055" lon="4.79519">
        <ele>63.1</ele>
        <time>2026-08-08T16:56:14.630Z</time>
      </trkpt>
      <trkpt lat="50.10534" lon="4.79515">
        <ele>63.44</ele>
        <time>2026-08-08T16:56:20.636Z</time>
      </trkpt>
      <trkpt lat="50.10517" lon="4.79513">
        <ele>62.89</ele>
        <time>2026-08-08T16:56:26.638Z</time>
      </trkpt>
      <trkpt lat="50.10502" lon="4.79511">
        <ele>62.06</ele>
        <time>2026-08-08T16:56:32.628Z</time>
      </trkpt>
      <trkpt lat="50.10486" lon="4.79506">
        <ele>63.59</ele>
        <time>2026-08-08T16:56:38.632Z</time>
      </trkpt>
      <trkpt lat="50.10469" lon="4.79503">
        <ele>64.07</ele>
        <time>2026-08-08T16:56:44.630Z</time>
      </trkpt>
      <trkpt lat="50.10457" lon="4.79498">
        <ele>62.99</ele>
        <time>2026-08-08T16:56:50.632Z</time>
      </trkpt>
      <trkpt lat="50.1045" lon="4.79506">
        <ele>61.09</ele>
        <time>2026-08-08T16:56:57.557Z</time>
      </trkpt>
      <trkpt lat="50.10447" lon="4.79493">
        <ele>62.63</ele>
        <time>2026-08-08T16:58:56.610Z</time>
      </trkpt>
      <trkpt lat="50.10457" lon="4.79494">
        <ele>62.46</ele>
        <time>2026-08-08T17:00:30.560Z</time>
      </trkpt>
      <trkpt lat="50.10471" lon="4.795">
        <ele>61.03</ele>
        <time>2026-08-08T17:00:36.559Z</time>
      </trkpt>
      <trkpt lat="50.10488" lon="4.79505">
        <ele>59.91</ele>
        <time>2026-08-08T17:00:41.579Z</time>
      </trkpt>
      <trkpt lat="50.10505" lon="4.79509">
        <ele>60.28</ele>
        <time>2026-08-08T17:00:47.565Z</time>
      </trkpt>
      <trkpt lat="50.10518" lon="4.79512">
        <ele>61.77</ele>
        <time>2026-08-08T17:00:52.577Z</time>
      </trkpt>
      <trkpt lat="50.10533" lon="4.79517">
        <ele>61.86</ele>
        <time>2026-08-08T17:00:58.574Z</time>
      </trkpt>
      <trkpt lat="50.10546" lon="4.79519">
        <ele>61.15</ele>
        <time>2026-08-08T17:01:03.575Z</time>
      </trkpt>
      <trkpt lat="50.10558" lon="4.79523">
        <ele>60.83</ele>
        <time>2026-08-08T17:01:08.620Z</time>
      </trkpt>
      <trkpt lat="50.10574" lon="4.79526">
        <ele>62.6</ele>
        <time>2026-08-08T17:01:14.635Z</time>
      </trkpt>
      <trkpt lat="50.10591" lon="4.79533">
        <ele>61.54</ele>
        <time>2026-08-08T17:01:20.617Z</time>
      </trkpt>
      <trkpt lat="50.1061" lon="4.79536">
        <ele>61.4</ele>
        <time>2026-08-08T17:01:26.622Z</time>
      </trkpt>
      <trkpt lat="50.10627" lon="4.79533">
        <ele>63.19</ele>
        <time>2026-08-08T17:01:32.640Z</time>
      </trkpt>
      <trkpt lat="50.10637" lon="4.79537">
        <ele>63.18</ele>
        <time>2026-08-08T17:01:38.635Z</time>
      </trkpt>
      <trkpt lat="50.10652" lon="4.7954">
        <ele>62.96</ele>
        <time>2026-08-08T17:01:44.633Z</time>
      </trkpt>
      <trkpt lat="50.10667" lon="4.79539">
        <ele>61.92</ele>
        <time>2026-08-08T17:01:50.635Z</time>
      </trkpt>
      <trkpt lat="50.10683" lon="4.79539">
        <ele>60.41</ele>
        <time>2026-08-08T17:01:56.639Z</time>
      </trkpt>
      <trkpt lat="50.107" lon="4.79539">
        <ele>59.32</ele>
        <time>2026-08-08T17:02:02.625Z</time>
      </trkpt>
      <trkpt lat="50.10718" lon="4.79539">
        <ele>61.54</ele>
        <time>2026-08-08T17:02:08.634Z</time>
      </trkpt>
      <trkpt lat="50.10737" lon="4.79536">
        <ele>61.3</ele>
        <time>2026-08-08T17:02:14.632Z</time>
      </trkpt>
      <trkpt lat="50.10752" lon="4.79533">
        <ele>61.9</ele>
        <time>2026-08-08T17:02:20.636Z</time>
      </trkpt>
      <trkpt lat="50.10771" lon="4.79531">
        <ele>61.1</ele>
        <time>2026-08-08T17:02:26.640Z</time>
      </trkpt>
      <trkpt lat="50.10784" lon="4.79526">
        <ele>60.88</ele>
        <time>2026-08-08T17:02:32.632Z</time>
      </trkpt>
      <trkpt lat="50.10794" lon="4.79526">
        <ele>59.84</ele>
        <time>2026-08-08T17:02:44.621Z</time>
      </trkpt>
      <trkpt lat="50.10805" lon="4.79525">
        <ele>61.06</ele>
        <time>2026-08-08T17:03:39.560Z</time>
      </trkpt>
      <trkpt lat="50.1082" lon="4.79524">
        <ele>61.8</ele>
        <time>2026-08-08T17:03:44.622Z</time>
      </trkpt>
      <trkpt lat="50.10836" lon="4.79518">
        <ele>60.67</ele>
        <time>2026-08-08T17:03:50.633Z</time>
      </trkpt>
      <trkpt lat="50.10848" lon="4.79518">
        <ele>61.31</ele>
        <time>2026-08-08T17:03:56.638Z</time>
      </trkpt>
      <trkpt lat="50.10859" lon="4.79515">
        <ele>64.28</ele>
        <time>2026-08-08T17:04:02.633Z</time>
      </trkpt>
      <trkpt lat="50.1087" lon="4.79516">
        <ele>66.07</ele>
        <time>2026-08-08T17:04:08.631Z</time>
      </trkpt>
      <trkpt lat="50.10877" lon="4.79505">
        <ele>67.9</ele>
        <time>2026-08-08T17:04:18.561Z</time>
      </trkpt>
      <trkpt lat="50.10883" lon="4.79486">
        <ele>68.21</ele>
        <time>2026-08-08T17:04:24.559Z</time>
      </trkpt>
      <trkpt lat="50.10888" lon="4.79465">
        <ele>66.72</ele>
        <time>2026-08-08T17:04:29.577Z</time>
      </trkpt>
      <trkpt lat="50.10896" lon="4.79442">
        <ele>65.82</ele>
        <time>2026-08-08T17:04:35.558Z</time>
      </trkpt>
      <trkpt lat="50.10902" lon="4.7943">
        <ele>63.58</ele>
        <time>2026-08-08T17:04:40.572Z</time>
      </trkpt>
      <trkpt lat="50.10911" lon="4.79423">
        <ele>63.22</ele>
        <time>2026-08-08T17:04:45.573Z</time>
      </trkpt>
      <trkpt lat="50.1092" lon="4.79412">
        <ele>62.05</ele>
        <time>2026-08-08T17:04:50.633Z</time>
      </trkpt>
      <trkpt lat="50.10929" lon="4.79392">
        <ele>58.34</ele>
        <time>2026-08-08T17:04:56.623Z</time>
      </trkpt>
      <trkpt lat="50.10935" lon="4.79371">
        <ele>59.46</ele>
        <time>2026-08-08T17:05:02.633Z</time>
      </trkpt>
      <trkpt lat="50.10943" lon="4.79357">
        <ele>59.76</ele>
        <time>2026-08-08T17:05:08.635Z</time>
      </trkpt>
      <trkpt lat="50.10949" lon="4.79336">
        <ele>60.51</ele>
        <time>2026-08-08T17:05:14.633Z</time>
      </trkpt>
      <trkpt lat="50.10955" lon="4.79315">
        <ele>63.11</ele>
        <time>2026-08-08T17:05:20.634Z</time>
      </trkpt>
      <trkpt lat="50.10962" lon="4.79296">
        <ele>62.95</ele>
        <time>2026-08-08T17:05:26.614Z</time>
      </trkpt>
      <trkpt lat="50.10967" lon="4.79274">
        <ele>63.5</ele>
        <time>2026-08-08T17:05:32.617Z</time>
      </trkpt>
      <trkpt lat="50.10975" lon="4.79258">
        <ele>62.4</ele>
        <time>2026-08-08T17:05:38.631Z</time>
      </trkpt>
      <trkpt lat="50.10982" lon="4.7924">
        <ele>61.78</ele>
        <time>2026-08-08T17:05:44.636Z</time>
      </trkpt>
      <trkpt lat="50.10988" lon="4.79221">
        <ele>61.02</ele>
        <time>2026-08-08T17:05:50.631Z</time>
      </trkpt>
      <trkpt lat="50.10995" lon="4.79204">
        <ele>62.19</ele>
        <time>2026-08-08T17:05:56.632Z</time>
      </trkpt>
      <trkpt lat="50.10998" lon="4.7919">
        <ele>65.18</ele>
        <time>2026-08-08T17:06:02.618Z</time>
      </trkpt>
      <trkpt lat="50.11005" lon="4.7917">
        <ele>67.03</ele>
        <time>2026-08-08T17:06:08.632Z</time>
      </trkpt>
      <trkpt lat="50.1101" lon="4.79157">
        <ele>68.7</ele>
        <time>2026-08-08T17:06:16.571Z</time>
      </trkpt>
      <trkpt lat="50.11016" lon="4.79146">
        <ele>67.81</ele>
        <time>2026-08-08T17:06:22.576Z</time>
      </trkpt>
      <trkpt lat="50.11024" lon="4.79138">
        <ele>67.39</ele>
        <time>2026-08-08T17:06:28.559Z</time>
      </trkpt>
      <trkpt lat="50.10975" lon="4.79253">
        <ele>58.37</ele>
        <time>2026-08-09T05:51:35.789Z</time>
      </trkpt>
      <trkpt lat="50.1097" lon="4.7927">
        <ele>64.38</ele>
        <time>2026-08-09T05:51:40.796Z</time>
      </trkpt>
      <trkpt lat="50.10966" lon="4.79285">
        <ele>65.92</ele>
        <time>2026-08-09T05:51:46.802Z</time>
      </trkpt>
      <trkpt lat="50.10961" lon="4.79299">
        <ele>69.59</ele>
        <time>2026-08-09T05:51:52.787Z</time>
      </trkpt>
      <trkpt lat="50.10957" lon="4.79313">
        <ele>71.87</ele>
        <time>2026-08-09T05:51:58.788Z</time>
      </trkpt>
      <trkpt lat="50.1095" lon="4.79324">
        <ele>56.04</ele>
        <time>2026-08-09T05:52:10.783Z</time>
      </trkpt>
      <trkpt lat="50.10945" lon="4.79337">
        <ele>55.35</ele>
        <time>2026-08-09T05:52:16.783Z</time>
      </trkpt>
      <trkpt lat="50.1094" lon="4.79349">
        <ele>54.77</ele>
        <time>2026-08-09T05:52:21.784Z</time>
      </trkpt>
      <trkpt lat="50.10935" lon="4.79362">
        <ele>54.06</ele>
        <time>2026-08-09T05:52:27.776Z</time>
      </trkpt>
      <trkpt lat="50.1093" lon="4.79374">
        <ele>53.84</ele>
        <time>2026-08-09T05:52:32.785Z</time>
      </trkpt>
      <trkpt lat="50.10925" lon="4.79386">
        <ele>53.55</ele>
        <time>2026-08-09T05:52:37.794Z</time>
      </trkpt>
      <trkpt lat="50.1092" lon="4.79399">
        <ele>53.91</ele>
        <time>2026-08-09T05:52:43.804Z</time>
      </trkpt>
      <trkpt lat="50.10914" lon="4.79411">
        <ele>53.61</ele>
        <time>2026-08-09T05:52:50.781Z</time>
      </trkpt>
      <trkpt lat="50.10907" lon="4.79423">
        <ele>52.58</ele>
        <time>2026-08-09T05:52:56.779Z</time>
      </trkpt>
      <trkpt lat="50.10899" lon="4.79434">
        <ele>52.15</ele>
        <time>2026-08-09T05:53:01.783Z</time>
      </trkpt>
      <trkpt lat="50.10892" lon="4.79448">
        <ele>51.72</ele>
        <time>2026-08-09T05:53:06.783Z</time>
      </trkpt>
      <trkpt lat="50.10888" lon="4.79463">
        <ele>51.28</ele>
        <time>2026-08-09T05:53:12.782Z</time>
      </trkpt>
      <trkpt lat="50.10884" lon="4.79475">
        <ele>51.71</ele>
        <time>2026-08-09T05:53:18.777Z</time>
      </trkpt>
      <trkpt lat="50.10881" lon="4.79491">
        <ele>52.14</ele>
        <time>2026-08-09T05:53:25.786Z</time>
      </trkpt>
      <trkpt lat="50.10878" lon="4.79505">
        <ele>52.68</ele>
        <time>2026-08-09T05:53:32.784Z</time>
      </trkpt>
      <trkpt lat="50.10875" lon="4.7952">
        <ele>53.6</ele>
        <time>2026-08-09T05:53:40.785Z</time>
      </trkpt>
      <trkpt lat="50.1087" lon="4.79532">
        <ele>54.41</ele>
        <time>2026-08-09T05:53:48.780Z</time>
      </trkpt>
      <trkpt lat="50.10865" lon="4.79545">
        <ele>54.54</ele>
        <time>2026-08-09T05:53:56.781Z</time>
      </trkpt>
      <trkpt lat="50.1086" lon="4.79558">
        <ele>55.03</ele>
        <time>2026-08-09T05:54:03.778Z</time>
      </trkpt>
      <trkpt lat="50.10854" lon="4.7957">
        <ele>56.2</ele>
        <time>2026-08-09T05:54:11.833Z</time>
      </trkpt>
      <trkpt lat="50.1085" lon="4.79582">
        <ele>57.85</ele>
        <time>2026-08-09T05:54:18.770Z</time>
      </trkpt>
      <trkpt lat="50.10845" lon="4.79594">
        <ele>59.17</ele>
        <time>2026-08-09T05:54:25.780Z</time>
      </trkpt>
      <trkpt lat="50.1084" lon="4.79608">
        <ele>60</ele>
        <time>2026-08-09T05:54:33.782Z</time>
      </trkpt>
      <trkpt lat="50.10835" lon="4.7962">
        <ele>60.87</ele>
        <time>2026-08-09T05:54:41.770Z</time>
      </trkpt>
      <trkpt lat="50.1083" lon="4.79633">
        <ele>62.57</ele>
        <time>2026-08-09T05:54:50.796Z</time>
      </trkpt>
      <trkpt lat="50.10826" lon="4.79646">
        <ele>63.6</ele>
        <time>2026-08-09T05:54:58.771Z</time>
      </trkpt>
      <trkpt lat="50.10822" lon="4.79659">
        <ele>65.14</ele>
        <time>2026-08-09T05:55:07.794Z</time>
      </trkpt>
      <trkpt lat="50.10818" lon="4.79672">
        <ele>66.48</ele>
        <time>2026-08-09T05:55:15.777Z</time>
      </trkpt>
      <trkpt lat="50.10813" lon="4.79685">
        <ele>68.57</ele>
        <time>2026-08-09T05:55:24.772Z</time>
      </trkpt>
      <trkpt lat="50.10809" lon="4.79697">
        <ele>69.97</ele>
        <time>2026-08-09T05:55:33.782Z</time>
      </trkpt>
      <trkpt lat="50.10804" lon="4.7971">
        <ele>71.36</ele>
        <time>2026-08-09T05:55:43.790Z</time>
      </trkpt>
      <trkpt lat="50.10799" lon="4.79723">
        <ele>70.96</ele>
        <time>2026-08-09T05:55:55.771Z</time>
      </trkpt>
      <trkpt lat="50.10804" lon="4.79736">
        <ele>69.47</ele>
        <time>2026-08-09T05:56:08.771Z</time>
      </trkpt>
      <trkpt lat="50.10797" lon="4.79748">
        <ele>127.86</ele>
        <time>2026-08-09T05:57:31.894Z</time>
      </trkpt>
      <trkpt lat="50.10789" lon="4.79757">
        <ele>127.55</ele>
        <time>2026-08-09T05:59:55.825Z</time>
      </trkpt>
      <trkpt lat="50.10778" lon="4.79766">
        <ele>127.61</ele>
        <time>2026-08-09T06:00:01.470Z</time>
      </trkpt>
      <trkpt lat="50.10765" lon="4.79775">
        <ele>127.64</ele>
        <time>2026-08-09T06:00:06.808Z</time>
      </trkpt>
      <trkpt lat="50.10752" lon="4.79788">
        <ele>127.64</ele>
        <time>2026-08-09T06:00:12.754Z</time>
      </trkpt>
      <trkpt lat="50.1074" lon="4.79796">
        <ele>127.64</ele>
        <time>2026-08-09T06:00:17.760Z</time>
      </trkpt>
      <trkpt lat="50.10734" lon="4.79808">
        <ele>127.64</ele>
        <time>2026-08-09T06:00:23.758Z</time>
      </trkpt>
      <trkpt lat="50.10745" lon="4.79831">
        <ele>127.64</ele>
        <time>2026-08-09T06:00:29.755Z</time>
      </trkpt>
      <trkpt lat="50.1075" lon="4.79853">
        <ele>127.64</ele>
        <time>2026-08-09T06:00:34.758Z</time>
      </trkpt>
      <trkpt lat="50.10769" lon="4.79865">
        <ele>127.63</ele>
        <time>2026-08-09T06:00:39.764Z</time>
      </trkpt>
      <trkpt lat="50.1077" lon="4.79896">
        <ele>127.63</ele>
        <time>2026-08-09T06:00:44.767Z</time>
      </trkpt>
      <trkpt lat="50.10746" lon="4.79943">
        <ele>127.63</ele>
        <time>2026-08-09T06:00:49.768Z</time>
      </trkpt>
      <trkpt lat="50.10716" lon="4.80016">
        <ele>127.63</ele>
        <time>2026-08-09T06:00:55.754Z</time>
      </trkpt>
      <trkpt lat="50.10686" lon="4.80079">
        <ele>127.63</ele>
        <time>2026-08-09T06:01:00.758Z</time>
      </trkpt>
      <trkpt lat="50.10659" lon="4.80131">
        <ele>127.63</ele>
        <time>2026-08-09T06:01:05.768Z</time>
      </trkpt>
      <trkpt lat="50.10623" lon="4.8018">
        <ele>127.63</ele>
        <time>2026-08-09T06:01:11.761Z</time>
      </trkpt>
      <trkpt lat="50.10594" lon="4.80216">
        <ele>127.63</ele>
        <time>2026-08-09T06:01:16.766Z</time>
      </trkpt>
      <trkpt lat="50.10568" lon="4.80251">
        <ele>127.63</ele>
        <time>2026-08-09T06:01:21.771Z</time>
      </trkpt>
      <trkpt lat="50.10542" lon="4.80292">
        <ele>127.63</ele>
        <time>2026-08-09T06:01:27.754Z</time>
      </trkpt>
      <trkpt lat="50.10524" lon="4.80327">
        <ele>58.84</ele>
        <time>2026-08-09T06:01:32.758Z</time>
      </trkpt>
      <trkpt lat="50.10508" lon="4.80359">
        <ele>56.21</ele>
        <time>2026-08-09T06:01:37.761Z</time>
      </trkpt>
      <trkpt lat="50.10499" lon="4.80385">
        <ele>56.85</ele>
        <time>2026-08-09T06:01:43.761Z</time>
      </trkpt>
      <trkpt lat="50.10489" lon="4.80418">
        <ele>56.48</ele>
        <time>2026-08-09T06:01:49.761Z</time>
      </trkpt>
      <trkpt lat="50.10483" lon="4.80449">
        <ele>57.07</ele>
        <time>2026-08-09T06:01:54.761Z</time>
      </trkpt>
      <trkpt lat="50.10476" lon="4.80486">
        <ele>57.81</ele>
        <time>2026-08-09T06:02:00.758Z</time>
      </trkpt>
      <trkpt lat="50.10469" lon="4.80522">
        <ele>55.21</ele>
        <time>2026-08-09T06:02:06.769Z</time>
      </trkpt>
      <trkpt lat="50.10463" lon="4.80554">
        <ele>55.5</ele>
        <time>2026-08-09T06:02:12.757Z</time>
      </trkpt>
      <trkpt lat="50.10469" lon="4.80576">
        <ele>56.67</ele>
        <time>2026-08-09T06:02:17.761Z</time>
      </trkpt>
      <trkpt lat="50.10486" lon="4.80564">
        <ele>55.56</ele>
        <time>2026-08-09T06:02:22.767Z</time>
      </trkpt>
      <trkpt lat="50.10504" lon="4.8055">
        <ele>56.66</ele>
        <time>2026-08-09T06:02:27.793Z</time>
      </trkpt>
      <trkpt lat="50.10527" lon="4.80524">
        <ele>58.07</ele>
        <time>2026-08-09T06:02:33.831Z</time>
      </trkpt>
      <trkpt lat="50.10552" lon="4.80505">
        <ele>59.3</ele>
        <time>2026-08-09T06:02:39.776Z</time>
      </trkpt>
      <trkpt lat="50.10571" lon="4.80485">
        <ele>55.43</ele>
        <time>2026-08-09T06:02:45.768Z</time>
      </trkpt>
      <trkpt lat="50.10596" lon="4.80457">
        <ele>55.6</ele>
        <time>2026-08-09T06:02:51.768Z</time>
      </trkpt>
      <trkpt lat="50.10618" lon="4.80443">
        <ele>58.01</ele>
        <time>2026-08-09T06:02:56.768Z</time>
      </trkpt>
      <trkpt lat="50.1064" lon="4.80425">
        <ele>57.76</ele>
        <time>2026-08-09T06:03:01.770Z</time>
      </trkpt>
      <trkpt lat="50.10672" lon="4.80402">
        <ele>58.73</ele>
        <time>2026-08-09T06:03:07.799Z</time>
      </trkpt>
      <trkpt lat="50.10702" lon="4.8038">
        <ele>58.87</ele>
        <time>2026-08-09T06:03:13.800Z</time>
      </trkpt>
      <trkpt lat="50.10732" lon="4.80358">
        <ele>57.26</ele>
        <time>2026-08-09T06:03:19.798Z</time>
      </trkpt>
      <trkpt lat="50.10762" lon="4.80335">
        <ele>55.98</ele>
        <time>2026-08-09T06:03:25.768Z</time>
      </trkpt>
      <trkpt lat="50.10787" lon="4.8032">
        <ele>55.59</ele>
        <time>2026-08-09T06:03:31.818Z</time>
      </trkpt>
      <trkpt lat="50.10798" lon="4.80324">
        <ele>56.86</ele>
        <time>2026-08-09T06:03:37.797Z</time>
      </trkpt>
      <trkpt lat="50.10788" lon="4.8032">
        <ele>56.59</ele>
        <time>2026-08-09T06:03:43.801Z</time>
      </trkpt>
      <trkpt lat="50.10776" lon="4.80328">
        <ele>56.29</ele>
        <time>2026-08-09T06:03:49.802Z</time>
      </trkpt>
      <trkpt lat="50.10767" lon="4.80337">
        <ele>56.76</ele>
        <time>2026-08-09T06:03:55.829Z</time>
      </trkpt>
      <trkpt lat="50.10776" lon="4.80329">
        <ele>60.16</ele>
        <time>2026-08-09T06:07:17.772Z</time>
      </trkpt>
      <trkpt lat="50.10791" lon="4.80318">
        <ele>58.48</ele>
        <time>2026-08-09T06:07:22.773Z</time>
      </trkpt>
      <trkpt lat="50.10814" lon="4.80303">
        <ele>57.75</ele>
        <time>2026-08-09T06:07:28.775Z</time>
      </trkpt>
      <trkpt lat="50.10839" lon="4.80287">
        <ele>57.6</ele>
        <time>2026-08-09T06:07:34.775Z</time>
      </trkpt>
      <trkpt lat="50.10865" lon="4.80271">
        <ele>57.07</ele>
        <time>2026-08-09T06:07:40.770Z</time>
      </trkpt>
      <trkpt lat="50.10892" lon="4.80254">
        <ele>56.37</ele>
        <time>2026-08-09T06:07:46.769Z</time>
      </trkpt>
      <trkpt lat="50.1092" lon="4.80237">
        <ele>55.19</ele>
        <time>2026-08-09T06:07:52.765Z</time>
      </trkpt>
      <trkpt lat="50.10948" lon="4.8022">
        <ele>54.58</ele>
        <time>2026-08-09T06:07:58.772Z</time>
      </trkpt>
      <trkpt lat="50.10974" lon="4.80201">
        <ele>54.71</ele>
        <time>2026-08-09T06:08:04.771Z</time>
      </trkpt>
      <trkpt lat="50.11001" lon="4.80178">
        <ele>54.38</ele>
        <time>2026-08-09T06:08:10.769Z</time>
      </trkpt>
      <trkpt lat="50.11028" lon="4.80155">
        <ele>55.89</ele>
        <time>2026-08-09T06:08:16.764Z</time>
      </trkpt>
      <trkpt lat="50.1105" lon="4.80134">
        <ele>56.54</ele>
        <time>2026-08-09T06:08:21.773Z</time>
      </trkpt>
      <trkpt lat="50.11076" lon="4.80108">
        <ele>56.7</ele>
        <time>2026-08-09T06:08:27.767Z</time>
      </trkpt>
      <trkpt lat="50.11098" lon="4.80085">
        <ele>56.55</ele>
        <time>2026-08-09T06:08:32.769Z</time>
      </trkpt>
      <trkpt lat="50.1112" lon="4.80062">
        <ele>56.17</ele>
        <time>2026-08-09T06:08:37.814Z</time>
      </trkpt>
      <trkpt lat="50.11147" lon="4.80035">
        <ele>55.96</ele>
        <time>2026-08-09T06:08:43.815Z</time>
      </trkpt>
      <trkpt lat="50.11173" lon="4.80009">
        <ele>55</ele>
        <time>2026-08-09T06:08:49.816Z</time>
      </trkpt>
      <trkpt lat="50.11198" lon="4.79982">
        <ele>54.69</ele>
        <time>2026-08-09T06:08:55.827Z</time>
      </trkpt>
      <trkpt lat="50.11223" lon="4.79955">
        <ele>55.14</ele>
        <time>2026-08-09T06:09:01.828Z</time>
      </trkpt>
      <trkpt lat="50.11248" lon="4.79928">
        <ele>55.55</ele>
        <time>2026-08-09T06:09:07.813Z</time>
      </trkpt>
      <trkpt lat="50.11276" lon="4.79903">
        <ele>55.7</ele>
        <time>2026-08-09T06:09:13.813Z</time>
      </trkpt>
      <trkpt lat="50.11306" lon="4.7988">
        <ele>55.35</ele>
        <time>2026-08-09T06:09:19.818Z</time>
      </trkpt>
      <trkpt lat="50.11338" lon="4.79855">
        <ele>55.05</ele>
        <time>2026-08-09T06:09:25.830Z</time>
      </trkpt>
      <trkpt lat="50.11371" lon="4.79828">
        <ele>55.02</ele>
        <time>2026-08-09T06:09:31.807Z</time>
      </trkpt>
      <trkpt lat="50.11403" lon="4.79805">
        <ele>55.2</ele>
        <time>2026-08-09T06:09:37.818Z</time>
      </trkpt>
      <trkpt lat="50.11434" lon="4.79788">
        <ele>54.77</ele>
        <time>2026-08-09T06:09:43.816Z</time>
      </trkpt>
      <trkpt lat="50.11466" lon="4.79779">
        <ele>54.38</ele>
        <time>2026-08-09T06:09:49.818Z</time>
      </trkpt>
      <trkpt lat="50.11497" lon="4.79778">
        <ele>53.77</ele>
        <time>2026-08-09T06:09:55.830Z</time>
      </trkpt>
      <trkpt lat="50.11527" lon="4.79777">
        <ele>53.18</ele>
        <time>2026-08-09T06:10:01.829Z</time>
      </trkpt>
      <trkpt lat="50.11558" lon="4.79773">
        <ele>53.01</ele>
        <time>2026-08-09T06:10:07.813Z</time>
      </trkpt>
      <trkpt lat="50.11589" lon="4.79762">
        <ele>53.15</ele>
        <time>2026-08-09T06:10:13.817Z</time>
      </trkpt>
      <trkpt lat="50.1162" lon="4.79744">
        <ele>53.12</ele>
        <time>2026-08-09T06:10:19.814Z</time>
      </trkpt>
      <trkpt lat="50.11651" lon="4.79724">
        <ele>52.84</ele>
        <time>2026-08-09T06:10:25.827Z</time>
      </trkpt>
      <trkpt lat="50.11682" lon="4.79705">
        <ele>53.02</ele>
        <time>2026-08-09T06:10:31.825Z</time>
      </trkpt>
      <trkpt lat="50.11713" lon="4.79685">
        <ele>53.59</ele>
        <time>2026-08-09T06:10:37.817Z</time>
      </trkpt>
      <trkpt lat="50.11746" lon="4.79666">
        <ele>53.91</ele>
        <time>2026-08-09T06:10:43.817Z</time>
      </trkpt>
      <trkpt lat="50.11781" lon="4.79646">
        <ele>54.17</ele>
        <time>2026-08-09T06:10:49.816Z</time>
      </trkpt>
      <trkpt lat="50.11814" lon="4.79629">
        <ele>54.25</ele>
        <time>2026-08-09T06:10:55.797Z</time>
      </trkpt>
      <trkpt lat="50.11847" lon="4.79612">
        <ele>53.71</ele>
        <time>2026-08-09T06:11:01.828Z</time>
      </trkpt>
      <trkpt lat="50.11879" lon="4.79595">
        <ele>53.46</ele>
        <time>2026-08-09T06:11:07.816Z</time>
      </trkpt>
      <trkpt lat="50.11911" lon="4.79579">
        <ele>53.34</ele>
        <time>2026-08-09T06:11:13.816Z</time>
      </trkpt>
      <trkpt lat="50.11944" lon="4.79564">
        <ele>53.9</ele>
        <time>2026-08-09T06:11:19.815Z</time>
      </trkpt>
      <trkpt lat="50.11977" lon="4.7955">
        <ele>54.03</ele>
        <time>2026-08-09T06:11:25.828Z</time>
      </trkpt>
      <trkpt lat="50.12009" lon="4.79537">
        <ele>54.63</ele>
        <time>2026-08-09T06:11:31.829Z</time>
      </trkpt>
      <trkpt lat="50.12038" lon="4.79524">
        <ele>54.9</ele>
        <time>2026-08-09T06:11:37.815Z</time>
      </trkpt>
      <trkpt lat="50.12062" lon="4.79517">
        <ele>55.45</ele>
        <time>2026-08-09T06:11:43.814Z</time>
      </trkpt>
      <trkpt lat="50.12083" lon="4.79515">
        <ele>56.24</ele>
        <time>2026-08-09T06:11:49.817Z</time>
      </trkpt>
      <trkpt lat="50.12105" lon="4.79512">
        <ele>58.34</ele>
        <time>2026-08-09T06:11:55.831Z</time>
      </trkpt>
      <trkpt lat="50.12124" lon="4.79508">
        <ele>58.89</ele>
        <time>2026-08-09T06:12:01.830Z</time>
      </trkpt>
      <trkpt lat="50.12142" lon="4.79498">
        <ele>60.05</ele>
        <time>2026-08-09T06:12:07.819Z</time>
      </trkpt>
      <trkpt lat="50.12153" lon="4.79477">
        <ele>61.43</ele>
        <time>2026-08-09T06:12:13.814Z</time>
      </trkpt>
      <trkpt lat="50.12167" lon="4.79454">
        <ele>60.43</ele>
        <time>2026-08-09T06:12:19.814Z</time>
      </trkpt>
      <trkpt lat="50.12196" lon="4.7945">
        <ele>58.57</ele>
        <time>2026-08-09T06:12:25.832Z</time>
      </trkpt>
      <trkpt lat="50.12228" lon="4.79465">
        <ele>54.98</ele>
        <time>2026-08-09T06:12:31.803Z</time>
      </trkpt>
      <trkpt lat="50.1226" lon="4.79465">
        <ele>52.09</ele>
        <time>2026-08-09T06:12:37.815Z</time>
      </trkpt>
      <trkpt lat="50.12286" lon="4.79464">
        <ele>51.08</ele>
        <time>2026-08-09T06:12:43.819Z</time>
      </trkpt>
      <trkpt lat="50.12307" lon="4.79474">
        <ele>51.83</ele>
        <time>2026-08-09T06:12:49.816Z</time>
      </trkpt>
      <trkpt lat="50.1233" lon="4.79503">
        <ele>52.97</ele>
        <time>2026-08-09T06:12:55.828Z</time>
      </trkpt>
      <trkpt lat="50.1235" lon="4.79509">
        <ele>53.36</ele>
        <time>2026-08-09T06:13:01.826Z</time>
      </trkpt>
      <trkpt lat="50.12372" lon="4.79515">
        <ele>53.99</ele>
        <time>2026-08-09T06:13:07.816Z</time>
      </trkpt>
      <trkpt lat="50.12396" lon="4.79522">
        <ele>54.61</ele>
        <time>2026-08-09T06:13:13.813Z</time>
      </trkpt>
      <trkpt lat="50.12417" lon="4.79531">
        <ele>55.16</ele>
        <time>2026-08-09T06:13:19.816Z</time>
      </trkpt>
      <trkpt lat="50.12438" lon="4.79533">
        <ele>55.15</ele>
        <time>2026-08-09T06:13:25.826Z</time>
      </trkpt>
      <trkpt lat="50.12455" lon="4.79529">
        <ele>55.63</ele>
        <time>2026-08-09T06:13:31.803Z</time>
      </trkpt>
      <trkpt lat="50.12462" lon="4.79518">
        <ele>56.21</ele>
        <time>2026-08-09T06:13:40.772Z</time>
      </trkpt>
      <trkpt lat="50.12473" lon="4.79518">
        <ele>55.7</ele>
        <time>2026-08-09T06:13:46.760Z</time>
      </trkpt>
      <trkpt lat="50.12487" lon="4.79526">
        <ele>54.61</ele>
        <time>2026-08-09T06:13:51.770Z</time>
      </trkpt>
      <trkpt lat="50.125" lon="4.79533">
        <ele>54.77</ele>
        <time>2026-08-09T06:13:56.779Z</time>
      </trkpt>
      <trkpt lat="50.1251" lon="4.79532">
        <ele>55.65</ele>
        <time>2026-08-09T06:14:01.857Z</time>
      </trkpt>
      <trkpt lat="50.12522" lon="4.79531">
        <ele>55.5</ele>
        <time>2026-08-09T06:14:07.811Z</time>
      </trkpt>
      <trkpt lat="50.12538" lon="4.79543">
        <ele>55.25</ele>
        <time>2026-08-09T06:14:13.826Z</time>
      </trkpt>
      <trkpt lat="50.12558" lon="4.79558">
        <ele>54.85</ele>
        <time>2026-08-09T06:14:19.824Z</time>
      </trkpt>
      <trkpt lat="50.12581" lon="4.79577">
        <ele>54.89</ele>
        <time>2026-08-09T06:14:25.835Z</time>
      </trkpt>
      <trkpt lat="50.12606" lon="4.79597">
        <ele>54.68</ele>
        <time>2026-08-09T06:14:31.830Z</time>
      </trkpt>
      <trkpt lat="50.12631" lon="4.79619">
        <ele>53.95</ele>
        <time>2026-08-09T06:14:37.825Z</time>
      </trkpt>
      <trkpt lat="50.12658" lon="4.79639">
        <ele>53.83</ele>
        <time>2026-08-09T06:14:43.823Z</time>
      </trkpt>
      <trkpt lat="50.12685" lon="4.79661">
        <ele>52.82</ele>
        <time>2026-08-09T06:14:49.823Z</time>
      </trkpt>
      <trkpt lat="50.12712" lon="4.79685">
        <ele>53.13</ele>
        <time>2026-08-09T06:14:55.826Z</time>
      </trkpt>
      <trkpt lat="50.12739" lon="4.79708">
        <ele>53.91</ele>
        <time>2026-08-09T06:15:01.828Z</time>
      </trkpt>
      <trkpt lat="50.12766" lon="4.79732">
        <ele>54.4</ele>
        <time>2026-08-09T06:15:07.824Z</time>
      </trkpt>
      <trkpt lat="50.12791" lon="4.79758">
        <ele>54.84</ele>
        <time>2026-08-09T06:15:13.822Z</time>
      </trkpt>
      <trkpt lat="50.12816" lon="4.79785">
        <ele>54.89</ele>
        <time>2026-08-09T06:15:19.819Z</time>
      </trkpt>
      <trkpt lat="50.1284" lon="4.79815">
        <ele>54.14</ele>
        <time>2026-08-09T06:15:25.826Z</time>
      </trkpt>
      <trkpt lat="50.12864" lon="4.79847">
        <ele>53.82</ele>
        <time>2026-08-09T06:15:31.816Z</time>
      </trkpt>
      <trkpt lat="50.12888" lon="4.79883">
        <ele>53.46</ele>
        <time>2026-08-09T06:15:37.823Z</time>
      </trkpt>
      <trkpt lat="50.1291" lon="4.7992">
        <ele>52.85</ele>
        <time>2026-08-09T06:15:43.821Z</time>
      </trkpt>
      <trkpt lat="50.12932" lon="4.7996">
        <ele>53.32</ele>
        <time>2026-08-09T06:15:49.818Z</time>
      </trkpt>
      <trkpt lat="50.12953" lon="4.80004">
        <ele>54.55</ele>
        <time>2026-08-09T06:15:55.824Z</time>
      </trkpt>
      <trkpt lat="50.12974" lon="4.80049">
        <ele>55.82</ele>
        <time>2026-08-09T06:16:01.826Z</time>
      </trkpt>
      <trkpt lat="50.12995" lon="4.80094">
        <ele>55.53</ele>
        <time>2026-08-09T06:16:07.818Z</time>
      </trkpt>
      <trkpt lat="50.13016" lon="4.80137">
        <ele>55.11</ele>
        <time>2026-08-09T06:16:13.820Z</time>
      </trkpt>
      <trkpt lat="50.13036" lon="4.80181">
        <ele>55.31</ele>
        <time>2026-08-09T06:16:19.823Z</time>
      </trkpt>
      <trkpt lat="50.13057" lon="4.80223">
        <ele>54.68</ele>
        <time>2026-08-09T06:16:25.827Z</time>
      </trkpt>
      <trkpt lat="50.13078" lon="4.80269">
        <ele>54.11</ele>
        <time>2026-08-09T06:16:31.825Z</time>
      </trkpt>
      <trkpt lat="50.131" lon="4.80316">
        <ele>55.08</ele>
        <time>2026-08-09T06:16:37.818Z</time>
      </trkpt>
      <trkpt lat="50.13121" lon="4.80365">
        <ele>55.49</ele>
        <time>2026-08-09T06:16:43.819Z</time>
      </trkpt>
      <trkpt lat="50.1314" lon="4.80414">
        <ele>56.2</ele>
        <time>2026-08-09T06:16:49.819Z</time>
      </trkpt>
      <trkpt lat="50.13158" lon="4.80465">
        <ele>56.44</ele>
        <time>2026-08-09T06:16:55.825Z</time>
      </trkpt>
      <trkpt lat="50.13176" lon="4.80517">
        <ele>55.93</ele>
        <time>2026-08-09T06:17:01.825Z</time>
      </trkpt>
      <trkpt lat="50.13191" lon="4.80569">
        <ele>55.57</ele>
        <time>2026-08-09T06:17:07.821Z</time>
      </trkpt>
      <trkpt lat="50.13205" lon="4.8062">
        <ele>55.79</ele>
        <time>2026-08-09T06:17:13.820Z</time>
      </trkpt>
      <trkpt lat="50.1322" lon="4.80673">
        <ele>55.57</ele>
        <time>2026-08-09T06:17:19.819Z</time>
      </trkpt>
      <trkpt lat="50.13234" lon="4.80726">
        <ele>54.21</ele>
        <time>2026-08-09T06:17:25.831Z</time>
      </trkpt>
      <trkpt lat="50.13248" lon="4.80779">
        <ele>55.21</ele>
        <time>2026-08-09T06:17:31.827Z</time>
      </trkpt>
      <trkpt lat="50.13263" lon="4.80832">
        <ele>56.16</ele>
        <time>2026-08-09T06:17:37.820Z</time>
      </trkpt>
      <trkpt lat="50.13277" lon="4.80885">
        <ele>56.56</ele>
        <time>2026-08-09T06:17:43.823Z</time>
      </trkpt>
      <trkpt lat="50.1329" lon="4.80937">
        <ele>56.44</ele>
        <time>2026-08-09T06:17:49.822Z</time>
      </trkpt>
      <trkpt lat="50.133" lon="4.80987">
        <ele>56.06</ele>
        <time>2026-08-09T06:17:55.827Z</time>
      </trkpt>
      <trkpt lat="50.13309" lon="4.81036">
        <ele>55.01</ele>
        <time>2026-08-09T06:18:01.828Z</time>
      </trkpt>
      <trkpt lat="50.13319" lon="4.81086">
        <ele>53.96</ele>
        <time>2026-08-09T06:18:07.820Z</time>
      </trkpt>
      <trkpt lat="50.13329" lon="4.81135">
        <ele>52.85</ele>
        <time>2026-08-09T06:18:13.823Z</time>
      </trkpt>
      <trkpt lat="50.13337" lon="4.81183">
        <ele>51.05</ele>
        <time>2026-08-09T06:18:19.821Z</time>
      </trkpt>
      <trkpt lat="50.13346" lon="4.81234">
        <ele>50.95</ele>
        <time>2026-08-09T06:18:25.828Z</time>
      </trkpt>
      <trkpt lat="50.13354" lon="4.81285">
        <ele>50.86</ele>
        <time>2026-08-09T06:18:31.830Z</time>
      </trkpt>
      <trkpt lat="50.13361" lon="4.81337">
        <ele>51.09</ele>
        <time>2026-08-09T06:18:37.820Z</time>
      </trkpt>
      <trkpt lat="50.13368" lon="4.81392">
        <ele>50.27</ele>
        <time>2026-08-09T06:18:43.822Z</time>
      </trkpt>
      <trkpt lat="50.13372" lon="4.81448">
        <ele>51.21</ele>
        <time>2026-08-09T06:18:49.819Z</time>
      </trkpt>
      <trkpt lat="50.13374" lon="4.81505">
        <ele>50.85</ele>
        <time>2026-08-09T06:18:55.831Z</time>
      </trkpt>
      <trkpt lat="50.13377" lon="4.8156">
        <ele>51.37</ele>
        <time>2026-08-09T06:19:01.836Z</time>
      </trkpt>
      <trkpt lat="50.13381" lon="4.81613">
        <ele>52.74</ele>
        <time>2026-08-09T06:19:07.821Z</time>
      </trkpt>
      <trkpt lat="50.13384" lon="4.81666">
        <ele>54.88</ele>
        <time>2026-08-09T06:19:13.822Z</time>
      </trkpt>
      <trkpt lat="50.13386" lon="4.81719">
        <ele>56.07</ele>
        <time>2026-08-09T06:19:19.823Z</time>
      </trkpt>
      <trkpt lat="50.13389" lon="4.81773">
        <ele>56.55</ele>
        <time>2026-08-09T06:19:25.825Z</time>
      </trkpt>
      <trkpt lat="50.13395" lon="4.81826">
        <ele>54.65</ele>
        <time>2026-08-09T06:19:31.825Z</time>
      </trkpt>
      <trkpt lat="50.13408" lon="4.81875">
        <ele>54.7</ele>
        <time>2026-08-09T06:19:37.818Z</time>
      </trkpt>
      <trkpt lat="50.13423" lon="4.81922">
        <ele>53.82</ele>
        <time>2026-08-09T06:19:43.814Z</time>
      </trkpt>
      <trkpt lat="50.13436" lon="4.81966">
        <ele>54.89</ele>
        <time>2026-08-09T06:19:49.821Z</time>
      </trkpt>
      <trkpt lat="50.13451" lon="4.82011">
        <ele>54.5</ele>
        <time>2026-08-09T06:19:55.824Z</time>
      </trkpt>
      <trkpt lat="50.13467" lon="4.82056">
        <ele>53.64</ele>
        <time>2026-08-09T06:20:01.831Z</time>
      </trkpt>
      <trkpt lat="50.13478" lon="4.82096">
        <ele>53.35</ele>
        <time>2026-08-09T06:20:07.830Z</time>
      </trkpt>
      <trkpt lat="50.13477" lon="4.82144">
        <ele>52.14</ele>
        <time>2026-08-09T06:20:13.829Z</time>
      </trkpt>
      <trkpt lat="50.13485" lon="4.82187">
        <ele>52.99</ele>
        <time>2026-08-09T06:20:19.826Z</time>
      </trkpt>
      <trkpt lat="50.13493" lon="4.82231">
        <ele>54.64</ele>
        <time>2026-08-09T06:20:25.833Z</time>
      </trkpt>
      <trkpt lat="50.13499" lon="4.82271">
        <ele>54.93</ele>
        <time>2026-08-09T06:20:31.832Z</time>
      </trkpt>
      <trkpt lat="50.13503" lon="4.82293">
        <ele>55.14</ele>
        <time>2026-08-09T06:20:37.828Z</time>
      </trkpt>
      <trkpt lat="50.13507" lon="4.82309">
        <ele>55.44</ele>
        <time>2026-08-09T06:21:45.768Z</time>
      </trkpt>
      <trkpt lat="50.13511" lon="4.82329">
        <ele>56.38</ele>
        <time>2026-08-09T06:21:50.778Z</time>
      </trkpt>
      <trkpt lat="50.13518" lon="4.82345">
        <ele>57.57</ele>
        <time>2026-08-09T06:21:55.833Z</time>
      </trkpt>
      <trkpt lat="50.13524" lon="4.82363">
        <ele>56.51</ele>
        <time>2026-08-09T06:22:01.828Z</time>
      </trkpt>
      <trkpt lat="50.1353" lon="4.82376">
        <ele>56.21</ele>
        <time>2026-08-09T06:22:08.769Z</time>
      </trkpt>
      <trkpt lat="50.13541" lon="4.82373">
        <ele>57.05</ele>
        <time>2026-08-09T06:22:13.830Z</time>
      </trkpt>
      <trkpt lat="50.13552" lon="4.82378">
        <ele>56.14</ele>
        <time>2026-08-09T06:22:19.827Z</time>
      </trkpt>
      <trkpt lat="50.13562" lon="4.82389">
        <ele>53.54</ele>
        <time>2026-08-09T06:22:25.838Z</time>
      </trkpt>
      <trkpt lat="50.13577" lon="4.82408">
        <ele>52.85</ele>
        <time>2026-08-09T06:22:31.831Z</time>
      </trkpt>
      <trkpt lat="50.13593" lon="4.82423">
        <ele>52.7</ele>
        <time>2026-08-09T06:22:37.827Z</time>
      </trkpt>
      <trkpt lat="50.13607" lon="4.82439">
        <ele>52.12</ele>
        <time>2026-08-09T06:22:43.824Z</time>
      </trkpt>
      <trkpt lat="50.13616" lon="4.82456">
        <ele>53.82</ele>
        <time>2026-08-09T06:22:49.827Z</time>
      </trkpt>
      <trkpt lat="50.13625" lon="4.8246">
        <ele>55.26</ele>
        <time>2026-08-09T06:23:24.774Z</time>
      </trkpt>
      <trkpt lat="50.13619" lon="4.82471">
        <ele>55.52</ele>
        <time>2026-08-09T06:23:33.779Z</time>
      </trkpt>
      <trkpt lat="50.13611" lon="4.82529">
        <ele>55.42</ele>
        <time>2026-08-09T06:23:38.789Z</time>
      </trkpt>
      <trkpt lat="50.1361" lon="4.82495">
        <ele>55.42</ele>
        <time>2026-08-09T06:23:43.829Z</time>
      </trkpt>
      <trkpt lat="50.13617" lon="4.82482">
        <ele>55.55</ele>
        <time>2026-08-09T06:23:57.782Z</time>
      </trkpt>
      <trkpt lat="50.13629" lon="4.82467">
        <ele>55.45</ele>
        <time>2026-08-09T06:24:03.768Z</time>
      </trkpt>
      <trkpt lat="50.13638" lon="4.82473">
        <ele>55.32</ele>
        <time>2026-08-09T06:24:20.168Z</time>
      </trkpt>
      <trkpt lat="50.13623" lon="4.82485">
        <ele>55.32</ele>
        <time>2026-08-09T06:24:27.807Z</time>
      </trkpt>
      <trkpt lat="50.13601" lon="4.82503">
        <ele>55.23</ele>
        <time>2026-08-09T06:24:33.781Z</time>
      </trkpt>
      <trkpt lat="50.13593" lon="4.82485">
        <ele>55.05</ele>
        <time>2026-08-09T06:24:41.800Z</time>
      </trkpt>
      <trkpt lat="50.13591" lon="4.8247">
        <ele>56.72</ele>
        <time>2026-08-09T06:28:59.771Z</time>
      </trkpt>
      <trkpt lat="50.136" lon="4.82455">
        <ele>47.87</ele>
        <time>2026-08-09T06:29:30.772Z</time>
      </trkpt>
      <trkpt lat="50.13611" lon="4.82459">
        <ele>52.36</ele>
        <time>2026-08-09T06:29:56.790Z</time>
      </trkpt>
      <trkpt lat="50.13623" lon="4.82466">
        <ele>105.32</ele>
        <time>2026-08-09T06:34:05.490Z</time>
      </trkpt>
      <trkpt lat="50.13628" lon="4.82478">
        <ele>105.32</ele>
        <time>2026-08-09T06:35:08.435Z</time>
      </trkpt>
      <trkpt lat="50.13639" lon="4.82487">
        <ele>59.34</ele>
        <time>2026-08-09T06:35:22.480Z</time>
      </trkpt>
      <trkpt lat="50.13651" lon="4.82488">
        <ele>59.33</ele>
        <time>2026-08-09T06:35:28.474Z</time>
      </trkpt>
      <trkpt lat="50.13664" lon="4.82497">
        <ele>59.51</ele>
        <time>2026-08-09T06:35:33.485Z</time>
      </trkpt>
      <trkpt lat="50.13674" lon="4.82506">
        <ele>61.96</ele>
        <time>2026-08-09T06:35:39.432Z</time>
      </trkpt>
      <trkpt lat="50.13685" lon="4.82522">
        <ele>62.38</ele>
        <time>2026-08-09T06:35:45.430Z</time>
      </trkpt>
      <trkpt lat="50.13701" lon="4.82533">
        <ele>60.71</ele>
        <time>2026-08-09T06:35:51.430Z</time>
      </trkpt>
      <trkpt lat="50.1371" lon="4.82538">
        <ele>58.92</ele>
        <time>2026-08-09T06:36:00.427Z</time>
      </trkpt>
      <trkpt lat="50.13718" lon="4.82548">
        <ele>58.52</ele>
        <time>2026-08-09T06:36:05.429Z</time>
      </trkpt>
      <trkpt lat="50.13732" lon="4.82563">
        <ele>58.07</ele>
        <time>2026-08-09T06:36:10.476Z</time>
      </trkpt>
      <trkpt lat="50.13752" lon="4.82585">
        <ele>58.46</ele>
        <time>2026-08-09T06:36:16.475Z</time>
      </trkpt>
      <trkpt lat="50.13772" lon="4.82603">
        <ele>58.29</ele>
        <time>2026-08-09T06:36:22.487Z</time>
      </trkpt>
      <trkpt lat="50.13791" lon="4.8262">
        <ele>56.81</ele>
        <time>2026-08-09T06:36:28.474Z</time>
      </trkpt>
      <trkpt lat="50.13807" lon="4.82636">
        <ele>54.38</ele>
        <time>2026-08-09T06:36:34.479Z</time>
      </trkpt>
      <trkpt lat="50.13823" lon="4.82652">
        <ele>52.62</ele>
        <time>2026-08-09T06:36:40.476Z</time>
      </trkpt>
      <trkpt lat="50.13839" lon="4.82666">
        <ele>51.65</ele>
        <time>2026-08-09T06:36:46.475Z</time>
      </trkpt>
      <trkpt lat="50.13859" lon="4.82686">
        <ele>51.49</ele>
        <time>2026-08-09T06:36:52.498Z</time>
      </trkpt>
      <trkpt lat="50.13876" lon="4.82703">
        <ele>53.65</ele>
        <time>2026-08-09T06:36:58.488Z</time>
      </trkpt>
      <trkpt lat="50.13891" lon="4.82718">
        <ele>53.59</ele>
        <time>2026-08-09T06:37:04.490Z</time>
      </trkpt>
      <trkpt lat="50.13907" lon="4.82734">
        <ele>54.97</ele>
        <time>2026-08-09T06:37:10.486Z</time>
      </trkpt>
      <trkpt lat="50.13924" lon="4.82746">
        <ele>56.99</ele>
        <time>2026-08-09T06:37:16.491Z</time>
      </trkpt>
      <trkpt lat="50.13932" lon="4.82724">
        <ele>58.31</ele>
        <time>2026-08-09T06:37:22.495Z</time>
      </trkpt>
      <trkpt lat="50.13936" lon="4.8269">
        <ele>59.46</ele>
        <time>2026-08-09T06:37:28.460Z</time>
      </trkpt>
      <trkpt lat="50.13938" lon="4.82654">
        <ele>59.44</ele>
        <time>2026-08-09T06:37:34.489Z</time>
      </trkpt>
      <trkpt lat="50.13939" lon="4.82616">
        <ele>58.06</ele>
        <time>2026-08-09T06:37:40.489Z</time>
      </trkpt>
      <trkpt lat="50.13941" lon="4.82576">
        <ele>56.45</ele>
        <time>2026-08-09T06:37:46.488Z</time>
      </trkpt>
      <trkpt lat="50.13949" lon="4.82549">
        <ele>57.37</ele>
        <time>2026-08-09T06:37:52.497Z</time>
      </trkpt>
      <trkpt lat="50.13977" lon="4.82555">
        <ele>56.05</ele>
        <time>2026-08-09T06:37:58.489Z</time>
      </trkpt>
      <trkpt lat="50.14004" lon="4.82562">
        <ele>55.71</ele>
        <time>2026-08-09T06:38:04.488Z</time>
      </trkpt>
      <trkpt lat="50.14031" lon="4.8257">
        <ele>55.77</ele>
        <time>2026-08-09T06:38:10.485Z</time>
      </trkpt>
      <trkpt lat="50.14058" lon="4.82571">
        <ele>57.08</ele>
        <time>2026-08-09T06:38:16.487Z</time>
      </trkpt>
      <trkpt lat="50.14088" lon="4.82579">
        <ele>56.22</ele>
        <time>2026-08-09T06:38:22.492Z</time>
      </trkpt>
      <trkpt lat="50.14117" lon="4.82585">
        <ele>54.81</ele>
        <time>2026-08-09T06:38:28.466Z</time>
      </trkpt>
      <trkpt lat="50.14145" lon="4.82591">
        <ele>53.94</ele>
        <time>2026-08-09T06:38:34.491Z</time>
      </trkpt>
      <trkpt lat="50.14174" lon="4.82597">
        <ele>53.63</ele>
        <time>2026-08-09T06:38:40.487Z</time>
      </trkpt>
      <trkpt lat="50.14201" lon="4.82602">
        <ele>53.61</ele>
        <time>2026-08-09T06:38:46.485Z</time>
      </trkpt>
      <trkpt lat="50.1423" lon="4.82607">
        <ele>52.28</ele>
        <time>2026-08-09T06:38:52.498Z</time>
      </trkpt>
      <trkpt lat="50.14257" lon="4.82613">
        <ele>52.24</ele>
        <time>2026-08-09T06:38:58.488Z</time>
      </trkpt>
      <trkpt lat="50.14283" lon="4.82618">
        <ele>52.92</ele>
        <time>2026-08-09T06:39:04.487Z</time>
      </trkpt>
      <trkpt lat="50.14293" lon="4.82578">
        <ele>53.53</ele>
        <time>2026-08-09T06:39:10.487Z</time>
      </trkpt>
      <trkpt lat="50.14297" lon="4.82535">
        <ele>54.25</ele>
        <time>2026-08-09T06:39:16.483Z</time>
      </trkpt>
      <trkpt lat="50.143" lon="4.82494">
        <ele>53.7</ele>
        <time>2026-08-09T06:39:22.490Z</time>
      </trkpt>
      <trkpt lat="50.14304" lon="4.82451">
        <ele>53.45</ele>
        <time>2026-08-09T06:39:28.493Z</time>
      </trkpt>
      <trkpt lat="50.14307" lon="4.82405">
        <ele>52.4</ele>
        <time>2026-08-09T06:39:34.484Z</time>
      </trkpt>
      <trkpt lat="50.1431" lon="4.8236">
        <ele>52.01</ele>
        <time>2026-08-09T06:39:40.486Z</time>
      </trkpt>
      <trkpt lat="50.14312" lon="4.82327">
        <ele>53.55</ele>
        <time>2026-08-09T06:39:46.490Z</time>
      </trkpt>
      <trkpt lat="50.14313" lon="4.82311">
        <ele>54.53</ele>
        <time>2026-08-09T06:39:53.430Z</time>
      </trkpt>
      <trkpt lat="50.14315" lon="4.82288">
        <ele>54.96</ele>
        <time>2026-08-09T06:39:58.483Z</time>
      </trkpt>
      <trkpt lat="50.14319" lon="4.82259">
        <ele>54.35</ele>
        <time>2026-08-09T06:40:04.490Z</time>
      </trkpt>
      <trkpt lat="50.14322" lon="4.82227">
        <ele>54.42</ele>
        <time>2026-08-09T06:40:10.492Z</time>
      </trkpt>
      <trkpt lat="50.14325" lon="4.82192">
        <ele>55.25</ele>
        <time>2026-08-09T06:40:16.487Z</time>
      </trkpt>
      <trkpt lat="50.14328" lon="4.82153">
        <ele>54.32</ele>
        <time>2026-08-09T06:40:22.491Z</time>
      </trkpt>
      <trkpt lat="50.14332" lon="4.82111">
        <ele>53.27</ele>
        <time>2026-08-09T06:40:28.486Z</time>
      </trkpt>
      <trkpt lat="50.14336" lon="4.8207">
        <ele>53.51</ele>
        <time>2026-08-09T06:40:34.487Z</time>
      </trkpt>
      <trkpt lat="50.14339" lon="4.8203">
        <ele>54</ele>
        <time>2026-08-09T06:40:40.494Z</time>
      </trkpt>
      <trkpt lat="50.14341" lon="4.81999">
        <ele>54.01</ele>
        <time>2026-08-09T06:40:46.483Z</time>
      </trkpt>
      <trkpt lat="50.14352" lon="4.81978">
        <ele>54.99</ele>
        <time>2026-08-09T06:40:52.488Z</time>
      </trkpt>
      <trkpt lat="50.14375" lon="4.81961">
        <ele>54.96</ele>
        <time>2026-08-09T06:40:58.489Z</time>
      </trkpt>
      <trkpt lat="50.14399" lon="4.81951">
        <ele>54.52</ele>
        <time>2026-08-09T06:41:04.485Z</time>
      </trkpt>
      <trkpt lat="50.14424" lon="4.8196">
        <ele>54.25</ele>
        <time>2026-08-09T06:41:10.488Z</time>
      </trkpt>
      <trkpt lat="50.14449" lon="4.81954">
        <ele>54.82</ele>
        <time>2026-08-09T06:41:16.485Z</time>
      </trkpt>
      <trkpt lat="50.14471" lon="4.81926">
        <ele>54.38</ele>
        <time>2026-08-09T06:41:22.487Z</time>
      </trkpt>
      <trkpt lat="50.14492" lon="4.81897">
        <ele>54.08</ele>
        <time>2026-08-09T06:41:28.485Z</time>
      </trkpt>
      <trkpt lat="50.14516" lon="4.81874">
        <ele>53.58</ele>
        <time>2026-08-09T06:41:34.489Z</time>
      </trkpt>
      <trkpt lat="50.14537" lon="4.81851">
        <ele>54.14</ele>
        <time>2026-08-09T06:41:40.488Z</time>
      </trkpt>
      <trkpt lat="50.14557" lon="4.81829">
        <ele>54.61</ele>
        <time>2026-08-09T06:41:46.484Z</time>
      </trkpt>
      <trkpt lat="50.14578" lon="4.81813">
        <ele>55.71</ele>
        <time>2026-08-09T06:41:52.499Z</time>
      </trkpt>
      <trkpt lat="50.14599" lon="4.81805">
        <ele>54.25</ele>
        <time>2026-08-09T06:41:58.490Z</time>
      </trkpt>
      <trkpt lat="50.14628" lon="4.81805">
        <ele>54.67</ele>
        <time>2026-08-09T06:42:04.485Z</time>
      </trkpt>
      <trkpt lat="50.14656" lon="4.81805">
        <ele>54.37</ele>
        <time>2026-08-09T06:42:10.489Z</time>
      </trkpt>
      <trkpt lat="50.14683" lon="4.81804">
        <ele>54.6</ele>
        <time>2026-08-09T06:42:16.485Z</time>
      </trkpt>
      <trkpt lat="50.1471" lon="4.81805">
        <ele>54.57</ele>
        <time>2026-08-09T06:42:22.496Z</time>
      </trkpt>
      <trkpt lat="50.14736" lon="4.81806">
        <ele>55.4</ele>
        <time>2026-08-09T06:42:28.496Z</time>
      </trkpt>
      <trkpt lat="50.1476" lon="4.81813">
        <ele>54.95</ele>
        <time>2026-08-09T06:42:34.493Z</time>
      </trkpt>
      <trkpt lat="50.14787" lon="4.81827">
        <ele>55.78</ele>
        <time>2026-08-09T06:42:40.487Z</time>
      </trkpt>
      <trkpt lat="50.14816" lon="4.81844">
        <ele>57.25</ele>
        <time>2026-08-09T06:42:46.486Z</time>
      </trkpt>
      <trkpt lat="50.14837" lon="4.81863">
        <ele>58.59</ele>
        <time>2026-08-09T06:42:52.490Z</time>
      </trkpt>
      <trkpt lat="50.14859" lon="4.81886">
        <ele>58.8</ele>
        <time>2026-08-09T06:42:58.493Z</time>
      </trkpt>
      <trkpt lat="50.14877" lon="4.81912">
        <ele>55.46</ele>
        <time>2026-08-09T06:43:04.488Z</time>
      </trkpt>
      <trkpt lat="50.14891" lon="4.81925">
        <ele>54.48</ele>
        <time>2026-08-09T06:43:10.494Z</time>
      </trkpt>
      <trkpt lat="50.14909" lon="4.81904">
        <ele>53.92</ele>
        <time>2026-08-09T06:43:16.486Z</time>
      </trkpt>
      <trkpt lat="50.14924" lon="4.81875">
        <ele>54.25</ele>
        <time>2026-08-09T06:43:22.498Z</time>
      </trkpt>
      <trkpt lat="50.14936" lon="4.81845">
        <ele>55.34</ele>
        <time>2026-08-09T06:43:28.493Z</time>
      </trkpt>
      <trkpt lat="50.14946" lon="4.81811">
        <ele>56.51</ele>
        <time>2026-08-09T06:43:34.490Z</time>
      </trkpt>
      <trkpt lat="50.14953" lon="4.81781">
        <ele>56.95</ele>
        <time>2026-08-09T06:43:40.499Z</time>
      </trkpt>
      <trkpt lat="50.1496" lon="4.8174">
        <ele>56.2</ele>
        <time>2026-08-09T06:43:46.494Z</time>
      </trkpt>
      <trkpt lat="50.14964" lon="4.81685">
        <ele>55.61</ele>
        <time>2026-08-09T06:43:52.504Z</time>
      </trkpt>
      <trkpt lat="50.14968" lon="4.81629">
        <ele>55.51</ele>
        <time>2026-08-09T06:43:58.497Z</time>
      </trkpt>
      <trkpt lat="50.14973" lon="4.81574">
        <ele>53.5</ele>
        <time>2026-08-09T06:44:04.493Z</time>
      </trkpt>
      <trkpt lat="50.14982" lon="4.81523">
        <ele>52.03</ele>
        <time>2026-08-09T06:44:10.491Z</time>
      </trkpt>
      <trkpt lat="50.14992" lon="4.81472">
        <ele>52.77</ele>
        <time>2026-08-09T06:44:16.495Z</time>
      </trkpt>
      <trkpt lat="50.15" lon="4.81422">
        <ele>52.82</ele>
        <time>2026-08-09T06:44:22.493Z</time>
      </trkpt>
      <trkpt lat="50.14996" lon="4.81376">
        <ele>53.62</ele>
        <time>2026-08-09T06:44:28.496Z</time>
      </trkpt>
      <trkpt lat="50.14994" lon="4.8134">
        <ele>52.58</ele>
        <time>2026-08-09T06:44:34.495Z</time>
      </trkpt>
      <trkpt lat="50.14995" lon="4.81308">
        <ele>54.98</ele>
        <time>2026-08-09T06:44:40.500Z</time>
      </trkpt>
      <trkpt lat="50.15" lon="4.81283">
        <ele>58.14</ele>
        <time>2026-08-09T06:44:46.496Z</time>
      </trkpt>
      <trkpt lat="50.15007" lon="4.81256">
        <ele>60.72</ele>
        <time>2026-08-09T06:44:52.493Z</time>
      </trkpt>
      <trkpt lat="50.15017" lon="4.81239">
        <ele>61.26</ele>
        <time>2026-08-09T06:44:58.495Z</time>
      </trkpt>
      <trkpt lat="50.15026" lon="4.81231">
        <ele>62.06</ele>
        <time>2026-08-09T06:45:04.491Z</time>
      </trkpt>
      <trkpt lat="50.15041" lon="4.81223">
        <ele>61.3</ele>
        <time>2026-08-09T06:45:10.496Z</time>
      </trkpt>
      <trkpt lat="50.15059" lon="4.81213">
        <ele>60.76</ele>
        <time>2026-08-09T06:45:16.491Z</time>
      </trkpt>
      <trkpt lat="50.1508" lon="4.81193">
        <ele>60.71</ele>
        <time>2026-08-09T06:45:22.493Z</time>
      </trkpt>
      <trkpt lat="50.15106" lon="4.81157">
        <ele>59.04</ele>
        <time>2026-08-09T06:45:28.495Z</time>
      </trkpt>
      <trkpt lat="50.15128" lon="4.8112">
        <ele>60.08</ele>
        <time>2026-08-09T06:45:34.492Z</time>
      </trkpt>
      <trkpt lat="50.1515" lon="4.81099">
        <ele>63.32</ele>
        <time>2026-08-09T06:45:40.494Z</time>
      </trkpt>
      <trkpt lat="50.15175" lon="4.811">
        <ele>65.54</ele>
        <time>2026-08-09T06:45:46.499Z</time>
      </trkpt>
      <trkpt lat="50.15194" lon="4.81103">
        <ele>66.67</ele>
        <time>2026-08-09T06:45:52.481Z</time>
      </trkpt>
      <trkpt lat="50.15211" lon="4.81106">
        <ele>66.76</ele>
        <time>2026-08-09T06:45:58.492Z</time>
      </trkpt>
      <trkpt lat="50.15229" lon="4.8111">
        <ele>67.48</ele>
        <time>2026-08-09T06:46:04.493Z</time>
      </trkpt>
      <trkpt lat="50.15248" lon="4.81115">
        <ele>67.53</ele>
        <time>2026-08-09T06:46:10.491Z</time>
      </trkpt>
      <trkpt lat="50.15267" lon="4.81117">
        <ele>67.69</ele>
        <time>2026-08-09T06:46:16.494Z</time>
      </trkpt>
      <trkpt lat="50.15287" lon="4.81119">
        <ele>67.48</ele>
        <time>2026-08-09T06:46:22.493Z</time>
      </trkpt>
      <trkpt lat="50.15309" lon="4.81118">
        <ele>65.89</ele>
        <time>2026-08-09T06:46:28.494Z</time>
      </trkpt>
      <trkpt lat="50.15333" lon="4.81117">
        <ele>66.43</ele>
        <time>2026-08-09T06:46:34.497Z</time>
      </trkpt>
      <trkpt lat="50.15353" lon="4.81096">
        <ele>66.66</ele>
        <time>2026-08-09T06:46:40.502Z</time>
      </trkpt>
      <trkpt lat="50.15362" lon="4.81062">
        <ele>68.41</ele>
        <time>2026-08-09T06:46:46.492Z</time>
      </trkpt>
      <trkpt lat="50.15369" lon="4.81026">
        <ele>69.15</ele>
        <time>2026-08-09T06:46:52.494Z</time>
      </trkpt>
      <trkpt lat="50.15375" lon="4.80987">
        <ele>70.54</ele>
        <time>2026-08-09T06:46:58.496Z</time>
      </trkpt>
      <trkpt lat="50.15382" lon="4.80956">
        <ele>70.68</ele>
        <time>2026-08-09T06:47:04.494Z</time>
      </trkpt>
      <trkpt lat="50.15387" lon="4.80926">
        <ele>70.22</ele>
        <time>2026-08-09T06:47:10.490Z</time>
      </trkpt>
      <trkpt lat="50.15393" lon="4.80895">
        <ele>70.13</ele>
        <time>2026-08-09T06:47:16.492Z</time>
      </trkpt>
      <trkpt lat="50.15407" lon="4.80851">
        <ele>69.34</ele>
        <time>2026-08-09T06:47:22.495Z</time>
      </trkpt>
      <trkpt lat="50.15428" lon="4.80818">
        <ele>66.3</ele>
        <time>2026-08-09T06:47:28.500Z</time>
      </trkpt>
      <trkpt lat="50.15437" lon="4.8081">
        <ele>64.67</ele>
        <time>2026-08-09T06:47:34.493Z</time>
      </trkpt>
      <trkpt lat="50.15452" lon="4.80823">
        <ele>63.15</ele>
        <time>2026-08-09T06:47:40.492Z</time>
      </trkpt>
      <trkpt lat="50.15481" lon="4.80853">
        <ele>62.3</ele>
        <time>2026-08-09T06:47:46.491Z</time>
      </trkpt>
      <trkpt lat="50.15514" lon="4.80885">
        <ele>58.99</ele>
        <time>2026-08-09T06:47:52.493Z</time>
      </trkpt>
      <trkpt lat="50.15551" lon="4.80876">
        <ele>59.84</ele>
        <time>2026-08-09T06:47:58.491Z</time>
      </trkpt>
      <trkpt lat="50.15571" lon="4.80839">
        <ele>62.09</ele>
        <time>2026-08-09T06:48:04.493Z</time>
      </trkpt>
      <trkpt lat="50.15588" lon="4.80811">
        <ele>63.24</ele>
        <time>2026-08-09T06:48:10.493Z</time>
      </trkpt>
      <trkpt lat="50.15606" lon="4.80784">
        <ele>65.56</ele>
        <time>2026-08-09T06:48:16.493Z</time>
      </trkpt>
      <trkpt lat="50.15624" lon="4.80754">
        <ele>67.23</ele>
        <time>2026-08-09T06:48:22.472Z</time>
      </trkpt>
      <trkpt lat="50.1564" lon="4.80726">
        <ele>68.48</ele>
        <time>2026-08-09T06:48:28.506Z</time>
      </trkpt>
      <trkpt lat="50.15655" lon="4.80704">
        <ele>70.09</ele>
        <time>2026-08-09T06:48:34.493Z</time>
      </trkpt>
      <trkpt lat="50.15663" lon="4.80691">
        <ele>69.42</ele>
        <time>2026-08-09T06:50:24.432Z</time>
      </trkpt>
      <trkpt lat="50.15677" lon="4.80676">
        <ele>70.74</ele>
        <time>2026-08-09T06:50:29.441Z</time>
      </trkpt>
      <trkpt lat="50.15689" lon="4.80664">
        <ele>73.12</ele>
        <time>2026-08-09T06:50:34.495Z</time>
      </trkpt>
      <trkpt lat="50.15704" lon="4.80647">
        <ele>71.87</ele>
        <time>2026-08-09T06:50:40.497Z</time>
      </trkpt>
      <trkpt lat="50.15717" lon="4.80626">
        <ele>71.77</ele>
        <time>2026-08-09T06:50:46.495Z</time>
      </trkpt>
      <trkpt lat="50.15727" lon="4.80606">
        <ele>71.31</ele>
        <time>2026-08-09T06:50:52.494Z</time>
      </trkpt>
      <trkpt lat="50.15736" lon="4.80584">
        <ele>73</ele>
        <time>2026-08-09T06:50:58.493Z</time>
      </trkpt>
      <trkpt lat="50.15744" lon="4.80558">
        <ele>74.38</ele>
        <time>2026-08-09T06:51:04.492Z</time>
      </trkpt>
      <trkpt lat="50.15751" lon="4.80532">
        <ele>74.71</ele>
        <time>2026-08-09T06:51:10.493Z</time>
      </trkpt>
      <trkpt lat="50.15761" lon="4.80507">
        <ele>75.47</ele>
        <time>2026-08-09T06:51:16.492Z</time>
      </trkpt>
      <trkpt lat="50.15771" lon="4.80482">
        <ele>76.02</ele>
        <time>2026-08-09T06:51:22.488Z</time>
      </trkpt>
      <trkpt lat="50.15784" lon="4.80459">
        <ele>75.76</ele>
        <time>2026-08-09T06:51:28.491Z</time>
      </trkpt>
      <trkpt lat="50.15797" lon="4.80434">
        <ele>75.67</ele>
        <time>2026-08-09T06:51:34.492Z</time>
      </trkpt>
      <trkpt lat="50.15809" lon="4.80406">
        <ele>76.06</ele>
        <time>2026-08-09T06:51:40.494Z</time>
      </trkpt>
      <trkpt lat="50.15821" lon="4.80382">
        <ele>77.04</ele>
        <time>2026-08-09T06:51:46.492Z</time>
      </trkpt>
      <trkpt lat="50.15833" lon="4.80358">
        <ele>76.76</ele>
        <time>2026-08-09T06:51:52.493Z</time>
      </trkpt>
      <trkpt lat="50.15846" lon="4.80337">
        <ele>77.72</ele>
        <time>2026-08-09T06:51:58.492Z</time>
      </trkpt>
      <trkpt lat="50.15857" lon="4.80317">
        <ele>77.28</ele>
        <time>2026-08-09T06:52:04.492Z</time>
      </trkpt>
      <trkpt lat="50.15869" lon="4.80294">
        <ele>78.87</ele>
        <time>2026-08-09T06:52:10.526Z</time>
      </trkpt>
      <trkpt lat="50.15879" lon="4.80275">
        <ele>80.73</ele>
        <time>2026-08-09T06:52:16.491Z</time>
      </trkpt>
      <trkpt lat="50.15888" lon="4.80261">
        <ele>81.28</ele>
        <time>2026-08-09T06:52:22.497Z</time>
      </trkpt>
      <trkpt lat="50.15898" lon="4.80245">
        <ele>80.91</ele>
        <time>2026-08-09T06:52:28.496Z</time>
      </trkpt>
      <trkpt lat="50.15909" lon="4.80233">
        <ele>82.11</ele>
        <time>2026-08-09T06:52:34.497Z</time>
      </trkpt>
      <trkpt lat="50.15919" lon="4.80223">
        <ele>82.63</ele>
        <time>2026-08-09T06:52:40.496Z</time>
      </trkpt>
      <trkpt lat="50.15928" lon="4.80213">
        <ele>83.76</ele>
        <time>2026-08-09T06:52:46.495Z</time>
      </trkpt>
      <trkpt lat="50.15938" lon="4.80204">
        <ele>84.54</ele>
        <time>2026-08-09T06:52:52.493Z</time>
      </trkpt>
      <trkpt lat="50.15949" lon="4.80195">
        <ele>85.32</ele>
        <time>2026-08-09T06:52:58.492Z</time>
      </trkpt>
      <trkpt lat="50.1596" lon="4.80184">
        <ele>85.26</ele>
        <time>2026-08-09T06:53:04.497Z</time>
      </trkpt>
      <trkpt lat="50.15971" lon="4.80176">
        <ele>86.86</ele>
        <time>2026-08-09T06:53:10.492Z</time>
      </trkpt>
      <trkpt lat="50.15981" lon="4.80165">
        <ele>88.51</ele>
        <time>2026-08-09T06:53:16.498Z</time>
      </trkpt>
      <trkpt lat="50.1599" lon="4.80174">
        <ele>89.26</ele>
        <time>2026-08-09T06:53:23.437Z</time>
      </trkpt>
      <trkpt lat="50.15991" lon="4.80198">
        <ele>88.23</ele>
        <time>2026-08-09T06:53:28.493Z</time>
      </trkpt>
      <trkpt lat="50.15992" lon="4.80232">
        <ele>85.43</ele>
        <time>2026-08-09T06:53:34.496Z</time>
      </trkpt>
      <trkpt lat="50.15992" lon="4.80271">
        <ele>86.17</ele>
        <time>2026-08-09T06:53:40.496Z</time>
      </trkpt>
      <trkpt lat="50.15991" lon="4.80312">
        <ele>86.48</ele>
        <time>2026-08-09T06:53:46.495Z</time>
      </trkpt>
      <trkpt lat="50.15991" lon="4.80352">
        <ele>85.44</ele>
        <time>2026-08-09T06:53:52.498Z</time>
      </trkpt>
      <trkpt lat="50.15991" lon="4.80395">
        <ele>84.27</ele>
        <time>2026-08-09T06:53:58.495Z</time>
      </trkpt>
      <trkpt lat="50.1599" lon="4.80441">
        <ele>84.11</ele>
        <time>2026-08-09T06:54:04.492Z</time>
      </trkpt>
      <trkpt lat="50.1599" lon="4.8049">
        <ele>84.4</ele>
        <time>2026-08-09T06:54:10.496Z</time>
      </trkpt>
      <trkpt lat="50.1599" lon="4.80542">
        <ele>84.16</ele>
        <time>2026-08-09T06:54:16.495Z</time>
      </trkpt>
      <trkpt lat="50.15988" lon="4.80594">
        <ele>83.03</ele>
        <time>2026-08-09T06:54:22.494Z</time>
      </trkpt>
      <trkpt lat="50.15988" lon="4.80643">
        <ele>83.87</ele>
        <time>2026-08-09T06:54:28.495Z</time>
      </trkpt>
      <trkpt lat="50.15988" lon="4.80693">
        <ele>84.29</ele>
        <time>2026-08-09T06:54:34.494Z</time>
      </trkpt>
      <trkpt lat="50.15988" lon="4.80745">
        <ele>86.01</ele>
        <time>2026-08-09T06:54:40.491Z</time>
      </trkpt>
      <trkpt lat="50.15987" lon="4.80796">
        <ele>87.76</ele>
        <time>2026-08-09T06:54:46.498Z</time>
      </trkpt>
      <trkpt lat="50.15986" lon="4.80846">
        <ele>86.75</ele>
        <time>2026-08-09T06:54:52.495Z</time>
      </trkpt>
      <trkpt lat="50.15988" lon="4.80896">
        <ele>86.27</ele>
        <time>2026-08-09T06:54:58.494Z</time>
      </trkpt>
      <trkpt lat="50.15991" lon="4.80944">
        <ele>86.63</ele>
        <time>2026-08-09T06:55:04.496Z</time>
      </trkpt>
      <trkpt lat="50.15994" lon="4.80993">
        <ele>86.22</ele>
        <time>2026-08-09T06:55:10.494Z</time>
      </trkpt>
      <trkpt lat="50.16001" lon="4.81042">
        <ele>86.36</ele>
        <time>2026-08-09T06:55:16.494Z</time>
      </trkpt>
      <trkpt lat="50.16008" lon="4.81081">
        <ele>85.93</ele>
        <time>2026-08-09T06:55:22.498Z</time>
      </trkpt>
      <trkpt lat="50.16011" lon="4.81101">
        <ele>85.65</ele>
        <time>2026-08-09T06:55:28.493Z</time>
      </trkpt>
      <trkpt lat="50.16015" lon="4.81122">
        <ele>86.68</ele>
        <time>2026-08-09T06:55:34.495Z</time>
      </trkpt>
      <trkpt lat="50.16021" lon="4.81154">
        <ele>87</ele>
        <time>2026-08-09T06:55:40.492Z</time>
      </trkpt>
      <trkpt lat="50.16031" lon="4.81193">
        <ele>85.44</ele>
        <time>2026-08-09T06:55:46.494Z</time>
      </trkpt>
      <trkpt lat="50.16044" lon="4.81239">
        <ele>84.95</ele>
        <time>2026-08-09T06:55:52.494Z</time>
      </trkpt>
      <trkpt lat="50.16057" lon="4.81284">
        <ele>85.43</ele>
        <time>2026-08-09T06:55:58.496Z</time>
      </trkpt>
      <trkpt lat="50.16073" lon="4.81329">
        <ele>85.88</ele>
        <time>2026-08-09T06:56:04.493Z</time>
      </trkpt>
      <trkpt lat="50.1609" lon="4.81372">
        <ele>85.87</ele>
        <time>2026-08-09T06:56:10.496Z</time>
      </trkpt>
      <trkpt lat="50.16108" lon="4.81414">
        <ele>86.49</ele>
        <time>2026-08-09T06:56:16.488Z</time>
      </trkpt>
      <trkpt lat="50.16129" lon="4.81455">
        <ele>85.81</ele>
        <time>2026-08-09T06:56:22.498Z</time>
      </trkpt>
      <trkpt lat="50.16151" lon="4.81494">
        <ele>85.31</ele>
        <time>2026-08-09T06:56:28.493Z</time>
      </trkpt>
      <trkpt lat="50.16174" lon="4.81532">
        <ele>85.19</ele>
        <time>2026-08-09T06:56:34.494Z</time>
      </trkpt>
      <trkpt lat="50.162" lon="4.8157">
        <ele>85.41</ele>
        <time>2026-08-09T06:56:40.497Z</time>
      </trkpt>
      <trkpt lat="50.16228" lon="4.81606">
        <ele>84.8</ele>
        <time>2026-08-09T06:56:46.494Z</time>
      </trkpt>
      <trkpt lat="50.16258" lon="4.8164">
        <ele>84.39</ele>
        <time>2026-08-09T06:56:52.494Z</time>
      </trkpt>
      <trkpt lat="50.16288" lon="4.81672">
        <ele>85.2</ele>
        <time>2026-08-09T06:56:58.497Z</time>
      </trkpt>
      <trkpt lat="50.16319" lon="4.81705">
        <ele>84.27</ele>
        <time>2026-08-09T06:57:04.492Z</time>
      </trkpt>
      <trkpt lat="50.16349" lon="4.81738">
        <ele>84.45</ele>
        <time>2026-08-09T06:57:10.495Z</time>
      </trkpt>
      <trkpt lat="50.16381" lon="4.8177">
        <ele>84.71</ele>
        <time>2026-08-09T06:57:16.492Z</time>
      </trkpt>
      <trkpt lat="50.16412" lon="4.81803">
        <ele>83.95</ele>
        <time>2026-08-09T06:57:22.496Z</time>
      </trkpt>
      <trkpt lat="50.16444" lon="4.81834">
        <ele>82.73</ele>
        <time>2026-08-09T06:57:28.496Z</time>
      </trkpt>
      <trkpt lat="50.16476" lon="4.81865">
        <ele>81.82</ele>
        <time>2026-08-09T06:57:34.497Z</time>
      </trkpt>
      <trkpt lat="50.16508" lon="4.81895">
        <ele>80.89</ele>
        <time>2026-08-09T06:57:40.498Z</time>
      </trkpt>
      <trkpt lat="50.16541" lon="4.8192">
        <ele>79.03</ele>
        <time>2026-08-09T06:57:46.499Z</time>
      </trkpt>
      <trkpt lat="50.16573" lon="4.81944">
        <ele>75.66</ele>
        <time>2026-08-09T06:57:52.493Z</time>
      </trkpt>
      <trkpt lat="50.16605" lon="4.81969">
        <ele>73.31</ele>
        <time>2026-08-09T06:57:58.493Z</time>
      </trkpt>
      <trkpt lat="50.16636" lon="4.81988">
        <ele>69.1</ele>
        <time>2026-08-09T06:58:04.493Z</time>
      </trkpt>
      <trkpt lat="50.16672" lon="4.82008">
        <ele>67.88</ele>
        <time>2026-08-09T06:58:10.493Z</time>
      </trkpt>
      <trkpt lat="50.16712" lon="4.82026">
        <ele>70.18</ele>
        <time>2026-08-09T06:58:16.496Z</time>
      </trkpt>
      <trkpt lat="50.16751" lon="4.8204">
        <ele>72.08</ele>
        <time>2026-08-09T06:58:22.492Z</time>
      </trkpt>
      <trkpt lat="50.16787" lon="4.82052">
        <ele>71.62</ele>
        <time>2026-08-09T06:58:28.496Z</time>
      </trkpt>
      <trkpt lat="50.16821" lon="4.82062">
        <ele>71.56</ele>
        <time>2026-08-09T06:58:34.493Z</time>
      </trkpt>
      <trkpt lat="50.1685" lon="4.82073">
        <ele>71.55</ele>
        <time>2026-08-09T06:58:40.494Z</time>
      </trkpt>
      <trkpt lat="50.16866" lon="4.82078">
        <ele>70.99</ele>
        <time>2026-08-09T06:58:46.493Z</time>
      </trkpt>
      <trkpt lat="50.1689" lon="4.82088">
        <ele>70.2</ele>
        <time>2026-08-09T06:58:52.495Z</time>
      </trkpt>
      <trkpt lat="50.16924" lon="4.82097">
        <ele>72.49</ele>
        <time>2026-08-09T06:58:58.495Z</time>
      </trkpt>
      <trkpt lat="50.16956" lon="4.82107">
        <ele>73.33</ele>
        <time>2026-08-09T06:59:04.494Z</time>
      </trkpt>
      <trkpt lat="50.16991" lon="4.82119">
        <ele>72.81</ele>
        <time>2026-08-09T06:59:10.494Z</time>
      </trkpt>
      <trkpt lat="50.17028" lon="4.8213">
        <ele>72.95</ele>
        <time>2026-08-09T06:59:16.496Z</time>
      </trkpt>
      <trkpt lat="50.17066" lon="4.8214">
        <ele>73.72</ele>
        <time>2026-08-09T06:59:22.495Z</time>
      </trkpt>
      <trkpt lat="50.17103" lon="4.82148">
        <ele>73.62</ele>
        <time>2026-08-09T06:59:28.497Z</time>
      </trkpt>
      <trkpt lat="50.17142" lon="4.82155">
        <ele>74.62</ele>
        <time>2026-08-09T06:59:34.492Z</time>
      </trkpt>
      <trkpt lat="50.17181" lon="4.82158">
        <ele>73.59</ele>
        <time>2026-08-09T06:59:40.501Z</time>
      </trkpt>
      <trkpt lat="50.17218" lon="4.8216">
        <ele>74.29</ele>
        <time>2026-08-09T06:59:46.494Z</time>
      </trkpt>
      <trkpt lat="50.17255" lon="4.8216">
        <ele>72.22</ele>
        <time>2026-08-09T06:59:52.493Z</time>
      </trkpt>
      <trkpt lat="50.17294" lon="4.82153">
        <ele>70.54</ele>
        <time>2026-08-09T06:59:58.494Z</time>
      </trkpt>
      <trkpt lat="50.17334" lon="4.82144">
        <ele>67.96</ele>
        <time>2026-08-09T07:00:04.499Z</time>
      </trkpt>
      <trkpt lat="50.17376" lon="4.82136">
        <ele>68.69</ele>
        <time>2026-08-09T07:00:10.495Z</time>
      </trkpt>
      <trkpt lat="50.17413" lon="4.8213">
        <ele>68.27</ele>
        <time>2026-08-09T07:00:16.493Z</time>
      </trkpt>
      <trkpt lat="50.17448" lon="4.82124">
        <ele>66.56</ele>
        <time>2026-08-09T07:00:22.494Z</time>
      </trkpt>
      <trkpt lat="50.17483" lon="4.8212">
        <ele>65.52</ele>
        <time>2026-08-09T07:00:28.498Z</time>
      </trkpt>
      <trkpt lat="50.17516" lon="4.82114">
        <ele>61.18</ele>
        <time>2026-08-09T07:00:34.495Z</time>
      </trkpt>
      <trkpt lat="50.17553" lon="4.82108">
        <ele>60.35</ele>
        <time>2026-08-09T07:00:40.494Z</time>
      </trkpt>
      <trkpt lat="50.17593" lon="4.82104">
        <ele>63.29</ele>
        <time>2026-08-09T07:00:46.494Z</time>
      </trkpt>
      <trkpt lat="50.17629" lon="4.82096">
        <ele>60.89</ele>
        <time>2026-08-09T07:00:52.477Z</time>
      </trkpt>
      <trkpt lat="50.17669" lon="4.82091">
        <ele>59.08</ele>
        <time>2026-08-09T07:00:58.495Z</time>
      </trkpt>
      <trkpt lat="50.17709" lon="4.82085">
        <ele>58.66</ele>
        <time>2026-08-09T07:01:04.494Z</time>
      </trkpt>
      <trkpt lat="50.17752" lon="4.8208">
        <ele>58.2</ele>
        <time>2026-08-09T07:01:10.494Z</time>
      </trkpt>
      <trkpt lat="50.1779" lon="4.82078">
        <ele>60.92</ele>
        <time>2026-08-09T07:01:16.491Z</time>
      </trkpt>
      <trkpt lat="50.17834" lon="4.82074">
        <ele>63.14</ele>
        <time>2026-08-09T07:01:22.490Z</time>
      </trkpt>
      <trkpt lat="50.17877" lon="4.82074">
        <ele>65.73</ele>
        <time>2026-08-09T07:01:28.493Z</time>
      </trkpt>
      <trkpt lat="50.17919" lon="4.82081">
        <ele>67.95</ele>
        <time>2026-08-09T07:01:34.494Z</time>
      </trkpt>
      <trkpt lat="50.17957" lon="4.82089">
        <ele>69.13</ele>
        <time>2026-08-09T07:01:40.496Z</time>
      </trkpt>
      <trkpt lat="50.17995" lon="4.82101">
        <ele>69.31</ele>
        <time>2026-08-09T07:01:46.494Z</time>
      </trkpt>
      <trkpt lat="50.18032" lon="4.82115">
        <ele>69.51</ele>
        <time>2026-08-09T07:01:52.499Z</time>
      </trkpt>
      <trkpt lat="50.1807" lon="4.82131">
        <ele>65.92</ele>
        <time>2026-08-09T07:01:58.498Z</time>
      </trkpt>
      <trkpt lat="50.18111" lon="4.82149">
        <ele>65.19</ele>
        <time>2026-08-09T07:02:04.505Z</time>
      </trkpt>
      <trkpt lat="50.18146" lon="4.82166">
        <ele>63.07</ele>
        <time>2026-08-09T07:02:10.496Z</time>
      </trkpt>
      <trkpt lat="50.18182" lon="4.82182">
        <ele>59.18</ele>
        <time>2026-08-09T07:02:16.492Z</time>
      </trkpt>
      <trkpt lat="50.18217" lon="4.82199">
        <ele>55.84</ele>
        <time>2026-08-09T07:02:22.502Z</time>
      </trkpt>
      <trkpt lat="50.18252" lon="4.82216">
        <ele>54.46</ele>
        <time>2026-08-09T07:02:28.497Z</time>
      </trkpt>
      <trkpt lat="50.18288" lon="4.82235">
        <ele>52.55</ele>
        <time>2026-08-09T07:02:34.496Z</time>
      </trkpt>
      <trkpt lat="50.18319" lon="4.82255">
        <ele>45.7</ele>
        <time>2026-08-09T07:02:40.496Z</time>
      </trkpt>
      <trkpt lat="50.1836" lon="4.8227">
        <ele>47.4</ele>
        <time>2026-08-09T07:02:46.494Z</time>
      </trkpt>
      <trkpt lat="50.184" lon="4.82281">
        <ele>50.76</ele>
        <time>2026-08-09T07:02:52.496Z</time>
      </trkpt>
      <trkpt lat="50.18436" lon="4.82289">
        <ele>52.1</ele>
        <time>2026-08-09T07:02:58.499Z</time>
      </trkpt>
      <trkpt lat="50.1847" lon="4.82299">
        <ele>54.1</ele>
        <time>2026-08-09T07:03:04.495Z</time>
      </trkpt>
      <trkpt lat="50.18502" lon="4.82305">
        <ele>56.43</ele>
        <time>2026-08-09T07:03:10.497Z</time>
      </trkpt>
      <trkpt lat="50.18525" lon="4.82303">
        <ele>57.47</ele>
        <time>2026-08-09T07:03:16.500Z</time>
      </trkpt>
      <trkpt lat="50.18553" lon="4.82314">
        <ele>59.62</ele>
        <time>2026-08-09T07:03:22.497Z</time>
      </trkpt>
      <trkpt lat="50.18587" lon="4.82325">
        <ele>60.61</ele>
        <time>2026-08-09T07:03:28.496Z</time>
      </trkpt>
      <trkpt lat="50.1862" lon="4.8233">
        <ele>60.39</ele>
        <time>2026-08-09T07:03:34.502Z</time>
      </trkpt>
      <trkpt lat="50.18651" lon="4.82335">
        <ele>58.53</ele>
        <time>2026-08-09T07:03:40.501Z</time>
      </trkpt>
      <trkpt lat="50.18687" lon="4.82341">
        <ele>57.32</ele>
        <time>2026-08-09T07:03:46.493Z</time>
      </trkpt>
      <trkpt lat="50.18722" lon="4.82342">
        <ele>58.74</ele>
        <time>2026-08-09T07:03:52.495Z</time>
      </trkpt>
      <trkpt lat="50.18757" lon="4.82338">
        <ele>59.19</ele>
        <time>2026-08-09T07:03:58.497Z</time>
      </trkpt>
      <trkpt lat="50.18791" lon="4.82335">
        <ele>59.64</ele>
        <time>2026-08-09T07:04:04.496Z</time>
      </trkpt>
      <trkpt lat="50.18824" lon="4.82331">
        <ele>59.99</ele>
        <time>2026-08-09T07:04:10.496Z</time>
      </trkpt>
      <trkpt lat="50.18853" lon="4.82329">
        <ele>59.91</ele>
        <time>2026-08-09T07:04:16.499Z</time>
      </trkpt>
      <trkpt lat="50.18881" lon="4.82322">
        <ele>58.87</ele>
        <time>2026-08-09T07:04:22.495Z</time>
      </trkpt>
      <trkpt lat="50.18916" lon="4.82311">
        <ele>58.92</ele>
        <time>2026-08-09T07:04:28.491Z</time>
      </trkpt>
      <trkpt lat="50.18951" lon="4.82298">
        <ele>59.62</ele>
        <time>2026-08-09T07:04:34.497Z</time>
      </trkpt>
      <trkpt lat="50.18987" lon="4.82283">
        <ele>59.74</ele>
        <time>2026-08-09T07:04:40.497Z</time>
      </trkpt>
      <trkpt lat="50.19021" lon="4.82266">
        <ele>59.63</ele>
        <time>2026-08-09T07:04:46.497Z</time>
      </trkpt>
      <trkpt lat="50.19055" lon="4.82247">
        <ele>60.04</ele>
        <time>2026-08-09T07:04:52.496Z</time>
      </trkpt>
      <trkpt lat="50.19086" lon="4.82224">
        <ele>63.55</ele>
        <time>2026-08-09T07:04:58.490Z</time>
      </trkpt>
      <trkpt lat="50.19121" lon="4.82203">
        <ele>62.46</ele>
        <time>2026-08-09T07:05:04.493Z</time>
      </trkpt>
      <trkpt lat="50.19151" lon="4.8218">
        <ele>61.83</ele>
        <time>2026-08-09T07:05:10.499Z</time>
      </trkpt>
      <trkpt lat="50.19184" lon="4.82158">
        <ele>60.5</ele>
        <time>2026-08-09T07:05:16.499Z</time>
      </trkpt>
      <trkpt lat="50.19219" lon="4.82132">
        <ele>58.7</ele>
        <time>2026-08-09T07:05:22.496Z</time>
      </trkpt>
      <trkpt lat="50.1925" lon="4.82109">
        <ele>57.21</ele>
        <time>2026-08-09T07:05:28.495Z</time>
      </trkpt>
      <trkpt lat="50.19283" lon="4.82076">
        <ele>58.22</ele>
        <time>2026-08-09T07:05:34.495Z</time>
      </trkpt>
      <trkpt lat="50.19311" lon="4.8206">
        <ele>58.84</ele>
        <time>2026-08-09T07:05:40.498Z</time>
      </trkpt>
      <trkpt lat="50.19336" lon="4.82044">
        <ele>58.43</ele>
        <time>2026-08-09T07:05:46.533Z</time>
      </trkpt>
      <trkpt lat="50.1936" lon="4.82035">
        <ele>46.24</ele>
        <time>2026-08-09T07:05:52.493Z</time>
      </trkpt>
      <trkpt lat="50.19392" lon="4.82015">
        <ele>51.03</ele>
        <time>2026-08-09T07:05:58.518Z</time>
      </trkpt>
      <trkpt lat="50.19422" lon="4.81989">
        <ele>55.05</ele>
        <time>2026-08-09T07:06:04.490Z</time>
      </trkpt>
      <trkpt lat="50.1945" lon="4.81974">
        <ele>55.95</ele>
        <time>2026-08-09T07:06:10.497Z</time>
      </trkpt>
      <trkpt lat="50.19477" lon="4.81946">
        <ele>58.02</ele>
        <time>2026-08-09T07:06:16.496Z</time>
      </trkpt>
      <trkpt lat="50.19504" lon="4.81927">
        <ele>61</ele>
        <time>2026-08-09T07:06:22.498Z</time>
      </trkpt>
      <trkpt lat="50.19531" lon="4.81904">
        <ele>61.78</ele>
        <time>2026-08-09T07:06:28.501Z</time>
      </trkpt>
      <trkpt lat="50.19564" lon="4.81866">
        <ele>67.51</ele>
        <time>2026-08-09T07:06:34.494Z</time>
      </trkpt>
      <trkpt lat="50.19591" lon="4.81847">
        <ele>72.99</ele>
        <time>2026-08-09T07:06:40.497Z</time>
      </trkpt>
      <trkpt lat="50.19618" lon="4.81832">
        <ele>69.49</ele>
        <time>2026-08-09T07:06:46.495Z</time>
      </trkpt>
      <trkpt lat="50.19646" lon="4.81813">
        <ele>65.54</ele>
        <time>2026-08-09T07:06:52.503Z</time>
      </trkpt>
      <trkpt lat="50.19675" lon="4.81795">
        <ele>59.74</ele>
        <time>2026-08-09T07:06:58.496Z</time>
      </trkpt>
      <trkpt lat="50.19702" lon="4.8179">
        <ele>58.02</ele>
        <time>2026-08-09T07:07:04.494Z</time>
      </trkpt>
      <trkpt lat="50.19713" lon="4.81814">
        <ele>57.86</ele>
        <time>2026-08-09T07:07:10.503Z</time>
      </trkpt>
      <trkpt lat="50.19738" lon="4.81796">
        <ele>57.35</ele>
        <time>2026-08-09T07:07:16.496Z</time>
      </trkpt>
      <trkpt lat="50.19767" lon="4.81814">
        <ele>54.75</ele>
        <time>2026-08-09T07:07:22.494Z</time>
      </trkpt>
      <trkpt lat="50.19789" lon="4.81872">
        <ele>52.9</ele>
        <time>2026-08-09T07:07:28.494Z</time>
      </trkpt>
      <trkpt lat="50.198" lon="4.81901">
        <ele>51.45</ele>
        <time>2026-08-09T07:07:34.496Z</time>
      </trkpt>
      <trkpt lat="50.19817" lon="4.81905">
        <ele>52.09</ele>
        <time>2026-08-09T07:07:40.496Z</time>
      </trkpt>
      <trkpt lat="50.19839" lon="4.81899">
        <ele>52.88</ele>
        <time>2026-08-09T07:07:46.494Z</time>
      </trkpt>
      <trkpt lat="50.19867" lon="4.81882">
        <ele>52.59</ele>
        <time>2026-08-09T07:07:52.494Z</time>
      </trkpt>
      <trkpt lat="50.19898" lon="4.81871">
        <ele>50.56</ele>
        <time>2026-08-09T07:07:58.494Z</time>
      </trkpt>
      <trkpt lat="50.19929" lon="4.8186">
        <ele>49.07</ele>
        <time>2026-08-09T07:08:04.496Z</time>
      </trkpt>
      <trkpt lat="50.19959" lon="4.81854">
        <ele>50.72</ele>
        <time>2026-08-09T07:08:10.498Z</time>
      </trkpt>
      <trkpt lat="50.19992" lon="4.81847">
        <ele>51.96</ele>
        <time>2026-08-09T07:08:16.494Z</time>
      </trkpt>
      <trkpt lat="50.20027" lon="4.81843">
        <ele>53.08</ele>
        <time>2026-08-09T07:08:22.496Z</time>
      </trkpt>
      <trkpt lat="50.20062" lon="4.81839">
        <ele>54.71</ele>
        <time>2026-08-09T07:08:28.495Z</time>
      </trkpt>
      <trkpt lat="50.20096" lon="4.81837">
        <ele>54.66</ele>
        <time>2026-08-09T07:08:34.498Z</time>
      </trkpt>
      <trkpt lat="50.20129" lon="4.81836">
        <ele>54.59</ele>
        <time>2026-08-09T07:08:40.496Z</time>
      </trkpt>
      <trkpt lat="50.20163" lon="4.81835">
        <ele>53.83</ele>
        <time>2026-08-09T07:08:46.499Z</time>
      </trkpt>
      <trkpt lat="50.20197" lon="4.81836">
        <ele>52.71</ele>
        <time>2026-08-09T07:08:52.496Z</time>
      </trkpt>
      <trkpt lat="50.20232" lon="4.81837">
        <ele>52.79</ele>
        <time>2026-08-09T07:08:58.495Z</time>
      </trkpt>
      <trkpt lat="50.20268" lon="4.81836">
        <ele>53.34</ele>
        <time>2026-08-09T07:09:04.495Z</time>
      </trkpt>
      <trkpt lat="50.20303" lon="4.81836">
        <ele>54.72</ele>
        <time>2026-08-09T07:09:10.496Z</time>
      </trkpt>
      <trkpt lat="50.20336" lon="4.81842">
        <ele>55.21</ele>
        <time>2026-08-09T07:09:16.497Z</time>
      </trkpt>
      <trkpt lat="50.20368" lon="4.81852">
        <ele>54.44</ele>
        <time>2026-08-09T07:09:22.496Z</time>
      </trkpt>
      <trkpt lat="50.20401" lon="4.81859">
        <ele>54.86</ele>
        <time>2026-08-09T07:09:28.495Z</time>
      </trkpt>
      <trkpt lat="50.20434" lon="4.81866">
        <ele>55.21</ele>
        <time>2026-08-09T07:09:34.497Z</time>
      </trkpt>
      <trkpt lat="50.20467" lon="4.81871">
        <ele>53.91</ele>
        <time>2026-08-09T07:09:40.496Z</time>
      </trkpt>
      <trkpt lat="50.20503" lon="4.81883">
        <ele>53.7</ele>
        <time>2026-08-09T07:09:46.498Z</time>
      </trkpt>
      <trkpt lat="50.20537" lon="4.81894">
        <ele>53.59</ele>
        <time>2026-08-09T07:09:52.496Z</time>
      </trkpt>
      <trkpt lat="50.20571" lon="4.81907">
        <ele>54.94</ele>
        <time>2026-08-09T07:09:58.495Z</time>
      </trkpt>
      <trkpt lat="50.20605" lon="4.81922">
        <ele>54.24</ele>
        <time>2026-08-09T07:10:04.499Z</time>
      </trkpt>
      <trkpt lat="50.20638" lon="4.81937">
        <ele>53.9</ele>
        <time>2026-08-09T07:10:10.494Z</time>
      </trkpt>
      <trkpt lat="50.20672" lon="4.81956">
        <ele>53.43</ele>
        <time>2026-08-09T07:10:16.498Z</time>
      </trkpt>
      <trkpt lat="50.20707" lon="4.81974">
        <ele>52.87</ele>
        <time>2026-08-09T07:10:22.498Z</time>
      </trkpt>
      <trkpt lat="50.20741" lon="4.81993">
        <ele>53.1</ele>
        <time>2026-08-09T07:10:28.497Z</time>
      </trkpt>
      <trkpt lat="50.20774" lon="4.82011">
        <ele>54.09</ele>
        <time>2026-08-09T07:10:34.502Z</time>
      </trkpt>
      <trkpt lat="50.20809" lon="4.82028">
        <ele>53.29</ele>
        <time>2026-08-09T07:10:40.499Z</time>
      </trkpt>
      <trkpt lat="50.20843" lon="4.82047">
        <ele>53.63</ele>
        <time>2026-08-09T07:10:46.496Z</time>
      </trkpt>
      <trkpt lat="50.20878" lon="4.82065">
        <ele>53.82</ele>
        <time>2026-08-09T07:10:52.483Z</time>
      </trkpt>
      <trkpt lat="50.20911" lon="4.82084">
        <ele>53.88</ele>
        <time>2026-08-09T07:10:58.498Z</time>
      </trkpt>
      <trkpt lat="50.20946" lon="4.82102">
        <ele>53.56</ele>
        <time>2026-08-09T07:11:04.501Z</time>
      </trkpt>
      <trkpt lat="50.2098" lon="4.82118">
        <ele>53.74</ele>
        <time>2026-08-09T07:11:10.489Z</time>
      </trkpt>
      <trkpt lat="50.21013" lon="4.82139">
        <ele>53.65</ele>
        <time>2026-08-09T07:11:16.495Z</time>
      </trkpt>
      <trkpt lat="50.21046" lon="4.82156">
        <ele>55.28</ele>
        <time>2026-08-09T07:11:22.500Z</time>
      </trkpt>
      <trkpt lat="50.21078" lon="4.82175">
        <ele>54.49</ele>
        <time>2026-08-09T07:11:28.497Z</time>
      </trkpt>
      <trkpt lat="50.2111" lon="4.82196">
        <ele>52.73</ele>
        <time>2026-08-09T07:11:34.499Z</time>
      </trkpt>
      <trkpt lat="50.21143" lon="4.82218">
        <ele>50.44</ele>
        <time>2026-08-09T07:11:40.496Z</time>
      </trkpt>
      <trkpt lat="50.21179" lon="4.82243">
        <ele>51.02</ele>
        <time>2026-08-09T07:11:46.498Z</time>
      </trkpt>
      <trkpt lat="50.21208" lon="4.82265">
        <ele>52.19</ele>
        <time>2026-08-09T07:11:52.497Z</time>
      </trkpt>
      <trkpt lat="50.21241" lon="4.82288">
        <ele>51.79</ele>
        <time>2026-08-09T07:11:58.499Z</time>
      </trkpt>
      <trkpt lat="50.21272" lon="4.82313">
        <ele>52.09</ele>
        <time>2026-08-09T07:12:04.495Z</time>
      </trkpt>
      <trkpt lat="50.21302" lon="4.82338">
        <ele>51.44</ele>
        <time>2026-08-09T07:12:10.497Z</time>
      </trkpt>
      <trkpt lat="50.21333" lon="4.82363">
        <ele>50.55</ele>
        <time>2026-08-09T07:12:16.498Z</time>
      </trkpt>
      <trkpt lat="50.21364" lon="4.82389">
        <ele>50.46</ele>
        <time>2026-08-09T07:12:22.496Z</time>
      </trkpt>
      <trkpt lat="50.21394" lon="4.82417">
        <ele>50.09</ele>
        <time>2026-08-09T07:12:28.499Z</time>
      </trkpt>
      <trkpt lat="50.21423" lon="4.82444">
        <ele>50.04</ele>
        <time>2026-08-09T07:12:34.497Z</time>
      </trkpt>
      <trkpt lat="50.21441" lon="4.82463">
        <ele>49.92</ele>
        <time>2026-08-09T07:12:40.498Z</time>
      </trkpt>
      <trkpt lat="50.21451" lon="4.82473">
        <ele>49.76</ele>
        <time>2026-08-09T07:12:46.497Z</time>
      </trkpt>
      <trkpt lat="50.21462" lon="4.8248">
        <ele>47.75</ele>
        <time>2026-08-09T07:13:21.423Z</time>
      </trkpt>
      <trkpt lat="50.2147" lon="4.82487">
        <ele>47.76</ele>
        <time>2026-08-09T07:13:35.439Z</time>
      </trkpt>
      <trkpt lat="50.21479" lon="4.82496">
        <ele>47.14</ele>
        <time>2026-08-09T07:14:12.425Z</time>
      </trkpt>
      <trkpt lat="50.21489" lon="4.82506">
        <ele>46.96</ele>
        <time>2026-08-09T07:14:50.438Z</time>
      </trkpt>
      <trkpt lat="50.21498" lon="4.82514">
        <ele>46.79</ele>
        <time>2026-08-09T07:15:35.439Z</time>
      </trkpt>
      <trkpt lat="50.21508" lon="4.8252">
        <ele>48.42</ele>
        <time>2026-08-09T07:21:09.435Z</time>
      </trkpt>
      <trkpt lat="50.21518" lon="4.82522">
        <ele>51.24</ele>
        <time>2026-08-09T07:21:51.435Z</time>
      </trkpt>
      <trkpt lat="50.2151" lon="4.82515">
        <ele>52.98</ele>
        <time>2026-08-09T07:23:55.442Z</time>
      </trkpt>
      <trkpt lat="50.21501" lon="4.82509">
        <ele>52.61</ele>
        <time>2026-08-09T07:24:04.497Z</time>
      </trkpt>
      <trkpt lat="50.21492" lon="4.82502">
        <ele>51.93</ele>
        <time>2026-08-09T07:24:12.444Z</time>
      </trkpt>
      <trkpt lat="50.21484" lon="4.82495">
        <ele>51.06</ele>
        <time>2026-08-09T07:24:21.440Z</time>
      </trkpt>
      <trkpt lat="50.21481" lon="4.8248">
        <ele>52.38</ele>
        <time>2026-08-09T07:25:59.794Z</time>
      </trkpt>
      <trkpt lat="50.21484" lon="4.82465">
        <ele>52.81</ele>
        <time>2026-08-09T07:26:05.437Z</time>
      </trkpt>
      <trkpt lat="50.21492" lon="4.82457">
        <ele>52.64</ele>
        <time>2026-08-09T07:26:12.444Z</time>
      </trkpt>
      <trkpt lat="50.21501" lon="4.82462">
        <ele>52.86</ele>
        <time>2026-08-09T07:26:22.495Z</time>
      </trkpt>
      <trkpt lat="50.21516" lon="4.82476">
        <ele>52.93</ele>
        <time>2026-08-09T07:26:28.503Z</time>
      </trkpt>
      <trkpt lat="50.21531" lon="4.82492">
        <ele>54.56</ele>
        <time>2026-08-09T07:26:34.499Z</time>
      </trkpt>
      <trkpt lat="50.21548" lon="4.8251">
        <ele>55.3</ele>
        <time>2026-08-09T07:26:40.496Z</time>
      </trkpt>
      <trkpt lat="50.21567" lon="4.8253">
        <ele>55.15</ele>
        <time>2026-08-09T07:26:46.495Z</time>
      </trkpt>
      <trkpt lat="50.21581" lon="4.8255">
        <ele>54.29</ele>
        <time>2026-08-09T07:26:52.499Z</time>
      </trkpt>
      <trkpt lat="50.21599" lon="4.82556">
        <ele>53.71</ele>
        <time>2026-08-09T07:26:58.496Z</time>
      </trkpt>
      <trkpt lat="50.21618" lon="4.8253">
        <ele>51.64</ele>
        <time>2026-08-09T07:27:04.492Z</time>
      </trkpt>
      <trkpt lat="50.21632" lon="4.82515">
        <ele>53.79</ele>
        <time>2026-08-09T07:27:10.502Z</time>
      </trkpt>
      <trkpt lat="50.21642" lon="4.82496">
        <ele>53.41</ele>
        <time>2026-08-09T07:27:16.496Z</time>
      </trkpt>
      <trkpt lat="50.2166" lon="4.82478">
        <ele>52.31</ele>
        <time>2026-08-09T07:27:22.498Z</time>
      </trkpt>
      <trkpt lat="50.2167" lon="4.82488">
        <ele>52.53</ele>
        <time>2026-08-09T07:27:28.498Z</time>
      </trkpt>
      <trkpt lat="50.21677" lon="4.82505">
        <ele>53.74</ele>
        <time>2026-08-09T07:27:34.495Z</time>
      </trkpt>
      <trkpt lat="50.21676" lon="4.82523">
        <ele>56.41</ele>
        <time>2026-08-09T07:27:40.496Z</time>
      </trkpt>
      <trkpt lat="50.21668" lon="4.82536">
        <ele>57.91</ele>
        <time>2026-08-09T07:27:46.494Z</time>
      </trkpt>
      <trkpt lat="50.21661" lon="4.82546">
        <ele>58.26</ele>
        <time>2026-08-09T07:27:52.496Z</time>
      </trkpt>
      <trkpt lat="50.21651" lon="4.8256">
        <ele>59.25</ele>
        <time>2026-08-09T07:27:58.497Z</time>
      </trkpt>
      <trkpt lat="50.21642" lon="4.82573">
        <ele>59.61</ele>
        <time>2026-08-09T07:28:04.496Z</time>
      </trkpt>
      <trkpt lat="50.21633" lon="4.8259">
        <ele>59.65</ele>
        <time>2026-08-09T07:28:10.500Z</time>
      </trkpt>
      <trkpt lat="50.21623" lon="4.82604">
        <ele>59.64</ele>
        <time>2026-08-09T07:28:16.500Z</time>
      </trkpt>
      <trkpt lat="50.21615" lon="4.82614">
        <ele>60.16</ele>
        <time>2026-08-09T07:28:26.448Z</time>
      </trkpt>
      <trkpt lat="50.21605" lon="4.82631">
        <ele>60.26</ele>
        <time>2026-08-09T07:28:32.433Z</time>
      </trkpt>
      <trkpt lat="50.21596" lon="4.82648">
        <ele>60.83</ele>
        <time>2026-08-09T07:28:37.444Z</time>
      </trkpt>
      <trkpt lat="50.21582" lon="4.82673">
        <ele>60.91</ele>
        <time>2026-08-09T07:28:43.443Z</time>
      </trkpt>
      <trkpt lat="50.21564" lon="4.82704">
        <ele>59.72</ele>
        <time>2026-08-09T07:28:49.441Z</time>
      </trkpt>
      <trkpt lat="50.21542" lon="4.82743">
        <ele>56.9</ele>
        <time>2026-08-09T07:28:55.440Z</time>
      </trkpt>
      <trkpt lat="50.21524" lon="4.82776">
        <ele>53.31</ele>
        <time>2026-08-09T07:29:01.440Z</time>
      </trkpt>
      <trkpt lat="50.21531" lon="4.82759">
        <ele>49.24</ele>
        <time>2026-08-09T07:29:10.498Z</time>
      </trkpt>
      <trkpt lat="50.21549" lon="4.82742">
        <ele>47.83</ele>
        <time>2026-08-09T07:29:16.501Z</time>
      </trkpt>
      <trkpt lat="50.2156" lon="4.82775">
        <ele>45.9</ele>
        <time>2026-08-09T07:29:22.498Z</time>
      </trkpt>
      <trkpt lat="50.21572" lon="4.8281">
        <ele>47.37</ele>
        <time>2026-08-09T07:29:28.496Z</time>
      </trkpt>
      <trkpt lat="50.21587" lon="4.82851">
        <ele>49.58</ele>
        <time>2026-08-09T07:29:34.498Z</time>
      </trkpt>
      <trkpt lat="50.216" lon="4.82896">
        <ele>48.67</ele>
        <time>2026-08-09T07:29:40.495Z</time>
      </trkpt>
      <trkpt lat="50.21611" lon="4.82952">
        <ele>46.74</ele>
        <time>2026-08-09T07:29:46.499Z</time>
      </trkpt>
      <trkpt lat="50.21617" lon="4.83011">
        <ele>44.78</ele>
        <time>2026-08-09T07:29:52.498Z</time>
      </trkpt>
      <trkpt lat="50.21621" lon="4.83068">
        <ele>45.04</ele>
        <time>2026-08-09T07:29:58.503Z</time>
      </trkpt>
      <trkpt lat="50.21621" lon="4.83124">
        <ele>48.43</ele>
        <time>2026-08-09T07:30:04.500Z</time>
      </trkpt>
      <trkpt lat="50.21619" lon="4.83177">
        <ele>50.38</ele>
        <time>2026-08-09T07:30:10.499Z</time>
      </trkpt>
      <trkpt lat="50.21617" lon="4.8323">
        <ele>52.09</ele>
        <time>2026-08-09T07:30:16.499Z</time>
      </trkpt>
      <trkpt lat="50.21615" lon="4.83288">
        <ele>51.96</ele>
        <time>2026-08-09T07:30:22.498Z</time>
      </trkpt>
      <trkpt lat="50.21612" lon="4.83341">
        <ele>50.7</ele>
        <time>2026-08-09T07:30:28.495Z</time>
      </trkpt>
      <trkpt lat="50.21606" lon="4.83394">
        <ele>50.67</ele>
        <time>2026-08-09T07:30:34.494Z</time>
      </trkpt>
      <trkpt lat="50.21598" lon="4.83446">
        <ele>49.54</ele>
        <time>2026-08-09T07:30:40.495Z</time>
      </trkpt>
      <trkpt lat="50.2159" lon="4.83501">
        <ele>50.51</ele>
        <time>2026-08-09T07:30:46.496Z</time>
      </trkpt>
      <trkpt lat="50.21582" lon="4.83555">
        <ele>50.33</ele>
        <time>2026-08-09T07:30:52.500Z</time>
      </trkpt>
      <trkpt lat="50.21572" lon="4.8361">
        <ele>49.56</ele>
        <time>2026-08-09T07:30:58.498Z</time>
      </trkpt>
      <trkpt lat="50.21564" lon="4.83662">
        <ele>49.76</ele>
        <time>2026-08-09T07:31:04.492Z</time>
      </trkpt>
      <trkpt lat="50.21553" lon="4.83715">
        <ele>49.05</ele>
        <time>2026-08-09T07:31:10.498Z</time>
      </trkpt>
      <trkpt lat="50.21541" lon="4.83764">
        <ele>50.65</ele>
        <time>2026-08-09T07:31:16.492Z</time>
      </trkpt>
      <trkpt lat="50.21526" lon="4.8381">
        <ele>52.63</ele>
        <time>2026-08-09T07:31:22.500Z</time>
      </trkpt>
      <trkpt lat="50.21512" lon="4.83857">
        <ele>51.52</ele>
        <time>2026-08-09T07:31:28.499Z</time>
      </trkpt>
      <trkpt lat="50.21496" lon="4.83903">
        <ele>51.02</ele>
        <time>2026-08-09T07:31:34.491Z</time>
      </trkpt>
      <trkpt lat="50.2148" lon="4.83948">
        <ele>50.24</ele>
        <time>2026-08-09T07:31:40.491Z</time>
      </trkpt>
      <trkpt lat="50.21462" lon="4.83991">
        <ele>49.85</ele>
        <time>2026-08-09T07:31:46.484Z</time>
      </trkpt>
      <trkpt lat="50.21445" lon="4.84036">
        <ele>50.05</ele>
        <time>2026-08-09T07:31:52.498Z</time>
      </trkpt>
      <trkpt lat="50.21426" lon="4.84081">
        <ele>49.88</ele>
        <time>2026-08-09T07:31:58.498Z</time>
      </trkpt>
      <trkpt lat="50.21405" lon="4.84126">
        <ele>49.45</ele>
        <time>2026-08-09T07:32:04.494Z</time>
      </trkpt>
      <trkpt lat="50.21384" lon="4.84169">
        <ele>49.05</ele>
        <time>2026-08-09T07:32:10.500Z</time>
      </trkpt>
      <trkpt lat="50.21362" lon="4.84212">
        <ele>49.44</ele>
        <time>2026-08-09T07:32:16.488Z</time>
      </trkpt>
      <trkpt lat="50.2134" lon="4.84255">
        <ele>49.81</ele>
        <time>2026-08-09T07:32:22.508Z</time>
      </trkpt>
      <trkpt lat="50.21317" lon="4.84299">
        <ele>49.75</ele>
        <time>2026-08-09T07:32:28.504Z</time>
      </trkpt>
      <trkpt lat="50.21294" lon="4.84343">
        <ele>49.46</ele>
        <time>2026-08-09T07:32:34.498Z</time>
      </trkpt>
      <trkpt lat="50.21271" lon="4.84385">
        <ele>50.1</ele>
        <time>2026-08-09T07:32:40.494Z</time>
      </trkpt>
      <trkpt lat="50.21247" lon="4.84426">
        <ele>50.14</ele>
        <time>2026-08-09T07:32:46.492Z</time>
      </trkpt>
      <trkpt lat="50.21224" lon="4.84469">
        <ele>49.83</ele>
        <time>2026-08-09T07:32:52.497Z</time>
      </trkpt>
      <trkpt lat="50.21201" lon="4.84519">
        <ele>48.35</ele>
        <time>2026-08-09T07:32:58.499Z</time>
      </trkpt>
      <trkpt lat="50.21179" lon="4.84566">
        <ele>48.25</ele>
        <time>2026-08-09T07:33:04.495Z</time>
      </trkpt>
      <trkpt lat="50.21151" lon="4.84603">
        <ele>48.09</ele>
        <time>2026-08-09T07:33:10.495Z</time>
      </trkpt>
      <trkpt lat="50.21122" lon="4.8464">
        <ele>48.13</ele>
        <time>2026-08-09T07:33:16.489Z</time>
      </trkpt>
      <trkpt lat="50.21092" lon="4.84672">
        <ele>48.04</ele>
        <time>2026-08-09T07:33:22.497Z</time>
      </trkpt>
      <trkpt lat="50.21059" lon="4.84701">
        <ele>47.77</ele>
        <time>2026-08-09T07:33:28.498Z</time>
      </trkpt>
      <trkpt lat="50.21024" lon="4.84727">
        <ele>47.78</ele>
        <time>2026-08-09T07:33:34.491Z</time>
      </trkpt>
      <trkpt lat="50.20989" lon="4.84751">
        <ele>48.23</ele>
        <time>2026-08-09T07:33:40.494Z</time>
      </trkpt>
      <trkpt lat="50.20953" lon="4.84773">
        <ele>47.85</ele>
        <time>2026-08-09T07:33:46.494Z</time>
      </trkpt>
      <trkpt lat="50.20918" lon="4.84796">
        <ele>47.64</ele>
        <time>2026-08-09T07:33:52.497Z</time>
      </trkpt>
      <trkpt lat="50.20882" lon="4.84818">
        <ele>47.43</ele>
        <time>2026-08-09T07:33:58.497Z</time>
      </trkpt>
      <trkpt lat="50.20846" lon="4.84842">
        <ele>47.63</ele>
        <time>2026-08-09T07:34:04.494Z</time>
      </trkpt>
      <trkpt lat="50.2081" lon="4.84864">
        <ele>47.44</ele>
        <time>2026-08-09T07:34:10.492Z</time>
      </trkpt>
      <trkpt lat="50.20774" lon="4.84882">
        <ele>47.9</ele>
        <time>2026-08-09T07:34:16.496Z</time>
      </trkpt>
      <trkpt lat="50.20737" lon="4.84896">
        <ele>48.14</ele>
        <time>2026-08-09T07:34:22.502Z</time>
      </trkpt>
      <trkpt lat="50.207" lon="4.84912">
        <ele>48.26</ele>
        <time>2026-08-09T07:34:28.500Z</time>
      </trkpt>
      <trkpt lat="50.20664" lon="4.8493">
        <ele>48.03</ele>
        <time>2026-08-09T07:34:34.500Z</time>
      </trkpt>
      <trkpt lat="50.20628" lon="4.84949">
        <ele>48.13</ele>
        <time>2026-08-09T07:34:40.501Z</time>
      </trkpt>
      <trkpt lat="50.20593" lon="4.84969">
        <ele>48.23</ele>
        <time>2026-08-09T07:34:46.497Z</time>
      </trkpt>
      <trkpt lat="50.20557" lon="4.84988">
        <ele>46.72</ele>
        <time>2026-08-09T07:34:52.513Z</time>
      </trkpt>
      <trkpt lat="50.20522" lon="4.85008">
        <ele>44.75</ele>
        <time>2026-08-09T07:34:58.500Z</time>
      </trkpt>
      <trkpt lat="50.20488" lon="4.85026">
        <ele>43.32</ele>
        <time>2026-08-09T07:35:04.502Z</time>
      </trkpt>
      <trkpt lat="50.20453" lon="4.85045">
        <ele>42.43</ele>
        <time>2026-08-09T07:35:10.499Z</time>
      </trkpt>
      <trkpt lat="50.20418" lon="4.85064">
        <ele>42.26</ele>
        <time>2026-08-09T07:35:16.496Z</time>
      </trkpt>
      <trkpt lat="50.20382" lon="4.85084">
        <ele>43.03</ele>
        <time>2026-08-09T07:35:22.506Z</time>
      </trkpt>
      <trkpt lat="50.20347" lon="4.85104">
        <ele>44.88</ele>
        <time>2026-08-09T07:35:28.495Z</time>
      </trkpt>
      <trkpt lat="50.20311" lon="4.85126">
        <ele>46.55</ele>
        <time>2026-08-09T07:35:34.503Z</time>
      </trkpt>
      <trkpt lat="50.2028" lon="4.85149">
        <ele>46.16</ele>
        <time>2026-08-09T07:35:40.501Z</time>
      </trkpt>
      <trkpt lat="50.20251" lon="4.85172">
        <ele>46.4</ele>
        <time>2026-08-09T07:35:46.500Z</time>
      </trkpt>
      <trkpt lat="50.20223" lon="4.85197">
        <ele>46.07</ele>
        <time>2026-08-09T07:35:52.498Z</time>
      </trkpt>
      <trkpt lat="50.20196" lon="4.85228">
        <ele>45.91</ele>
        <time>2026-08-09T07:35:58.496Z</time>
      </trkpt>
      <trkpt lat="50.20169" lon="4.85256">
        <ele>44.68</ele>
        <time>2026-08-09T07:36:04.501Z</time>
      </trkpt>
      <trkpt lat="50.20145" lon="4.85269">
        <ele>46.16</ele>
        <time>2026-08-09T07:36:10.497Z</time>
      </trkpt>
      <trkpt lat="50.20136" lon="4.85272">
        <ele>47.34</ele>
        <time>2026-08-09T07:36:16.504Z</time>
      </trkpt>
      <trkpt lat="50.20136" lon="4.85287">
        <ele>49.12</ele>
        <time>2026-08-09T07:36:54.436Z</time>
      </trkpt>
      <trkpt lat="50.20141" lon="4.85303">
        <ele>49.94</ele>
        <time>2026-08-09T07:37:00.435Z</time>
      </trkpt>
      <trkpt lat="50.20153" lon="4.85324">
        <ele>50.56</ele>
        <time>2026-08-09T07:37:05.442Z</time>
      </trkpt>
      <trkpt lat="50.20167" lon="4.8535">
        <ele>49.39</ele>
        <time>2026-08-09T07:37:10.499Z</time>
      </trkpt>
      <trkpt lat="50.20184" lon="4.8538">
        <ele>47.25</ele>
        <time>2026-08-09T07:37:16.497Z</time>
      </trkpt>
      <trkpt lat="50.20196" lon="4.85407">
        <ele>47.06</ele>
        <time>2026-08-09T07:37:22.505Z</time>
      </trkpt>
      <trkpt lat="50.20178" lon="4.85447">
        <ele>47.33</ele>
        <time>2026-08-09T07:37:28.499Z</time>
      </trkpt>
      <trkpt lat="50.20154" lon="4.85489">
        <ele>48.45</ele>
        <time>2026-08-09T07:37:34.494Z</time>
      </trkpt>
      <trkpt lat="50.20135" lon="4.85536">
        <ele>48.86</ele>
        <time>2026-08-09T07:37:40.497Z</time>
      </trkpt>
      <trkpt lat="50.20113" lon="4.85582">
        <ele>50.08</ele>
        <time>2026-08-09T07:37:46.497Z</time>
      </trkpt>
      <trkpt lat="50.20093" lon="4.85631">
        <ele>50.42</ele>
        <time>2026-08-09T07:37:52.501Z</time>
      </trkpt>
      <trkpt lat="50.20074" lon="4.85681">
        <ele>49.78</ele>
        <time>2026-08-09T07:37:58.494Z</time>
      </trkpt>
      <trkpt lat="50.20055" lon="4.85732">
        <ele>49.97</ele>
        <time>2026-08-09T07:38:04.492Z</time>
      </trkpt>
      <trkpt lat="50.20036" lon="4.85785">
        <ele>49.97</ele>
        <time>2026-08-09T07:38:10.496Z</time>
      </trkpt>
      <trkpt lat="50.20022" lon="4.85841">
        <ele>48.54</ele>
        <time>2026-08-09T07:38:16.490Z</time>
      </trkpt>
      <trkpt lat="50.20019" lon="4.85899">
        <ele>49.16</ele>
        <time>2026-08-09T07:38:22.477Z</time>
      </trkpt>
      <trkpt lat="50.20023" lon="4.85952">
        <ele>50.76</ele>
        <time>2026-08-09T07:38:28.492Z</time>
      </trkpt>
      <trkpt lat="50.2003" lon="4.85997">
        <ele>50.99</ele>
        <time>2026-08-09T07:38:34.494Z</time>
      </trkpt>
      <trkpt lat="50.20033" lon="4.86028">
        <ele>50.59</ele>
        <time>2026-08-09T07:38:40.499Z</time>
      </trkpt>
      <trkpt lat="50.20043" lon="4.86025">
        <ele>50.99</ele>
        <time>2026-08-09T07:38:46.497Z</time>
      </trkpt>
      <trkpt lat="50.20052" lon="4.86022">
        <ele>51.61</ele>
        <time>2026-08-09T07:38:52.504Z</time>
      </trkpt>
      <trkpt lat="50.20062" lon="4.86035">
        <ele>51.92</ele>
        <time>2026-08-09T07:38:58.494Z</time>
      </trkpt>
      <trkpt lat="50.20066" lon="4.86072">
        <ele>51.25</ele>
        <time>2026-08-09T07:39:04.495Z</time>
      </trkpt>
      <trkpt lat="50.20071" lon="4.86113">
        <ele>50.77</ele>
        <time>2026-08-09T07:39:10.494Z</time>
      </trkpt>
      <trkpt lat="50.20075" lon="4.8616">
        <ele>50.51</ele>
        <time>2026-08-09T07:39:16.494Z</time>
      </trkpt>
      <trkpt lat="50.20082" lon="4.8621">
        <ele>49.82</ele>
        <time>2026-08-09T07:39:22.503Z</time>
      </trkpt>
      <trkpt lat="50.20092" lon="4.86264">
        <ele>47.63</ele>
        <time>2026-08-09T07:39:28.497Z</time>
      </trkpt>
      <trkpt lat="50.20107" lon="4.86315">
        <ele>47.09</ele>
        <time>2026-08-09T07:39:34.495Z</time>
      </trkpt>
      <trkpt lat="50.20128" lon="4.86365">
        <ele>46.56</ele>
        <time>2026-08-09T07:39:40.491Z</time>
      </trkpt>
      <trkpt lat="50.20154" lon="4.86411">
        <ele>46.22</ele>
        <time>2026-08-09T07:39:46.494Z</time>
      </trkpt>
      <trkpt lat="50.20183" lon="4.8645">
        <ele>45.7</ele>
        <time>2026-08-09T07:39:52.498Z</time>
      </trkpt>
      <trkpt lat="50.20213" lon="4.86487">
        <ele>46.51</ele>
        <time>2026-08-09T07:39:58.493Z</time>
      </trkpt>
      <trkpt lat="50.20244" lon="4.86523">
        <ele>46.91</ele>
        <time>2026-08-09T07:40:04.492Z</time>
      </trkpt>
      <trkpt lat="50.20278" lon="4.86557">
        <ele>47.86</ele>
        <time>2026-08-09T07:40:10.490Z</time>
      </trkpt>
      <trkpt lat="50.20313" lon="4.86588">
        <ele>48.81</ele>
        <time>2026-08-09T07:40:16.490Z</time>
      </trkpt>
      <trkpt lat="50.20348" lon="4.86619">
        <ele>48.99</ele>
        <time>2026-08-09T07:40:22.500Z</time>
      </trkpt>
      <trkpt lat="50.20385" lon="4.86647">
        <ele>49.09</ele>
        <time>2026-08-09T07:40:28.496Z</time>
      </trkpt>
      <trkpt lat="50.20421" lon="4.86675">
        <ele>48.87</ele>
        <time>2026-08-09T07:40:34.492Z</time>
      </trkpt>
      <trkpt lat="50.20457" lon="4.86698">
        <ele>49.9</ele>
        <time>2026-08-09T07:40:40.493Z</time>
      </trkpt>
      <trkpt lat="50.20495" lon="4.86714">
        <ele>50.64</ele>
        <time>2026-08-09T07:40:46.496Z</time>
      </trkpt>
      <trkpt lat="50.20532" lon="4.8673">
        <ele>51.66</ele>
        <time>2026-08-09T07:40:52.499Z</time>
      </trkpt>
      <trkpt lat="50.2057" lon="4.86743">
        <ele>50.75</ele>
        <time>2026-08-09T07:40:58.494Z</time>
      </trkpt>
      <trkpt lat="50.20607" lon="4.86756">
        <ele>51</ele>
        <time>2026-08-09T07:41:04.497Z</time>
      </trkpt>
      <trkpt lat="50.20646" lon="4.8677">
        <ele>50.52</ele>
        <time>2026-08-09T07:41:10.495Z</time>
      </trkpt>
      <trkpt lat="50.20684" lon="4.86783">
        <ele>49.88</ele>
        <time>2026-08-09T07:41:16.493Z</time>
      </trkpt>
      <trkpt lat="50.20721" lon="4.86794">
        <ele>49.38</ele>
        <time>2026-08-09T07:41:22.500Z</time>
      </trkpt>
      <trkpt lat="50.2076" lon="4.86808">
        <ele>49.53</ele>
        <time>2026-08-09T07:41:28.491Z</time>
      </trkpt>
      <trkpt lat="50.20797" lon="4.86822">
        <ele>49.9</ele>
        <time>2026-08-09T07:41:34.493Z</time>
      </trkpt>
      <trkpt lat="50.20836" lon="4.86833">
        <ele>50.43</ele>
        <time>2026-08-09T07:41:40.493Z</time>
      </trkpt>
      <trkpt lat="50.20874" lon="4.86841">
        <ele>50.72</ele>
        <time>2026-08-09T07:41:46.494Z</time>
      </trkpt>
      <trkpt lat="50.20912" lon="4.86849">
        <ele>50.44</ele>
        <time>2026-08-09T07:41:52.499Z</time>
      </trkpt>
      <trkpt lat="50.2095" lon="4.86859">
        <ele>51.37</ele>
        <time>2026-08-09T07:41:58.501Z</time>
      </trkpt>
      <trkpt lat="50.20988" lon="4.86869">
        <ele>52.45</ele>
        <time>2026-08-09T07:42:04.495Z</time>
      </trkpt>
      <trkpt lat="50.21025" lon="4.86879">
        <ele>52.25</ele>
        <time>2026-08-09T07:42:10.493Z</time>
      </trkpt>
      <trkpt lat="50.21063" lon="4.8689">
        <ele>52.19</ele>
        <time>2026-08-09T07:42:16.498Z</time>
      </trkpt>
      <trkpt lat="50.21101" lon="4.86904">
        <ele>51.86</ele>
        <time>2026-08-09T07:42:22.503Z</time>
      </trkpt>
      <trkpt lat="50.21139" lon="4.86923">
        <ele>50.66</ele>
        <time>2026-08-09T07:42:28.505Z</time>
      </trkpt>
      <trkpt lat="50.21179" lon="4.86941">
        <ele>50.3</ele>
        <time>2026-08-09T07:42:34.498Z</time>
      </trkpt>
      <trkpt lat="50.2122" lon="4.86958">
        <ele>49</ele>
        <time>2026-08-09T07:42:40.495Z</time>
      </trkpt>
      <trkpt lat="50.21261" lon="4.86976">
        <ele>48.56</ele>
        <time>2026-08-09T07:42:46.498Z</time>
      </trkpt>
      <trkpt lat="50.21302" lon="4.86994">
        <ele>48.16</ele>
        <time>2026-08-09T07:42:52.499Z</time>
      </trkpt>
      <trkpt lat="50.21344" lon="4.87011">
        <ele>48.12</ele>
        <time>2026-08-09T07:42:58.494Z</time>
      </trkpt>
      <trkpt lat="50.21384" lon="4.87028">
        <ele>48.05</ele>
        <time>2026-08-09T07:43:04.492Z</time>
      </trkpt>
      <trkpt lat="50.21421" lon="4.87052">
        <ele>48.58</ele>
        <time>2026-08-09T07:43:10.500Z</time>
      </trkpt>
      <trkpt lat="50.21459" lon="4.87078">
        <ele>49.66</ele>
        <time>2026-08-09T07:43:16.500Z</time>
      </trkpt>
      <trkpt lat="50.21494" lon="4.87108">
        <ele>48.27</ele>
        <time>2026-08-09T07:43:22.493Z</time>
      </trkpt>
      <trkpt lat="50.21529" lon="4.87139">
        <ele>47.97</ele>
        <time>2026-08-09T07:43:28.492Z</time>
      </trkpt>
      <trkpt lat="50.2156" lon="4.8718">
        <ele>47.01</ele>
        <time>2026-08-09T07:43:34.496Z</time>
      </trkpt>
      <trkpt lat="50.21589" lon="4.87224">
        <ele>46.47</ele>
        <time>2026-08-09T07:43:40.493Z</time>
      </trkpt>
      <trkpt lat="50.21616" lon="4.87271">
        <ele>46.83</ele>
        <time>2026-08-09T07:43:46.497Z</time>
      </trkpt>
      <trkpt lat="50.2164" lon="4.87323">
        <ele>49.1</ele>
        <time>2026-08-09T07:43:52.492Z</time>
      </trkpt>
      <trkpt lat="50.21663" lon="4.87377">
        <ele>49.98</ele>
        <time>2026-08-09T07:43:58.493Z</time>
      </trkpt>
      <trkpt lat="50.21685" lon="4.87432">
        <ele>49.11</ele>
        <time>2026-08-09T07:44:04.493Z</time>
      </trkpt>
      <trkpt lat="50.21705" lon="4.87487">
        <ele>51.25</ele>
        <time>2026-08-09T07:44:10.495Z</time>
      </trkpt>
      <trkpt lat="50.21723" lon="4.87544">
        <ele>53.19</ele>
        <time>2026-08-09T07:44:16.497Z</time>
      </trkpt>
      <trkpt lat="50.21736" lon="4.87605">
        <ele>55.24</ele>
        <time>2026-08-09T07:44:22.495Z</time>
      </trkpt>
      <trkpt lat="50.21746" lon="4.87665">
        <ele>56.52</ele>
        <time>2026-08-09T07:44:28.493Z</time>
      </trkpt>
      <trkpt lat="50.21754" lon="4.87726">
        <ele>56.41</ele>
        <time>2026-08-09T07:44:34.492Z</time>
      </trkpt>
      <trkpt lat="50.21759" lon="4.87789">
        <ele>56.97</ele>
        <time>2026-08-09T07:44:40.493Z</time>
      </trkpt>
      <trkpt lat="50.21765" lon="4.87852">
        <ele>58.78</ele>
        <time>2026-08-09T07:44:46.494Z</time>
      </trkpt>
      <trkpt lat="50.21769" lon="4.87915">
        <ele>59.51</ele>
        <time>2026-08-09T07:44:52.505Z</time>
      </trkpt>
      <trkpt lat="50.21774" lon="4.87973">
        <ele>56.63</ele>
        <time>2026-08-09T07:44:58.495Z</time>
      </trkpt>
      <trkpt lat="50.21779" lon="4.88034">
        <ele>55.46</ele>
        <time>2026-08-09T07:45:04.491Z</time>
      </trkpt>
      <trkpt lat="50.21785" lon="4.88099">
        <ele>56.48</ele>
        <time>2026-08-09T07:45:10.495Z</time>
      </trkpt>
      <trkpt lat="50.21789" lon="4.8816">
        <ele>56.45</ele>
        <time>2026-08-09T07:45:16.493Z</time>
      </trkpt>
      <trkpt lat="50.21794" lon="4.88222">
        <ele>57.58</ele>
        <time>2026-08-09T07:45:22.494Z</time>
      </trkpt>
      <trkpt lat="50.218" lon="4.88281">
        <ele>56.16</ele>
        <time>2026-08-09T07:45:28.482Z</time>
      </trkpt>
      <trkpt lat="50.21805" lon="4.88343">
        <ele>55.76</ele>
        <time>2026-08-09T07:45:34.494Z</time>
      </trkpt>
      <trkpt lat="50.21812" lon="4.88406">
        <ele>55.67</ele>
        <time>2026-08-09T07:45:40.502Z</time>
      </trkpt>
      <trkpt lat="50.21821" lon="4.88467">
        <ele>55.63</ele>
        <time>2026-08-09T07:45:46.496Z</time>
      </trkpt>
      <trkpt lat="50.21827" lon="4.88528">
        <ele>54.1</ele>
        <time>2026-08-09T07:45:52.498Z</time>
      </trkpt>
      <trkpt lat="50.21839" lon="4.88585">
        <ele>51.34</ele>
        <time>2026-08-09T07:45:58.495Z</time>
      </trkpt>
      <trkpt lat="50.21854" lon="4.88639">
        <ele>48.45</ele>
        <time>2026-08-09T07:46:04.494Z</time>
      </trkpt>
      <trkpt lat="50.21873" lon="4.88694">
        <ele>50.08</ele>
        <time>2026-08-09T07:46:10.495Z</time>
      </trkpt>
      <trkpt lat="50.21895" lon="4.88744">
        <ele>49.91</ele>
        <time>2026-08-09T07:46:16.496Z</time>
      </trkpt>
      <trkpt lat="50.2192" lon="4.88788">
        <ele>49.61</ele>
        <time>2026-08-09T07:46:22.492Z</time>
      </trkpt>
      <trkpt lat="50.21948" lon="4.8883">
        <ele>49.85</ele>
        <time>2026-08-09T07:46:28.493Z</time>
      </trkpt>
      <trkpt lat="50.21975" lon="4.88872">
        <ele>49.51</ele>
        <time>2026-08-09T07:46:34.492Z</time>
      </trkpt>
      <trkpt lat="50.22002" lon="4.88913">
        <ele>48.7</ele>
        <time>2026-08-09T07:46:40.498Z</time>
      </trkpt>
      <trkpt lat="50.22029" lon="4.88957">
        <ele>48.11</ele>
        <time>2026-08-09T07:46:46.495Z</time>
      </trkpt>
      <trkpt lat="50.22056" lon="4.89">
        <ele>47.39</ele>
        <time>2026-08-09T07:46:52.495Z</time>
      </trkpt>
      <trkpt lat="50.22084" lon="4.89039">
        <ele>47.97</ele>
        <time>2026-08-09T07:46:58.496Z</time>
      </trkpt>
      <trkpt lat="50.22114" lon="4.89078">
        <ele>48.47</ele>
        <time>2026-08-09T07:47:04.488Z</time>
      </trkpt>
      <trkpt lat="50.22146" lon="4.8911">
        <ele>46.21</ele>
        <time>2026-08-09T07:47:10.498Z</time>
      </trkpt>
      <trkpt lat="50.22179" lon="4.89136">
        <ele>47.64</ele>
        <time>2026-08-09T07:47:16.496Z</time>
      </trkpt>
      <trkpt lat="50.22216" lon="4.89157">
        <ele>47.7</ele>
        <time>2026-08-09T07:47:22.507Z</time>
      </trkpt>
      <trkpt lat="50.22254" lon="4.89175">
        <ele>47.11</ele>
        <time>2026-08-09T07:47:28.497Z</time>
      </trkpt>
      <trkpt lat="50.22294" lon="4.8918">
        <ele>47.8</ele>
        <time>2026-08-09T07:47:34.491Z</time>
      </trkpt>
      <trkpt lat="50.22334" lon="4.89181">
        <ele>48.84</ele>
        <time>2026-08-09T07:47:40.492Z</time>
      </trkpt>
      <trkpt lat="50.22372" lon="4.89173">
        <ele>46.91</ele>
        <time>2026-08-09T07:47:46.491Z</time>
      </trkpt>
      <trkpt lat="50.2241" lon="4.89153">
        <ele>47.36</ele>
        <time>2026-08-09T07:47:52.513Z</time>
      </trkpt>
      <trkpt lat="50.22444" lon="4.89116">
        <ele>47.88</ele>
        <time>2026-08-09T07:47:58.488Z</time>
      </trkpt>
      <trkpt lat="50.22477" lon="4.89078">
        <ele>48.21</ele>
        <time>2026-08-09T07:48:04.489Z</time>
      </trkpt>
      <trkpt lat="50.22509" lon="4.8904">
        <ele>48.25</ele>
        <time>2026-08-09T07:48:10.489Z</time>
      </trkpt>
      <trkpt lat="50.22544" lon="4.89009">
        <ele>48.11</ele>
        <time>2026-08-09T07:48:16.486Z</time>
      </trkpt>
      <trkpt lat="50.22579" lon="4.88985">
        <ele>47.61</ele>
        <time>2026-08-09T07:48:22.487Z</time>
      </trkpt>
      <trkpt lat="50.22614" lon="4.88963">
        <ele>46.14</ele>
        <time>2026-08-09T07:48:28.494Z</time>
      </trkpt>
      <trkpt lat="50.22648" lon="4.88939">
        <ele>46.22</ele>
        <time>2026-08-09T07:48:34.491Z</time>
      </trkpt>
      <trkpt lat="50.22684" lon="4.88916">
        <ele>46.87</ele>
        <time>2026-08-09T07:48:40.488Z</time>
      </trkpt>
      <trkpt lat="50.22719" lon="4.88895">
        <ele>46.37</ele>
        <time>2026-08-09T07:48:46.492Z</time>
      </trkpt>
      <trkpt lat="50.22755" lon="4.88872">
        <ele>46.03</ele>
        <time>2026-08-09T07:48:52.499Z</time>
      </trkpt>
      <trkpt lat="50.2279" lon="4.88849">
        <ele>45.86</ele>
        <time>2026-08-09T07:48:58.496Z</time>
      </trkpt>
      <trkpt lat="50.22825" lon="4.88827">
        <ele>45.22</ele>
        <time>2026-08-09T07:49:04.493Z</time>
      </trkpt>
      <trkpt lat="50.22861" lon="4.88804">
        <ele>45.01</ele>
        <time>2026-08-09T07:49:10.491Z</time>
      </trkpt>
      <trkpt lat="50.22898" lon="4.88781">
        <ele>45.06</ele>
        <time>2026-08-09T07:49:16.490Z</time>
      </trkpt>
      <trkpt lat="50.22935" lon="4.88769">
        <ele>45.37</ele>
        <time>2026-08-09T07:49:22.509Z</time>
      </trkpt>
      <trkpt lat="50.22974" lon="4.8876">
        <ele>45.87</ele>
        <time>2026-08-09T07:49:28.488Z</time>
      </trkpt>
      <trkpt lat="50.23013" lon="4.88752">
        <ele>46.24</ele>
        <time>2026-08-09T07:49:34.486Z</time>
      </trkpt>
      <trkpt lat="50.23053" lon="4.88744">
        <ele>47.15</ele>
        <time>2026-08-09T07:49:40.490Z</time>
      </trkpt>
      <trkpt lat="50.23093" lon="4.88738">
        <ele>47.04</ele>
        <time>2026-08-09T07:49:46.488Z</time>
      </trkpt>
      <trkpt lat="50.23133" lon="4.88734">
        <ele>46.38</ele>
        <time>2026-08-09T07:49:52.505Z</time>
      </trkpt>
      <trkpt lat="50.23173" lon="4.8873">
        <ele>46.16</ele>
        <time>2026-08-09T07:49:58.491Z</time>
      </trkpt>
      <trkpt lat="50.23212" lon="4.88728">
        <ele>45.63</ele>
        <time>2026-08-09T07:50:04.491Z</time>
      </trkpt>
      <trkpt lat="50.23252" lon="4.88732">
        <ele>44.59</ele>
        <time>2026-08-09T07:50:10.490Z</time>
      </trkpt>
      <trkpt lat="50.23291" lon="4.88738">
        <ele>44.33</ele>
        <time>2026-08-09T07:50:16.491Z</time>
      </trkpt>
      <trkpt lat="50.23331" lon="4.88738">
        <ele>44.85</ele>
        <time>2026-08-09T07:50:22.507Z</time>
      </trkpt>
      <trkpt lat="50.2337" lon="4.88736">
        <ele>45.94</ele>
        <time>2026-08-09T07:50:28.489Z</time>
      </trkpt>
      <trkpt lat="50.2341" lon="4.88736">
        <ele>46.6</ele>
        <time>2026-08-09T07:50:34.490Z</time>
      </trkpt>
      <trkpt lat="50.23449" lon="4.8874">
        <ele>45.7</ele>
        <time>2026-08-09T07:50:40.489Z</time>
      </trkpt>
      <trkpt lat="50.23488" lon="4.88748">
        <ele>46.13</ele>
        <time>2026-08-09T07:50:46.488Z</time>
      </trkpt>
      <trkpt lat="50.23528" lon="4.88757">
        <ele>46.31</ele>
        <time>2026-08-09T07:50:52.486Z</time>
      </trkpt>
      <trkpt lat="50.23568" lon="4.88769">
        <ele>45.94</ele>
        <time>2026-08-09T07:50:58.490Z</time>
      </trkpt>
      <trkpt lat="50.23607" lon="4.88782">
        <ele>45.78</ele>
        <time>2026-08-09T07:51:04.491Z</time>
      </trkpt>
      <trkpt lat="50.23647" lon="4.88796">
        <ele>46.59</ele>
        <time>2026-08-09T07:51:10.487Z</time>
      </trkpt>
      <trkpt lat="50.23687" lon="4.88807">
        <ele>46.05</ele>
        <time>2026-08-09T07:51:16.488Z</time>
      </trkpt>
      <trkpt lat="50.23727" lon="4.88813">
        <ele>45.53</ele>
        <time>2026-08-09T07:51:22.507Z</time>
      </trkpt>
      <trkpt lat="50.23767" lon="4.88815">
        <ele>45.65</ele>
        <time>2026-08-09T07:51:28.487Z</time>
      </trkpt>
      <trkpt lat="50.23807" lon="4.88814">
        <ele>47.06</ele>
        <time>2026-08-09T07:51:34.491Z</time>
      </trkpt>
      <trkpt lat="50.23846" lon="4.8881">
        <ele>47.56</ele>
        <time>2026-08-09T07:51:40.489Z</time>
      </trkpt>
      <trkpt lat="50.23885" lon="4.88814">
        <ele>49.32</ele>
        <time>2026-08-09T07:51:46.488Z</time>
      </trkpt>
      <trkpt lat="50.23921" lon="4.88842">
        <ele>49.25</ele>
        <time>2026-08-09T07:51:52.510Z</time>
      </trkpt>
      <trkpt lat="50.23952" lon="4.88878">
        <ele>48.97</ele>
        <time>2026-08-09T07:51:58.484Z</time>
      </trkpt>
      <trkpt lat="50.23981" lon="4.88922">
        <ele>46.95</ele>
        <time>2026-08-09T07:52:04.485Z</time>
      </trkpt>
      <trkpt lat="50.24008" lon="4.8897">
        <ele>45.36</ele>
        <time>2026-08-09T07:52:10.476Z</time>
      </trkpt>
      <trkpt lat="50.24035" lon="4.89017">
        <ele>44.78</ele>
        <time>2026-08-09T07:52:16.488Z</time>
      </trkpt>
      <trkpt lat="50.24059" lon="4.89069">
        <ele>46.71</ele>
        <time>2026-08-09T07:52:22.512Z</time>
      </trkpt>
      <trkpt lat="50.24082" lon="4.89122">
        <ele>47.88</ele>
        <time>2026-08-09T07:52:28.492Z</time>
      </trkpt>
      <trkpt lat="50.24103" lon="4.89173">
        <ele>48.11</ele>
        <time>2026-08-09T07:52:34.490Z</time>
      </trkpt>
      <trkpt lat="50.24122" lon="4.89228">
        <ele>48.14</ele>
        <time>2026-08-09T07:52:40.490Z</time>
      </trkpt>
      <trkpt lat="50.24138" lon="4.89282">
        <ele>50.11</ele>
        <time>2026-08-09T07:52:46.492Z</time>
      </trkpt>
      <trkpt lat="50.24156" lon="4.8933">
        <ele>50.14</ele>
        <time>2026-08-09T07:52:52.512Z</time>
      </trkpt>
      <trkpt lat="50.24175" lon="4.89383">
        <ele>48.28</ele>
        <time>2026-08-09T07:52:58.494Z</time>
      </trkpt>
      <trkpt lat="50.24196" lon="4.89437">
        <ele>46.74</ele>
        <time>2026-08-09T07:53:04.489Z</time>
      </trkpt>
      <trkpt lat="50.24217" lon="4.89493">
        <ele>45.8</ele>
        <time>2026-08-09T07:53:10.490Z</time>
      </trkpt>
      <trkpt lat="50.24232" lon="4.89553">
        <ele>45.35</ele>
        <time>2026-08-09T07:53:16.488Z</time>
      </trkpt>
      <trkpt lat="50.2424" lon="4.89616">
        <ele>46.19</ele>
        <time>2026-08-09T07:53:22.507Z</time>
      </trkpt>
      <trkpt lat="50.24243" lon="4.89681">
        <ele>47.06</ele>
        <time>2026-08-09T07:53:28.492Z</time>
      </trkpt>
      <trkpt lat="50.24243" lon="4.89744">
        <ele>47.68</ele>
        <time>2026-08-09T07:53:34.492Z</time>
      </trkpt>
      <trkpt lat="50.2424" lon="4.89805">
        <ele>47.11</ele>
        <time>2026-08-09T07:53:40.491Z</time>
      </trkpt>
      <trkpt lat="50.24234" lon="4.89866">
        <ele>46.8</ele>
        <time>2026-08-09T07:53:46.490Z</time>
      </trkpt>
      <trkpt lat="50.24226" lon="4.89927">
        <ele>45.15</ele>
        <time>2026-08-09T07:53:52.506Z</time>
      </trkpt>
      <trkpt lat="50.24209" lon="4.89982">
        <ele>43.43</ele>
        <time>2026-08-09T07:53:58.489Z</time>
      </trkpt>
      <trkpt lat="50.24182" lon="4.90028">
        <ele>42.21</ele>
        <time>2026-08-09T07:54:04.491Z</time>
      </trkpt>
      <trkpt lat="50.24162" lon="4.90083">
        <ele>42.56</ele>
        <time>2026-08-09T07:54:10.488Z</time>
      </trkpt>
      <trkpt lat="50.24144" lon="4.90138">
        <ele>42.65</ele>
        <time>2026-08-09T07:54:16.491Z</time>
      </trkpt>
      <trkpt lat="50.24124" lon="4.90193">
        <ele>44.17</ele>
        <time>2026-08-09T07:54:22.506Z</time>
      </trkpt>
      <trkpt lat="50.24106" lon="4.9025">
        <ele>46.01</ele>
        <time>2026-08-09T07:54:28.510Z</time>
      </trkpt>
      <trkpt lat="50.24091" lon="4.90309">
        <ele>46.33</ele>
        <time>2026-08-09T07:54:34.489Z</time>
      </trkpt>
      <trkpt lat="50.24073" lon="4.90366">
        <ele>46.82</ele>
        <time>2026-08-09T07:54:40.490Z</time>
      </trkpt>
      <trkpt lat="50.24057" lon="4.90425">
        <ele>46.04</ele>
        <time>2026-08-09T07:54:46.494Z</time>
      </trkpt>
      <trkpt lat="50.24043" lon="4.90485">
        <ele>44.61</ele>
        <time>2026-08-09T07:54:52.506Z</time>
      </trkpt>
      <trkpt lat="50.2403" lon="4.90546">
        <ele>44.37</ele>
        <time>2026-08-09T07:54:58.487Z</time>
      </trkpt>
      <trkpt lat="50.24019" lon="4.90606">
        <ele>45.01</ele>
        <time>2026-08-09T07:55:04.492Z</time>
      </trkpt>
      <trkpt lat="50.24015" lon="4.90671">
        <ele>43.12</ele>
        <time>2026-08-09T07:55:10.489Z</time>
      </trkpt>
      <trkpt lat="50.24012" lon="4.90735">
        <ele>42.73</ele>
        <time>2026-08-09T07:55:16.488Z</time>
      </trkpt>
      <trkpt lat="50.24012" lon="4.90799">
        <ele>43.29</ele>
        <time>2026-08-09T07:55:22.501Z</time>
      </trkpt>
      <trkpt lat="50.24017" lon="4.90861">
        <ele>43.31</ele>
        <time>2026-08-09T07:55:28.498Z</time>
      </trkpt>
      <trkpt lat="50.24022" lon="4.90915">
        <ele>42.47</ele>
        <time>2026-08-09T07:55:34.492Z</time>
      </trkpt>
      <trkpt lat="50.24026" lon="4.90969">
        <ele>42.15</ele>
        <time>2026-08-09T07:55:40.490Z</time>
      </trkpt>
      <trkpt lat="50.24029" lon="4.91018">
        <ele>43.91</ele>
        <time>2026-08-09T07:55:46.489Z</time>
      </trkpt>
      <trkpt lat="50.24032" lon="4.91053">
        <ele>44.35</ele>
        <time>2026-08-09T07:55:52.496Z</time>
      </trkpt>
      <trkpt lat="50.24023" lon="4.91064">
        <ele>44.75</ele>
        <time>2026-08-09T07:55:58.497Z</time>
      </trkpt>
      <trkpt lat="50.24011" lon="4.91065">
        <ele>44.69</ele>
        <time>2026-08-09T07:56:04.499Z</time>
      </trkpt>
      <trkpt lat="50.24002" lon="4.91044">
        <ele>44.81</ele>
        <time>2026-08-09T07:56:10.493Z</time>
      </trkpt>
      <trkpt lat="50.23996" lon="4.91014">
        <ele>45.29</ele>
        <time>2026-08-09T07:56:16.497Z</time>
      </trkpt>
      <trkpt lat="50.23989" lon="4.90978">
        <ele>45.26</ele>
        <time>2026-08-09T07:56:22.494Z</time>
      </trkpt>
      <trkpt lat="50.23986" lon="4.90943">
        <ele>46.19</ele>
        <time>2026-08-09T07:56:28.495Z</time>
      </trkpt>
      <trkpt lat="50.23982" lon="4.90926">
        <ele>47.78</ele>
        <time>2026-08-09T07:56:34.495Z</time>
      </trkpt>
      <trkpt lat="50.23964" lon="4.90926">
        <ele>47.33</ele>
        <time>2026-08-09T07:56:40.496Z</time>
      </trkpt>
      <trkpt lat="50.23944" lon="4.9093">
        <ele>47.36</ele>
        <time>2026-08-09T07:56:46.496Z</time>
      </trkpt>
      <trkpt lat="50.23927" lon="4.9093">
        <ele>47.49</ele>
        <time>2026-08-09T07:56:52.496Z</time>
      </trkpt>
      <trkpt lat="50.23916" lon="4.90909">
        <ele>45.79</ele>
        <time>2026-08-09T07:56:58.498Z</time>
      </trkpt>
      <trkpt lat="50.23912" lon="4.90853">
        <ele>45.39</ele>
        <time>2026-08-09T07:57:04.495Z</time>
      </trkpt>
      <trkpt lat="50.23912" lon="4.90833">
        <ele>48.03</ele>
        <time>2026-08-09T07:57:10.496Z</time>
      </trkpt>
      <trkpt lat="50.23898" lon="4.90819">
        <ele>48.06</ele>
        <time>2026-08-09T07:57:16.495Z</time>
      </trkpt>
      <trkpt lat="50.23882" lon="4.90811">
        <ele>48.32</ele>
        <time>2026-08-09T07:57:22.608Z</time>
      </trkpt>
      <trkpt lat="50.23872" lon="4.90803">
        <ele>47.24</ele>
        <time>2026-08-09T07:57:28.484Z</time>
      </trkpt>
      <trkpt lat="50.23856" lon="4.90796">
        <ele>47.18</ele>
        <time>2026-08-09T07:57:34.499Z</time>
      </trkpt>
      <trkpt lat="50.23837" lon="4.90789">
        <ele>45.63</ele>
        <time>2026-08-09T07:57:40.499Z</time>
      </trkpt>
      <trkpt lat="50.23832" lon="4.90822">
        <ele>44.6</ele>
        <time>2026-08-09T07:57:46.499Z</time>
      </trkpt>
      <trkpt lat="50.23824" lon="4.90851">
        <ele>43.99</ele>
        <time>2026-08-09T07:57:52.496Z</time>
      </trkpt>
      <trkpt lat="50.23819" lon="4.90886">
        <ele>45.86</ele>
        <time>2026-08-09T07:57:58.488Z</time>
      </trkpt>
      <trkpt lat="50.23816" lon="4.90925">
        <ele>46.68</ele>
        <time>2026-08-09T07:58:04.495Z</time>
      </trkpt>
      <trkpt lat="50.23805" lon="4.90957">
        <ele>46.2</ele>
        <time>2026-08-09T07:58:10.498Z</time>
      </trkpt>
      <trkpt lat="50.23811" lon="4.90992">
        <ele>45.59</ele>
        <time>2026-08-09T07:58:16.496Z</time>
      </trkpt>
      <trkpt lat="50.23819" lon="4.91">
        <ele>46.04</ele>
        <time>2026-08-09T07:58:27.438Z</time>
      </trkpt>
      <trkpt lat="50.23826" lon="4.91014">
        <ele>46.45</ele>
        <time>2026-08-09T07:58:32.446Z</time>
      </trkpt>
      <trkpt lat="50.23842" lon="4.91052">
        <ele>46.04</ele>
        <time>2026-08-09T07:58:38.444Z</time>
      </trkpt>
      <trkpt lat="50.23858" lon="4.91087">
        <ele>45.14</ele>
        <time>2026-08-09T07:58:43.445Z</time>
      </trkpt>
      <trkpt lat="50.23875" lon="4.91128">
        <ele>46.62</ele>
        <time>2026-08-09T07:58:49.444Z</time>
      </trkpt>
      <trkpt lat="50.23883" lon="4.91172">
        <ele>45.17</ele>
        <time>2026-08-09T07:58:55.443Z</time>
      </trkpt>
      <trkpt lat="50.23892" lon="4.91214">
        <ele>43.1</ele>
        <time>2026-08-09T07:59:00.444Z</time>
      </trkpt>
      <trkpt lat="50.23902" lon="4.91263">
        <ele>42.23</ele>
        <time>2026-08-09T07:59:06.447Z</time>
      </trkpt>
      <trkpt lat="50.2391" lon="4.91308">
        <ele>42.38</ele>
        <time>2026-08-09T07:59:12.445Z</time>
      </trkpt>
      <trkpt lat="50.23917" lon="4.91344">
        <ele>43.22</ele>
        <time>2026-08-09T07:59:17.445Z</time>
      </trkpt>
      <trkpt lat="50.23924" lon="4.91379">
        <ele>43.22</ele>
        <time>2026-08-09T07:59:22.502Z</time>
      </trkpt>
      <trkpt lat="50.23932" lon="4.91422">
        <ele>43.77</ele>
        <time>2026-08-09T07:59:28.494Z</time>
      </trkpt>
      <trkpt lat="50.2394" lon="4.91465">
        <ele>43.66</ele>
        <time>2026-08-09T07:59:34.450Z</time>
      </trkpt>
      <trkpt lat="50.2395" lon="4.91509">
        <ele>42.87</ele>
        <time>2026-08-09T07:59:40.450Z</time>
      </trkpt>
      <trkpt lat="50.23957" lon="4.91555">
        <ele>43.52</ele>
        <time>2026-08-09T07:59:46.445Z</time>
      </trkpt>
      <trkpt lat="50.23966" lon="4.91592">
        <ele>43.69</ele>
        <time>2026-08-09T07:59:51.446Z</time>
      </trkpt>
      <trkpt lat="50.23977" lon="4.91636">
        <ele>43.5</ele>
        <time>2026-08-09T07:59:57.447Z</time>
      </trkpt>
      <trkpt lat="50.2399" lon="4.91675">
        <ele>42.92</ele>
        <time>2026-08-09T08:00:03.443Z</time>
      </trkpt>
      <trkpt lat="50.24003" lon="4.91714">
        <ele>43.64</ele>
        <time>2026-08-09T08:00:09.443Z</time>
      </trkpt>
      <trkpt lat="50.24017" lon="4.91746">
        <ele>44.61</ele>
        <time>2026-08-09T08:00:14.445Z</time>
      </trkpt>
      <trkpt lat="50.2403" lon="4.91778">
        <ele>44.8</ele>
        <time>2026-08-09T08:00:20.447Z</time>
      </trkpt>
      <trkpt lat="50.24046" lon="4.91813">
        <ele>44.8</ele>
        <time>2026-08-09T08:00:26.442Z</time>
      </trkpt>
      <trkpt lat="50.24062" lon="4.91842">
        <ele>44.51</ele>
        <time>2026-08-09T08:00:31.443Z</time>
      </trkpt>
      <trkpt lat="50.24077" lon="4.91867">
        <ele>44.94</ele>
        <time>2026-08-09T08:00:36.443Z</time>
      </trkpt>
      <trkpt lat="50.24089" lon="4.91887">
        <ele>46.88</ele>
        <time>2026-08-09T08:00:41.451Z</time>
      </trkpt>
      <trkpt lat="50.24106" lon="4.91909">
        <ele>46.94</ele>
        <time>2026-08-09T08:00:47.442Z</time>
      </trkpt>
      <trkpt lat="50.24125" lon="4.91928">
        <ele>46.53</ele>
        <time>2026-08-09T08:00:52.491Z</time>
      </trkpt>
      <trkpt lat="50.24147" lon="4.91946">
        <ele>46.63</ele>
        <time>2026-08-09T08:00:58.501Z</time>
      </trkpt>
      <trkpt lat="50.2417" lon="4.91968">
        <ele>44.27</ele>
        <time>2026-08-09T08:01:04.452Z</time>
      </trkpt>
      <trkpt lat="50.24191" lon="4.91992">
        <ele>42.95</ele>
        <time>2026-08-09T08:01:10.451Z</time>
      </trkpt>
      <trkpt lat="50.24208" lon="4.92009">
        <ele>42.38</ele>
        <time>2026-08-09T08:01:16.453Z</time>
      </trkpt>
      <trkpt lat="50.24218" lon="4.92018">
        <ele>41.87</ele>
        <time>2026-08-09T08:01:22.505Z</time>
      </trkpt>
      <trkpt lat="50.2423" lon="4.92034">
        <ele>40.58</ele>
        <time>2026-08-09T08:01:28.497Z</time>
      </trkpt>
      <trkpt lat="50.24236" lon="4.92045">
        <ele>40.42</ele>
        <time>2026-08-09T08:01:38.442Z</time>
      </trkpt>
      <trkpt lat="50.24245" lon="4.92055">
        <ele>40.25</ele>
        <time>2026-08-09T08:01:52.514Z</time>
      </trkpt>
      <trkpt lat="50.24272" lon="4.92068">
        <ele>42.19</ele>
        <time>2026-08-09T08:01:58.518Z</time>
      </trkpt>
      <trkpt lat="50.24299" lon="4.92079">
        <ele>44.27</ele>
        <time>2026-08-09T08:02:04.451Z</time>
      </trkpt>
      <trkpt lat="50.24321" lon="4.92096">
        <ele>43.67</ele>
        <time>2026-08-09T08:02:10.455Z</time>
      </trkpt>
      <trkpt lat="50.24347" lon="4.9211">
        <ele>43.99</ele>
        <time>2026-08-09T08:02:16.448Z</time>
      </trkpt>
      <trkpt lat="50.24366" lon="4.92117">
        <ele>44.26</ele>
        <time>2026-08-09T08:02:22.510Z</time>
      </trkpt>
      <trkpt lat="50.24383" lon="4.92115">
        <ele>43.97</ele>
        <time>2026-08-09T08:02:28.499Z</time>
      </trkpt>
      <trkpt lat="50.24401" lon="4.92114">
        <ele>42.97</ele>
        <time>2026-08-09T08:02:34.460Z</time>
      </trkpt>
      <trkpt lat="50.24416" lon="4.92108">
        <ele>42.8</ele>
        <time>2026-08-09T08:02:40.458Z</time>
      </trkpt>
      <trkpt lat="50.24426" lon="4.92102">
        <ele>43.64</ele>
        <time>2026-08-09T08:02:46.461Z</time>
      </trkpt>
      <trkpt lat="50.24437" lon="4.92097">
        <ele>43.98</ele>
        <time>2026-08-09T08:03:53.442Z</time>
      </trkpt>
      <trkpt lat="50.24447" lon="4.92093">
        <ele>45.29</ele>
        <time>2026-08-09T08:03:58.503Z</time>
      </trkpt>
      <trkpt lat="50.24465" lon="4.92091">
        <ele>44.57</ele>
        <time>2026-08-09T08:04:04.467Z</time>
      </trkpt>
      <trkpt lat="50.24484" lon="4.92091">
        <ele>45.04</ele>
        <time>2026-08-09T08:04:10.469Z</time>
      </trkpt>
      <trkpt lat="50.24498" lon="4.92092">
        <ele>44.35</ele>
        <time>2026-08-09T08:04:16.474Z</time>
      </trkpt>
      <trkpt lat="50.24518" lon="4.92091">
        <ele>42.55</ele>
        <time>2026-08-09T08:04:22.511Z</time>
      </trkpt>
      <trkpt lat="50.24548" lon="4.92088">
        <ele>41.88</ele>
        <time>2026-08-09T08:04:28.501Z</time>
      </trkpt>
      <trkpt lat="50.24573" lon="4.92085">
        <ele>41.37</ele>
        <time>2026-08-09T08:04:34.471Z</time>
      </trkpt>
      <trkpt lat="50.24598" lon="4.92082">
        <ele>42.16</ele>
        <time>2026-08-09T08:04:40.477Z</time>
      </trkpt>
      <trkpt lat="50.24625" lon="4.9208">
        <ele>41.54</ele>
        <time>2026-08-09T08:04:46.470Z</time>
      </trkpt>
      <trkpt lat="50.24649" lon="4.92077">
        <ele>41.05</ele>
        <time>2026-08-09T08:04:52.508Z</time>
      </trkpt>
      <trkpt lat="50.24674" lon="4.92076">
        <ele>40.81</ele>
        <time>2026-08-09T08:04:58.499Z</time>
      </trkpt>
      <trkpt lat="50.24699" lon="4.92074">
        <ele>41.9</ele>
        <time>2026-08-09T08:05:04.471Z</time>
      </trkpt>
      <trkpt lat="50.24722" lon="4.92072">
        <ele>41.75</ele>
        <time>2026-08-09T08:05:10.478Z</time>
      </trkpt>
      <trkpt lat="50.24746" lon="4.92063">
        <ele>41.65</ele>
        <time>2026-08-09T08:05:16.472Z</time>
      </trkpt>
      <trkpt lat="50.24766" lon="4.92055">
        <ele>42.05</ele>
        <time>2026-08-09T08:05:22.506Z</time>
      </trkpt>
      <trkpt lat="50.24783" lon="4.9205">
        <ele>41.19</ele>
        <time>2026-08-09T08:05:28.502Z</time>
      </trkpt>
      <trkpt lat="50.248" lon="4.92043">
        <ele>40.79</ele>
        <time>2026-08-09T08:05:34.477Z</time>
      </trkpt>
      <trkpt lat="50.24816" lon="4.92035">
        <ele>40.19</ele>
        <time>2026-08-09T08:05:40.476Z</time>
      </trkpt>
      <trkpt lat="50.24829" lon="4.92024">
        <ele>41.25</ele>
        <time>2026-08-09T08:05:46.479Z</time>
      </trkpt>
      <trkpt lat="50.24847" lon="4.92013">
        <ele>41.04</ele>
        <time>2026-08-09T08:05:52.511Z</time>
      </trkpt>
      <trkpt lat="50.24867" lon="4.92001">
        <ele>40.64</ele>
        <time>2026-08-09T08:05:58.506Z</time>
      </trkpt>
      <trkpt lat="50.24887" lon="4.91989">
        <ele>39.05</ele>
        <time>2026-08-09T08:06:04.482Z</time>
      </trkpt>
      <trkpt lat="50.24905" lon="4.91976">
        <ele>39.38</ele>
        <time>2026-08-09T08:06:10.484Z</time>
      </trkpt>
      <trkpt lat="50.24918" lon="4.91974">
        <ele>39.61</ele>
        <time>2026-08-09T08:06:16.483Z</time>
      </trkpt>
      <trkpt lat="50.24926" lon="4.91962">
        <ele>41.06</ele>
        <time>2026-08-09T08:06:35.444Z</time>
      </trkpt>
      <trkpt lat="50.24939" lon="4.9195">
        <ele>40.84</ele>
        <time>2026-08-09T08:06:40.477Z</time>
      </trkpt>
      <trkpt lat="50.24956" lon="4.91933">
        <ele>39.59</ele>
        <time>2026-08-09T08:06:46.479Z</time>
      </trkpt>
      <trkpt lat="50.24977" lon="4.91915">
        <ele>38.56</ele>
        <time>2026-08-09T08:06:52.509Z</time>
      </trkpt>
      <trkpt lat="50.24995" lon="4.91903">
        <ele>38.15</ele>
        <time>2026-08-09T08:06:58.510Z</time>
      </trkpt>
      <trkpt lat="50.25009" lon="4.91892">
        <ele>38.06</ele>
        <time>2026-08-09T08:07:04.481Z</time>
      </trkpt>
      <trkpt lat="50.25025" lon="4.91878">
        <ele>38.33</ele>
        <time>2026-08-09T08:07:10.477Z</time>
      </trkpt>
      <trkpt lat="50.25044" lon="4.91859">
        <ele>38.77</ele>
        <time>2026-08-09T08:07:16.479Z</time>
      </trkpt>
      <trkpt lat="50.25065" lon="4.91838">
        <ele>38.7</ele>
        <time>2026-08-09T08:07:22.507Z</time>
      </trkpt>
      <trkpt lat="50.25087" lon="4.91816">
        <ele>39.02</ele>
        <time>2026-08-09T08:07:28.503Z</time>
      </trkpt>
      <trkpt lat="50.2511" lon="4.91793">
        <ele>38.99</ele>
        <time>2026-08-09T08:07:34.480Z</time>
      </trkpt>
      <trkpt lat="50.25133" lon="4.91768">
        <ele>38.77</ele>
        <time>2026-08-09T08:07:40.480Z</time>
      </trkpt>
      <trkpt lat="50.25155" lon="4.91746">
        <ele>38.94</ele>
        <time>2026-08-09T08:07:46.482Z</time>
      </trkpt>
      <trkpt lat="50.25173" lon="4.91727">
        <ele>38.84</ele>
        <time>2026-08-09T08:07:52.507Z</time>
      </trkpt>
      <trkpt lat="50.25191" lon="4.91705">
        <ele>40.51</ele>
        <time>2026-08-09T08:07:58.507Z</time>
      </trkpt>
      <trkpt lat="50.25206" lon="4.91686">
        <ele>41.31</ele>
        <time>2026-08-09T08:08:04.481Z</time>
      </trkpt>
      <trkpt lat="50.25223" lon="4.91666">
        <ele>42.23</ele>
        <time>2026-08-09T08:08:10.481Z</time>
      </trkpt>
      <trkpt lat="50.25244" lon="4.91646">
        <ele>42.74</ele>
        <time>2026-08-09T08:08:16.482Z</time>
      </trkpt>
      <trkpt lat="50.25263" lon="4.91625">
        <ele>42.78</ele>
        <time>2026-08-09T08:08:22.510Z</time>
      </trkpt>
      <trkpt lat="50.25278" lon="4.91603">
        <ele>42.63</ele>
        <time>2026-08-09T08:08:28.510Z</time>
      </trkpt>
      <trkpt lat="50.25299" lon="4.91584">
        <ele>43.39</ele>
        <time>2026-08-09T08:08:34.498Z</time>
      </trkpt>
      <trkpt lat="50.25315" lon="4.91569">
        <ele>42.99</ele>
        <time>2026-08-09T08:08:39.597Z</time>
      </trkpt>
      <trkpt lat="50.25333" lon="4.9156">
        <ele>43.69</ele>
        <time>2026-08-09T08:08:45.450Z</time>
      </trkpt>
      <trkpt lat="50.25345" lon="4.91545">
        <ele>43.27</ele>
        <time>2026-08-09T08:08:51.433Z</time>
      </trkpt>
      <trkpt lat="50.25356" lon="4.91543">
        <ele>42.29</ele>
        <time>2026-08-09T08:09:08.540Z</time>
      </trkpt>
      <trkpt lat="50.2537" lon="4.91534">
        <ele>40.25</ele>
        <time>2026-08-09T08:09:13.586Z</time>
      </trkpt>
      <trkpt lat="50.25384" lon="4.91524">
        <ele>39.8</ele>
        <time>2026-08-09T08:09:19.496Z</time>
      </trkpt>
      <trkpt lat="50.25399" lon="4.91522">
        <ele>39.26</ele>
        <time>2026-08-09T08:09:25.522Z</time>
      </trkpt>
      <trkpt lat="50.25414" lon="4.91504">
        <ele>40.36</ele>
        <time>2026-08-09T08:09:31.510Z</time>
      </trkpt>
      <trkpt lat="50.25423" lon="4.91487">
        <ele>43.37</ele>
        <time>2026-08-09T08:09:37.484Z</time>
      </trkpt>
      <trkpt lat="50.25424" lon="4.91504">
        <ele>47.51</ele>
        <time>2026-08-09T08:09:47.478Z</time>
      </trkpt>
      <trkpt lat="50.2542" lon="4.91517">
        <ele>47.59</ele>
        <time>2026-08-09T08:09:54.470Z</time>
      </trkpt>
      <trkpt lat="50.25415" lon="4.91536">
        <ele>95.32</ele>
        <time>2026-08-09T08:10:58.454Z</time>
      </trkpt>
      <trkpt lat="50.25399" lon="4.91559">
        <ele>95.39</ele>
        <time>2026-08-09T08:11:04.443Z</time>
      </trkpt>
      <trkpt lat="50.25385" lon="4.91572">
        <ele>95.39</ele>
        <time>2026-08-09T08:11:09.450Z</time>
      </trkpt>
      <trkpt lat="50.25376" lon="4.91588">
        <ele>95.39</ele>
        <time>2026-08-09T08:11:14.452Z</time>
      </trkpt>
      <trkpt lat="50.25371" lon="4.91606">
        <ele>95.1</ele>
        <time>2026-08-09T08:11:19.495Z</time>
      </trkpt>
      <trkpt lat="50.25377" lon="4.91628">
        <ele>95.09</ele>
        <time>2026-08-09T08:11:25.518Z</time>
      </trkpt>
      <trkpt lat="50.25382" lon="4.91659">
        <ele>95.09</ele>
        <time>2026-08-09T08:11:31.539Z</time>
      </trkpt>
      <trkpt lat="50.25387" lon="4.91691">
        <ele>95.02</ele>
        <time>2026-08-09T08:11:37.502Z</time>
      </trkpt>
      <trkpt lat="50.25392" lon="4.91717">
        <ele>94.99</ele>
        <time>2026-08-09T08:11:43.514Z</time>
      </trkpt>
      <trkpt lat="50.25399" lon="4.91729">
        <ele>94.99</ele>
        <time>2026-08-09T08:11:50.455Z</time>
      </trkpt>
      <trkpt lat="50.25415" lon="4.91734">
        <ele>94.99</ele>
        <time>2026-08-09T08:11:55.524Z</time>
      </trkpt>
      <trkpt lat="50.25434" lon="4.91731">
        <ele>95.29</ele>
        <time>2026-08-09T08:12:01.514Z</time>
      </trkpt>
      <trkpt lat="50.25462" lon="4.91731">
        <ele>95.29</ele>
        <time>2026-08-09T08:12:07.498Z</time>
      </trkpt>
      <trkpt lat="50.25487" lon="4.91711">
        <ele>95.29</ele>
        <time>2026-08-09T08:12:13.495Z</time>
      </trkpt>
      <trkpt lat="50.25509" lon="4.91694">
        <ele>95.01</ele>
        <time>2026-08-09T08:12:19.495Z</time>
      </trkpt>
      <trkpt lat="50.25526" lon="4.91683">
        <ele>94.99</ele>
        <time>2026-08-09T08:12:25.520Z</time>
      </trkpt>
      <trkpt lat="50.25549" lon="4.9167">
        <ele>95</ele>
        <time>2026-08-09T08:12:31.516Z</time>
      </trkpt>
      <trkpt lat="50.25562" lon="4.91657">
        <ele>94.49</ele>
        <time>2026-08-09T08:13:12.466Z</time>
      </trkpt>
      <trkpt lat="50.25574" lon="4.91647">
        <ele>94.5</ele>
        <time>2026-08-09T08:13:18.447Z</time>
      </trkpt>
      <trkpt lat="50.25564" lon="4.91649">
        <ele>94.4</ele>
        <time>2026-08-09T08:13:41.447Z</time>
      </trkpt>
      <trkpt lat="50.25559" lon="4.91663">
        <ele>94.4</ele>
        <time>2026-08-09T08:13:53.445Z</time>
      </trkpt>
      <trkpt lat="50.2557" lon="4.91659">
        <ele>94.5</ele>
        <time>2026-08-09T08:14:21.443Z</time>
      </trkpt>
      <trkpt lat="50.25579" lon="4.91669">
        <ele>94.4</ele>
        <time>2026-08-09T08:14:50.441Z</time>
      </trkpt>
      <trkpt lat="50.25577" lon="4.91692">
        <ele>94.4</ele>
        <time>2026-08-09T08:14:55.504Z</time>
      </trkpt>
      <trkpt lat="50.25555" lon="4.91663">
        <ele>94.4</ele>
        <time>2026-08-09T08:15:01.512Z</time>
      </trkpt>
      <trkpt lat="50.25549" lon="4.91652">
        <ele>94.4</ele>
        <time>2026-08-09T08:15:15.458Z</time>
      </trkpt>
      <trkpt lat="50.25547" lon="4.91636">
        <ele>94.3</ele>
        <time>2026-08-09T08:15:21.458Z</time>
      </trkpt>
      <trkpt lat="50.2555" lon="4.91651">
        <ele>94.3</ele>
        <time>2026-08-09T08:15:54.451Z</time>
      </trkpt>
      <trkpt lat="50.25564" lon="4.91678">
        <ele>94.4</ele>
        <time>2026-08-09T08:16:02.442Z</time>
      </trkpt>
      <trkpt lat="50.25566" lon="4.91694">
        <ele>94.4</ele>
        <time>2026-08-09T08:16:16.454Z</time>
      </trkpt>
      <trkpt lat="50.25554" lon="4.91684">
        <ele>94.4</ele>
        <time>2026-08-09T08:16:24.450Z</time>
      </trkpt>
      <trkpt lat="50.25569" lon="4.9166">
        <ele>94.39</ele>
        <time>2026-08-09T08:17:15.438Z</time>
      </trkpt>
      <trkpt lat="50.25559" lon="4.91676">
        <ele>94.4</ele>
        <time>2026-08-09T08:17:37.488Z</time>
      </trkpt>
      <trkpt lat="50.25563" lon="4.9166">
        <ele>94.4</ele>
        <time>2026-08-09T08:17:47.443Z</time>
      </trkpt>
      <trkpt lat="50.25571" lon="4.91642">
        <ele>94.4</ele>
        <time>2026-08-09T08:17:53.445Z</time>
      </trkpt>
      <trkpt lat="50.25567" lon="4.91664">
        <ele>94.4</ele>
        <time>2026-08-09T08:22:59.787Z</time>
      </trkpt>
      <trkpt lat="50.25559" lon="4.91634">
        <ele>94.5</ele>
        <time>2026-08-09T08:23:05.445Z</time>
      </trkpt>
      <trkpt lat="50.25558" lon="4.91648">
        <ele>94.5</ele>
        <time>2026-08-09T08:24:34.446Z</time>
      </trkpt>
      <trkpt lat="50.25565" lon="4.91658">
        <ele>94.5</ele>
        <time>2026-08-09T08:26:41.438Z</time>
      </trkpt>
      <trkpt lat="50.25587" lon="4.91627">
        <ele>94.1</ele>
        <time>2026-08-09T08:27:39.448Z</time>
      </trkpt>
      <trkpt lat="50.25601" lon="4.91604">
        <ele>94.1</ele>
        <time>2026-08-09T08:27:44.466Z</time>
      </trkpt>
      <trkpt lat="50.25608" lon="4.91594">
        <ele>94.1</ele>
        <time>2026-08-09T08:27:51.442Z</time>
      </trkpt>
      <trkpt lat="50.25619" lon="4.91595">
        <ele>93.8</ele>
        <time>2026-08-09T08:28:04.452Z</time>
      </trkpt>
      <trkpt lat="50.25627" lon="4.91576">
        <ele>93.7</ele>
        <time>2026-08-09T08:28:10.451Z</time>
      </trkpt>
      <trkpt lat="50.25632" lon="4.91549">
        <ele>93.7</ele>
        <time>2026-08-09T08:28:15.451Z</time>
      </trkpt>
      <trkpt lat="50.25639" lon="4.91521">
        <ele>93.7</ele>
        <time>2026-08-09T08:28:21.445Z</time>
      </trkpt>
      <trkpt lat="50.25647" lon="4.91501">
        <ele>93.2</ele>
        <time>2026-08-09T08:28:26.456Z</time>
      </trkpt>
      <trkpt lat="50.25643" lon="4.91485">
        <ele>93.2</ele>
        <time>2026-08-09T08:28:31.519Z</time>
      </trkpt>
      <trkpt lat="50.25652" lon="4.91463">
        <ele>93.3</ele>
        <time>2026-08-09T08:28:37.482Z</time>
      </trkpt>
      <trkpt lat="50.25656" lon="4.91444">
        <ele>93.3</ele>
        <time>2026-08-09T08:28:43.485Z</time>
      </trkpt>
      <trkpt lat="50.25664" lon="4.91435">
        <ele>92.41</ele>
        <time>2026-08-09T08:28:49.493Z</time>
      </trkpt>
      <trkpt lat="50.2566" lon="4.91419">
        <ele>92.4</ele>
        <time>2026-08-09T08:28:55.526Z</time>
      </trkpt>
      <trkpt lat="50.25661" lon="4.91395">
        <ele>92.4</ele>
        <time>2026-08-09T08:29:01.504Z</time>
      </trkpt>
      <trkpt lat="50.25678" lon="4.91375">
        <ele>92.4</ele>
        <time>2026-08-09T08:29:07.496Z</time>
      </trkpt>
      <trkpt lat="50.25698" lon="4.91363">
        <ele>92.1</ele>
        <time>2026-08-09T08:29:13.494Z</time>
      </trkpt>
      <trkpt lat="50.25711" lon="4.91351">
        <ele>92.1</ele>
        <time>2026-08-09T08:29:19.486Z</time>
      </trkpt>
      <trkpt lat="50.25721" lon="4.91339">
        <ele>92.1</ele>
        <time>2026-08-09T08:29:25.517Z</time>
      </trkpt>
      <trkpt lat="50.25729" lon="4.9133">
        <ele>91.99</ele>
        <time>2026-08-09T08:29:40.450Z</time>
      </trkpt>
      <trkpt lat="50.25739" lon="4.9133">
        <ele>91.93</ele>
        <time>2026-08-09T08:29:47.444Z</time>
      </trkpt>
      <trkpt lat="50.2575" lon="4.91326">
        <ele>91.9</ele>
        <time>2026-08-09T08:29:53.448Z</time>
      </trkpt>
      <trkpt lat="50.25762" lon="4.9131">
        <ele>91.9</ele>
        <time>2026-08-09T08:29:58.448Z</time>
      </trkpt>
      <trkpt lat="50.25774" lon="4.91313">
        <ele>91.9</ele>
        <time>2026-08-09T08:30:03.448Z</time>
      </trkpt>
      <trkpt lat="50.25783" lon="4.91309">
        <ele>91.9</ele>
        <time>2026-08-09T08:30:10.448Z</time>
      </trkpt>
      <trkpt lat="50.25793" lon="4.91304">
        <ele>93.71</ele>
        <time>2026-08-09T08:30:21.451Z</time>
      </trkpt>
      <trkpt lat="50.25811" lon="4.91308">
        <ele>93.8</ele>
        <time>2026-08-09T08:30:27.450Z</time>
      </trkpt>
      <trkpt lat="50.2583" lon="4.91307">
        <ele>92.2</ele>
        <time>2026-08-09T08:30:33.449Z</time>
      </trkpt>
      <trkpt lat="50.25841" lon="4.913">
        <ele>92.2</ele>
        <time>2026-08-09T08:30:38.449Z</time>
      </trkpt>
      <trkpt lat="50.25845" lon="4.91284">
        <ele>92.2</ele>
        <time>2026-08-09T08:30:43.490Z</time>
      </trkpt>
      <trkpt lat="50.25856" lon="4.91285">
        <ele>92.2</ele>
        <time>2026-08-09T08:31:00.444Z</time>
      </trkpt>
      <trkpt lat="50.25866" lon="4.91283">
        <ele>92.2</ele>
        <time>2026-08-09T08:31:06.446Z</time>
      </trkpt>
      <trkpt lat="50.25868" lon="4.91269">
        <ele>92.2</ele>
        <time>2026-08-09T08:33:32.456Z</time>
      </trkpt>
      <trkpt lat="50.2586" lon="4.91264">
        <ele>92.2</ele>
        <time>2026-08-09T08:33:42.453Z</time>
      </trkpt>
      <trkpt lat="50.2585" lon="4.91265">
        <ele>92.2</ele>
        <time>2026-08-09T08:33:49.503Z</time>
      </trkpt>
      <trkpt lat="50.25841" lon="4.91273">
        <ele>92.1</ele>
        <time>2026-08-09T08:33:55.515Z</time>
      </trkpt>
      <trkpt lat="50.25846" lon="4.91261">
        <ele>92.1</ele>
        <time>2026-08-09T08:36:20.457Z</time>
      </trkpt>
      <trkpt lat="50.25847" lon="4.91274">
        <ele>92.2</ele>
        <time>2026-08-09T08:39:22.455Z</time>
      </trkpt>
      <trkpt lat="50.25838" lon="4.91279">
        <ele>92</ele>
        <time>2026-08-09T08:42:46.448Z</time>
      </trkpt>
      <trkpt lat="50.25847" lon="4.91275">
        <ele>92.18</ele>
        <time>2026-08-09T08:45:11.164Z</time>
      </trkpt>
      <trkpt lat="50.25838" lon="4.91279">
        <ele>92.1</ele>
        <time>2026-08-09T08:59:17.458Z</time>
      </trkpt>
      <trkpt lat="50.25834" lon="4.91267">
        <ele>92.2</ele>
        <time>2026-08-09T09:05:24.452Z</time>
      </trkpt>
      <trkpt lat="50.25825" lon="4.91274">
        <ele>92.2</ele>
        <time>2026-08-09T09:05:30.458Z</time>
      </trkpt>
      <trkpt lat="50.25835" lon="4.91276">
        <ele>92.2</ele>
        <time>2026-08-09T09:06:06.231Z</time>
      </trkpt>
      <trkpt lat="50.25844" lon="4.91276">
        <ele>92.2</ele>
        <time>2026-08-09T09:06:11.461Z</time>
      </trkpt>
      <trkpt lat="50.25851" lon="4.91286">
        <ele>92.2</ele>
        <time>2026-08-09T09:06:34.849Z</time>
      </trkpt>
      <trkpt lat="50.25858" lon="4.91296">
        <ele>92.2</ele>
        <time>2026-08-09T09:06:41.133Z</time>
      </trkpt>
      <trkpt lat="50.25857" lon="4.91312">
        <ele>92.2</ele>
        <time>2026-08-09T09:07:16.457Z</time>
      </trkpt>
      <trkpt lat="50.25851" lon="4.91323">
        <ele>92.2</ele>
        <time>2026-08-09T09:08:42.455Z</time>
      </trkpt>
      <trkpt lat="50.2585" lon="4.91309">
        <ele>92.2</ele>
        <time>2026-08-09T09:09:26.458Z</time>
      </trkpt>
      <trkpt lat="50.2585" lon="4.91295">
        <ele>92.2</ele>
        <time>2026-08-09T09:09:34.455Z</time>
      </trkpt>
      <trkpt lat="50.25848" lon="4.91281">
        <ele>92.2</ele>
        <time>2026-08-09T09:09:56.455Z</time>
      </trkpt>
      <trkpt lat="50.25843" lon="4.9127">
        <ele>92.01</ele>
        <time>2026-08-09T09:12:46.455Z</time>
      </trkpt>
      <trkpt lat="50.25843" lon="4.91287">
        <ele>92.2</ele>
        <time>2026-08-09T09:13:55.525Z</time>
      </trkpt>
      <trkpt lat="50.25848" lon="4.91315">
        <ele>92.3</ele>
        <time>2026-08-09T09:14:01.521Z</time>
      </trkpt>
      <trkpt lat="50.25854" lon="4.91332">
        <ele>92.3</ele>
        <time>2026-08-09T09:14:07.511Z</time>
      </trkpt>
      <trkpt lat="50.25862" lon="4.91355">
        <ele>93.1</ele>
        <time>2026-08-09T09:14:13.518Z</time>
      </trkpt>
      <trkpt lat="50.25866" lon="4.91369">
        <ele>93.7</ele>
        <time>2026-08-09T09:14:26.463Z</time>
      </trkpt>
      <trkpt lat="50.25867" lon="4.91383">
        <ele>93.8</ele>
        <time>2026-08-09T09:14:43.527Z</time>
      </trkpt>
      <trkpt lat="50.2587" lon="4.91398">
        <ele>93.7</ele>
        <time>2026-08-09T09:14:50.217Z</time>
      </trkpt>
      <trkpt lat="50.25876" lon="4.91418">
        <ele>94.2</ele>
        <time>2026-08-09T09:14:55.516Z</time>
      </trkpt>
      <trkpt lat="50.25881" lon="4.91431">
        <ele>94.5</ele>
        <time>2026-08-09T09:15:03.454Z</time>
      </trkpt>
      <trkpt lat="50.25885" lon="4.91446">
        <ele>94.5</ele>
        <time>2026-08-09T09:15:08.460Z</time>
      </trkpt>
      <trkpt lat="50.25892" lon="4.91464">
        <ele>94.7</ele>
        <time>2026-08-09T09:15:13.519Z</time>
      </trkpt>
      <trkpt lat="50.25895" lon="4.91477">
        <ele>94.7</ele>
        <time>2026-08-09T09:15:37.521Z</time>
      </trkpt>
      <trkpt lat="50.25903" lon="4.91468">
        <ele>94.7</ele>
        <time>2026-08-09T09:16:06.485Z</time>
      </trkpt>
      <trkpt lat="50.25913" lon="4.91469">
        <ele>94.8</ele>
        <time>2026-08-09T09:16:12.468Z</time>
      </trkpt>
      <trkpt lat="50.25918" lon="4.91485">
        <ele>94.8</ele>
        <time>2026-08-09T09:16:17.795Z</time>
      </trkpt>
      <trkpt lat="50.25931" lon="4.91484">
        <ele>94.8</ele>
        <time>2026-08-09T09:16:23.052Z</time>
      </trkpt>
      <trkpt lat="50.25936" lon="4.91471">
        <ele>94.8</ele>
        <time>2026-08-09T09:16:28.459Z</time>
      </trkpt>
      <trkpt lat="50.25943" lon="4.91451">
        <ele>94.5</ele>
        <time>2026-08-09T09:16:33.644Z</time>
      </trkpt>
      <trkpt lat="50.25955" lon="4.91434">
        <ele>94.5</ele>
        <time>2026-08-09T09:16:39.454Z</time>
      </trkpt>
      <trkpt lat="50.25964" lon="4.91418">
        <ele>94.5</ele>
        <time>2026-08-09T09:16:44.460Z</time>
      </trkpt>
      <trkpt lat="50.25973" lon="4.91414">
        <ele>94.5</ele>
        <time>2026-08-09T09:16:49.517Z</time>
      </trkpt>
      <trkpt lat="50.25985" lon="4.91405">
        <ele>94.5</ele>
        <time>2026-08-09T09:16:55.518Z</time>
      </trkpt>
      <trkpt lat="50.25998" lon="4.91393">
        <ele>94.5</ele>
        <time>2026-08-09T09:17:01.526Z</time>
      </trkpt>
      <trkpt lat="50.26009" lon="4.9138">
        <ele>94.5</ele>
        <time>2026-08-09T09:17:07.517Z</time>
      </trkpt>
      <trkpt lat="50.26019" lon="4.91372">
        <ele>94.5</ele>
        <time>2026-08-09T09:17:13.521Z</time>
      </trkpt>
      <trkpt lat="50.2601" lon="4.91368">
        <ele>49.01</ele>
        <time>2026-08-09T09:18:05.557Z</time>
      </trkpt>
      <trkpt lat="50.26028" lon="4.91374">
        <ele>49.25</ele>
        <time>2026-08-09T09:18:11.453Z</time>
      </trkpt>
      <trkpt lat="50.26021" lon="4.91363">
        <ele>51.53</ele>
        <time>2026-08-09T09:18:59.455Z</time>
      </trkpt>
      <trkpt lat="50.26018" lon="4.91344">
        <ele>51.44</ele>
        <time>2026-08-09T09:19:04.455Z</time>
      </trkpt>
      <trkpt lat="50.26015" lon="4.91325">
        <ele>50.55</ele>
        <time>2026-08-09T09:19:09.465Z</time>
      </trkpt>
      <trkpt lat="50.2602" lon="4.91311">
        <ele>50.35</ele>
        <time>2026-08-09T09:20:23.465Z</time>
      </trkpt>
      <trkpt lat="50.26037" lon="4.913">
        <ele>49.37</ele>
        <time>2026-08-09T09:20:29.459Z</time>
      </trkpt>
      <trkpt lat="50.26053" lon="4.91291">
        <ele>47.02</ele>
        <time>2026-08-09T09:20:35.462Z</time>
      </trkpt>
      <trkpt lat="50.26064" lon="4.91278">
        <ele>46.27</ele>
        <time>2026-08-09T09:20:40.462Z</time>
      </trkpt>
      <trkpt lat="50.2607" lon="4.91259">
        <ele>46.14</ele>
        <time>2026-08-09T09:20:46.462Z</time>
      </trkpt>
      <trkpt lat="50.26071" lon="4.91242">
        <ele>47.72</ele>
        <time>2026-08-09T09:20:52.459Z</time>
      </trkpt>
      <trkpt lat="50.26075" lon="4.91228">
        <ele>48.09</ele>
        <time>2026-08-09T09:20:58.459Z</time>
      </trkpt>
      <trkpt lat="50.26081" lon="4.91217">
        <ele>48.63</ele>
        <time>2026-08-09T09:21:37.509Z</time>
      </trkpt>
      <trkpt lat="50.2609" lon="4.91209">
        <ele>49.66</ele>
        <time>2026-08-09T09:21:44.456Z</time>
      </trkpt>
      <trkpt lat="50.261" lon="4.91205">
        <ele>50.37</ele>
        <time>2026-08-09T09:21:53.458Z</time>
      </trkpt>
      <trkpt lat="50.26107" lon="4.91196">
        <ele>49.37</ele>
        <time>2026-08-09T09:24:04.459Z</time>
      </trkpt>
      <trkpt lat="50.26114" lon="4.91186">
        <ele>48.14</ele>
        <time>2026-08-09T09:25:19.505Z</time>
      </trkpt>
      <trkpt lat="50.26122" lon="4.91175">
        <ele>46.97</ele>
        <time>2026-08-09T09:25:25.518Z</time>
      </trkpt>
      <trkpt lat="50.26133" lon="4.91162">
        <ele>45.85</ele>
        <time>2026-08-09T09:25:31.518Z</time>
      </trkpt>
      <trkpt lat="50.26144" lon="4.91146">
        <ele>45.37</ele>
        <time>2026-08-09T09:25:37.506Z</time>
      </trkpt>
      <trkpt lat="50.26158" lon="4.91127">
        <ele>46.01</ele>
        <time>2026-08-09T09:25:43.511Z</time>
      </trkpt>
      <trkpt lat="50.26169" lon="4.91112">
        <ele>44.55</ele>
        <time>2026-08-09T09:25:49.510Z</time>
      </trkpt>
      <trkpt lat="50.26178" lon="4.91095">
        <ele>44.44</ele>
        <time>2026-08-09T09:25:55.521Z</time>
      </trkpt>
      <trkpt lat="50.26191" lon="4.91078">
        <ele>44.68</ele>
        <time>2026-08-09T09:26:01.520Z</time>
      </trkpt>
      <trkpt lat="50.26207" lon="4.91064">
        <ele>46.55</ele>
        <time>2026-08-09T09:26:07.515Z</time>
      </trkpt>
      <trkpt lat="50.26222" lon="4.91047">
        <ele>46.3</ele>
        <time>2026-08-09T09:26:13.510Z</time>
      </trkpt>
      <trkpt lat="50.26238" lon="4.91034">
        <ele>45.48</ele>
        <time>2026-08-09T09:26:19.506Z</time>
      </trkpt>
      <trkpt lat="50.26249" lon="4.91023">
        <ele>45.57</ele>
        <time>2026-08-09T09:26:25.515Z</time>
      </trkpt>
      <trkpt lat="50.26258" lon="4.91041">
        <ele>45.32</ele>
        <time>2026-08-09T09:26:31.516Z</time>
      </trkpt>
      <trkpt lat="50.26266" lon="4.91056">
        <ele>46.21</ele>
        <time>2026-08-09T09:26:37.512Z</time>
      </trkpt>
      <trkpt lat="50.26276" lon="4.91056">
        <ele>42.45</ele>
        <time>2026-08-09T09:27:03.464Z</time>
      </trkpt>
      <trkpt lat="50.26285" lon="4.91049">
        <ele>41.45</ele>
        <time>2026-08-09T09:27:09.458Z</time>
      </trkpt>
      <trkpt lat="50.26298" lon="4.91036">
        <ele>40.13</ele>
        <time>2026-08-09T09:27:15.458Z</time>
      </trkpt>
      <trkpt lat="50.26315" lon="4.91023">
        <ele>41.17</ele>
        <time>2026-08-09T09:27:21.454Z</time>
      </trkpt>
      <trkpt lat="50.26328" lon="4.91011">
        <ele>41.7</ele>
        <time>2026-08-09T09:27:26.454Z</time>
      </trkpt>
      <trkpt lat="50.26338" lon="4.91004">
        <ele>42.62</ele>
        <time>2026-08-09T09:27:31.517Z</time>
      </trkpt>
      <trkpt lat="50.26349" lon="4.90997">
        <ele>44.4</ele>
        <time>2026-08-09T09:27:37.507Z</time>
      </trkpt>
      <trkpt lat="50.26362" lon="4.90991">
        <ele>45.19</ele>
        <time>2026-08-09T09:27:43.507Z</time>
      </trkpt>
      <trkpt lat="50.26375" lon="4.90982">
        <ele>45.24</ele>
        <time>2026-08-09T09:27:49.511Z</time>
      </trkpt>
      <trkpt lat="50.26388" lon="4.9097">
        <ele>46.36</ele>
        <time>2026-08-09T09:27:55.522Z</time>
      </trkpt>
      <trkpt lat="50.26405" lon="4.90958">
        <ele>46.42</ele>
        <time>2026-08-09T09:28:01.515Z</time>
      </trkpt>
      <trkpt lat="50.26421" lon="4.90944">
        <ele>46.37</ele>
        <time>2026-08-09T09:28:07.516Z</time>
      </trkpt>
      <trkpt lat="50.26435" lon="4.90931">
        <ele>45.3</ele>
        <time>2026-08-09T09:28:13.509Z</time>
      </trkpt>
      <trkpt lat="50.2645" lon="4.90919">
        <ele>46.03</ele>
        <time>2026-08-09T09:28:19.540Z</time>
      </trkpt>
      <trkpt lat="50.26466" lon="4.90907">
        <ele>44.84</ele>
        <time>2026-08-09T09:28:25.491Z</time>
      </trkpt>
      <trkpt lat="50.26485" lon="4.90894">
        <ele>41.94</ele>
        <time>2026-08-09T09:28:31.512Z</time>
      </trkpt>
      <trkpt lat="50.26503" lon="4.90881">
        <ele>42.72</ele>
        <time>2026-08-09T09:28:37.510Z</time>
      </trkpt>
      <trkpt lat="50.26522" lon="4.9087">
        <ele>43.05</ele>
        <time>2026-08-09T09:28:43.511Z</time>
      </trkpt>
      <trkpt lat="50.26539" lon="4.90856">
        <ele>42.58</ele>
        <time>2026-08-09T09:28:49.518Z</time>
      </trkpt>
      <trkpt lat="50.26558" lon="4.90841">
        <ele>41.37</ele>
        <time>2026-08-09T09:28:55.520Z</time>
      </trkpt>
      <trkpt lat="50.26576" lon="4.90825">
        <ele>40.96</ele>
        <time>2026-08-09T09:29:01.519Z</time>
      </trkpt>
      <trkpt lat="50.26597" lon="4.90806">
        <ele>43.65</ele>
        <time>2026-08-09T09:29:07.510Z</time>
      </trkpt>
      <trkpt lat="50.26619" lon="4.90787">
        <ele>47.77</ele>
        <time>2026-08-09T09:29:13.509Z</time>
      </trkpt>
      <trkpt lat="50.26639" lon="4.9077">
        <ele>48.86</ele>
        <time>2026-08-09T09:29:19.513Z</time>
      </trkpt>
      <trkpt lat="50.26658" lon="4.90756">
        <ele>46.62</ele>
        <time>2026-08-09T09:29:25.520Z</time>
      </trkpt>
      <trkpt lat="50.26676" lon="4.90744">
        <ele>44.4</ele>
        <time>2026-08-09T09:29:31.517Z</time>
      </trkpt>
      <trkpt lat="50.26693" lon="4.90721">
        <ele>44.24</ele>
        <time>2026-08-09T09:29:37.514Z</time>
      </trkpt>
      <trkpt lat="50.26707" lon="4.90699">
        <ele>44.9</ele>
        <time>2026-08-09T09:29:43.517Z</time>
      </trkpt>
      <trkpt lat="50.26721" lon="4.90689">
        <ele>44.5</ele>
        <time>2026-08-09T09:29:49.509Z</time>
      </trkpt>
      <trkpt lat="50.26734" lon="4.90681">
        <ele>45.53</ele>
        <time>2026-08-09T09:29:55.524Z</time>
      </trkpt>
      <trkpt lat="50.26751" lon="4.90668">
        <ele>46.02</ele>
        <time>2026-08-09T09:30:01.515Z</time>
      </trkpt>
      <trkpt lat="50.26769" lon="4.90656">
        <ele>45.86</ele>
        <time>2026-08-09T09:30:07.513Z</time>
      </trkpt>
      <trkpt lat="50.26783" lon="4.90642">
        <ele>47.03</ele>
        <time>2026-08-09T09:30:13.507Z</time>
      </trkpt>
      <trkpt lat="50.26795" lon="4.90637">
        <ele>48.56</ele>
        <time>2026-08-09T09:30:19.514Z</time>
      </trkpt>
      <trkpt lat="50.26806" lon="4.90629">
        <ele>48.95</ele>
        <time>2026-08-09T09:30:25.525Z</time>
      </trkpt>
      <trkpt lat="50.26797" lon="4.90633">
        <ele>49.79</ele>
        <time>2026-08-09T09:30:48.457Z</time>
      </trkpt>
      <trkpt lat="50.26794" lon="4.90619">
        <ele>96.02</ele>
        <time>2026-08-09T09:54:47.450Z</time>
      </trkpt>
      <trkpt lat="50.26801" lon="4.90627">
        <ele>96.02</ele>
        <time>2026-08-09T09:56:06.462Z</time>
      </trkpt>
      <trkpt lat="50.26806" lon="4.90614">
        <ele>96.02</ele>
        <time>2026-08-09T09:56:19.510Z</time>
      </trkpt>
      <trkpt lat="50.268" lon="4.90601">
        <ele>96.02</ele>
        <time>2026-08-09T09:56:33.894Z</time>
      </trkpt>
      <trkpt lat="50.26786" lon="4.90599">
        <ele>96.02</ele>
        <time>2026-08-09T09:56:39.432Z</time>
      </trkpt>
      <trkpt lat="50.26772" lon="4.90604">
        <ele>96.02</ele>
        <time>2026-08-09T09:56:44.458Z</time>
      </trkpt>
      <trkpt lat="50.26761" lon="4.90611">
        <ele>96.02</ele>
        <time>2026-08-09T09:56:49.513Z</time>
      </trkpt>
      <trkpt lat="50.26751" lon="4.90609">
        <ele>96.02</ele>
        <time>2026-08-09T09:56:54.798Z</time>
      </trkpt>
      <trkpt lat="50.26747" lon="4.90596">
        <ele>96.02</ele>
        <time>2026-08-09T09:57:01.516Z</time>
      </trkpt>
      <trkpt lat="50.26742" lon="4.90578">
        <ele>96.02</ele>
        <time>2026-08-09T09:57:06.972Z</time>
      </trkpt>
      <trkpt lat="50.2674" lon="4.90564">
        <ele>96.02</ele>
        <time>2026-08-09T09:57:12.459Z</time>
      </trkpt>
      <trkpt lat="50.26743" lon="4.90578">
        <ele>96.02</ele>
        <time>2026-08-09T09:57:22.801Z</time>
      </trkpt>
      <trkpt lat="50.2675" lon="4.90603">
        <ele>42.17</ele>
        <time>2026-08-09T09:57:27.977Z</time>
      </trkpt>
      <trkpt lat="50.2676" lon="4.90612">
        <ele>41.9</ele>
        <time>2026-08-09T09:57:33.313Z</time>
      </trkpt>
      <trkpt lat="50.26778" lon="4.90599">
        <ele>39.71</ele>
        <time>2026-08-09T09:57:38.460Z</time>
      </trkpt>
      <trkpt lat="50.2679" lon="4.90592">
        <ele>36.63</ele>
        <time>2026-08-09T09:57:43.513Z</time>
      </trkpt>
      <trkpt lat="50.26797" lon="4.90604">
        <ele>36.71</ele>
        <time>2026-08-09T09:57:58.457Z</time>
      </trkpt>
      <trkpt lat="50.26814" lon="4.90599">
        <ele>38.36</ele>
        <time>2026-08-09T09:58:04.466Z</time>
      </trkpt>
      <trkpt lat="50.26832" lon="4.90586">
        <ele>40.13</ele>
        <time>2026-08-09T09:58:10.456Z</time>
      </trkpt>
      <trkpt lat="50.26848" lon="4.90578">
        <ele>40.7</ele>
        <time>2026-08-09T09:58:15.465Z</time>
      </trkpt>
      <trkpt lat="50.26857" lon="4.90605">
        <ele>39.22</ele>
        <time>2026-08-09T09:58:21.459Z</time>
      </trkpt>
      <trkpt lat="50.26864" lon="4.90636">
        <ele>40.83</ele>
        <time>2026-08-09T09:58:26.460Z</time>
      </trkpt>
      <trkpt lat="50.26879" lon="4.90661">
        <ele>41.93</ele>
        <time>2026-08-09T09:58:31.514Z</time>
      </trkpt>
      <trkpt lat="50.269" lon="4.90682">
        <ele>44.14</ele>
        <time>2026-08-09T09:58:37.512Z</time>
      </trkpt>
      <trkpt lat="50.26917" lon="4.90703">
        <ele>44.87</ele>
        <time>2026-08-09T09:58:43.511Z</time>
      </trkpt>
      <trkpt lat="50.26925" lon="4.90722">
        <ele>49.59</ele>
        <time>2026-08-09T09:58:49.513Z</time>
      </trkpt>
      <trkpt lat="50.26932" lon="4.90744">
        <ele>50.95</ele>
        <time>2026-08-09T09:58:55.518Z</time>
      </trkpt>
      <trkpt lat="50.26933" lon="4.90769">
        <ele>49.45</ele>
        <time>2026-08-09T09:59:01.515Z</time>
      </trkpt>
      <trkpt lat="50.26933" lon="4.90795">
        <ele>48.57</ele>
        <time>2026-08-09T09:59:07.515Z</time>
      </trkpt>
      <trkpt lat="50.26934" lon="4.90823">
        <ele>51.27</ele>
        <time>2026-08-09T09:59:13.514Z</time>
      </trkpt>
      <trkpt lat="50.26935" lon="4.90851">
        <ele>53.25</ele>
        <time>2026-08-09T09:59:19.510Z</time>
      </trkpt>
      <trkpt lat="50.26936" lon="4.90881">
        <ele>52.94</ele>
        <time>2026-08-09T09:59:25.521Z</time>
      </trkpt>
      <trkpt lat="50.26938" lon="4.90909">
        <ele>54.55</ele>
        <time>2026-08-09T09:59:31.522Z</time>
      </trkpt>
      <trkpt lat="50.26939" lon="4.90937">
        <ele>53.53</ele>
        <time>2026-08-09T09:59:37.458Z</time>
      </trkpt>
      <trkpt lat="50.26941" lon="4.90971">
        <ele>54</ele>
        <time>2026-08-09T09:59:43.461Z</time>
      </trkpt>
      <trkpt lat="50.26941" lon="4.91008">
        <ele>54.98</ele>
        <time>2026-08-09T09:59:49.458Z</time>
      </trkpt>
      <trkpt lat="50.26942" lon="4.91037">
        <ele>53.66</ele>
        <time>2026-08-09T09:59:54.462Z</time>
      </trkpt>
      <trkpt lat="50.26944" lon="4.91072">
        <ele>52.47</ele>
        <time>2026-08-09T10:00:00.455Z</time>
      </trkpt>
      <trkpt lat="50.26947" lon="4.91102">
        <ele>52.13</ele>
        <time>2026-08-09T10:00:05.457Z</time>
      </trkpt>
      <trkpt lat="50.26952" lon="4.91136">
        <ele>51.55</ele>
        <time>2026-08-09T10:00:10.458Z</time>
      </trkpt>
      <trkpt lat="50.26956" lon="4.91166">
        <ele>51.94</ele>
        <time>2026-08-09T10:00:15.460Z</time>
      </trkpt>
      <trkpt lat="50.26961" lon="4.91202">
        <ele>50.77</ele>
        <time>2026-08-09T10:00:21.458Z</time>
      </trkpt>
      <trkpt lat="50.26967" lon="4.91239">
        <ele>49.98</ele>
        <time>2026-08-09T10:00:27.461Z</time>
      </trkpt>
      <trkpt lat="50.26977" lon="4.91268">
        <ele>51.65</ele>
        <time>2026-08-09T10:00:32.461Z</time>
      </trkpt>
      <trkpt lat="50.26985" lon="4.91301">
        <ele>54.37</ele>
        <time>2026-08-09T10:00:37.471Z</time>
      </trkpt>
      <trkpt lat="50.26992" lon="4.91336">
        <ele>55.6</ele>
        <time>2026-08-09T10:00:43.469Z</time>
      </trkpt>
      <trkpt lat="50.26997" lon="4.9137">
        <ele>55.87</ele>
        <time>2026-08-09T10:00:49.471Z</time>
      </trkpt>
      <trkpt lat="50.26998" lon="4.91405">
        <ele>55.56</ele>
        <time>2026-08-09T10:00:55.517Z</time>
      </trkpt>
      <trkpt lat="50.27001" lon="4.91437">
        <ele>58.11</ele>
        <time>2026-08-09T10:01:01.518Z</time>
      </trkpt>
      <trkpt lat="50.27011" lon="4.91464">
        <ele>58.24</ele>
        <time>2026-08-09T10:01:07.472Z</time>
      </trkpt>
      <trkpt lat="50.27023" lon="4.91492">
        <ele>57.89</ele>
        <time>2026-08-09T10:01:13.474Z</time>
      </trkpt>
      <trkpt lat="50.27035" lon="4.91515">
        <ele>57.16</ele>
        <time>2026-08-09T10:01:19.471Z</time>
      </trkpt>
      <trkpt lat="50.27042" lon="4.91537">
        <ele>57.02</ele>
        <time>2026-08-09T10:01:25.516Z</time>
      </trkpt>
      <trkpt lat="50.27043" lon="4.91564">
        <ele>55.22</ele>
        <time>2026-08-09T10:01:31.517Z</time>
      </trkpt>
      <trkpt lat="50.27045" lon="4.91592">
        <ele>55.26</ele>
        <time>2026-08-09T10:01:37.471Z</time>
      </trkpt>
      <trkpt lat="50.27045" lon="4.91623">
        <ele>54.54</ele>
        <time>2026-08-09T10:01:43.470Z</time>
      </trkpt>
      <trkpt lat="50.27042" lon="4.91659">
        <ele>54.3</ele>
        <time>2026-08-09T10:01:49.473Z</time>
      </trkpt>
      <trkpt lat="50.27039" lon="4.917">
        <ele>54.63</ele>
        <time>2026-08-09T10:01:55.519Z</time>
      </trkpt>
      <trkpt lat="50.27043" lon="4.91737">
        <ele>54.6</ele>
        <time>2026-08-09T10:02:01.520Z</time>
      </trkpt>
      <trkpt lat="50.27064" lon="4.91752">
        <ele>55.25</ele>
        <time>2026-08-09T10:02:07.470Z</time>
      </trkpt>
      <trkpt lat="50.27089" lon="4.91756">
        <ele>55.57</ele>
        <time>2026-08-09T10:02:13.473Z</time>
      </trkpt>
      <trkpt lat="50.27111" lon="4.91771">
        <ele>57.07</ele>
        <time>2026-08-09T10:02:19.473Z</time>
      </trkpt>
      <trkpt lat="50.2713" lon="4.91788">
        <ele>58.09</ele>
        <time>2026-08-09T10:02:25.523Z</time>
      </trkpt>
      <trkpt lat="50.27147" lon="4.91801">
        <ele>60.68</ele>
        <time>2026-08-09T10:02:31.517Z</time>
      </trkpt>
      <trkpt lat="50.27162" lon="4.9181">
        <ele>65.46</ele>
        <time>2026-08-09T10:02:37.466Z</time>
      </trkpt>
      <trkpt lat="50.27179" lon="4.91818">
        <ele>68.63</ele>
        <time>2026-08-09T10:02:43.469Z</time>
      </trkpt>
      <trkpt lat="50.27197" lon="4.91827">
        <ele>69.06</ele>
        <time>2026-08-09T10:02:49.472Z</time>
      </trkpt>
      <trkpt lat="50.27215" lon="4.91837">
        <ele>69.98</ele>
        <time>2026-08-09T10:02:55.514Z</time>
      </trkpt>
      <trkpt lat="50.27231" lon="4.91844">
        <ele>72.3</ele>
        <time>2026-08-09T10:03:01.516Z</time>
      </trkpt>
      <trkpt lat="50.27249" lon="4.91852">
        <ele>71.8</ele>
        <time>2026-08-09T10:03:07.467Z</time>
      </trkpt>
      <trkpt lat="50.27267" lon="4.9186">
        <ele>67.57</ele>
        <time>2026-08-09T10:03:13.470Z</time>
      </trkpt>
      <trkpt lat="50.27285" lon="4.91867">
        <ele>65.97</ele>
        <time>2026-08-09T10:03:19.467Z</time>
      </trkpt>
      <trkpt lat="50.27304" lon="4.91875">
        <ele>66.22</ele>
        <time>2026-08-09T10:03:25.514Z</time>
      </trkpt>
      <trkpt lat="50.27322" lon="4.91889">
        <ele>66.11</ele>
        <time>2026-08-09T10:03:31.516Z</time>
      </trkpt>
      <trkpt lat="50.27338" lon="4.91911">
        <ele>64.84</ele>
        <time>2026-08-09T10:03:37.473Z</time>
      </trkpt>
      <trkpt lat="50.2735" lon="4.91945">
        <ele>63.92</ele>
        <time>2026-08-09T10:03:43.471Z</time>
      </trkpt>
      <trkpt lat="50.27353" lon="4.91981">
        <ele>64.2</ele>
        <time>2026-08-09T10:03:49.473Z</time>
      </trkpt>
      <trkpt lat="50.27353" lon="4.92016">
        <ele>64.25</ele>
        <time>2026-08-09T10:03:55.519Z</time>
      </trkpt>
      <trkpt lat="50.27354" lon="4.92053">
        <ele>64.23</ele>
        <time>2026-08-09T10:04:01.518Z</time>
      </trkpt>
      <trkpt lat="50.27355" lon="4.92091">
        <ele>65.45</ele>
        <time>2026-08-09T10:04:07.472Z</time>
      </trkpt>
      <trkpt lat="50.27357" lon="4.9213">
        <ele>66.82</ele>
        <time>2026-08-09T10:04:13.468Z</time>
      </trkpt>
      <trkpt lat="50.27357" lon="4.9217">
        <ele>68.06</ele>
        <time>2026-08-09T10:04:19.468Z</time>
      </trkpt>
      <trkpt lat="50.27355" lon="4.92209">
        <ele>67.62</ele>
        <time>2026-08-09T10:04:25.514Z</time>
      </trkpt>
      <trkpt lat="50.27351" lon="4.92252">
        <ele>67.07</ele>
        <time>2026-08-09T10:04:31.520Z</time>
      </trkpt>
      <trkpt lat="50.27347" lon="4.92292">
        <ele>67.31</ele>
        <time>2026-08-09T10:04:37.469Z</time>
      </trkpt>
      <trkpt lat="50.27342" lon="4.92332">
        <ele>67.74</ele>
        <time>2026-08-09T10:04:43.473Z</time>
      </trkpt>
      <trkpt lat="50.27333" lon="4.92373">
        <ele>67.39</ele>
        <time>2026-08-09T10:04:49.467Z</time>
      </trkpt>
      <trkpt lat="50.27327" lon="4.92416">
        <ele>66.8</ele>
        <time>2026-08-09T10:04:55.520Z</time>
      </trkpt>
      <trkpt lat="50.27324" lon="4.9245">
        <ele>68.51</ele>
        <time>2026-08-09T10:05:01.519Z</time>
      </trkpt>
      <trkpt lat="50.27321" lon="4.92469">
        <ele>68.27</ele>
        <time>2026-08-09T10:05:07.474Z</time>
      </trkpt>
      <trkpt lat="50.27316" lon="4.92496">
        <ele>67.91</ele>
        <time>2026-08-09T10:05:13.472Z</time>
      </trkpt>
      <trkpt lat="50.2731" lon="4.92529">
        <ele>69.02</ele>
        <time>2026-08-09T10:05:19.468Z</time>
      </trkpt>
      <trkpt lat="50.27304" lon="4.92563">
        <ele>68.48</ele>
        <time>2026-08-09T10:05:25.519Z</time>
      </trkpt>
      <trkpt lat="50.27297" lon="4.92596">
        <ele>67.5</ele>
        <time>2026-08-09T10:05:31.515Z</time>
      </trkpt>
      <trkpt lat="50.27293" lon="4.92631">
        <ele>68.03</ele>
        <time>2026-08-09T10:05:37.468Z</time>
      </trkpt>
      <trkpt lat="50.27292" lon="4.92669">
        <ele>68.07</ele>
        <time>2026-08-09T10:05:43.469Z</time>
      </trkpt>
      <trkpt lat="50.27291" lon="4.92706">
        <ele>68.22</ele>
        <time>2026-08-09T10:05:49.468Z</time>
      </trkpt>
      <trkpt lat="50.27291" lon="4.92742">
        <ele>68.84</ele>
        <time>2026-08-09T10:05:55.506Z</time>
      </trkpt>
      <trkpt lat="50.27297" lon="4.92774">
        <ele>69.19</ele>
        <time>2026-08-09T10:06:01.517Z</time>
      </trkpt>
      <trkpt lat="50.27314" lon="4.92796">
        <ele>68.76</ele>
        <time>2026-08-09T10:06:07.470Z</time>
      </trkpt>
      <trkpt lat="50.27335" lon="4.92816">
        <ele>68.1</ele>
        <time>2026-08-09T10:06:13.469Z</time>
      </trkpt>
      <trkpt lat="50.27357" lon="4.92835">
        <ele>67.95</ele>
        <time>2026-08-09T10:06:19.471Z</time>
      </trkpt>
      <trkpt lat="50.27378" lon="4.92854">
        <ele>68.51</ele>
        <time>2026-08-09T10:06:25.526Z</time>
      </trkpt>
      <trkpt lat="50.27399" lon="4.92871">
        <ele>69.91</ele>
        <time>2026-08-09T10:06:31.519Z</time>
      </trkpt>
      <trkpt lat="50.27416" lon="4.92892">
        <ele>70.49</ele>
        <time>2026-08-09T10:06:37.469Z</time>
      </trkpt>
      <trkpt lat="50.27434" lon="4.92911">
        <ele>71.53</ele>
        <time>2026-08-09T10:06:43.469Z</time>
      </trkpt>
      <trkpt lat="50.27452" lon="4.92932">
        <ele>73.7</ele>
        <time>2026-08-09T10:06:49.471Z</time>
      </trkpt>
      <trkpt lat="50.27471" lon="4.92953">
        <ele>72.51</ele>
        <time>2026-08-09T10:06:55.529Z</time>
      </trkpt>
      <trkpt lat="50.27486" lon="4.9298">
        <ele>71.83</ele>
        <time>2026-08-09T10:07:01.518Z</time>
      </trkpt>
      <trkpt lat="50.27494" lon="4.93004">
        <ele>73.25</ele>
        <time>2026-08-09T10:07:07.477Z</time>
      </trkpt>
      <trkpt lat="50.27497" lon="4.93034">
        <ele>76.14</ele>
        <time>2026-08-09T10:07:13.473Z</time>
      </trkpt>
      <trkpt lat="50.27496" lon="4.93068">
        <ele>77.7</ele>
        <time>2026-08-09T10:07:19.472Z</time>
      </trkpt>
      <trkpt lat="50.27494" lon="4.93102">
        <ele>77.47</ele>
        <time>2026-08-09T10:07:25.523Z</time>
      </trkpt>
      <trkpt lat="50.27488" lon="4.93137">
        <ele>78.43</ele>
        <time>2026-08-09T10:07:31.519Z</time>
      </trkpt>
      <trkpt lat="50.27483" lon="4.9317">
        <ele>79.25</ele>
        <time>2026-08-09T10:07:37.470Z</time>
      </trkpt>
      <trkpt lat="50.27478" lon="4.93204">
        <ele>78.79</ele>
        <time>2026-08-09T10:07:43.475Z</time>
      </trkpt>
      <trkpt lat="50.27473" lon="4.93235">
        <ele>78.01</ele>
        <time>2026-08-09T10:07:49.470Z</time>
      </trkpt>
      <trkpt lat="50.27469" lon="4.93267">
        <ele>78.12</ele>
        <time>2026-08-09T10:07:55.524Z</time>
      </trkpt>
      <trkpt lat="50.27468" lon="4.93299">
        <ele>78.73</ele>
        <time>2026-08-09T10:08:01.518Z</time>
      </trkpt>
      <trkpt lat="50.2747" lon="4.93326">
        <ele>79.86</ele>
        <time>2026-08-09T10:08:07.479Z</time>
      </trkpt>
      <trkpt lat="50.27473" lon="4.93353">
        <ele>80.51</ele>
        <time>2026-08-09T10:08:13.472Z</time>
      </trkpt>
      <trkpt lat="50.27475" lon="4.93384">
        <ele>80.8</ele>
        <time>2026-08-09T10:08:19.469Z</time>
      </trkpt>
      <trkpt lat="50.27475" lon="4.93418">
        <ele>81.65</ele>
        <time>2026-08-09T10:08:25.508Z</time>
      </trkpt>
      <trkpt lat="50.27473" lon="4.93454">
        <ele>80.64</ele>
        <time>2026-08-09T10:08:31.518Z</time>
      </trkpt>
      <trkpt lat="50.27476" lon="4.93492">
        <ele>79.96</ele>
        <time>2026-08-09T10:08:37.470Z</time>
      </trkpt>
      <trkpt lat="50.27473" lon="4.93526">
        <ele>80.43</ele>
        <time>2026-08-09T10:08:43.477Z</time>
      </trkpt>
      <trkpt lat="50.27469" lon="4.93559">
        <ele>82.37</ele>
        <time>2026-08-09T10:08:49.469Z</time>
      </trkpt>
      <trkpt lat="50.27469" lon="4.93595">
        <ele>85.2</ele>
        <time>2026-08-09T10:08:55.523Z</time>
      </trkpt>
      <trkpt lat="50.27476" lon="4.93632">
        <ele>87.97</ele>
        <time>2026-08-09T10:09:01.520Z</time>
      </trkpt>
      <trkpt lat="50.2748" lon="4.93668">
        <ele>88.72</ele>
        <time>2026-08-09T10:09:07.470Z</time>
      </trkpt>
      <trkpt lat="50.27481" lon="4.93698">
        <ele>89.37</ele>
        <time>2026-08-09T10:09:13.473Z</time>
      </trkpt>
      <trkpt lat="50.27476" lon="4.93731">
        <ele>90.46</ele>
        <time>2026-08-09T10:09:19.473Z</time>
      </trkpt>
      <trkpt lat="50.27471" lon="4.93769">
        <ele>89.2</ele>
        <time>2026-08-09T10:09:25.529Z</time>
      </trkpt>
      <trkpt lat="50.27466" lon="4.93806">
        <ele>88.37</ele>
        <time>2026-08-09T10:09:31.517Z</time>
      </trkpt>
      <trkpt lat="50.27465" lon="4.93843">
        <ele>85.92</ele>
        <time>2026-08-09T10:09:37.471Z</time>
      </trkpt>
      <trkpt lat="50.27473" lon="4.93874">
        <ele>83.47</ele>
        <time>2026-08-09T10:09:43.476Z</time>
      </trkpt>
      <trkpt lat="50.27486" lon="4.93904">
        <ele>82.98</ele>
        <time>2026-08-09T10:09:49.468Z</time>
      </trkpt>
      <trkpt lat="50.27492" lon="4.93941">
        <ele>83.18</ele>
        <time>2026-08-09T10:09:55.526Z</time>
      </trkpt>
      <trkpt lat="50.27491" lon="4.9398">
        <ele>83.8</ele>
        <time>2026-08-09T10:10:01.519Z</time>
      </trkpt>
      <trkpt lat="50.2749" lon="4.94022">
        <ele>85.64</ele>
        <time>2026-08-09T10:10:07.477Z</time>
      </trkpt>
      <trkpt lat="50.27488" lon="4.94065">
        <ele>84.22</ele>
        <time>2026-08-09T10:10:13.476Z</time>
      </trkpt>
      <trkpt lat="50.27497" lon="4.94105">
        <ele>83.5</ele>
        <time>2026-08-09T10:10:19.475Z</time>
      </trkpt>
      <trkpt lat="50.27519" lon="4.9413">
        <ele>85.83</ele>
        <time>2026-08-09T10:10:25.522Z</time>
      </trkpt>
      <trkpt lat="50.2754" lon="4.94151">
        <ele>85.73</ele>
        <time>2026-08-09T10:10:31.508Z</time>
      </trkpt>
      <trkpt lat="50.27556" lon="4.94174">
        <ele>84.37</ele>
        <time>2026-08-09T10:10:37.474Z</time>
      </trkpt>
      <trkpt lat="50.27564" lon="4.94207">
        <ele>84.05</ele>
        <time>2026-08-09T10:10:43.479Z</time>
      </trkpt>
      <trkpt lat="50.27567" lon="4.94242">
        <ele>84.19</ele>
        <time>2026-08-09T10:10:49.475Z</time>
      </trkpt>
      <trkpt lat="50.27562" lon="4.94279">
        <ele>84.29</ele>
        <time>2026-08-09T10:10:55.524Z</time>
      </trkpt>
      <trkpt lat="50.27552" lon="4.94313">
        <ele>86.56</ele>
        <time>2026-08-09T10:11:01.515Z</time>
      </trkpt>
      <trkpt lat="50.27541" lon="4.94344">
        <ele>90.28</ele>
        <time>2026-08-09T10:11:07.479Z</time>
      </trkpt>
      <trkpt lat="50.27531" lon="4.94378">
        <ele>92.73</ele>
        <time>2026-08-09T10:11:13.471Z</time>
      </trkpt>
      <trkpt lat="50.27527" lon="4.94415">
        <ele>96.49</ele>
        <time>2026-08-09T10:11:19.480Z</time>
      </trkpt>
      <trkpt lat="50.27533" lon="4.94458">
        <ele>97.7</ele>
        <time>2026-08-09T10:11:25.525Z</time>
      </trkpt>
      <trkpt lat="50.27551" lon="4.94483">
        <ele>96.35</ele>
        <time>2026-08-09T10:11:31.518Z</time>
      </trkpt>
      <trkpt lat="50.27573" lon="4.94495">
        <ele>94.91</ele>
        <time>2026-08-09T10:11:37.481Z</time>
      </trkpt>
      <trkpt lat="50.27589" lon="4.94509">
        <ele>94.35</ele>
        <time>2026-08-09T10:11:43.480Z</time>
      </trkpt>
      <trkpt lat="50.2759" lon="4.94532">
        <ele>95.5</ele>
        <time>2026-08-09T10:11:49.476Z</time>
      </trkpt>
      <trkpt lat="50.27581" lon="4.94557">
        <ele>96.83</ele>
        <time>2026-08-09T10:11:55.525Z</time>
      </trkpt>
      <trkpt lat="50.27569" lon="4.94577">
        <ele>98.33</ele>
        <time>2026-08-09T10:12:01.524Z</time>
      </trkpt>
      <trkpt lat="50.27554" lon="4.94594">
        <ele>99.22</ele>
        <time>2026-08-09T10:12:07.476Z</time>
      </trkpt>
      <trkpt lat="50.2754" lon="4.94608">
        <ele>96.81</ele>
        <time>2026-08-09T10:12:13.480Z</time>
      </trkpt>
      <trkpt lat="50.27523" lon="4.94615">
        <ele>95.94</ele>
        <time>2026-08-09T10:12:19.479Z</time>
      </trkpt>
      <trkpt lat="50.27505" lon="4.94616">
        <ele>94.25</ele>
        <time>2026-08-09T10:12:25.522Z</time>
      </trkpt>
      <trkpt lat="50.27484" lon="4.94617">
        <ele>94.1</ele>
        <time>2026-08-09T10:12:31.517Z</time>
      </trkpt>
      <trkpt lat="50.27463" lon="4.94622">
        <ele>94.78</ele>
        <time>2026-08-09T10:12:37.476Z</time>
      </trkpt>
      <trkpt lat="50.27459" lon="4.94649">
        <ele>96.84</ele>
        <time>2026-08-09T10:12:43.476Z</time>
      </trkpt>
      <trkpt lat="50.27466" lon="4.94673">
        <ele>97.4</ele>
        <time>2026-08-09T10:12:49.476Z</time>
      </trkpt>
      <trkpt lat="50.27471" lon="4.94699">
        <ele>98.79</ele>
        <time>2026-08-09T10:12:55.517Z</time>
      </trkpt>
      <trkpt lat="50.27471" lon="4.94729">
        <ele>100.84</ele>
        <time>2026-08-09T10:13:01.519Z</time>
      </trkpt>
      <trkpt lat="50.27458" lon="4.9476">
        <ele>98.38</ele>
        <time>2026-08-09T10:13:07.477Z</time>
      </trkpt>
      <trkpt lat="50.27443" lon="4.94783">
        <ele>96.33</ele>
        <time>2026-08-09T10:13:13.480Z</time>
      </trkpt>
      <trkpt lat="50.27431" lon="4.94802">
        <ele>97.19</ele>
        <time>2026-08-09T10:13:19.479Z</time>
      </trkpt>
      <trkpt lat="50.2742" lon="4.94825">
        <ele>99.55</ele>
        <time>2026-08-09T10:13:25.523Z</time>
      </trkpt>
      <trkpt lat="50.27412" lon="4.94853">
        <ele>100.36</ele>
        <time>2026-08-09T10:13:31.516Z</time>
      </trkpt>
      <trkpt lat="50.27407" lon="4.94884">
        <ele>102.21</ele>
        <time>2026-08-09T10:13:37.480Z</time>
      </trkpt>
      <trkpt lat="50.27404" lon="4.9492">
        <ele>103.17</ele>
        <time>2026-08-09T10:13:43.473Z</time>
      </trkpt>
      <trkpt lat="50.27406" lon="4.94958">
        <ele>104.55</ele>
        <time>2026-08-09T10:13:49.474Z</time>
      </trkpt>
      <trkpt lat="50.27415" lon="4.94987">
        <ele>102.73</ele>
        <time>2026-08-09T10:13:55.522Z</time>
      </trkpt>
      <trkpt lat="50.27428" lon="4.95016">
        <ele>102.94</ele>
        <time>2026-08-09T10:14:01.518Z</time>
      </trkpt>
      <trkpt lat="50.27439" lon="4.95045">
        <ele>103.55</ele>
        <time>2026-08-09T10:14:07.489Z</time>
      </trkpt>
      <trkpt lat="50.27449" lon="4.95074">
        <ele>104.15</ele>
        <time>2026-08-09T10:14:13.477Z</time>
      </trkpt>
      <trkpt lat="50.27457" lon="4.95102">
        <ele>104.48</ele>
        <time>2026-08-09T10:14:19.477Z</time>
      </trkpt>
      <trkpt lat="50.27468" lon="4.9513">
        <ele>105.13</ele>
        <time>2026-08-09T10:14:25.518Z</time>
      </trkpt>
      <trkpt lat="50.27481" lon="4.95159">
        <ele>103.86</ele>
        <time>2026-08-09T10:14:31.515Z</time>
      </trkpt>
      <trkpt lat="50.27499" lon="4.95193">
        <ele>101.27</ele>
        <time>2026-08-09T10:14:37.477Z</time>
      </trkpt>
      <trkpt lat="50.27523" lon="4.95219">
        <ele>101.25</ele>
        <time>2026-08-09T10:14:43.487Z</time>
      </trkpt>
      <trkpt lat="50.27539" lon="4.95253">
        <ele>103.41</ele>
        <time>2026-08-09T10:14:49.467Z</time>
      </trkpt>
      <trkpt lat="50.27545" lon="4.95275">
        <ele>100.53</ele>
        <time>2026-08-09T10:14:55.523Z</time>
      </trkpt>
      <trkpt lat="50.27551" lon="4.95298">
        <ele>97.42</ele>
        <time>2026-08-09T10:15:01.540Z</time>
      </trkpt>
      <trkpt lat="50.27551" lon="4.95325">
        <ele>97.69</ele>
        <time>2026-08-09T10:15:07.478Z</time>
      </trkpt>
      <trkpt lat="50.27543" lon="4.9537">
        <ele>96.99</ele>
        <time>2026-08-09T10:15:13.476Z</time>
      </trkpt>
      <trkpt lat="50.27526" lon="4.95405">
        <ele>99.75</ele>
        <time>2026-08-09T10:15:19.478Z</time>
      </trkpt>
      <trkpt lat="50.27502" lon="4.95425">
        <ele>106.39</ele>
        <time>2026-08-09T10:15:25.517Z</time>
      </trkpt>
      <trkpt lat="50.27477" lon="4.95425">
        <ele>111.94</ele>
        <time>2026-08-09T10:15:31.523Z</time>
      </trkpt>
      <trkpt lat="50.27458" lon="4.9542">
        <ele>114.78</ele>
        <time>2026-08-09T10:15:37.478Z</time>
      </trkpt>
      <trkpt lat="50.27446" lon="4.95413">
        <ele>115.4</ele>
        <time>2026-08-09T10:15:43.472Z</time>
      </trkpt>
      <trkpt lat="50.27433" lon="4.95405">
        <ele>114.34</ele>
        <time>2026-08-09T10:15:49.475Z</time>
      </trkpt>
      <trkpt lat="50.27421" lon="4.95395">
        <ele>111.05</ele>
        <time>2026-08-09T10:15:55.518Z</time>
      </trkpt>
      <trkpt lat="50.27408" lon="4.95383">
        <ele>111.18</ele>
        <time>2026-08-09T10:16:01.522Z</time>
      </trkpt>
      <trkpt lat="50.27396" lon="4.95369">
        <ele>112.47</ele>
        <time>2026-08-09T10:16:07.475Z</time>
      </trkpt>
      <trkpt lat="50.2738" lon="4.95362">
        <ele>113.56</ele>
        <time>2026-08-09T10:16:13.475Z</time>
      </trkpt>
      <trkpt lat="50.27362" lon="4.95357">
        <ele>113.16</ele>
        <time>2026-08-09T10:16:19.485Z</time>
      </trkpt>
      <trkpt lat="50.27341" lon="4.95364">
        <ele>113.85</ele>
        <time>2026-08-09T10:16:25.520Z</time>
      </trkpt>
      <trkpt lat="50.27319" lon="4.95385">
        <ele>116.02</ele>
        <time>2026-08-09T10:16:31.519Z</time>
      </trkpt>
      <trkpt lat="50.27303" lon="4.95416">
        <ele>115.3</ele>
        <time>2026-08-09T10:16:37.478Z</time>
      </trkpt>
      <trkpt lat="50.273" lon="4.9546">
        <ele>114.12</ele>
        <time>2026-08-09T10:16:43.476Z</time>
      </trkpt>
      <trkpt lat="50.27306" lon="4.95504">
        <ele>114.46</ele>
        <time>2026-08-09T10:16:49.479Z</time>
      </trkpt>
      <trkpt lat="50.27315" lon="4.9554">
        <ele>116.4</ele>
        <time>2026-08-09T10:16:55.519Z</time>
      </trkpt>
      <trkpt lat="50.27313" lon="4.95569">
        <ele>117.68</ele>
        <time>2026-08-09T10:17:01.515Z</time>
      </trkpt>
      <trkpt lat="50.27302" lon="4.956">
        <ele>118</ele>
        <time>2026-08-09T10:17:07.476Z</time>
      </trkpt>
      <trkpt lat="50.27292" lon="4.95628">
        <ele>116.93</ele>
        <time>2026-08-09T10:17:13.477Z</time>
      </trkpt>
      <trkpt lat="50.27283" lon="4.95658">
        <ele>116.74</ele>
        <time>2026-08-09T10:17:19.473Z</time>
      </trkpt>
      <trkpt lat="50.2728" lon="4.95693">
        <ele>117.41</ele>
        <time>2026-08-09T10:17:25.528Z</time>
      </trkpt>
      <trkpt lat="50.27281" lon="4.95726">
        <ele>116.32</ele>
        <time>2026-08-09T10:17:31.523Z</time>
      </trkpt>
      <trkpt lat="50.27287" lon="4.9576">
        <ele>116</ele>
        <time>2026-08-09T10:17:37.478Z</time>
      </trkpt>
      <trkpt lat="50.273" lon="4.95793">
        <ele>115.59</ele>
        <time>2026-08-09T10:17:43.478Z</time>
      </trkpt>
      <trkpt lat="50.2732" lon="4.95822">
        <ele>115.65</ele>
        <time>2026-08-09T10:17:49.479Z</time>
      </trkpt>
      <trkpt lat="50.27335" lon="4.95848">
        <ele>115.82</ele>
        <time>2026-08-09T10:17:55.524Z</time>
      </trkpt>
      <trkpt lat="50.27349" lon="4.95868">
        <ele>115.91</ele>
        <time>2026-08-09T10:18:01.518Z</time>
      </trkpt>
      <trkpt lat="50.27359" lon="4.95882">
        <ele>115.29</ele>
        <time>2026-08-09T10:18:07.478Z</time>
      </trkpt>
      <trkpt lat="50.27369" lon="4.95905">
        <ele>117.32</ele>
        <time>2026-08-09T10:18:13.481Z</time>
      </trkpt>
      <trkpt lat="50.27374" lon="4.95934">
        <ele>118.57</ele>
        <time>2026-08-09T10:18:19.484Z</time>
      </trkpt>
      <trkpt lat="50.27377" lon="4.95963">
        <ele>119.29</ele>
        <time>2026-08-09T10:18:25.512Z</time>
      </trkpt>
      <trkpt lat="50.27378" lon="4.95991">
        <ele>120.11</ele>
        <time>2026-08-09T10:18:31.517Z</time>
      </trkpt>
      <trkpt lat="50.2738" lon="4.96019">
        <ele>120.77</ele>
        <time>2026-08-09T10:18:37.477Z</time>
      </trkpt>
      <trkpt lat="50.2738" lon="4.96048">
        <ele>122.04</ele>
        <time>2026-08-09T10:18:43.476Z</time>
      </trkpt>
      <trkpt lat="50.27382" lon="4.96077">
        <ele>123.99</ele>
        <time>2026-08-09T10:18:49.478Z</time>
      </trkpt>
      <trkpt lat="50.2738" lon="4.96106">
        <ele>125.24</ele>
        <time>2026-08-09T10:18:55.525Z</time>
      </trkpt>
      <trkpt lat="50.27375" lon="4.9613">
        <ele>125.92</ele>
        <time>2026-08-09T10:19:01.517Z</time>
      </trkpt>
      <trkpt lat="50.2736" lon="4.96161">
        <ele>127.35</ele>
        <time>2026-08-09T10:19:07.476Z</time>
      </trkpt>
      <trkpt lat="50.27341" lon="4.96187">
        <ele>127.64</ele>
        <time>2026-08-09T10:19:13.477Z</time>
      </trkpt>
      <trkpt lat="50.2732" lon="4.96204">
        <ele>126.21</ele>
        <time>2026-08-09T10:19:19.477Z</time>
      </trkpt>
      <trkpt lat="50.27294" lon="4.96214">
        <ele>124.57</ele>
        <time>2026-08-09T10:19:25.524Z</time>
      </trkpt>
      <trkpt lat="50.27263" lon="4.96225">
        <ele>120.35</ele>
        <time>2026-08-09T10:19:31.519Z</time>
      </trkpt>
      <trkpt lat="50.27237" lon="4.96247">
        <ele>117.48</ele>
        <time>2026-08-09T10:19:37.479Z</time>
      </trkpt>
      <trkpt lat="50.27226" lon="4.96284">
        <ele>118.74</ele>
        <time>2026-08-09T10:19:43.476Z</time>
      </trkpt>
      <trkpt lat="50.27226" lon="4.9632">
        <ele>123.44</ele>
        <time>2026-08-09T10:19:49.478Z</time>
      </trkpt>
      <trkpt lat="50.27229" lon="4.9635">
        <ele>123.84</ele>
        <time>2026-08-09T10:19:55.528Z</time>
      </trkpt>
      <trkpt lat="50.27231" lon="4.96372">
        <ele>124.68</ele>
        <time>2026-08-09T10:20:01.519Z</time>
      </trkpt>
      <trkpt lat="50.27234" lon="4.96398">
        <ele>126.62</ele>
        <time>2026-08-09T10:20:07.481Z</time>
      </trkpt>
      <trkpt lat="50.27238" lon="4.96423">
        <ele>128.73</ele>
        <time>2026-08-09T10:20:13.476Z</time>
      </trkpt>
      <trkpt lat="50.27243" lon="4.96447">
        <ele>128.47</ele>
        <time>2026-08-09T10:20:19.478Z</time>
      </trkpt>
      <trkpt lat="50.27246" lon="4.96469">
        <ele>127.71</ele>
        <time>2026-08-09T10:20:25.526Z</time>
      </trkpt>
      <trkpt lat="50.27251" lon="4.96494">
        <ele>127.78</ele>
        <time>2026-08-09T10:20:31.514Z</time>
      </trkpt>
      <trkpt lat="50.27256" lon="4.9652">
        <ele>128.92</ele>
        <time>2026-08-09T10:20:37.479Z</time>
      </trkpt>
      <trkpt lat="50.27259" lon="4.96546">
        <ele>126.83</ele>
        <time>2026-08-09T10:20:43.478Z</time>
      </trkpt>
      <trkpt lat="50.2726" lon="4.96579">
        <ele>125.7</ele>
        <time>2026-08-09T10:20:49.484Z</time>
      </trkpt>
      <trkpt lat="50.27255" lon="4.96614">
        <ele>127.7</ele>
        <time>2026-08-09T10:20:55.505Z</time>
      </trkpt>
      <trkpt lat="50.2724" lon="4.96653">
        <ele>126.36</ele>
        <time>2026-08-09T10:21:01.516Z</time>
      </trkpt>
      <trkpt lat="50.27228" lon="4.96693">
        <ele>125.91</ele>
        <time>2026-08-09T10:21:07.475Z</time>
      </trkpt>
      <trkpt lat="50.2722" lon="4.96724">
        <ele>126.96</ele>
        <time>2026-08-09T10:21:13.476Z</time>
      </trkpt>
      <trkpt lat="50.2721" lon="4.96757">
        <ele>129.38</ele>
        <time>2026-08-09T10:21:19.481Z</time>
      </trkpt>
      <trkpt lat="50.27201" lon="4.96798">
        <ele>129.62</ele>
        <time>2026-08-09T10:21:25.523Z</time>
      </trkpt>
      <trkpt lat="50.27194" lon="4.96834">
        <ele>128.93</ele>
        <time>2026-08-09T10:21:31.516Z</time>
      </trkpt>
      <trkpt lat="50.27191" lon="4.96865">
        <ele>129.73</ele>
        <time>2026-08-09T10:21:37.475Z</time>
      </trkpt>
      <trkpt lat="50.27189" lon="4.96897">
        <ele>130.78</ele>
        <time>2026-08-09T10:21:43.480Z</time>
      </trkpt>
      <trkpt lat="50.27189" lon="4.9693">
        <ele>131.34</ele>
        <time>2026-08-09T10:21:49.477Z</time>
      </trkpt>
      <trkpt lat="50.27189" lon="4.96962">
        <ele>132.37</ele>
        <time>2026-08-09T10:21:55.531Z</time>
      </trkpt>
      <trkpt lat="50.27186" lon="4.97001">
        <ele>134.63</ele>
        <time>2026-08-09T10:22:01.518Z</time>
      </trkpt>
      <trkpt lat="50.27187" lon="4.97038">
        <ele>134.72</ele>
        <time>2026-08-09T10:22:07.474Z</time>
      </trkpt>
      <trkpt lat="50.2719" lon="4.97077">
        <ele>135.66</ele>
        <time>2026-08-09T10:22:13.481Z</time>
      </trkpt>
      <trkpt lat="50.27194" lon="4.97114">
        <ele>134.8</ele>
        <time>2026-08-09T10:22:19.475Z</time>
      </trkpt>
      <trkpt lat="50.27202" lon="4.97152">
        <ele>133.68</ele>
        <time>2026-08-09T10:22:25.523Z</time>
      </trkpt>
      <trkpt lat="50.27217" lon="4.97185">
        <ele>131.58</ele>
        <time>2026-08-09T10:22:31.518Z</time>
      </trkpt>
      <trkpt lat="50.27235" lon="4.97208">
        <ele>130.33</ele>
        <time>2026-08-09T10:22:37.474Z</time>
      </trkpt>
      <trkpt lat="50.27253" lon="4.97227">
        <ele>128.51</ele>
        <time>2026-08-09T10:22:43.480Z</time>
      </trkpt>
      <trkpt lat="50.27272" lon="4.97243">
        <ele>126.4</ele>
        <time>2026-08-09T10:22:49.475Z</time>
      </trkpt>
      <trkpt lat="50.27287" lon="4.97263">
        <ele>125.56</ele>
        <time>2026-08-09T10:22:55.523Z</time>
      </trkpt>
      <trkpt lat="50.27297" lon="4.97287">
        <ele>126.03</ele>
        <time>2026-08-09T10:23:01.517Z</time>
      </trkpt>
      <trkpt lat="50.273" lon="4.97315">
        <ele>129.53</ele>
        <time>2026-08-09T10:23:07.477Z</time>
      </trkpt>
      <trkpt lat="50.27299" lon="4.97345">
        <ele>132.42</ele>
        <time>2026-08-09T10:23:13.479Z</time>
      </trkpt>
      <trkpt lat="50.27295" lon="4.97377">
        <ele>134.34</ele>
        <time>2026-08-09T10:23:19.477Z</time>
      </trkpt>
      <trkpt lat="50.27292" lon="4.9741">
        <ele>136</ele>
        <time>2026-08-09T10:23:25.524Z</time>
      </trkpt>
      <trkpt lat="50.27288" lon="4.97443">
        <ele>139.14</ele>
        <time>2026-08-09T10:23:31.519Z</time>
      </trkpt>
      <trkpt lat="50.27284" lon="4.97476">
        <ele>140.84</ele>
        <time>2026-08-09T10:23:37.483Z</time>
      </trkpt>
      <trkpt lat="50.27278" lon="4.97502">
        <ele>143.3</ele>
        <time>2026-08-09T10:23:43.481Z</time>
      </trkpt>
      <trkpt lat="50.27275" lon="4.97527">
        <ele>147.09</ele>
        <time>2026-08-09T10:23:49.475Z</time>
      </trkpt>
      <trkpt lat="50.27273" lon="4.97558">
        <ele>150.96</ele>
        <time>2026-08-09T10:23:55.522Z</time>
      </trkpt>
      <trkpt lat="50.27271" lon="4.97597">
        <ele>153.11</ele>
        <time>2026-08-09T10:24:01.519Z</time>
      </trkpt>
      <trkpt lat="50.27267" lon="4.97642">
        <ele>155.36</ele>
        <time>2026-08-09T10:24:07.475Z</time>
      </trkpt>
      <trkpt lat="50.27266" lon="4.97672">
        <ele>151.11</ele>
        <time>2026-08-09T10:24:13.475Z</time>
      </trkpt>
      <trkpt lat="50.27265" lon="4.9771">
        <ele>145.01</ele>
        <time>2026-08-09T10:24:19.474Z</time>
      </trkpt>
      <trkpt lat="50.27257" lon="4.97751">
        <ele>142.13</ele>
        <time>2026-08-09T10:24:25.523Z</time>
      </trkpt>
      <trkpt lat="50.27246" lon="4.97788">
        <ele>141.03</ele>
        <time>2026-08-09T10:24:31.520Z</time>
      </trkpt>
      <trkpt lat="50.27231" lon="4.97823">
        <ele>138.07</ele>
        <time>2026-08-09T10:24:37.478Z</time>
      </trkpt>
      <trkpt lat="50.27216" lon="4.97855">
        <ele>136.41</ele>
        <time>2026-08-09T10:24:43.473Z</time>
      </trkpt>
      <trkpt lat="50.27202" lon="4.97888">
        <ele>137.61</ele>
        <time>2026-08-09T10:24:49.481Z</time>
      </trkpt>
      <trkpt lat="50.27193" lon="4.9792">
        <ele>138.73</ele>
        <time>2026-08-09T10:24:55.525Z</time>
      </trkpt>
      <trkpt lat="50.2719" lon="4.97955">
        <ele>138.46</ele>
        <time>2026-08-09T10:25:01.520Z</time>
      </trkpt>
      <trkpt lat="50.2719" lon="4.97997">
        <ele>139.33</ele>
        <time>2026-08-09T10:25:07.482Z</time>
      </trkpt>
      <trkpt lat="50.27193" lon="4.98043">
        <ele>141.43</ele>
        <time>2026-08-09T10:25:13.479Z</time>
      </trkpt>
      <trkpt lat="50.27192" lon="4.98084">
        <ele>142.71</ele>
        <time>2026-08-09T10:25:19.482Z</time>
      </trkpt>
      <trkpt lat="50.27191" lon="4.98119">
        <ele>143.64</ele>
        <time>2026-08-09T10:25:25.520Z</time>
      </trkpt>
      <trkpt lat="50.27192" lon="4.98155">
        <ele>143.86</ele>
        <time>2026-08-09T10:25:31.520Z</time>
      </trkpt>
      <trkpt lat="50.27186" lon="4.9819">
        <ele>144.34</ele>
        <time>2026-08-09T10:25:37.476Z</time>
      </trkpt>
      <trkpt lat="50.27179" lon="4.98227">
        <ele>146.26</ele>
        <time>2026-08-09T10:25:43.479Z</time>
      </trkpt>
      <trkpt lat="50.27173" lon="4.98263">
        <ele>145.37</ele>
        <time>2026-08-09T10:25:49.479Z</time>
      </trkpt>
      <trkpt lat="50.27169" lon="4.98297">
        <ele>143.96</ele>
        <time>2026-08-09T10:25:55.519Z</time>
      </trkpt>
      <trkpt lat="50.27166" lon="4.98334">
        <ele>144.67</ele>
        <time>2026-08-09T10:26:01.521Z</time>
      </trkpt>
      <trkpt lat="50.27165" lon="4.98371">
        <ele>146.81</ele>
        <time>2026-08-09T10:26:07.482Z</time>
      </trkpt>
      <trkpt lat="50.27168" lon="4.98407">
        <ele>147.97</ele>
        <time>2026-08-09T10:26:13.478Z</time>
      </trkpt>
      <trkpt lat="50.2718" lon="4.98439">
        <ele>147.63</ele>
        <time>2026-08-09T10:26:19.474Z</time>
      </trkpt>
      <trkpt lat="50.27196" lon="4.98468">
        <ele>147.35</ele>
        <time>2026-08-09T10:26:25.515Z</time>
      </trkpt>
      <trkpt lat="50.27213" lon="4.98503">
        <ele>147.33</ele>
        <time>2026-08-09T10:26:31.517Z</time>
      </trkpt>
      <trkpt lat="50.27232" lon="4.98537">
        <ele>147.2</ele>
        <time>2026-08-09T10:26:37.479Z</time>
      </trkpt>
      <trkpt lat="50.27255" lon="4.98571">
        <ele>146.73</ele>
        <time>2026-08-09T10:26:43.477Z</time>
      </trkpt>
      <trkpt lat="50.27282" lon="4.98594">
        <ele>146.11</ele>
        <time>2026-08-09T10:26:49.477Z</time>
      </trkpt>
      <trkpt lat="50.27306" lon="4.9861">
        <ele>144.66</ele>
        <time>2026-08-09T10:26:55.517Z</time>
      </trkpt>
      <trkpt lat="50.27327" lon="4.98623">
        <ele>145.97</ele>
        <time>2026-08-09T10:27:01.516Z</time>
      </trkpt>
      <trkpt lat="50.27346" lon="4.98637">
        <ele>148.63</ele>
        <time>2026-08-09T10:27:07.480Z</time>
      </trkpt>
      <trkpt lat="50.27366" lon="4.98653">
        <ele>150.52</ele>
        <time>2026-08-09T10:27:13.477Z</time>
      </trkpt>
      <trkpt lat="50.27383" lon="4.98667">
        <ele>151.09</ele>
        <time>2026-08-09T10:27:19.477Z</time>
      </trkpt>
      <trkpt lat="50.27396" lon="4.98678">
        <ele>151.76</ele>
        <time>2026-08-09T10:27:25.524Z</time>
      </trkpt>
      <trkpt lat="50.27409" lon="4.9869">
        <ele>152.29</ele>
        <time>2026-08-09T10:27:31.520Z</time>
      </trkpt>
      <trkpt lat="50.27428" lon="4.98694">
        <ele>153.33</ele>
        <time>2026-08-09T10:27:37.480Z</time>
      </trkpt>
      <trkpt lat="50.27445" lon="4.98706">
        <ele>156.04</ele>
        <time>2026-08-09T10:27:43.475Z</time>
      </trkpt>
      <trkpt lat="50.27463" lon="4.98717">
        <ele>157.21</ele>
        <time>2026-08-09T10:27:49.479Z</time>
      </trkpt>
      <trkpt lat="50.27482" lon="4.9873">
        <ele>154.99</ele>
        <time>2026-08-09T10:27:55.516Z</time>
      </trkpt>
      <trkpt lat="50.27501" lon="4.98743">
        <ele>156.4</ele>
        <time>2026-08-09T10:28:01.519Z</time>
      </trkpt>
      <trkpt lat="50.27516" lon="4.98751">
        <ele>159.1</ele>
        <time>2026-08-09T10:28:07.474Z</time>
      </trkpt>
      <trkpt lat="50.27531" lon="4.98758">
        <ele>160.9</ele>
        <time>2026-08-09T10:28:13.478Z</time>
      </trkpt>
      <trkpt lat="50.27548" lon="4.98765">
        <ele>163.31</ele>
        <time>2026-08-09T10:28:19.477Z</time>
      </trkpt>
      <trkpt lat="50.27564" lon="4.98766">
        <ele>164.67</ele>
        <time>2026-08-09T10:28:25.510Z</time>
      </trkpt>
      <trkpt lat="50.27578" lon="4.98758">
        <ele>166.29</ele>
        <time>2026-08-09T10:28:31.514Z</time>
      </trkpt>
      <trkpt lat="50.27595" lon="4.98751">
        <ele>163.83</ele>
        <time>2026-08-09T10:28:37.478Z</time>
      </trkpt>
      <trkpt lat="50.2761" lon="4.98747">
        <ele>163.36</ele>
        <time>2026-08-09T10:28:43.479Z</time>
      </trkpt>
      <trkpt lat="50.27626" lon="4.98747">
        <ele>162.34</ele>
        <time>2026-08-09T10:28:49.484Z</time>
      </trkpt>
      <trkpt lat="50.27642" lon="4.98749">
        <ele>160.01</ele>
        <time>2026-08-09T10:28:55.514Z</time>
      </trkpt>
      <trkpt lat="50.2766" lon="4.98752">
        <ele>159.84</ele>
        <time>2026-08-09T10:29:01.516Z</time>
      </trkpt>
      <trkpt lat="50.27679" lon="4.98757">
        <ele>159.93</ele>
        <time>2026-08-09T10:29:07.479Z</time>
      </trkpt>
      <trkpt lat="50.277" lon="4.98765">
        <ele>159.51</ele>
        <time>2026-08-09T10:29:13.477Z</time>
      </trkpt>
      <trkpt lat="50.27723" lon="4.98772">
        <ele>161.19</ele>
        <time>2026-08-09T10:29:19.481Z</time>
      </trkpt>
      <trkpt lat="50.27746" lon="4.98785">
        <ele>161.51</ele>
        <time>2026-08-09T10:29:25.515Z</time>
      </trkpt>
      <trkpt lat="50.27759" lon="4.98815">
        <ele>161.25</ele>
        <time>2026-08-09T10:29:31.513Z</time>
      </trkpt>
      <trkpt lat="50.27763" lon="4.98851">
        <ele>160.35</ele>
        <time>2026-08-09T10:29:37.480Z</time>
      </trkpt>
      <trkpt lat="50.27771" lon="4.98879">
        <ele>159.08</ele>
        <time>2026-08-09T10:29:43.472Z</time>
      </trkpt>
      <trkpt lat="50.27779" lon="4.989">
        <ele>157.33</ele>
        <time>2026-08-09T10:29:49.480Z</time>
      </trkpt>
      <trkpt lat="50.27789" lon="4.98918">
        <ele>157.57</ele>
        <time>2026-08-09T10:29:55.521Z</time>
      </trkpt>
      <trkpt lat="50.27798" lon="4.98933">
        <ele>158.99</ele>
        <time>2026-08-09T10:30:01.522Z</time>
      </trkpt>
      <trkpt lat="50.27809" lon="4.98948">
        <ele>159.27</ele>
        <time>2026-08-09T10:30:07.484Z</time>
      </trkpt>
      <trkpt lat="50.27822" lon="4.98963">
        <ele>158.88</ele>
        <time>2026-08-09T10:30:13.483Z</time>
      </trkpt>
      <trkpt lat="50.27835" lon="4.98982">
        <ele>159.73</ele>
        <time>2026-08-09T10:30:19.486Z</time>
      </trkpt>
      <trkpt lat="50.27846" lon="4.98999">
        <ele>163.2</ele>
        <time>2026-08-09T10:30:25.517Z</time>
      </trkpt>
      <trkpt lat="50.27851" lon="4.99018">
        <ele>165.06</ele>
        <time>2026-08-09T10:30:31.523Z</time>
      </trkpt>
      <trkpt lat="50.27859" lon="4.99038">
        <ele>165.27</ele>
        <time>2026-08-09T10:30:37.487Z</time>
      </trkpt>
      <trkpt lat="50.27866" lon="4.99058">
        <ele>166.67</ele>
        <time>2026-08-09T10:30:43.483Z</time>
      </trkpt>
      <trkpt lat="50.27877" lon="4.99074">
        <ele>168.7</ele>
        <time>2026-08-09T10:30:49.484Z</time>
      </trkpt>
      <trkpt lat="50.27884" lon="4.99085">
        <ele>166.82</ele>
        <time>2026-08-09T10:30:55.511Z</time>
      </trkpt>
      <trkpt lat="50.27894" lon="4.99092">
        <ele>166.18</ele>
        <time>2026-08-09T10:31:01.522Z</time>
      </trkpt>
      <trkpt lat="50.27902" lon="4.99102">
        <ele>165.37</ele>
        <time>2026-08-09T10:31:07.499Z</time>
      </trkpt>
      <trkpt lat="50.27914" lon="4.99108">
        <ele>167.05</ele>
        <time>2026-08-09T10:31:13.504Z</time>
      </trkpt>
      <trkpt lat="50.27925" lon="4.99112">
        <ele>168</ele>
        <time>2026-08-09T10:31:19.500Z</time>
      </trkpt>
      <trkpt lat="50.27936" lon="4.99118">
        <ele>169.27</ele>
        <time>2026-08-09T10:31:25.521Z</time>
      </trkpt>
      <trkpt lat="50.27948" lon="4.99122">
        <ele>171.8</ele>
        <time>2026-08-09T10:31:31.522Z</time>
      </trkpt>
      <trkpt lat="50.27958" lon="4.99124">
        <ele>173.95</ele>
        <time>2026-08-09T10:31:37.499Z</time>
      </trkpt>
      <trkpt lat="50.27968" lon="4.99125">
        <ele>175.87</ele>
        <time>2026-08-09T10:31:43.495Z</time>
      </trkpt>
      <trkpt lat="50.27977" lon="4.99126">
        <ele>177.07</ele>
        <time>2026-08-09T10:31:49.499Z</time>
      </trkpt>
      <trkpt lat="50.27987" lon="4.99129">
        <ele>178.09</ele>
        <time>2026-08-09T10:31:55.557Z</time>
      </trkpt>
      <trkpt lat="50.27995" lon="4.99136">
        <ele>177.42</ele>
        <time>2026-08-09T10:32:01.524Z</time>
      </trkpt>
      <trkpt lat="50.28003" lon="4.99149">
        <ele>174.47</ele>
        <time>2026-08-09T10:32:07.504Z</time>
      </trkpt>
      <trkpt lat="50.28011" lon="4.99162">
        <ele>174.02</ele>
        <time>2026-08-09T10:32:13.495Z</time>
      </trkpt>
      <trkpt lat="50.2802" lon="4.99176">
        <ele>175.45</ele>
        <time>2026-08-09T10:32:19.496Z</time>
      </trkpt>
      <trkpt lat="50.28029" lon="4.99188">
        <ele>177.45</ele>
        <time>2026-08-09T10:32:25.523Z</time>
      </trkpt>
      <trkpt lat="50.28038" lon="4.99201">
        <ele>177.48</ele>
        <time>2026-08-09T10:32:31.525Z</time>
      </trkpt>
      <trkpt lat="50.28049" lon="4.99215">
        <ele>178.87</ele>
        <time>2026-08-09T10:32:37.500Z</time>
      </trkpt>
      <trkpt lat="50.28059" lon="4.99224">
        <ele>178.52</ele>
        <time>2026-08-09T10:32:43.494Z</time>
      </trkpt>
      <trkpt lat="50.28071" lon="4.99233">
        <ele>179.31</ele>
        <time>2026-08-09T10:32:49.497Z</time>
      </trkpt>
      <trkpt lat="50.28084" lon="4.99246">
        <ele>180.33</ele>
        <time>2026-08-09T10:32:55.517Z</time>
      </trkpt>
      <trkpt lat="50.28095" lon="4.99267">
        <ele>179.08</ele>
        <time>2026-08-09T10:33:01.517Z</time>
      </trkpt>
      <trkpt lat="50.2811" lon="4.99289">
        <ele>182.86</ele>
        <time>2026-08-09T10:33:07.495Z</time>
      </trkpt>
      <trkpt lat="50.28125" lon="4.99309">
        <ele>185.34</ele>
        <time>2026-08-09T10:33:13.498Z</time>
      </trkpt>
      <trkpt lat="50.2814" lon="4.99333">
        <ele>186.56</ele>
        <time>2026-08-09T10:33:19.497Z</time>
      </trkpt>
      <trkpt lat="50.28155" lon="4.99354">
        <ele>187.75</ele>
        <time>2026-08-09T10:33:25.503Z</time>
      </trkpt>
      <trkpt lat="50.28169" lon="4.99378">
        <ele>187.94</ele>
        <time>2026-08-09T10:33:31.521Z</time>
      </trkpt>
      <trkpt lat="50.28181" lon="4.99411">
        <ele>187.51</ele>
        <time>2026-08-09T10:33:37.487Z</time>
      </trkpt>
      <trkpt lat="50.28193" lon="4.99444">
        <ele>185.5</ele>
        <time>2026-08-09T10:33:43.494Z</time>
      </trkpt>
      <trkpt lat="50.28204" lon="4.99477">
        <ele>185</ele>
        <time>2026-08-09T10:33:49.500Z</time>
      </trkpt>
      <trkpt lat="50.28217" lon="4.9951">
        <ele>184.83</ele>
        <time>2026-08-09T10:33:55.518Z</time>
      </trkpt>
      <trkpt lat="50.2823" lon="4.99545">
        <ele>185.47</ele>
        <time>2026-08-09T10:34:01.523Z</time>
      </trkpt>
      <trkpt lat="50.28246" lon="4.99581">
        <ele>184.87</ele>
        <time>2026-08-09T10:34:07.498Z</time>
      </trkpt>
      <trkpt lat="50.28265" lon="4.99614">
        <ele>184.67</ele>
        <time>2026-08-09T10:34:13.497Z</time>
      </trkpt>
      <trkpt lat="50.28286" lon="4.99642">
        <ele>185.47</ele>
        <time>2026-08-09T10:34:19.498Z</time>
      </trkpt>
      <trkpt lat="50.28309" lon="4.99666">
        <ele>187.5</ele>
        <time>2026-08-09T10:34:25.524Z</time>
      </trkpt>
      <trkpt lat="50.28329" lon="4.99689">
        <ele>187.62</ele>
        <time>2026-08-09T10:34:31.520Z</time>
      </trkpt>
      <trkpt lat="50.28349" lon="4.99713">
        <ele>188.74</ele>
        <time>2026-08-09T10:34:37.506Z</time>
      </trkpt>
      <trkpt lat="50.28368" lon="4.99735">
        <ele>189.69</ele>
        <time>2026-08-09T10:34:43.504Z</time>
      </trkpt>
      <trkpt lat="50.28388" lon="4.99759">
        <ele>190.78</ele>
        <time>2026-08-09T10:34:49.505Z</time>
      </trkpt>
      <trkpt lat="50.28406" lon="4.99783">
        <ele>189.73</ele>
        <time>2026-08-09T10:34:55.524Z</time>
      </trkpt>
      <trkpt lat="50.28427" lon="4.99806">
        <ele>189.71</ele>
        <time>2026-08-09T10:35:01.522Z</time>
      </trkpt>
      <trkpt lat="50.28448" lon="4.99831">
        <ele>191.28</ele>
        <time>2026-08-09T10:35:07.510Z</time>
      </trkpt>
      <trkpt lat="50.28469" lon="4.99855">
        <ele>191.34</ele>
        <time>2026-08-09T10:35:13.500Z</time>
      </trkpt>
      <trkpt lat="50.2849" lon="4.9988">
        <ele>191.29</ele>
        <time>2026-08-09T10:35:19.503Z</time>
      </trkpt>
      <trkpt lat="50.28515" lon="4.9991">
        <ele>191.42</ele>
        <time>2026-08-09T10:35:25.526Z</time>
      </trkpt>
      <trkpt lat="50.28542" lon="4.99947">
        <ele>188.54</ele>
        <time>2026-08-09T10:35:31.520Z</time>
      </trkpt>
      <trkpt lat="50.28575" lon="4.99996">
        <ele>184.56</ele>
        <time>2026-08-09T10:35:37.506Z</time>
      </trkpt>
      <trkpt lat="50.28612" lon="5.00051">
        <ele>182.97</ele>
        <time>2026-08-09T10:35:43.506Z</time>
      </trkpt>
      <trkpt lat="50.28647" lon="5.00102">
        <ele>183.16</ele>
        <time>2026-08-09T10:35:49.507Z</time>
      </trkpt>
      <trkpt lat="50.2868" lon="5.0015">
        <ele>183.53</ele>
        <time>2026-08-09T10:35:55.524Z</time>
      </trkpt>
      <trkpt lat="50.28704" lon="5.00201">
        <ele>184.17</ele>
        <time>2026-08-09T10:36:01.520Z</time>
      </trkpt>
      <trkpt lat="50.28718" lon="5.00253">
        <ele>185.71</ele>
        <time>2026-08-09T10:36:07.513Z</time>
      </trkpt>
      <trkpt lat="50.28728" lon="5.00293">
        <ele>186.78</ele>
        <time>2026-08-09T10:36:13.515Z</time>
      </trkpt>
      <trkpt lat="50.28735" lon="5.00323">
        <ele>189.53</ele>
        <time>2026-08-09T10:36:19.509Z</time>
      </trkpt>
      <trkpt lat="50.28743" lon="5.00352">
        <ele>192.26</ele>
        <time>2026-08-09T10:36:25.516Z</time>
      </trkpt>
      <trkpt lat="50.28749" lon="5.00376">
        <ele>193.84</ele>
        <time>2026-08-09T10:36:31.524Z</time>
      </trkpt>
      <trkpt lat="50.28754" lon="5.00403">
        <ele>195.44</ele>
        <time>2026-08-09T10:36:37.520Z</time>
      </trkpt>
      <trkpt lat="50.28756" lon="5.00426">
        <ele>196.82</ele>
        <time>2026-08-09T10:36:43.516Z</time>
      </trkpt>
      <trkpt lat="50.28757" lon="5.00444">
        <ele>196.83</ele>
        <time>2026-08-09T10:36:49.519Z</time>
      </trkpt>
      <trkpt lat="50.28758" lon="5.0046">
        <ele>197.02</ele>
        <time>2026-08-09T10:36:55.534Z</time>
      </trkpt>
      <trkpt lat="50.28759" lon="5.00474">
        <ele>197.02</ele>
        <time>2026-08-09T10:37:01.530Z</time>
      </trkpt>
      <trkpt lat="50.28759" lon="5.0049">
        <ele>197.38</ele>
        <time>2026-08-09T10:37:07.517Z</time>
      </trkpt>
      <trkpt lat="50.2876" lon="5.00506">
        <ele>197.83</ele>
        <time>2026-08-09T10:37:13.516Z</time>
      </trkpt>
      <trkpt lat="50.28761" lon="5.00523">
        <ele>198.38</ele>
        <time>2026-08-09T10:37:19.515Z</time>
      </trkpt>
      <trkpt lat="50.28762" lon="5.00538">
        <ele>199.19</ele>
        <time>2026-08-09T10:37:25.526Z</time>
      </trkpt>
      <trkpt lat="50.28763" lon="5.00556">
        <ele>200.23</ele>
        <time>2026-08-09T10:37:31.525Z</time>
      </trkpt>
      <trkpt lat="50.28764" lon="5.00575">
        <ele>200.35</ele>
        <time>2026-08-09T10:37:37.518Z</time>
      </trkpt>
      <trkpt lat="50.28765" lon="5.00597">
        <ele>200.58</ele>
        <time>2026-08-09T10:37:43.518Z</time>
      </trkpt>
      <trkpt lat="50.28765" lon="5.00619">
        <ele>201.43</ele>
        <time>2026-08-09T10:37:49.516Z</time>
      </trkpt>
      <trkpt lat="50.28766" lon="5.00641">
        <ele>202.73</ele>
        <time>2026-08-09T10:37:55.529Z</time>
      </trkpt>
      <trkpt lat="50.28767" lon="5.00664">
        <ele>204.44</ele>
        <time>2026-08-09T10:38:01.530Z</time>
      </trkpt>
      <trkpt lat="50.28767" lon="5.0069">
        <ele>204.86</ele>
        <time>2026-08-09T10:38:07.515Z</time>
      </trkpt>
      <trkpt lat="50.28768" lon="5.00715">
        <ele>205.27</ele>
        <time>2026-08-09T10:38:13.513Z</time>
      </trkpt>
      <trkpt lat="50.2877" lon="5.0074">
        <ele>205.55</ele>
        <time>2026-08-09T10:38:19.518Z</time>
      </trkpt>
      <trkpt lat="50.28774" lon="5.00765">
        <ele>205.43</ele>
        <time>2026-08-09T10:38:25.524Z</time>
      </trkpt>
      <trkpt lat="50.28781" lon="5.00789">
        <ele>205.63</ele>
        <time>2026-08-09T10:38:31.523Z</time>
      </trkpt>
      <trkpt lat="50.2879" lon="5.00812">
        <ele>205.75</ele>
        <time>2026-08-09T10:38:37.517Z</time>
      </trkpt>
      <trkpt lat="50.28801" lon="5.00836">
        <ele>206.09</ele>
        <time>2026-08-09T10:38:43.516Z</time>
      </trkpt>
      <trkpt lat="50.28813" lon="5.00861">
        <ele>206.27</ele>
        <time>2026-08-09T10:38:49.514Z</time>
      </trkpt>
      <trkpt lat="50.28824" lon="5.00886">
        <ele>207.04</ele>
        <time>2026-08-09T10:38:55.527Z</time>
      </trkpt>
      <trkpt lat="50.28837" lon="5.00914">
        <ele>207.4</ele>
        <time>2026-08-09T10:39:01.522Z</time>
      </trkpt>
      <trkpt lat="50.28853" lon="5.00945">
        <ele>207.78</ele>
        <time>2026-08-09T10:39:07.516Z</time>
      </trkpt>
      <trkpt lat="50.28867" lon="5.00977">
        <ele>207.06</ele>
        <time>2026-08-09T10:39:13.521Z</time>
      </trkpt>
      <trkpt lat="50.28882" lon="5.01009">
        <ele>207.03</ele>
        <time>2026-08-09T10:39:19.512Z</time>
      </trkpt>
      <trkpt lat="50.28895" lon="5.01038">
        <ele>206.77</ele>
        <time>2026-08-09T10:39:25.523Z</time>
      </trkpt>
      <trkpt lat="50.28908" lon="5.01068">
        <ele>206.26</ele>
        <time>2026-08-09T10:39:31.518Z</time>
      </trkpt>
      <trkpt lat="50.28923" lon="5.011">
        <ele>207</ele>
        <time>2026-08-09T10:39:37.516Z</time>
      </trkpt>
      <trkpt lat="50.28939" lon="5.01135">
        <ele>207.36</ele>
        <time>2026-08-09T10:39:43.515Z</time>
      </trkpt>
      <trkpt lat="50.28956" lon="5.0117">
        <ele>207.06</ele>
        <time>2026-08-09T10:39:49.518Z</time>
      </trkpt>
      <trkpt lat="50.28972" lon="5.01206">
        <ele>206.47</ele>
        <time>2026-08-09T10:39:55.532Z</time>
      </trkpt>
      <trkpt lat="50.28987" lon="5.0124">
        <ele>206.79</ele>
        <time>2026-08-09T10:40:01.522Z</time>
      </trkpt>
      <trkpt lat="50.29004" lon="5.01275">
        <ele>208.07</ele>
        <time>2026-08-09T10:40:07.515Z</time>
      </trkpt>
      <trkpt lat="50.29019" lon="5.01307">
        <ele>209.87</ele>
        <time>2026-08-09T10:40:13.512Z</time>
      </trkpt>
      <trkpt lat="50.29029" lon="5.01329">
        <ele>212.12</ele>
        <time>2026-08-09T10:40:19.518Z</time>
      </trkpt>
      <trkpt lat="50.29037" lon="5.01351">
        <ele>212.05</ele>
        <time>2026-08-09T10:40:25.521Z</time>
      </trkpt>
      <trkpt lat="50.29045" lon="5.01371">
        <ele>211.21</ele>
        <time>2026-08-09T10:40:31.521Z</time>
      </trkpt>
      <trkpt lat="50.29054" lon="5.01393">
        <ele>209.88</ele>
        <time>2026-08-09T10:40:37.518Z</time>
      </trkpt>
      <trkpt lat="50.29063" lon="5.01416">
        <ele>207.04</ele>
        <time>2026-08-09T10:40:43.521Z</time>
      </trkpt>
      <trkpt lat="50.2907" lon="5.01437">
        <ele>205.1</ele>
        <time>2026-08-09T10:40:49.516Z</time>
      </trkpt>
      <trkpt lat="50.29077" lon="5.0146">
        <ele>205.72</ele>
        <time>2026-08-09T10:40:55.521Z</time>
      </trkpt>
      <trkpt lat="50.29085" lon="5.01484">
        <ele>209.9</ele>
        <time>2026-08-09T10:41:01.523Z</time>
      </trkpt>
      <trkpt lat="50.29092" lon="5.0151">
        <ele>214.11</ele>
        <time>2026-08-09T10:41:07.515Z</time>
      </trkpt>
      <trkpt lat="50.29097" lon="5.01536">
        <ele>217.94</ele>
        <time>2026-08-09T10:41:13.517Z</time>
      </trkpt>
      <trkpt lat="50.291" lon="5.01564">
        <ele>218.3</ele>
        <time>2026-08-09T10:41:19.517Z</time>
      </trkpt>
      <trkpt lat="50.29106" lon="5.01596">
        <ele>220.01</ele>
        <time>2026-08-09T10:41:25.521Z</time>
      </trkpt>
      <trkpt lat="50.29111" lon="5.01628">
        <ele>220.6</ele>
        <time>2026-08-09T10:41:31.523Z</time>
      </trkpt>
      <trkpt lat="50.29116" lon="5.01663">
        <ele>220.41</ele>
        <time>2026-08-09T10:41:37.518Z</time>
      </trkpt>
      <trkpt lat="50.29118" lon="5.01696">
        <ele>219.73</ele>
        <time>2026-08-09T10:41:43.516Z</time>
      </trkpt>
      <trkpt lat="50.29121" lon="5.01731">
        <ele>219.81</ele>
        <time>2026-08-09T10:41:49.517Z</time>
      </trkpt>
      <trkpt lat="50.29124" lon="5.0177">
        <ele>220.05</ele>
        <time>2026-08-09T10:41:55.525Z</time>
      </trkpt>
      <trkpt lat="50.29128" lon="5.01823">
        <ele>219.13</ele>
        <time>2026-08-09T10:42:01.520Z</time>
      </trkpt>
      <trkpt lat="50.2914" lon="5.01888">
        <ele>216.68</ele>
        <time>2026-08-09T10:42:07.514Z</time>
      </trkpt>
      <trkpt lat="50.29165" lon="5.01943">
        <ele>213.18</ele>
        <time>2026-08-09T10:42:13.512Z</time>
      </trkpt>
      <trkpt lat="50.29197" lon="5.01986">
        <ele>214.41</ele>
        <time>2026-08-09T10:42:19.516Z</time>
      </trkpt>
      <trkpt lat="50.29226" lon="5.02021">
        <ele>213.72</ele>
        <time>2026-08-09T10:42:25.525Z</time>
      </trkpt>
      <trkpt lat="50.29256" lon="5.02056">
        <ele>213.04</ele>
        <time>2026-08-09T10:42:31.524Z</time>
      </trkpt>
      <trkpt lat="50.29285" lon="5.02092">
        <ele>212.47</ele>
        <time>2026-08-09T10:42:37.513Z</time>
      </trkpt>
      <trkpt lat="50.29315" lon="5.02127">
        <ele>212.49</ele>
        <time>2026-08-09T10:42:43.517Z</time>
      </trkpt>
      <trkpt lat="50.29344" lon="5.02163">
        <ele>213.58</ele>
        <time>2026-08-09T10:42:49.517Z</time>
      </trkpt>
      <trkpt lat="50.29372" lon="5.02198">
        <ele>214.33</ele>
        <time>2026-08-09T10:42:55.525Z</time>
      </trkpt>
      <trkpt lat="50.29402" lon="5.02233">
        <ele>215.47</ele>
        <time>2026-08-09T10:43:01.521Z</time>
      </trkpt>
      <trkpt lat="50.29431" lon="5.02269">
        <ele>216.02</ele>
        <time>2026-08-09T10:43:07.518Z</time>
      </trkpt>
      <trkpt lat="50.29459" lon="5.02301">
        <ele>216.66</ele>
        <time>2026-08-09T10:43:13.516Z</time>
      </trkpt>
      <trkpt lat="50.29481" lon="5.02328">
        <ele>216.68</ele>
        <time>2026-08-09T10:43:19.517Z</time>
      </trkpt>
      <trkpt lat="50.29501" lon="5.02354">
        <ele>217.45</ele>
        <time>2026-08-09T10:43:25.504Z</time>
      </trkpt>
      <trkpt lat="50.2952" lon="5.0238">
        <ele>218.54</ele>
        <time>2026-08-09T10:43:31.524Z</time>
      </trkpt>
      <trkpt lat="50.29519" lon="5.02413">
        <ele>219.25</ele>
        <time>2026-08-09T10:43:37.515Z</time>
      </trkpt>
      <trkpt lat="50.29502" lon="5.02442">
        <ele>221.21</ele>
        <time>2026-08-09T10:43:43.513Z</time>
      </trkpt>
      <trkpt lat="50.29485" lon="5.02472">
        <ele>222.38</ele>
        <time>2026-08-09T10:43:49.515Z</time>
      </trkpt>
      <trkpt lat="50.29468" lon="5.02503">
        <ele>222.97</ele>
        <time>2026-08-09T10:43:55.528Z</time>
      </trkpt>
      <trkpt lat="50.29451" lon="5.02532">
        <ele>222.83</ele>
        <time>2026-08-09T10:44:01.519Z</time>
      </trkpt>
      <trkpt lat="50.29437" lon="5.02559">
        <ele>224.2</ele>
        <time>2026-08-09T10:44:07.519Z</time>
      </trkpt>
      <trkpt lat="50.29436" lon="5.02589">
        <ele>223.76</ele>
        <time>2026-08-09T10:44:13.521Z</time>
      </trkpt>
      <trkpt lat="50.29449" lon="5.02622">
        <ele>223.1</ele>
        <time>2026-08-09T10:44:19.525Z</time>
      </trkpt>
      <trkpt lat="50.29468" lon="5.0266">
        <ele>221.57</ele>
        <time>2026-08-09T10:44:25.526Z</time>
      </trkpt>
      <trkpt lat="50.29488" lon="5.02698">
        <ele>220.81</ele>
        <time>2026-08-09T10:44:31.521Z</time>
      </trkpt>
      <trkpt lat="50.29507" lon="5.02737">
        <ele>219.64</ele>
        <time>2026-08-09T10:44:37.522Z</time>
      </trkpt>
      <trkpt lat="50.29526" lon="5.02774">
        <ele>219.89</ele>
        <time>2026-08-09T10:44:43.519Z</time>
      </trkpt>
      <trkpt lat="50.29544" lon="5.0281">
        <ele>222.22</ele>
        <time>2026-08-09T10:44:49.522Z</time>
      </trkpt>
      <trkpt lat="50.29561" lon="5.02844">
        <ele>223.41</ele>
        <time>2026-08-09T10:44:55.531Z</time>
      </trkpt>
      <trkpt lat="50.29579" lon="5.02878">
        <ele>224.24</ele>
        <time>2026-08-09T10:45:01.522Z</time>
      </trkpt>
      <trkpt lat="50.29594" lon="5.02911">
        <ele>225.59</ele>
        <time>2026-08-09T10:45:07.523Z</time>
      </trkpt>
      <trkpt lat="50.2961" lon="5.02942">
        <ele>226.98</ele>
        <time>2026-08-09T10:45:13.519Z</time>
      </trkpt>
      <trkpt lat="50.29625" lon="5.02971">
        <ele>228.63</ele>
        <time>2026-08-09T10:45:19.523Z</time>
      </trkpt>
      <trkpt lat="50.2964" lon="5.03">
        <ele>229.31</ele>
        <time>2026-08-09T10:45:25.530Z</time>
      </trkpt>
      <trkpt lat="50.29654" lon="5.03028">
        <ele>229.15</ele>
        <time>2026-08-09T10:45:31.527Z</time>
      </trkpt>
      <trkpt lat="50.29669" lon="5.03058">
        <ele>229.39</ele>
        <time>2026-08-09T10:45:37.519Z</time>
      </trkpt>
      <trkpt lat="50.29684" lon="5.03091">
        <ele>229.24</ele>
        <time>2026-08-09T10:45:43.525Z</time>
      </trkpt>
      <trkpt lat="50.29697" lon="5.03117">
        <ele>228.72</ele>
        <time>2026-08-09T10:45:49.522Z</time>
      </trkpt>
      <trkpt lat="50.29714" lon="5.03155">
        <ele>227.78</ele>
        <time>2026-08-09T10:45:55.517Z</time>
      </trkpt>
      <trkpt lat="50.29738" lon="5.03204">
        <ele>223.93</ele>
        <time>2026-08-09T10:46:01.521Z</time>
      </trkpt>
      <trkpt lat="50.29762" lon="5.03249">
        <ele>220.79</ele>
        <time>2026-08-09T10:46:07.522Z</time>
      </trkpt>
      <trkpt lat="50.29789" lon="5.03294">
        <ele>218.51</ele>
        <time>2026-08-09T10:46:13.520Z</time>
      </trkpt>
      <trkpt lat="50.29806" lon="5.03326">
        <ele>221.16</ele>
        <time>2026-08-09T10:46:19.521Z</time>
      </trkpt>
      <trkpt lat="50.29817" lon="5.03354">
        <ele>221.61</ele>
        <time>2026-08-09T10:46:25.527Z</time>
      </trkpt>
      <trkpt lat="50.29812" lon="5.03373">
        <ele>226.62</ele>
        <time>2026-08-09T10:46:31.523Z</time>
      </trkpt>
      <trkpt lat="50.29805" lon="5.03384">
        <ele>230.05</ele>
        <time>2026-08-09T10:46:37.519Z</time>
      </trkpt>
      <trkpt lat="50.29798" lon="5.03393">
        <ele>231.99</ele>
        <time>2026-08-09T10:46:43.526Z</time>
      </trkpt>
      <trkpt lat="50.2979" lon="5.03402">
        <ele>231.79</ele>
        <time>2026-08-09T10:46:49.522Z</time>
      </trkpt>
      <trkpt lat="50.29782" lon="5.03412">
        <ele>232.29</ele>
        <time>2026-08-09T10:46:55.519Z</time>
      </trkpt>
      <trkpt lat="50.29775" lon="5.03424">
        <ele>233</ele>
        <time>2026-08-09T10:47:02.455Z</time>
      </trkpt>
      <trkpt lat="50.29769" lon="5.03435">
        <ele>233.13</ele>
        <time>2026-08-09T10:47:10.462Z</time>
      </trkpt>
      <trkpt lat="50.29762" lon="5.03445">
        <ele>231.19</ele>
        <time>2026-08-09T10:47:16.467Z</time>
      </trkpt>
      <trkpt lat="50.29755" lon="5.03455">
        <ele>229.14</ele>
        <time>2026-08-09T10:47:23.458Z</time>
      </trkpt>
      <trkpt lat="50.29748" lon="5.03466">
        <ele>229.81</ele>
        <time>2026-08-09T10:47:30.466Z</time>
      </trkpt>
      <trkpt lat="50.29741" lon="5.03477">
        <ele>232.73</ele>
        <time>2026-08-09T10:47:38.467Z</time>
      </trkpt>
      <trkpt lat="50.29736" lon="5.03492">
        <ele>233.59</ele>
        <time>2026-08-09T10:47:46.464Z</time>
      </trkpt>
      <trkpt lat="50.29729" lon="5.03503">
        <ele>237.08</ele>
        <time>2026-08-09T10:47:54.463Z</time>
      </trkpt>
      <trkpt lat="50.29724" lon="5.03514">
        <ele>239.06</ele>
        <time>2026-08-09T10:48:01.526Z</time>
      </trkpt>
      <trkpt lat="50.29716" lon="5.03524">
        <ele>242.48</ele>
        <time>2026-08-09T10:48:10.471Z</time>
      </trkpt>
      <trkpt lat="50.29711" lon="5.03538">
        <ele>244.84</ele>
        <time>2026-08-09T10:48:18.467Z</time>
      </trkpt>
      <trkpt lat="50.29706" lon="5.0355">
        <ele>246.63</ele>
        <time>2026-08-09T10:48:27.466Z</time>
      </trkpt>
      <trkpt lat="50.29701" lon="5.03561">
        <ele>248.23</ele>
        <time>2026-08-09T10:48:34.466Z</time>
      </trkpt>
      <trkpt lat="50.29691" lon="5.03566">
        <ele>250.07</ele>
        <time>2026-08-09T10:48:41.462Z</time>
      </trkpt>
      <trkpt lat="50.29686" lon="5.03579">
        <ele>250.84</ele>
        <time>2026-08-09T10:48:47.467Z</time>
      </trkpt>
      <trkpt lat="50.29679" lon="5.03591">
        <ele>250.79</ele>
        <time>2026-08-09T10:48:53.467Z</time>
      </trkpt>
      <trkpt lat="50.29671" lon="5.03605">
        <ele>252.14</ele>
        <time>2026-08-09T10:48:59.464Z</time>
      </trkpt>
      <trkpt lat="50.29664" lon="5.03615">
        <ele>253.13</ele>
        <time>2026-08-09T10:49:04.467Z</time>
      </trkpt>
      <trkpt lat="50.29655" lon="5.03627">
        <ele>253.41</ele>
        <time>2026-08-09T10:49:10.463Z</time>
      </trkpt>
      <trkpt lat="50.2965" lon="5.0364">
        <ele>253.95</ele>
        <time>2026-08-09T10:49:16.459Z</time>
      </trkpt>
      <trkpt lat="50.29641" lon="5.03644">
        <ele>255.25</ele>
        <time>2026-08-09T10:49:22.465Z</time>
      </trkpt>
      <trkpt lat="50.29642" lon="5.03661">
        <ele>253.15</ele>
        <time>2026-08-09T10:50:09.463Z</time>
      </trkpt>
      <trkpt lat="50.2964" lon="5.03689">
        <ele>252.45</ele>
        <time>2026-08-09T10:50:15.466Z</time>
      </trkpt>
      <trkpt lat="50.29631" lon="5.03743">
        <ele>248.91</ele>
        <time>2026-08-09T10:50:21.466Z</time>
      </trkpt>
      <trkpt lat="50.29619" lon="5.03825">
        <ele>244.04</ele>
        <time>2026-08-09T10:50:27.463Z</time>
      </trkpt>
      <trkpt lat="50.29608" lon="5.039">
        <ele>240.25</ele>
        <time>2026-08-09T10:50:32.470Z</time>
      </trkpt>
      <trkpt lat="50.29593" lon="5.03974">
        <ele>236.47</ele>
        <time>2026-08-09T10:50:37.527Z</time>
      </trkpt>
      <trkpt lat="50.29557" lon="5.0405">
        <ele>235.46</ele>
        <time>2026-08-09T10:50:43.522Z</time>
      </trkpt>
      <trkpt lat="50.29517" lon="5.04097">
        <ele>237.46</ele>
        <time>2026-08-09T10:50:49.521Z</time>
      </trkpt>
      <trkpt lat="50.29481" lon="5.04138">
        <ele>238.08</ele>
        <time>2026-08-09T10:50:55.524Z</time>
      </trkpt>
      <trkpt lat="50.29446" lon="5.04178">
        <ele>237.44</ele>
        <time>2026-08-09T10:51:01.525Z</time>
      </trkpt>
      <trkpt lat="50.29416" lon="5.04241">
        <ele>233.79</ele>
        <time>2026-08-09T10:51:07.522Z</time>
      </trkpt>
      <trkpt lat="50.29409" lon="5.04349">
        <ele>221.45</ele>
        <time>2026-08-09T10:51:13.517Z</time>
      </trkpt>
      <trkpt lat="50.29408" lon="5.04481">
        <ele>207.21</ele>
        <time>2026-08-09T10:51:19.516Z</time>
      </trkpt>
      <trkpt lat="50.29404" lon="5.04621">
        <ele>199.2</ele>
        <time>2026-08-09T10:51:25.516Z</time>
      </trkpt>
      <trkpt lat="50.29383" lon="5.04749">
        <ele>196.08</ele>
        <time>2026-08-09T10:51:31.517Z</time>
      </trkpt>
      <trkpt lat="50.29337" lon="5.04831">
        <ele>195.55</ele>
        <time>2026-08-09T10:51:37.517Z</time>
      </trkpt>
      <trkpt lat="50.29304" lon="5.04879">
        <ele>198.49</ele>
        <time>2026-08-09T10:51:43.516Z</time>
      </trkpt>
      <trkpt lat="50.29278" lon="5.04917">
        <ele>200.04</ele>
        <time>2026-08-09T10:51:49.518Z</time>
      </trkpt>
      <trkpt lat="50.29253" lon="5.04953">
        <ele>200.04</ele>
        <time>2026-08-09T10:51:55.518Z</time>
      </trkpt>
      <trkpt lat="50.29231" lon="5.04988">
        <ele>201.6</ele>
        <time>2026-08-09T10:52:01.516Z</time>
      </trkpt>
      <trkpt lat="50.29215" lon="5.05032">
        <ele>203.76</ele>
        <time>2026-08-09T10:52:07.529Z</time>
      </trkpt>
      <trkpt lat="50.29207" lon="5.05081">
        <ele>206.81</ele>
        <time>2026-08-09T10:52:13.527Z</time>
      </trkpt>
      <trkpt lat="50.29207" lon="5.0513">
        <ele>205.57</ele>
        <time>2026-08-09T10:52:19.524Z</time>
      </trkpt>
      <trkpt lat="50.29205" lon="5.0518">
        <ele>204.8</ele>
        <time>2026-08-09T10:52:25.526Z</time>
      </trkpt>
      <trkpt lat="50.29199" lon="5.0523">
        <ele>204.7</ele>
        <time>2026-08-09T10:52:31.519Z</time>
      </trkpt>
      <trkpt lat="50.29191" lon="5.05278">
        <ele>205.06</ele>
        <time>2026-08-09T10:52:37.521Z</time>
      </trkpt>
      <trkpt lat="50.29183" lon="5.05329">
        <ele>204.45</ele>
        <time>2026-08-09T10:52:43.517Z</time>
      </trkpt>
      <trkpt lat="50.2917" lon="5.05386">
        <ele>204.5</ele>
        <time>2026-08-09T10:52:49.517Z</time>
      </trkpt>
      <trkpt lat="50.29154" lon="5.05449">
        <ele>204.46</ele>
        <time>2026-08-09T10:52:55.516Z</time>
      </trkpt>
      <trkpt lat="50.2914" lon="5.05514">
        <ele>203.99</ele>
        <time>2026-08-09T10:53:01.523Z</time>
      </trkpt>
      <trkpt lat="50.29137" lon="5.05578">
        <ele>203.31</ele>
        <time>2026-08-09T10:53:07.520Z</time>
      </trkpt>
      <trkpt lat="50.29145" lon="5.0563">
        <ele>202.34</ele>
        <time>2026-08-09T10:53:13.520Z</time>
      </trkpt>
      <trkpt lat="50.29153" lon="5.05683">
        <ele>200.95</ele>
        <time>2026-08-09T10:53:19.521Z</time>
      </trkpt>
      <trkpt lat="50.29156" lon="5.05736">
        <ele>201.59</ele>
        <time>2026-08-09T10:53:25.516Z</time>
      </trkpt>
      <trkpt lat="50.29153" lon="5.05785">
        <ele>201.81</ele>
        <time>2026-08-09T10:53:31.522Z</time>
      </trkpt>
      <trkpt lat="50.2915" lon="5.05829">
        <ele>202.68</ele>
        <time>2026-08-09T10:53:37.525Z</time>
      </trkpt>
      <trkpt lat="50.29148" lon="5.05865">
        <ele>203.32</ele>
        <time>2026-08-09T10:53:43.524Z</time>
      </trkpt>
      <trkpt lat="50.29146" lon="5.05888">
        <ele>206.28</ele>
        <time>2026-08-09T10:53:49.527Z</time>
      </trkpt>
      <trkpt lat="50.29144" lon="5.05908">
        <ele>207.95</ele>
        <time>2026-08-09T10:53:55.522Z</time>
      </trkpt>
      <trkpt lat="50.29143" lon="5.05927">
        <ele>208.06</ele>
        <time>2026-08-09T10:54:01.529Z</time>
      </trkpt>
      <trkpt lat="50.29142" lon="5.05945">
        <ele>208.31</ele>
        <time>2026-08-09T10:54:07.525Z</time>
      </trkpt>
      <trkpt lat="50.29141" lon="5.05962">
        <ele>209.91</ele>
        <time>2026-08-09T10:54:13.521Z</time>
      </trkpt>
      <trkpt lat="50.29139" lon="5.05979">
        <ele>210.92</ele>
        <time>2026-08-09T10:54:19.520Z</time>
      </trkpt>
      <trkpt lat="50.29137" lon="5.05997">
        <ele>209.16</ele>
        <time>2026-08-09T10:54:25.520Z</time>
      </trkpt>
      <trkpt lat="50.29136" lon="5.06014">
        <ele>209.46</ele>
        <time>2026-08-09T10:54:31.522Z</time>
      </trkpt>
      <trkpt lat="50.29135" lon="5.06031">
        <ele>211.07</ele>
        <time>2026-08-09T10:54:37.523Z</time>
      </trkpt>
      <trkpt lat="50.29135" lon="5.06049">
        <ele>212.01</ele>
        <time>2026-08-09T10:54:43.525Z</time>
      </trkpt>
      <trkpt lat="50.29134" lon="5.06067">
        <ele>212.02</ele>
        <time>2026-08-09T10:54:49.527Z</time>
      </trkpt>
      <trkpt lat="50.29132" lon="5.06083">
        <ele>212.91</ele>
        <time>2026-08-09T10:54:55.534Z</time>
      </trkpt>
      <trkpt lat="50.29131" lon="5.06099">
        <ele>214.51</ele>
        <time>2026-08-09T10:55:01.519Z</time>
      </trkpt>
      <trkpt lat="50.2913" lon="5.06116">
        <ele>216.48</ele>
        <time>2026-08-09T10:55:07.524Z</time>
      </trkpt>
      <trkpt lat="50.29129" lon="5.06133">
        <ele>217.06</ele>
        <time>2026-08-09T10:55:13.527Z</time>
      </trkpt>
      <trkpt lat="50.29128" lon="5.06149">
        <ele>217.52</ele>
        <time>2026-08-09T10:55:19.526Z</time>
      </trkpt>
      <trkpt lat="50.29127" lon="5.06166">
        <ele>217.66</ele>
        <time>2026-08-09T10:55:25.531Z</time>
      </trkpt>
      <trkpt lat="50.29125" lon="5.06182">
        <ele>217.95</ele>
        <time>2026-08-09T10:55:31.525Z</time>
      </trkpt>
      <trkpt lat="50.29125" lon="5.06199">
        <ele>218.99</ele>
        <time>2026-08-09T10:55:37.523Z</time>
      </trkpt>
      <trkpt lat="50.29126" lon="5.06214">
        <ele>220.89</ele>
        <time>2026-08-09T10:55:43.529Z</time>
      </trkpt>
      <trkpt lat="50.29126" lon="5.06229">
        <ele>222.5</ele>
        <time>2026-08-09T10:55:49.525Z</time>
      </trkpt>
      <trkpt lat="50.29127" lon="5.06245">
        <ele>223.38</ele>
        <time>2026-08-09T10:55:55.515Z</time>
      </trkpt>
      <trkpt lat="50.29127" lon="5.0626">
        <ele>223.92</ele>
        <time>2026-08-09T10:56:01.523Z</time>
      </trkpt>
      <trkpt lat="50.29129" lon="5.06274">
        <ele>225.28</ele>
        <time>2026-08-09T10:56:07.520Z</time>
      </trkpt>
      <trkpt lat="50.29129" lon="5.0629">
        <ele>225.26</ele>
        <time>2026-08-09T10:56:14.466Z</time>
      </trkpt>
      <trkpt lat="50.2913" lon="5.06305">
        <ele>226.75</ele>
        <time>2026-08-09T10:56:21.462Z</time>
      </trkpt>
      <trkpt lat="50.2913" lon="5.06321">
        <ele>227.58</ele>
        <time>2026-08-09T10:56:28.458Z</time>
      </trkpt>
      <trkpt lat="50.29131" lon="5.06335">
        <ele>228.22</ele>
        <time>2026-08-09T10:56:34.481Z</time>
      </trkpt>
      <trkpt lat="50.29133" lon="5.06352">
        <ele>229.59</ele>
        <time>2026-08-09T10:56:40.466Z</time>
      </trkpt>
      <trkpt lat="50.2913" lon="5.06368">
        <ele>226.31</ele>
        <time>2026-08-09T10:56:45.466Z</time>
      </trkpt>
      <trkpt lat="50.29129" lon="5.06388">
        <ele>221.56</ele>
        <time>2026-08-09T10:56:51.463Z</time>
      </trkpt>
      <trkpt lat="50.29131" lon="5.06406">
        <ele>223.17</ele>
        <time>2026-08-09T10:56:56.466Z</time>
      </trkpt>
      <trkpt lat="50.29133" lon="5.06424">
        <ele>224.73</ele>
        <time>2026-08-09T10:57:01.526Z</time>
      </trkpt>
      <trkpt lat="50.29135" lon="5.06444">
        <ele>227</ele>
        <time>2026-08-09T10:57:07.522Z</time>
      </trkpt>
      <trkpt lat="50.29138" lon="5.06467">
        <ele>227.41</ele>
        <time>2026-08-09T10:57:13.522Z</time>
      </trkpt>
      <trkpt lat="50.29141" lon="5.06496">
        <ele>228.82</ele>
        <time>2026-08-09T10:57:19.521Z</time>
      </trkpt>
      <trkpt lat="50.29146" lon="5.06533">
        <ele>230.5</ele>
        <time>2026-08-09T10:57:25.530Z</time>
      </trkpt>
      <trkpt lat="50.29153" lon="5.06576">
        <ele>231.08</ele>
        <time>2026-08-09T10:57:31.522Z</time>
      </trkpt>
      <trkpt lat="50.29166" lon="5.06621">
        <ele>231.04</ele>
        <time>2026-08-09T10:57:37.526Z</time>
      </trkpt>
      <trkpt lat="50.2918" lon="5.06664">
        <ele>229.85</ele>
        <time>2026-08-09T10:57:43.525Z</time>
      </trkpt>
      <trkpt lat="50.29194" lon="5.06709">
        <ele>230.14</ele>
        <time>2026-08-09T10:57:49.523Z</time>
      </trkpt>
      <trkpt lat="50.29209" lon="5.06752">
        <ele>231.11</ele>
        <time>2026-08-09T10:57:55.531Z</time>
      </trkpt>
      <trkpt lat="50.29223" lon="5.06793">
        <ele>231.95</ele>
        <time>2026-08-09T10:58:01.528Z</time>
      </trkpt>
      <trkpt lat="50.29235" lon="5.0683">
        <ele>232.42</ele>
        <time>2026-08-09T10:58:07.521Z</time>
      </trkpt>
      <trkpt lat="50.29248" lon="5.06868">
        <ele>234.14</ele>
        <time>2026-08-09T10:58:13.532Z</time>
      </trkpt>
      <trkpt lat="50.29261" lon="5.06906">
        <ele>234.68</ele>
        <time>2026-08-09T10:58:19.522Z</time>
      </trkpt>
      <trkpt lat="50.29274" lon="5.06947">
        <ele>234.94</ele>
        <time>2026-08-09T10:58:25.514Z</time>
      </trkpt>
      <trkpt lat="50.29288" lon="5.06994">
        <ele>235.44</ele>
        <time>2026-08-09T10:58:31.525Z</time>
      </trkpt>
      <trkpt lat="50.29298" lon="5.07043">
        <ele>234.47</ele>
        <time>2026-08-09T10:58:37.525Z</time>
      </trkpt>
      <trkpt lat="50.29307" lon="5.07091">
        <ele>233.21</ele>
        <time>2026-08-09T10:58:43.524Z</time>
      </trkpt>
      <trkpt lat="50.29316" lon="5.07141">
        <ele>231.08</ele>
        <time>2026-08-09T10:58:49.520Z</time>
      </trkpt>
      <trkpt lat="50.29328" lon="5.07194">
        <ele>230.34</ele>
        <time>2026-08-09T10:58:55.530Z</time>
      </trkpt>
      <trkpt lat="50.29339" lon="5.07249">
        <ele>230.8</ele>
        <time>2026-08-09T10:59:01.523Z</time>
      </trkpt>
      <trkpt lat="50.2935" lon="5.07305">
        <ele>230.63</ele>
        <time>2026-08-09T10:59:07.523Z</time>
      </trkpt>
      <trkpt lat="50.29362" lon="5.07362">
        <ele>229.49</ele>
        <time>2026-08-09T10:59:13.525Z</time>
      </trkpt>
      <trkpt lat="50.29374" lon="5.0742">
        <ele>229.13</ele>
        <time>2026-08-09T10:59:19.524Z</time>
      </trkpt>
      <trkpt lat="50.29386" lon="5.07482">
        <ele>228.81</ele>
        <time>2026-08-09T10:59:25.527Z</time>
      </trkpt>
      <trkpt lat="50.29399" lon="5.07547">
        <ele>228.03</ele>
        <time>2026-08-09T10:59:31.528Z</time>
      </trkpt>
      <trkpt lat="50.29411" lon="5.07617">
        <ele>225.73</ele>
        <time>2026-08-09T10:59:37.527Z</time>
      </trkpt>
      <trkpt lat="50.29421" lon="5.07692">
        <ele>223.96</ele>
        <time>2026-08-09T10:59:43.526Z</time>
      </trkpt>
      <trkpt lat="50.29424" lon="5.07774">
        <ele>222.6</ele>
        <time>2026-08-09T10:59:49.523Z</time>
      </trkpt>
      <trkpt lat="50.29427" lon="5.0786">
        <ele>219.98</ele>
        <time>2026-08-09T10:59:55.530Z</time>
      </trkpt>
      <trkpt lat="50.29423" lon="5.07954">
        <ele>215.83</ele>
        <time>2026-08-09T11:00:01.530Z</time>
      </trkpt>
      <trkpt lat="50.29423" lon="5.08049">
        <ele>211.97</ele>
        <time>2026-08-09T11:00:07.531Z</time>
      </trkpt>
      <trkpt lat="50.29426" lon="5.08148">
        <ele>207.89</ele>
        <time>2026-08-09T11:00:13.522Z</time>
      </trkpt>
      <trkpt lat="50.2943" lon="5.08251">
        <ele>202.74</ele>
        <time>2026-08-09T11:00:19.525Z</time>
      </trkpt>
      <trkpt lat="50.29433" lon="5.08364">
        <ele>194.87</ele>
        <time>2026-08-09T11:00:25.532Z</time>
      </trkpt>
      <trkpt lat="50.29451" lon="5.08481">
        <ele>187.86</ele>
        <time>2026-08-09T11:00:31.529Z</time>
      </trkpt>
      <trkpt lat="50.29492" lon="5.08578">
        <ele>184.75</ele>
        <time>2026-08-09T11:00:37.522Z</time>
      </trkpt>
      <trkpt lat="50.29531" lon="5.08676">
        <ele>179.44</ele>
        <time>2026-08-09T11:00:43.524Z</time>
      </trkpt>
      <trkpt lat="50.2957" lon="5.08761">
        <ele>178.39</ele>
        <time>2026-08-09T11:00:49.523Z</time>
      </trkpt>
      <trkpt lat="50.29597" lon="5.08836">
        <ele>176.92</ele>
        <time>2026-08-09T11:00:55.530Z</time>
      </trkpt>
      <trkpt lat="50.29612" lon="5.08889">
        <ele>177.29</ele>
        <time>2026-08-09T11:01:01.532Z</time>
      </trkpt>
      <trkpt lat="50.29605" lon="5.08899">
        <ele>179.25</ele>
        <time>2026-08-09T11:01:07.524Z</time>
      </trkpt>
      <trkpt lat="50.29615" lon="5.08904">
        <ele>182.76</ele>
        <time>2026-08-09T11:01:15.464Z</time>
      </trkpt>
      <trkpt lat="50.29625" lon="5.08914">
        <ele>184.54</ele>
        <time>2026-08-09T11:01:21.468Z</time>
      </trkpt>
      <trkpt lat="50.29631" lon="5.0893">
        <ele>185.96</ele>
        <time>2026-08-09T11:01:27.469Z</time>
      </trkpt>
      <trkpt lat="50.29637" lon="5.08945">
        <ele>187.28</ele>
        <time>2026-08-09T11:01:33.469Z</time>
      </trkpt>
      <trkpt lat="50.29642" lon="5.08958">
        <ele>188.57</ele>
        <time>2026-08-09T11:01:39.465Z</time>
      </trkpt>
      <trkpt lat="50.29647" lon="5.0897">
        <ele>190.06</ele>
        <time>2026-08-09T11:01:45.463Z</time>
      </trkpt>
      <trkpt lat="50.29653" lon="5.08986">
        <ele>192.03</ele>
        <time>2026-08-09T11:01:51.465Z</time>
      </trkpt>
      <trkpt lat="50.29657" lon="5.08999">
        <ele>193.58</ele>
        <time>2026-08-09T11:01:56.467Z</time>
      </trkpt>
      <trkpt lat="50.29662" lon="5.09012">
        <ele>194.71</ele>
        <time>2026-08-09T11:02:02.465Z</time>
      </trkpt>
      <trkpt lat="50.29664" lon="5.09026">
        <ele>193.39</ele>
        <time>2026-08-09T11:02:07.521Z</time>
      </trkpt>
      <trkpt lat="50.29662" lon="5.09043">
        <ele>194.13</ele>
        <time>2026-08-09T11:02:13.525Z</time>
      </trkpt>
      <trkpt lat="50.29658" lon="5.0906">
        <ele>196.01</ele>
        <time>2026-08-09T11:02:19.526Z</time>
      </trkpt>
      <trkpt lat="50.29659" lon="5.09077">
        <ele>198.17</ele>
        <time>2026-08-09T11:02:25.530Z</time>
      </trkpt>
      <trkpt lat="50.29669" lon="5.09088">
        <ele>198.14</ele>
        <time>2026-08-09T11:02:31.525Z</time>
      </trkpt>
      <trkpt lat="50.29677" lon="5.09102">
        <ele>199.09</ele>
        <time>2026-08-09T11:02:37.521Z</time>
      </trkpt>
      <trkpt lat="50.29686" lon="5.09116">
        <ele>199.94</ele>
        <time>2026-08-09T11:02:43.528Z</time>
      </trkpt>
      <trkpt lat="50.29695" lon="5.09132">
        <ele>201.42</ele>
        <time>2026-08-09T11:02:49.524Z</time>
      </trkpt>
      <trkpt lat="50.29703" lon="5.09146">
        <ele>201.57</ele>
        <time>2026-08-09T11:02:55.529Z</time>
      </trkpt>
      <trkpt lat="50.29711" lon="5.09162">
        <ele>200.29</ele>
        <time>2026-08-09T11:03:01.529Z</time>
      </trkpt>
      <trkpt lat="50.2972" lon="5.09179">
        <ele>200.06</ele>
        <time>2026-08-09T11:03:07.524Z</time>
      </trkpt>
      <trkpt lat="50.29731" lon="5.09199">
        <ele>200.3</ele>
        <time>2026-08-09T11:03:13.522Z</time>
      </trkpt>
      <trkpt lat="50.29742" lon="5.0922">
        <ele>201.84</ele>
        <time>2026-08-09T11:03:19.520Z</time>
      </trkpt>
      <trkpt lat="50.29754" lon="5.09238">
        <ele>203.46</ele>
        <time>2026-08-09T11:03:25.529Z</time>
      </trkpt>
      <trkpt lat="50.29766" lon="5.09261">
        <ele>203.62</ele>
        <time>2026-08-09T11:03:31.529Z</time>
      </trkpt>
      <trkpt lat="50.2978" lon="5.09281">
        <ele>202.91</ele>
        <time>2026-08-09T11:03:37.524Z</time>
      </trkpt>
      <trkpt lat="50.29791" lon="5.09305">
        <ele>203.05</ele>
        <time>2026-08-09T11:03:43.525Z</time>
      </trkpt>
      <trkpt lat="50.29804" lon="5.09327">
        <ele>204.02</ele>
        <time>2026-08-09T11:03:49.528Z</time>
      </trkpt>
      <trkpt lat="50.29815" lon="5.09346">
        <ele>206.48</ele>
        <time>2026-08-09T11:03:55.536Z</time>
      </trkpt>
      <trkpt lat="50.29828" lon="5.09368">
        <ele>208.65</ele>
        <time>2026-08-09T11:04:01.533Z</time>
      </trkpt>
      <trkpt lat="50.29839" lon="5.0939">
        <ele>208.62</ele>
        <time>2026-08-09T11:04:07.529Z</time>
      </trkpt>
      <trkpt lat="50.29854" lon="5.09412">
        <ele>208.57</ele>
        <time>2026-08-09T11:04:13.528Z</time>
      </trkpt>
      <trkpt lat="50.29867" lon="5.09432">
        <ele>208.77</ele>
        <time>2026-08-09T11:04:19.527Z</time>
      </trkpt>
      <trkpt lat="50.29884" lon="5.09451">
        <ele>208.19</ele>
        <time>2026-08-09T11:04:25.529Z</time>
      </trkpt>
      <trkpt lat="50.29902" lon="5.09469">
        <ele>207.8</ele>
        <time>2026-08-09T11:04:31.530Z</time>
      </trkpt>
      <trkpt lat="50.29917" lon="5.09492">
        <ele>209.67</ele>
        <time>2026-08-09T11:04:37.523Z</time>
      </trkpt>
      <trkpt lat="50.29929" lon="5.09511">
        <ele>210.29</ele>
        <time>2026-08-09T11:04:43.524Z</time>
      </trkpt>
      <trkpt lat="50.29936" lon="5.09536">
        <ele>211.72</ele>
        <time>2026-08-09T11:04:49.527Z</time>
      </trkpt>
      <trkpt lat="50.29925" lon="5.0955">
        <ele>211.87</ele>
        <time>2026-08-09T11:04:55.534Z</time>
      </trkpt>
      <trkpt lat="50.29916" lon="5.09568">
        <ele>212.37</ele>
        <time>2026-08-09T11:05:01.530Z</time>
      </trkpt>
      <trkpt lat="50.29908" lon="5.09587">
        <ele>214.8</ele>
        <time>2026-08-09T11:05:07.527Z</time>
      </trkpt>
      <trkpt lat="50.29899" lon="5.09605">
        <ele>216.28</ele>
        <time>2026-08-09T11:05:13.524Z</time>
      </trkpt>
      <trkpt lat="50.2989" lon="5.09625">
        <ele>217.72</ele>
        <time>2026-08-09T11:05:19.528Z</time>
      </trkpt>
      <trkpt lat="50.2988" lon="5.09646">
        <ele>217.15</ele>
        <time>2026-08-09T11:05:25.534Z</time>
      </trkpt>
      <trkpt lat="50.29862" lon="5.09646">
        <ele>216.26</ele>
        <time>2026-08-09T11:05:31.534Z</time>
      </trkpt>
      <trkpt lat="50.29851" lon="5.09629">
        <ele>216.65</ele>
        <time>2026-08-09T11:05:37.525Z</time>
      </trkpt>
      <trkpt lat="50.29832" lon="5.09635">
        <ele>215.01</ele>
        <time>2026-08-09T11:05:43.523Z</time>
      </trkpt>
      <trkpt lat="50.29815" lon="5.0965">
        <ele>214.16</ele>
        <time>2026-08-09T11:05:49.527Z</time>
      </trkpt>
      <trkpt lat="50.29795" lon="5.09671">
        <ele>211.97</ele>
        <time>2026-08-09T11:05:55.527Z</time>
      </trkpt>
      <trkpt lat="50.29774" lon="5.09694">
        <ele>208.49</ele>
        <time>2026-08-09T11:06:01.527Z</time>
      </trkpt>
      <trkpt lat="50.29753" lon="5.09718">
        <ele>210.57</ele>
        <time>2026-08-09T11:06:07.521Z</time>
      </trkpt>
      <trkpt lat="50.29726" lon="5.09748">
        <ele>208.9</ele>
        <time>2026-08-09T11:06:13.525Z</time>
      </trkpt>
      <trkpt lat="50.297" lon="5.0978">
        <ele>208.38</ele>
        <time>2026-08-09T11:06:19.523Z</time>
      </trkpt>
      <trkpt lat="50.29677" lon="5.09803">
        <ele>207.05</ele>
        <time>2026-08-09T11:06:25.528Z</time>
      </trkpt>
      <trkpt lat="50.29661" lon="5.09826">
        <ele>207.29</ele>
        <time>2026-08-09T11:06:31.528Z</time>
      </trkpt>
      <trkpt lat="50.29646" lon="5.09845">
        <ele>207.23</ele>
        <time>2026-08-09T11:06:37.523Z</time>
      </trkpt>
      <trkpt lat="50.29634" lon="5.09866">
        <ele>209.86</ele>
        <time>2026-08-09T11:06:43.524Z</time>
      </trkpt>
      <trkpt lat="50.2962" lon="5.09882">
        <ele>212.51</ele>
        <time>2026-08-09T11:06:49.523Z</time>
      </trkpt>
      <trkpt lat="50.29624" lon="5.09901">
        <ele>214.16</ele>
        <time>2026-08-09T11:06:55.533Z</time>
      </trkpt>
      <trkpt lat="50.29633" lon="5.0991">
        <ele>214.1</ele>
        <time>2026-08-09T11:07:01.539Z</time>
      </trkpt>
      <trkpt lat="50.29629" lon="5.09926">
        <ele>212.84</ele>
        <time>2026-08-09T11:07:07.519Z</time>
      </trkpt>
      <trkpt lat="50.29623" lon="5.09937">
        <ele>211.5</ele>
        <time>2026-08-09T11:07:14.469Z</time>
      </trkpt>
      <trkpt lat="50.29615" lon="5.09947">
        <ele>211.01</ele>
        <time>2026-08-09T11:07:19.526Z</time>
      </trkpt>
      <trkpt lat="50.29608" lon="5.09965">
        <ele>210.45</ele>
        <time>2026-08-09T11:07:25.526Z</time>
      </trkpt>
      <trkpt lat="50.29614" lon="5.09983">
        <ele>210.13</ele>
        <time>2026-08-09T11:07:31.527Z</time>
      </trkpt>
      <trkpt lat="50.29625" lon="5.09994">
        <ele>212</ele>
        <time>2026-08-09T11:07:37.521Z</time>
      </trkpt>
      <trkpt lat="50.29633" lon="5.10005">
        <ele>212.85</ele>
        <time>2026-08-09T11:07:43.530Z</time>
      </trkpt>
      <trkpt lat="50.29644" lon="5.10019">
        <ele>212.41</ele>
        <time>2026-08-09T11:07:49.526Z</time>
      </trkpt>
      <trkpt lat="50.29653" lon="5.1001">
        <ele>210.93</ele>
        <time>2026-08-09T11:07:56.464Z</time>
      </trkpt>
      <trkpt lat="50.2966" lon="5.09994">
        <ele>212.38</ele>
        <time>2026-08-09T11:08:01.527Z</time>
      </trkpt>
      <trkpt lat="50.29669" lon="5.09974">
        <ele>213.29</ele>
        <time>2026-08-09T11:08:07.524Z</time>
      </trkpt>
      <trkpt lat="50.29663" lon="5.09961">
        <ele>214.52</ele>
        <time>2026-08-09T11:08:14.465Z</time>
      </trkpt>
      <trkpt lat="50.29654" lon="5.09955">
        <ele>212.49</ele>
        <time>2026-08-09T11:08:21.505Z</time>
      </trkpt>
      <trkpt lat="50.29644" lon="5.09933">
        <ele>216.74</ele>
        <time>2026-08-09T12:58:40.466Z</time>
      </trkpt>
      <trkpt lat="50.29645" lon="5.09918">
        <ele>214.62</ele>
        <time>2026-08-09T13:00:39.462Z</time>
      </trkpt>
      <trkpt lat="50.29654" lon="5.09921">
        <ele>214.02</ele>
        <time>2026-08-09T13:00:46.471Z</time>
      </trkpt>
      <trkpt lat="50.29648" lon="5.09907">
        <ele>214.19</ele>
        <time>2026-08-09T13:01:01.530Z</time>
      </trkpt>
      <trkpt lat="50.29633" lon="5.09899">
        <ele>212.12</ele>
        <time>2026-08-09T13:01:07.530Z</time>
      </trkpt>
      <trkpt lat="50.29626" lon="5.09889">
        <ele>213.07</ele>
        <time>2026-08-09T13:01:13.527Z</time>
      </trkpt>
      <trkpt lat="50.29627" lon="5.09904">
        <ele>214.85</ele>
        <time>2026-08-09T13:01:24.635Z</time>
      </trkpt>
      <trkpt lat="50.29638" lon="5.0991">
        <ele>221.4</ele>
        <time>2026-08-09T13:01:33.535Z</time>
      </trkpt>
      <trkpt lat="50.29649" lon="5.09918">
        <ele>264.77</ele>
        <time>2026-08-09T13:01:39.499Z</time>
      </trkpt>
      <trkpt lat="50.29659" lon="5.09926">
        <ele>266.07</ele>
        <time>2026-08-09T13:01:44.528Z</time>
      </trkpt>
      <trkpt lat="50.2967" lon="5.09937">
        <ele>266.14</ele>
        <time>2026-08-09T13:01:49.572Z</time>
      </trkpt>
      <trkpt lat="50.29684" lon="5.0995">
        <ele>266.14</ele>
        <time>2026-08-09T13:01:55.530Z</time>
      </trkpt>
      <trkpt lat="50.29682" lon="5.09966">
        <ele>266.07</ele>
        <time>2026-08-09T13:02:02.483Z</time>
      </trkpt>
      <trkpt lat="50.29675" lon="5.09976">
        <ele>266.04</ele>
        <time>2026-08-09T13:02:08.516Z</time>
      </trkpt>
      <trkpt lat="50.2968" lon="5.09963">
        <ele>266.04</ele>
        <time>2026-08-09T13:02:13.538Z</time>
      </trkpt>
      <trkpt lat="50.29676" lon="5.09976">
        <ele>266.12</ele>
        <time>2026-08-09T13:02:22.473Z</time>
      </trkpt>
      <trkpt lat="50.29669" lon="5.09991">
        <ele>266.14</ele>
        <time>2026-08-09T13:02:27.482Z</time>
      </trkpt>
      <trkpt lat="50.29662" lon="5.10012">
        <ele>266.14</ele>
        <time>2026-08-09T13:02:32.503Z</time>
      </trkpt>
      <trkpt lat="50.29654" lon="5.10021">
        <ele>266.05</ele>
        <time>2026-08-09T13:02:37.544Z</time>
      </trkpt>
      <trkpt lat="50.29644" lon="5.10014">
        <ele>266.04</ele>
        <time>2026-08-09T13:02:44.485Z</time>
      </trkpt>
      <trkpt lat="50.29629" lon="5.09998">
        <ele>266.04</ele>
        <time>2026-08-09T13:02:49.546Z</time>
      </trkpt>
      <trkpt lat="50.29615" lon="5.09979">
        <ele>265.84</ele>
        <time>2026-08-09T13:02:55.538Z</time>
      </trkpt>
      <trkpt lat="50.29608" lon="5.09964">
        <ele>265.84</ele>
        <time>2026-08-09T13:03:01.547Z</time>
      </trkpt>
      <trkpt lat="50.29598" lon="5.09952">
        <ele>265.84</ele>
        <time>2026-08-09T13:03:07.546Z</time>
      </trkpt>
      <trkpt lat="50.29585" lon="5.09959">
        <ele>263.97</ele>
        <time>2026-08-09T13:03:13.546Z</time>
      </trkpt>
      <trkpt lat="50.29562" lon="5.09965">
        <ele>263.94</ele>
        <time>2026-08-09T13:03:19.541Z</time>
      </trkpt>
      <trkpt lat="50.29551" lon="5.09984">
        <ele>262.05</ele>
        <time>2026-08-09T13:03:25.539Z</time>
      </trkpt>
      <trkpt lat="50.29548" lon="5.10004">
        <ele>262.04</ele>
        <time>2026-08-09T13:03:31.555Z</time>
      </trkpt>
      <trkpt lat="50.29531" lon="5.10028">
        <ele>262.04</ele>
        <time>2026-08-09T13:03:37.545Z</time>
      </trkpt>
      <trkpt lat="50.29518" lon="5.10052">
        <ele>262.04</ele>
        <time>2026-08-09T13:03:43.555Z</time>
      </trkpt>
      <trkpt lat="50.29504" lon="5.10075">
        <ele>262.04</ele>
        <time>2026-08-09T13:03:49.544Z</time>
      </trkpt>
      <trkpt lat="50.29492" lon="5.10094">
        <ele>262.04</ele>
        <time>2026-08-09T13:03:55.547Z</time>
      </trkpt>
      <trkpt lat="50.2948" lon="5.10117">
        <ele>262.04</ele>
        <time>2026-08-09T13:04:01.552Z</time>
      </trkpt>
      <trkpt lat="50.29467" lon="5.1013">
        <ele>262.04</ele>
        <time>2026-08-09T13:04:07.549Z</time>
      </trkpt>
      <trkpt lat="50.2947" lon="5.10149">
        <ele>264.01</ele>
        <time>2026-08-09T13:04:13.539Z</time>
      </trkpt>
      <trkpt lat="50.29483" lon="5.10169">
        <ele>264.04</ele>
        <time>2026-08-09T13:04:19.544Z</time>
      </trkpt>
      <trkpt lat="50.29495" lon="5.10195">
        <ele>264.04</ele>
        <time>2026-08-09T13:04:25.537Z</time>
      </trkpt>
      <trkpt lat="50.29506" lon="5.10217">
        <ele>264.04</ele>
        <time>2026-08-09T13:04:31.546Z</time>
      </trkpt>
      <trkpt lat="50.29512" lon="5.10243">
        <ele>264.04</ele>
        <time>2026-08-09T13:04:37.544Z</time>
      </trkpt>
      <trkpt lat="50.29523" lon="5.1027">
        <ele>264.04</ele>
        <time>2026-08-09T13:04:43.541Z</time>
      </trkpt>
      <trkpt lat="50.29531" lon="5.10297">
        <ele>264.04</ele>
        <time>2026-08-09T13:04:49.540Z</time>
      </trkpt>
      <trkpt lat="50.2954" lon="5.10323">
        <ele>264.04</ele>
        <time>2026-08-09T13:04:55.544Z</time>
      </trkpt>
      <trkpt lat="50.2955" lon="5.10349">
        <ele>264.04</ele>
        <time>2026-08-09T13:05:01.544Z</time>
      </trkpt>
      <trkpt lat="50.2956" lon="5.10373">
        <ele>264.04</ele>
        <time>2026-08-09T13:05:07.539Z</time>
      </trkpt>
      <trkpt lat="50.29571" lon="5.10395">
        <ele>264.04</ele>
        <time>2026-08-09T13:05:13.536Z</time>
      </trkpt>
      <trkpt lat="50.2958" lon="5.10414">
        <ele>264.04</ele>
        <time>2026-08-09T13:05:19.548Z</time>
      </trkpt>
      <trkpt lat="50.29575" lon="5.10431">
        <ele>264.04</ele>
        <time>2026-08-09T13:05:25.540Z</time>
      </trkpt>
      <trkpt lat="50.29563" lon="5.10449">
        <ele>264.04</ele>
        <time>2026-08-09T13:05:31.538Z</time>
      </trkpt>
      <trkpt lat="50.29553" lon="5.10472">
        <ele>264.04</ele>
        <time>2026-08-09T13:05:37.543Z</time>
      </trkpt>
      <trkpt lat="50.29543" lon="5.10489">
        <ele>225.53</ele>
        <time>2026-08-09T13:05:43.542Z</time>
      </trkpt>
      <trkpt lat="50.29528" lon="5.10506">
        <ele>224.31</ele>
        <time>2026-08-09T13:05:49.538Z</time>
      </trkpt>
      <trkpt lat="50.29517" lon="5.10532">
        <ele>225.57</ele>
        <time>2026-08-09T13:05:55.544Z</time>
      </trkpt>
      <trkpt lat="50.29505" lon="5.10557">
        <ele>227.99</ele>
        <time>2026-08-09T13:06:01.543Z</time>
      </trkpt>
      <trkpt lat="50.29495" lon="5.10581">
        <ele>228.74</ele>
        <time>2026-08-09T13:06:07.538Z</time>
      </trkpt>
      <trkpt lat="50.29485" lon="5.10604">
        <ele>229.62</ele>
        <time>2026-08-09T13:06:13.542Z</time>
      </trkpt>
      <trkpt lat="50.29475" lon="5.10627">
        <ele>229.92</ele>
        <time>2026-08-09T13:06:19.538Z</time>
      </trkpt>
      <trkpt lat="50.29464" lon="5.10646">
        <ele>233.26</ele>
        <time>2026-08-09T13:06:25.540Z</time>
      </trkpt>
      <trkpt lat="50.29451" lon="5.10666">
        <ele>232.39</ele>
        <time>2026-08-09T13:06:31.542Z</time>
      </trkpt>
      <trkpt lat="50.2944" lon="5.10686">
        <ele>232.94</ele>
        <time>2026-08-09T13:06:37.539Z</time>
      </trkpt>
      <trkpt lat="50.29427" lon="5.10702">
        <ele>232.08</ele>
        <time>2026-08-09T13:06:43.547Z</time>
      </trkpt>
      <trkpt lat="50.29415" lon="5.10716">
        <ele>235.01</ele>
        <time>2026-08-09T13:06:49.546Z</time>
      </trkpt>
      <trkpt lat="50.29426" lon="5.10751">
        <ele>235.6</ele>
        <time>2026-08-09T13:06:55.547Z</time>
      </trkpt>
      <trkpt lat="50.29443" lon="5.1078">
        <ele>233.83</ele>
        <time>2026-08-09T13:07:01.549Z</time>
      </trkpt>
      <trkpt lat="50.29464" lon="5.10811">
        <ele>232.9</ele>
        <time>2026-08-09T13:07:07.544Z</time>
      </trkpt>
      <trkpt lat="50.29488" lon="5.10843">
        <ele>231.45</ele>
        <time>2026-08-09T13:07:13.538Z</time>
      </trkpt>
      <trkpt lat="50.29513" lon="5.10879">
        <ele>228.63</ele>
        <time>2026-08-09T13:07:19.534Z</time>
      </trkpt>
      <trkpt lat="50.29541" lon="5.10915">
        <ele>228.39</ele>
        <time>2026-08-09T13:07:25.546Z</time>
      </trkpt>
      <trkpt lat="50.29564" lon="5.10949">
        <ele>225.49</ele>
        <time>2026-08-09T13:07:31.549Z</time>
      </trkpt>
      <trkpt lat="50.29593" lon="5.1098">
        <ele>224.23</ele>
        <time>2026-08-09T13:07:37.550Z</time>
      </trkpt>
      <trkpt lat="50.29625" lon="5.11012">
        <ele>223.37</ele>
        <time>2026-08-09T13:07:43.541Z</time>
      </trkpt>
      <trkpt lat="50.29666" lon="5.11041">
        <ele>223.01</ele>
        <time>2026-08-09T13:07:49.540Z</time>
      </trkpt>
      <trkpt lat="50.29704" lon="5.11079">
        <ele>224.04</ele>
        <time>2026-08-09T13:07:55.542Z</time>
      </trkpt>
      <trkpt lat="50.2974" lon="5.11124">
        <ele>220.55</ele>
        <time>2026-08-09T13:08:01.543Z</time>
      </trkpt>
      <trkpt lat="50.29771" lon="5.11169">
        <ele>217.13</ele>
        <time>2026-08-09T13:08:07.538Z</time>
      </trkpt>
      <trkpt lat="50.29802" lon="5.11212">
        <ele>215.15</ele>
        <time>2026-08-09T13:08:13.540Z</time>
      </trkpt>
      <trkpt lat="50.2983" lon="5.11257">
        <ele>214.89</ele>
        <time>2026-08-09T13:08:19.540Z</time>
      </trkpt>
      <trkpt lat="50.29858" lon="5.11306">
        <ele>214.41</ele>
        <time>2026-08-09T13:08:25.541Z</time>
      </trkpt>
      <trkpt lat="50.29888" lon="5.11358">
        <ele>212.73</ele>
        <time>2026-08-09T13:08:31.540Z</time>
      </trkpt>
      <trkpt lat="50.29925" lon="5.11413">
        <ele>209.55</ele>
        <time>2026-08-09T13:08:37.542Z</time>
      </trkpt>
      <trkpt lat="50.29929" lon="5.11496">
        <ele>205.96</ele>
        <time>2026-08-09T13:08:43.542Z</time>
      </trkpt>
      <trkpt lat="50.2989" lon="5.11571">
        <ele>204.63</ele>
        <time>2026-08-09T13:08:49.540Z</time>
      </trkpt>
      <trkpt lat="50.29872" lon="5.11645">
        <ele>203.35</ele>
        <time>2026-08-09T13:08:55.539Z</time>
      </trkpt>
      <trkpt lat="50.29901" lon="5.11702">
        <ele>200.21</ele>
        <time>2026-08-09T13:09:01.534Z</time>
      </trkpt>
      <trkpt lat="50.2992" lon="5.11756">
        <ele>196.7</ele>
        <time>2026-08-09T13:09:07.543Z</time>
      </trkpt>
      <trkpt lat="50.2992" lon="5.11801">
        <ele>197.45</ele>
        <time>2026-08-09T13:09:13.545Z</time>
      </trkpt>
      <trkpt lat="50.29896" lon="5.11835">
        <ele>199.02</ele>
        <time>2026-08-09T13:09:19.539Z</time>
      </trkpt>
      <trkpt lat="50.29883" lon="5.11876">
        <ele>200.37</ele>
        <time>2026-08-09T13:09:25.542Z</time>
      </trkpt>
      <trkpt lat="50.29874" lon="5.11905">
        <ele>202.21</ele>
        <time>2026-08-09T13:09:31.541Z</time>
      </trkpt>
      <trkpt lat="50.29868" lon="5.11939">
        <ele>201.82</ele>
        <time>2026-08-09T13:09:37.541Z</time>
      </trkpt>
      <trkpt lat="50.29875" lon="5.11975">
        <ele>199.75</ele>
        <time>2026-08-09T13:09:43.545Z</time>
      </trkpt>
      <trkpt lat="50.2989" lon="5.11985">
        <ele>198.49</ele>
        <time>2026-08-09T13:09:49.544Z</time>
      </trkpt>
      <trkpt lat="50.29905" lon="5.11991">
        <ele>200.08</ele>
        <time>2026-08-09T13:09:55.539Z</time>
      </trkpt>
      <trkpt lat="50.29921" lon="5.11995">
        <ele>201.77</ele>
        <time>2026-08-09T13:10:01.527Z</time>
      </trkpt>
      <trkpt lat="50.29937" lon="5.12">
        <ele>205.83</ele>
        <time>2026-08-09T13:10:07.544Z</time>
      </trkpt>
      <trkpt lat="50.29954" lon="5.12005">
        <ele>208.45</ele>
        <time>2026-08-09T13:10:13.540Z</time>
      </trkpt>
      <trkpt lat="50.29966" lon="5.12009">
        <ele>208.74</ele>
        <time>2026-08-09T13:10:19.538Z</time>
      </trkpt>
      <trkpt lat="50.29978" lon="5.1202">
        <ele>208.84</ele>
        <time>2026-08-09T13:10:25.539Z</time>
      </trkpt>
      <trkpt lat="50.29976" lon="5.12037">
        <ele>209.85</ele>
        <time>2026-08-09T13:10:31.544Z</time>
      </trkpt>
      <trkpt lat="50.29962" lon="5.12047">
        <ele>211.51</ele>
        <time>2026-08-09T13:10:37.539Z</time>
      </trkpt>
      <trkpt lat="50.29943" lon="5.1206">
        <ele>209.09</ele>
        <time>2026-08-09T13:10:43.544Z</time>
      </trkpt>
      <trkpt lat="50.29927" lon="5.12074">
        <ele>209.68</ele>
        <time>2026-08-09T13:10:49.544Z</time>
      </trkpt>
      <trkpt lat="50.29914" lon="5.1209">
        <ele>210.33</ele>
        <time>2026-08-09T13:10:55.540Z</time>
      </trkpt>
      <trkpt lat="50.299" lon="5.12111">
        <ele>210.77</ele>
        <time>2026-08-09T13:11:01.544Z</time>
      </trkpt>
      <trkpt lat="50.29888" lon="5.12134">
        <ele>211.47</ele>
        <time>2026-08-09T13:11:07.544Z</time>
      </trkpt>
      <trkpt lat="50.29875" lon="5.12166">
        <ele>211.58</ele>
        <time>2026-08-09T13:11:13.540Z</time>
      </trkpt>
      <trkpt lat="50.29861" lon="5.12208">
        <ele>209.44</ele>
        <time>2026-08-09T13:11:19.541Z</time>
      </trkpt>
      <trkpt lat="50.29848" lon="5.12265">
        <ele>206.51</ele>
        <time>2026-08-09T13:11:25.541Z</time>
      </trkpt>
      <trkpt lat="50.29813" lon="5.12325">
        <ele>202.47</ele>
        <time>2026-08-09T13:11:31.539Z</time>
      </trkpt>
      <trkpt lat="50.2979" lon="5.124">
        <ele>199.33</ele>
        <time>2026-08-09T13:11:37.539Z</time>
      </trkpt>
      <trkpt lat="50.29778" lon="5.12461">
        <ele>199.59</ele>
        <time>2026-08-09T13:11:43.545Z</time>
      </trkpt>
      <trkpt lat="50.29748" lon="5.12466">
        <ele>203.8</ele>
        <time>2026-08-09T13:11:49.540Z</time>
      </trkpt>
      <trkpt lat="50.29722" lon="5.12466">
        <ele>203.88</ele>
        <time>2026-08-09T13:11:55.543Z</time>
      </trkpt>
      <trkpt lat="50.29692" lon="5.12466">
        <ele>201.87</ele>
        <time>2026-08-09T13:12:01.538Z</time>
      </trkpt>
      <trkpt lat="50.29676" lon="5.12495">
        <ele>203.52</ele>
        <time>2026-08-09T13:12:07.540Z</time>
      </trkpt>
      <trkpt lat="50.29669" lon="5.12535">
        <ele>203.71</ele>
        <time>2026-08-09T13:12:13.541Z</time>
      </trkpt>
      <trkpt lat="50.29655" lon="5.12564">
        <ele>206.12</ele>
        <time>2026-08-09T13:12:19.547Z</time>
      </trkpt>
      <trkpt lat="50.29638" lon="5.12595">
        <ele>205.61</ele>
        <time>2026-08-09T13:12:25.543Z</time>
      </trkpt>
      <trkpt lat="50.2961" lon="5.12624">
        <ele>207.94</ele>
        <time>2026-08-09T13:12:31.540Z</time>
      </trkpt>
      <trkpt lat="50.29591" lon="5.12663">
        <ele>208.14</ele>
        <time>2026-08-09T13:12:37.545Z</time>
      </trkpt>
      <trkpt lat="50.29578" lon="5.12706">
        <ele>208.99</ele>
        <time>2026-08-09T13:12:43.540Z</time>
      </trkpt>
      <trkpt lat="50.29578" lon="5.12758">
        <ele>206.25</ele>
        <time>2026-08-09T13:12:49.540Z</time>
      </trkpt>
      <trkpt lat="50.29585" lon="5.12813">
        <ele>205.46</ele>
        <time>2026-08-09T13:12:55.541Z</time>
      </trkpt>
      <trkpt lat="50.29594" lon="5.12871">
        <ele>204.6</ele>
        <time>2026-08-09T13:13:01.532Z</time>
      </trkpt>
      <trkpt lat="50.29602" lon="5.12928">
        <ele>204.68</ele>
        <time>2026-08-09T13:13:07.534Z</time>
      </trkpt>
      <trkpt lat="50.29612" lon="5.12983">
        <ele>204.18</ele>
        <time>2026-08-09T13:13:13.532Z</time>
      </trkpt>
      <trkpt lat="50.29622" lon="5.13035">
        <ele>206.63</ele>
        <time>2026-08-09T13:13:19.541Z</time>
      </trkpt>
      <trkpt lat="50.29629" lon="5.13087">
        <ele>205.5</ele>
        <time>2026-08-09T13:13:25.518Z</time>
      </trkpt>
      <trkpt lat="50.29632" lon="5.13124">
        <ele>208.7</ele>
        <time>2026-08-09T13:13:31.535Z</time>
      </trkpt>
      <trkpt lat="50.2963" lon="5.13149">
        <ele>208.2</ele>
        <time>2026-08-09T13:13:37.541Z</time>
      </trkpt>
      <trkpt lat="50.29631" lon="5.13179">
        <ele>206.51</ele>
        <time>2026-08-09T13:13:43.529Z</time>
      </trkpt>
      <trkpt lat="50.29624" lon="5.13214">
        <ele>205.71</ele>
        <time>2026-08-09T13:13:49.537Z</time>
      </trkpt>
      <trkpt lat="50.29613" lon="5.13254">
        <ele>205.9</ele>
        <time>2026-08-09T13:13:55.544Z</time>
      </trkpt>
      <trkpt lat="50.29601" lon="5.13293">
        <ele>205.68</ele>
        <time>2026-08-09T13:14:01.537Z</time>
      </trkpt>
      <trkpt lat="50.2959" lon="5.13329">
        <ele>204.65</ele>
        <time>2026-08-09T13:14:07.536Z</time>
      </trkpt>
      <trkpt lat="50.29582" lon="5.13369">
        <ele>202.63</ele>
        <time>2026-08-09T13:14:13.532Z</time>
      </trkpt>
      <trkpt lat="50.29578" lon="5.13411">
        <ele>201.63</ele>
        <time>2026-08-09T13:14:19.533Z</time>
      </trkpt>
      <trkpt lat="50.29577" lon="5.1346">
        <ele>206.15</ele>
        <time>2026-08-09T13:14:25.542Z</time>
      </trkpt>
      <trkpt lat="50.29576" lon="5.13503">
        <ele>209.48</ele>
        <time>2026-08-09T13:14:31.539Z</time>
      </trkpt>
      <trkpt lat="50.29574" lon="5.13544">
        <ele>212.3</ele>
        <time>2026-08-09T13:14:37.535Z</time>
      </trkpt>
      <trkpt lat="50.29576" lon="5.1358">
        <ele>214.57</ele>
        <time>2026-08-09T13:14:43.534Z</time>
      </trkpt>
      <trkpt lat="50.29578" lon="5.1361">
        <ele>216.18</ele>
        <time>2026-08-09T13:14:49.538Z</time>
      </trkpt>
      <trkpt lat="50.29581" lon="5.13641">
        <ele>217.63</ele>
        <time>2026-08-09T13:14:55.542Z</time>
      </trkpt>
      <trkpt lat="50.29583" lon="5.13672">
        <ele>217.81</ele>
        <time>2026-08-09T13:15:01.528Z</time>
      </trkpt>
      <trkpt lat="50.29585" lon="5.13703">
        <ele>218.68</ele>
        <time>2026-08-09T13:15:07.525Z</time>
      </trkpt>
      <trkpt lat="50.2959" lon="5.13736">
        <ele>222.74</ele>
        <time>2026-08-09T13:15:13.542Z</time>
      </trkpt>
      <trkpt lat="50.2959" lon="5.13763">
        <ele>220.5</ele>
        <time>2026-08-09T13:15:19.532Z</time>
      </trkpt>
      <trkpt lat="50.29592" lon="5.13796">
        <ele>218.64</ele>
        <time>2026-08-09T13:15:25.529Z</time>
      </trkpt>
      <trkpt lat="50.29594" lon="5.13828">
        <ele>219.9</ele>
        <time>2026-08-09T13:15:31.533Z</time>
      </trkpt>
      <trkpt lat="50.29596" lon="5.13859">
        <ele>220.16</ele>
        <time>2026-08-09T13:15:37.529Z</time>
      </trkpt>
      <trkpt lat="50.29598" lon="5.13893">
        <ele>221.18</ele>
        <time>2026-08-09T13:15:43.531Z</time>
      </trkpt>
      <trkpt lat="50.296" lon="5.13925">
        <ele>220.11</ele>
        <time>2026-08-09T13:15:49.535Z</time>
      </trkpt>
      <trkpt lat="50.29603" lon="5.13955">
        <ele>219.78</ele>
        <time>2026-08-09T13:15:55.522Z</time>
      </trkpt>
      <trkpt lat="50.29605" lon="5.13985">
        <ele>221.35</ele>
        <time>2026-08-09T13:16:01.538Z</time>
      </trkpt>
      <trkpt lat="50.29607" lon="5.14015">
        <ele>223.12</ele>
        <time>2026-08-09T13:16:07.537Z</time>
      </trkpt>
      <trkpt lat="50.29608" lon="5.14046">
        <ele>225.76</ele>
        <time>2026-08-09T13:16:13.535Z</time>
      </trkpt>
      <trkpt lat="50.29607" lon="5.14076">
        <ele>227.8</ele>
        <time>2026-08-09T13:16:19.536Z</time>
      </trkpt>
      <trkpt lat="50.29606" lon="5.14107">
        <ele>229.12</ele>
        <time>2026-08-09T13:16:25.545Z</time>
      </trkpt>
      <trkpt lat="50.29606" lon="5.14139">
        <ele>230</ele>
        <time>2026-08-09T13:16:31.537Z</time>
      </trkpt>
      <trkpt lat="50.29607" lon="5.14172">
        <ele>231.96</ele>
        <time>2026-08-09T13:16:37.539Z</time>
      </trkpt>
      <trkpt lat="50.29606" lon="5.14204">
        <ele>234.91</ele>
        <time>2026-08-09T13:16:43.536Z</time>
      </trkpt>
      <trkpt lat="50.29603" lon="5.14233">
        <ele>237.92</ele>
        <time>2026-08-09T13:16:49.536Z</time>
      </trkpt>
      <trkpt lat="50.29598" lon="5.14262">
        <ele>240.08</ele>
        <time>2026-08-09T13:16:55.542Z</time>
      </trkpt>
      <trkpt lat="50.29593" lon="5.14288">
        <ele>240.96</ele>
        <time>2026-08-09T13:17:01.534Z</time>
      </trkpt>
      <trkpt lat="50.29588" lon="5.14313">
        <ele>242.15</ele>
        <time>2026-08-09T13:17:07.537Z</time>
      </trkpt>
      <trkpt lat="50.29584" lon="5.14336">
        <ele>243.48</ele>
        <time>2026-08-09T13:17:13.535Z</time>
      </trkpt>
      <trkpt lat="50.29579" lon="5.14359">
        <ele>244.29</ele>
        <time>2026-08-09T13:17:19.532Z</time>
      </trkpt>
      <trkpt lat="50.29575" lon="5.14384">
        <ele>245.38</ele>
        <time>2026-08-09T13:17:25.541Z</time>
      </trkpt>
      <trkpt lat="50.29571" lon="5.14409">
        <ele>245.29</ele>
        <time>2026-08-09T13:17:31.538Z</time>
      </trkpt>
      <trkpt lat="50.29566" lon="5.14433">
        <ele>245.76</ele>
        <time>2026-08-09T13:17:37.532Z</time>
      </trkpt>
      <trkpt lat="50.29561" lon="5.14457">
        <ele>246.13</ele>
        <time>2026-08-09T13:17:43.535Z</time>
      </trkpt>
      <trkpt lat="50.29555" lon="5.14481">
        <ele>246.86</ele>
        <time>2026-08-09T13:17:49.537Z</time>
      </trkpt>
      <trkpt lat="50.29549" lon="5.14507">
        <ele>247.85</ele>
        <time>2026-08-09T13:17:55.542Z</time>
      </trkpt>
      <trkpt lat="50.29544" lon="5.14533">
        <ele>248.78</ele>
        <time>2026-08-09T13:18:01.535Z</time>
      </trkpt>
      <trkpt lat="50.29538" lon="5.1456">
        <ele>248.52</ele>
        <time>2026-08-09T13:18:07.529Z</time>
      </trkpt>
      <trkpt lat="50.29533" lon="5.14588">
        <ele>249.15</ele>
        <time>2026-08-09T13:18:13.527Z</time>
      </trkpt>
      <trkpt lat="50.29527" lon="5.14615">
        <ele>249.34</ele>
        <time>2026-08-09T13:18:19.532Z</time>
      </trkpt>
      <trkpt lat="50.29522" lon="5.14641">
        <ele>249.74</ele>
        <time>2026-08-09T13:18:25.539Z</time>
      </trkpt>
      <trkpt lat="50.29516" lon="5.14672">
        <ele>250.14</ele>
        <time>2026-08-09T13:18:31.537Z</time>
      </trkpt>
      <trkpt lat="50.2951" lon="5.14708">
        <ele>250.94</ele>
        <time>2026-08-09T13:18:37.529Z</time>
      </trkpt>
      <trkpt lat="50.29506" lon="5.14742">
        <ele>251.38</ele>
        <time>2026-08-09T13:18:43.531Z</time>
      </trkpt>
      <trkpt lat="50.29504" lon="5.14777">
        <ele>250.98</ele>
        <time>2026-08-09T13:18:49.531Z</time>
      </trkpt>
      <trkpt lat="50.29501" lon="5.14814">
        <ele>253.02</ele>
        <time>2026-08-09T13:18:55.541Z</time>
      </trkpt>
      <trkpt lat="50.295" lon="5.14854">
        <ele>251.14</ele>
        <time>2026-08-09T13:19:01.535Z</time>
      </trkpt>
      <trkpt lat="50.29496" lon="5.14899">
        <ele>249.35</ele>
        <time>2026-08-09T13:19:07.534Z</time>
      </trkpt>
      <trkpt lat="50.29494" lon="5.14946">
        <ele>247.98</ele>
        <time>2026-08-09T13:19:13.534Z</time>
      </trkpt>
      <trkpt lat="50.29492" lon="5.14993">
        <ele>246.45</ele>
        <time>2026-08-09T13:19:19.531Z</time>
      </trkpt>
      <trkpt lat="50.29484" lon="5.1503">
        <ele>246.39</ele>
        <time>2026-08-09T13:19:25.547Z</time>
      </trkpt>
      <trkpt lat="50.29467" lon="5.15071">
        <ele>246.19</ele>
        <time>2026-08-09T13:19:31.540Z</time>
      </trkpt>
      <trkpt lat="50.29453" lon="5.1511">
        <ele>244.24</ele>
        <time>2026-08-09T13:19:37.531Z</time>
      </trkpt>
      <trkpt lat="50.29436" lon="5.15152">
        <ele>246.49</ele>
        <time>2026-08-09T13:19:43.528Z</time>
      </trkpt>
      <trkpt lat="50.29418" lon="5.15196">
        <ele>247.94</ele>
        <time>2026-08-09T13:19:49.528Z</time>
      </trkpt>
      <trkpt lat="50.29399" lon="5.15242">
        <ele>248.62</ele>
        <time>2026-08-09T13:19:55.539Z</time>
      </trkpt>
      <trkpt lat="50.29383" lon="5.15285">
        <ele>249.48</ele>
        <time>2026-08-09T13:20:01.535Z</time>
      </trkpt>
      <trkpt lat="50.29368" lon="5.15321">
        <ele>252.24</ele>
        <time>2026-08-09T13:20:07.527Z</time>
      </trkpt>
      <trkpt lat="50.29355" lon="5.15351">
        <ele>256.11</ele>
        <time>2026-08-09T13:20:13.529Z</time>
      </trkpt>
      <trkpt lat="50.29346" lon="5.15378">
        <ele>257.37</ele>
        <time>2026-08-09T13:20:19.533Z</time>
      </trkpt>
      <trkpt lat="50.29335" lon="5.15399">
        <ele>258.14</ele>
        <time>2026-08-09T13:20:25.541Z</time>
      </trkpt>
      <trkpt lat="50.29326" lon="5.15424">
        <ele>258.87</ele>
        <time>2026-08-09T13:20:31.536Z</time>
      </trkpt>
      <trkpt lat="50.29318" lon="5.15442">
        <ele>259.84</ele>
        <time>2026-08-09T13:20:37.529Z</time>
      </trkpt>
      <trkpt lat="50.29311" lon="5.1546">
        <ele>260.81</ele>
        <time>2026-08-09T13:20:43.538Z</time>
      </trkpt>
      <trkpt lat="50.29305" lon="5.15478">
        <ele>262.3</ele>
        <time>2026-08-09T13:20:49.529Z</time>
      </trkpt>
      <trkpt lat="50.29298" lon="5.15495">
        <ele>263.54</ele>
        <time>2026-08-09T13:20:55.538Z</time>
      </trkpt>
      <trkpt lat="50.29291" lon="5.15509">
        <ele>265.19</ele>
        <time>2026-08-09T13:21:01.538Z</time>
      </trkpt>
      <trkpt lat="50.29286" lon="5.15526">
        <ele>266.35</ele>
        <time>2026-08-09T13:21:07.529Z</time>
      </trkpt>
      <trkpt lat="50.2928" lon="5.15542">
        <ele>267.26</ele>
        <time>2026-08-09T13:21:13.527Z</time>
      </trkpt>
      <trkpt lat="50.29275" lon="5.15556">
        <ele>268.08</ele>
        <time>2026-08-09T13:21:19.529Z</time>
      </trkpt>
      <trkpt lat="50.29268" lon="5.15573">
        <ele>269.29</ele>
        <time>2026-08-09T13:21:25.532Z</time>
      </trkpt>
      <trkpt lat="50.29261" lon="5.1559">
        <ele>269.68</ele>
        <time>2026-08-09T13:21:31.538Z</time>
      </trkpt>
      <trkpt lat="50.29254" lon="5.15608">
        <ele>271.21</ele>
        <time>2026-08-09T13:21:37.541Z</time>
      </trkpt>
      <trkpt lat="50.29249" lon="5.15626">
        <ele>273.32</ele>
        <time>2026-08-09T13:21:43.530Z</time>
      </trkpt>
      <trkpt lat="50.29242" lon="5.15642">
        <ele>274.12</ele>
        <time>2026-08-09T13:21:49.528Z</time>
      </trkpt>
      <trkpt lat="50.29238" lon="5.15658">
        <ele>276.03</ele>
        <time>2026-08-09T13:21:55.538Z</time>
      </trkpt>
      <trkpt lat="50.29231" lon="5.15674">
        <ele>276.76</ele>
        <time>2026-08-09T13:22:01.536Z</time>
      </trkpt>
      <trkpt lat="50.29224" lon="5.15691">
        <ele>276.58</ele>
        <time>2026-08-09T13:22:07.526Z</time>
      </trkpt>
      <trkpt lat="50.29216" lon="5.1571">
        <ele>278.02</ele>
        <time>2026-08-09T13:22:13.530Z</time>
      </trkpt>
      <trkpt lat="50.2921" lon="5.15727">
        <ele>279.25</ele>
        <time>2026-08-09T13:22:19.527Z</time>
      </trkpt>
      <trkpt lat="50.29203" lon="5.15746">
        <ele>280.21</ele>
        <time>2026-08-09T13:22:25.538Z</time>
      </trkpt>
      <trkpt lat="50.29196" lon="5.15765">
        <ele>281.83</ele>
        <time>2026-08-09T13:22:31.537Z</time>
      </trkpt>
      <trkpt lat="50.29189" lon="5.15783">
        <ele>282.16</ele>
        <time>2026-08-09T13:22:37.531Z</time>
      </trkpt>
      <trkpt lat="50.2918" lon="5.15802">
        <ele>283.24</ele>
        <time>2026-08-09T13:22:43.532Z</time>
      </trkpt>
      <trkpt lat="50.29173" lon="5.15822">
        <ele>284.97</ele>
        <time>2026-08-09T13:22:49.531Z</time>
      </trkpt>
      <trkpt lat="50.29161" lon="5.15849">
        <ele>283.58</ele>
        <time>2026-08-09T13:22:55.533Z</time>
      </trkpt>
      <trkpt lat="50.29151" lon="5.15874">
        <ele>282.7</ele>
        <time>2026-08-09T13:23:01.534Z</time>
      </trkpt>
      <trkpt lat="50.2914" lon="5.15902">
        <ele>281.79</ele>
        <time>2026-08-09T13:23:07.531Z</time>
      </trkpt>
      <trkpt lat="50.29125" lon="5.15934">
        <ele>280.84</ele>
        <time>2026-08-09T13:23:13.528Z</time>
      </trkpt>
      <trkpt lat="50.29112" lon="5.15966">
        <ele>281.8</ele>
        <time>2026-08-09T13:23:19.531Z</time>
      </trkpt>
      <trkpt lat="50.291" lon="5.15999">
        <ele>281.23</ele>
        <time>2026-08-09T13:23:25.534Z</time>
      </trkpt>
      <trkpt lat="50.2908" lon="5.16046">
        <ele>277.05</ele>
        <time>2026-08-09T13:23:31.535Z</time>
      </trkpt>
      <trkpt lat="50.2906" lon="5.16105">
        <ele>272.32</ele>
        <time>2026-08-09T13:23:37.532Z</time>
      </trkpt>
      <trkpt lat="50.29024" lon="5.16103">
        <ele>268.26</ele>
        <time>2026-08-09T13:23:43.529Z</time>
      </trkpt>
      <trkpt lat="50.28976" lon="5.16071">
        <ele>264.55</ele>
        <time>2026-08-09T13:23:49.528Z</time>
      </trkpt>
      <trkpt lat="50.28931" lon="5.16049">
        <ele>261.75</ele>
        <time>2026-08-09T13:23:55.530Z</time>
      </trkpt>
      <trkpt lat="50.2889" lon="5.16041">
        <ele>260.2</ele>
        <time>2026-08-09T13:24:01.540Z</time>
      </trkpt>
      <trkpt lat="50.28851" lon="5.16034">
        <ele>260.37</ele>
        <time>2026-08-09T13:24:07.531Z</time>
      </trkpt>
      <trkpt lat="50.28815" lon="5.16027">
        <ele>260.47</ele>
        <time>2026-08-09T13:24:13.531Z</time>
      </trkpt>
      <trkpt lat="50.2878" lon="5.16017">
        <ele>260.16</ele>
        <time>2026-08-09T13:24:19.534Z</time>
      </trkpt>
      <trkpt lat="50.28745" lon="5.16007">
        <ele>260.22</ele>
        <time>2026-08-09T13:24:25.541Z</time>
      </trkpt>
      <trkpt lat="50.28711" lon="5.16013">
        <ele>259.63</ele>
        <time>2026-08-09T13:24:31.544Z</time>
      </trkpt>
      <trkpt lat="50.28679" lon="5.16028">
        <ele>260.14</ele>
        <time>2026-08-09T13:24:37.533Z</time>
      </trkpt>
      <trkpt lat="50.28648" lon="5.16039">
        <ele>259.68</ele>
        <time>2026-08-09T13:24:43.532Z</time>
      </trkpt>
      <trkpt lat="50.2861" lon="5.1605">
        <ele>258.84</ele>
        <time>2026-08-09T13:24:49.531Z</time>
      </trkpt>
      <trkpt lat="50.28569" lon="5.16074">
        <ele>256.29</ele>
        <time>2026-08-09T13:24:55.542Z</time>
      </trkpt>
      <trkpt lat="50.28529" lon="5.16126">
        <ele>251.71</ele>
        <time>2026-08-09T13:25:01.540Z</time>
      </trkpt>
      <trkpt lat="50.28486" lon="5.16186">
        <ele>248.53</ele>
        <time>2026-08-09T13:25:07.528Z</time>
      </trkpt>
      <trkpt lat="50.28437" lon="5.16234">
        <ele>245.45</ele>
        <time>2026-08-09T13:25:13.533Z</time>
      </trkpt>
      <trkpt lat="50.28385" lon="5.1624">
        <ele>244.07</ele>
        <time>2026-08-09T13:25:19.530Z</time>
      </trkpt>
      <trkpt lat="50.28343" lon="5.16266">
        <ele>244.39</ele>
        <time>2026-08-09T13:25:25.545Z</time>
      </trkpt>
      <trkpt lat="50.28307" lon="5.16298">
        <ele>244.86</ele>
        <time>2026-08-09T13:25:31.548Z</time>
      </trkpt>
      <trkpt lat="50.28276" lon="5.16329">
        <ele>245.79</ele>
        <time>2026-08-09T13:25:37.530Z</time>
      </trkpt>
      <trkpt lat="50.28248" lon="5.16358">
        <ele>245.44</ele>
        <time>2026-08-09T13:25:43.530Z</time>
      </trkpt>
      <trkpt lat="50.28222" lon="5.16385">
        <ele>246.76</ele>
        <time>2026-08-09T13:25:49.528Z</time>
      </trkpt>
      <trkpt lat="50.28199" lon="5.16412">
        <ele>249.04</ele>
        <time>2026-08-09T13:25:55.521Z</time>
      </trkpt>
      <trkpt lat="50.28181" lon="5.1644">
        <ele>251.44</ele>
        <time>2026-08-09T13:26:01.545Z</time>
      </trkpt>
      <trkpt lat="50.28165" lon="5.16462">
        <ele>252.5</ele>
        <time>2026-08-09T13:26:07.526Z</time>
      </trkpt>
      <trkpt lat="50.28151" lon="5.16475">
        <ele>254.78</ele>
        <time>2026-08-09T13:26:13.533Z</time>
      </trkpt>
      <trkpt lat="50.28134" lon="5.16485">
        <ele>256.06</ele>
        <time>2026-08-09T13:26:19.538Z</time>
      </trkpt>
      <trkpt lat="50.28119" lon="5.16482">
        <ele>257.14</ele>
        <time>2026-08-09T13:26:25.545Z</time>
      </trkpt>
      <trkpt lat="50.28112" lon="5.16449">
        <ele>257.03</ele>
        <time>2026-08-09T13:26:31.543Z</time>
      </trkpt>
      <trkpt lat="50.28104" lon="5.16401">
        <ele>255.73</ele>
        <time>2026-08-09T13:26:37.540Z</time>
      </trkpt>
      <trkpt lat="50.28087" lon="5.1636">
        <ele>256.79</ele>
        <time>2026-08-09T13:26:43.524Z</time>
      </trkpt>
      <trkpt lat="50.28073" lon="5.16329">
        <ele>254.44</ele>
        <time>2026-08-09T13:26:49.534Z</time>
      </trkpt>
      <trkpt lat="50.28062" lon="5.16275">
        <ele>252.3</ele>
        <time>2026-08-09T13:26:55.546Z</time>
      </trkpt>
      <trkpt lat="50.28088" lon="5.16235">
        <ele>251.63</ele>
        <time>2026-08-09T13:27:01.543Z</time>
      </trkpt>
      <trkpt lat="50.28083" lon="5.16179">
        <ele>252.56</ele>
        <time>2026-08-09T13:27:07.530Z</time>
      </trkpt>
      <trkpt lat="50.28066" lon="5.16141">
        <ele>251.08</ele>
        <time>2026-08-09T13:27:13.532Z</time>
      </trkpt>
      <trkpt lat="50.2805" lon="5.16106">
        <ele>248.53</ele>
        <time>2026-08-09T13:27:19.533Z</time>
      </trkpt>
      <trkpt lat="50.28037" lon="5.16075">
        <ele>250.83</ele>
        <time>2026-08-09T13:27:25.543Z</time>
      </trkpt>
      <trkpt lat="50.28026" lon="5.16042">
        <ele>253.08</ele>
        <time>2026-08-09T13:27:31.544Z</time>
      </trkpt>
      <trkpt lat="50.28013" lon="5.16011">
        <ele>255.46</ele>
        <time>2026-08-09T13:27:37.536Z</time>
      </trkpt>
      <trkpt lat="50.27993" lon="5.16005">
        <ele>256.01</ele>
        <time>2026-08-09T13:27:43.525Z</time>
      </trkpt>
      <trkpt lat="50.2797" lon="5.16005">
        <ele>256.71</ele>
        <time>2026-08-09T13:27:49.534Z</time>
      </trkpt>
      <trkpt lat="50.2795" lon="5.15983">
        <ele>258.38</ele>
        <time>2026-08-09T13:27:55.542Z</time>
      </trkpt>
      <trkpt lat="50.2793" lon="5.15989">
        <ele>258.35</ele>
        <time>2026-08-09T13:28:01.539Z</time>
      </trkpt>
      <trkpt lat="50.27913" lon="5.15997">
        <ele>257.61</ele>
        <time>2026-08-09T13:28:07.535Z</time>
      </trkpt>
      <trkpt lat="50.27902" lon="5.16007">
        <ele>258.47</ele>
        <time>2026-08-09T13:28:13.530Z</time>
      </trkpt>
      <trkpt lat="50.27891" lon="5.16018">
        <ele>260.81</ele>
        <time>2026-08-09T13:28:19.528Z</time>
      </trkpt>
      <trkpt lat="50.2788" lon="5.16027">
        <ele>263.69</ele>
        <time>2026-08-09T13:28:25.523Z</time>
      </trkpt>
      <trkpt lat="50.27868" lon="5.16038">
        <ele>264.4</ele>
        <time>2026-08-09T13:28:31.541Z</time>
      </trkpt>
      <trkpt lat="50.27856" lon="5.16046">
        <ele>264.66</ele>
        <time>2026-08-09T13:28:37.531Z</time>
      </trkpt>
      <trkpt lat="50.27843" lon="5.16054">
        <ele>264.79</ele>
        <time>2026-08-09T13:28:43.536Z</time>
      </trkpt>
      <trkpt lat="50.27831" lon="5.16063">
        <ele>265.6</ele>
        <time>2026-08-09T13:28:49.527Z</time>
      </trkpt>
      <trkpt lat="50.27819" lon="5.16071">
        <ele>265.78</ele>
        <time>2026-08-09T13:28:55.543Z</time>
      </trkpt>
      <trkpt lat="50.27808" lon="5.1608">
        <ele>267.67</ele>
        <time>2026-08-09T13:29:01.538Z</time>
      </trkpt>
      <trkpt lat="50.27796" lon="5.16091">
        <ele>268.83</ele>
        <time>2026-08-09T13:29:07.527Z</time>
      </trkpt>
      <trkpt lat="50.27783" lon="5.16103">
        <ele>268.08</ele>
        <time>2026-08-09T13:29:13.528Z</time>
      </trkpt>
      <trkpt lat="50.27771" lon="5.16116">
        <ele>268.36</ele>
        <time>2026-08-09T13:29:19.534Z</time>
      </trkpt>
      <trkpt lat="50.27759" lon="5.1613">
        <ele>269.32</ele>
        <time>2026-08-09T13:29:25.542Z</time>
      </trkpt>
      <trkpt lat="50.27746" lon="5.16148">
        <ele>270.32</ele>
        <time>2026-08-09T13:29:31.544Z</time>
      </trkpt>
      <trkpt lat="50.27735" lon="5.16164">
        <ele>272.14</ele>
        <time>2026-08-09T13:29:37.528Z</time>
      </trkpt>
      <trkpt lat="50.27727" lon="5.16176">
        <ele>274.19</ele>
        <time>2026-08-09T13:29:43.538Z</time>
      </trkpt>
      <trkpt lat="50.27716" lon="5.16193">
        <ele>274.21</ele>
        <time>2026-08-09T13:29:49.533Z</time>
      </trkpt>
      <trkpt lat="50.27705" lon="5.16209">
        <ele>274.6</ele>
        <time>2026-08-09T13:29:55.564Z</time>
      </trkpt>
      <trkpt lat="50.27696" lon="5.16224">
        <ele>278.11</ele>
        <time>2026-08-09T13:30:01.541Z</time>
      </trkpt>
      <trkpt lat="50.27689" lon="5.16237">
        <ele>279.22</ele>
        <time>2026-08-09T13:30:07.534Z</time>
      </trkpt>
      <trkpt lat="50.27681" lon="5.16253">
        <ele>280.44</ele>
        <time>2026-08-09T13:30:13.530Z</time>
      </trkpt>
      <trkpt lat="50.27672" lon="5.16267">
        <ele>281.31</ele>
        <time>2026-08-09T13:30:19.530Z</time>
      </trkpt>
      <trkpt lat="50.27661" lon="5.16278">
        <ele>282.04</ele>
        <time>2026-08-09T13:30:25.548Z</time>
      </trkpt>
      <trkpt lat="50.27651" lon="5.16294">
        <ele>282.05</ele>
        <time>2026-08-09T13:30:31.547Z</time>
      </trkpt>
      <trkpt lat="50.27643" lon="5.16308">
        <ele>281.93</ele>
        <time>2026-08-09T13:30:37.531Z</time>
      </trkpt>
      <trkpt lat="50.27632" lon="5.1632">
        <ele>282.76</ele>
        <time>2026-08-09T13:30:43.529Z</time>
      </trkpt>
      <trkpt lat="50.27622" lon="5.16334">
        <ele>284.29</ele>
        <time>2026-08-09T13:30:49.533Z</time>
      </trkpt>
      <trkpt lat="50.27611" lon="5.16344">
        <ele>285.97</ele>
        <time>2026-08-09T13:30:55.546Z</time>
      </trkpt>
      <trkpt lat="50.276" lon="5.16355">
        <ele>288.23</ele>
        <time>2026-08-09T13:31:01.540Z</time>
      </trkpt>
      <trkpt lat="50.27588" lon="5.16366">
        <ele>288.88</ele>
        <time>2026-08-09T13:31:07.532Z</time>
      </trkpt>
      <trkpt lat="50.27576" lon="5.16377">
        <ele>288.92</ele>
        <time>2026-08-09T13:31:13.533Z</time>
      </trkpt>
      <trkpt lat="50.27565" lon="5.16386">
        <ele>290.85</ele>
        <time>2026-08-09T13:31:19.536Z</time>
      </trkpt>
      <trkpt lat="50.27553" lon="5.16396">
        <ele>294.11</ele>
        <time>2026-08-09T13:31:25.546Z</time>
      </trkpt>
      <trkpt lat="50.27541" lon="5.16406">
        <ele>294.86</ele>
        <time>2026-08-09T13:31:31.550Z</time>
      </trkpt>
      <trkpt lat="50.27526" lon="5.16419">
        <ele>294.46</ele>
        <time>2026-08-09T13:31:37.535Z</time>
      </trkpt>
      <trkpt lat="50.27511" lon="5.16431">
        <ele>293.85</ele>
        <time>2026-08-09T13:31:43.535Z</time>
      </trkpt>
      <trkpt lat="50.27492" lon="5.16447">
        <ele>294.19</ele>
        <time>2026-08-09T13:31:49.635Z</time>
      </trkpt>
      <trkpt lat="50.27472" lon="5.16465">
        <ele>296.07</ele>
        <time>2026-08-09T13:31:55.627Z</time>
      </trkpt>
      <trkpt lat="50.27453" lon="5.16485">
        <ele>292.33</ele>
        <time>2026-08-09T13:32:01.564Z</time>
      </trkpt>
      <trkpt lat="50.27438" lon="5.16517">
        <ele>291.21</ele>
        <time>2026-08-09T13:32:07.531Z</time>
      </trkpt>
      <trkpt lat="50.27412" lon="5.16553">
        <ele>289.03</ele>
        <time>2026-08-09T13:32:13.532Z</time>
      </trkpt>
      <trkpt lat="50.27378" lon="5.16581">
        <ele>288.4</ele>
        <time>2026-08-09T13:32:19.529Z</time>
      </trkpt>
      <trkpt lat="50.27341" lon="5.16609">
        <ele>286.42</ele>
        <time>2026-08-09T13:32:25.546Z</time>
      </trkpt>
      <trkpt lat="50.27304" lon="5.16642">
        <ele>283.75</ele>
        <time>2026-08-09T13:32:31.550Z</time>
      </trkpt>
      <trkpt lat="50.27261" lon="5.16668">
        <ele>280.76</ele>
        <time>2026-08-09T13:32:37.534Z</time>
      </trkpt>
      <trkpt lat="50.27208" lon="5.16697">
        <ele>276.05</ele>
        <time>2026-08-09T13:32:43.537Z</time>
      </trkpt>
      <trkpt lat="50.27151" lon="5.16726">
        <ele>272.12</ele>
        <time>2026-08-09T13:32:49.533Z</time>
      </trkpt>
      <trkpt lat="50.271" lon="5.16761">
        <ele>270.58</ele>
        <time>2026-08-09T13:32:55.543Z</time>
      </trkpt>
      <trkpt lat="50.27081" lon="5.16822">
        <ele>269.84</ele>
        <time>2026-08-09T13:33:01.540Z</time>
      </trkpt>
      <trkpt lat="50.27078" lon="5.16873">
        <ele>272.97</ele>
        <time>2026-08-09T13:33:07.530Z</time>
      </trkpt>
      <trkpt lat="50.27074" lon="5.16915">
        <ele>273.39</ele>
        <time>2026-08-09T13:33:13.532Z</time>
      </trkpt>
      <trkpt lat="50.27072" lon="5.16957">
        <ele>272.92</ele>
        <time>2026-08-09T13:33:19.529Z</time>
      </trkpt>
      <trkpt lat="50.27064" lon="5.16998">
        <ele>273.6</ele>
        <time>2026-08-09T13:33:25.541Z</time>
      </trkpt>
      <trkpt lat="50.27039" lon="5.17037">
        <ele>273.99</ele>
        <time>2026-08-09T13:33:31.542Z</time>
      </trkpt>
      <trkpt lat="50.26999" lon="5.17079">
        <ele>269.21</ele>
        <time>2026-08-09T13:33:37.534Z</time>
      </trkpt>
      <trkpt lat="50.26952" lon="5.17131">
        <ele>261.81</ele>
        <time>2026-08-09T13:33:43.530Z</time>
      </trkpt>
      <trkpt lat="50.26899" lon="5.17189">
        <ele>256.42</ele>
        <time>2026-08-09T13:33:49.531Z</time>
      </trkpt>
      <trkpt lat="50.26845" lon="5.17253">
        <ele>252.45</ele>
        <time>2026-08-09T13:33:55.541Z</time>
      </trkpt>
      <trkpt lat="50.26804" lon="5.17337">
        <ele>248</ele>
        <time>2026-08-09T13:34:01.547Z</time>
      </trkpt>
      <trkpt lat="50.26779" lon="5.17415">
        <ele>246.5</ele>
        <time>2026-08-09T13:34:07.534Z</time>
      </trkpt>
      <trkpt lat="50.26757" lon="5.17483">
        <ele>249.27</ele>
        <time>2026-08-09T13:34:13.529Z</time>
      </trkpt>
      <trkpt lat="50.26735" lon="5.17534">
        <ele>253.03</ele>
        <time>2026-08-09T13:34:19.537Z</time>
      </trkpt>
      <trkpt lat="50.26712" lon="5.17566">
        <ele>255.7</ele>
        <time>2026-08-09T13:34:25.545Z</time>
      </trkpt>
      <trkpt lat="50.2669" lon="5.17595">
        <ele>257.42</ele>
        <time>2026-08-09T13:34:31.542Z</time>
      </trkpt>
      <trkpt lat="50.26666" lon="5.17627">
        <ele>257.24</ele>
        <time>2026-08-09T13:34:37.544Z</time>
      </trkpt>
      <trkpt lat="50.26641" lon="5.17661">
        <ele>256.4</ele>
        <time>2026-08-09T13:34:43.540Z</time>
      </trkpt>
      <trkpt lat="50.26612" lon="5.177">
        <ele>256.57</ele>
        <time>2026-08-09T13:34:49.543Z</time>
      </trkpt>
      <trkpt lat="50.26582" lon="5.1774">
        <ele>256.24</ele>
        <time>2026-08-09T13:34:55.541Z</time>
      </trkpt>
      <trkpt lat="50.26554" lon="5.17776">
        <ele>257.55</ele>
        <time>2026-08-09T13:35:01.541Z</time>
      </trkpt>
      <trkpt lat="50.26528" lon="5.17809">
        <ele>256.21</ele>
        <time>2026-08-09T13:35:07.540Z</time>
      </trkpt>
      <trkpt lat="50.265" lon="5.17842">
        <ele>255.92</ele>
        <time>2026-08-09T13:35:13.544Z</time>
      </trkpt>
      <trkpt lat="50.26464" lon="5.17871">
        <ele>256.22</ele>
        <time>2026-08-09T13:35:19.539Z</time>
      </trkpt>
      <trkpt lat="50.26425" lon="5.179">
        <ele>255.15</ele>
        <time>2026-08-09T13:35:25.545Z</time>
      </trkpt>
      <trkpt lat="50.26385" lon="5.17927">
        <ele>253.71</ele>
        <time>2026-08-09T13:35:31.542Z</time>
      </trkpt>
      <trkpt lat="50.26343" lon="5.17954">
        <ele>251.84</ele>
        <time>2026-08-09T13:35:37.539Z</time>
      </trkpt>
      <trkpt lat="50.26305" lon="5.17977">
        <ele>252.99</ele>
        <time>2026-08-09T13:35:43.536Z</time>
      </trkpt>
      <trkpt lat="50.26281" lon="5.17996">
        <ele>256.2</ele>
        <time>2026-08-09T13:35:49.538Z</time>
      </trkpt>
      <trkpt lat="50.2626" lon="5.18018">
        <ele>258.87</ele>
        <time>2026-08-09T13:35:55.549Z</time>
      </trkpt>
      <trkpt lat="50.26244" lon="5.18041">
        <ele>261.06</ele>
        <time>2026-08-09T13:36:01.541Z</time>
      </trkpt>
      <trkpt lat="50.26226" lon="5.18065">
        <ele>261.08</ele>
        <time>2026-08-09T13:36:07.538Z</time>
      </trkpt>
      <trkpt lat="50.26207" lon="5.18089">
        <ele>262.58</ele>
        <time>2026-08-09T13:36:13.539Z</time>
      </trkpt>
      <trkpt lat="50.26182" lon="5.18115">
        <ele>264.44</ele>
        <time>2026-08-09T13:36:19.540Z</time>
      </trkpt>
      <trkpt lat="50.26155" lon="5.18144">
        <ele>262.46</ele>
        <time>2026-08-09T13:36:25.549Z</time>
      </trkpt>
      <trkpt lat="50.26125" lon="5.18177">
        <ele>260.25</ele>
        <time>2026-08-09T13:36:31.542Z</time>
      </trkpt>
      <trkpt lat="50.26093" lon="5.18214">
        <ele>259.46</ele>
        <time>2026-08-09T13:36:37.543Z</time>
      </trkpt>
      <trkpt lat="50.26062" lon="5.18252">
        <ele>259.74</ele>
        <time>2026-08-09T13:36:43.536Z</time>
      </trkpt>
      <trkpt lat="50.26028" lon="5.1829">
        <ele>259.57</ele>
        <time>2026-08-09T13:36:49.541Z</time>
      </trkpt>
      <trkpt lat="50.25998" lon="5.18319">
        <ele>257.26</ele>
        <time>2026-08-09T13:36:55.549Z</time>
      </trkpt>
      <trkpt lat="50.25977" lon="5.18339">
        <ele>256.02</ele>
        <time>2026-08-09T13:37:01.541Z</time>
      </trkpt>
      <trkpt lat="50.25959" lon="5.18354">
        <ele>255.91</ele>
        <time>2026-08-09T13:37:07.536Z</time>
      </trkpt>
      <trkpt lat="50.25943" lon="5.18369">
        <ele>256.21</ele>
        <time>2026-08-09T13:37:13.536Z</time>
      </trkpt>
      <trkpt lat="50.25928" lon="5.18382">
        <ele>257.55</ele>
        <time>2026-08-09T13:37:19.543Z</time>
      </trkpt>
      <trkpt lat="50.25914" lon="5.18399">
        <ele>260.74</ele>
        <time>2026-08-09T13:37:25.542Z</time>
      </trkpt>
      <trkpt lat="50.25901" lon="5.18415">
        <ele>262.21</ele>
        <time>2026-08-09T13:37:31.547Z</time>
      </trkpt>
      <trkpt lat="50.25886" lon="5.18429">
        <ele>261.9</ele>
        <time>2026-08-09T13:37:37.540Z</time>
      </trkpt>
      <trkpt lat="50.25873" lon="5.18443">
        <ele>262.34</ele>
        <time>2026-08-09T13:37:43.543Z</time>
      </trkpt>
      <trkpt lat="50.25861" lon="5.18457">
        <ele>263.77</ele>
        <time>2026-08-09T13:37:49.539Z</time>
      </trkpt>
      <trkpt lat="50.25851" lon="5.18467">
        <ele>266.68</ele>
        <time>2026-08-09T13:37:55.551Z</time>
      </trkpt>
      <trkpt lat="50.2584" lon="5.1848">
        <ele>268.54</ele>
        <time>2026-08-09T13:38:01.545Z</time>
      </trkpt>
      <trkpt lat="50.25829" lon="5.18492">
        <ele>268.06</ele>
        <time>2026-08-09T13:38:07.541Z</time>
      </trkpt>
      <trkpt lat="50.25817" lon="5.18504">
        <ele>268.27</ele>
        <time>2026-08-09T13:38:13.539Z</time>
      </trkpt>
      <trkpt lat="50.25806" lon="5.18518">
        <ele>267.59</ele>
        <time>2026-08-09T13:38:19.541Z</time>
      </trkpt>
      <trkpt lat="50.25795" lon="5.18531">
        <ele>268.84</ele>
        <time>2026-08-09T13:38:25.537Z</time>
      </trkpt>
      <trkpt lat="50.25784" lon="5.18543">
        <ele>270.44</ele>
        <time>2026-08-09T13:38:31.544Z</time>
      </trkpt>
      <trkpt lat="50.25771" lon="5.18557">
        <ele>271.42</ele>
        <time>2026-08-09T13:38:37.539Z</time>
      </trkpt>
      <trkpt lat="50.25759" lon="5.1857">
        <ele>271.7</ele>
        <time>2026-08-09T13:38:43.539Z</time>
      </trkpt>
      <trkpt lat="50.25746" lon="5.18583">
        <ele>272.06</ele>
        <time>2026-08-09T13:38:49.542Z</time>
      </trkpt>
      <trkpt lat="50.2573" lon="5.18599">
        <ele>271.61</ele>
        <time>2026-08-09T13:38:55.552Z</time>
      </trkpt>
      <trkpt lat="50.25711" lon="5.18619">
        <ele>271.76</ele>
        <time>2026-08-09T13:39:01.545Z</time>
      </trkpt>
      <trkpt lat="50.2569" lon="5.18644">
        <ele>271.48</ele>
        <time>2026-08-09T13:39:07.536Z</time>
      </trkpt>
      <trkpt lat="50.25664" lon="5.18675">
        <ele>270.74</ele>
        <time>2026-08-09T13:39:13.540Z</time>
      </trkpt>
      <trkpt lat="50.25638" lon="5.18712">
        <ele>270.23</ele>
        <time>2026-08-09T13:39:19.540Z</time>
      </trkpt>
      <trkpt lat="50.25611" lon="5.18756">
        <ele>268.41</ele>
        <time>2026-08-09T13:39:25.540Z</time>
      </trkpt>
      <trkpt lat="50.2558" lon="5.18803">
        <ele>266.55</ele>
        <time>2026-08-09T13:39:31.543Z</time>
      </trkpt>
      <trkpt lat="50.25548" lon="5.18854">
        <ele>264.5</ele>
        <time>2026-08-09T13:39:37.533Z</time>
      </trkpt>
      <trkpt lat="50.25515" lon="5.18905">
        <ele>262.89</ele>
        <time>2026-08-09T13:39:43.537Z</time>
      </trkpt>
      <trkpt lat="50.25482" lon="5.18956">
        <ele>262.59</ele>
        <time>2026-08-09T13:39:49.536Z</time>
      </trkpt>
      <trkpt lat="50.25452" lon="5.19">
        <ele>262</ele>
        <time>2026-08-09T13:39:55.541Z</time>
      </trkpt>
      <trkpt lat="50.25424" lon="5.19043">
        <ele>263.23</ele>
        <time>2026-08-09T13:40:01.543Z</time>
      </trkpt>
      <trkpt lat="50.25396" lon="5.19085">
        <ele>263.5</ele>
        <time>2026-08-09T13:40:07.538Z</time>
      </trkpt>
      <trkpt lat="50.2537" lon="5.19128">
        <ele>262.83</ele>
        <time>2026-08-09T13:40:13.538Z</time>
      </trkpt>
      <trkpt lat="50.25344" lon="5.19165">
        <ele>261.62</ele>
        <time>2026-08-09T13:40:19.540Z</time>
      </trkpt>
      <trkpt lat="50.25322" lon="5.192">
        <ele>262.82</ele>
        <time>2026-08-09T13:40:25.540Z</time>
      </trkpt>
      <trkpt lat="50.25303" lon="5.19227">
        <ele>263.83</ele>
        <time>2026-08-09T13:40:31.542Z</time>
      </trkpt>
      <trkpt lat="50.25285" lon="5.1925">
        <ele>264.43</ele>
        <time>2026-08-09T13:40:37.538Z</time>
      </trkpt>
      <trkpt lat="50.25268" lon="5.19269">
        <ele>266.93</ele>
        <time>2026-08-09T13:40:43.539Z</time>
      </trkpt>
      <trkpt lat="50.2525" lon="5.19287">
        <ele>268.35</ele>
        <time>2026-08-09T13:40:49.534Z</time>
      </trkpt>
      <trkpt lat="50.25234" lon="5.19303">
        <ele>270.58</ele>
        <time>2026-08-09T13:40:55.539Z</time>
      </trkpt>
      <trkpt lat="50.25214" lon="5.1932">
        <ele>271.47</ele>
        <time>2026-08-09T13:41:01.545Z</time>
      </trkpt>
      <trkpt lat="50.25191" lon="5.1934">
        <ele>270.71</ele>
        <time>2026-08-09T13:41:07.538Z</time>
      </trkpt>
      <trkpt lat="50.25164" lon="5.19364">
        <ele>268.92</ele>
        <time>2026-08-09T13:41:13.537Z</time>
      </trkpt>
      <trkpt lat="50.25137" lon="5.19389">
        <ele>267.51</ele>
        <time>2026-08-09T13:41:19.547Z</time>
      </trkpt>
      <trkpt lat="50.25108" lon="5.19416">
        <ele>266.5</ele>
        <time>2026-08-09T13:41:25.545Z</time>
      </trkpt>
      <trkpt lat="50.25077" lon="5.19442">
        <ele>265.33</ele>
        <time>2026-08-09T13:41:31.545Z</time>
      </trkpt>
      <trkpt lat="50.25048" lon="5.19467">
        <ele>265.31</ele>
        <time>2026-08-09T13:41:37.537Z</time>
      </trkpt>
      <trkpt lat="50.25021" lon="5.19492">
        <ele>266.62</ele>
        <time>2026-08-09T13:41:43.541Z</time>
      </trkpt>
      <trkpt lat="50.24994" lon="5.19516">
        <ele>266.99</ele>
        <time>2026-08-09T13:41:49.535Z</time>
      </trkpt>
      <trkpt lat="50.24968" lon="5.19538">
        <ele>267.28</ele>
        <time>2026-08-09T13:41:55.546Z</time>
      </trkpt>
      <trkpt lat="50.24945" lon="5.19559">
        <ele>266.16</ele>
        <time>2026-08-09T13:42:01.542Z</time>
      </trkpt>
      <trkpt lat="50.24929" lon="5.19575">
        <ele>266.12</ele>
        <time>2026-08-09T13:42:07.536Z</time>
      </trkpt>
      <trkpt lat="50.24922" lon="5.19601">
        <ele>268.05</ele>
        <time>2026-08-09T13:42:13.541Z</time>
      </trkpt>
      <trkpt lat="50.24931" lon="5.19639">
        <ele>268.49</ele>
        <time>2026-08-09T13:42:19.541Z</time>
      </trkpt>
      <trkpt lat="50.24937" lon="5.1968">
        <ele>270.08</ele>
        <time>2026-08-09T13:42:25.546Z</time>
      </trkpt>
      <trkpt lat="50.24942" lon="5.19729">
        <ele>268.86</ele>
        <time>2026-08-09T13:42:31.544Z</time>
      </trkpt>
      <trkpt lat="50.24948" lon="5.19777">
        <ele>268.19</ele>
        <time>2026-08-09T13:42:37.539Z</time>
      </trkpt>
      <trkpt lat="50.24954" lon="5.19829">
        <ele>267.61</ele>
        <time>2026-08-09T13:42:43.539Z</time>
      </trkpt>
      <trkpt lat="50.2496" lon="5.19888">
        <ele>266.91</ele>
        <time>2026-08-09T13:42:49.540Z</time>
      </trkpt>
      <trkpt lat="50.24968" lon="5.19953">
        <ele>266.6</ele>
        <time>2026-08-09T13:42:55.542Z</time>
      </trkpt>
      <trkpt lat="50.24975" lon="5.20024">
        <ele>264.93</ele>
        <time>2026-08-09T13:43:01.541Z</time>
      </trkpt>
      <trkpt lat="50.24985" lon="5.20097">
        <ele>264.5</ele>
        <time>2026-08-09T13:43:07.534Z</time>
      </trkpt>
      <trkpt lat="50.24985" lon="5.20164">
        <ele>262.39</ele>
        <time>2026-08-09T13:43:13.537Z</time>
      </trkpt>
      <trkpt lat="50.24942" lon="5.20199">
        <ele>260.53</ele>
        <time>2026-08-09T13:43:19.535Z</time>
      </trkpt>
      <trkpt lat="50.2491" lon="5.20223">
        <ele>261.18</ele>
        <time>2026-08-09T13:43:25.546Z</time>
      </trkpt>
      <trkpt lat="50.24894" lon="5.20233">
        <ele>264.23</ele>
        <time>2026-08-09T13:43:31.542Z</time>
      </trkpt>
      <trkpt lat="50.24883" lon="5.2024">
        <ele>265.93</ele>
        <time>2026-08-09T13:43:37.540Z</time>
      </trkpt>
      <trkpt lat="50.24871" lon="5.20251">
        <ele>268.55</ele>
        <time>2026-08-09T13:43:43.536Z</time>
      </trkpt>
      <trkpt lat="50.24859" lon="5.20263">
        <ele>269.18</ele>
        <time>2026-08-09T13:43:49.527Z</time>
      </trkpt>
      <trkpt lat="50.24846" lon="5.20273">
        <ele>269.14</ele>
        <time>2026-08-09T13:43:55.545Z</time>
      </trkpt>
      <trkpt lat="50.24831" lon="5.20283">
        <ele>271.45</ele>
        <time>2026-08-09T13:44:01.545Z</time>
      </trkpt>
      <trkpt lat="50.24818" lon="5.20294">
        <ele>272.36</ele>
        <time>2026-08-09T13:44:07.540Z</time>
      </trkpt>
      <trkpt lat="50.24805" lon="5.20304">
        <ele>272.24</ele>
        <time>2026-08-09T13:44:13.536Z</time>
      </trkpt>
      <trkpt lat="50.24793" lon="5.20313">
        <ele>273.93</ele>
        <time>2026-08-09T13:44:19.534Z</time>
      </trkpt>
      <trkpt lat="50.24782" lon="5.20323">
        <ele>275.33</ele>
        <time>2026-08-09T13:44:25.546Z</time>
      </trkpt>
      <trkpt lat="50.24771" lon="5.2033">
        <ele>276.94</ele>
        <time>2026-08-09T13:44:31.546Z</time>
      </trkpt>
      <trkpt lat="50.24763" lon="5.20338">
        <ele>279.55</ele>
        <time>2026-08-09T13:44:38.480Z</time>
      </trkpt>
      <trkpt lat="50.24752" lon="5.20344">
        <ele>280.62</ele>
        <time>2026-08-09T13:44:43.543Z</time>
      </trkpt>
      <trkpt lat="50.24741" lon="5.20353">
        <ele>280.84</ele>
        <time>2026-08-09T13:44:49.537Z</time>
      </trkpt>
      <trkpt lat="50.2473" lon="5.20361">
        <ele>281.03</ele>
        <time>2026-08-09T13:44:55.545Z</time>
      </trkpt>
      <trkpt lat="50.24718" lon="5.20371">
        <ele>281.47</ele>
        <time>2026-08-09T13:45:01.542Z</time>
      </trkpt>
      <trkpt lat="50.24707" lon="5.20379">
        <ele>282.98</ele>
        <time>2026-08-09T13:45:07.538Z</time>
      </trkpt>
      <trkpt lat="50.24697" lon="5.20388">
        <ele>284.39</ele>
        <time>2026-08-09T13:45:13.538Z</time>
      </trkpt>
      <trkpt lat="50.24685" lon="5.20396">
        <ele>284.42</ele>
        <time>2026-08-09T13:45:19.535Z</time>
      </trkpt>
      <trkpt lat="50.24672" lon="5.20405">
        <ele>284.84</ele>
        <time>2026-08-09T13:45:25.548Z</time>
      </trkpt>
      <trkpt lat="50.24659" lon="5.20416">
        <ele>284.91</ele>
        <time>2026-08-09T13:45:31.544Z</time>
      </trkpt>
      <trkpt lat="50.24646" lon="5.20425">
        <ele>286.39</ele>
        <time>2026-08-09T13:45:37.541Z</time>
      </trkpt>
      <trkpt lat="50.24633" lon="5.20434">
        <ele>287.08</ele>
        <time>2026-08-09T13:45:43.539Z</time>
      </trkpt>
      <trkpt lat="50.2462" lon="5.20445">
        <ele>286.41</ele>
        <time>2026-08-09T13:45:49.531Z</time>
      </trkpt>
      <trkpt lat="50.24606" lon="5.20452">
        <ele>286.15</ele>
        <time>2026-08-09T13:45:55.541Z</time>
      </trkpt>
      <trkpt lat="50.24588" lon="5.2045">
        <ele>286.74</ele>
        <time>2026-08-09T13:46:01.544Z</time>
      </trkpt>
      <trkpt lat="50.24571" lon="5.20437">
        <ele>287.68</ele>
        <time>2026-08-09T13:46:07.541Z</time>
      </trkpt>
      <trkpt lat="50.24553" lon="5.20422">
        <ele>288.58</ele>
        <time>2026-08-09T13:46:13.533Z</time>
      </trkpt>
      <trkpt lat="50.24534" lon="5.20406">
        <ele>287.56</ele>
        <time>2026-08-09T13:46:19.531Z</time>
      </trkpt>
      <trkpt lat="50.24514" lon="5.2039">
        <ele>288.25</ele>
        <time>2026-08-09T13:46:25.542Z</time>
      </trkpt>
      <trkpt lat="50.2449" lon="5.2037">
        <ele>287.82</ele>
        <time>2026-08-09T13:46:31.546Z</time>
      </trkpt>
      <trkpt lat="50.24462" lon="5.20344">
        <ele>286.8</ele>
        <time>2026-08-09T13:46:37.533Z</time>
      </trkpt>
      <trkpt lat="50.24428" lon="5.20314">
        <ele>284.99</ele>
        <time>2026-08-09T13:46:43.525Z</time>
      </trkpt>
      <trkpt lat="50.24388" lon="5.20304">
        <ele>281.68</ele>
        <time>2026-08-09T13:46:49.529Z</time>
      </trkpt>
      <trkpt lat="50.24343" lon="5.20335">
        <ele>279.52</ele>
        <time>2026-08-09T13:46:55.550Z</time>
      </trkpt>
      <trkpt lat="50.24297" lon="5.20366">
        <ele>278.46</ele>
        <time>2026-08-09T13:47:01.544Z</time>
      </trkpt>
      <trkpt lat="50.24261" lon="5.20391">
        <ele>279.04</ele>
        <time>2026-08-09T13:47:07.533Z</time>
      </trkpt>
      <trkpt lat="50.24238" lon="5.20416">
        <ele>280.86</ele>
        <time>2026-08-09T13:47:13.531Z</time>
      </trkpt>
      <trkpt lat="50.24215" lon="5.20428">
        <ele>282.87</ele>
        <time>2026-08-09T13:47:19.526Z</time>
      </trkpt>
      <trkpt lat="50.24191" lon="5.20431">
        <ele>284.14</ele>
        <time>2026-08-09T13:47:25.538Z</time>
      </trkpt>
      <trkpt lat="50.24169" lon="5.20434">
        <ele>282.78</ele>
        <time>2026-08-09T13:47:31.535Z</time>
      </trkpt>
      <trkpt lat="50.24137" lon="5.20442">
        <ele>280.58</ele>
        <time>2026-08-09T13:47:37.526Z</time>
      </trkpt>
      <trkpt lat="50.24095" lon="5.20444">
        <ele>278.58</ele>
        <time>2026-08-09T13:47:43.529Z</time>
      </trkpt>
      <trkpt lat="50.24042" lon="5.20454">
        <ele>275.25</ele>
        <time>2026-08-09T13:47:49.531Z</time>
      </trkpt>
      <trkpt lat="50.23981" lon="5.20466">
        <ele>270.64</ele>
        <time>2026-08-09T13:47:55.545Z</time>
      </trkpt>
      <trkpt lat="50.23917" lon="5.20478">
        <ele>265.2</ele>
        <time>2026-08-09T13:48:01.548Z</time>
      </trkpt>
      <trkpt lat="50.2385" lon="5.20495">
        <ele>260.34</ele>
        <time>2026-08-09T13:48:07.530Z</time>
      </trkpt>
      <trkpt lat="50.23783" lon="5.20519">
        <ele>255.17</ele>
        <time>2026-08-09T13:48:13.534Z</time>
      </trkpt>
      <trkpt lat="50.23723" lon="5.20565">
        <ele>249.9</ele>
        <time>2026-08-09T13:48:19.532Z</time>
      </trkpt>
      <trkpt lat="50.23664" lon="5.20619">
        <ele>244.27</ele>
        <time>2026-08-09T13:48:25.545Z</time>
      </trkpt>
      <trkpt lat="50.23601" lon="5.20667">
        <ele>238.96</ele>
        <time>2026-08-09T13:48:31.543Z</time>
      </trkpt>
      <trkpt lat="50.23534" lon="5.20702">
        <ele>235.29</ele>
        <time>2026-08-09T13:48:37.531Z</time>
      </trkpt>
      <trkpt lat="50.2347" lon="5.20705">
        <ele>233.53</ele>
        <time>2026-08-09T13:48:43.532Z</time>
      </trkpt>
      <trkpt lat="50.23419" lon="5.20708">
        <ele>233.75</ele>
        <time>2026-08-09T13:48:49.534Z</time>
      </trkpt>
      <trkpt lat="50.23379" lon="5.20716">
        <ele>236.44</ele>
        <time>2026-08-09T13:48:55.545Z</time>
      </trkpt>
      <trkpt lat="50.23347" lon="5.20717">
        <ele>239.5</ele>
        <time>2026-08-09T13:49:01.547Z</time>
      </trkpt>
      <trkpt lat="50.23312" lon="5.20708">
        <ele>239.4</ele>
        <time>2026-08-09T13:49:07.536Z</time>
      </trkpt>
      <trkpt lat="50.23272" lon="5.20697">
        <ele>238.06</ele>
        <time>2026-08-09T13:49:13.531Z</time>
      </trkpt>
      <trkpt lat="50.23231" lon="5.20684">
        <ele>236.3</ele>
        <time>2026-08-09T13:49:19.532Z</time>
      </trkpt>
      <trkpt lat="50.23187" lon="5.20667">
        <ele>234.53</ele>
        <time>2026-08-09T13:49:25.542Z</time>
      </trkpt>
      <trkpt lat="50.23135" lon="5.20646">
        <ele>230.55</ele>
        <time>2026-08-09T13:49:31.542Z</time>
      </trkpt>
      <trkpt lat="50.23072" lon="5.20622">
        <ele>224.26</ele>
        <time>2026-08-09T13:49:37.530Z</time>
      </trkpt>
      <trkpt lat="50.23003" lon="5.20596">
        <ele>218.76</ele>
        <time>2026-08-09T13:49:43.530Z</time>
      </trkpt>
      <trkpt lat="50.2293" lon="5.2056">
        <ele>211.73</ele>
        <time>2026-08-09T13:49:49.534Z</time>
      </trkpt>
      <trkpt lat="50.22862" lon="5.20512">
        <ele>205.97</ele>
        <time>2026-08-09T13:49:55.540Z</time>
      </trkpt>
      <trkpt lat="50.22794" lon="5.20468">
        <ele>200</ele>
        <time>2026-08-09T13:50:01.545Z</time>
      </trkpt>
      <trkpt lat="50.22726" lon="5.20422">
        <ele>193.98</ele>
        <time>2026-08-09T13:50:07.532Z</time>
      </trkpt>
      <trkpt lat="50.22663" lon="5.20369">
        <ele>191.87</ele>
        <time>2026-08-09T13:50:13.534Z</time>
      </trkpt>
      <trkpt lat="50.22614" lon="5.20304">
        <ele>190.03</ele>
        <time>2026-08-09T13:50:19.529Z</time>
      </trkpt>
      <trkpt lat="50.22569" lon="5.20248">
        <ele>187.47</ele>
        <time>2026-08-09T13:50:25.542Z</time>
      </trkpt>
      <trkpt lat="50.22513" lon="5.20222">
        <ele>183.07</ele>
        <time>2026-08-09T13:50:31.543Z</time>
      </trkpt>
      <trkpt lat="50.2245" lon="5.20245">
        <ele>181.36</ele>
        <time>2026-08-09T13:50:37.536Z</time>
      </trkpt>
      <trkpt lat="50.22386" lon="5.20266">
        <ele>178</ele>
        <time>2026-08-09T13:50:43.538Z</time>
      </trkpt>
      <trkpt lat="50.22324" lon="5.20281">
        <ele>172.05</ele>
        <time>2026-08-09T13:50:49.531Z</time>
      </trkpt>
      <trkpt lat="50.22266" lon="5.2029">
        <ele>168.31</ele>
        <time>2026-08-09T13:50:55.541Z</time>
      </trkpt>
      <trkpt lat="50.2221" lon="5.203">
        <ele>166.12</ele>
        <time>2026-08-09T13:51:01.550Z</time>
      </trkpt>
      <trkpt lat="50.22156" lon="5.20308">
        <ele>163.68</ele>
        <time>2026-08-09T13:51:07.530Z</time>
      </trkpt>
      <trkpt lat="50.22096" lon="5.20318">
        <ele>160.61</ele>
        <time>2026-08-09T13:51:13.532Z</time>
      </trkpt>
      <trkpt lat="50.22031" lon="5.20328">
        <ele>155.24</ele>
        <time>2026-08-09T13:51:19.531Z</time>
      </trkpt>
      <trkpt lat="50.21959" lon="5.20338">
        <ele>149.09</ele>
        <time>2026-08-09T13:51:25.545Z</time>
      </trkpt>
      <trkpt lat="50.21892" lon="5.20349">
        <ele>146.17</ele>
        <time>2026-08-09T13:51:31.545Z</time>
      </trkpt>
      <trkpt lat="50.21832" lon="5.20357">
        <ele>143.19</ele>
        <time>2026-08-09T13:51:37.538Z</time>
      </trkpt>
      <trkpt lat="50.21779" lon="5.2035">
        <ele>138.61</ele>
        <time>2026-08-09T13:51:43.534Z</time>
      </trkpt>
      <trkpt lat="50.21739" lon="5.20301">
        <ele>136.54</ele>
        <time>2026-08-09T13:51:49.535Z</time>
      </trkpt>
      <trkpt lat="50.21706" lon="5.20253">
        <ele>136.4</ele>
        <time>2026-08-09T13:51:55.545Z</time>
      </trkpt>
      <trkpt lat="50.21679" lon="5.2022">
        <ele>135.98</ele>
        <time>2026-08-09T13:52:01.536Z</time>
      </trkpt>
      <trkpt lat="50.21659" lon="5.20202">
        <ele>137.09</ele>
        <time>2026-08-09T13:52:07.540Z</time>
      </trkpt>
      <trkpt lat="50.21644" lon="5.20195">
        <ele>137.54</ele>
        <time>2026-08-09T13:52:13.540Z</time>
      </trkpt>
      <trkpt lat="50.21635" lon="5.20222">
        <ele>135.7</ele>
        <time>2026-08-09T13:52:19.539Z</time>
      </trkpt>
      <trkpt lat="50.21629" lon="5.20266">
        <ele>134.06</ele>
        <time>2026-08-09T13:52:25.547Z</time>
      </trkpt>
      <trkpt lat="50.21622" lon="5.20322">
        <ele>133.18</ele>
        <time>2026-08-09T13:52:31.547Z</time>
      </trkpt>
      <trkpt lat="50.21613" lon="5.20386">
        <ele>132.31</ele>
        <time>2026-08-09T13:52:37.534Z</time>
      </trkpt>
      <trkpt lat="50.2159" lon="5.20451">
        <ele>131.75</ele>
        <time>2026-08-09T13:52:43.530Z</time>
      </trkpt>
      <trkpt lat="50.21555" lon="5.20499">
        <ele>132.23</ele>
        <time>2026-08-09T13:52:49.534Z</time>
      </trkpt>
      <trkpt lat="50.21531" lon="5.20549">
        <ele>131.78</ele>
        <time>2026-08-09T13:52:55.550Z</time>
      </trkpt>
      <trkpt lat="50.21516" lon="5.20589">
        <ele>133.57</ele>
        <time>2026-08-09T13:53:01.544Z</time>
      </trkpt>
      <trkpt lat="50.21507" lon="5.20605">
        <ele>137.37</ele>
        <time>2026-08-09T13:53:07.536Z</time>
      </trkpt>
      <trkpt lat="50.21498" lon="5.20622">
        <ele>139.56</ele>
        <time>2026-08-09T13:53:13.532Z</time>
      </trkpt>
      <trkpt lat="50.2149" lon="5.20638">
        <ele>142.63</ele>
        <time>2026-08-09T13:53:19.537Z</time>
      </trkpt>
      <trkpt lat="50.21481" lon="5.20653">
        <ele>144.11</ele>
        <time>2026-08-09T13:53:25.539Z</time>
      </trkpt>
      <trkpt lat="50.21472" lon="5.20669">
        <ele>143.05</ele>
        <time>2026-08-09T13:53:31.544Z</time>
      </trkpt>
      <trkpt lat="50.21464" lon="5.20683">
        <ele>142.21</ele>
        <time>2026-08-09T13:53:37.534Z</time>
      </trkpt>
      <trkpt lat="50.21455" lon="5.20696">
        <ele>142.52</ele>
        <time>2026-08-09T13:53:43.531Z</time>
      </trkpt>
      <trkpt lat="50.21446" lon="5.20707">
        <ele>143.23</ele>
        <time>2026-08-09T13:53:49.532Z</time>
      </trkpt>
      <trkpt lat="50.21438" lon="5.20717">
        <ele>144.92</ele>
        <time>2026-08-09T13:53:55.543Z</time>
      </trkpt>
      <trkpt lat="50.21429" lon="5.20727">
        <ele>146.58</ele>
        <time>2026-08-09T13:54:01.544Z</time>
      </trkpt>
      <trkpt lat="50.2142" lon="5.20736">
        <ele>147.56</ele>
        <time>2026-08-09T13:54:07.536Z</time>
      </trkpt>
      <trkpt lat="50.21411" lon="5.20746">
        <ele>147.72</ele>
        <time>2026-08-09T13:54:13.533Z</time>
      </trkpt>
      <trkpt lat="50.21402" lon="5.20755">
        <ele>148.21</ele>
        <time>2026-08-09T13:54:19.533Z</time>
      </trkpt>
      <trkpt lat="50.21393" lon="5.20766">
        <ele>149.59</ele>
        <time>2026-08-09T13:54:25.550Z</time>
      </trkpt>
      <trkpt lat="50.21385" lon="5.20776">
        <ele>150.81</ele>
        <time>2026-08-09T13:54:31.548Z</time>
      </trkpt>
      <trkpt lat="50.21375" lon="5.20787">
        <ele>150.88</ele>
        <time>2026-08-09T13:54:37.533Z</time>
      </trkpt>
      <trkpt lat="50.21365" lon="5.20798">
        <ele>152.49</ele>
        <time>2026-08-09T13:54:43.537Z</time>
      </trkpt>
      <trkpt lat="50.21356" lon="5.20812">
        <ele>154.99</ele>
        <time>2026-08-09T13:54:49.533Z</time>
      </trkpt>
      <trkpt lat="50.21348" lon="5.20827">
        <ele>156.84</ele>
        <time>2026-08-09T13:54:55.543Z</time>
      </trkpt>
      <trkpt lat="50.21342" lon="5.20842">
        <ele>158.8</ele>
        <time>2026-08-09T13:55:01.543Z</time>
      </trkpt>
      <trkpt lat="50.21334" lon="5.20857">
        <ele>159.98</ele>
        <time>2026-08-09T13:55:07.539Z</time>
      </trkpt>
      <trkpt lat="50.21329" lon="5.20873">
        <ele>160.6</ele>
        <time>2026-08-09T13:55:13.533Z</time>
      </trkpt>
      <trkpt lat="50.21322" lon="5.20887">
        <ele>162.24</ele>
        <time>2026-08-09T13:55:19.532Z</time>
      </trkpt>
      <trkpt lat="50.21313" lon="5.20902">
        <ele>162.38</ele>
        <time>2026-08-09T13:55:25.545Z</time>
      </trkpt>
      <trkpt lat="50.21304" lon="5.20917">
        <ele>162.22</ele>
        <time>2026-08-09T13:55:31.543Z</time>
      </trkpt>
      <trkpt lat="50.21295" lon="5.20932">
        <ele>161.68</ele>
        <time>2026-08-09T13:55:37.532Z</time>
      </trkpt>
      <trkpt lat="50.21286" lon="5.20947">
        <ele>162.31</ele>
        <time>2026-08-09T13:55:43.535Z</time>
      </trkpt>
      <trkpt lat="50.21278" lon="5.20963">
        <ele>163.23</ele>
        <time>2026-08-09T13:55:49.532Z</time>
      </trkpt>
      <trkpt lat="50.21267" lon="5.20978">
        <ele>163.96</ele>
        <time>2026-08-09T13:55:55.544Z</time>
      </trkpt>
      <trkpt lat="50.21257" lon="5.20994">
        <ele>164.91</ele>
        <time>2026-08-09T13:56:01.542Z</time>
      </trkpt>
      <trkpt lat="50.21247" lon="5.21011">
        <ele>165.58</ele>
        <time>2026-08-09T13:56:07.531Z</time>
      </trkpt>
      <trkpt lat="50.21234" lon="5.21031">
        <ele>165.08</ele>
        <time>2026-08-09T13:56:13.532Z</time>
      </trkpt>
      <trkpt lat="50.21221" lon="5.21054">
        <ele>165.28</ele>
        <time>2026-08-09T13:56:19.533Z</time>
      </trkpt>
      <trkpt lat="50.21208" lon="5.21078">
        <ele>165.5</ele>
        <time>2026-08-09T13:56:25.544Z</time>
      </trkpt>
      <trkpt lat="50.21194" lon="5.21101">
        <ele>166.63</ele>
        <time>2026-08-09T13:56:31.545Z</time>
      </trkpt>
      <trkpt lat="50.2118" lon="5.21125">
        <ele>167.15</ele>
        <time>2026-08-09T13:56:37.535Z</time>
      </trkpt>
      <trkpt lat="50.21165" lon="5.2115">
        <ele>167.41</ele>
        <time>2026-08-09T13:56:43.533Z</time>
      </trkpt>
      <trkpt lat="50.21151" lon="5.21175">
        <ele>167.49</ele>
        <time>2026-08-09T13:56:49.533Z</time>
      </trkpt>
      <trkpt lat="50.21136" lon="5.21199">
        <ele>168.05</ele>
        <time>2026-08-09T13:56:55.542Z</time>
      </trkpt>
      <trkpt lat="50.21122" lon="5.2122">
        <ele>167.97</ele>
        <time>2026-08-09T13:57:01.547Z</time>
      </trkpt>
      <trkpt lat="50.21106" lon="5.21241">
        <ele>168.1</ele>
        <time>2026-08-09T13:57:07.536Z</time>
      </trkpt>
      <trkpt lat="50.21091" lon="5.21262">
        <ele>169.24</ele>
        <time>2026-08-09T13:57:13.539Z</time>
      </trkpt>
      <trkpt lat="50.21078" lon="5.21282">
        <ele>169.8</ele>
        <time>2026-08-09T13:57:19.537Z</time>
      </trkpt>
      <trkpt lat="50.21064" lon="5.21302">
        <ele>170.17</ele>
        <time>2026-08-09T13:57:25.546Z</time>
      </trkpt>
      <trkpt lat="50.21053" lon="5.21319">
        <ele>170.68</ele>
        <time>2026-08-09T13:57:31.545Z</time>
      </trkpt>
      <trkpt lat="50.2104" lon="5.21337">
        <ele>171.67</ele>
        <time>2026-08-09T13:57:37.536Z</time>
      </trkpt>
      <trkpt lat="50.21029" lon="5.21353">
        <ele>172.24</ele>
        <time>2026-08-09T13:57:43.533Z</time>
      </trkpt>
      <trkpt lat="50.2102" lon="5.21366">
        <ele>172.83</ele>
        <time>2026-08-09T13:57:49.539Z</time>
      </trkpt>
      <trkpt lat="50.21011" lon="5.21377">
        <ele>174.2</ele>
        <time>2026-08-09T13:57:55.545Z</time>
      </trkpt>
      <trkpt lat="50.21003" lon="5.2139">
        <ele>174.5</ele>
        <time>2026-08-09T13:58:01.547Z</time>
      </trkpt>
      <trkpt lat="50.20997" lon="5.214">
        <ele>176.45</ele>
        <time>2026-08-09T13:58:07.543Z</time>
      </trkpt>
      <trkpt lat="50.20989" lon="5.21412">
        <ele>175.54</ele>
        <time>2026-08-09T13:58:13.538Z</time>
      </trkpt>
      <trkpt lat="50.20981" lon="5.21422">
        <ele>175.54</ele>
        <time>2026-08-09T13:58:19.538Z</time>
      </trkpt>
      <trkpt lat="50.20974" lon="5.21433">
        <ele>175.55</ele>
        <time>2026-08-09T13:58:25.545Z</time>
      </trkpt>
      <trkpt lat="50.20966" lon="5.21444">
        <ele>175.27</ele>
        <time>2026-08-09T13:58:31.549Z</time>
      </trkpt>
      <trkpt lat="50.20959" lon="5.21455">
        <ele>175.31</ele>
        <time>2026-08-09T13:58:37.535Z</time>
      </trkpt>
      <trkpt lat="50.20951" lon="5.21467">
        <ele>176.54</ele>
        <time>2026-08-09T13:58:43.539Z</time>
      </trkpt>
      <trkpt lat="50.20943" lon="5.21479">
        <ele>178.43</ele>
        <time>2026-08-09T13:58:49.539Z</time>
      </trkpt>
      <trkpt lat="50.20934" lon="5.21491">
        <ele>179.77</ele>
        <time>2026-08-09T13:58:55.549Z</time>
      </trkpt>
      <trkpt lat="50.20926" lon="5.21503">
        <ele>180.48</ele>
        <time>2026-08-09T13:59:01.543Z</time>
      </trkpt>
      <trkpt lat="50.20919" lon="5.21515">
        <ele>181.3</ele>
        <time>2026-08-09T13:59:07.531Z</time>
      </trkpt>
      <trkpt lat="50.20911" lon="5.21528">
        <ele>182.06</ele>
        <time>2026-08-09T13:59:13.537Z</time>
      </trkpt>
      <trkpt lat="50.20902" lon="5.21541">
        <ele>184.13</ele>
        <time>2026-08-09T13:59:19.540Z</time>
      </trkpt>
      <trkpt lat="50.20894" lon="5.21553">
        <ele>185.64</ele>
        <time>2026-08-09T13:59:25.544Z</time>
      </trkpt>
      <trkpt lat="50.20885" lon="5.21567">
        <ele>187.09</ele>
        <time>2026-08-09T13:59:31.546Z</time>
      </trkpt>
      <trkpt lat="50.20877" lon="5.2158">
        <ele>187.98</ele>
        <time>2026-08-09T13:59:37.480Z</time>
      </trkpt>
      <trkpt lat="50.2087" lon="5.21592">
        <ele>188.77</ele>
        <time>2026-08-09T13:59:42.485Z</time>
      </trkpt>
      <trkpt lat="50.20862" lon="5.21605">
        <ele>189.41</ele>
        <time>2026-08-09T13:59:47.487Z</time>
      </trkpt>
      <trkpt lat="50.20854" lon="5.2162">
        <ele>189.92</ele>
        <time>2026-08-09T13:59:53.481Z</time>
      </trkpt>
      <trkpt lat="50.20846" lon="5.21632">
        <ele>191.16</ele>
        <time>2026-08-09T13:59:58.487Z</time>
      </trkpt>
      <trkpt lat="50.20838" lon="5.21649">
        <ele>191.96</ele>
        <time>2026-08-09T14:00:04.488Z</time>
      </trkpt>
      <trkpt lat="50.2083" lon="5.21666">
        <ele>192.57</ele>
        <time>2026-08-09T14:00:10.483Z</time>
      </trkpt>
      <trkpt lat="50.20823" lon="5.21682">
        <ele>192.8</ele>
        <time>2026-08-09T14:00:15.486Z</time>
      </trkpt>
      <trkpt lat="50.20815" lon="5.21699">
        <ele>192.33</ele>
        <time>2026-08-09T14:00:21.479Z</time>
      </trkpt>
      <trkpt lat="50.20808" lon="5.21717">
        <ele>192.43</ele>
        <time>2026-08-09T14:00:26.482Z</time>
      </trkpt>
      <trkpt lat="50.208" lon="5.21736">
        <ele>191.73</ele>
        <time>2026-08-09T14:00:31.548Z</time>
      </trkpt>
      <trkpt lat="50.2079" lon="5.21759">
        <ele>192.61</ele>
        <time>2026-08-09T14:00:37.488Z</time>
      </trkpt>
      <trkpt lat="50.20781" lon="5.21782">
        <ele>193.31</ele>
        <time>2026-08-09T14:00:43.484Z</time>
      </trkpt>
      <trkpt lat="50.20773" lon="5.21799">
        <ele>194.23</ele>
        <time>2026-08-09T14:00:48.485Z</time>
      </trkpt>
      <trkpt lat="50.20766" lon="5.21815">
        <ele>195.18</ele>
        <time>2026-08-09T14:00:53.496Z</time>
      </trkpt>
      <trkpt lat="50.20756" lon="5.21836">
        <ele>195.43</ele>
        <time>2026-08-09T14:00:59.485Z</time>
      </trkpt>
      <trkpt lat="50.20745" lon="5.21855">
        <ele>195.75</ele>
        <time>2026-08-09T14:01:05.482Z</time>
      </trkpt>
      <trkpt lat="50.20734" lon="5.21875">
        <ele>197.19</ele>
        <time>2026-08-09T14:01:11.484Z</time>
      </trkpt>
      <trkpt lat="50.20721" lon="5.219">
        <ele>197.51</ele>
        <time>2026-08-09T14:01:17.481Z</time>
      </trkpt>
      <trkpt lat="50.20707" lon="5.21921">
        <ele>198.12</ele>
        <time>2026-08-09T14:01:22.481Z</time>
      </trkpt>
      <trkpt lat="50.20692" lon="5.21938">
        <ele>197.65</ele>
        <time>2026-08-09T14:01:27.483Z</time>
      </trkpt>
      <trkpt lat="50.20673" lon="5.21958">
        <ele>198.14</ele>
        <time>2026-08-09T14:01:33.480Z</time>
      </trkpt>
      <trkpt lat="50.20657" lon="5.21977">
        <ele>198.67</ele>
        <time>2026-08-09T14:01:38.482Z</time>
      </trkpt>
      <trkpt lat="50.20641" lon="5.21996">
        <ele>198.53</ele>
        <time>2026-08-09T14:01:43.491Z</time>
      </trkpt>
      <trkpt lat="50.2062" lon="5.22018">
        <ele>198.02</ele>
        <time>2026-08-09T14:01:49.486Z</time>
      </trkpt>
      <trkpt lat="50.20599" lon="5.2204">
        <ele>197.59</ele>
        <time>2026-08-09T14:01:55.544Z</time>
      </trkpt>
      <trkpt lat="50.20574" lon="5.22065">
        <ele>197.53</ele>
        <time>2026-08-09T14:02:01.545Z</time>
      </trkpt>
      <trkpt lat="50.20545" lon="5.2209">
        <ele>194.99</ele>
        <time>2026-08-09T14:02:07.493Z</time>
      </trkpt>
      <trkpt lat="50.20511" lon="5.22117">
        <ele>190.35</ele>
        <time>2026-08-09T14:02:13.493Z</time>
      </trkpt>
      <trkpt lat="50.20472" lon="5.2215">
        <ele>186.92</ele>
        <time>2026-08-09T14:02:19.492Z</time>
      </trkpt>
      <trkpt lat="50.20428" lon="5.22186">
        <ele>187.41</ele>
        <time>2026-08-09T14:02:25.551Z</time>
      </trkpt>
      <trkpt lat="50.20382" lon="5.22224">
        <ele>186.04</ele>
        <time>2026-08-09T14:02:31.545Z</time>
      </trkpt>
      <trkpt lat="50.20333" lon="5.22263">
        <ele>186.06</ele>
        <time>2026-08-09T14:02:37.492Z</time>
      </trkpt>
      <trkpt lat="50.20283" lon="5.22304">
        <ele>184.96</ele>
        <time>2026-08-09T14:02:43.493Z</time>
      </trkpt>
      <trkpt lat="50.20235" lon="5.22342">
        <ele>183.37</ele>
        <time>2026-08-09T14:02:49.491Z</time>
      </trkpt>
      <trkpt lat="50.20187" lon="5.22363">
        <ele>180.25</ele>
        <time>2026-08-09T14:02:55.550Z</time>
      </trkpt>
      <trkpt lat="50.20146" lon="5.22398">
        <ele>177.2</ele>
        <time>2026-08-09T14:03:01.547Z</time>
      </trkpt>
      <trkpt lat="50.20113" lon="5.22464">
        <ele>175.22</ele>
        <time>2026-08-09T14:03:07.485Z</time>
      </trkpt>
      <trkpt lat="50.2008" lon="5.2253">
        <ele>173.4</ele>
        <time>2026-08-09T14:03:13.485Z</time>
      </trkpt>
      <trkpt lat="50.20051" lon="5.22603">
        <ele>170.77</ele>
        <time>2026-08-09T14:03:19.491Z</time>
      </trkpt>
      <trkpt lat="50.20034" lon="5.22687">
        <ele>169.27</ele>
        <time>2026-08-09T14:03:25.542Z</time>
      </trkpt>
      <trkpt lat="50.20016" lon="5.22767">
        <ele>170.18</ele>
        <time>2026-08-09T14:03:31.548Z</time>
      </trkpt>
      <trkpt lat="50.20008" lon="5.22844">
        <ele>169.78</ele>
        <time>2026-08-09T14:03:37.492Z</time>
      </trkpt>
      <trkpt lat="50.19985" lon="5.22908">
        <ele>167.9</ele>
        <time>2026-08-09T14:03:43.493Z</time>
      </trkpt>
      <trkpt lat="50.19963" lon="5.22981">
        <ele>164.97</ele>
        <time>2026-08-09T14:03:49.503Z</time>
      </trkpt>
      <trkpt lat="50.19935" lon="5.23052">
        <ele>160.41</ele>
        <time>2026-08-09T14:03:55.548Z</time>
      </trkpt>
      <trkpt lat="50.19912" lon="5.23126">
        <ele>157.85</ele>
        <time>2026-08-09T14:04:01.549Z</time>
      </trkpt>
      <trkpt lat="50.19886" lon="5.23205">
        <ele>154.5</ele>
        <time>2026-08-09T14:04:07.504Z</time>
      </trkpt>
      <trkpt lat="50.19856" lon="5.2328">
        <ele>151.66</ele>
        <time>2026-08-09T14:04:13.509Z</time>
      </trkpt>
      <trkpt lat="50.19829" lon="5.23359">
        <ele>149.4</ele>
        <time>2026-08-09T14:04:19.504Z</time>
      </trkpt>
      <trkpt lat="50.19808" lon="5.23441">
        <ele>147.61</ele>
        <time>2026-08-09T14:04:25.548Z</time>
      </trkpt>
      <trkpt lat="50.19783" lon="5.23515">
        <ele>145.83</ele>
        <time>2026-08-09T14:04:31.553Z</time>
      </trkpt>
      <trkpt lat="50.19755" lon="5.23576">
        <ele>144.17</ele>
        <time>2026-08-09T14:04:37.512Z</time>
      </trkpt>
      <trkpt lat="50.19733" lon="5.23629">
        <ele>143.75</ele>
        <time>2026-08-09T14:04:43.514Z</time>
      </trkpt>
      <trkpt lat="50.19717" lon="5.23672">
        <ele>145.75</ele>
        <time>2026-08-09T14:04:49.509Z</time>
      </trkpt>
      <trkpt lat="50.19704" lon="5.23706">
        <ele>145.83</ele>
        <time>2026-08-09T14:04:55.551Z</time>
      </trkpt>
      <trkpt lat="50.19697" lon="5.23727">
        <ele>143.61</ele>
        <time>2026-08-09T14:05:01.550Z</time>
      </trkpt>
      <trkpt lat="50.19692" lon="5.23743">
        <ele>143.8</ele>
        <time>2026-08-09T14:05:59.488Z</time>
      </trkpt>
      <trkpt lat="50.19684" lon="5.23759">
        <ele>144.04</ele>
        <time>2026-08-09T14:06:05.490Z</time>
      </trkpt>
      <trkpt lat="50.19677" lon="5.23773">
        <ele>145.86</ele>
        <time>2026-08-09T14:06:11.487Z</time>
      </trkpt>
      <trkpt lat="50.1967" lon="5.23786">
        <ele>147.19</ele>
        <time>2026-08-09T14:06:17.486Z</time>
      </trkpt>
      <trkpt lat="50.19664" lon="5.23798">
        <ele>147.29</ele>
        <time>2026-08-09T14:06:23.484Z</time>
      </trkpt>
      <trkpt lat="50.19657" lon="5.2381">
        <ele>147.79</ele>
        <time>2026-08-09T14:06:29.486Z</time>
      </trkpt>
      <trkpt lat="50.19651" lon="5.23821">
        <ele>148.67</ele>
        <time>2026-08-09T14:06:35.482Z</time>
      </trkpt>
      <trkpt lat="50.19643" lon="5.23833">
        <ele>149.38</ele>
        <time>2026-08-09T14:06:41.486Z</time>
      </trkpt>
      <trkpt lat="50.19637" lon="5.23845">
        <ele>149.45</ele>
        <time>2026-08-09T14:06:48.488Z</time>
      </trkpt>
      <trkpt lat="50.19633" lon="5.23857">
        <ele>150.9</ele>
        <time>2026-08-09T14:06:54.489Z</time>
      </trkpt>
      <trkpt lat="50.19629" lon="5.23871">
        <ele>151.67</ele>
        <time>2026-08-09T14:07:00.481Z</time>
      </trkpt>
      <trkpt lat="50.19626" lon="5.23886">
        <ele>152.35</ele>
        <time>2026-08-09T14:07:06.486Z</time>
      </trkpt>
      <trkpt lat="50.19623" lon="5.23901">
        <ele>153.97</ele>
        <time>2026-08-09T14:07:12.485Z</time>
      </trkpt>
      <trkpt lat="50.19621" lon="5.23916">
        <ele>155.11</ele>
        <time>2026-08-09T14:07:18.493Z</time>
      </trkpt>
      <trkpt lat="50.19619" lon="5.2393">
        <ele>156.34</ele>
        <time>2026-08-09T14:07:24.484Z</time>
      </trkpt>
      <trkpt lat="50.19616" lon="5.23946">
        <ele>157.51</ele>
        <time>2026-08-09T14:07:30.480Z</time>
      </trkpt>
      <trkpt lat="50.1961" lon="5.23957">
        <ele>159.1</ele>
        <time>2026-08-09T14:07:35.487Z</time>
      </trkpt>
      <trkpt lat="50.19602" lon="5.23967">
        <ele>160.24</ele>
        <time>2026-08-09T14:07:41.491Z</time>
      </trkpt>
      <trkpt lat="50.19603" lon="5.23983">
        <ele>161.04</ele>
        <time>2026-08-09T14:07:47.482Z</time>
      </trkpt>
      <trkpt lat="50.19604" lon="5.23999">
        <ele>161.87</ele>
        <time>2026-08-09T14:07:53.481Z</time>
      </trkpt>
      <trkpt lat="50.19606" lon="5.24014">
        <ele>162.74</ele>
        <time>2026-08-09T14:07:59.487Z</time>
      </trkpt>
      <trkpt lat="50.19609" lon="5.2403">
        <ele>163.84</ele>
        <time>2026-08-09T14:08:05.487Z</time>
      </trkpt>
      <trkpt lat="50.19612" lon="5.24045">
        <ele>164.65</ele>
        <time>2026-08-09T14:08:11.485Z</time>
      </trkpt>
      <trkpt lat="50.19615" lon="5.24061">
        <ele>166</ele>
        <time>2026-08-09T14:08:17.490Z</time>
      </trkpt>
      <trkpt lat="50.19618" lon="5.24079">
        <ele>166.89</ele>
        <time>2026-08-09T14:08:23.487Z</time>
      </trkpt>
      <trkpt lat="50.19622" lon="5.24098">
        <ele>167.69</ele>
        <time>2026-08-09T14:08:29.484Z</time>
      </trkpt>
      <trkpt lat="50.1963" lon="5.24117">
        <ele>168.07</ele>
        <time>2026-08-09T14:08:35.485Z</time>
      </trkpt>
      <trkpt lat="50.19641" lon="5.24138">
        <ele>169.04</ele>
        <time>2026-08-09T14:08:41.482Z</time>
      </trkpt>
      <trkpt lat="50.19653" lon="5.24162">
        <ele>169.79</ele>
        <time>2026-08-09T14:08:47.483Z</time>
      </trkpt>
      <trkpt lat="50.19665" lon="5.24183">
        <ele>170.52</ele>
        <time>2026-08-09T14:08:52.483Z</time>
      </trkpt>
      <trkpt lat="50.19683" lon="5.24201">
        <ele>170.18</ele>
        <time>2026-08-09T14:08:57.485Z</time>
      </trkpt>
      <trkpt lat="50.19707" lon="5.24211">
        <ele>168.41</ele>
        <time>2026-08-09T14:09:02.485Z</time>
      </trkpt>
      <trkpt lat="50.19734" lon="5.24219">
        <ele>167.7</ele>
        <time>2026-08-09T14:09:07.525Z</time>
      </trkpt>
      <trkpt lat="50.19776" lon="5.24231">
        <ele>168.07</ele>
        <time>2026-08-09T14:09:13.525Z</time>
      </trkpt>
      <trkpt lat="50.19824" lon="5.24246">
        <ele>168.3</ele>
        <time>2026-08-09T14:09:19.527Z</time>
      </trkpt>
      <trkpt lat="50.19868" lon="5.24277">
        <ele>166.88</ele>
        <time>2026-08-09T14:09:25.548Z</time>
      </trkpt>
      <trkpt lat="50.19901" lon="5.24318">
        <ele>166.34</ele>
        <time>2026-08-09T14:09:31.546Z</time>
      </trkpt>
      <trkpt lat="50.19928" lon="5.2436">
        <ele>166.67</ele>
        <time>2026-08-09T14:09:37.529Z</time>
      </trkpt>
      <trkpt lat="50.19949" lon="5.24405">
        <ele>166.08</ele>
        <time>2026-08-09T14:09:43.524Z</time>
      </trkpt>
      <trkpt lat="50.19964" lon="5.24449">
        <ele>165.93</ele>
        <time>2026-08-09T14:09:49.522Z</time>
      </trkpt>
      <trkpt lat="50.19976" lon="5.2449">
        <ele>165.88</ele>
        <time>2026-08-09T14:09:55.548Z</time>
      </trkpt>
      <trkpt lat="50.19987" lon="5.24527">
        <ele>165.71</ele>
        <time>2026-08-09T14:10:01.552Z</time>
      </trkpt>
      <trkpt lat="50.19997" lon="5.24561">
        <ele>166.32</ele>
        <time>2026-08-09T14:10:07.525Z</time>
      </trkpt>
      <trkpt lat="50.20005" lon="5.24591">
        <ele>166.15</ele>
        <time>2026-08-09T14:10:13.522Z</time>
      </trkpt>
      <trkpt lat="50.20012" lon="5.2462">
        <ele>165.8</ele>
        <time>2026-08-09T14:10:19.528Z</time>
      </trkpt>
      <trkpt lat="50.20021" lon="5.24651">
        <ele>165.4</ele>
        <time>2026-08-09T14:10:25.541Z</time>
      </trkpt>
      <trkpt lat="50.20033" lon="5.24683">
        <ele>169.14</ele>
        <time>2026-08-09T14:10:31.540Z</time>
      </trkpt>
      <trkpt lat="50.20044" lon="5.24714">
        <ele>170.65</ele>
        <time>2026-08-09T14:10:37.526Z</time>
      </trkpt>
      <trkpt lat="50.20053" lon="5.24743">
        <ele>170.51</ele>
        <time>2026-08-09T14:10:43.524Z</time>
      </trkpt>
      <trkpt lat="50.20062" lon="5.24771">
        <ele>171.32</ele>
        <time>2026-08-09T14:10:49.524Z</time>
      </trkpt>
      <trkpt lat="50.20069" lon="5.24793">
        <ele>171.22</ele>
        <time>2026-08-09T14:10:55.541Z</time>
      </trkpt>
      <trkpt lat="50.20075" lon="5.24813">
        <ele>171.33</ele>
        <time>2026-08-09T14:11:01.536Z</time>
      </trkpt>
      <trkpt lat="50.20082" lon="5.24832">
        <ele>171.9</ele>
        <time>2026-08-09T14:11:07.523Z</time>
      </trkpt>
      <trkpt lat="50.2009" lon="5.24851">
        <ele>173.1</ele>
        <time>2026-08-09T14:11:13.521Z</time>
      </trkpt>
      <trkpt lat="50.201" lon="5.2487">
        <ele>174.17</ele>
        <time>2026-08-09T14:11:19.523Z</time>
      </trkpt>
      <trkpt lat="50.2011" lon="5.24889">
        <ele>174.19</ele>
        <time>2026-08-09T14:11:25.540Z</time>
      </trkpt>
      <trkpt lat="50.20121" lon="5.2491">
        <ele>174.91</ele>
        <time>2026-08-09T14:11:31.548Z</time>
      </trkpt>
      <trkpt lat="50.20135" lon="5.24936">
        <ele>175.59</ele>
        <time>2026-08-09T14:11:37.529Z</time>
      </trkpt>
      <trkpt lat="50.20149" lon="5.24964">
        <ele>177.2</ele>
        <time>2026-08-09T14:11:43.523Z</time>
      </trkpt>
      <trkpt lat="50.20164" lon="5.24988">
        <ele>176.63</ele>
        <time>2026-08-09T14:11:49.523Z</time>
      </trkpt>
      <trkpt lat="50.20188" lon="5.2501">
        <ele>175.14</ele>
        <time>2026-08-09T14:11:55.543Z</time>
      </trkpt>
      <trkpt lat="50.20217" lon="5.25038">
        <ele>173.33</ele>
        <time>2026-08-09T14:12:01.540Z</time>
      </trkpt>
      <trkpt lat="50.2025" lon="5.25068">
        <ele>172.25</ele>
        <time>2026-08-09T14:12:07.524Z</time>
      </trkpt>
      <trkpt lat="50.20281" lon="5.25101">
        <ele>172.12</ele>
        <time>2026-08-09T14:12:13.525Z</time>
      </trkpt>
      <trkpt lat="50.20307" lon="5.25077">
        <ele>170.9</ele>
        <time>2026-08-09T14:12:19.522Z</time>
      </trkpt>
      <trkpt lat="50.20339" lon="5.25047">
        <ele>167.55</ele>
        <time>2026-08-09T14:12:25.545Z</time>
      </trkpt>
      <trkpt lat="50.20363" lon="5.25082">
        <ele>167.99</ele>
        <time>2026-08-09T14:12:31.542Z</time>
      </trkpt>
      <trkpt lat="50.20388" lon="5.25119">
        <ele>167.93</ele>
        <time>2026-08-09T14:12:37.525Z</time>
      </trkpt>
      <trkpt lat="50.20408" lon="5.25155">
        <ele>167.74</ele>
        <time>2026-08-09T14:12:43.526Z</time>
      </trkpt>
      <trkpt lat="50.20424" lon="5.25192">
        <ele>167.78</ele>
        <time>2026-08-09T14:12:49.523Z</time>
      </trkpt>
      <trkpt lat="50.20443" lon="5.25228">
        <ele>167.68</ele>
        <time>2026-08-09T14:12:55.541Z</time>
      </trkpt>
      <trkpt lat="50.2046" lon="5.2526">
        <ele>168.55</ele>
        <time>2026-08-09T14:13:01.541Z</time>
      </trkpt>
      <trkpt lat="50.20476" lon="5.25292">
        <ele>169.88</ele>
        <time>2026-08-09T14:13:07.526Z</time>
      </trkpt>
      <trkpt lat="50.20491" lon="5.25326">
        <ele>170.39</ele>
        <time>2026-08-09T14:13:13.521Z</time>
      </trkpt>
      <trkpt lat="50.20507" lon="5.25359">
        <ele>171.38</ele>
        <time>2026-08-09T14:13:19.523Z</time>
      </trkpt>
      <trkpt lat="50.20521" lon="5.25389">
        <ele>173.36</ele>
        <time>2026-08-09T14:13:25.550Z</time>
      </trkpt>
      <trkpt lat="50.20532" lon="5.25416">
        <ele>173.88</ele>
        <time>2026-08-09T14:13:31.537Z</time>
      </trkpt>
      <trkpt lat="50.20542" lon="5.25444">
        <ele>174.75</ele>
        <time>2026-08-09T14:13:37.525Z</time>
      </trkpt>
      <trkpt lat="50.20554" lon="5.25471">
        <ele>176.02</ele>
        <time>2026-08-09T14:13:43.527Z</time>
      </trkpt>
      <trkpt lat="50.20565" lon="5.25499">
        <ele>176.36</ele>
        <time>2026-08-09T14:13:49.523Z</time>
      </trkpt>
      <trkpt lat="50.20577" lon="5.25529">
        <ele>176.93</ele>
        <time>2026-08-09T14:13:55.549Z</time>
      </trkpt>
      <trkpt lat="50.20591" lon="5.25558">
        <ele>177.62</ele>
        <time>2026-08-09T14:14:01.539Z</time>
      </trkpt>
      <trkpt lat="50.20606" lon="5.25591">
        <ele>177.36</ele>
        <time>2026-08-09T14:14:07.526Z</time>
      </trkpt>
      <trkpt lat="50.2062" lon="5.25624">
        <ele>177.09</ele>
        <time>2026-08-09T14:14:13.521Z</time>
      </trkpt>
      <trkpt lat="50.20636" lon="5.25659">
        <ele>177.61</ele>
        <time>2026-08-09T14:14:19.525Z</time>
      </trkpt>
      <trkpt lat="50.20649" lon="5.25694">
        <ele>178.28</ele>
        <time>2026-08-09T14:14:25.537Z</time>
      </trkpt>
      <trkpt lat="50.20639" lon="5.25727">
        <ele>176.94</ele>
        <time>2026-08-09T14:14:31.546Z</time>
      </trkpt>
      <trkpt lat="50.20618" lon="5.25739">
        <ele>177.34</ele>
        <time>2026-08-09T14:14:37.530Z</time>
      </trkpt>
      <trkpt lat="50.20599" lon="5.25752">
        <ele>177.56</ele>
        <time>2026-08-09T14:14:43.531Z</time>
      </trkpt>
      <trkpt lat="50.20581" lon="5.25764">
        <ele>179.86</ele>
        <time>2026-08-09T14:14:49.523Z</time>
      </trkpt>
      <trkpt lat="50.20561" lon="5.25779">
        <ele>181.15</ele>
        <time>2026-08-09T14:14:55.544Z</time>
      </trkpt>
      <trkpt lat="50.20545" lon="5.25788">
        <ele>181.63</ele>
        <time>2026-08-09T14:15:01.540Z</time>
      </trkpt>
      <trkpt lat="50.20526" lon="5.25801">
        <ele>181.28</ele>
        <time>2026-08-09T14:15:07.535Z</time>
      </trkpt>
      <trkpt lat="50.20501" lon="5.25816">
        <ele>182.12</ele>
        <time>2026-08-09T14:15:13.526Z</time>
      </trkpt>
      <trkpt lat="50.20474" lon="5.25828">
        <ele>179.4</ele>
        <time>2026-08-09T14:15:19.528Z</time>
      </trkpt>
      <trkpt lat="50.20441" lon="5.25844">
        <ele>175.13</ele>
        <time>2026-08-09T14:15:25.540Z</time>
      </trkpt>
      <trkpt lat="50.20408" lon="5.25853">
        <ele>174.72</ele>
        <time>2026-08-09T14:15:31.543Z</time>
      </trkpt>
      <trkpt lat="50.20383" lon="5.25848">
        <ele>175.59</ele>
        <time>2026-08-09T14:15:37.533Z</time>
      </trkpt>
      <trkpt lat="50.20368" lon="5.25829">
        <ele>179.07</ele>
        <time>2026-08-09T14:15:43.531Z</time>
      </trkpt>
      <trkpt lat="50.20358" lon="5.25814">
        <ele>181.27</ele>
        <time>2026-08-09T14:15:49.528Z</time>
      </trkpt>
      <trkpt lat="50.2035" lon="5.258">
        <ele>181.96</ele>
        <time>2026-08-09T14:15:55.543Z</time>
      </trkpt>
      <trkpt lat="50.20344" lon="5.25787">
        <ele>182.79</ele>
        <time>2026-08-09T14:16:01.540Z</time>
      </trkpt>
      <trkpt lat="50.20333" lon="5.25772">
        <ele>182.91</ele>
        <time>2026-08-09T14:16:07.528Z</time>
      </trkpt>
      <trkpt lat="50.20324" lon="5.25755">
        <ele>182.8</ele>
        <time>2026-08-09T14:16:13.532Z</time>
      </trkpt>
      <trkpt lat="50.20316" lon="5.2574">
        <ele>182.34</ele>
        <time>2026-08-09T14:16:19.529Z</time>
      </trkpt>
      <trkpt lat="50.20308" lon="5.25726">
        <ele>182.09</ele>
        <time>2026-08-09T14:16:25.551Z</time>
      </trkpt>
      <trkpt lat="50.20301" lon="5.2571">
        <ele>181.42</ele>
        <time>2026-08-09T14:16:31.540Z</time>
      </trkpt>
      <trkpt lat="50.20293" lon="5.25695">
        <ele>180.6</ele>
        <time>2026-08-09T14:16:37.528Z</time>
      </trkpt>
      <trkpt lat="50.20285" lon="5.2568">
        <ele>179.54</ele>
        <time>2026-08-09T14:16:43.532Z</time>
      </trkpt>
      <trkpt lat="50.20277" lon="5.25667">
        <ele>179.12</ele>
        <time>2026-08-09T14:16:49.529Z</time>
      </trkpt>
      <trkpt lat="50.20268" lon="5.25653">
        <ele>178.88</ele>
        <time>2026-08-09T14:16:55.549Z</time>
      </trkpt>
      <trkpt lat="50.20258" lon="5.2564">
        <ele>179.84</ele>
        <time>2026-08-09T14:17:01.543Z</time>
      </trkpt>
      <trkpt lat="50.20246" lon="5.25634">
        <ele>179.61</ele>
        <time>2026-08-09T14:17:07.529Z</time>
      </trkpt>
      <trkpt lat="50.20234" lon="5.25629">
        <ele>179.62</ele>
        <time>2026-08-09T14:17:13.532Z</time>
      </trkpt>
      <trkpt lat="50.2022" lon="5.25626">
        <ele>178.28</ele>
        <time>2026-08-09T14:17:19.532Z</time>
      </trkpt>
      <trkpt lat="50.20207" lon="5.25619">
        <ele>177.22</ele>
        <time>2026-08-09T14:17:25.550Z</time>
      </trkpt>
      <trkpt lat="50.20195" lon="5.25616">
        <ele>176.62</ele>
        <time>2026-08-09T14:17:31.544Z</time>
      </trkpt>
      <trkpt lat="50.20181" lon="5.25616">
        <ele>177.12</ele>
        <time>2026-08-09T14:17:37.537Z</time>
      </trkpt>
      <trkpt lat="50.2017" lon="5.2562">
        <ele>179.1</ele>
        <time>2026-08-09T14:17:43.530Z</time>
      </trkpt>
      <trkpt lat="50.2016" lon="5.25623">
        <ele>180.92</ele>
        <time>2026-08-09T14:17:50.482Z</time>
      </trkpt>
      <trkpt lat="50.20151" lon="5.25629">
        <ele>182.09</ele>
        <time>2026-08-09T14:17:55.548Z</time>
      </trkpt>
      <trkpt lat="50.2014" lon="5.25636">
        <ele>184.3</ele>
        <time>2026-08-09T14:18:01.545Z</time>
      </trkpt>
      <trkpt lat="50.20128" lon="5.25647">
        <ele>188.89</ele>
        <time>2026-08-09T14:18:07.529Z</time>
      </trkpt>
      <trkpt lat="50.20117" lon="5.25657">
        <ele>190.82</ele>
        <time>2026-08-09T14:18:13.530Z</time>
      </trkpt>
      <trkpt lat="50.20104" lon="5.25664">
        <ele>191.78</ele>
        <time>2026-08-09T14:18:19.532Z</time>
      </trkpt>
      <trkpt lat="50.2009" lon="5.25676">
        <ele>192.11</ele>
        <time>2026-08-09T14:18:25.539Z</time>
      </trkpt>
      <trkpt lat="50.20076" lon="5.25692">
        <ele>190.02</ele>
        <time>2026-08-09T14:18:31.545Z</time>
      </trkpt>
      <trkpt lat="50.20066" lon="5.25708">
        <ele>191.87</ele>
        <time>2026-08-09T14:18:37.533Z</time>
      </trkpt>
      <trkpt lat="50.20057" lon="5.25726">
        <ele>193.72</ele>
        <time>2026-08-09T14:18:43.529Z</time>
      </trkpt>
      <trkpt lat="50.20051" lon="5.25751">
        <ele>196.05</ele>
        <time>2026-08-09T14:18:49.529Z</time>
      </trkpt>
      <trkpt lat="50.20046" lon="5.25771">
        <ele>197.42</ele>
        <time>2026-08-09T14:18:55.550Z</time>
      </trkpt>
      <trkpt lat="50.20041" lon="5.25785">
        <ele>198.12</ele>
        <time>2026-08-09T14:19:01.542Z</time>
      </trkpt>
      <trkpt lat="50.20034" lon="5.25803">
        <ele>198.82</ele>
        <time>2026-08-09T14:19:07.530Z</time>
      </trkpt>
      <trkpt lat="50.20025" lon="5.25821">
        <ele>200.11</ele>
        <time>2026-08-09T14:19:13.531Z</time>
      </trkpt>
      <trkpt lat="50.20016" lon="5.25835">
        <ele>200.74</ele>
        <time>2026-08-09T14:19:19.531Z</time>
      </trkpt>
      <trkpt lat="50.20008" lon="5.25846">
        <ele>201.27</ele>
        <time>2026-08-09T14:19:25.554Z</time>
      </trkpt>
      <trkpt lat="50.19996" lon="5.25852">
        <ele>201.39</ele>
        <time>2026-08-09T14:19:31.541Z</time>
      </trkpt>
      <trkpt lat="50.19981" lon="5.25855">
        <ele>200.92</ele>
        <time>2026-08-09T14:19:37.535Z</time>
      </trkpt>
      <trkpt lat="50.19966" lon="5.25854">
        <ele>201.05</ele>
        <time>2026-08-09T14:19:43.529Z</time>
      </trkpt>
      <trkpt lat="50.19952" lon="5.25849">
        <ele>204.03</ele>
        <time>2026-08-09T14:19:49.533Z</time>
      </trkpt>
      <trkpt lat="50.1994" lon="5.25838">
        <ele>206.86</ele>
        <time>2026-08-09T14:19:55.551Z</time>
      </trkpt>
      <trkpt lat="50.19929" lon="5.25821">
        <ele>209.21</ele>
        <time>2026-08-09T14:20:01.538Z</time>
      </trkpt>
      <trkpt lat="50.19921" lon="5.25805">
        <ele>211.6</ele>
        <time>2026-08-09T14:20:07.535Z</time>
      </trkpt>
      <trkpt lat="50.19915" lon="5.25786">
        <ele>212.89</ele>
        <time>2026-08-09T14:20:13.532Z</time>
      </trkpt>
      <trkpt lat="50.19908" lon="5.25768">
        <ele>214.63</ele>
        <time>2026-08-09T14:20:19.530Z</time>
      </trkpt>
      <trkpt lat="50.19901" lon="5.25751">
        <ele>214.14</ele>
        <time>2026-08-09T14:20:25.550Z</time>
      </trkpt>
      <trkpt lat="50.19895" lon="5.25733">
        <ele>213.18</ele>
        <time>2026-08-09T14:20:31.541Z</time>
      </trkpt>
      <trkpt lat="50.19888" lon="5.25714">
        <ele>212.07</ele>
        <time>2026-08-09T14:20:37.535Z</time>
      </trkpt>
      <trkpt lat="50.19879" lon="5.25698">
        <ele>214.39</ele>
        <time>2026-08-09T14:20:43.535Z</time>
      </trkpt>
      <trkpt lat="50.19871" lon="5.2568">
        <ele>215.08</ele>
        <time>2026-08-09T14:20:49.537Z</time>
      </trkpt>
      <trkpt lat="50.19862" lon="5.2566">
        <ele>215.88</ele>
        <time>2026-08-09T14:20:55.549Z</time>
      </trkpt>
      <trkpt lat="50.19854" lon="5.2564">
        <ele>216.76</ele>
        <time>2026-08-09T14:21:01.544Z</time>
      </trkpt>
      <trkpt lat="50.19846" lon="5.25619">
        <ele>218.28</ele>
        <time>2026-08-09T14:21:07.538Z</time>
      </trkpt>
      <trkpt lat="50.19838" lon="5.25599">
        <ele>219.31</ele>
        <time>2026-08-09T14:21:13.546Z</time>
      </trkpt>
      <trkpt lat="50.19829" lon="5.25578">
        <ele>219.63</ele>
        <time>2026-08-09T14:21:19.538Z</time>
      </trkpt>
      <trkpt lat="50.1982" lon="5.25557">
        <ele>219.5</ele>
        <time>2026-08-09T14:21:25.552Z</time>
      </trkpt>
      <trkpt lat="50.19811" lon="5.25538">
        <ele>219.09</ele>
        <time>2026-08-09T14:21:31.545Z</time>
      </trkpt>
      <trkpt lat="50.19803" lon="5.25517">
        <ele>218.94</ele>
        <time>2026-08-09T14:21:37.542Z</time>
      </trkpt>
      <trkpt lat="50.19795" lon="5.25496">
        <ele>218.73</ele>
        <time>2026-08-09T14:21:43.541Z</time>
      </trkpt>
      <trkpt lat="50.19786" lon="5.25475">
        <ele>218.18</ele>
        <time>2026-08-09T14:21:49.535Z</time>
      </trkpt>
      <trkpt lat="50.19776" lon="5.25457">
        <ele>219.65</ele>
        <time>2026-08-09T14:21:55.553Z</time>
      </trkpt>
      <trkpt lat="50.19766" lon="5.25437">
        <ele>221.43</ele>
        <time>2026-08-09T14:22:01.553Z</time>
      </trkpt>
      <trkpt lat="50.19754" lon="5.25418">
        <ele>222.32</ele>
        <time>2026-08-09T14:22:07.543Z</time>
      </trkpt>
      <trkpt lat="50.1974" lon="5.25402">
        <ele>223.62</ele>
        <time>2026-08-09T14:22:13.539Z</time>
      </trkpt>
      <trkpt lat="50.19723" lon="5.25391">
        <ele>224.64</ele>
        <time>2026-08-09T14:22:19.542Z</time>
      </trkpt>
      <trkpt lat="50.19705" lon="5.25385">
        <ele>225.93</ele>
        <time>2026-08-09T14:22:25.555Z</time>
      </trkpt>
      <trkpt lat="50.19688" lon="5.25383">
        <ele>226.33</ele>
        <time>2026-08-09T14:22:31.546Z</time>
      </trkpt>
      <trkpt lat="50.1967" lon="5.25389">
        <ele>226.66</ele>
        <time>2026-08-09T14:22:37.543Z</time>
      </trkpt>
      <trkpt lat="50.19654" lon="5.25401">
        <ele>228.29</ele>
        <time>2026-08-09T14:22:43.542Z</time>
      </trkpt>
      <trkpt lat="50.1964" lon="5.25417">
        <ele>228.54</ele>
        <time>2026-08-09T14:22:49.536Z</time>
      </trkpt>
      <trkpt lat="50.19629" lon="5.25437">
        <ele>228.68</ele>
        <time>2026-08-09T14:22:55.546Z</time>
      </trkpt>
      <trkpt lat="50.19621" lon="5.2546">
        <ele>229.04</ele>
        <time>2026-08-09T14:23:01.548Z</time>
      </trkpt>
      <trkpt lat="50.19617" lon="5.25481">
        <ele>231.12</ele>
        <time>2026-08-09T14:23:07.542Z</time>
      </trkpt>
      <trkpt lat="50.19614" lon="5.25501">
        <ele>231.79</ele>
        <time>2026-08-09T14:23:13.542Z</time>
      </trkpt>
      <trkpt lat="50.19611" lon="5.25521">
        <ele>232.64</ele>
        <time>2026-08-09T14:23:19.543Z</time>
      </trkpt>
      <trkpt lat="50.19608" lon="5.25541">
        <ele>233.73</ele>
        <time>2026-08-09T14:23:25.547Z</time>
      </trkpt>
      <trkpt lat="50.19605" lon="5.25562">
        <ele>234.46</ele>
        <time>2026-08-09T14:23:31.548Z</time>
      </trkpt>
      <trkpt lat="50.19602" lon="5.25583">
        <ele>235.81</ele>
        <time>2026-08-09T14:23:37.538Z</time>
      </trkpt>
      <trkpt lat="50.196" lon="5.25604">
        <ele>236.39</ele>
        <time>2026-08-09T14:23:43.538Z</time>
      </trkpt>
      <trkpt lat="50.19596" lon="5.25626">
        <ele>236.53</ele>
        <time>2026-08-09T14:23:49.541Z</time>
      </trkpt>
      <trkpt lat="50.19594" lon="5.25648">
        <ele>236.17</ele>
        <time>2026-08-09T14:23:55.546Z</time>
      </trkpt>
      <trkpt lat="50.19591" lon="5.25668">
        <ele>237.22</ele>
        <time>2026-08-09T14:24:01.539Z</time>
      </trkpt>
      <trkpt lat="50.19588" lon="5.25688">
        <ele>238.37</ele>
        <time>2026-08-09T14:24:07.543Z</time>
      </trkpt>
      <trkpt lat="50.19585" lon="5.2571">
        <ele>238.28</ele>
        <time>2026-08-09T14:24:13.544Z</time>
      </trkpt>
      <trkpt lat="50.19582" lon="5.2573">
        <ele>238.67</ele>
        <time>2026-08-09T14:24:19.532Z</time>
      </trkpt>
      <trkpt lat="50.1958" lon="5.25751">
        <ele>239.6</ele>
        <time>2026-08-09T14:24:25.551Z</time>
      </trkpt>
      <trkpt lat="50.19578" lon="5.25772">
        <ele>240.42</ele>
        <time>2026-08-09T14:24:31.547Z</time>
      </trkpt>
      <trkpt lat="50.19575" lon="5.25793">
        <ele>241.76</ele>
        <time>2026-08-09T14:24:37.536Z</time>
      </trkpt>
      <trkpt lat="50.19572" lon="5.25815">
        <ele>242.98</ele>
        <time>2026-08-09T14:24:43.538Z</time>
      </trkpt>
      <trkpt lat="50.1957" lon="5.25837">
        <ele>242.8</ele>
        <time>2026-08-09T14:24:49.534Z</time>
      </trkpt>
      <trkpt lat="50.19566" lon="5.25859">
        <ele>243.49</ele>
        <time>2026-08-09T14:24:55.550Z</time>
      </trkpt>
      <trkpt lat="50.19564" lon="5.25881">
        <ele>244.77</ele>
        <time>2026-08-09T14:25:01.548Z</time>
      </trkpt>
      <trkpt lat="50.19561" lon="5.25903">
        <ele>245</ele>
        <time>2026-08-09T14:25:07.537Z</time>
      </trkpt>
      <trkpt lat="50.19558" lon="5.25924">
        <ele>246.09</ele>
        <time>2026-08-09T14:25:13.550Z</time>
      </trkpt>
      <trkpt lat="50.19555" lon="5.25947">
        <ele>246.82</ele>
        <time>2026-08-09T14:25:19.536Z</time>
      </trkpt>
      <trkpt lat="50.19552" lon="5.25971">
        <ele>247.51</ele>
        <time>2026-08-09T14:25:25.546Z</time>
      </trkpt>
      <trkpt lat="50.1955" lon="5.2599">
        <ele>248.54</ele>
        <time>2026-08-09T14:25:31.546Z</time>
      </trkpt>
      <trkpt lat="50.19546" lon="5.26012">
        <ele>250.14</ele>
        <time>2026-08-09T14:25:37.532Z</time>
      </trkpt>
      <trkpt lat="50.19547" lon="5.26034">
        <ele>251.21</ele>
        <time>2026-08-09T14:25:43.540Z</time>
      </trkpt>
      <trkpt lat="50.19552" lon="5.26057">
        <ele>251.5</ele>
        <time>2026-08-09T14:25:49.537Z</time>
      </trkpt>
      <trkpt lat="50.19556" lon="5.26085">
        <ele>251.88</ele>
        <time>2026-08-09T14:25:55.553Z</time>
      </trkpt>
      <trkpt lat="50.19562" lon="5.26116">
        <ele>251.81</ele>
        <time>2026-08-09T14:26:01.551Z</time>
      </trkpt>
      <trkpt lat="50.19563" lon="5.26147">
        <ele>252.76</ele>
        <time>2026-08-09T14:26:07.535Z</time>
      </trkpt>
      <trkpt lat="50.1956" lon="5.26179">
        <ele>253.84</ele>
        <time>2026-08-09T14:26:13.533Z</time>
      </trkpt>
      <trkpt lat="50.19557" lon="5.26214">
        <ele>253.6</ele>
        <time>2026-08-09T14:26:19.532Z</time>
      </trkpt>
      <trkpt lat="50.19559" lon="5.26248">
        <ele>253.35</ele>
        <time>2026-08-09T14:26:25.546Z</time>
      </trkpt>
      <trkpt lat="50.19566" lon="5.26283">
        <ele>252.3</ele>
        <time>2026-08-09T14:26:31.547Z</time>
      </trkpt>
      <trkpt lat="50.19573" lon="5.26318">
        <ele>251.3</ele>
        <time>2026-08-09T14:26:37.538Z</time>
      </trkpt>
      <trkpt lat="50.19584" lon="5.26355">
        <ele>250.91</ele>
        <time>2026-08-09T14:26:43.534Z</time>
      </trkpt>
      <trkpt lat="50.19596" lon="5.26383">
        <ele>250.85</ele>
        <time>2026-08-09T14:26:49.534Z</time>
      </trkpt>
      <trkpt lat="50.1961" lon="5.26418">
        <ele>250.43</ele>
        <time>2026-08-09T14:26:55.540Z</time>
      </trkpt>
      <trkpt lat="50.19625" lon="5.26453">
        <ele>249.25</ele>
        <time>2026-08-09T14:27:01.545Z</time>
      </trkpt>
      <trkpt lat="50.19641" lon="5.26492">
        <ele>248.43</ele>
        <time>2026-08-09T14:27:07.530Z</time>
      </trkpt>
      <trkpt lat="50.19656" lon="5.26535">
        <ele>249.86</ele>
        <time>2026-08-09T14:27:13.533Z</time>
      </trkpt>
      <trkpt lat="50.1967" lon="5.26573">
        <ele>250.1</ele>
        <time>2026-08-09T14:27:19.531Z</time>
      </trkpt>
      <trkpt lat="50.19684" lon="5.26612">
        <ele>251.27</ele>
        <time>2026-08-09T14:27:25.550Z</time>
      </trkpt>
      <trkpt lat="50.19697" lon="5.26651">
        <ele>252.12</ele>
        <time>2026-08-09T14:27:31.546Z</time>
      </trkpt>
      <trkpt lat="50.19713" lon="5.26687">
        <ele>253.65</ele>
        <time>2026-08-09T14:27:37.531Z</time>
      </trkpt>
      <trkpt lat="50.19736" lon="5.26713">
        <ele>254.55</ele>
        <time>2026-08-09T14:27:43.528Z</time>
      </trkpt>
      <trkpt lat="50.19757" lon="5.26745">
        <ele>253.94</ele>
        <time>2026-08-09T14:27:49.532Z</time>
      </trkpt>
      <trkpt lat="50.19776" lon="5.2678">
        <ele>254.72</ele>
        <time>2026-08-09T14:27:55.551Z</time>
      </trkpt>
      <trkpt lat="50.19795" lon="5.26817">
        <ele>254.62</ele>
        <time>2026-08-09T14:28:01.541Z</time>
      </trkpt>
      <trkpt lat="50.19813" lon="5.26857">
        <ele>254.26</ele>
        <time>2026-08-09T14:28:07.532Z</time>
      </trkpt>
      <trkpt lat="50.19831" lon="5.26895">
        <ele>253.29</ele>
        <time>2026-08-09T14:28:13.536Z</time>
      </trkpt>
      <trkpt lat="50.19848" lon="5.26932">
        <ele>253.28</ele>
        <time>2026-08-09T14:28:19.539Z</time>
      </trkpt>
      <trkpt lat="50.19866" lon="5.2697">
        <ele>253.28</ele>
        <time>2026-08-09T14:28:25.545Z</time>
      </trkpt>
      <trkpt lat="50.19881" lon="5.27007">
        <ele>255.21</ele>
        <time>2026-08-09T14:28:31.550Z</time>
      </trkpt>
      <trkpt lat="50.19894" lon="5.27048">
        <ele>259.25</ele>
        <time>2026-08-09T14:28:37.535Z</time>
      </trkpt>
      <trkpt lat="50.19906" lon="5.27084">
        <ele>260.78</ele>
        <time>2026-08-09T14:28:43.538Z</time>
      </trkpt>
      <trkpt lat="50.19918" lon="5.27119">
        <ele>262.27</ele>
        <time>2026-08-09T14:28:49.534Z</time>
      </trkpt>
      <trkpt lat="50.19931" lon="5.27154">
        <ele>262.02</ele>
        <time>2026-08-09T14:28:55.551Z</time>
      </trkpt>
      <trkpt lat="50.19946" lon="5.27189">
        <ele>260.51</ele>
        <time>2026-08-09T14:29:01.547Z</time>
      </trkpt>
      <trkpt lat="50.19958" lon="5.27229">
        <ele>259.58</ele>
        <time>2026-08-09T14:29:07.535Z</time>
      </trkpt>
      <trkpt lat="50.19969" lon="5.27271">
        <ele>260.25</ele>
        <time>2026-08-09T14:29:13.541Z</time>
      </trkpt>
      <trkpt lat="50.1998" lon="5.27313">
        <ele>259.07</ele>
        <time>2026-08-09T14:29:19.540Z</time>
      </trkpt>
      <trkpt lat="50.19992" lon="5.27354">
        <ele>257.97</ele>
        <time>2026-08-09T14:29:25.552Z</time>
      </trkpt>
      <trkpt lat="50.20001" lon="5.27401">
        <ele>256.92</ele>
        <time>2026-08-09T14:29:31.549Z</time>
      </trkpt>
      <trkpt lat="50.20005" lon="5.27454">
        <ele>259.07</ele>
        <time>2026-08-09T14:29:37.544Z</time>
      </trkpt>
      <trkpt lat="50.20011" lon="5.27516">
        <ele>259.03</ele>
        <time>2026-08-09T14:29:43.542Z</time>
      </trkpt>
      <trkpt lat="50.20018" lon="5.27584">
        <ele>258.27</ele>
        <time>2026-08-09T14:29:49.538Z</time>
      </trkpt>
      <trkpt lat="50.20035" lon="5.27647">
        <ele>257.78</ele>
        <time>2026-08-09T14:29:55.554Z</time>
      </trkpt>
      <trkpt lat="50.2006" lon="5.277">
        <ele>257.46</ele>
        <time>2026-08-09T14:30:01.545Z</time>
      </trkpt>
      <trkpt lat="50.20087" lon="5.27757">
        <ele>257.69</ele>
        <time>2026-08-09T14:30:07.535Z</time>
      </trkpt>
      <trkpt lat="50.20114" lon="5.27816">
        <ele>256.4</ele>
        <time>2026-08-09T14:30:13.529Z</time>
      </trkpt>
      <trkpt lat="50.2014" lon="5.27873">
        <ele>255.06</ele>
        <time>2026-08-09T14:30:19.541Z</time>
      </trkpt>
      <trkpt lat="50.20165" lon="5.27927">
        <ele>254.85</ele>
        <time>2026-08-09T14:30:25.543Z</time>
      </trkpt>
      <trkpt lat="50.20187" lon="5.2798">
        <ele>255.81</ele>
        <time>2026-08-09T14:30:31.538Z</time>
      </trkpt>
      <trkpt lat="50.20205" lon="5.28038">
        <ele>256.22</ele>
        <time>2026-08-09T14:30:37.539Z</time>
      </trkpt>
      <trkpt lat="50.20221" lon="5.28095">
        <ele>256.13</ele>
        <time>2026-08-09T14:30:43.538Z</time>
      </trkpt>
      <trkpt lat="50.20232" lon="5.28158">
        <ele>255.07</ele>
        <time>2026-08-09T14:30:49.547Z</time>
      </trkpt>
      <trkpt lat="50.20245" lon="5.28219">
        <ele>254.01</ele>
        <time>2026-08-09T14:30:55.532Z</time>
      </trkpt>
      <trkpt lat="50.20264" lon="5.28274">
        <ele>253.97</ele>
        <time>2026-08-09T14:31:01.547Z</time>
      </trkpt>
      <trkpt lat="50.20286" lon="5.28325">
        <ele>252.72</ele>
        <time>2026-08-09T14:31:07.548Z</time>
      </trkpt>
      <trkpt lat="50.20307" lon="5.28373">
        <ele>252.62</ele>
        <time>2026-08-09T14:31:13.547Z</time>
      </trkpt>
      <trkpt lat="50.20331" lon="5.2842">
        <ele>252.89</ele>
        <time>2026-08-09T14:31:19.543Z</time>
      </trkpt>
      <trkpt lat="50.20354" lon="5.28465">
        <ele>253.06</ele>
        <time>2026-08-09T14:31:25.544Z</time>
      </trkpt>
      <trkpt lat="50.20378" lon="5.28511">
        <ele>252.49</ele>
        <time>2026-08-09T14:31:31.543Z</time>
      </trkpt>
      <trkpt lat="50.20401" lon="5.28558">
        <ele>252.15</ele>
        <time>2026-08-09T14:31:37.535Z</time>
      </trkpt>
      <trkpt lat="50.20425" lon="5.28607">
        <ele>251.82</ele>
        <time>2026-08-09T14:31:43.548Z</time>
      </trkpt>
      <trkpt lat="50.20445" lon="5.28662">
        <ele>251.38</ele>
        <time>2026-08-09T14:31:49.546Z</time>
      </trkpt>
      <trkpt lat="50.20466" lon="5.28719">
        <ele>250.97</ele>
        <time>2026-08-09T14:31:55.543Z</time>
      </trkpt>
      <trkpt lat="50.20486" lon="5.28772">
        <ele>250.5</ele>
        <time>2026-08-09T14:32:01.545Z</time>
      </trkpt>
      <trkpt lat="50.20502" lon="5.28822">
        <ele>251.89</ele>
        <time>2026-08-09T14:32:07.560Z</time>
      </trkpt>
      <trkpt lat="50.20516" lon="5.28875">
        <ele>253.18</ele>
        <time>2026-08-09T14:32:13.549Z</time>
      </trkpt>
      <trkpt lat="50.20527" lon="5.28929">
        <ele>253.22</ele>
        <time>2026-08-09T14:32:19.543Z</time>
      </trkpt>
      <trkpt lat="50.20537" lon="5.28985">
        <ele>252.43</ele>
        <time>2026-08-09T14:32:25.545Z</time>
      </trkpt>
      <trkpt lat="50.20545" lon="5.29043">
        <ele>251.74</ele>
        <time>2026-08-09T14:32:31.549Z</time>
      </trkpt>
      <trkpt lat="50.20554" lon="5.29104">
        <ele>250.93</ele>
        <time>2026-08-09T14:32:37.545Z</time>
      </trkpt>
      <trkpt lat="50.20563" lon="5.29166">
        <ele>250.64</ele>
        <time>2026-08-09T14:32:43.542Z</time>
      </trkpt>
      <trkpt lat="50.20574" lon="5.29233">
        <ele>249.11</ele>
        <time>2026-08-09T14:32:49.540Z</time>
      </trkpt>
      <trkpt lat="50.20596" lon="5.29304">
        <ele>246.91</ele>
        <time>2026-08-09T14:32:55.547Z</time>
      </trkpt>
      <trkpt lat="50.20628" lon="5.29372">
        <ele>245.19</ele>
        <time>2026-08-09T14:33:01.547Z</time>
      </trkpt>
      <trkpt lat="50.20663" lon="5.29439">
        <ele>243.39</ele>
        <time>2026-08-09T14:33:07.549Z</time>
      </trkpt>
      <trkpt lat="50.20694" lon="5.29509">
        <ele>242.08</ele>
        <time>2026-08-09T14:33:13.546Z</time>
      </trkpt>
      <trkpt lat="50.20716" lon="5.29589">
        <ele>240.83</ele>
        <time>2026-08-09T14:33:19.544Z</time>
      </trkpt>
      <trkpt lat="50.20734" lon="5.29666">
        <ele>239.37</ele>
        <time>2026-08-09T14:33:25.546Z</time>
      </trkpt>
      <trkpt lat="50.20745" lon="5.29742">
        <ele>239.09</ele>
        <time>2026-08-09T14:33:31.543Z</time>
      </trkpt>
      <trkpt lat="50.2074" lon="5.2982">
        <ele>238.27</ele>
        <time>2026-08-09T14:33:37.545Z</time>
      </trkpt>
      <trkpt lat="50.20732" lon="5.29892">
        <ele>238.53</ele>
        <time>2026-08-09T14:33:43.546Z</time>
      </trkpt>
      <trkpt lat="50.20728" lon="5.29962">
        <ele>238.22</ele>
        <time>2026-08-09T14:33:49.546Z</time>
      </trkpt>
      <trkpt lat="50.20727" lon="5.30033">
        <ele>238.04</ele>
        <time>2026-08-09T14:33:55.545Z</time>
      </trkpt>
      <trkpt lat="50.20734" lon="5.30099">
        <ele>236.92</ele>
        <time>2026-08-09T14:34:01.543Z</time>
      </trkpt>
      <trkpt lat="50.20749" lon="5.30157">
        <ele>235.62</ele>
        <time>2026-08-09T14:34:07.546Z</time>
      </trkpt>
      <trkpt lat="50.20754" lon="5.30213">
        <ele>233.13</ele>
        <time>2026-08-09T14:34:13.544Z</time>
      </trkpt>
      <trkpt lat="50.20721" lon="5.30246">
        <ele>233.32</ele>
        <time>2026-08-09T14:34:19.541Z</time>
      </trkpt>
      <trkpt lat="50.20699" lon="5.30299">
        <ele>233.76</ele>
        <time>2026-08-09T14:34:25.542Z</time>
      </trkpt>
      <trkpt lat="50.20681" lon="5.3035">
        <ele>234.14</ele>
        <time>2026-08-09T14:34:31.546Z</time>
      </trkpt>
      <trkpt lat="50.20665" lon="5.30396">
        <ele>235.12</ele>
        <time>2026-08-09T14:34:37.547Z</time>
      </trkpt>
      <trkpt lat="50.20654" lon="5.30448">
        <ele>234.18</ele>
        <time>2026-08-09T14:34:43.546Z</time>
      </trkpt>
      <trkpt lat="50.20657" lon="5.30508">
        <ele>231.14</ele>
        <time>2026-08-09T14:34:49.543Z</time>
      </trkpt>
      <trkpt lat="50.2067" lon="5.3057">
        <ele>229.04</ele>
        <time>2026-08-09T14:34:55.543Z</time>
      </trkpt>
      <trkpt lat="50.20679" lon="5.30636">
        <ele>226.78</ele>
        <time>2026-08-09T14:35:01.544Z</time>
      </trkpt>
      <trkpt lat="50.20678" lon="5.30701">
        <ele>224.6</ele>
        <time>2026-08-09T14:35:07.546Z</time>
      </trkpt>
      <trkpt lat="50.20676" lon="5.30763">
        <ele>224.3</ele>
        <time>2026-08-09T14:35:13.546Z</time>
      </trkpt>
      <trkpt lat="50.20674" lon="5.30824">
        <ele>225.64</ele>
        <time>2026-08-09T14:35:19.548Z</time>
      </trkpt>
      <trkpt lat="50.20676" lon="5.30882">
        <ele>226.9</ele>
        <time>2026-08-09T14:35:25.549Z</time>
      </trkpt>
      <trkpt lat="50.20676" lon="5.30939">
        <ele>228.82</ele>
        <time>2026-08-09T14:35:31.544Z</time>
      </trkpt>
      <trkpt lat="50.2068" lon="5.30994">
        <ele>229.7</ele>
        <time>2026-08-09T14:35:37.549Z</time>
      </trkpt>
      <trkpt lat="50.20685" lon="5.31048">
        <ele>233.22</ele>
        <time>2026-08-09T14:35:43.548Z</time>
      </trkpt>
      <trkpt lat="50.20693" lon="5.311">
        <ele>235.37</ele>
        <time>2026-08-09T14:35:49.548Z</time>
      </trkpt>
      <trkpt lat="50.20698" lon="5.31153">
        <ele>235.9</ele>
        <time>2026-08-09T14:35:55.548Z</time>
      </trkpt>
      <trkpt lat="50.20703" lon="5.31203">
        <ele>236.09</ele>
        <time>2026-08-09T14:36:01.548Z</time>
      </trkpt>
      <trkpt lat="50.20707" lon="5.31247">
        <ele>235.1</ele>
        <time>2026-08-09T14:36:07.546Z</time>
      </trkpt>
      <trkpt lat="50.20711" lon="5.31282">
        <ele>233.98</ele>
        <time>2026-08-09T14:36:13.543Z</time>
      </trkpt>
      <trkpt lat="50.20713" lon="5.31315">
        <ele>234.72</ele>
        <time>2026-08-09T14:36:19.543Z</time>
      </trkpt>
      <trkpt lat="50.20719" lon="5.31362">
        <ele>232.39</ele>
        <time>2026-08-09T14:36:25.547Z</time>
      </trkpt>
      <trkpt lat="50.20719" lon="5.31428">
        <ele>229.01</ele>
        <time>2026-08-09T14:36:31.544Z</time>
      </trkpt>
      <trkpt lat="50.20715" lon="5.31505">
        <ele>225.28</ele>
        <time>2026-08-09T14:36:37.545Z</time>
      </trkpt>
      <trkpt lat="50.20702" lon="5.31586">
        <ele>224.7</ele>
        <time>2026-08-09T14:36:43.547Z</time>
      </trkpt>
      <trkpt lat="50.20682" lon="5.31647">
        <ele>225.53</ele>
        <time>2026-08-09T14:36:49.542Z</time>
      </trkpt>
      <trkpt lat="50.20676" lon="5.31694">
        <ele>226.13</ele>
        <time>2026-08-09T14:36:55.547Z</time>
      </trkpt>
      <trkpt lat="50.20669" lon="5.31756">
        <ele>224.37</ele>
        <time>2026-08-09T14:37:01.545Z</time>
      </trkpt>
      <trkpt lat="50.20669" lon="5.31812">
        <ele>223.82</ele>
        <time>2026-08-09T14:37:07.546Z</time>
      </trkpt>
      <trkpt lat="50.20677" lon="5.31861">
        <ele>224.42</ele>
        <time>2026-08-09T14:37:13.550Z</time>
      </trkpt>
      <trkpt lat="50.20685" lon="5.31905">
        <ele>226.05</ele>
        <time>2026-08-09T14:37:19.545Z</time>
      </trkpt>
      <trkpt lat="50.20704" lon="5.31927">
        <ele>226.32</ele>
        <time>2026-08-09T14:37:25.550Z</time>
      </trkpt>
      <trkpt lat="50.20728" lon="5.31941">
        <ele>227.67</ele>
        <time>2026-08-09T14:37:31.544Z</time>
      </trkpt>
      <trkpt lat="50.2075" lon="5.31968">
        <ele>230.45</ele>
        <time>2026-08-09T14:37:37.548Z</time>
      </trkpt>
      <trkpt lat="50.20771" lon="5.31998">
        <ele>230.95</ele>
        <time>2026-08-09T14:37:43.546Z</time>
      </trkpt>
      <trkpt lat="50.20792" lon="5.32028">
        <ele>230.34</ele>
        <time>2026-08-09T14:37:49.544Z</time>
      </trkpt>
      <trkpt lat="50.20815" lon="5.32059">
        <ele>230.17</ele>
        <time>2026-08-09T14:37:55.544Z</time>
      </trkpt>
      <trkpt lat="50.20839" lon="5.32091">
        <ele>229.4</ele>
        <time>2026-08-09T14:38:01.548Z</time>
      </trkpt>
      <trkpt lat="50.2087" lon="5.3213">
        <ele>227.15</ele>
        <time>2026-08-09T14:38:07.544Z</time>
      </trkpt>
      <trkpt lat="50.20912" lon="5.3218">
        <ele>223.14</ele>
        <time>2026-08-09T14:38:13.548Z</time>
      </trkpt>
      <trkpt lat="50.20964" lon="5.32236">
        <ele>218.35</ele>
        <time>2026-08-09T14:38:19.544Z</time>
      </trkpt>
      <trkpt lat="50.2101" lon="5.32283">
        <ele>215.25</ele>
        <time>2026-08-09T14:38:25.549Z</time>
      </trkpt>
      <trkpt lat="50.21049" lon="5.3233">
        <ele>212.71</ele>
        <time>2026-08-09T14:38:31.547Z</time>
      </trkpt>
      <trkpt lat="50.21094" lon="5.32374">
        <ele>210.26</ele>
        <time>2026-08-09T14:38:37.547Z</time>
      </trkpt>
      <trkpt lat="50.2114" lon="5.32417">
        <ele>209.43</ele>
        <time>2026-08-09T14:38:43.543Z</time>
      </trkpt>
      <trkpt lat="50.21182" lon="5.32459">
        <ele>208.55</ele>
        <time>2026-08-09T14:38:49.547Z</time>
      </trkpt>
      <trkpt lat="50.21224" lon="5.32493">
        <ele>208.19</ele>
        <time>2026-08-09T14:38:55.545Z</time>
      </trkpt>
      <trkpt lat="50.21262" lon="5.32526">
        <ele>206.97</ele>
        <time>2026-08-09T14:39:01.549Z</time>
      </trkpt>
      <trkpt lat="50.21301" lon="5.32561">
        <ele>208.22</ele>
        <time>2026-08-09T14:39:07.546Z</time>
      </trkpt>
      <trkpt lat="50.21338" lon="5.32591">
        <ele>207.94</ele>
        <time>2026-08-09T14:39:13.547Z</time>
      </trkpt>
      <trkpt lat="50.21375" lon="5.3262">
        <ele>204.58</ele>
        <time>2026-08-09T14:39:19.545Z</time>
      </trkpt>
      <trkpt lat="50.2142" lon="5.32656">
        <ele>201.61</ele>
        <time>2026-08-09T14:39:25.553Z</time>
      </trkpt>
      <trkpt lat="50.21469" lon="5.327">
        <ele>198.89</ele>
        <time>2026-08-09T14:39:31.554Z</time>
      </trkpt>
      <trkpt lat="50.21514" lon="5.32739">
        <ele>196.02</ele>
        <time>2026-08-09T14:39:37.546Z</time>
      </trkpt>
      <trkpt lat="50.21553" lon="5.32768">
        <ele>195.61</ele>
        <time>2026-08-09T14:39:43.547Z</time>
      </trkpt>
      <trkpt lat="50.21589" lon="5.32802">
        <ele>196.26</ele>
        <time>2026-08-09T14:39:49.543Z</time>
      </trkpt>
      <trkpt lat="50.21622" lon="5.32836">
        <ele>196.01</ele>
        <time>2026-08-09T14:39:55.560Z</time>
      </trkpt>
      <trkpt lat="50.21655" lon="5.32865">
        <ele>194.68</ele>
        <time>2026-08-09T14:40:01.548Z</time>
      </trkpt>
      <trkpt lat="50.21699" lon="5.32888">
        <ele>193.58</ele>
        <time>2026-08-09T14:40:07.549Z</time>
      </trkpt>
      <trkpt lat="50.21753" lon="5.32933">
        <ele>188.96</ele>
        <time>2026-08-09T14:40:13.547Z</time>
      </trkpt>
      <trkpt lat="50.21797" lon="5.33003">
        <ele>184.81</ele>
        <time>2026-08-09T14:40:19.545Z</time>
      </trkpt>
      <trkpt lat="50.21834" lon="5.33078">
        <ele>181.69</ele>
        <time>2026-08-09T14:40:25.554Z</time>
      </trkpt>
      <trkpt lat="50.21886" lon="5.33119">
        <ele>180.25</ele>
        <time>2026-08-09T14:40:31.552Z</time>
      </trkpt>
      <trkpt lat="50.21927" lon="5.33159">
        <ele>179.36</ele>
        <time>2026-08-09T14:40:37.546Z</time>
      </trkpt>
      <trkpt lat="50.2197" lon="5.33195">
        <ele>176.62</ele>
        <time>2026-08-09T14:40:43.545Z</time>
      </trkpt>
      <trkpt lat="50.22018" lon="5.33237">
        <ele>174.99</ele>
        <time>2026-08-09T14:40:49.543Z</time>
      </trkpt>
      <trkpt lat="50.22063" lon="5.33278">
        <ele>173.3</ele>
        <time>2026-08-09T14:40:55.539Z</time>
      </trkpt>
      <trkpt lat="50.22111" lon="5.33314">
        <ele>173.28</ele>
        <time>2026-08-09T14:41:01.548Z</time>
      </trkpt>
      <trkpt lat="50.22151" lon="5.33353">
        <ele>174.32</ele>
        <time>2026-08-09T14:41:07.540Z</time>
      </trkpt>
      <trkpt lat="50.2219" lon="5.33386">
        <ele>172.11</ele>
        <time>2026-08-09T14:41:13.544Z</time>
      </trkpt>
      <trkpt lat="50.22226" lon="5.33417">
        <ele>169.91</ele>
        <time>2026-08-09T14:41:19.547Z</time>
      </trkpt>
      <trkpt lat="50.22261" lon="5.33452">
        <ele>168.26</ele>
        <time>2026-08-09T14:41:25.553Z</time>
      </trkpt>
      <trkpt lat="50.22297" lon="5.33487">
        <ele>168.24</ele>
        <time>2026-08-09T14:41:31.552Z</time>
      </trkpt>
      <trkpt lat="50.22329" lon="5.3351">
        <ele>168.48</ele>
        <time>2026-08-09T14:41:37.546Z</time>
      </trkpt>
      <trkpt lat="50.22342" lon="5.33526">
        <ele>168.8</ele>
        <time>2026-08-09T14:41:43.540Z</time>
      </trkpt>
      <trkpt lat="50.22346" lon="5.33557">
        <ele>168.23</ele>
        <time>2026-08-09T14:41:49.542Z</time>
      </trkpt>
      <trkpt lat="50.22355" lon="5.33591">
        <ele>166.86</ele>
        <time>2026-08-09T14:41:55.553Z</time>
      </trkpt>
      <trkpt lat="50.22356" lon="5.3361">
        <ele>165.61</ele>
        <time>2026-08-09T14:42:01.549Z</time>
      </trkpt>
      <trkpt lat="50.22371" lon="5.33603">
        <ele>165.99</ele>
        <time>2026-08-09T14:42:07.535Z</time>
      </trkpt>
      <trkpt lat="50.22393" lon="5.33602">
        <ele>166.21</ele>
        <time>2026-08-09T14:42:13.545Z</time>
      </trkpt>
      <trkpt lat="50.22406" lon="5.33606">
        <ele>166.15</ele>
        <time>2026-08-09T14:42:19.541Z</time>
      </trkpt>
      <trkpt lat="50.22415" lon="5.33586">
        <ele>166.93</ele>
        <time>2026-08-09T14:42:25.558Z</time>
      </trkpt>
      <trkpt lat="50.22416" lon="5.33558">
        <ele>168.05</ele>
        <time>2026-08-09T14:42:31.548Z</time>
      </trkpt>
      <trkpt lat="50.22416" lon="5.33524">
        <ele>167.57</ele>
        <time>2026-08-09T14:42:37.542Z</time>
      </trkpt>
      <trkpt lat="50.2241" lon="5.33498">
        <ele>167.87</ele>
        <time>2026-08-09T14:42:43.542Z</time>
      </trkpt>
      <trkpt lat="50.22404" lon="5.33483">
        <ele>167.86</ele>
        <time>2026-08-09T14:42:49.540Z</time>
      </trkpt>
      <trkpt lat="50.22394" lon="5.33491">
        <ele>166.73</ele>
        <time>2026-08-09T14:42:55.552Z</time>
      </trkpt>
      <trkpt lat="50.22386" lon="5.33481">
        <ele>218.34</ele>
        <time>2026-08-09T14:43:59.488Z</time>
      </trkpt>
      <trkpt lat="50.22377" lon="5.33474">
        <ele>220.48</ele>
        <time>2026-08-09T14:44:05.507Z</time>
      </trkpt>
      <trkpt lat="50.22369" lon="5.3349">
        <ele>219.99</ele>
        <time>2026-08-09T14:44:11.527Z</time>
      </trkpt>
      <trkpt lat="50.22356" lon="5.33501">
        <ele>219.99</ele>
        <time>2026-08-09T14:44:17.535Z</time>
      </trkpt>
      <trkpt lat="50.22344" lon="5.33512">
        <ele>218.79</ele>
        <time>2026-08-09T14:44:22.563Z</time>
      </trkpt>
      <trkpt lat="50.22339" lon="5.33527">
        <ele>218.09</ele>
        <time>2026-08-09T14:44:30.544Z</time>
      </trkpt>
      <trkpt lat="50.22344" lon="5.33555">
        <ele>218.08</ele>
        <time>2026-08-09T14:44:36.500Z</time>
      </trkpt>
      <trkpt lat="50.22355" lon="5.33583">
        <ele>218.08</ele>
        <time>2026-08-09T14:44:42.505Z</time>
      </trkpt>
      <trkpt lat="50.2236" lon="5.33608">
        <ele>220.28</ele>
        <time>2026-08-09T14:44:47.508Z</time>
      </trkpt>
      <trkpt lat="50.22374" lon="5.33599">
        <ele>220.28</ele>
        <time>2026-08-09T14:44:52.514Z</time>
      </trkpt>
      <trkpt lat="50.22395" lon="5.336">
        <ele>220.28</ele>
        <time>2026-08-09T14:44:58.499Z</time>
      </trkpt>
      <trkpt lat="50.22405" lon="5.33608">
        <ele>220.28</ele>
        <time>2026-08-09T14:45:03.502Z</time>
      </trkpt>
      <trkpt lat="50.22414" lon="5.33605">
        <ele>220.28</ele>
        <time>2026-08-09T14:45:13.557Z</time>
      </trkpt>
      <trkpt lat="50.22429" lon="5.33632">
        <ele>220.48</ele>
        <time>2026-08-09T14:45:19.556Z</time>
      </trkpt>
      <trkpt lat="50.22448" lon="5.33667">
        <ele>220.48</ele>
        <time>2026-08-09T14:45:25.564Z</time>
      </trkpt>
      <trkpt lat="50.2247" lon="5.33701">
        <ele>220.48</ele>
        <time>2026-08-09T14:45:31.558Z</time>
      </trkpt>
      <trkpt lat="50.2249" lon="5.33734">
        <ele>220.48</ele>
        <time>2026-08-09T14:45:37.550Z</time>
      </trkpt>
      <trkpt lat="50.22501" lon="5.3375">
        <ele>220.48</ele>
        <time>2026-08-09T14:45:43.558Z</time>
      </trkpt>
      <trkpt lat="50.22536" lon="5.33802">
        <ele>220.48</ele>
        <time>2026-08-09T14:45:49.547Z</time>
      </trkpt>
      <trkpt lat="50.22563" lon="5.33846">
        <ele>220.48</ele>
        <time>2026-08-09T14:45:55.544Z</time>
      </trkpt>
      <trkpt lat="50.22588" lon="5.33886">
        <ele>220.48</ele>
        <time>2026-08-09T14:46:01.549Z</time>
      </trkpt>
      <trkpt lat="50.22609" lon="5.33925">
        <ele>220.48</ele>
        <time>2026-08-09T14:46:07.539Z</time>
      </trkpt>
      <trkpt lat="50.2263" lon="5.33968">
        <ele>220.48</ele>
        <time>2026-08-09T14:46:13.539Z</time>
      </trkpt>
      <trkpt lat="50.22649" lon="5.34008">
        <ele>220.48</ele>
        <time>2026-08-09T14:46:19.540Z</time>
      </trkpt>
      <trkpt lat="50.22667" lon="5.34045">
        <ele>220.48</ele>
        <time>2026-08-09T14:46:25.554Z</time>
      </trkpt>
      <trkpt lat="50.22685" lon="5.34076">
        <ele>220.48</ele>
        <time>2026-08-09T14:46:31.545Z</time>
      </trkpt>
      <trkpt lat="50.22706" lon="5.34103">
        <ele>220.48</ele>
        <time>2026-08-09T14:46:37.541Z</time>
      </trkpt>
      <trkpt lat="50.2273" lon="5.3413">
        <ele>179.68</ele>
        <time>2026-08-09T14:46:43.542Z</time>
      </trkpt>
      <trkpt lat="50.22753" lon="5.34158">
        <ele>165.95</ele>
        <time>2026-08-09T14:46:49.539Z</time>
      </trkpt>
      <trkpt lat="50.22778" lon="5.34188">
        <ele>165.82</ele>
        <time>2026-08-09T14:46:55.550Z</time>
      </trkpt>
      <trkpt lat="50.22805" lon="5.34217">
        <ele>164.31</ele>
        <time>2026-08-09T14:47:01.550Z</time>
      </trkpt>
      <trkpt lat="50.22836" lon="5.34241">
        <ele>161.45</ele>
        <time>2026-08-09T14:47:07.548Z</time>
      </trkpt>
      <trkpt lat="50.22868" lon="5.34263">
        <ele>161.43</ele>
        <time>2026-08-09T14:47:13.550Z</time>
      </trkpt>
      <trkpt lat="50.229" lon="5.34295">
        <ele>160.49</ele>
        <time>2026-08-09T14:47:19.541Z</time>
      </trkpt>
      <trkpt lat="50.2293" lon="5.34333">
        <ele>159.77</ele>
        <time>2026-08-09T14:47:25.549Z</time>
      </trkpt>
      <trkpt lat="50.22952" lon="5.34359">
        <ele>160.11</ele>
        <time>2026-08-09T14:47:31.549Z</time>
      </trkpt>
      <trkpt lat="50.22951" lon="5.34392">
        <ele>162.07</ele>
        <time>2026-08-09T14:47:37.543Z</time>
      </trkpt>
      <trkpt lat="50.22945" lon="5.34415">
        <ele>161.58</ele>
        <time>2026-08-09T14:47:43.544Z</time>
      </trkpt>
      <trkpt lat="50.22957" lon="5.34423">
        <ele>160.71</ele>
        <time>2026-08-09T14:47:49.541Z</time>
      </trkpt>
      <trkpt lat="50.22964" lon="5.34458">
        <ele>161.33</ele>
        <time>2026-08-09T14:47:55.547Z</time>
      </trkpt>
      <trkpt lat="50.22974" lon="5.345">
        <ele>162.35</ele>
        <time>2026-08-09T14:48:01.545Z</time>
      </trkpt>
      <trkpt lat="50.22986" lon="5.34544">
        <ele>162.23</ele>
        <time>2026-08-09T14:48:07.540Z</time>
      </trkpt>
      <trkpt lat="50.22995" lon="5.34586">
        <ele>162.58</ele>
        <time>2026-08-09T14:48:13.542Z</time>
      </trkpt>
      <trkpt lat="50.23007" lon="5.34633">
        <ele>163.26</ele>
        <time>2026-08-09T14:48:19.540Z</time>
      </trkpt>
      <trkpt lat="50.23016" lon="5.34679">
        <ele>163.4</ele>
        <time>2026-08-09T14:48:25.544Z</time>
      </trkpt>
      <trkpt lat="50.23014" lon="5.34723">
        <ele>162.48</ele>
        <time>2026-08-09T14:48:31.546Z</time>
      </trkpt>
      <trkpt lat="50.23016" lon="5.34764">
        <ele>163.16</ele>
        <time>2026-08-09T14:48:37.541Z</time>
      </trkpt>
      <trkpt lat="50.23026" lon="5.348">
        <ele>165.56</ele>
        <time>2026-08-09T14:48:43.541Z</time>
      </trkpt>
      <trkpt lat="50.23041" lon="5.34838">
        <ele>168.05</ele>
        <time>2026-08-09T14:48:49.539Z</time>
      </trkpt>
      <trkpt lat="50.23061" lon="5.34876">
        <ele>165.85</ele>
        <time>2026-08-09T14:48:55.548Z</time>
      </trkpt>
      <trkpt lat="50.23087" lon="5.34911">
        <ele>162.21</ele>
        <time>2026-08-09T14:49:01.549Z</time>
      </trkpt>
      <trkpt lat="50.23117" lon="5.34946">
        <ele>160.49</ele>
        <time>2026-08-09T14:49:07.541Z</time>
      </trkpt>
      <trkpt lat="50.23149" lon="5.34991">
        <ele>160.21</ele>
        <time>2026-08-09T14:49:13.537Z</time>
      </trkpt>
      <trkpt lat="50.23173" lon="5.35054">
        <ele>160.23</ele>
        <time>2026-08-09T14:49:19.544Z</time>
      </trkpt>
      <trkpt lat="50.23195" lon="5.35118">
        <ele>160.47</ele>
        <time>2026-08-09T14:49:25.546Z</time>
      </trkpt>
      <trkpt lat="50.23216" lon="5.3517">
        <ele>159.84</ele>
        <time>2026-08-09T14:49:31.547Z</time>
      </trkpt>
      <trkpt lat="50.2323" lon="5.35216">
        <ele>159.85</ele>
        <time>2026-08-09T14:49:37.550Z</time>
      </trkpt>
      <trkpt lat="50.2324" lon="5.35233">
        <ele>158.66</ele>
        <time>2026-08-09T14:49:43.549Z</time>
      </trkpt>
      <trkpt lat="50.23251" lon="5.3523">
        <ele>158.72</ele>
        <time>2026-08-09T14:49:52.487Z</time>
      </trkpt>
      <trkpt lat="50.23254" lon="5.35253">
        <ele>158.73</ele>
        <time>2026-08-09T14:49:57.488Z</time>
      </trkpt>
      <trkpt lat="50.23262" lon="5.35281">
        <ele>160.03</ele>
        <time>2026-08-09T14:50:02.490Z</time>
      </trkpt>
      <trkpt lat="50.23272" lon="5.35309">
        <ele>160.65</ele>
        <time>2026-08-09T14:50:07.545Z</time>
      </trkpt>
      <trkpt lat="50.23286" lon="5.35337">
        <ele>161.4</ele>
        <time>2026-08-09T14:50:13.544Z</time>
      </trkpt>
      <trkpt lat="50.23301" lon="5.35364">
        <ele>160.56</ele>
        <time>2026-08-09T14:50:19.545Z</time>
      </trkpt>
      <trkpt lat="50.23318" lon="5.35393">
        <ele>161.35</ele>
        <time>2026-08-09T14:50:25.548Z</time>
      </trkpt>
      <trkpt lat="50.23335" lon="5.35424">
        <ele>162.07</ele>
        <time>2026-08-09T14:50:31.553Z</time>
      </trkpt>
      <trkpt lat="50.23352" lon="5.35458">
        <ele>163.61</ele>
        <time>2026-08-09T14:50:37.545Z</time>
      </trkpt>
      <trkpt lat="50.23368" lon="5.35489">
        <ele>164.05</ele>
        <time>2026-08-09T14:50:43.547Z</time>
      </trkpt>
      <trkpt lat="50.23382" lon="5.35525">
        <ele>165.37</ele>
        <time>2026-08-09T14:50:49.547Z</time>
      </trkpt>
      <trkpt lat="50.23404" lon="5.35517">
        <ele>166.71</ele>
        <time>2026-08-09T14:50:55.549Z</time>
      </trkpt>
      <trkpt lat="50.23428" lon="5.35501">
        <ele>166.69</ele>
        <time>2026-08-09T14:51:01.556Z</time>
      </trkpt>
      <trkpt lat="50.23443" lon="5.35541">
        <ele>166.95</ele>
        <time>2026-08-09T14:51:07.547Z</time>
      </trkpt>
      <trkpt lat="50.23459" lon="5.35578">
        <ele>165.71</ele>
        <time>2026-08-09T14:51:13.543Z</time>
      </trkpt>
      <trkpt lat="50.23475" lon="5.3562">
        <ele>165.2</ele>
        <time>2026-08-09T14:51:19.545Z</time>
      </trkpt>
      <trkpt lat="50.2349" lon="5.35662">
        <ele>164</ele>
        <time>2026-08-09T14:51:25.548Z</time>
      </trkpt>
      <trkpt lat="50.23505" lon="5.357">
        <ele>163.23</ele>
        <time>2026-08-09T14:51:31.548Z</time>
      </trkpt>
      <trkpt lat="50.2352" lon="5.35735">
        <ele>164.25</ele>
        <time>2026-08-09T14:51:37.543Z</time>
      </trkpt>
      <trkpt lat="50.23535" lon="5.3577">
        <ele>166.82</ele>
        <time>2026-08-09T14:51:43.546Z</time>
      </trkpt>
      <trkpt lat="50.23548" lon="5.35799">
        <ele>168.36</ele>
        <time>2026-08-09T14:51:49.538Z</time>
      </trkpt>
      <trkpt lat="50.2356" lon="5.35828">
        <ele>168.92</ele>
        <time>2026-08-09T14:51:55.550Z</time>
      </trkpt>
      <trkpt lat="50.23572" lon="5.3586">
        <ele>169.29</ele>
        <time>2026-08-09T14:52:01.552Z</time>
      </trkpt>
      <trkpt lat="50.23585" lon="5.35898">
        <ele>169.48</ele>
        <time>2026-08-09T14:52:07.544Z</time>
      </trkpt>
      <trkpt lat="50.23596" lon="5.35931">
        <ele>170.32</ele>
        <time>2026-08-09T14:52:13.542Z</time>
      </trkpt>
      <trkpt lat="50.23606" lon="5.35961">
        <ele>170.16</ele>
        <time>2026-08-09T14:52:19.542Z</time>
      </trkpt>
      <trkpt lat="50.23617" lon="5.35997">
        <ele>169.29</ele>
        <time>2026-08-09T14:52:25.552Z</time>
      </trkpt>
      <trkpt lat="50.23631" lon="5.36031">
        <ele>170.8</ele>
        <time>2026-08-09T14:52:31.552Z</time>
      </trkpt>
      <trkpt lat="50.23644" lon="5.3606">
        <ele>172.27</ele>
        <time>2026-08-09T14:52:37.545Z</time>
      </trkpt>
      <trkpt lat="50.23659" lon="5.3609">
        <ele>172.24</ele>
        <time>2026-08-09T14:52:43.546Z</time>
      </trkpt>
      <trkpt lat="50.23673" lon="5.36123">
        <ele>172.47</ele>
        <time>2026-08-09T14:52:49.541Z</time>
      </trkpt>
      <trkpt lat="50.23687" lon="5.36159">
        <ele>172.71</ele>
        <time>2026-08-09T14:52:55.557Z</time>
      </trkpt>
      <trkpt lat="50.23702" lon="5.36192">
        <ele>173.44</ele>
        <time>2026-08-09T14:53:01.554Z</time>
      </trkpt>
      <trkpt lat="50.23716" lon="5.36225">
        <ele>174.94</ele>
        <time>2026-08-09T14:53:07.540Z</time>
      </trkpt>
      <trkpt lat="50.23731" lon="5.36262">
        <ele>176.15</ele>
        <time>2026-08-09T14:53:13.536Z</time>
      </trkpt>
      <trkpt lat="50.23747" lon="5.36301">
        <ele>176.36</ele>
        <time>2026-08-09T14:53:19.536Z</time>
      </trkpt>
      <trkpt lat="50.23764" lon="5.36343">
        <ele>177.41</ele>
        <time>2026-08-09T14:53:25.538Z</time>
      </trkpt>
      <trkpt lat="50.23781" lon="5.36385">
        <ele>176.89</ele>
        <time>2026-08-09T14:53:31.544Z</time>
      </trkpt>
      <trkpt lat="50.23798" lon="5.36429">
        <ele>177.63</ele>
        <time>2026-08-09T14:53:37.538Z</time>
      </trkpt>
      <trkpt lat="50.23817" lon="5.36477">
        <ele>177.77</ele>
        <time>2026-08-09T14:53:43.538Z</time>
      </trkpt>
      <trkpt lat="50.23836" lon="5.3653">
        <ele>175.65</ele>
        <time>2026-08-09T14:53:49.533Z</time>
      </trkpt>
      <trkpt lat="50.23854" lon="5.36587">
        <ele>173.98</ele>
        <time>2026-08-09T14:53:55.553Z</time>
      </trkpt>
      <trkpt lat="50.23873" lon="5.36647">
        <ele>173.92</ele>
        <time>2026-08-09T14:54:01.546Z</time>
      </trkpt>
      <trkpt lat="50.23887" lon="5.36699">
        <ele>175.87</ele>
        <time>2026-08-09T14:54:07.544Z</time>
      </trkpt>
      <trkpt lat="50.23901" lon="5.36744">
        <ele>175.3</ele>
        <time>2026-08-09T14:54:13.538Z</time>
      </trkpt>
      <trkpt lat="50.23908" lon="5.3679">
        <ele>172.71</ele>
        <time>2026-08-09T14:54:19.543Z</time>
      </trkpt>
      <trkpt lat="50.2388" lon="5.36805">
        <ele>172.39</ele>
        <time>2026-08-09T14:54:25.555Z</time>
      </trkpt>
      <trkpt lat="50.23856" lon="5.36818">
        <ele>173.16</ele>
        <time>2026-08-09T14:54:31.550Z</time>
      </trkpt>
      <trkpt lat="50.23834" lon="5.36833">
        <ele>174.95</ele>
        <time>2026-08-09T14:54:37.543Z</time>
      </trkpt>
      <trkpt lat="50.2384" lon="5.36864">
        <ele>175.99</ele>
        <time>2026-08-09T14:54:43.531Z</time>
      </trkpt>
      <trkpt lat="50.23853" lon="5.36909">
        <ele>176.78</ele>
        <time>2026-08-09T14:54:49.540Z</time>
      </trkpt>
      <trkpt lat="50.2387" lon="5.3696">
        <ele>174.75</ele>
        <time>2026-08-09T14:54:55.556Z</time>
      </trkpt>
      <trkpt lat="50.23887" lon="5.37015">
        <ele>173.01</ele>
        <time>2026-08-09T14:55:01.547Z</time>
      </trkpt>
      <trkpt lat="50.23905" lon="5.37073">
        <ele>173.31</ele>
        <time>2026-08-09T14:55:07.539Z</time>
      </trkpt>
      <trkpt lat="50.2392" lon="5.37127">
        <ele>175.06</ele>
        <time>2026-08-09T14:55:13.537Z</time>
      </trkpt>
      <trkpt lat="50.23936" lon="5.37183">
        <ele>174.52</ele>
        <time>2026-08-09T14:55:19.540Z</time>
      </trkpt>
      <trkpt lat="50.23959" lon="5.37223">
        <ele>173.06</ele>
        <time>2026-08-09T14:55:25.556Z</time>
      </trkpt>
      <trkpt lat="50.23979" lon="5.37231">
        <ele>170.72</ele>
        <time>2026-08-09T14:55:31.554Z</time>
      </trkpt>
      <trkpt lat="50.23986" lon="5.37243">
        <ele>170.79</ele>
        <time>2026-08-09T14:55:37.548Z</time>
      </trkpt>
      <trkpt lat="50.23978" lon="5.37277">
        <ele>171.51</ele>
        <time>2026-08-09T14:55:43.541Z</time>
      </trkpt>
      <trkpt lat="50.23982" lon="5.3732">
        <ele>170.37</ele>
        <time>2026-08-09T14:55:49.538Z</time>
      </trkpt>
      <trkpt lat="50.24019" lon="5.37306">
        <ele>168.67</ele>
        <time>2026-08-09T14:55:55.540Z</time>
      </trkpt>
      <trkpt lat="50.2406" lon="5.37312">
        <ele>166.59</ele>
        <time>2026-08-09T14:56:01.545Z</time>
      </trkpt>
      <trkpt lat="50.24103" lon="5.37298">
        <ele>161.86</ele>
        <time>2026-08-09T14:56:07.527Z</time>
      </trkpt>
      <trkpt lat="50.24147" lon="5.37254">
        <ele>157.54</ele>
        <time>2026-08-09T14:56:13.541Z</time>
      </trkpt>
      <trkpt lat="50.2418" lon="5.37207">
        <ele>154.25</ele>
        <time>2026-08-09T14:56:19.537Z</time>
      </trkpt>
      <trkpt lat="50.24202" lon="5.37226">
        <ele>153.89</ele>
        <time>2026-08-09T14:56:25.552Z</time>
      </trkpt>
      <trkpt lat="50.24227" lon="5.37276">
        <ele>156.02</ele>
        <time>2026-08-09T14:56:31.545Z</time>
      </trkpt>
      <trkpt lat="50.24245" lon="5.37336">
        <ele>156.75</ele>
        <time>2026-08-09T14:56:37.551Z</time>
      </trkpt>
      <trkpt lat="50.2426" lon="5.37394">
        <ele>157.53</ele>
        <time>2026-08-09T14:56:43.543Z</time>
      </trkpt>
      <trkpt lat="50.24279" lon="5.37452">
        <ele>154.65</ele>
        <time>2026-08-09T14:56:49.548Z</time>
      </trkpt>
      <trkpt lat="50.24303" lon="5.37509">
        <ele>154.49</ele>
        <time>2026-08-09T14:56:55.560Z</time>
      </trkpt>
      <trkpt lat="50.24332" lon="5.37554">
        <ele>154.42</ele>
        <time>2026-08-09T14:57:01.548Z</time>
      </trkpt>
      <trkpt lat="50.24355" lon="5.37605">
        <ele>155.27</ele>
        <time>2026-08-09T14:57:07.535Z</time>
      </trkpt>
      <trkpt lat="50.24377" lon="5.37655">
        <ele>155.02</ele>
        <time>2026-08-09T14:57:13.536Z</time>
      </trkpt>
      <trkpt lat="50.24404" lon="5.37706">
        <ele>154.22</ele>
        <time>2026-08-09T14:57:19.540Z</time>
      </trkpt>
      <trkpt lat="50.2443" lon="5.37756">
        <ele>152.91</ele>
        <time>2026-08-09T14:57:25.552Z</time>
      </trkpt>
      <trkpt lat="50.24459" lon="5.37802">
        <ele>152.63</ele>
        <time>2026-08-09T14:57:31.548Z</time>
      </trkpt>
      <trkpt lat="50.24487" lon="5.37852">
        <ele>151.68</ele>
        <time>2026-08-09T14:57:37.537Z</time>
      </trkpt>
      <trkpt lat="50.24518" lon="5.37902">
        <ele>149.8</ele>
        <time>2026-08-09T14:57:43.539Z</time>
      </trkpt>
      <trkpt lat="50.24552" lon="5.3794">
        <ele>147.9</ele>
        <time>2026-08-09T14:57:49.541Z</time>
      </trkpt>
      <trkpt lat="50.24571" lon="5.37966">
        <ele>147.69</ele>
        <time>2026-08-09T14:57:55.554Z</time>
      </trkpt>
      <trkpt lat="50.24588" lon="5.37982">
        <ele>148.85</ele>
        <time>2026-08-09T14:58:01.553Z</time>
      </trkpt>
      <trkpt lat="50.2461" lon="5.38009">
        <ele>147.91</ele>
        <time>2026-08-09T14:58:07.535Z</time>
      </trkpt>
      <trkpt lat="50.24624" lon="5.38064">
        <ele>147.09</ele>
        <time>2026-08-09T14:58:13.544Z</time>
      </trkpt>
      <trkpt lat="50.24639" lon="5.38124">
        <ele>146.56</ele>
        <time>2026-08-09T14:58:19.542Z</time>
      </trkpt>
      <trkpt lat="50.24654" lon="5.38187">
        <ele>145.4</ele>
        <time>2026-08-09T14:58:25.558Z</time>
      </trkpt>
      <trkpt lat="50.2467" lon="5.38249">
        <ele>144.78</ele>
        <time>2026-08-09T14:58:31.548Z</time>
      </trkpt>
      <trkpt lat="50.24687" lon="5.3831">
        <ele>143.59</ele>
        <time>2026-08-09T14:58:37.550Z</time>
      </trkpt>
      <trkpt lat="50.24703" lon="5.38369">
        <ele>143.11</ele>
        <time>2026-08-09T14:58:43.542Z</time>
      </trkpt>
      <trkpt lat="50.24721" lon="5.38428">
        <ele>142.31</ele>
        <time>2026-08-09T14:58:49.541Z</time>
      </trkpt>
      <trkpt lat="50.24736" lon="5.38488">
        <ele>141.64</ele>
        <time>2026-08-09T14:58:55.554Z</time>
      </trkpt>
      <trkpt lat="50.24752" lon="5.38548">
        <ele>141.87</ele>
        <time>2026-08-09T14:59:01.550Z</time>
      </trkpt>
      <trkpt lat="50.24766" lon="5.38606">
        <ele>142.4</ele>
        <time>2026-08-09T14:59:07.542Z</time>
      </trkpt>
      <trkpt lat="50.2478" lon="5.38662">
        <ele>142.76</ele>
        <time>2026-08-09T14:59:13.541Z</time>
      </trkpt>
      <trkpt lat="50.24794" lon="5.3872">
        <ele>142.44</ele>
        <time>2026-08-09T14:59:19.546Z</time>
      </trkpt>
      <trkpt lat="50.24807" lon="5.38771">
        <ele>144.28</ele>
        <time>2026-08-09T14:59:25.545Z</time>
      </trkpt>
      <trkpt lat="50.24821" lon="5.38822">
        <ele>144.43</ele>
        <time>2026-08-09T14:59:31.548Z</time>
      </trkpt>
      <trkpt lat="50.24832" lon="5.38868">
        <ele>145.1</ele>
        <time>2026-08-09T14:59:37.538Z</time>
      </trkpt>
      <trkpt lat="50.24845" lon="5.38915">
        <ele>144.45</ele>
        <time>2026-08-09T14:59:43.549Z</time>
      </trkpt>
      <trkpt lat="50.24855" lon="5.38962">
        <ele>141.91</ele>
        <time>2026-08-09T14:59:49.543Z</time>
      </trkpt>
      <trkpt lat="50.24867" lon="5.39011">
        <ele>141.46</ele>
        <time>2026-08-09T14:59:55.551Z</time>
      </trkpt>
      <trkpt lat="50.2488" lon="5.39061">
        <ele>140.52</ele>
        <time>2026-08-09T15:00:01.553Z</time>
      </trkpt>
      <trkpt lat="50.2489" lon="5.391">
        <ele>140.08</ele>
        <time>2026-08-09T15:00:06.554Z</time>
      </trkpt>
      <trkpt lat="50.249" lon="5.39137">
        <ele>137.11</ele>
        <time>2026-08-09T15:00:12.488Z</time>
      </trkpt>
      <trkpt lat="50.24913" lon="5.39179">
        <ele>136.57</ele>
        <time>2026-08-09T15:00:17.495Z</time>
      </trkpt>
      <trkpt lat="50.2492" lon="5.39213">
        <ele>139.51</ele>
        <time>2026-08-09T15:00:22.495Z</time>
      </trkpt>
      <trkpt lat="50.24925" lon="5.39238">
        <ele>143.56</ele>
        <time>2026-08-09T15:00:28.489Z</time>
      </trkpt>
      <trkpt lat="50.24917" lon="5.39247">
        <ele>144.15</ele>
        <time>2026-08-09T15:01:14.489Z</time>
      </trkpt>
      <trkpt lat="50.24909" lon="5.39254">
        <ele>143.65</ele>
        <time>2026-08-09T15:01:19.556Z</time>
      </trkpt>
      <trkpt lat="50.24917" lon="5.39289">
        <ele>142.18</ele>
        <time>2026-08-09T15:01:25.553Z</time>
      </trkpt>
      <trkpt lat="50.2493" lon="5.39333">
        <ele>140.5</ele>
        <time>2026-08-09T15:01:31.551Z</time>
      </trkpt>
      <trkpt lat="50.24943" lon="5.39387">
        <ele>139.65</ele>
        <time>2026-08-09T15:01:37.557Z</time>
      </trkpt>
      <trkpt lat="50.24955" lon="5.39443">
        <ele>138.51</ele>
        <time>2026-08-09T15:01:43.559Z</time>
      </trkpt>
      <trkpt lat="50.24967" lon="5.39494">
        <ele>139.28</ele>
        <time>2026-08-09T15:01:49.555Z</time>
      </trkpt>
      <trkpt lat="50.2499" lon="5.39533">
        <ele>139.39</ele>
        <time>2026-08-09T15:01:55.553Z</time>
      </trkpt>
      <trkpt lat="50.25017" lon="5.39576">
        <ele>138.13</ele>
        <time>2026-08-09T15:02:01.549Z</time>
      </trkpt>
      <trkpt lat="50.25047" lon="5.3962">
        <ele>138.42</ele>
        <time>2026-08-09T15:02:07.557Z</time>
      </trkpt>
      <trkpt lat="50.25076" lon="5.39664">
        <ele>138.47</ele>
        <time>2026-08-09T15:02:13.558Z</time>
      </trkpt>
      <trkpt lat="50.25105" lon="5.39706">
        <ele>137.59</ele>
        <time>2026-08-09T15:02:19.555Z</time>
      </trkpt>
      <trkpt lat="50.25105" lon="5.39734">
        <ele>138.3</ele>
        <time>2026-08-09T15:02:25.556Z</time>
      </trkpt>
      <trkpt lat="50.25083" lon="5.39753">
        <ele>139.9</ele>
        <time>2026-08-09T15:02:31.559Z</time>
      </trkpt>
      <trkpt lat="50.25062" lon="5.39772">
        <ele>141.6</ele>
        <time>2026-08-09T15:02:37.558Z</time>
      </trkpt>
      <trkpt lat="50.25039" lon="5.39792">
        <ele>143.56</ele>
        <time>2026-08-09T15:02:43.554Z</time>
      </trkpt>
      <trkpt lat="50.25022" lon="5.39809">
        <ele>144.78</ele>
        <time>2026-08-09T15:02:49.558Z</time>
      </trkpt>
      <trkpt lat="50.2503" lon="5.39838">
        <ele>144.75</ele>
        <time>2026-08-09T15:02:55.556Z</time>
      </trkpt>
      <trkpt lat="50.25044" lon="5.39869">
        <ele>144.15</ele>
        <time>2026-08-09T15:03:01.559Z</time>
      </trkpt>
      <trkpt lat="50.25061" lon="5.39904">
        <ele>144.42</ele>
        <time>2026-08-09T15:03:07.556Z</time>
      </trkpt>
      <trkpt lat="50.25078" lon="5.39943">
        <ele>143.74</ele>
        <time>2026-08-09T15:03:13.555Z</time>
      </trkpt>
      <trkpt lat="50.25096" lon="5.39983">
        <ele>142.85</ele>
        <time>2026-08-09T15:03:19.556Z</time>
      </trkpt>
      <trkpt lat="50.25115" lon="5.40025">
        <ele>142.55</ele>
        <time>2026-08-09T15:03:25.554Z</time>
      </trkpt>
      <trkpt lat="50.25133" lon="5.40063">
        <ele>142.32</ele>
        <time>2026-08-09T15:03:31.560Z</time>
      </trkpt>
      <trkpt lat="50.25128" lon="5.4008">
        <ele>144.52</ele>
        <time>2026-08-09T15:03:37.554Z</time>
      </trkpt>
      <trkpt lat="50.25114" lon="5.40095">
        <ele>144.89</ele>
        <time>2026-08-09T15:03:43.554Z</time>
      </trkpt>
      <trkpt lat="50.25099" lon="5.40111">
        <ele>145.45</ele>
        <time>2026-08-09T15:03:49.558Z</time>
      </trkpt>
      <trkpt lat="50.25087" lon="5.40126">
        <ele>146.99</ele>
        <time>2026-08-09T15:03:55.554Z</time>
      </trkpt>
      <trkpt lat="50.25076" lon="5.40137">
        <ele>148.82</ele>
        <time>2026-08-09T15:04:01.560Z</time>
      </trkpt>
      <trkpt lat="50.25065" lon="5.40149">
        <ele>149.94</ele>
        <time>2026-08-09T15:04:07.555Z</time>
      </trkpt>
      <trkpt lat="50.25058" lon="5.40161">
        <ele>150.65</ele>
        <time>2026-08-09T15:04:13.560Z</time>
      </trkpt>
      <trkpt lat="50.25064" lon="5.40177">
        <ele>150.63</ele>
        <time>2026-08-09T15:04:19.559Z</time>
      </trkpt>
      <trkpt lat="50.25072" lon="5.40194">
        <ele>150.62</ele>
        <time>2026-08-09T15:04:25.553Z</time>
      </trkpt>
      <trkpt lat="50.2508" lon="5.40211">
        <ele>150.73</ele>
        <time>2026-08-09T15:04:31.556Z</time>
      </trkpt>
      <trkpt lat="50.25088" lon="5.40227">
        <ele>151.92</ele>
        <time>2026-08-09T15:04:37.554Z</time>
      </trkpt>
      <trkpt lat="50.25096" lon="5.40245">
        <ele>152.33</ele>
        <time>2026-08-09T15:04:43.561Z</time>
      </trkpt>
      <trkpt lat="50.25103" lon="5.40265">
        <ele>153.74</ele>
        <time>2026-08-09T15:04:49.555Z</time>
      </trkpt>
      <trkpt lat="50.25109" lon="5.40283">
        <ele>155.04</ele>
        <time>2026-08-09T15:04:55.554Z</time>
      </trkpt>
      <trkpt lat="50.25113" lon="5.40304">
        <ele>156.22</ele>
        <time>2026-08-09T15:05:01.556Z</time>
      </trkpt>
      <trkpt lat="50.25118" lon="5.40325">
        <ele>157.09</ele>
        <time>2026-08-09T15:05:07.553Z</time>
      </trkpt>
      <trkpt lat="50.25121" lon="5.40348">
        <ele>157.23</ele>
        <time>2026-08-09T15:05:13.549Z</time>
      </trkpt>
      <trkpt lat="50.25124" lon="5.40381">
        <ele>158.43</ele>
        <time>2026-08-09T15:05:19.557Z</time>
      </trkpt>
      <trkpt lat="50.25128" lon="5.40418">
        <ele>158.53</ele>
        <time>2026-08-09T15:05:25.573Z</time>
      </trkpt>
      <trkpt lat="50.25136" lon="5.40463">
        <ele>157.59</ele>
        <time>2026-08-09T15:05:31.555Z</time>
      </trkpt>
      <trkpt lat="50.25152" lon="5.40519">
        <ele>155.81</ele>
        <time>2026-08-09T15:05:37.554Z</time>
      </trkpt>
      <trkpt lat="50.25185" lon="5.4058">
        <ele>152.64</ele>
        <time>2026-08-09T15:05:43.554Z</time>
      </trkpt>
      <trkpt lat="50.25231" lon="5.4063">
        <ele>149.23</ele>
        <time>2026-08-09T15:05:49.556Z</time>
      </trkpt>
      <trkpt lat="50.25276" lon="5.40678">
        <ele>148</ele>
        <time>2026-08-09T15:05:55.548Z</time>
      </trkpt>
      <trkpt lat="50.25311" lon="5.40722">
        <ele>148.63</ele>
        <time>2026-08-09T15:06:01.557Z</time>
      </trkpt>
      <trkpt lat="50.25337" lon="5.4076">
        <ele>149.27</ele>
        <time>2026-08-09T15:06:07.552Z</time>
      </trkpt>
      <trkpt lat="50.2536" lon="5.40801">
        <ele>150.02</ele>
        <time>2026-08-09T15:06:13.558Z</time>
      </trkpt>
      <trkpt lat="50.25381" lon="5.40839">
        <ele>150.59</ele>
        <time>2026-08-09T15:06:19.552Z</time>
      </trkpt>
      <trkpt lat="50.254" lon="5.40877">
        <ele>150.6</ele>
        <time>2026-08-09T15:06:25.553Z</time>
      </trkpt>
      <trkpt lat="50.2542" lon="5.40912">
        <ele>151.55</ele>
        <time>2026-08-09T15:06:31.548Z</time>
      </trkpt>
      <trkpt lat="50.25439" lon="5.40953">
        <ele>153.08</ele>
        <time>2026-08-09T15:06:37.557Z</time>
      </trkpt>
      <trkpt lat="50.25455" lon="5.40998">
        <ele>151.76</ele>
        <time>2026-08-09T15:06:43.557Z</time>
      </trkpt>
      <trkpt lat="50.25476" lon="5.41048">
        <ele>150.61</ele>
        <time>2026-08-09T15:06:49.554Z</time>
      </trkpt>
      <trkpt lat="50.25494" lon="5.41097">
        <ele>150.7</ele>
        <time>2026-08-09T15:06:55.555Z</time>
      </trkpt>
      <trkpt lat="50.2551" lon="5.41143">
        <ele>150.97</ele>
        <time>2026-08-09T15:07:01.554Z</time>
      </trkpt>
      <trkpt lat="50.25525" lon="5.41187">
        <ele>151.49</ele>
        <time>2026-08-09T15:07:07.556Z</time>
      </trkpt>
      <trkpt lat="50.2554" lon="5.41229">
        <ele>151.72</ele>
        <time>2026-08-09T15:07:13.555Z</time>
      </trkpt>
      <trkpt lat="50.25553" lon="5.41267">
        <ele>152.14</ele>
        <time>2026-08-09T15:07:19.555Z</time>
      </trkpt>
      <trkpt lat="50.25565" lon="5.41305">
        <ele>152.82</ele>
        <time>2026-08-09T15:07:25.554Z</time>
      </trkpt>
      <trkpt lat="50.25578" lon="5.41347">
        <ele>153.05</ele>
        <time>2026-08-09T15:07:31.557Z</time>
      </trkpt>
      <trkpt lat="50.25592" lon="5.41393">
        <ele>152.8</ele>
        <time>2026-08-09T15:07:37.557Z</time>
      </trkpt>
      <trkpt lat="50.25606" lon="5.4144">
        <ele>152.82</ele>
        <time>2026-08-09T15:07:43.551Z</time>
      </trkpt>
      <trkpt lat="50.25621" lon="5.41489">
        <ele>152.71</ele>
        <time>2026-08-09T15:07:49.556Z</time>
      </trkpt>
      <trkpt lat="50.25635" lon="5.4154">
        <ele>151.73</ele>
        <time>2026-08-09T15:07:55.557Z</time>
      </trkpt>
      <trkpt lat="50.25651" lon="5.41593">
        <ele>150.94</ele>
        <time>2026-08-09T15:08:01.558Z</time>
      </trkpt>
      <trkpt lat="50.25667" lon="5.41646">
        <ele>149.94</ele>
        <time>2026-08-09T15:08:07.556Z</time>
      </trkpt>
      <trkpt lat="50.25682" lon="5.41696">
        <ele>149.68</ele>
        <time>2026-08-09T15:08:13.556Z</time>
      </trkpt>
      <trkpt lat="50.25697" lon="5.41747">
        <ele>150.17</ele>
        <time>2026-08-09T15:08:19.555Z</time>
      </trkpt>
      <trkpt lat="50.25711" lon="5.41797">
        <ele>149.95</ele>
        <time>2026-08-09T15:08:25.545Z</time>
      </trkpt>
      <trkpt lat="50.25725" lon="5.41848">
        <ele>149.12</ele>
        <time>2026-08-09T15:08:31.557Z</time>
      </trkpt>
      <trkpt lat="50.25738" lon="5.41901">
        <ele>148.83</ele>
        <time>2026-08-09T15:08:37.556Z</time>
      </trkpt>
      <trkpt lat="50.25751" lon="5.41953">
        <ele>148.65</ele>
        <time>2026-08-09T15:08:43.557Z</time>
      </trkpt>
      <trkpt lat="50.25765" lon="5.42005">
        <ele>148.46</ele>
        <time>2026-08-09T15:08:49.546Z</time>
      </trkpt>
      <trkpt lat="50.25776" lon="5.42054">
        <ele>148.51</ele>
        <time>2026-08-09T15:08:55.555Z</time>
      </trkpt>
      <trkpt lat="50.25789" lon="5.42106">
        <ele>147.57</ele>
        <time>2026-08-09T15:09:01.558Z</time>
      </trkpt>
      <trkpt lat="50.25804" lon="5.42158">
        <ele>148.51</ele>
        <time>2026-08-09T15:09:07.556Z</time>
      </trkpt>
      <trkpt lat="50.25816" lon="5.42213">
        <ele>149.13</ele>
        <time>2026-08-09T15:09:13.555Z</time>
      </trkpt>
      <trkpt lat="50.2583" lon="5.42266">
        <ele>149.97</ele>
        <time>2026-08-09T15:09:19.558Z</time>
      </trkpt>
      <trkpt lat="50.25844" lon="5.4232">
        <ele>149.33</ele>
        <time>2026-08-09T15:09:25.555Z</time>
      </trkpt>
      <trkpt lat="50.25862" lon="5.42369">
        <ele>148.12</ele>
        <time>2026-08-09T15:09:31.553Z</time>
      </trkpt>
      <trkpt lat="50.25882" lon="5.42415">
        <ele>147.48</ele>
        <time>2026-08-09T15:09:37.554Z</time>
      </trkpt>
      <trkpt lat="50.25903" lon="5.42463">
        <ele>146.53</ele>
        <time>2026-08-09T15:09:43.557Z</time>
      </trkpt>
      <trkpt lat="50.25924" lon="5.42511">
        <ele>146.68</ele>
        <time>2026-08-09T15:09:49.553Z</time>
      </trkpt>
      <trkpt lat="50.25945" lon="5.42559">
        <ele>146.94</ele>
        <time>2026-08-09T15:09:55.558Z</time>
      </trkpt>
      <trkpt lat="50.25965" lon="5.42606">
        <ele>146.44</ele>
        <time>2026-08-09T15:10:01.555Z</time>
      </trkpt>
      <trkpt lat="50.25982" lon="5.42656">
        <ele>146.06</ele>
        <time>2026-08-09T15:10:07.559Z</time>
      </trkpt>
      <trkpt lat="50.26" lon="5.42704">
        <ele>146.29</ele>
        <time>2026-08-09T15:10:13.559Z</time>
      </trkpt>
      <trkpt lat="50.26017" lon="5.42748">
        <ele>146.84</ele>
        <time>2026-08-09T15:10:19.554Z</time>
      </trkpt>
      <trkpt lat="50.26032" lon="5.42773">
        <ele>146.35</ele>
        <time>2026-08-09T15:10:25.562Z</time>
      </trkpt>
      <trkpt lat="50.2606" lon="5.42746">
        <ele>146.77</ele>
        <time>2026-08-09T15:10:31.561Z</time>
      </trkpt>
      <trkpt lat="50.26091" lon="5.42724">
        <ele>146.69</ele>
        <time>2026-08-09T15:10:37.560Z</time>
      </trkpt>
      <trkpt lat="50.26115" lon="5.42704">
        <ele>148.44</ele>
        <time>2026-08-09T15:10:43.555Z</time>
      </trkpt>
      <trkpt lat="50.26127" lon="5.42695">
        <ele>149.73</ele>
        <time>2026-08-09T15:10:49.632Z</time>
      </trkpt>
      <trkpt lat="50.26132" lon="5.42707">
        <ele>148.58</ele>
        <time>2026-08-09T15:33:49.554Z</time>
      </trkpt>
      <trkpt lat="50.26139" lon="5.42733">
        <ele>146.82</ele>
        <time>2026-08-09T15:33:55.562Z</time>
      </trkpt>
      <trkpt lat="50.26144" lon="5.42767">
        <ele>146.93</ele>
        <time>2026-08-09T15:34:01.556Z</time>
      </trkpt>
      <trkpt lat="50.2615" lon="5.42804">
        <ele>146.28</ele>
        <time>2026-08-09T15:34:07.559Z</time>
      </trkpt>
      <trkpt lat="50.26157" lon="5.42838">
        <ele>145.65</ele>
        <time>2026-08-09T15:34:13.564Z</time>
      </trkpt>
      <trkpt lat="50.26167" lon="5.42874">
        <ele>144.62</ele>
        <time>2026-08-09T15:34:19.563Z</time>
      </trkpt>
      <trkpt lat="50.26177" lon="5.42909">
        <ele>145.76</ele>
        <time>2026-08-09T15:34:25.550Z</time>
      </trkpt>
      <trkpt lat="50.26182" lon="5.42939">
        <ele>148.13</ele>
        <time>2026-08-09T15:34:30.578Z</time>
      </trkpt>
      <trkpt lat="50.26191" lon="5.42964">
        <ele>150.29</ele>
        <time>2026-08-09T15:34:36.624Z</time>
      </trkpt>
      <trkpt lat="50.26202" lon="5.42994">
        <ele>148.61</ele>
        <time>2026-08-09T15:34:42.633Z</time>
      </trkpt>
      <trkpt lat="50.26207" lon="5.43021">
        <ele>148.08</ele>
        <time>2026-08-09T15:34:48.563Z</time>
      </trkpt>
      <trkpt lat="50.26213" lon="5.43046">
        <ele>149.52</ele>
        <time>2026-08-09T15:34:54.578Z</time>
      </trkpt>
      <trkpt lat="50.26219" lon="5.4307">
        <ele>148.35</ele>
        <time>2026-08-09T15:35:00.556Z</time>
      </trkpt>
      <trkpt lat="50.26224" lon="5.43093">
        <ele>147.73</ele>
        <time>2026-08-09T15:35:06.493Z</time>
      </trkpt>
      <trkpt lat="50.26228" lon="5.43111">
        <ele>148.78</ele>
        <time>2026-08-09T15:35:11.578Z</time>
      </trkpt>
      <trkpt lat="50.26234" lon="5.43139">
        <ele>151.49</ele>
        <time>2026-08-09T15:35:17.587Z</time>
      </trkpt>
      <trkpt lat="50.26236" lon="5.43163">
        <ele>209.86</ele>
        <time>2026-08-09T15:35:23.484Z</time>
      </trkpt>
      <trkpt lat="50.26237" lon="5.4318">
        <ele>210.78</ele>
        <time>2026-08-09T15:35:28.496Z</time>
      </trkpt>
      <trkpt lat="50.26242" lon="5.43205">
        <ele>210.78</ele>
        <time>2026-08-09T15:35:34.479Z</time>
      </trkpt>
      <trkpt lat="50.26245" lon="5.4323">
        <ele>211.44</ele>
        <time>2026-08-09T15:35:40.497Z</time>
      </trkpt>
      <trkpt lat="50.26248" lon="5.43255">
        <ele>211.48</ele>
        <time>2026-08-09T15:35:46.488Z</time>
      </trkpt>
      <trkpt lat="50.26251" lon="5.43278">
        <ele>211.48</ele>
        <time>2026-08-09T15:35:51.504Z</time>
      </trkpt>
      <trkpt lat="50.26253" lon="5.43305">
        <ele>211.48</ele>
        <time>2026-08-09T15:35:57.490Z</time>
      </trkpt>
      <trkpt lat="50.26254" lon="5.43336">
        <ele>212.76</ele>
        <time>2026-08-09T15:36:02.500Z</time>
      </trkpt>
      <trkpt lat="50.26241" lon="5.43349">
        <ele>212.78</ele>
        <time>2026-08-09T15:36:07.547Z</time>
      </trkpt>
      <trkpt lat="50.26219" lon="5.43366">
        <ele>212.78</ele>
        <time>2026-08-09T15:36:13.562Z</time>
      </trkpt>
      <trkpt lat="50.26197" lon="5.43385">
        <ele>212.78</ele>
        <time>2026-08-09T15:36:19.558Z</time>
      </trkpt>
      <trkpt lat="50.26178" lon="5.43408">
        <ele>215.18</ele>
        <time>2026-08-09T15:36:25.573Z</time>
      </trkpt>
      <trkpt lat="50.26175" lon="5.43441">
        <ele>215.18</ele>
        <time>2026-08-09T15:36:31.556Z</time>
      </trkpt>
      <trkpt lat="50.26191" lon="5.43475">
        <ele>215.18</ele>
        <time>2026-08-09T15:36:37.551Z</time>
      </trkpt>
      <trkpt lat="50.26208" lon="5.43506">
        <ele>215.18</ele>
        <time>2026-08-09T15:36:43.542Z</time>
      </trkpt>
      <trkpt lat="50.26223" lon="5.43548">
        <ele>215.18</ele>
        <time>2026-08-09T15:36:49.554Z</time>
      </trkpt>
      <trkpt lat="50.26236" lon="5.43579">
        <ele>211.05</ele>
        <time>2026-08-09T15:36:55.556Z</time>
      </trkpt>
      <trkpt lat="50.26229" lon="5.43588">
        <ele>209.68</ele>
        <time>2026-08-09T15:37:01.550Z</time>
      </trkpt>
      <trkpt lat="50.2624" lon="5.43618">
        <ele>209.23</ele>
        <time>2026-08-09T15:37:07.565Z</time>
      </trkpt>
      <trkpt lat="50.26256" lon="5.43662">
        <ele>209.08</ele>
        <time>2026-08-09T15:37:13.557Z</time>
      </trkpt>
      <trkpt lat="50.26276" lon="5.43723">
        <ele>209.08</ele>
        <time>2026-08-09T15:37:19.552Z</time>
      </trkpt>
      <trkpt lat="50.263" lon="5.43795">
        <ele>209.07</ele>
        <time>2026-08-09T15:37:25.576Z</time>
      </trkpt>
      <trkpt lat="50.26332" lon="5.43865">
        <ele>209.07</ele>
        <time>2026-08-09T15:37:31.545Z</time>
      </trkpt>
      <trkpt lat="50.26364" lon="5.43937">
        <ele>209.07</ele>
        <time>2026-08-09T15:37:37.556Z</time>
      </trkpt>
      <trkpt lat="50.26389" lon="5.44008">
        <ele>209.07</ele>
        <time>2026-08-09T15:37:43.547Z</time>
      </trkpt>
      <trkpt lat="50.26413" lon="5.44064">
        <ele>209.07</ele>
        <time>2026-08-09T15:37:49.558Z</time>
      </trkpt>
      <trkpt lat="50.26451" lon="5.44112">
        <ele>209.07</ele>
        <time>2026-08-09T15:37:55.560Z</time>
      </trkpt>
      <trkpt lat="50.26485" lon="5.44151">
        <ele>209.07</ele>
        <time>2026-08-09T15:38:01.554Z</time>
      </trkpt>
      <trkpt lat="50.26512" lon="5.44182">
        <ele>209.07</ele>
        <time>2026-08-09T15:38:07.553Z</time>
      </trkpt>
      <trkpt lat="50.26546" lon="5.44224">
        <ele>209.07</ele>
        <time>2026-08-09T15:38:13.554Z</time>
      </trkpt>
      <trkpt lat="50.26586" lon="5.44275">
        <ele>209.07</ele>
        <time>2026-08-09T15:38:19.560Z</time>
      </trkpt>
      <trkpt lat="50.26624" lon="5.44337">
        <ele>209.07</ele>
        <time>2026-08-09T15:38:25.555Z</time>
      </trkpt>
      <trkpt lat="50.26656" lon="5.44397">
        <ele>209.07</ele>
        <time>2026-08-09T15:38:31.553Z</time>
      </trkpt>
      <trkpt lat="50.26685" lon="5.44453">
        <ele>129.98</ele>
        <time>2026-08-09T15:38:37.567Z</time>
      </trkpt>
      <trkpt lat="50.26707" lon="5.44509">
        <ele>126.57</ele>
        <time>2026-08-09T15:38:43.565Z</time>
      </trkpt>
      <trkpt lat="50.26724" lon="5.44563">
        <ele>126.2</ele>
        <time>2026-08-09T15:38:49.548Z</time>
      </trkpt>
      <trkpt lat="50.26741" lon="5.44604">
        <ele>124.81</ele>
        <time>2026-08-09T15:38:55.555Z</time>
      </trkpt>
      <trkpt lat="50.26758" lon="5.44634">
        <ele>126.63</ele>
        <time>2026-08-09T15:39:01.549Z</time>
      </trkpt>
      <trkpt lat="50.26778" lon="5.44667">
        <ele>128.05</ele>
        <time>2026-08-09T15:39:07.574Z</time>
      </trkpt>
      <trkpt lat="50.26791" lon="5.44686">
        <ele>176.78</ele>
        <time>2026-08-09T15:39:13.550Z</time>
      </trkpt>
      <trkpt lat="50.26807" lon="5.44703">
        <ele>180.07</ele>
        <time>2026-08-09T15:39:19.546Z</time>
      </trkpt>
      <trkpt lat="50.26825" lon="5.44721">
        <ele>180.07</ele>
        <time>2026-08-09T15:39:25.556Z</time>
      </trkpt>
      <trkpt lat="50.26836" lon="5.44732">
        <ele>180.07</ele>
        <time>2026-08-09T15:39:31.549Z</time>
      </trkpt>
      <trkpt lat="50.26845" lon="5.44724">
        <ele>179.97</ele>
        <time>2026-08-09T15:40:00.500Z</time>
      </trkpt>
      <trkpt lat="50.26856" lon="5.44694">
        <ele>179.47</ele>
        <time>2026-08-09T15:40:06.493Z</time>
      </trkpt>
      <trkpt lat="50.26873" lon="5.44661">
        <ele>179.47</ele>
        <time>2026-08-09T15:40:12.481Z</time>
      </trkpt>
      <trkpt lat="50.26883" lon="5.44621">
        <ele>179.47</ele>
        <time>2026-08-09T15:40:17.489Z</time>
      </trkpt>
      <trkpt lat="50.26895" lon="5.44573">
        <ele>179.47</ele>
        <time>2026-08-09T15:40:23.489Z</time>
      </trkpt>
      <trkpt lat="50.26911" lon="5.44528">
        <ele>179.47</ele>
        <time>2026-08-09T15:40:29.538Z</time>
      </trkpt>
      <trkpt lat="50.26931" lon="5.44486">
        <ele>179.47</ele>
        <time>2026-08-09T15:40:35.478Z</time>
      </trkpt>
      <trkpt lat="50.26951" lon="5.44457">
        <ele>179.47</ele>
        <time>2026-08-09T15:40:40.489Z</time>
      </trkpt>
      <trkpt lat="50.26973" lon="5.44418">
        <ele>179.48</ele>
        <time>2026-08-09T15:40:46.491Z</time>
      </trkpt>
      <trkpt lat="50.26991" lon="5.44385">
        <ele>179.48</ele>
        <time>2026-08-09T15:40:51.491Z</time>
      </trkpt>
      <trkpt lat="50.27011" lon="5.44354">
        <ele>179.48</ele>
        <time>2026-08-09T15:40:56.491Z</time>
      </trkpt>
      <trkpt lat="50.27028" lon="5.44323">
        <ele>179.48</ele>
        <time>2026-08-09T15:41:01.550Z</time>
      </trkpt>
      <trkpt lat="50.27047" lon="5.44283">
        <ele>179.48</ele>
        <time>2026-08-09T15:41:07.561Z</time>
      </trkpt>
      <trkpt lat="50.27065" lon="5.4424">
        <ele>179.48</ele>
        <time>2026-08-09T15:41:13.545Z</time>
      </trkpt>
      <trkpt lat="50.27079" lon="5.44196">
        <ele>179.48</ele>
        <time>2026-08-09T15:41:19.542Z</time>
      </trkpt>
      <trkpt lat="50.2709" lon="5.44147">
        <ele>179.48</ele>
        <time>2026-08-09T15:41:25.553Z</time>
      </trkpt>
      <trkpt lat="50.27106" lon="5.44107">
        <ele>128.99</ele>
        <time>2026-08-09T15:41:31.556Z</time>
      </trkpt>
      <trkpt lat="50.27114" lon="5.4406">
        <ele>127.52</ele>
        <time>2026-08-09T15:41:37.544Z</time>
      </trkpt>
      <trkpt lat="50.2712" lon="5.44011">
        <ele>128.77</ele>
        <time>2026-08-09T15:41:43.555Z</time>
      </trkpt>
      <trkpt lat="50.27114" lon="5.43961">
        <ele>128.63</ele>
        <time>2026-08-09T15:41:49.551Z</time>
      </trkpt>
      <trkpt lat="50.27103" lon="5.43912">
        <ele>127.72</ele>
        <time>2026-08-09T15:41:55.546Z</time>
      </trkpt>
      <trkpt lat="50.27092" lon="5.43865">
        <ele>128.63</ele>
        <time>2026-08-09T15:42:01.551Z</time>
      </trkpt>
      <trkpt lat="50.27092" lon="5.43835">
        <ele>127.29</ele>
        <time>2026-08-09T15:42:07.572Z</time>
      </trkpt>
      <trkpt lat="50.27091" lon="5.43817">
        <ele>125.58</ele>
        <time>2026-08-09T15:42:13.556Z</time>
      </trkpt>
      <trkpt lat="50.27089" lon="5.43803">
        <ele>124.69</ele>
        <time>2026-08-09T15:42:20.486Z</time>
      </trkpt>
      <trkpt lat="50.27083" lon="5.43814">
        <ele>176.69</ele>
        <time>2026-08-09T15:43:22.511Z</time>
      </trkpt>
      <trkpt lat="50.27084" lon="5.43828">
        <ele>177.58</ele>
        <time>2026-08-09T15:45:56.488Z</time>
      </trkpt>
      <trkpt lat="50.27092" lon="5.43822">
        <ele>177.59</ele>
        <time>2026-08-09T15:47:09.491Z</time>
      </trkpt>
      <trkpt lat="50.27083" lon="5.43818">
        <ele>177.59</ele>
        <time>2026-08-09T15:47:17.488Z</time>
      </trkpt>
      <trkpt lat="50.27087" lon="5.43806">
        <ele>176.59</ele>
        <time>2026-08-09T15:48:18.493Z</time>
      </trkpt>
      <trkpt lat="50.27084" lon="5.4379">
        <ele>176.59</ele>
        <time>2026-08-09T15:49:13.562Z</time>
      </trkpt>
      <trkpt lat="50.27081" lon="5.43771">
        <ele>176.59</ele>
        <time>2026-08-09T15:49:19.551Z</time>
      </trkpt>
      <trkpt lat="50.27078" lon="5.43757">
        <ele>176.59</ele>
        <time>2026-08-09T15:49:28.495Z</time>
      </trkpt>
      <trkpt lat="50.27069" lon="5.43752">
        <ele>176.46</ele>
        <time>2026-08-09T15:49:50.490Z</time>
      </trkpt>
      <trkpt lat="50.27092" lon="5.43848">
        <ele>111.12</ele>
        <time>2026-08-10T06:32:00.775Z</time>
      </trkpt>
      <trkpt lat="50.27089" lon="5.43862">
        <ele>176.68</ele>
        <time>2026-08-10T06:33:56.677Z</time>
      </trkpt>
      <trkpt lat="50.27095" lon="5.43886">
        <ele>176.68</ele>
        <time>2026-08-10T06:34:02.296Z</time>
      </trkpt>
      <trkpt lat="50.27102" lon="5.4392">
        <ele>176.68</ele>
        <time>2026-08-10T06:34:07.767Z</time>
      </trkpt>
      <trkpt lat="50.27109" lon="5.43938">
        <ele>176.68</ele>
        <time>2026-08-10T06:34:13.159Z</time>
      </trkpt>
      <trkpt lat="50.27115" lon="5.43965">
        <ele>176.68</ele>
        <time>2026-08-10T06:34:18.764Z</time>
      </trkpt>
      <trkpt lat="50.27117" lon="5.43992">
        <ele>176.68</ele>
        <time>2026-08-10T06:34:24.758Z</time>
      </trkpt>
      <trkpt lat="50.27118" lon="5.44008">
        <ele>176.68</ele>
        <time>2026-08-10T06:34:29.761Z</time>
      </trkpt>
      <trkpt lat="50.27113" lon="5.44021">
        <ele>122.53</ele>
        <time>2026-08-10T06:36:21.209Z</time>
      </trkpt>
      <trkpt lat="50.27108" lon="5.4406">
        <ele>123.51</ele>
        <time>2026-08-10T06:36:26.434Z</time>
      </trkpt>
      <trkpt lat="50.27107" lon="5.44085">
        <ele>125.52</ele>
        <time>2026-08-10T06:36:31.764Z</time>
      </trkpt>
      <trkpt lat="50.27101" lon="5.44105">
        <ele>127.17</ele>
        <time>2026-08-10T06:36:36.766Z</time>
      </trkpt>
      <trkpt lat="50.27091" lon="5.44128">
        <ele>126.34</ele>
        <time>2026-08-10T06:36:42.190Z</time>
      </trkpt>
      <trkpt lat="50.27082" lon="5.44159">
        <ele>124.96</ele>
        <time>2026-08-10T06:36:47.766Z</time>
      </trkpt>
      <trkpt lat="50.27075" lon="5.44193">
        <ele>124.89</ele>
        <time>2026-08-10T06:36:53.456Z</time>
      </trkpt>
      <trkpt lat="50.27067" lon="5.44221">
        <ele>124.08</ele>
        <time>2026-08-10T06:36:58.590Z</time>
      </trkpt>
      <trkpt lat="50.27056" lon="5.44248">
        <ele>124.13</ele>
        <time>2026-08-10T06:37:03.770Z</time>
      </trkpt>
      <trkpt lat="50.27045" lon="5.44273">
        <ele>125.1</ele>
        <time>2026-08-10T06:37:08.808Z</time>
      </trkpt>
      <trkpt lat="50.27033" lon="5.44301">
        <ele>125.51</ele>
        <time>2026-08-10T06:37:14.134Z</time>
      </trkpt>
      <trkpt lat="50.2702" lon="5.44329">
        <ele>124.75</ele>
        <time>2026-08-10T06:37:19.460Z</time>
      </trkpt>
      <trkpt lat="50.27006" lon="5.44352">
        <ele>124.05</ele>
        <time>2026-08-10T06:37:24.816Z</time>
      </trkpt>
      <trkpt lat="50.26991" lon="5.44377">
        <ele>126.38</ele>
        <time>2026-08-10T06:37:30.353Z</time>
      </trkpt>
      <trkpt lat="50.26977" lon="5.44402">
        <ele>127.46</ele>
        <time>2026-08-10T06:37:35.437Z</time>
      </trkpt>
      <trkpt lat="50.2696" lon="5.44431">
        <ele>128.82</ele>
        <time>2026-08-10T06:37:41.014Z</time>
      </trkpt>
      <trkpt lat="50.26944" lon="5.44458">
        <ele>128.09</ele>
        <time>2026-08-10T06:37:46.671Z</time>
      </trkpt>
      <trkpt lat="50.26929" lon="5.44483">
        <ele>127.02</ele>
        <time>2026-08-10T06:37:51.764Z</time>
      </trkpt>
      <trkpt lat="50.26914" lon="5.44509">
        <ele>126.5</ele>
        <time>2026-08-10T06:37:56.940Z</time>
      </trkpt>
      <trkpt lat="50.26903" lon="5.44538">
        <ele>125.77</ele>
        <time>2026-08-10T06:38:02.115Z</time>
      </trkpt>
      <trkpt lat="50.26893" lon="5.44572">
        <ele>125.23</ele>
        <time>2026-08-10T06:38:07.751Z</time>
      </trkpt>
      <trkpt lat="50.26884" lon="5.44605">
        <ele>124.9</ele>
        <time>2026-08-10T06:38:13.219Z</time>
      </trkpt>
      <trkpt lat="50.26876" lon="5.44636">
        <ele>124.25</ele>
        <time>2026-08-10T06:38:18.474Z</time>
      </trkpt>
      <trkpt lat="50.26867" lon="5.44664">
        <ele>124.56</ele>
        <time>2026-08-10T06:38:23.558Z</time>
      </trkpt>
      <trkpt lat="50.26861" lon="5.44688">
        <ele>122.95</ele>
        <time>2026-08-10T06:38:28.762Z</time>
      </trkpt>
      <trkpt lat="50.26852" lon="5.44714">
        <ele>122.19</ele>
        <time>2026-08-10T06:38:34.760Z</time>
      </trkpt>
      <trkpt lat="50.26838" lon="5.44721">
        <ele>125.63</ele>
        <time>2026-08-10T06:38:39.768Z</time>
      </trkpt>
      <trkpt lat="50.26824" lon="5.44712">
        <ele>126.29</ele>
        <time>2026-08-10T06:38:44.816Z</time>
      </trkpt>
      <trkpt lat="50.26804" lon="5.4469">
        <ele>127.19</ele>
        <time>2026-08-10T06:38:50.808Z</time>
      </trkpt>
      <trkpt lat="50.26784" lon="5.44673">
        <ele>127.02</ele>
        <time>2026-08-10T06:38:56.757Z</time>
      </trkpt>
      <trkpt lat="50.26776" lon="5.44669">
        <ele>129.39</ele>
        <time>2026-08-10T06:39:03.768Z</time>
      </trkpt>
      <trkpt lat="50.26769" lon="5.44687">
        <ele>127.08</ele>
        <time>2026-08-10T06:39:08.812Z</time>
      </trkpt>
      <trkpt lat="50.26757" lon="5.44713">
        <ele>125.73</ele>
        <time>2026-08-10T06:39:14.817Z</time>
      </trkpt>
      <trkpt lat="50.2674" lon="5.44736">
        <ele>125.99</ele>
        <time>2026-08-10T06:39:20.810Z</time>
      </trkpt>
      <trkpt lat="50.26719" lon="5.44762">
        <ele>126.81</ele>
        <time>2026-08-10T06:39:26.757Z</time>
      </trkpt>
      <trkpt lat="50.26702" lon="5.44787">
        <ele>126.86</ele>
        <time>2026-08-10T06:39:31.761Z</time>
      </trkpt>
      <trkpt lat="50.26685" lon="5.44809">
        <ele>125.9</ele>
        <time>2026-08-10T06:39:36.769Z</time>
      </trkpt>
      <trkpt lat="50.26668" lon="5.44837">
        <ele>125.08</ele>
        <time>2026-08-10T06:39:41.770Z</time>
      </trkpt>
      <trkpt lat="50.26654" lon="5.44866">
        <ele>125.8</ele>
        <time>2026-08-10T06:39:46.770Z</time>
      </trkpt>
      <trkpt lat="50.26643" lon="5.44898">
        <ele>125.38</ele>
        <time>2026-08-10T06:39:51.770Z</time>
      </trkpt>
      <trkpt lat="50.26635" lon="5.44934">
        <ele>126.3</ele>
        <time>2026-08-10T06:39:56.825Z</time>
      </trkpt>
      <trkpt lat="50.26627" lon="5.44977">
        <ele>126.46</ele>
        <time>2026-08-10T06:40:02.771Z</time>
      </trkpt>
      <trkpt lat="50.2662" lon="5.45021">
        <ele>126.66</ele>
        <time>2026-08-10T06:40:08.820Z</time>
      </trkpt>
      <trkpt lat="50.26614" lon="5.45065">
        <ele>126.65</ele>
        <time>2026-08-10T06:40:14.815Z</time>
      </trkpt>
      <trkpt lat="50.26609" lon="5.45109">
        <ele>126.82</ele>
        <time>2026-08-10T06:40:20.818Z</time>
      </trkpt>
      <trkpt lat="50.26603" lon="5.45153">
        <ele>126.97</ele>
        <time>2026-08-10T06:40:26.768Z</time>
      </trkpt>
      <trkpt lat="50.26597" lon="5.45188">
        <ele>126.82</ele>
        <time>2026-08-10T06:40:31.769Z</time>
      </trkpt>
      <trkpt lat="50.26591" lon="5.4522">
        <ele>126.95</ele>
        <time>2026-08-10T06:40:36.771Z</time>
      </trkpt>
      <trkpt lat="50.26584" lon="5.45257">
        <ele>127.1</ele>
        <time>2026-08-10T06:40:42.774Z</time>
      </trkpt>
      <trkpt lat="50.26579" lon="5.45294">
        <ele>129.61</ele>
        <time>2026-08-10T06:40:48.788Z</time>
      </trkpt>
      <trkpt lat="50.26574" lon="5.45333">
        <ele>130.29</ele>
        <time>2026-08-10T06:40:54.774Z</time>
      </trkpt>
      <trkpt lat="50.26565" lon="5.45368">
        <ele>128.89</ele>
        <time>2026-08-10T06:41:00.772Z</time>
      </trkpt>
      <trkpt lat="50.26554" lon="5.45401">
        <ele>126.98</ele>
        <time>2026-08-10T06:41:06.769Z</time>
      </trkpt>
      <trkpt lat="50.26546" lon="5.45429">
        <ele>125.64</ele>
        <time>2026-08-10T06:41:11.772Z</time>
      </trkpt>
      <trkpt lat="50.26539" lon="5.45458">
        <ele>125.47</ele>
        <time>2026-08-10T06:41:16.773Z</time>
      </trkpt>
      <trkpt lat="50.26531" lon="5.45486">
        <ele>125.77</ele>
        <time>2026-08-10T06:41:21.776Z</time>
      </trkpt>
      <trkpt lat="50.26522" lon="5.45517">
        <ele>126.84</ele>
        <time>2026-08-10T06:41:27.771Z</time>
      </trkpt>
      <trkpt lat="50.2652" lon="5.45532">
        <ele>127.97</ele>
        <time>2026-08-10T06:41:33.770Z</time>
      </trkpt>
      <trkpt lat="50.26527" lon="5.45511">
        <ele>130.23</ele>
        <time>2026-08-10T06:41:38.817Z</time>
      </trkpt>
      <trkpt lat="50.26517" lon="5.45514">
        <ele>130.44</ele>
        <time>2026-08-10T06:41:47.772Z</time>
      </trkpt>
      <trkpt lat="50.26508" lon="5.45528">
        <ele>129.46</ele>
        <time>2026-08-10T06:41:53.767Z</time>
      </trkpt>
      <trkpt lat="50.26501" lon="5.45541">
        <ele>127.92</ele>
        <time>2026-08-10T06:41:58.772Z</time>
      </trkpt>
      <trkpt lat="50.26493" lon="5.45562">
        <ele>129.93</ele>
        <time>2026-08-10T06:42:04.768Z</time>
      </trkpt>
      <trkpt lat="50.26487" lon="5.45579">
        <ele>130.41</ele>
        <time>2026-08-10T06:42:09.768Z</time>
      </trkpt>
      <trkpt lat="50.26482" lon="5.45597">
        <ele>134.12</ele>
        <time>2026-08-10T06:42:14.820Z</time>
      </trkpt>
      <trkpt lat="50.26477" lon="5.45616">
        <ele>135.36</ele>
        <time>2026-08-10T06:42:20.816Z</time>
      </trkpt>
      <trkpt lat="50.26473" lon="5.45636">
        <ele>135.13</ele>
        <time>2026-08-10T06:42:26.833Z</time>
      </trkpt>
      <trkpt lat="50.26468" lon="5.45659">
        <ele>135.64</ele>
        <time>2026-08-10T06:42:32.771Z</time>
      </trkpt>
      <trkpt lat="50.26466" lon="5.45679">
        <ele>136.54</ele>
        <time>2026-08-10T06:42:38.820Z</time>
      </trkpt>
      <trkpt lat="50.26461" lon="5.457">
        <ele>136.95</ele>
        <time>2026-08-10T06:42:44.820Z</time>
      </trkpt>
      <trkpt lat="50.26458" lon="5.4572">
        <ele>140.09</ele>
        <time>2026-08-10T06:42:50.823Z</time>
      </trkpt>
      <trkpt lat="50.26453" lon="5.45735">
        <ele>141.06</ele>
        <time>2026-08-10T06:42:56.827Z</time>
      </trkpt>
      <trkpt lat="50.26448" lon="5.4575">
        <ele>140.91</ele>
        <time>2026-08-10T06:43:02.768Z</time>
      </trkpt>
      <trkpt lat="50.26444" lon="5.45763">
        <ele>141.47</ele>
        <time>2026-08-10T06:43:07.769Z</time>
      </trkpt>
      <trkpt lat="50.26439" lon="5.45777">
        <ele>143.39</ele>
        <time>2026-08-10T06:43:13.774Z</time>
      </trkpt>
      <trkpt lat="50.26434" lon="5.45791">
        <ele>145.23</ele>
        <time>2026-08-10T06:43:19.770Z</time>
      </trkpt>
      <trkpt lat="50.2643" lon="5.45804">
        <ele>145.16</ele>
        <time>2026-08-10T06:43:25.770Z</time>
      </trkpt>
      <trkpt lat="50.26426" lon="5.45818">
        <ele>145.63</ele>
        <time>2026-08-10T06:43:30.772Z</time>
      </trkpt>
      <trkpt lat="50.26423" lon="5.45832">
        <ele>145.08</ele>
        <time>2026-08-10T06:43:35.772Z</time>
      </trkpt>
      <trkpt lat="50.26417" lon="5.45843">
        <ele>145.16</ele>
        <time>2026-08-10T06:43:40.776Z</time>
      </trkpt>
      <trkpt lat="50.26409" lon="5.45857">
        <ele>145.21</ele>
        <time>2026-08-10T06:43:46.773Z</time>
      </trkpt>
      <trkpt lat="50.26404" lon="5.4587">
        <ele>147.05</ele>
        <time>2026-08-10T06:43:52.772Z</time>
      </trkpt>
      <trkpt lat="50.26398" lon="5.45884">
        <ele>148.39</ele>
        <time>2026-08-10T06:43:57.772Z</time>
      </trkpt>
      <trkpt lat="50.26392" lon="5.45897">
        <ele>149.63</ele>
        <time>2026-08-10T06:44:02.773Z</time>
      </trkpt>
      <trkpt lat="50.26387" lon="5.45909">
        <ele>149.07</ele>
        <time>2026-08-10T06:44:07.775Z</time>
      </trkpt>
      <trkpt lat="50.26379" lon="5.45926">
        <ele>148.49</ele>
        <time>2026-08-10T06:44:13.775Z</time>
      </trkpt>
      <trkpt lat="50.26371" lon="5.4594">
        <ele>148.16</ele>
        <time>2026-08-10T06:44:19.773Z</time>
      </trkpt>
      <trkpt lat="50.26364" lon="5.45953">
        <ele>148.39</ele>
        <time>2026-08-10T06:44:24.775Z</time>
      </trkpt>
      <trkpt lat="50.26356" lon="5.45964">
        <ele>149.84</ele>
        <time>2026-08-10T06:44:29.775Z</time>
      </trkpt>
      <trkpt lat="50.26347" lon="5.45979">
        <ele>149.86</ele>
        <time>2026-08-10T06:44:35.770Z</time>
      </trkpt>
      <trkpt lat="50.26338" lon="5.45993">
        <ele>149.96</ele>
        <time>2026-08-10T06:44:40.774Z</time>
      </trkpt>
      <trkpt lat="50.26327" lon="5.46009">
        <ele>150.29</ele>
        <time>2026-08-10T06:44:45.775Z</time>
      </trkpt>
      <trkpt lat="50.26316" lon="5.46025">
        <ele>151.57</ele>
        <time>2026-08-10T06:44:50.818Z</time>
      </trkpt>
      <trkpt lat="50.26302" lon="5.46045">
        <ele>152.16</ele>
        <time>2026-08-10T06:44:56.828Z</time>
      </trkpt>
      <trkpt lat="50.26286" lon="5.46066">
        <ele>151.85</ele>
        <time>2026-08-10T06:45:02.825Z</time>
      </trkpt>
      <trkpt lat="50.26268" lon="5.4609">
        <ele>151.85</ele>
        <time>2026-08-10T06:45:08.822Z</time>
      </trkpt>
      <trkpt lat="50.26247" lon="5.46118">
        <ele>151.31</ele>
        <time>2026-08-10T06:45:14.821Z</time>
      </trkpt>
      <trkpt lat="50.26223" lon="5.46147">
        <ele>152.5</ele>
        <time>2026-08-10T06:45:20.818Z</time>
      </trkpt>
      <trkpt lat="50.26193" lon="5.46192">
        <ele>150.29</ele>
        <time>2026-08-10T06:45:26.834Z</time>
      </trkpt>
      <trkpt lat="50.26159" lon="5.46251">
        <ele>149.16</ele>
        <time>2026-08-10T06:45:32.825Z</time>
      </trkpt>
      <trkpt lat="50.26113" lon="5.4632">
        <ele>141.99</ele>
        <time>2026-08-10T06:45:38.814Z</time>
      </trkpt>
      <trkpt lat="50.26071" lon="5.46386">
        <ele>136.58</ele>
        <time>2026-08-10T06:45:44.820Z</time>
      </trkpt>
      <trkpt lat="50.26034" lon="5.46444">
        <ele>133.84</ele>
        <time>2026-08-10T06:45:50.818Z</time>
      </trkpt>
      <trkpt lat="50.26004" lon="5.46494">
        <ele>133.21</ele>
        <time>2026-08-10T06:45:56.798Z</time>
      </trkpt>
      <trkpt lat="50.25987" lon="5.46522">
        <ele>132.56</ele>
        <time>2026-08-10T06:46:02.821Z</time>
      </trkpt>
      <trkpt lat="50.25985" lon="5.46503">
        <ele>135.11</ele>
        <time>2026-08-10T06:46:08.816Z</time>
      </trkpt>
      <trkpt lat="50.25963" lon="5.4651">
        <ele>136.59</ele>
        <time>2026-08-10T06:46:14.817Z</time>
      </trkpt>
      <trkpt lat="50.25941" lon="5.46515">
        <ele>135.7</ele>
        <time>2026-08-10T06:46:20.822Z</time>
      </trkpt>
      <trkpt lat="50.25922" lon="5.46526">
        <ele>132.71</ele>
        <time>2026-08-10T06:46:26.834Z</time>
      </trkpt>
      <trkpt lat="50.25905" lon="5.46545">
        <ele>131.45</ele>
        <time>2026-08-10T06:46:32.823Z</time>
      </trkpt>
      <trkpt lat="50.25887" lon="5.46564">
        <ele>130.52</ele>
        <time>2026-08-10T06:46:38.818Z</time>
      </trkpt>
      <trkpt lat="50.25868" lon="5.46579">
        <ele>128.89</ele>
        <time>2026-08-10T06:46:44.816Z</time>
      </trkpt>
      <trkpt lat="50.2585" lon="5.46587">
        <ele>129.33</ele>
        <time>2026-08-10T06:46:50.819Z</time>
      </trkpt>
      <trkpt lat="50.25832" lon="5.46586">
        <ele>132.17</ele>
        <time>2026-08-10T06:46:56.830Z</time>
      </trkpt>
      <trkpt lat="50.25813" lon="5.4658">
        <ele>131.7</ele>
        <time>2026-08-10T06:47:02.826Z</time>
      </trkpt>
      <trkpt lat="50.25796" lon="5.46573">
        <ele>132.27</ele>
        <time>2026-08-10T06:47:08.820Z</time>
      </trkpt>
      <trkpt lat="50.25784" lon="5.46593">
        <ele>133.19</ele>
        <time>2026-08-10T06:47:14.816Z</time>
      </trkpt>
      <trkpt lat="50.2577" lon="5.46635">
        <ele>135.5</ele>
        <time>2026-08-10T06:47:20.817Z</time>
      </trkpt>
      <trkpt lat="50.25768" lon="5.46684">
        <ele>136.7</ele>
        <time>2026-08-10T06:47:26.827Z</time>
      </trkpt>
      <trkpt lat="50.25798" lon="5.46738">
        <ele>134.56</ele>
        <time>2026-08-10T06:47:32.823Z</time>
      </trkpt>
      <trkpt lat="50.25785" lon="5.46791">
        <ele>133.73</ele>
        <time>2026-08-10T06:47:38.816Z</time>
      </trkpt>
      <trkpt lat="50.25768" lon="5.46842">
        <ele>133.22</ele>
        <time>2026-08-10T06:47:44.819Z</time>
      </trkpt>
      <trkpt lat="50.25748" lon="5.46874">
        <ele>131.57</ele>
        <time>2026-08-10T06:47:50.817Z</time>
      </trkpt>
      <trkpt lat="50.25728" lon="5.46864">
        <ele>131.31</ele>
        <time>2026-08-10T06:47:56.826Z</time>
      </trkpt>
      <trkpt lat="50.25714" lon="5.46842">
        <ele>133.63</ele>
        <time>2026-08-10T06:48:02.822Z</time>
      </trkpt>
      <trkpt lat="50.25702" lon="5.46824">
        <ele>137.01</ele>
        <time>2026-08-10T06:48:08.817Z</time>
      </trkpt>
      <trkpt lat="50.2569" lon="5.46813">
        <ele>138.9</ele>
        <time>2026-08-10T06:48:14.820Z</time>
      </trkpt>
      <trkpt lat="50.2568" lon="5.46815">
        <ele>140.33</ele>
        <time>2026-08-10T06:48:20.817Z</time>
      </trkpt>
      <trkpt lat="50.25669" lon="5.46816">
        <ele>141.43</ele>
        <time>2026-08-10T06:48:26.832Z</time>
      </trkpt>
      <trkpt lat="50.2566" lon="5.46818">
        <ele>142.56</ele>
        <time>2026-08-10T06:48:32.808Z</time>
      </trkpt>
      <trkpt lat="50.2565" lon="5.46824">
        <ele>143.22</ele>
        <time>2026-08-10T06:48:38.816Z</time>
      </trkpt>
      <trkpt lat="50.2564" lon="5.46828">
        <ele>144.39</ele>
        <time>2026-08-10T06:48:44.816Z</time>
      </trkpt>
      <trkpt lat="50.25631" lon="5.46838">
        <ele>145.64</ele>
        <time>2026-08-10T06:48:50.816Z</time>
      </trkpt>
      <trkpt lat="50.25626" lon="5.46857">
        <ele>146.69</ele>
        <time>2026-08-10T06:48:56.844Z</time>
      </trkpt>
      <trkpt lat="50.25618" lon="5.46885">
        <ele>144.98</ele>
        <time>2026-08-10T06:49:02.829Z</time>
      </trkpt>
      <trkpt lat="50.25603" lon="5.46938">
        <ele>139.72</ele>
        <time>2026-08-10T06:49:08.818Z</time>
      </trkpt>
      <trkpt lat="50.25584" lon="5.46994">
        <ele>137.3</ele>
        <time>2026-08-10T06:49:14.816Z</time>
      </trkpt>
      <trkpt lat="50.25566" lon="5.4704">
        <ele>138.53</ele>
        <time>2026-08-10T06:49:20.817Z</time>
      </trkpt>
      <trkpt lat="50.25554" lon="5.47071">
        <ele>140.9</ele>
        <time>2026-08-10T06:49:26.827Z</time>
      </trkpt>
      <trkpt lat="50.25541" lon="5.47093">
        <ele>144.85</ele>
        <time>2026-08-10T06:49:32.832Z</time>
      </trkpt>
      <trkpt lat="50.25534" lon="5.47119">
        <ele>145.05</ele>
        <time>2026-08-10T06:49:38.816Z</time>
      </trkpt>
      <trkpt lat="50.25529" lon="5.4715">
        <ele>145.24</ele>
        <time>2026-08-10T06:49:44.821Z</time>
      </trkpt>
      <trkpt lat="50.25525" lon="5.4718">
        <ele>146.34</ele>
        <time>2026-08-10T06:49:50.819Z</time>
      </trkpt>
      <trkpt lat="50.2552" lon="5.4721">
        <ele>145.65</ele>
        <time>2026-08-10T06:49:56.829Z</time>
      </trkpt>
      <trkpt lat="50.25515" lon="5.47238">
        <ele>143.3</ele>
        <time>2026-08-10T06:50:02.790Z</time>
      </trkpt>
      <trkpt lat="50.2551" lon="5.47259">
        <ele>143</ele>
        <time>2026-08-10T06:50:08.817Z</time>
      </trkpt>
      <trkpt lat="50.25505" lon="5.47273">
        <ele>143.27</ele>
        <time>2026-08-10T06:50:14.820Z</time>
      </trkpt>
      <trkpt lat="50.25496" lon="5.47287">
        <ele>145.07</ele>
        <time>2026-08-10T06:50:20.819Z</time>
      </trkpt>
      <trkpt lat="50.25488" lon="5.47304">
        <ele>144.73</ele>
        <time>2026-08-10T06:50:26.826Z</time>
      </trkpt>
      <trkpt lat="50.25483" lon="5.47331">
        <ele>144.83</ele>
        <time>2026-08-10T06:50:32.823Z</time>
      </trkpt>
      <trkpt lat="50.25483" lon="5.47382">
        <ele>145.88</ele>
        <time>2026-08-10T06:50:38.816Z</time>
      </trkpt>
      <trkpt lat="50.25478" lon="5.47433">
        <ele>146.81</ele>
        <time>2026-08-10T06:50:44.817Z</time>
      </trkpt>
      <trkpt lat="50.25469" lon="5.4747">
        <ele>147.75</ele>
        <time>2026-08-10T06:50:50.816Z</time>
      </trkpt>
      <trkpt lat="50.2546" lon="5.47487">
        <ele>148.39</ele>
        <time>2026-08-10T06:50:56.788Z</time>
      </trkpt>
      <trkpt lat="50.25452" lon="5.47506">
        <ele>148.81</ele>
        <time>2026-08-10T06:51:02.808Z</time>
      </trkpt>
      <trkpt lat="50.25445" lon="5.47525">
        <ele>150.74</ele>
        <time>2026-08-10T06:51:08.815Z</time>
      </trkpt>
      <trkpt lat="50.25437" lon="5.47542">
        <ele>151.86</ele>
        <time>2026-08-10T06:51:14.820Z</time>
      </trkpt>
      <trkpt lat="50.2543" lon="5.47558">
        <ele>151.35</ele>
        <time>2026-08-10T06:51:20.819Z</time>
      </trkpt>
      <trkpt lat="50.25424" lon="5.47576">
        <ele>151.65</ele>
        <time>2026-08-10T06:51:26.768Z</time>
      </trkpt>
      <trkpt lat="50.25419" lon="5.4759">
        <ele>153.19</ele>
        <time>2026-08-10T06:51:31.769Z</time>
      </trkpt>
      <trkpt lat="50.25413" lon="5.47603">
        <ele>153.75</ele>
        <time>2026-08-10T06:51:36.770Z</time>
      </trkpt>
      <trkpt lat="50.25407" lon="5.47614">
        <ele>155.4</ele>
        <time>2026-08-10T06:51:41.774Z</time>
      </trkpt>
      <trkpt lat="50.25399" lon="5.47627">
        <ele>157.3</ele>
        <time>2026-08-10T06:51:47.779Z</time>
      </trkpt>
      <trkpt lat="50.25389" lon="5.47639">
        <ele>159.79</ele>
        <time>2026-08-10T06:51:53.774Z</time>
      </trkpt>
      <trkpt lat="50.25382" lon="5.47654">
        <ele>162.38</ele>
        <time>2026-08-10T06:51:59.776Z</time>
      </trkpt>
      <trkpt lat="50.25376" lon="5.47684">
        <ele>164.74</ele>
        <time>2026-08-10T06:52:05.772Z</time>
      </trkpt>
      <trkpt lat="50.25368" lon="5.47714">
        <ele>165.34</ele>
        <time>2026-08-10T06:52:10.777Z</time>
      </trkpt>
      <trkpt lat="50.25362" lon="5.47746">
        <ele>164.94</ele>
        <time>2026-08-10T06:52:15.777Z</time>
      </trkpt>
      <trkpt lat="50.25355" lon="5.4778">
        <ele>164.35</ele>
        <time>2026-08-10T06:52:20.821Z</time>
      </trkpt>
      <trkpt lat="50.25345" lon="5.47818">
        <ele>163.62</ele>
        <time>2026-08-10T06:52:26.834Z</time>
      </trkpt>
      <trkpt lat="50.25333" lon="5.47856">
        <ele>164.33</ele>
        <time>2026-08-10T06:52:32.828Z</time>
      </trkpt>
      <trkpt lat="50.25325" lon="5.47895">
        <ele>163.65</ele>
        <time>2026-08-10T06:52:38.821Z</time>
      </trkpt>
      <trkpt lat="50.25308" lon="5.4792">
        <ele>165.34</ele>
        <time>2026-08-10T06:52:44.822Z</time>
      </trkpt>
      <trkpt lat="50.25297" lon="5.47931">
        <ele>165.25</ele>
        <time>2026-08-10T06:52:50.822Z</time>
      </trkpt>
      <trkpt lat="50.25287" lon="5.47943">
        <ele>165.83</ele>
        <time>2026-08-10T06:52:56.772Z</time>
      </trkpt>
      <trkpt lat="50.25279" lon="5.47953">
        <ele>166.95</ele>
        <time>2026-08-10T06:53:01.776Z</time>
      </trkpt>
      <trkpt lat="50.25275" lon="5.47971">
        <ele>168.04</ele>
        <time>2026-08-10T06:53:07.773Z</time>
      </trkpt>
      <trkpt lat="50.25274" lon="5.47988">
        <ele>168.05</ele>
        <time>2026-08-10T06:53:12.773Z</time>
      </trkpt>
      <trkpt lat="50.25273" lon="5.48017">
        <ele>168.01</ele>
        <time>2026-08-10T06:53:18.764Z</time>
      </trkpt>
      <trkpt lat="50.25272" lon="5.48044">
        <ele>167.26</ele>
        <time>2026-08-10T06:53:23.774Z</time>
      </trkpt>
      <trkpt lat="50.25272" lon="5.48078">
        <ele>165.86</ele>
        <time>2026-08-10T06:53:29.773Z</time>
      </trkpt>
      <trkpt lat="50.2527" lon="5.48106">
        <ele>165.91</ele>
        <time>2026-08-10T06:53:34.773Z</time>
      </trkpt>
      <trkpt lat="50.25265" lon="5.4814">
        <ele>165.65</ele>
        <time>2026-08-10T06:53:40.773Z</time>
      </trkpt>
      <trkpt lat="50.25259" lon="5.48178">
        <ele>165.31</ele>
        <time>2026-08-10T06:53:46.773Z</time>
      </trkpt>
      <trkpt lat="50.25254" lon="5.48217">
        <ele>166.59</ele>
        <time>2026-08-10T06:53:52.773Z</time>
      </trkpt>
      <trkpt lat="50.25248" lon="5.48253">
        <ele>165.87</ele>
        <time>2026-08-10T06:53:58.773Z</time>
      </trkpt>
      <trkpt lat="50.25243" lon="5.48281">
        <ele>164.76</ele>
        <time>2026-08-10T06:54:03.775Z</time>
      </trkpt>
      <trkpt lat="50.25237" lon="5.4831">
        <ele>165.08</ele>
        <time>2026-08-10T06:54:08.826Z</time>
      </trkpt>
      <trkpt lat="50.25229" lon="5.48344">
        <ele>165.7</ele>
        <time>2026-08-10T06:54:14.820Z</time>
      </trkpt>
      <trkpt lat="50.25214" lon="5.4837">
        <ele>166.61</ele>
        <time>2026-08-10T06:54:20.820Z</time>
      </trkpt>
      <trkpt lat="50.25197" lon="5.48383">
        <ele>167.83</ele>
        <time>2026-08-10T06:54:26.794Z</time>
      </trkpt>
      <trkpt lat="50.25181" lon="5.48395">
        <ele>169.76</ele>
        <time>2026-08-10T06:54:32.794Z</time>
      </trkpt>
      <trkpt lat="50.25166" lon="5.48406">
        <ele>171.1</ele>
        <time>2026-08-10T06:54:38.818Z</time>
      </trkpt>
      <trkpt lat="50.25151" lon="5.48417">
        <ele>171.3</ele>
        <time>2026-08-10T06:54:44.818Z</time>
      </trkpt>
      <trkpt lat="50.25136" lon="5.48427">
        <ele>172.26</ele>
        <time>2026-08-10T06:54:50.820Z</time>
      </trkpt>
      <trkpt lat="50.25121" lon="5.4844">
        <ele>172.94</ele>
        <time>2026-08-10T06:54:56.839Z</time>
      </trkpt>
      <trkpt lat="50.2511" lon="5.48459">
        <ele>173.12</ele>
        <time>2026-08-10T06:55:02.774Z</time>
      </trkpt>
      <trkpt lat="50.25104" lon="5.48475">
        <ele>172.71</ele>
        <time>2026-08-10T06:55:07.775Z</time>
      </trkpt>
      <trkpt lat="50.25098" lon="5.48492">
        <ele>173.26</ele>
        <time>2026-08-10T06:55:13.773Z</time>
      </trkpt>
      <trkpt lat="50.25091" lon="5.48508">
        <ele>174.16</ele>
        <time>2026-08-10T06:55:18.781Z</time>
      </trkpt>
      <trkpt lat="50.25083" lon="5.48529">
        <ele>175.29</ele>
        <time>2026-08-10T06:55:24.779Z</time>
      </trkpt>
      <trkpt lat="50.25075" lon="5.48552">
        <ele>175.14</ele>
        <time>2026-08-10T06:55:30.772Z</time>
      </trkpt>
      <trkpt lat="50.25068" lon="5.48575">
        <ele>173.61</ele>
        <time>2026-08-10T06:55:35.772Z</time>
      </trkpt>
      <trkpt lat="50.25058" lon="5.48603">
        <ele>173.6</ele>
        <time>2026-08-10T06:55:40.777Z</time>
      </trkpt>
      <trkpt lat="50.25048" lon="5.48634">
        <ele>173.04</ele>
        <time>2026-08-10T06:55:45.777Z</time>
      </trkpt>
      <trkpt lat="50.2504" lon="5.48672">
        <ele>172.65</ele>
        <time>2026-08-10T06:55:50.824Z</time>
      </trkpt>
      <trkpt lat="50.25034" lon="5.48723">
        <ele>170.68</ele>
        <time>2026-08-10T06:55:56.778Z</time>
      </trkpt>
      <trkpt lat="50.25025" lon="5.48777">
        <ele>171.06</ele>
        <time>2026-08-10T06:56:02.774Z</time>
      </trkpt>
      <trkpt lat="50.2502" lon="5.48817">
        <ele>170.56</ele>
        <time>2026-08-10T06:56:07.774Z</time>
      </trkpt>
      <trkpt lat="50.25015" lon="5.48849">
        <ele>171.02</ele>
        <time>2026-08-10T06:56:13.760Z</time>
      </trkpt>
      <trkpt lat="50.25011" lon="5.48874">
        <ele>171.01</ele>
        <time>2026-08-10T06:56:18.786Z</time>
      </trkpt>
      <trkpt lat="50.25001" lon="5.48911">
        <ele>168.33</ele>
        <time>2026-08-10T06:56:23.786Z</time>
      </trkpt>
      <trkpt lat="50.24991" lon="5.48939">
        <ele>168.37</ele>
        <time>2026-08-10T06:56:28.790Z</time>
      </trkpt>
      <trkpt lat="50.24976" lon="5.48962">
        <ele>161.89</ele>
        <time>2026-08-10T06:56:34.773Z</time>
      </trkpt>
      <trkpt lat="50.2495" lon="5.48999">
        <ele>158.29</ele>
        <time>2026-08-10T06:56:40.767Z</time>
      </trkpt>
      <trkpt lat="50.24929" lon="5.49031">
        <ele>159.7</ele>
        <time>2026-08-10T06:56:46.768Z</time>
      </trkpt>
      <trkpt lat="50.24909" lon="5.49063">
        <ele>157.94</ele>
        <time>2026-08-10T06:56:51.775Z</time>
      </trkpt>
      <trkpt lat="50.24896" lon="5.4912">
        <ele>160.23</ele>
        <time>2026-08-10T06:56:56.835Z</time>
      </trkpt>
      <trkpt lat="50.24889" lon="5.49203">
        <ele>158.05</ele>
        <time>2026-08-10T06:57:02.831Z</time>
      </trkpt>
      <trkpt lat="50.24862" lon="5.49298">
        <ele>149.53</ele>
        <time>2026-08-10T06:57:08.820Z</time>
      </trkpt>
      <trkpt lat="50.24817" lon="5.49382">
        <ele>141.21</ele>
        <time>2026-08-10T06:57:14.819Z</time>
      </trkpt>
      <trkpt lat="50.24776" lon="5.49457">
        <ele>139.73</ele>
        <time>2026-08-10T06:57:20.820Z</time>
      </trkpt>
      <trkpt lat="50.24734" lon="5.49498">
        <ele>140.79</ele>
        <time>2026-08-10T06:57:26.838Z</time>
      </trkpt>
      <trkpt lat="50.24709" lon="5.49516">
        <ele>141.52</ele>
        <time>2026-08-10T06:57:32.830Z</time>
      </trkpt>
      <trkpt lat="50.2469" lon="5.49528">
        <ele>140.71</ele>
        <time>2026-08-10T06:57:38.820Z</time>
      </trkpt>
      <trkpt lat="50.24667" lon="5.49547">
        <ele>140.66</ele>
        <time>2026-08-10T06:57:44.824Z</time>
      </trkpt>
      <trkpt lat="50.24638" lon="5.49564">
        <ele>138.8</ele>
        <time>2026-08-10T06:57:50.823Z</time>
      </trkpt>
      <trkpt lat="50.24608" lon="5.49582">
        <ele>137.76</ele>
        <time>2026-08-10T06:57:56.833Z</time>
      </trkpt>
      <trkpt lat="50.24578" lon="5.49602">
        <ele>136.68</ele>
        <time>2026-08-10T06:58:02.827Z</time>
      </trkpt>
      <trkpt lat="50.24548" lon="5.49622">
        <ele>137.03</ele>
        <time>2026-08-10T06:58:08.820Z</time>
      </trkpt>
      <trkpt lat="50.24519" lon="5.49641">
        <ele>138.16</ele>
        <time>2026-08-10T06:58:14.824Z</time>
      </trkpt>
      <trkpt lat="50.24491" lon="5.49657">
        <ele>138.18</ele>
        <time>2026-08-10T06:58:20.823Z</time>
      </trkpt>
      <trkpt lat="50.24463" lon="5.49674">
        <ele>137.87</ele>
        <time>2026-08-10T06:58:26.813Z</time>
      </trkpt>
      <trkpt lat="50.24435" lon="5.49693">
        <ele>138.91</ele>
        <time>2026-08-10T06:58:32.829Z</time>
      </trkpt>
      <trkpt lat="50.24407" lon="5.49713">
        <ele>138.7</ele>
        <time>2026-08-10T06:58:38.824Z</time>
      </trkpt>
      <trkpt lat="50.24379" lon="5.49736">
        <ele>138.37</ele>
        <time>2026-08-10T06:58:44.825Z</time>
      </trkpt>
      <trkpt lat="50.24352" lon="5.49758">
        <ele>137.33</ele>
        <time>2026-08-10T06:58:50.821Z</time>
      </trkpt>
      <trkpt lat="50.24325" lon="5.49783">
        <ele>136.6</ele>
        <time>2026-08-10T06:58:56.838Z</time>
      </trkpt>
      <trkpt lat="50.24299" lon="5.49812">
        <ele>137.6</ele>
        <time>2026-08-10T06:59:02.828Z</time>
      </trkpt>
      <trkpt lat="50.24274" lon="5.4984">
        <ele>138.11</ele>
        <time>2026-08-10T06:59:08.825Z</time>
      </trkpt>
      <trkpt lat="50.24251" lon="5.4987">
        <ele>138.53</ele>
        <time>2026-08-10T06:59:14.825Z</time>
      </trkpt>
      <trkpt lat="50.2423" lon="5.49903">
        <ele>138.15</ele>
        <time>2026-08-10T06:59:20.824Z</time>
      </trkpt>
      <trkpt lat="50.24209" lon="5.49934">
        <ele>138.16</ele>
        <time>2026-08-10T06:59:26.835Z</time>
      </trkpt>
      <trkpt lat="50.24187" lon="5.49967">
        <ele>137.32</ele>
        <time>2026-08-10T06:59:32.831Z</time>
      </trkpt>
      <trkpt lat="50.24165" lon="5.49997">
        <ele>137.82</ele>
        <time>2026-08-10T06:59:38.825Z</time>
      </trkpt>
      <trkpt lat="50.24141" lon="5.50028">
        <ele>138.62</ele>
        <time>2026-08-10T06:59:44.827Z</time>
      </trkpt>
      <trkpt lat="50.24117" lon="5.5006">
        <ele>139.53</ele>
        <time>2026-08-10T06:59:50.828Z</time>
      </trkpt>
      <trkpt lat="50.24093" lon="5.50093">
        <ele>139.77</ele>
        <time>2026-08-10T06:59:56.837Z</time>
      </trkpt>
      <trkpt lat="50.2407" lon="5.50126">
        <ele>139.84</ele>
        <time>2026-08-10T07:00:02.832Z</time>
      </trkpt>
      <trkpt lat="50.24048" lon="5.50159">
        <ele>139.69</ele>
        <time>2026-08-10T07:00:08.839Z</time>
      </trkpt>
      <trkpt lat="50.24026" lon="5.50191">
        <ele>140.29</ele>
        <time>2026-08-10T07:00:14.832Z</time>
      </trkpt>
      <trkpt lat="50.24007" lon="5.50225">
        <ele>141.35</ele>
        <time>2026-08-10T07:00:20.834Z</time>
      </trkpt>
      <trkpt lat="50.23986" lon="5.50259">
        <ele>140.99</ele>
        <time>2026-08-10T07:00:26.838Z</time>
      </trkpt>
      <trkpt lat="50.23966" lon="5.50294">
        <ele>140.38</ele>
        <time>2026-08-10T07:00:32.833Z</time>
      </trkpt>
      <trkpt lat="50.23946" lon="5.50326">
        <ele>140.02</ele>
        <time>2026-08-10T07:00:38.837Z</time>
      </trkpt>
      <trkpt lat="50.23924" lon="5.50358">
        <ele>140.06</ele>
        <time>2026-08-10T07:00:44.835Z</time>
      </trkpt>
      <trkpt lat="50.23903" lon="5.50387">
        <ele>140.54</ele>
        <time>2026-08-10T07:00:50.835Z</time>
      </trkpt>
      <trkpt lat="50.23882" lon="5.50416">
        <ele>140.85</ele>
        <time>2026-08-10T07:00:56.836Z</time>
      </trkpt>
      <trkpt lat="50.23859" lon="5.50445">
        <ele>140.47</ele>
        <time>2026-08-10T07:01:02.826Z</time>
      </trkpt>
      <trkpt lat="50.23837" lon="5.50474">
        <ele>139.8</ele>
        <time>2026-08-10T07:01:08.840Z</time>
      </trkpt>
      <trkpt lat="50.23814" lon="5.505">
        <ele>139.32</ele>
        <time>2026-08-10T07:01:14.842Z</time>
      </trkpt>
      <trkpt lat="50.23791" lon="5.50528">
        <ele>139.01</ele>
        <time>2026-08-10T07:01:20.841Z</time>
      </trkpt>
      <trkpt lat="50.23768" lon="5.50557">
        <ele>139.35</ele>
        <time>2026-08-10T07:01:26.841Z</time>
      </trkpt>
      <trkpt lat="50.23745" lon="5.5059">
        <ele>138.85</ele>
        <time>2026-08-10T07:01:32.832Z</time>
      </trkpt>
      <trkpt lat="50.23722" lon="5.50621">
        <ele>138.95</ele>
        <time>2026-08-10T07:01:38.837Z</time>
      </trkpt>
      <trkpt lat="50.23699" lon="5.50651">
        <ele>139.88</ele>
        <time>2026-08-10T07:01:44.839Z</time>
      </trkpt>
      <trkpt lat="50.23677" lon="5.50683">
        <ele>139.42</ele>
        <time>2026-08-10T07:01:50.841Z</time>
      </trkpt>
      <trkpt lat="50.23656" lon="5.50714">
        <ele>140.14</ele>
        <time>2026-08-10T07:01:56.840Z</time>
      </trkpt>
      <trkpt lat="50.23636" lon="5.50743">
        <ele>140.54</ele>
        <time>2026-08-10T07:02:02.839Z</time>
      </trkpt>
      <trkpt lat="50.23614" lon="5.50775">
        <ele>140.99</ele>
        <time>2026-08-10T07:02:08.840Z</time>
      </trkpt>
      <trkpt lat="50.23592" lon="5.50807">
        <ele>140.8</ele>
        <time>2026-08-10T07:02:14.834Z</time>
      </trkpt>
      <trkpt lat="50.23571" lon="5.50836">
        <ele>141.74</ele>
        <time>2026-08-10T07:02:20.835Z</time>
      </trkpt>
      <trkpt lat="50.2355" lon="5.50858">
        <ele>142.46</ele>
        <time>2026-08-10T07:02:26.834Z</time>
      </trkpt>
      <trkpt lat="50.23531" lon="5.50889">
        <ele>142.59</ele>
        <time>2026-08-10T07:02:32.792Z</time>
      </trkpt>
      <trkpt lat="50.2351" lon="5.50919">
        <ele>143.04</ele>
        <time>2026-08-10T07:02:38.840Z</time>
      </trkpt>
      <trkpt lat="50.23491" lon="5.50947">
        <ele>141.69</ele>
        <time>2026-08-10T07:02:44.837Z</time>
      </trkpt>
      <trkpt lat="50.23476" lon="5.50972">
        <ele>140.85</ele>
        <time>2026-08-10T07:02:50.838Z</time>
      </trkpt>
      <trkpt lat="50.23459" lon="5.50997">
        <ele>142.2</ele>
        <time>2026-08-10T07:02:56.830Z</time>
      </trkpt>
      <trkpt lat="50.23442" lon="5.51025">
        <ele>143.86</ele>
        <time>2026-08-10T07:03:02.832Z</time>
      </trkpt>
      <trkpt lat="50.23423" lon="5.51049">
        <ele>144.08</ele>
        <time>2026-08-10T07:03:08.841Z</time>
      </trkpt>
      <trkpt lat="50.23405" lon="5.5107">
        <ele>143.4</ele>
        <time>2026-08-10T07:03:14.834Z</time>
      </trkpt>
      <trkpt lat="50.2339" lon="5.51101">
        <ele>143.68</ele>
        <time>2026-08-10T07:03:20.838Z</time>
      </trkpt>
      <trkpt lat="50.2337" lon="5.51129">
        <ele>144.32</ele>
        <time>2026-08-10T07:03:26.792Z</time>
      </trkpt>
      <trkpt lat="50.23351" lon="5.51158">
        <ele>143.56</ele>
        <time>2026-08-10T07:03:32.833Z</time>
      </trkpt>
      <trkpt lat="50.23332" lon="5.51185">
        <ele>143.34</ele>
        <time>2026-08-10T07:03:38.834Z</time>
      </trkpt>
      <trkpt lat="50.23313" lon="5.51214">
        <ele>142.7</ele>
        <time>2026-08-10T07:03:44.838Z</time>
      </trkpt>
      <trkpt lat="50.23296" lon="5.51239">
        <ele>144.9</ele>
        <time>2026-08-10T07:03:50.840Z</time>
      </trkpt>
      <trkpt lat="50.23276" lon="5.51266">
        <ele>146.14</ele>
        <time>2026-08-10T07:03:56.779Z</time>
      </trkpt>
      <trkpt lat="50.23258" lon="5.51293">
        <ele>144.75</ele>
        <time>2026-08-10T07:04:02.798Z</time>
      </trkpt>
      <trkpt lat="50.23239" lon="5.5132">
        <ele>144.32</ele>
        <time>2026-08-10T07:04:08.836Z</time>
      </trkpt>
      <trkpt lat="50.23222" lon="5.51346">
        <ele>144.37</ele>
        <time>2026-08-10T07:04:14.843Z</time>
      </trkpt>
      <trkpt lat="50.23203" lon="5.51373">
        <ele>145.12</ele>
        <time>2026-08-10T07:04:20.842Z</time>
      </trkpt>
      <trkpt lat="50.23186" lon="5.51399">
        <ele>144.54</ele>
        <time>2026-08-10T07:04:26.830Z</time>
      </trkpt>
      <trkpt lat="50.23169" lon="5.51426">
        <ele>144.27</ele>
        <time>2026-08-10T07:04:32.813Z</time>
      </trkpt>
      <trkpt lat="50.23152" lon="5.51454">
        <ele>144.35</ele>
        <time>2026-08-10T07:04:38.839Z</time>
      </trkpt>
      <trkpt lat="50.23138" lon="5.51477">
        <ele>144.61</ele>
        <time>2026-08-10T07:04:44.839Z</time>
      </trkpt>
      <trkpt lat="50.23147" lon="5.51483">
        <ele>145.37</ele>
        <time>2026-08-10T07:04:54.782Z</time>
      </trkpt>
      <trkpt lat="50.23158" lon="5.515">
        <ele>144.49</ele>
        <time>2026-08-10T07:04:59.782Z</time>
      </trkpt>
      <trkpt lat="50.23175" lon="5.51534">
        <ele>142.7</ele>
        <time>2026-08-10T07:05:05.778Z</time>
      </trkpt>
      <trkpt lat="50.23196" lon="5.51568">
        <ele>142.52</ele>
        <time>2026-08-10T07:05:11.787Z</time>
      </trkpt>
      <trkpt lat="50.23211" lon="5.51607">
        <ele>142.23</ele>
        <time>2026-08-10T07:05:17.777Z</time>
      </trkpt>
      <trkpt lat="50.23197" lon="5.51643">
        <ele>140.17</ele>
        <time>2026-08-10T07:05:22.779Z</time>
      </trkpt>
      <trkpt lat="50.2318" lon="5.51689">
        <ele>139.47</ele>
        <time>2026-08-10T07:05:28.781Z</time>
      </trkpt>
      <trkpt lat="50.23161" lon="5.5173">
        <ele>140.9</ele>
        <time>2026-08-10T07:05:34.775Z</time>
      </trkpt>
      <trkpt lat="50.23142" lon="5.51767">
        <ele>143.06</ele>
        <time>2026-08-10T07:05:40.776Z</time>
      </trkpt>
      <trkpt lat="50.23119" lon="5.5178">
        <ele>145.76</ele>
        <time>2026-08-10T07:05:45.778Z</time>
      </trkpt>
      <trkpt lat="50.23099" lon="5.5179">
        <ele>144.82</ele>
        <time>2026-08-10T07:05:50.837Z</time>
      </trkpt>
      <trkpt lat="50.23082" lon="5.51813">
        <ele>146.97</ele>
        <time>2026-08-10T07:05:56.834Z</time>
      </trkpt>
      <trkpt lat="50.23068" lon="5.51841">
        <ele>149.73</ele>
        <time>2026-08-10T07:06:02.831Z</time>
      </trkpt>
      <trkpt lat="50.2306" lon="5.5188">
        <ele>152.48</ele>
        <time>2026-08-10T07:06:08.836Z</time>
      </trkpt>
      <trkpt lat="50.23062" lon="5.51935">
        <ele>148.55</ele>
        <time>2026-08-10T07:06:14.835Z</time>
      </trkpt>
      <trkpt lat="50.23066" lon="5.51993">
        <ele>146.18</ele>
        <time>2026-08-10T07:06:20.833Z</time>
      </trkpt>
      <trkpt lat="50.23067" lon="5.52047">
        <ele>142.67</ele>
        <time>2026-08-10T07:06:26.796Z</time>
      </trkpt>
      <trkpt lat="50.23059" lon="5.52091">
        <ele>140.5</ele>
        <time>2026-08-10T07:06:32.803Z</time>
      </trkpt>
      <trkpt lat="50.23046" lon="5.52128">
        <ele>134.83</ele>
        <time>2026-08-10T07:06:38.840Z</time>
      </trkpt>
      <trkpt lat="50.23029" lon="5.5217">
        <ele>130.26</ele>
        <time>2026-08-10T07:06:44.836Z</time>
      </trkpt>
      <trkpt lat="50.23009" lon="5.52212">
        <ele>129.29</ele>
        <time>2026-08-10T07:06:50.839Z</time>
      </trkpt>
      <trkpt lat="50.22989" lon="5.52248">
        <ele>130.01</ele>
        <time>2026-08-10T07:06:56.831Z</time>
      </trkpt>
      <trkpt lat="50.22968" lon="5.52292">
        <ele>131.81</ele>
        <time>2026-08-10T07:07:02.832Z</time>
      </trkpt>
      <trkpt lat="50.22949" lon="5.52336">
        <ele>134.34</ele>
        <time>2026-08-10T07:07:08.837Z</time>
      </trkpt>
      <trkpt lat="50.2293" lon="5.52378">
        <ele>136.18</ele>
        <time>2026-08-10T07:07:14.833Z</time>
      </trkpt>
      <trkpt lat="50.22912" lon="5.52423">
        <ele>138.17</ele>
        <time>2026-08-10T07:07:20.840Z</time>
      </trkpt>
      <trkpt lat="50.2289" lon="5.52463">
        <ele>140.67</ele>
        <time>2026-08-10T07:07:26.837Z</time>
      </trkpt>
      <trkpt lat="50.22865" lon="5.52497">
        <ele>143.18</ele>
        <time>2026-08-10T07:07:32.828Z</time>
      </trkpt>
      <trkpt lat="50.2284" lon="5.52529">
        <ele>144.89</ele>
        <time>2026-08-10T07:07:38.835Z</time>
      </trkpt>
      <trkpt lat="50.22815" lon="5.5256">
        <ele>144.84</ele>
        <time>2026-08-10T07:07:44.835Z</time>
      </trkpt>
      <trkpt lat="50.22787" lon="5.52584">
        <ele>145.65</ele>
        <time>2026-08-10T07:07:50.841Z</time>
      </trkpt>
      <trkpt lat="50.22756" lon="5.52601">
        <ele>146.99</ele>
        <time>2026-08-10T07:07:56.835Z</time>
      </trkpt>
      <trkpt lat="50.22726" lon="5.52613">
        <ele>148.97</ele>
        <time>2026-08-10T07:08:02.837Z</time>
      </trkpt>
      <trkpt lat="50.22698" lon="5.52618">
        <ele>148.05</ele>
        <time>2026-08-10T07:08:08.841Z</time>
      </trkpt>
      <trkpt lat="50.22668" lon="5.52621">
        <ele>144.43</ele>
        <time>2026-08-10T07:08:14.837Z</time>
      </trkpt>
      <trkpt lat="50.22636" lon="5.52619">
        <ele>143.18</ele>
        <time>2026-08-10T07:08:20.836Z</time>
      </trkpt>
      <trkpt lat="50.22605" lon="5.52617">
        <ele>145.27</ele>
        <time>2026-08-10T07:08:26.788Z</time>
      </trkpt>
      <trkpt lat="50.22573" lon="5.52618">
        <ele>147.38</ele>
        <time>2026-08-10T07:08:32.781Z</time>
      </trkpt>
      <trkpt lat="50.22542" lon="5.52619">
        <ele>147.9</ele>
        <time>2026-08-10T07:08:38.838Z</time>
      </trkpt>
      <trkpt lat="50.22516" lon="5.52615">
        <ele>149.44</ele>
        <time>2026-08-10T07:08:44.838Z</time>
      </trkpt>
      <trkpt lat="50.22489" lon="5.52609">
        <ele>149.18</ele>
        <time>2026-08-10T07:08:50.839Z</time>
      </trkpt>
      <trkpt lat="50.22463" lon="5.52599">
        <ele>148.94</ele>
        <time>2026-08-10T07:08:56.843Z</time>
      </trkpt>
      <trkpt lat="50.2244" lon="5.52582">
        <ele>151.04</ele>
        <time>2026-08-10T07:09:02.794Z</time>
      </trkpt>
      <trkpt lat="50.22421" lon="5.52573">
        <ele>152.68</ele>
        <time>2026-08-10T07:09:08.839Z</time>
      </trkpt>
      <trkpt lat="50.22405" lon="5.52597">
        <ele>151.53</ele>
        <time>2026-08-10T07:09:14.840Z</time>
      </trkpt>
      <trkpt lat="50.2238" lon="5.52601">
        <ele>150.86</ele>
        <time>2026-08-10T07:09:20.837Z</time>
      </trkpt>
      <trkpt lat="50.22356" lon="5.526">
        <ele>149.7</ele>
        <time>2026-08-10T07:09:26.837Z</time>
      </trkpt>
      <trkpt lat="50.22336" lon="5.52605">
        <ele>151.38</ele>
        <time>2026-08-10T07:09:32.838Z</time>
      </trkpt>
      <trkpt lat="50.22321" lon="5.5261">
        <ele>153.57</ele>
        <time>2026-08-10T07:09:38.832Z</time>
      </trkpt>
      <trkpt lat="50.22295" lon="5.52614">
        <ele>151.72</ele>
        <time>2026-08-10T07:09:44.839Z</time>
      </trkpt>
      <trkpt lat="50.22259" lon="5.52585">
        <ele>150.85</ele>
        <time>2026-08-10T07:09:50.841Z</time>
      </trkpt>
      <trkpt lat="50.22224" lon="5.52579">
        <ele>149.41</ele>
        <time>2026-08-10T07:09:56.837Z</time>
      </trkpt>
      <trkpt lat="50.22189" lon="5.52569">
        <ele>147.31</ele>
        <time>2026-08-10T07:10:02.838Z</time>
      </trkpt>
      <trkpt lat="50.22157" lon="5.52553">
        <ele>148.96</ele>
        <time>2026-08-10T07:10:08.837Z</time>
      </trkpt>
      <trkpt lat="50.22127" lon="5.52532">
        <ele>150.47</ele>
        <time>2026-08-10T07:10:14.840Z</time>
      </trkpt>
      <trkpt lat="50.22097" lon="5.52512">
        <ele>150.25</ele>
        <time>2026-08-10T07:10:20.834Z</time>
      </trkpt>
      <trkpt lat="50.22066" lon="5.5249">
        <ele>147.34</ele>
        <time>2026-08-10T07:10:26.838Z</time>
      </trkpt>
      <trkpt lat="50.22036" lon="5.52469">
        <ele>146.54</ele>
        <time>2026-08-10T07:10:32.829Z</time>
      </trkpt>
      <trkpt lat="50.22006" lon="5.52445">
        <ele>146.68</ele>
        <time>2026-08-10T07:10:38.838Z</time>
      </trkpt>
      <trkpt lat="50.21977" lon="5.52421">
        <ele>147.16</ele>
        <time>2026-08-10T07:10:44.837Z</time>
      </trkpt>
      <trkpt lat="50.21948" lon="5.52401">
        <ele>148.17</ele>
        <time>2026-08-10T07:10:50.840Z</time>
      </trkpt>
      <trkpt lat="50.21918" lon="5.52385">
        <ele>147.93</ele>
        <time>2026-08-10T07:10:56.814Z</time>
      </trkpt>
      <trkpt lat="50.21889" lon="5.52366">
        <ele>146.97</ele>
        <time>2026-08-10T07:11:02.842Z</time>
      </trkpt>
      <trkpt lat="50.21859" lon="5.52349">
        <ele>147.29</ele>
        <time>2026-08-10T07:11:08.839Z</time>
      </trkpt>
      <trkpt lat="50.21828" lon="5.52337">
        <ele>148.12</ele>
        <time>2026-08-10T07:11:14.844Z</time>
      </trkpt>
      <trkpt lat="50.21797" lon="5.52325">
        <ele>148.82</ele>
        <time>2026-08-10T07:11:20.837Z</time>
      </trkpt>
      <trkpt lat="50.21767" lon="5.52314">
        <ele>150.61</ele>
        <time>2026-08-10T07:11:26.841Z</time>
      </trkpt>
      <trkpt lat="50.21739" lon="5.52302">
        <ele>152.4</ele>
        <time>2026-08-10T07:11:32.836Z</time>
      </trkpt>
      <trkpt lat="50.2171" lon="5.5229">
        <ele>152.85</ele>
        <time>2026-08-10T07:11:38.838Z</time>
      </trkpt>
      <trkpt lat="50.2168" lon="5.52282">
        <ele>152.25</ele>
        <time>2026-08-10T07:11:44.836Z</time>
      </trkpt>
      <trkpt lat="50.21652" lon="5.52284">
        <ele>149.5</ele>
        <time>2026-08-10T07:11:50.835Z</time>
      </trkpt>
      <trkpt lat="50.21629" lon="5.52304">
        <ele>150.21</ele>
        <time>2026-08-10T07:11:56.838Z</time>
      </trkpt>
      <trkpt lat="50.21611" lon="5.52315">
        <ele>153.47</ele>
        <time>2026-08-10T07:12:02.838Z</time>
      </trkpt>
      <trkpt lat="50.21593" lon="5.52322">
        <ele>155.5</ele>
        <time>2026-08-10T07:12:08.839Z</time>
      </trkpt>
      <trkpt lat="50.21571" lon="5.52338">
        <ele>157.44</ele>
        <time>2026-08-10T07:12:14.836Z</time>
      </trkpt>
      <trkpt lat="50.21559" lon="5.52363">
        <ele>158.61</ele>
        <time>2026-08-10T07:12:20.843Z</time>
      </trkpt>
      <trkpt lat="50.21559" lon="5.52398">
        <ele>159.35</ele>
        <time>2026-08-10T07:12:26.837Z</time>
      </trkpt>
      <trkpt lat="50.21558" lon="5.52428">
        <ele>158</ele>
        <time>2026-08-10T07:12:32.837Z</time>
      </trkpt>
      <trkpt lat="50.21552" lon="5.52455">
        <ele>160.06</ele>
        <time>2026-08-10T07:12:38.839Z</time>
      </trkpt>
      <trkpt lat="50.21544" lon="5.52478">
        <ele>159.16</ele>
        <time>2026-08-10T07:12:44.839Z</time>
      </trkpt>
      <trkpt lat="50.21535" lon="5.52495">
        <ele>159.48</ele>
        <time>2026-08-10T07:12:50.844Z</time>
      </trkpt>
      <trkpt lat="50.21522" lon="5.52475">
        <ele>159.45</ele>
        <time>2026-08-10T07:12:56.841Z</time>
      </trkpt>
      <trkpt lat="50.21495" lon="5.52443">
        <ele>157.93</ele>
        <time>2026-08-10T07:13:02.837Z</time>
      </trkpt>
      <trkpt lat="50.21468" lon="5.52399">
        <ele>154.04</ele>
        <time>2026-08-10T07:13:08.836Z</time>
      </trkpt>
      <trkpt lat="50.21431" lon="5.52381">
        <ele>152.63</ele>
        <time>2026-08-10T07:13:14.838Z</time>
      </trkpt>
      <trkpt lat="50.21393" lon="5.5238">
        <ele>154.31</ele>
        <time>2026-08-10T07:13:20.839Z</time>
      </trkpt>
      <trkpt lat="50.21356" lon="5.5238">
        <ele>154.22</ele>
        <time>2026-08-10T07:13:26.838Z</time>
      </trkpt>
      <trkpt lat="50.2132" lon="5.52377">
        <ele>154.85</ele>
        <time>2026-08-10T07:13:32.833Z</time>
      </trkpt>
      <trkpt lat="50.21284" lon="5.52379">
        <ele>155.67</ele>
        <time>2026-08-10T07:13:38.838Z</time>
      </trkpt>
      <trkpt lat="50.2125" lon="5.52392">
        <ele>155.96</ele>
        <time>2026-08-10T07:13:44.838Z</time>
      </trkpt>
      <trkpt lat="50.21224" lon="5.52423">
        <ele>156.54</ele>
        <time>2026-08-10T07:13:50.838Z</time>
      </trkpt>
      <trkpt lat="50.21202" lon="5.52458">
        <ele>158.61</ele>
        <time>2026-08-10T07:13:56.838Z</time>
      </trkpt>
      <trkpt lat="50.21181" lon="5.52493">
        <ele>158.16</ele>
        <time>2026-08-10T07:14:02.839Z</time>
      </trkpt>
      <trkpt lat="50.21152" lon="5.52525">
        <ele>155.91</ele>
        <time>2026-08-10T07:14:08.836Z</time>
      </trkpt>
      <trkpt lat="50.2112" lon="5.52546">
        <ele>153.8</ele>
        <time>2026-08-10T07:14:14.841Z</time>
      </trkpt>
      <trkpt lat="50.21084" lon="5.52563">
        <ele>154.76</ele>
        <time>2026-08-10T07:14:20.837Z</time>
      </trkpt>
      <trkpt lat="50.21051" lon="5.52583">
        <ele>157.23</ele>
        <time>2026-08-10T07:14:26.839Z</time>
      </trkpt>
      <trkpt lat="50.2102" lon="5.52604">
        <ele>156.03</ele>
        <time>2026-08-10T07:14:32.842Z</time>
      </trkpt>
      <trkpt lat="50.21024" lon="5.52644">
        <ele>154.08</ele>
        <time>2026-08-10T07:14:38.839Z</time>
      </trkpt>
      <trkpt lat="50.21043" lon="5.52678">
        <ele>152.69</ele>
        <time>2026-08-10T07:14:44.838Z</time>
      </trkpt>
      <trkpt lat="50.21043" lon="5.5272">
        <ele>153.15</ele>
        <time>2026-08-10T07:14:50.840Z</time>
      </trkpt>
      <trkpt lat="50.21026" lon="5.52766">
        <ele>154.18</ele>
        <time>2026-08-10T07:14:56.840Z</time>
      </trkpt>
      <trkpt lat="50.21011" lon="5.52813">
        <ele>156.19</ele>
        <time>2026-08-10T07:15:02.841Z</time>
      </trkpt>
      <trkpt lat="50.20998" lon="5.52861">
        <ele>156.16</ele>
        <time>2026-08-10T07:15:08.840Z</time>
      </trkpt>
      <trkpt lat="50.2099" lon="5.52909">
        <ele>155.56</ele>
        <time>2026-08-10T07:15:14.840Z</time>
      </trkpt>
      <trkpt lat="50.20991" lon="5.5296">
        <ele>155.76</ele>
        <time>2026-08-10T07:15:20.840Z</time>
      </trkpt>
      <trkpt lat="50.21007" lon="5.52991">
        <ele>156.6</ele>
        <time>2026-08-10T07:15:26.836Z</time>
      </trkpt>
      <trkpt lat="50.21008" lon="5.53037">
        <ele>154.98</ele>
        <time>2026-08-10T07:15:32.838Z</time>
      </trkpt>
      <trkpt lat="50.21001" lon="5.53083">
        <ele>153.13</ele>
        <time>2026-08-10T07:15:38.840Z</time>
      </trkpt>
      <trkpt lat="50.20996" lon="5.53118">
        <ele>153.48</ele>
        <time>2026-08-10T07:15:44.839Z</time>
      </trkpt>
      <trkpt lat="50.20983" lon="5.53123">
        <ele>154.66</ele>
        <time>2026-08-10T07:15:50.840Z</time>
      </trkpt>
      <trkpt lat="50.20965" lon="5.5313">
        <ele>154.22</ele>
        <time>2026-08-10T07:15:56.838Z</time>
      </trkpt>
      <trkpt lat="50.20964" lon="5.53159">
        <ele>152.68</ele>
        <time>2026-08-10T07:16:02.841Z</time>
      </trkpt>
      <trkpt lat="50.20938" lon="5.53174">
        <ele>152.74</ele>
        <time>2026-08-10T07:16:08.842Z</time>
      </trkpt>
      <trkpt lat="50.20908" lon="5.53173">
        <ele>153.1</ele>
        <time>2026-08-10T07:16:14.838Z</time>
      </trkpt>
      <trkpt lat="50.20878" lon="5.53172">
        <ele>153.27</ele>
        <time>2026-08-10T07:16:20.841Z</time>
      </trkpt>
      <trkpt lat="50.20847" lon="5.53171">
        <ele>153.43</ele>
        <time>2026-08-10T07:16:26.841Z</time>
      </trkpt>
      <trkpt lat="50.20817" lon="5.5317">
        <ele>153.18</ele>
        <time>2026-08-10T07:16:32.841Z</time>
      </trkpt>
      <trkpt lat="50.20801" lon="5.53149">
        <ele>154.55</ele>
        <time>2026-08-10T07:16:38.835Z</time>
      </trkpt>
      <trkpt lat="50.20791" lon="5.53156">
        <ele>157.22</ele>
        <time>2026-08-10T07:16:44.828Z</time>
      </trkpt>
      <trkpt lat="50.20789" lon="5.53177">
        <ele>158.17</ele>
        <time>2026-08-10T07:16:50.842Z</time>
      </trkpt>
      <trkpt lat="50.20785" lon="5.53193">
        <ele>157.28</ele>
        <time>2026-08-10T07:17:04.784Z</time>
      </trkpt>
      <trkpt lat="50.20782" lon="5.53222">
        <ele>157</ele>
        <time>2026-08-10T07:17:10.780Z</time>
      </trkpt>
      <trkpt lat="50.20782" lon="5.53252">
        <ele>157.91</ele>
        <time>2026-08-10T07:17:16.781Z</time>
      </trkpt>
      <trkpt lat="50.20781" lon="5.53284">
        <ele>158.9</ele>
        <time>2026-08-10T07:17:22.784Z</time>
      </trkpt>
      <trkpt lat="50.20781" lon="5.53317">
        <ele>158.19</ele>
        <time>2026-08-10T07:17:28.779Z</time>
      </trkpt>
      <trkpt lat="50.20783" lon="5.53348">
        <ele>158.84</ele>
        <time>2026-08-10T07:17:33.781Z</time>
      </trkpt>
      <trkpt lat="50.20786" lon="5.53379">
        <ele>158.97</ele>
        <time>2026-08-10T07:17:38.841Z</time>
      </trkpt>
      <trkpt lat="50.2079" lon="5.53415">
        <ele>157.1</ele>
        <time>2026-08-10T07:17:44.842Z</time>
      </trkpt>
      <trkpt lat="50.20797" lon="5.53453">
        <ele>156.25</ele>
        <time>2026-08-10T07:17:50.840Z</time>
      </trkpt>
      <trkpt lat="50.20805" lon="5.53488">
        <ele>156.71</ele>
        <time>2026-08-10T07:17:56.800Z</time>
      </trkpt>
      <trkpt lat="50.20813" lon="5.53524">
        <ele>157.66</ele>
        <time>2026-08-10T07:18:02.839Z</time>
      </trkpt>
      <trkpt lat="50.20824" lon="5.53565">
        <ele>157.74</ele>
        <time>2026-08-10T07:18:08.838Z</time>
      </trkpt>
      <trkpt lat="50.20835" lon="5.53607">
        <ele>157.14</ele>
        <time>2026-08-10T07:18:14.836Z</time>
      </trkpt>
      <trkpt lat="50.2084" lon="5.53647">
        <ele>158.5</ele>
        <time>2026-08-10T07:18:20.840Z</time>
      </trkpt>
      <trkpt lat="50.20845" lon="5.53683">
        <ele>159.04</ele>
        <time>2026-08-10T07:18:26.839Z</time>
      </trkpt>
      <trkpt lat="50.20853" lon="5.53726">
        <ele>158.63</ele>
        <time>2026-08-10T07:18:32.835Z</time>
      </trkpt>
      <trkpt lat="50.20868" lon="5.5375">
        <ele>157.87</ele>
        <time>2026-08-10T07:18:38.841Z</time>
      </trkpt>
      <trkpt lat="50.2086" lon="5.53741">
        <ele>158.79</ele>
        <time>2026-08-10T07:18:48.809Z</time>
      </trkpt>
      <trkpt lat="50.20846" lon="5.53747">
        <ele>159.99</ele>
        <time>2026-08-10T07:18:59.777Z</time>
      </trkpt>
      <trkpt lat="50.20835" lon="5.53759">
        <ele>160.45</ele>
        <time>2026-08-10T07:19:04.779Z</time>
      </trkpt>
      <trkpt lat="50.20825" lon="5.53767">
        <ele>160.23</ele>
        <time>2026-08-10T07:19:10.765Z</time>
      </trkpt>
      <trkpt lat="50.20815" lon="5.53769">
        <ele>161.32</ele>
        <time>2026-08-10T07:19:15.776Z</time>
      </trkpt>
      <trkpt lat="50.20804" lon="5.53766">
        <ele>162.03</ele>
        <time>2026-08-10T07:19:20.835Z</time>
      </trkpt>
      <trkpt lat="50.20789" lon="5.53756">
        <ele>163.22</ele>
        <time>2026-08-10T07:19:26.823Z</time>
      </trkpt>
      <trkpt lat="50.20772" lon="5.53761">
        <ele>164.95</ele>
        <time>2026-08-10T07:19:32.840Z</time>
      </trkpt>
      <trkpt lat="50.20757" lon="5.5376">
        <ele>166.86</ele>
        <time>2026-08-10T07:19:38.842Z</time>
      </trkpt>
      <trkpt lat="50.2074" lon="5.53758">
        <ele>167.29</ele>
        <time>2026-08-10T07:19:44.840Z</time>
      </trkpt>
      <trkpt lat="50.20722" lon="5.53755">
        <ele>166.93</ele>
        <time>2026-08-10T07:19:50.838Z</time>
      </trkpt>
      <trkpt lat="50.20705" lon="5.53746">
        <ele>166.04</ele>
        <time>2026-08-10T07:19:56.838Z</time>
      </trkpt>
      <trkpt lat="50.20686" lon="5.53735">
        <ele>165.37</ele>
        <time>2026-08-10T07:20:02.843Z</time>
      </trkpt>
      <trkpt lat="50.20666" lon="5.53718">
        <ele>162.91</ele>
        <time>2026-08-10T07:20:08.835Z</time>
      </trkpt>
      <trkpt lat="50.20644" lon="5.53702">
        <ele>160.33</ele>
        <time>2026-08-10T07:20:14.835Z</time>
      </trkpt>
      <trkpt lat="50.20623" lon="5.53684">
        <ele>158.63</ele>
        <time>2026-08-10T07:20:20.842Z</time>
      </trkpt>
      <trkpt lat="50.20601" lon="5.53658">
        <ele>157.88</ele>
        <time>2026-08-10T07:20:26.835Z</time>
      </trkpt>
      <trkpt lat="50.20573" lon="5.53628">
        <ele>159.18</ele>
        <time>2026-08-10T07:20:32.842Z</time>
      </trkpt>
      <trkpt lat="50.20541" lon="5.53597">
        <ele>160.59</ele>
        <time>2026-08-10T07:20:38.841Z</time>
      </trkpt>
      <trkpt lat="50.20505" lon="5.53571">
        <ele>161.27</ele>
        <time>2026-08-10T07:20:44.841Z</time>
      </trkpt>
      <trkpt lat="50.20469" lon="5.53549">
        <ele>162.55</ele>
        <time>2026-08-10T07:20:50.836Z</time>
      </trkpt>
      <trkpt lat="50.2043" lon="5.53523">
        <ele>162.94</ele>
        <time>2026-08-10T07:20:56.786Z</time>
      </trkpt>
      <trkpt lat="50.20393" lon="5.53489">
        <ele>163.28</ele>
        <time>2026-08-10T07:21:02.842Z</time>
      </trkpt>
      <trkpt lat="50.20359" lon="5.53456">
        <ele>163.77</ele>
        <time>2026-08-10T07:21:08.840Z</time>
      </trkpt>
      <trkpt lat="50.20326" lon="5.53427">
        <ele>164.11</ele>
        <time>2026-08-10T07:21:14.841Z</time>
      </trkpt>
      <trkpt lat="50.20291" lon="5.53406">
        <ele>162.89</ele>
        <time>2026-08-10T07:21:20.841Z</time>
      </trkpt>
      <trkpt lat="50.20253" lon="5.53395">
        <ele>161.79</ele>
        <time>2026-08-10T07:21:26.840Z</time>
      </trkpt>
      <trkpt lat="50.20216" lon="5.53392">
        <ele>160</ele>
        <time>2026-08-10T07:21:32.805Z</time>
      </trkpt>
      <trkpt lat="50.20179" lon="5.53393">
        <ele>159.58</ele>
        <time>2026-08-10T07:21:38.840Z</time>
      </trkpt>
      <trkpt lat="50.20145" lon="5.53392">
        <ele>159.87</ele>
        <time>2026-08-10T07:21:44.844Z</time>
      </trkpt>
      <trkpt lat="50.2011" lon="5.53392">
        <ele>160.6</ele>
        <time>2026-08-10T07:21:50.841Z</time>
      </trkpt>
      <trkpt lat="50.20075" lon="5.53396">
        <ele>162</ele>
        <time>2026-08-10T07:21:56.840Z</time>
      </trkpt>
      <trkpt lat="50.20041" lon="5.53402">
        <ele>164.47</ele>
        <time>2026-08-10T07:22:02.836Z</time>
      </trkpt>
      <trkpt lat="50.20009" lon="5.53404">
        <ele>165.68</ele>
        <time>2026-08-10T07:22:08.838Z</time>
      </trkpt>
      <trkpt lat="50.19977" lon="5.53408">
        <ele>166.37</ele>
        <time>2026-08-10T07:22:14.846Z</time>
      </trkpt>
      <trkpt lat="50.19944" lon="5.53414">
        <ele>167.44</ele>
        <time>2026-08-10T07:22:20.838Z</time>
      </trkpt>
      <trkpt lat="50.19914" lon="5.53426">
        <ele>169.37</ele>
        <time>2026-08-10T07:22:26.838Z</time>
      </trkpt>
      <trkpt lat="50.19885" lon="5.53442">
        <ele>170.15</ele>
        <time>2026-08-10T07:22:32.840Z</time>
      </trkpt>
      <trkpt lat="50.19857" lon="5.53461">
        <ele>169.91</ele>
        <time>2026-08-10T07:22:38.836Z</time>
      </trkpt>
      <trkpt lat="50.1983" lon="5.53482">
        <ele>169.01</ele>
        <time>2026-08-10T07:22:44.836Z</time>
      </trkpt>
      <trkpt lat="50.19801" lon="5.53502">
        <ele>167.49</ele>
        <time>2026-08-10T07:22:50.836Z</time>
      </trkpt>
      <trkpt lat="50.19774" lon="5.53519">
        <ele>167.63</ele>
        <time>2026-08-10T07:22:56.836Z</time>
      </trkpt>
      <trkpt lat="50.19745" lon="5.53536">
        <ele>167.07</ele>
        <time>2026-08-10T07:23:02.844Z</time>
      </trkpt>
      <trkpt lat="50.19716" lon="5.53555">
        <ele>166.74</ele>
        <time>2026-08-10T07:23:08.837Z</time>
      </trkpt>
      <trkpt lat="50.19687" lon="5.53574">
        <ele>165.69</ele>
        <time>2026-08-10T07:23:14.841Z</time>
      </trkpt>
      <trkpt lat="50.19658" lon="5.53599">
        <ele>165.51</ele>
        <time>2026-08-10T07:23:20.836Z</time>
      </trkpt>
      <trkpt lat="50.19632" lon="5.53629">
        <ele>164.55</ele>
        <time>2026-08-10T07:23:26.831Z</time>
      </trkpt>
      <trkpt lat="50.19606" lon="5.53663">
        <ele>164.65</ele>
        <time>2026-08-10T07:23:32.837Z</time>
      </trkpt>
      <trkpt lat="50.1958" lon="5.53697">
        <ele>165.23</ele>
        <time>2026-08-10T07:23:38.836Z</time>
      </trkpt>
      <trkpt lat="50.19555" lon="5.53732">
        <ele>165.98</ele>
        <time>2026-08-10T07:23:44.837Z</time>
      </trkpt>
      <trkpt lat="50.19529" lon="5.53764">
        <ele>167.24</ele>
        <time>2026-08-10T07:23:50.835Z</time>
      </trkpt>
      <trkpt lat="50.19502" lon="5.53808">
        <ele>168.54</ele>
        <time>2026-08-10T07:23:56.841Z</time>
      </trkpt>
      <trkpt lat="50.19477" lon="5.53849">
        <ele>170.91</ele>
        <time>2026-08-10T07:24:02.841Z</time>
      </trkpt>
      <trkpt lat="50.19451" lon="5.53888">
        <ele>170.41</ele>
        <time>2026-08-10T07:24:08.839Z</time>
      </trkpt>
      <trkpt lat="50.1942" lon="5.53924">
        <ele>169.81</ele>
        <time>2026-08-10T07:24:14.839Z</time>
      </trkpt>
      <trkpt lat="50.19386" lon="5.53961">
        <ele>169.05</ele>
        <time>2026-08-10T07:24:20.837Z</time>
      </trkpt>
      <trkpt lat="50.19349" lon="5.53985">
        <ele>168.19</ele>
        <time>2026-08-10T07:24:26.837Z</time>
      </trkpt>
      <trkpt lat="50.1931" lon="5.53991">
        <ele>168.41</ele>
        <time>2026-08-10T07:24:32.835Z</time>
      </trkpt>
      <trkpt lat="50.19272" lon="5.53993">
        <ele>167.88</ele>
        <time>2026-08-10T07:24:38.837Z</time>
      </trkpt>
      <trkpt lat="50.19233" lon="5.53988">
        <ele>166.97</ele>
        <time>2026-08-10T07:24:44.840Z</time>
      </trkpt>
      <trkpt lat="50.19196" lon="5.53981">
        <ele>166.44</ele>
        <time>2026-08-10T07:24:50.836Z</time>
      </trkpt>
      <trkpt lat="50.19156" lon="5.53977">
        <ele>163.79</ele>
        <time>2026-08-10T07:24:56.836Z</time>
      </trkpt>
      <trkpt lat="50.19114" lon="5.5398">
        <ele>163.66</ele>
        <time>2026-08-10T07:25:02.836Z</time>
      </trkpt>
      <trkpt lat="50.19073" lon="5.53979">
        <ele>163.94</ele>
        <time>2026-08-10T07:25:08.838Z</time>
      </trkpt>
      <trkpt lat="50.19034" lon="5.5398">
        <ele>164.03</ele>
        <time>2026-08-10T07:25:14.837Z</time>
      </trkpt>
      <trkpt lat="50.18997" lon="5.53983">
        <ele>163.86</ele>
        <time>2026-08-10T07:25:20.839Z</time>
      </trkpt>
      <trkpt lat="50.18963" lon="5.54002">
        <ele>162.74</ele>
        <time>2026-08-10T07:25:26.840Z</time>
      </trkpt>
      <trkpt lat="50.18933" lon="5.54032">
        <ele>161.13</ele>
        <time>2026-08-10T07:25:32.839Z</time>
      </trkpt>
      <trkpt lat="50.18904" lon="5.54061">
        <ele>160.42</ele>
        <time>2026-08-10T07:25:38.842Z</time>
      </trkpt>
      <trkpt lat="50.18875" lon="5.54088">
        <ele>159.15</ele>
        <time>2026-08-10T07:25:44.840Z</time>
      </trkpt>
      <trkpt lat="50.18848" lon="5.5412">
        <ele>158.77</ele>
        <time>2026-08-10T07:25:50.843Z</time>
      </trkpt>
      <trkpt lat="50.18823" lon="5.54152">
        <ele>160.65</ele>
        <time>2026-08-10T07:25:56.837Z</time>
      </trkpt>
      <trkpt lat="50.18799" lon="5.54176">
        <ele>161.49</ele>
        <time>2026-08-10T07:26:02.838Z</time>
      </trkpt>
      <trkpt lat="50.18774" lon="5.54204">
        <ele>163.67</ele>
        <time>2026-08-10T07:26:08.839Z</time>
      </trkpt>
      <trkpt lat="50.18749" lon="5.54234">
        <ele>168.28</ele>
        <time>2026-08-10T07:26:14.842Z</time>
      </trkpt>
      <trkpt lat="50.18725" lon="5.54264">
        <ele>170.24</ele>
        <time>2026-08-10T07:26:20.837Z</time>
      </trkpt>
      <trkpt lat="50.18702" lon="5.54294">
        <ele>169.69</ele>
        <time>2026-08-10T07:26:26.837Z</time>
      </trkpt>
      <trkpt lat="50.18682" lon="5.54321">
        <ele>165.99</ele>
        <time>2026-08-10T07:26:32.837Z</time>
      </trkpt>
      <trkpt lat="50.1866" lon="5.54356">
        <ele>165.83</ele>
        <time>2026-08-10T07:26:38.837Z</time>
      </trkpt>
      <trkpt lat="50.18638" lon="5.54394">
        <ele>168.69</ele>
        <time>2026-08-10T07:26:44.839Z</time>
      </trkpt>
      <trkpt lat="50.18619" lon="5.54429">
        <ele>170.13</ele>
        <time>2026-08-10T07:26:50.838Z</time>
      </trkpt>
      <trkpt lat="50.18603" lon="5.54469">
        <ele>173.1</ele>
        <time>2026-08-10T07:26:56.836Z</time>
      </trkpt>
      <trkpt lat="50.18589" lon="5.5451">
        <ele>175.31</ele>
        <time>2026-08-10T07:27:02.839Z</time>
      </trkpt>
      <trkpt lat="50.18575" lon="5.54551">
        <ele>175.15</ele>
        <time>2026-08-10T07:27:08.841Z</time>
      </trkpt>
      <trkpt lat="50.18563" lon="5.54593">
        <ele>175.56</ele>
        <time>2026-08-10T07:27:14.838Z</time>
      </trkpt>
      <trkpt lat="50.18548" lon="5.54631">
        <ele>170.91</ele>
        <time>2026-08-10T07:27:20.840Z</time>
      </trkpt>
      <trkpt lat="50.18536" lon="5.54673">
        <ele>170.59</ele>
        <time>2026-08-10T07:27:26.839Z</time>
      </trkpt>
      <trkpt lat="50.18522" lon="5.54719">
        <ele>170.79</ele>
        <time>2026-08-10T07:27:32.840Z</time>
      </trkpt>
      <trkpt lat="50.18509" lon="5.54763">
        <ele>170.3</ele>
        <time>2026-08-10T07:27:38.839Z</time>
      </trkpt>
      <trkpt lat="50.18499" lon="5.54809">
        <ele>169.8</ele>
        <time>2026-08-10T07:27:44.840Z</time>
      </trkpt>
      <trkpt lat="50.18489" lon="5.54856">
        <ele>169.8</ele>
        <time>2026-08-10T07:27:50.838Z</time>
      </trkpt>
      <trkpt lat="50.18481" lon="5.54905">
        <ele>169</ele>
        <time>2026-08-10T07:27:56.840Z</time>
      </trkpt>
      <trkpt lat="50.1847" lon="5.54955">
        <ele>168.42</ele>
        <time>2026-08-10T07:28:02.844Z</time>
      </trkpt>
      <trkpt lat="50.18459" lon="5.55002">
        <ele>167.74</ele>
        <time>2026-08-10T07:28:08.838Z</time>
      </trkpt>
      <trkpt lat="50.18447" lon="5.55052">
        <ele>166.18</ele>
        <time>2026-08-10T07:28:14.843Z</time>
      </trkpt>
      <trkpt lat="50.18435" lon="5.55099">
        <ele>165.15</ele>
        <time>2026-08-10T07:28:20.838Z</time>
      </trkpt>
      <trkpt lat="50.18424" lon="5.55148">
        <ele>164.29</ele>
        <time>2026-08-10T07:28:26.842Z</time>
      </trkpt>
      <trkpt lat="50.18413" lon="5.55197">
        <ele>163.83</ele>
        <time>2026-08-10T07:28:32.839Z</time>
      </trkpt>
      <trkpt lat="50.18402" lon="5.5524">
        <ele>161.61</ele>
        <time>2026-08-10T07:28:38.843Z</time>
      </trkpt>
      <trkpt lat="50.18392" lon="5.55293">
        <ele>156.39</ele>
        <time>2026-08-10T07:28:44.844Z</time>
      </trkpt>
      <trkpt lat="50.18378" lon="5.55335">
        <ele>146.4</ele>
        <time>2026-08-10T07:28:50.842Z</time>
      </trkpt>
      <trkpt lat="50.18357" lon="5.55392">
        <ele>138.25</ele>
        <time>2026-08-10T07:28:56.839Z</time>
      </trkpt>
      <trkpt lat="50.1834" lon="5.55444">
        <ele>127.72</ele>
        <time>2026-08-10T07:29:02.840Z</time>
      </trkpt>
      <trkpt lat="50.18322" lon="5.5549">
        <ele>118.55</ele>
        <time>2026-08-10T07:29:08.839Z</time>
      </trkpt>
      <trkpt lat="50.18304" lon="5.55537">
        <ele>110.54</ele>
        <time>2026-08-10T07:29:14.841Z</time>
      </trkpt>
      <trkpt lat="50.18286" lon="5.55577">
        <ele>101.5</ele>
        <time>2026-08-10T07:29:20.842Z</time>
      </trkpt>
      <trkpt lat="50.18269" lon="5.55623">
        <ele>93.31</ele>
        <time>2026-08-10T07:29:26.843Z</time>
      </trkpt>
      <trkpt lat="50.18252" lon="5.55659">
        <ele>84.24</ele>
        <time>2026-08-10T07:29:32.856Z</time>
      </trkpt>
      <trkpt lat="50.18237" lon="5.55693">
        <ele>81.93</ele>
        <time>2026-08-10T07:29:38.823Z</time>
      </trkpt>
      <trkpt lat="50.1822" lon="5.55708">
        <ele>72.95</ele>
        <time>2026-08-10T07:29:44.833Z</time>
      </trkpt>
      <trkpt lat="50.18204" lon="5.55756">
        <ele>70.05</ele>
        <time>2026-08-10T07:29:50.829Z</time>
      </trkpt>
      <trkpt lat="50.18192" lon="5.55804">
        <ele>67.99</ele>
        <time>2026-08-10T07:29:56.849Z</time>
      </trkpt>
      <trkpt lat="50.1818" lon="5.5584">
        <ele>74.41</ele>
        <time>2026-08-10T07:30:02.831Z</time>
      </trkpt>
      <trkpt lat="50.1817" lon="5.55881">
        <ele>75.07</ele>
        <time>2026-08-10T07:30:08.830Z</time>
      </trkpt>
      <trkpt lat="50.18158" lon="5.55925">
        <ele>75.64</ele>
        <time>2026-08-10T07:30:14.838Z</time>
      </trkpt>
      <trkpt lat="50.18147" lon="5.55965">
        <ele>75.82</ele>
        <time>2026-08-10T07:30:20.842Z</time>
      </trkpt>
      <trkpt lat="50.1815" lon="5.56007">
        <ele>83.4</ele>
        <time>2026-08-10T07:30:26.792Z</time>
      </trkpt>
      <trkpt lat="50.18157" lon="5.5605">
        <ele>92.73</ele>
        <time>2026-08-10T07:30:32.835Z</time>
      </trkpt>
      <trkpt lat="50.18166" lon="5.56098">
        <ele>105.6</ele>
        <time>2026-08-10T07:30:38.829Z</time>
      </trkpt>
      <trkpt lat="50.18179" lon="5.56154">
        <ele>124.63</ele>
        <time>2026-08-10T07:30:44.832Z</time>
      </trkpt>
      <trkpt lat="50.18187" lon="5.56201">
        <ele>129.25</ele>
        <time>2026-08-10T07:30:50.831Z</time>
      </trkpt>
      <trkpt lat="50.18196" lon="5.56248">
        <ele>135.28</ele>
        <time>2026-08-10T07:30:56.829Z</time>
      </trkpt>
      <trkpt lat="50.18203" lon="5.56296">
        <ele>139.19</ele>
        <time>2026-08-10T07:31:02.829Z</time>
      </trkpt>
      <trkpt lat="50.1821" lon="5.5634">
        <ele>142.68</ele>
        <time>2026-08-10T07:31:08.830Z</time>
      </trkpt>
      <trkpt lat="50.18217" lon="5.56382">
        <ele>143.61</ele>
        <time>2026-08-10T07:31:14.829Z</time>
      </trkpt>
      <trkpt lat="50.18222" lon="5.56427">
        <ele>145.89</ele>
        <time>2026-08-10T07:31:20.841Z</time>
      </trkpt>
      <trkpt lat="50.1823" lon="5.5647">
        <ele>147.18</ele>
        <time>2026-08-10T07:31:26.793Z</time>
      </trkpt>
      <trkpt lat="50.18239" lon="5.56513">
        <ele>147.78</ele>
        <time>2026-08-10T07:31:32.834Z</time>
      </trkpt>
      <trkpt lat="50.18244" lon="5.56555">
        <ele>147.5</ele>
        <time>2026-08-10T07:31:38.826Z</time>
      </trkpt>
      <trkpt lat="50.18249" lon="5.56598">
        <ele>151.39</ele>
        <time>2026-08-10T07:31:44.840Z</time>
      </trkpt>
      <trkpt lat="50.18256" lon="5.56644">
        <ele>157.08</ele>
        <time>2026-08-10T07:31:50.829Z</time>
      </trkpt>
      <trkpt lat="50.18262" lon="5.56688">
        <ele>159.51</ele>
        <time>2026-08-10T07:31:56.837Z</time>
      </trkpt>
      <trkpt lat="50.18271" lon="5.5673">
        <ele>158.06</ele>
        <time>2026-08-10T07:32:02.826Z</time>
      </trkpt>
      <trkpt lat="50.18282" lon="5.56765">
        <ele>156.1</ele>
        <time>2026-08-10T07:32:08.839Z</time>
      </trkpt>
      <trkpt lat="50.18298" lon="5.56795">
        <ele>153.38</ele>
        <time>2026-08-10T07:32:14.826Z</time>
      </trkpt>
      <trkpt lat="50.18318" lon="5.56826">
        <ele>153.01</ele>
        <time>2026-08-10T07:32:20.826Z</time>
      </trkpt>
      <trkpt lat="50.18339" lon="5.56854">
        <ele>151.51</ele>
        <time>2026-08-10T07:32:26.833Z</time>
      </trkpt>
      <trkpt lat="50.18366" lon="5.56881">
        <ele>154.48</ele>
        <time>2026-08-10T07:32:32.826Z</time>
      </trkpt>
      <trkpt lat="50.18393" lon="5.56905">
        <ele>157.36</ele>
        <time>2026-08-10T07:32:38.827Z</time>
      </trkpt>
      <trkpt lat="50.18419" lon="5.56934">
        <ele>160.18</ele>
        <time>2026-08-10T07:32:44.831Z</time>
      </trkpt>
      <trkpt lat="50.18446" lon="5.56964">
        <ele>161.67</ele>
        <time>2026-08-10T07:32:50.826Z</time>
      </trkpt>
      <trkpt lat="50.18473" lon="5.56986">
        <ele>165.28</ele>
        <time>2026-08-10T07:32:56.837Z</time>
      </trkpt>
      <trkpt lat="50.18496" lon="5.57006">
        <ele>167.15</ele>
        <time>2026-08-10T07:33:02.832Z</time>
      </trkpt>
      <trkpt lat="50.18516" lon="5.57048">
        <ele>166.7</ele>
        <time>2026-08-10T07:33:08.836Z</time>
      </trkpt>
      <trkpt lat="50.18531" lon="5.57091">
        <ele>167.11</ele>
        <time>2026-08-10T07:33:14.830Z</time>
      </trkpt>
      <trkpt lat="50.18543" lon="5.57125">
        <ele>167.82</ele>
        <time>2026-08-10T07:33:20.826Z</time>
      </trkpt>
      <trkpt lat="50.18564" lon="5.57148">
        <ele>167.36</ele>
        <time>2026-08-10T07:33:26.778Z</time>
      </trkpt>
      <trkpt lat="50.18593" lon="5.57151">
        <ele>166.13</ele>
        <time>2026-08-10T07:33:32.829Z</time>
      </trkpt>
      <trkpt lat="50.18621" lon="5.57145">
        <ele>165.16</ele>
        <time>2026-08-10T07:33:38.834Z</time>
      </trkpt>
      <trkpt lat="50.18652" lon="5.57136">
        <ele>165.12</ele>
        <time>2026-08-10T07:33:44.822Z</time>
      </trkpt>
      <trkpt lat="50.18682" lon="5.57127">
        <ele>160.99</ele>
        <time>2026-08-10T07:33:50.823Z</time>
      </trkpt>
      <trkpt lat="50.18711" lon="5.57118">
        <ele>156.15</ele>
        <time>2026-08-10T07:33:56.829Z</time>
      </trkpt>
      <trkpt lat="50.1874" lon="5.57111">
        <ele>149.21</ele>
        <time>2026-08-10T07:34:02.821Z</time>
      </trkpt>
      <trkpt lat="50.18774" lon="5.57093">
        <ele>143.73</ele>
        <time>2026-08-10T07:34:08.823Z</time>
      </trkpt>
      <trkpt lat="50.18818" lon="5.57075">
        <ele>139.08</ele>
        <time>2026-08-10T07:34:14.831Z</time>
      </trkpt>
      <trkpt lat="50.18845" lon="5.57053">
        <ele>139.39</ele>
        <time>2026-08-10T07:34:20.825Z</time>
      </trkpt>
      <trkpt lat="50.18852" lon="5.57044">
        <ele>144.94</ele>
        <time>2026-08-10T07:34:26.835Z</time>
      </trkpt>
      <trkpt lat="50.18841" lon="5.57038">
        <ele>150.27</ele>
        <time>2026-08-10T07:34:32.830Z</time>
      </trkpt>
      <trkpt lat="50.18852" lon="5.57036">
        <ele>156.23</ele>
        <time>2026-08-10T07:34:45.781Z</time>
      </trkpt>
      <trkpt lat="50.18864" lon="5.57033">
        <ele>158.4</ele>
        <time>2026-08-10T07:34:50.824Z</time>
      </trkpt>
      <trkpt lat="50.18876" lon="5.57034">
        <ele>158.27</ele>
        <time>2026-08-10T07:34:56.829Z</time>
      </trkpt>
      <trkpt lat="50.18893" lon="5.57031">
        <ele>157.67</ele>
        <time>2026-08-10T07:35:02.821Z</time>
      </trkpt>
      <trkpt lat="50.18915" lon="5.57029">
        <ele>155.78</ele>
        <time>2026-08-10T07:35:08.838Z</time>
      </trkpt>
      <trkpt lat="50.18936" lon="5.57024">
        <ele>156.83</ele>
        <time>2026-08-10T07:35:14.820Z</time>
      </trkpt>
      <trkpt lat="50.18958" lon="5.57027">
        <ele>159.7</ele>
        <time>2026-08-10T07:35:20.825Z</time>
      </trkpt>
      <trkpt lat="50.18979" lon="5.57038">
        <ele>162.67</ele>
        <time>2026-08-10T07:35:26.841Z</time>
      </trkpt>
      <trkpt lat="50.18995" lon="5.57056">
        <ele>165.62</ele>
        <time>2026-08-10T07:35:32.833Z</time>
      </trkpt>
      <trkpt lat="50.1901" lon="5.57083">
        <ele>167.3</ele>
        <time>2026-08-10T07:35:38.838Z</time>
      </trkpt>
      <trkpt lat="50.19022" lon="5.57115">
        <ele>167.34</ele>
        <time>2026-08-10T07:35:44.836Z</time>
      </trkpt>
      <trkpt lat="50.19027" lon="5.57153">
        <ele>167.42</ele>
        <time>2026-08-10T07:35:50.835Z</time>
      </trkpt>
      <trkpt lat="50.19025" lon="5.5719">
        <ele>166.04</ele>
        <time>2026-08-10T07:35:56.829Z</time>
      </trkpt>
      <trkpt lat="50.1902" lon="5.57226">
        <ele>163.57</ele>
        <time>2026-08-10T07:36:02.831Z</time>
      </trkpt>
      <trkpt lat="50.19009" lon="5.57265">
        <ele>160.49</ele>
        <time>2026-08-10T07:36:08.836Z</time>
      </trkpt>
      <trkpt lat="50.18997" lon="5.57305">
        <ele>158.54</ele>
        <time>2026-08-10T07:36:14.837Z</time>
      </trkpt>
      <trkpt lat="50.18984" lon="5.57345">
        <ele>158.49</ele>
        <time>2026-08-10T07:36:20.833Z</time>
      </trkpt>
      <trkpt lat="50.18967" lon="5.5738">
        <ele>157.46</ele>
        <time>2026-08-10T07:36:26.843Z</time>
      </trkpt>
      <trkpt lat="50.18939" lon="5.57407">
        <ele>155.24</ele>
        <time>2026-08-10T07:36:32.839Z</time>
      </trkpt>
      <trkpt lat="50.18914" lon="5.57431">
        <ele>152.7</ele>
        <time>2026-08-10T07:36:38.835Z</time>
      </trkpt>
      <trkpt lat="50.18885" lon="5.57447">
        <ele>152.11</ele>
        <time>2026-08-10T07:36:44.835Z</time>
      </trkpt>
      <trkpt lat="50.18861" lon="5.57464">
        <ele>153.52</ele>
        <time>2026-08-10T07:36:50.838Z</time>
      </trkpt>
      <trkpt lat="50.18825" lon="5.57497">
        <ele>154.12</ele>
        <time>2026-08-10T07:36:56.844Z</time>
      </trkpt>
      <trkpt lat="50.18782" lon="5.5752">
        <ele>157.08</ele>
        <time>2026-08-10T07:37:02.837Z</time>
      </trkpt>
      <trkpt lat="50.18745" lon="5.57529">
        <ele>162.5</ele>
        <time>2026-08-10T07:37:08.834Z</time>
      </trkpt>
      <trkpt lat="50.18711" lon="5.57533">
        <ele>168.35</ele>
        <time>2026-08-10T07:37:14.834Z</time>
      </trkpt>
      <trkpt lat="50.1868" lon="5.5753">
        <ele>171.69</ele>
        <time>2026-08-10T07:37:20.834Z</time>
      </trkpt>
      <trkpt lat="50.18653" lon="5.57524">
        <ele>173.03</ele>
        <time>2026-08-10T07:37:26.844Z</time>
      </trkpt>
      <trkpt lat="50.18624" lon="5.57521">
        <ele>174.9</ele>
        <time>2026-08-10T07:37:32.833Z</time>
      </trkpt>
      <trkpt lat="50.18598" lon="5.57521">
        <ele>174.47</ele>
        <time>2026-08-10T07:37:38.834Z</time>
      </trkpt>
      <trkpt lat="50.18577" lon="5.57532">
        <ele>174.59</ele>
        <time>2026-08-10T07:37:44.838Z</time>
      </trkpt>
      <trkpt lat="50.18556" lon="5.57541">
        <ele>174.82</ele>
        <time>2026-08-10T07:37:50.835Z</time>
      </trkpt>
      <trkpt lat="50.18536" lon="5.57556">
        <ele>174.71</ele>
        <time>2026-08-10T07:37:56.843Z</time>
      </trkpt>
      <trkpt lat="50.18517" lon="5.57567">
        <ele>177.22</ele>
        <time>2026-08-10T07:38:02.838Z</time>
      </trkpt>
      <trkpt lat="50.185" lon="5.57572">
        <ele>177.71</ele>
        <time>2026-08-10T07:38:08.837Z</time>
      </trkpt>
      <trkpt lat="50.1849" lon="5.57574">
        <ele>176.71</ele>
        <time>2026-08-10T07:38:19.781Z</time>
      </trkpt>
      <trkpt lat="50.18468" lon="5.57587">
        <ele>176.92</ele>
        <time>2026-08-10T07:38:25.786Z</time>
      </trkpt>
      <trkpt lat="50.18451" lon="5.57597">
        <ele>176.83</ele>
        <time>2026-08-10T07:38:30.786Z</time>
      </trkpt>
      <trkpt lat="50.18441" lon="5.57602">
        <ele>175.21</ele>
        <time>2026-08-10T07:38:56.848Z</time>
      </trkpt>
      <trkpt lat="50.18421" lon="5.57618">
        <ele>174.95</ele>
        <time>2026-08-10T07:39:02.829Z</time>
      </trkpt>
      <trkpt lat="50.18398" lon="5.57633">
        <ele>174.97</ele>
        <time>2026-08-10T07:39:08.835Z</time>
      </trkpt>
      <trkpt lat="50.18379" lon="5.57646">
        <ele>174.74</ele>
        <time>2026-08-10T07:39:14.839Z</time>
      </trkpt>
      <trkpt lat="50.1837" lon="5.57645">
        <ele>171.43</ele>
        <time>2026-08-10T07:39:20.841Z</time>
      </trkpt>
      <trkpt lat="50.18359" lon="5.57635">
        <ele>169.42</ele>
        <time>2026-08-10T07:39:26.847Z</time>
      </trkpt>
      <trkpt lat="50.18351" lon="5.57623">
        <ele>167.58</ele>
        <time>2026-08-10T07:39:32.850Z</time>
      </trkpt>
      <trkpt lat="50.18341" lon="5.57617">
        <ele>166.69</ele>
        <time>2026-08-10T07:39:38.836Z</time>
      </trkpt>
      <trkpt lat="50.18327" lon="5.57611">
        <ele>166.96</ele>
        <time>2026-08-10T07:39:44.838Z</time>
      </trkpt>
      <trkpt lat="50.18317" lon="5.57603">
        <ele>165.24</ele>
        <time>2026-08-10T07:39:52.785Z</time>
      </trkpt>
      <trkpt lat="50.18303" lon="5.57596">
        <ele>162.66</ele>
        <time>2026-08-10T07:39:58.776Z</time>
      </trkpt>
      <trkpt lat="50.18292" lon="5.57588">
        <ele>162.01</ele>
        <time>2026-08-10T07:40:03.777Z</time>
      </trkpt>
      <trkpt lat="50.18283" lon="5.57578">
        <ele>160.16</ele>
        <time>2026-08-10T07:40:15.783Z</time>
      </trkpt>
      <trkpt lat="50.18271" lon="5.57569">
        <ele>158.79</ele>
        <time>2026-08-10T07:40:20.828Z</time>
      </trkpt>
      <trkpt lat="50.18259" lon="5.57561">
        <ele>158.49</ele>
        <time>2026-08-10T07:40:26.826Z</time>
      </trkpt>
      <trkpt lat="50.18248" lon="5.57553">
        <ele>160.74</ele>
        <time>2026-08-10T07:40:32.824Z</time>
      </trkpt>
      <trkpt lat="50.1824" lon="5.57546">
        <ele>163.9</ele>
        <time>2026-08-10T07:40:38.839Z</time>
      </trkpt>
      <trkpt lat="50.18248" lon="5.57556">
        <ele>167.65</ele>
        <time>2026-08-10T07:41:16.778Z</time>
      </trkpt>
      <trkpt lat="50.1826" lon="5.57558">
        <ele>169.35</ele>
        <time>2026-08-10T07:41:58.776Z</time>
      </trkpt>
      <trkpt lat="50.18268" lon="5.57589">
        <ele>178.74</ele>
        <time>2026-08-10T07:43:54.785Z</time>
      </trkpt>
      <trkpt lat="50.18274" lon="5.57607">
        <ele>179.41</ele>
        <time>2026-08-10T07:44:00.496Z</time>
      </trkpt>
      <trkpt lat="50.18283" lon="5.57603">
        <ele>179.51</ele>
        <time>2026-08-10T07:44:07.777Z</time>
      </trkpt>
      <trkpt lat="50.18292" lon="5.576">
        <ele>179.51</ele>
        <time>2026-08-10T07:44:20.834Z</time>
      </trkpt>
      <trkpt lat="50.18285" lon="5.57613">
        <ele>179.51</ele>
        <time>2026-08-10T07:45:04.783Z</time>
      </trkpt>
      <trkpt lat="50.18277" lon="5.57629">
        <ele>179.51</ele>
        <time>2026-08-10T07:45:10.350Z</time>
      </trkpt>
      <trkpt lat="50.18264" lon="5.57641">
        <ele>179.41</ele>
        <time>2026-08-10T07:45:15.784Z</time>
      </trkpt>
      <trkpt lat="50.18253" lon="5.57621">
        <ele>172.64</ele>
        <time>2026-08-10T07:45:41.792Z</time>
      </trkpt>
      <trkpt lat="50.18251" lon="5.57607">
        <ele>195.08</ele>
        <time>2026-08-10T07:45:48.468Z</time>
      </trkpt>
      <trkpt lat="50.18269" lon="5.57589">
        <ele>187.92</ele>
        <time>2026-08-10T07:45:54.782Z</time>
      </trkpt>
      <trkpt lat="50.18263" lon="5.57579">
        <ele>183.41</ele>
        <time>2026-08-10T07:46:14.836Z</time>
      </trkpt>
      <trkpt lat="50.18256" lon="5.57566">
        <ele>181.09</ele>
        <time>2026-08-10T07:52:38.830Z</time>
      </trkpt>
      <trkpt lat="50.18239" lon="5.57551">
        <ele>177.98</ele>
        <time>2026-08-10T07:52:44.830Z</time>
      </trkpt>
      <trkpt lat="50.18222" lon="5.57538">
        <ele>175.6</ele>
        <time>2026-08-10T07:52:50.836Z</time>
      </trkpt>
      <trkpt lat="50.18206" lon="5.57532">
        <ele>174.06</ele>
        <time>2026-08-10T07:52:56.840Z</time>
      </trkpt>
      <trkpt lat="50.18195" lon="5.57529">
        <ele>173.8</ele>
        <time>2026-08-10T07:53:02.834Z</time>
      </trkpt>
      <trkpt lat="50.18179" lon="5.57522">
        <ele>175.71</ele>
        <time>2026-08-10T07:53:08.836Z</time>
      </trkpt>
      <trkpt lat="50.18161" lon="5.57518">
        <ele>177.37</ele>
        <time>2026-08-10T07:53:14.838Z</time>
      </trkpt>
      <trkpt lat="50.18151" lon="5.57531">
        <ele>179.37</ele>
        <time>2026-08-10T07:53:20.833Z</time>
      </trkpt>
      <trkpt lat="50.18149" lon="5.57545">
        <ele>179.47</ele>
        <time>2026-08-10T07:53:30.796Z</time>
      </trkpt>
      <trkpt lat="50.18138" lon="5.57559">
        <ele>178.61</ele>
        <time>2026-08-10T07:53:36.790Z</time>
      </trkpt>
      <trkpt lat="50.18128" lon="5.57566">
        <ele>178.09</ele>
        <time>2026-08-10T07:53:42.787Z</time>
      </trkpt>
      <trkpt lat="50.18118" lon="5.57566">
        <ele>176.35</ele>
        <time>2026-08-10T07:53:53.781Z</time>
      </trkpt>
      <trkpt lat="50.18108" lon="5.57569">
        <ele>175.35</ele>
        <time>2026-08-10T07:54:00.790Z</time>
      </trkpt>
      <trkpt lat="50.18092" lon="5.57579">
        <ele>177.29</ele>
        <time>2026-08-10T07:54:05.791Z</time>
      </trkpt>
      <trkpt lat="50.18073" lon="5.57588">
        <ele>180.16</ele>
        <time>2026-08-10T07:54:11.784Z</time>
      </trkpt>
      <trkpt lat="50.18058" lon="5.57598">
        <ele>178.87</ele>
        <time>2026-08-10T07:54:16.785Z</time>
      </trkpt>
      <trkpt lat="50.18048" lon="5.57605">
        <ele>177.95</ele>
        <time>2026-08-10T07:54:21.785Z</time>
      </trkpt>
      <trkpt lat="50.18057" lon="5.57603">
        <ele>177.22</ele>
        <time>2026-08-10T07:54:44.835Z</time>
      </trkpt>
      <trkpt lat="50.18067" lon="5.57599">
        <ele>177.12</ele>
        <time>2026-08-10T07:55:04.783Z</time>
      </trkpt>
      <trkpt lat="50.18079" lon="5.57591">
        <ele>175.03</ele>
        <time>2026-08-10T08:06:20.831Z</time>
      </trkpt>
      <trkpt lat="50.18089" lon="5.57603">
        <ele>174.38</ele>
        <time>2026-08-10T08:06:26.871Z</time>
      </trkpt>
      <trkpt lat="50.18077" lon="5.57592">
        <ele>175.59</ele>
        <time>2026-08-10T08:06:54.789Z</time>
      </trkpt>
      <trkpt lat="50.18065" lon="5.57596">
        <ele>178.99</ele>
        <time>2026-08-10T08:08:44.816Z</time>
      </trkpt>
      <trkpt lat="50.18044" lon="5.57608">
        <ele>180.52</ele>
        <time>2026-08-10T08:08:50.805Z</time>
      </trkpt>
      <trkpt lat="50.18024" lon="5.5761">
        <ele>179.73</ele>
        <time>2026-08-10T08:08:56.808Z</time>
      </trkpt>
      <trkpt lat="50.18007" lon="5.57607">
        <ele>181.02</ele>
        <time>2026-08-10T08:09:02.850Z</time>
      </trkpt>
      <trkpt lat="50.17997" lon="5.57597">
        <ele>183.49</ele>
        <time>2026-08-10T08:09:08.814Z</time>
      </trkpt>
      <trkpt lat="50.17988" lon="5.57607">
        <ele>183.99</ele>
        <time>2026-08-10T08:09:14.823Z</time>
      </trkpt>
      <trkpt lat="50.17974" lon="5.57612">
        <ele>183.09</ele>
        <time>2026-08-10T08:09:20.805Z</time>
      </trkpt>
      <trkpt lat="50.17955" lon="5.57619">
        <ele>180.93</ele>
        <time>2026-08-10T08:09:26.829Z</time>
      </trkpt>
      <trkpt lat="50.17937" lon="5.57624">
        <ele>180.82</ele>
        <time>2026-08-10T08:09:32.832Z</time>
      </trkpt>
      <trkpt lat="50.17917" lon="5.57632">
        <ele>181.66</ele>
        <time>2026-08-10T08:09:38.804Z</time>
      </trkpt>
      <trkpt lat="50.17898" lon="5.57643">
        <ele>185.34</ele>
        <time>2026-08-10T08:09:44.819Z</time>
      </trkpt>
      <trkpt lat="50.17874" lon="5.57639">
        <ele>185.75</ele>
        <time>2026-08-10T08:09:50.803Z</time>
      </trkpt>
      <trkpt lat="50.1784" lon="5.57628">
        <ele>183.46</ele>
        <time>2026-08-10T08:09:56.844Z</time>
      </trkpt>
      <trkpt lat="50.17808" lon="5.57619">
        <ele>180.95</ele>
        <time>2026-08-10T08:10:02.829Z</time>
      </trkpt>
      <trkpt lat="50.17776" lon="5.57617">
        <ele>179.92</ele>
        <time>2026-08-10T08:10:08.812Z</time>
      </trkpt>
      <trkpt lat="50.17747" lon="5.57624">
        <ele>181.01</ele>
        <time>2026-08-10T08:10:14.810Z</time>
      </trkpt>
      <trkpt lat="50.17718" lon="5.57638">
        <ele>181.98</ele>
        <time>2026-08-10T08:10:20.809Z</time>
      </trkpt>
      <trkpt lat="50.17691" lon="5.57643">
        <ele>181.72</ele>
        <time>2026-08-10T08:10:26.851Z</time>
      </trkpt>
      <trkpt lat="50.17668" lon="5.57632">
        <ele>181.18</ele>
        <time>2026-08-10T08:10:32.832Z</time>
      </trkpt>
      <trkpt lat="50.17647" lon="5.57628">
        <ele>182.57</ele>
        <time>2026-08-10T08:10:38.807Z</time>
      </trkpt>
      <trkpt lat="50.17628" lon="5.57641">
        <ele>183.06</ele>
        <time>2026-08-10T08:10:44.806Z</time>
      </trkpt>
      <trkpt lat="50.1761" lon="5.57666">
        <ele>183.73</ele>
        <time>2026-08-10T08:10:50.813Z</time>
      </trkpt>
      <trkpt lat="50.17591" lon="5.57688">
        <ele>184.1</ele>
        <time>2026-08-10T08:10:56.804Z</time>
      </trkpt>
      <trkpt lat="50.17572" lon="5.57708">
        <ele>184.29</ele>
        <time>2026-08-10T08:11:02.833Z</time>
      </trkpt>
      <trkpt lat="50.17554" lon="5.57727">
        <ele>182.49</ele>
        <time>2026-08-10T08:11:08.810Z</time>
      </trkpt>
      <trkpt lat="50.17535" lon="5.57742">
        <ele>180.09</ele>
        <time>2026-08-10T08:11:14.807Z</time>
      </trkpt>
      <trkpt lat="50.17514" lon="5.57757">
        <ele>177.86</ele>
        <time>2026-08-10T08:11:20.815Z</time>
      </trkpt>
      <trkpt lat="50.17494" lon="5.57771">
        <ele>180.15</ele>
        <time>2026-08-10T08:11:26.840Z</time>
      </trkpt>
      <trkpt lat="50.17472" lon="5.57785">
        <ele>181.84</ele>
        <time>2026-08-10T08:11:32.840Z</time>
      </trkpt>
      <trkpt lat="50.17453" lon="5.57785">
        <ele>182.52</ele>
        <time>2026-08-10T08:11:38.812Z</time>
      </trkpt>
      <trkpt lat="50.1744" lon="5.57766">
        <ele>181.59</ele>
        <time>2026-08-10T08:11:44.812Z</time>
      </trkpt>
      <trkpt lat="50.17423" lon="5.57747">
        <ele>182.04</ele>
        <time>2026-08-10T08:11:50.809Z</time>
      </trkpt>
      <trkpt lat="50.17408" lon="5.57735">
        <ele>182.79</ele>
        <time>2026-08-10T08:11:56.848Z</time>
      </trkpt>
      <trkpt lat="50.17397" lon="5.57716">
        <ele>181.59</ele>
        <time>2026-08-10T08:12:02.837Z</time>
      </trkpt>
      <trkpt lat="50.17381" lon="5.57702">
        <ele>181.36</ele>
        <time>2026-08-10T08:12:08.816Z</time>
      </trkpt>
      <trkpt lat="50.17369" lon="5.57688">
        <ele>185.08</ele>
        <time>2026-08-10T08:12:14.810Z</time>
      </trkpt>
      <trkpt lat="50.17359" lon="5.57672">
        <ele>187.88</ele>
        <time>2026-08-10T08:12:20.816Z</time>
      </trkpt>
      <trkpt lat="50.17347" lon="5.57657">
        <ele>190.47</ele>
        <time>2026-08-10T08:12:26.849Z</time>
      </trkpt>
      <trkpt lat="50.17337" lon="5.57639">
        <ele>191.06</ele>
        <time>2026-08-10T08:12:32.837Z</time>
      </trkpt>
      <trkpt lat="50.17329" lon="5.57621">
        <ele>190.58</ele>
        <time>2026-08-10T08:12:38.812Z</time>
      </trkpt>
      <trkpt lat="50.1732" lon="5.57603">
        <ele>191.3</ele>
        <time>2026-08-10T08:12:44.813Z</time>
      </trkpt>
      <trkpt lat="50.1731" lon="5.57583">
        <ele>190.32</ele>
        <time>2026-08-10T08:12:50.815Z</time>
      </trkpt>
      <trkpt lat="50.173" lon="5.57563">
        <ele>190.03</ele>
        <time>2026-08-10T08:12:56.849Z</time>
      </trkpt>
      <trkpt lat="50.17291" lon="5.57543">
        <ele>188.7</ele>
        <time>2026-08-10T08:13:02.837Z</time>
      </trkpt>
      <trkpt lat="50.17282" lon="5.57523">
        <ele>187.34</ele>
        <time>2026-08-10T08:13:08.814Z</time>
      </trkpt>
      <trkpt lat="50.17273" lon="5.57502">
        <ele>187.25</ele>
        <time>2026-08-10T08:13:14.818Z</time>
      </trkpt>
      <trkpt lat="50.17264" lon="5.57481">
        <ele>186.75</ele>
        <time>2026-08-10T08:13:20.816Z</time>
      </trkpt>
      <trkpt lat="50.17254" lon="5.5746">
        <ele>187.68</ele>
        <time>2026-08-10T08:13:26.833Z</time>
      </trkpt>
      <trkpt lat="50.17243" lon="5.57439">
        <ele>188.7</ele>
        <time>2026-08-10T08:13:32.840Z</time>
      </trkpt>
      <trkpt lat="50.17231" lon="5.57415">
        <ele>190.08</ele>
        <time>2026-08-10T08:13:38.817Z</time>
      </trkpt>
      <trkpt lat="50.17219" lon="5.57387">
        <ele>190.12</ele>
        <time>2026-08-10T08:13:44.816Z</time>
      </trkpt>
      <trkpt lat="50.17206" lon="5.57359">
        <ele>191.33</ele>
        <time>2026-08-10T08:13:50.818Z</time>
      </trkpt>
      <trkpt lat="50.17192" lon="5.57331">
        <ele>191.39</ele>
        <time>2026-08-10T08:13:56.857Z</time>
      </trkpt>
      <trkpt lat="50.17177" lon="5.573">
        <ele>192.34</ele>
        <time>2026-08-10T08:14:02.835Z</time>
      </trkpt>
      <trkpt lat="50.17161" lon="5.5727">
        <ele>191.76</ele>
        <time>2026-08-10T08:14:08.817Z</time>
      </trkpt>
      <trkpt lat="50.17143" lon="5.57238">
        <ele>191.96</ele>
        <time>2026-08-10T08:14:14.819Z</time>
      </trkpt>
      <trkpt lat="50.17127" lon="5.57207">
        <ele>191.86</ele>
        <time>2026-08-10T08:14:20.819Z</time>
      </trkpt>
      <trkpt lat="50.1711" lon="5.57175">
        <ele>191.42</ele>
        <time>2026-08-10T08:14:26.851Z</time>
      </trkpt>
      <trkpt lat="50.17093" lon="5.57143">
        <ele>190.67</ele>
        <time>2026-08-10T08:14:32.841Z</time>
      </trkpt>
      <trkpt lat="50.17077" lon="5.5711">
        <ele>190</ele>
        <time>2026-08-10T08:14:38.820Z</time>
      </trkpt>
      <trkpt lat="50.17061" lon="5.57078">
        <ele>191.33</ele>
        <time>2026-08-10T08:14:44.816Z</time>
      </trkpt>
      <trkpt lat="50.17042" lon="5.57047">
        <ele>192.06</ele>
        <time>2026-08-10T08:14:50.818Z</time>
      </trkpt>
      <trkpt lat="50.17023" lon="5.57021">
        <ele>193.22</ele>
        <time>2026-08-10T08:14:56.853Z</time>
      </trkpt>
      <trkpt lat="50.17005" lon="5.56994">
        <ele>194.5</ele>
        <time>2026-08-10T08:15:02.843Z</time>
      </trkpt>
      <trkpt lat="50.16984" lon="5.56968">
        <ele>194.72</ele>
        <time>2026-08-10T08:15:08.819Z</time>
      </trkpt>
      <trkpt lat="50.16964" lon="5.56944">
        <ele>194.21</ele>
        <time>2026-08-10T08:15:14.818Z</time>
      </trkpt>
      <trkpt lat="50.16942" lon="5.56919">
        <ele>193.33</ele>
        <time>2026-08-10T08:15:20.817Z</time>
      </trkpt>
      <trkpt lat="50.16922" lon="5.56893">
        <ele>194.27</ele>
        <time>2026-08-10T08:15:26.849Z</time>
      </trkpt>
      <trkpt lat="50.16905" lon="5.56866">
        <ele>194.81</ele>
        <time>2026-08-10T08:15:32.842Z</time>
      </trkpt>
      <trkpt lat="50.16887" lon="5.56838">
        <ele>193.85</ele>
        <time>2026-08-10T08:15:38.812Z</time>
      </trkpt>
      <trkpt lat="50.16867" lon="5.5681">
        <ele>195.7</ele>
        <time>2026-08-10T08:15:44.813Z</time>
      </trkpt>
      <trkpt lat="50.16851" lon="5.56779">
        <ele>197.05</ele>
        <time>2026-08-10T08:15:50.806Z</time>
      </trkpt>
      <trkpt lat="50.16835" lon="5.56747">
        <ele>197.42</ele>
        <time>2026-08-10T08:15:56.851Z</time>
      </trkpt>
      <trkpt lat="50.1682" lon="5.56718">
        <ele>197.88</ele>
        <time>2026-08-10T08:16:02.842Z</time>
      </trkpt>
      <trkpt lat="50.168" lon="5.56695">
        <ele>198.66</ele>
        <time>2026-08-10T08:16:08.815Z</time>
      </trkpt>
      <trkpt lat="50.16777" lon="5.56679">
        <ele>199.57</ele>
        <time>2026-08-10T08:16:14.815Z</time>
      </trkpt>
      <trkpt lat="50.16755" lon="5.56659">
        <ele>199.16</ele>
        <time>2026-08-10T08:16:20.813Z</time>
      </trkpt>
      <trkpt lat="50.16735" lon="5.56638">
        <ele>198.38</ele>
        <time>2026-08-10T08:16:26.852Z</time>
      </trkpt>
      <trkpt lat="50.16716" lon="5.56619">
        <ele>198.62</ele>
        <time>2026-08-10T08:16:32.846Z</time>
      </trkpt>
      <trkpt lat="50.16705" lon="5.56603">
        <ele>199.85</ele>
        <time>2026-08-10T08:16:38.812Z</time>
      </trkpt>
      <trkpt lat="50.16694" lon="5.56598">
        <ele>200.05</ele>
        <time>2026-08-10T08:16:44.815Z</time>
      </trkpt>
      <trkpt lat="50.1668" lon="5.56596">
        <ele>201.93</ele>
        <time>2026-08-10T08:16:50.813Z</time>
      </trkpt>
      <trkpt lat="50.16669" lon="5.56598">
        <ele>204.13</ele>
        <time>2026-08-10T08:16:56.848Z</time>
      </trkpt>
      <trkpt lat="50.16657" lon="5.56601">
        <ele>206.77</ele>
        <time>2026-08-10T08:17:02.852Z</time>
      </trkpt>
      <trkpt lat="50.16646" lon="5.56609">
        <ele>208.29</ele>
        <time>2026-08-10T08:17:08.814Z</time>
      </trkpt>
      <trkpt lat="50.16634" lon="5.56616">
        <ele>209.25</ele>
        <time>2026-08-10T08:17:14.814Z</time>
      </trkpt>
      <trkpt lat="50.1662" lon="5.56626">
        <ele>209.56</ele>
        <time>2026-08-10T08:17:20.812Z</time>
      </trkpt>
      <trkpt lat="50.16603" lon="5.56639">
        <ele>210.92</ele>
        <time>2026-08-10T08:17:26.848Z</time>
      </trkpt>
      <trkpt lat="50.16585" lon="5.56653">
        <ele>211.93</ele>
        <time>2026-08-10T08:17:32.840Z</time>
      </trkpt>
      <trkpt lat="50.16567" lon="5.56667">
        <ele>211.43</ele>
        <time>2026-08-10T08:17:38.819Z</time>
      </trkpt>
      <trkpt lat="50.16546" lon="5.56686">
        <ele>212.09</ele>
        <time>2026-08-10T08:17:44.820Z</time>
      </trkpt>
      <trkpt lat="50.16523" lon="5.56697">
        <ele>212.34</ele>
        <time>2026-08-10T08:17:50.815Z</time>
      </trkpt>
      <trkpt lat="50.16499" lon="5.56693">
        <ele>208.91</ele>
        <time>2026-08-10T08:17:56.843Z</time>
      </trkpt>
      <trkpt lat="50.16476" lon="5.56686">
        <ele>204.81</ele>
        <time>2026-08-10T08:18:02.844Z</time>
      </trkpt>
      <trkpt lat="50.16455" lon="5.56667">
        <ele>201.49</ele>
        <time>2026-08-10T08:18:08.815Z</time>
      </trkpt>
      <trkpt lat="50.16434" lon="5.56638">
        <ele>201.71</ele>
        <time>2026-08-10T08:18:14.818Z</time>
      </trkpt>
      <trkpt lat="50.16414" lon="5.56605">
        <ele>202.07</ele>
        <time>2026-08-10T08:18:20.813Z</time>
      </trkpt>
      <trkpt lat="50.16394" lon="5.56569">
        <ele>201.98</ele>
        <time>2026-08-10T08:18:26.842Z</time>
      </trkpt>
      <trkpt lat="50.16378" lon="5.56532">
        <ele>203.98</ele>
        <time>2026-08-10T08:18:32.841Z</time>
      </trkpt>
      <trkpt lat="50.16361" lon="5.56495">
        <ele>202.95</ele>
        <time>2026-08-10T08:18:38.810Z</time>
      </trkpt>
      <trkpt lat="50.1634" lon="5.56463">
        <ele>203.47</ele>
        <time>2026-08-10T08:18:44.814Z</time>
      </trkpt>
      <trkpt lat="50.16319" lon="5.56433">
        <ele>203.88</ele>
        <time>2026-08-10T08:18:50.813Z</time>
      </trkpt>
      <trkpt lat="50.16298" lon="5.56405">
        <ele>204.1</ele>
        <time>2026-08-10T08:18:56.844Z</time>
      </trkpt>
      <trkpt lat="50.16277" lon="5.56377">
        <ele>204.71</ele>
        <time>2026-08-10T08:19:02.843Z</time>
      </trkpt>
      <trkpt lat="50.16259" lon="5.56352">
        <ele>206.35</ele>
        <time>2026-08-10T08:19:08.815Z</time>
      </trkpt>
      <trkpt lat="50.16245" lon="5.56328">
        <ele>206.51</ele>
        <time>2026-08-10T08:19:14.815Z</time>
      </trkpt>
      <trkpt lat="50.16232" lon="5.56306">
        <ele>208.34</ele>
        <time>2026-08-10T08:19:20.813Z</time>
      </trkpt>
      <trkpt lat="50.16218" lon="5.5628">
        <ele>209.09</ele>
        <time>2026-08-10T08:19:26.842Z</time>
      </trkpt>
      <trkpt lat="50.16203" lon="5.56254">
        <ele>208.12</ele>
        <time>2026-08-10T08:19:32.844Z</time>
      </trkpt>
      <trkpt lat="50.16191" lon="5.56223">
        <ele>207.06</ele>
        <time>2026-08-10T08:19:38.813Z</time>
      </trkpt>
      <trkpt lat="50.16181" lon="5.56192">
        <ele>206.58</ele>
        <time>2026-08-10T08:19:44.811Z</time>
      </trkpt>
      <trkpt lat="50.16173" lon="5.56157">
        <ele>206.9</ele>
        <time>2026-08-10T08:19:50.816Z</time>
      </trkpt>
      <trkpt lat="50.16169" lon="5.56121">
        <ele>208.47</ele>
        <time>2026-08-10T08:19:56.849Z</time>
      </trkpt>
      <trkpt lat="50.16165" lon="5.56086">
        <ele>210.89</ele>
        <time>2026-08-10T08:20:02.845Z</time>
      </trkpt>
      <trkpt lat="50.16158" lon="5.56053">
        <ele>212.08</ele>
        <time>2026-08-10T08:20:08.818Z</time>
      </trkpt>
      <trkpt lat="50.1615" lon="5.56024">
        <ele>209.06</ele>
        <time>2026-08-10T08:20:14.815Z</time>
      </trkpt>
      <trkpt lat="50.16139" lon="5.55991">
        <ele>207.24</ele>
        <time>2026-08-10T08:20:20.818Z</time>
      </trkpt>
      <trkpt lat="50.16126" lon="5.5596">
        <ele>202.41</ele>
        <time>2026-08-10T08:20:26.841Z</time>
      </trkpt>
      <trkpt lat="50.1611" lon="5.55932">
        <ele>200.53</ele>
        <time>2026-08-10T08:20:32.845Z</time>
      </trkpt>
      <trkpt lat="50.16094" lon="5.55906">
        <ele>200.43</ele>
        <time>2026-08-10T08:20:38.817Z</time>
      </trkpt>
      <trkpt lat="50.16075" lon="5.55881">
        <ele>202.57</ele>
        <time>2026-08-10T08:20:44.818Z</time>
      </trkpt>
      <trkpt lat="50.16055" lon="5.55861">
        <ele>207.42</ele>
        <time>2026-08-10T08:20:50.815Z</time>
      </trkpt>
      <trkpt lat="50.16033" lon="5.55842">
        <ele>212.86</ele>
        <time>2026-08-10T08:20:56.846Z</time>
      </trkpt>
      <trkpt lat="50.16013" lon="5.55824">
        <ele>213.8</ele>
        <time>2026-08-10T08:21:02.847Z</time>
      </trkpt>
      <trkpt lat="50.15997" lon="5.55805">
        <ele>214.17</ele>
        <time>2026-08-10T08:21:08.818Z</time>
      </trkpt>
      <trkpt lat="50.15986" lon="5.55793">
        <ele>216.93</ele>
        <time>2026-08-10T08:21:14.827Z</time>
      </trkpt>
      <trkpt lat="50.15983" lon="5.55777">
        <ele>217.08</ele>
        <time>2026-08-10T08:21:20.808Z</time>
      </trkpt>
      <trkpt lat="50.15977" lon="5.55759">
        <ele>216.14</ele>
        <time>2026-08-10T08:21:26.809Z</time>
      </trkpt>
      <trkpt lat="50.15966" lon="5.55734">
        <ele>215.19</ele>
        <time>2026-08-10T08:21:32.852Z</time>
      </trkpt>
      <trkpt lat="50.15955" lon="5.55707">
        <ele>214.87</ele>
        <time>2026-08-10T08:21:38.820Z</time>
      </trkpt>
      <trkpt lat="50.15941" lon="5.55678">
        <ele>215.66</ele>
        <time>2026-08-10T08:21:44.813Z</time>
      </trkpt>
      <trkpt lat="50.15927" lon="5.55648">
        <ele>216.42</ele>
        <time>2026-08-10T08:21:50.817Z</time>
      </trkpt>
      <trkpt lat="50.15918" lon="5.55614">
        <ele>216.86</ele>
        <time>2026-08-10T08:21:56.845Z</time>
      </trkpt>
      <trkpt lat="50.15909" lon="5.55577">
        <ele>217.54</ele>
        <time>2026-08-10T08:22:02.848Z</time>
      </trkpt>
      <trkpt lat="50.15905" lon="5.5554">
        <ele>216.57</ele>
        <time>2026-08-10T08:22:08.818Z</time>
      </trkpt>
      <trkpt lat="50.15903" lon="5.55503">
        <ele>216.47</ele>
        <time>2026-08-10T08:22:14.813Z</time>
      </trkpt>
      <trkpt lat="50.15903" lon="5.55468">
        <ele>217.43</ele>
        <time>2026-08-10T08:22:20.816Z</time>
      </trkpt>
      <trkpt lat="50.15904" lon="5.55435">
        <ele>218.98</ele>
        <time>2026-08-10T08:22:26.851Z</time>
      </trkpt>
      <trkpt lat="50.15905" lon="5.554">
        <ele>220.78</ele>
        <time>2026-08-10T08:22:32.841Z</time>
      </trkpt>
      <trkpt lat="50.15905" lon="5.55366">
        <ele>221.89</ele>
        <time>2026-08-10T08:22:38.819Z</time>
      </trkpt>
      <trkpt lat="50.15906" lon="5.55334">
        <ele>221.61</ele>
        <time>2026-08-10T08:22:44.815Z</time>
      </trkpt>
      <trkpt lat="50.15908" lon="5.55302">
        <ele>221.7</ele>
        <time>2026-08-10T08:22:50.817Z</time>
      </trkpt>
      <trkpt lat="50.15912" lon="5.55268">
        <ele>219.82</ele>
        <time>2026-08-10T08:22:56.853Z</time>
      </trkpt>
      <trkpt lat="50.15918" lon="5.55234">
        <ele>217.46</ele>
        <time>2026-08-10T08:23:02.843Z</time>
      </trkpt>
      <trkpt lat="50.15925" lon="5.55203">
        <ele>218.75</ele>
        <time>2026-08-10T08:23:08.819Z</time>
      </trkpt>
      <trkpt lat="50.15933" lon="5.55173">
        <ele>218.92</ele>
        <time>2026-08-10T08:23:14.818Z</time>
      </trkpt>
      <trkpt lat="50.1594" lon="5.55141">
        <ele>217.59</ele>
        <time>2026-08-10T08:23:20.821Z</time>
      </trkpt>
      <trkpt lat="50.15946" lon="5.55109">
        <ele>215.58</ele>
        <time>2026-08-10T08:23:26.820Z</time>
      </trkpt>
      <trkpt lat="50.15951" lon="5.55079">
        <ele>214.55</ele>
        <time>2026-08-10T08:23:32.836Z</time>
      </trkpt>
      <trkpt lat="50.15953" lon="5.55044">
        <ele>216.13</ele>
        <time>2026-08-10T08:23:38.813Z</time>
      </trkpt>
      <trkpt lat="50.1595" lon="5.55007">
        <ele>218.16</ele>
        <time>2026-08-10T08:23:44.817Z</time>
      </trkpt>
      <trkpt lat="50.15942" lon="5.54977">
        <ele>219.05</ele>
        <time>2026-08-10T08:23:50.816Z</time>
      </trkpt>
      <trkpt lat="50.15935" lon="5.54951">
        <ele>219.94</ele>
        <time>2026-08-10T08:23:56.850Z</time>
      </trkpt>
      <trkpt lat="50.15925" lon="5.54922">
        <ele>219.63</ele>
        <time>2026-08-10T08:24:02.838Z</time>
      </trkpt>
      <trkpt lat="50.1591" lon="5.54895">
        <ele>219.49</ele>
        <time>2026-08-10T08:24:08.816Z</time>
      </trkpt>
      <trkpt lat="50.15891" lon="5.54873">
        <ele>219.84</ele>
        <time>2026-08-10T08:24:14.820Z</time>
      </trkpt>
      <trkpt lat="50.15871" lon="5.54856">
        <ele>219.75</ele>
        <time>2026-08-10T08:24:20.819Z</time>
      </trkpt>
      <trkpt lat="50.15848" lon="5.54851">
        <ele>224.64</ele>
        <time>2026-08-10T08:24:26.855Z</time>
      </trkpt>
      <trkpt lat="50.15827" lon="5.54844">
        <ele>225.65</ele>
        <time>2026-08-10T08:24:32.838Z</time>
      </trkpt>
      <trkpt lat="50.15804" lon="5.54839">
        <ele>229.87</ele>
        <time>2026-08-10T08:24:38.815Z</time>
      </trkpt>
      <trkpt lat="50.15782" lon="5.54841">
        <ele>234.31</ele>
        <time>2026-08-10T08:24:44.818Z</time>
      </trkpt>
      <trkpt lat="50.15761" lon="5.54839">
        <ele>239.76</ele>
        <time>2026-08-10T08:24:50.816Z</time>
      </trkpt>
      <trkpt lat="50.1574" lon="5.54833">
        <ele>239.86</ele>
        <time>2026-08-10T08:24:56.856Z</time>
      </trkpt>
      <trkpt lat="50.15717" lon="5.54827">
        <ele>236.56</ele>
        <time>2026-08-10T08:25:02.836Z</time>
      </trkpt>
      <trkpt lat="50.15693" lon="5.54824">
        <ele>234.5</ele>
        <time>2026-08-10T08:25:08.811Z</time>
      </trkpt>
      <trkpt lat="50.15669" lon="5.54821">
        <ele>234.16</ele>
        <time>2026-08-10T08:25:14.813Z</time>
      </trkpt>
      <trkpt lat="50.15644" lon="5.54815">
        <ele>233.7</ele>
        <time>2026-08-10T08:25:20.814Z</time>
      </trkpt>
      <trkpt lat="50.15616" lon="5.54809">
        <ele>234.61</ele>
        <time>2026-08-10T08:25:26.850Z</time>
      </trkpt>
      <trkpt lat="50.15587" lon="5.54806">
        <ele>234.46</ele>
        <time>2026-08-10T08:25:32.838Z</time>
      </trkpt>
      <trkpt lat="50.15561" lon="5.54814">
        <ele>235.07</ele>
        <time>2026-08-10T08:25:38.822Z</time>
      </trkpt>
      <trkpt lat="50.15538" lon="5.54833">
        <ele>234.64</ele>
        <time>2026-08-10T08:25:44.814Z</time>
      </trkpt>
      <trkpt lat="50.15525" lon="5.54854">
        <ele>233.47</ele>
        <time>2026-08-10T08:25:50.813Z</time>
      </trkpt>
      <trkpt lat="50.15517" lon="5.54874">
        <ele>232.67</ele>
        <time>2026-08-10T08:25:56.823Z</time>
      </trkpt>
      <trkpt lat="50.1551" lon="5.5489">
        <ele>231.97</ele>
        <time>2026-08-10T08:26:02.834Z</time>
      </trkpt>
      <trkpt lat="50.15499" lon="5.54915">
        <ele>229.92</ele>
        <time>2026-08-10T08:26:08.818Z</time>
      </trkpt>
      <trkpt lat="50.15484" lon="5.54937">
        <ele>226.05</ele>
        <time>2026-08-10T08:26:14.816Z</time>
      </trkpt>
      <trkpt lat="50.15467" lon="5.54948">
        <ele>223.13</ele>
        <time>2026-08-10T08:26:20.813Z</time>
      </trkpt>
      <trkpt lat="50.15448" lon="5.54958">
        <ele>222.34</ele>
        <time>2026-08-10T08:26:26.852Z</time>
      </trkpt>
      <trkpt lat="50.1543" lon="5.54962">
        <ele>226.84</ele>
        <time>2026-08-10T08:26:32.846Z</time>
      </trkpt>
      <trkpt lat="50.15413" lon="5.5496">
        <ele>230.01</ele>
        <time>2026-08-10T08:26:38.812Z</time>
      </trkpt>
      <trkpt lat="50.15391" lon="5.54958">
        <ele>234.07</ele>
        <time>2026-08-10T08:26:44.823Z</time>
      </trkpt>
      <trkpt lat="50.1537" lon="5.54954">
        <ele>238.38</ele>
        <time>2026-08-10T08:26:50.815Z</time>
      </trkpt>
      <trkpt lat="50.15351" lon="5.54945">
        <ele>239.53</ele>
        <time>2026-08-10T08:26:56.839Z</time>
      </trkpt>
      <trkpt lat="50.15331" lon="5.54936">
        <ele>242.83</ele>
        <time>2026-08-10T08:27:02.837Z</time>
      </trkpt>
      <trkpt lat="50.15311" lon="5.54923">
        <ele>246.54</ele>
        <time>2026-08-10T08:27:08.808Z</time>
      </trkpt>
      <trkpt lat="50.15292" lon="5.54909">
        <ele>246.76</ele>
        <time>2026-08-10T08:27:14.820Z</time>
      </trkpt>
      <trkpt lat="50.15273" lon="5.54896">
        <ele>248.04</ele>
        <time>2026-08-10T08:27:20.814Z</time>
      </trkpt>
      <trkpt lat="50.15254" lon="5.54881">
        <ele>247.47</ele>
        <time>2026-08-10T08:27:26.851Z</time>
      </trkpt>
      <trkpt lat="50.15236" lon="5.54869">
        <ele>247.72</ele>
        <time>2026-08-10T08:27:32.841Z</time>
      </trkpt>
      <trkpt lat="50.15219" lon="5.54856">
        <ele>248.88</ele>
        <time>2026-08-10T08:27:38.818Z</time>
      </trkpt>
      <trkpt lat="50.15201" lon="5.54844">
        <ele>249.95</ele>
        <time>2026-08-10T08:27:44.816Z</time>
      </trkpt>
      <trkpt lat="50.15184" lon="5.54831">
        <ele>250.4</ele>
        <time>2026-08-10T08:27:50.820Z</time>
      </trkpt>
      <trkpt lat="50.15167" lon="5.5482">
        <ele>250.02</ele>
        <time>2026-08-10T08:27:56.851Z</time>
      </trkpt>
      <trkpt lat="50.1515" lon="5.54815">
        <ele>252.02</ele>
        <time>2026-08-10T08:28:02.838Z</time>
      </trkpt>
      <trkpt lat="50.15132" lon="5.54815">
        <ele>255.48</ele>
        <time>2026-08-10T08:28:08.818Z</time>
      </trkpt>
      <trkpt lat="50.15109" lon="5.54827">
        <ele>255.62</ele>
        <time>2026-08-10T08:28:14.815Z</time>
      </trkpt>
      <trkpt lat="50.15094" lon="5.54841">
        <ele>255.65</ele>
        <time>2026-08-10T08:28:20.815Z</time>
      </trkpt>
      <trkpt lat="50.15079" lon="5.54862">
        <ele>256.99</ele>
        <time>2026-08-10T08:28:26.850Z</time>
      </trkpt>
      <trkpt lat="50.15068" lon="5.54882">
        <ele>257.47</ele>
        <time>2026-08-10T08:28:32.838Z</time>
      </trkpt>
      <trkpt lat="50.15059" lon="5.54902">
        <ele>258.38</ele>
        <time>2026-08-10T08:28:38.811Z</time>
      </trkpt>
      <trkpt lat="50.15045" lon="5.54935">
        <ele>255.98</ele>
        <time>2026-08-10T08:28:44.817Z</time>
      </trkpt>
      <trkpt lat="50.15031" lon="5.54966">
        <ele>251.6</ele>
        <time>2026-08-10T08:28:50.816Z</time>
      </trkpt>
      <trkpt lat="50.15016" lon="5.54992">
        <ele>248.3</ele>
        <time>2026-08-10T08:28:56.848Z</time>
      </trkpt>
      <trkpt lat="50.15002" lon="5.55007">
        <ele>247.56</ele>
        <time>2026-08-10T08:29:02.841Z</time>
      </trkpt>
      <trkpt lat="50.14988" lon="5.55023">
        <ele>249.6</ele>
        <time>2026-08-10T08:29:08.817Z</time>
      </trkpt>
      <trkpt lat="50.14972" lon="5.55036">
        <ele>248.18</ele>
        <time>2026-08-10T08:29:14.813Z</time>
      </trkpt>
      <trkpt lat="50.14955" lon="5.55047">
        <ele>245.73</ele>
        <time>2026-08-10T08:29:20.814Z</time>
      </trkpt>
      <trkpt lat="50.1494" lon="5.55059">
        <ele>244.43</ele>
        <time>2026-08-10T08:29:26.852Z</time>
      </trkpt>
      <trkpt lat="50.14922" lon="5.55068">
        <ele>244.35</ele>
        <time>2026-08-10T08:29:32.849Z</time>
      </trkpt>
      <trkpt lat="50.1491" lon="5.55075">
        <ele>244.89</ele>
        <time>2026-08-10T08:29:38.812Z</time>
      </trkpt>
      <trkpt lat="50.14896" lon="5.5508">
        <ele>245.9</ele>
        <time>2026-08-10T08:29:44.816Z</time>
      </trkpt>
      <trkpt lat="50.14883" lon="5.55086">
        <ele>246.31</ele>
        <time>2026-08-10T08:29:50.817Z</time>
      </trkpt>
      <trkpt lat="50.1487" lon="5.55094">
        <ele>247.09</ele>
        <time>2026-08-10T08:29:56.849Z</time>
      </trkpt>
      <trkpt lat="50.14858" lon="5.55101">
        <ele>249.27</ele>
        <time>2026-08-10T08:30:02.839Z</time>
      </trkpt>
      <trkpt lat="50.14844" lon="5.55109">
        <ele>251.25</ele>
        <time>2026-08-10T08:30:08.818Z</time>
      </trkpt>
      <trkpt lat="50.14829" lon="5.55112">
        <ele>253.46</ele>
        <time>2026-08-10T08:30:14.819Z</time>
      </trkpt>
      <trkpt lat="50.14815" lon="5.55114">
        <ele>255.53</ele>
        <time>2026-08-10T08:30:20.813Z</time>
      </trkpt>
      <trkpt lat="50.14802" lon="5.55117">
        <ele>258.37</ele>
        <time>2026-08-10T08:30:26.842Z</time>
      </trkpt>
      <trkpt lat="50.1479" lon="5.55119">
        <ele>261.48</ele>
        <time>2026-08-10T08:30:32.838Z</time>
      </trkpt>
      <trkpt lat="50.14775" lon="5.55115">
        <ele>263.45</ele>
        <time>2026-08-10T08:30:38.821Z</time>
      </trkpt>
      <trkpt lat="50.1476" lon="5.5511">
        <ele>265.55</ele>
        <time>2026-08-10T08:30:44.820Z</time>
      </trkpt>
      <trkpt lat="50.14746" lon="5.55109">
        <ele>269.68</ele>
        <time>2026-08-10T08:30:50.818Z</time>
      </trkpt>
      <trkpt lat="50.14734" lon="5.55105">
        <ele>270.74</ele>
        <time>2026-08-10T08:30:56.837Z</time>
      </trkpt>
      <trkpt lat="50.14719" lon="5.55101">
        <ele>272.15</ele>
        <time>2026-08-10T08:31:02.843Z</time>
      </trkpt>
      <trkpt lat="50.14704" lon="5.55095">
        <ele>272.4</ele>
        <time>2026-08-10T08:31:08.840Z</time>
      </trkpt>
      <trkpt lat="50.14683" lon="5.55097">
        <ele>274.47</ele>
        <time>2026-08-10T08:31:14.809Z</time>
      </trkpt>
      <trkpt lat="50.14668" lon="5.5508">
        <ele>267.67</ele>
        <time>2026-08-10T08:31:20.811Z</time>
      </trkpt>
      <trkpt lat="50.1465" lon="5.55083">
        <ele>261.99</ele>
        <time>2026-08-10T08:31:26.839Z</time>
      </trkpt>
      <trkpt lat="50.14629" lon="5.55084">
        <ele>260.43</ele>
        <time>2026-08-10T08:31:32.837Z</time>
      </trkpt>
      <trkpt lat="50.14608" lon="5.55089">
        <ele>262.45</ele>
        <time>2026-08-10T08:31:38.816Z</time>
      </trkpt>
      <trkpt lat="50.14585" lon="5.55095">
        <ele>267.14</ele>
        <time>2026-08-10T08:31:44.817Z</time>
      </trkpt>
      <trkpt lat="50.14564" lon="5.55101">
        <ele>271.99</ele>
        <time>2026-08-10T08:31:50.810Z</time>
      </trkpt>
      <trkpt lat="50.14544" lon="5.55107">
        <ele>275.44</ele>
        <time>2026-08-10T08:31:56.839Z</time>
      </trkpt>
      <trkpt lat="50.14524" lon="5.55113">
        <ele>277.54</ele>
        <time>2026-08-10T08:32:02.843Z</time>
      </trkpt>
      <trkpt lat="50.14503" lon="5.55122">
        <ele>281.33</ele>
        <time>2026-08-10T08:32:08.814Z</time>
      </trkpt>
      <trkpt lat="50.14484" lon="5.5513">
        <ele>284.23</ele>
        <time>2026-08-10T08:32:14.818Z</time>
      </trkpt>
      <trkpt lat="50.14465" lon="5.55134">
        <ele>283.73</ele>
        <time>2026-08-10T08:32:20.815Z</time>
      </trkpt>
      <trkpt lat="50.14443" lon="5.55134">
        <ele>277.05</ele>
        <time>2026-08-10T08:32:26.849Z</time>
      </trkpt>
      <trkpt lat="50.14422" lon="5.55137">
        <ele>274.76</ele>
        <time>2026-08-10T08:32:32.838Z</time>
      </trkpt>
      <trkpt lat="50.14401" lon="5.55138">
        <ele>273.47</ele>
        <time>2026-08-10T08:32:38.813Z</time>
      </trkpt>
      <trkpt lat="50.1438" lon="5.55136">
        <ele>273.52</ele>
        <time>2026-08-10T08:32:44.820Z</time>
      </trkpt>
      <trkpt lat="50.14361" lon="5.55134">
        <ele>273.83</ele>
        <time>2026-08-10T08:32:50.816Z</time>
      </trkpt>
      <trkpt lat="50.14342" lon="5.55127">
        <ele>272.79</ele>
        <time>2026-08-10T08:32:56.837Z</time>
      </trkpt>
      <trkpt lat="50.14324" lon="5.55118">
        <ele>271.87</ele>
        <time>2026-08-10T08:33:02.838Z</time>
      </trkpt>
      <trkpt lat="50.14307" lon="5.55104">
        <ele>271.33</ele>
        <time>2026-08-10T08:33:08.814Z</time>
      </trkpt>
      <trkpt lat="50.14288" lon="5.5509">
        <ele>272.99</ele>
        <time>2026-08-10T08:33:14.814Z</time>
      </trkpt>
      <trkpt lat="50.14271" lon="5.55075">
        <ele>274.72</ele>
        <time>2026-08-10T08:33:20.813Z</time>
      </trkpt>
      <trkpt lat="50.14254" lon="5.55061">
        <ele>274.85</ele>
        <time>2026-08-10T08:33:26.846Z</time>
      </trkpt>
      <trkpt lat="50.14236" lon="5.55047">
        <ele>276.6</ele>
        <time>2026-08-10T08:33:32.840Z</time>
      </trkpt>
      <trkpt lat="50.14217" lon="5.55035">
        <ele>278.51</ele>
        <time>2026-08-10T08:33:38.817Z</time>
      </trkpt>
      <trkpt lat="50.14198" lon="5.55027">
        <ele>280.55</ele>
        <time>2026-08-10T08:33:44.820Z</time>
      </trkpt>
      <trkpt lat="50.14178" lon="5.55024">
        <ele>281.49</ele>
        <time>2026-08-10T08:33:50.816Z</time>
      </trkpt>
      <trkpt lat="50.14157" lon="5.55023">
        <ele>282.1</ele>
        <time>2026-08-10T08:33:56.818Z</time>
      </trkpt>
      <trkpt lat="50.14137" lon="5.55029">
        <ele>281.73</ele>
        <time>2026-08-10T08:34:02.837Z</time>
      </trkpt>
      <trkpt lat="50.14119" lon="5.55041">
        <ele>282.86</ele>
        <time>2026-08-10T08:34:08.821Z</time>
      </trkpt>
      <trkpt lat="50.14102" lon="5.55054">
        <ele>285.34</ele>
        <time>2026-08-10T08:34:14.812Z</time>
      </trkpt>
      <trkpt lat="50.14085" lon="5.55067">
        <ele>288.23</ele>
        <time>2026-08-10T08:34:20.816Z</time>
      </trkpt>
      <trkpt lat="50.14069" lon="5.5508">
        <ele>290.05</ele>
        <time>2026-08-10T08:34:26.837Z</time>
      </trkpt>
      <trkpt lat="50.14054" lon="5.551">
        <ele>288.61</ele>
        <time>2026-08-10T08:34:32.843Z</time>
      </trkpt>
      <trkpt lat="50.14041" lon="5.55116">
        <ele>286.54</ele>
        <time>2026-08-10T08:34:38.819Z</time>
      </trkpt>
      <trkpt lat="50.14026" lon="5.55132">
        <ele>285.35</ele>
        <time>2026-08-10T08:34:44.819Z</time>
      </trkpt>
      <trkpt lat="50.14012" lon="5.55146">
        <ele>285.97</ele>
        <time>2026-08-10T08:34:50.820Z</time>
      </trkpt>
      <trkpt lat="50.13998" lon="5.55159">
        <ele>287.44</ele>
        <time>2026-08-10T08:34:56.855Z</time>
      </trkpt>
      <trkpt lat="50.13981" lon="5.55166">
        <ele>285.86</ele>
        <time>2026-08-10T08:35:02.845Z</time>
      </trkpt>
      <trkpt lat="50.13963" lon="5.55169">
        <ele>286.69</ele>
        <time>2026-08-10T08:35:08.817Z</time>
      </trkpt>
      <trkpt lat="50.13944" lon="5.55168">
        <ele>287.33</ele>
        <time>2026-08-10T08:35:14.807Z</time>
      </trkpt>
      <trkpt lat="50.13925" lon="5.55164">
        <ele>287.67</ele>
        <time>2026-08-10T08:35:20.814Z</time>
      </trkpt>
      <trkpt lat="50.13906" lon="5.55155">
        <ele>287.61</ele>
        <time>2026-08-10T08:35:26.852Z</time>
      </trkpt>
      <trkpt lat="50.13886" lon="5.55142">
        <ele>287.39</ele>
        <time>2026-08-10T08:35:32.845Z</time>
      </trkpt>
      <trkpt lat="50.13868" lon="5.55127">
        <ele>287.64</ele>
        <time>2026-08-10T08:35:38.819Z</time>
      </trkpt>
      <trkpt lat="50.13851" lon="5.5511">
        <ele>288.12</ele>
        <time>2026-08-10T08:35:44.819Z</time>
      </trkpt>
      <trkpt lat="50.13831" lon="5.55087">
        <ele>288.96</ele>
        <time>2026-08-10T08:35:50.818Z</time>
      </trkpt>
      <trkpt lat="50.13815" lon="5.55059">
        <ele>289.53</ele>
        <time>2026-08-10T08:35:56.812Z</time>
      </trkpt>
      <trkpt lat="50.13803" lon="5.55029">
        <ele>290.21</ele>
        <time>2026-08-10T08:36:02.845Z</time>
      </trkpt>
      <trkpt lat="50.13792" lon="5.54999">
        <ele>290.57</ele>
        <time>2026-08-10T08:36:08.817Z</time>
      </trkpt>
      <trkpt lat="50.13782" lon="5.54967">
        <ele>290.35</ele>
        <time>2026-08-10T08:36:14.818Z</time>
      </trkpt>
      <trkpt lat="50.13768" lon="5.54935">
        <ele>287.49</ele>
        <time>2026-08-10T08:36:20.815Z</time>
      </trkpt>
      <trkpt lat="50.13755" lon="5.5491">
        <ele>284.38</ele>
        <time>2026-08-10T08:36:26.851Z</time>
      </trkpt>
      <trkpt lat="50.13743" lon="5.54891">
        <ele>280.97</ele>
        <time>2026-08-10T08:36:32.845Z</time>
      </trkpt>
      <trkpt lat="50.13733" lon="5.54872">
        <ele>281.02</ele>
        <time>2026-08-10T08:36:38.815Z</time>
      </trkpt>
      <trkpt lat="50.13722" lon="5.5485">
        <ele>283.34</ele>
        <time>2026-08-10T08:36:44.812Z</time>
      </trkpt>
      <trkpt lat="50.13709" lon="5.54828">
        <ele>283.77</ele>
        <time>2026-08-10T08:36:50.815Z</time>
      </trkpt>
      <trkpt lat="50.13697" lon="5.54809">
        <ele>282.44</ele>
        <time>2026-08-10T08:36:56.852Z</time>
      </trkpt>
      <trkpt lat="50.13685" lon="5.54789">
        <ele>283.32</ele>
        <time>2026-08-10T08:37:02.844Z</time>
      </trkpt>
      <trkpt lat="50.13671" lon="5.54768">
        <ele>281.74</ele>
        <time>2026-08-10T08:37:08.818Z</time>
      </trkpt>
      <trkpt lat="50.13659" lon="5.54749">
        <ele>281.56</ele>
        <time>2026-08-10T08:37:14.819Z</time>
      </trkpt>
      <trkpt lat="50.13647" lon="5.54727">
        <ele>281.99</ele>
        <time>2026-08-10T08:37:20.816Z</time>
      </trkpt>
      <trkpt lat="50.13638" lon="5.54708">
        <ele>283.06</ele>
        <time>2026-08-10T08:37:26.848Z</time>
      </trkpt>
      <trkpt lat="50.1363" lon="5.54691">
        <ele>283.67</ele>
        <time>2026-08-10T08:37:32.848Z</time>
      </trkpt>
      <trkpt lat="50.1362" lon="5.5467">
        <ele>287.18</ele>
        <time>2026-08-10T08:37:38.819Z</time>
      </trkpt>
      <trkpt lat="50.13612" lon="5.54644">
        <ele>290.23</ele>
        <time>2026-08-10T08:37:44.816Z</time>
      </trkpt>
      <trkpt lat="50.13603" lon="5.54619">
        <ele>292.81</ele>
        <time>2026-08-10T08:37:50.816Z</time>
      </trkpt>
      <trkpt lat="50.13594" lon="5.54589">
        <ele>296.3</ele>
        <time>2026-08-10T08:37:56.853Z</time>
      </trkpt>
      <trkpt lat="50.13587" lon="5.5456">
        <ele>299.57</ele>
        <time>2026-08-10T08:38:02.849Z</time>
      </trkpt>
      <trkpt lat="50.13581" lon="5.5453">
        <ele>299.33</ele>
        <time>2026-08-10T08:38:08.817Z</time>
      </trkpt>
      <trkpt lat="50.13578" lon="5.54501">
        <ele>299.74</ele>
        <time>2026-08-10T08:38:14.819Z</time>
      </trkpt>
      <trkpt lat="50.13578" lon="5.54471">
        <ele>300.39</ele>
        <time>2026-08-10T08:38:20.818Z</time>
      </trkpt>
      <trkpt lat="50.13579" lon="5.54439">
        <ele>298.41</ele>
        <time>2026-08-10T08:38:26.831Z</time>
      </trkpt>
      <trkpt lat="50.13582" lon="5.54405">
        <ele>295.92</ele>
        <time>2026-08-10T08:38:32.848Z</time>
      </trkpt>
      <trkpt lat="50.13584" lon="5.54371">
        <ele>294.84</ele>
        <time>2026-08-10T08:38:38.820Z</time>
      </trkpt>
      <trkpt lat="50.13586" lon="5.54338">
        <ele>293.09</ele>
        <time>2026-08-10T08:38:44.815Z</time>
      </trkpt>
      <trkpt lat="50.13586" lon="5.54307">
        <ele>291.01</ele>
        <time>2026-08-10T08:38:50.818Z</time>
      </trkpt>
      <trkpt lat="50.13582" lon="5.54274">
        <ele>288.1</ele>
        <time>2026-08-10T08:38:56.850Z</time>
      </trkpt>
      <trkpt lat="50.13577" lon="5.54238">
        <ele>288.99</ele>
        <time>2026-08-10T08:39:02.841Z</time>
      </trkpt>
      <trkpt lat="50.13566" lon="5.54203">
        <ele>289.95</ele>
        <time>2026-08-10T08:39:08.813Z</time>
      </trkpt>
      <trkpt lat="50.13546" lon="5.54184">
        <ele>291.59</ele>
        <time>2026-08-10T08:39:14.815Z</time>
      </trkpt>
      <trkpt lat="50.13526" lon="5.54174">
        <ele>291.89</ele>
        <time>2026-08-10T08:39:20.820Z</time>
      </trkpt>
      <trkpt lat="50.13503" lon="5.54176">
        <ele>295.22</ele>
        <time>2026-08-10T08:39:26.858Z</time>
      </trkpt>
      <trkpt lat="50.13481" lon="5.54179">
        <ele>298.47</ele>
        <time>2026-08-10T08:39:32.845Z</time>
      </trkpt>
      <trkpt lat="50.13462" lon="5.54172">
        <ele>298.97</ele>
        <time>2026-08-10T08:39:38.822Z</time>
      </trkpt>
      <trkpt lat="50.13448" lon="5.54144">
        <ele>302.28</ele>
        <time>2026-08-10T08:39:44.815Z</time>
      </trkpt>
      <trkpt lat="50.13444" lon="5.5412">
        <ele>304.16</ele>
        <time>2026-08-10T08:39:50.818Z</time>
      </trkpt>
      <trkpt lat="50.13458" lon="5.541">
        <ele>304.6</ele>
        <time>2026-08-10T08:39:56.852Z</time>
      </trkpt>
      <trkpt lat="50.1347" lon="5.54076">
        <ele>303.95</ele>
        <time>2026-08-10T08:40:02.846Z</time>
      </trkpt>
      <trkpt lat="50.13468" lon="5.54046">
        <ele>302.74</ele>
        <time>2026-08-10T08:40:08.815Z</time>
      </trkpt>
      <trkpt lat="50.13464" lon="5.54018">
        <ele>303.93</ele>
        <time>2026-08-10T08:40:14.814Z</time>
      </trkpt>
      <trkpt lat="50.13456" lon="5.53988">
        <ele>303.49</ele>
        <time>2026-08-10T08:40:20.817Z</time>
      </trkpt>
      <trkpt lat="50.13448" lon="5.53954">
        <ele>301.92</ele>
        <time>2026-08-10T08:40:26.852Z</time>
      </trkpt>
      <trkpt lat="50.13441" lon="5.53923">
        <ele>301.34</ele>
        <time>2026-08-10T08:40:32.837Z</time>
      </trkpt>
      <trkpt lat="50.13434" lon="5.53892">
        <ele>301.96</ele>
        <time>2026-08-10T08:40:38.819Z</time>
      </trkpt>
      <trkpt lat="50.13427" lon="5.53858">
        <ele>303.54</ele>
        <time>2026-08-10T08:40:44.822Z</time>
      </trkpt>
      <trkpt lat="50.1342" lon="5.53824">
        <ele>304.35</ele>
        <time>2026-08-10T08:40:50.819Z</time>
      </trkpt>
      <trkpt lat="50.13414" lon="5.53788">
        <ele>302.64</ele>
        <time>2026-08-10T08:40:56.854Z</time>
      </trkpt>
      <trkpt lat="50.13405" lon="5.5375">
        <ele>303.01</ele>
        <time>2026-08-10T08:41:02.845Z</time>
      </trkpt>
      <trkpt lat="50.13398" lon="5.53717">
        <ele>304.61</ele>
        <time>2026-08-10T08:41:08.815Z</time>
      </trkpt>
      <trkpt lat="50.13391" lon="5.53684">
        <ele>306</ele>
        <time>2026-08-10T08:41:14.826Z</time>
      </trkpt>
      <trkpt lat="50.13383" lon="5.53651">
        <ele>304.9</ele>
        <time>2026-08-10T08:41:20.821Z</time>
      </trkpt>
      <trkpt lat="50.13374" lon="5.53617">
        <ele>302.9</ele>
        <time>2026-08-10T08:41:26.853Z</time>
      </trkpt>
      <trkpt lat="50.13362" lon="5.53585">
        <ele>303.73</ele>
        <time>2026-08-10T08:41:32.841Z</time>
      </trkpt>
      <trkpt lat="50.13351" lon="5.53552">
        <ele>305.66</ele>
        <time>2026-08-10T08:41:38.819Z</time>
      </trkpt>
      <trkpt lat="50.1334" lon="5.53519">
        <ele>307.19</ele>
        <time>2026-08-10T08:41:44.820Z</time>
      </trkpt>
      <trkpt lat="50.13329" lon="5.53487">
        <ele>308.58</ele>
        <time>2026-08-10T08:41:50.817Z</time>
      </trkpt>
      <trkpt lat="50.13318" lon="5.53456">
        <ele>309.58</ele>
        <time>2026-08-10T08:41:56.852Z</time>
      </trkpt>
      <trkpt lat="50.13307" lon="5.53425">
        <ele>310.35</ele>
        <time>2026-08-10T08:42:02.856Z</time>
      </trkpt>
      <trkpt lat="50.13297" lon="5.53395">
        <ele>312.55</ele>
        <time>2026-08-10T08:42:08.816Z</time>
      </trkpt>
      <trkpt lat="50.13287" lon="5.53364">
        <ele>312.35</ele>
        <time>2026-08-10T08:42:14.816Z</time>
      </trkpt>
      <trkpt lat="50.13277" lon="5.53333">
        <ele>312.69</ele>
        <time>2026-08-10T08:42:20.816Z</time>
      </trkpt>
      <trkpt lat="50.13266" lon="5.53301">
        <ele>312.65</ele>
        <time>2026-08-10T08:42:26.852Z</time>
      </trkpt>
      <trkpt lat="50.13254" lon="5.53267">
        <ele>312.1</ele>
        <time>2026-08-10T08:42:32.840Z</time>
      </trkpt>
      <trkpt lat="50.13241" lon="5.53235">
        <ele>312.05</ele>
        <time>2026-08-10T08:42:38.818Z</time>
      </trkpt>
      <trkpt lat="50.13227" lon="5.53206">
        <ele>311.44</ele>
        <time>2026-08-10T08:42:44.819Z</time>
      </trkpt>
      <trkpt lat="50.13212" lon="5.53177">
        <ele>310.4</ele>
        <time>2026-08-10T08:42:50.821Z</time>
      </trkpt>
      <trkpt lat="50.13196" lon="5.53146">
        <ele>309.54</ele>
        <time>2026-08-10T08:42:56.841Z</time>
      </trkpt>
      <trkpt lat="50.13181" lon="5.53116">
        <ele>309.72</ele>
        <time>2026-08-10T08:43:02.845Z</time>
      </trkpt>
      <trkpt lat="50.13171" lon="5.53077">
        <ele>310.91</ele>
        <time>2026-08-10T08:43:08.818Z</time>
      </trkpt>
      <trkpt lat="50.13164" lon="5.53043">
        <ele>311.39</ele>
        <time>2026-08-10T08:43:14.816Z</time>
      </trkpt>
      <trkpt lat="50.13155" lon="5.53017">
        <ele>311.82</ele>
        <time>2026-08-10T08:43:20.819Z</time>
      </trkpt>
      <trkpt lat="50.1314" lon="5.52992">
        <ele>310.57</ele>
        <time>2026-08-10T08:43:26.842Z</time>
      </trkpt>
      <trkpt lat="50.13125" lon="5.52969">
        <ele>309.22</ele>
        <time>2026-08-10T08:43:32.839Z</time>
      </trkpt>
      <trkpt lat="50.13115" lon="5.52951">
        <ele>309.94</ele>
        <time>2026-08-10T08:43:38.817Z</time>
      </trkpt>
      <trkpt lat="50.13104" lon="5.52935">
        <ele>312.75</ele>
        <time>2026-08-10T08:43:44.818Z</time>
      </trkpt>
      <trkpt lat="50.13092" lon="5.52917">
        <ele>315.37</ele>
        <time>2026-08-10T08:43:50.821Z</time>
      </trkpt>
      <trkpt lat="50.1308" lon="5.52896">
        <ele>316.13</ele>
        <time>2026-08-10T08:43:56.842Z</time>
      </trkpt>
      <trkpt lat="50.13068" lon="5.52875">
        <ele>316.44</ele>
        <time>2026-08-10T08:44:02.843Z</time>
      </trkpt>
      <trkpt lat="50.13055" lon="5.52854">
        <ele>317.37</ele>
        <time>2026-08-10T08:44:08.817Z</time>
      </trkpt>
      <trkpt lat="50.13043" lon="5.52832">
        <ele>318.21</ele>
        <time>2026-08-10T08:44:14.819Z</time>
      </trkpt>
      <trkpt lat="50.13032" lon="5.52808">
        <ele>318.69</ele>
        <time>2026-08-10T08:44:20.821Z</time>
      </trkpt>
      <trkpt lat="50.13022" lon="5.52785">
        <ele>318.93</ele>
        <time>2026-08-10T08:44:26.849Z</time>
      </trkpt>
      <trkpt lat="50.13013" lon="5.5276">
        <ele>318.86</ele>
        <time>2026-08-10T08:44:32.846Z</time>
      </trkpt>
      <trkpt lat="50.13005" lon="5.52735">
        <ele>318.77</ele>
        <time>2026-08-10T08:44:38.820Z</time>
      </trkpt>
      <trkpt lat="50.12996" lon="5.5271">
        <ele>318.15</ele>
        <time>2026-08-10T08:44:44.823Z</time>
      </trkpt>
      <trkpt lat="50.12987" lon="5.52685">
        <ele>319.1</ele>
        <time>2026-08-10T08:44:50.817Z</time>
      </trkpt>
      <trkpt lat="50.12976" lon="5.52661">
        <ele>320.11</ele>
        <time>2026-08-10T08:44:56.853Z</time>
      </trkpt>
      <trkpt lat="50.12964" lon="5.52639">
        <ele>320.16</ele>
        <time>2026-08-10T08:45:02.844Z</time>
      </trkpt>
      <trkpt lat="50.12953" lon="5.52617">
        <ele>319.89</ele>
        <time>2026-08-10T08:45:08.819Z</time>
      </trkpt>
      <trkpt lat="50.12942" lon="5.52597">
        <ele>317.94</ele>
        <time>2026-08-10T08:45:14.821Z</time>
      </trkpt>
      <trkpt lat="50.12928" lon="5.52576">
        <ele>315.52</ele>
        <time>2026-08-10T08:45:20.819Z</time>
      </trkpt>
      <trkpt lat="50.12916" lon="5.52553">
        <ele>313.11</ele>
        <time>2026-08-10T08:45:26.848Z</time>
      </trkpt>
      <trkpt lat="50.12903" lon="5.52528">
        <ele>313.2</ele>
        <time>2026-08-10T08:45:32.849Z</time>
      </trkpt>
      <trkpt lat="50.1289" lon="5.525">
        <ele>314.21</ele>
        <time>2026-08-10T08:45:38.816Z</time>
      </trkpt>
      <trkpt lat="50.12876" lon="5.52472">
        <ele>316.12</ele>
        <time>2026-08-10T08:45:44.817Z</time>
      </trkpt>
      <trkpt lat="50.12861" lon="5.52449">
        <ele>318.61</ele>
        <time>2026-08-10T08:45:50.817Z</time>
      </trkpt>
      <trkpt lat="50.12846" lon="5.52435">
        <ele>321.23</ele>
        <time>2026-08-10T08:45:56.845Z</time>
      </trkpt>
      <trkpt lat="50.12831" lon="5.52423">
        <ele>322.01</ele>
        <time>2026-08-10T08:46:02.849Z</time>
      </trkpt>
      <trkpt lat="50.12818" lon="5.52415">
        <ele>323.44</ele>
        <time>2026-08-10T08:46:08.821Z</time>
      </trkpt>
      <trkpt lat="50.12808" lon="5.52409">
        <ele>324.67</ele>
        <time>2026-08-10T08:46:14.807Z</time>
      </trkpt>
      <trkpt lat="50.12796" lon="5.52398">
        <ele>324.62</ele>
        <time>2026-08-10T08:46:20.823Z</time>
      </trkpt>
      <trkpt lat="50.12784" lon="5.52387">
        <ele>324.55</ele>
        <time>2026-08-10T08:46:26.813Z</time>
      </trkpt>
      <trkpt lat="50.12771" lon="5.52375">
        <ele>323.58</ele>
        <time>2026-08-10T08:46:32.846Z</time>
      </trkpt>
      <trkpt lat="50.12759" lon="5.52366">
        <ele>321.52</ele>
        <time>2026-08-10T08:46:38.812Z</time>
      </trkpt>
      <trkpt lat="50.12745" lon="5.52356">
        <ele>322.35</ele>
        <time>2026-08-10T08:46:44.819Z</time>
      </trkpt>
      <trkpt lat="50.1273" lon="5.52345">
        <ele>326.56</ele>
        <time>2026-08-10T08:46:50.819Z</time>
      </trkpt>
      <trkpt lat="50.12716" lon="5.52335">
        <ele>329.63</ele>
        <time>2026-08-10T08:46:56.846Z</time>
      </trkpt>
      <trkpt lat="50.12703" lon="5.52325">
        <ele>330.65</ele>
        <time>2026-08-10T08:47:02.846Z</time>
      </trkpt>
      <trkpt lat="50.12691" lon="5.52315">
        <ele>331.89</ele>
        <time>2026-08-10T08:47:08.822Z</time>
      </trkpt>
      <trkpt lat="50.12677" lon="5.52309">
        <ele>333.19</ele>
        <time>2026-08-10T08:47:14.816Z</time>
      </trkpt>
      <trkpt lat="50.12666" lon="5.52302">
        <ele>332.91</ele>
        <time>2026-08-10T08:47:20.822Z</time>
      </trkpt>
      <trkpt lat="50.12654" lon="5.52296">
        <ele>333.45</ele>
        <time>2026-08-10T08:47:26.850Z</time>
      </trkpt>
      <trkpt lat="50.12642" lon="5.52291">
        <ele>334.43</ele>
        <time>2026-08-10T08:47:32.852Z</time>
      </trkpt>
      <trkpt lat="50.1263" lon="5.52286">
        <ele>335.37</ele>
        <time>2026-08-10T08:47:38.818Z</time>
      </trkpt>
      <trkpt lat="50.12617" lon="5.5228">
        <ele>336.81</ele>
        <time>2026-08-10T08:47:44.820Z</time>
      </trkpt>
      <trkpt lat="50.12605" lon="5.52276">
        <ele>337.35</ele>
        <time>2026-08-10T08:47:50.828Z</time>
      </trkpt>
      <trkpt lat="50.12591" lon="5.52271">
        <ele>339.68</ele>
        <time>2026-08-10T08:47:56.851Z</time>
      </trkpt>
      <trkpt lat="50.12579" lon="5.52263">
        <ele>338.24</ele>
        <time>2026-08-10T08:48:02.847Z</time>
      </trkpt>
      <trkpt lat="50.12564" lon="5.52254">
        <ele>334.93</ele>
        <time>2026-08-10T08:48:08.819Z</time>
      </trkpt>
      <trkpt lat="50.12546" lon="5.52246">
        <ele>333.6</ele>
        <time>2026-08-10T08:48:14.818Z</time>
      </trkpt>
      <trkpt lat="50.12531" lon="5.5224">
        <ele>335.13</ele>
        <time>2026-08-10T08:48:20.812Z</time>
      </trkpt>
      <trkpt lat="50.12515" lon="5.52233">
        <ele>336.19</ele>
        <time>2026-08-10T08:48:26.811Z</time>
      </trkpt>
      <trkpt lat="50.12497" lon="5.52224">
        <ele>338.13</ele>
        <time>2026-08-10T08:48:32.847Z</time>
      </trkpt>
      <trkpt lat="50.12476" lon="5.52218">
        <ele>339.44</ele>
        <time>2026-08-10T08:48:38.832Z</time>
      </trkpt>
      <trkpt lat="50.12456" lon="5.52207">
        <ele>338.06</ele>
        <time>2026-08-10T08:48:44.822Z</time>
      </trkpt>
      <trkpt lat="50.12433" lon="5.52201">
        <ele>338.69</ele>
        <time>2026-08-10T08:48:50.826Z</time>
      </trkpt>
      <trkpt lat="50.12412" lon="5.52192">
        <ele>339.03</ele>
        <time>2026-08-10T08:48:56.852Z</time>
      </trkpt>
      <trkpt lat="50.12391" lon="5.52182">
        <ele>339.85</ele>
        <time>2026-08-10T08:49:02.850Z</time>
      </trkpt>
      <trkpt lat="50.12369" lon="5.52173">
        <ele>340.85</ele>
        <time>2026-08-10T08:49:08.832Z</time>
      </trkpt>
      <trkpt lat="50.12349" lon="5.52166">
        <ele>341.29</ele>
        <time>2026-08-10T08:49:14.821Z</time>
      </trkpt>
      <trkpt lat="50.12331" lon="5.52161">
        <ele>341.49</ele>
        <time>2026-08-10T08:49:20.825Z</time>
      </trkpt>
      <trkpt lat="50.12307" lon="5.52155">
        <ele>342.16</ele>
        <time>2026-08-10T08:49:26.849Z</time>
      </trkpt>
      <trkpt lat="50.12285" lon="5.52155">
        <ele>341.91</ele>
        <time>2026-08-10T08:49:32.852Z</time>
      </trkpt>
      <trkpt lat="50.12265" lon="5.52157">
        <ele>341.39</ele>
        <time>2026-08-10T08:49:38.832Z</time>
      </trkpt>
      <trkpt lat="50.12243" lon="5.52163">
        <ele>342.4</ele>
        <time>2026-08-10T08:49:44.821Z</time>
      </trkpt>
      <trkpt lat="50.12219" lon="5.52172">
        <ele>342.13</ele>
        <time>2026-08-10T08:49:50.826Z</time>
      </trkpt>
      <trkpt lat="50.12197" lon="5.52181">
        <ele>343</ele>
        <time>2026-08-10T08:49:56.853Z</time>
      </trkpt>
      <trkpt lat="50.12174" lon="5.5219">
        <ele>343.17</ele>
        <time>2026-08-10T08:50:02.847Z</time>
      </trkpt>
      <trkpt lat="50.12152" lon="5.52199">
        <ele>343.41</ele>
        <time>2026-08-10T08:50:08.824Z</time>
      </trkpt>
      <trkpt lat="50.12129" lon="5.52207">
        <ele>341.98</ele>
        <time>2026-08-10T08:50:14.827Z</time>
      </trkpt>
      <trkpt lat="50.12106" lon="5.52213">
        <ele>342.38</ele>
        <time>2026-08-10T08:50:20.824Z</time>
      </trkpt>
      <trkpt lat="50.12082" lon="5.52208">
        <ele>342.87</ele>
        <time>2026-08-10T08:50:26.856Z</time>
      </trkpt>
      <trkpt lat="50.1206" lon="5.522">
        <ele>342.03</ele>
        <time>2026-08-10T08:50:32.849Z</time>
      </trkpt>
      <trkpt lat="50.12037" lon="5.52188">
        <ele>341.59</ele>
        <time>2026-08-10T08:50:38.822Z</time>
      </trkpt>
      <trkpt lat="50.12013" lon="5.52179">
        <ele>341.97</ele>
        <time>2026-08-10T08:50:44.823Z</time>
      </trkpt>
      <trkpt lat="50.11986" lon="5.52176">
        <ele>344.65</ele>
        <time>2026-08-10T08:50:50.821Z</time>
      </trkpt>
      <trkpt lat="50.11963" lon="5.52189">
        <ele>344.48</ele>
        <time>2026-08-10T08:50:56.823Z</time>
      </trkpt>
      <trkpt lat="50.11944" lon="5.52205">
        <ele>344.05</ele>
        <time>2026-08-10T08:51:02.851Z</time>
      </trkpt>
      <trkpt lat="50.11926" lon="5.5222">
        <ele>346</ele>
        <time>2026-08-10T08:51:08.822Z</time>
      </trkpt>
      <trkpt lat="50.11911" lon="5.52233">
        <ele>348.45</ele>
        <time>2026-08-10T08:51:14.826Z</time>
      </trkpt>
      <trkpt lat="50.11899" lon="5.52244">
        <ele>351.17</ele>
        <time>2026-08-10T08:51:20.823Z</time>
      </trkpt>
      <trkpt lat="50.11886" lon="5.52253">
        <ele>351.62</ele>
        <time>2026-08-10T08:51:26.860Z</time>
      </trkpt>
      <trkpt lat="50.11867" lon="5.5227">
        <ele>350.71</ele>
        <time>2026-08-10T08:51:32.856Z</time>
      </trkpt>
      <trkpt lat="50.11849" lon="5.52287">
        <ele>350.46</ele>
        <time>2026-08-10T08:51:38.823Z</time>
      </trkpt>
      <trkpt lat="50.11833" lon="5.52301">
        <ele>351.55</ele>
        <time>2026-08-10T08:51:44.825Z</time>
      </trkpt>
      <trkpt lat="50.11818" lon="5.52315">
        <ele>352.7</ele>
        <time>2026-08-10T08:51:50.825Z</time>
      </trkpt>
      <trkpt lat="50.11802" lon="5.52328">
        <ele>352.44</ele>
        <time>2026-08-10T08:51:56.859Z</time>
      </trkpt>
      <trkpt lat="50.11786" lon="5.52342">
        <ele>353.3</ele>
        <time>2026-08-10T08:52:02.850Z</time>
      </trkpt>
      <trkpt lat="50.11772" lon="5.52355">
        <ele>354.71</ele>
        <time>2026-08-10T08:52:08.830Z</time>
      </trkpt>
      <trkpt lat="50.11756" lon="5.52369">
        <ele>355.51</ele>
        <time>2026-08-10T08:52:14.838Z</time>
      </trkpt>
      <trkpt lat="50.11743" lon="5.52383">
        <ele>355.62</ele>
        <time>2026-08-10T08:52:20.826Z</time>
      </trkpt>
      <trkpt lat="50.11733" lon="5.52393">
        <ele>356.15</ele>
        <time>2026-08-10T08:52:26.851Z</time>
      </trkpt>
      <trkpt lat="50.11722" lon="5.52406">
        <ele>356.95</ele>
        <time>2026-08-10T08:52:32.848Z</time>
      </trkpt>
      <trkpt lat="50.11711" lon="5.52417">
        <ele>356.91</ele>
        <time>2026-08-10T08:52:38.829Z</time>
      </trkpt>
      <trkpt lat="50.11703" lon="5.52426">
        <ele>358.91</ele>
        <time>2026-08-10T08:52:44.838Z</time>
      </trkpt>
      <trkpt lat="50.11693" lon="5.52436">
        <ele>359.9</ele>
        <time>2026-08-10T08:52:50.830Z</time>
      </trkpt>
      <trkpt lat="50.11682" lon="5.52448">
        <ele>361.39</ele>
        <time>2026-08-10T08:52:56.855Z</time>
      </trkpt>
      <trkpt lat="50.11671" lon="5.52459">
        <ele>361.88</ele>
        <time>2026-08-10T08:53:02.851Z</time>
      </trkpt>
      <trkpt lat="50.1166" lon="5.5247">
        <ele>362.84</ele>
        <time>2026-08-10T08:53:08.833Z</time>
      </trkpt>
      <trkpt lat="50.1165" lon="5.52482">
        <ele>362.66</ele>
        <time>2026-08-10T08:53:14.832Z</time>
      </trkpt>
      <trkpt lat="50.1164" lon="5.52494">
        <ele>363.27</ele>
        <time>2026-08-10T08:53:20.829Z</time>
      </trkpt>
      <trkpt lat="50.11629" lon="5.52507">
        <ele>363.84</ele>
        <time>2026-08-10T08:53:26.856Z</time>
      </trkpt>
      <trkpt lat="50.11619" lon="5.52522">
        <ele>364.36</ele>
        <time>2026-08-10T08:53:32.848Z</time>
      </trkpt>
      <trkpt lat="50.11608" lon="5.52538">
        <ele>365.28</ele>
        <time>2026-08-10T08:53:38.833Z</time>
      </trkpt>
      <trkpt lat="50.11597" lon="5.52555">
        <ele>366.88</ele>
        <time>2026-08-10T08:53:44.828Z</time>
      </trkpt>
      <trkpt lat="50.11587" lon="5.52571">
        <ele>366.38</ele>
        <time>2026-08-10T08:53:50.835Z</time>
      </trkpt>
      <trkpt lat="50.11578" lon="5.52584">
        <ele>366.37</ele>
        <time>2026-08-10T08:53:56.854Z</time>
      </trkpt>
      <trkpt lat="50.11568" lon="5.52599">
        <ele>367.89</ele>
        <time>2026-08-10T08:54:02.848Z</time>
      </trkpt>
      <trkpt lat="50.11558" lon="5.52615">
        <ele>368.97</ele>
        <time>2026-08-10T08:54:08.832Z</time>
      </trkpt>
      <trkpt lat="50.11549" lon="5.52629">
        <ele>370.35</ele>
        <time>2026-08-10T08:54:14.834Z</time>
      </trkpt>
      <trkpt lat="50.11539" lon="5.52643">
        <ele>370.48</ele>
        <time>2026-08-10T08:54:20.831Z</time>
      </trkpt>
      <trkpt lat="50.11529" lon="5.52655">
        <ele>369.97</ele>
        <time>2026-08-10T08:54:26.859Z</time>
      </trkpt>
      <trkpt lat="50.1152" lon="5.52666">
        <ele>370.63</ele>
        <time>2026-08-10T08:54:33.789Z</time>
      </trkpt>
      <trkpt lat="50.1151" lon="5.52678">
        <ele>371.86</ele>
        <time>2026-08-10T08:54:38.834Z</time>
      </trkpt>
      <trkpt lat="50.11499" lon="5.52692">
        <ele>373.6</ele>
        <time>2026-08-10T08:54:44.841Z</time>
      </trkpt>
      <trkpt lat="50.11487" lon="5.52705">
        <ele>374.83</ele>
        <time>2026-08-10T08:54:50.832Z</time>
      </trkpt>
      <trkpt lat="50.11474" lon="5.52721">
        <ele>375.03</ele>
        <time>2026-08-10T08:54:56.856Z</time>
      </trkpt>
      <trkpt lat="50.11459" lon="5.52733">
        <ele>374.35</ele>
        <time>2026-08-10T08:55:02.848Z</time>
      </trkpt>
      <trkpt lat="50.11445" lon="5.52748">
        <ele>374.49</ele>
        <time>2026-08-10T08:55:08.836Z</time>
      </trkpt>
      <trkpt lat="50.11431" lon="5.52765">
        <ele>373.6</ele>
        <time>2026-08-10T08:55:14.835Z</time>
      </trkpt>
      <trkpt lat="50.11417" lon="5.52781">
        <ele>373.77</ele>
        <time>2026-08-10T08:55:20.839Z</time>
      </trkpt>
      <trkpt lat="50.11401" lon="5.52799">
        <ele>374.99</ele>
        <time>2026-08-10T08:55:26.845Z</time>
      </trkpt>
      <trkpt lat="50.11386" lon="5.52817">
        <ele>375.45</ele>
        <time>2026-08-10T08:55:32.847Z</time>
      </trkpt>
      <trkpt lat="50.11371" lon="5.52832">
        <ele>375.53</ele>
        <time>2026-08-10T08:55:38.837Z</time>
      </trkpt>
      <trkpt lat="50.11356" lon="5.52847">
        <ele>374.29</ele>
        <time>2026-08-10T08:55:44.836Z</time>
      </trkpt>
      <trkpt lat="50.11339" lon="5.52867">
        <ele>374.59</ele>
        <time>2026-08-10T08:55:50.835Z</time>
      </trkpt>
      <trkpt lat="50.11325" lon="5.52885">
        <ele>375.61</ele>
        <time>2026-08-10T08:55:56.847Z</time>
      </trkpt>
      <trkpt lat="50.11311" lon="5.52902">
        <ele>376.16</ele>
        <time>2026-08-10T08:56:02.844Z</time>
      </trkpt>
      <trkpt lat="50.11303" lon="5.52917">
        <ele>376.05</ele>
        <time>2026-08-10T08:56:08.833Z</time>
      </trkpt>
      <trkpt lat="50.11316" lon="5.52954">
        <ele>375.25</ele>
        <time>2026-08-10T08:56:14.838Z</time>
      </trkpt>
      <trkpt lat="50.11333" lon="5.53007">
        <ele>373.02</ele>
        <time>2026-08-10T08:56:20.837Z</time>
      </trkpt>
      <trkpt lat="50.11346" lon="5.53059">
        <ele>372.82</ele>
        <time>2026-08-10T08:56:26.846Z</time>
      </trkpt>
      <trkpt lat="50.11357" lon="5.53104">
        <ele>375.19</ele>
        <time>2026-08-10T08:56:32.847Z</time>
      </trkpt>
      <trkpt lat="50.11367" lon="5.53141">
        <ele>375.92</ele>
        <time>2026-08-10T08:56:38.844Z</time>
      </trkpt>
      <trkpt lat="50.11374" lon="5.53169">
        <ele>376.96</ele>
        <time>2026-08-10T08:56:44.841Z</time>
      </trkpt>
      <trkpt lat="50.11383" lon="5.532">
        <ele>377.76</ele>
        <time>2026-08-10T08:56:50.842Z</time>
      </trkpt>
      <trkpt lat="50.11391" lon="5.5323">
        <ele>377.83</ele>
        <time>2026-08-10T08:56:56.857Z</time>
      </trkpt>
      <trkpt lat="50.11399" lon="5.5326">
        <ele>378.64</ele>
        <time>2026-08-10T08:57:02.863Z</time>
      </trkpt>
      <trkpt lat="50.11408" lon="5.53292">
        <ele>379.15</ele>
        <time>2026-08-10T08:57:08.841Z</time>
      </trkpt>
      <trkpt lat="50.11416" lon="5.53323">
        <ele>379.25</ele>
        <time>2026-08-10T08:57:14.844Z</time>
      </trkpt>
      <trkpt lat="50.11424" lon="5.53356">
        <ele>379.48</ele>
        <time>2026-08-10T08:57:20.845Z</time>
      </trkpt>
      <trkpt lat="50.11432" lon="5.53386">
        <ele>379.62</ele>
        <time>2026-08-10T08:57:26.855Z</time>
      </trkpt>
      <trkpt lat="50.11439" lon="5.53419">
        <ele>380.51</ele>
        <time>2026-08-10T08:57:32.856Z</time>
      </trkpt>
      <trkpt lat="50.11445" lon="5.53456">
        <ele>381.2</ele>
        <time>2026-08-10T08:57:38.849Z</time>
      </trkpt>
      <trkpt lat="50.11451" lon="5.53497">
        <ele>381.58</ele>
        <time>2026-08-10T08:57:44.843Z</time>
      </trkpt>
      <trkpt lat="50.11452" lon="5.53543">
        <ele>380.31</ele>
        <time>2026-08-10T08:57:50.841Z</time>
      </trkpt>
      <trkpt lat="50.11456" lon="5.53592">
        <ele>378.73</ele>
        <time>2026-08-10T08:57:56.850Z</time>
      </trkpt>
      <trkpt lat="50.11467" lon="5.53637">
        <ele>377.41</ele>
        <time>2026-08-10T08:58:02.848Z</time>
      </trkpt>
      <trkpt lat="50.11476" lon="5.53681">
        <ele>377.27</ele>
        <time>2026-08-10T08:58:08.841Z</time>
      </trkpt>
      <trkpt lat="50.11484" lon="5.53725">
        <ele>376.6</ele>
        <time>2026-08-10T08:58:14.840Z</time>
      </trkpt>
      <trkpt lat="50.11491" lon="5.53772">
        <ele>377.47</ele>
        <time>2026-08-10T08:58:20.840Z</time>
      </trkpt>
      <trkpt lat="50.11499" lon="5.5382">
        <ele>377.83</ele>
        <time>2026-08-10T08:58:26.856Z</time>
      </trkpt>
      <trkpt lat="50.11509" lon="5.53868">
        <ele>378.34</ele>
        <time>2026-08-10T08:58:32.859Z</time>
      </trkpt>
      <trkpt lat="50.11521" lon="5.5391">
        <ele>379.21</ele>
        <time>2026-08-10T08:58:38.842Z</time>
      </trkpt>
      <trkpt lat="50.11535" lon="5.5395">
        <ele>379.19</ele>
        <time>2026-08-10T08:58:44.843Z</time>
      </trkpt>
      <trkpt lat="50.11548" lon="5.53992">
        <ele>377.6</ele>
        <time>2026-08-10T08:58:50.840Z</time>
      </trkpt>
      <trkpt lat="50.11562" lon="5.54032">
        <ele>377.89</ele>
        <time>2026-08-10T08:58:56.818Z</time>
      </trkpt>
      <trkpt lat="50.11575" lon="5.54072">
        <ele>379</ele>
        <time>2026-08-10T08:59:02.846Z</time>
      </trkpt>
      <trkpt lat="50.11584" lon="5.54115">
        <ele>379.36</ele>
        <time>2026-08-10T08:59:08.841Z</time>
      </trkpt>
      <trkpt lat="50.11589" lon="5.54162">
        <ele>380.18</ele>
        <time>2026-08-10T08:59:14.833Z</time>
      </trkpt>
      <trkpt lat="50.11591" lon="5.54209">
        <ele>381.33</ele>
        <time>2026-08-10T08:59:20.825Z</time>
      </trkpt>
      <trkpt lat="50.11593" lon="5.54253">
        <ele>382.16</ele>
        <time>2026-08-10T08:59:26.845Z</time>
      </trkpt>
      <trkpt lat="50.11595" lon="5.54296">
        <ele>383.33</ele>
        <time>2026-08-10T08:59:32.847Z</time>
      </trkpt>
      <trkpt lat="50.11598" lon="5.54338">
        <ele>382.56</ele>
        <time>2026-08-10T08:59:38.839Z</time>
      </trkpt>
      <trkpt lat="50.11603" lon="5.54378">
        <ele>383.12</ele>
        <time>2026-08-10T08:59:44.838Z</time>
      </trkpt>
      <trkpt lat="50.11612" lon="5.54418">
        <ele>383</ele>
        <time>2026-08-10T08:59:50.834Z</time>
      </trkpt>
      <trkpt lat="50.11621" lon="5.54456">
        <ele>385.66</ele>
        <time>2026-08-10T08:59:56.855Z</time>
      </trkpt>
      <trkpt lat="50.1163" lon="5.54488">
        <ele>385.99</ele>
        <time>2026-08-10T09:00:02.855Z</time>
      </trkpt>
      <trkpt lat="50.11636" lon="5.54514">
        <ele>384.61</ele>
        <time>2026-08-10T09:00:08.832Z</time>
      </trkpt>
      <trkpt lat="50.11643" lon="5.54545">
        <ele>385.21</ele>
        <time>2026-08-10T09:00:14.842Z</time>
      </trkpt>
      <trkpt lat="50.11651" lon="5.54575">
        <ele>387.52</ele>
        <time>2026-08-10T09:00:20.842Z</time>
      </trkpt>
      <trkpt lat="50.11655" lon="5.54601">
        <ele>386.87</ele>
        <time>2026-08-10T09:00:26.859Z</time>
      </trkpt>
      <trkpt lat="50.11649" lon="5.54612">
        <ele>383.1</ele>
        <time>2026-08-10T09:00:33.794Z</time>
      </trkpt>
      <trkpt lat="50.11642" lon="5.54624">
        <ele>382.45</ele>
        <time>2026-08-10T09:01:44.840Z</time>
      </trkpt>
      <trkpt lat="50.11622" lon="5.54641">
        <ele>381.38</ele>
        <time>2026-08-10T09:01:50.845Z</time>
      </trkpt>
      <trkpt lat="50.11596" lon="5.54675">
        <ele>380.41</ele>
        <time>2026-08-10T09:01:56.854Z</time>
      </trkpt>
      <trkpt lat="50.11558" lon="5.54726">
        <ele>378.47</ele>
        <time>2026-08-10T09:02:02.853Z</time>
      </trkpt>
      <trkpt lat="50.11507" lon="5.54772">
        <ele>375.61</ele>
        <time>2026-08-10T09:02:08.847Z</time>
      </trkpt>
      <trkpt lat="50.11449" lon="5.54813">
        <ele>370.98</ele>
        <time>2026-08-10T09:02:14.846Z</time>
      </trkpt>
      <trkpt lat="50.11386" lon="5.54859">
        <ele>365.44</ele>
        <time>2026-08-10T09:02:20.844Z</time>
      </trkpt>
      <trkpt lat="50.11324" lon="5.54899">
        <ele>359.9</ele>
        <time>2026-08-10T09:02:26.854Z</time>
      </trkpt>
      <trkpt lat="50.11284" lon="5.54931">
        <ele>357.21</ele>
        <time>2026-08-10T09:02:32.846Z</time>
      </trkpt>
      <trkpt lat="50.11265" lon="5.54941">
        <ele>356.81</ele>
        <time>2026-08-10T09:02:38.834Z</time>
      </trkpt>
      <trkpt lat="50.11243" lon="5.54966">
        <ele>356.15</ele>
        <time>2026-08-10T09:02:44.835Z</time>
      </trkpt>
      <trkpt lat="50.11217" lon="5.55">
        <ele>353.61</ele>
        <time>2026-08-10T09:02:50.841Z</time>
      </trkpt>
      <trkpt lat="50.11191" lon="5.55037">
        <ele>351.76</ele>
        <time>2026-08-10T09:02:56.857Z</time>
      </trkpt>
      <trkpt lat="50.11163" lon="5.55077">
        <ele>352.64</ele>
        <time>2026-08-10T09:03:02.848Z</time>
      </trkpt>
      <trkpt lat="50.11135" lon="5.55103">
        <ele>354.54</ele>
        <time>2026-08-10T09:03:08.840Z</time>
      </trkpt>
      <trkpt lat="50.11112" lon="5.55114">
        <ele>356.88</ele>
        <time>2026-08-10T09:03:14.826Z</time>
      </trkpt>
      <trkpt lat="50.11099" lon="5.55131">
        <ele>358.88</ele>
        <time>2026-08-10T09:03:20.842Z</time>
      </trkpt>
      <trkpt lat="50.11087" lon="5.55148">
        <ele>361.37</ele>
        <time>2026-08-10T09:03:26.820Z</time>
      </trkpt>
      <trkpt lat="50.11073" lon="5.55165">
        <ele>361.46</ele>
        <time>2026-08-10T09:03:32.850Z</time>
      </trkpt>
      <trkpt lat="50.11059" lon="5.55181">
        <ele>360.93</ele>
        <time>2026-08-10T09:03:38.839Z</time>
      </trkpt>
      <trkpt lat="50.11049" lon="5.55194">
        <ele>361.22</ele>
        <time>2026-08-10T09:03:44.835Z</time>
      </trkpt>
      <trkpt lat="50.11036" lon="5.55211">
        <ele>361.97</ele>
        <time>2026-08-10T09:03:50.840Z</time>
      </trkpt>
      <trkpt lat="50.11022" lon="5.55233">
        <ele>362.19</ele>
        <time>2026-08-10T09:03:56.847Z</time>
      </trkpt>
      <trkpt lat="50.11008" lon="5.55259">
        <ele>361.96</ele>
        <time>2026-08-10T09:04:02.846Z</time>
      </trkpt>
      <trkpt lat="50.10995" lon="5.5529">
        <ele>362.74</ele>
        <time>2026-08-10T09:04:08.835Z</time>
      </trkpt>
      <trkpt lat="50.10981" lon="5.55328">
        <ele>363.22</ele>
        <time>2026-08-10T09:04:14.836Z</time>
      </trkpt>
      <trkpt lat="50.10971" lon="5.55374">
        <ele>361.89</ele>
        <time>2026-08-10T09:04:20.840Z</time>
      </trkpt>
      <trkpt lat="50.10969" lon="5.55429">
        <ele>359.33</ele>
        <time>2026-08-10T09:04:26.852Z</time>
      </trkpt>
      <trkpt lat="50.1097" lon="5.55487">
        <ele>358.29</ele>
        <time>2026-08-10T09:04:32.854Z</time>
      </trkpt>
      <trkpt lat="50.10972" lon="5.55548">
        <ele>357.3</ele>
        <time>2026-08-10T09:04:38.842Z</time>
      </trkpt>
      <trkpt lat="50.10973" lon="5.5561">
        <ele>357.25</ele>
        <time>2026-08-10T09:04:44.836Z</time>
      </trkpt>
      <trkpt lat="50.10969" lon="5.55671">
        <ele>357.53</ele>
        <time>2026-08-10T09:04:50.834Z</time>
      </trkpt>
      <trkpt lat="50.10943" lon="5.5572">
        <ele>356.8</ele>
        <time>2026-08-10T09:04:56.853Z</time>
      </trkpt>
      <trkpt lat="50.10912" lon="5.55744">
        <ele>358.11</ele>
        <time>2026-08-10T09:05:02.852Z</time>
      </trkpt>
      <trkpt lat="50.10893" lon="5.55758">
        <ele>360.7</ele>
        <time>2026-08-10T09:05:08.840Z</time>
      </trkpt>
      <trkpt lat="50.10878" lon="5.55768">
        <ele>362.09</ele>
        <time>2026-08-10T09:05:14.838Z</time>
      </trkpt>
      <trkpt lat="50.10865" lon="5.55777">
        <ele>362.73</ele>
        <time>2026-08-10T09:05:20.837Z</time>
      </trkpt>
      <trkpt lat="50.10855" lon="5.55785">
        <ele>363.36</ele>
        <time>2026-08-10T09:05:26.855Z</time>
      </trkpt>
      <trkpt lat="50.10844" lon="5.55792">
        <ele>364.16</ele>
        <time>2026-08-10T09:05:32.859Z</time>
      </trkpt>
      <trkpt lat="50.10834" lon="5.55797">
        <ele>364.55</ele>
        <time>2026-08-10T09:05:38.840Z</time>
      </trkpt>
      <trkpt lat="50.10824" lon="5.55805">
        <ele>364.86</ele>
        <time>2026-08-10T09:05:44.843Z</time>
      </trkpt>
      <trkpt lat="50.10813" lon="5.55811">
        <ele>364.18</ele>
        <time>2026-08-10T09:05:50.838Z</time>
      </trkpt>
      <trkpt lat="50.10802" lon="5.55818">
        <ele>364.33</ele>
        <time>2026-08-10T09:05:56.853Z</time>
      </trkpt>
      <trkpt lat="50.10792" lon="5.55825">
        <ele>366.17</ele>
        <time>2026-08-10T09:06:02.855Z</time>
      </trkpt>
      <trkpt lat="50.10782" lon="5.55832">
        <ele>367.59</ele>
        <time>2026-08-10T09:06:08.844Z</time>
      </trkpt>
      <trkpt lat="50.10772" lon="5.55839">
        <ele>367.83</ele>
        <time>2026-08-10T09:06:14.840Z</time>
      </trkpt>
      <trkpt lat="50.10763" lon="5.55845">
        <ele>367.77</ele>
        <time>2026-08-10T09:06:20.843Z</time>
      </trkpt>
      <trkpt lat="50.10752" lon="5.55851">
        <ele>368.59</ele>
        <time>2026-08-10T09:06:26.851Z</time>
      </trkpt>
      <trkpt lat="50.10742" lon="5.55859">
        <ele>369.89</ele>
        <time>2026-08-10T09:06:32.859Z</time>
      </trkpt>
      <trkpt lat="50.10732" lon="5.55867">
        <ele>370.16</ele>
        <time>2026-08-10T09:06:38.849Z</time>
      </trkpt>
      <trkpt lat="50.10723" lon="5.55875">
        <ele>370.85</ele>
        <time>2026-08-10T09:06:44.840Z</time>
      </trkpt>
      <trkpt lat="50.10714" lon="5.5588">
        <ele>371.26</ele>
        <time>2026-08-10T09:06:50.840Z</time>
      </trkpt>
      <trkpt lat="50.10704" lon="5.55886">
        <ele>370.63</ele>
        <time>2026-08-10T09:06:56.857Z</time>
      </trkpt>
      <trkpt lat="50.10694" lon="5.55895">
        <ele>370.22</ele>
        <time>2026-08-10T09:07:02.853Z</time>
      </trkpt>
      <trkpt lat="50.10685" lon="5.55905">
        <ele>369.35</ele>
        <time>2026-08-10T09:07:08.843Z</time>
      </trkpt>
      <trkpt lat="50.10677" lon="5.55916">
        <ele>370.17</ele>
        <time>2026-08-10T09:07:14.843Z</time>
      </trkpt>
      <trkpt lat="50.10671" lon="5.55927">
        <ele>370.76</ele>
        <time>2026-08-10T09:07:21.791Z</time>
      </trkpt>
      <trkpt lat="50.10663" lon="5.55939">
        <ele>370.94</ele>
        <time>2026-08-10T09:07:26.852Z</time>
      </trkpt>
      <trkpt lat="50.10654" lon="5.55953">
        <ele>370.15</ele>
        <time>2026-08-10T09:07:32.855Z</time>
      </trkpt>
      <trkpt lat="50.10647" lon="5.5597">
        <ele>369.75</ele>
        <time>2026-08-10T09:07:38.847Z</time>
      </trkpt>
      <trkpt lat="50.10642" lon="5.55994">
        <ele>370.49</ele>
        <time>2026-08-10T09:07:44.843Z</time>
      </trkpt>
      <trkpt lat="50.10639" lon="5.56023">
        <ele>370.78</ele>
        <time>2026-08-10T09:07:50.842Z</time>
      </trkpt>
      <trkpt lat="50.10638" lon="5.56056">
        <ele>370.75</ele>
        <time>2026-08-10T09:07:56.854Z</time>
      </trkpt>
      <trkpt lat="50.10631" lon="5.56109">
        <ele>369.78</ele>
        <time>2026-08-10T09:08:02.853Z</time>
      </trkpt>
      <trkpt lat="50.10623" lon="5.56177">
        <ele>372.11</ele>
        <time>2026-08-10T09:08:08.844Z</time>
      </trkpt>
      <trkpt lat="50.10616" lon="5.56243">
        <ele>372.23</ele>
        <time>2026-08-10T09:08:14.840Z</time>
      </trkpt>
      <trkpt lat="50.10609" lon="5.56309">
        <ele>370.99</ele>
        <time>2026-08-10T09:08:20.850Z</time>
      </trkpt>
      <trkpt lat="50.10603" lon="5.5638">
        <ele>369.68</ele>
        <time>2026-08-10T09:08:26.854Z</time>
      </trkpt>
      <trkpt lat="50.10594" lon="5.56454">
        <ele>367.84</ele>
        <time>2026-08-10T09:08:32.855Z</time>
      </trkpt>
      <trkpt lat="50.10586" lon="5.56533">
        <ele>367.01</ele>
        <time>2026-08-10T09:08:38.840Z</time>
      </trkpt>
      <trkpt lat="50.10578" lon="5.56613">
        <ele>365.19</ele>
        <time>2026-08-10T09:08:44.843Z</time>
      </trkpt>
      <trkpt lat="50.1057" lon="5.56688">
        <ele>364.7</ele>
        <time>2026-08-10T09:08:50.841Z</time>
      </trkpt>
      <trkpt lat="50.10564" lon="5.56742">
        <ele>364.17</ele>
        <time>2026-08-10T09:08:56.855Z</time>
      </trkpt>
      <trkpt lat="50.10559" lon="5.56787">
        <ele>364.14</ele>
        <time>2026-08-10T09:09:02.854Z</time>
      </trkpt>
      <trkpt lat="50.10545" lon="5.56822">
        <ele>364.32</ele>
        <time>2026-08-10T09:09:08.834Z</time>
      </trkpt>
      <trkpt lat="50.10515" lon="5.56841">
        <ele>364.7</ele>
        <time>2026-08-10T09:09:14.836Z</time>
      </trkpt>
      <trkpt lat="50.10484" lon="5.56861">
        <ele>365.09</ele>
        <time>2026-08-10T09:09:20.835Z</time>
      </trkpt>
      <trkpt lat="50.10451" lon="5.56882">
        <ele>365.63</ele>
        <time>2026-08-10T09:09:26.850Z</time>
      </trkpt>
      <trkpt lat="50.10419" lon="5.56906">
        <ele>365.99</ele>
        <time>2026-08-10T09:09:32.853Z</time>
      </trkpt>
      <trkpt lat="50.10386" lon="5.56929">
        <ele>365.67</ele>
        <time>2026-08-10T09:09:38.849Z</time>
      </trkpt>
      <trkpt lat="50.10354" lon="5.56954">
        <ele>365.68</ele>
        <time>2026-08-10T09:09:44.848Z</time>
      </trkpt>
      <trkpt lat="50.10323" lon="5.56982">
        <ele>365.76</ele>
        <time>2026-08-10T09:09:50.850Z</time>
      </trkpt>
      <trkpt lat="50.10294" lon="5.57011">
        <ele>365.24</ele>
        <time>2026-08-10T09:09:56.853Z</time>
      </trkpt>
      <trkpt lat="50.10265" lon="5.5704">
        <ele>365</ele>
        <time>2026-08-10T09:10:02.848Z</time>
      </trkpt>
      <trkpt lat="50.10236" lon="5.57053">
        <ele>362.87</ele>
        <time>2026-08-10T09:10:08.840Z</time>
      </trkpt>
      <trkpt lat="50.10203" lon="5.57022">
        <ele>361.91</ele>
        <time>2026-08-10T09:10:14.848Z</time>
      </trkpt>
      <trkpt lat="50.10168" lon="5.56991">
        <ele>360.04</ele>
        <time>2026-08-10T09:10:20.848Z</time>
      </trkpt>
      <trkpt lat="50.10128" lon="5.56956">
        <ele>357.18</ele>
        <time>2026-08-10T09:10:26.856Z</time>
      </trkpt>
      <trkpt lat="50.1008" lon="5.56913">
        <ele>354.48</ele>
        <time>2026-08-10T09:10:32.854Z</time>
      </trkpt>
      <trkpt lat="50.10026" lon="5.56867">
        <ele>351.26</ele>
        <time>2026-08-10T09:10:38.844Z</time>
      </trkpt>
      <trkpt lat="50.09974" lon="5.56805">
        <ele>346.57</ele>
        <time>2026-08-10T09:10:44.845Z</time>
      </trkpt>
      <trkpt lat="50.0993" lon="5.56727">
        <ele>342.12</ele>
        <time>2026-08-10T09:10:50.848Z</time>
      </trkpt>
      <trkpt lat="50.09888" lon="5.56656">
        <ele>338.01</ele>
        <time>2026-08-10T09:10:56.852Z</time>
      </trkpt>
      <trkpt lat="50.09843" lon="5.566">
        <ele>335.58</ele>
        <time>2026-08-10T09:11:02.853Z</time>
      </trkpt>
      <trkpt lat="50.09793" lon="5.56575">
        <ele>335.14</ele>
        <time>2026-08-10T09:11:08.847Z</time>
      </trkpt>
      <trkpt lat="50.09761" lon="5.56622">
        <ele>335.32</ele>
        <time>2026-08-10T09:11:14.847Z</time>
      </trkpt>
      <trkpt lat="50.09725" lon="5.56668">
        <ele>334.44</ele>
        <time>2026-08-10T09:11:20.847Z</time>
      </trkpt>
      <trkpt lat="50.0968" lon="5.56698">
        <ele>332.22</ele>
        <time>2026-08-10T09:11:26.853Z</time>
      </trkpt>
      <trkpt lat="50.09628" lon="5.56664">
        <ele>328.51</ele>
        <time>2026-08-10T09:11:32.851Z</time>
      </trkpt>
      <trkpt lat="50.09583" lon="5.56603">
        <ele>325.2</ele>
        <time>2026-08-10T09:11:38.853Z</time>
      </trkpt>
      <trkpt lat="50.09538" lon="5.5654">
        <ele>322.42</ele>
        <time>2026-08-10T09:11:44.852Z</time>
      </trkpt>
      <trkpt lat="50.09486" lon="5.56489">
        <ele>319.31</ele>
        <time>2026-08-10T09:11:50.846Z</time>
      </trkpt>
      <trkpt lat="50.09424" lon="5.56496">
        <ele>313.27</ele>
        <time>2026-08-10T09:11:56.856Z</time>
      </trkpt>
      <trkpt lat="50.09363" lon="5.56494">
        <ele>308.94</ele>
        <time>2026-08-10T09:12:02.856Z</time>
      </trkpt>
      <trkpt lat="50.09307" lon="5.56487">
        <ele>304.67</ele>
        <time>2026-08-10T09:12:08.850Z</time>
      </trkpt>
      <trkpt lat="50.09256" lon="5.56484">
        <ele>304.41</ele>
        <time>2026-08-10T09:12:14.850Z</time>
      </trkpt>
      <trkpt lat="50.09217" lon="5.56488">
        <ele>306.44</ele>
        <time>2026-08-10T09:12:20.846Z</time>
      </trkpt>
      <trkpt lat="50.09187" lon="5.56525">
        <ele>304.74</ele>
        <time>2026-08-10T09:12:26.855Z</time>
      </trkpt>
      <trkpt lat="50.09158" lon="5.56582">
        <ele>303.58</ele>
        <time>2026-08-10T09:12:32.853Z</time>
      </trkpt>
      <trkpt lat="50.09126" lon="5.56629">
        <ele>302.23</ele>
        <time>2026-08-10T09:12:38.852Z</time>
      </trkpt>
      <trkpt lat="50.0909" lon="5.56672">
        <ele>301.9</ele>
        <time>2026-08-10T09:12:44.846Z</time>
      </trkpt>
      <trkpt lat="50.09055" lon="5.56714">
        <ele>300.6</ele>
        <time>2026-08-10T09:12:50.848Z</time>
      </trkpt>
      <trkpt lat="50.09029" lon="5.56768">
        <ele>300.37</ele>
        <time>2026-08-10T09:12:56.852Z</time>
      </trkpt>
      <trkpt lat="50.09007" lon="5.56835">
        <ele>297.65</ele>
        <time>2026-08-10T09:13:02.852Z</time>
      </trkpt>
      <trkpt lat="50.08975" lon="5.56893">
        <ele>296.67</ele>
        <time>2026-08-10T09:13:08.845Z</time>
      </trkpt>
      <trkpt lat="50.08942" lon="5.5695">
        <ele>296.08</ele>
        <time>2026-08-10T09:13:14.849Z</time>
      </trkpt>
      <trkpt lat="50.08922" lon="5.57021">
        <ele>294.81</ele>
        <time>2026-08-10T09:13:20.851Z</time>
      </trkpt>
      <trkpt lat="50.08891" lon="5.57081">
        <ele>293.34</ele>
        <time>2026-08-10T09:13:26.832Z</time>
      </trkpt>
      <trkpt lat="50.08846" lon="5.5712">
        <ele>292.14</ele>
        <time>2026-08-10T09:13:32.857Z</time>
      </trkpt>
      <trkpt lat="50.08797" lon="5.57132">
        <ele>290.34</ele>
        <time>2026-08-10T09:13:38.850Z</time>
      </trkpt>
      <trkpt lat="50.08746" lon="5.57118">
        <ele>288.53</ele>
        <time>2026-08-10T09:13:44.850Z</time>
      </trkpt>
      <trkpt lat="50.08698" lon="5.57103">
        <ele>287.65</ele>
        <time>2026-08-10T09:13:50.845Z</time>
      </trkpt>
      <trkpt lat="50.08652" lon="5.57109">
        <ele>288.31</ele>
        <time>2026-08-10T09:13:56.856Z</time>
      </trkpt>
      <trkpt lat="50.08607" lon="5.57145">
        <ele>283.72</ele>
        <time>2026-08-10T09:14:02.861Z</time>
      </trkpt>
      <trkpt lat="50.08578" lon="5.57119">
        <ele>280.98</ele>
        <time>2026-08-10T09:14:08.852Z</time>
      </trkpt>
      <trkpt lat="50.08575" lon="5.57099">
        <ele>281.5</ele>
        <time>2026-08-10T09:14:14.845Z</time>
      </trkpt>
      <trkpt lat="50.08571" lon="5.57082">
        <ele>283.74</ele>
        <time>2026-08-10T09:14:20.842Z</time>
      </trkpt>
      <trkpt lat="50.08567" lon="5.57067">
        <ele>285.9</ele>
        <time>2026-08-10T09:14:26.859Z</time>
      </trkpt>
      <trkpt lat="50.08565" lon="5.57053">
        <ele>287.78</ele>
        <time>2026-08-10T09:14:32.854Z</time>
      </trkpt>
      <trkpt lat="50.08561" lon="5.57039">
        <ele>288.6</ele>
        <time>2026-08-10T09:14:38.855Z</time>
      </trkpt>
      <trkpt lat="50.08558" lon="5.57024">
        <ele>289.53</ele>
        <time>2026-08-10T09:14:45.788Z</time>
      </trkpt>
      <trkpt lat="50.08555" lon="5.57009">
        <ele>289.86</ele>
        <time>2026-08-10T09:14:55.788Z</time>
      </trkpt>
      <trkpt lat="50.08553" lon="5.56994">
        <ele>289.99</ele>
        <time>2026-08-10T09:15:03.790Z</time>
      </trkpt>
      <trkpt lat="50.0855" lon="5.56981">
        <ele>290.3</ele>
        <time>2026-08-10T09:15:10.792Z</time>
      </trkpt>
      <trkpt lat="50.0855" lon="5.56964">
        <ele>291.28</ele>
        <time>2026-08-10T09:15:17.792Z</time>
      </trkpt>
      <trkpt lat="50.08551" lon="5.5695">
        <ele>292.02</ele>
        <time>2026-08-10T09:15:23.789Z</time>
      </trkpt>
      <trkpt lat="50.08548" lon="5.56936">
        <ele>292.46</ele>
        <time>2026-08-10T09:15:28.792Z</time>
      </trkpt>
      <trkpt lat="50.08543" lon="5.56924">
        <ele>292.97</ele>
        <time>2026-08-10T09:15:33.792Z</time>
      </trkpt>
      <trkpt lat="50.08539" lon="5.5691">
        <ele>294.02</ele>
        <time>2026-08-10T09:15:38.848Z</time>
      </trkpt>
      <trkpt lat="50.08532" lon="5.56893">
        <ele>294.88</ele>
        <time>2026-08-10T09:15:44.848Z</time>
      </trkpt>
      <trkpt lat="50.08526" lon="5.56873">
        <ele>294.28</ele>
        <time>2026-08-10T09:15:50.852Z</time>
      </trkpt>
      <trkpt lat="50.08515" lon="5.56849">
        <ele>295.18</ele>
        <time>2026-08-10T09:15:56.830Z</time>
      </trkpt>
      <trkpt lat="50.08501" lon="5.56824">
        <ele>294.19</ele>
        <time>2026-08-10T09:16:02.857Z</time>
      </trkpt>
      <trkpt lat="50.08479" lon="5.56801">
        <ele>295.04</ele>
        <time>2026-08-10T09:16:08.852Z</time>
      </trkpt>
      <trkpt lat="50.08454" lon="5.56778">
        <ele>293.67</ele>
        <time>2026-08-10T09:16:14.846Z</time>
      </trkpt>
      <trkpt lat="50.08418" lon="5.56762">
        <ele>292.54</ele>
        <time>2026-08-10T09:16:20.847Z</time>
      </trkpt>
      <trkpt lat="50.0837" lon="5.56747">
        <ele>290.28</ele>
        <time>2026-08-10T09:16:26.852Z</time>
      </trkpt>
      <trkpt lat="50.08314" lon="5.56726">
        <ele>286.9</ele>
        <time>2026-08-10T09:16:32.856Z</time>
      </trkpt>
      <trkpt lat="50.08268" lon="5.56685">
        <ele>285.57</ele>
        <time>2026-08-10T09:16:38.845Z</time>
      </trkpt>
      <trkpt lat="50.08229" lon="5.56638">
        <ele>284.82</ele>
        <time>2026-08-10T09:16:44.849Z</time>
      </trkpt>
      <trkpt lat="50.08198" lon="5.56596">
        <ele>282.87</ele>
        <time>2026-08-10T09:16:50.848Z</time>
      </trkpt>
      <trkpt lat="50.08171" lon="5.56565">
        <ele>283.08</ele>
        <time>2026-08-10T09:16:56.851Z</time>
      </trkpt>
      <trkpt lat="50.0815" lon="5.56531">
        <ele>283.1</ele>
        <time>2026-08-10T09:17:02.847Z</time>
      </trkpt>
      <trkpt lat="50.08135" lon="5.56501">
        <ele>285.43</ele>
        <time>2026-08-10T09:17:08.843Z</time>
      </trkpt>
      <trkpt lat="50.08119" lon="5.56473">
        <ele>285.9</ele>
        <time>2026-08-10T09:17:14.842Z</time>
      </trkpt>
      <trkpt lat="50.08103" lon="5.5645">
        <ele>285.85</ele>
        <time>2026-08-10T09:17:20.850Z</time>
      </trkpt>
      <trkpt lat="50.08085" lon="5.56429">
        <ele>286.69</ele>
        <time>2026-08-10T09:17:26.852Z</time>
      </trkpt>
      <trkpt lat="50.08062" lon="5.56408">
        <ele>285.96</ele>
        <time>2026-08-10T09:17:32.855Z</time>
      </trkpt>
      <trkpt lat="50.08041" lon="5.5638">
        <ele>286.18</ele>
        <time>2026-08-10T09:17:38.841Z</time>
      </trkpt>
      <trkpt lat="50.08017" lon="5.56352">
        <ele>285.69</ele>
        <time>2026-08-10T09:17:44.843Z</time>
      </trkpt>
      <trkpt lat="50.07994" lon="5.56324">
        <ele>285.82</ele>
        <time>2026-08-10T09:17:50.837Z</time>
      </trkpt>
      <trkpt lat="50.07973" lon="5.56298">
        <ele>286.49</ele>
        <time>2026-08-10T09:17:56.852Z</time>
      </trkpt>
      <trkpt lat="50.07955" lon="5.56273">
        <ele>287.16</ele>
        <time>2026-08-10T09:18:02.846Z</time>
      </trkpt>
      <trkpt lat="50.07937" lon="5.56244">
        <ele>287.17</ele>
        <time>2026-08-10T09:18:08.846Z</time>
      </trkpt>
      <trkpt lat="50.0792" lon="5.56217">
        <ele>288.17</ele>
        <time>2026-08-10T09:18:14.840Z</time>
      </trkpt>
      <trkpt lat="50.07909" lon="5.5619">
        <ele>288.41</ele>
        <time>2026-08-10T09:18:20.842Z</time>
      </trkpt>
      <trkpt lat="50.079" lon="5.56163">
        <ele>286.38</ele>
        <time>2026-08-10T09:18:26.854Z</time>
      </trkpt>
      <trkpt lat="50.07893" lon="5.56134">
        <ele>283.7</ele>
        <time>2026-08-10T09:18:32.838Z</time>
      </trkpt>
      <trkpt lat="50.07886" lon="5.56101">
        <ele>282.29</ele>
        <time>2026-08-10T09:18:38.843Z</time>
      </trkpt>
      <trkpt lat="50.07878" lon="5.56067">
        <ele>280.79</ele>
        <time>2026-08-10T09:18:44.840Z</time>
      </trkpt>
      <trkpt lat="50.07871" lon="5.56034">
        <ele>278.31</ele>
        <time>2026-08-10T09:18:50.847Z</time>
      </trkpt>
      <trkpt lat="50.07859" lon="5.55997">
        <ele>280.49</ele>
        <time>2026-08-10T09:18:56.858Z</time>
      </trkpt>
      <trkpt lat="50.07843" lon="5.55961">
        <ele>282.55</ele>
        <time>2026-08-10T09:19:02.848Z</time>
      </trkpt>
      <trkpt lat="50.07827" lon="5.55925">
        <ele>283.88</ele>
        <time>2026-08-10T09:19:08.840Z</time>
      </trkpt>
      <trkpt lat="50.0781" lon="5.55891">
        <ele>286.43</ele>
        <time>2026-08-10T09:19:14.840Z</time>
      </trkpt>
      <trkpt lat="50.07794" lon="5.55857">
        <ele>289.08</ele>
        <time>2026-08-10T09:19:20.844Z</time>
      </trkpt>
      <trkpt lat="50.07779" lon="5.55822">
        <ele>288.83</ele>
        <time>2026-08-10T09:19:26.854Z</time>
      </trkpt>
      <trkpt lat="50.07764" lon="5.55785">
        <ele>288.04</ele>
        <time>2026-08-10T09:19:32.853Z</time>
      </trkpt>
      <trkpt lat="50.07753" lon="5.55746">
        <ele>288.35</ele>
        <time>2026-08-10T09:19:38.844Z</time>
      </trkpt>
      <trkpt lat="50.07743" lon="5.55705">
        <ele>289.1</ele>
        <time>2026-08-10T09:19:44.841Z</time>
      </trkpt>
      <trkpt lat="50.07732" lon="5.55667">
        <ele>289.38</ele>
        <time>2026-08-10T09:19:50.845Z</time>
      </trkpt>
      <trkpt lat="50.07719" lon="5.55629">
        <ele>289.24</ele>
        <time>2026-08-10T09:19:56.851Z</time>
      </trkpt>
      <trkpt lat="50.07704" lon="5.5559">
        <ele>288.26</ele>
        <time>2026-08-10T09:20:02.849Z</time>
      </trkpt>
      <trkpt lat="50.07689" lon="5.55549">
        <ele>286.61</ele>
        <time>2026-08-10T09:20:08.845Z</time>
      </trkpt>
      <trkpt lat="50.07674" lon="5.5551">
        <ele>286.43</ele>
        <time>2026-08-10T09:20:14.844Z</time>
      </trkpt>
      <trkpt lat="50.07659" lon="5.55472">
        <ele>287.1</ele>
        <time>2026-08-10T09:20:20.840Z</time>
      </trkpt>
      <trkpt lat="50.07645" lon="5.55434">
        <ele>287.75</ele>
        <time>2026-08-10T09:20:26.852Z</time>
      </trkpt>
      <trkpt lat="50.07631" lon="5.55395">
        <ele>287.63</ele>
        <time>2026-08-10T09:20:32.850Z</time>
      </trkpt>
      <trkpt lat="50.0762" lon="5.55353">
        <ele>288.06</ele>
        <time>2026-08-10T09:20:38.849Z</time>
      </trkpt>
      <trkpt lat="50.07614" lon="5.55312">
        <ele>289.55</ele>
        <time>2026-08-10T09:20:44.847Z</time>
      </trkpt>
      <trkpt lat="50.07609" lon="5.55273">
        <ele>290.46</ele>
        <time>2026-08-10T09:20:50.852Z</time>
      </trkpt>
      <trkpt lat="50.07604" lon="5.55236">
        <ele>290.79</ele>
        <time>2026-08-10T09:20:56.851Z</time>
      </trkpt>
      <trkpt lat="50.07599" lon="5.55201">
        <ele>291.93</ele>
        <time>2026-08-10T09:21:02.847Z</time>
      </trkpt>
      <trkpt lat="50.07594" lon="5.55163">
        <ele>291.13</ele>
        <time>2026-08-10T09:21:08.850Z</time>
      </trkpt>
      <trkpt lat="50.07589" lon="5.55125">
        <ele>288.39</ele>
        <time>2026-08-10T09:21:14.850Z</time>
      </trkpt>
      <trkpt lat="50.07585" lon="5.55084">
        <ele>288.85</ele>
        <time>2026-08-10T09:21:20.849Z</time>
      </trkpt>
      <trkpt lat="50.07582" lon="5.55045">
        <ele>290.65</ele>
        <time>2026-08-10T09:21:26.846Z</time>
      </trkpt>
      <trkpt lat="50.0758" lon="5.55007">
        <ele>293.75</ele>
        <time>2026-08-10T09:21:32.850Z</time>
      </trkpt>
      <trkpt lat="50.07584" lon="5.5497">
        <ele>294.18</ele>
        <time>2026-08-10T09:21:38.845Z</time>
      </trkpt>
      <trkpt lat="50.07589" lon="5.54927">
        <ele>290.5</ele>
        <time>2026-08-10T09:21:44.849Z</time>
      </trkpt>
      <trkpt lat="50.07596" lon="5.54876">
        <ele>289.05</ele>
        <time>2026-08-10T09:21:50.850Z</time>
      </trkpt>
      <trkpt lat="50.07603" lon="5.54831">
        <ele>288.03</ele>
        <time>2026-08-10T09:21:56.850Z</time>
      </trkpt>
      <trkpt lat="50.07613" lon="5.54788">
        <ele>287.33</ele>
        <time>2026-08-10T09:22:02.849Z</time>
      </trkpt>
      <trkpt lat="50.07626" lon="5.54755">
        <ele>289.37</ele>
        <time>2026-08-10T09:22:08.852Z</time>
      </trkpt>
      <trkpt lat="50.07641" lon="5.54726">
        <ele>290.17</ele>
        <time>2026-08-10T09:22:14.848Z</time>
      </trkpt>
      <trkpt lat="50.07652" lon="5.5469">
        <ele>291.09</ele>
        <time>2026-08-10T09:22:20.849Z</time>
      </trkpt>
      <trkpt lat="50.07651" lon="5.54651">
        <ele>292.06</ele>
        <time>2026-08-10T09:22:26.849Z</time>
      </trkpt>
      <trkpt lat="50.07647" lon="5.5461">
        <ele>292.41</ele>
        <time>2026-08-10T09:22:32.844Z</time>
      </trkpt>
      <trkpt lat="50.07647" lon="5.54571">
        <ele>290.86</ele>
        <time>2026-08-10T09:22:38.845Z</time>
      </trkpt>
      <trkpt lat="50.07648" lon="5.54526">
        <ele>290.69</ele>
        <time>2026-08-10T09:22:44.850Z</time>
      </trkpt>
      <trkpt lat="50.07649" lon="5.54481">
        <ele>289.7</ele>
        <time>2026-08-10T09:22:50.846Z</time>
      </trkpt>
      <trkpt lat="50.07649" lon="5.54434">
        <ele>288.77</ele>
        <time>2026-08-10T09:22:56.845Z</time>
      </trkpt>
      <trkpt lat="50.07651" lon="5.54387">
        <ele>288.02</ele>
        <time>2026-08-10T09:23:02.846Z</time>
      </trkpt>
      <trkpt lat="50.07658" lon="5.54347">
        <ele>288.38</ele>
        <time>2026-08-10T09:23:08.845Z</time>
      </trkpt>
      <trkpt lat="50.07668" lon="5.54319">
        <ele>290.6</ele>
        <time>2026-08-10T09:23:14.848Z</time>
      </trkpt>
      <trkpt lat="50.07682" lon="5.54303">
        <ele>291.4</ele>
        <time>2026-08-10T09:23:20.847Z</time>
      </trkpt>
      <trkpt lat="50.07692" lon="5.5429">
        <ele>294.01</ele>
        <time>2026-08-10T09:23:26.847Z</time>
      </trkpt>
      <trkpt lat="50.07701" lon="5.54281">
        <ele>294.21</ele>
        <time>2026-08-10T09:23:32.853Z</time>
      </trkpt>
      <trkpt lat="50.07712" lon="5.5427">
        <ele>294.83</ele>
        <time>2026-08-10T09:23:38.851Z</time>
      </trkpt>
      <trkpt lat="50.07721" lon="5.54258">
        <ele>295.96</ele>
        <time>2026-08-10T09:23:44.846Z</time>
      </trkpt>
      <trkpt lat="50.0773" lon="5.54252">
        <ele>296.56</ele>
        <time>2026-08-10T09:23:50.844Z</time>
      </trkpt>
      <trkpt lat="50.07739" lon="5.54246">
        <ele>297.08</ele>
        <time>2026-08-10T09:23:57.787Z</time>
      </trkpt>
      <trkpt lat="50.07748" lon="5.54247">
        <ele>296.41</ele>
        <time>2026-08-10T09:24:04.794Z</time>
      </trkpt>
      <trkpt lat="50.07757" lon="5.54256">
        <ele>296.79</ele>
        <time>2026-08-10T09:24:11.788Z</time>
      </trkpt>
      <trkpt lat="50.07764" lon="5.54264">
        <ele>297.71</ele>
        <time>2026-08-10T09:24:16.790Z</time>
      </trkpt>
      <trkpt lat="50.07774" lon="5.54271">
        <ele>298.83</ele>
        <time>2026-08-10T09:24:22.787Z</time>
      </trkpt>
      <trkpt lat="50.07783" lon="5.54275">
        <ele>299.37</ele>
        <time>2026-08-10T09:24:29.789Z</time>
      </trkpt>
      <trkpt lat="50.07793" lon="5.54277">
        <ele>300.9</ele>
        <time>2026-08-10T09:24:36.790Z</time>
      </trkpt>
      <trkpt lat="50.07802" lon="5.54276">
        <ele>302.87</ele>
        <time>2026-08-10T09:24:42.791Z</time>
      </trkpt>
      <trkpt lat="50.07813" lon="5.54272">
        <ele>303.79</ele>
        <time>2026-08-10T09:24:48.790Z</time>
      </trkpt>
      <trkpt lat="50.07822" lon="5.54266">
        <ele>303.89</ele>
        <time>2026-08-10T09:24:53.792Z</time>
      </trkpt>
      <trkpt lat="50.07831" lon="5.54258">
        <ele>303.89</ele>
        <time>2026-08-10T09:24:59.790Z</time>
      </trkpt>
      <trkpt lat="50.07838" lon="5.54247">
        <ele>303.3</ele>
        <time>2026-08-10T09:25:05.787Z</time>
      </trkpt>
      <trkpt lat="50.07844" lon="5.54236">
        <ele>303.23</ele>
        <time>2026-08-10T09:25:11.787Z</time>
      </trkpt>
      <trkpt lat="50.0785" lon="5.54222">
        <ele>303.4</ele>
        <time>2026-08-10T09:25:17.785Z</time>
      </trkpt>
      <trkpt lat="50.07856" lon="5.54208">
        <ele>304.05</ele>
        <time>2026-08-10T09:25:23.788Z</time>
      </trkpt>
      <trkpt lat="50.07863" lon="5.54195">
        <ele>305.24</ele>
        <time>2026-08-10T09:25:29.792Z</time>
      </trkpt>
      <trkpt lat="50.07871" lon="5.5418">
        <ele>307.39</ele>
        <time>2026-08-10T09:25:35.790Z</time>
      </trkpt>
      <trkpt lat="50.07879" lon="5.54165">
        <ele>308.37</ele>
        <time>2026-08-10T09:25:41.789Z</time>
      </trkpt>
      <trkpt lat="50.07886" lon="5.54151">
        <ele>309.85</ele>
        <time>2026-08-10T09:25:46.789Z</time>
      </trkpt>
      <trkpt lat="50.07892" lon="5.54137">
        <ele>310.68</ele>
        <time>2026-08-10T09:25:51.791Z</time>
      </trkpt>
      <trkpt lat="50.07898" lon="5.54125">
        <ele>312.22</ele>
        <time>2026-08-10T09:25:57.795Z</time>
      </trkpt>
      <trkpt lat="50.07903" lon="5.54113">
        <ele>313.84</ele>
        <time>2026-08-10T09:26:02.847Z</time>
      </trkpt>
      <trkpt lat="50.07909" lon="5.54098">
        <ele>314.98</ele>
        <time>2026-08-10T09:26:08.849Z</time>
      </trkpt>
      <trkpt lat="50.07915" lon="5.54081">
        <ele>315.84</ele>
        <time>2026-08-10T09:26:14.845Z</time>
      </trkpt>
      <trkpt lat="50.07918" lon="5.54063">
        <ele>315.67</ele>
        <time>2026-08-10T09:26:20.848Z</time>
      </trkpt>
      <trkpt lat="50.0792" lon="5.54044">
        <ele>315.71</ele>
        <time>2026-08-10T09:26:26.857Z</time>
      </trkpt>
      <trkpt lat="50.0792" lon="5.54023">
        <ele>315.2</ele>
        <time>2026-08-10T09:26:32.845Z</time>
      </trkpt>
      <trkpt lat="50.07919" lon="5.54003">
        <ele>315.01</ele>
        <time>2026-08-10T09:26:38.846Z</time>
      </trkpt>
      <trkpt lat="50.07912" lon="5.53977">
        <ele>315.03</ele>
        <time>2026-08-10T09:26:44.853Z</time>
      </trkpt>
      <trkpt lat="50.07904" lon="5.53949">
        <ele>313.25</ele>
        <time>2026-08-10T09:26:50.847Z</time>
      </trkpt>
      <trkpt lat="50.07895" lon="5.53918">
        <ele>310.95</ele>
        <time>2026-08-10T09:26:56.853Z</time>
      </trkpt>
      <trkpt lat="50.07882" lon="5.53882">
        <ele>311.28</ele>
        <time>2026-08-10T09:27:02.848Z</time>
      </trkpt>
      <trkpt lat="50.07866" lon="5.53837">
        <ele>311.24</ele>
        <time>2026-08-10T09:27:08.847Z</time>
      </trkpt>
      <trkpt lat="50.07855" lon="5.53775">
        <ele>306.2</ele>
        <time>2026-08-10T09:27:14.847Z</time>
      </trkpt>
      <trkpt lat="50.07858" lon="5.53694">
        <ele>305.01</ele>
        <time>2026-08-10T09:27:20.845Z</time>
      </trkpt>
      <trkpt lat="50.07868" lon="5.5363">
        <ele>306.32</ele>
        <time>2026-08-10T09:27:26.851Z</time>
      </trkpt>
      <trkpt lat="50.07879" lon="5.53577">
        <ele>306.22</ele>
        <time>2026-08-10T09:27:32.849Z</time>
      </trkpt>
      <trkpt lat="50.07887" lon="5.53519">
        <ele>305.6</ele>
        <time>2026-08-10T09:27:38.846Z</time>
      </trkpt>
      <trkpt lat="50.07897" lon="5.53458">
        <ele>303.55</ele>
        <time>2026-08-10T09:27:44.850Z</time>
      </trkpt>
      <trkpt lat="50.07917" lon="5.53401">
        <ele>300.28</ele>
        <time>2026-08-10T09:27:50.845Z</time>
      </trkpt>
      <trkpt lat="50.07949" lon="5.53355">
        <ele>297.3</ele>
        <time>2026-08-10T09:27:56.855Z</time>
      </trkpt>
      <trkpt lat="50.07989" lon="5.53324">
        <ele>295.59</ele>
        <time>2026-08-10T09:28:02.848Z</time>
      </trkpt>
      <trkpt lat="50.08023" lon="5.5331">
        <ele>297.23</ele>
        <time>2026-08-10T09:28:08.837Z</time>
      </trkpt>
      <trkpt lat="50.08034" lon="5.53293">
        <ele>296.96</ele>
        <time>2026-08-10T09:28:14.855Z</time>
      </trkpt>
      <trkpt lat="50.08029" lon="5.53254">
        <ele>296.6</ele>
        <time>2026-08-10T09:28:20.846Z</time>
      </trkpt>
      <trkpt lat="50.08022" lon="5.53204">
        <ele>295.39</ele>
        <time>2026-08-10T09:28:26.836Z</time>
      </trkpt>
      <trkpt lat="50.08019" lon="5.53163">
        <ele>294.72</ele>
        <time>2026-08-10T09:28:32.847Z</time>
      </trkpt>
      <trkpt lat="50.08016" lon="5.53121">
        <ele>295.6</ele>
        <time>2026-08-10T09:28:38.846Z</time>
      </trkpt>
      <trkpt lat="50.08016" lon="5.53074">
        <ele>296.71</ele>
        <time>2026-08-10T09:28:44.847Z</time>
      </trkpt>
      <trkpt lat="50.08019" lon="5.53026">
        <ele>297.24</ele>
        <time>2026-08-10T09:28:50.851Z</time>
      </trkpt>
      <trkpt lat="50.08021" lon="5.52977">
        <ele>297.57</ele>
        <time>2026-08-10T09:28:56.855Z</time>
      </trkpt>
      <trkpt lat="50.08026" lon="5.52934">
        <ele>299.61</ele>
        <time>2026-08-10T09:29:02.848Z</time>
      </trkpt>
      <trkpt lat="50.08031" lon="5.52896">
        <ele>300.74</ele>
        <time>2026-08-10T09:29:08.846Z</time>
      </trkpt>
      <trkpt lat="50.08033" lon="5.52861">
        <ele>303.08</ele>
        <time>2026-08-10T09:29:14.845Z</time>
      </trkpt>
      <trkpt lat="50.08025" lon="5.52818">
        <ele>305.1</ele>
        <time>2026-08-10T09:29:20.852Z</time>
      </trkpt>
      <trkpt lat="50.08016" lon="5.52776">
        <ele>305.44</ele>
        <time>2026-08-10T09:29:26.850Z</time>
      </trkpt>
      <trkpt lat="50.08008" lon="5.5274">
        <ele>302.97</ele>
        <time>2026-08-10T09:29:32.843Z</time>
      </trkpt>
      <trkpt lat="50.07996" lon="5.52709">
        <ele>301.17</ele>
        <time>2026-08-10T09:29:38.852Z</time>
      </trkpt>
      <trkpt lat="50.0798" lon="5.52677">
        <ele>300.83</ele>
        <time>2026-08-10T09:29:44.850Z</time>
      </trkpt>
      <trkpt lat="50.07966" lon="5.52644">
        <ele>302.1</ele>
        <time>2026-08-10T09:29:50.850Z</time>
      </trkpt>
      <trkpt lat="50.0795" lon="5.52615">
        <ele>302.21</ele>
        <time>2026-08-10T09:29:56.856Z</time>
      </trkpt>
      <trkpt lat="50.07927" lon="5.52593">
        <ele>301.5</ele>
        <time>2026-08-10T09:30:02.848Z</time>
      </trkpt>
      <trkpt lat="50.07902" lon="5.52582">
        <ele>301.5</ele>
        <time>2026-08-10T09:30:08.844Z</time>
      </trkpt>
      <trkpt lat="50.07876" lon="5.52572">
        <ele>301.27</ele>
        <time>2026-08-10T09:30:14.849Z</time>
      </trkpt>
      <trkpt lat="50.07844" lon="5.52563">
        <ele>299.88</ele>
        <time>2026-08-10T09:30:20.848Z</time>
      </trkpt>
      <trkpt lat="50.07808" lon="5.52553">
        <ele>301.22</ele>
        <time>2026-08-10T09:30:26.853Z</time>
      </trkpt>
      <trkpt lat="50.07775" lon="5.52544">
        <ele>302.58</ele>
        <time>2026-08-10T09:30:32.849Z</time>
      </trkpt>
      <trkpt lat="50.07744" lon="5.52534">
        <ele>303.64</ele>
        <time>2026-08-10T09:30:38.848Z</time>
      </trkpt>
      <trkpt lat="50.07713" lon="5.52522">
        <ele>302.87</ele>
        <time>2026-08-10T09:30:44.849Z</time>
      </trkpt>
      <trkpt lat="50.07684" lon="5.52502">
        <ele>302.49</ele>
        <time>2026-08-10T09:30:50.848Z</time>
      </trkpt>
      <trkpt lat="50.07663" lon="5.52469">
        <ele>302.81</ele>
        <time>2026-08-10T09:30:56.856Z</time>
      </trkpt>
      <trkpt lat="50.07649" lon="5.52439">
        <ele>302.1</ele>
        <time>2026-08-10T09:31:02.847Z</time>
      </trkpt>
      <trkpt lat="50.07635" lon="5.52409">
        <ele>302.75</ele>
        <time>2026-08-10T09:31:08.849Z</time>
      </trkpt>
      <trkpt lat="50.07622" lon="5.52378">
        <ele>303.59</ele>
        <time>2026-08-10T09:31:14.846Z</time>
      </trkpt>
      <trkpt lat="50.07608" lon="5.52347">
        <ele>304.13</ele>
        <time>2026-08-10T09:31:20.846Z</time>
      </trkpt>
      <trkpt lat="50.07597" lon="5.52315">
        <ele>303.8</ele>
        <time>2026-08-10T09:31:26.851Z</time>
      </trkpt>
      <trkpt lat="50.07589" lon="5.52281">
        <ele>302.84</ele>
        <time>2026-08-10T09:31:32.849Z</time>
      </trkpt>
      <trkpt lat="50.07586" lon="5.52247">
        <ele>302.58</ele>
        <time>2026-08-10T09:31:38.850Z</time>
      </trkpt>
      <trkpt lat="50.07586" lon="5.52211">
        <ele>301.77</ele>
        <time>2026-08-10T09:31:44.847Z</time>
      </trkpt>
      <trkpt lat="50.07589" lon="5.52173">
        <ele>302.07</ele>
        <time>2026-08-10T09:31:50.850Z</time>
      </trkpt>
      <trkpt lat="50.07592" lon="5.5214">
        <ele>303.39</ele>
        <time>2026-08-10T09:31:56.853Z</time>
      </trkpt>
      <trkpt lat="50.07592" lon="5.52107">
        <ele>305.66</ele>
        <time>2026-08-10T09:32:02.857Z</time>
      </trkpt>
      <trkpt lat="50.07589" lon="5.52074">
        <ele>307.06</ele>
        <time>2026-08-10T09:32:08.846Z</time>
      </trkpt>
      <trkpt lat="50.07585" lon="5.52041">
        <ele>307.43</ele>
        <time>2026-08-10T09:32:14.845Z</time>
      </trkpt>
      <trkpt lat="50.07577" lon="5.52011">
        <ele>309.25</ele>
        <time>2026-08-10T09:32:20.848Z</time>
      </trkpt>
      <trkpt lat="50.07564" lon="5.5198">
        <ele>309.61</ele>
        <time>2026-08-10T09:32:26.853Z</time>
      </trkpt>
      <trkpt lat="50.07549" lon="5.51948">
        <ele>308.32</ele>
        <time>2026-08-10T09:32:32.847Z</time>
      </trkpt>
      <trkpt lat="50.07529" lon="5.51913">
        <ele>306.61</ele>
        <time>2026-08-10T09:32:38.848Z</time>
      </trkpt>
      <trkpt lat="50.07509" lon="5.51882">
        <ele>305.52</ele>
        <time>2026-08-10T09:32:44.851Z</time>
      </trkpt>
      <trkpt lat="50.07491" lon="5.51855">
        <ele>304.16</ele>
        <time>2026-08-10T09:32:50.850Z</time>
      </trkpt>
      <trkpt lat="50.07467" lon="5.51827">
        <ele>306.68</ele>
        <time>2026-08-10T09:32:56.847Z</time>
      </trkpt>
      <trkpt lat="50.07446" lon="5.51801">
        <ele>306.37</ele>
        <time>2026-08-10T09:33:02.849Z</time>
      </trkpt>
      <trkpt lat="50.07428" lon="5.51778">
        <ele>306.26</ele>
        <time>2026-08-10T09:33:08.849Z</time>
      </trkpt>
      <trkpt lat="50.0741" lon="5.51746">
        <ele>305.88</ele>
        <time>2026-08-10T09:33:14.849Z</time>
      </trkpt>
      <trkpt lat="50.07397" lon="5.51709">
        <ele>306.99</ele>
        <time>2026-08-10T09:33:20.849Z</time>
      </trkpt>
      <trkpt lat="50.07385" lon="5.51672">
        <ele>306.78</ele>
        <time>2026-08-10T09:33:26.851Z</time>
      </trkpt>
      <trkpt lat="50.07374" lon="5.51634">
        <ele>306.14</ele>
        <time>2026-08-10T09:33:32.847Z</time>
      </trkpt>
      <trkpt lat="50.07363" lon="5.51594">
        <ele>306.04</ele>
        <time>2026-08-10T09:33:38.849Z</time>
      </trkpt>
      <trkpt lat="50.07353" lon="5.51558">
        <ele>306.15</ele>
        <time>2026-08-10T09:33:44.846Z</time>
      </trkpt>
      <trkpt lat="50.07342" lon="5.51518">
        <ele>305.19</ele>
        <time>2026-08-10T09:33:50.848Z</time>
      </trkpt>
      <trkpt lat="50.07331" lon="5.51477">
        <ele>305.44</ele>
        <time>2026-08-10T09:33:56.848Z</time>
      </trkpt>
      <trkpt lat="50.0732" lon="5.51439">
        <ele>305.32</ele>
        <time>2026-08-10T09:34:02.848Z</time>
      </trkpt>
      <trkpt lat="50.0731" lon="5.514">
        <ele>305.65</ele>
        <time>2026-08-10T09:34:08.847Z</time>
      </trkpt>
      <trkpt lat="50.07299" lon="5.51364">
        <ele>305.81</ele>
        <time>2026-08-10T09:34:14.849Z</time>
      </trkpt>
      <trkpt lat="50.07289" lon="5.51329">
        <ele>306.41</ele>
        <time>2026-08-10T09:34:20.849Z</time>
      </trkpt>
      <trkpt lat="50.07281" lon="5.51293">
        <ele>303.57</ele>
        <time>2026-08-10T09:34:26.846Z</time>
      </trkpt>
      <trkpt lat="50.07272" lon="5.51257">
        <ele>303.96</ele>
        <time>2026-08-10T09:34:32.847Z</time>
      </trkpt>
      <trkpt lat="50.07263" lon="5.51216">
        <ele>304.83</ele>
        <time>2026-08-10T09:34:38.846Z</time>
      </trkpt>
      <trkpt lat="50.07254" lon="5.51175">
        <ele>305.26</ele>
        <time>2026-08-10T09:34:44.854Z</time>
      </trkpt>
      <trkpt lat="50.07246" lon="5.51132">
        <ele>304.98</ele>
        <time>2026-08-10T09:34:50.848Z</time>
      </trkpt>
      <trkpt lat="50.07239" lon="5.51091">
        <ele>304.7</ele>
        <time>2026-08-10T09:34:56.854Z</time>
      </trkpt>
      <trkpt lat="50.0723" lon="5.51049">
        <ele>305.38</ele>
        <time>2026-08-10T09:35:02.848Z</time>
      </trkpt>
      <trkpt lat="50.07221" lon="5.51003">
        <ele>306.55</ele>
        <time>2026-08-10T09:35:08.852Z</time>
      </trkpt>
      <trkpt lat="50.07212" lon="5.5096">
        <ele>306.97</ele>
        <time>2026-08-10T09:35:14.848Z</time>
      </trkpt>
      <trkpt lat="50.07205" lon="5.50921">
        <ele>308.32</ele>
        <time>2026-08-10T09:35:20.850Z</time>
      </trkpt>
      <trkpt lat="50.07197" lon="5.50882">
        <ele>310.59</ele>
        <time>2026-08-10T09:35:26.847Z</time>
      </trkpt>
      <trkpt lat="50.07188" lon="5.50839">
        <ele>312.52</ele>
        <time>2026-08-10T09:35:32.850Z</time>
      </trkpt>
      <trkpt lat="50.07176" lon="5.50795">
        <ele>311.72</ele>
        <time>2026-08-10T09:35:38.849Z</time>
      </trkpt>
      <trkpt lat="50.07165" lon="5.50754">
        <ele>311.15</ele>
        <time>2026-08-10T09:35:44.848Z</time>
      </trkpt>
      <trkpt lat="50.07151" lon="5.50717">
        <ele>309.46</ele>
        <time>2026-08-10T09:35:50.850Z</time>
      </trkpt>
      <trkpt lat="50.07136" lon="5.5068">
        <ele>308.63</ele>
        <time>2026-08-10T09:35:56.846Z</time>
      </trkpt>
      <trkpt lat="50.07117" lon="5.50644">
        <ele>307.33</ele>
        <time>2026-08-10T09:36:02.848Z</time>
      </trkpt>
      <trkpt lat="50.07097" lon="5.5061">
        <ele>309.02</ele>
        <time>2026-08-10T09:36:08.855Z</time>
      </trkpt>
      <trkpt lat="50.07077" lon="5.50574">
        <ele>310.62</ele>
        <time>2026-08-10T09:36:14.849Z</time>
      </trkpt>
      <trkpt lat="50.07056" lon="5.50536">
        <ele>310.81</ele>
        <time>2026-08-10T09:36:20.851Z</time>
      </trkpt>
      <trkpt lat="50.07033" lon="5.50503">
        <ele>310.95</ele>
        <time>2026-08-10T09:36:26.849Z</time>
      </trkpt>
      <trkpt lat="50.07004" lon="5.50478">
        <ele>311.4</ele>
        <time>2026-08-10T09:36:32.848Z</time>
      </trkpt>
      <trkpt lat="50.06971" lon="5.50468">
        <ele>311.51</ele>
        <time>2026-08-10T09:36:38.849Z</time>
      </trkpt>
      <trkpt lat="50.06936" lon="5.50473">
        <ele>310.43</ele>
        <time>2026-08-10T09:36:44.853Z</time>
      </trkpt>
      <trkpt lat="50.06902" lon="5.50482">
        <ele>308.1</ele>
        <time>2026-08-10T09:36:50.848Z</time>
      </trkpt>
      <trkpt lat="50.06869" lon="5.50503">
        <ele>306.81</ele>
        <time>2026-08-10T09:36:56.850Z</time>
      </trkpt>
      <trkpt lat="50.06839" lon="5.5052">
        <ele>303.23</ele>
        <time>2026-08-10T09:37:02.847Z</time>
      </trkpt>
      <trkpt lat="50.0681" lon="5.50538">
        <ele>301.79</ele>
        <time>2026-08-10T09:37:08.845Z</time>
      </trkpt>
      <trkpt lat="50.06779" lon="5.50557">
        <ele>302.71</ele>
        <time>2026-08-10T09:37:14.849Z</time>
      </trkpt>
      <trkpt lat="50.06747" lon="5.50577">
        <ele>303.56</ele>
        <time>2026-08-10T09:37:20.848Z</time>
      </trkpt>
      <trkpt lat="50.06715" lon="5.50595">
        <ele>305.51</ele>
        <time>2026-08-10T09:37:26.853Z</time>
      </trkpt>
      <trkpt lat="50.06682" lon="5.50607">
        <ele>304.76</ele>
        <time>2026-08-10T09:37:32.848Z</time>
      </trkpt>
      <trkpt lat="50.06646" lon="5.50619">
        <ele>304.86</ele>
        <time>2026-08-10T09:37:38.848Z</time>
      </trkpt>
      <trkpt lat="50.0661" lon="5.50628">
        <ele>305.61</ele>
        <time>2026-08-10T09:37:44.849Z</time>
      </trkpt>
      <trkpt lat="50.06575" lon="5.50636">
        <ele>307.09</ele>
        <time>2026-08-10T09:37:50.847Z</time>
      </trkpt>
      <trkpt lat="50.06537" lon="5.50642">
        <ele>307.03</ele>
        <time>2026-08-10T09:37:56.853Z</time>
      </trkpt>
      <trkpt lat="50.06498" lon="5.50651">
        <ele>307.46</ele>
        <time>2026-08-10T09:38:02.846Z</time>
      </trkpt>
      <trkpt lat="50.06458" lon="5.50656">
        <ele>305.77</ele>
        <time>2026-08-10T09:38:08.850Z</time>
      </trkpt>
      <trkpt lat="50.06418" lon="5.50659">
        <ele>304.03</ele>
        <time>2026-08-10T09:38:14.848Z</time>
      </trkpt>
      <trkpt lat="50.06381" lon="5.50664">
        <ele>302.8</ele>
        <time>2026-08-10T09:38:20.848Z</time>
      </trkpt>
      <trkpt lat="50.06346" lon="5.50677">
        <ele>303.33</ele>
        <time>2026-08-10T09:38:26.847Z</time>
      </trkpt>
      <trkpt lat="50.06314" lon="5.507">
        <ele>303.23</ele>
        <time>2026-08-10T09:38:32.851Z</time>
      </trkpt>
      <trkpt lat="50.06285" lon="5.50731">
        <ele>304.39</ele>
        <time>2026-08-10T09:38:38.851Z</time>
      </trkpt>
      <trkpt lat="50.06258" lon="5.5076">
        <ele>306.45</ele>
        <time>2026-08-10T09:38:44.849Z</time>
      </trkpt>
      <trkpt lat="50.06232" lon="5.50784">
        <ele>308.81</ele>
        <time>2026-08-10T09:38:50.849Z</time>
      </trkpt>
      <trkpt lat="50.06205" lon="5.50808">
        <ele>309.93</ele>
        <time>2026-08-10T09:38:56.853Z</time>
      </trkpt>
      <trkpt lat="50.06179" lon="5.50832">
        <ele>310.34</ele>
        <time>2026-08-10T09:39:02.851Z</time>
      </trkpt>
      <trkpt lat="50.06149" lon="5.50851">
        <ele>311.18</ele>
        <time>2026-08-10T09:39:08.849Z</time>
      </trkpt>
      <trkpt lat="50.06117" lon="5.50862">
        <ele>312.02</ele>
        <time>2026-08-10T09:39:14.848Z</time>
      </trkpt>
      <trkpt lat="50.06088" lon="5.50871">
        <ele>312.69</ele>
        <time>2026-08-10T09:39:20.854Z</time>
      </trkpt>
      <trkpt lat="50.06058" lon="5.50881">
        <ele>313.7</ele>
        <time>2026-08-10T09:39:26.856Z</time>
      </trkpt>
      <trkpt lat="50.06028" lon="5.5089">
        <ele>314.3</ele>
        <time>2026-08-10T09:39:32.849Z</time>
      </trkpt>
      <trkpt lat="50.06" lon="5.50899">
        <ele>315.29</ele>
        <time>2026-08-10T09:39:38.853Z</time>
      </trkpt>
      <trkpt lat="50.05977" lon="5.50906">
        <ele>315.54</ele>
        <time>2026-08-10T09:39:44.847Z</time>
      </trkpt>
      <trkpt lat="50.05953" lon="5.50914">
        <ele>315.04</ele>
        <time>2026-08-10T09:39:50.848Z</time>
      </trkpt>
      <trkpt lat="50.05928" lon="5.50922">
        <ele>315.26</ele>
        <time>2026-08-10T09:39:56.857Z</time>
      </trkpt>
      <trkpt lat="50.05903" lon="5.50932">
        <ele>315.43</ele>
        <time>2026-08-10T09:40:02.849Z</time>
      </trkpt>
      <trkpt lat="50.05884" lon="5.50938">
        <ele>315.54</ele>
        <time>2026-08-10T09:40:08.852Z</time>
      </trkpt>
      <trkpt lat="50.05866" lon="5.50945">
        <ele>315.91</ele>
        <time>2026-08-10T09:40:14.850Z</time>
      </trkpt>
      <trkpt lat="50.05847" lon="5.50948">
        <ele>316.65</ele>
        <time>2026-08-10T09:40:20.851Z</time>
      </trkpt>
      <trkpt lat="50.05828" lon="5.50953">
        <ele>316.77</ele>
        <time>2026-08-10T09:40:26.854Z</time>
      </trkpt>
      <trkpt lat="50.05812" lon="5.50952">
        <ele>316.68</ele>
        <time>2026-08-10T09:40:32.850Z</time>
      </trkpt>
      <trkpt lat="50.05793" lon="5.50951">
        <ele>317.62</ele>
        <time>2026-08-10T09:40:38.845Z</time>
      </trkpt>
      <trkpt lat="50.05775" lon="5.50948">
        <ele>316.66</ele>
        <time>2026-08-10T09:40:44.846Z</time>
      </trkpt>
      <trkpt lat="50.05758" lon="5.50947">
        <ele>318.03</ele>
        <time>2026-08-10T09:40:50.850Z</time>
      </trkpt>
      <trkpt lat="50.0574" lon="5.50946">
        <ele>318.79</ele>
        <time>2026-08-10T09:40:56.839Z</time>
      </trkpt>
      <trkpt lat="50.05722" lon="5.50945">
        <ele>317.46</ele>
        <time>2026-08-10T09:41:02.851Z</time>
      </trkpt>
      <trkpt lat="50.05702" lon="5.50943">
        <ele>319.46</ele>
        <time>2026-08-10T09:41:08.851Z</time>
      </trkpt>
      <trkpt lat="50.05685" lon="5.50942">
        <ele>321.81</ele>
        <time>2026-08-10T09:41:14.849Z</time>
      </trkpt>
      <trkpt lat="50.0567" lon="5.50939">
        <ele>323.98</ele>
        <time>2026-08-10T09:41:20.855Z</time>
      </trkpt>
      <trkpt lat="50.05655" lon="5.50926">
        <ele>328.03</ele>
        <time>2026-08-10T09:41:26.858Z</time>
      </trkpt>
      <trkpt lat="50.05642" lon="5.50907">
        <ele>329.46</ele>
        <time>2026-08-10T09:41:32.847Z</time>
      </trkpt>
      <trkpt lat="50.05629" lon="5.50888">
        <ele>330.39</ele>
        <time>2026-08-10T09:41:38.853Z</time>
      </trkpt>
      <trkpt lat="50.05615" lon="5.50869">
        <ele>331.71</ele>
        <time>2026-08-10T09:41:44.856Z</time>
      </trkpt>
      <trkpt lat="50.05601" lon="5.5085">
        <ele>332.32</ele>
        <time>2026-08-10T09:41:50.850Z</time>
      </trkpt>
      <trkpt lat="50.05587" lon="5.50847">
        <ele>333.31</ele>
        <time>2026-08-10T09:41:56.854Z</time>
      </trkpt>
      <trkpt lat="50.05575" lon="5.5085">
        <ele>331.93</ele>
        <time>2026-08-10T09:42:02.852Z</time>
      </trkpt>
      <trkpt lat="50.05559" lon="5.50864">
        <ele>330.8</ele>
        <time>2026-08-10T09:42:08.851Z</time>
      </trkpt>
      <trkpt lat="50.05549" lon="5.50883">
        <ele>328.34</ele>
        <time>2026-08-10T09:42:14.847Z</time>
      </trkpt>
      <trkpt lat="50.05543" lon="5.50911">
        <ele>327.18</ele>
        <time>2026-08-10T09:42:20.849Z</time>
      </trkpt>
      <trkpt lat="50.05539" lon="5.50941">
        <ele>328.22</ele>
        <time>2026-08-10T09:42:26.853Z</time>
      </trkpt>
      <trkpt lat="50.05535" lon="5.50967">
        <ele>328.44</ele>
        <time>2026-08-10T09:42:32.853Z</time>
      </trkpt>
      <trkpt lat="50.05531" lon="5.50988">
        <ele>329.1</ele>
        <time>2026-08-10T09:42:38.851Z</time>
      </trkpt>
      <trkpt lat="50.05525" lon="5.51009">
        <ele>329.7</ele>
        <time>2026-08-10T09:42:44.854Z</time>
      </trkpt>
      <trkpt lat="50.05514" lon="5.51033">
        <ele>330.79</ele>
        <time>2026-08-10T09:42:50.847Z</time>
      </trkpt>
      <trkpt lat="50.05501" lon="5.51054">
        <ele>330.87</ele>
        <time>2026-08-10T09:42:56.852Z</time>
      </trkpt>
      <trkpt lat="50.05488" lon="5.5107">
        <ele>331.27</ele>
        <time>2026-08-10T09:43:02.851Z</time>
      </trkpt>
      <trkpt lat="50.05472" lon="5.51084">
        <ele>330.15</ele>
        <time>2026-08-10T09:43:08.850Z</time>
      </trkpt>
      <trkpt lat="50.05456" lon="5.51096">
        <ele>329.82</ele>
        <time>2026-08-10T09:43:14.840Z</time>
      </trkpt>
      <trkpt lat="50.05437" lon="5.51108">
        <ele>331.06</ele>
        <time>2026-08-10T09:43:20.848Z</time>
      </trkpt>
      <trkpt lat="50.05419" lon="5.51118">
        <ele>331.85</ele>
        <time>2026-08-10T09:43:26.853Z</time>
      </trkpt>
      <trkpt lat="50.05401" lon="5.51126">
        <ele>331.61</ele>
        <time>2026-08-10T09:43:32.848Z</time>
      </trkpt>
      <trkpt lat="50.05382" lon="5.51133">
        <ele>332.93</ele>
        <time>2026-08-10T09:43:38.846Z</time>
      </trkpt>
      <trkpt lat="50.05362" lon="5.5113">
        <ele>334.67</ele>
        <time>2026-08-10T09:43:44.848Z</time>
      </trkpt>
      <trkpt lat="50.05343" lon="5.51122">
        <ele>335.4</ele>
        <time>2026-08-10T09:43:50.849Z</time>
      </trkpt>
      <trkpt lat="50.05325" lon="5.51113">
        <ele>336.31</ele>
        <time>2026-08-10T09:43:56.856Z</time>
      </trkpt>
      <trkpt lat="50.05312" lon="5.5111">
        <ele>335.82</ele>
        <time>2026-08-10T09:44:02.851Z</time>
      </trkpt>
      <trkpt lat="50.05305" lon="5.5112">
        <ele>334.61</ele>
        <time>2026-08-10T09:44:08.852Z</time>
      </trkpt>
      <trkpt lat="50.05304" lon="5.51139">
        <ele>331.95</ele>
        <time>2026-08-10T09:44:48.792Z</time>
      </trkpt>
      <trkpt lat="50.05311" lon="5.51171">
        <ele>327.11</ele>
        <time>2026-08-10T09:44:54.785Z</time>
      </trkpt>
      <trkpt lat="50.05315" lon="5.51219">
        <ele>324.7</ele>
        <time>2026-08-10T09:45:00.785Z</time>
      </trkpt>
      <trkpt lat="50.05314" lon="5.51259">
        <ele>324.51</ele>
        <time>2026-08-10T09:45:05.790Z</time>
      </trkpt>
      <trkpt lat="50.0532" lon="5.51303">
        <ele>324.23</ele>
        <time>2026-08-10T09:45:11.796Z</time>
      </trkpt>
      <trkpt lat="50.05328" lon="5.51345">
        <ele>323.96</ele>
        <time>2026-08-10T09:45:17.791Z</time>
      </trkpt>
      <trkpt lat="50.05338" lon="5.51385">
        <ele>326.22</ele>
        <time>2026-08-10T09:45:23.788Z</time>
      </trkpt>
      <trkpt lat="50.05324" lon="5.51402">
        <ele>329.05</ele>
        <time>2026-08-10T09:45:28.789Z</time>
      </trkpt>
      <trkpt lat="50.05302" lon="5.51423">
        <ele>329.58</ele>
        <time>2026-08-10T09:45:34.787Z</time>
      </trkpt>
      <trkpt lat="50.05282" lon="5.51443">
        <ele>329.04</ele>
        <time>2026-08-10T09:45:39.791Z</time>
      </trkpt>
      <trkpt lat="50.05262" lon="5.51461">
        <ele>327.15</ele>
        <time>2026-08-10T09:45:44.848Z</time>
      </trkpt>
      <trkpt lat="50.05238" lon="5.51481">
        <ele>326.71</ele>
        <time>2026-08-10T09:45:50.851Z</time>
      </trkpt>
      <trkpt lat="50.05214" lon="5.51504">
        <ele>326.16</ele>
        <time>2026-08-10T09:45:56.848Z</time>
      </trkpt>
      <trkpt lat="50.05186" lon="5.51529">
        <ele>326.1</ele>
        <time>2026-08-10T09:46:02.846Z</time>
      </trkpt>
      <trkpt lat="50.05158" lon="5.51554">
        <ele>322.99</ele>
        <time>2026-08-10T09:46:08.839Z</time>
      </trkpt>
      <trkpt lat="50.05134" lon="5.51576">
        <ele>322.13</ele>
        <time>2026-08-10T09:46:14.851Z</time>
      </trkpt>
      <trkpt lat="50.05108" lon="5.51598">
        <ele>322.72</ele>
        <time>2026-08-10T09:46:20.850Z</time>
      </trkpt>
      <trkpt lat="50.05083" lon="5.51623">
        <ele>322.66</ele>
        <time>2026-08-10T09:46:26.848Z</time>
      </trkpt>
      <trkpt lat="50.0506" lon="5.51644">
        <ele>323.11</ele>
        <time>2026-08-10T09:46:32.848Z</time>
      </trkpt>
      <trkpt lat="50.05037" lon="5.51667">
        <ele>323.51</ele>
        <time>2026-08-10T09:46:38.847Z</time>
      </trkpt>
      <trkpt lat="50.05017" lon="5.51687">
        <ele>323.81</ele>
        <time>2026-08-10T09:46:44.847Z</time>
      </trkpt>
      <trkpt lat="50.04997" lon="5.51706">
        <ele>324.33</ele>
        <time>2026-08-10T09:46:50.850Z</time>
      </trkpt>
      <trkpt lat="50.04977" lon="5.51725">
        <ele>325.06</ele>
        <time>2026-08-10T09:46:56.847Z</time>
      </trkpt>
      <trkpt lat="50.04955" lon="5.51746">
        <ele>325.66</ele>
        <time>2026-08-10T09:47:02.853Z</time>
      </trkpt>
      <trkpt lat="50.04934" lon="5.51765">
        <ele>326.64</ele>
        <time>2026-08-10T09:47:08.853Z</time>
      </trkpt>
      <trkpt lat="50.04911" lon="5.51787">
        <ele>327.16</ele>
        <time>2026-08-10T09:47:14.851Z</time>
      </trkpt>
      <trkpt lat="50.04888" lon="5.51809">
        <ele>327.52</ele>
        <time>2026-08-10T09:47:20.852Z</time>
      </trkpt>
      <trkpt lat="50.04863" lon="5.51832">
        <ele>327.23</ele>
        <time>2026-08-10T09:47:26.852Z</time>
      </trkpt>
      <trkpt lat="50.04836" lon="5.51858">
        <ele>326.63</ele>
        <time>2026-08-10T09:47:32.850Z</time>
      </trkpt>
      <trkpt lat="50.04808" lon="5.51884">
        <ele>325.26</ele>
        <time>2026-08-10T09:47:38.852Z</time>
      </trkpt>
      <trkpt lat="50.04775" lon="5.51915">
        <ele>324.49</ele>
        <time>2026-08-10T09:47:44.853Z</time>
      </trkpt>
      <trkpt lat="50.0474" lon="5.51948">
        <ele>323.4</ele>
        <time>2026-08-10T09:47:50.849Z</time>
      </trkpt>
      <trkpt lat="50.04708" lon="5.51977">
        <ele>322.56</ele>
        <time>2026-08-10T09:47:56.847Z</time>
      </trkpt>
      <trkpt lat="50.04676" lon="5.52007">
        <ele>322.39</ele>
        <time>2026-08-10T09:48:02.848Z</time>
      </trkpt>
      <trkpt lat="50.04644" lon="5.52036">
        <ele>321.45</ele>
        <time>2026-08-10T09:48:08.848Z</time>
      </trkpt>
      <trkpt lat="50.04611" lon="5.5207">
        <ele>321.05</ele>
        <time>2026-08-10T09:48:14.849Z</time>
      </trkpt>
      <trkpt lat="50.04575" lon="5.52104">
        <ele>322.86</ele>
        <time>2026-08-10T09:48:20.851Z</time>
      </trkpt>
      <trkpt lat="50.04543" lon="5.52133">
        <ele>323.46</ele>
        <time>2026-08-10T09:48:26.852Z</time>
      </trkpt>
      <trkpt lat="50.04514" lon="5.52161">
        <ele>322.95</ele>
        <time>2026-08-10T09:48:32.848Z</time>
      </trkpt>
      <trkpt lat="50.04483" lon="5.52191">
        <ele>322.56</ele>
        <time>2026-08-10T09:48:38.853Z</time>
      </trkpt>
      <trkpt lat="50.04452" lon="5.5222">
        <ele>323.4</ele>
        <time>2026-08-10T09:48:44.851Z</time>
      </trkpt>
      <trkpt lat="50.04423" lon="5.52249">
        <ele>323.37</ele>
        <time>2026-08-10T09:48:50.849Z</time>
      </trkpt>
      <trkpt lat="50.04397" lon="5.52272">
        <ele>324.64</ele>
        <time>2026-08-10T09:48:56.849Z</time>
      </trkpt>
      <trkpt lat="50.04374" lon="5.52294">
        <ele>324.44</ele>
        <time>2026-08-10T09:49:02.850Z</time>
      </trkpt>
      <trkpt lat="50.04357" lon="5.52308">
        <ele>324.83</ele>
        <time>2026-08-10T09:49:08.848Z</time>
      </trkpt>
      <trkpt lat="50.04345" lon="5.52316">
        <ele>326.83</ele>
        <time>2026-08-10T09:49:38.849Z</time>
      </trkpt>
      <trkpt lat="50.04335" lon="5.52329">
        <ele>327.27</ele>
        <time>2026-08-10T09:49:44.847Z</time>
      </trkpt>
      <trkpt lat="50.04325" lon="5.5234">
        <ele>327.41</ele>
        <time>2026-08-10T09:49:50.842Z</time>
      </trkpt>
      <trkpt lat="50.04316" lon="5.52349">
        <ele>328.05</ele>
        <time>2026-08-10T09:49:56.860Z</time>
      </trkpt>
      <trkpt lat="50.04307" lon="5.5236">
        <ele>328.31</ele>
        <time>2026-08-10T09:50:02.850Z</time>
      </trkpt>
      <trkpt lat="50.04298" lon="5.5237">
        <ele>328.6</ele>
        <time>2026-08-10T09:50:08.851Z</time>
      </trkpt>
      <trkpt lat="50.04286" lon="5.52379">
        <ele>329.29</ele>
        <time>2026-08-10T09:50:14.854Z</time>
      </trkpt>
      <trkpt lat="50.04273" lon="5.52391">
        <ele>328.46</ele>
        <time>2026-08-10T09:50:20.850Z</time>
      </trkpt>
      <trkpt lat="50.04252" lon="5.52409">
        <ele>327.42</ele>
        <time>2026-08-10T09:50:26.857Z</time>
      </trkpt>
      <trkpt lat="50.04225" lon="5.52435">
        <ele>325.54</ele>
        <time>2026-08-10T09:50:32.848Z</time>
      </trkpt>
      <trkpt lat="50.0419" lon="5.52464">
        <ele>323.64</ele>
        <time>2026-08-10T09:50:38.849Z</time>
      </trkpt>
      <trkpt lat="50.04156" lon="5.52493">
        <ele>321.21</ele>
        <time>2026-08-10T09:50:44.851Z</time>
      </trkpt>
      <trkpt lat="50.04123" lon="5.52522">
        <ele>320.09</ele>
        <time>2026-08-10T09:50:50.847Z</time>
      </trkpt>
      <trkpt lat="50.0409" lon="5.52556">
        <ele>320.37</ele>
        <time>2026-08-10T09:50:56.844Z</time>
      </trkpt>
      <trkpt lat="50.04064" lon="5.52583">
        <ele>322.09</ele>
        <time>2026-08-10T09:51:02.850Z</time>
      </trkpt>
      <trkpt lat="50.0404" lon="5.52607">
        <ele>324.02</ele>
        <time>2026-08-10T09:51:08.846Z</time>
      </trkpt>
      <trkpt lat="50.0402" lon="5.52627">
        <ele>324.55</ele>
        <time>2026-08-10T09:51:14.849Z</time>
      </trkpt>
      <trkpt lat="50.04005" lon="5.52639">
        <ele>323.77</ele>
        <time>2026-08-10T09:51:20.849Z</time>
      </trkpt>
      <trkpt lat="50.03998" lon="5.52652">
        <ele>324.88</ele>
        <time>2026-08-10T09:55:51.933Z</time>
      </trkpt>
      <trkpt lat="50.0399" lon="5.52659">
        <ele>327.33</ele>
        <time>2026-08-10T09:59:03.784Z</time>
      </trkpt>
      <trkpt lat="50.03977" lon="5.5267">
        <ele>327.67</ele>
        <time>2026-08-10T09:59:08.863Z</time>
      </trkpt>
      <trkpt lat="50.03959" lon="5.52686">
        <ele>328.53</ele>
        <time>2026-08-10T09:59:14.855Z</time>
      </trkpt>
      <trkpt lat="50.03943" lon="5.52701">
        <ele>327.25</ele>
        <time>2026-08-10T09:59:20.854Z</time>
      </trkpt>
      <trkpt lat="50.03926" lon="5.52717">
        <ele>328.62</ele>
        <time>2026-08-10T09:59:26.856Z</time>
      </trkpt>
      <trkpt lat="50.03907" lon="5.52736">
        <ele>331.79</ele>
        <time>2026-08-10T09:59:32.853Z</time>
      </trkpt>
      <trkpt lat="50.03889" lon="5.52752">
        <ele>334.3</ele>
        <time>2026-08-10T09:59:38.790Z</time>
      </trkpt>
      <trkpt lat="50.03871" lon="5.52769">
        <ele>335.13</ele>
        <time>2026-08-10T09:59:44.790Z</time>
      </trkpt>
      <trkpt lat="50.03856" lon="5.52782">
        <ele>334.52</ele>
        <time>2026-08-10T09:59:49.792Z</time>
      </trkpt>
      <trkpt lat="50.03834" lon="5.528">
        <ele>332.78</ele>
        <time>2026-08-10T09:59:55.792Z</time>
      </trkpt>
      <trkpt lat="50.03814" lon="5.52817">
        <ele>331.25</ele>
        <time>2026-08-10T10:00:01.789Z</time>
      </trkpt>
      <trkpt lat="50.03795" lon="5.52831">
        <ele>329.18</ele>
        <time>2026-08-10T10:00:06.799Z</time>
      </trkpt>
      <trkpt lat="50.03776" lon="5.52841">
        <ele>327.59</ele>
        <time>2026-08-10T10:00:12.794Z</time>
      </trkpt>
      <trkpt lat="50.03756" lon="5.52847">
        <ele>326.56</ele>
        <time>2026-08-10T10:00:18.793Z</time>
      </trkpt>
      <trkpt lat="50.0374" lon="5.52852">
        <ele>326</ele>
        <time>2026-08-10T10:00:23.794Z</time>
      </trkpt>
      <trkpt lat="50.03721" lon="5.52858">
        <ele>325.75</ele>
        <time>2026-08-10T10:00:29.790Z</time>
      </trkpt>
      <trkpt lat="50.03703" lon="5.52863">
        <ele>327.69</ele>
        <time>2026-08-10T10:00:35.780Z</time>
      </trkpt>
      <trkpt lat="50.03688" lon="5.52868">
        <ele>327.93</ele>
        <time>2026-08-10T10:00:40.790Z</time>
      </trkpt>
      <trkpt lat="50.03674" lon="5.52872">
        <ele>328.23</ele>
        <time>2026-08-10T10:00:45.794Z</time>
      </trkpt>
      <trkpt lat="50.0366" lon="5.52874">
        <ele>329.01</ele>
        <time>2026-08-10T10:00:50.795Z</time>
      </trkpt>
      <trkpt lat="50.03642" lon="5.52886">
        <ele>328.4</ele>
        <time>2026-08-10T10:00:56.853Z</time>
      </trkpt>
      <trkpt lat="50.03623" lon="5.52894">
        <ele>327.33</ele>
        <time>2026-08-10T10:01:02.855Z</time>
      </trkpt>
      <trkpt lat="50.03605" lon="5.52897">
        <ele>326.04</ele>
        <time>2026-08-10T10:01:08.790Z</time>
      </trkpt>
      <trkpt lat="50.03585" lon="5.52901">
        <ele>325.27</ele>
        <time>2026-08-10T10:01:14.790Z</time>
      </trkpt>
      <trkpt lat="50.03568" lon="5.52906">
        <ele>324.26</ele>
        <time>2026-08-10T10:01:19.792Z</time>
      </trkpt>
      <trkpt lat="50.03557" lon="5.52909">
        <ele>325.39</ele>
        <time>2026-08-10T10:01:24.792Z</time>
      </trkpt>
      <trkpt lat="50.03543" lon="5.52914">
        <ele>327.13</ele>
        <time>2026-08-10T10:01:30.790Z</time>
      </trkpt>
      <trkpt lat="50.03528" lon="5.52917">
        <ele>330.11</ele>
        <time>2026-08-10T10:01:36.789Z</time>
      </trkpt>
      <trkpt lat="50.03518" lon="5.52915">
        <ele>332.3</ele>
        <time>2026-08-10T10:01:41.792Z</time>
      </trkpt>
      <trkpt lat="50.03507" lon="5.52917">
        <ele>333.02</ele>
        <time>2026-08-10T10:01:46.793Z</time>
      </trkpt>
      <trkpt lat="50.03497" lon="5.52919">
        <ele>333.43</ele>
        <time>2026-08-10T10:02:39.786Z</time>
      </trkpt>
      <trkpt lat="50.03484" lon="5.52923">
        <ele>334.33</ele>
        <time>2026-08-10T10:02:45.792Z</time>
      </trkpt>
      <trkpt lat="50.03475" lon="5.52925">
        <ele>335.57</ele>
        <time>2026-08-10T10:02:50.801Z</time>
      </trkpt>
      <trkpt lat="50.03461" lon="5.52922">
        <ele>336.1</ele>
        <time>2026-08-10T10:02:56.851Z</time>
      </trkpt>
      <trkpt lat="50.0345" lon="5.52912">
        <ele>335.54</ele>
        <time>2026-08-10T10:03:02.858Z</time>
      </trkpt>
      <trkpt lat="50.03435" lon="5.52908">
        <ele>335.54</ele>
        <time>2026-08-10T10:03:08.803Z</time>
      </trkpt>
      <trkpt lat="50.03412" lon="5.52898">
        <ele>334.91</ele>
        <time>2026-08-10T10:03:14.799Z</time>
      </trkpt>
      <trkpt lat="50.03402" lon="5.52896">
        <ele>334.24</ele>
        <time>2026-08-10T10:03:39.788Z</time>
      </trkpt>
      <trkpt lat="50.03384" lon="5.52894">
        <ele>335.11</ele>
        <time>2026-08-10T10:03:44.799Z</time>
      </trkpt>
      <trkpt lat="50.03358" lon="5.52888">
        <ele>336.86</ele>
        <time>2026-08-10T10:03:50.814Z</time>
      </trkpt>
      <trkpt lat="50.03332" lon="5.52877">
        <ele>336.67</ele>
        <time>2026-08-10T10:03:56.857Z</time>
      </trkpt>
      <trkpt lat="50.03307" lon="5.52866">
        <ele>335.24</ele>
        <time>2026-08-10T10:04:02.856Z</time>
      </trkpt>
      <trkpt lat="50.03283" lon="5.52854">
        <ele>334.14</ele>
        <time>2026-08-10T10:04:08.824Z</time>
      </trkpt>
      <trkpt lat="50.03257" lon="5.52845">
        <ele>335.53</ele>
        <time>2026-08-10T10:04:14.823Z</time>
      </trkpt>
      <trkpt lat="50.03235" lon="5.52836">
        <ele>336.17</ele>
        <time>2026-08-10T10:04:20.828Z</time>
      </trkpt>
      <trkpt lat="50.03216" lon="5.5283">
        <ele>334.51</ele>
        <time>2026-08-10T10:04:26.855Z</time>
      </trkpt>
      <trkpt lat="50.03196" lon="5.5283">
        <ele>332.74</ele>
        <time>2026-08-10T10:04:32.855Z</time>
      </trkpt>
      <trkpt lat="50.03186" lon="5.52844">
        <ele>331.87</ele>
        <time>2026-08-10T10:04:38.827Z</time>
      </trkpt>
      <trkpt lat="50.03184" lon="5.52872">
        <ele>334.98</ele>
        <time>2026-08-10T10:04:44.825Z</time>
      </trkpt>
      <trkpt lat="50.03183" lon="5.52896">
        <ele>338.09</ele>
        <time>2026-08-10T10:04:50.825Z</time>
      </trkpt>
      <trkpt lat="50.03179" lon="5.5292">
        <ele>339.01</ele>
        <time>2026-08-10T10:04:56.860Z</time>
      </trkpt>
      <trkpt lat="50.03174" lon="5.52947">
        <ele>340.5</ele>
        <time>2026-08-10T10:05:02.859Z</time>
      </trkpt>
      <trkpt lat="50.03169" lon="5.52966">
        <ele>341.07</ele>
        <time>2026-08-10T10:05:08.826Z</time>
      </trkpt>
      <trkpt lat="50.03165" lon="5.52985">
        <ele>340.07</ele>
        <time>2026-08-10T10:05:14.832Z</time>
      </trkpt>
      <trkpt lat="50.03159" lon="5.52999">
        <ele>340.13</ele>
        <time>2026-08-10T10:05:20.830Z</time>
      </trkpt>
      <trkpt lat="50.03152" lon="5.53011">
        <ele>341.42</ele>
        <time>2026-08-10T10:05:26.856Z</time>
      </trkpt>
      <trkpt lat="50.03142" lon="5.53025">
        <ele>342.91</ele>
        <time>2026-08-10T10:05:32.852Z</time>
      </trkpt>
      <trkpt lat="50.03132" lon="5.53036">
        <ele>342.34</ele>
        <time>2026-08-10T10:05:38.830Z</time>
      </trkpt>
      <trkpt lat="50.0312" lon="5.53033">
        <ele>344.78</ele>
        <time>2026-08-10T10:05:44.827Z</time>
      </trkpt>
      <trkpt lat="50.03108" lon="5.53028">
        <ele>347.67</ele>
        <time>2026-08-10T10:05:50.826Z</time>
      </trkpt>
      <trkpt lat="50.03093" lon="5.53021">
        <ele>347.83</ele>
        <time>2026-08-10T10:05:56.852Z</time>
      </trkpt>
      <trkpt lat="50.03078" lon="5.53014">
        <ele>348.29</ele>
        <time>2026-08-10T10:06:02.859Z</time>
      </trkpt>
      <trkpt lat="50.03062" lon="5.53007">
        <ele>348.93</ele>
        <time>2026-08-10T10:06:08.827Z</time>
      </trkpt>
      <trkpt lat="50.03045" lon="5.52999">
        <ele>349.03</ele>
        <time>2026-08-10T10:06:14.829Z</time>
      </trkpt>
      <trkpt lat="50.03029" lon="5.52991">
        <ele>349.5</ele>
        <time>2026-08-10T10:06:20.828Z</time>
      </trkpt>
      <trkpt lat="50.03012" lon="5.52985">
        <ele>349.21</ele>
        <time>2026-08-10T10:06:26.861Z</time>
      </trkpt>
      <trkpt lat="50.02996" lon="5.52983">
        <ele>349.96</ele>
        <time>2026-08-10T10:06:32.850Z</time>
      </trkpt>
      <trkpt lat="50.0298" lon="5.52983">
        <ele>349.05</ele>
        <time>2026-08-10T10:06:38.829Z</time>
      </trkpt>
      <trkpt lat="50.02963" lon="5.52984">
        <ele>351.52</ele>
        <time>2026-08-10T10:06:44.828Z</time>
      </trkpt>
      <trkpt lat="50.02947" lon="5.52984">
        <ele>352.7</ele>
        <time>2026-08-10T10:06:50.825Z</time>
      </trkpt>
      <trkpt lat="50.02929" lon="5.52983">
        <ele>353.49</ele>
        <time>2026-08-10T10:06:56.858Z</time>
      </trkpt>
      <trkpt lat="50.02912" lon="5.52982">
        <ele>355.39</ele>
        <time>2026-08-10T10:07:02.851Z</time>
      </trkpt>
      <trkpt lat="50.02896" lon="5.52981">
        <ele>355.67</ele>
        <time>2026-08-10T10:07:08.825Z</time>
      </trkpt>
      <trkpt lat="50.02879" lon="5.5298">
        <ele>356.22</ele>
        <time>2026-08-10T10:07:14.830Z</time>
      </trkpt>
      <trkpt lat="50.02864" lon="5.52973">
        <ele>356.57</ele>
        <time>2026-08-10T10:07:20.825Z</time>
      </trkpt>
      <trkpt lat="50.02846" lon="5.52962">
        <ele>356.76</ele>
        <time>2026-08-10T10:07:26.854Z</time>
      </trkpt>
      <trkpt lat="50.02825" lon="5.52952">
        <ele>356.18</ele>
        <time>2026-08-10T10:07:32.852Z</time>
      </trkpt>
      <trkpt lat="50.02802" lon="5.52941">
        <ele>356.87</ele>
        <time>2026-08-10T10:07:38.828Z</time>
      </trkpt>
      <trkpt lat="50.02778" lon="5.52929">
        <ele>356.45</ele>
        <time>2026-08-10T10:07:44.826Z</time>
      </trkpt>
      <trkpt lat="50.02755" lon="5.52917">
        <ele>356.13</ele>
        <time>2026-08-10T10:07:50.837Z</time>
      </trkpt>
      <trkpt lat="50.02733" lon="5.52909">
        <ele>356.27</ele>
        <time>2026-08-10T10:07:56.865Z</time>
      </trkpt>
      <trkpt lat="50.02711" lon="5.52892">
        <ele>353.63</ele>
        <time>2026-08-10T10:08:02.852Z</time>
      </trkpt>
      <trkpt lat="50.0268" lon="5.52873">
        <ele>351.98</ele>
        <time>2026-08-10T10:08:08.828Z</time>
      </trkpt>
      <trkpt lat="50.02649" lon="5.52856">
        <ele>351.53</ele>
        <time>2026-08-10T10:08:14.825Z</time>
      </trkpt>
      <trkpt lat="50.02616" lon="5.52841">
        <ele>353.04</ele>
        <time>2026-08-10T10:08:20.830Z</time>
      </trkpt>
      <trkpt lat="50.02583" lon="5.52837">
        <ele>354.22</ele>
        <time>2026-08-10T10:08:26.845Z</time>
      </trkpt>
      <trkpt lat="50.02551" lon="5.52837">
        <ele>354.54</ele>
        <time>2026-08-10T10:08:32.850Z</time>
      </trkpt>
      <trkpt lat="50.02523" lon="5.52844">
        <ele>354.19</ele>
        <time>2026-08-10T10:08:38.826Z</time>
      </trkpt>
      <trkpt lat="50.02495" lon="5.52852">
        <ele>353.59</ele>
        <time>2026-08-10T10:08:44.824Z</time>
      </trkpt>
      <trkpt lat="50.02468" lon="5.5286">
        <ele>353.09</ele>
        <time>2026-08-10T10:08:50.836Z</time>
      </trkpt>
      <trkpt lat="50.02439" lon="5.52867">
        <ele>353.69</ele>
        <time>2026-08-10T10:08:56.855Z</time>
      </trkpt>
      <trkpt lat="50.02408" lon="5.5288">
        <ele>352.93</ele>
        <time>2026-08-10T10:09:02.852Z</time>
      </trkpt>
      <trkpt lat="50.02373" lon="5.52902">
        <ele>351.43</ele>
        <time>2026-08-10T10:09:08.819Z</time>
      </trkpt>
      <trkpt lat="50.02334" lon="5.52929">
        <ele>351.38</ele>
        <time>2026-08-10T10:09:14.832Z</time>
      </trkpt>
      <trkpt lat="50.02298" lon="5.52957">
        <ele>351.21</ele>
        <time>2026-08-10T10:09:20.828Z</time>
      </trkpt>
      <trkpt lat="50.02267" lon="5.52986">
        <ele>350.6</ele>
        <time>2026-08-10T10:09:26.854Z</time>
      </trkpt>
      <trkpt lat="50.02237" lon="5.53016">
        <ele>350.69</ele>
        <time>2026-08-10T10:09:32.855Z</time>
      </trkpt>
      <trkpt lat="50.02204" lon="5.5304">
        <ele>350.75</ele>
        <time>2026-08-10T10:09:38.837Z</time>
      </trkpt>
      <trkpt lat="50.02169" lon="5.53057">
        <ele>350.6</ele>
        <time>2026-08-10T10:09:44.837Z</time>
      </trkpt>
      <trkpt lat="50.02135" lon="5.53072">
        <ele>350.02</ele>
        <time>2026-08-10T10:09:50.836Z</time>
      </trkpt>
      <trkpt lat="50.02097" lon="5.53087">
        <ele>349.24</ele>
        <time>2026-08-10T10:09:56.854Z</time>
      </trkpt>
      <trkpt lat="50.0206" lon="5.53101">
        <ele>349.45</ele>
        <time>2026-08-10T10:10:02.836Z</time>
      </trkpt>
      <trkpt lat="50.02027" lon="5.53109">
        <ele>349.89</ele>
        <time>2026-08-10T10:10:08.838Z</time>
      </trkpt>
      <trkpt lat="50.02" lon="5.53115">
        <ele>351.5</ele>
        <time>2026-08-10T10:10:14.836Z</time>
      </trkpt>
      <trkpt lat="50.01977" lon="5.53124">
        <ele>352.52</ele>
        <time>2026-08-10T10:10:20.840Z</time>
      </trkpt>
      <trkpt lat="50.01956" lon="5.53134">
        <ele>352.94</ele>
        <time>2026-08-10T10:10:26.848Z</time>
      </trkpt>
      <trkpt lat="50.01936" lon="5.53144">
        <ele>354.11</ele>
        <time>2026-08-10T10:10:32.852Z</time>
      </trkpt>
      <trkpt lat="50.01915" lon="5.53156">
        <ele>354.55</ele>
        <time>2026-08-10T10:10:38.841Z</time>
      </trkpt>
      <trkpt lat="50.01895" lon="5.53169">
        <ele>355.17</ele>
        <time>2026-08-10T10:10:44.836Z</time>
      </trkpt>
      <trkpt lat="50.01874" lon="5.53184">
        <ele>355.76</ele>
        <time>2026-08-10T10:10:50.846Z</time>
      </trkpt>
      <trkpt lat="50.01853" lon="5.53198">
        <ele>355.61</ele>
        <time>2026-08-10T10:10:56.849Z</time>
      </trkpt>
      <trkpt lat="50.0183" lon="5.53215">
        <ele>355.02</ele>
        <time>2026-08-10T10:11:02.848Z</time>
      </trkpt>
      <trkpt lat="50.01805" lon="5.53232">
        <ele>354.61</ele>
        <time>2026-08-10T10:11:08.845Z</time>
      </trkpt>
      <trkpt lat="50.01775" lon="5.53257">
        <ele>354.17</ele>
        <time>2026-08-10T10:11:14.843Z</time>
      </trkpt>
      <trkpt lat="50.01744" lon="5.53284">
        <ele>352.85</ele>
        <time>2026-08-10T10:11:20.843Z</time>
      </trkpt>
      <trkpt lat="50.01713" lon="5.53314">
        <ele>352.1</ele>
        <time>2026-08-10T10:11:26.849Z</time>
      </trkpt>
      <trkpt lat="50.01686" lon="5.53348">
        <ele>350.95</ele>
        <time>2026-08-10T10:11:32.852Z</time>
      </trkpt>
      <trkpt lat="50.01661" lon="5.53376">
        <ele>350.33</ele>
        <time>2026-08-10T10:11:38.841Z</time>
      </trkpt>
      <trkpt lat="50.01633" lon="5.53395">
        <ele>350.52</ele>
        <time>2026-08-10T10:11:44.844Z</time>
      </trkpt>
      <trkpt lat="50.01604" lon="5.5339">
        <ele>350.75</ele>
        <time>2026-08-10T10:11:50.844Z</time>
      </trkpt>
      <trkpt lat="50.01581" lon="5.53369">
        <ele>352.03</ele>
        <time>2026-08-10T10:11:56.847Z</time>
      </trkpt>
      <trkpt lat="50.01563" lon="5.53352">
        <ele>352.42</ele>
        <time>2026-08-10T10:12:02.847Z</time>
      </trkpt>
      <trkpt lat="50.0154" lon="5.53335">
        <ele>353.73</ele>
        <time>2026-08-10T10:12:08.845Z</time>
      </trkpt>
      <trkpt lat="50.01515" lon="5.5332">
        <ele>354.55</ele>
        <time>2026-08-10T10:12:14.847Z</time>
      </trkpt>
      <trkpt lat="50.01488" lon="5.53313">
        <ele>354.67</ele>
        <time>2026-08-10T10:12:20.843Z</time>
      </trkpt>
      <trkpt lat="50.01461" lon="5.53308">
        <ele>353.74</ele>
        <time>2026-08-10T10:12:26.857Z</time>
      </trkpt>
      <trkpt lat="50.01435" lon="5.53296">
        <ele>352.05</ele>
        <time>2026-08-10T10:12:32.849Z</time>
      </trkpt>
      <trkpt lat="50.01412" lon="5.53286">
        <ele>351.56</ele>
        <time>2026-08-10T10:12:38.885Z</time>
      </trkpt>
      <trkpt lat="50.01394" lon="5.53279">
        <ele>352.23</ele>
        <time>2026-08-10T10:12:44.868Z</time>
      </trkpt>
      <trkpt lat="50.01384" lon="5.53275">
        <ele>354.55</ele>
        <time>2026-08-10T10:12:50.848Z</time>
      </trkpt>
      <trkpt lat="50.01394" lon="5.53286">
        <ele>354.15</ele>
        <time>2026-08-10T10:13:03.796Z</time>
      </trkpt>
      <trkpt lat="50.01415" lon="5.53297">
        <ele>351.55</ele>
        <time>2026-08-10T10:13:08.839Z</time>
      </trkpt>
      <trkpt lat="50.01428" lon="5.53327">
        <ele>348.65</ele>
        <time>2026-08-10T10:13:14.844Z</time>
      </trkpt>
      <trkpt lat="50.01421" lon="5.53349">
        <ele>351.06</ele>
        <time>2026-08-10T10:13:20.844Z</time>
      </trkpt>
      <trkpt lat="50.01413" lon="5.5337">
        <ele>356.1</ele>
        <time>2026-08-10T10:13:26.857Z</time>
      </trkpt>
      <trkpt lat="50.01405" lon="5.53393">
        <ele>358.35</ele>
        <time>2026-08-10T10:13:32.850Z</time>
      </trkpt>
      <trkpt lat="50.01397" lon="5.53416">
        <ele>358.18</ele>
        <time>2026-08-10T10:13:38.845Z</time>
      </trkpt>
      <trkpt lat="50.01391" lon="5.53439">
        <ele>357.74</ele>
        <time>2026-08-10T10:13:44.841Z</time>
      </trkpt>
      <trkpt lat="50.01387" lon="5.53459">
        <ele>358.21</ele>
        <time>2026-08-10T10:13:50.846Z</time>
      </trkpt>
      <trkpt lat="50.01385" lon="5.53477">
        <ele>358.92</ele>
        <time>2026-08-10T10:13:56.847Z</time>
      </trkpt>
      <trkpt lat="50.01384" lon="5.53496">
        <ele>360.16</ele>
        <time>2026-08-10T10:14:02.853Z</time>
      </trkpt>
      <trkpt lat="50.01384" lon="5.53517">
        <ele>361.44</ele>
        <time>2026-08-10T10:14:08.843Z</time>
      </trkpt>
      <trkpt lat="50.01385" lon="5.53538">
        <ele>362.28</ele>
        <time>2026-08-10T10:14:14.841Z</time>
      </trkpt>
      <trkpt lat="50.01386" lon="5.53556">
        <ele>363.13</ele>
        <time>2026-08-10T10:14:20.843Z</time>
      </trkpt>
      <trkpt lat="50.01388" lon="5.53571">
        <ele>364.56</ele>
        <time>2026-08-10T10:14:26.848Z</time>
      </trkpt>
      <trkpt lat="50.0139" lon="5.53586">
        <ele>366.09</ele>
        <time>2026-08-10T10:14:32.846Z</time>
      </trkpt>
      <trkpt lat="50.01396" lon="5.536">
        <ele>366.58</ele>
        <time>2026-08-10T10:14:38.841Z</time>
      </trkpt>
      <trkpt lat="50.01398" lon="5.53616">
        <ele>367.62</ele>
        <time>2026-08-10T10:14:44.843Z</time>
      </trkpt>
      <trkpt lat="50.014" lon="5.53632">
        <ele>368.21</ele>
        <time>2026-08-10T10:14:50.842Z</time>
      </trkpt>
      <trkpt lat="50.01403" lon="5.53648">
        <ele>369.01</ele>
        <time>2026-08-10T10:14:56.851Z</time>
      </trkpt>
      <trkpt lat="50.01407" lon="5.53665">
        <ele>369.72</ele>
        <time>2026-08-10T10:15:02.847Z</time>
      </trkpt>
      <trkpt lat="50.0141" lon="5.53683">
        <ele>369.93</ele>
        <time>2026-08-10T10:15:08.844Z</time>
      </trkpt>
      <trkpt lat="50.0141" lon="5.53703">
        <ele>371.01</ele>
        <time>2026-08-10T10:15:14.842Z</time>
      </trkpt>
      <trkpt lat="50.01411" lon="5.53721">
        <ele>371.76</ele>
        <time>2026-08-10T10:15:20.843Z</time>
      </trkpt>
      <trkpt lat="50.01412" lon="5.53741">
        <ele>372.45</ele>
        <time>2026-08-10T10:15:26.858Z</time>
      </trkpt>
      <trkpt lat="50.01414" lon="5.53761">
        <ele>373.29</ele>
        <time>2026-08-10T10:15:32.847Z</time>
      </trkpt>
      <trkpt lat="50.01417" lon="5.53779">
        <ele>373.7</ele>
        <time>2026-08-10T10:15:38.842Z</time>
      </trkpt>
      <trkpt lat="50.0142" lon="5.53799">
        <ele>373.84</ele>
        <time>2026-08-10T10:15:44.841Z</time>
      </trkpt>
      <trkpt lat="50.01423" lon="5.53821">
        <ele>373.94</ele>
        <time>2026-08-10T10:15:50.844Z</time>
      </trkpt>
      <trkpt lat="50.01426" lon="5.53843">
        <ele>374.15</ele>
        <time>2026-08-10T10:15:56.849Z</time>
      </trkpt>
      <trkpt lat="50.01428" lon="5.53863">
        <ele>375.02</ele>
        <time>2026-08-10T10:16:02.854Z</time>
      </trkpt>
      <trkpt lat="50.0143" lon="5.53883">
        <ele>375.06</ele>
        <time>2026-08-10T10:16:08.846Z</time>
      </trkpt>
      <trkpt lat="50.01434" lon="5.539">
        <ele>375.68</ele>
        <time>2026-08-10T10:16:14.843Z</time>
      </trkpt>
      <trkpt lat="50.01437" lon="5.53918">
        <ele>375.65</ele>
        <time>2026-08-10T10:16:20.844Z</time>
      </trkpt>
      <trkpt lat="50.01439" lon="5.53937">
        <ele>376.14</ele>
        <time>2026-08-10T10:16:26.857Z</time>
      </trkpt>
      <trkpt lat="50.01443" lon="5.53957">
        <ele>376.19</ele>
        <time>2026-08-10T10:16:32.853Z</time>
      </trkpt>
      <trkpt lat="50.01446" lon="5.53976">
        <ele>375.76</ele>
        <time>2026-08-10T10:16:38.846Z</time>
      </trkpt>
      <trkpt lat="50.01451" lon="5.53996">
        <ele>376.83</ele>
        <time>2026-08-10T10:16:44.846Z</time>
      </trkpt>
      <trkpt lat="50.01454" lon="5.54015">
        <ele>377.88</ele>
        <time>2026-08-10T10:16:50.842Z</time>
      </trkpt>
      <trkpt lat="50.01458" lon="5.54031">
        <ele>378.1</ele>
        <time>2026-08-10T10:16:56.857Z</time>
      </trkpt>
      <trkpt lat="50.01461" lon="5.54049">
        <ele>377.52</ele>
        <time>2026-08-10T10:17:02.856Z</time>
      </trkpt>
      <trkpt lat="50.01464" lon="5.54069">
        <ele>378.51</ele>
        <time>2026-08-10T10:17:08.845Z</time>
      </trkpt>
      <trkpt lat="50.01468" lon="5.54089">
        <ele>380.77</ele>
        <time>2026-08-10T10:17:14.843Z</time>
      </trkpt>
      <trkpt lat="50.01471" lon="5.54109">
        <ele>381.64</ele>
        <time>2026-08-10T10:17:20.843Z</time>
      </trkpt>
      <trkpt lat="50.01476" lon="5.5413">
        <ele>382.87</ele>
        <time>2026-08-10T10:17:26.858Z</time>
      </trkpt>
      <trkpt lat="50.0148" lon="5.54149">
        <ele>385.42</ele>
        <time>2026-08-10T10:17:32.854Z</time>
      </trkpt>
      <trkpt lat="50.01483" lon="5.54171">
        <ele>387.28</ele>
        <time>2026-08-10T10:17:38.841Z</time>
      </trkpt>
      <trkpt lat="50.01485" lon="5.54191">
        <ele>388.78</ele>
        <time>2026-08-10T10:17:44.843Z</time>
      </trkpt>
      <trkpt lat="50.01487" lon="5.54212">
        <ele>390.83</ele>
        <time>2026-08-10T10:17:50.844Z</time>
      </trkpt>
      <trkpt lat="50.01487" lon="5.54232">
        <ele>391.55</ele>
        <time>2026-08-10T10:17:56.859Z</time>
      </trkpt>
      <trkpt lat="50.01487" lon="5.54255">
        <ele>392.69</ele>
        <time>2026-08-10T10:18:02.854Z</time>
      </trkpt>
      <trkpt lat="50.01487" lon="5.54271">
        <ele>393.53</ele>
        <time>2026-08-10T10:18:08.843Z</time>
      </trkpt>
      <trkpt lat="50.01487" lon="5.54287">
        <ele>394.65</ele>
        <time>2026-08-10T10:18:16.791Z</time>
      </trkpt>
      <trkpt lat="50.01489" lon="5.54303">
        <ele>395.01</ele>
        <time>2026-08-10T10:18:22.788Z</time>
      </trkpt>
      <trkpt lat="50.01491" lon="5.54319">
        <ele>396.07</ele>
        <time>2026-08-10T10:18:28.790Z</time>
      </trkpt>
      <trkpt lat="50.01492" lon="5.54336">
        <ele>397.45</ele>
        <time>2026-08-10T10:18:34.790Z</time>
      </trkpt>
      <trkpt lat="50.01493" lon="5.5435">
        <ele>398.89</ele>
        <time>2026-08-10T10:18:39.792Z</time>
      </trkpt>
      <trkpt lat="50.01495" lon="5.54366">
        <ele>399.87</ele>
        <time>2026-08-10T10:18:44.843Z</time>
      </trkpt>
      <trkpt lat="50.01495" lon="5.54384">
        <ele>400.48</ele>
        <time>2026-08-10T10:18:50.844Z</time>
      </trkpt>
      <trkpt lat="50.01496" lon="5.54403">
        <ele>400.94</ele>
        <time>2026-08-10T10:18:56.855Z</time>
      </trkpt>
      <trkpt lat="50.01498" lon="5.5442">
        <ele>401.89</ele>
        <time>2026-08-10T10:19:02.855Z</time>
      </trkpt>
      <trkpt lat="50.015" lon="5.54434">
        <ele>402.75</ele>
        <time>2026-08-10T10:19:08.843Z</time>
      </trkpt>
      <trkpt lat="50.015" lon="5.54451">
        <ele>402.93</ele>
        <time>2026-08-10T10:19:14.845Z</time>
      </trkpt>
      <trkpt lat="50.01501" lon="5.54467">
        <ele>403.4</ele>
        <time>2026-08-10T10:19:20.845Z</time>
      </trkpt>
      <trkpt lat="50.01503" lon="5.54488">
        <ele>404.39</ele>
        <time>2026-08-10T10:19:26.853Z</time>
      </trkpt>
      <trkpt lat="50.01503" lon="5.54511">
        <ele>405.58</ele>
        <time>2026-08-10T10:19:32.854Z</time>
      </trkpt>
      <trkpt lat="50.01504" lon="5.54534">
        <ele>406.12</ele>
        <time>2026-08-10T10:19:38.842Z</time>
      </trkpt>
      <trkpt lat="50.01505" lon="5.54554">
        <ele>407.86</ele>
        <time>2026-08-10T10:19:44.841Z</time>
      </trkpt>
      <trkpt lat="50.01506" lon="5.54575">
        <ele>407.89</ele>
        <time>2026-08-10T10:19:50.844Z</time>
      </trkpt>
      <trkpt lat="50.01507" lon="5.54597">
        <ele>408.19</ele>
        <time>2026-08-10T10:19:56.855Z</time>
      </trkpt>
      <trkpt lat="50.01508" lon="5.54618">
        <ele>409.04</ele>
        <time>2026-08-10T10:20:02.855Z</time>
      </trkpt>
      <trkpt lat="50.01508" lon="5.5464">
        <ele>410.18</ele>
        <time>2026-08-10T10:20:08.849Z</time>
      </trkpt>
      <trkpt lat="50.01509" lon="5.54664">
        <ele>409.98</ele>
        <time>2026-08-10T10:20:14.851Z</time>
      </trkpt>
      <trkpt lat="50.0151" lon="5.54689">
        <ele>411.42</ele>
        <time>2026-08-10T10:20:20.854Z</time>
      </trkpt>
      <trkpt lat="50.01512" lon="5.54719">
        <ele>412.27</ele>
        <time>2026-08-10T10:20:26.857Z</time>
      </trkpt>
      <trkpt lat="50.01514" lon="5.54753">
        <ele>412.34</ele>
        <time>2026-08-10T10:20:32.857Z</time>
      </trkpt>
      <trkpt lat="50.01517" lon="5.54795">
        <ele>410.95</ele>
        <time>2026-08-10T10:20:38.849Z</time>
      </trkpt>
      <trkpt lat="50.01511" lon="5.54845">
        <ele>409.78</ele>
        <time>2026-08-10T10:20:44.853Z</time>
      </trkpt>
      <trkpt lat="50.01501" lon="5.54898">
        <ele>410.07</ele>
        <time>2026-08-10T10:20:50.848Z</time>
      </trkpt>
      <trkpt lat="50.01489" lon="5.54955">
        <ele>409.31</ele>
        <time>2026-08-10T10:20:56.857Z</time>
      </trkpt>
      <trkpt lat="50.01473" lon="5.55019">
        <ele>406.65</ele>
        <time>2026-08-10T10:21:02.856Z</time>
      </trkpt>
      <trkpt lat="50.01454" lon="5.55094">
        <ele>404.85</ele>
        <time>2026-08-10T10:21:08.849Z</time>
      </trkpt>
      <trkpt lat="50.01433" lon="5.55175">
        <ele>403.11</ele>
        <time>2026-08-10T10:21:14.848Z</time>
      </trkpt>
      <trkpt lat="50.01411" lon="5.55263">
        <ele>400.69</ele>
        <time>2026-08-10T10:21:20.851Z</time>
      </trkpt>
      <trkpt lat="50.01388" lon="5.55353">
        <ele>398.53</ele>
        <time>2026-08-10T10:21:26.854Z</time>
      </trkpt>
      <trkpt lat="50.01364" lon="5.55445">
        <ele>396.77</ele>
        <time>2026-08-10T10:21:32.856Z</time>
      </trkpt>
      <trkpt lat="50.01338" lon="5.55538">
        <ele>394.72</ele>
        <time>2026-08-10T10:21:38.849Z</time>
      </trkpt>
      <trkpt lat="50.01316" lon="5.5563">
        <ele>393.32</ele>
        <time>2026-08-10T10:21:44.849Z</time>
      </trkpt>
      <trkpt lat="50.01298" lon="5.55728">
        <ele>390.46</ele>
        <time>2026-08-10T10:21:50.852Z</time>
      </trkpt>
      <trkpt lat="50.01284" lon="5.55829">
        <ele>387.07</ele>
        <time>2026-08-10T10:21:56.853Z</time>
      </trkpt>
      <trkpt lat="50.01269" lon="5.5593">
        <ele>383.62</ele>
        <time>2026-08-10T10:22:02.855Z</time>
      </trkpt>
      <trkpt lat="50.01247" lon="5.56043">
        <ele>377.44</ele>
        <time>2026-08-10T10:22:08.854Z</time>
      </trkpt>
      <trkpt lat="50.01217" lon="5.56169">
        <ele>371</ele>
        <time>2026-08-10T10:22:14.852Z</time>
      </trkpt>
      <trkpt lat="50.01186" lon="5.56301">
        <ele>364.03</ele>
        <time>2026-08-10T10:22:20.856Z</time>
      </trkpt>
      <trkpt lat="50.01156" lon="5.56426">
        <ele>361.07</ele>
        <time>2026-08-10T10:22:26.857Z</time>
      </trkpt>
      <trkpt lat="50.01132" lon="5.56528">
        <ele>363.04</ele>
        <time>2026-08-10T10:22:32.853Z</time>
      </trkpt>
      <trkpt lat="50.01112" lon="5.56608">
        <ele>363.75</ele>
        <time>2026-08-10T10:22:38.853Z</time>
      </trkpt>
      <trkpt lat="50.01099" lon="5.5667">
        <ele>363.5</ele>
        <time>2026-08-10T10:22:44.857Z</time>
      </trkpt>
      <trkpt lat="50.01089" lon="5.5673">
        <ele>362.07</ele>
        <time>2026-08-10T10:22:50.853Z</time>
      </trkpt>
      <trkpt lat="50.01091" lon="5.56808">
        <ele>359.83</ele>
        <time>2026-08-10T10:22:56.853Z</time>
      </trkpt>
      <trkpt lat="50.01095" lon="5.56887">
        <ele>358.66</ele>
        <time>2026-08-10T10:23:02.851Z</time>
      </trkpt>
      <trkpt lat="50.01098" lon="5.5696">
        <ele>356.7</ele>
        <time>2026-08-10T10:23:08.853Z</time>
      </trkpt>
      <trkpt lat="50.011" lon="5.57018">
        <ele>356.37</ele>
        <time>2026-08-10T10:23:14.854Z</time>
      </trkpt>
      <trkpt lat="50.01102" lon="5.57058">
        <ele>357.83</ele>
        <time>2026-08-10T10:23:20.854Z</time>
      </trkpt>
      <trkpt lat="50.01104" lon="5.57084">
        <ele>359.93</ele>
        <time>2026-08-10T10:23:26.858Z</time>
      </trkpt>
      <trkpt lat="50.01106" lon="5.57102">
        <ele>363.97</ele>
        <time>2026-08-10T10:23:32.857Z</time>
      </trkpt>
      <trkpt lat="50.01108" lon="5.57121">
        <ele>365.6</ele>
        <time>2026-08-10T10:23:38.857Z</time>
      </trkpt>
      <trkpt lat="50.01107" lon="5.57139">
        <ele>366.24</ele>
        <time>2026-08-10T10:23:44.858Z</time>
      </trkpt>
      <trkpt lat="50.01106" lon="5.57159">
        <ele>367.12</ele>
        <time>2026-08-10T10:23:50.853Z</time>
      </trkpt>
      <trkpt lat="50.01107" lon="5.57174">
        <ele>367.42</ele>
        <time>2026-08-10T10:23:56.846Z</time>
      </trkpt>
      <trkpt lat="50.0111" lon="5.57189">
        <ele>367.68</ele>
        <time>2026-08-10T10:24:03.791Z</time>
      </trkpt>
      <trkpt lat="50.0111" lon="5.57203">
        <ele>367.38</ele>
        <time>2026-08-10T10:24:10.789Z</time>
      </trkpt>
      <trkpt lat="50.01111" lon="5.57217">
        <ele>367.49</ele>
        <time>2026-08-10T10:24:19.789Z</time>
      </trkpt>
      <trkpt lat="50.0111" lon="5.57231">
        <ele>368.75</ele>
        <time>2026-08-10T10:24:27.792Z</time>
      </trkpt>
      <trkpt lat="50.01111" lon="5.57247">
        <ele>369.57</ele>
        <time>2026-08-10T10:24:34.792Z</time>
      </trkpt>
      <trkpt lat="50.01114" lon="5.57232">
        <ele>370.69</ele>
        <time>2026-08-10T10:27:23.791Z</time>
      </trkpt>
      <trkpt lat="50.01115" lon="5.57217">
        <ele>368.91</ele>
        <time>2026-08-10T10:27:31.815Z</time>
      </trkpt>
      <trkpt lat="50.01122" lon="5.57208">
        <ele>370.31</ele>
        <time>2026-08-10T10:27:37.828Z</time>
      </trkpt>
      <trkpt lat="50.01124" lon="5.57233">
        <ele>372.42</ele>
        <time>2026-08-10T10:27:43.806Z</time>
      </trkpt>
      <trkpt lat="50.01113" lon="5.57229">
        <ele>371.54</ele>
        <time>2026-08-10T10:27:48.821Z</time>
      </trkpt>
      <trkpt lat="50.01112" lon="5.57246">
        <ele>369.83</ele>
        <time>2026-08-10T10:27:58.783Z</time>
      </trkpt>
      <trkpt lat="50.01107" lon="5.57234">
        <ele>369.39</ele>
        <time>2026-08-10T10:28:42.820Z</time>
      </trkpt>
      <trkpt lat="50.01091" lon="5.57236">
        <ele>368.71</ele>
        <time>2026-08-10T10:28:48.791Z</time>
      </trkpt>
      <trkpt lat="50.0108" lon="5.57236">
        <ele>367.46</ele>
        <time>2026-08-10T10:28:53.792Z</time>
      </trkpt>
      <trkpt lat="50.01069" lon="5.57246">
        <ele>368.29</ele>
        <time>2026-08-10T10:28:58.793Z</time>
      </trkpt>
      <trkpt lat="50.01056" lon="5.57257">
        <ele>367.91</ele>
        <time>2026-08-10T10:29:04.792Z</time>
      </trkpt>
      <trkpt lat="50.01044" lon="5.57263">
        <ele>368.52</ele>
        <time>2026-08-10T10:29:09.792Z</time>
      </trkpt>
      <trkpt lat="50.01031" lon="5.57271">
        <ele>368.8</ele>
        <time>2026-08-10T10:29:14.853Z</time>
      </trkpt>
      <trkpt lat="50.01016" lon="5.57282">
        <ele>368.74</ele>
        <time>2026-08-10T10:29:20.848Z</time>
      </trkpt>
      <trkpt lat="50.00995" lon="5.57293">
        <ele>371.19</ele>
        <time>2026-08-10T10:29:26.847Z</time>
      </trkpt>
      <trkpt lat="50.00974" lon="5.57307">
        <ele>372.15</ele>
        <time>2026-08-10T10:29:32.852Z</time>
      </trkpt>
      <trkpt lat="50.0095" lon="5.57323">
        <ele>370.8</ele>
        <time>2026-08-10T10:29:38.850Z</time>
      </trkpt>
      <trkpt lat="50.0092" lon="5.57348">
        <ele>369.02</ele>
        <time>2026-08-10T10:29:44.849Z</time>
      </trkpt>
      <trkpt lat="50.00891" lon="5.57396">
        <ele>368.06</ele>
        <time>2026-08-10T10:29:50.846Z</time>
      </trkpt>
      <trkpt lat="50.0088" lon="5.57462">
        <ele>366.17</ele>
        <time>2026-08-10T10:29:56.855Z</time>
      </trkpt>
      <trkpt lat="50.00874" lon="5.57527">
        <ele>364.86</ele>
        <time>2026-08-10T10:30:02.852Z</time>
      </trkpt>
      <trkpt lat="50.00866" lon="5.57591">
        <ele>364.71</ele>
        <time>2026-08-10T10:30:08.852Z</time>
      </trkpt>
      <trkpt lat="50.00842" lon="5.5764">
        <ele>364.93</ele>
        <time>2026-08-10T10:30:14.851Z</time>
      </trkpt>
      <trkpt lat="50.00812" lon="5.57679">
        <ele>366.21</ele>
        <time>2026-08-10T10:30:20.849Z</time>
      </trkpt>
      <trkpt lat="50.00784" lon="5.57717">
        <ele>365.93</ele>
        <time>2026-08-10T10:30:26.856Z</time>
      </trkpt>
      <trkpt lat="50.00756" lon="5.57753">
        <ele>366.49</ele>
        <time>2026-08-10T10:30:32.849Z</time>
      </trkpt>
      <trkpt lat="50.0073" lon="5.57787">
        <ele>366.53</ele>
        <time>2026-08-10T10:30:38.851Z</time>
      </trkpt>
      <trkpt lat="50.00705" lon="5.57821">
        <ele>366.11</ele>
        <time>2026-08-10T10:30:44.849Z</time>
      </trkpt>
      <trkpt lat="50.00678" lon="5.57846">
        <ele>366.72</ele>
        <time>2026-08-10T10:30:50.851Z</time>
      </trkpt>
      <trkpt lat="50.00646" lon="5.57856">
        <ele>365.95</ele>
        <time>2026-08-10T10:30:56.849Z</time>
      </trkpt>
      <trkpt lat="50.00614" lon="5.5786">
        <ele>364.56</ele>
        <time>2026-08-10T10:31:02.848Z</time>
      </trkpt>
      <trkpt lat="50.00586" lon="5.57859">
        <ele>363.96</ele>
        <time>2026-08-10T10:31:08.852Z</time>
      </trkpt>
      <trkpt lat="50.00558" lon="5.57856">
        <ele>364.69</ele>
        <time>2026-08-10T10:31:14.850Z</time>
      </trkpt>
      <trkpt lat="50.0053" lon="5.57849">
        <ele>365.23</ele>
        <time>2026-08-10T10:31:20.850Z</time>
      </trkpt>
      <trkpt lat="50.00506" lon="5.57836">
        <ele>366.71</ele>
        <time>2026-08-10T10:31:26.858Z</time>
      </trkpt>
      <trkpt lat="50.00481" lon="5.57817">
        <ele>366.58</ele>
        <time>2026-08-10T10:31:32.848Z</time>
      </trkpt>
      <trkpt lat="50.00455" lon="5.57805">
        <ele>369.21</ele>
        <time>2026-08-10T10:31:38.851Z</time>
      </trkpt>
      <trkpt lat="50.00431" lon="5.57799">
        <ele>370.37</ele>
        <time>2026-08-10T10:31:44.848Z</time>
      </trkpt>
      <trkpt lat="50.0041" lon="5.57794">
        <ele>371.21</ele>
        <time>2026-08-10T10:31:50.853Z</time>
      </trkpt>
      <trkpt lat="50.0039" lon="5.57787">
        <ele>370.12</ele>
        <time>2026-08-10T10:31:56.854Z</time>
      </trkpt>
      <trkpt lat="50.00371" lon="5.57783">
        <ele>369.81</ele>
        <time>2026-08-10T10:32:02.849Z</time>
      </trkpt>
      <trkpt lat="50.00353" lon="5.57779">
        <ele>370</ele>
        <time>2026-08-10T10:32:08.853Z</time>
      </trkpt>
      <trkpt lat="50.00337" lon="5.57781">
        <ele>373.28</ele>
        <time>2026-08-10T10:32:14.849Z</time>
      </trkpt>
      <trkpt lat="50.0032" lon="5.57783">
        <ele>375.74</ele>
        <time>2026-08-10T10:32:20.851Z</time>
      </trkpt>
      <trkpt lat="50.00304" lon="5.57785">
        <ele>375.69</ele>
        <time>2026-08-10T10:32:26.859Z</time>
      </trkpt>
      <trkpt lat="50.00287" lon="5.57786">
        <ele>376.12</ele>
        <time>2026-08-10T10:32:32.842Z</time>
      </trkpt>
      <trkpt lat="50.00269" lon="5.57789">
        <ele>376.88</ele>
        <time>2026-08-10T10:32:38.849Z</time>
      </trkpt>
      <trkpt lat="50.00252" lon="5.57791">
        <ele>377.21</ele>
        <time>2026-08-10T10:32:44.849Z</time>
      </trkpt>
      <trkpt lat="50.00234" lon="5.57796">
        <ele>377.23</ele>
        <time>2026-08-10T10:32:50.848Z</time>
      </trkpt>
      <trkpt lat="50.00215" lon="5.57802">
        <ele>377.7</ele>
        <time>2026-08-10T10:32:56.858Z</time>
      </trkpt>
      <trkpt lat="50.00194" lon="5.57813">
        <ele>377.69</ele>
        <time>2026-08-10T10:33:02.853Z</time>
      </trkpt>
      <trkpt lat="50.00172" lon="5.57827">
        <ele>377.96</ele>
        <time>2026-08-10T10:33:08.852Z</time>
      </trkpt>
      <trkpt lat="50.00146" lon="5.57837">
        <ele>377.81</ele>
        <time>2026-08-10T10:33:14.850Z</time>
      </trkpt>
      <trkpt lat="50.00119" lon="5.57831">
        <ele>376.15</ele>
        <time>2026-08-10T10:33:20.853Z</time>
      </trkpt>
      <trkpt lat="50.00095" lon="5.57826">
        <ele>375.86</ele>
        <time>2026-08-10T10:33:26.857Z</time>
      </trkpt>
      <trkpt lat="50.00065" lon="5.57827">
        <ele>377.18</ele>
        <time>2026-08-10T10:33:32.861Z</time>
      </trkpt>
      <trkpt lat="50.00036" lon="5.57837">
        <ele>376.98</ele>
        <time>2026-08-10T10:33:38.850Z</time>
      </trkpt>
      <trkpt lat="50.00009" lon="5.57846">
        <ele>376.69</ele>
        <time>2026-08-10T10:33:44.853Z</time>
      </trkpt>
      <trkpt lat="49.9998" lon="5.57851">
        <ele>375.38</ele>
        <time>2026-08-10T10:33:50.852Z</time>
      </trkpt>
      <trkpt lat="49.99952" lon="5.57856">
        <ele>375.87</ele>
        <time>2026-08-10T10:33:56.859Z</time>
      </trkpt>
      <trkpt lat="49.99925" lon="5.57861">
        <ele>377.71</ele>
        <time>2026-08-10T10:34:02.859Z</time>
      </trkpt>
      <trkpt lat="49.99898" lon="5.57866">
        <ele>379.35</ele>
        <time>2026-08-10T10:34:08.849Z</time>
      </trkpt>
      <trkpt lat="49.9987" lon="5.57869">
        <ele>380.94</ele>
        <time>2026-08-10T10:34:14.852Z</time>
      </trkpt>
      <trkpt lat="49.99843" lon="5.57865">
        <ele>379.91</ele>
        <time>2026-08-10T10:34:20.899Z</time>
      </trkpt>
      <trkpt lat="49.99817" lon="5.57857">
        <ele>379.71</ele>
        <time>2026-08-10T10:34:26.854Z</time>
      </trkpt>
      <trkpt lat="49.99789" lon="5.57847">
        <ele>377.72</ele>
        <time>2026-08-10T10:34:32.857Z</time>
      </trkpt>
      <trkpt lat="49.99761" lon="5.57838">
        <ele>376.49</ele>
        <time>2026-08-10T10:34:38.852Z</time>
      </trkpt>
      <trkpt lat="49.99733" lon="5.57828">
        <ele>374.82</ele>
        <time>2026-08-10T10:34:44.855Z</time>
      </trkpt>
      <trkpt lat="49.99705" lon="5.57819">
        <ele>373.07</ele>
        <time>2026-08-10T10:34:50.842Z</time>
      </trkpt>
      <trkpt lat="49.99676" lon="5.57809">
        <ele>374.54</ele>
        <time>2026-08-10T10:34:56.857Z</time>
      </trkpt>
      <trkpt lat="49.99649" lon="5.57803">
        <ele>377.23</ele>
        <time>2026-08-10T10:35:02.858Z</time>
      </trkpt>
      <trkpt lat="49.99624" lon="5.57799">
        <ele>379.78</ele>
        <time>2026-08-10T10:35:08.849Z</time>
      </trkpt>
      <trkpt lat="49.996" lon="5.57801">
        <ele>381.23</ele>
        <time>2026-08-10T10:35:14.854Z</time>
      </trkpt>
      <trkpt lat="49.99579" lon="5.57806">
        <ele>382.12</ele>
        <time>2026-08-10T10:35:20.861Z</time>
      </trkpt>
      <trkpt lat="49.99558" lon="5.57812">
        <ele>382.86</ele>
        <time>2026-08-10T10:35:26.858Z</time>
      </trkpt>
      <trkpt lat="49.99537" lon="5.57819">
        <ele>381.79</ele>
        <time>2026-08-10T10:35:32.855Z</time>
      </trkpt>
      <trkpt lat="49.99518" lon="5.57831">
        <ele>381.84</ele>
        <time>2026-08-10T10:35:38.856Z</time>
      </trkpt>
      <trkpt lat="49.99499" lon="5.57845">
        <ele>383.48</ele>
        <time>2026-08-10T10:35:44.858Z</time>
      </trkpt>
      <trkpt lat="49.99482" lon="5.57861">
        <ele>384.69</ele>
        <time>2026-08-10T10:35:50.863Z</time>
      </trkpt>
      <trkpt lat="49.99468" lon="5.57874">
        <ele>384.63</ele>
        <time>2026-08-10T10:35:56.855Z</time>
      </trkpt>
      <trkpt lat="49.99455" lon="5.57892">
        <ele>385.25</ele>
        <time>2026-08-10T10:36:02.858Z</time>
      </trkpt>
      <trkpt lat="49.9944" lon="5.57913">
        <ele>385.51</ele>
        <time>2026-08-10T10:36:08.860Z</time>
      </trkpt>
      <trkpt lat="49.99426" lon="5.57934">
        <ele>385.1</ele>
        <time>2026-08-10T10:36:14.856Z</time>
      </trkpt>
      <trkpt lat="49.99409" lon="5.57966">
        <ele>383.56</ele>
        <time>2026-08-10T10:36:20.853Z</time>
      </trkpt>
      <trkpt lat="49.99392" lon="5.57997">
        <ele>384.5</ele>
        <time>2026-08-10T10:36:26.856Z</time>
      </trkpt>
      <trkpt lat="49.99375" lon="5.58028">
        <ele>385.91</ele>
        <time>2026-08-10T10:36:32.857Z</time>
      </trkpt>
      <trkpt lat="49.99358" lon="5.58065">
        <ele>387.17</ele>
        <time>2026-08-10T10:36:38.853Z</time>
      </trkpt>
      <trkpt lat="49.99341" lon="5.58101">
        <ele>386.79</ele>
        <time>2026-08-10T10:36:44.859Z</time>
      </trkpt>
      <trkpt lat="49.99324" lon="5.58137">
        <ele>385.92</ele>
        <time>2026-08-10T10:36:50.860Z</time>
      </trkpt>
      <trkpt lat="49.99307" lon="5.58176">
        <ele>387.03</ele>
        <time>2026-08-10T10:36:56.854Z</time>
      </trkpt>
      <trkpt lat="49.99291" lon="5.58212">
        <ele>386.9</ele>
        <time>2026-08-10T10:37:02.855Z</time>
      </trkpt>
      <trkpt lat="49.99279" lon="5.58243">
        <ele>386.78</ele>
        <time>2026-08-10T10:37:08.855Z</time>
      </trkpt>
      <trkpt lat="49.99267" lon="5.58276">
        <ele>390.32</ele>
        <time>2026-08-10T10:37:14.857Z</time>
      </trkpt>
      <trkpt lat="49.99255" lon="5.58307">
        <ele>392.14</ele>
        <time>2026-08-10T10:37:20.856Z</time>
      </trkpt>
      <trkpt lat="49.99245" lon="5.58332">
        <ele>392.37</ele>
        <time>2026-08-10T10:37:26.860Z</time>
      </trkpt>
      <trkpt lat="49.99236" lon="5.58354">
        <ele>391.94</ele>
        <time>2026-08-10T10:37:32.855Z</time>
      </trkpt>
      <trkpt lat="49.99226" lon="5.5838">
        <ele>391.78</ele>
        <time>2026-08-10T10:37:38.856Z</time>
      </trkpt>
      <trkpt lat="49.99215" lon="5.58404">
        <ele>391.18</ele>
        <time>2026-08-10T10:37:44.856Z</time>
      </trkpt>
      <trkpt lat="49.99201" lon="5.58426">
        <ele>391.6</ele>
        <time>2026-08-10T10:37:50.858Z</time>
      </trkpt>
      <trkpt lat="49.99187" lon="5.58445">
        <ele>392.91</ele>
        <time>2026-08-10T10:37:56.857Z</time>
      </trkpt>
      <trkpt lat="49.99175" lon="5.58465">
        <ele>393.47</ele>
        <time>2026-08-10T10:38:02.862Z</time>
      </trkpt>
      <trkpt lat="49.99166" lon="5.58488">
        <ele>394.82</ele>
        <time>2026-08-10T10:38:08.860Z</time>
      </trkpt>
      <trkpt lat="49.99157" lon="5.5851">
        <ele>395.71</ele>
        <time>2026-08-10T10:38:14.861Z</time>
      </trkpt>
      <trkpt lat="49.99147" lon="5.58538">
        <ele>397.44</ele>
        <time>2026-08-10T10:38:20.853Z</time>
      </trkpt>
      <trkpt lat="49.99133" lon="5.58565">
        <ele>398.39</ele>
        <time>2026-08-10T10:38:26.855Z</time>
      </trkpt>
      <trkpt lat="49.99118" lon="5.58592">
        <ele>397</ele>
        <time>2026-08-10T10:38:32.853Z</time>
      </trkpt>
      <trkpt lat="49.99099" lon="5.5862">
        <ele>395.76</ele>
        <time>2026-08-10T10:38:38.864Z</time>
      </trkpt>
      <trkpt lat="49.99076" lon="5.58637">
        <ele>395.85</ele>
        <time>2026-08-10T10:38:44.860Z</time>
      </trkpt>
      <trkpt lat="49.9905" lon="5.58643">
        <ele>397.38</ele>
        <time>2026-08-10T10:38:50.855Z</time>
      </trkpt>
      <trkpt lat="49.99025" lon="5.58644">
        <ele>397.95</ele>
        <time>2026-08-10T10:38:56.859Z</time>
      </trkpt>
      <trkpt lat="49.99" lon="5.58652">
        <ele>397.13</ele>
        <time>2026-08-10T10:39:02.856Z</time>
      </trkpt>
      <trkpt lat="49.98976" lon="5.58667">
        <ele>398</ele>
        <time>2026-08-10T10:39:08.859Z</time>
      </trkpt>
      <trkpt lat="49.98953" lon="5.58686">
        <ele>399.51</ele>
        <time>2026-08-10T10:39:14.857Z</time>
      </trkpt>
      <trkpt lat="49.98932" lon="5.58711">
        <ele>400.99</ele>
        <time>2026-08-10T10:39:20.861Z</time>
      </trkpt>
      <trkpt lat="49.98914" lon="5.58738">
        <ele>400.91</ele>
        <time>2026-08-10T10:39:26.859Z</time>
      </trkpt>
      <trkpt lat="49.98896" lon="5.58762">
        <ele>398.61</ele>
        <time>2026-08-10T10:39:32.862Z</time>
      </trkpt>
      <trkpt lat="49.98883" lon="5.58791">
        <ele>398.41</ele>
        <time>2026-08-10T10:39:38.858Z</time>
      </trkpt>
      <trkpt lat="49.98877" lon="5.58825">
        <ele>397.23</ele>
        <time>2026-08-10T10:39:44.858Z</time>
      </trkpt>
      <trkpt lat="49.98872" lon="5.58863">
        <ele>396.56</ele>
        <time>2026-08-10T10:39:50.854Z</time>
      </trkpt>
      <trkpt lat="49.98865" lon="5.58899">
        <ele>398.43</ele>
        <time>2026-08-10T10:39:56.861Z</time>
      </trkpt>
      <trkpt lat="49.98855" lon="5.58933">
        <ele>400.51</ele>
        <time>2026-08-10T10:40:02.857Z</time>
      </trkpt>
      <trkpt lat="49.9884" lon="5.58965">
        <ele>402.78</ele>
        <time>2026-08-10T10:40:08.855Z</time>
      </trkpt>
      <trkpt lat="49.98824" lon="5.58999">
        <ele>404.09</ele>
        <time>2026-08-10T10:40:14.856Z</time>
      </trkpt>
      <trkpt lat="49.98807" lon="5.59027">
        <ele>403.1</ele>
        <time>2026-08-10T10:40:20.857Z</time>
      </trkpt>
      <trkpt lat="49.98787" lon="5.59053">
        <ele>401.41</ele>
        <time>2026-08-10T10:40:26.860Z</time>
      </trkpt>
      <trkpt lat="49.98765" lon="5.59079">
        <ele>402.05</ele>
        <time>2026-08-10T10:40:32.862Z</time>
      </trkpt>
      <trkpt lat="49.98741" lon="5.59103">
        <ele>402.89</ele>
        <time>2026-08-10T10:40:38.861Z</time>
      </trkpt>
      <trkpt lat="49.98717" lon="5.59128">
        <ele>401.81</ele>
        <time>2026-08-10T10:40:44.862Z</time>
      </trkpt>
      <trkpt lat="49.98694" lon="5.59153">
        <ele>400.95</ele>
        <time>2026-08-10T10:40:50.858Z</time>
      </trkpt>
      <trkpt lat="49.98672" lon="5.59186">
        <ele>399.69</ele>
        <time>2026-08-10T10:40:56.846Z</time>
      </trkpt>
      <trkpt lat="49.98655" lon="5.5923">
        <ele>399.13</ele>
        <time>2026-08-10T10:41:02.857Z</time>
      </trkpt>
      <trkpt lat="49.98646" lon="5.59276">
        <ele>399.5</ele>
        <time>2026-08-10T10:41:08.863Z</time>
      </trkpt>
      <trkpt lat="49.98645" lon="5.59323">
        <ele>400.29</ele>
        <time>2026-08-10T10:41:14.849Z</time>
      </trkpt>
      <trkpt lat="49.98645" lon="5.59377">
        <ele>401.04</ele>
        <time>2026-08-10T10:41:20.861Z</time>
      </trkpt>
      <trkpt lat="49.98618" lon="5.59416">
        <ele>397.92</ele>
        <time>2026-08-10T10:41:26.859Z</time>
      </trkpt>
      <trkpt lat="49.98581" lon="5.59395">
        <ele>397.8</ele>
        <time>2026-08-10T10:41:32.861Z</time>
      </trkpt>
      <trkpt lat="49.98562" lon="5.59383">
        <ele>398.47</ele>
        <time>2026-08-10T10:41:38.858Z</time>
      </trkpt>
      <trkpt lat="49.98547" lon="5.59374">
        <ele>401.36</ele>
        <time>2026-08-10T10:41:44.864Z</time>
      </trkpt>
      <trkpt lat="49.98529" lon="5.59367">
        <ele>402.73</ele>
        <time>2026-08-10T10:41:50.858Z</time>
      </trkpt>
      <trkpt lat="49.98512" lon="5.59368">
        <ele>402.75</ele>
        <time>2026-08-10T10:41:56.858Z</time>
      </trkpt>
      <trkpt lat="49.98498" lon="5.59375">
        <ele>402.87</ele>
        <time>2026-08-10T10:42:02.862Z</time>
      </trkpt>
      <trkpt lat="49.98486" lon="5.59387">
        <ele>402.64</ele>
        <time>2026-08-10T10:42:08.864Z</time>
      </trkpt>
      <trkpt lat="49.98476" lon="5.59401">
        <ele>405.37</ele>
        <time>2026-08-10T10:42:14.860Z</time>
      </trkpt>
      <trkpt lat="49.98466" lon="5.59415">
        <ele>405.89</ele>
        <time>2026-08-10T10:42:20.861Z</time>
      </trkpt>
      <trkpt lat="49.98458" lon="5.59425">
        <ele>405.6</ele>
        <time>2026-08-10T10:42:26.863Z</time>
      </trkpt>
      <trkpt lat="49.9845" lon="5.59436">
        <ele>406.01</ele>
        <time>2026-08-10T10:42:32.859Z</time>
      </trkpt>
      <trkpt lat="49.98441" lon="5.59451">
        <ele>407.16</ele>
        <time>2026-08-10T10:42:38.858Z</time>
      </trkpt>
      <trkpt lat="49.98431" lon="5.59466">
        <ele>407.57</ele>
        <time>2026-08-10T10:42:44.856Z</time>
      </trkpt>
      <trkpt lat="49.98423" lon="5.59481">
        <ele>407.76</ele>
        <time>2026-08-10T10:42:50.858Z</time>
      </trkpt>
      <trkpt lat="49.98414" lon="5.59497">
        <ele>408.91</ele>
        <time>2026-08-10T10:42:56.864Z</time>
      </trkpt>
      <trkpt lat="49.98407" lon="5.59516">
        <ele>410.56</ele>
        <time>2026-08-10T10:43:02.865Z</time>
      </trkpt>
      <trkpt lat="49.98403" lon="5.59535">
        <ele>411.9</ele>
        <time>2026-08-10T10:43:08.858Z</time>
      </trkpt>
      <trkpt lat="49.984" lon="5.59556">
        <ele>413.94</ele>
        <time>2026-08-10T10:43:14.856Z</time>
      </trkpt>
      <trkpt lat="49.98393" lon="5.59577">
        <ele>415.11</ele>
        <time>2026-08-10T10:43:20.854Z</time>
      </trkpt>
      <trkpt lat="49.98385" lon="5.59594">
        <ele>415.24</ele>
        <time>2026-08-10T10:43:26.849Z</time>
      </trkpt>
      <trkpt lat="49.98373" lon="5.59611">
        <ele>415.35</ele>
        <time>2026-08-10T10:43:32.856Z</time>
      </trkpt>
      <trkpt lat="49.9836" lon="5.59628">
        <ele>414.45</ele>
        <time>2026-08-10T10:43:38.861Z</time>
      </trkpt>
      <trkpt lat="49.98344" lon="5.59648">
        <ele>415.2</ele>
        <time>2026-08-10T10:43:44.856Z</time>
      </trkpt>
      <trkpt lat="49.98326" lon="5.59667">
        <ele>415.29</ele>
        <time>2026-08-10T10:43:50.857Z</time>
      </trkpt>
      <trkpt lat="49.98307" lon="5.59685">
        <ele>414.97</ele>
        <time>2026-08-10T10:43:56.856Z</time>
      </trkpt>
      <trkpt lat="49.98289" lon="5.59698">
        <ele>415.62</ele>
        <time>2026-08-10T10:44:02.861Z</time>
      </trkpt>
      <trkpt lat="49.98271" lon="5.59717">
        <ele>416.42</ele>
        <time>2026-08-10T10:44:08.857Z</time>
      </trkpt>
      <trkpt lat="49.98252" lon="5.59752">
        <ele>415.65</ele>
        <time>2026-08-10T10:44:14.859Z</time>
      </trkpt>
      <trkpt lat="49.98226" lon="5.59799">
        <ele>413.63</ele>
        <time>2026-08-10T10:44:20.859Z</time>
      </trkpt>
      <trkpt lat="49.98185" lon="5.59839">
        <ele>411.64</ele>
        <time>2026-08-10T10:44:26.858Z</time>
      </trkpt>
      <trkpt lat="49.9814" lon="5.59875">
        <ele>409.86</ele>
        <time>2026-08-10T10:44:32.862Z</time>
      </trkpt>
      <trkpt lat="49.98106" lon="5.59905">
        <ele>409.96</ele>
        <time>2026-08-10T10:44:38.857Z</time>
      </trkpt>
      <trkpt lat="49.98087" lon="5.59928">
        <ele>411.09</ele>
        <time>2026-08-10T10:44:44.859Z</time>
      </trkpt>
      <trkpt lat="49.98074" lon="5.59947">
        <ele>413.52</ele>
        <time>2026-08-10T10:44:50.859Z</time>
      </trkpt>
      <trkpt lat="49.98064" lon="5.59966">
        <ele>414.54</ele>
        <time>2026-08-10T10:44:56.856Z</time>
      </trkpt>
      <trkpt lat="49.98053" lon="5.59989">
        <ele>416.27</ele>
        <time>2026-08-10T10:45:02.857Z</time>
      </trkpt>
      <trkpt lat="49.98042" lon="5.6001">
        <ele>418.9</ele>
        <time>2026-08-10T10:45:08.859Z</time>
      </trkpt>
      <trkpt lat="49.9803" lon="5.60032">
        <ele>419.35</ele>
        <time>2026-08-10T10:45:14.856Z</time>
      </trkpt>
      <trkpt lat="49.98017" lon="5.60054">
        <ele>419.4</ele>
        <time>2026-08-10T10:45:20.856Z</time>
      </trkpt>
      <trkpt lat="49.98002" lon="5.60077">
        <ele>419.99</ele>
        <time>2026-08-10T10:45:26.858Z</time>
      </trkpt>
      <trkpt lat="49.97989" lon="5.60095">
        <ele>421.08</ele>
        <time>2026-08-10T10:45:32.856Z</time>
      </trkpt>
      <trkpt lat="49.97974" lon="5.60114">
        <ele>421.97</ele>
        <time>2026-08-10T10:45:38.861Z</time>
      </trkpt>
      <trkpt lat="49.97958" lon="5.60133">
        <ele>421.78</ele>
        <time>2026-08-10T10:45:44.858Z</time>
      </trkpt>
      <trkpt lat="49.97941" lon="5.6015">
        <ele>421.55</ele>
        <time>2026-08-10T10:45:50.860Z</time>
      </trkpt>
      <trkpt lat="49.97921" lon="5.60165">
        <ele>421.1</ele>
        <time>2026-08-10T10:45:56.859Z</time>
      </trkpt>
      <trkpt lat="49.97899" lon="5.60184">
        <ele>421.03</ele>
        <time>2026-08-10T10:46:02.859Z</time>
      </trkpt>
      <trkpt lat="49.97877" lon="5.60223">
        <ele>420.68</ele>
        <time>2026-08-10T10:46:08.858Z</time>
      </trkpt>
      <trkpt lat="49.97857" lon="5.60272">
        <ele>420.65</ele>
        <time>2026-08-10T10:46:14.857Z</time>
      </trkpt>
      <trkpt lat="49.97841" lon="5.60315">
        <ele>421.01</ele>
        <time>2026-08-10T10:46:20.858Z</time>
      </trkpt>
      <trkpt lat="49.97825" lon="5.60352">
        <ele>421.83</ele>
        <time>2026-08-10T10:46:26.859Z</time>
      </trkpt>
      <trkpt lat="49.9781" lon="5.6038">
        <ele>422.98</ele>
        <time>2026-08-10T10:46:32.860Z</time>
      </trkpt>
      <trkpt lat="49.9779" lon="5.60408">
        <ele>423.57</ele>
        <time>2026-08-10T10:46:38.857Z</time>
      </trkpt>
      <trkpt lat="49.97765" lon="5.60441">
        <ele>421.92</ele>
        <time>2026-08-10T10:46:44.861Z</time>
      </trkpt>
      <trkpt lat="49.97737" lon="5.60484">
        <ele>420.85</ele>
        <time>2026-08-10T10:46:50.856Z</time>
      </trkpt>
      <trkpt lat="49.97714" lon="5.60526">
        <ele>420.71</ele>
        <time>2026-08-10T10:46:56.857Z</time>
      </trkpt>
      <trkpt lat="49.97693" lon="5.60567">
        <ele>420.71</ele>
        <time>2026-08-10T10:47:02.857Z</time>
      </trkpt>
      <trkpt lat="49.97676" lon="5.60611">
        <ele>421.76</ele>
        <time>2026-08-10T10:47:08.859Z</time>
      </trkpt>
      <trkpt lat="49.97663" lon="5.60654">
        <ele>421.94</ele>
        <time>2026-08-10T10:47:14.864Z</time>
      </trkpt>
      <trkpt lat="49.97655" lon="5.60696">
        <ele>421.64</ele>
        <time>2026-08-10T10:47:20.856Z</time>
      </trkpt>
      <trkpt lat="49.97644" lon="5.60742">
        <ele>422.11</ele>
        <time>2026-08-10T10:47:26.860Z</time>
      </trkpt>
      <trkpt lat="49.97632" lon="5.60787">
        <ele>423.6</ele>
        <time>2026-08-10T10:47:32.858Z</time>
      </trkpt>
      <trkpt lat="49.97621" lon="5.60827">
        <ele>422.68</ele>
        <time>2026-08-10T10:47:38.858Z</time>
      </trkpt>
      <trkpt lat="49.9761" lon="5.60859">
        <ele>422.77</ele>
        <time>2026-08-10T10:47:44.859Z</time>
      </trkpt>
      <trkpt lat="49.97596" lon="5.60891">
        <ele>423.7</ele>
        <time>2026-08-10T10:47:50.861Z</time>
      </trkpt>
      <trkpt lat="49.97581" lon="5.60921">
        <ele>424.85</ele>
        <time>2026-08-10T10:47:56.858Z</time>
      </trkpt>
      <trkpt lat="49.97567" lon="5.60949">
        <ele>426.76</ele>
        <time>2026-08-10T10:48:02.857Z</time>
      </trkpt>
      <trkpt lat="49.97558" lon="5.60972">
        <ele>429.63</ele>
        <time>2026-08-10T10:48:08.861Z</time>
      </trkpt>
      <trkpt lat="49.97551" lon="5.60998">
        <ele>431.15</ele>
        <time>2026-08-10T10:48:14.863Z</time>
      </trkpt>
      <trkpt lat="49.97549" lon="5.61024">
        <ele>432.39</ele>
        <time>2026-08-10T10:48:20.860Z</time>
      </trkpt>
      <trkpt lat="49.97554" lon="5.61056">
        <ele>430.64</ele>
        <time>2026-08-10T10:48:26.860Z</time>
      </trkpt>
      <trkpt lat="49.97556" lon="5.61088">
        <ele>430.68</ele>
        <time>2026-08-10T10:48:32.855Z</time>
      </trkpt>
      <trkpt lat="49.97554" lon="5.61124">
        <ele>429.41</ele>
        <time>2026-08-10T10:48:38.860Z</time>
      </trkpt>
      <trkpt lat="49.97551" lon="5.61149">
        <ele>428.68</ele>
        <time>2026-08-10T10:48:44.868Z</time>
      </trkpt>
      <trkpt lat="49.97548" lon="5.61166">
        <ele>430.26</ele>
        <time>2026-08-10T10:48:50.859Z</time>
      </trkpt>
      <trkpt lat="49.97539" lon="5.61184">
        <ele>432.79</ele>
        <time>2026-08-10T10:48:56.861Z</time>
      </trkpt>
      <trkpt lat="49.97521" lon="5.61205">
        <ele>430.87</ele>
        <time>2026-08-10T10:49:02.872Z</time>
      </trkpt>
      <trkpt lat="49.97502" lon="5.61233">
        <ele>428.45</ele>
        <time>2026-08-10T10:49:08.857Z</time>
      </trkpt>
      <trkpt lat="49.97483" lon="5.61254">
        <ele>428.23</ele>
        <time>2026-08-10T10:49:13.983Z</time>
      </trkpt>
      <trkpt lat="49.97464" lon="5.61283">
        <ele>428.54</ele>
        <time>2026-08-10T10:49:19.795Z</time>
      </trkpt>
      <trkpt lat="49.97446" lon="5.61312">
        <ele>428.78</ele>
        <time>2026-08-10T10:49:24.796Z</time>
      </trkpt>
      <trkpt lat="49.9743" lon="5.61341">
        <ele>429.97</ele>
        <time>2026-08-10T10:49:29.796Z</time>
      </trkpt>
      <trkpt lat="49.97414" lon="5.61371">
        <ele>430.96</ele>
        <time>2026-08-10T10:49:35.794Z</time>
      </trkpt>
      <trkpt lat="49.97396" lon="5.61402">
        <ele>431.46</ele>
        <time>2026-08-10T10:49:41.799Z</time>
      </trkpt>
      <trkpt lat="49.9738" lon="5.61434">
        <ele>432.74</ele>
        <time>2026-08-10T10:49:47.795Z</time>
      </trkpt>
      <trkpt lat="49.97363" lon="5.61471">
        <ele>431.68</ele>
        <time>2026-08-10T10:49:53.798Z</time>
      </trkpt>
      <trkpt lat="49.97347" lon="5.61512">
        <ele>431.43</ele>
        <time>2026-08-10T10:49:59.791Z</time>
      </trkpt>
      <trkpt lat="49.97339" lon="5.61552">
        <ele>430.55</ele>
        <time>2026-08-10T10:50:04.795Z</time>
      </trkpt>
      <trkpt lat="49.9734" lon="5.61592">
        <ele>432.2</ele>
        <time>2026-08-10T10:50:09.800Z</time>
      </trkpt>
      <trkpt lat="49.97345" lon="5.61629">
        <ele>430.54</ele>
        <time>2026-08-10T10:50:14.850Z</time>
      </trkpt>
      <trkpt lat="49.9735" lon="5.61667">
        <ele>429.42</ele>
        <time>2026-08-10T10:50:20.854Z</time>
      </trkpt>
      <trkpt lat="49.97351" lon="5.61704">
        <ele>430.69</ele>
        <time>2026-08-10T10:50:26.853Z</time>
      </trkpt>
      <trkpt lat="49.97343" lon="5.61743">
        <ele>434.58</ele>
        <time>2026-08-10T10:50:32.855Z</time>
      </trkpt>
      <trkpt lat="49.97332" lon="5.61769">
        <ele>437.63</ele>
        <time>2026-08-10T10:50:38.857Z</time>
      </trkpt>
      <trkpt lat="49.97323" lon="5.61791">
        <ele>438.6</ele>
        <time>2026-08-10T10:50:44.859Z</time>
      </trkpt>
      <trkpt lat="49.97315" lon="5.61811">
        <ele>439.55</ele>
        <time>2026-08-10T10:50:50.855Z</time>
      </trkpt>
      <trkpt lat="49.97306" lon="5.61829">
        <ele>440.11</ele>
        <time>2026-08-10T10:50:56.869Z</time>
      </trkpt>
      <trkpt lat="49.97297" lon="5.61851">
        <ele>440.98</ele>
        <time>2026-08-10T10:51:02.851Z</time>
      </trkpt>
      <trkpt lat="49.97288" lon="5.61871">
        <ele>442.08</ele>
        <time>2026-08-10T10:51:08.855Z</time>
      </trkpt>
      <trkpt lat="49.97278" lon="5.61891">
        <ele>443.39</ele>
        <time>2026-08-10T10:51:14.855Z</time>
      </trkpt>
      <trkpt lat="49.97269" lon="5.61912">
        <ele>443.88</ele>
        <time>2026-08-10T10:51:20.856Z</time>
      </trkpt>
      <trkpt lat="49.97259" lon="5.61934">
        <ele>444.05</ele>
        <time>2026-08-10T10:51:26.860Z</time>
      </trkpt>
      <trkpt lat="49.97248" lon="5.61956">
        <ele>444.74</ele>
        <time>2026-08-10T10:51:32.854Z</time>
      </trkpt>
      <trkpt lat="49.97239" lon="5.61978">
        <ele>444.8</ele>
        <time>2026-08-10T10:51:38.856Z</time>
      </trkpt>
      <trkpt lat="49.97229" lon="5.61999">
        <ele>445.92</ele>
        <time>2026-08-10T10:51:44.857Z</time>
      </trkpt>
      <trkpt lat="49.97221" lon="5.62017">
        <ele>447.53</ele>
        <time>2026-08-10T10:51:50.859Z</time>
      </trkpt>
      <trkpt lat="49.9721" lon="5.62039">
        <ele>447.87</ele>
        <time>2026-08-10T10:51:56.858Z</time>
      </trkpt>
      <trkpt lat="49.97199" lon="5.62063">
        <ele>448.31</ele>
        <time>2026-08-10T10:52:02.857Z</time>
      </trkpt>
      <trkpt lat="49.97188" lon="5.62085">
        <ele>448.8</ele>
        <time>2026-08-10T10:52:08.858Z</time>
      </trkpt>
      <trkpt lat="49.97176" lon="5.62107">
        <ele>448.83</ele>
        <time>2026-08-10T10:52:14.859Z</time>
      </trkpt>
      <trkpt lat="49.97164" lon="5.62129">
        <ele>448.49</ele>
        <time>2026-08-10T10:52:20.858Z</time>
      </trkpt>
      <trkpt lat="49.97152" lon="5.62151">
        <ele>449.53</ele>
        <time>2026-08-10T10:52:26.865Z</time>
      </trkpt>
      <trkpt lat="49.97139" lon="5.62173">
        <ele>450.79</ele>
        <time>2026-08-10T10:52:32.857Z</time>
      </trkpt>
      <trkpt lat="49.97127" lon="5.62195">
        <ele>451.86</ele>
        <time>2026-08-10T10:52:38.858Z</time>
      </trkpt>
      <trkpt lat="49.97116" lon="5.62218">
        <ele>453.15</ele>
        <time>2026-08-10T10:52:44.860Z</time>
      </trkpt>
      <trkpt lat="49.97108" lon="5.62245">
        <ele>454.52</ele>
        <time>2026-08-10T10:52:50.854Z</time>
      </trkpt>
      <trkpt lat="49.97103" lon="5.62275">
        <ele>454.84</ele>
        <time>2026-08-10T10:52:56.863Z</time>
      </trkpt>
      <trkpt lat="49.97098" lon="5.62307">
        <ele>454.97</ele>
        <time>2026-08-10T10:53:02.856Z</time>
      </trkpt>
      <trkpt lat="49.97089" lon="5.62341">
        <ele>453.94</ele>
        <time>2026-08-10T10:53:08.851Z</time>
      </trkpt>
      <trkpt lat="49.97079" lon="5.62375">
        <ele>454.05</ele>
        <time>2026-08-10T10:53:14.856Z</time>
      </trkpt>
      <trkpt lat="49.97068" lon="5.62407">
        <ele>453.75</ele>
        <time>2026-08-10T10:53:20.853Z</time>
      </trkpt>
      <trkpt lat="49.97062" lon="5.6244">
        <ele>453.93</ele>
        <time>2026-08-10T10:53:26.844Z</time>
      </trkpt>
      <trkpt lat="49.97057" lon="5.62474">
        <ele>453.65</ele>
        <time>2026-08-10T10:53:32.857Z</time>
      </trkpt>
      <trkpt lat="49.97052" lon="5.62504">
        <ele>454.09</ele>
        <time>2026-08-10T10:53:38.857Z</time>
      </trkpt>
      <trkpt lat="49.97047" lon="5.62523">
        <ele>453.14</ele>
        <time>2026-08-10T10:53:44.861Z</time>
      </trkpt>
      <trkpt lat="49.97055" lon="5.62514">
        <ele>453.89</ele>
        <time>2026-08-10T10:53:53.785Z</time>
      </trkpt>
      <trkpt lat="49.9706" lon="5.62489">
        <ele>452.68</ele>
        <time>2026-08-10T10:53:58.795Z</time>
      </trkpt>
      <trkpt lat="49.97062" lon="5.62462">
        <ele>451.47</ele>
        <time>2026-08-10T10:54:04.799Z</time>
      </trkpt>
      <trkpt lat="49.97056" lon="5.62445">
        <ele>450.72</ele>
        <time>2026-08-10T10:54:10.797Z</time>
      </trkpt>
      <trkpt lat="49.97061" lon="5.62457">
        <ele>452.3</ele>
        <time>2026-08-10T10:57:50.857Z</time>
      </trkpt>
      <trkpt lat="49.97058" lon="5.62481">
        <ele>452.62</ele>
        <time>2026-08-10T10:57:56.862Z</time>
      </trkpt>
      <trkpt lat="49.97054" lon="5.62508">
        <ele>452.86</ele>
        <time>2026-08-10T10:58:02.860Z</time>
      </trkpt>
      <trkpt lat="49.97049" lon="5.62544">
        <ele>452.13</ele>
        <time>2026-08-10T10:58:08.864Z</time>
      </trkpt>
      <trkpt lat="49.97041" lon="5.62584">
        <ele>451.6</ele>
        <time>2026-08-10T10:58:14.865Z</time>
      </trkpt>
      <trkpt lat="49.97035" lon="5.62628">
        <ele>449.99</ele>
        <time>2026-08-10T10:58:20.859Z</time>
      </trkpt>
      <trkpt lat="49.97028" lon="5.62671">
        <ele>448.66</ele>
        <time>2026-08-10T10:58:26.864Z</time>
      </trkpt>
      <trkpt lat="49.97024" lon="5.62707">
        <ele>448.71</ele>
        <time>2026-08-10T10:58:32.863Z</time>
      </trkpt>
      <trkpt lat="49.97018" lon="5.62745">
        <ele>450.26</ele>
        <time>2026-08-10T10:58:38.862Z</time>
      </trkpt>
      <trkpt lat="49.97009" lon="5.62789">
        <ele>451.24</ele>
        <time>2026-08-10T10:58:44.867Z</time>
      </trkpt>
      <trkpt lat="49.96997" lon="5.6284">
        <ele>449.83</ele>
        <time>2026-08-10T10:58:50.860Z</time>
      </trkpt>
      <trkpt lat="49.96985" lon="5.62891">
        <ele>448.61</ele>
        <time>2026-08-10T10:58:56.860Z</time>
      </trkpt>
      <trkpt lat="49.96982" lon="5.6293">
        <ele>446.68</ele>
        <time>2026-08-10T10:59:02.861Z</time>
      </trkpt>
      <trkpt lat="49.96982" lon="5.6297">
        <ele>445.89</ele>
        <time>2026-08-10T10:59:08.858Z</time>
      </trkpt>
      <trkpt lat="49.96974" lon="5.62997">
        <ele>446.1</ele>
        <time>2026-08-10T10:59:14.861Z</time>
      </trkpt>
      <trkpt lat="49.9697" lon="5.63011">
        <ele>448.27</ele>
        <time>2026-08-10T10:59:22.794Z</time>
      </trkpt>
      <trkpt lat="49.96977" lon="5.63001">
        <ele>448.77</ele>
        <time>2026-08-10T10:59:28.793Z</time>
      </trkpt>
      <trkpt lat="49.96984" lon="5.62971">
        <ele>448.53</ele>
        <time>2026-08-10T10:59:34.793Z</time>
      </trkpt>
      <trkpt lat="49.96986" lon="5.62945">
        <ele>447.46</ele>
        <time>2026-08-10T10:59:39.797Z</time>
      </trkpt>
      <trkpt lat="49.96986" lon="5.62921">
        <ele>446.88</ele>
        <time>2026-08-10T10:59:44.865Z</time>
      </trkpt>
      <trkpt lat="49.96989" lon="5.62894">
        <ele>447.8</ele>
        <time>2026-08-10T10:59:50.862Z</time>
      </trkpt>
      <trkpt lat="49.96993" lon="5.62872">
        <ele>448.03</ele>
        <time>2026-08-10T10:59:56.862Z</time>
      </trkpt>
      <trkpt lat="49.96997" lon="5.62855">
        <ele>448.36</ele>
        <time>2026-08-10T11:00:02.861Z</time>
      </trkpt>
      <trkpt lat="49.9699" lon="5.62868">
        <ele>448.29</ele>
        <time>2026-08-10T11:00:11.796Z</time>
      </trkpt>
      <trkpt lat="49.96983" lon="5.629">
        <ele>446.43</ele>
        <time>2026-08-10T11:00:17.798Z</time>
      </trkpt>
      <trkpt lat="49.96983" lon="5.62937">
        <ele>444.81</ele>
        <time>2026-08-10T11:00:23.795Z</time>
      </trkpt>
      <trkpt lat="49.96981" lon="5.62971">
        <ele>444.15</ele>
        <time>2026-08-10T11:00:28.796Z</time>
      </trkpt>
      <trkpt lat="49.96972" lon="5.63005">
        <ele>445.08</ele>
        <time>2026-08-10T11:00:34.793Z</time>
      </trkpt>
      <trkpt lat="49.96961" lon="5.63029">
        <ele>445.77</ele>
        <time>2026-08-10T11:00:39.796Z</time>
      </trkpt>
      <trkpt lat="49.96949" lon="5.63053">
        <ele>446.27</ele>
        <time>2026-08-10T11:00:44.863Z</time>
      </trkpt>
      <trkpt lat="49.96935" lon="5.63078">
        <ele>447.51</ele>
        <time>2026-08-10T11:00:50.859Z</time>
      </trkpt>
      <trkpt lat="49.96922" lon="5.63101">
        <ele>448.82</ele>
        <time>2026-08-10T11:00:56.863Z</time>
      </trkpt>
      <trkpt lat="49.96911" lon="5.63123">
        <ele>450</ele>
        <time>2026-08-10T11:01:02.858Z</time>
      </trkpt>
      <trkpt lat="49.96907" lon="5.63152">
        <ele>449.05</ele>
        <time>2026-08-10T11:01:08.862Z</time>
      </trkpt>
      <trkpt lat="49.96917" lon="5.63183">
        <ele>449.18</ele>
        <time>2026-08-10T11:01:14.865Z</time>
      </trkpt>
      <trkpt lat="49.96934" lon="5.63212">
        <ele>449.66</ele>
        <time>2026-08-10T11:01:20.864Z</time>
      </trkpt>
      <trkpt lat="49.96951" lon="5.63242">
        <ele>447.85</ele>
        <time>2026-08-10T11:01:26.866Z</time>
      </trkpt>
      <trkpt lat="49.96967" lon="5.63267">
        <ele>446.3</ele>
        <time>2026-08-10T11:01:32.864Z</time>
      </trkpt>
      <trkpt lat="49.96985" lon="5.63288">
        <ele>446.25</ele>
        <time>2026-08-10T11:01:38.865Z</time>
      </trkpt>
      <trkpt lat="49.97002" lon="5.6331">
        <ele>447.98</ele>
        <time>2026-08-10T11:01:44.863Z</time>
      </trkpt>
      <trkpt lat="49.97015" lon="5.6333">
        <ele>449.23</ele>
        <time>2026-08-10T11:01:50.859Z</time>
      </trkpt>
      <trkpt lat="49.97027" lon="5.6335">
        <ele>448.17</ele>
        <time>2026-08-10T11:01:56.862Z</time>
      </trkpt>
      <trkpt lat="49.9704" lon="5.63372">
        <ele>448.22</ele>
        <time>2026-08-10T11:02:02.864Z</time>
      </trkpt>
      <trkpt lat="49.9705" lon="5.63394">
        <ele>448.3</ele>
        <time>2026-08-10T11:02:08.861Z</time>
      </trkpt>
      <trkpt lat="49.97062" lon="5.63419">
        <ele>451.89</ele>
        <time>2026-08-10T11:02:14.864Z</time>
      </trkpt>
      <trkpt lat="49.97078" lon="5.63435">
        <ele>453.5</ele>
        <time>2026-08-10T11:02:20.866Z</time>
      </trkpt>
      <trkpt lat="49.97091" lon="5.63455">
        <ele>453.68</ele>
        <time>2026-08-10T11:02:26.869Z</time>
      </trkpt>
      <trkpt lat="49.97103" lon="5.63481">
        <ele>454.25</ele>
        <time>2026-08-10T11:02:32.867Z</time>
      </trkpt>
      <trkpt lat="49.97112" lon="5.63505">
        <ele>454.29</ele>
        <time>2026-08-10T11:02:38.864Z</time>
      </trkpt>
      <trkpt lat="49.9712" lon="5.63523">
        <ele>454.29</ele>
        <time>2026-08-10T11:02:44.862Z</time>
      </trkpt>
      <trkpt lat="49.97129" lon="5.63545">
        <ele>453.01</ele>
        <time>2026-08-10T11:02:50.860Z</time>
      </trkpt>
      <trkpt lat="49.97137" lon="5.63561">
        <ele>454</ele>
        <time>2026-08-10T11:02:56.862Z</time>
      </trkpt>
      <trkpt lat="49.97146" lon="5.63564">
        <ele>455.73</ele>
        <time>2026-08-10T11:03:03.794Z</time>
      </trkpt>
      <trkpt lat="49.97155" lon="5.63568">
        <ele>456.84</ele>
        <time>2026-08-10T11:03:17.790Z</time>
      </trkpt>
      <trkpt lat="49.97145" lon="5.6356">
        <ele>458.19</ele>
        <time>2026-08-10T12:53:00.840Z</time>
      </trkpt>
      <trkpt lat="49.97131" lon="5.63539">
        <ele>453.16</ele>
        <time>2026-08-10T12:53:06.819Z</time>
      </trkpt>
      <trkpt lat="49.97121" lon="5.63514">
        <ele>450.66</ele>
        <time>2026-08-10T12:53:11.831Z</time>
      </trkpt>
      <trkpt lat="49.9711" lon="5.63484">
        <ele>446.54</ele>
        <time>2026-08-10T12:53:17.831Z</time>
      </trkpt>
      <trkpt lat="49.97095" lon="5.63449">
        <ele>445.3</ele>
        <time>2026-08-10T12:53:23.815Z</time>
      </trkpt>
      <trkpt lat="49.97069" lon="5.63418">
        <ele>446.35</ele>
        <time>2026-08-10T12:53:29.813Z</time>
      </trkpt>
      <trkpt lat="49.97045" lon="5.63429">
        <ele>450.25</ele>
        <time>2026-08-10T12:53:35.807Z</time>
      </trkpt>
      <trkpt lat="49.97027" lon="5.6344">
        <ele>454.06</ele>
        <time>2026-08-10T12:53:40.818Z</time>
      </trkpt>
      <trkpt lat="49.97011" lon="5.63441">
        <ele>454.63</ele>
        <time>2026-08-10T12:53:46.353Z</time>
      </trkpt>
      <trkpt lat="49.96995" lon="5.6345">
        <ele>451.91</ele>
        <time>2026-08-10T12:53:51.357Z</time>
      </trkpt>
      <trkpt lat="49.9698" lon="5.63459">
        <ele>449.63</ele>
        <time>2026-08-10T12:53:56.894Z</time>
      </trkpt>
      <trkpt lat="49.96962" lon="5.6347">
        <ele>450.5</ele>
        <time>2026-08-10T12:54:02.885Z</time>
      </trkpt>
      <trkpt lat="49.96946" lon="5.63484">
        <ele>450.99</ele>
        <time>2026-08-10T12:54:08.877Z</time>
      </trkpt>
      <trkpt lat="49.96928" lon="5.63498">
        <ele>451.46</ele>
        <time>2026-08-10T12:54:14.879Z</time>
      </trkpt>
      <trkpt lat="49.96913" lon="5.63511">
        <ele>450.45</ele>
        <time>2026-08-10T12:54:20.870Z</time>
      </trkpt>
      <trkpt lat="49.96891" lon="5.63526">
        <ele>451.71</ele>
        <time>2026-08-10T12:54:26.868Z</time>
      </trkpt>
      <trkpt lat="49.96873" lon="5.63544">
        <ele>453.25</ele>
        <time>2026-08-10T12:54:32.875Z</time>
      </trkpt>
      <trkpt lat="49.96854" lon="5.63563">
        <ele>455.41</ele>
        <time>2026-08-10T12:54:38.870Z</time>
      </trkpt>
      <trkpt lat="49.96838" lon="5.63585">
        <ele>458.43</ele>
        <time>2026-08-10T12:54:44.869Z</time>
      </trkpt>
      <trkpt lat="49.96823" lon="5.63607">
        <ele>459.95</ele>
        <time>2026-08-10T12:54:50.865Z</time>
      </trkpt>
      <trkpt lat="49.96804" lon="5.63627">
        <ele>461.91</ele>
        <time>2026-08-10T12:54:56.884Z</time>
      </trkpt>
      <trkpt lat="49.96779" lon="5.63636">
        <ele>463.6</ele>
        <time>2026-08-10T12:55:02.880Z</time>
      </trkpt>
      <trkpt lat="49.96754" lon="5.63649">
        <ele>461.97</ele>
        <time>2026-08-10T12:55:08.866Z</time>
      </trkpt>
      <trkpt lat="49.96724" lon="5.63666">
        <ele>460.07</ele>
        <time>2026-08-10T12:55:14.874Z</time>
      </trkpt>
      <trkpt lat="49.96692" lon="5.63688">
        <ele>459.22</ele>
        <time>2026-08-10T12:55:20.880Z</time>
      </trkpt>
      <trkpt lat="49.96667" lon="5.63702">
        <ele>460.5</ele>
        <time>2026-08-10T12:55:26.883Z</time>
      </trkpt>
      <trkpt lat="49.96667" lon="5.63748">
        <ele>459.96</ele>
        <time>2026-08-10T12:55:32.889Z</time>
      </trkpt>
      <trkpt lat="49.96661" lon="5.63786">
        <ele>456.09</ele>
        <time>2026-08-10T12:55:38.862Z</time>
      </trkpt>
      <trkpt lat="49.96656" lon="5.63825">
        <ele>454.8</ele>
        <time>2026-08-10T12:55:44.866Z</time>
      </trkpt>
      <trkpt lat="49.96654" lon="5.63857">
        <ele>455.23</ele>
        <time>2026-08-10T12:55:50.866Z</time>
      </trkpt>
      <trkpt lat="49.9665" lon="5.63884">
        <ele>457.04</ele>
        <time>2026-08-10T12:55:56.872Z</time>
      </trkpt>
      <trkpt lat="49.96647" lon="5.63914">
        <ele>459.64</ele>
        <time>2026-08-10T12:56:02.867Z</time>
      </trkpt>
      <trkpt lat="49.96641" lon="5.63937">
        <ele>462.66</ele>
        <time>2026-08-10T12:56:08.866Z</time>
      </trkpt>
      <trkpt lat="49.96635" lon="5.63957">
        <ele>461.84</ele>
        <time>2026-08-10T12:56:14.880Z</time>
      </trkpt>
      <trkpt lat="49.9663" lon="5.63979">
        <ele>461.62</ele>
        <time>2026-08-10T12:56:20.868Z</time>
      </trkpt>
      <trkpt lat="49.96625" lon="5.64002">
        <ele>463.85</ele>
        <time>2026-08-10T12:56:26.879Z</time>
      </trkpt>
      <trkpt lat="49.96619" lon="5.64025">
        <ele>465.66</ele>
        <time>2026-08-10T12:56:32.872Z</time>
      </trkpt>
      <trkpt lat="49.96613" lon="5.64047">
        <ele>466.36</ele>
        <time>2026-08-10T12:56:38.862Z</time>
      </trkpt>
      <trkpt lat="49.96607" lon="5.64067">
        <ele>467.57</ele>
        <time>2026-08-10T12:56:44.876Z</time>
      </trkpt>
      <trkpt lat="49.96601" lon="5.64087">
        <ele>470.1</ele>
        <time>2026-08-10T12:56:50.874Z</time>
      </trkpt>
      <trkpt lat="49.96595" lon="5.64107">
        <ele>472.49</ele>
        <time>2026-08-10T12:56:56.872Z</time>
      </trkpt>
      <trkpt lat="49.96588" lon="5.64127">
        <ele>474.94</ele>
        <time>2026-08-10T12:57:02.868Z</time>
      </trkpt>
      <trkpt lat="49.9658" lon="5.64147">
        <ele>476.27</ele>
        <time>2026-08-10T12:57:08.859Z</time>
      </trkpt>
      <trkpt lat="49.96571" lon="5.6417">
        <ele>476.74</ele>
        <time>2026-08-10T12:57:14.862Z</time>
      </trkpt>
      <trkpt lat="49.96562" lon="5.64188">
        <ele>478.15</ele>
        <time>2026-08-10T12:57:20.863Z</time>
      </trkpt>
      <trkpt lat="49.9655" lon="5.6421">
        <ele>477.8</ele>
        <time>2026-08-10T12:57:26.875Z</time>
      </trkpt>
      <trkpt lat="49.96541" lon="5.64231">
        <ele>476.49</ele>
        <time>2026-08-10T12:57:32.901Z</time>
      </trkpt>
      <trkpt lat="49.96543" lon="5.64246">
        <ele>476.24</ele>
        <time>2026-08-10T12:57:38.878Z</time>
      </trkpt>
      <trkpt lat="49.96547" lon="5.64269">
        <ele>473.68</ele>
        <time>2026-08-10T12:57:44.876Z</time>
      </trkpt>
      <trkpt lat="49.96552" lon="5.64289">
        <ele>471.74</ele>
        <time>2026-08-10T12:57:50.865Z</time>
      </trkpt>
      <trkpt lat="49.96558" lon="5.64302">
        <ele>476.16</ele>
        <time>2026-08-10T13:02:44.913Z</time>
      </trkpt>
      <trkpt lat="49.96563" lon="5.6432">
        <ele>474.97</ele>
        <time>2026-08-10T13:02:50.891Z</time>
      </trkpt>
      <trkpt lat="49.96571" lon="5.64345">
        <ele>473.95</ele>
        <time>2026-08-10T13:02:56.910Z</time>
      </trkpt>
      <trkpt lat="49.96583" lon="5.64372">
        <ele>478.12</ele>
        <time>2026-08-10T13:03:02.877Z</time>
      </trkpt>
      <trkpt lat="49.96588" lon="5.64398">
        <ele>481.8</ele>
        <time>2026-08-10T13:03:08.870Z</time>
      </trkpt>
      <trkpt lat="49.96592" lon="5.64425">
        <ele>479.92</ele>
        <time>2026-08-10T13:03:14.892Z</time>
      </trkpt>
      <trkpt lat="49.966" lon="5.64452">
        <ele>480.1</ele>
        <time>2026-08-10T13:03:20.875Z</time>
      </trkpt>
      <trkpt lat="49.96605" lon="5.64477">
        <ele>479.12</ele>
        <time>2026-08-10T13:03:26.886Z</time>
      </trkpt>
      <trkpt lat="49.96612" lon="5.64503">
        <ele>474.82</ele>
        <time>2026-08-10T13:03:32.879Z</time>
      </trkpt>
      <trkpt lat="49.9662" lon="5.64536">
        <ele>471.28</ele>
        <time>2026-08-10T13:03:38.883Z</time>
      </trkpt>
      <trkpt lat="49.9663" lon="5.64571">
        <ele>468.22</ele>
        <time>2026-08-10T13:03:44.875Z</time>
      </trkpt>
      <trkpt lat="49.9664" lon="5.64601">
        <ele>464.97</ele>
        <time>2026-08-10T13:03:50.891Z</time>
      </trkpt>
      <trkpt lat="49.96649" lon="5.64629">
        <ele>465.44</ele>
        <time>2026-08-10T13:03:56.900Z</time>
      </trkpt>
      <trkpt lat="49.96658" lon="5.64657">
        <ele>465.62</ele>
        <time>2026-08-10T13:04:02.870Z</time>
      </trkpt>
      <trkpt lat="49.96669" lon="5.64688">
        <ele>466.91</ele>
        <time>2026-08-10T13:04:08.871Z</time>
      </trkpt>
      <trkpt lat="49.96677" lon="5.64715">
        <ele>467.82</ele>
        <time>2026-08-10T13:04:14.914Z</time>
      </trkpt>
      <trkpt lat="49.96689" lon="5.64744">
        <ele>469.69</ele>
        <time>2026-08-10T13:04:20.881Z</time>
      </trkpt>
      <trkpt lat="49.96702" lon="5.64777">
        <ele>468.7</ele>
        <time>2026-08-10T13:04:26.882Z</time>
      </trkpt>
      <trkpt lat="49.96713" lon="5.64806">
        <ele>470.3</ele>
        <time>2026-08-10T13:04:32.886Z</time>
      </trkpt>
      <trkpt lat="49.96727" lon="5.64836">
        <ele>472.31</ele>
        <time>2026-08-10T13:04:38.879Z</time>
      </trkpt>
      <trkpt lat="49.96741" lon="5.64866">
        <ele>475.49</ele>
        <time>2026-08-10T13:04:44.868Z</time>
      </trkpt>
      <trkpt lat="49.96757" lon="5.64891">
        <ele>478.63</ele>
        <time>2026-08-10T13:04:50.876Z</time>
      </trkpt>
      <trkpt lat="49.96772" lon="5.64914">
        <ele>476.03</ele>
        <time>2026-08-10T13:04:56.882Z</time>
      </trkpt>
      <trkpt lat="49.96782" lon="5.64936">
        <ele>477.29</ele>
        <time>2026-08-10T13:05:02.872Z</time>
      </trkpt>
      <trkpt lat="49.96798" lon="5.64959">
        <ele>476.58</ele>
        <time>2026-08-10T13:05:08.870Z</time>
      </trkpt>
      <trkpt lat="49.96816" lon="5.64986">
        <ele>475.85</ele>
        <time>2026-08-10T13:05:14.887Z</time>
      </trkpt>
      <trkpt lat="49.96835" lon="5.65005">
        <ele>473.25</ele>
        <time>2026-08-10T13:05:20.872Z</time>
      </trkpt>
      <trkpt lat="49.96855" lon="5.65028">
        <ele>471.57</ele>
        <time>2026-08-10T13:05:26.875Z</time>
      </trkpt>
      <trkpt lat="49.96871" lon="5.6505">
        <ele>467.66</ele>
        <time>2026-08-10T13:05:32.876Z</time>
      </trkpt>
      <trkpt lat="49.96889" lon="5.65076">
        <ele>462.99</ele>
        <time>2026-08-10T13:05:38.875Z</time>
      </trkpt>
      <trkpt lat="49.96903" lon="5.65101">
        <ele>456.39</ele>
        <time>2026-08-10T13:05:44.880Z</time>
      </trkpt>
      <trkpt lat="49.96918" lon="5.65133">
        <ele>456.7</ele>
        <time>2026-08-10T13:05:50.883Z</time>
      </trkpt>
      <trkpt lat="49.96935" lon="5.65169">
        <ele>458.25</ele>
        <time>2026-08-10T13:05:56.888Z</time>
      </trkpt>
      <trkpt lat="49.96954" lon="5.65206">
        <ele>463.25</ele>
        <time>2026-08-10T13:06:02.896Z</time>
      </trkpt>
      <trkpt lat="49.96975" lon="5.65233">
        <ele>467.69</ele>
        <time>2026-08-10T13:06:08.881Z</time>
      </trkpt>
      <trkpt lat="49.96991" lon="5.65254">
        <ele>470.36</ele>
        <time>2026-08-10T13:06:14.874Z</time>
      </trkpt>
      <trkpt lat="49.97007" lon="5.65275">
        <ele>472.94</ele>
        <time>2026-08-10T13:06:20.871Z</time>
      </trkpt>
      <trkpt lat="49.97024" lon="5.65299">
        <ele>474.52</ele>
        <time>2026-08-10T13:06:26.891Z</time>
      </trkpt>
      <trkpt lat="49.97043" lon="5.65317">
        <ele>475.15</ele>
        <time>2026-08-10T13:06:32.899Z</time>
      </trkpt>
      <trkpt lat="49.97057" lon="5.65337">
        <ele>471.78</ele>
        <time>2026-08-10T13:06:38.870Z</time>
      </trkpt>
      <trkpt lat="49.97073" lon="5.65358">
        <ele>472.11</ele>
        <time>2026-08-10T13:06:44.865Z</time>
      </trkpt>
      <trkpt lat="49.97091" lon="5.65381">
        <ele>471.68</ele>
        <time>2026-08-10T13:06:50.878Z</time>
      </trkpt>
      <trkpt lat="49.97105" lon="5.654">
        <ele>471.15</ele>
        <time>2026-08-10T13:06:56.870Z</time>
      </trkpt>
      <trkpt lat="49.97124" lon="5.65421">
        <ele>471.81</ele>
        <time>2026-08-10T13:07:02.881Z</time>
      </trkpt>
      <trkpt lat="49.97142" lon="5.65444">
        <ele>472.85</ele>
        <time>2026-08-10T13:07:08.877Z</time>
      </trkpt>
      <trkpt lat="49.97156" lon="5.65464">
        <ele>472.99</ele>
        <time>2026-08-10T13:07:14.877Z</time>
      </trkpt>
      <trkpt lat="49.97169" lon="5.65485">
        <ele>472.88</ele>
        <time>2026-08-10T13:07:20.877Z</time>
      </trkpt>
      <trkpt lat="49.97183" lon="5.65505">
        <ele>472.91</ele>
        <time>2026-08-10T13:07:26.876Z</time>
      </trkpt>
      <trkpt lat="49.97199" lon="5.65525">
        <ele>472.01</ele>
        <time>2026-08-10T13:07:32.880Z</time>
      </trkpt>
      <trkpt lat="49.97217" lon="5.65547">
        <ele>471.88</ele>
        <time>2026-08-10T13:07:38.889Z</time>
      </trkpt>
      <trkpt lat="49.97238" lon="5.65568">
        <ele>471.86</ele>
        <time>2026-08-10T13:07:44.865Z</time>
      </trkpt>
      <trkpt lat="49.97255" lon="5.65591">
        <ele>472.27</ele>
        <time>2026-08-10T13:07:50.861Z</time>
      </trkpt>
      <trkpt lat="49.97272" lon="5.65608">
        <ele>474.3</ele>
        <time>2026-08-10T13:07:56.873Z</time>
      </trkpt>
      <trkpt lat="49.97287" lon="5.6563">
        <ele>475.35</ele>
        <time>2026-08-10T13:08:02.876Z</time>
      </trkpt>
      <trkpt lat="49.97301" lon="5.65651">
        <ele>474.6</ele>
        <time>2026-08-10T13:08:08.877Z</time>
      </trkpt>
      <trkpt lat="49.97315" lon="5.65669">
        <ele>476.28</ele>
        <time>2026-08-10T13:08:14.871Z</time>
      </trkpt>
      <trkpt lat="49.97329" lon="5.65688">
        <ele>479.53</ele>
        <time>2026-08-10T13:08:20.876Z</time>
      </trkpt>
      <trkpt lat="49.97342" lon="5.65709">
        <ele>478.22</ele>
        <time>2026-08-10T13:08:26.874Z</time>
      </trkpt>
      <trkpt lat="49.97357" lon="5.65729">
        <ele>477.97</ele>
        <time>2026-08-10T13:08:32.892Z</time>
      </trkpt>
      <trkpt lat="49.97371" lon="5.65748">
        <ele>477.16</ele>
        <time>2026-08-10T13:08:38.876Z</time>
      </trkpt>
      <trkpt lat="49.97387" lon="5.65768">
        <ele>476.15</ele>
        <time>2026-08-10T13:08:44.881Z</time>
      </trkpt>
      <trkpt lat="49.97402" lon="5.6579">
        <ele>476.62</ele>
        <time>2026-08-10T13:08:50.877Z</time>
      </trkpt>
      <trkpt lat="49.97415" lon="5.65808">
        <ele>474.71</ele>
        <time>2026-08-10T13:08:56.869Z</time>
      </trkpt>
      <trkpt lat="49.97431" lon="5.65825">
        <ele>476.59</ele>
        <time>2026-08-10T13:09:02.880Z</time>
      </trkpt>
      <trkpt lat="49.97449" lon="5.65842">
        <ele>479.7</ele>
        <time>2026-08-10T13:09:08.877Z</time>
      </trkpt>
      <trkpt lat="49.97467" lon="5.65861">
        <ele>481.42</ele>
        <time>2026-08-10T13:09:14.877Z</time>
      </trkpt>
      <trkpt lat="49.97482" lon="5.6588">
        <ele>479.86</ele>
        <time>2026-08-10T13:09:20.878Z</time>
      </trkpt>
      <trkpt lat="49.97496" lon="5.65899">
        <ele>474.81</ele>
        <time>2026-08-10T13:09:26.882Z</time>
      </trkpt>
      <trkpt lat="49.97508" lon="5.65924">
        <ele>472.17</ele>
        <time>2026-08-10T13:09:32.876Z</time>
      </trkpt>
      <trkpt lat="49.97517" lon="5.6595">
        <ele>473.25</ele>
        <time>2026-08-10T13:09:38.878Z</time>
      </trkpt>
      <trkpt lat="49.97522" lon="5.65961">
        <ele>477.03</ele>
        <time>2026-08-10T13:09:46.816Z</time>
      </trkpt>
      <trkpt lat="49.97529" lon="5.65971">
        <ele>484.15</ele>
        <time>2026-08-10T13:09:59.818Z</time>
      </trkpt>
      <trkpt lat="49.97533" lon="5.65984">
        <ele>489.86</ele>
        <time>2026-08-10T13:10:09.825Z</time>
      </trkpt>
      <trkpt lat="49.97537" lon="5.65997">
        <ele>491.69</ele>
        <time>2026-08-10T13:10:24.828Z</time>
      </trkpt>
      <trkpt lat="49.97545" lon="5.66006">
        <ele>491.04</ele>
        <time>2026-08-10T13:10:30.813Z</time>
      </trkpt>
      <trkpt lat="49.97554" lon="5.6601">
        <ele>490.02</ele>
        <time>2026-08-10T13:10:35.827Z</time>
      </trkpt>
      <trkpt lat="49.97569" lon="5.66026">
        <ele>488.07</ele>
        <time>2026-08-10T13:10:41.824Z</time>
      </trkpt>
      <trkpt lat="49.97584" lon="5.6604">
        <ele>485.37</ele>
        <time>2026-08-10T13:10:46.828Z</time>
      </trkpt>
      <trkpt lat="49.976" lon="5.66056">
        <ele>480.75</ele>
        <time>2026-08-10T13:10:52.824Z</time>
      </trkpt>
      <trkpt lat="49.9761" lon="5.66072">
        <ele>475.97</ele>
        <time>2026-08-10T13:10:57.828Z</time>
      </trkpt>
      <trkpt lat="49.97623" lon="5.66086">
        <ele>476.17</ele>
        <time>2026-08-10T13:11:02.880Z</time>
      </trkpt>
      <trkpt lat="49.9764" lon="5.66106">
        <ele>477.9</ele>
        <time>2026-08-10T13:11:08.879Z</time>
      </trkpt>
      <trkpt lat="49.97658" lon="5.66127">
        <ele>479.27</ele>
        <time>2026-08-10T13:11:14.879Z</time>
      </trkpt>
      <trkpt lat="49.97671" lon="5.66146">
        <ele>480.65</ele>
        <time>2026-08-10T13:11:20.879Z</time>
      </trkpt>
      <trkpt lat="49.97686" lon="5.66166">
        <ele>479.88</ele>
        <time>2026-08-10T13:11:26.889Z</time>
      </trkpt>
      <trkpt lat="49.97701" lon="5.66184">
        <ele>480.16</ele>
        <time>2026-08-10T13:11:32.876Z</time>
      </trkpt>
      <trkpt lat="49.97713" lon="5.66203">
        <ele>481.33</ele>
        <time>2026-08-10T13:11:38.880Z</time>
      </trkpt>
      <trkpt lat="49.97727" lon="5.66225">
        <ele>481.03</ele>
        <time>2026-08-10T13:11:44.881Z</time>
      </trkpt>
      <trkpt lat="49.97739" lon="5.66247">
        <ele>480.13</ele>
        <time>2026-08-10T13:11:50.874Z</time>
      </trkpt>
      <trkpt lat="49.97753" lon="5.6627">
        <ele>479.27</ele>
        <time>2026-08-10T13:11:56.889Z</time>
      </trkpt>
      <trkpt lat="49.97765" lon="5.66291">
        <ele>479.06</ele>
        <time>2026-08-10T13:12:02.874Z</time>
      </trkpt>
      <trkpt lat="49.97776" lon="5.66315">
        <ele>479.55</ele>
        <time>2026-08-10T13:12:08.879Z</time>
      </trkpt>
      <trkpt lat="49.97788" lon="5.66341">
        <ele>480.7</ele>
        <time>2026-08-10T13:12:14.880Z</time>
      </trkpt>
      <trkpt lat="49.97799" lon="5.66364">
        <ele>482.78</ele>
        <time>2026-08-10T13:12:20.879Z</time>
      </trkpt>
      <trkpt lat="49.9781" lon="5.66388">
        <ele>485.61</ele>
        <time>2026-08-10T13:12:26.893Z</time>
      </trkpt>
      <trkpt lat="49.97817" lon="5.66414">
        <ele>484.24</ele>
        <time>2026-08-10T13:12:32.874Z</time>
      </trkpt>
      <trkpt lat="49.97829" lon="5.66438">
        <ele>482.85</ele>
        <time>2026-08-10T13:12:38.883Z</time>
      </trkpt>
      <trkpt lat="49.97841" lon="5.66466">
        <ele>481.34</ele>
        <time>2026-08-10T13:12:44.878Z</time>
      </trkpt>
      <trkpt lat="49.97852" lon="5.66493">
        <ele>482.16</ele>
        <time>2026-08-10T13:12:50.875Z</time>
      </trkpt>
      <trkpt lat="49.9786" lon="5.66519">
        <ele>485.19</ele>
        <time>2026-08-10T13:12:56.890Z</time>
      </trkpt>
      <trkpt lat="49.97869" lon="5.66546">
        <ele>485.5</ele>
        <time>2026-08-10T13:13:02.882Z</time>
      </trkpt>
      <trkpt lat="49.97878" lon="5.66571">
        <ele>486.33</ele>
        <time>2026-08-10T13:13:08.875Z</time>
      </trkpt>
      <trkpt lat="49.97887" lon="5.66597">
        <ele>485.35</ele>
        <time>2026-08-10T13:13:14.875Z</time>
      </trkpt>
      <trkpt lat="49.97897" lon="5.66625">
        <ele>486.21</ele>
        <time>2026-08-10T13:13:20.878Z</time>
      </trkpt>
      <trkpt lat="49.97907" lon="5.66655">
        <ele>486.94</ele>
        <time>2026-08-10T13:13:26.855Z</time>
      </trkpt>
      <trkpt lat="49.97917" lon="5.66681">
        <ele>487.24</ele>
        <time>2026-08-10T13:13:32.877Z</time>
      </trkpt>
      <trkpt lat="49.97927" lon="5.66708">
        <ele>488.67</ele>
        <time>2026-08-10T13:13:38.879Z</time>
      </trkpt>
      <trkpt lat="49.9794" lon="5.66737">
        <ele>488.11</ele>
        <time>2026-08-10T13:13:44.879Z</time>
      </trkpt>
      <trkpt lat="49.97948" lon="5.66752">
        <ele>491.78</ele>
        <time>2026-08-10T13:13:50.879Z</time>
      </trkpt>
      <trkpt lat="49.97954" lon="5.66764">
        <ele>492.83</ele>
        <time>2026-08-10T13:15:37.820Z</time>
      </trkpt>
      <trkpt lat="49.97967" lon="5.6679">
        <ele>491.26</ele>
        <time>2026-08-10T13:15:43.863Z</time>
      </trkpt>
      <trkpt lat="49.9798" lon="5.66818">
        <ele>485.46</ele>
        <time>2026-08-10T13:15:49.826Z</time>
      </trkpt>
      <trkpt lat="49.97983" lon="5.6684">
        <ele>482.39</ele>
        <time>2026-08-10T13:15:54.827Z</time>
      </trkpt>
      <trkpt lat="49.97991" lon="5.66869">
        <ele>481.6</ele>
        <time>2026-08-10T13:16:00.826Z</time>
      </trkpt>
      <trkpt lat="49.98009" lon="5.66894">
        <ele>477.92</ele>
        <time>2026-08-10T13:16:06.827Z</time>
      </trkpt>
      <trkpt lat="49.98023" lon="5.66934">
        <ele>475.72</ele>
        <time>2026-08-10T13:16:12.827Z</time>
      </trkpt>
      <trkpt lat="49.98035" lon="5.66965">
        <ele>477.7</ele>
        <time>2026-08-10T13:16:17.832Z</time>
      </trkpt>
      <trkpt lat="49.98047" lon="5.67">
        <ele>478.39</ele>
        <time>2026-08-10T13:16:23.825Z</time>
      </trkpt>
      <trkpt lat="49.98062" lon="5.67039">
        <ele>481.6</ele>
        <time>2026-08-10T13:16:29.825Z</time>
      </trkpt>
      <trkpt lat="49.98074" lon="5.67073">
        <ele>482.93</ele>
        <time>2026-08-10T13:16:35.824Z</time>
      </trkpt>
      <trkpt lat="49.98087" lon="5.67112">
        <ele>484.1</ele>
        <time>2026-08-10T13:16:41.823Z</time>
      </trkpt>
      <trkpt lat="49.98096" lon="5.67143">
        <ele>481.1</ele>
        <time>2026-08-10T13:16:46.823Z</time>
      </trkpt>
      <trkpt lat="49.98106" lon="5.67172">
        <ele>479.84</ele>
        <time>2026-08-10T13:16:51.824Z</time>
      </trkpt>
      <trkpt lat="49.98118" lon="5.67204">
        <ele>479.59</ele>
        <time>2026-08-10T13:16:56.888Z</time>
      </trkpt>
      <trkpt lat="49.98132" lon="5.67239">
        <ele>480.21</ele>
        <time>2026-08-10T13:17:02.888Z</time>
      </trkpt>
      <trkpt lat="49.98147" lon="5.67275">
        <ele>480.84</ele>
        <time>2026-08-10T13:17:08.876Z</time>
      </trkpt>
      <trkpt lat="49.98163" lon="5.67311">
        <ele>482.67</ele>
        <time>2026-08-10T13:17:14.875Z</time>
      </trkpt>
      <trkpt lat="49.9818" lon="5.67343">
        <ele>485.42</ele>
        <time>2026-08-10T13:17:20.877Z</time>
      </trkpt>
      <trkpt lat="49.98194" lon="5.67376">
        <ele>485.4</ele>
        <time>2026-08-10T13:17:26.887Z</time>
      </trkpt>
      <trkpt lat="49.98206" lon="5.6741">
        <ele>483.57</ele>
        <time>2026-08-10T13:17:32.880Z</time>
      </trkpt>
      <trkpt lat="49.98219" lon="5.67447">
        <ele>479.45</ele>
        <time>2026-08-10T13:17:38.878Z</time>
      </trkpt>
      <trkpt lat="49.98233" lon="5.67484">
        <ele>478.82</ele>
        <time>2026-08-10T13:17:44.880Z</time>
      </trkpt>
      <trkpt lat="49.98245" lon="5.67521">
        <ele>476.83</ele>
        <time>2026-08-10T13:17:50.878Z</time>
      </trkpt>
      <trkpt lat="49.98258" lon="5.6756">
        <ele>475.36</ele>
        <time>2026-08-10T13:17:56.881Z</time>
      </trkpt>
      <trkpt lat="49.98273" lon="5.67597">
        <ele>474.93</ele>
        <time>2026-08-10T13:18:02.875Z</time>
      </trkpt>
      <trkpt lat="49.98288" lon="5.67637">
        <ele>474.6</ele>
        <time>2026-08-10T13:18:08.880Z</time>
      </trkpt>
      <trkpt lat="49.98304" lon="5.67677">
        <ele>475.06</ele>
        <time>2026-08-10T13:18:14.878Z</time>
      </trkpt>
      <trkpt lat="49.98318" lon="5.67716">
        <ele>475.22</ele>
        <time>2026-08-10T13:18:20.878Z</time>
      </trkpt>
      <trkpt lat="49.98331" lon="5.67755">
        <ele>472.97</ele>
        <time>2026-08-10T13:18:26.879Z</time>
      </trkpt>
      <trkpt lat="49.98347" lon="5.67796">
        <ele>471.69</ele>
        <time>2026-08-10T13:18:32.878Z</time>
      </trkpt>
      <trkpt lat="49.98363" lon="5.67836">
        <ele>471.64</ele>
        <time>2026-08-10T13:18:38.877Z</time>
      </trkpt>
      <trkpt lat="49.98378" lon="5.67874">
        <ele>472.57</ele>
        <time>2026-08-10T13:18:44.876Z</time>
      </trkpt>
      <trkpt lat="49.98392" lon="5.67912">
        <ele>472.56</ele>
        <time>2026-08-10T13:18:50.876Z</time>
      </trkpt>
      <trkpt lat="49.98408" lon="5.67949">
        <ele>472.65</ele>
        <time>2026-08-10T13:18:56.874Z</time>
      </trkpt>
      <trkpt lat="49.98421" lon="5.67986">
        <ele>471.53</ele>
        <time>2026-08-10T13:19:02.866Z</time>
      </trkpt>
      <trkpt lat="49.98435" lon="5.68021">
        <ele>469.76</ele>
        <time>2026-08-10T13:19:08.880Z</time>
      </trkpt>
      <trkpt lat="49.9845" lon="5.68063">
        <ele>469.55</ele>
        <time>2026-08-10T13:19:14.880Z</time>
      </trkpt>
      <trkpt lat="49.98465" lon="5.68102">
        <ele>468.32</ele>
        <time>2026-08-10T13:19:20.879Z</time>
      </trkpt>
      <trkpt lat="49.98478" lon="5.68135">
        <ele>469.06</ele>
        <time>2026-08-10T13:19:26.877Z</time>
      </trkpt>
      <trkpt lat="49.9849" lon="5.68169">
        <ele>472.04</ele>
        <time>2026-08-10T13:19:32.879Z</time>
      </trkpt>
      <trkpt lat="49.98506" lon="5.68202">
        <ele>474.34</ele>
        <time>2026-08-10T13:19:38.880Z</time>
      </trkpt>
      <trkpt lat="49.98516" lon="5.68238">
        <ele>475.23</ele>
        <time>2026-08-10T13:19:44.878Z</time>
      </trkpt>
      <trkpt lat="49.98524" lon="5.68272">
        <ele>474.87</ele>
        <time>2026-08-10T13:19:50.884Z</time>
      </trkpt>
      <trkpt lat="49.98538" lon="5.68306">
        <ele>472.77</ele>
        <time>2026-08-10T13:19:56.892Z</time>
      </trkpt>
      <trkpt lat="49.98553" lon="5.68343">
        <ele>471.51</ele>
        <time>2026-08-10T13:20:02.877Z</time>
      </trkpt>
      <trkpt lat="49.98562" lon="5.68374">
        <ele>470.2</ele>
        <time>2026-08-10T13:20:08.863Z</time>
      </trkpt>
      <trkpt lat="49.98574" lon="5.68413">
        <ele>468.47</ele>
        <time>2026-08-10T13:20:14.877Z</time>
      </trkpt>
      <trkpt lat="49.98595" lon="5.68452">
        <ele>465.03</ele>
        <time>2026-08-10T13:20:20.883Z</time>
      </trkpt>
      <trkpt lat="49.98613" lon="5.68492">
        <ele>461.28</ele>
        <time>2026-08-10T13:20:26.882Z</time>
      </trkpt>
      <trkpt lat="49.98624" lon="5.6853">
        <ele>460.11</ele>
        <time>2026-08-10T13:20:32.882Z</time>
      </trkpt>
      <trkpt lat="49.98638" lon="5.68582">
        <ele>462.33</ele>
        <time>2026-08-10T13:20:38.880Z</time>
      </trkpt>
      <trkpt lat="49.98655" lon="5.68631">
        <ele>465.54</ele>
        <time>2026-08-10T13:20:44.879Z</time>
      </trkpt>
      <trkpt lat="49.98676" lon="5.68675">
        <ele>464.47</ele>
        <time>2026-08-10T13:20:50.880Z</time>
      </trkpt>
      <trkpt lat="49.98698" lon="5.68726">
        <ele>461.64</ele>
        <time>2026-08-10T13:20:56.882Z</time>
      </trkpt>
      <trkpt lat="49.98719" lon="5.68771">
        <ele>463.45</ele>
        <time>2026-08-10T13:21:02.882Z</time>
      </trkpt>
      <trkpt lat="49.98737" lon="5.68809">
        <ele>462.27</ele>
        <time>2026-08-10T13:21:08.882Z</time>
      </trkpt>
      <trkpt lat="49.98751" lon="5.68847">
        <ele>461.63</ele>
        <time>2026-08-10T13:21:14.879Z</time>
      </trkpt>
      <trkpt lat="49.98765" lon="5.68886">
        <ele>460.13</ele>
        <time>2026-08-10T13:21:20.879Z</time>
      </trkpt>
      <trkpt lat="49.98781" lon="5.68921">
        <ele>460.52</ele>
        <time>2026-08-10T13:21:26.883Z</time>
      </trkpt>
      <trkpt lat="49.988" lon="5.6896">
        <ele>462.08</ele>
        <time>2026-08-10T13:21:32.883Z</time>
      </trkpt>
      <trkpt lat="49.98817" lon="5.68993">
        <ele>463.84</ele>
        <time>2026-08-10T13:21:38.881Z</time>
      </trkpt>
      <trkpt lat="49.98834" lon="5.69026">
        <ele>464.07</ele>
        <time>2026-08-10T13:21:44.884Z</time>
      </trkpt>
      <trkpt lat="49.98846" lon="5.69061">
        <ele>460.35</ele>
        <time>2026-08-10T13:21:50.875Z</time>
      </trkpt>
      <trkpt lat="49.98861" lon="5.69097">
        <ele>457.6</ele>
        <time>2026-08-10T13:21:56.881Z</time>
      </trkpt>
      <trkpt lat="49.98883" lon="5.69132">
        <ele>457.68</ele>
        <time>2026-08-10T13:22:02.878Z</time>
      </trkpt>
      <trkpt lat="49.98901" lon="5.69168">
        <ele>457.5</ele>
        <time>2026-08-10T13:22:08.880Z</time>
      </trkpt>
      <trkpt lat="49.98922" lon="5.692">
        <ele>457.54</ele>
        <time>2026-08-10T13:22:14.879Z</time>
      </trkpt>
      <trkpt lat="49.98941" lon="5.69227">
        <ele>459</ele>
        <time>2026-08-10T13:22:20.880Z</time>
      </trkpt>
      <trkpt lat="49.98943" lon="5.69244">
        <ele>461.91</ele>
        <time>2026-08-10T13:22:26.890Z</time>
      </trkpt>
      <trkpt lat="49.98931" lon="5.69256">
        <ele>460.03</ele>
        <time>2026-08-10T13:22:32.877Z</time>
      </trkpt>
      <trkpt lat="49.98914" lon="5.69269">
        <ele>460.72</ele>
        <time>2026-08-10T13:22:38.880Z</time>
      </trkpt>
      <trkpt lat="49.98895" lon="5.69279">
        <ele>461.23</ele>
        <time>2026-08-10T13:22:44.882Z</time>
      </trkpt>
      <trkpt lat="49.98875" lon="5.69287">
        <ele>460.06</ele>
        <time>2026-08-10T13:22:50.880Z</time>
      </trkpt>
      <trkpt lat="49.98848" lon="5.693">
        <ele>459.93</ele>
        <time>2026-08-10T13:22:56.892Z</time>
      </trkpt>
      <trkpt lat="49.98824" lon="5.69316">
        <ele>461.58</ele>
        <time>2026-08-10T13:23:02.882Z</time>
      </trkpt>
      <trkpt lat="49.98803" lon="5.69345">
        <ele>464.75</ele>
        <time>2026-08-10T13:23:08.885Z</time>
      </trkpt>
      <trkpt lat="49.98785" lon="5.69377">
        <ele>467.52</ele>
        <time>2026-08-10T13:23:14.879Z</time>
      </trkpt>
      <trkpt lat="49.98771" lon="5.694">
        <ele>468.35</ele>
        <time>2026-08-10T13:23:20.882Z</time>
      </trkpt>
      <trkpt lat="49.9876" lon="5.69416">
        <ele>468.34</ele>
        <time>2026-08-10T13:23:26.864Z</time>
      </trkpt>
      <trkpt lat="49.98745" lon="5.69432">
        <ele>469.01</ele>
        <time>2026-08-10T13:23:32.885Z</time>
      </trkpt>
      <trkpt lat="49.98722" lon="5.69455">
        <ele>463.44</ele>
        <time>2026-08-10T13:23:38.878Z</time>
      </trkpt>
      <trkpt lat="49.98697" lon="5.69474">
        <ele>461.82</ele>
        <time>2026-08-10T13:23:44.880Z</time>
      </trkpt>
      <trkpt lat="49.98672" lon="5.69495">
        <ele>463.95</ele>
        <time>2026-08-10T13:23:50.880Z</time>
      </trkpt>
      <trkpt lat="49.98648" lon="5.69517">
        <ele>466.22</ele>
        <time>2026-08-10T13:23:56.891Z</time>
      </trkpt>
      <trkpt lat="49.98623" lon="5.69538">
        <ele>466.91</ele>
        <time>2026-08-10T13:24:02.879Z</time>
      </trkpt>
      <trkpt lat="49.98597" lon="5.69561">
        <ele>467.31</ele>
        <time>2026-08-10T13:24:08.882Z</time>
      </trkpt>
      <trkpt lat="49.98572" lon="5.69583">
        <ele>467.2</ele>
        <time>2026-08-10T13:24:14.883Z</time>
      </trkpt>
      <trkpt lat="49.98545" lon="5.69607">
        <ele>467.81</ele>
        <time>2026-08-10T13:24:20.876Z</time>
      </trkpt>
      <trkpt lat="49.98517" lon="5.69631">
        <ele>468.12</ele>
        <time>2026-08-10T13:24:26.875Z</time>
      </trkpt>
      <trkpt lat="49.98489" lon="5.69656">
        <ele>468.75</ele>
        <time>2026-08-10T13:24:32.886Z</time>
      </trkpt>
      <trkpt lat="49.98461" lon="5.69681">
        <ele>470.04</ele>
        <time>2026-08-10T13:24:38.878Z</time>
      </trkpt>
      <trkpt lat="49.98437" lon="5.69701">
        <ele>470.69</ele>
        <time>2026-08-10T13:24:44.884Z</time>
      </trkpt>
      <trkpt lat="49.98416" lon="5.69719">
        <ele>471.78</ele>
        <time>2026-08-10T13:24:50.882Z</time>
      </trkpt>
      <trkpt lat="49.98398" lon="5.69735">
        <ele>472.79</ele>
        <time>2026-08-10T13:24:56.892Z</time>
      </trkpt>
      <trkpt lat="49.9838" lon="5.69751">
        <ele>473.98</ele>
        <time>2026-08-10T13:25:02.884Z</time>
      </trkpt>
      <trkpt lat="49.98361" lon="5.69767">
        <ele>475.05</ele>
        <time>2026-08-10T13:25:08.882Z</time>
      </trkpt>
      <trkpt lat="49.98342" lon="5.69784">
        <ele>476.83</ele>
        <time>2026-08-10T13:25:14.883Z</time>
      </trkpt>
      <trkpt lat="49.98324" lon="5.69801">
        <ele>477.48</ele>
        <time>2026-08-10T13:25:20.884Z</time>
      </trkpt>
      <trkpt lat="49.98309" lon="5.69814">
        <ele>477.49</ele>
        <time>2026-08-10T13:25:26.892Z</time>
      </trkpt>
      <trkpt lat="49.98297" lon="5.6982">
        <ele>478.73</ele>
        <time>2026-08-10T13:25:32.888Z</time>
      </trkpt>
      <trkpt lat="49.98285" lon="5.69813">
        <ele>482.38</ele>
        <time>2026-08-10T13:25:38.880Z</time>
      </trkpt>
      <trkpt lat="49.98291" lon="5.69825">
        <ele>482.52</ele>
        <time>2026-08-10T13:25:47.865Z</time>
      </trkpt>
      <trkpt lat="49.98299" lon="5.69833">
        <ele>482.6</ele>
        <time>2026-08-10T13:25:53.828Z</time>
      </trkpt>
      <trkpt lat="49.98307" lon="5.69841">
        <ele>480.69</ele>
        <time>2026-08-10T13:25:58.828Z</time>
      </trkpt>
      <trkpt lat="49.98318" lon="5.69853">
        <ele>480.48</ele>
        <time>2026-08-10T13:26:04.827Z</time>
      </trkpt>
      <trkpt lat="49.98327" lon="5.69869">
        <ele>479.92</ele>
        <time>2026-08-10T13:26:10.812Z</time>
      </trkpt>
      <trkpt lat="49.98337" lon="5.69877">
        <ele>481.77</ele>
        <time>2026-08-10T13:27:03.818Z</time>
      </trkpt>
      <trkpt lat="49.98352" lon="5.69893">
        <ele>481.31</ele>
        <time>2026-08-10T13:27:08.889Z</time>
      </trkpt>
      <trkpt lat="49.98374" lon="5.69913">
        <ele>480.83</ele>
        <time>2026-08-10T13:27:14.881Z</time>
      </trkpt>
      <trkpt lat="49.98395" lon="5.69934">
        <ele>479.88</ele>
        <time>2026-08-10T13:27:20.885Z</time>
      </trkpt>
      <trkpt lat="49.98416" lon="5.69962">
        <ele>476.8</ele>
        <time>2026-08-10T13:27:26.885Z</time>
      </trkpt>
      <trkpt lat="49.98444" lon="5.69987">
        <ele>477.73</ele>
        <time>2026-08-10T13:27:32.880Z</time>
      </trkpt>
      <trkpt lat="49.9847" lon="5.70011">
        <ele>478.87</ele>
        <time>2026-08-10T13:27:38.872Z</time>
      </trkpt>
      <trkpt lat="49.98497" lon="5.70032">
        <ele>479.51</ele>
        <time>2026-08-10T13:27:44.873Z</time>
      </trkpt>
      <trkpt lat="49.98524" lon="5.70052">
        <ele>478.77</ele>
        <time>2026-08-10T13:27:50.877Z</time>
      </trkpt>
      <trkpt lat="49.98551" lon="5.70072">
        <ele>478.22</ele>
        <time>2026-08-10T13:27:56.890Z</time>
      </trkpt>
      <trkpt lat="49.9858" lon="5.70089">
        <ele>478.09</ele>
        <time>2026-08-10T13:28:02.888Z</time>
      </trkpt>
      <trkpt lat="49.98608" lon="5.70108">
        <ele>479.29</ele>
        <time>2026-08-10T13:28:08.889Z</time>
      </trkpt>
      <trkpt lat="49.98637" lon="5.70125">
        <ele>479.61</ele>
        <time>2026-08-10T13:28:14.886Z</time>
      </trkpt>
      <trkpt lat="49.98665" lon="5.70141">
        <ele>480.29</ele>
        <time>2026-08-10T13:28:20.885Z</time>
      </trkpt>
      <trkpt lat="49.98695" lon="5.70156">
        <ele>479.86</ele>
        <time>2026-08-10T13:28:26.888Z</time>
      </trkpt>
      <trkpt lat="49.98728" lon="5.70165">
        <ele>480.29</ele>
        <time>2026-08-10T13:28:32.894Z</time>
      </trkpt>
      <trkpt lat="49.98762" lon="5.70177">
        <ele>480.31</ele>
        <time>2026-08-10T13:28:38.884Z</time>
      </trkpt>
      <trkpt lat="49.98795" lon="5.70195">
        <ele>478.99</ele>
        <time>2026-08-10T13:28:44.885Z</time>
      </trkpt>
      <trkpt lat="49.98827" lon="5.70217">
        <ele>479.41</ele>
        <time>2026-08-10T13:28:50.884Z</time>
      </trkpt>
      <trkpt lat="49.9886" lon="5.7024">
        <ele>477.67</ele>
        <time>2026-08-10T13:28:56.889Z</time>
      </trkpt>
      <trkpt lat="49.98896" lon="5.70259">
        <ele>475.75</ele>
        <time>2026-08-10T13:29:02.890Z</time>
      </trkpt>
      <trkpt lat="49.98929" lon="5.70281">
        <ele>474.54</ele>
        <time>2026-08-10T13:29:08.886Z</time>
      </trkpt>
      <trkpt lat="49.98959" lon="5.70303">
        <ele>473.99</ele>
        <time>2026-08-10T13:29:14.882Z</time>
      </trkpt>
      <trkpt lat="49.98986" lon="5.70334">
        <ele>475.48</ele>
        <time>2026-08-10T13:29:20.884Z</time>
      </trkpt>
      <trkpt lat="49.9901" lon="5.70367">
        <ele>476.44</ele>
        <time>2026-08-10T13:29:26.877Z</time>
      </trkpt>
      <trkpt lat="49.99032" lon="5.70395">
        <ele>475.26</ele>
        <time>2026-08-10T13:29:32.892Z</time>
      </trkpt>
      <trkpt lat="49.99056" lon="5.70429">
        <ele>475.7</ele>
        <time>2026-08-10T13:29:38.888Z</time>
      </trkpt>
      <trkpt lat="49.99081" lon="5.7046">
        <ele>476.01</ele>
        <time>2026-08-10T13:29:44.889Z</time>
      </trkpt>
      <trkpt lat="49.99107" lon="5.7049">
        <ele>475.98</ele>
        <time>2026-08-10T13:29:50.884Z</time>
      </trkpt>
      <trkpt lat="49.99132" lon="5.70522">
        <ele>474.79</ele>
        <time>2026-08-10T13:29:56.892Z</time>
      </trkpt>
      <trkpt lat="49.99159" lon="5.70557">
        <ele>474.11</ele>
        <time>2026-08-10T13:30:02.890Z</time>
      </trkpt>
      <trkpt lat="49.99188" lon="5.7059">
        <ele>472.08</ele>
        <time>2026-08-10T13:30:08.888Z</time>
      </trkpt>
      <trkpt lat="49.99213" lon="5.70629">
        <ele>471.13</ele>
        <time>2026-08-10T13:30:14.882Z</time>
      </trkpt>
      <trkpt lat="49.99227" lon="5.70684">
        <ele>470.86</ele>
        <time>2026-08-10T13:30:20.883Z</time>
      </trkpt>
      <trkpt lat="49.99221" lon="5.70748">
        <ele>468.54</ele>
        <time>2026-08-10T13:30:26.891Z</time>
      </trkpt>
      <trkpt lat="49.99192" lon="5.708">
        <ele>465.35</ele>
        <time>2026-08-10T13:30:32.891Z</time>
      </trkpt>
      <trkpt lat="49.99156" lon="5.70846">
        <ele>464.75</ele>
        <time>2026-08-10T13:30:38.885Z</time>
      </trkpt>
      <trkpt lat="49.99121" lon="5.70894">
        <ele>465</ele>
        <time>2026-08-10T13:30:44.886Z</time>
      </trkpt>
      <trkpt lat="49.9909" lon="5.70947">
        <ele>465.05</ele>
        <time>2026-08-10T13:30:50.887Z</time>
      </trkpt>
      <trkpt lat="49.99073" lon="5.70978">
        <ele>466.74</ele>
        <time>2026-08-10T13:30:56.881Z</time>
      </trkpt>
      <trkpt lat="49.99085" lon="5.71003">
        <ele>466.89</ele>
        <time>2026-08-10T13:31:02.886Z</time>
      </trkpt>
      <trkpt lat="49.99105" lon="5.71028">
        <ele>468.08</ele>
        <time>2026-08-10T13:31:08.883Z</time>
      </trkpt>
      <trkpt lat="49.99128" lon="5.71053">
        <ele>468.71</ele>
        <time>2026-08-10T13:31:14.881Z</time>
      </trkpt>
      <trkpt lat="49.9915" lon="5.71077">
        <ele>468.64</ele>
        <time>2026-08-10T13:31:20.875Z</time>
      </trkpt>
      <trkpt lat="49.99174" lon="5.71106">
        <ele>469.78</ele>
        <time>2026-08-10T13:31:26.886Z</time>
      </trkpt>
      <trkpt lat="49.99201" lon="5.71125">
        <ele>470.83</ele>
        <time>2026-08-10T13:31:32.892Z</time>
      </trkpt>
      <trkpt lat="49.99229" lon="5.71134">
        <ele>470.21</ele>
        <time>2026-08-10T13:31:38.873Z</time>
      </trkpt>
      <trkpt lat="49.99259" lon="5.71139">
        <ele>469.25</ele>
        <time>2026-08-10T13:31:44.877Z</time>
      </trkpt>
      <trkpt lat="49.9929" lon="5.71144">
        <ele>468.2</ele>
        <time>2026-08-10T13:31:50.873Z</time>
      </trkpt>
      <trkpt lat="49.99321" lon="5.71152">
        <ele>466.49</ele>
        <time>2026-08-10T13:31:56.889Z</time>
      </trkpt>
      <trkpt lat="49.99356" lon="5.71159">
        <ele>465.51</ele>
        <time>2026-08-10T13:32:02.888Z</time>
      </trkpt>
      <trkpt lat="49.9939" lon="5.71166">
        <ele>463.24</ele>
        <time>2026-08-10T13:32:08.870Z</time>
      </trkpt>
      <trkpt lat="49.99425" lon="5.7117">
        <ele>460.47</ele>
        <time>2026-08-10T13:32:14.875Z</time>
      </trkpt>
      <trkpt lat="49.99463" lon="5.71179">
        <ele>458.91</ele>
        <time>2026-08-10T13:32:20.873Z</time>
      </trkpt>
      <trkpt lat="49.99503" lon="5.71187">
        <ele>456.87</ele>
        <time>2026-08-10T13:32:26.892Z</time>
      </trkpt>
      <trkpt lat="49.99543" lon="5.71192">
        <ele>456.34</ele>
        <time>2026-08-10T13:32:32.892Z</time>
      </trkpt>
      <trkpt lat="49.99587" lon="5.7121">
        <ele>454.52</ele>
        <time>2026-08-10T13:32:38.874Z</time>
      </trkpt>
      <trkpt lat="49.99632" lon="5.71232">
        <ele>452.34</ele>
        <time>2026-08-10T13:32:44.875Z</time>
      </trkpt>
      <trkpt lat="49.99677" lon="5.71258">
        <ele>449.79</ele>
        <time>2026-08-10T13:32:50.872Z</time>
      </trkpt>
      <trkpt lat="49.9971" lon="5.71285">
        <ele>450.16</ele>
        <time>2026-08-10T13:32:56.891Z</time>
      </trkpt>
      <trkpt lat="49.99735" lon="5.71305">
        <ele>450.24</ele>
        <time>2026-08-10T13:33:02.892Z</time>
      </trkpt>
      <trkpt lat="49.99763" lon="5.7133">
        <ele>448.83</ele>
        <time>2026-08-10T13:33:08.883Z</time>
      </trkpt>
      <trkpt lat="49.99794" lon="5.71354">
        <ele>447.9</ele>
        <time>2026-08-10T13:33:14.883Z</time>
      </trkpt>
      <trkpt lat="49.99823" lon="5.71378">
        <ele>446.92</ele>
        <time>2026-08-10T13:33:20.883Z</time>
      </trkpt>
      <trkpt lat="49.99848" lon="5.71397">
        <ele>447.84</ele>
        <time>2026-08-10T13:33:26.894Z</time>
      </trkpt>
      <trkpt lat="49.99869" lon="5.71419">
        <ele>448.65</ele>
        <time>2026-08-10T13:33:32.892Z</time>
      </trkpt>
      <trkpt lat="49.9989" lon="5.71437">
        <ele>450.14</ele>
        <time>2026-08-10T13:33:38.876Z</time>
      </trkpt>
      <trkpt lat="49.99889" lon="5.7146">
        <ele>454.01</ele>
        <time>2026-08-10T13:33:44.880Z</time>
      </trkpt>
      <trkpt lat="49.99878" lon="5.71491">
        <ele>455.38</ele>
        <time>2026-08-10T13:33:50.879Z</time>
      </trkpt>
      <trkpt lat="49.99869" lon="5.71528">
        <ele>456.17</ele>
        <time>2026-08-10T13:33:56.895Z</time>
      </trkpt>
      <trkpt lat="49.99872" lon="5.7157">
        <ele>457.51</ele>
        <time>2026-08-10T13:34:02.881Z</time>
      </trkpt>
      <trkpt lat="49.9988" lon="5.71601">
        <ele>456.37</ele>
        <time>2026-08-10T13:34:08.873Z</time>
      </trkpt>
      <trkpt lat="49.99889" lon="5.71627">
        <ele>453.5</ele>
        <time>2026-08-10T13:34:14.884Z</time>
      </trkpt>
      <trkpt lat="49.99895" lon="5.71639">
        <ele>451.86</ele>
        <time>2026-08-10T13:35:05.826Z</time>
      </trkpt>
      <trkpt lat="49.99908" lon="5.71636">
        <ele>454.91</ele>
        <time>2026-08-10T13:35:28.821Z</time>
      </trkpt>
      <trkpt lat="49.99921" lon="5.7163">
        <ele>456.13</ele>
        <time>2026-08-10T13:35:33.822Z</time>
      </trkpt>
      <trkpt lat="49.99932" lon="5.71627">
        <ele>457.3</ele>
        <time>2026-08-10T13:35:38.883Z</time>
      </trkpt>
      <trkpt lat="49.99945" lon="5.71615">
        <ele>458.77</ele>
        <time>2026-08-10T13:35:44.881Z</time>
      </trkpt>
      <trkpt lat="49.99961" lon="5.71605">
        <ele>461.62</ele>
        <time>2026-08-10T13:35:50.881Z</time>
      </trkpt>
      <trkpt lat="49.99976" lon="5.71591">
        <ele>465.75</ele>
        <time>2026-08-10T13:35:56.871Z</time>
      </trkpt>
      <trkpt lat="49.99992" lon="5.71579">
        <ele>468.12</ele>
        <time>2026-08-10T13:36:02.881Z</time>
      </trkpt>
      <trkpt lat="50.00006" lon="5.71566">
        <ele>469.81</ele>
        <time>2026-08-10T13:36:08.870Z</time>
      </trkpt>
      <trkpt lat="50.0002" lon="5.71557">
        <ele>470.04</ele>
        <time>2026-08-10T13:36:14.871Z</time>
      </trkpt>
      <trkpt lat="50.00032" lon="5.7155">
        <ele>471.1</ele>
        <time>2026-08-10T13:36:20.876Z</time>
      </trkpt>
      <trkpt lat="50.00042" lon="5.7154">
        <ele>471.72</ele>
        <time>2026-08-10T13:36:40.820Z</time>
      </trkpt>
      <trkpt lat="50.00056" lon="5.71547">
        <ele>467.78</ele>
        <time>2026-08-10T13:36:45.823Z</time>
      </trkpt>
      <trkpt lat="50.00066" lon="5.71539">
        <ele>464.04</ele>
        <time>2026-08-10T13:37:47.821Z</time>
      </trkpt>
      <trkpt lat="50.00069" lon="5.71519">
        <ele>465.14</ele>
        <time>2026-08-10T13:37:53.821Z</time>
      </trkpt>
      <trkpt lat="50.00079" lon="5.71499">
        <ele>465.56</ele>
        <time>2026-08-10T13:37:59.817Z</time>
      </trkpt>
      <trkpt lat="50.00087" lon="5.7148">
        <ele>464.82</ele>
        <time>2026-08-10T13:38:04.818Z</time>
      </trkpt>
      <trkpt lat="50.00098" lon="5.71459">
        <ele>463.95</ele>
        <time>2026-08-10T13:38:09.818Z</time>
      </trkpt>
      <trkpt lat="50.00107" lon="5.71439">
        <ele>463.62</ele>
        <time>2026-08-10T13:38:14.870Z</time>
      </trkpt>
      <trkpt lat="50.0012" lon="5.71419">
        <ele>464.4</ele>
        <time>2026-08-10T13:38:20.881Z</time>
      </trkpt>
      <trkpt lat="50.00132" lon="5.71399">
        <ele>463.12</ele>
        <time>2026-08-10T13:38:26.861Z</time>
      </trkpt>
      <trkpt lat="50.00146" lon="5.71376">
        <ele>463.55</ele>
        <time>2026-08-10T13:38:32.893Z</time>
      </trkpt>
      <trkpt lat="50.00155" lon="5.71351">
        <ele>464.02</ele>
        <time>2026-08-10T13:38:38.871Z</time>
      </trkpt>
      <trkpt lat="50.0016" lon="5.71322">
        <ele>464.61</ele>
        <time>2026-08-10T13:38:44.889Z</time>
      </trkpt>
      <trkpt lat="50.0016" lon="5.71292">
        <ele>465.64</ele>
        <time>2026-08-10T13:38:50.866Z</time>
      </trkpt>
      <trkpt lat="50.00162" lon="5.7126">
        <ele>469.2</ele>
        <time>2026-08-10T13:38:56.896Z</time>
      </trkpt>
      <trkpt lat="50.00164" lon="5.71232">
        <ele>471.63</ele>
        <time>2026-08-10T13:39:02.874Z</time>
      </trkpt>
      <trkpt lat="50.00174" lon="5.71219">
        <ele>475.37</ele>
        <time>2026-08-10T13:39:08.871Z</time>
      </trkpt>
      <trkpt lat="50.00169" lon="5.71231">
        <ele>473.17</ele>
        <time>2026-08-10T13:39:55.819Z</time>
      </trkpt>
      <trkpt lat="50.0018" lon="5.71234">
        <ele>470.98</ele>
        <time>2026-08-10T13:40:07.812Z</time>
      </trkpt>
      <trkpt lat="50.00193" lon="5.71255">
        <ele>470.02</ele>
        <time>2026-08-10T13:40:12.824Z</time>
      </trkpt>
      <trkpt lat="50.0021" lon="5.71278">
        <ele>468.22</ele>
        <time>2026-08-10T13:40:17.925Z</time>
      </trkpt>
      <trkpt lat="50.00223" lon="5.71283">
        <ele>469.74</ele>
        <time>2026-08-10T13:40:23.866Z</time>
      </trkpt>
      <trkpt lat="50.0023" lon="5.71274">
        <ele>471.46</ele>
        <time>2026-08-10T13:40:29.855Z</time>
      </trkpt>
      <trkpt lat="50.0024" lon="5.71259">
        <ele>517.54</ele>
        <time>2026-08-10T13:40:35.870Z</time>
      </trkpt>
      <trkpt lat="50.00256" lon="5.71234">
        <ele>517.59</ele>
        <time>2026-08-10T13:40:41.840Z</time>
      </trkpt>
      <trkpt lat="50.0027" lon="5.7122">
        <ele>517.59</ele>
        <time>2026-08-10T13:40:46.897Z</time>
      </trkpt>
      <trkpt lat="50.00273" lon="5.71207">
        <ele>516.49</ele>
        <time>2026-08-10T13:40:58.834Z</time>
      </trkpt>
      <trkpt lat="50.00285" lon="5.71176">
        <ele>516.29</ele>
        <time>2026-08-10T13:41:04.825Z</time>
      </trkpt>
      <trkpt lat="50.00301" lon="5.71161">
        <ele>516.29</ele>
        <time>2026-08-10T13:41:09.831Z</time>
      </trkpt>
      <trkpt lat="50.00316" lon="5.7114">
        <ele>516.29</ele>
        <time>2026-08-10T13:41:14.869Z</time>
      </trkpt>
      <trkpt lat="50.00341" lon="5.71128">
        <ele>516.29</ele>
        <time>2026-08-10T13:41:20.885Z</time>
      </trkpt>
      <trkpt lat="50.00366" lon="5.71153">
        <ele>516.29</ele>
        <time>2026-08-10T13:41:26.897Z</time>
      </trkpt>
      <trkpt lat="50.00388" lon="5.71187">
        <ele>516.29</ele>
        <time>2026-08-10T13:41:32.886Z</time>
      </trkpt>
      <trkpt lat="50.0041" lon="5.71216">
        <ele>516.29</ele>
        <time>2026-08-10T13:41:38.876Z</time>
      </trkpt>
      <trkpt lat="50.00424" lon="5.71243">
        <ele>516.29</ele>
        <time>2026-08-10T13:41:44.899Z</time>
      </trkpt>
      <trkpt lat="50.00442" lon="5.71276">
        <ele>516.29</ele>
        <time>2026-08-10T13:41:50.877Z</time>
      </trkpt>
      <trkpt lat="50.00464" lon="5.71311">
        <ele>516.29</ele>
        <time>2026-08-10T13:41:56.881Z</time>
      </trkpt>
      <trkpt lat="50.00486" lon="5.71343">
        <ele>513.96</ele>
        <time>2026-08-10T13:42:02.887Z</time>
      </trkpt>
      <trkpt lat="50.00512" lon="5.71382">
        <ele>513.19</ele>
        <time>2026-08-10T13:42:08.889Z</time>
      </trkpt>
      <trkpt lat="50.00538" lon="5.71418">
        <ele>513.19</ele>
        <time>2026-08-10T13:42:14.872Z</time>
      </trkpt>
      <trkpt lat="50.00566" lon="5.71455">
        <ele>513.19</ele>
        <time>2026-08-10T13:42:20.878Z</time>
      </trkpt>
      <trkpt lat="50.00577" lon="5.71477">
        <ele>513.19</ele>
        <time>2026-08-10T13:42:26.888Z</time>
      </trkpt>
      <trkpt lat="50.00564" lon="5.71494">
        <ele>513.19</ele>
        <time>2026-08-10T13:42:32.894Z</time>
      </trkpt>
      <trkpt lat="50.00549" lon="5.71519">
        <ele>513.19</ele>
        <time>2026-08-10T13:42:38.888Z</time>
      </trkpt>
      <trkpt lat="50.00532" lon="5.71548">
        <ele>513.19</ele>
        <time>2026-08-10T13:42:44.879Z</time>
      </trkpt>
      <trkpt lat="50.00515" lon="5.7158">
        <ele>513.19</ele>
        <time>2026-08-10T13:42:50.867Z</time>
      </trkpt>
      <trkpt lat="50.00495" lon="5.71625">
        <ele>513.18</ele>
        <time>2026-08-10T13:42:56.877Z</time>
      </trkpt>
      <trkpt lat="50.00483" lon="5.71645">
        <ele>509.9</ele>
        <time>2026-08-10T13:43:02.896Z</time>
      </trkpt>
      <trkpt lat="50.00497" lon="5.71662">
        <ele>509.88</ele>
        <time>2026-08-10T13:43:08.881Z</time>
      </trkpt>
      <trkpt lat="50.00517" lon="5.71691">
        <ele>509.88</ele>
        <time>2026-08-10T13:43:14.889Z</time>
      </trkpt>
      <trkpt lat="50.00538" lon="5.71725">
        <ele>509.88</ele>
        <time>2026-08-10T13:43:20.878Z</time>
      </trkpt>
      <trkpt lat="50.00555" lon="5.71752">
        <ele>508.23</ele>
        <time>2026-08-10T13:43:26.512Z</time>
      </trkpt>
      <trkpt lat="50.00566" lon="5.71785">
        <ele>507.68</ele>
        <time>2026-08-10T13:43:31.816Z</time>
      </trkpt>
      <trkpt lat="50.00576" lon="5.71819">
        <ele>507.68</ele>
        <time>2026-08-10T13:43:37.819Z</time>
      </trkpt>
      <trkpt lat="50.00583" lon="5.71854">
        <ele>507.68</ele>
        <time>2026-08-10T13:43:42.824Z</time>
      </trkpt>
      <trkpt lat="50.00597" lon="5.71898">
        <ele>507.68</ele>
        <time>2026-08-10T13:43:48.819Z</time>
      </trkpt>
      <trkpt lat="50.00613" lon="5.71945">
        <ele>505.59</ele>
        <time>2026-08-10T13:43:54.814Z</time>
      </trkpt>
      <trkpt lat="50.00626" lon="5.71981">
        <ele>505.58</ele>
        <time>2026-08-10T13:43:59.816Z</time>
      </trkpt>
      <trkpt lat="50.00638" lon="5.72021">
        <ele>505.58</ele>
        <time>2026-08-10T13:44:05.821Z</time>
      </trkpt>
      <trkpt lat="50.00649" lon="5.72054">
        <ele>505.58</ele>
        <time>2026-08-10T13:44:11.816Z</time>
      </trkpt>
      <trkpt lat="50.00655" lon="5.72071">
        <ele>508.14</ele>
        <time>2026-08-10T13:44:16.820Z</time>
      </trkpt>
      <trkpt lat="50.00648" lon="5.72082">
        <ele>508.08</ele>
        <time>2026-08-10T13:44:34.812Z</time>
      </trkpt>
      <trkpt lat="50.00631" lon="5.72098">
        <ele>508.08</ele>
        <time>2026-08-10T13:44:39.822Z</time>
      </trkpt>
      <trkpt lat="50.00606" lon="5.72116">
        <ele>507.14</ele>
        <time>2026-08-10T13:44:45.828Z</time>
      </trkpt>
      <trkpt lat="50.00586" lon="5.72131">
        <ele>507.08</ele>
        <time>2026-08-10T13:44:50.875Z</time>
      </trkpt>
      <trkpt lat="50.00558" lon="5.72154">
        <ele>507.08</ele>
        <time>2026-08-10T13:44:56.894Z</time>
      </trkpt>
      <trkpt lat="50.0053" lon="5.72139">
        <ele>507.08</ele>
        <time>2026-08-10T13:45:02.899Z</time>
      </trkpt>
      <trkpt lat="50.00507" lon="5.72103">
        <ele>507.08</ele>
        <time>2026-08-10T13:45:08.873Z</time>
      </trkpt>
      <trkpt lat="50.00498" lon="5.72111">
        <ele>503.39</ele>
        <time>2026-08-10T13:45:27.829Z</time>
      </trkpt>
      <trkpt lat="50.00493" lon="5.72099">
        <ele>504.38</ele>
        <time>2026-08-10T13:46:10.459Z</time>
      </trkpt>
      <trkpt lat="50.00484" lon="5.72089">
        <ele>504.38</ele>
        <time>2026-08-10T13:46:16.819Z</time>
      </trkpt>
      <trkpt lat="50.00479" lon="5.72102">
        <ele>504.2</ele>
        <time>2026-08-10T13:46:43.821Z</time>
      </trkpt>
      <trkpt lat="50.00487" lon="5.72117">
        <ele>501.58</ele>
        <time>2026-08-10T13:46:56.558Z</time>
      </trkpt>
      <trkpt lat="50.00496" lon="5.72122">
        <ele>501.58</ele>
        <time>2026-08-10T13:47:01.799Z</time>
      </trkpt>
      <trkpt lat="50.00489" lon="5.72133">
        <ele>503.64</ele>
        <time>2026-08-10T13:47:25.834Z</time>
      </trkpt>
      <trkpt lat="50.0048" lon="5.72131">
        <ele>501.58</ele>
        <time>2026-08-10T13:47:41.083Z</time>
      </trkpt>
      <trkpt lat="50.00505" lon="5.72155">
        <ele>503.55</ele>
        <time>2026-08-10T13:48:55.825Z</time>
      </trkpt>
      <trkpt lat="50.00497" lon="5.72137">
        <ele>501.71</ele>
        <time>2026-08-10T13:49:01.827Z</time>
      </trkpt>
      <trkpt lat="50.00491" lon="5.72126">
        <ele>503.67</ele>
        <time>2026-08-10T13:49:11.828Z</time>
      </trkpt>
      <trkpt lat="50.00498" lon="5.72118">
        <ele>504.38</ele>
        <time>2026-08-10T13:49:43.823Z</time>
      </trkpt>
      <trkpt lat="50.00507" lon="5.72132">
        <ele>504.3</ele>
        <time>2026-08-10T13:49:49.818Z</time>
      </trkpt>
      <trkpt lat="50.00504" lon="5.72118">
        <ele>503.98</ele>
        <time>2026-08-10T13:50:09.810Z</time>
      </trkpt>
      <trkpt lat="50.00496" lon="5.72095">
        <ele>503.98</ele>
        <time>2026-08-10T13:50:14.877Z</time>
      </trkpt>
      <trkpt lat="50.00495" lon="5.72109">
        <ele>504.08</ele>
        <time>2026-08-10T13:51:25.829Z</time>
      </trkpt>
      <trkpt lat="50.005" lon="5.72122">
        <ele>504.08</ele>
        <time>2026-08-10T13:51:59.806Z</time>
      </trkpt>
      <trkpt lat="50.00499" lon="5.72108">
        <ele>503.96</ele>
        <time>2026-08-10T13:53:18.830Z</time>
      </trkpt>
      <trkpt lat="50.00491" lon="5.72092">
        <ele>503.48</ele>
        <time>2026-08-10T13:56:08.447Z</time>
      </trkpt>
      <trkpt lat="50.00482" lon="5.72074">
        <ele>503.48</ele>
        <time>2026-08-10T13:56:13.829Z</time>
      </trkpt>
      <trkpt lat="50.0047" lon="5.72052">
        <ele>503.48</ele>
        <time>2026-08-10T13:56:18.831Z</time>
      </trkpt>
      <trkpt lat="50.00448" lon="5.72027">
        <ele>503.48</ele>
        <time>2026-08-10T13:56:24.829Z</time>
      </trkpt>
      <trkpt lat="50.00427" lon="5.72003">
        <ele>503.48</ele>
        <time>2026-08-10T13:56:29.829Z</time>
      </trkpt>
      <trkpt lat="50.00405" lon="5.71974">
        <ele>503.48</ele>
        <time>2026-08-10T13:56:35.831Z</time>
      </trkpt>
      <trkpt lat="50.00383" lon="5.7195">
        <ele>503.48</ele>
        <time>2026-08-10T13:56:41.830Z</time>
      </trkpt>
      <trkpt lat="50.00363" lon="5.71922">
        <ele>503.48</ele>
        <time>2026-08-10T13:56:46.832Z</time>
      </trkpt>
      <trkpt lat="50.00346" lon="5.71902">
        <ele>503.48</ele>
        <time>2026-08-10T13:56:51.836Z</time>
      </trkpt>
      <trkpt lat="50.0033" lon="5.71883">
        <ele>503.48</ele>
        <time>2026-08-10T13:56:56.892Z</time>
      </trkpt>
      <trkpt lat="50.00315" lon="5.71865">
        <ele>503.48</ele>
        <time>2026-08-10T13:57:02.885Z</time>
      </trkpt>
      <trkpt lat="50.00299" lon="5.71844">
        <ele>503.48</ele>
        <time>2026-08-10T13:57:08.875Z</time>
      </trkpt>
      <trkpt lat="50.00288" lon="5.71826">
        <ele>503.48</ele>
        <time>2026-08-10T13:57:14.881Z</time>
      </trkpt>
      <trkpt lat="50.00277" lon="5.71809">
        <ele>503.48</ele>
        <time>2026-08-10T13:57:20.885Z</time>
      </trkpt>
      <trkpt lat="50.00262" lon="5.71792">
        <ele>503.48</ele>
        <time>2026-08-10T13:57:26.898Z</time>
      </trkpt>
      <trkpt lat="50.00252" lon="5.71781">
        <ele>503.48</ele>
        <time>2026-08-10T13:57:32.887Z</time>
      </trkpt>
      <trkpt lat="50.00243" lon="5.71769">
        <ele>458.46</ele>
        <time>2026-08-10T13:57:38.881Z</time>
      </trkpt>
      <trkpt lat="50.00231" lon="5.71757">
        <ele>458.83</ele>
        <time>2026-08-10T13:57:44.880Z</time>
      </trkpt>
      <trkpt lat="50.00219" lon="5.71753">
        <ele>458.18</ele>
        <time>2026-08-10T13:57:50.881Z</time>
      </trkpt>
      <trkpt lat="50.00209" lon="5.71738">
        <ele>457.33</ele>
        <time>2026-08-10T13:57:56.884Z</time>
      </trkpt>
      <trkpt lat="50.00199" lon="5.71719">
        <ele>459.24</ele>
        <time>2026-08-10T13:58:02.883Z</time>
      </trkpt>
      <trkpt lat="50.00187" lon="5.71704">
        <ele>459.18</ele>
        <time>2026-08-10T13:58:08.881Z</time>
      </trkpt>
      <trkpt lat="50.00175" lon="5.71691">
        <ele>461.15</ele>
        <time>2026-08-10T13:58:14.882Z</time>
      </trkpt>
      <trkpt lat="50.00167" lon="5.71678">
        <ele>461.74</ele>
        <time>2026-08-10T13:58:20.883Z</time>
      </trkpt>
      <trkpt lat="50.00159" lon="5.71667">
        <ele>462.64</ele>
        <time>2026-08-10T13:58:26.881Z</time>
      </trkpt>
      <trkpt lat="50.0015" lon="5.71658">
        <ele>512.09</ele>
        <time>2026-08-10T13:58:34.828Z</time>
      </trkpt>
      <trkpt lat="50.00138" lon="5.71649">
        <ele>512.28</ele>
        <time>2026-08-10T13:58:39.828Z</time>
      </trkpt>
      <trkpt lat="50.00129" lon="5.71637">
        <ele>512.28</ele>
        <time>2026-08-10T13:58:44.868Z</time>
      </trkpt>
      <trkpt lat="50.0012" lon="5.71623">
        <ele>513.98</ele>
        <time>2026-08-10T13:58:50.882Z</time>
      </trkpt>
      <trkpt lat="50.00106" lon="5.71608">
        <ele>513.98</ele>
        <time>2026-08-10T13:58:56.878Z</time>
      </trkpt>
      <trkpt lat="50.00089" lon="5.71584">
        <ele>515.36</ele>
        <time>2026-08-10T13:59:02.882Z</time>
      </trkpt>
      <trkpt lat="50.00083" lon="5.71568">
        <ele>515.38</ele>
        <time>2026-08-10T13:59:08.870Z</time>
      </trkpt>
      <trkpt lat="50.00076" lon="5.71556">
        <ele>515.38</ele>
        <time>2026-08-10T13:59:14.892Z</time>
      </trkpt>
      <trkpt lat="50.00086" lon="5.71564">
        <ele>514.79</ele>
        <time>2026-08-10T14:00:09.838Z</time>
      </trkpt>
      <trkpt lat="50.00097" lon="5.71576">
        <ele>514.88</ele>
        <time>2026-08-10T14:00:47.810Z</time>
      </trkpt>
      <trkpt lat="50.00106" lon="5.71577">
        <ele>514.98</ele>
        <time>2026-08-10T14:01:30.475Z</time>
      </trkpt>
      <trkpt lat="50.00099" lon="5.7159">
        <ele>515.38</ele>
        <time>2026-08-10T14:03:01.828Z</time>
      </trkpt>
      <trkpt lat="50.00104" lon="5.71577">
        <ele>515.38</ele>
        <time>2026-08-10T14:07:11.831Z</time>
      </trkpt>
      <trkpt lat="50.00112" lon="5.71585">
        <ele>515.28</ele>
        <time>2026-08-10T14:14:41.809Z</time>
      </trkpt>
      <trkpt lat="50.00109" lon="5.71571">
        <ele>515.38</ele>
        <time>2026-08-10T14:15:36.844Z</time>
      </trkpt>
      <trkpt lat="50.00111" lon="5.71585">
        <ele>515.38</ele>
        <time>2026-08-10T14:17:55.832Z</time>
      </trkpt>
      <trkpt lat="50.00103" lon="5.71578">
        <ele>514.98</ele>
        <time>2026-08-10T14:18:13.823Z</time>
      </trkpt>
      <trkpt lat="50.00108" lon="5.71567">
        <ele>514.88</ele>
        <time>2026-08-10T14:19:07.869Z</time>
      </trkpt>
      <trkpt lat="50.00098" lon="5.71564">
        <ele>514.88</ele>
        <time>2026-08-10T14:19:35.613Z</time>
      </trkpt>
      <trkpt lat="50.00087" lon="5.71559">
        <ele>514.78</ele>
        <time>2026-08-10T14:19:40.813Z</time>
      </trkpt>
      <trkpt lat="50.00075" lon="5.71559">
        <ele>514.78</ele>
        <time>2026-08-10T14:19:45.813Z</time>
      </trkpt>
      <trkpt lat="50.00072" lon="5.71542">
        <ele>514.88</ele>
        <time>2026-08-10T14:19:50.858Z</time>
      </trkpt>
      <trkpt lat="50.00066" lon="5.71529">
        <ele>514.78</ele>
        <time>2026-08-10T14:20:44.907Z</time>
      </trkpt>
      <trkpt lat="50.00065" lon="5.71516">
        <ele>514.78</ele>
        <time>2026-08-10T14:21:26.896Z</time>
      </trkpt>
      <trkpt lat="50.00055" lon="5.71505">
        <ele>514.86</ele>
        <time>2026-08-10T14:21:46.820Z</time>
      </trkpt>
      <trkpt lat="50.00063" lon="5.71489">
        <ele>514.88</ele>
        <time>2026-08-10T14:21:59.841Z</time>
      </trkpt>
      <trkpt lat="50.00075" lon="5.71462">
        <ele>515.28</ele>
        <time>2026-08-10T14:22:05.821Z</time>
      </trkpt>
      <trkpt lat="50.0008" lon="5.71443">
        <ele>515.28</ele>
        <time>2026-08-10T14:22:11.820Z</time>
      </trkpt>
      <trkpt lat="50.00086" lon="5.71425">
        <ele>515.28</ele>
        <time>2026-08-10T14:22:16.874Z</time>
      </trkpt>
      <trkpt lat="50.00084" lon="5.71409">
        <ele>515.49</ele>
        <time>2026-08-10T14:22:24.819Z</time>
      </trkpt>
      <trkpt lat="50.00072" lon="5.71393">
        <ele>515.64</ele>
        <time>2026-08-10T14:22:30.708Z</time>
      </trkpt>
      <trkpt lat="50.00062" lon="5.71361">
        <ele>515.69</ele>
        <time>2026-08-10T14:22:35.817Z</time>
      </trkpt>
      <trkpt lat="50.0005" lon="5.71328">
        <ele>515.69</ele>
        <time>2026-08-10T14:22:41.837Z</time>
      </trkpt>
      <trkpt lat="50.00035" lon="5.7129">
        <ele>515.69</ele>
        <time>2026-08-10T14:22:47.825Z</time>
      </trkpt>
      <trkpt lat="50.00024" lon="5.71246">
        <ele>515.69</ele>
        <time>2026-08-10T14:22:53.822Z</time>
      </trkpt>
      <trkpt lat="50.00011" lon="5.712">
        <ele>515.69</ele>
        <time>2026-08-10T14:22:59.817Z</time>
      </trkpt>
      <trkpt lat="50" lon="5.71155">
        <ele>515.69</ele>
        <time>2026-08-10T14:23:05.816Z</time>
      </trkpt>
      <trkpt lat="49.99986" lon="5.7111">
        <ele>515.69</ele>
        <time>2026-08-10T14:23:11.819Z</time>
      </trkpt>
      <trkpt lat="49.99974" lon="5.71075">
        <ele>515.69</ele>
        <time>2026-08-10T14:23:16.819Z</time>
      </trkpt>
      <trkpt lat="49.9996" lon="5.71046">
        <ele>515.69</ele>
        <time>2026-08-10T14:23:21.821Z</time>
      </trkpt>
      <trkpt lat="49.99967" lon="5.71022">
        <ele>515.69</ele>
        <time>2026-08-10T14:23:26.863Z</time>
      </trkpt>
      <trkpt lat="49.99958" lon="5.70994">
        <ele>515.69</ele>
        <time>2026-08-10T14:23:32.874Z</time>
      </trkpt>
      <trkpt lat="49.99942" lon="5.70973">
        <ele>515.69</ele>
        <time>2026-08-10T14:23:38.847Z</time>
      </trkpt>
      <trkpt lat="49.99944" lon="5.70942">
        <ele>515.69</ele>
        <time>2026-08-10T14:23:44.852Z</time>
      </trkpt>
      <trkpt lat="49.99959" lon="5.70922">
        <ele>515.69</ele>
        <time>2026-08-10T14:23:50.859Z</time>
      </trkpt>
      <trkpt lat="49.99972" lon="5.70901">
        <ele>515.69</ele>
        <time>2026-08-10T14:23:56.869Z</time>
      </trkpt>
      <trkpt lat="49.9996" lon="5.7088">
        <ele>462.89</ele>
        <time>2026-08-10T14:24:02.868Z</time>
      </trkpt>
      <trkpt lat="49.99943" lon="5.70854">
        <ele>462.9</ele>
        <time>2026-08-10T14:24:08.859Z</time>
      </trkpt>
      <trkpt lat="49.99926" lon="5.70824">
        <ele>462.65</ele>
        <time>2026-08-10T14:24:14.853Z</time>
      </trkpt>
      <trkpt lat="49.99908" lon="5.70797">
        <ele>462.3</ele>
        <time>2026-08-10T14:24:20.859Z</time>
      </trkpt>
      <trkpt lat="49.9989" lon="5.70768">
        <ele>463.57</ele>
        <time>2026-08-10T14:24:26.887Z</time>
      </trkpt>
      <trkpt lat="49.99875" lon="5.7074">
        <ele>464.25</ele>
        <time>2026-08-10T14:24:32.871Z</time>
      </trkpt>
      <trkpt lat="49.99858" lon="5.70712">
        <ele>465.03</ele>
        <time>2026-08-10T14:24:38.849Z</time>
      </trkpt>
      <trkpt lat="49.99841" lon="5.70685">
        <ele>464.58</ele>
        <time>2026-08-10T14:24:44.854Z</time>
      </trkpt>
      <trkpt lat="49.99823" lon="5.70655">
        <ele>512.91</ele>
        <time>2026-08-10T14:24:50.859Z</time>
      </trkpt>
      <trkpt lat="49.99804" lon="5.70629">
        <ele>513.1</ele>
        <time>2026-08-10T14:24:56.896Z</time>
      </trkpt>
      <trkpt lat="49.99788" lon="5.70602">
        <ele>513.1</ele>
        <time>2026-08-10T14:25:02.867Z</time>
      </trkpt>
      <trkpt lat="49.99766" lon="5.7057">
        <ele>513.1</ele>
        <time>2026-08-10T14:25:08.859Z</time>
      </trkpt>
      <trkpt lat="49.99756" lon="5.70547">
        <ele>513.1</ele>
        <time>2026-08-10T14:25:14.868Z</time>
      </trkpt>
      <trkpt lat="49.99737" lon="5.70518">
        <ele>513.1</ele>
        <time>2026-08-10T14:25:20.859Z</time>
      </trkpt>
      <trkpt lat="49.99721" lon="5.70492">
        <ele>513.1</ele>
        <time>2026-08-10T14:25:26.878Z</time>
      </trkpt>
      <trkpt lat="49.99708" lon="5.7047">
        <ele>513.1</ele>
        <time>2026-08-10T14:25:31.905Z</time>
      </trkpt>
      <trkpt lat="49.99692" lon="5.70442">
        <ele>513.1</ele>
        <time>2026-08-10T14:25:37.827Z</time>
      </trkpt>
      <trkpt lat="49.99676" lon="5.70418">
        <ele>513.1</ele>
        <time>2026-08-10T14:25:42.835Z</time>
      </trkpt>
      <trkpt lat="49.99658" lon="5.7039">
        <ele>513.1</ele>
        <time>2026-08-10T14:25:48.825Z</time>
      </trkpt>
      <trkpt lat="49.99645" lon="5.70368">
        <ele>513.1</ele>
        <time>2026-08-10T14:25:53.830Z</time>
      </trkpt>
      <trkpt lat="49.99627" lon="5.70342">
        <ele>513.1</ele>
        <time>2026-08-10T14:25:59.828Z</time>
      </trkpt>
      <trkpt lat="49.9961" lon="5.70316">
        <ele>513.1</ele>
        <time>2026-08-10T14:26:05.828Z</time>
      </trkpt>
      <trkpt lat="49.99593" lon="5.7029">
        <ele>513.1</ele>
        <time>2026-08-10T14:26:11.827Z</time>
      </trkpt>
      <trkpt lat="49.99577" lon="5.70268">
        <ele>466.04</ele>
        <time>2026-08-10T14:26:17.825Z</time>
      </trkpt>
      <trkpt lat="49.99564" lon="5.7025">
        <ele>461.83</ele>
        <time>2026-08-10T14:26:23.831Z</time>
      </trkpt>
      <trkpt lat="49.99551" lon="5.70232">
        <ele>462.71</ele>
        <time>2026-08-10T14:26:29.829Z</time>
      </trkpt>
      <trkpt lat="49.99532" lon="5.70203">
        <ele>460.68</ele>
        <time>2026-08-10T14:26:35.829Z</time>
      </trkpt>
      <trkpt lat="49.99518" lon="5.70177">
        <ele>460.87</ele>
        <time>2026-08-10T14:26:40.834Z</time>
      </trkpt>
      <trkpt lat="49.99504" lon="5.70153">
        <ele>460.01</ele>
        <time>2026-08-10T14:26:46.823Z</time>
      </trkpt>
      <trkpt lat="49.99491" lon="5.70134">
        <ele>460.97</ele>
        <time>2026-08-10T14:26:51.831Z</time>
      </trkpt>
      <trkpt lat="49.99479" lon="5.70114">
        <ele>462.04</ele>
        <time>2026-08-10T14:26:56.886Z</time>
      </trkpt>
      <trkpt lat="49.99463" lon="5.70088">
        <ele>462.49</ele>
        <time>2026-08-10T14:27:02.869Z</time>
      </trkpt>
      <trkpt lat="49.99446" lon="5.70058">
        <ele>463.03</ele>
        <time>2026-08-10T14:27:08.863Z</time>
      </trkpt>
      <trkpt lat="49.99429" lon="5.70032">
        <ele>460.79</ele>
        <time>2026-08-10T14:27:14.860Z</time>
      </trkpt>
      <trkpt lat="49.99413" lon="5.70005">
        <ele>460.03</ele>
        <time>2026-08-10T14:27:20.860Z</time>
      </trkpt>
      <trkpt lat="49.99397" lon="5.69977">
        <ele>460.48</ele>
        <time>2026-08-10T14:27:26.889Z</time>
      </trkpt>
      <trkpt lat="49.99384" lon="5.69954">
        <ele>460.16</ele>
        <time>2026-08-10T14:27:32.881Z</time>
      </trkpt>
      <trkpt lat="49.99368" lon="5.69928">
        <ele>460.86</ele>
        <time>2026-08-10T14:27:38.864Z</time>
      </trkpt>
      <trkpt lat="49.99352" lon="5.69902">
        <ele>461.06</ele>
        <time>2026-08-10T14:27:44.866Z</time>
      </trkpt>
      <trkpt lat="49.99336" lon="5.69873">
        <ele>459.59</ele>
        <time>2026-08-10T14:27:50.862Z</time>
      </trkpt>
      <trkpt lat="49.9932" lon="5.69849">
        <ele>458.8</ele>
        <time>2026-08-10T14:27:56.891Z</time>
      </trkpt>
      <trkpt lat="49.99306" lon="5.69825">
        <ele>457.27</ele>
        <time>2026-08-10T14:28:02.874Z</time>
      </trkpt>
      <trkpt lat="49.99289" lon="5.69795">
        <ele>457.31</ele>
        <time>2026-08-10T14:28:08.863Z</time>
      </trkpt>
      <trkpt lat="49.99274" lon="5.69768">
        <ele>457.7</ele>
        <time>2026-08-10T14:28:14.865Z</time>
      </trkpt>
      <trkpt lat="49.99259" lon="5.69744">
        <ele>456.94</ele>
        <time>2026-08-10T14:28:20.864Z</time>
      </trkpt>
      <trkpt lat="49.99244" lon="5.69721">
        <ele>455.38</ele>
        <time>2026-08-10T14:28:26.871Z</time>
      </trkpt>
      <trkpt lat="49.99231" lon="5.69697">
        <ele>455.13</ele>
        <time>2026-08-10T14:28:32.872Z</time>
      </trkpt>
      <trkpt lat="49.99215" lon="5.69673">
        <ele>455.63</ele>
        <time>2026-08-10T14:28:38.860Z</time>
      </trkpt>
      <trkpt lat="49.99203" lon="5.69651">
        <ele>456.16</ele>
        <time>2026-08-10T14:28:44.870Z</time>
      </trkpt>
      <trkpt lat="49.99189" lon="5.69627">
        <ele>457.88</ele>
        <time>2026-08-10T14:28:50.859Z</time>
      </trkpt>
      <trkpt lat="49.99174" lon="5.69601">
        <ele>458.43</ele>
        <time>2026-08-10T14:28:56.888Z</time>
      </trkpt>
      <trkpt lat="49.99157" lon="5.69573">
        <ele>458.33</ele>
        <time>2026-08-10T14:29:02.871Z</time>
      </trkpt>
      <trkpt lat="49.99141" lon="5.69547">
        <ele>460.18</ele>
        <time>2026-08-10T14:29:08.865Z</time>
      </trkpt>
      <trkpt lat="49.99128" lon="5.69524">
        <ele>460.98</ele>
        <time>2026-08-10T14:29:14.862Z</time>
      </trkpt>
      <trkpt lat="49.99112" lon="5.69498">
        <ele>460.63</ele>
        <time>2026-08-10T14:29:20.864Z</time>
      </trkpt>
      <trkpt lat="49.99095" lon="5.69474">
        <ele>458.52</ele>
        <time>2026-08-10T14:29:26.891Z</time>
      </trkpt>
      <trkpt lat="49.99079" lon="5.69452">
        <ele>454.2</ele>
        <time>2026-08-10T14:29:32.876Z</time>
      </trkpt>
      <trkpt lat="49.99068" lon="5.69433">
        <ele>452.74</ele>
        <time>2026-08-10T14:29:38.862Z</time>
      </trkpt>
      <trkpt lat="49.99055" lon="5.69411">
        <ele>452.39</ele>
        <time>2026-08-10T14:29:44.863Z</time>
      </trkpt>
      <trkpt lat="49.99038" lon="5.69384">
        <ele>452.71</ele>
        <time>2026-08-10T14:29:50.870Z</time>
      </trkpt>
      <trkpt lat="49.99024" lon="5.69359">
        <ele>450.81</ele>
        <time>2026-08-10T14:29:56.889Z</time>
      </trkpt>
      <trkpt lat="49.9901" lon="5.69337">
        <ele>449.59</ele>
        <time>2026-08-10T14:30:02.873Z</time>
      </trkpt>
      <trkpt lat="49.98997" lon="5.69316">
        <ele>448.91</ele>
        <time>2026-08-10T14:30:08.864Z</time>
      </trkpt>
      <trkpt lat="49.98982" lon="5.69291">
        <ele>449.26</ele>
        <time>2026-08-10T14:30:14.864Z</time>
      </trkpt>
      <trkpt lat="49.98968" lon="5.69267">
        <ele>449.77</ele>
        <time>2026-08-10T14:30:20.864Z</time>
      </trkpt>
      <trkpt lat="49.98956" lon="5.6925">
        <ele>454.35</ele>
        <time>2026-08-10T14:30:26.885Z</time>
      </trkpt>
      <trkpt lat="49.98946" lon="5.69253">
        <ele>459.47</ele>
        <time>2026-08-10T14:30:32.865Z</time>
      </trkpt>
      <trkpt lat="49.98936" lon="5.69255">
        <ele>459.75</ele>
        <time>2026-08-10T14:30:39.830Z</time>
      </trkpt>
      <trkpt lat="49.98924" lon="5.69264">
        <ele>462.78</ele>
        <time>2026-08-10T14:30:44.957Z</time>
      </trkpt>
      <trkpt lat="49.98908" lon="5.69277">
        <ele>463.65</ele>
        <time>2026-08-10T14:30:50.866Z</time>
      </trkpt>
      <trkpt lat="49.9889" lon="5.69284">
        <ele>463.52</ele>
        <time>2026-08-10T14:30:56.886Z</time>
      </trkpt>
      <trkpt lat="49.98869" lon="5.6929">
        <ele>461.8</ele>
        <time>2026-08-10T14:31:02.907Z</time>
      </trkpt>
      <trkpt lat="49.98847" lon="5.69302">
        <ele>462.72</ele>
        <time>2026-08-10T14:31:08.863Z</time>
      </trkpt>
      <trkpt lat="49.98828" lon="5.69315">
        <ele>461.6</ele>
        <time>2026-08-10T14:31:14.867Z</time>
      </trkpt>
      <trkpt lat="49.98805" lon="5.69346">
        <ele>462.38</ele>
        <time>2026-08-10T14:31:20.855Z</time>
      </trkpt>
      <trkpt lat="49.98788" lon="5.69375">
        <ele>465.16</ele>
        <time>2026-08-10T14:31:26.886Z</time>
      </trkpt>
      <trkpt lat="49.98773" lon="5.69398">
        <ele>466.9</ele>
        <time>2026-08-10T14:31:32.877Z</time>
      </trkpt>
      <trkpt lat="49.98762" lon="5.69416">
        <ele>467.52</ele>
        <time>2026-08-10T14:31:38.866Z</time>
      </trkpt>
      <trkpt lat="49.98747" lon="5.69429">
        <ele>468.49</ele>
        <time>2026-08-10T14:31:44.862Z</time>
      </trkpt>
      <trkpt lat="49.98722" lon="5.69452">
        <ele>468.77</ele>
        <time>2026-08-10T14:31:50.863Z</time>
      </trkpt>
      <trkpt lat="49.98696" lon="5.69475">
        <ele>469.39</ele>
        <time>2026-08-10T14:31:56.895Z</time>
      </trkpt>
      <trkpt lat="49.98671" lon="5.69496">
        <ele>469.91</ele>
        <time>2026-08-10T14:32:02.894Z</time>
      </trkpt>
      <trkpt lat="49.98648" lon="5.69514">
        <ele>470.58</ele>
        <time>2026-08-10T14:32:08.870Z</time>
      </trkpt>
      <trkpt lat="49.98626" lon="5.69533">
        <ele>471.81</ele>
        <time>2026-08-10T14:32:14.869Z</time>
      </trkpt>
      <trkpt lat="49.98605" lon="5.69553">
        <ele>473.43</ele>
        <time>2026-08-10T14:32:20.873Z</time>
      </trkpt>
      <trkpt lat="49.98584" lon="5.69571">
        <ele>474.26</ele>
        <time>2026-08-10T14:32:26.892Z</time>
      </trkpt>
      <trkpt lat="49.98562" lon="5.69591">
        <ele>474.27</ele>
        <time>2026-08-10T14:32:32.876Z</time>
      </trkpt>
      <trkpt lat="49.98539" lon="5.69612">
        <ele>474.2</ele>
        <time>2026-08-10T14:32:38.877Z</time>
      </trkpt>
      <trkpt lat="49.98515" lon="5.69633">
        <ele>474.37</ele>
        <time>2026-08-10T14:32:44.880Z</time>
      </trkpt>
      <trkpt lat="49.98491" lon="5.69654">
        <ele>474.6</ele>
        <time>2026-08-10T14:32:50.878Z</time>
      </trkpt>
      <trkpt lat="49.98466" lon="5.69676">
        <ele>475.52</ele>
        <time>2026-08-10T14:32:56.876Z</time>
      </trkpt>
      <trkpt lat="49.98444" lon="5.69695">
        <ele>476.13</ele>
        <time>2026-08-10T14:33:02.874Z</time>
      </trkpt>
      <trkpt lat="49.98425" lon="5.69712">
        <ele>477.65</ele>
        <time>2026-08-10T14:33:08.875Z</time>
      </trkpt>
      <trkpt lat="49.98407" lon="5.69729">
        <ele>478.29</ele>
        <time>2026-08-10T14:33:14.879Z</time>
      </trkpt>
      <trkpt lat="49.98389" lon="5.69746">
        <ele>479.31</ele>
        <time>2026-08-10T14:33:20.877Z</time>
      </trkpt>
      <trkpt lat="49.9837" lon="5.69761">
        <ele>480.15</ele>
        <time>2026-08-10T14:33:26.877Z</time>
      </trkpt>
      <trkpt lat="49.98351" lon="5.69778">
        <ele>481.07</ele>
        <time>2026-08-10T14:33:32.876Z</time>
      </trkpt>
      <trkpt lat="49.98333" lon="5.69793">
        <ele>481.6</ele>
        <time>2026-08-10T14:33:38.876Z</time>
      </trkpt>
      <trkpt lat="49.98315" lon="5.69808">
        <ele>482.65</ele>
        <time>2026-08-10T14:33:44.876Z</time>
      </trkpt>
      <trkpt lat="49.98296" lon="5.69817">
        <ele>483.15</ele>
        <time>2026-08-10T14:33:50.876Z</time>
      </trkpt>
      <trkpt lat="49.98276" lon="5.69798">
        <ele>483.68</ele>
        <time>2026-08-10T14:33:56.875Z</time>
      </trkpt>
      <trkpt lat="49.98255" lon="5.69778">
        <ele>484.17</ele>
        <time>2026-08-10T14:34:02.875Z</time>
      </trkpt>
      <trkpt lat="49.98233" lon="5.69755">
        <ele>485.54</ele>
        <time>2026-08-10T14:34:08.875Z</time>
      </trkpt>
      <trkpt lat="49.98212" lon="5.69731">
        <ele>484.94</ele>
        <time>2026-08-10T14:34:14.876Z</time>
      </trkpt>
      <trkpt lat="49.98189" lon="5.69706">
        <ele>484.79</ele>
        <time>2026-08-10T14:34:20.880Z</time>
      </trkpt>
      <trkpt lat="49.98165" lon="5.6968">
        <ele>483.66</ele>
        <time>2026-08-10T14:34:26.878Z</time>
      </trkpt>
      <trkpt lat="49.98139" lon="5.69653">
        <ele>483.17</ele>
        <time>2026-08-10T14:34:32.877Z</time>
      </trkpt>
      <trkpt lat="49.98112" lon="5.69625">
        <ele>483.42</ele>
        <time>2026-08-10T14:34:38.873Z</time>
      </trkpt>
      <trkpt lat="49.98083" lon="5.69595">
        <ele>481.81</ele>
        <time>2026-08-10T14:34:44.880Z</time>
      </trkpt>
      <trkpt lat="49.98056" lon="5.69557">
        <ele>480.73</ele>
        <time>2026-08-10T14:34:50.880Z</time>
      </trkpt>
      <trkpt lat="49.98032" lon="5.69514">
        <ele>480.62</ele>
        <time>2026-08-10T14:34:56.896Z</time>
      </trkpt>
      <trkpt lat="49.98006" lon="5.69472">
        <ele>479.96</ele>
        <time>2026-08-10T14:35:02.875Z</time>
      </trkpt>
      <trkpt lat="49.97981" lon="5.69436">
        <ele>478.86</ele>
        <time>2026-08-10T14:35:08.877Z</time>
      </trkpt>
      <trkpt lat="49.97952" lon="5.69405">
        <ele>478.14</ele>
        <time>2026-08-10T14:35:14.877Z</time>
      </trkpt>
      <trkpt lat="49.97925" lon="5.69379">
        <ele>478.02</ele>
        <time>2026-08-10T14:35:20.876Z</time>
      </trkpt>
      <trkpt lat="49.97898" lon="5.69356">
        <ele>479.17</ele>
        <time>2026-08-10T14:35:26.873Z</time>
      </trkpt>
      <trkpt lat="49.97872" lon="5.69338">
        <ele>480.24</ele>
        <time>2026-08-10T14:35:32.879Z</time>
      </trkpt>
      <trkpt lat="49.97842" lon="5.69325">
        <ele>481.93</ele>
        <time>2026-08-10T14:35:38.878Z</time>
      </trkpt>
      <trkpt lat="49.97817" lon="5.69314">
        <ele>481.67</ele>
        <time>2026-08-10T14:35:44.873Z</time>
      </trkpt>
      <trkpt lat="49.97793" lon="5.69302">
        <ele>481.32</ele>
        <time>2026-08-10T14:35:50.872Z</time>
      </trkpt>
      <trkpt lat="49.9777" lon="5.69291">
        <ele>482.53</ele>
        <time>2026-08-10T14:35:56.878Z</time>
      </trkpt>
      <trkpt lat="49.97747" lon="5.69279">
        <ele>484.61</ele>
        <time>2026-08-10T14:36:02.878Z</time>
      </trkpt>
      <trkpt lat="49.97723" lon="5.69268">
        <ele>487.03</ele>
        <time>2026-08-10T14:36:08.875Z</time>
      </trkpt>
      <trkpt lat="49.97699" lon="5.69256">
        <ele>488.87</ele>
        <time>2026-08-10T14:36:14.879Z</time>
      </trkpt>
      <trkpt lat="49.97675" lon="5.69244">
        <ele>489.48</ele>
        <time>2026-08-10T14:36:20.877Z</time>
      </trkpt>
      <trkpt lat="49.97649" lon="5.69232">
        <ele>490.13</ele>
        <time>2026-08-10T14:36:26.876Z</time>
      </trkpt>
      <trkpt lat="49.97625" lon="5.6922">
        <ele>491.28</ele>
        <time>2026-08-10T14:36:32.881Z</time>
      </trkpt>
      <trkpt lat="49.976" lon="5.69208">
        <ele>491.98</ele>
        <time>2026-08-10T14:36:38.877Z</time>
      </trkpt>
      <trkpt lat="49.97573" lon="5.69191">
        <ele>491.38</ele>
        <time>2026-08-10T14:36:44.878Z</time>
      </trkpt>
      <trkpt lat="49.97543" lon="5.69171">
        <ele>488.93</ele>
        <time>2026-08-10T14:36:50.882Z</time>
      </trkpt>
      <trkpt lat="49.97509" lon="5.69147">
        <ele>486.42</ele>
        <time>2026-08-10T14:36:56.881Z</time>
      </trkpt>
      <trkpt lat="49.97469" lon="5.69116">
        <ele>486.97</ele>
        <time>2026-08-10T14:37:02.881Z</time>
      </trkpt>
      <trkpt lat="49.97429" lon="5.69082">
        <ele>486.09</ele>
        <time>2026-08-10T14:37:08.883Z</time>
      </trkpt>
      <trkpt lat="49.97387" lon="5.69048">
        <ele>484.43</ele>
        <time>2026-08-10T14:37:14.880Z</time>
      </trkpt>
      <trkpt lat="49.97342" lon="5.69014">
        <ele>483.25</ele>
        <time>2026-08-10T14:37:20.878Z</time>
      </trkpt>
      <trkpt lat="49.97298" lon="5.68979">
        <ele>483.14</ele>
        <time>2026-08-10T14:37:26.895Z</time>
      </trkpt>
      <trkpt lat="49.97256" lon="5.68943">
        <ele>482.96</ele>
        <time>2026-08-10T14:37:32.880Z</time>
      </trkpt>
      <trkpt lat="49.9722" lon="5.68898">
        <ele>482.35</ele>
        <time>2026-08-10T14:37:38.881Z</time>
      </trkpt>
      <trkpt lat="49.97191" lon="5.68841">
        <ele>479.85</ele>
        <time>2026-08-10T14:37:44.873Z</time>
      </trkpt>
      <trkpt lat="49.97162" lon="5.68782">
        <ele>478.28</ele>
        <time>2026-08-10T14:37:50.878Z</time>
      </trkpt>
      <trkpt lat="49.97128" lon="5.68725">
        <ele>476.79</ele>
        <time>2026-08-10T14:37:56.898Z</time>
      </trkpt>
      <trkpt lat="49.97085" lon="5.68672">
        <ele>474.24</ele>
        <time>2026-08-10T14:38:02.878Z</time>
      </trkpt>
      <trkpt lat="49.97038" lon="5.68618">
        <ele>470.2</ele>
        <time>2026-08-10T14:38:08.877Z</time>
      </trkpt>
      <trkpt lat="49.96993" lon="5.68552">
        <ele>468.76</ele>
        <time>2026-08-10T14:38:14.877Z</time>
      </trkpt>
      <trkpt lat="49.96962" lon="5.68474">
        <ele>466.75</ele>
        <time>2026-08-10T14:38:20.878Z</time>
      </trkpt>
      <trkpt lat="49.96922" lon="5.68406">
        <ele>463.83</ele>
        <time>2026-08-10T14:38:26.867Z</time>
      </trkpt>
      <trkpt lat="49.96865" lon="5.6836">
        <ele>459.99</ele>
        <time>2026-08-10T14:38:32.875Z</time>
      </trkpt>
      <trkpt lat="49.96808" lon="5.68309">
        <ele>454.21</ele>
        <time>2026-08-10T14:38:38.877Z</time>
      </trkpt>
      <trkpt lat="49.96751" lon="5.68249">
        <ele>447.54</ele>
        <time>2026-08-10T14:38:44.879Z</time>
      </trkpt>
      <trkpt lat="49.96703" lon="5.68178">
        <ele>442.24</ele>
        <time>2026-08-10T14:38:50.879Z</time>
      </trkpt>
      <trkpt lat="49.96671" lon="5.68122">
        <ele>440.46</ele>
        <time>2026-08-10T14:38:56.896Z</time>
      </trkpt>
      <trkpt lat="49.96659" lon="5.68095">
        <ele>439.9</ele>
        <time>2026-08-10T14:39:02.881Z</time>
      </trkpt>
      <trkpt lat="49.96664" lon="5.68111">
        <ele>439.38</ele>
        <time>2026-08-10T14:39:08.878Z</time>
      </trkpt>
      <trkpt lat="49.96674" lon="5.68127">
        <ele>439.65</ele>
        <time>2026-08-10T14:39:14.880Z</time>
      </trkpt>
      <trkpt lat="49.96687" lon="5.68154">
        <ele>440.43</ele>
        <time>2026-08-10T14:39:20.879Z</time>
      </trkpt>
      <trkpt lat="49.96699" lon="5.6818">
        <ele>440.47</ele>
        <time>2026-08-10T14:39:26.896Z</time>
      </trkpt>
      <trkpt lat="49.96687" lon="5.68202">
        <ele>440.03</ele>
        <time>2026-08-10T14:39:32.880Z</time>
      </trkpt>
      <trkpt lat="49.9667" lon="5.68229">
        <ele>438.81</ele>
        <time>2026-08-10T14:39:38.877Z</time>
      </trkpt>
      <trkpt lat="49.96661" lon="5.68261">
        <ele>438.73</ele>
        <time>2026-08-10T14:39:44.955Z</time>
      </trkpt>
      <trkpt lat="49.96657" lon="5.68285">
        <ele>437.97</ele>
        <time>2026-08-10T14:39:50.876Z</time>
      </trkpt>
      <trkpt lat="49.96642" lon="5.68299">
        <ele>435.89</ele>
        <time>2026-08-10T14:39:56.894Z</time>
      </trkpt>
      <trkpt lat="49.9661" lon="5.68316">
        <ele>432.7</ele>
        <time>2026-08-10T14:40:02.879Z</time>
      </trkpt>
      <trkpt lat="49.9658" lon="5.68344">
        <ele>426.13</ele>
        <time>2026-08-10T14:40:08.881Z</time>
      </trkpt>
      <trkpt lat="49.96545" lon="5.68372">
        <ele>423.57</ele>
        <time>2026-08-10T14:40:14.875Z</time>
      </trkpt>
      <trkpt lat="49.96509" lon="5.6841">
        <ele>426.51</ele>
        <time>2026-08-10T14:40:20.876Z</time>
      </trkpt>
      <trkpt lat="49.96479" lon="5.68446">
        <ele>430.86</ele>
        <time>2026-08-10T14:40:26.886Z</time>
      </trkpt>
      <trkpt lat="49.96451" lon="5.68476">
        <ele>432.92</ele>
        <time>2026-08-10T14:40:32.894Z</time>
      </trkpt>
      <trkpt lat="49.96422" lon="5.68512">
        <ele>435.54</ele>
        <time>2026-08-10T14:40:38.878Z</time>
      </trkpt>
      <trkpt lat="49.96395" lon="5.68537">
        <ele>431.48</ele>
        <time>2026-08-10T14:40:44.878Z</time>
      </trkpt>
      <trkpt lat="49.96362" lon="5.68578">
        <ele>432.24</ele>
        <time>2026-08-10T14:40:50.879Z</time>
      </trkpt>
      <trkpt lat="49.96331" lon="5.68611">
        <ele>433.46</ele>
        <time>2026-08-10T14:40:56.874Z</time>
      </trkpt>
      <trkpt lat="49.96297" lon="5.68646">
        <ele>433.66</ele>
        <time>2026-08-10T14:41:02.875Z</time>
      </trkpt>
      <trkpt lat="49.96263" lon="5.68678">
        <ele>430.76</ele>
        <time>2026-08-10T14:41:08.881Z</time>
      </trkpt>
      <trkpt lat="49.96231" lon="5.68695">
        <ele>426.21</ele>
        <time>2026-08-10T14:41:14.881Z</time>
      </trkpt>
      <trkpt lat="49.96193" lon="5.68711">
        <ele>420.45</ele>
        <time>2026-08-10T14:41:20.875Z</time>
      </trkpt>
      <trkpt lat="49.96149" lon="5.68726">
        <ele>415.42</ele>
        <time>2026-08-10T14:41:26.892Z</time>
      </trkpt>
      <trkpt lat="49.96107" lon="5.68743">
        <ele>408.51</ele>
        <time>2026-08-10T14:41:32.877Z</time>
      </trkpt>
      <trkpt lat="49.96064" lon="5.68769">
        <ele>402.59</ele>
        <time>2026-08-10T14:41:38.872Z</time>
      </trkpt>
      <trkpt lat="49.96032" lon="5.68794">
        <ele>399.36</ele>
        <time>2026-08-10T14:41:44.876Z</time>
      </trkpt>
      <trkpt lat="49.95988" lon="5.6883">
        <ele>399.11</ele>
        <time>2026-08-10T14:41:50.874Z</time>
      </trkpt>
      <trkpt lat="49.95937" lon="5.68875">
        <ele>399.78</ele>
        <time>2026-08-10T14:41:56.895Z</time>
      </trkpt>
      <trkpt lat="49.95889" lon="5.68915">
        <ele>397.43</ele>
        <time>2026-08-10T14:42:02.878Z</time>
      </trkpt>
      <trkpt lat="49.95841" lon="5.68952">
        <ele>398.15</ele>
        <time>2026-08-10T14:42:08.879Z</time>
      </trkpt>
      <trkpt lat="49.95788" lon="5.68999">
        <ele>405.34</ele>
        <time>2026-08-10T14:42:14.877Z</time>
      </trkpt>
      <trkpt lat="49.95742" lon="5.69033">
        <ele>408.93</ele>
        <time>2026-08-10T14:42:20.880Z</time>
      </trkpt>
      <trkpt lat="49.95701" lon="5.69067">
        <ele>413.14</ele>
        <time>2026-08-10T14:42:26.894Z</time>
      </trkpt>
      <trkpt lat="49.95662" lon="5.69101">
        <ele>415.28</ele>
        <time>2026-08-10T14:42:32.883Z</time>
      </trkpt>
      <trkpt lat="49.95624" lon="5.69133">
        <ele>415.73</ele>
        <time>2026-08-10T14:42:38.877Z</time>
      </trkpt>
      <trkpt lat="49.95588" lon="5.69164">
        <ele>414.78</ele>
        <time>2026-08-10T14:42:44.875Z</time>
      </trkpt>
      <trkpt lat="49.95554" lon="5.69191">
        <ele>414.74</ele>
        <time>2026-08-10T14:42:50.877Z</time>
      </trkpt>
      <trkpt lat="49.95519" lon="5.69217">
        <ele>413.56</ele>
        <time>2026-08-10T14:42:56.892Z</time>
      </trkpt>
      <trkpt lat="49.95485" lon="5.69248">
        <ele>413.74</ele>
        <time>2026-08-10T14:43:02.887Z</time>
      </trkpt>
      <trkpt lat="49.95445" lon="5.69282">
        <ele>412.72</ele>
        <time>2026-08-10T14:43:08.874Z</time>
      </trkpt>
      <trkpt lat="49.95412" lon="5.69302">
        <ele>412.21</ele>
        <time>2026-08-10T14:43:14.879Z</time>
      </trkpt>
      <trkpt lat="49.95389" lon="5.69326">
        <ele>411.35</ele>
        <time>2026-08-10T14:43:20.880Z</time>
      </trkpt>
      <trkpt lat="49.95369" lon="5.69342">
        <ele>410.39</ele>
        <time>2026-08-10T14:43:26.897Z</time>
      </trkpt>
      <trkpt lat="49.95346" lon="5.69351">
        <ele>410.96</ele>
        <time>2026-08-10T14:43:32.884Z</time>
      </trkpt>
      <trkpt lat="49.95316" lon="5.6936">
        <ele>411.11</ele>
        <time>2026-08-10T14:43:38.874Z</time>
      </trkpt>
      <trkpt lat="49.95282" lon="5.69371">
        <ele>411.3</ele>
        <time>2026-08-10T14:43:44.874Z</time>
      </trkpt>
      <trkpt lat="49.95245" lon="5.69383">
        <ele>410.72</ele>
        <time>2026-08-10T14:43:50.879Z</time>
      </trkpt>
      <trkpt lat="49.95208" lon="5.69391">
        <ele>410.48</ele>
        <time>2026-08-10T14:43:56.894Z</time>
      </trkpt>
      <trkpt lat="49.95173" lon="5.694">
        <ele>410.92</ele>
        <time>2026-08-10T14:44:02.891Z</time>
      </trkpt>
      <trkpt lat="49.95139" lon="5.6941">
        <ele>412.82</ele>
        <time>2026-08-10T14:44:08.875Z</time>
      </trkpt>
      <trkpt lat="49.95105" lon="5.69418">
        <ele>410.26</ele>
        <time>2026-08-10T14:44:14.878Z</time>
      </trkpt>
      <trkpt lat="49.95071" lon="5.69426">
        <ele>407.66</ele>
        <time>2026-08-10T14:44:20.875Z</time>
      </trkpt>
      <trkpt lat="49.95041" lon="5.69444">
        <ele>405.4</ele>
        <time>2026-08-10T14:44:26.897Z</time>
      </trkpt>
      <trkpt lat="49.95008" lon="5.69466">
        <ele>409.46</ele>
        <time>2026-08-10T14:44:32.896Z</time>
      </trkpt>
      <trkpt lat="49.94978" lon="5.69484">
        <ele>413.32</ele>
        <time>2026-08-10T14:44:38.876Z</time>
      </trkpt>
      <trkpt lat="49.94951" lon="5.69499">
        <ele>415</ele>
        <time>2026-08-10T14:44:44.880Z</time>
      </trkpt>
      <trkpt lat="49.94924" lon="5.69508">
        <ele>414.92</ele>
        <time>2026-08-10T14:44:50.875Z</time>
      </trkpt>
      <trkpt lat="49.94903" lon="5.69507">
        <ele>413.92</ele>
        <time>2026-08-10T14:44:56.896Z</time>
      </trkpt>
      <trkpt lat="49.94871" lon="5.69496">
        <ele>413.57</ele>
        <time>2026-08-10T14:45:02.876Z</time>
      </trkpt>
      <trkpt lat="49.9484" lon="5.69476">
        <ele>412.07</ele>
        <time>2026-08-10T14:45:08.880Z</time>
      </trkpt>
      <trkpt lat="49.9481" lon="5.69456">
        <ele>413.29</ele>
        <time>2026-08-10T14:45:14.881Z</time>
      </trkpt>
      <trkpt lat="49.94771" lon="5.69434">
        <ele>412.91</ele>
        <time>2026-08-10T14:45:20.874Z</time>
      </trkpt>
      <trkpt lat="49.94737" lon="5.69411">
        <ele>412.54</ele>
        <time>2026-08-10T14:45:26.881Z</time>
      </trkpt>
      <trkpt lat="49.94699" lon="5.69393">
        <ele>411.23</ele>
        <time>2026-08-10T14:45:32.885Z</time>
      </trkpt>
      <trkpt lat="49.94654" lon="5.69387">
        <ele>407.5</ele>
        <time>2026-08-10T14:45:38.877Z</time>
      </trkpt>
      <trkpt lat="49.94609" lon="5.69393">
        <ele>404.01</ele>
        <time>2026-08-10T14:45:44.875Z</time>
      </trkpt>
      <trkpt lat="49.94573" lon="5.69409">
        <ele>402.23</ele>
        <time>2026-08-10T14:45:50.877Z</time>
      </trkpt>
      <trkpt lat="49.9453" lon="5.69411">
        <ele>403.18</ele>
        <time>2026-08-10T14:45:56.884Z</time>
      </trkpt>
      <trkpt lat="49.94485" lon="5.69416">
        <ele>403.99</ele>
        <time>2026-08-10T14:46:02.884Z</time>
      </trkpt>
      <trkpt lat="49.9444" lon="5.6942">
        <ele>401.09</ele>
        <time>2026-08-10T14:46:08.889Z</time>
      </trkpt>
      <trkpt lat="49.94395" lon="5.69425">
        <ele>397.97</ele>
        <time>2026-08-10T14:46:14.884Z</time>
      </trkpt>
      <trkpt lat="49.94355" lon="5.69435">
        <ele>396.84</ele>
        <time>2026-08-10T14:46:20.886Z</time>
      </trkpt>
      <trkpt lat="49.94319" lon="5.69444">
        <ele>398.98</ele>
        <time>2026-08-10T14:46:26.885Z</time>
      </trkpt>
      <trkpt lat="49.94282" lon="5.69452">
        <ele>400.66</ele>
        <time>2026-08-10T14:46:32.886Z</time>
      </trkpt>
      <trkpt lat="49.94243" lon="5.69465">
        <ele>400.12</ele>
        <time>2026-08-10T14:46:38.883Z</time>
      </trkpt>
      <trkpt lat="49.94206" lon="5.69473">
        <ele>397.82</ele>
        <time>2026-08-10T14:46:44.885Z</time>
      </trkpt>
      <trkpt lat="49.94165" lon="5.69497">
        <ele>393.75</ele>
        <time>2026-08-10T14:46:50.881Z</time>
      </trkpt>
      <trkpt lat="49.94125" lon="5.69521">
        <ele>390.79</ele>
        <time>2026-08-10T14:46:56.884Z</time>
      </trkpt>
      <trkpt lat="49.94081" lon="5.69523">
        <ele>392.3</ele>
        <time>2026-08-10T14:47:02.884Z</time>
      </trkpt>
      <trkpt lat="49.94039" lon="5.6952">
        <ele>393.92</ele>
        <time>2026-08-10T14:47:08.887Z</time>
      </trkpt>
      <trkpt lat="49.93999" lon="5.69527">
        <ele>397.34</ele>
        <time>2026-08-10T14:47:14.889Z</time>
      </trkpt>
      <trkpt lat="49.93962" lon="5.69533">
        <ele>396.87</ele>
        <time>2026-08-10T14:47:20.885Z</time>
      </trkpt>
      <trkpt lat="49.93924" lon="5.69549">
        <ele>395.93</ele>
        <time>2026-08-10T14:47:26.896Z</time>
      </trkpt>
      <trkpt lat="49.9388" lon="5.6957">
        <ele>393.43</ele>
        <time>2026-08-10T14:47:32.884Z</time>
      </trkpt>
      <trkpt lat="49.93832" lon="5.69586">
        <ele>390.33</ele>
        <time>2026-08-10T14:47:38.887Z</time>
      </trkpt>
      <trkpt lat="49.93786" lon="5.69581">
        <ele>387.27</ele>
        <time>2026-08-10T14:47:44.885Z</time>
      </trkpt>
      <trkpt lat="49.93753" lon="5.69551">
        <ele>385.93</ele>
        <time>2026-08-10T14:47:50.885Z</time>
      </trkpt>
      <trkpt lat="49.93721" lon="5.69541">
        <ele>388.62</ele>
        <time>2026-08-10T14:47:56.883Z</time>
      </trkpt>
      <trkpt lat="49.9368" lon="5.69536">
        <ele>389.86</ele>
        <time>2026-08-10T14:48:02.884Z</time>
      </trkpt>
      <trkpt lat="49.93638" lon="5.69531">
        <ele>390.57</ele>
        <time>2026-08-10T14:48:08.884Z</time>
      </trkpt>
      <trkpt lat="49.93601" lon="5.69526">
        <ele>390.68</ele>
        <time>2026-08-10T14:48:14.884Z</time>
      </trkpt>
      <trkpt lat="49.93562" lon="5.69521">
        <ele>391.63</ele>
        <time>2026-08-10T14:48:20.890Z</time>
      </trkpt>
      <trkpt lat="49.93521" lon="5.69526">
        <ele>391.68</ele>
        <time>2026-08-10T14:48:26.889Z</time>
      </trkpt>
      <trkpt lat="49.93483" lon="5.69547">
        <ele>392.3</ele>
        <time>2026-08-10T14:48:32.887Z</time>
      </trkpt>
      <trkpt lat="49.93448" lon="5.69574">
        <ele>393.45</ele>
        <time>2026-08-10T14:48:38.863Z</time>
      </trkpt>
      <trkpt lat="49.93417" lon="5.69602">
        <ele>397.3</ele>
        <time>2026-08-10T14:48:44.888Z</time>
      </trkpt>
      <trkpt lat="49.93387" lon="5.69626">
        <ele>397.67</ele>
        <time>2026-08-10T14:48:50.888Z</time>
      </trkpt>
      <trkpt lat="49.93359" lon="5.69652">
        <ele>395.23</ele>
        <time>2026-08-10T14:48:56.886Z</time>
      </trkpt>
      <trkpt lat="49.93327" lon="5.69681">
        <ele>392.97</ele>
        <time>2026-08-10T14:49:02.886Z</time>
      </trkpt>
      <trkpt lat="49.93293" lon="5.69711">
        <ele>391.07</ele>
        <time>2026-08-10T14:49:08.887Z</time>
      </trkpt>
      <trkpt lat="49.93259" lon="5.69741">
        <ele>391.39</ele>
        <time>2026-08-10T14:49:14.887Z</time>
      </trkpt>
      <trkpt lat="49.9323" lon="5.69769">
        <ele>390.68</ele>
        <time>2026-08-10T14:49:20.888Z</time>
      </trkpt>
      <trkpt lat="49.93199" lon="5.69792">
        <ele>386.72</ele>
        <time>2026-08-10T14:49:26.883Z</time>
      </trkpt>
      <trkpt lat="49.93161" lon="5.69808">
        <ele>383.3</ele>
        <time>2026-08-10T14:49:32.882Z</time>
      </trkpt>
      <trkpt lat="49.93118" lon="5.69817">
        <ele>386.79</ele>
        <time>2026-08-10T14:49:38.886Z</time>
      </trkpt>
      <trkpt lat="49.93079" lon="5.6981">
        <ele>386.8</ele>
        <time>2026-08-10T14:49:44.890Z</time>
      </trkpt>
      <trkpt lat="49.93045" lon="5.6979">
        <ele>386.07</ele>
        <time>2026-08-10T14:49:50.885Z</time>
      </trkpt>
      <trkpt lat="49.93015" lon="5.69763">
        <ele>385.94</ele>
        <time>2026-08-10T14:49:56.894Z</time>
      </trkpt>
      <trkpt lat="49.92986" lon="5.69724">
        <ele>386.32</ele>
        <time>2026-08-10T14:50:02.885Z</time>
      </trkpt>
      <trkpt lat="49.92959" lon="5.69676">
        <ele>388.39</ele>
        <time>2026-08-10T14:50:08.881Z</time>
      </trkpt>
      <trkpt lat="49.92932" lon="5.69629">
        <ele>391.13</ele>
        <time>2026-08-10T14:50:14.886Z</time>
      </trkpt>
      <trkpt lat="49.92907" lon="5.69587">
        <ele>391.31</ele>
        <time>2026-08-10T14:50:20.883Z</time>
      </trkpt>
      <trkpt lat="49.92882" lon="5.69542">
        <ele>391.06</ele>
        <time>2026-08-10T14:50:26.896Z</time>
      </trkpt>
      <trkpt lat="49.92855" lon="5.69494">
        <ele>390.45</ele>
        <time>2026-08-10T14:50:32.884Z</time>
      </trkpt>
      <trkpt lat="49.92821" lon="5.6945">
        <ele>389.77</ele>
        <time>2026-08-10T14:50:38.885Z</time>
      </trkpt>
      <trkpt lat="49.92784" lon="5.69421">
        <ele>389.61</ele>
        <time>2026-08-10T14:50:44.884Z</time>
      </trkpt>
      <trkpt lat="49.92747" lon="5.69394">
        <ele>388.74</ele>
        <time>2026-08-10T14:50:50.885Z</time>
      </trkpt>
      <trkpt lat="49.92709" lon="5.6937">
        <ele>388.04</ele>
        <time>2026-08-10T14:50:56.870Z</time>
      </trkpt>
      <trkpt lat="49.92673" lon="5.69346">
        <ele>386.93</ele>
        <time>2026-08-10T14:51:02.884Z</time>
      </trkpt>
      <trkpt lat="49.9264" lon="5.69321">
        <ele>386.66</ele>
        <time>2026-08-10T14:51:08.887Z</time>
      </trkpt>
      <trkpt lat="49.92603" lon="5.69295">
        <ele>383.01</ele>
        <time>2026-08-10T14:51:14.887Z</time>
      </trkpt>
      <trkpt lat="49.92565" lon="5.69269">
        <ele>384.06</ele>
        <time>2026-08-10T14:51:20.885Z</time>
      </trkpt>
      <trkpt lat="49.92526" lon="5.69253">
        <ele>384.07</ele>
        <time>2026-08-10T14:51:26.908Z</time>
      </trkpt>
      <trkpt lat="49.92484" lon="5.69245">
        <ele>384.69</ele>
        <time>2026-08-10T14:51:32.886Z</time>
      </trkpt>
      <trkpt lat="49.92444" lon="5.69249">
        <ele>382.25</ele>
        <time>2026-08-10T14:51:38.886Z</time>
      </trkpt>
      <trkpt lat="49.924" lon="5.69262">
        <ele>378.01</ele>
        <time>2026-08-10T14:51:44.884Z</time>
      </trkpt>
      <trkpt lat="49.9235" lon="5.69272">
        <ele>376.94</ele>
        <time>2026-08-10T14:51:50.884Z</time>
      </trkpt>
      <trkpt lat="49.92306" lon="5.6928">
        <ele>376.45</ele>
        <time>2026-08-10T14:51:56.982Z</time>
      </trkpt>
      <trkpt lat="49.92262" lon="5.69288">
        <ele>377.79</ele>
        <time>2026-08-10T14:52:02.919Z</time>
      </trkpt>
      <trkpt lat="49.92224" lon="5.69296">
        <ele>374.72</ele>
        <time>2026-08-10T14:52:08.889Z</time>
      </trkpt>
      <trkpt lat="49.92182" lon="5.693">
        <ele>372.06</ele>
        <time>2026-08-10T14:52:14.887Z</time>
      </trkpt>
      <trkpt lat="49.92143" lon="5.69295">
        <ele>374.18</ele>
        <time>2026-08-10T14:52:20.884Z</time>
      </trkpt>
      <trkpt lat="49.92105" lon="5.69287">
        <ele>376.2</ele>
        <time>2026-08-10T14:52:26.896Z</time>
      </trkpt>
      <trkpt lat="49.92064" lon="5.69275">
        <ele>375.51</ele>
        <time>2026-08-10T14:52:32.884Z</time>
      </trkpt>
      <trkpt lat="49.92023" lon="5.69267">
        <ele>376.32</ele>
        <time>2026-08-10T14:52:38.885Z</time>
      </trkpt>
      <trkpt lat="49.91982" lon="5.69258">
        <ele>375.96</ele>
        <time>2026-08-10T14:52:44.888Z</time>
      </trkpt>
      <trkpt lat="49.91941" lon="5.69249">
        <ele>374.79</ele>
        <time>2026-08-10T14:52:50.887Z</time>
      </trkpt>
      <trkpt lat="49.919" lon="5.69239">
        <ele>376.1</ele>
        <time>2026-08-10T14:52:56.900Z</time>
      </trkpt>
      <trkpt lat="49.91856" lon="5.69227">
        <ele>374.72</ele>
        <time>2026-08-10T14:53:02.887Z</time>
      </trkpt>
      <trkpt lat="49.91813" lon="5.69218">
        <ele>373.37</ele>
        <time>2026-08-10T14:53:08.890Z</time>
      </trkpt>
      <trkpt lat="49.9177" lon="5.69207">
        <ele>372.91</ele>
        <time>2026-08-10T14:53:14.888Z</time>
      </trkpt>
      <trkpt lat="49.91731" lon="5.69197">
        <ele>372.23</ele>
        <time>2026-08-10T14:53:20.888Z</time>
      </trkpt>
      <trkpt lat="49.91697" lon="5.69188">
        <ele>372.02</ele>
        <time>2026-08-10T14:53:26.870Z</time>
      </trkpt>
      <trkpt lat="49.91664" lon="5.69169">
        <ele>373.93</ele>
        <time>2026-08-10T14:53:32.887Z</time>
      </trkpt>
      <trkpt lat="49.9163" lon="5.6914">
        <ele>374.18</ele>
        <time>2026-08-10T14:53:38.885Z</time>
      </trkpt>
      <trkpt lat="49.91595" lon="5.69114">
        <ele>373.59</ele>
        <time>2026-08-10T14:53:44.888Z</time>
      </trkpt>
      <trkpt lat="49.91563" lon="5.69078">
        <ele>373.35</ele>
        <time>2026-08-10T14:53:50.892Z</time>
      </trkpt>
      <trkpt lat="49.91535" lon="5.69042">
        <ele>372.41</ele>
        <time>2026-08-10T14:53:56.897Z</time>
      </trkpt>
      <trkpt lat="49.91505" lon="5.69007">
        <ele>371.23</ele>
        <time>2026-08-10T14:54:02.883Z</time>
      </trkpt>
      <trkpt lat="49.91477" lon="5.6897">
        <ele>371.84</ele>
        <time>2026-08-10T14:54:08.886Z</time>
      </trkpt>
      <trkpt lat="49.91448" lon="5.68933">
        <ele>371.32</ele>
        <time>2026-08-10T14:54:14.882Z</time>
      </trkpt>
      <trkpt lat="49.91416" lon="5.68909">
        <ele>372.54</ele>
        <time>2026-08-10T14:54:20.887Z</time>
      </trkpt>
      <trkpt lat="49.9138" lon="5.68895">
        <ele>369.91</ele>
        <time>2026-08-10T14:54:26.892Z</time>
      </trkpt>
      <trkpt lat="49.9134" lon="5.68897">
        <ele>367.5</ele>
        <time>2026-08-10T14:54:32.889Z</time>
      </trkpt>
      <trkpt lat="49.91298" lon="5.68908">
        <ele>365.21</ele>
        <time>2026-08-10T14:54:38.882Z</time>
      </trkpt>
      <trkpt lat="49.91258" lon="5.6892">
        <ele>362.93</ele>
        <time>2026-08-10T14:54:44.885Z</time>
      </trkpt>
      <trkpt lat="49.91215" lon="5.68934">
        <ele>362.3</ele>
        <time>2026-08-10T14:54:50.887Z</time>
      </trkpt>
      <trkpt lat="49.91173" lon="5.68949">
        <ele>363.8</ele>
        <time>2026-08-10T14:54:56.896Z</time>
      </trkpt>
      <trkpt lat="49.91134" lon="5.68951">
        <ele>363.87</ele>
        <time>2026-08-10T14:55:02.882Z</time>
      </trkpt>
      <trkpt lat="49.911" lon="5.68924">
        <ele>363.45</ele>
        <time>2026-08-10T14:55:08.889Z</time>
      </trkpt>
      <trkpt lat="49.91078" lon="5.68873">
        <ele>366.29</ele>
        <time>2026-08-10T14:55:14.887Z</time>
      </trkpt>
      <trkpt lat="49.9106" lon="5.68823">
        <ele>368.44</ele>
        <time>2026-08-10T14:55:20.884Z</time>
      </trkpt>
      <trkpt lat="49.91039" lon="5.68778">
        <ele>370.1</ele>
        <time>2026-08-10T14:55:26.897Z</time>
      </trkpt>
      <trkpt lat="49.91014" lon="5.68736">
        <ele>371.78</ele>
        <time>2026-08-10T14:55:32.886Z</time>
      </trkpt>
      <trkpt lat="49.90983" lon="5.68695">
        <ele>374.73</ele>
        <time>2026-08-10T14:55:38.886Z</time>
      </trkpt>
      <trkpt lat="49.90954" lon="5.68655">
        <ele>378.39</ele>
        <time>2026-08-10T14:55:44.888Z</time>
      </trkpt>
      <trkpt lat="49.9092" lon="5.68605">
        <ele>379.41</ele>
        <time>2026-08-10T14:55:50.887Z</time>
      </trkpt>
      <trkpt lat="49.90903" lon="5.68562">
        <ele>380.33</ele>
        <time>2026-08-10T14:55:56.920Z</time>
      </trkpt>
      <trkpt lat="49.9088" lon="5.68516">
        <ele>382.02</ele>
        <time>2026-08-10T14:56:02.893Z</time>
      </trkpt>
      <trkpt lat="49.90863" lon="5.68483">
        <ele>378.42</ele>
        <time>2026-08-10T14:56:08.909Z</time>
      </trkpt>
      <trkpt lat="49.90829" lon="5.68431">
        <ele>373.25</ele>
        <time>2026-08-10T14:56:14.894Z</time>
      </trkpt>
      <trkpt lat="49.90789" lon="5.68411">
        <ele>367.13</ele>
        <time>2026-08-10T14:56:20.874Z</time>
      </trkpt>
      <trkpt lat="49.90743" lon="5.68394">
        <ele>361.05</ele>
        <time>2026-08-10T14:56:26.899Z</time>
      </trkpt>
      <trkpt lat="49.90701" lon="5.68374">
        <ele>359.61</ele>
        <time>2026-08-10T14:56:32.890Z</time>
      </trkpt>
      <trkpt lat="49.90662" lon="5.68356">
        <ele>359.38</ele>
        <time>2026-08-10T14:56:38.886Z</time>
      </trkpt>
      <trkpt lat="49.90622" lon="5.68337">
        <ele>360.78</ele>
        <time>2026-08-10T14:56:44.885Z</time>
      </trkpt>
      <trkpt lat="49.90585" lon="5.68327">
        <ele>363.83</ele>
        <time>2026-08-10T14:56:50.887Z</time>
      </trkpt>
      <trkpt lat="49.90555" lon="5.68357">
        <ele>362.35</ele>
        <time>2026-08-10T14:56:56.889Z</time>
      </trkpt>
      <trkpt lat="49.90527" lon="5.6839">
        <ele>359.86</ele>
        <time>2026-08-10T14:57:02.895Z</time>
      </trkpt>
      <trkpt lat="49.90508" lon="5.68425">
        <ele>360.74</ele>
        <time>2026-08-10T14:57:08.883Z</time>
      </trkpt>
      <trkpt lat="49.90495" lon="5.68451">
        <ele>362.78</ele>
        <time>2026-08-10T14:57:14.884Z</time>
      </trkpt>
      <trkpt lat="49.90482" lon="5.68477">
        <ele>365.51</ele>
        <time>2026-08-10T14:57:20.891Z</time>
      </trkpt>
      <trkpt lat="49.90471" lon="5.68504">
        <ele>367</ele>
        <time>2026-08-10T14:57:26.895Z</time>
      </trkpt>
      <trkpt lat="49.9047" lon="5.68535">
        <ele>368.02</ele>
        <time>2026-08-10T14:57:32.884Z</time>
      </trkpt>
      <trkpt lat="49.90476" lon="5.6856">
        <ele>368.4</ele>
        <time>2026-08-10T14:57:38.887Z</time>
      </trkpt>
      <trkpt lat="49.90483" lon="5.68581">
        <ele>370.29</ele>
        <time>2026-08-10T14:57:44.885Z</time>
      </trkpt>
      <trkpt lat="49.90481" lon="5.68602">
        <ele>371.05</ele>
        <time>2026-08-10T14:57:50.887Z</time>
      </trkpt>
      <trkpt lat="49.90451" lon="5.68614">
        <ele>369.21</ele>
        <time>2026-08-10T14:57:56.887Z</time>
      </trkpt>
      <trkpt lat="49.90406" lon="5.68614">
        <ele>365.17</ele>
        <time>2026-08-10T14:58:02.888Z</time>
      </trkpt>
      <trkpt lat="49.90353" lon="5.68584">
        <ele>358.56</ele>
        <time>2026-08-10T14:58:08.885Z</time>
      </trkpt>
      <trkpt lat="49.90319" lon="5.68576">
        <ele>354.58</ele>
        <time>2026-08-10T14:58:14.888Z</time>
      </trkpt>
      <trkpt lat="49.90295" lon="5.68599">
        <ele>354.96</ele>
        <time>2026-08-10T14:58:20.887Z</time>
      </trkpt>
      <trkpt lat="49.90267" lon="5.68626">
        <ele>354.97</ele>
        <time>2026-08-10T14:58:26.890Z</time>
      </trkpt>
      <trkpt lat="49.90234" lon="5.68655">
        <ele>356.4</ele>
        <time>2026-08-10T14:58:32.887Z</time>
      </trkpt>
      <trkpt lat="49.90198" lon="5.68678">
        <ele>355.26</ele>
        <time>2026-08-10T14:58:38.887Z</time>
      </trkpt>
      <trkpt lat="49.90163" lon="5.68701">
        <ele>354.23</ele>
        <time>2026-08-10T14:58:44.890Z</time>
      </trkpt>
      <trkpt lat="49.9013" lon="5.68714">
        <ele>353.06</ele>
        <time>2026-08-10T14:58:50.890Z</time>
      </trkpt>
      <trkpt lat="49.90096" lon="5.68726">
        <ele>354</ele>
        <time>2026-08-10T14:58:56.890Z</time>
      </trkpt>
      <trkpt lat="49.90059" lon="5.68738">
        <ele>356.01</ele>
        <time>2026-08-10T14:59:02.885Z</time>
      </trkpt>
      <trkpt lat="49.90021" lon="5.68747">
        <ele>355.68</ele>
        <time>2026-08-10T14:59:08.886Z</time>
      </trkpt>
      <trkpt lat="49.89983" lon="5.68747">
        <ele>356.25</ele>
        <time>2026-08-10T14:59:14.888Z</time>
      </trkpt>
      <trkpt lat="49.89944" lon="5.68748">
        <ele>356.49</ele>
        <time>2026-08-10T14:59:20.886Z</time>
      </trkpt>
      <trkpt lat="49.89906" lon="5.68749">
        <ele>356.13</ele>
        <time>2026-08-10T14:59:26.886Z</time>
      </trkpt>
      <trkpt lat="49.89869" lon="5.68747">
        <ele>355.23</ele>
        <time>2026-08-10T14:59:32.888Z</time>
      </trkpt>
      <trkpt lat="49.89832" lon="5.68744">
        <ele>355.24</ele>
        <time>2026-08-10T14:59:38.886Z</time>
      </trkpt>
      <trkpt lat="49.89794" lon="5.68742">
        <ele>354.93</ele>
        <time>2026-08-10T14:59:44.883Z</time>
      </trkpt>
      <trkpt lat="49.89755" lon="5.6874">
        <ele>355.72</ele>
        <time>2026-08-10T14:59:50.887Z</time>
      </trkpt>
      <trkpt lat="49.89718" lon="5.68733">
        <ele>355.96</ele>
        <time>2026-08-10T14:59:56.901Z</time>
      </trkpt>
      <trkpt lat="49.89684" lon="5.68726">
        <ele>355.4</ele>
        <time>2026-08-10T15:00:02.887Z</time>
      </trkpt>
      <trkpt lat="49.89655" lon="5.68708">
        <ele>357.85</ele>
        <time>2026-08-10T15:00:08.886Z</time>
      </trkpt>
      <trkpt lat="49.89628" lon="5.68681">
        <ele>360.65</ele>
        <time>2026-08-10T15:00:14.885Z</time>
      </trkpt>
      <trkpt lat="49.89605" lon="5.68641">
        <ele>359.96</ele>
        <time>2026-08-10T15:00:20.889Z</time>
      </trkpt>
      <trkpt lat="49.89588" lon="5.6859">
        <ele>358.76</ele>
        <time>2026-08-10T15:00:26.885Z</time>
      </trkpt>
      <trkpt lat="49.89575" lon="5.68542">
        <ele>356.89</ele>
        <time>2026-08-10T15:00:32.886Z</time>
      </trkpt>
      <trkpt lat="49.89561" lon="5.68492">
        <ele>356.54</ele>
        <time>2026-08-10T15:00:38.883Z</time>
      </trkpt>
      <trkpt lat="49.89547" lon="5.68443">
        <ele>356.46</ele>
        <time>2026-08-10T15:00:44.885Z</time>
      </trkpt>
      <trkpt lat="49.89533" lon="5.68392">
        <ele>357.51</ele>
        <time>2026-08-10T15:00:50.887Z</time>
      </trkpt>
      <trkpt lat="49.89521" lon="5.68344">
        <ele>358.48</ele>
        <time>2026-08-10T15:00:56.882Z</time>
      </trkpt>
      <trkpt lat="49.89506" lon="5.68291">
        <ele>358.52</ele>
        <time>2026-08-10T15:01:02.873Z</time>
      </trkpt>
      <trkpt lat="49.89492" lon="5.68239">
        <ele>357.84</ele>
        <time>2026-08-10T15:01:08.888Z</time>
      </trkpt>
      <trkpt lat="49.89476" lon="5.68186">
        <ele>358.11</ele>
        <time>2026-08-10T15:01:14.887Z</time>
      </trkpt>
      <trkpt lat="49.89461" lon="5.68133">
        <ele>357.98</ele>
        <time>2026-08-10T15:01:20.880Z</time>
      </trkpt>
      <trkpt lat="49.89445" lon="5.68077">
        <ele>357.81</ele>
        <time>2026-08-10T15:01:26.887Z</time>
      </trkpt>
      <trkpt lat="49.89429" lon="5.68023">
        <ele>356.73</ele>
        <time>2026-08-10T15:01:32.886Z</time>
      </trkpt>
      <trkpt lat="49.89415" lon="5.6797">
        <ele>354.81</ele>
        <time>2026-08-10T15:01:38.881Z</time>
      </trkpt>
      <trkpt lat="49.89402" lon="5.67919">
        <ele>354.33</ele>
        <time>2026-08-10T15:01:44.883Z</time>
      </trkpt>
      <trkpt lat="49.89387" lon="5.67865">
        <ele>351.92</ele>
        <time>2026-08-10T15:01:50.883Z</time>
      </trkpt>
      <trkpt lat="49.89366" lon="5.67814">
        <ele>353.36</ele>
        <time>2026-08-10T15:01:56.888Z</time>
      </trkpt>
      <trkpt lat="49.8934" lon="5.67767">
        <ele>356.61</ele>
        <time>2026-08-10T15:02:02.886Z</time>
      </trkpt>
      <trkpt lat="49.89315" lon="5.67722">
        <ele>356.79</ele>
        <time>2026-08-10T15:02:08.880Z</time>
      </trkpt>
      <trkpt lat="49.89291" lon="5.67675">
        <ele>355.68</ele>
        <time>2026-08-10T15:02:14.882Z</time>
      </trkpt>
      <trkpt lat="49.89265" lon="5.67631">
        <ele>354.77</ele>
        <time>2026-08-10T15:02:20.880Z</time>
      </trkpt>
      <trkpt lat="49.89234" lon="5.67594">
        <ele>355.75</ele>
        <time>2026-08-10T15:02:26.902Z</time>
      </trkpt>
      <trkpt lat="49.89197" lon="5.6757">
        <ele>353.69</ele>
        <time>2026-08-10T15:02:32.884Z</time>
      </trkpt>
      <trkpt lat="49.89159" lon="5.67562">
        <ele>349.71</ele>
        <time>2026-08-10T15:02:38.873Z</time>
      </trkpt>
      <trkpt lat="49.89121" lon="5.67568">
        <ele>345.21</ele>
        <time>2026-08-10T15:02:44.881Z</time>
      </trkpt>
      <trkpt lat="49.89082" lon="5.67581">
        <ele>340.46</ele>
        <time>2026-08-10T15:02:50.878Z</time>
      </trkpt>
      <trkpt lat="49.89042" lon="5.67593">
        <ele>341.78</ele>
        <time>2026-08-10T15:02:56.898Z</time>
      </trkpt>
      <trkpt lat="49.89004" lon="5.67585">
        <ele>343.6</ele>
        <time>2026-08-10T15:03:02.889Z</time>
      </trkpt>
      <trkpt lat="49.88972" lon="5.67562">
        <ele>347.61</ele>
        <time>2026-08-10T15:03:08.878Z</time>
      </trkpt>
      <trkpt lat="49.8894" lon="5.67533">
        <ele>350.11</ele>
        <time>2026-08-10T15:03:14.882Z</time>
      </trkpt>
      <trkpt lat="49.88909" lon="5.67503">
        <ele>349.74</ele>
        <time>2026-08-10T15:03:20.881Z</time>
      </trkpt>
      <trkpt lat="49.88867" lon="5.67491">
        <ele>348.19</ele>
        <time>2026-08-10T15:03:26.870Z</time>
      </trkpt>
      <trkpt lat="49.88825" lon="5.67497">
        <ele>343.45</ele>
        <time>2026-08-10T15:03:32.884Z</time>
      </trkpt>
      <trkpt lat="49.88786" lon="5.67512">
        <ele>342.82</ele>
        <time>2026-08-10T15:03:38.878Z</time>
      </trkpt>
      <trkpt lat="49.88745" lon="5.6753">
        <ele>344.85</ele>
        <time>2026-08-10T15:03:44.872Z</time>
      </trkpt>
      <trkpt lat="49.88706" lon="5.67546">
        <ele>345.49</ele>
        <time>2026-08-10T15:03:50.884Z</time>
      </trkpt>
      <trkpt lat="49.88668" lon="5.67561">
        <ele>343.9</ele>
        <time>2026-08-10T15:03:56.894Z</time>
      </trkpt>
      <trkpt lat="49.8863" lon="5.67575">
        <ele>344.11</ele>
        <time>2026-08-10T15:04:02.884Z</time>
      </trkpt>
      <trkpt lat="49.88592" lon="5.67591">
        <ele>341.97</ele>
        <time>2026-08-10T15:04:08.879Z</time>
      </trkpt>
      <trkpt lat="49.88554" lon="5.67605">
        <ele>340.33</ele>
        <time>2026-08-10T15:04:14.883Z</time>
      </trkpt>
      <trkpt lat="49.88517" lon="5.67611">
        <ele>340.29</ele>
        <time>2026-08-10T15:04:20.879Z</time>
      </trkpt>
      <trkpt lat="49.88484" lon="5.67585">
        <ele>340.06</ele>
        <time>2026-08-10T15:04:26.900Z</time>
      </trkpt>
      <trkpt lat="49.88459" lon="5.67533">
        <ele>342.82</ele>
        <time>2026-08-10T15:04:32.884Z</time>
      </trkpt>
      <trkpt lat="49.88439" lon="5.67475">
        <ele>344.53</ele>
        <time>2026-08-10T15:04:38.881Z</time>
      </trkpt>
      <trkpt lat="49.88422" lon="5.67421">
        <ele>343.53</ele>
        <time>2026-08-10T15:04:44.880Z</time>
      </trkpt>
      <trkpt lat="49.88399" lon="5.67371">
        <ele>343.54</ele>
        <time>2026-08-10T15:04:50.879Z</time>
      </trkpt>
      <trkpt lat="49.8837" lon="5.67331">
        <ele>343.86</ele>
        <time>2026-08-10T15:04:56.894Z</time>
      </trkpt>
      <trkpt lat="49.88332" lon="5.67303">
        <ele>343.94</ele>
        <time>2026-08-10T15:05:02.887Z</time>
      </trkpt>
      <trkpt lat="49.88293" lon="5.67287">
        <ele>343.44</ele>
        <time>2026-08-10T15:05:08.880Z</time>
      </trkpt>
      <trkpt lat="49.88255" lon="5.67286">
        <ele>340.92</ele>
        <time>2026-08-10T15:05:14.880Z</time>
      </trkpt>
      <trkpt lat="49.88215" lon="5.67308">
        <ele>340.22</ele>
        <time>2026-08-10T15:05:20.879Z</time>
      </trkpt>
      <trkpt lat="49.88178" lon="5.6733">
        <ele>337.43</ele>
        <time>2026-08-10T15:05:26.897Z</time>
      </trkpt>
      <trkpt lat="49.88141" lon="5.67356">
        <ele>337.09</ele>
        <time>2026-08-10T15:05:32.885Z</time>
      </trkpt>
      <trkpt lat="49.88106" lon="5.67379">
        <ele>335.42</ele>
        <time>2026-08-10T15:05:38.883Z</time>
      </trkpt>
      <trkpt lat="49.8807" lon="5.67403">
        <ele>336.7</ele>
        <time>2026-08-10T15:05:44.882Z</time>
      </trkpt>
      <trkpt lat="49.88036" lon="5.67426">
        <ele>336.78</ele>
        <time>2026-08-10T15:05:50.888Z</time>
      </trkpt>
      <trkpt lat="49.88" lon="5.67448">
        <ele>336.82</ele>
        <time>2026-08-10T15:05:56.885Z</time>
      </trkpt>
      <trkpt lat="49.87963" lon="5.67473">
        <ele>336.22</ele>
        <time>2026-08-10T15:06:02.883Z</time>
      </trkpt>
      <trkpt lat="49.87925" lon="5.67496">
        <ele>336.45</ele>
        <time>2026-08-10T15:06:08.885Z</time>
      </trkpt>
      <trkpt lat="49.87889" lon="5.67521">
        <ele>337.35</ele>
        <time>2026-08-10T15:06:14.881Z</time>
      </trkpt>
      <trkpt lat="49.87855" lon="5.67544">
        <ele>338.5</ele>
        <time>2026-08-10T15:06:20.879Z</time>
      </trkpt>
      <trkpt lat="49.87822" lon="5.67563">
        <ele>339.3</ele>
        <time>2026-08-10T15:06:26.899Z</time>
      </trkpt>
      <trkpt lat="49.87788" lon="5.67582">
        <ele>339.22</ele>
        <time>2026-08-10T15:06:32.886Z</time>
      </trkpt>
      <trkpt lat="49.87753" lon="5.67604">
        <ele>338.67</ele>
        <time>2026-08-10T15:06:38.881Z</time>
      </trkpt>
      <trkpt lat="49.87719" lon="5.67623">
        <ele>337.9</ele>
        <time>2026-08-10T15:06:44.881Z</time>
      </trkpt>
      <trkpt lat="49.87681" lon="5.6763">
        <ele>338.31</ele>
        <time>2026-08-10T15:06:50.885Z</time>
      </trkpt>
      <trkpt lat="49.87642" lon="5.67627">
        <ele>339.14</ele>
        <time>2026-08-10T15:06:56.902Z</time>
      </trkpt>
      <trkpt lat="49.87608" lon="5.67628">
        <ele>338.72</ele>
        <time>2026-08-10T15:07:02.891Z</time>
      </trkpt>
      <trkpt lat="49.87585" lon="5.67644">
        <ele>340.32</ele>
        <time>2026-08-10T15:07:08.881Z</time>
      </trkpt>
      <trkpt lat="49.87574" lon="5.67679">
        <ele>340.57</ele>
        <time>2026-08-10T15:07:14.887Z</time>
      </trkpt>
      <trkpt lat="49.87567" lon="5.6772">
        <ele>340.57</ele>
        <time>2026-08-10T15:07:20.883Z</time>
      </trkpt>
      <trkpt lat="49.87561" lon="5.6775">
        <ele>340.9</ele>
        <time>2026-08-10T15:07:26.901Z</time>
      </trkpt>
      <trkpt lat="49.87554" lon="5.67794">
        <ele>341.08</ele>
        <time>2026-08-10T15:07:32.886Z</time>
      </trkpt>
      <trkpt lat="49.87551" lon="5.67844">
        <ele>342.81</ele>
        <time>2026-08-10T15:07:38.871Z</time>
      </trkpt>
      <trkpt lat="49.87548" lon="5.67894">
        <ele>342.35</ele>
        <time>2026-08-10T15:07:44.883Z</time>
      </trkpt>
      <trkpt lat="49.87545" lon="5.67945">
        <ele>339.8</ele>
        <time>2026-08-10T15:07:50.889Z</time>
      </trkpt>
      <trkpt lat="49.87543" lon="5.68001">
        <ele>337.95</ele>
        <time>2026-08-10T15:07:56.900Z</time>
      </trkpt>
      <trkpt lat="49.8754" lon="5.68063">
        <ele>335.63</ele>
        <time>2026-08-10T15:08:02.890Z</time>
      </trkpt>
      <trkpt lat="49.87535" lon="5.68127">
        <ele>334.95</ele>
        <time>2026-08-10T15:08:08.888Z</time>
      </trkpt>
      <trkpt lat="49.87525" lon="5.6819">
        <ele>336.14</ele>
        <time>2026-08-10T15:08:14.885Z</time>
      </trkpt>
      <trkpt lat="49.87512" lon="5.6825">
        <ele>337.11</ele>
        <time>2026-08-10T15:08:20.890Z</time>
      </trkpt>
      <trkpt lat="49.87492" lon="5.6831">
        <ele>337.95</ele>
        <time>2026-08-10T15:08:26.896Z</time>
      </trkpt>
      <trkpt lat="49.87472" lon="5.68366">
        <ele>336.49</ele>
        <time>2026-08-10T15:08:32.888Z</time>
      </trkpt>
      <trkpt lat="49.87447" lon="5.68415">
        <ele>335.19</ele>
        <time>2026-08-10T15:08:38.888Z</time>
      </trkpt>
      <trkpt lat="49.87417" lon="5.68462">
        <ele>335.93</ele>
        <time>2026-08-10T15:08:44.888Z</time>
      </trkpt>
      <trkpt lat="49.87387" lon="5.68504">
        <ele>335.23</ele>
        <time>2026-08-10T15:08:50.886Z</time>
      </trkpt>
      <trkpt lat="49.87354" lon="5.68535">
        <ele>334.79</ele>
        <time>2026-08-10T15:08:56.897Z</time>
      </trkpt>
      <trkpt lat="49.87319" lon="5.68564">
        <ele>330.93</ele>
        <time>2026-08-10T15:09:02.889Z</time>
      </trkpt>
      <trkpt lat="49.87282" lon="5.68595">
        <ele>328.94</ele>
        <time>2026-08-10T15:09:08.888Z</time>
      </trkpt>
      <trkpt lat="49.87246" lon="5.68623">
        <ele>327.25</ele>
        <time>2026-08-10T15:09:14.888Z</time>
      </trkpt>
      <trkpt lat="49.87211" lon="5.68653">
        <ele>329.63</ele>
        <time>2026-08-10T15:09:20.887Z</time>
      </trkpt>
      <trkpt lat="49.87174" lon="5.68673">
        <ele>330.78</ele>
        <time>2026-08-10T15:09:26.902Z</time>
      </trkpt>
      <trkpt lat="49.87138" lon="5.68684">
        <ele>331.08</ele>
        <time>2026-08-10T15:09:32.906Z</time>
      </trkpt>
      <trkpt lat="49.87105" lon="5.68687">
        <ele>332.32</ele>
        <time>2026-08-10T15:09:38.887Z</time>
      </trkpt>
      <trkpt lat="49.87079" lon="5.6869">
        <ele>332.08</ele>
        <time>2026-08-10T15:09:44.881Z</time>
      </trkpt>
      <trkpt lat="49.87052" lon="5.68695">
        <ele>330.33</ele>
        <time>2026-08-10T15:09:50.875Z</time>
      </trkpt>
      <trkpt lat="49.87024" lon="5.6869">
        <ele>329.95</ele>
        <time>2026-08-10T15:09:56.891Z</time>
      </trkpt>
      <trkpt lat="49.87001" lon="5.68683">
        <ele>329.21</ele>
        <time>2026-08-10T15:10:02.876Z</time>
      </trkpt>
      <trkpt lat="49.86989" lon="5.68679">
        <ele>328.81</ele>
        <time>2026-08-10T15:10:08.924Z</time>
      </trkpt>
      <trkpt lat="49.86999" lon="5.68688">
        <ele>330.93</ele>
        <time>2026-08-10T15:10:19.828Z</time>
      </trkpt>
      <trkpt lat="49.87015" lon="5.68697">
        <ele>331.17</ele>
        <time>2026-08-10T15:10:24.840Z</time>
      </trkpt>
      <trkpt lat="49.87041" lon="5.68699">
        <ele>333.93</ele>
        <time>2026-08-10T15:10:30.833Z</time>
      </trkpt>
      <trkpt lat="49.87068" lon="5.68696">
        <ele>334.68</ele>
        <time>2026-08-10T15:10:36.825Z</time>
      </trkpt>
      <trkpt lat="49.87088" lon="5.68694">
        <ele>335.32</ele>
        <time>2026-08-10T15:10:41.844Z</time>
      </trkpt>
      <trkpt lat="49.87111" lon="5.68692">
        <ele>336.18</ele>
        <time>2026-08-10T15:10:47.819Z</time>
      </trkpt>
      <trkpt lat="49.87133" lon="5.6869">
        <ele>337.27</ele>
        <time>2026-08-10T15:10:52.823Z</time>
      </trkpt>
      <trkpt lat="49.87161" lon="5.68686">
        <ele>336.84</ele>
        <time>2026-08-10T15:10:58.833Z</time>
      </trkpt>
      <trkpt lat="49.87185" lon="5.68676">
        <ele>335.24</ele>
        <time>2026-08-10T15:11:04.824Z</time>
      </trkpt>
      <trkpt lat="49.87201" lon="5.68663">
        <ele>335.44</ele>
        <time>2026-08-10T15:11:09.826Z</time>
      </trkpt>
      <trkpt lat="49.87211" lon="5.68657">
        <ele>334.6</ele>
        <time>2026-08-10T15:11:14.875Z</time>
      </trkpt>
      <trkpt lat="49.8722" lon="5.68649">
        <ele>333.8</ele>
        <time>2026-08-10T15:11:20.876Z</time>
      </trkpt>
      <trkpt lat="49.87231" lon="5.68643">
        <ele>339.61</ele>
        <time>2026-08-10T15:15:25.851Z</time>
      </trkpt>
      <trkpt lat="49.87217" lon="5.68645">
        <ele>341.24</ele>
        <time>2026-08-10T15:16:26.984Z</time>
      </trkpt>
      <trkpt lat="49.87206" lon="5.68658">
        <ele>340.1</ele>
        <time>2026-08-10T15:16:32.884Z</time>
      </trkpt>
      <trkpt lat="49.8719" lon="5.68665">
        <ele>337.67</ele>
        <time>2026-08-10T15:16:38.877Z</time>
      </trkpt>
      <trkpt lat="49.87167" lon="5.68678">
        <ele>336.52</ele>
        <time>2026-08-10T15:16:44.893Z</time>
      </trkpt>
      <trkpt lat="49.87141" lon="5.68687">
        <ele>334.44</ele>
        <time>2026-08-10T15:16:50.900Z</time>
      </trkpt>
      <trkpt lat="49.87113" lon="5.68687">
        <ele>335.99</ele>
        <time>2026-08-10T15:16:56.899Z</time>
      </trkpt>
      <trkpt lat="49.87086" lon="5.68689">
        <ele>334.13</ele>
        <time>2026-08-10T15:17:02.894Z</time>
      </trkpt>
      <trkpt lat="49.87055" lon="5.68693">
        <ele>332.43</ele>
        <time>2026-08-10T15:17:08.892Z</time>
      </trkpt>
      <trkpt lat="49.87022" lon="5.68695">
        <ele>333.12</ele>
        <time>2026-08-10T15:17:14.888Z</time>
      </trkpt>
      <trkpt lat="49.86989" lon="5.68682">
        <ele>334.07</ele>
        <time>2026-08-10T15:17:20.889Z</time>
      </trkpt>
      <trkpt lat="49.86958" lon="5.68667">
        <ele>334.74</ele>
        <time>2026-08-10T15:17:26.906Z</time>
      </trkpt>
      <trkpt lat="49.86924" lon="5.68658">
        <ele>334.6</ele>
        <time>2026-08-10T15:17:32.894Z</time>
      </trkpt>
      <trkpt lat="49.86889" lon="5.68656">
        <ele>334.51</ele>
        <time>2026-08-10T15:17:38.887Z</time>
      </trkpt>
      <trkpt lat="49.86856" lon="5.68654">
        <ele>333.54</ele>
        <time>2026-08-10T15:17:44.886Z</time>
      </trkpt>
      <trkpt lat="49.86822" lon="5.68653">
        <ele>330.21</ele>
        <time>2026-08-10T15:17:50.887Z</time>
      </trkpt>
      <trkpt lat="49.86786" lon="5.68653">
        <ele>326.64</ele>
        <time>2026-08-10T15:17:56.898Z</time>
      </trkpt>
      <trkpt lat="49.86751" lon="5.68661">
        <ele>321.26</ele>
        <time>2026-08-10T15:18:02.894Z</time>
      </trkpt>
      <trkpt lat="49.86717" lon="5.68678">
        <ele>319.79</ele>
        <time>2026-08-10T15:18:08.887Z</time>
      </trkpt>
      <trkpt lat="49.86684" lon="5.68703">
        <ele>318.78</ele>
        <time>2026-08-10T15:18:14.886Z</time>
      </trkpt>
      <trkpt lat="49.86652" lon="5.68735">
        <ele>320.33</ele>
        <time>2026-08-10T15:18:20.887Z</time>
      </trkpt>
      <trkpt lat="49.86622" lon="5.68772">
        <ele>321.65</ele>
        <time>2026-08-10T15:18:26.877Z</time>
      </trkpt>
      <trkpt lat="49.86595" lon="5.68813">
        <ele>324.35</ele>
        <time>2026-08-10T15:18:32.894Z</time>
      </trkpt>
      <trkpt lat="49.86568" lon="5.68856">
        <ele>325.98</ele>
        <time>2026-08-10T15:18:38.886Z</time>
      </trkpt>
      <trkpt lat="49.86542" lon="5.68899">
        <ele>326.76</ele>
        <time>2026-08-10T15:18:44.890Z</time>
      </trkpt>
      <trkpt lat="49.86517" lon="5.68943">
        <ele>328.26</ele>
        <time>2026-08-10T15:18:50.891Z</time>
      </trkpt>
      <trkpt lat="49.8649" lon="5.68987">
        <ele>329.81</ele>
        <time>2026-08-10T15:18:56.901Z</time>
      </trkpt>
      <trkpt lat="49.86467" lon="5.69024">
        <ele>330.5</ele>
        <time>2026-08-10T15:19:02.893Z</time>
      </trkpt>
      <trkpt lat="49.86443" lon="5.69055">
        <ele>330.95</ele>
        <time>2026-08-10T15:19:08.887Z</time>
      </trkpt>
      <trkpt lat="49.86419" lon="5.69088">
        <ele>330.56</ele>
        <time>2026-08-10T15:19:14.885Z</time>
      </trkpt>
      <trkpt lat="49.86396" lon="5.6912">
        <ele>331.38</ele>
        <time>2026-08-10T15:19:20.890Z</time>
      </trkpt>
      <trkpt lat="49.86372" lon="5.69155">
        <ele>331.88</ele>
        <time>2026-08-10T15:19:26.896Z</time>
      </trkpt>
      <trkpt lat="49.86348" lon="5.6919">
        <ele>332.25</ele>
        <time>2026-08-10T15:19:32.893Z</time>
      </trkpt>
      <trkpt lat="49.86325" lon="5.69228">
        <ele>332.14</ele>
        <time>2026-08-10T15:19:38.894Z</time>
      </trkpt>
      <trkpt lat="49.86301" lon="5.69268">
        <ele>332.86</ele>
        <time>2026-08-10T15:19:44.889Z</time>
      </trkpt>
      <trkpt lat="49.86276" lon="5.69309">
        <ele>332.51</ele>
        <time>2026-08-10T15:19:50.889Z</time>
      </trkpt>
      <trkpt lat="49.86251" lon="5.69353">
        <ele>331.13</ele>
        <time>2026-08-10T15:19:56.899Z</time>
      </trkpt>
      <trkpt lat="49.86224" lon="5.69398">
        <ele>330.03</ele>
        <time>2026-08-10T15:20:02.894Z</time>
      </trkpt>
      <trkpt lat="49.86198" lon="5.69443">
        <ele>329.66</ele>
        <time>2026-08-10T15:20:08.885Z</time>
      </trkpt>
      <trkpt lat="49.86172" lon="5.69486">
        <ele>328.58</ele>
        <time>2026-08-10T15:20:14.893Z</time>
      </trkpt>
      <trkpt lat="49.86148" lon="5.69525">
        <ele>327.7</ele>
        <time>2026-08-10T15:20:20.889Z</time>
      </trkpt>
      <trkpt lat="49.86122" lon="5.69562">
        <ele>324.66</ele>
        <time>2026-08-10T15:20:26.899Z</time>
      </trkpt>
      <trkpt lat="49.86091" lon="5.69591">
        <ele>322.25</ele>
        <time>2026-08-10T15:20:32.900Z</time>
      </trkpt>
      <trkpt lat="49.86059" lon="5.69604">
        <ele>319.81</ele>
        <time>2026-08-10T15:20:38.889Z</time>
      </trkpt>
      <trkpt lat="49.86024" lon="5.69607">
        <ele>318.44</ele>
        <time>2026-08-10T15:20:44.890Z</time>
      </trkpt>
      <trkpt lat="49.85989" lon="5.696">
        <ele>321.29</ele>
        <time>2026-08-10T15:20:50.892Z</time>
      </trkpt>
      <trkpt lat="49.85959" lon="5.69594">
        <ele>322.91</ele>
        <time>2026-08-10T15:20:56.904Z</time>
      </trkpt>
      <trkpt lat="49.85925" lon="5.69593">
        <ele>322.57</ele>
        <time>2026-08-10T15:21:02.893Z</time>
      </trkpt>
      <trkpt lat="49.85886" lon="5.69603">
        <ele>321.03</ele>
        <time>2026-08-10T15:21:08.886Z</time>
      </trkpt>
      <trkpt lat="49.85849" lon="5.69613">
        <ele>320.56</ele>
        <time>2026-08-10T15:21:14.881Z</time>
      </trkpt>
      <trkpt lat="49.85813" lon="5.69623">
        <ele>320.63</ele>
        <time>2026-08-10T15:21:20.888Z</time>
      </trkpt>
      <trkpt lat="49.85776" lon="5.69633">
        <ele>323.2</ele>
        <time>2026-08-10T15:21:26.898Z</time>
      </trkpt>
      <trkpt lat="49.85741" lon="5.69655">
        <ele>322.8</ele>
        <time>2026-08-10T15:21:32.895Z</time>
      </trkpt>
      <trkpt lat="49.85711" lon="5.69692">
        <ele>319.67</ele>
        <time>2026-08-10T15:21:38.891Z</time>
      </trkpt>
      <trkpt lat="49.85684" lon="5.69731">
        <ele>318</ele>
        <time>2026-08-10T15:21:44.889Z</time>
      </trkpt>
      <trkpt lat="49.85659" lon="5.6977">
        <ele>315.37</ele>
        <time>2026-08-10T15:21:50.891Z</time>
      </trkpt>
      <trkpt lat="49.85635" lon="5.6981">
        <ele>310.19</ele>
        <time>2026-08-10T15:21:56.906Z</time>
      </trkpt>
      <trkpt lat="49.85609" lon="5.69845">
        <ele>309.9</ele>
        <time>2026-08-10T15:22:02.905Z</time>
      </trkpt>
      <trkpt lat="49.85586" lon="5.6987">
        <ele>311.8</ele>
        <time>2026-08-10T15:22:08.891Z</time>
      </trkpt>
      <trkpt lat="49.85554" lon="5.69904">
        <ele>314.24</ele>
        <time>2026-08-10T15:22:14.888Z</time>
      </trkpt>
      <trkpt lat="49.85525" lon="5.69948">
        <ele>316.92</ele>
        <time>2026-08-10T15:22:20.886Z</time>
      </trkpt>
      <trkpt lat="49.85498" lon="5.69984">
        <ele>320.48</ele>
        <time>2026-08-10T15:22:26.898Z</time>
      </trkpt>
      <trkpt lat="49.85475" lon="5.70017">
        <ele>319.59</ele>
        <time>2026-08-10T15:22:32.897Z</time>
      </trkpt>
      <trkpt lat="49.85456" lon="5.70051">
        <ele>317.5</ele>
        <time>2026-08-10T15:22:38.887Z</time>
      </trkpt>
      <trkpt lat="49.85441" lon="5.70063">
        <ele>315.57</ele>
        <time>2026-08-10T15:22:44.890Z</time>
      </trkpt>
      <trkpt lat="49.85425" lon="5.70084">
        <ele>316.33</ele>
        <time>2026-08-10T15:22:50.888Z</time>
      </trkpt>
      <trkpt lat="49.85411" lon="5.70088">
        <ele>314.59</ele>
        <time>2026-08-10T15:22:56.892Z</time>
      </trkpt>
      <trkpt lat="49.85401" lon="5.70093">
        <ele>312.84</ele>
        <time>2026-08-10T15:23:02.891Z</time>
      </trkpt>
      <trkpt lat="49.85392" lon="5.70096">
        <ele>315.87</ele>
        <time>2026-08-10T15:23:15.833Z</time>
      </trkpt>
      <trkpt lat="49.85385" lon="5.70083">
        <ele>380.49</ele>
        <time>2026-08-10T15:23:33.826Z</time>
      </trkpt>
      <trkpt lat="49.85383" lon="5.70097">
        <ele>380.29</ele>
        <time>2026-08-10T15:24:18.832Z</time>
      </trkpt>
      <trkpt lat="49.85392" lon="5.70104">
        <ele>380.49</ele>
        <time>2026-08-10T15:25:09.828Z</time>
      </trkpt>
      <trkpt lat="49.85402" lon="5.70102">
        <ele>380.4</ele>
        <time>2026-08-10T15:26:19.828Z</time>
      </trkpt>
      <trkpt lat="49.85394" lon="5.70094">
        <ele>380.49</ele>
        <time>2026-08-10T15:26:30.831Z</time>
      </trkpt>
      <trkpt lat="49.85374" lon="5.70091">
        <ele>380.59</ele>
        <time>2026-08-10T15:26:35.842Z</time>
      </trkpt>
      <trkpt lat="49.85359" lon="5.70087">
        <ele>380.59</ele>
        <time>2026-08-10T15:26:41.814Z</time>
      </trkpt>
      <trkpt lat="49.85344" lon="5.70075">
        <ele>380.59</ele>
        <time>2026-08-10T15:26:46.818Z</time>
      </trkpt>
      <trkpt lat="49.85327" lon="5.70058">
        <ele>380.59</ele>
        <time>2026-08-10T15:26:51.825Z</time>
      </trkpt>
      <trkpt lat="49.85312" lon="5.70046">
        <ele>380.59</ele>
        <time>2026-08-10T15:26:56.865Z</time>
      </trkpt>
      <trkpt lat="49.85291" lon="5.70026">
        <ele>380.6</ele>
        <time>2026-08-10T15:27:02.870Z</time>
      </trkpt>
      <trkpt lat="49.85273" lon="5.70002">
        <ele>380.6</ele>
        <time>2026-08-10T15:27:08.870Z</time>
      </trkpt>
      <trkpt lat="49.85254" lon="5.69967">
        <ele>380.6</ele>
        <time>2026-08-10T15:27:14.869Z</time>
      </trkpt>
      <trkpt lat="49.85237" lon="5.69926">
        <ele>380.5</ele>
        <time>2026-08-10T15:27:20.870Z</time>
      </trkpt>
      <trkpt lat="49.85217" lon="5.69883">
        <ele>380.5</ele>
        <time>2026-08-10T15:27:26.881Z</time>
      </trkpt>
      <trkpt lat="49.85197" lon="5.69851">
        <ele>380.5</ele>
        <time>2026-08-10T15:27:32.869Z</time>
      </trkpt>
      <trkpt lat="49.85173" lon="5.69811">
        <ele>380.5</ele>
        <time>2026-08-10T15:27:38.867Z</time>
      </trkpt>
      <trkpt lat="49.85155" lon="5.69784">
        <ele>376.76</ele>
        <time>2026-08-10T15:27:44.870Z</time>
      </trkpt>
      <trkpt lat="49.85139" lon="5.69771">
        <ele>376.7</ele>
        <time>2026-08-10T15:27:50.866Z</time>
      </trkpt>
      <trkpt lat="49.85115" lon="5.69755">
        <ele>376.7</ele>
        <time>2026-08-10T15:27:56.882Z</time>
      </trkpt>
      <trkpt lat="49.85091" lon="5.69749">
        <ele>376.7</ele>
        <time>2026-08-10T15:28:02.862Z</time>
      </trkpt>
      <trkpt lat="49.85064" lon="5.69739">
        <ele>376.7</ele>
        <time>2026-08-10T15:28:08.868Z</time>
      </trkpt>
      <trkpt lat="49.85047" lon="5.69738">
        <ele>376.7</ele>
        <time>2026-08-10T15:28:14.868Z</time>
      </trkpt>
      <trkpt lat="49.85022" lon="5.69737">
        <ele>376.7</ele>
        <time>2026-08-10T15:28:20.873Z</time>
      </trkpt>
      <trkpt lat="49.84992" lon="5.69748">
        <ele>376.7</ele>
        <time>2026-08-10T15:28:26.858Z</time>
      </trkpt>
      <trkpt lat="49.84964" lon="5.69769">
        <ele>376.7</ele>
        <time>2026-08-10T15:28:32.872Z</time>
      </trkpt>
      <trkpt lat="49.8494" lon="5.69797">
        <ele>376.7</ele>
        <time>2026-08-10T15:28:38.886Z</time>
      </trkpt>
      <trkpt lat="49.84915" lon="5.69827">
        <ele>376.7</ele>
        <time>2026-08-10T15:28:44.870Z</time>
      </trkpt>
      <trkpt lat="49.84896" lon="5.6986">
        <ele>376.7</ele>
        <time>2026-08-10T15:28:50.875Z</time>
      </trkpt>
      <trkpt lat="49.84878" lon="5.69895">
        <ele>376.7</ele>
        <time>2026-08-10T15:28:56.889Z</time>
      </trkpt>
      <trkpt lat="49.84858" lon="5.69929">
        <ele>376.7</ele>
        <time>2026-08-10T15:29:02.879Z</time>
      </trkpt>
      <trkpt lat="49.84838" lon="5.69959">
        <ele>376.7</ele>
        <time>2026-08-10T15:29:08.883Z</time>
      </trkpt>
      <trkpt lat="49.84822" lon="5.69991">
        <ele>324.95</ele>
        <time>2026-08-10T15:29:14.878Z</time>
      </trkpt>
      <trkpt lat="49.84803" lon="5.70023">
        <ele>326.83</ele>
        <time>2026-08-10T15:29:20.867Z</time>
      </trkpt>
      <trkpt lat="49.84789" lon="5.70055">
        <ele>328.32</ele>
        <time>2026-08-10T15:29:26.889Z</time>
      </trkpt>
      <trkpt lat="49.84775" lon="5.70073">
        <ele>329.98</ele>
        <time>2026-08-10T15:29:32.873Z</time>
      </trkpt>
      <trkpt lat="49.84763" lon="5.70091">
        <ele>328.66</ele>
        <time>2026-08-10T15:29:38.875Z</time>
      </trkpt>
      <trkpt lat="49.84751" lon="5.70115">
        <ele>327.58</ele>
        <time>2026-08-10T15:29:44.870Z</time>
      </trkpt>
      <trkpt lat="49.8474" lon="5.70146">
        <ele>325.52</ele>
        <time>2026-08-10T15:29:50.870Z</time>
      </trkpt>
      <trkpt lat="49.84734" lon="5.70179">
        <ele>324.97</ele>
        <time>2026-08-10T15:29:56.885Z</time>
      </trkpt>
      <trkpt lat="49.84727" lon="5.70215">
        <ele>325.19</ele>
        <time>2026-08-10T15:30:02.875Z</time>
      </trkpt>
      <trkpt lat="49.84719" lon="5.70256">
        <ele>325.85</ele>
        <time>2026-08-10T15:30:08.877Z</time>
      </trkpt>
      <trkpt lat="49.84716" lon="5.70288">
        <ele>379.58</ele>
        <time>2026-08-10T15:30:14.873Z</time>
      </trkpt>
      <trkpt lat="49.84714" lon="5.70303">
        <ele>379.59</ele>
        <time>2026-08-10T15:30:20.869Z</time>
      </trkpt>
      <trkpt lat="49.84709" lon="5.70324">
        <ele>378.99</ele>
        <time>2026-08-10T15:30:32.862Z</time>
      </trkpt>
      <trkpt lat="49.84707" lon="5.70349">
        <ele>379.49</ele>
        <time>2026-08-10T15:30:38.870Z</time>
      </trkpt>
      <trkpt lat="49.847" lon="5.70384">
        <ele>379.49</ele>
        <time>2026-08-10T15:30:44.868Z</time>
      </trkpt>
      <trkpt lat="49.84702" lon="5.70366">
        <ele>379.45</ele>
        <time>2026-08-10T15:30:59.820Z</time>
      </trkpt>
      <trkpt lat="49.84706" lon="5.70345">
        <ele>379.49</ele>
        <time>2026-08-10T15:31:05.816Z</time>
      </trkpt>
      <trkpt lat="49.84708" lon="5.70311">
        <ele>379.49</ele>
        <time>2026-08-10T15:31:11.815Z</time>
      </trkpt>
      <trkpt lat="49.8471" lon="5.70291">
        <ele>379.49</ele>
        <time>2026-08-10T15:31:17.433Z</time>
      </trkpt>
      <trkpt lat="49.8471" lon="5.70272">
        <ele>379.49</ele>
        <time>2026-08-10T15:31:22.816Z</time>
      </trkpt>
      <trkpt lat="49.84705" lon="5.70253">
        <ele>379.49</ele>
        <time>2026-08-10T15:31:28.803Z</time>
      </trkpt>
      <trkpt lat="49.84702" lon="5.70238">
        <ele>379.69</ele>
        <time>2026-08-10T15:31:44.876Z</time>
      </trkpt>
      <trkpt lat="49.84705" lon="5.70221">
        <ele>379.69</ele>
        <time>2026-08-10T15:31:54.819Z</time>
      </trkpt>
      <trkpt lat="49.84708" lon="5.70203">
        <ele>379.69</ele>
        <time>2026-08-10T15:31:59.828Z</time>
      </trkpt>
      <trkpt lat="49.84707" lon="5.70177">
        <ele>379.69</ele>
        <time>2026-08-10T15:32:05.811Z</time>
      </trkpt>
      <trkpt lat="49.84709" lon="5.70157">
        <ele>379.69</ele>
        <time>2026-08-10T15:32:10.823Z</time>
      </trkpt>
      <trkpt lat="49.84712" lon="5.7014">
        <ele>381.19</ele>
        <time>2026-08-10T15:33:08.858Z</time>
      </trkpt>
      <trkpt lat="49.84707" lon="5.70128">
        <ele>381.39</ele>
        <time>2026-08-10T15:33:14.861Z</time>
      </trkpt>
      <trkpt lat="49.84712" lon="5.70152">
        <ele>381.23</ele>
        <time>2026-08-10T15:35:15.876Z</time>
      </trkpt>
      <trkpt lat="49.84707" lon="5.70037">
        <ele>381.19</ele>
        <time>2026-08-10T15:36:14.871Z</time>
      </trkpt>
      <trkpt lat="49.84707" lon="5.70084">
        <ele>381.19</ele>
        <time>2026-08-10T15:36:20.887Z</time>
      </trkpt>
      <trkpt lat="49.84693" lon="5.70108">
        <ele>381.19</ele>
        <time>2026-08-10T15:36:26.885Z</time>
      </trkpt>
      <trkpt lat="49.84696" lon="5.70125">
        <ele>381.19</ele>
        <time>2026-08-10T15:36:33.826Z</time>
      </trkpt>
      <trkpt lat="49.84702" lon="5.70143">
        <ele>381.19</ele>
        <time>2026-08-10T15:36:40.826Z</time>
      </trkpt>
      <trkpt lat="49.846" lon="5.70379">
        <ele>377.69</ele>
        <time>2026-08-11T06:28:02.340Z</time>
      </trkpt>
      <trkpt lat="49.8459" lon="5.70379">
        <ele>377.69</ele>
        <time>2026-08-11T06:28:08.147Z</time>
      </trkpt>
      <trkpt lat="49.84581" lon="5.70379">
        <ele>377.69</ele>
        <time>2026-08-11T06:28:13.149Z</time>
      </trkpt>
      <trkpt lat="49.846" lon="5.70341">
        <ele>377.69</ele>
        <time>2026-08-11T06:28:18.745Z</time>
      </trkpt>
      <trkpt lat="49.84626" lon="5.7031">
        <ele>377.69</ele>
        <time>2026-08-11T06:28:24.008Z</time>
      </trkpt>
      <trkpt lat="49.84634" lon="5.70293">
        <ele>377.69</ele>
        <time>2026-08-11T06:28:29.320Z</time>
      </trkpt>
      <trkpt lat="49.84646" lon="5.70278">
        <ele>376.89</ele>
        <time>2026-08-11T06:28:35.296Z</time>
      </trkpt>
      <trkpt lat="49.84653" lon="5.70266">
        <ele>376.89</ele>
        <time>2026-08-11T06:28:40.314Z</time>
      </trkpt>
      <trkpt lat="49.84658" lon="5.70244">
        <ele>376.89</ele>
        <time>2026-08-11T06:28:45.352Z</time>
      </trkpt>
      <trkpt lat="49.84662" lon="5.70213">
        <ele>376.89</ele>
        <time>2026-08-11T06:28:51.296Z</time>
      </trkpt>
      <trkpt lat="49.84667" lon="5.70191">
        <ele>376.89</ele>
        <time>2026-08-11T06:28:56.302Z</time>
      </trkpt>
      <trkpt lat="49.84677" lon="5.70175">
        <ele>376.89</ele>
        <time>2026-08-11T06:29:01.305Z</time>
      </trkpt>
      <trkpt lat="49.84687" lon="5.7017">
        <ele>379.69</ele>
        <time>2026-08-11T06:29:07.296Z</time>
      </trkpt>
      <trkpt lat="49.84697" lon="5.7017">
        <ele>379.69</ele>
        <time>2026-08-11T06:29:15.347Z</time>
      </trkpt>
      <trkpt lat="49.84705" lon="5.70176">
        <ele>379.69</ele>
        <time>2026-08-11T06:29:28.339Z</time>
      </trkpt>
      <trkpt lat="49.84707" lon="5.70192">
        <ele>379.69</ele>
        <time>2026-08-11T06:29:37.376Z</time>
      </trkpt>
      <trkpt lat="49.84708" lon="5.70208">
        <ele>379.69</ele>
        <time>2026-08-11T06:29:43.376Z</time>
      </trkpt>
      <trkpt lat="49.84705" lon="5.70222">
        <ele>379.69</ele>
        <time>2026-08-11T06:29:50.359Z</time>
      </trkpt>
      <trkpt lat="49.84705" lon="5.70241">
        <ele>379.5</ele>
        <time>2026-08-11T06:29:56.336Z</time>
      </trkpt>
      <trkpt lat="49.84707" lon="5.70256">
        <ele>377.72</ele>
        <time>2026-08-11T06:30:03.307Z</time>
      </trkpt>
      <trkpt lat="49.84706" lon="5.70273">
        <ele>378.99</ele>
        <time>2026-08-11T06:30:46.357Z</time>
      </trkpt>
      <trkpt lat="49.84704" lon="5.70289">
        <ele>379.69</ele>
        <time>2026-08-11T06:30:52.320Z</time>
      </trkpt>
      <trkpt lat="49.84706" lon="5.70305">
        <ele>379.59</ele>
        <time>2026-08-11T06:30:58.326Z</time>
      </trkpt>
      <trkpt lat="49.84706" lon="5.7032">
        <ele>379.59</ele>
        <time>2026-08-11T06:31:03.330Z</time>
      </trkpt>
      <trkpt lat="49.84705" lon="5.70336">
        <ele>379.59</ele>
        <time>2026-08-11T06:31:08.353Z</time>
      </trkpt>
      <trkpt lat="49.84703" lon="5.70356">
        <ele>379.59</ele>
        <time>2026-08-11T06:31:14.321Z</time>
      </trkpt>
      <trkpt lat="49.847" lon="5.70372">
        <ele>379</ele>
        <time>2026-08-11T06:31:19.431Z</time>
      </trkpt>
      <trkpt lat="49.84698" lon="5.70391">
        <ele>378.99</ele>
        <time>2026-08-11T06:31:25.316Z</time>
      </trkpt>
      <trkpt lat="49.84697" lon="5.70413">
        <ele>378.99</ele>
        <time>2026-08-11T06:31:30.330Z</time>
      </trkpt>
      <trkpt lat="49.84693" lon="5.70443">
        <ele>378.99</ele>
        <time>2026-08-11T06:31:36.312Z</time>
      </trkpt>
      <trkpt lat="49.84688" lon="5.70477">
        <ele>378.99</ele>
        <time>2026-08-11T06:31:42.299Z</time>
      </trkpt>
      <trkpt lat="49.84682" lon="5.70509">
        <ele>378.99</ele>
        <time>2026-08-11T06:31:47.313Z</time>
      </trkpt>
      <trkpt lat="49.84675" lon="5.70546">
        <ele>378.99</ele>
        <time>2026-08-11T06:31:53.297Z</time>
      </trkpt>
      <trkpt lat="49.8467" lon="5.70582">
        <ele>378.99</ele>
        <time>2026-08-11T06:31:58.299Z</time>
      </trkpt>
      <trkpt lat="49.84665" lon="5.70627">
        <ele>378.99</ele>
        <time>2026-08-11T06:32:04.309Z</time>
      </trkpt>
      <trkpt lat="49.8466" lon="5.70671">
        <ele>378.99</ele>
        <time>2026-08-11T06:32:10.303Z</time>
      </trkpt>
      <trkpt lat="49.84657" lon="5.70709">
        <ele>378.99</ele>
        <time>2026-08-11T06:32:16.306Z</time>
      </trkpt>
      <trkpt lat="49.8465" lon="5.70755">
        <ele>378.99</ele>
        <time>2026-08-11T06:32:22.301Z</time>
      </trkpt>
      <trkpt lat="49.84645" lon="5.70791">
        <ele>378.98</ele>
        <time>2026-08-11T06:32:27.302Z</time>
      </trkpt>
      <trkpt lat="49.84641" lon="5.70825">
        <ele>378.98</ele>
        <time>2026-08-11T06:32:32.306Z</time>
      </trkpt>
      <trkpt lat="49.84637" lon="5.70858">
        <ele>378.98</ele>
        <time>2026-08-11T06:32:37.307Z</time>
      </trkpt>
      <trkpt lat="49.84633" lon="5.70875">
        <ele>326.26</ele>
        <time>2026-08-11T06:33:11.304Z</time>
      </trkpt>
      <trkpt lat="49.84631" lon="5.70893">
        <ele>331.43</ele>
        <time>2026-08-11T06:33:16.306Z</time>
      </trkpt>
      <trkpt lat="49.84627" lon="5.70917">
        <ele>332.95</ele>
        <time>2026-08-11T06:33:22.307Z</time>
      </trkpt>
      <trkpt lat="49.84622" lon="5.70951">
        <ele>330.57</ele>
        <time>2026-08-11T06:33:28.303Z</time>
      </trkpt>
      <trkpt lat="49.84616" lon="5.70993">
        <ele>325.67</ele>
        <time>2026-08-11T06:33:34.305Z</time>
      </trkpt>
      <trkpt lat="49.84615" lon="5.71017">
        <ele>320.92</ele>
        <time>2026-08-11T06:33:40.299Z</time>
      </trkpt>
      <trkpt lat="49.84619" lon="5.71034">
        <ele>327.98</ele>
        <time>2026-08-11T06:34:02.327Z</time>
      </trkpt>
      <trkpt lat="49.84616" lon="5.71049">
        <ele>330.48</ele>
        <time>2026-08-11T06:34:07.330Z</time>
      </trkpt>
      <trkpt lat="49.84607" lon="5.71082">
        <ele>328.86</ele>
        <time>2026-08-11T06:34:13.331Z</time>
      </trkpt>
      <trkpt lat="49.84601" lon="5.71123">
        <ele>326.81</ele>
        <time>2026-08-11T06:34:19.323Z</time>
      </trkpt>
      <trkpt lat="49.84595" lon="5.71165">
        <ele>323.1</ele>
        <time>2026-08-11T06:34:25.303Z</time>
      </trkpt>
      <trkpt lat="49.84588" lon="5.71209">
        <ele>321.08</ele>
        <time>2026-08-11T06:34:31.299Z</time>
      </trkpt>
      <trkpt lat="49.84581" lon="5.71246">
        <ele>318.53</ele>
        <time>2026-08-11T06:34:36.302Z</time>
      </trkpt>
      <trkpt lat="49.84569" lon="5.71295">
        <ele>316.62</ele>
        <time>2026-08-11T06:34:42.301Z</time>
      </trkpt>
      <trkpt lat="49.84561" lon="5.71335">
        <ele>317.4</ele>
        <time>2026-08-11T06:34:47.301Z</time>
      </trkpt>
      <trkpt lat="49.84555" lon="5.71369">
        <ele>317.6</ele>
        <time>2026-08-11T06:34:52.302Z</time>
      </trkpt>
      <trkpt lat="49.84547" lon="5.71411">
        <ele>315.95</ele>
        <time>2026-08-11T06:34:58.303Z</time>
      </trkpt>
      <trkpt lat="49.84538" lon="5.71446">
        <ele>314.96</ele>
        <time>2026-08-11T06:35:03.303Z</time>
      </trkpt>
      <trkpt lat="49.84528" lon="5.7149">
        <ele>312.41</ele>
        <time>2026-08-11T06:35:09.302Z</time>
      </trkpt>
      <trkpt lat="49.84521" lon="5.71525">
        <ele>311.15</ele>
        <time>2026-08-11T06:35:14.302Z</time>
      </trkpt>
      <trkpt lat="49.8451" lon="5.71564">
        <ele>310.78</ele>
        <time>2026-08-11T06:35:19.328Z</time>
      </trkpt>
      <trkpt lat="49.84507" lon="5.71606">
        <ele>313.52</ele>
        <time>2026-08-11T06:35:25.305Z</time>
      </trkpt>
      <trkpt lat="49.84501" lon="5.71643">
        <ele>322.72</ele>
        <time>2026-08-11T06:35:30.306Z</time>
      </trkpt>
      <trkpt lat="49.84493" lon="5.71673">
        <ele>325.14</ele>
        <time>2026-08-11T06:35:35.307Z</time>
      </trkpt>
      <trkpt lat="49.84489" lon="5.71707">
        <ele>327.86</ele>
        <time>2026-08-11T06:35:41.303Z</time>
      </trkpt>
      <trkpt lat="49.84487" lon="5.71741">
        <ele>328.45</ele>
        <time>2026-08-11T06:35:47.301Z</time>
      </trkpt>
      <trkpt lat="49.84486" lon="5.7177">
        <ele>329.72</ele>
        <time>2026-08-11T06:35:52.304Z</time>
      </trkpt>
      <trkpt lat="49.84485" lon="5.71804">
        <ele>330.86</ele>
        <time>2026-08-11T06:35:58.300Z</time>
      </trkpt>
      <trkpt lat="49.84484" lon="5.71832">
        <ele>330.96</ele>
        <time>2026-08-11T06:36:03.301Z</time>
      </trkpt>
      <trkpt lat="49.84485" lon="5.71857">
        <ele>332.6</ele>
        <time>2026-08-11T06:36:08.305Z</time>
      </trkpt>
      <trkpt lat="49.84488" lon="5.71882">
        <ele>333.26</ele>
        <time>2026-08-11T06:36:13.329Z</time>
      </trkpt>
      <trkpt lat="49.84494" lon="5.71914">
        <ele>332.43</ele>
        <time>2026-08-11T06:36:19.337Z</time>
      </trkpt>
      <trkpt lat="49.84481" lon="5.7195">
        <ele>330.36</ele>
        <time>2026-08-11T06:36:25.304Z</time>
      </trkpt>
      <trkpt lat="49.8448" lon="5.71983">
        <ele>327.31</ele>
        <time>2026-08-11T06:36:30.304Z</time>
      </trkpt>
      <trkpt lat="49.84479" lon="5.72012">
        <ele>326.95</ele>
        <time>2026-08-11T06:36:35.304Z</time>
      </trkpt>
      <trkpt lat="49.84478" lon="5.72039">
        <ele>326.2</ele>
        <time>2026-08-11T06:36:40.307Z</time>
      </trkpt>
      <trkpt lat="49.8448" lon="5.72083">
        <ele>326.17</ele>
        <time>2026-08-11T06:36:46.300Z</time>
      </trkpt>
      <trkpt lat="49.84483" lon="5.72118">
        <ele>327.76</ele>
        <time>2026-08-11T06:36:51.303Z</time>
      </trkpt>
      <trkpt lat="49.84484" lon="5.72161">
        <ele>326.56</ele>
        <time>2026-08-11T06:36:57.302Z</time>
      </trkpt>
      <trkpt lat="49.84485" lon="5.72207">
        <ele>326.05</ele>
        <time>2026-08-11T06:37:03.304Z</time>
      </trkpt>
      <trkpt lat="49.84485" lon="5.72252">
        <ele>326.78</ele>
        <time>2026-08-11T06:37:09.304Z</time>
      </trkpt>
      <trkpt lat="49.84488" lon="5.72295">
        <ele>328.88</ele>
        <time>2026-08-11T06:37:15.301Z</time>
      </trkpt>
      <trkpt lat="49.8449" lon="5.72328">
        <ele>326.44</ele>
        <time>2026-08-11T06:37:20.302Z</time>
      </trkpt>
      <trkpt lat="49.84488" lon="5.72368">
        <ele>325.45</ele>
        <time>2026-08-11T06:37:25.314Z</time>
      </trkpt>
      <trkpt lat="49.84494" lon="5.7239">
        <ele>316.76</ele>
        <time>2026-08-11T06:37:31.298Z</time>
      </trkpt>
      <trkpt lat="49.84477" lon="5.72437">
        <ele>309.75</ele>
        <time>2026-08-11T06:37:36.299Z</time>
      </trkpt>
      <trkpt lat="49.84464" lon="5.72474">
        <ele>306.78</ele>
        <time>2026-08-11T06:37:41.303Z</time>
      </trkpt>
      <trkpt lat="49.8444" lon="5.72518">
        <ele>300.54</ele>
        <time>2026-08-11T06:37:47.303Z</time>
      </trkpt>
      <trkpt lat="49.84412" lon="5.7256">
        <ele>296.74</ele>
        <time>2026-08-11T06:37:53.302Z</time>
      </trkpt>
      <trkpt lat="49.84386" lon="5.72598">
        <ele>305.28</ele>
        <time>2026-08-11T06:37:58.303Z</time>
      </trkpt>
      <trkpt lat="49.84355" lon="5.72633">
        <ele>309.88</ele>
        <time>2026-08-11T06:38:04.302Z</time>
      </trkpt>
      <trkpt lat="49.84324" lon="5.72676">
        <ele>315.1</ele>
        <time>2026-08-11T06:38:10.302Z</time>
      </trkpt>
      <trkpt lat="49.84283" lon="5.7271">
        <ele>319.6</ele>
        <time>2026-08-11T06:38:16.300Z</time>
      </trkpt>
      <trkpt lat="49.84258" lon="5.72711">
        <ele>326.75</ele>
        <time>2026-08-11T06:38:21.304Z</time>
      </trkpt>
      <trkpt lat="49.84227" lon="5.72715">
        <ele>331.51</ele>
        <time>2026-08-11T06:38:27.297Z</time>
      </trkpt>
      <trkpt lat="49.84202" lon="5.72717">
        <ele>332.44</ele>
        <time>2026-08-11T06:38:32.300Z</time>
      </trkpt>
      <trkpt lat="49.84172" lon="5.72711">
        <ele>332.94</ele>
        <time>2026-08-11T06:38:37.333Z</time>
      </trkpt>
      <trkpt lat="49.8414" lon="5.72685">
        <ele>333.03</ele>
        <time>2026-08-11T06:38:43.330Z</time>
      </trkpt>
      <trkpt lat="49.84113" lon="5.72654">
        <ele>330.69</ele>
        <time>2026-08-11T06:38:49.328Z</time>
      </trkpt>
      <trkpt lat="49.84094" lon="5.72619">
        <ele>327.27</ele>
        <time>2026-08-11T06:38:55.303Z</time>
      </trkpt>
      <trkpt lat="49.84081" lon="5.72577">
        <ele>323.8</ele>
        <time>2026-08-11T06:39:01.301Z</time>
      </trkpt>
      <trkpt lat="49.84066" lon="5.72531">
        <ele>319.64</ele>
        <time>2026-08-11T06:39:07.334Z</time>
      </trkpt>
      <trkpt lat="49.84052" lon="5.72484">
        <ele>316.15</ele>
        <time>2026-08-11T06:39:13.332Z</time>
      </trkpt>
      <trkpt lat="49.84038" lon="5.72435">
        <ele>311.9</ele>
        <time>2026-08-11T06:39:19.332Z</time>
      </trkpt>
      <trkpt lat="49.84022" lon="5.72383">
        <ele>309.5</ele>
        <time>2026-08-11T06:39:25.299Z</time>
      </trkpt>
      <trkpt lat="49.84008" lon="5.72341">
        <ele>309.14</ele>
        <time>2026-08-11T06:39:30.301Z</time>
      </trkpt>
      <trkpt lat="49.83998" lon="5.72299">
        <ele>309.86</ele>
        <time>2026-08-11T06:39:35.308Z</time>
      </trkpt>
      <trkpt lat="49.83981" lon="5.72249">
        <ele>308.8</ele>
        <time>2026-08-11T06:39:41.304Z</time>
      </trkpt>
      <trkpt lat="49.83957" lon="5.72201">
        <ele>310.89</ele>
        <time>2026-08-11T06:39:47.304Z</time>
      </trkpt>
      <trkpt lat="49.83932" lon="5.72152">
        <ele>315.24</ele>
        <time>2026-08-11T06:39:53.304Z</time>
      </trkpt>
      <trkpt lat="49.83907" lon="5.72106">
        <ele>319.74</ele>
        <time>2026-08-11T06:39:59.303Z</time>
      </trkpt>
      <trkpt lat="49.83884" lon="5.72078">
        <ele>320.72</ele>
        <time>2026-08-11T06:40:04.303Z</time>
      </trkpt>
      <trkpt lat="49.83864" lon="5.72061">
        <ele>321.28</ele>
        <time>2026-08-11T06:40:09.307Z</time>
      </trkpt>
      <trkpt lat="49.8384" lon="5.72054">
        <ele>321.29</ele>
        <time>2026-08-11T06:40:15.311Z</time>
      </trkpt>
      <trkpt lat="49.83818" lon="5.7205">
        <ele>322.23</ele>
        <time>2026-08-11T06:40:21.304Z</time>
      </trkpt>
      <trkpt lat="49.83809" lon="5.72035">
        <ele>326.21</ele>
        <time>2026-08-11T06:40:27.304Z</time>
      </trkpt>
      <trkpt lat="49.83789" lon="5.72031">
        <ele>326.15</ele>
        <time>2026-08-11T06:40:32.307Z</time>
      </trkpt>
      <trkpt lat="49.83765" lon="5.72027">
        <ele>325.6</ele>
        <time>2026-08-11T06:40:37.346Z</time>
      </trkpt>
      <trkpt lat="49.83732" lon="5.72021">
        <ele>321.97</ele>
        <time>2026-08-11T06:40:43.343Z</time>
      </trkpt>
      <trkpt lat="49.83697" lon="5.72022">
        <ele>320.76</ele>
        <time>2026-08-11T06:40:49.343Z</time>
      </trkpt>
      <trkpt lat="49.83663" lon="5.72029">
        <ele>317.57</ele>
        <time>2026-08-11T06:40:55.296Z</time>
      </trkpt>
      <trkpt lat="49.83636" lon="5.72037">
        <ele>316.79</ele>
        <time>2026-08-11T06:41:00.299Z</time>
      </trkpt>
      <trkpt lat="49.83607" lon="5.72044">
        <ele>317.22</ele>
        <time>2026-08-11T06:41:05.305Z</time>
      </trkpt>
      <trkpt lat="49.83574" lon="5.72057">
        <ele>317.83</ele>
        <time>2026-08-11T06:41:11.303Z</time>
      </trkpt>
      <trkpt lat="49.83548" lon="5.72091">
        <ele>318.71</ele>
        <time>2026-08-11T06:41:17.301Z</time>
      </trkpt>
      <trkpt lat="49.83534" lon="5.72131">
        <ele>320.25</ele>
        <time>2026-08-11T06:41:22.303Z</time>
      </trkpt>
      <trkpt lat="49.83529" lon="5.72175">
        <ele>320.94</ele>
        <time>2026-08-11T06:41:27.305Z</time>
      </trkpt>
      <trkpt lat="49.83534" lon="5.7223">
        <ele>321.41</ele>
        <time>2026-08-11T06:41:33.303Z</time>
      </trkpt>
      <trkpt lat="49.8354" lon="5.72285">
        <ele>321.47</ele>
        <time>2026-08-11T06:41:39.298Z</time>
      </trkpt>
      <trkpt lat="49.83546" lon="5.72329">
        <ele>320.86</ele>
        <time>2026-08-11T06:41:44.301Z</time>
      </trkpt>
      <trkpt lat="49.83555" lon="5.72373">
        <ele>320.73</ele>
        <time>2026-08-11T06:41:49.341Z</time>
      </trkpt>
      <trkpt lat="49.83569" lon="5.72425">
        <ele>321</ele>
        <time>2026-08-11T06:41:55.361Z</time>
      </trkpt>
      <trkpt lat="49.83582" lon="5.72478">
        <ele>321.64</ele>
        <time>2026-08-11T06:42:01.347Z</time>
      </trkpt>
      <trkpt lat="49.83595" lon="5.7253">
        <ele>319.96</ele>
        <time>2026-08-11T06:42:07.347Z</time>
      </trkpt>
      <trkpt lat="49.83607" lon="5.72583">
        <ele>319.6</ele>
        <time>2026-08-11T06:42:13.343Z</time>
      </trkpt>
      <trkpt lat="49.83616" lon="5.72637">
        <ele>319.04</ele>
        <time>2026-08-11T06:42:19.340Z</time>
      </trkpt>
      <trkpt lat="49.83621" lon="5.72691">
        <ele>318.57</ele>
        <time>2026-08-11T06:42:25.361Z</time>
      </trkpt>
      <trkpt lat="49.8362" lon="5.72741">
        <ele>318.73</ele>
        <time>2026-08-11T06:42:31.347Z</time>
      </trkpt>
      <trkpt lat="49.83611" lon="5.72765">
        <ele>319.14</ele>
        <time>2026-08-11T06:42:37.347Z</time>
      </trkpt>
      <trkpt lat="49.83599" lon="5.72758">
        <ele>321.68</ele>
        <time>2026-08-11T06:42:43.345Z</time>
      </trkpt>
      <trkpt lat="49.83583" lon="5.72751">
        <ele>323.41</ele>
        <time>2026-08-11T06:42:49.337Z</time>
      </trkpt>
      <trkpt lat="49.8357" lon="5.72783">
        <ele>324.78</ele>
        <time>2026-08-11T06:42:55.364Z</time>
      </trkpt>
      <trkpt lat="49.83568" lon="5.72832">
        <ele>324.06</ele>
        <time>2026-08-11T06:43:01.347Z</time>
      </trkpt>
      <trkpt lat="49.83556" lon="5.72874">
        <ele>320.9</ele>
        <time>2026-08-11T06:43:07.344Z</time>
      </trkpt>
      <trkpt lat="49.83538" lon="5.72913">
        <ele>318.22</ele>
        <time>2026-08-11T06:43:13.343Z</time>
      </trkpt>
      <trkpt lat="49.83513" lon="5.7293">
        <ele>315.66</ele>
        <time>2026-08-11T06:43:19.344Z</time>
      </trkpt>
      <trkpt lat="49.83483" lon="5.72931">
        <ele>312.87</ele>
        <time>2026-08-11T06:43:25.306Z</time>
      </trkpt>
      <trkpt lat="49.8345" lon="5.72923">
        <ele>308.98</ele>
        <time>2026-08-11T06:43:31.318Z</time>
      </trkpt>
      <trkpt lat="49.83415" lon="5.72911">
        <ele>309.23</ele>
        <time>2026-08-11T06:43:37.343Z</time>
      </trkpt>
      <trkpt lat="49.83386" lon="5.72879">
        <ele>311.8</ele>
        <time>2026-08-11T06:43:43.341Z</time>
      </trkpt>
      <trkpt lat="49.83376" lon="5.72858">
        <ele>315.43</ele>
        <time>2026-08-11T06:43:49.346Z</time>
      </trkpt>
      <trkpt lat="49.83363" lon="5.72862">
        <ele>318.14</ele>
        <time>2026-08-11T06:43:55.360Z</time>
      </trkpt>
      <trkpt lat="49.83347" lon="5.72871">
        <ele>317.65</ele>
        <time>2026-08-11T06:44:01.348Z</time>
      </trkpt>
      <trkpt lat="49.83319" lon="5.72857">
        <ele>316.97</ele>
        <time>2026-08-11T06:44:07.345Z</time>
      </trkpt>
      <trkpt lat="49.8329" lon="5.72839">
        <ele>316.51</ele>
        <time>2026-08-11T06:44:13.348Z</time>
      </trkpt>
      <trkpt lat="49.83256" lon="5.72835">
        <ele>315.51</ele>
        <time>2026-08-11T06:44:19.341Z</time>
      </trkpt>
      <trkpt lat="49.8322" lon="5.72849">
        <ele>314.42</ele>
        <time>2026-08-11T06:44:25.302Z</time>
      </trkpt>
      <trkpt lat="49.83194" lon="5.72852">
        <ele>314.54</ele>
        <time>2026-08-11T06:44:30.306Z</time>
      </trkpt>
      <trkpt lat="49.83174" lon="5.72872">
        <ele>316.04</ele>
        <time>2026-08-11T06:44:35.308Z</time>
      </trkpt>
      <trkpt lat="49.83145" lon="5.72886">
        <ele>317.24</ele>
        <time>2026-08-11T06:44:41.305Z</time>
      </trkpt>
      <trkpt lat="49.83114" lon="5.72905">
        <ele>319.43</ele>
        <time>2026-08-11T06:44:47.302Z</time>
      </trkpt>
      <trkpt lat="49.83088" lon="5.72937">
        <ele>318.82</ele>
        <time>2026-08-11T06:44:53.300Z</time>
      </trkpt>
      <trkpt lat="49.83063" lon="5.72954">
        <ele>318.83</ele>
        <time>2026-08-11T06:44:59.309Z</time>
      </trkpt>
      <trkpt lat="49.83036" lon="5.72974">
        <ele>318.37</ele>
        <time>2026-08-11T06:45:05.303Z</time>
      </trkpt>
      <trkpt lat="49.83017" lon="5.73012">
        <ele>317.26</ele>
        <time>2026-08-11T06:45:11.304Z</time>
      </trkpt>
      <trkpt lat="49.83006" lon="5.73052">
        <ele>317.17</ele>
        <time>2026-08-11T06:45:17.303Z</time>
      </trkpt>
      <trkpt lat="49.82996" lon="5.73096">
        <ele>316.54</ele>
        <time>2026-08-11T06:45:23.303Z</time>
      </trkpt>
      <trkpt lat="49.82987" lon="5.73138">
        <ele>317.12</ele>
        <time>2026-08-11T06:45:29.302Z</time>
      </trkpt>
      <trkpt lat="49.82983" lon="5.73171">
        <ele>318.68</ele>
        <time>2026-08-11T06:45:34.303Z</time>
      </trkpt>
      <trkpt lat="49.82984" lon="5.73213">
        <ele>318.93</ele>
        <time>2026-08-11T06:45:40.300Z</time>
      </trkpt>
      <trkpt lat="49.82993" lon="5.73246">
        <ele>318.26</ele>
        <time>2026-08-11T06:45:45.300Z</time>
      </trkpt>
      <trkpt lat="49.83016" lon="5.73269">
        <ele>317.53</ele>
        <time>2026-08-11T06:45:51.304Z</time>
      </trkpt>
      <trkpt lat="49.83042" lon="5.73267">
        <ele>317.78</ele>
        <time>2026-08-11T06:45:57.310Z</time>
      </trkpt>
      <trkpt lat="49.83055" lon="5.73311">
        <ele>318.34</ele>
        <time>2026-08-11T06:46:03.299Z</time>
      </trkpt>
      <trkpt lat="49.83061" lon="5.73352">
        <ele>317.62</ele>
        <time>2026-08-11T06:46:08.303Z</time>
      </trkpt>
      <trkpt lat="49.8306" lon="5.73385">
        <ele>316.41</ele>
        <time>2026-08-11T06:46:13.356Z</time>
      </trkpt>
      <trkpt lat="49.8306" lon="5.73422">
        <ele>314.96</ele>
        <time>2026-08-11T06:46:19.359Z</time>
      </trkpt>
      <trkpt lat="49.83061" lon="5.73455">
        <ele>315.85</ele>
        <time>2026-08-11T06:46:25.366Z</time>
      </trkpt>
      <trkpt lat="49.83053" lon="5.73485">
        <ele>317.46</ele>
        <time>2026-08-11T06:46:31.304Z</time>
      </trkpt>
      <trkpt lat="49.83058" lon="5.73507">
        <ele>317.41</ele>
        <time>2026-08-11T06:46:36.305Z</time>
      </trkpt>
      <trkpt lat="49.8307" lon="5.73515">
        <ele>319.65</ele>
        <time>2026-08-11T06:46:41.306Z</time>
      </trkpt>
      <trkpt lat="49.83088" lon="5.73532">
        <ele>322.5</ele>
        <time>2026-08-11T06:46:47.308Z</time>
      </trkpt>
      <trkpt lat="49.83094" lon="5.73521">
        <ele>321.56</ele>
        <time>2026-08-11T06:46:54.308Z</time>
      </trkpt>
      <trkpt lat="49.831" lon="5.73511">
        <ele>321.95</ele>
        <time>2026-08-11T06:47:00.306Z</time>
      </trkpt>
      <trkpt lat="49.83108" lon="5.73498">
        <ele>321.84</ele>
        <time>2026-08-11T06:47:06.303Z</time>
      </trkpt>
      <trkpt lat="49.83116" lon="5.73486">
        <ele>322.03</ele>
        <time>2026-08-11T06:47:11.309Z</time>
      </trkpt>
      <trkpt lat="49.83128" lon="5.73482">
        <ele>321.95</ele>
        <time>2026-08-11T06:47:17.307Z</time>
      </trkpt>
      <trkpt lat="49.83135" lon="5.7349">
        <ele>324.3</ele>
        <time>2026-08-11T06:47:24.302Z</time>
      </trkpt>
      <trkpt lat="49.83134" lon="5.73504">
        <ele>324.72</ele>
        <time>2026-08-11T06:47:30.305Z</time>
      </trkpt>
      <trkpt lat="49.83136" lon="5.73527">
        <ele>324.62</ele>
        <time>2026-08-11T06:47:35.308Z</time>
      </trkpt>
      <trkpt lat="49.83136" lon="5.73573">
        <ele>322.35</ele>
        <time>2026-08-11T06:47:41.304Z</time>
      </trkpt>
      <trkpt lat="49.83138" lon="5.73627">
        <ele>320.84</ele>
        <time>2026-08-11T06:47:47.301Z</time>
      </trkpt>
      <trkpt lat="49.83141" lon="5.73675">
        <ele>320.23</ele>
        <time>2026-08-11T06:47:52.305Z</time>
      </trkpt>
      <trkpt lat="49.83148" lon="5.73729">
        <ele>320.25</ele>
        <time>2026-08-11T06:47:58.303Z</time>
      </trkpt>
      <trkpt lat="49.83165" lon="5.7376">
        <ele>321.17</ele>
        <time>2026-08-11T06:48:03.309Z</time>
      </trkpt>
      <trkpt lat="49.83182" lon="5.73787">
        <ele>321.93</ele>
        <time>2026-08-11T06:48:09.304Z</time>
      </trkpt>
      <trkpt lat="49.83182" lon="5.73772">
        <ele>321.42</ele>
        <time>2026-08-11T06:48:16.309Z</time>
      </trkpt>
      <trkpt lat="49.83164" lon="5.73747">
        <ele>322.27</ele>
        <time>2026-08-11T06:48:22.303Z</time>
      </trkpt>
      <trkpt lat="49.83148" lon="5.73726">
        <ele>322.45</ele>
        <time>2026-08-11T06:48:28.304Z</time>
      </trkpt>
      <trkpt lat="49.8314" lon="5.73736">
        <ele>321.58</ele>
        <time>2026-08-11T06:48:33.307Z</time>
      </trkpt>
      <trkpt lat="49.83135" lon="5.73751">
        <ele>320.21</ele>
        <time>2026-08-11T06:48:38.307Z</time>
      </trkpt>
      <trkpt lat="49.8313" lon="5.73765">
        <ele>318.49</ele>
        <time>2026-08-11T06:48:43.347Z</time>
      </trkpt>
      <trkpt lat="49.83124" lon="5.73781">
        <ele>316.44</ele>
        <time>2026-08-11T06:48:49.358Z</time>
      </trkpt>
      <trkpt lat="49.83118" lon="5.73804">
        <ele>318.05</ele>
        <time>2026-08-11T06:48:55.307Z</time>
      </trkpt>
      <trkpt lat="49.83124" lon="5.73818">
        <ele>312.7</ele>
        <time>2026-08-11T06:49:00.330Z</time>
      </trkpt>
      <trkpt lat="49.83138" lon="5.73839">
        <ele>311.65</ele>
        <time>2026-08-11T06:49:06.307Z</time>
      </trkpt>
      <trkpt lat="49.83152" lon="5.73858">
        <ele>313.84</ele>
        <time>2026-08-11T06:49:12.307Z</time>
      </trkpt>
      <trkpt lat="49.83167" lon="5.73879">
        <ele>316.97</ele>
        <time>2026-08-11T06:49:18.297Z</time>
      </trkpt>
      <trkpt lat="49.83177" lon="5.739">
        <ele>318.81</ele>
        <time>2026-08-11T06:49:24.308Z</time>
      </trkpt>
      <trkpt lat="49.83188" lon="5.73917">
        <ele>319.9</ele>
        <time>2026-08-11T06:49:29.314Z</time>
      </trkpt>
      <trkpt lat="49.83199" lon="5.73935">
        <ele>318.91</ele>
        <time>2026-08-11T06:49:35.305Z</time>
      </trkpt>
      <trkpt lat="49.83207" lon="5.73952">
        <ele>320.68</ele>
        <time>2026-08-11T06:49:41.305Z</time>
      </trkpt>
      <trkpt lat="49.83215" lon="5.73958">
        <ele>323.95</ele>
        <time>2026-08-11T06:49:46.305Z</time>
      </trkpt>
      <trkpt lat="49.83229" lon="5.73968">
        <ele>325.87</ele>
        <time>2026-08-11T06:49:52.307Z</time>
      </trkpt>
      <trkpt lat="49.83243" lon="5.73986">
        <ele>326.62</ele>
        <time>2026-08-11T06:49:58.306Z</time>
      </trkpt>
      <trkpt lat="49.83254" lon="5.7401">
        <ele>327.27</ele>
        <time>2026-08-11T06:50:04.305Z</time>
      </trkpt>
      <trkpt lat="49.83267" lon="5.74034">
        <ele>327.99</ele>
        <time>2026-08-11T06:50:10.305Z</time>
      </trkpt>
      <trkpt lat="49.83273" lon="5.74059">
        <ele>326.2</ele>
        <time>2026-08-11T06:50:16.304Z</time>
      </trkpt>
      <trkpt lat="49.8328" lon="5.74076">
        <ele>322.38</ele>
        <time>2026-08-11T06:50:21.304Z</time>
      </trkpt>
      <trkpt lat="49.83291" lon="5.74075">
        <ele>319.62</ele>
        <time>2026-08-11T06:52:06.290Z</time>
      </trkpt>
      <trkpt lat="49.83301" lon="5.74063">
        <ele>320.58</ele>
        <time>2026-08-11T06:52:11.295Z</time>
      </trkpt>
      <trkpt lat="49.83309" lon="5.74053">
        <ele>320.87</ele>
        <time>2026-08-11T06:52:25.350Z</time>
      </trkpt>
      <trkpt lat="49.83326" lon="5.74062">
        <ele>319.12</ele>
        <time>2026-08-11T06:52:31.294Z</time>
      </trkpt>
      <trkpt lat="49.83318" lon="5.74085">
        <ele>318.88</ele>
        <time>2026-08-11T06:52:36.295Z</time>
      </trkpt>
      <trkpt lat="49.83309" lon="5.74115">
        <ele>319.18</ele>
        <time>2026-08-11T06:52:41.305Z</time>
      </trkpt>
      <trkpt lat="49.833" lon="5.74156">
        <ele>318.81</ele>
        <time>2026-08-11T06:52:47.296Z</time>
      </trkpt>
      <trkpt lat="49.83293" lon="5.74192">
        <ele>320.11</ele>
        <time>2026-08-11T06:52:53.290Z</time>
      </trkpt>
      <trkpt lat="49.83289" lon="5.7422">
        <ele>321.48</ele>
        <time>2026-08-11T06:52:58.292Z</time>
      </trkpt>
      <trkpt lat="49.8328" lon="5.74244">
        <ele>321.22</ele>
        <time>2026-08-11T06:53:03.300Z</time>
      </trkpt>
      <trkpt lat="49.8327" lon="5.74267">
        <ele>320.51</ele>
        <time>2026-08-11T06:53:08.314Z</time>
      </trkpt>
      <trkpt lat="49.83261" lon="5.74283">
        <ele>319.76</ele>
        <time>2026-08-11T06:53:13.341Z</time>
      </trkpt>
      <trkpt lat="49.83251" lon="5.74309">
        <ele>321.79</ele>
        <time>2026-08-11T06:53:19.342Z</time>
      </trkpt>
      <trkpt lat="49.83244" lon="5.74325">
        <ele>321.55</ele>
        <time>2026-08-11T06:53:25.292Z</time>
      </trkpt>
      <trkpt lat="49.83242" lon="5.74341">
        <ele>322.18</ele>
        <time>2026-08-11T06:53:30.292Z</time>
      </trkpt>
      <trkpt lat="49.83237" lon="5.74359">
        <ele>323.17</ele>
        <time>2026-08-11T06:53:35.292Z</time>
      </trkpt>
      <trkpt lat="49.83231" lon="5.74377">
        <ele>322.7</ele>
        <time>2026-08-11T06:53:40.301Z</time>
      </trkpt>
      <trkpt lat="49.83221" lon="5.74398">
        <ele>320.89</ele>
        <time>2026-08-11T06:53:46.315Z</time>
      </trkpt>
      <trkpt lat="49.83211" lon="5.74415">
        <ele>320.99</ele>
        <time>2026-08-11T06:53:52.303Z</time>
      </trkpt>
      <trkpt lat="49.832" lon="5.74431">
        <ele>318.99</ele>
        <time>2026-08-11T06:53:58.296Z</time>
      </trkpt>
      <trkpt lat="49.83187" lon="5.74445">
        <ele>318.56</ele>
        <time>2026-08-11T06:54:04.307Z</time>
      </trkpt>
      <trkpt lat="49.83175" lon="5.74457">
        <ele>316.5</ele>
        <time>2026-08-11T06:54:10.304Z</time>
      </trkpt>
      <trkpt lat="49.83164" lon="5.74469">
        <ele>316.9</ele>
        <time>2026-08-11T06:54:15.307Z</time>
      </trkpt>
      <trkpt lat="49.83153" lon="5.74484">
        <ele>315.97</ele>
        <time>2026-08-11T06:54:21.306Z</time>
      </trkpt>
      <trkpt lat="49.8314" lon="5.74498">
        <ele>314.26</ele>
        <time>2026-08-11T06:54:27.303Z</time>
      </trkpt>
      <trkpt lat="49.83127" lon="5.74508">
        <ele>314.75</ele>
        <time>2026-08-11T06:54:32.308Z</time>
      </trkpt>
      <trkpt lat="49.83114" lon="5.74516">
        <ele>315.22</ele>
        <time>2026-08-11T06:54:37.350Z</time>
      </trkpt>
      <trkpt lat="49.83099" lon="5.74524">
        <ele>315.5</ele>
        <time>2026-08-11T06:54:43.353Z</time>
      </trkpt>
      <trkpt lat="49.83082" lon="5.74532">
        <ele>316.37</ele>
        <time>2026-08-11T06:54:49.348Z</time>
      </trkpt>
      <trkpt lat="49.83066" lon="5.7454">
        <ele>318.65</ele>
        <time>2026-08-11T06:54:55.360Z</time>
      </trkpt>
      <trkpt lat="49.83052" lon="5.74551">
        <ele>317.92</ele>
        <time>2026-08-11T06:55:01.361Z</time>
      </trkpt>
      <trkpt lat="49.83035" lon="5.74557">
        <ele>315.62</ele>
        <time>2026-08-11T06:55:07.349Z</time>
      </trkpt>
      <trkpt lat="49.8302" lon="5.74563">
        <ele>312.72</ele>
        <time>2026-08-11T06:55:13.354Z</time>
      </trkpt>
      <trkpt lat="49.83003" lon="5.74572">
        <ele>315.41</ele>
        <time>2026-08-11T06:55:19.355Z</time>
      </trkpt>
      <trkpt lat="49.8299" lon="5.74583">
        <ele>319.76</ele>
        <time>2026-08-11T06:55:25.370Z</time>
      </trkpt>
      <trkpt lat="49.82976" lon="5.74594">
        <ele>322.13</ele>
        <time>2026-08-11T06:55:31.343Z</time>
      </trkpt>
      <trkpt lat="49.82961" lon="5.74608">
        <ele>322.77</ele>
        <time>2026-08-11T06:55:37.355Z</time>
      </trkpt>
      <trkpt lat="49.8295" lon="5.7462">
        <ele>323.72</ele>
        <time>2026-08-11T06:55:43.351Z</time>
      </trkpt>
      <trkpt lat="49.82938" lon="5.74634">
        <ele>324.44</ele>
        <time>2026-08-11T06:55:49.350Z</time>
      </trkpt>
      <trkpt lat="49.82924" lon="5.74648">
        <ele>327.33</ele>
        <time>2026-08-11T06:55:55.321Z</time>
      </trkpt>
      <trkpt lat="49.8291" lon="5.74663">
        <ele>330.55</ele>
        <time>2026-08-11T06:56:01.358Z</time>
      </trkpt>
      <trkpt lat="49.829" lon="5.74675">
        <ele>329.46</ele>
        <time>2026-08-11T06:56:07.347Z</time>
      </trkpt>
      <trkpt lat="49.82886" lon="5.74687">
        <ele>329.71</ele>
        <time>2026-08-11T06:56:13.350Z</time>
      </trkpt>
      <trkpt lat="49.82873" lon="5.74699">
        <ele>328.82</ele>
        <time>2026-08-11T06:56:19.350Z</time>
      </trkpt>
      <trkpt lat="49.82855" lon="5.74708">
        <ele>330.76</ele>
        <time>2026-08-11T06:56:25.364Z</time>
      </trkpt>
      <trkpt lat="49.82838" lon="5.74713">
        <ele>333.55</ele>
        <time>2026-08-11T06:56:31.355Z</time>
      </trkpt>
      <trkpt lat="49.82821" lon="5.74716">
        <ele>335.83</ele>
        <time>2026-08-11T06:56:37.353Z</time>
      </trkpt>
      <trkpt lat="49.82805" lon="5.7472">
        <ele>339.4</ele>
        <time>2026-08-11T06:56:43.349Z</time>
      </trkpt>
      <trkpt lat="49.82789" lon="5.74724">
        <ele>342.89</ele>
        <time>2026-08-11T06:56:49.354Z</time>
      </trkpt>
      <trkpt lat="49.82775" lon="5.7473">
        <ele>343.59</ele>
        <time>2026-08-11T06:56:55.304Z</time>
      </trkpt>
      <trkpt lat="49.82763" lon="5.74736">
        <ele>344.12</ele>
        <time>2026-08-11T06:57:00.308Z</time>
      </trkpt>
      <trkpt lat="49.82748" lon="5.74746">
        <ele>343.51</ele>
        <time>2026-08-11T06:57:06.304Z</time>
      </trkpt>
      <trkpt lat="49.82736" lon="5.74752">
        <ele>342.8</ele>
        <time>2026-08-11T06:57:11.306Z</time>
      </trkpt>
      <trkpt lat="49.82723" lon="5.74758">
        <ele>342.16</ele>
        <time>2026-08-11T06:57:16.309Z</time>
      </trkpt>
      <trkpt lat="49.82709" lon="5.74767">
        <ele>342.86</ele>
        <time>2026-08-11T06:57:22.309Z</time>
      </trkpt>
      <trkpt lat="49.8269" lon="5.74774">
        <ele>347.47</ele>
        <time>2026-08-11T06:57:28.304Z</time>
      </trkpt>
      <trkpt lat="49.82676" lon="5.74781">
        <ele>347.48</ele>
        <time>2026-08-11T06:57:33.309Z</time>
      </trkpt>
      <trkpt lat="49.82661" lon="5.7479">
        <ele>347.61</ele>
        <time>2026-08-11T06:57:39.303Z</time>
      </trkpt>
      <trkpt lat="49.82647" lon="5.74798">
        <ele>348.49</ele>
        <time>2026-08-11T06:57:44.304Z</time>
      </trkpt>
      <trkpt lat="49.82635" lon="5.74808">
        <ele>349.12</ele>
        <time>2026-08-11T06:57:49.352Z</time>
      </trkpt>
      <trkpt lat="49.82622" lon="5.74823">
        <ele>348.44</ele>
        <time>2026-08-11T06:57:55.361Z</time>
      </trkpt>
      <trkpt lat="49.8261" lon="5.7484">
        <ele>348.18</ele>
        <time>2026-08-11T06:58:01.361Z</time>
      </trkpt>
      <trkpt lat="49.82599" lon="5.74858">
        <ele>349.62</ele>
        <time>2026-08-11T06:58:07.355Z</time>
      </trkpt>
      <trkpt lat="49.82589" lon="5.74877">
        <ele>347.36</ele>
        <time>2026-08-11T06:58:13.348Z</time>
      </trkpt>
      <trkpt lat="49.82577" lon="5.749">
        <ele>345.97</ele>
        <time>2026-08-11T06:58:19.351Z</time>
      </trkpt>
      <trkpt lat="49.82564" lon="5.74923">
        <ele>346.45</ele>
        <time>2026-08-11T06:58:25.367Z</time>
      </trkpt>
      <trkpt lat="49.8255" lon="5.74945">
        <ele>348.55</ele>
        <time>2026-08-11T06:58:31.305Z</time>
      </trkpt>
      <trkpt lat="49.82538" lon="5.74964">
        <ele>350.07</ele>
        <time>2026-08-11T06:58:36.309Z</time>
      </trkpt>
      <trkpt lat="49.82526" lon="5.74987">
        <ele>352.5</ele>
        <time>2026-08-11T06:58:42.304Z</time>
      </trkpt>
      <trkpt lat="49.82518" lon="5.75008">
        <ele>353.74</ele>
        <time>2026-08-11T06:58:47.313Z</time>
      </trkpt>
      <trkpt lat="49.8251" lon="5.75033">
        <ele>354.93</ele>
        <time>2026-08-11T06:58:53.305Z</time>
      </trkpt>
      <trkpt lat="49.82505" lon="5.75061">
        <ele>354.59</ele>
        <time>2026-08-11T06:58:58.305Z</time>
      </trkpt>
      <trkpt lat="49.82504" lon="5.75097">
        <ele>352.15</ele>
        <time>2026-08-11T06:59:04.305Z</time>
      </trkpt>
      <trkpt lat="49.82507" lon="5.75127">
        <ele>353.98</ele>
        <time>2026-08-11T06:59:09.305Z</time>
      </trkpt>
      <trkpt lat="49.82512" lon="5.75163">
        <ele>353.84</ele>
        <time>2026-08-11T06:59:15.310Z</time>
      </trkpt>
      <trkpt lat="49.82519" lon="5.752">
        <ele>353.18</ele>
        <time>2026-08-11T06:59:21.309Z</time>
      </trkpt>
      <trkpt lat="49.8252" lon="5.75228">
        <ele>354.91</ele>
        <time>2026-08-11T06:59:26.309Z</time>
      </trkpt>
      <trkpt lat="49.82518" lon="5.75253">
        <ele>354.1</ele>
        <time>2026-08-11T06:59:31.364Z</time>
      </trkpt>
      <trkpt lat="49.82509" lon="5.75242">
        <ele>354.04</ele>
        <time>2026-08-11T06:59:37.353Z</time>
      </trkpt>
      <trkpt lat="49.82497" lon="5.75225">
        <ele>352</ele>
        <time>2026-08-11T06:59:43.351Z</time>
      </trkpt>
      <trkpt lat="49.82498" lon="5.75262">
        <ele>354.27</ele>
        <time>2026-08-11T06:59:49.353Z</time>
      </trkpt>
      <trkpt lat="49.82503" lon="5.753">
        <ele>354.51</ele>
        <time>2026-08-11T06:59:55.363Z</time>
      </trkpt>
      <trkpt lat="49.82503" lon="5.75336">
        <ele>353.42</ele>
        <time>2026-08-11T07:00:01.334Z</time>
      </trkpt>
      <trkpt lat="49.82499" lon="5.75374">
        <ele>354.4</ele>
        <time>2026-08-11T07:00:07.349Z</time>
      </trkpt>
      <trkpt lat="49.82486" lon="5.75403">
        <ele>355.38</ele>
        <time>2026-08-11T07:00:13.356Z</time>
      </trkpt>
      <trkpt lat="49.82476" lon="5.75419">
        <ele>354.73</ele>
        <time>2026-08-11T07:00:19.353Z</time>
      </trkpt>
      <trkpt lat="49.82462" lon="5.75426">
        <ele>355.63</ele>
        <time>2026-08-11T07:00:25.357Z</time>
      </trkpt>
      <trkpt lat="49.82445" lon="5.75431">
        <ele>356.49</ele>
        <time>2026-08-11T07:00:31.358Z</time>
      </trkpt>
      <trkpt lat="49.8243" lon="5.75429">
        <ele>355.7</ele>
        <time>2026-08-11T07:00:37.355Z</time>
      </trkpt>
      <trkpt lat="49.82414" lon="5.75423">
        <ele>353.21</ele>
        <time>2026-08-11T07:00:43.355Z</time>
      </trkpt>
      <trkpt lat="49.82395" lon="5.75419">
        <ele>350.3</ele>
        <time>2026-08-11T07:00:49.349Z</time>
      </trkpt>
      <trkpt lat="49.82375" lon="5.75417">
        <ele>352.17</ele>
        <time>2026-08-11T07:00:55.357Z</time>
      </trkpt>
      <trkpt lat="49.82357" lon="5.75421">
        <ele>357.4</ele>
        <time>2026-08-11T07:01:01.336Z</time>
      </trkpt>
      <trkpt lat="49.82344" lon="5.75431">
        <ele>358.61</ele>
        <time>2026-08-11T07:01:07.354Z</time>
      </trkpt>
      <trkpt lat="49.82329" lon="5.75438">
        <ele>361.28</ele>
        <time>2026-08-11T07:01:13.353Z</time>
      </trkpt>
      <trkpt lat="49.82315" lon="5.75444">
        <ele>362.89</ele>
        <time>2026-08-11T07:01:19.354Z</time>
      </trkpt>
      <trkpt lat="49.82299" lon="5.75446">
        <ele>361.73</ele>
        <time>2026-08-11T07:01:25.328Z</time>
      </trkpt>
      <trkpt lat="49.82284" lon="5.75446">
        <ele>358.04</ele>
        <time>2026-08-11T07:01:31.360Z</time>
      </trkpt>
      <trkpt lat="49.82267" lon="5.75444">
        <ele>355.95</ele>
        <time>2026-08-11T07:01:37.353Z</time>
      </trkpt>
      <trkpt lat="49.8225" lon="5.75431">
        <ele>356.69</ele>
        <time>2026-08-11T07:01:43.356Z</time>
      </trkpt>
      <trkpt lat="49.82238" lon="5.75406">
        <ele>361.02</ele>
        <time>2026-08-11T07:01:49.351Z</time>
      </trkpt>
      <trkpt lat="49.82233" lon="5.75384">
        <ele>365.83</ele>
        <time>2026-08-11T07:01:55.358Z</time>
      </trkpt>
      <trkpt lat="49.82236" lon="5.75364">
        <ele>367.85</ele>
        <time>2026-08-11T07:02:01.362Z</time>
      </trkpt>
      <trkpt lat="49.82243" lon="5.75343">
        <ele>368.81</ele>
        <time>2026-08-11T07:02:07.352Z</time>
      </trkpt>
      <trkpt lat="49.82252" lon="5.75328">
        <ele>371.66</ele>
        <time>2026-08-11T07:02:13.356Z</time>
      </trkpt>
      <trkpt lat="49.82266" lon="5.7531">
        <ele>373.8</ele>
        <time>2026-08-11T07:02:19.355Z</time>
      </trkpt>
      <trkpt lat="49.82282" lon="5.75301">
        <ele>374.57</ele>
        <time>2026-08-11T07:02:25.362Z</time>
      </trkpt>
      <trkpt lat="49.82297" lon="5.75301">
        <ele>372.87</ele>
        <time>2026-08-11T07:02:31.329Z</time>
      </trkpt>
      <trkpt lat="49.82321" lon="5.75304">
        <ele>371.48</ele>
        <time>2026-08-11T07:02:37.356Z</time>
      </trkpt>
      <trkpt lat="49.8234" lon="5.75303">
        <ele>370.08</ele>
        <time>2026-08-11T07:02:43.350Z</time>
      </trkpt>
      <trkpt lat="49.8236" lon="5.75297">
        <ele>371.51</ele>
        <time>2026-08-11T07:02:49.352Z</time>
      </trkpt>
      <trkpt lat="49.82384" lon="5.75281">
        <ele>371.93</ele>
        <time>2026-08-11T07:02:55.359Z</time>
      </trkpt>
      <trkpt lat="49.82401" lon="5.75253">
        <ele>370.65</ele>
        <time>2026-08-11T07:03:01.363Z</time>
      </trkpt>
      <trkpt lat="49.8241" lon="5.75211">
        <ele>370.26</ele>
        <time>2026-08-11T07:03:07.355Z</time>
      </trkpt>
      <trkpt lat="49.82408" lon="5.75163">
        <ele>368.75</ele>
        <time>2026-08-11T07:03:13.353Z</time>
      </trkpt>
      <trkpt lat="49.82397" lon="5.75122">
        <ele>367.2</ele>
        <time>2026-08-11T07:03:19.351Z</time>
      </trkpt>
      <trkpt lat="49.82381" lon="5.75091">
        <ele>366.3</ele>
        <time>2026-08-11T07:03:25.333Z</time>
      </trkpt>
      <trkpt lat="49.82359" lon="5.75069">
        <ele>366.91</ele>
        <time>2026-08-11T07:03:31.360Z</time>
      </trkpt>
      <trkpt lat="49.82334" lon="5.75057">
        <ele>367.95</ele>
        <time>2026-08-11T07:03:37.354Z</time>
      </trkpt>
      <trkpt lat="49.82314" lon="5.75044">
        <ele>367.73</ele>
        <time>2026-08-11T07:03:43.354Z</time>
      </trkpt>
      <trkpt lat="49.82292" lon="5.75035">
        <ele>364.35</ele>
        <time>2026-08-11T07:03:49.354Z</time>
      </trkpt>
      <trkpt lat="49.82269" lon="5.75022">
        <ele>362.66</ele>
        <time>2026-08-11T07:03:55.335Z</time>
      </trkpt>
      <trkpt lat="49.82249" lon="5.7501">
        <ele>365.46</ele>
        <time>2026-08-11T07:04:01.334Z</time>
      </trkpt>
      <trkpt lat="49.8223" lon="5.74997">
        <ele>365.6</ele>
        <time>2026-08-11T07:04:07.344Z</time>
      </trkpt>
      <trkpt lat="49.82212" lon="5.74979">
        <ele>366.74</ele>
        <time>2026-08-11T07:04:13.353Z</time>
      </trkpt>
      <trkpt lat="49.82193" lon="5.74963">
        <ele>367.81</ele>
        <time>2026-08-11T07:04:19.357Z</time>
      </trkpt>
      <trkpt lat="49.82175" lon="5.74952">
        <ele>367.22</ele>
        <time>2026-08-11T07:04:25.305Z</time>
      </trkpt>
      <trkpt lat="49.82159" lon="5.74939">
        <ele>368.06</ele>
        <time>2026-08-11T07:04:30.309Z</time>
      </trkpt>
      <trkpt lat="49.82142" lon="5.74924">
        <ele>369.41</ele>
        <time>2026-08-11T07:04:35.310Z</time>
      </trkpt>
      <trkpt lat="49.82124" lon="5.74906">
        <ele>370.21</ele>
        <time>2026-08-11T07:04:41.308Z</time>
      </trkpt>
      <trkpt lat="49.82104" lon="5.7489">
        <ele>370.4</ele>
        <time>2026-08-11T07:04:47.308Z</time>
      </trkpt>
      <trkpt lat="49.82086" lon="5.74882">
        <ele>370.74</ele>
        <time>2026-08-11T07:04:52.308Z</time>
      </trkpt>
      <trkpt lat="49.82066" lon="5.7487">
        <ele>369.03</ele>
        <time>2026-08-11T07:04:58.306Z</time>
      </trkpt>
      <trkpt lat="49.82049" lon="5.7486">
        <ele>369.09</ele>
        <time>2026-08-11T07:05:03.308Z</time>
      </trkpt>
      <trkpt lat="49.82032" lon="5.74852">
        <ele>366.32</ele>
        <time>2026-08-11T07:05:08.310Z</time>
      </trkpt>
      <trkpt lat="49.82016" lon="5.74845">
        <ele>362.43</ele>
        <time>2026-08-11T07:05:13.351Z</time>
      </trkpt>
      <trkpt lat="49.81996" lon="5.74835">
        <ele>358.01</ele>
        <time>2026-08-11T07:05:19.351Z</time>
      </trkpt>
      <trkpt lat="49.81975" lon="5.74824">
        <ele>356.71</ele>
        <time>2026-08-11T07:05:25.367Z</time>
      </trkpt>
      <trkpt lat="49.81952" lon="5.74808">
        <ele>360.68</ele>
        <time>2026-08-11T07:05:31.336Z</time>
      </trkpt>
      <trkpt lat="49.81932" lon="5.74789">
        <ele>366.84</ele>
        <time>2026-08-11T07:05:37.357Z</time>
      </trkpt>
      <trkpt lat="49.81913" lon="5.74769">
        <ele>370.6</ele>
        <time>2026-08-11T07:05:43.357Z</time>
      </trkpt>
      <trkpt lat="49.81895" lon="5.74751">
        <ele>372.85</ele>
        <time>2026-08-11T07:05:49.353Z</time>
      </trkpt>
      <trkpt lat="49.81874" lon="5.74741">
        <ele>373.25</ele>
        <time>2026-08-11T07:05:55.311Z</time>
      </trkpt>
      <trkpt lat="49.8185" lon="5.7474">
        <ele>376.34</ele>
        <time>2026-08-11T07:06:01.341Z</time>
      </trkpt>
      <trkpt lat="49.81827" lon="5.74745">
        <ele>382.35</ele>
        <time>2026-08-11T07:06:07.351Z</time>
      </trkpt>
      <trkpt lat="49.81808" lon="5.74758">
        <ele>385.67</ele>
        <time>2026-08-11T07:06:13.356Z</time>
      </trkpt>
      <trkpt lat="49.81788" lon="5.74771">
        <ele>388.3</ele>
        <time>2026-08-11T07:06:19.349Z</time>
      </trkpt>
      <trkpt lat="49.8177" lon="5.74782">
        <ele>390.52</ele>
        <time>2026-08-11T07:06:25.363Z</time>
      </trkpt>
      <trkpt lat="49.81751" lon="5.74796">
        <ele>390.51</ele>
        <time>2026-08-11T07:06:31.337Z</time>
      </trkpt>
      <trkpt lat="49.81735" lon="5.74806">
        <ele>388.87</ele>
        <time>2026-08-11T07:06:37.352Z</time>
      </trkpt>
      <trkpt lat="49.81718" lon="5.74818">
        <ele>388.99</ele>
        <time>2026-08-11T07:06:43.356Z</time>
      </trkpt>
      <trkpt lat="49.81698" lon="5.74829">
        <ele>390.98</ele>
        <time>2026-08-11T07:06:49.362Z</time>
      </trkpt>
      <trkpt lat="49.81681" lon="5.74838">
        <ele>392.7</ele>
        <time>2026-08-11T07:06:55.364Z</time>
      </trkpt>
      <trkpt lat="49.81662" lon="5.7485">
        <ele>392.94</ele>
        <time>2026-08-11T07:07:01.363Z</time>
      </trkpt>
      <trkpt lat="49.81644" lon="5.74872">
        <ele>392.91</ele>
        <time>2026-08-11T07:07:07.354Z</time>
      </trkpt>
      <trkpt lat="49.81629" lon="5.74895">
        <ele>395.03</ele>
        <time>2026-08-11T07:07:13.354Z</time>
      </trkpt>
      <trkpt lat="49.81623" lon="5.74916">
        <ele>395.02</ele>
        <time>2026-08-11T07:07:19.472Z</time>
      </trkpt>
      <trkpt lat="49.81618" lon="5.74928">
        <ele>394.33</ele>
        <time>2026-08-11T07:08:43.365Z</time>
      </trkpt>
      <trkpt lat="49.81609" lon="5.74949">
        <ele>395.97</ele>
        <time>2026-08-11T07:08:49.364Z</time>
      </trkpt>
      <trkpt lat="49.81602" lon="5.7497">
        <ele>395.41</ele>
        <time>2026-08-11T07:08:55.370Z</time>
      </trkpt>
      <trkpt lat="49.81594" lon="5.74992">
        <ele>395.59</ele>
        <time>2026-08-11T07:09:01.365Z</time>
      </trkpt>
      <trkpt lat="49.81586" lon="5.75014">
        <ele>396.53</ele>
        <time>2026-08-11T07:09:07.367Z</time>
      </trkpt>
      <trkpt lat="49.81568" lon="5.7502">
        <ele>398.17</ele>
        <time>2026-08-11T07:09:13.368Z</time>
      </trkpt>
      <trkpt lat="49.81534" lon="5.75029">
        <ele>397.93</ele>
        <time>2026-08-11T07:09:19.365Z</time>
      </trkpt>
      <trkpt lat="49.81532" lon="5.75072">
        <ele>399.91</ele>
        <time>2026-08-11T07:09:25.356Z</time>
      </trkpt>
      <trkpt lat="49.8153" lon="5.75104">
        <ele>401.73</ele>
        <time>2026-08-11T07:09:31.337Z</time>
      </trkpt>
      <trkpt lat="49.81527" lon="5.75134">
        <ele>403.73</ele>
        <time>2026-08-11T07:09:37.365Z</time>
      </trkpt>
      <trkpt lat="49.8151" lon="5.75145">
        <ele>404.85</ele>
        <time>2026-08-11T07:09:43.373Z</time>
      </trkpt>
      <trkpt lat="49.81495" lon="5.75151">
        <ele>403.58</ele>
        <time>2026-08-11T07:09:49.366Z</time>
      </trkpt>
      <trkpt lat="49.8149" lon="5.75177">
        <ele>404.96</ele>
        <time>2026-08-11T07:09:55.365Z</time>
      </trkpt>
      <trkpt lat="49.81493" lon="5.75206">
        <ele>407.75</ele>
        <time>2026-08-11T07:10:01.363Z</time>
      </trkpt>
      <trkpt lat="49.81495" lon="5.75229">
        <ele>408.07</ele>
        <time>2026-08-11T07:10:07.374Z</time>
      </trkpt>
      <trkpt lat="49.81496" lon="5.75252">
        <ele>408.41</ele>
        <time>2026-08-11T07:10:13.372Z</time>
      </trkpt>
      <trkpt lat="49.81495" lon="5.75273">
        <ele>408.75</ele>
        <time>2026-08-11T07:10:19.367Z</time>
      </trkpt>
      <trkpt lat="49.81496" lon="5.75296">
        <ele>408.67</ele>
        <time>2026-08-11T07:10:25.368Z</time>
      </trkpt>
      <trkpt lat="49.81493" lon="5.75321">
        <ele>408.53</ele>
        <time>2026-08-11T07:10:31.367Z</time>
      </trkpt>
      <trkpt lat="49.81488" lon="5.75349">
        <ele>410.13</ele>
        <time>2026-08-11T07:10:37.369Z</time>
      </trkpt>
      <trkpt lat="49.81484" lon="5.75374">
        <ele>411.57</ele>
        <time>2026-08-11T07:10:43.370Z</time>
      </trkpt>
      <trkpt lat="49.8148" lon="5.75399">
        <ele>411.89</ele>
        <time>2026-08-11T07:10:49.368Z</time>
      </trkpt>
      <trkpt lat="49.81476" lon="5.75425">
        <ele>412.06</ele>
        <time>2026-08-11T07:10:55.373Z</time>
      </trkpt>
      <trkpt lat="49.81473" lon="5.75451">
        <ele>411.9</ele>
        <time>2026-08-11T07:11:01.334Z</time>
      </trkpt>
      <trkpt lat="49.81469" lon="5.75477">
        <ele>412.89</ele>
        <time>2026-08-11T07:11:07.368Z</time>
      </trkpt>
      <trkpt lat="49.81465" lon="5.75505">
        <ele>413.3</ele>
        <time>2026-08-11T07:11:13.364Z</time>
      </trkpt>
      <trkpt lat="49.81461" lon="5.75531">
        <ele>413.42</ele>
        <time>2026-08-11T07:11:19.368Z</time>
      </trkpt>
      <trkpt lat="49.81458" lon="5.75556">
        <ele>414.76</ele>
        <time>2026-08-11T07:11:25.369Z</time>
      </trkpt>
      <trkpt lat="49.81456" lon="5.75582">
        <ele>415.68</ele>
        <time>2026-08-11T07:11:31.306Z</time>
      </trkpt>
      <trkpt lat="49.81454" lon="5.75605">
        <ele>416.85</ele>
        <time>2026-08-11T07:11:36.309Z</time>
      </trkpt>
      <trkpt lat="49.81452" lon="5.75628">
        <ele>417.11</ele>
        <time>2026-08-11T07:11:41.310Z</time>
      </trkpt>
      <trkpt lat="49.8145" lon="5.75655">
        <ele>416.52</ele>
        <time>2026-08-11T07:11:47.314Z</time>
      </trkpt>
      <trkpt lat="49.81448" lon="5.75686">
        <ele>416.77</ele>
        <time>2026-08-11T07:11:53.309Z</time>
      </trkpt>
      <trkpt lat="49.81447" lon="5.75712">
        <ele>416.58</ele>
        <time>2026-08-11T07:11:58.309Z</time>
      </trkpt>
      <trkpt lat="49.81446" lon="5.75737">
        <ele>416.78</ele>
        <time>2026-08-11T07:12:03.312Z</time>
      </trkpt>
      <trkpt lat="49.81448" lon="5.75764">
        <ele>417.15</ele>
        <time>2026-08-11T07:12:09.308Z</time>
      </trkpt>
      <trkpt lat="49.81454" lon="5.75783">
        <ele>417.3</ele>
        <time>2026-08-11T07:12:14.308Z</time>
      </trkpt>
      <trkpt lat="49.81461" lon="5.75806">
        <ele>417.79</ele>
        <time>2026-08-11T07:12:19.368Z</time>
      </trkpt>
      <trkpt lat="49.8147" lon="5.75833">
        <ele>418.78</ele>
        <time>2026-08-11T07:12:25.368Z</time>
      </trkpt>
      <trkpt lat="49.81473" lon="5.75859">
        <ele>419.39</ele>
        <time>2026-08-11T07:12:31.347Z</time>
      </trkpt>
      <trkpt lat="49.81476" lon="5.75883">
        <ele>419.92</ele>
        <time>2026-08-11T07:12:37.370Z</time>
      </trkpt>
      <trkpt lat="49.81474" lon="5.75913">
        <ele>421.4</ele>
        <time>2026-08-11T07:12:43.369Z</time>
      </trkpt>
      <trkpt lat="49.81473" lon="5.75946">
        <ele>421.82</ele>
        <time>2026-08-11T07:12:49.367Z</time>
      </trkpt>
      <trkpt lat="49.81472" lon="5.75979">
        <ele>422.92</ele>
        <time>2026-08-11T07:12:55.366Z</time>
      </trkpt>
      <trkpt lat="49.81473" lon="5.76013">
        <ele>424.69</ele>
        <time>2026-08-11T07:13:01.366Z</time>
      </trkpt>
      <trkpt lat="49.81473" lon="5.76046">
        <ele>425.9</ele>
        <time>2026-08-11T07:13:07.367Z</time>
      </trkpt>
      <trkpt lat="49.81472" lon="5.76076">
        <ele>425.51</ele>
        <time>2026-08-11T07:13:13.367Z</time>
      </trkpt>
      <trkpt lat="49.8147" lon="5.76107">
        <ele>424.79</ele>
        <time>2026-08-11T07:13:19.370Z</time>
      </trkpt>
      <trkpt lat="49.81467" lon="5.76138">
        <ele>424.18</ele>
        <time>2026-08-11T07:13:25.373Z</time>
      </trkpt>
      <trkpt lat="49.81467" lon="5.7617">
        <ele>426.46</ele>
        <time>2026-08-11T07:13:31.335Z</time>
      </trkpt>
      <trkpt lat="49.81467" lon="5.76203">
        <ele>427.62</ele>
        <time>2026-08-11T07:13:37.366Z</time>
      </trkpt>
      <trkpt lat="49.81465" lon="5.76236">
        <ele>427.57</ele>
        <time>2026-08-11T07:13:43.371Z</time>
      </trkpt>
      <trkpt lat="49.81464" lon="5.7627">
        <ele>427.05</ele>
        <time>2026-08-11T07:13:49.371Z</time>
      </trkpt>
      <trkpt lat="49.81464" lon="5.76304">
        <ele>426.44</ele>
        <time>2026-08-11T07:13:55.341Z</time>
      </trkpt>
      <trkpt lat="49.81465" lon="5.76325">
        <ele>426.98</ele>
        <time>2026-08-11T07:14:01.367Z</time>
      </trkpt>
      <trkpt lat="49.8148" lon="5.76342">
        <ele>426.45</ele>
        <time>2026-08-11T07:14:07.371Z</time>
      </trkpt>
      <trkpt lat="49.81508" lon="5.76363">
        <ele>423.78</ele>
        <time>2026-08-11T07:14:13.364Z</time>
      </trkpt>
      <trkpt lat="49.81516" lon="5.76398">
        <ele>423.49</ele>
        <time>2026-08-11T07:14:19.364Z</time>
      </trkpt>
      <trkpt lat="49.81527" lon="5.76427">
        <ele>423.63</ele>
        <time>2026-08-11T07:14:25.370Z</time>
      </trkpt>
      <trkpt lat="49.81536" lon="5.76449">
        <ele>423.86</ele>
        <time>2026-08-11T07:14:31.368Z</time>
      </trkpt>
      <trkpt lat="49.81546" lon="5.76476">
        <ele>424.81</ele>
        <time>2026-08-11T07:14:37.366Z</time>
      </trkpt>
      <trkpt lat="49.81545" lon="5.76503">
        <ele>425.32</ele>
        <time>2026-08-11T07:14:43.365Z</time>
      </trkpt>
      <trkpt lat="49.81555" lon="5.76519">
        <ele>425.12</ele>
        <time>2026-08-11T07:14:49.365Z</time>
      </trkpt>
      <trkpt lat="49.81574" lon="5.76534">
        <ele>425.42</ele>
        <time>2026-08-11T07:14:55.368Z</time>
      </trkpt>
      <trkpt lat="49.81596" lon="5.76547">
        <ele>426.77</ele>
        <time>2026-08-11T07:15:01.332Z</time>
      </trkpt>
      <trkpt lat="49.81616" lon="5.76555">
        <ele>427.81</ele>
        <time>2026-08-11T07:15:07.364Z</time>
      </trkpt>
      <trkpt lat="49.81633" lon="5.76563">
        <ele>429.28</ele>
        <time>2026-08-11T07:15:13.366Z</time>
      </trkpt>
      <trkpt lat="49.81647" lon="5.76575">
        <ele>430.77</ele>
        <time>2026-08-11T07:15:19.370Z</time>
      </trkpt>
      <trkpt lat="49.81639" lon="5.76595">
        <ele>430.81</ele>
        <time>2026-08-11T07:15:25.368Z</time>
      </trkpt>
      <trkpt lat="49.81643" lon="5.76625">
        <ele>429.82</ele>
        <time>2026-08-11T07:15:31.367Z</time>
      </trkpt>
      <trkpt lat="49.81664" lon="5.76646">
        <ele>428.86</ele>
        <time>2026-08-11T07:15:37.367Z</time>
      </trkpt>
      <trkpt lat="49.81685" lon="5.76665">
        <ele>428.21</ele>
        <time>2026-08-11T07:15:43.364Z</time>
      </trkpt>
      <trkpt lat="49.81706" lon="5.76684">
        <ele>427.3</ele>
        <time>2026-08-11T07:15:49.364Z</time>
      </trkpt>
      <trkpt lat="49.81726" lon="5.76705">
        <ele>427.9</ele>
        <time>2026-08-11T07:15:55.334Z</time>
      </trkpt>
      <trkpt lat="49.81744" lon="5.76729">
        <ele>428.1</ele>
        <time>2026-08-11T07:16:01.367Z</time>
      </trkpt>
      <trkpt lat="49.81761" lon="5.76757">
        <ele>428.7</ele>
        <time>2026-08-11T07:16:07.367Z</time>
      </trkpt>
      <trkpt lat="49.81777" lon="5.76788">
        <ele>430.1</ele>
        <time>2026-08-11T07:16:13.362Z</time>
      </trkpt>
      <trkpt lat="49.81788" lon="5.76819">
        <ele>431.44</ele>
        <time>2026-08-11T07:16:19.369Z</time>
      </trkpt>
      <trkpt lat="49.81795" lon="5.76852">
        <ele>431.56</ele>
        <time>2026-08-11T07:16:25.336Z</time>
      </trkpt>
      <trkpt lat="49.81801" lon="5.76884">
        <ele>430.62</ele>
        <time>2026-08-11T07:16:31.337Z</time>
      </trkpt>
      <trkpt lat="49.81807" lon="5.76919">
        <ele>431.66</ele>
        <time>2026-08-11T07:16:37.365Z</time>
      </trkpt>
      <trkpt lat="49.81811" lon="5.76954">
        <ele>433.1</ele>
        <time>2026-08-11T07:16:43.362Z</time>
      </trkpt>
      <trkpt lat="49.81812" lon="5.76987">
        <ele>435.86</ele>
        <time>2026-08-11T07:16:49.368Z</time>
      </trkpt>
      <trkpt lat="49.8181" lon="5.77023">
        <ele>436.25</ele>
        <time>2026-08-11T07:16:55.305Z</time>
      </trkpt>
      <trkpt lat="49.81812" lon="5.77052">
        <ele>435.9</ele>
        <time>2026-08-11T07:17:00.306Z</time>
      </trkpt>
      <trkpt lat="49.81818" lon="5.77084">
        <ele>435.27</ele>
        <time>2026-08-11T07:17:06.312Z</time>
      </trkpt>
      <trkpt lat="49.8183" lon="5.77112">
        <ele>436.2</ele>
        <time>2026-08-11T07:17:12.305Z</time>
      </trkpt>
      <trkpt lat="49.81844" lon="5.77131">
        <ele>437.44</ele>
        <time>2026-08-11T07:17:17.305Z</time>
      </trkpt>
      <trkpt lat="49.81861" lon="5.77149">
        <ele>437.31</ele>
        <time>2026-08-11T07:17:23.308Z</time>
      </trkpt>
      <trkpt lat="49.8188" lon="5.7716">
        <ele>437.5</ele>
        <time>2026-08-11T07:17:29.306Z</time>
      </trkpt>
      <trkpt lat="49.819" lon="5.77164">
        <ele>438.49</ele>
        <time>2026-08-11T07:17:35.306Z</time>
      </trkpt>
      <trkpt lat="49.8192" lon="5.77161">
        <ele>439.3</ele>
        <time>2026-08-11T07:17:41.306Z</time>
      </trkpt>
      <trkpt lat="49.81936" lon="5.77152">
        <ele>439.06</ele>
        <time>2026-08-11T07:17:46.308Z</time>
      </trkpt>
      <trkpt lat="49.81951" lon="5.77139">
        <ele>439.01</ele>
        <time>2026-08-11T07:17:51.308Z</time>
      </trkpt>
      <trkpt lat="49.81969" lon="5.7712">
        <ele>439.19</ele>
        <time>2026-08-11T07:17:57.309Z</time>
      </trkpt>
      <trkpt lat="49.81989" lon="5.77098">
        <ele>439.19</ele>
        <time>2026-08-11T07:18:03.307Z</time>
      </trkpt>
      <trkpt lat="49.82005" lon="5.77085">
        <ele>439.61</ele>
        <time>2026-08-11T07:18:08.310Z</time>
      </trkpt>
      <trkpt lat="49.82023" lon="5.77077">
        <ele>439.95</ele>
        <time>2026-08-11T07:18:13.365Z</time>
      </trkpt>
      <trkpt lat="49.82045" lon="5.77076">
        <ele>441.24</ele>
        <time>2026-08-11T07:18:19.363Z</time>
      </trkpt>
      <trkpt lat="49.82068" lon="5.77077">
        <ele>442.05</ele>
        <time>2026-08-11T07:18:25.319Z</time>
      </trkpt>
      <trkpt lat="49.8209" lon="5.77079">
        <ele>443.65</ele>
        <time>2026-08-11T07:18:31.363Z</time>
      </trkpt>
      <trkpt lat="49.82113" lon="5.77082">
        <ele>443.79</ele>
        <time>2026-08-11T07:18:37.366Z</time>
      </trkpt>
      <trkpt lat="49.82136" lon="5.77089">
        <ele>444.09</ele>
        <time>2026-08-11T07:18:43.361Z</time>
      </trkpt>
      <trkpt lat="49.8216" lon="5.77102">
        <ele>444.12</ele>
        <time>2026-08-11T07:18:49.366Z</time>
      </trkpt>
      <trkpt lat="49.82183" lon="5.7712">
        <ele>443.9</ele>
        <time>2026-08-11T07:18:55.364Z</time>
      </trkpt>
      <trkpt lat="49.82206" lon="5.77141">
        <ele>443.96</ele>
        <time>2026-08-11T07:19:01.335Z</time>
      </trkpt>
      <trkpt lat="49.82229" lon="5.77163">
        <ele>443.79</ele>
        <time>2026-08-11T07:19:07.364Z</time>
      </trkpt>
      <trkpt lat="49.82252" lon="5.77184">
        <ele>443.79</ele>
        <time>2026-08-11T07:19:13.368Z</time>
      </trkpt>
      <trkpt lat="49.82274" lon="5.77205">
        <ele>444.29</ele>
        <time>2026-08-11T07:19:19.364Z</time>
      </trkpt>
      <trkpt lat="49.82296" lon="5.77226">
        <ele>444.69</ele>
        <time>2026-08-11T07:19:25.369Z</time>
      </trkpt>
      <trkpt lat="49.82319" lon="5.77249">
        <ele>445.36</ele>
        <time>2026-08-11T07:19:31.373Z</time>
      </trkpt>
      <trkpt lat="49.8234" lon="5.77273">
        <ele>445.38</ele>
        <time>2026-08-11T07:19:37.366Z</time>
      </trkpt>
      <trkpt lat="49.82361" lon="5.77297">
        <ele>445.91</ele>
        <time>2026-08-11T07:19:43.367Z</time>
      </trkpt>
      <trkpt lat="49.82382" lon="5.77317">
        <ele>446.43</ele>
        <time>2026-08-11T07:19:49.363Z</time>
      </trkpt>
      <trkpt lat="49.82404" lon="5.77337">
        <ele>446.45</ele>
        <time>2026-08-11T07:19:55.365Z</time>
      </trkpt>
      <trkpt lat="49.82425" lon="5.77361">
        <ele>447.54</ele>
        <time>2026-08-11T07:20:01.364Z</time>
      </trkpt>
      <trkpt lat="49.82444" lon="5.77388">
        <ele>447.54</ele>
        <time>2026-08-11T07:20:07.366Z</time>
      </trkpt>
      <trkpt lat="49.82465" lon="5.77414">
        <ele>447.63</ele>
        <time>2026-08-11T07:20:13.369Z</time>
      </trkpt>
      <trkpt lat="49.82486" lon="5.77438">
        <ele>447.64</ele>
        <time>2026-08-11T07:20:19.364Z</time>
      </trkpt>
      <trkpt lat="49.82507" lon="5.77462">
        <ele>447.58</ele>
        <time>2026-08-11T07:20:25.363Z</time>
      </trkpt>
      <trkpt lat="49.82527" lon="5.77485">
        <ele>448.02</ele>
        <time>2026-08-11T07:20:31.366Z</time>
      </trkpt>
      <trkpt lat="49.82551" lon="5.77498">
        <ele>448.11</ele>
        <time>2026-08-11T07:20:37.366Z</time>
      </trkpt>
      <trkpt lat="49.82577" lon="5.77503">
        <ele>449.51</ele>
        <time>2026-08-11T07:20:43.356Z</time>
      </trkpt>
      <trkpt lat="49.82601" lon="5.77498">
        <ele>449.45</ele>
        <time>2026-08-11T07:20:49.365Z</time>
      </trkpt>
      <trkpt lat="49.82624" lon="5.7748">
        <ele>449.38</ele>
        <time>2026-08-11T07:20:55.345Z</time>
      </trkpt>
      <trkpt lat="49.82645" lon="5.77453">
        <ele>449.48</ele>
        <time>2026-08-11T07:21:01.367Z</time>
      </trkpt>
      <trkpt lat="49.82667" lon="5.77421">
        <ele>449.39</ele>
        <time>2026-08-11T07:21:07.364Z</time>
      </trkpt>
      <trkpt lat="49.8269" lon="5.77394">
        <ele>448.14</ele>
        <time>2026-08-11T07:21:13.366Z</time>
      </trkpt>
      <trkpt lat="49.82702" lon="5.77396">
        <ele>448.05</ele>
        <time>2026-08-11T07:21:19.365Z</time>
      </trkpt>
      <trkpt lat="49.82696" lon="5.77438">
        <ele>448.48</ele>
        <time>2026-08-11T07:21:25.363Z</time>
      </trkpt>
      <trkpt lat="49.82716" lon="5.77499">
        <ele>445.36</ele>
        <time>2026-08-11T07:21:31.366Z</time>
      </trkpt>
      <trkpt lat="49.82738" lon="5.77566">
        <ele>438.76</ele>
        <time>2026-08-11T07:21:37.369Z</time>
      </trkpt>
      <trkpt lat="49.82757" lon="5.77595">
        <ele>433.88</ele>
        <time>2026-08-11T07:21:43.372Z</time>
      </trkpt>
      <trkpt lat="49.82781" lon="5.77591">
        <ele>432.92</ele>
        <time>2026-08-11T07:21:49.366Z</time>
      </trkpt>
      <trkpt lat="49.82801" lon="5.77637">
        <ele>433.63</ele>
        <time>2026-08-11T07:21:55.370Z</time>
      </trkpt>
      <trkpt lat="49.82819" lon="5.77684">
        <ele>433.24</ele>
        <time>2026-08-11T07:22:01.338Z</time>
      </trkpt>
      <trkpt lat="49.82836" lon="5.77725">
        <ele>434.85</ele>
        <time>2026-08-11T07:22:07.365Z</time>
      </trkpt>
      <trkpt lat="49.82859" lon="5.77758">
        <ele>433.87</ele>
        <time>2026-08-11T07:22:13.366Z</time>
      </trkpt>
      <trkpt lat="49.82885" lon="5.77792">
        <ele>433.27</ele>
        <time>2026-08-11T07:22:19.365Z</time>
      </trkpt>
      <trkpt lat="49.82911" lon="5.77822">
        <ele>433.31</ele>
        <time>2026-08-11T07:22:25.372Z</time>
      </trkpt>
      <trkpt lat="49.82933" lon="5.77854">
        <ele>432.91</ele>
        <time>2026-08-11T07:22:31.365Z</time>
      </trkpt>
      <trkpt lat="49.82955" lon="5.7789">
        <ele>432.97</ele>
        <time>2026-08-11T07:22:37.366Z</time>
      </trkpt>
      <trkpt lat="49.82972" lon="5.77929">
        <ele>432.82</ele>
        <time>2026-08-11T07:22:43.365Z</time>
      </trkpt>
      <trkpt lat="49.82988" lon="5.77919">
        <ele>432.88</ele>
        <time>2026-08-11T07:22:49.369Z</time>
      </trkpt>
      <trkpt lat="49.83" lon="5.77913">
        <ele>434.64</ele>
        <time>2026-08-11T07:22:55.375Z</time>
      </trkpt>
      <trkpt lat="49.8301" lon="5.77933">
        <ele>436.02</ele>
        <time>2026-08-11T07:23:01.365Z</time>
      </trkpt>
      <trkpt lat="49.83018" lon="5.77963">
        <ele>436.76</ele>
        <time>2026-08-11T07:23:07.365Z</time>
      </trkpt>
      <trkpt lat="49.83029" lon="5.77985">
        <ele>437.12</ele>
        <time>2026-08-11T07:23:13.367Z</time>
      </trkpt>
      <trkpt lat="49.83042" lon="5.77986">
        <ele>437.35</ele>
        <time>2026-08-11T07:23:19.367Z</time>
      </trkpt>
      <trkpt lat="49.8305" lon="5.7798">
        <ele>439.57</ele>
        <time>2026-08-11T07:23:25.373Z</time>
      </trkpt>
      <trkpt lat="49.8306" lon="5.77975">
        <ele>440.47</ele>
        <time>2026-08-11T07:23:32.311Z</time>
      </trkpt>
      <trkpt lat="49.83068" lon="5.7798">
        <ele>442.34</ele>
        <time>2026-08-11T07:23:39.308Z</time>
      </trkpt>
      <trkpt lat="49.83074" lon="5.77992">
        <ele>443.74</ele>
        <time>2026-08-11T07:23:47.309Z</time>
      </trkpt>
      <trkpt lat="49.83079" lon="5.78004">
        <ele>445.03</ele>
        <time>2026-08-11T07:23:53.312Z</time>
      </trkpt>
      <trkpt lat="49.83086" lon="5.78014">
        <ele>446.97</ele>
        <time>2026-08-11T07:24:00.303Z</time>
      </trkpt>
      <trkpt lat="49.83093" lon="5.78024">
        <ele>447.97</ele>
        <time>2026-08-11T07:24:06.310Z</time>
      </trkpt>
      <trkpt lat="49.83102" lon="5.78024">
        <ele>447.94</ele>
        <time>2026-08-11T07:24:13.368Z</time>
      </trkpt>
      <trkpt lat="49.83112" lon="5.78022">
        <ele>447.55</ele>
        <time>2026-08-11T07:24:22.310Z</time>
      </trkpt>
      <trkpt lat="49.83121" lon="5.78019">
        <ele>449.23</ele>
        <time>2026-08-11T07:24:30.306Z</time>
      </trkpt>
      <trkpt lat="49.83131" lon="5.78016">
        <ele>449.54</ele>
        <time>2026-08-11T07:24:39.303Z</time>
      </trkpt>
      <trkpt lat="49.8314" lon="5.78009">
        <ele>448.61</ele>
        <time>2026-08-11T07:24:46.349Z</time>
      </trkpt>
      <trkpt lat="49.83148" lon="5.78">
        <ele>449.04</ele>
        <time>2026-08-11T07:24:52.315Z</time>
      </trkpt>
      <trkpt lat="49.83154" lon="5.78011">
        <ele>450.62</ele>
        <time>2026-08-11T07:25:00.307Z</time>
      </trkpt>
      <trkpt lat="49.83147" lon="5.78034">
        <ele>451.49</ele>
        <time>2026-08-11T07:25:05.311Z</time>
      </trkpt>
      <trkpt lat="49.83142" lon="5.78064">
        <ele>451.73</ele>
        <time>2026-08-11T07:25:10.312Z</time>
      </trkpt>
      <trkpt lat="49.83141" lon="5.78097">
        <ele>452.96</ele>
        <time>2026-08-11T07:25:15.314Z</time>
      </trkpt>
      <trkpt lat="49.83145" lon="5.78135">
        <ele>454.45</ele>
        <time>2026-08-11T07:25:21.305Z</time>
      </trkpt>
      <trkpt lat="49.83148" lon="5.78165">
        <ele>454.69</ele>
        <time>2026-08-11T07:25:26.309Z</time>
      </trkpt>
      <trkpt lat="49.83149" lon="5.78196">
        <ele>454.4</ele>
        <time>2026-08-11T07:25:31.369Z</time>
      </trkpt>
      <trkpt lat="49.83147" lon="5.78234">
        <ele>454.89</ele>
        <time>2026-08-11T07:25:37.364Z</time>
      </trkpt>
      <trkpt lat="49.83144" lon="5.7827">
        <ele>454.41</ele>
        <time>2026-08-11T07:25:43.362Z</time>
      </trkpt>
      <trkpt lat="49.83142" lon="5.78305">
        <ele>454.68</ele>
        <time>2026-08-11T07:25:49.367Z</time>
      </trkpt>
      <trkpt lat="49.83144" lon="5.78338">
        <ele>456.15</ele>
        <time>2026-08-11T07:25:55.370Z</time>
      </trkpt>
      <trkpt lat="49.83149" lon="5.78369">
        <ele>456.18</ele>
        <time>2026-08-11T07:26:01.375Z</time>
      </trkpt>
      <trkpt lat="49.8316" lon="5.78397">
        <ele>456.03</ele>
        <time>2026-08-11T07:26:07.367Z</time>
      </trkpt>
      <trkpt lat="49.83175" lon="5.78424">
        <ele>455.85</ele>
        <time>2026-08-11T07:26:13.368Z</time>
      </trkpt>
      <trkpt lat="49.8319" lon="5.78451">
        <ele>456.54</ele>
        <time>2026-08-11T07:26:19.364Z</time>
      </trkpt>
      <trkpt lat="49.83207" lon="5.78475">
        <ele>457.08</ele>
        <time>2026-08-11T07:26:25.339Z</time>
      </trkpt>
      <trkpt lat="49.83223" lon="5.78505">
        <ele>456.39</ele>
        <time>2026-08-11T07:26:31.363Z</time>
      </trkpt>
      <trkpt lat="49.83248" lon="5.78525">
        <ele>455.39</ele>
        <time>2026-08-11T07:26:37.364Z</time>
      </trkpt>
      <trkpt lat="49.83277" lon="5.7855">
        <ele>454.51</ele>
        <time>2026-08-11T07:26:43.367Z</time>
      </trkpt>
      <trkpt lat="49.83303" lon="5.78579">
        <ele>453.21</ele>
        <time>2026-08-11T07:26:49.364Z</time>
      </trkpt>
      <trkpt lat="49.83329" lon="5.78607">
        <ele>452.62</ele>
        <time>2026-08-11T07:26:55.370Z</time>
      </trkpt>
      <trkpt lat="49.83351" lon="5.78609">
        <ele>452.85</ele>
        <time>2026-08-11T07:27:01.372Z</time>
      </trkpt>
      <trkpt lat="49.83359" lon="5.78596">
        <ele>454.86</ele>
        <time>2026-08-11T07:27:07.366Z</time>
      </trkpt>
      <trkpt lat="49.8337" lon="5.78585">
        <ele>455.96</ele>
        <time>2026-08-11T07:27:13.369Z</time>
      </trkpt>
      <trkpt lat="49.83385" lon="5.78613">
        <ele>455.62</ele>
        <time>2026-08-11T07:27:19.368Z</time>
      </trkpt>
      <trkpt lat="49.83405" lon="5.78653">
        <ele>455.74</ele>
        <time>2026-08-11T07:27:25.369Z</time>
      </trkpt>
      <trkpt lat="49.83428" lon="5.78697">
        <ele>453.71</ele>
        <time>2026-08-11T07:27:31.374Z</time>
      </trkpt>
      <trkpt lat="49.83447" lon="5.78738">
        <ele>452.25</ele>
        <time>2026-08-11T07:27:37.365Z</time>
      </trkpt>
      <trkpt lat="49.83462" lon="5.78771">
        <ele>450.67</ele>
        <time>2026-08-11T07:27:43.366Z</time>
      </trkpt>
      <trkpt lat="49.83476" lon="5.78803">
        <ele>454.5</ele>
        <time>2026-08-11T07:27:49.368Z</time>
      </trkpt>
      <trkpt lat="49.83485" lon="5.78829">
        <ele>457.98</ele>
        <time>2026-08-11T07:27:55.372Z</time>
      </trkpt>
      <trkpt lat="49.83492" lon="5.78847">
        <ele>458.56</ele>
        <time>2026-08-11T07:28:01.370Z</time>
      </trkpt>
      <trkpt lat="49.83506" lon="5.78883">
        <ele>455.9</ele>
        <time>2026-08-11T07:28:07.367Z</time>
      </trkpt>
      <trkpt lat="49.83519" lon="5.78924">
        <ele>454</ele>
        <time>2026-08-11T07:28:13.366Z</time>
      </trkpt>
      <trkpt lat="49.83535" lon="5.78963">
        <ele>453.45</ele>
        <time>2026-08-11T07:28:19.367Z</time>
      </trkpt>
      <trkpt lat="49.83548" lon="5.78998">
        <ele>452.89</ele>
        <time>2026-08-11T07:28:25.372Z</time>
      </trkpt>
      <trkpt lat="49.83559" lon="5.79027">
        <ele>454.42</ele>
        <time>2026-08-11T07:28:31.375Z</time>
      </trkpt>
      <trkpt lat="49.83571" lon="5.79056">
        <ele>456.68</ele>
        <time>2026-08-11T07:28:37.363Z</time>
      </trkpt>
      <trkpt lat="49.83583" lon="5.79085">
        <ele>456.78</ele>
        <time>2026-08-11T07:28:43.364Z</time>
      </trkpt>
      <trkpt lat="49.83593" lon="5.79112">
        <ele>456.5</ele>
        <time>2026-08-11T07:28:49.366Z</time>
      </trkpt>
      <trkpt lat="49.83604" lon="5.79142">
        <ele>456.64</ele>
        <time>2026-08-11T07:28:55.342Z</time>
      </trkpt>
      <trkpt lat="49.83616" lon="5.79172">
        <ele>456.71</ele>
        <time>2026-08-11T07:29:01.373Z</time>
      </trkpt>
      <trkpt lat="49.83626" lon="5.79202">
        <ele>457.2</ele>
        <time>2026-08-11T07:29:07.368Z</time>
      </trkpt>
      <trkpt lat="49.83638" lon="5.79232">
        <ele>458.7</ele>
        <time>2026-08-11T07:29:13.364Z</time>
      </trkpt>
      <trkpt lat="49.83651" lon="5.79262">
        <ele>460.69</ele>
        <time>2026-08-11T07:29:19.362Z</time>
      </trkpt>
      <trkpt lat="49.83662" lon="5.79289">
        <ele>461.15</ele>
        <time>2026-08-11T07:29:25.371Z</time>
      </trkpt>
      <trkpt lat="49.83672" lon="5.79316">
        <ele>461.79</ele>
        <time>2026-08-11T07:29:31.365Z</time>
      </trkpt>
      <trkpt lat="49.83682" lon="5.79342">
        <ele>461.72</ele>
        <time>2026-08-11T07:29:37.368Z</time>
      </trkpt>
      <trkpt lat="49.83693" lon="5.79368">
        <ele>463.11</ele>
        <time>2026-08-11T07:29:43.368Z</time>
      </trkpt>
      <trkpt lat="49.83705" lon="5.79394">
        <ele>463.7</ele>
        <time>2026-08-11T07:29:49.351Z</time>
      </trkpt>
      <trkpt lat="49.83715" lon="5.79423">
        <ele>464.59</ele>
        <time>2026-08-11T07:29:55.368Z</time>
      </trkpt>
      <trkpt lat="49.83725" lon="5.79452">
        <ele>465.59</ele>
        <time>2026-08-11T07:30:01.365Z</time>
      </trkpt>
      <trkpt lat="49.83735" lon="5.7948">
        <ele>466.24</ele>
        <time>2026-08-11T07:30:07.368Z</time>
      </trkpt>
      <trkpt lat="49.83745" lon="5.79508">
        <ele>466.87</ele>
        <time>2026-08-11T07:30:13.362Z</time>
      </trkpt>
      <trkpt lat="49.83754" lon="5.79538">
        <ele>466.81</ele>
        <time>2026-08-11T07:30:19.359Z</time>
      </trkpt>
      <trkpt lat="49.83763" lon="5.79568">
        <ele>467.05</ele>
        <time>2026-08-11T07:30:25.365Z</time>
      </trkpt>
      <trkpt lat="49.83772" lon="5.796">
        <ele>467.45</ele>
        <time>2026-08-11T07:30:31.368Z</time>
      </trkpt>
      <trkpt lat="49.83782" lon="5.79634">
        <ele>466.66</ele>
        <time>2026-08-11T07:30:37.363Z</time>
      </trkpt>
      <trkpt lat="49.83796" lon="5.79671">
        <ele>465.59</ele>
        <time>2026-08-11T07:30:43.359Z</time>
      </trkpt>
      <trkpt lat="49.83816" lon="5.79708">
        <ele>465.97</ele>
        <time>2026-08-11T07:30:49.359Z</time>
      </trkpt>
      <trkpt lat="49.83837" lon="5.79748">
        <ele>465.84</ele>
        <time>2026-08-11T07:30:55.350Z</time>
      </trkpt>
      <trkpt lat="49.83859" lon="5.79793">
        <ele>464.3</ele>
        <time>2026-08-11T07:31:01.366Z</time>
      </trkpt>
      <trkpt lat="49.83887" lon="5.79837">
        <ele>461.73</ele>
        <time>2026-08-11T07:31:07.362Z</time>
      </trkpt>
      <trkpt lat="49.83929" lon="5.79872">
        <ele>458.92</ele>
        <time>2026-08-11T07:31:13.361Z</time>
      </trkpt>
      <trkpt lat="49.83967" lon="5.79918">
        <ele>456.42</ele>
        <time>2026-08-11T07:31:19.368Z</time>
      </trkpt>
      <trkpt lat="49.83975" lon="5.79987">
        <ele>452.8</ele>
        <time>2026-08-11T07:31:25.364Z</time>
      </trkpt>
      <trkpt lat="49.83995" lon="5.80046">
        <ele>449.17</ele>
        <time>2026-08-11T07:31:31.335Z</time>
      </trkpt>
      <trkpt lat="49.84007" lon="5.80092">
        <ele>446.82</ele>
        <time>2026-08-11T07:31:37.359Z</time>
      </trkpt>
      <trkpt lat="49.84008" lon="5.80128">
        <ele>442.82</ele>
        <time>2026-08-11T07:31:43.360Z</time>
      </trkpt>
      <trkpt lat="49.84015" lon="5.80173">
        <ele>441.08</ele>
        <time>2026-08-11T07:31:49.363Z</time>
      </trkpt>
      <trkpt lat="49.84039" lon="5.80191">
        <ele>442.33</ele>
        <time>2026-08-11T07:31:55.365Z</time>
      </trkpt>
      <trkpt lat="49.84062" lon="5.80195">
        <ele>447.06</ele>
        <time>2026-08-11T07:32:01.369Z</time>
      </trkpt>
      <trkpt lat="49.84068" lon="5.80227">
        <ele>449.81</ele>
        <time>2026-08-11T07:32:07.365Z</time>
      </trkpt>
      <trkpt lat="49.84071" lon="5.80267">
        <ele>451.3</ele>
        <time>2026-08-11T07:32:13.358Z</time>
      </trkpt>
      <trkpt lat="49.84074" lon="5.80305">
        <ele>453.34</ele>
        <time>2026-08-11T07:32:19.360Z</time>
      </trkpt>
      <trkpt lat="49.84078" lon="5.80344">
        <ele>453.74</ele>
        <time>2026-08-11T07:32:25.370Z</time>
      </trkpt>
      <trkpt lat="49.84076" lon="5.80382">
        <ele>451.59</ele>
        <time>2026-08-11T07:32:31.366Z</time>
      </trkpt>
      <trkpt lat="49.84064" lon="5.80419">
        <ele>449.14</ele>
        <time>2026-08-11T07:32:37.358Z</time>
      </trkpt>
      <trkpt lat="49.84048" lon="5.80448">
        <ele>445.82</ele>
        <time>2026-08-11T07:32:43.359Z</time>
      </trkpt>
      <trkpt lat="49.84029" lon="5.8047">
        <ele>444.1</ele>
        <time>2026-08-11T07:32:49.360Z</time>
      </trkpt>
      <trkpt lat="49.84009" lon="5.80489">
        <ele>442.03</ele>
        <time>2026-08-11T07:32:55.367Z</time>
      </trkpt>
      <trkpt lat="49.8399" lon="5.80513">
        <ele>438.39</ele>
        <time>2026-08-11T07:33:01.365Z</time>
      </trkpt>
      <trkpt lat="49.83976" lon="5.80539">
        <ele>435.33</ele>
        <time>2026-08-11T07:33:07.363Z</time>
      </trkpt>
      <trkpt lat="49.83964" lon="5.8057">
        <ele>429.78</ele>
        <time>2026-08-11T07:33:13.365Z</time>
      </trkpt>
      <trkpt lat="49.83956" lon="5.80607">
        <ele>424.26</ele>
        <time>2026-08-11T07:33:19.362Z</time>
      </trkpt>
      <trkpt lat="49.83951" lon="5.80643">
        <ele>420.16</ele>
        <time>2026-08-11T07:33:25.348Z</time>
      </trkpt>
      <trkpt lat="49.83955" lon="5.80679">
        <ele>418.19</ele>
        <time>2026-08-11T07:33:31.370Z</time>
      </trkpt>
      <trkpt lat="49.83963" lon="5.80716">
        <ele>418.04</ele>
        <time>2026-08-11T07:33:37.357Z</time>
      </trkpt>
      <trkpt lat="49.83974" lon="5.80749">
        <ele>418.91</ele>
        <time>2026-08-11T07:33:43.362Z</time>
      </trkpt>
      <trkpt lat="49.83991" lon="5.80778">
        <ele>421.04</ele>
        <time>2026-08-11T07:33:49.357Z</time>
      </trkpt>
      <trkpt lat="49.8401" lon="5.80804">
        <ele>425.25</ele>
        <time>2026-08-11T07:33:55.367Z</time>
      </trkpt>
      <trkpt lat="49.8403" lon="5.80829">
        <ele>428.72</ele>
        <time>2026-08-11T07:34:01.364Z</time>
      </trkpt>
      <trkpt lat="49.84054" lon="5.80853">
        <ele>430.89</ele>
        <time>2026-08-11T07:34:07.365Z</time>
      </trkpt>
      <trkpt lat="49.84077" lon="5.8088">
        <ele>433.45</ele>
        <time>2026-08-11T07:34:13.364Z</time>
      </trkpt>
      <trkpt lat="49.84094" lon="5.80914">
        <ele>435.01</ele>
        <time>2026-08-11T07:34:19.360Z</time>
      </trkpt>
      <trkpt lat="49.84102" lon="5.80953">
        <ele>436.68</ele>
        <time>2026-08-11T07:34:25.373Z</time>
      </trkpt>
      <trkpt lat="49.84101" lon="5.80998">
        <ele>440.14</ele>
        <time>2026-08-11T07:34:31.343Z</time>
      </trkpt>
      <trkpt lat="49.84095" lon="5.81043">
        <ele>444.11</ele>
        <time>2026-08-11T07:34:37.363Z</time>
      </trkpt>
      <trkpt lat="49.84076" lon="5.81077">
        <ele>445.65</ele>
        <time>2026-08-11T07:34:43.358Z</time>
      </trkpt>
      <trkpt lat="49.84052" lon="5.81105">
        <ele>446.85</ele>
        <time>2026-08-11T07:34:49.351Z</time>
      </trkpt>
      <trkpt lat="49.84024" lon="5.81116">
        <ele>452.31</ele>
        <time>2026-08-11T07:34:55.372Z</time>
      </trkpt>
      <trkpt lat="49.83995" lon="5.81121">
        <ele>454.98</ele>
        <time>2026-08-11T07:35:01.365Z</time>
      </trkpt>
      <trkpt lat="49.83967" lon="5.81134">
        <ele>456.56</ele>
        <time>2026-08-11T07:35:07.359Z</time>
      </trkpt>
      <trkpt lat="49.83942" lon="5.81169">
        <ele>454.3</ele>
        <time>2026-08-11T07:35:13.359Z</time>
      </trkpt>
      <trkpt lat="49.83925" lon="5.81222">
        <ele>456.62</ele>
        <time>2026-08-11T07:35:19.350Z</time>
      </trkpt>
      <trkpt lat="49.83911" lon="5.81274">
        <ele>457.99</ele>
        <time>2026-08-11T07:35:25.373Z</time>
      </trkpt>
      <trkpt lat="49.83898" lon="5.81323">
        <ele>457.61</ele>
        <time>2026-08-11T07:35:31.365Z</time>
      </trkpt>
      <trkpt lat="49.83888" lon="5.81371">
        <ele>457.02</ele>
        <time>2026-08-11T07:35:37.359Z</time>
      </trkpt>
      <trkpt lat="49.83876" lon="5.81419">
        <ele>456.51</ele>
        <time>2026-08-11T07:35:43.358Z</time>
      </trkpt>
      <trkpt lat="49.83866" lon="5.81467">
        <ele>458.92</ele>
        <time>2026-08-11T07:35:49.362Z</time>
      </trkpt>
      <trkpt lat="49.83853" lon="5.81514">
        <ele>459.14</ele>
        <time>2026-08-11T07:35:55.370Z</time>
      </trkpt>
      <trkpt lat="49.83845" lon="5.81562">
        <ele>454.68</ele>
        <time>2026-08-11T07:36:01.336Z</time>
      </trkpt>
      <trkpt lat="49.83841" lon="5.81609">
        <ele>449.92</ele>
        <time>2026-08-11T07:36:07.358Z</time>
      </trkpt>
      <trkpt lat="49.83842" lon="5.81658">
        <ele>449.73</ele>
        <time>2026-08-11T07:36:13.362Z</time>
      </trkpt>
      <trkpt lat="49.83837" lon="5.81705">
        <ele>450.14</ele>
        <time>2026-08-11T07:36:19.359Z</time>
      </trkpt>
      <trkpt lat="49.83825" lon="5.81746">
        <ele>449.8</ele>
        <time>2026-08-11T07:36:25.372Z</time>
      </trkpt>
      <trkpt lat="49.8381" lon="5.81789">
        <ele>453.98</ele>
        <time>2026-08-11T07:36:31.334Z</time>
      </trkpt>
      <trkpt lat="49.83796" lon="5.8182">
        <ele>457.76</ele>
        <time>2026-08-11T07:36:37.359Z</time>
      </trkpt>
      <trkpt lat="49.8378" lon="5.81845">
        <ele>459.52</ele>
        <time>2026-08-11T07:36:43.360Z</time>
      </trkpt>
      <trkpt lat="49.83764" lon="5.81878">
        <ele>458.65</ele>
        <time>2026-08-11T07:36:49.358Z</time>
      </trkpt>
      <trkpt lat="49.83752" lon="5.81918">
        <ele>454.42</ele>
        <time>2026-08-11T07:36:55.373Z</time>
      </trkpt>
      <trkpt lat="49.83747" lon="5.81968">
        <ele>450.97</ele>
        <time>2026-08-11T07:37:01.370Z</time>
      </trkpt>
      <trkpt lat="49.83748" lon="5.82025">
        <ele>451.86</ele>
        <time>2026-08-11T07:37:07.363Z</time>
      </trkpt>
      <trkpt lat="49.83753" lon="5.82074">
        <ele>452.61</ele>
        <time>2026-08-11T07:37:13.358Z</time>
      </trkpt>
      <trkpt lat="49.8376" lon="5.82123">
        <ele>453.52</ele>
        <time>2026-08-11T07:37:19.364Z</time>
      </trkpt>
      <trkpt lat="49.83766" lon="5.82169">
        <ele>453.58</ele>
        <time>2026-08-11T07:37:25.368Z</time>
      </trkpt>
      <trkpt lat="49.83771" lon="5.82213">
        <ele>457.4</ele>
        <time>2026-08-11T07:37:31.362Z</time>
      </trkpt>
      <trkpt lat="49.83763" lon="5.82254">
        <ele>459.3</ele>
        <time>2026-08-11T07:37:37.361Z</time>
      </trkpt>
      <trkpt lat="49.83748" lon="5.82287">
        <ele>459.45</ele>
        <time>2026-08-11T07:37:43.360Z</time>
      </trkpt>
      <trkpt lat="49.83728" lon="5.82309">
        <ele>458.38</ele>
        <time>2026-08-11T07:37:49.365Z</time>
      </trkpt>
      <trkpt lat="49.83709" lon="5.82341">
        <ele>461.97</ele>
        <time>2026-08-11T07:37:55.369Z</time>
      </trkpt>
      <trkpt lat="49.83692" lon="5.8238">
        <ele>464.03</ele>
        <time>2026-08-11T07:38:01.360Z</time>
      </trkpt>
      <trkpt lat="49.83684" lon="5.82425">
        <ele>461.1</ele>
        <time>2026-08-11T07:38:07.359Z</time>
      </trkpt>
      <trkpt lat="49.83685" lon="5.82476">
        <ele>459.02</ele>
        <time>2026-08-11T07:38:13.355Z</time>
      </trkpt>
      <trkpt lat="49.83699" lon="5.82523">
        <ele>459.34</ele>
        <time>2026-08-11T07:38:19.358Z</time>
      </trkpt>
      <trkpt lat="49.83714" lon="5.82564">
        <ele>460.37</ele>
        <time>2026-08-11T07:38:25.369Z</time>
      </trkpt>
      <trkpt lat="49.83732" lon="5.82606">
        <ele>461.37</ele>
        <time>2026-08-11T07:38:31.370Z</time>
      </trkpt>
      <trkpt lat="49.83749" lon="5.82649">
        <ele>461.97</ele>
        <time>2026-08-11T07:38:37.358Z</time>
      </trkpt>
      <trkpt lat="49.83765" lon="5.82692">
        <ele>461.06</ele>
        <time>2026-08-11T07:38:43.359Z</time>
      </trkpt>
      <trkpt lat="49.83778" lon="5.82738">
        <ele>459.78</ele>
        <time>2026-08-11T07:38:49.360Z</time>
      </trkpt>
      <trkpt lat="49.83791" lon="5.82785">
        <ele>459.03</ele>
        <time>2026-08-11T07:38:55.369Z</time>
      </trkpt>
      <trkpt lat="49.83812" lon="5.82807">
        <ele>462.57</ele>
        <time>2026-08-11T07:39:01.364Z</time>
      </trkpt>
      <trkpt lat="49.83829" lon="5.82811">
        <ele>465.98</ele>
        <time>2026-08-11T07:39:07.351Z</time>
      </trkpt>
      <trkpt lat="49.83847" lon="5.82797">
        <ele>465.84</ele>
        <time>2026-08-11T07:39:13.363Z</time>
      </trkpt>
      <trkpt lat="49.83865" lon="5.82797">
        <ele>467.66</ele>
        <time>2026-08-11T07:39:19.363Z</time>
      </trkpt>
      <trkpt lat="49.83878" lon="5.82817">
        <ele>466.96</ele>
        <time>2026-08-11T07:39:25.367Z</time>
      </trkpt>
      <trkpt lat="49.83892" lon="5.82839">
        <ele>467.06</ele>
        <time>2026-08-11T07:39:31.366Z</time>
      </trkpt>
      <trkpt lat="49.83897" lon="5.82869">
        <ele>466.13</ele>
        <time>2026-08-11T07:39:37.358Z</time>
      </trkpt>
      <trkpt lat="49.839" lon="5.82906">
        <ele>465.93</ele>
        <time>2026-08-11T07:39:43.361Z</time>
      </trkpt>
      <trkpt lat="49.83907" lon="5.82949">
        <ele>466.13</ele>
        <time>2026-08-11T07:39:49.360Z</time>
      </trkpt>
      <trkpt lat="49.83913" lon="5.82996">
        <ele>463.85</ele>
        <time>2026-08-11T07:39:55.371Z</time>
      </trkpt>
      <trkpt lat="49.8392" lon="5.83049">
        <ele>462.12</ele>
        <time>2026-08-11T07:40:01.366Z</time>
      </trkpt>
      <trkpt lat="49.83928" lon="5.83107">
        <ele>460.33</ele>
        <time>2026-08-11T07:40:07.360Z</time>
      </trkpt>
      <trkpt lat="49.83937" lon="5.83166">
        <ele>459.45</ele>
        <time>2026-08-11T07:40:13.355Z</time>
      </trkpt>
      <trkpt lat="49.83947" lon="5.83223">
        <ele>457.47</ele>
        <time>2026-08-11T07:40:19.348Z</time>
      </trkpt>
      <trkpt lat="49.83955" lon="5.83282">
        <ele>455.3</ele>
        <time>2026-08-11T07:40:25.362Z</time>
      </trkpt>
      <trkpt lat="49.83964" lon="5.83338">
        <ele>455.82</ele>
        <time>2026-08-11T07:40:31.361Z</time>
      </trkpt>
      <trkpt lat="49.83968" lon="5.83388">
        <ele>455.48</ele>
        <time>2026-08-11T07:40:37.358Z</time>
      </trkpt>
      <trkpt lat="49.83966" lon="5.83432">
        <ele>454.92</ele>
        <time>2026-08-11T07:40:43.369Z</time>
      </trkpt>
      <trkpt lat="49.83964" lon="5.83481">
        <ele>454.33</ele>
        <time>2026-08-11T07:40:49.359Z</time>
      </trkpt>
      <trkpt lat="49.83963" lon="5.83528">
        <ele>456.55</ele>
        <time>2026-08-11T07:40:55.366Z</time>
      </trkpt>
      <trkpt lat="49.83961" lon="5.83574">
        <ele>456.81</ele>
        <time>2026-08-11T07:41:01.360Z</time>
      </trkpt>
      <trkpt lat="49.83959" lon="5.83619">
        <ele>457.36</ele>
        <time>2026-08-11T07:41:07.359Z</time>
      </trkpt>
      <trkpt lat="49.83958" lon="5.83663">
        <ele>457.7</ele>
        <time>2026-08-11T07:41:13.364Z</time>
      </trkpt>
      <trkpt lat="49.83956" lon="5.83708">
        <ele>457.46</ele>
        <time>2026-08-11T07:41:19.368Z</time>
      </trkpt>
      <trkpt lat="49.8395" lon="5.83752">
        <ele>455.73</ele>
        <time>2026-08-11T07:41:25.333Z</time>
      </trkpt>
      <trkpt lat="49.83936" lon="5.83791">
        <ele>455.98</ele>
        <time>2026-08-11T07:41:31.365Z</time>
      </trkpt>
      <trkpt lat="49.83915" lon="5.83828">
        <ele>455.39</ele>
        <time>2026-08-11T07:41:37.360Z</time>
      </trkpt>
      <trkpt lat="49.839" lon="5.83843">
        <ele>454.92</ele>
        <time>2026-08-11T07:41:43.360Z</time>
      </trkpt>
      <trkpt lat="49.83886" lon="5.83852">
        <ele>457.54</ele>
        <time>2026-08-11T07:41:49.366Z</time>
      </trkpt>
      <trkpt lat="49.83869" lon="5.83855">
        <ele>459.32</ele>
        <time>2026-08-11T07:41:55.360Z</time>
      </trkpt>
      <trkpt lat="49.83853" lon="5.83856">
        <ele>460.51</ele>
        <time>2026-08-11T07:42:01.361Z</time>
      </trkpt>
      <trkpt lat="49.83837" lon="5.83858">
        <ele>461.75</ele>
        <time>2026-08-11T07:42:07.363Z</time>
      </trkpt>
      <trkpt lat="49.8382" lon="5.83861">
        <ele>462.18</ele>
        <time>2026-08-11T07:42:13.360Z</time>
      </trkpt>
      <trkpt lat="49.83804" lon="5.83862">
        <ele>462.5</ele>
        <time>2026-08-11T07:42:19.359Z</time>
      </trkpt>
      <trkpt lat="49.83788" lon="5.83868">
        <ele>463.24</ele>
        <time>2026-08-11T07:42:25.374Z</time>
      </trkpt>
      <trkpt lat="49.83772" lon="5.83867">
        <ele>461.97</ele>
        <time>2026-08-11T07:42:31.361Z</time>
      </trkpt>
      <trkpt lat="49.83757" lon="5.83867">
        <ele>463.23</ele>
        <time>2026-08-11T07:42:37.368Z</time>
      </trkpt>
      <trkpt lat="49.83742" lon="5.8387">
        <ele>464.59</ele>
        <time>2026-08-11T07:42:43.363Z</time>
      </trkpt>
      <trkpt lat="49.83727" lon="5.83872">
        <ele>465.29</ele>
        <time>2026-08-11T07:42:49.365Z</time>
      </trkpt>
      <trkpt lat="49.83712" lon="5.83874">
        <ele>466.51</ele>
        <time>2026-08-11T07:42:55.375Z</time>
      </trkpt>
      <trkpt lat="49.83697" lon="5.83879">
        <ele>469.64</ele>
        <time>2026-08-11T07:43:01.361Z</time>
      </trkpt>
      <trkpt lat="49.83681" lon="5.83881">
        <ele>472.36</ele>
        <time>2026-08-11T07:43:07.370Z</time>
      </trkpt>
      <trkpt lat="49.83665" lon="5.83883">
        <ele>474.65</ele>
        <time>2026-08-11T07:43:13.367Z</time>
      </trkpt>
      <trkpt lat="49.8365" lon="5.83884">
        <ele>475.76</ele>
        <time>2026-08-11T07:43:19.363Z</time>
      </trkpt>
      <trkpt lat="49.83636" lon="5.83884">
        <ele>476.59</ele>
        <time>2026-08-11T07:43:25.352Z</time>
      </trkpt>
      <trkpt lat="49.83621" lon="5.83887">
        <ele>476.43</ele>
        <time>2026-08-11T07:43:31.364Z</time>
      </trkpt>
      <trkpt lat="49.83607" lon="5.83891">
        <ele>476.5</ele>
        <time>2026-08-11T07:43:37.367Z</time>
      </trkpt>
      <trkpt lat="49.83595" lon="5.83898">
        <ele>476.69</ele>
        <time>2026-08-11T07:43:43.362Z</time>
      </trkpt>
      <trkpt lat="49.83582" lon="5.83912">
        <ele>476.95</ele>
        <time>2026-08-11T07:43:49.363Z</time>
      </trkpt>
      <trkpt lat="49.83569" lon="5.83929">
        <ele>476.73</ele>
        <time>2026-08-11T07:43:55.379Z</time>
      </trkpt>
      <trkpt lat="49.83557" lon="5.83952">
        <ele>476.18</ele>
        <time>2026-08-11T07:44:01.338Z</time>
      </trkpt>
      <trkpt lat="49.83546" lon="5.83985">
        <ele>474.83</ele>
        <time>2026-08-11T07:44:07.353Z</time>
      </trkpt>
      <trkpt lat="49.83536" lon="5.84028">
        <ele>472.51</ele>
        <time>2026-08-11T07:44:13.362Z</time>
      </trkpt>
      <trkpt lat="49.83525" lon="5.8408">
        <ele>471.88</ele>
        <time>2026-08-11T07:44:19.363Z</time>
      </trkpt>
      <trkpt lat="49.83509" lon="5.84138">
        <ele>469.97</ele>
        <time>2026-08-11T07:44:25.369Z</time>
      </trkpt>
      <trkpt lat="49.83483" lon="5.84186">
        <ele>469.08</ele>
        <time>2026-08-11T07:44:31.363Z</time>
      </trkpt>
      <trkpt lat="49.8345" lon="5.8422">
        <ele>468.9</ele>
        <time>2026-08-11T07:44:37.360Z</time>
      </trkpt>
      <trkpt lat="49.83409" lon="5.84245">
        <ele>467.62</ele>
        <time>2026-08-11T07:44:43.359Z</time>
      </trkpt>
      <trkpt lat="49.83366" lon="5.84276">
        <ele>465.63</ele>
        <time>2026-08-11T07:44:49.365Z</time>
      </trkpt>
      <trkpt lat="49.83319" lon="5.84303">
        <ele>463.66</ele>
        <time>2026-08-11T07:44:55.374Z</time>
      </trkpt>
      <trkpt lat="49.83268" lon="5.8431">
        <ele>462.07</ele>
        <time>2026-08-11T07:45:01.360Z</time>
      </trkpt>
      <trkpt lat="49.83219" lon="5.8429">
        <ele>462.09</ele>
        <time>2026-08-11T07:45:07.363Z</time>
      </trkpt>
      <trkpt lat="49.83178" lon="5.84271">
        <ele>462.09</ele>
        <time>2026-08-11T07:45:13.352Z</time>
      </trkpt>
      <trkpt lat="49.83144" lon="5.84258">
        <ele>463.37</ele>
        <time>2026-08-11T07:45:19.360Z</time>
      </trkpt>
      <trkpt lat="49.83114" lon="5.84253">
        <ele>464.41</ele>
        <time>2026-08-11T07:45:25.374Z</time>
      </trkpt>
      <trkpt lat="49.83083" lon="5.84254">
        <ele>464.69</ele>
        <time>2026-08-11T07:45:31.370Z</time>
      </trkpt>
      <trkpt lat="49.83047" lon="5.84269">
        <ele>464.2</ele>
        <time>2026-08-11T07:45:37.364Z</time>
      </trkpt>
      <trkpt lat="49.83011" lon="5.84304">
        <ele>462.15</ele>
        <time>2026-08-11T07:45:43.360Z</time>
      </trkpt>
      <trkpt lat="49.82995" lon="5.84374">
        <ele>458.54</ele>
        <time>2026-08-11T07:45:49.360Z</time>
      </trkpt>
      <trkpt lat="49.82998" lon="5.84437">
        <ele>453.74</ele>
        <time>2026-08-11T07:45:55.347Z</time>
      </trkpt>
      <trkpt lat="49.82999" lon="5.84488">
        <ele>452.26</ele>
        <time>2026-08-11T07:46:01.366Z</time>
      </trkpt>
      <trkpt lat="49.83" lon="5.84505">
        <ele>452.13</ele>
        <time>2026-08-11T07:46:07.365Z</time>
      </trkpt>
      <trkpt lat="49.83" lon="5.8452">
        <ele>451.19</ele>
        <time>2026-08-11T07:46:16.308Z</time>
      </trkpt>
      <trkpt lat="49.83" lon="5.84502">
        <ele>449.65</ele>
        <time>2026-08-11T07:46:45.307Z</time>
      </trkpt>
      <trkpt lat="49.82998" lon="5.84476">
        <ele>449.55</ele>
        <time>2026-08-11T07:46:51.307Z</time>
      </trkpt>
      <trkpt lat="49.82998" lon="5.8445">
        <ele>450.72</ele>
        <time>2026-08-11T07:46:57.297Z</time>
      </trkpt>
      <trkpt lat="49.82999" lon="5.8443">
        <ele>450.81</ele>
        <time>2026-08-11T07:47:02.307Z</time>
      </trkpt>
      <trkpt lat="49.82999" lon="5.84409">
        <ele>450.98</ele>
        <time>2026-08-11T07:47:07.352Z</time>
      </trkpt>
      <trkpt lat="49.83" lon="5.84383">
        <ele>451.86</ele>
        <time>2026-08-11T07:47:13.353Z</time>
      </trkpt>
      <trkpt lat="49.82995" lon="5.84357">
        <ele>454.41</ele>
        <time>2026-08-11T07:47:19.357Z</time>
      </trkpt>
      <trkpt lat="49.82985" lon="5.84325">
        <ele>456.02</ele>
        <time>2026-08-11T07:47:25.364Z</time>
      </trkpt>
      <trkpt lat="49.82979" lon="5.84292">
        <ele>456.91</ele>
        <time>2026-08-11T07:47:31.355Z</time>
      </trkpt>
      <trkpt lat="49.82974" lon="5.84274">
        <ele>456.6</ele>
        <time>2026-08-11T07:47:37.359Z</time>
      </trkpt>
      <trkpt lat="49.82968" lon="5.84253">
        <ele>457.02</ele>
        <time>2026-08-11T07:47:43.354Z</time>
      </trkpt>
      <trkpt lat="49.82958" lon="5.84226">
        <ele>458.57</ele>
        <time>2026-08-11T07:47:49.353Z</time>
      </trkpt>
      <trkpt lat="49.82948" lon="5.84202">
        <ele>461.42</ele>
        <time>2026-08-11T07:47:55.361Z</time>
      </trkpt>
      <trkpt lat="49.82934" lon="5.84175">
        <ele>462.67</ele>
        <time>2026-08-11T07:48:01.356Z</time>
      </trkpt>
      <trkpt lat="49.82914" lon="5.8414">
        <ele>461.4</ele>
        <time>2026-08-11T07:48:07.357Z</time>
      </trkpt>
      <trkpt lat="49.82893" lon="5.841">
        <ele>457.33</ele>
        <time>2026-08-11T07:48:13.350Z</time>
      </trkpt>
      <trkpt lat="49.82871" lon="5.8406">
        <ele>451.89</ele>
        <time>2026-08-11T07:48:19.351Z</time>
      </trkpt>
      <trkpt lat="49.82856" lon="5.84022">
        <ele>448.73</ele>
        <time>2026-08-11T07:48:25.366Z</time>
      </trkpt>
      <trkpt lat="49.82844" lon="5.84006">
        <ele>449.52</ele>
        <time>2026-08-11T07:48:31.332Z</time>
      </trkpt>
      <trkpt lat="49.82829" lon="5.83996">
        <ele>450.46</ele>
        <time>2026-08-11T07:48:37.352Z</time>
      </trkpt>
      <trkpt lat="49.82821" lon="5.83988">
        <ele>446.08</ele>
        <time>2026-08-11T07:48:43.361Z</time>
      </trkpt>
      <trkpt lat="49.82831" lon="5.83995">
        <ele>444.45</ele>
        <time>2026-08-11T07:48:50.305Z</time>
      </trkpt>
      <trkpt lat="49.82844" lon="5.84005">
        <ele>445.15</ele>
        <time>2026-08-11T07:48:55.365Z</time>
      </trkpt>
      <trkpt lat="49.82853" lon="5.8403">
        <ele>447.2</ele>
        <time>2026-08-11T07:49:01.336Z</time>
      </trkpt>
      <trkpt lat="49.82839" lon="5.84056">
        <ele>448.8</ele>
        <time>2026-08-11T07:49:07.353Z</time>
      </trkpt>
      <trkpt lat="49.82821" lon="5.84088">
        <ele>447.6</ele>
        <time>2026-08-11T07:49:13.357Z</time>
      </trkpt>
      <trkpt lat="49.828" lon="5.84132">
        <ele>445.26</ele>
        <time>2026-08-11T07:49:19.361Z</time>
      </trkpt>
      <trkpt lat="49.82767" lon="5.84162">
        <ele>442.14</ele>
        <time>2026-08-11T07:49:25.375Z</time>
      </trkpt>
      <trkpt lat="49.82722" lon="5.84137">
        <ele>440.76</ele>
        <time>2026-08-11T07:49:31.374Z</time>
      </trkpt>
      <trkpt lat="49.82674" lon="5.84124">
        <ele>441.39</ele>
        <time>2026-08-11T07:49:37.359Z</time>
      </trkpt>
      <trkpt lat="49.82627" lon="5.84132">
        <ele>441.8</ele>
        <time>2026-08-11T07:49:43.362Z</time>
      </trkpt>
      <trkpt lat="49.82576" lon="5.84148">
        <ele>438.59</ele>
        <time>2026-08-11T07:49:49.360Z</time>
      </trkpt>
      <trkpt lat="49.8252" lon="5.84174">
        <ele>432.2</ele>
        <time>2026-08-11T07:49:55.370Z</time>
      </trkpt>
      <trkpt lat="49.82461" lon="5.84176">
        <ele>428.04</ele>
        <time>2026-08-11T07:50:01.366Z</time>
      </trkpt>
      <trkpt lat="49.82429" lon="5.84109">
        <ele>428.33</ele>
        <time>2026-08-11T07:50:07.359Z</time>
      </trkpt>
      <trkpt lat="49.82402" lon="5.84068">
        <ele>429.59</ele>
        <time>2026-08-11T07:50:13.360Z</time>
      </trkpt>
      <trkpt lat="49.82381" lon="5.84046">
        <ele>431.02</ele>
        <time>2026-08-11T07:50:19.361Z</time>
      </trkpt>
      <trkpt lat="49.82366" lon="5.84033">
        <ele>434.12</ele>
        <time>2026-08-11T07:50:25.366Z</time>
      </trkpt>
      <trkpt lat="49.82351" lon="5.84021">
        <ele>436.14</ele>
        <time>2026-08-11T07:50:31.365Z</time>
      </trkpt>
      <trkpt lat="49.82335" lon="5.8401">
        <ele>438.28</ele>
        <time>2026-08-11T07:50:37.370Z</time>
      </trkpt>
      <trkpt lat="49.82321" lon="5.83997">
        <ele>438.6</ele>
        <time>2026-08-11T07:50:43.359Z</time>
      </trkpt>
      <trkpt lat="49.82306" lon="5.83986">
        <ele>439.47</ele>
        <time>2026-08-11T07:50:49.363Z</time>
      </trkpt>
      <trkpt lat="49.82291" lon="5.83976">
        <ele>439.93</ele>
        <time>2026-08-11T07:50:55.366Z</time>
      </trkpt>
      <trkpt lat="49.82275" lon="5.83965">
        <ele>441.6</ele>
        <time>2026-08-11T07:51:01.369Z</time>
      </trkpt>
      <trkpt lat="49.82259" lon="5.83955">
        <ele>442.42</ele>
        <time>2026-08-11T07:51:07.360Z</time>
      </trkpt>
      <trkpt lat="49.82244" lon="5.83948">
        <ele>443.32</ele>
        <time>2026-08-11T07:51:13.359Z</time>
      </trkpt>
      <trkpt lat="49.82228" lon="5.83939">
        <ele>444.02</ele>
        <time>2026-08-11T07:51:19.359Z</time>
      </trkpt>
      <trkpt lat="49.82213" lon="5.8393">
        <ele>444.74</ele>
        <time>2026-08-11T07:51:25.368Z</time>
      </trkpt>
      <trkpt lat="49.82197" lon="5.8392">
        <ele>445.34</ele>
        <time>2026-08-11T07:51:31.359Z</time>
      </trkpt>
      <trkpt lat="49.82181" lon="5.83909">
        <ele>446.5</ele>
        <time>2026-08-11T07:51:37.367Z</time>
      </trkpt>
      <trkpt lat="49.82166" lon="5.83899">
        <ele>447.79</ele>
        <time>2026-08-11T07:51:43.367Z</time>
      </trkpt>
      <trkpt lat="49.82152" lon="5.8389">
        <ele>448.42</ele>
        <time>2026-08-11T07:51:49.369Z</time>
      </trkpt>
      <trkpt lat="49.82141" lon="5.83884">
        <ele>449.56</ele>
        <time>2026-08-11T07:51:55.366Z</time>
      </trkpt>
      <trkpt lat="49.82129" lon="5.83878">
        <ele>451.96</ele>
        <time>2026-08-11T07:52:01.367Z</time>
      </trkpt>
      <trkpt lat="49.82117" lon="5.83875">
        <ele>453.93</ele>
        <time>2026-08-11T07:52:07.370Z</time>
      </trkpt>
      <trkpt lat="49.82105" lon="5.83872">
        <ele>454.13</ele>
        <time>2026-08-11T07:52:13.367Z</time>
      </trkpt>
      <trkpt lat="49.82093" lon="5.8387">
        <ele>455.11</ele>
        <time>2026-08-11T07:52:19.366Z</time>
      </trkpt>
      <trkpt lat="49.82082" lon="5.83868">
        <ele>455.59</ele>
        <time>2026-08-11T07:52:26.310Z</time>
      </trkpt>
      <trkpt lat="49.82071" lon="5.83865">
        <ele>456.31</ele>
        <time>2026-08-11T07:52:31.371Z</time>
      </trkpt>
      <trkpt lat="49.82059" lon="5.83858">
        <ele>456.82</ele>
        <time>2026-08-11T07:52:37.366Z</time>
      </trkpt>
      <trkpt lat="49.82046" lon="5.83853">
        <ele>456.57</ele>
        <time>2026-08-11T07:52:43.368Z</time>
      </trkpt>
      <trkpt lat="49.8203" lon="5.83844">
        <ele>457.27</ele>
        <time>2026-08-11T07:52:49.367Z</time>
      </trkpt>
      <trkpt lat="49.82012" lon="5.83834">
        <ele>457.68</ele>
        <time>2026-08-11T07:52:55.366Z</time>
      </trkpt>
      <trkpt lat="49.81995" lon="5.83821">
        <ele>458.58</ele>
        <time>2026-08-11T07:53:01.366Z</time>
      </trkpt>
      <trkpt lat="49.81976" lon="5.83807">
        <ele>459.42</ele>
        <time>2026-08-11T07:53:07.365Z</time>
      </trkpt>
      <trkpt lat="49.81959" lon="5.83789">
        <ele>459.68</ele>
        <time>2026-08-11T07:53:13.364Z</time>
      </trkpt>
      <trkpt lat="49.81941" lon="5.83769">
        <ele>460.2</ele>
        <time>2026-08-11T07:53:19.363Z</time>
      </trkpt>
      <trkpt lat="49.81922" lon="5.83752">
        <ele>460.29</ele>
        <time>2026-08-11T07:53:25.368Z</time>
      </trkpt>
      <trkpt lat="49.81904" lon="5.83736">
        <ele>459.19</ele>
        <time>2026-08-11T07:53:31.365Z</time>
      </trkpt>
      <trkpt lat="49.81885" lon="5.8372">
        <ele>458.99</ele>
        <time>2026-08-11T07:53:37.368Z</time>
      </trkpt>
      <trkpt lat="49.81864" lon="5.83703">
        <ele>458.36</ele>
        <time>2026-08-11T07:53:43.369Z</time>
      </trkpt>
      <trkpt lat="49.81843" lon="5.8369">
        <ele>458.34</ele>
        <time>2026-08-11T07:53:49.371Z</time>
      </trkpt>
      <trkpt lat="49.8182" lon="5.83678">
        <ele>458.84</ele>
        <time>2026-08-11T07:53:55.346Z</time>
      </trkpt>
      <trkpt lat="49.81797" lon="5.83659">
        <ele>458.33</ele>
        <time>2026-08-11T07:54:01.364Z</time>
      </trkpt>
      <trkpt lat="49.81775" lon="5.83642">
        <ele>460.71</ele>
        <time>2026-08-11T07:54:07.370Z</time>
      </trkpt>
      <trkpt lat="49.8175" lon="5.83622">
        <ele>461.86</ele>
        <time>2026-08-11T07:54:13.367Z</time>
      </trkpt>
      <trkpt lat="49.81721" lon="5.83598">
        <ele>461.13</ele>
        <time>2026-08-11T07:54:19.368Z</time>
      </trkpt>
      <trkpt lat="49.81692" lon="5.83576">
        <ele>460.26</ele>
        <time>2026-08-11T07:54:25.369Z</time>
      </trkpt>
      <trkpt lat="49.81661" lon="5.83554">
        <ele>458.84</ele>
        <time>2026-08-11T07:54:31.369Z</time>
      </trkpt>
      <trkpt lat="49.81628" lon="5.83528">
        <ele>458.89</ele>
        <time>2026-08-11T07:54:37.366Z</time>
      </trkpt>
      <trkpt lat="49.81593" lon="5.83508">
        <ele>459.89</ele>
        <time>2026-08-11T07:54:43.364Z</time>
      </trkpt>
      <trkpt lat="49.81563" lon="5.83501">
        <ele>460.71</ele>
        <time>2026-08-11T07:54:49.368Z</time>
      </trkpt>
      <trkpt lat="49.8154" lon="5.83496">
        <ele>461.76</ele>
        <time>2026-08-11T07:54:55.375Z</time>
      </trkpt>
      <trkpt lat="49.81527" lon="5.83522">
        <ele>462.38</ele>
        <time>2026-08-11T07:55:01.366Z</time>
      </trkpt>
      <trkpt lat="49.81513" lon="5.83559">
        <ele>460.22</ele>
        <time>2026-08-11T07:55:07.367Z</time>
      </trkpt>
      <trkpt lat="49.81501" lon="5.83609">
        <ele>456.18</ele>
        <time>2026-08-11T07:55:13.364Z</time>
      </trkpt>
      <trkpt lat="49.81488" lon="5.83663">
        <ele>452.52</ele>
        <time>2026-08-11T07:55:19.366Z</time>
      </trkpt>
      <trkpt lat="49.8147" lon="5.83716">
        <ele>450.19</ele>
        <time>2026-08-11T07:55:25.371Z</time>
      </trkpt>
      <trkpt lat="49.81449" lon="5.83769">
        <ele>448.37</ele>
        <time>2026-08-11T07:55:31.366Z</time>
      </trkpt>
      <trkpt lat="49.81426" lon="5.83821">
        <ele>447.5</ele>
        <time>2026-08-11T07:55:37.365Z</time>
      </trkpt>
      <trkpt lat="49.81399" lon="5.83861">
        <ele>447.7</ele>
        <time>2026-08-11T07:55:43.371Z</time>
      </trkpt>
      <trkpt lat="49.81363" lon="5.83886">
        <ele>449.41</ele>
        <time>2026-08-11T07:55:49.368Z</time>
      </trkpt>
      <trkpt lat="49.8132" lon="5.83895">
        <ele>447.9</ele>
        <time>2026-08-11T07:55:55.353Z</time>
      </trkpt>
      <trkpt lat="49.81272" lon="5.83897">
        <ele>448.51</ele>
        <time>2026-08-11T07:56:01.367Z</time>
      </trkpt>
      <trkpt lat="49.81227" lon="5.83908">
        <ele>447.85</ele>
        <time>2026-08-11T07:56:07.368Z</time>
      </trkpt>
      <trkpt lat="49.81192" lon="5.83941">
        <ele>444.94</ele>
        <time>2026-08-11T07:56:13.362Z</time>
      </trkpt>
      <trkpt lat="49.81171" lon="5.83984">
        <ele>439.23</ele>
        <time>2026-08-11T07:56:19.361Z</time>
      </trkpt>
      <trkpt lat="49.81155" lon="5.8404">
        <ele>431.51</ele>
        <time>2026-08-11T07:56:25.375Z</time>
      </trkpt>
      <trkpt lat="49.81155" lon="5.84111">
        <ele>427.76</ele>
        <time>2026-08-11T07:56:31.340Z</time>
      </trkpt>
      <trkpt lat="49.81136" lon="5.84141">
        <ele>432.15</ele>
        <time>2026-08-11T07:56:37.365Z</time>
      </trkpt>
      <trkpt lat="49.8112" lon="5.84156">
        <ele>438.7</ele>
        <time>2026-08-11T07:56:43.362Z</time>
      </trkpt>
      <trkpt lat="49.81103" lon="5.84169">
        <ele>440.66</ele>
        <time>2026-08-11T07:56:49.367Z</time>
      </trkpt>
      <trkpt lat="49.8109" lon="5.84186">
        <ele>442.03</ele>
        <time>2026-08-11T07:56:55.375Z</time>
      </trkpt>
      <trkpt lat="49.81081" lon="5.8421">
        <ele>441.81</ele>
        <time>2026-08-11T07:57:01.371Z</time>
      </trkpt>
      <trkpt lat="49.81069" lon="5.84236">
        <ele>441.27</ele>
        <time>2026-08-11T07:57:07.360Z</time>
      </trkpt>
      <trkpt lat="49.81057" lon="5.84259">
        <ele>439.8</ele>
        <time>2026-08-11T07:57:13.359Z</time>
      </trkpt>
      <trkpt lat="49.81042" lon="5.84284">
        <ele>438.11</ele>
        <time>2026-08-11T07:57:19.361Z</time>
      </trkpt>
      <trkpt lat="49.81021" lon="5.84311">
        <ele>438.05</ele>
        <time>2026-08-11T07:57:25.379Z</time>
      </trkpt>
      <trkpt lat="49.80997" lon="5.84338">
        <ele>439.47</ele>
        <time>2026-08-11T07:57:31.370Z</time>
      </trkpt>
      <trkpt lat="49.80969" lon="5.84382">
        <ele>439.79</ele>
        <time>2026-08-11T07:57:37.360Z</time>
      </trkpt>
      <trkpt lat="49.80946" lon="5.84434">
        <ele>438.59</ele>
        <time>2026-08-11T07:57:43.367Z</time>
      </trkpt>
      <trkpt lat="49.80924" lon="5.84487">
        <ele>436.78</ele>
        <time>2026-08-11T07:57:49.360Z</time>
      </trkpt>
      <trkpt lat="49.809" lon="5.84542">
        <ele>433.83</ele>
        <time>2026-08-11T07:57:55.374Z</time>
      </trkpt>
      <trkpt lat="49.80872" lon="5.84593">
        <ele>430.02</ele>
        <time>2026-08-11T07:58:01.371Z</time>
      </trkpt>
      <trkpt lat="49.80835" lon="5.84642">
        <ele>426.44</ele>
        <time>2026-08-11T07:58:07.361Z</time>
      </trkpt>
      <trkpt lat="49.80797" lon="5.84698">
        <ele>424.71</ele>
        <time>2026-08-11T07:58:13.364Z</time>
      </trkpt>
      <trkpt lat="49.80759" lon="5.84753">
        <ele>422.27</ele>
        <time>2026-08-11T07:58:19.367Z</time>
      </trkpt>
      <trkpt lat="49.80714" lon="5.84808">
        <ele>417.72</ele>
        <time>2026-08-11T07:58:25.337Z</time>
      </trkpt>
      <trkpt lat="49.80662" lon="5.84867">
        <ele>412.43</ele>
        <time>2026-08-11T07:58:31.371Z</time>
      </trkpt>
      <trkpt lat="49.80613" lon="5.84931">
        <ele>406.36</ele>
        <time>2026-08-11T07:58:37.366Z</time>
      </trkpt>
      <trkpt lat="49.80563" lon="5.84985">
        <ele>401.19</ele>
        <time>2026-08-11T07:58:43.367Z</time>
      </trkpt>
      <trkpt lat="49.80498" lon="5.85036">
        <ele>394.45</ele>
        <time>2026-08-11T07:58:49.372Z</time>
      </trkpt>
      <trkpt lat="49.80442" lon="5.85083">
        <ele>389.6</ele>
        <time>2026-08-11T07:58:55.372Z</time>
      </trkpt>
      <trkpt lat="49.80425" lon="5.85159">
        <ele>386.11</ele>
        <time>2026-08-11T07:59:01.369Z</time>
      </trkpt>
      <trkpt lat="49.80401" lon="5.85222">
        <ele>385.5</ele>
        <time>2026-08-11T07:59:07.365Z</time>
      </trkpt>
      <trkpt lat="49.80372" lon="5.85271">
        <ele>384.97</ele>
        <time>2026-08-11T07:59:13.366Z</time>
      </trkpt>
      <trkpt lat="49.80351" lon="5.85314">
        <ele>382.62</ele>
        <time>2026-08-11T07:59:19.367Z</time>
      </trkpt>
      <trkpt lat="49.80344" lon="5.85333">
        <ele>384.23</ele>
        <time>2026-08-11T07:59:25.373Z</time>
      </trkpt>
      <trkpt lat="49.80333" lon="5.85357">
        <ele>385.14</ele>
        <time>2026-08-11T07:59:31.368Z</time>
      </trkpt>
      <trkpt lat="49.80304" lon="5.85387">
        <ele>384.21</ele>
        <time>2026-08-11T07:59:37.306Z</time>
      </trkpt>
      <trkpt lat="49.80282" lon="5.85421">
        <ele>382.69</ele>
        <time>2026-08-11T07:59:42.307Z</time>
      </trkpt>
      <trkpt lat="49.8026" lon="5.85455">
        <ele>381.98</ele>
        <time>2026-08-11T07:59:47.311Z</time>
      </trkpt>
      <trkpt lat="49.8023" lon="5.85491">
        <ele>381.47</ele>
        <time>2026-08-11T07:59:53.310Z</time>
      </trkpt>
      <trkpt lat="49.80196" lon="5.85516">
        <ele>379.38</ele>
        <time>2026-08-11T07:59:59.309Z</time>
      </trkpt>
      <trkpt lat="49.80163" lon="5.85532">
        <ele>378.94</ele>
        <time>2026-08-11T08:00:04.312Z</time>
      </trkpt>
      <trkpt lat="49.80126" lon="5.85541">
        <ele>377.61</ele>
        <time>2026-08-11T08:00:09.312Z</time>
      </trkpt>
      <trkpt lat="49.80102" lon="5.85571">
        <ele>376.66</ele>
        <time>2026-08-11T08:00:15.310Z</time>
      </trkpt>
      <trkpt lat="49.80094" lon="5.85631">
        <ele>373.98</ele>
        <time>2026-08-11T08:00:21.312Z</time>
      </trkpt>
      <trkpt lat="49.80079" lon="5.85691">
        <ele>368.84</ele>
        <time>2026-08-11T08:00:27.308Z</time>
      </trkpt>
      <trkpt lat="49.80064" lon="5.85746">
        <ele>366.11</ele>
        <time>2026-08-11T08:00:32.309Z</time>
      </trkpt>
      <trkpt lat="49.80048" lon="5.85808">
        <ele>361.7</ele>
        <time>2026-08-11T08:00:38.307Z</time>
      </trkpt>
      <trkpt lat="49.80027" lon="5.8586">
        <ele>359.42</ele>
        <time>2026-08-11T08:00:43.312Z</time>
      </trkpt>
      <trkpt lat="49.79994" lon="5.85928">
        <ele>357.74</ele>
        <time>2026-08-11T08:00:49.311Z</time>
      </trkpt>
      <trkpt lat="49.79966" lon="5.86">
        <ele>357.43</ele>
        <time>2026-08-11T08:00:55.378Z</time>
      </trkpt>
      <trkpt lat="49.79952" lon="5.86067">
        <ele>354.25</ele>
        <time>2026-08-11T08:01:01.346Z</time>
      </trkpt>
      <trkpt lat="49.79945" lon="5.86107">
        <ele>354.04</ele>
        <time>2026-08-11T08:01:07.309Z</time>
      </trkpt>
      <trkpt lat="49.79939" lon="5.86138">
        <ele>357</ele>
        <time>2026-08-11T08:01:13.315Z</time>
      </trkpt>
      <trkpt lat="49.7993" lon="5.86179">
        <ele>357.04</ele>
        <time>2026-08-11T08:01:19.310Z</time>
      </trkpt>
      <trkpt lat="49.79911" lon="5.86234">
        <ele>354.3</ele>
        <time>2026-08-11T08:01:25.374Z</time>
      </trkpt>
      <trkpt lat="49.79885" lon="5.86279">
        <ele>349.88</ele>
        <time>2026-08-11T08:01:31.345Z</time>
      </trkpt>
      <trkpt lat="49.79846" lon="5.86311">
        <ele>346.79</ele>
        <time>2026-08-11T08:01:37.310Z</time>
      </trkpt>
      <trkpt lat="49.79803" lon="5.86347">
        <ele>344.22</ele>
        <time>2026-08-11T08:01:43.306Z</time>
      </trkpt>
      <trkpt lat="49.79767" lon="5.86374">
        <ele>340.76</ele>
        <time>2026-08-11T08:01:48.311Z</time>
      </trkpt>
      <trkpt lat="49.79723" lon="5.8641">
        <ele>337.77</ele>
        <time>2026-08-11T08:01:54.308Z</time>
      </trkpt>
      <trkpt lat="49.79686" lon="5.8644">
        <ele>333.78</ele>
        <time>2026-08-11T08:01:59.310Z</time>
      </trkpt>
      <trkpt lat="49.79644" lon="5.86471">
        <ele>330.37</ele>
        <time>2026-08-11T08:02:05.309Z</time>
      </trkpt>
      <trkpt lat="49.79609" lon="5.86497">
        <ele>328.39</ele>
        <time>2026-08-11T08:02:10.311Z</time>
      </trkpt>
      <trkpt lat="49.79566" lon="5.8653">
        <ele>330.19</ele>
        <time>2026-08-11T08:02:16.307Z</time>
      </trkpt>
      <trkpt lat="49.79529" lon="5.86548">
        <ele>328.8</ele>
        <time>2026-08-11T08:02:21.311Z</time>
      </trkpt>
      <trkpt lat="49.7948" lon="5.86557">
        <ele>327.56</ele>
        <time>2026-08-11T08:02:27.306Z</time>
      </trkpt>
      <trkpt lat="49.79437" lon="5.86564">
        <ele>327.14</ele>
        <time>2026-08-11T08:02:32.308Z</time>
      </trkpt>
      <trkpt lat="49.79396" lon="5.86574">
        <ele>326.12</ele>
        <time>2026-08-11T08:02:37.314Z</time>
      </trkpt>
      <trkpt lat="49.79353" lon="5.86611">
        <ele>325.24</ele>
        <time>2026-08-11T08:02:43.309Z</time>
      </trkpt>
      <trkpt lat="49.79327" lon="5.8667">
        <ele>326.21</ele>
        <time>2026-08-11T08:02:49.310Z</time>
      </trkpt>
      <trkpt lat="49.79322" lon="5.86727">
        <ele>325.62</ele>
        <time>2026-08-11T08:02:54.311Z</time>
      </trkpt>
      <trkpt lat="49.79336" lon="5.86787">
        <ele>327.97</ele>
        <time>2026-08-11T08:03:00.311Z</time>
      </trkpt>
      <trkpt lat="49.79361" lon="5.86848">
        <ele>328.73</ele>
        <time>2026-08-11T08:03:06.308Z</time>
      </trkpt>
      <trkpt lat="49.79377" lon="5.86903">
        <ele>328.8</ele>
        <time>2026-08-11T08:03:11.308Z</time>
      </trkpt>
      <trkpt lat="49.79378" lon="5.86968">
        <ele>327.52</ele>
        <time>2026-08-11T08:03:16.308Z</time>
      </trkpt>
      <trkpt lat="49.79372" lon="5.87043">
        <ele>327.16</ele>
        <time>2026-08-11T08:03:22.312Z</time>
      </trkpt>
      <trkpt lat="49.79362" lon="5.87115">
        <ele>324.98</ele>
        <time>2026-08-11T08:03:28.313Z</time>
      </trkpt>
      <trkpt lat="49.7934" lon="5.87169">
        <ele>319.49</ele>
        <time>2026-08-11T08:03:34.309Z</time>
      </trkpt>
      <trkpt lat="49.79323" lon="5.872">
        <ele>318.94</ele>
        <time>2026-08-11T08:03:39.309Z</time>
      </trkpt>
      <trkpt lat="49.7931" lon="5.87212">
        <ele>317.87</ele>
        <time>2026-08-11T08:03:44.313Z</time>
      </trkpt>
      <trkpt lat="49.79299" lon="5.87233">
        <ele>318.05</ele>
        <time>2026-08-11T08:03:49.313Z</time>
      </trkpt>
      <trkpt lat="49.79282" lon="5.87264">
        <ele>317.71</ele>
        <time>2026-08-11T08:03:55.373Z</time>
      </trkpt>
      <trkpt lat="49.79269" lon="5.87282">
        <ele>319.17</ele>
        <time>2026-08-11T08:04:01.378Z</time>
      </trkpt>
      <trkpt lat="49.79274" lon="5.87268">
        <ele>319.02</ele>
        <time>2026-08-11T08:04:10.309Z</time>
      </trkpt>
      <trkpt lat="49.79273" lon="5.87283">
        <ele>318.98</ele>
        <time>2026-08-11T08:20:00.315Z</time>
      </trkpt>
      <trkpt lat="49.79254" lon="5.87311">
        <ele>319.24</ele>
        <time>2026-08-11T08:20:05.903Z</time>
      </trkpt>
      <trkpt lat="49.79233" lon="5.87325">
        <ele>318.43</ele>
        <time>2026-08-11T08:20:11.018Z</time>
      </trkpt>
      <trkpt lat="49.79203" lon="5.87335">
        <ele>316.65</ele>
        <time>2026-08-11T08:20:16.312Z</time>
      </trkpt>
      <trkpt lat="49.79165" lon="5.87335">
        <ele>314.91</ele>
        <time>2026-08-11T08:20:22.308Z</time>
      </trkpt>
      <trkpt lat="49.79131" lon="5.8733">
        <ele>313.44</ele>
        <time>2026-08-11T08:20:27.315Z</time>
      </trkpt>
      <trkpt lat="49.79089" lon="5.87334">
        <ele>312.48</ele>
        <time>2026-08-11T08:20:33.307Z</time>
      </trkpt>
      <trkpt lat="49.79056" lon="5.8735">
        <ele>311.64</ele>
        <time>2026-08-11T08:20:38.311Z</time>
      </trkpt>
      <trkpt lat="49.79027" lon="5.87379">
        <ele>309.15</ele>
        <time>2026-08-11T08:20:43.351Z</time>
      </trkpt>
      <trkpt lat="49.7899" lon="5.87417">
        <ele>307.45</ele>
        <time>2026-08-11T08:20:49.357Z</time>
      </trkpt>
      <trkpt lat="49.78946" lon="5.87432">
        <ele>306.27</ele>
        <time>2026-08-11T08:20:55.357Z</time>
      </trkpt>
      <trkpt lat="49.78902" lon="5.87414">
        <ele>305.96</ele>
        <time>2026-08-11T08:21:01.373Z</time>
      </trkpt>
      <trkpt lat="49.78869" lon="5.87373">
        <ele>303.12</ele>
        <time>2026-08-11T08:21:07.352Z</time>
      </trkpt>
      <trkpt lat="49.7883" lon="5.87333">
        <ele>300.95</ele>
        <time>2026-08-11T08:21:13.352Z</time>
      </trkpt>
      <trkpt lat="49.78786" lon="5.8731">
        <ele>299.06</ele>
        <time>2026-08-11T08:21:19.347Z</time>
      </trkpt>
      <trkpt lat="49.78735" lon="5.87304">
        <ele>299.31</ele>
        <time>2026-08-11T08:21:25.373Z</time>
      </trkpt>
      <trkpt lat="49.78686" lon="5.87299">
        <ele>299.35</ele>
        <time>2026-08-11T08:21:31.378Z</time>
      </trkpt>
      <trkpt lat="49.78636" lon="5.87299">
        <ele>299.07</ele>
        <time>2026-08-11T08:21:37.359Z</time>
      </trkpt>
      <trkpt lat="49.78587" lon="5.87306">
        <ele>296.63</ele>
        <time>2026-08-11T08:21:43.354Z</time>
      </trkpt>
      <trkpt lat="49.7854" lon="5.87316">
        <ele>294.33</ele>
        <time>2026-08-11T08:21:49.354Z</time>
      </trkpt>
      <trkpt lat="49.78492" lon="5.87328">
        <ele>292.45</ele>
        <time>2026-08-11T08:21:55.378Z</time>
      </trkpt>
      <trkpt lat="49.78442" lon="5.8734">
        <ele>290.24</ele>
        <time>2026-08-11T08:22:01.382Z</time>
      </trkpt>
      <trkpt lat="49.7839" lon="5.8734">
        <ele>289.85</ele>
        <time>2026-08-11T08:22:07.357Z</time>
      </trkpt>
      <trkpt lat="49.78342" lon="5.87318">
        <ele>287.27</ele>
        <time>2026-08-11T08:22:13.350Z</time>
      </trkpt>
      <trkpt lat="49.78297" lon="5.87289">
        <ele>283.33</ele>
        <time>2026-08-11T08:22:19.355Z</time>
      </trkpt>
      <trkpt lat="49.78296" lon="5.87223">
        <ele>281.72</ele>
        <time>2026-08-11T08:22:25.373Z</time>
      </trkpt>
      <trkpt lat="49.78281" lon="5.87141">
        <ele>278.93</ele>
        <time>2026-08-11T08:22:31.373Z</time>
      </trkpt>
      <trkpt lat="49.78204" lon="5.87113">
        <ele>275.83</ele>
        <time>2026-08-11T08:22:37.362Z</time>
      </trkpt>
      <trkpt lat="49.78151" lon="5.87099">
        <ele>279.08</ele>
        <time>2026-08-11T08:22:43.362Z</time>
      </trkpt>
      <trkpt lat="49.78124" lon="5.87089">
        <ele>281.78</ele>
        <time>2026-08-11T08:22:49.351Z</time>
      </trkpt>
      <trkpt lat="49.78105" lon="5.87065">
        <ele>279.94</ele>
        <time>2026-08-11T08:22:55.371Z</time>
      </trkpt>
      <trkpt lat="49.78085" lon="5.87027">
        <ele>273.38</ele>
        <time>2026-08-11T08:23:01.376Z</time>
      </trkpt>
      <trkpt lat="49.78063" lon="5.86986">
        <ele>271.48</ele>
        <time>2026-08-11T08:23:07.361Z</time>
      </trkpt>
      <trkpt lat="49.78034" lon="5.86949">
        <ele>268.71</ele>
        <time>2026-08-11T08:23:13.361Z</time>
      </trkpt>
      <trkpt lat="49.77995" lon="5.86932">
        <ele>269.35</ele>
        <time>2026-08-11T08:23:19.355Z</time>
      </trkpt>
      <trkpt lat="49.77955" lon="5.8695">
        <ele>268.15</ele>
        <time>2026-08-11T08:23:25.371Z</time>
      </trkpt>
      <trkpt lat="49.77918" lon="5.86982">
        <ele>265.1</ele>
        <time>2026-08-11T08:23:31.372Z</time>
      </trkpt>
      <trkpt lat="49.77883" lon="5.87015">
        <ele>263.15</ele>
        <time>2026-08-11T08:23:37.365Z</time>
      </trkpt>
      <trkpt lat="49.77848" lon="5.87049">
        <ele>264.28</ele>
        <time>2026-08-11T08:23:43.365Z</time>
      </trkpt>
      <trkpt lat="49.77814" lon="5.87082">
        <ele>265.47</ele>
        <time>2026-08-11T08:23:49.360Z</time>
      </trkpt>
      <trkpt lat="49.77784" lon="5.87129">
        <ele>261.28</ele>
        <time>2026-08-11T08:23:55.377Z</time>
      </trkpt>
      <trkpt lat="49.77752" lon="5.8718">
        <ele>257.89</ele>
        <time>2026-08-11T08:24:01.377Z</time>
      </trkpt>
      <trkpt lat="49.77721" lon="5.87234">
        <ele>254.51</ele>
        <time>2026-08-11T08:24:07.359Z</time>
      </trkpt>
      <trkpt lat="49.77693" lon="5.87285">
        <ele>250.71</ele>
        <time>2026-08-11T08:24:13.357Z</time>
      </trkpt>
      <trkpt lat="49.77665" lon="5.87332">
        <ele>246.97</ele>
        <time>2026-08-11T08:24:19.367Z</time>
      </trkpt>
      <trkpt lat="49.77636" lon="5.87377">
        <ele>245.82</ele>
        <time>2026-08-11T08:24:25.376Z</time>
      </trkpt>
      <trkpt lat="49.77605" lon="5.87435">
        <ele>246.61</ele>
        <time>2026-08-11T08:24:31.372Z</time>
      </trkpt>
      <trkpt lat="49.77573" lon="5.87496">
        <ele>247.8</ele>
        <time>2026-08-11T08:24:37.362Z</time>
      </trkpt>
      <trkpt lat="49.77542" lon="5.87554">
        <ele>246.76</ele>
        <time>2026-08-11T08:24:43.358Z</time>
      </trkpt>
      <trkpt lat="49.7751" lon="5.87615">
        <ele>244.74</ele>
        <time>2026-08-11T08:24:49.358Z</time>
      </trkpt>
      <trkpt lat="49.77478" lon="5.8768">
        <ele>245.74</ele>
        <time>2026-08-11T08:24:55.376Z</time>
      </trkpt>
      <trkpt lat="49.77446" lon="5.87747">
        <ele>245.81</ele>
        <time>2026-08-11T08:25:01.373Z</time>
      </trkpt>
      <trkpt lat="49.77415" lon="5.87805">
        <ele>245.01</ele>
        <time>2026-08-11T08:25:07.366Z</time>
      </trkpt>
      <trkpt lat="49.77384" lon="5.87861">
        <ele>245.98</ele>
        <time>2026-08-11T08:25:13.354Z</time>
      </trkpt>
      <trkpt lat="49.77347" lon="5.87916">
        <ele>245.84</ele>
        <time>2026-08-11T08:25:19.357Z</time>
      </trkpt>
      <trkpt lat="49.77313" lon="5.87976">
        <ele>245.51</ele>
        <time>2026-08-11T08:25:25.373Z</time>
      </trkpt>
      <trkpt lat="49.77274" lon="5.8803">
        <ele>244.17</ele>
        <time>2026-08-11T08:25:31.375Z</time>
      </trkpt>
      <trkpt lat="49.77229" lon="5.88064">
        <ele>241.01</ele>
        <time>2026-08-11T08:25:37.358Z</time>
      </trkpt>
      <trkpt lat="49.77178" lon="5.88083">
        <ele>237.53</ele>
        <time>2026-08-11T08:25:43.358Z</time>
      </trkpt>
      <trkpt lat="49.77128" lon="5.88089">
        <ele>235.07</ele>
        <time>2026-08-11T08:25:49.358Z</time>
      </trkpt>
      <trkpt lat="49.7709" lon="5.88094">
        <ele>235.69</ele>
        <time>2026-08-11T08:25:55.376Z</time>
      </trkpt>
      <trkpt lat="49.77068" lon="5.88105">
        <ele>235.61</ele>
        <time>2026-08-11T08:26:01.374Z</time>
      </trkpt>
      <trkpt lat="49.77041" lon="5.88124">
        <ele>233.05</ele>
        <time>2026-08-11T08:26:07.361Z</time>
      </trkpt>
      <trkpt lat="49.77012" lon="5.88147">
        <ele>230.89</ele>
        <time>2026-08-11T08:26:13.357Z</time>
      </trkpt>
      <trkpt lat="49.76982" lon="5.88176">
        <ele>228.38</ele>
        <time>2026-08-11T08:26:19.357Z</time>
      </trkpt>
      <trkpt lat="49.76951" lon="5.88205">
        <ele>226.37</ele>
        <time>2026-08-11T08:26:25.375Z</time>
      </trkpt>
      <trkpt lat="49.76922" lon="5.88223">
        <ele>225.95</ele>
        <time>2026-08-11T08:26:31.378Z</time>
      </trkpt>
      <trkpt lat="49.7689" lon="5.88233">
        <ele>225.53</ele>
        <time>2026-08-11T08:26:37.359Z</time>
      </trkpt>
      <trkpt lat="49.76858" lon="5.88242">
        <ele>225.48</ele>
        <time>2026-08-11T08:26:43.356Z</time>
      </trkpt>
      <trkpt lat="49.76827" lon="5.88251">
        <ele>225.53</ele>
        <time>2026-08-11T08:26:49.355Z</time>
      </trkpt>
      <trkpt lat="49.76795" lon="5.88253">
        <ele>225.23</ele>
        <time>2026-08-11T08:26:55.372Z</time>
      </trkpt>
      <trkpt lat="49.76762" lon="5.88252">
        <ele>225.53</ele>
        <time>2026-08-11T08:27:01.376Z</time>
      </trkpt>
      <trkpt lat="49.76726" lon="5.88247">
        <ele>226.02</ele>
        <time>2026-08-11T08:27:07.368Z</time>
      </trkpt>
      <trkpt lat="49.76688" lon="5.88233">
        <ele>227.77</ele>
        <time>2026-08-11T08:27:13.356Z</time>
      </trkpt>
      <trkpt lat="49.76648" lon="5.88213">
        <ele>226.52</ele>
        <time>2026-08-11T08:27:19.358Z</time>
      </trkpt>
      <trkpt lat="49.76605" lon="5.8819">
        <ele>225.72</ele>
        <time>2026-08-11T08:27:25.376Z</time>
      </trkpt>
      <trkpt lat="49.76563" lon="5.88168">
        <ele>224.26</ele>
        <time>2026-08-11T08:27:31.377Z</time>
      </trkpt>
      <trkpt lat="49.76526" lon="5.88148">
        <ele>222.01</ele>
        <time>2026-08-11T08:27:37.358Z</time>
      </trkpt>
      <trkpt lat="49.76498" lon="5.88133">
        <ele>222.83</ele>
        <time>2026-08-11T08:27:43.359Z</time>
      </trkpt>
      <trkpt lat="49.76489" lon="5.88127">
        <ele>224.2</ele>
        <time>2026-08-11T08:27:52.305Z</time>
      </trkpt>
      <trkpt lat="49.7648" lon="5.88135">
        <ele>222.64</ele>
        <time>2026-08-11T08:27:59.314Z</time>
      </trkpt>
      <trkpt lat="49.76474" lon="5.88144">
        <ele>222.28</ele>
        <time>2026-08-11T08:28:05.313Z</time>
      </trkpt>
      <trkpt lat="49.76468" lon="5.88157">
        <ele>221.59</ele>
        <time>2026-08-11T08:28:12.312Z</time>
      </trkpt>
      <trkpt lat="49.76464" lon="5.8817">
        <ele>221.14</ele>
        <time>2026-08-11T08:28:56.344Z</time>
      </trkpt>
      <trkpt lat="49.76462" lon="5.88183">
        <ele>219.03</ele>
        <time>2026-08-11T08:29:57.311Z</time>
      </trkpt>
      <trkpt lat="49.76453" lon="5.88219">
        <ele>218.87</ele>
        <time>2026-08-11T08:30:03.299Z</time>
      </trkpt>
      <trkpt lat="49.76455" lon="5.88248">
        <ele>219.07</ele>
        <time>2026-08-11T08:30:08.360Z</time>
      </trkpt>
      <trkpt lat="49.76454" lon="5.88279">
        <ele>221.43</ele>
        <time>2026-08-11T08:30:13.374Z</time>
      </trkpt>
      <trkpt lat="49.76453" lon="5.88302">
        <ele>222.5</ele>
        <time>2026-08-11T08:30:19.371Z</time>
      </trkpt>
      <trkpt lat="49.76449" lon="5.88342">
        <ele>221.71</ele>
        <time>2026-08-11T08:30:25.375Z</time>
      </trkpt>
      <trkpt lat="49.76445" lon="5.88379">
        <ele>224.22</ele>
        <time>2026-08-11T08:30:31.381Z</time>
      </trkpt>
      <trkpt lat="49.76437" lon="5.88404">
        <ele>224.38</ele>
        <time>2026-08-11T08:30:37.377Z</time>
      </trkpt>
      <trkpt lat="49.7643" lon="5.88414">
        <ele>225.31</ele>
        <time>2026-08-11T08:31:35.310Z</time>
      </trkpt>
      <trkpt lat="49.76434" lon="5.88396">
        <ele>225.64</ele>
        <time>2026-08-11T08:34:28.326Z</time>
      </trkpt>
      <trkpt lat="49.76442" lon="5.8838">
        <ele>225.71</ele>
        <time>2026-08-11T08:34:34.306Z</time>
      </trkpt>
      <trkpt lat="49.76432" lon="5.88372">
        <ele>225.52</ele>
        <time>2026-08-11T08:34:39.307Z</time>
      </trkpt>
      <trkpt lat="49.76419" lon="5.88373">
        <ele>225.9</ele>
        <time>2026-08-11T08:34:44.312Z</time>
      </trkpt>
      <trkpt lat="49.76409" lon="5.88374">
        <ele>226.58</ele>
        <time>2026-08-11T08:34:54.303Z</time>
      </trkpt>
      <trkpt lat="49.76403" lon="5.88386">
        <ele>226.98</ele>
        <time>2026-08-11T08:35:02.306Z</time>
      </trkpt>
      <trkpt lat="49.76401" lon="5.88399">
        <ele>227.28</ele>
        <time>2026-08-11T08:35:08.304Z</time>
      </trkpt>
      <trkpt lat="49.7641" lon="5.88403">
        <ele>227.66</ele>
        <time>2026-08-11T08:35:16.299Z</time>
      </trkpt>
      <trkpt lat="49.76416" lon="5.88391">
        <ele>228.38</ele>
        <time>2026-08-11T08:36:48.315Z</time>
      </trkpt>
      <trkpt lat="49.7642" lon="5.88408">
        <ele>229.51</ele>
        <time>2026-08-11T08:37:53.295Z</time>
      </trkpt>
      <trkpt lat="49.76432" lon="5.88394">
        <ele>230.01</ele>
        <time>2026-08-11T08:38:10.298Z</time>
      </trkpt>
      <trkpt lat="49.76442" lon="5.88405">
        <ele>230.71</ele>
        <time>2026-08-11T08:38:47.302Z</time>
      </trkpt>
      <trkpt lat="49.76433" lon="5.88409">
        <ele>231.39</ele>
        <time>2026-08-11T08:39:00.300Z</time>
      </trkpt>
      <trkpt lat="49.76442" lon="5.88418">
        <ele>229.47</ele>
        <time>2026-08-11T08:39:26.319Z</time>
      </trkpt>
      <trkpt lat="49.76443" lon="5.88404">
        <ele>230.41</ele>
        <time>2026-08-11T08:40:04.327Z</time>
      </trkpt>
      <trkpt lat="49.76431" lon="5.88404">
        <ele>228.56</ele>
        <time>2026-08-11T08:40:25.371Z</time>
      </trkpt>
      <trkpt lat="49.76432" lon="5.88425">
        <ele>226.96</ele>
        <time>2026-08-11T08:45:07.368Z</time>
      </trkpt>
      <trkpt lat="49.76427" lon="5.88437">
        <ele>225.92</ele>
        <time>2026-08-11T08:45:14.312Z</time>
      </trkpt>
      <trkpt lat="49.76424" lon="5.8845">
        <ele>225.44</ele>
        <time>2026-08-11T08:45:52.300Z</time>
      </trkpt>
      <trkpt lat="49.76421" lon="5.88468">
        <ele>224.8</ele>
        <time>2026-08-11T08:45:57.314Z</time>
      </trkpt>
      <trkpt lat="49.76418" lon="5.88491">
        <ele>219.61</ele>
        <time>2026-08-11T08:46:03.311Z</time>
      </trkpt>
      <trkpt lat="49.76413" lon="5.8851">
        <ele>215.49</ele>
        <time>2026-08-11T08:46:08.311Z</time>
      </trkpt>
      <trkpt lat="49.76409" lon="5.88531">
        <ele>216.36</ele>
        <time>2026-08-11T08:46:13.371Z</time>
      </trkpt>
      <trkpt lat="49.76406" lon="5.88551">
        <ele>217.87</ele>
        <time>2026-08-11T08:46:19.368Z</time>
      </trkpt>
      <trkpt lat="49.76404" lon="5.8857">
        <ele>219.02</ele>
        <time>2026-08-11T08:46:25.375Z</time>
      </trkpt>
      <trkpt lat="49.76402" lon="5.88591">
        <ele>222.2</ele>
        <time>2026-08-11T08:46:31.370Z</time>
      </trkpt>
      <trkpt lat="49.76401" lon="5.88612">
        <ele>225.49</ele>
        <time>2026-08-11T08:46:37.372Z</time>
      </trkpt>
      <trkpt lat="49.76399" lon="5.8863">
        <ele>227.38</ele>
        <time>2026-08-11T08:46:43.375Z</time>
      </trkpt>
      <trkpt lat="49.76397" lon="5.88647">
        <ele>229.16</ele>
        <time>2026-08-11T08:46:49.371Z</time>
      </trkpt>
      <trkpt lat="49.76396" lon="5.88663">
        <ele>230.38</ele>
        <time>2026-08-11T08:46:56.313Z</time>
      </trkpt>
      <trkpt lat="49.76398" lon="5.88679">
        <ele>231.78</ele>
        <time>2026-08-11T08:47:01.371Z</time>
      </trkpt>
      <trkpt lat="49.76399" lon="5.88695">
        <ele>232.9</ele>
        <time>2026-08-11T08:47:07.371Z</time>
      </trkpt>
      <trkpt lat="49.76401" lon="5.88711">
        <ele>234.16</ele>
        <time>2026-08-11T08:47:13.376Z</time>
      </trkpt>
      <trkpt lat="49.76403" lon="5.88727">
        <ele>237.27</ele>
        <time>2026-08-11T08:47:19.367Z</time>
      </trkpt>
      <trkpt lat="49.764" lon="5.88741">
        <ele>235.64</ele>
        <time>2026-08-11T08:47:25.369Z</time>
      </trkpt>
      <trkpt lat="49.76401" lon="5.88756">
        <ele>236.05</ele>
        <time>2026-08-11T08:47:32.303Z</time>
      </trkpt>
      <trkpt lat="49.76403" lon="5.88772">
        <ele>237.61</ele>
        <time>2026-08-11T08:47:39.313Z</time>
      </trkpt>
      <trkpt lat="49.76406" lon="5.88789">
        <ele>239.8</ele>
        <time>2026-08-11T08:47:45.299Z</time>
      </trkpt>
      <trkpt lat="49.76406" lon="5.88804">
        <ele>240.96</ele>
        <time>2026-08-11T08:47:52.299Z</time>
      </trkpt>
      <trkpt lat="49.76406" lon="5.8882">
        <ele>242.38</ele>
        <time>2026-08-11T08:47:59.300Z</time>
      </trkpt>
      <trkpt lat="49.76407" lon="5.88835">
        <ele>243.16</ele>
        <time>2026-08-11T08:48:05.311Z</time>
      </trkpt>
      <trkpt lat="49.76407" lon="5.8885">
        <ele>243.85</ele>
        <time>2026-08-11T08:48:13.354Z</time>
      </trkpt>
      <trkpt lat="49.76415" lon="5.88859">
        <ele>243.36</ele>
        <time>2026-08-11T08:48:19.351Z</time>
      </trkpt>
      <trkpt lat="49.76426" lon="5.88866">
        <ele>243.64</ele>
        <time>2026-08-11T08:48:25.349Z</time>
      </trkpt>
      <trkpt lat="49.76436" lon="5.88875">
        <ele>244.1</ele>
        <time>2026-08-11T08:48:31.355Z</time>
      </trkpt>
      <trkpt lat="49.76444" lon="5.88894">
        <ele>243.55</ele>
        <time>2026-08-11T08:48:37.362Z</time>
      </trkpt>
      <trkpt lat="49.76454" lon="5.88921">
        <ele>239.1</ele>
        <time>2026-08-11T08:48:43.369Z</time>
      </trkpt>
      <trkpt lat="49.76468" lon="5.8894">
        <ele>236.12</ele>
        <time>2026-08-11T08:48:49.355Z</time>
      </trkpt>
      <trkpt lat="49.76482" lon="5.88942">
        <ele>238.09</ele>
        <time>2026-08-11T08:48:55.367Z</time>
      </trkpt>
      <trkpt lat="49.76492" lon="5.88942">
        <ele>240.19</ele>
        <time>2026-08-11T08:49:14.303Z</time>
      </trkpt>
      <trkpt lat="49.76507" lon="5.88942">
        <ele>241.7</ele>
        <time>2026-08-11T08:49:19.353Z</time>
      </trkpt>
      <trkpt lat="49.76521" lon="5.88928">
        <ele>243.55</ele>
        <time>2026-08-11T08:49:25.363Z</time>
      </trkpt>
      <trkpt lat="49.76517" lon="5.88902">
        <ele>243.91</ele>
        <time>2026-08-11T08:49:31.359Z</time>
      </trkpt>
      <trkpt lat="49.76512" lon="5.88878">
        <ele>244.79</ele>
        <time>2026-08-11T08:49:37.366Z</time>
      </trkpt>
      <trkpt lat="49.7651" lon="5.88853">
        <ele>245.31</ele>
        <time>2026-08-11T08:49:43.360Z</time>
      </trkpt>
      <trkpt lat="49.76507" lon="5.88826">
        <ele>245.91</ele>
        <time>2026-08-11T08:49:49.353Z</time>
      </trkpt>
      <trkpt lat="49.76502" lon="5.88792">
        <ele>243.97</ele>
        <time>2026-08-11T08:49:55.368Z</time>
      </trkpt>
      <trkpt lat="49.765" lon="5.88754">
        <ele>243.68</ele>
        <time>2026-08-11T08:50:01.350Z</time>
      </trkpt>
      <trkpt lat="49.76503" lon="5.88708">
        <ele>241.92</ele>
        <time>2026-08-11T08:50:07.356Z</time>
      </trkpt>
      <trkpt lat="49.76509" lon="5.88645">
        <ele>240.27</ele>
        <time>2026-08-11T08:50:13.349Z</time>
      </trkpt>
      <trkpt lat="49.76515" lon="5.88565">
        <ele>237.89</ele>
        <time>2026-08-11T08:50:19.368Z</time>
      </trkpt>
      <trkpt lat="49.76522" lon="5.88476">
        <ele>235.34</ele>
        <time>2026-08-11T08:50:25.364Z</time>
      </trkpt>
      <trkpt lat="49.76526" lon="5.8839">
        <ele>234.93</ele>
        <time>2026-08-11T08:50:31.369Z</time>
      </trkpt>
      <trkpt lat="49.76522" lon="5.88304">
        <ele>232.1</ele>
        <time>2026-08-11T08:50:37.356Z</time>
      </trkpt>
      <trkpt lat="49.76508" lon="5.88238">
        <ele>227.31</ele>
        <time>2026-08-11T08:50:43.354Z</time>
      </trkpt>
      <trkpt lat="49.76461" lon="5.88223">
        <ele>221.94</ele>
        <time>2026-08-11T08:50:49.349Z</time>
      </trkpt>
      <trkpt lat="49.76476" lon="5.88159">
        <ele>220.92</ele>
        <time>2026-08-11T08:50:55.364Z</time>
      </trkpt>
      <trkpt lat="49.76498" lon="5.88116">
        <ele>222.65</ele>
        <time>2026-08-11T08:51:01.350Z</time>
      </trkpt>
      <trkpt lat="49.76517" lon="5.88082">
        <ele>224.2</ele>
        <time>2026-08-11T08:51:07.352Z</time>
      </trkpt>
      <trkpt lat="49.76533" lon="5.88061">
        <ele>223.51</ele>
        <time>2026-08-11T08:51:13.373Z</time>
      </trkpt>
      <trkpt lat="49.76542" lon="5.88039">
        <ele>223.77</ele>
        <time>2026-08-11T08:51:19.361Z</time>
      </trkpt>
      <trkpt lat="49.76533" lon="5.88047">
        <ele>223.83</ele>
        <time>2026-08-11T08:52:34.324Z</time>
      </trkpt>
      <trkpt lat="49.76521" lon="5.88072">
        <ele>223.91</ele>
        <time>2026-08-11T08:52:40.301Z</time>
      </trkpt>
      <trkpt lat="49.76507" lon="5.88091">
        <ele>222.69</ele>
        <time>2026-08-11T08:52:45.302Z</time>
      </trkpt>
      <trkpt lat="49.76495" lon="5.8811">
        <ele>222.75</ele>
        <time>2026-08-11T08:52:50.315Z</time>
      </trkpt>
      <trkpt lat="49.76482" lon="5.88122">
        <ele>223.86</ele>
        <time>2026-08-11T08:52:55.368Z</time>
      </trkpt>
      <trkpt lat="49.76458" lon="5.88115">
        <ele>225.11</ele>
        <time>2026-08-11T08:53:01.359Z</time>
      </trkpt>
      <trkpt lat="49.76432" lon="5.881">
        <ele>224.88</ele>
        <time>2026-08-11T08:53:07.355Z</time>
      </trkpt>
      <trkpt lat="49.76407" lon="5.88084">
        <ele>225.77</ele>
        <time>2026-08-11T08:53:13.363Z</time>
      </trkpt>
      <trkpt lat="49.76383" lon="5.88083">
        <ele>226.53</ele>
        <time>2026-08-11T08:53:19.354Z</time>
      </trkpt>
      <trkpt lat="49.76364" lon="5.88108">
        <ele>224.85</ele>
        <time>2026-08-11T08:53:25.362Z</time>
      </trkpt>
      <trkpt lat="49.76353" lon="5.8814">
        <ele>222.97</ele>
        <time>2026-08-11T08:53:31.370Z</time>
      </trkpt>
      <trkpt lat="49.76335" lon="5.88137">
        <ele>223.34</ele>
        <time>2026-08-11T08:53:37.376Z</time>
      </trkpt>
      <trkpt lat="49.76316" lon="5.88127">
        <ele>225.03</ele>
        <time>2026-08-11T08:53:43.357Z</time>
      </trkpt>
      <trkpt lat="49.76295" lon="5.88102">
        <ele>222.62</ele>
        <time>2026-08-11T08:53:49.361Z</time>
      </trkpt>
      <trkpt lat="49.76283" lon="5.88078">
        <ele>221.77</ele>
        <time>2026-08-11T08:53:55.356Z</time>
      </trkpt>
      <trkpt lat="49.7627" lon="5.88061">
        <ele>222.23</ele>
        <time>2026-08-11T08:54:01.360Z</time>
      </trkpt>
      <trkpt lat="49.76261" lon="5.88035">
        <ele>223.32</ele>
        <time>2026-08-11T08:54:07.363Z</time>
      </trkpt>
      <trkpt lat="49.76262" lon="5.88049">
        <ele>222.8</ele>
        <time>2026-08-11T08:54:19.353Z</time>
      </trkpt>
      <trkpt lat="49.76259" lon="5.88072">
        <ele>222.47</ele>
        <time>2026-08-11T08:54:25.369Z</time>
      </trkpt>
      <trkpt lat="49.76237" lon="5.88077">
        <ele>222.1</ele>
        <time>2026-08-11T08:54:31.360Z</time>
      </trkpt>
      <trkpt lat="49.76218" lon="5.88084">
        <ele>221.58</ele>
        <time>2026-08-11T08:54:37.366Z</time>
      </trkpt>
      <trkpt lat="49.762" lon="5.88087">
        <ele>220.39</ele>
        <time>2026-08-11T08:54:43.358Z</time>
      </trkpt>
      <trkpt lat="49.76175" lon="5.88103">
        <ele>221.16</ele>
        <time>2026-08-11T08:54:49.351Z</time>
      </trkpt>
      <trkpt lat="49.76157" lon="5.88125">
        <ele>221.52</ele>
        <time>2026-08-11T08:54:55.367Z</time>
      </trkpt>
      <trkpt lat="49.76146" lon="5.88152">
        <ele>221.05</ele>
        <time>2026-08-11T08:55:01.359Z</time>
      </trkpt>
      <trkpt lat="49.76141" lon="5.88177">
        <ele>220.2</ele>
        <time>2026-08-11T08:55:07.358Z</time>
      </trkpt>
      <trkpt lat="49.76137" lon="5.88203">
        <ele>222.84</ele>
        <time>2026-08-11T08:55:13.353Z</time>
      </trkpt>
      <trkpt lat="49.76132" lon="5.88227">
        <ele>223.35</ele>
        <time>2026-08-11T08:55:19.359Z</time>
      </trkpt>
      <trkpt lat="49.7613" lon="5.88253">
        <ele>226.45</ele>
        <time>2026-08-11T08:55:25.368Z</time>
      </trkpt>
      <trkpt lat="49.76125" lon="5.88279">
        <ele>228.12</ele>
        <time>2026-08-11T08:55:31.367Z</time>
      </trkpt>
      <trkpt lat="49.76122" lon="5.88301">
        <ele>231.2</ele>
        <time>2026-08-11T08:55:37.354Z</time>
      </trkpt>
      <trkpt lat="49.76118" lon="5.88325">
        <ele>230.91</ele>
        <time>2026-08-11T08:55:43.365Z</time>
      </trkpt>
      <trkpt lat="49.76115" lon="5.88352">
        <ele>231.84</ele>
        <time>2026-08-11T08:55:49.359Z</time>
      </trkpt>
      <trkpt lat="49.76112" lon="5.88377">
        <ele>232.76</ele>
        <time>2026-08-11T08:55:55.357Z</time>
      </trkpt>
      <trkpt lat="49.76109" lon="5.884">
        <ele>235.83</ele>
        <time>2026-08-11T08:56:01.359Z</time>
      </trkpt>
      <trkpt lat="49.76106" lon="5.88424">
        <ele>237.84</ele>
        <time>2026-08-11T08:56:07.354Z</time>
      </trkpt>
      <trkpt lat="49.76102" lon="5.88444">
        <ele>240.76</ele>
        <time>2026-08-11T08:56:13.376Z</time>
      </trkpt>
      <trkpt lat="49.76096" lon="5.88464">
        <ele>244.26</ele>
        <time>2026-08-11T08:56:19.372Z</time>
      </trkpt>
      <trkpt lat="49.76086" lon="5.8849">
        <ele>242.78</ele>
        <time>2026-08-11T08:56:25.369Z</time>
      </trkpt>
      <trkpt lat="49.76078" lon="5.88515">
        <ele>242.01</ele>
        <time>2026-08-11T08:56:31.374Z</time>
      </trkpt>
      <trkpt lat="49.7607" lon="5.88536">
        <ele>243.47</ele>
        <time>2026-08-11T08:56:37.369Z</time>
      </trkpt>
      <trkpt lat="49.76063" lon="5.88554">
        <ele>244.89</ele>
        <time>2026-08-11T08:56:43.362Z</time>
      </trkpt>
      <trkpt lat="49.76055" lon="5.88571">
        <ele>245.83</ele>
        <time>2026-08-11T08:56:49.362Z</time>
      </trkpt>
      <trkpt lat="49.76048" lon="5.88591">
        <ele>246.39</ele>
        <time>2026-08-11T08:56:55.371Z</time>
      </trkpt>
      <trkpt lat="49.7604" lon="5.88611">
        <ele>246.16</ele>
        <time>2026-08-11T08:57:01.373Z</time>
      </trkpt>
      <trkpt lat="49.76034" lon="5.8863">
        <ele>245.24</ele>
        <time>2026-08-11T08:57:07.370Z</time>
      </trkpt>
      <trkpt lat="49.76029" lon="5.88652">
        <ele>244.88</ele>
        <time>2026-08-11T08:57:13.370Z</time>
      </trkpt>
      <trkpt lat="49.76019" lon="5.8868">
        <ele>242.86</ele>
        <time>2026-08-11T08:57:19.365Z</time>
      </trkpt>
      <trkpt lat="49.76008" lon="5.88704">
        <ele>242.19</ele>
        <time>2026-08-11T08:57:25.377Z</time>
      </trkpt>
      <trkpt lat="49.76002" lon="5.88732">
        <ele>243.75</ele>
        <time>2026-08-11T08:57:31.371Z</time>
      </trkpt>
      <trkpt lat="49.75997" lon="5.88759">
        <ele>244.91</ele>
        <time>2026-08-11T08:57:37.365Z</time>
      </trkpt>
      <trkpt lat="49.75994" lon="5.88784">
        <ele>245.85</ele>
        <time>2026-08-11T08:57:43.368Z</time>
      </trkpt>
      <trkpt lat="49.75992" lon="5.88816">
        <ele>244.54</ele>
        <time>2026-08-11T08:57:49.366Z</time>
      </trkpt>
      <trkpt lat="49.75993" lon="5.88848">
        <ele>240.7</ele>
        <time>2026-08-11T08:57:55.379Z</time>
      </trkpt>
      <trkpt lat="49.75993" lon="5.88873">
        <ele>238.74</ele>
        <time>2026-08-11T08:58:01.370Z</time>
      </trkpt>
      <trkpt lat="49.75992" lon="5.88904">
        <ele>237.22</ele>
        <time>2026-08-11T08:58:07.367Z</time>
      </trkpt>
      <trkpt lat="49.75994" lon="5.88935">
        <ele>233.8</ele>
        <time>2026-08-11T08:58:13.357Z</time>
      </trkpt>
      <trkpt lat="49.75996" lon="5.88965">
        <ele>229.77</ele>
        <time>2026-08-11T08:58:19.368Z</time>
      </trkpt>
      <trkpt lat="49.75995" lon="5.88992">
        <ele>225.6</ele>
        <time>2026-08-11T08:58:25.361Z</time>
      </trkpt>
      <trkpt lat="49.75997" lon="5.89019">
        <ele>224.51</ele>
        <time>2026-08-11T08:58:31.375Z</time>
      </trkpt>
      <trkpt lat="49.75997" lon="5.8904">
        <ele>221.76</ele>
        <time>2026-08-11T08:58:37.367Z</time>
      </trkpt>
      <trkpt lat="49.7599" lon="5.89062">
        <ele>218.71</ele>
        <time>2026-08-11T08:58:43.367Z</time>
      </trkpt>
      <trkpt lat="49.75983" lon="5.8909">
        <ele>216.09</ele>
        <time>2026-08-11T08:58:49.366Z</time>
      </trkpt>
      <trkpt lat="49.75977" lon="5.89125">
        <ele>216.67</ele>
        <time>2026-08-11T08:58:55.375Z</time>
      </trkpt>
      <trkpt lat="49.7597" lon="5.89159">
        <ele>215.24</ele>
        <time>2026-08-11T08:59:01.377Z</time>
      </trkpt>
      <trkpt lat="49.75962" lon="5.89195">
        <ele>217</ele>
        <time>2026-08-11T08:59:07.369Z</time>
      </trkpt>
      <trkpt lat="49.75956" lon="5.89247">
        <ele>221.1</ele>
        <time>2026-08-11T08:59:13.373Z</time>
      </trkpt>
      <trkpt lat="49.75949" lon="5.89294">
        <ele>225.45</ele>
        <time>2026-08-11T08:59:19.364Z</time>
      </trkpt>
      <trkpt lat="49.75946" lon="5.89335">
        <ele>226.38</ele>
        <time>2026-08-11T08:59:25.378Z</time>
      </trkpt>
      <trkpt lat="49.75938" lon="5.89374">
        <ele>224.25</ele>
        <time>2026-08-11T08:59:31.369Z</time>
      </trkpt>
      <trkpt lat="49.75932" lon="5.89411">
        <ele>227.8</ele>
        <time>2026-08-11T08:59:37.365Z</time>
      </trkpt>
      <trkpt lat="49.75923" lon="5.89463">
        <ele>235.51</ele>
        <time>2026-08-11T08:59:43.366Z</time>
      </trkpt>
      <trkpt lat="49.75914" lon="5.89513">
        <ele>238.78</ele>
        <time>2026-08-11T08:59:49.368Z</time>
      </trkpt>
      <trkpt lat="49.75904" lon="5.89563">
        <ele>240.04</ele>
        <time>2026-08-11T08:59:55.379Z</time>
      </trkpt>
      <trkpt lat="49.75895" lon="5.89612">
        <ele>240.48</ele>
        <time>2026-08-11T09:00:01.375Z</time>
      </trkpt>
      <trkpt lat="49.75886" lon="5.89659">
        <ele>239.82</ele>
        <time>2026-08-11T09:00:07.363Z</time>
      </trkpt>
      <trkpt lat="49.75898" lon="5.89676">
        <ele>240.99</ele>
        <time>2026-08-11T09:00:13.371Z</time>
      </trkpt>
      <trkpt lat="49.75894" lon="5.89709">
        <ele>240.16</ele>
        <time>2026-08-11T09:00:19.365Z</time>
      </trkpt>
      <trkpt lat="49.7588" lon="5.89755">
        <ele>237.53</ele>
        <time>2026-08-11T09:00:25.376Z</time>
      </trkpt>
      <trkpt lat="49.75864" lon="5.89808">
        <ele>235.33</ele>
        <time>2026-08-11T09:00:31.370Z</time>
      </trkpt>
      <trkpt lat="49.75847" lon="5.89863">
        <ele>233.21</ele>
        <time>2026-08-11T09:00:37.372Z</time>
      </trkpt>
      <trkpt lat="49.75831" lon="5.89915">
        <ele>233.13</ele>
        <time>2026-08-11T09:00:43.369Z</time>
      </trkpt>
      <trkpt lat="49.75814" lon="5.89967">
        <ele>232.92</ele>
        <time>2026-08-11T09:00:49.374Z</time>
      </trkpt>
      <trkpt lat="49.75799" lon="5.90019">
        <ele>231.81</ele>
        <time>2026-08-11T09:00:55.358Z</time>
      </trkpt>
      <trkpt lat="49.75781" lon="5.9007">
        <ele>231.67</ele>
        <time>2026-08-11T09:01:01.377Z</time>
      </trkpt>
      <trkpt lat="49.75752" lon="5.90113">
        <ele>229.92</ele>
        <time>2026-08-11T09:01:07.370Z</time>
      </trkpt>
      <trkpt lat="49.75723" lon="5.90159">
        <ele>228.26</ele>
        <time>2026-08-11T09:01:13.374Z</time>
      </trkpt>
      <trkpt lat="49.75694" lon="5.90204">
        <ele>227.87</ele>
        <time>2026-08-11T09:01:19.375Z</time>
      </trkpt>
      <trkpt lat="49.75667" lon="5.90246">
        <ele>227.48</ele>
        <time>2026-08-11T09:01:25.379Z</time>
      </trkpt>
      <trkpt lat="49.75641" lon="5.90289">
        <ele>226.3</ele>
        <time>2026-08-11T09:01:31.377Z</time>
      </trkpt>
      <trkpt lat="49.75615" lon="5.90334">
        <ele>224.71</ele>
        <time>2026-08-11T09:01:37.368Z</time>
      </trkpt>
      <trkpt lat="49.75589" lon="5.90381">
        <ele>224.09</ele>
        <time>2026-08-11T09:01:43.364Z</time>
      </trkpt>
      <trkpt lat="49.75566" lon="5.90428">
        <ele>224.53</ele>
        <time>2026-08-11T09:01:49.369Z</time>
      </trkpt>
      <trkpt lat="49.75544" lon="5.9047">
        <ele>224.05</ele>
        <time>2026-08-11T09:01:55.378Z</time>
      </trkpt>
      <trkpt lat="49.75522" lon="5.90514">
        <ele>223.71</ele>
        <time>2026-08-11T09:02:01.371Z</time>
      </trkpt>
      <trkpt lat="49.75501" lon="5.90556">
        <ele>222.07</ele>
        <time>2026-08-11T09:02:07.371Z</time>
      </trkpt>
      <trkpt lat="49.7548" lon="5.90597">
        <ele>220.86</ele>
        <time>2026-08-11T09:02:13.372Z</time>
      </trkpt>
      <trkpt lat="49.7546" lon="5.90639">
        <ele>220.64</ele>
        <time>2026-08-11T09:02:19.372Z</time>
      </trkpt>
      <trkpt lat="49.75438" lon="5.90681">
        <ele>220.89</ele>
        <time>2026-08-11T09:02:25.378Z</time>
      </trkpt>
      <trkpt lat="49.75417" lon="5.90723">
        <ele>220.17</ele>
        <time>2026-08-11T09:02:31.380Z</time>
      </trkpt>
      <trkpt lat="49.75398" lon="5.90763">
        <ele>220.71</ele>
        <time>2026-08-11T09:02:37.369Z</time>
      </trkpt>
      <trkpt lat="49.75385" lon="5.90788">
        <ele>220.48</ele>
        <time>2026-08-11T09:02:43.365Z</time>
      </trkpt>
      <trkpt lat="49.75369" lon="5.90819">
        <ele>222.24</ele>
        <time>2026-08-11T09:02:49.374Z</time>
      </trkpt>
      <trkpt lat="49.75349" lon="5.90859">
        <ele>220.05</ele>
        <time>2026-08-11T09:02:55.377Z</time>
      </trkpt>
      <trkpt lat="49.75327" lon="5.909">
        <ele>217.88</ele>
        <time>2026-08-11T09:03:01.378Z</time>
      </trkpt>
      <trkpt lat="49.75308" lon="5.90944">
        <ele>217.99</ele>
        <time>2026-08-11T09:03:07.369Z</time>
      </trkpt>
      <trkpt lat="49.75294" lon="5.90991">
        <ele>219.03</ele>
        <time>2026-08-11T09:03:13.368Z</time>
      </trkpt>
      <trkpt lat="49.75286" lon="5.91043">
        <ele>219.87</ele>
        <time>2026-08-11T09:03:19.367Z</time>
      </trkpt>
      <trkpt lat="49.75282" lon="5.91094">
        <ele>218.04</ele>
        <time>2026-08-11T09:03:25.377Z</time>
      </trkpt>
      <trkpt lat="49.75277" lon="5.91137">
        <ele>216.54</ele>
        <time>2026-08-11T09:03:31.381Z</time>
      </trkpt>
      <trkpt lat="49.75276" lon="5.9117">
        <ele>215.82</ele>
        <time>2026-08-11T09:03:37.369Z</time>
      </trkpt>
      <trkpt lat="49.75276" lon="5.91153">
        <ele>217.94</ele>
        <time>2026-08-11T09:03:53.320Z</time>
      </trkpt>
      <trkpt lat="49.75276" lon="5.91167">
        <ele>216.6</ele>
        <time>2026-08-11T09:04:09.318Z</time>
      </trkpt>
      <trkpt lat="49.75274" lon="5.91182">
        <ele>217.32</ele>
        <time>2026-08-11T09:04:15.312Z</time>
      </trkpt>
      <trkpt lat="49.75272" lon="5.91197">
        <ele>217.44</ele>
        <time>2026-08-11T09:04:23.317Z</time>
      </trkpt>
      <trkpt lat="49.7527" lon="5.91218">
        <ele>217.43</ele>
        <time>2026-08-11T09:04:29.318Z</time>
      </trkpt>
      <trkpt lat="49.75267" lon="5.91244">
        <ele>218.52</ele>
        <time>2026-08-11T09:04:35.315Z</time>
      </trkpt>
      <trkpt lat="49.75264" lon="5.9127">
        <ele>219.63</ele>
        <time>2026-08-11T09:04:40.318Z</time>
      </trkpt>
      <trkpt lat="49.7526" lon="5.91296">
        <ele>220.02</ele>
        <time>2026-08-11T09:04:45.320Z</time>
      </trkpt>
      <trkpt lat="49.75255" lon="5.91326">
        <ele>221.22</ele>
        <time>2026-08-11T09:04:51.315Z</time>
      </trkpt>
      <trkpt lat="49.75251" lon="5.91352">
        <ele>221.99</ele>
        <time>2026-08-11T09:04:56.315Z</time>
      </trkpt>
      <trkpt lat="49.75246" lon="5.91381">
        <ele>221.66</ele>
        <time>2026-08-11T09:05:01.375Z</time>
      </trkpt>
      <trkpt lat="49.75242" lon="5.91413">
        <ele>219.9</ele>
        <time>2026-08-11T09:05:07.373Z</time>
      </trkpt>
      <trkpt lat="49.75233" lon="5.91449">
        <ele>218.53</ele>
        <time>2026-08-11T09:05:13.370Z</time>
      </trkpt>
      <trkpt lat="49.75225" lon="5.91488">
        <ele>220.17</ele>
        <time>2026-08-11T09:05:19.374Z</time>
      </trkpt>
      <trkpt lat="49.75217" lon="5.91527">
        <ele>220.75</ele>
        <time>2026-08-11T09:05:25.373Z</time>
      </trkpt>
      <trkpt lat="49.75207" lon="5.91566">
        <ele>220.4</ele>
        <time>2026-08-11T09:05:31.375Z</time>
      </trkpt>
      <trkpt lat="49.75195" lon="5.91605">
        <ele>219.63</ele>
        <time>2026-08-11T09:05:37.365Z</time>
      </trkpt>
      <trkpt lat="49.7518" lon="5.91646">
        <ele>218.96</ele>
        <time>2026-08-11T09:05:43.369Z</time>
      </trkpt>
      <trkpt lat="49.75165" lon="5.91689">
        <ele>219.88</ele>
        <time>2026-08-11T09:05:49.365Z</time>
      </trkpt>
      <trkpt lat="49.75149" lon="5.91734">
        <ele>219.91</ele>
        <time>2026-08-11T09:05:55.375Z</time>
      </trkpt>
      <trkpt lat="49.75134" lon="5.91777">
        <ele>219.08</ele>
        <time>2026-08-11T09:06:01.381Z</time>
      </trkpt>
      <trkpt lat="49.7512" lon="5.91817">
        <ele>218.74</ele>
        <time>2026-08-11T09:06:07.372Z</time>
      </trkpt>
      <trkpt lat="49.75107" lon="5.91855">
        <ele>219.16</ele>
        <time>2026-08-11T09:06:13.375Z</time>
      </trkpt>
      <trkpt lat="49.75094" lon="5.91892">
        <ele>220.63</ele>
        <time>2026-08-11T09:06:19.375Z</time>
      </trkpt>
      <trkpt lat="49.75079" lon="5.91929">
        <ele>221.06</ele>
        <time>2026-08-11T09:06:25.380Z</time>
      </trkpt>
      <trkpt lat="49.75062" lon="5.91966">
        <ele>221.34</ele>
        <time>2026-08-11T09:06:31.382Z</time>
      </trkpt>
      <trkpt lat="49.75043" lon="5.92001">
        <ele>221.91</ele>
        <time>2026-08-11T09:06:37.372Z</time>
      </trkpt>
      <trkpt lat="49.75021" lon="5.92033">
        <ele>221.33</ele>
        <time>2026-08-11T09:06:43.367Z</time>
      </trkpt>
      <trkpt lat="49.74998" lon="5.92065">
        <ele>219.97</ele>
        <time>2026-08-11T09:06:49.374Z</time>
      </trkpt>
      <trkpt lat="49.74977" lon="5.92094">
        <ele>220.29</ele>
        <time>2026-08-11T09:06:55.379Z</time>
      </trkpt>
      <trkpt lat="49.74955" lon="5.92123">
        <ele>220.25</ele>
        <time>2026-08-11T09:07:01.383Z</time>
      </trkpt>
      <trkpt lat="49.74933" lon="5.92153">
        <ele>220.96</ele>
        <time>2026-08-11T09:07:07.384Z</time>
      </trkpt>
      <trkpt lat="49.74911" lon="5.92184">
        <ele>220.72</ele>
        <time>2026-08-11T09:07:13.366Z</time>
      </trkpt>
      <trkpt lat="49.74888" lon="5.92215">
        <ele>220.49</ele>
        <time>2026-08-11T09:07:19.367Z</time>
      </trkpt>
      <trkpt lat="49.74865" lon="5.92243">
        <ele>221.22</ele>
        <time>2026-08-11T09:07:25.381Z</time>
      </trkpt>
      <trkpt lat="49.74842" lon="5.92275">
        <ele>221.43</ele>
        <time>2026-08-11T09:07:31.376Z</time>
      </trkpt>
      <trkpt lat="49.74817" lon="5.92308">
        <ele>220.52</ele>
        <time>2026-08-11T09:07:37.371Z</time>
      </trkpt>
      <trkpt lat="49.74794" lon="5.92338">
        <ele>221.72</ele>
        <time>2026-08-11T09:07:43.366Z</time>
      </trkpt>
      <trkpt lat="49.74769" lon="5.92364">
        <ele>220.61</ele>
        <time>2026-08-11T09:07:49.368Z</time>
      </trkpt>
      <trkpt lat="49.74741" lon="5.92383">
        <ele>220.72</ele>
        <time>2026-08-11T09:07:55.372Z</time>
      </trkpt>
      <trkpt lat="49.74711" lon="5.92387">
        <ele>221.05</ele>
        <time>2026-08-11T09:08:01.370Z</time>
      </trkpt>
      <trkpt lat="49.74684" lon="5.92383">
        <ele>220.61</ele>
        <time>2026-08-11T09:08:07.370Z</time>
      </trkpt>
      <trkpt lat="49.74663" lon="5.92373">
        <ele>222.01</ele>
        <time>2026-08-11T09:08:13.370Z</time>
      </trkpt>
      <trkpt lat="49.74639" lon="5.92359">
        <ele>222.17</ele>
        <time>2026-08-11T09:08:19.363Z</time>
      </trkpt>
      <trkpt lat="49.74615" lon="5.92343">
        <ele>221.4</ele>
        <time>2026-08-11T09:08:25.375Z</time>
      </trkpt>
      <trkpt lat="49.74591" lon="5.92327">
        <ele>220.37</ele>
        <time>2026-08-11T09:08:31.375Z</time>
      </trkpt>
      <trkpt lat="49.74567" lon="5.92314">
        <ele>219.17</ele>
        <time>2026-08-11T09:08:37.360Z</time>
      </trkpt>
      <trkpt lat="49.74545" lon="5.92299">
        <ele>219.45</ele>
        <time>2026-08-11T09:08:43.370Z</time>
      </trkpt>
      <trkpt lat="49.74521" lon="5.92284">
        <ele>221.77</ele>
        <time>2026-08-11T09:08:49.370Z</time>
      </trkpt>
      <trkpt lat="49.74494" lon="5.92266">
        <ele>222.6</ele>
        <time>2026-08-11T09:08:55.378Z</time>
      </trkpt>
      <trkpt lat="49.74466" lon="5.92256">
        <ele>224.06</ele>
        <time>2026-08-11T09:09:01.376Z</time>
      </trkpt>
      <trkpt lat="49.74445" lon="5.92247">
        <ele>224.26</ele>
        <time>2026-08-11T09:09:07.371Z</time>
      </trkpt>
      <trkpt lat="49.74422" lon="5.92244">
        <ele>225.07</ele>
        <time>2026-08-11T09:09:13.364Z</time>
      </trkpt>
      <trkpt lat="49.74395" lon="5.92241">
        <ele>224.9</ele>
        <time>2026-08-11T09:09:19.365Z</time>
      </trkpt>
      <trkpt lat="49.74366" lon="5.92238">
        <ele>225.44</ele>
        <time>2026-08-11T09:09:25.375Z</time>
      </trkpt>
      <trkpt lat="49.74335" lon="5.92232">
        <ele>224.43</ele>
        <time>2026-08-11T09:09:31.374Z</time>
      </trkpt>
      <trkpt lat="49.74307" lon="5.92229">
        <ele>223.95</ele>
        <time>2026-08-11T09:09:37.367Z</time>
      </trkpt>
      <trkpt lat="49.74276" lon="5.92227">
        <ele>223.08</ele>
        <time>2026-08-11T09:09:43.370Z</time>
      </trkpt>
      <trkpt lat="49.74247" lon="5.92244">
        <ele>223.8</ele>
        <time>2026-08-11T09:09:49.365Z</time>
      </trkpt>
      <trkpt lat="49.74219" lon="5.92257">
        <ele>223.01</ele>
        <time>2026-08-11T09:09:55.383Z</time>
      </trkpt>
      <trkpt lat="49.74193" lon="5.92252">
        <ele>221.76</ele>
        <time>2026-08-11T09:10:01.373Z</time>
      </trkpt>
      <trkpt lat="49.74177" lon="5.92232">
        <ele>222.13</ele>
        <time>2026-08-11T09:10:07.372Z</time>
      </trkpt>
      <trkpt lat="49.74159" lon="5.92231">
        <ele>222.14</ele>
        <time>2026-08-11T09:10:13.368Z</time>
      </trkpt>
      <trkpt lat="49.74152" lon="5.92247">
        <ele>222.49</ele>
        <time>2026-08-11T09:10:19.367Z</time>
      </trkpt>
      <trkpt lat="49.74134" lon="5.92251">
        <ele>223.16</ele>
        <time>2026-08-11T09:10:25.381Z</time>
      </trkpt>
      <trkpt lat="49.74105" lon="5.92252">
        <ele>224.38</ele>
        <time>2026-08-11T09:10:31.370Z</time>
      </trkpt>
      <trkpt lat="49.74072" lon="5.92251">
        <ele>224.85</ele>
        <time>2026-08-11T09:10:37.366Z</time>
      </trkpt>
      <trkpt lat="49.74043" lon="5.92248">
        <ele>225.54</ele>
        <time>2026-08-11T09:10:43.369Z</time>
      </trkpt>
      <trkpt lat="49.74013" lon="5.92244">
        <ele>225.89</ele>
        <time>2026-08-11T09:10:49.364Z</time>
      </trkpt>
      <trkpt lat="49.73982" lon="5.92239">
        <ele>227.11</ele>
        <time>2026-08-11T09:10:55.357Z</time>
      </trkpt>
      <trkpt lat="49.73953" lon="5.92232">
        <ele>225.18</ele>
        <time>2026-08-11T09:11:01.375Z</time>
      </trkpt>
      <trkpt lat="49.73926" lon="5.92218">
        <ele>224.73</ele>
        <time>2026-08-11T09:11:07.373Z</time>
      </trkpt>
      <trkpt lat="49.73902" lon="5.92202">
        <ele>224.23</ele>
        <time>2026-08-11T09:11:13.369Z</time>
      </trkpt>
      <trkpt lat="49.73877" lon="5.92183">
        <ele>220.1</ele>
        <time>2026-08-11T09:11:19.370Z</time>
      </trkpt>
      <trkpt lat="49.73854" lon="5.92158">
        <ele>219.8</ele>
        <time>2026-08-11T09:11:25.379Z</time>
      </trkpt>
      <trkpt lat="49.73835" lon="5.9213">
        <ele>221.4</ele>
        <time>2026-08-11T09:11:31.378Z</time>
      </trkpt>
      <trkpt lat="49.73816" lon="5.921">
        <ele>221.54</ele>
        <time>2026-08-11T09:11:37.363Z</time>
      </trkpt>
      <trkpt lat="49.73799" lon="5.92068">
        <ele>221.89</ele>
        <time>2026-08-11T09:11:43.362Z</time>
      </trkpt>
      <trkpt lat="49.73782" lon="5.92029">
        <ele>224.07</ele>
        <time>2026-08-11T09:11:49.363Z</time>
      </trkpt>
      <trkpt lat="49.73768" lon="5.91992">
        <ele>225.11</ele>
        <time>2026-08-11T09:11:55.382Z</time>
      </trkpt>
      <trkpt lat="49.73755" lon="5.91955">
        <ele>226.23</ele>
        <time>2026-08-11T09:12:01.370Z</time>
      </trkpt>
      <trkpt lat="49.73742" lon="5.91919">
        <ele>226.7</ele>
        <time>2026-08-11T09:12:07.364Z</time>
      </trkpt>
      <trkpt lat="49.7373" lon="5.91885">
        <ele>227.86</ele>
        <time>2026-08-11T09:12:13.363Z</time>
      </trkpt>
      <trkpt lat="49.73718" lon="5.91853">
        <ele>227.95</ele>
        <time>2026-08-11T09:12:19.370Z</time>
      </trkpt>
      <trkpt lat="49.73707" lon="5.9182">
        <ele>228.29</ele>
        <time>2026-08-11T09:12:25.383Z</time>
      </trkpt>
      <trkpt lat="49.73694" lon="5.91787">
        <ele>227.78</ele>
        <time>2026-08-11T09:12:31.378Z</time>
      </trkpt>
      <trkpt lat="49.73683" lon="5.91754">
        <ele>226.95</ele>
        <time>2026-08-11T09:12:37.369Z</time>
      </trkpt>
      <trkpt lat="49.73669" lon="5.91718">
        <ele>228.6</ele>
        <time>2026-08-11T09:12:43.375Z</time>
      </trkpt>
      <trkpt lat="49.73655" lon="5.91681">
        <ele>230.08</ele>
        <time>2026-08-11T09:12:49.362Z</time>
      </trkpt>
      <trkpt lat="49.73642" lon="5.91645">
        <ele>231.01</ele>
        <time>2026-08-11T09:12:55.381Z</time>
      </trkpt>
      <trkpt lat="49.7363" lon="5.91614">
        <ele>231.69</ele>
        <time>2026-08-11T09:13:01.372Z</time>
      </trkpt>
      <trkpt lat="49.73617" lon="5.91581">
        <ele>230.62</ele>
        <time>2026-08-11T09:13:07.374Z</time>
      </trkpt>
      <trkpt lat="49.73599" lon="5.91547">
        <ele>231.4</ele>
        <time>2026-08-11T09:13:13.371Z</time>
      </trkpt>
      <trkpt lat="49.73581" lon="5.91517">
        <ele>232.33</ele>
        <time>2026-08-11T09:13:19.366Z</time>
      </trkpt>
      <trkpt lat="49.73564" lon="5.9149">
        <ele>232.53</ele>
        <time>2026-08-11T09:13:25.368Z</time>
      </trkpt>
      <trkpt lat="49.73546" lon="5.91463">
        <ele>233.18</ele>
        <time>2026-08-11T09:13:31.372Z</time>
      </trkpt>
      <trkpt lat="49.73527" lon="5.91435">
        <ele>233.85</ele>
        <time>2026-08-11T09:13:37.373Z</time>
      </trkpt>
      <trkpt lat="49.73508" lon="5.91409">
        <ele>234.55</ele>
        <time>2026-08-11T09:13:43.375Z</time>
      </trkpt>
      <trkpt lat="49.7349" lon="5.91382">
        <ele>235.12</ele>
        <time>2026-08-11T09:13:49.368Z</time>
      </trkpt>
      <trkpt lat="49.7347" lon="5.91355">
        <ele>235.87</ele>
        <time>2026-08-11T09:13:55.387Z</time>
      </trkpt>
      <trkpt lat="49.7345" lon="5.91327">
        <ele>236.25</ele>
        <time>2026-08-11T09:14:01.368Z</time>
      </trkpt>
      <trkpt lat="49.73431" lon="5.91299">
        <ele>236.1</ele>
        <time>2026-08-11T09:14:07.369Z</time>
      </trkpt>
      <trkpt lat="49.73412" lon="5.91272">
        <ele>235.93</ele>
        <time>2026-08-11T09:14:13.360Z</time>
      </trkpt>
      <trkpt lat="49.73394" lon="5.91245">
        <ele>237.56</ele>
        <time>2026-08-11T09:14:19.373Z</time>
      </trkpt>
      <trkpt lat="49.73377" lon="5.91216">
        <ele>240.49</ele>
        <time>2026-08-11T09:14:25.378Z</time>
      </trkpt>
      <trkpt lat="49.73362" lon="5.91187">
        <ele>239.4</ele>
        <time>2026-08-11T09:14:31.377Z</time>
      </trkpt>
      <trkpt lat="49.73345" lon="5.91151">
        <ele>237.64</ele>
        <time>2026-08-11T09:14:37.372Z</time>
      </trkpt>
      <trkpt lat="49.73332" lon="5.91117">
        <ele>234.87</ele>
        <time>2026-08-11T09:14:43.372Z</time>
      </trkpt>
      <trkpt lat="49.73322" lon="5.91083">
        <ele>234.74</ele>
        <time>2026-08-11T09:14:49.363Z</time>
      </trkpt>
      <trkpt lat="49.73311" lon="5.91046">
        <ele>237.41</ele>
        <time>2026-08-11T09:14:55.378Z</time>
      </trkpt>
      <trkpt lat="49.73303" lon="5.91009">
        <ele>241.34</ele>
        <time>2026-08-11T09:15:01.371Z</time>
      </trkpt>
      <trkpt lat="49.73295" lon="5.90971">
        <ele>244.12</ele>
        <time>2026-08-11T09:15:07.368Z</time>
      </trkpt>
      <trkpt lat="49.73283" lon="5.90929">
        <ele>243.66</ele>
        <time>2026-08-11T09:15:13.403Z</time>
      </trkpt>
      <trkpt lat="49.7327" lon="5.90887">
        <ele>244.92</ele>
        <time>2026-08-11T09:15:19.366Z</time>
      </trkpt>
      <trkpt lat="49.73261" lon="5.90849">
        <ele>241.71</ele>
        <time>2026-08-11T09:15:25.378Z</time>
      </trkpt>
      <trkpt lat="49.73253" lon="5.90814">
        <ele>240.58</ele>
        <time>2026-08-11T09:15:31.371Z</time>
      </trkpt>
      <trkpt lat="49.73244" lon="5.90778">
        <ele>241.05</ele>
        <time>2026-08-11T09:15:37.372Z</time>
      </trkpt>
      <trkpt lat="49.73234" lon="5.90738">
        <ele>240.21</ele>
        <time>2026-08-11T09:15:43.365Z</time>
      </trkpt>
      <trkpt lat="49.73223" lon="5.907">
        <ele>239.33</ele>
        <time>2026-08-11T09:15:49.374Z</time>
      </trkpt>
      <trkpt lat="49.73211" lon="5.9066">
        <ele>238.34</ele>
        <time>2026-08-11T09:15:55.382Z</time>
      </trkpt>
      <trkpt lat="49.73196" lon="5.90622">
        <ele>239.21</ele>
        <time>2026-08-11T09:16:01.375Z</time>
      </trkpt>
      <trkpt lat="49.7318" lon="5.90586">
        <ele>242.11</ele>
        <time>2026-08-11T09:16:07.364Z</time>
      </trkpt>
      <trkpt lat="49.73163" lon="5.90553">
        <ele>242.2</ele>
        <time>2026-08-11T09:16:13.370Z</time>
      </trkpt>
      <trkpt lat="49.73143" lon="5.90518">
        <ele>242.45</ele>
        <time>2026-08-11T09:16:19.359Z</time>
      </trkpt>
      <trkpt lat="49.73124" lon="5.90486">
        <ele>240.98</ele>
        <time>2026-08-11T09:16:25.379Z</time>
      </trkpt>
      <trkpt lat="49.73105" lon="5.90457">
        <ele>242.29</ele>
        <time>2026-08-11T09:16:31.372Z</time>
      </trkpt>
      <trkpt lat="49.73084" lon="5.90428">
        <ele>243.54</ele>
        <time>2026-08-11T09:16:37.354Z</time>
      </trkpt>
      <trkpt lat="49.73063" lon="5.90399">
        <ele>243.79</ele>
        <time>2026-08-11T09:16:43.361Z</time>
      </trkpt>
      <trkpt lat="49.73044" lon="5.90371">
        <ele>242.44</ele>
        <time>2026-08-11T09:16:49.362Z</time>
      </trkpt>
      <trkpt lat="49.73024" lon="5.90342">
        <ele>243.23</ele>
        <time>2026-08-11T09:16:55.380Z</time>
      </trkpt>
      <trkpt lat="49.73002" lon="5.90313">
        <ele>243.23</ele>
        <time>2026-08-11T09:17:01.382Z</time>
      </trkpt>
      <trkpt lat="49.72978" lon="5.90281">
        <ele>242.53</ele>
        <time>2026-08-11T09:17:07.361Z</time>
      </trkpt>
      <trkpt lat="49.72955" lon="5.90248">
        <ele>240.47</ele>
        <time>2026-08-11T09:17:13.360Z</time>
      </trkpt>
      <trkpt lat="49.72934" lon="5.90215">
        <ele>241.14</ele>
        <time>2026-08-11T09:17:19.365Z</time>
      </trkpt>
      <trkpt lat="49.72911" lon="5.90185">
        <ele>243.03</ele>
        <time>2026-08-11T09:17:25.380Z</time>
      </trkpt>
      <trkpt lat="49.7289" lon="5.90151">
        <ele>245.19</ele>
        <time>2026-08-11T09:17:31.368Z</time>
      </trkpt>
      <trkpt lat="49.7287" lon="5.90123">
        <ele>246.6</ele>
        <time>2026-08-11T09:17:37.360Z</time>
      </trkpt>
      <trkpt lat="49.72847" lon="5.90096">
        <ele>247.94</ele>
        <time>2026-08-11T09:17:43.364Z</time>
      </trkpt>
      <trkpt lat="49.72821" lon="5.90069">
        <ele>245.8</ele>
        <time>2026-08-11T09:17:49.368Z</time>
      </trkpt>
      <trkpt lat="49.72791" lon="5.90043">
        <ele>246.04</ele>
        <time>2026-08-11T09:17:55.364Z</time>
      </trkpt>
      <trkpt lat="49.72764" lon="5.90025">
        <ele>246.41</ele>
        <time>2026-08-11T09:18:01.371Z</time>
      </trkpt>
      <trkpt lat="49.72737" lon="5.9001">
        <ele>249.27</ele>
        <time>2026-08-11T09:18:07.362Z</time>
      </trkpt>
      <trkpt lat="49.72709" lon="5.89993">
        <ele>253.05</ele>
        <time>2026-08-11T09:18:13.366Z</time>
      </trkpt>
      <trkpt lat="49.72681" lon="5.89985">
        <ele>255.2</ele>
        <time>2026-08-11T09:18:19.371Z</time>
      </trkpt>
      <trkpt lat="49.72652" lon="5.8998">
        <ele>255.11</ele>
        <time>2026-08-11T09:18:25.371Z</time>
      </trkpt>
      <trkpt lat="49.72621" lon="5.89977">
        <ele>255.74</ele>
        <time>2026-08-11T09:18:31.374Z</time>
      </trkpt>
      <trkpt lat="49.72594" lon="5.89978">
        <ele>255.61</ele>
        <time>2026-08-11T09:18:37.360Z</time>
      </trkpt>
      <trkpt lat="49.72566" lon="5.89985">
        <ele>255.06</ele>
        <time>2026-08-11T09:18:43.367Z</time>
      </trkpt>
      <trkpt lat="49.72541" lon="5.89993">
        <ele>253.17</ele>
        <time>2026-08-11T09:18:49.368Z</time>
      </trkpt>
      <trkpt lat="49.7252" lon="5.89998">
        <ele>253.11</ele>
        <time>2026-08-11T09:18:55.376Z</time>
      </trkpt>
      <trkpt lat="49.72504" lon="5.89981">
        <ele>251.65</ele>
        <time>2026-08-11T09:19:01.367Z</time>
      </trkpt>
      <trkpt lat="49.7249" lon="5.89994">
        <ele>251.7</ele>
        <time>2026-08-11T09:19:07.366Z</time>
      </trkpt>
      <trkpt lat="49.72471" lon="5.90017">
        <ele>250.87</ele>
        <time>2026-08-11T09:19:13.363Z</time>
      </trkpt>
      <trkpt lat="49.72449" lon="5.90035">
        <ele>251.66</ele>
        <time>2026-08-11T09:19:19.363Z</time>
      </trkpt>
      <trkpt lat="49.72428" lon="5.90053">
        <ele>253.52</ele>
        <time>2026-08-11T09:19:25.365Z</time>
      </trkpt>
      <trkpt lat="49.72405" lon="5.90074">
        <ele>254.28</ele>
        <time>2026-08-11T09:19:31.365Z</time>
      </trkpt>
      <trkpt lat="49.72381" lon="5.90097">
        <ele>253.29</ele>
        <time>2026-08-11T09:19:37.363Z</time>
      </trkpt>
      <trkpt lat="49.72354" lon="5.90122">
        <ele>252.36</ele>
        <time>2026-08-11T09:19:43.360Z</time>
      </trkpt>
      <trkpt lat="49.72327" lon="5.90147">
        <ele>252.08</ele>
        <time>2026-08-11T09:19:49.360Z</time>
      </trkpt>
      <trkpt lat="49.72295" lon="5.90182">
        <ele>253.93</ele>
        <time>2026-08-11T09:19:55.378Z</time>
      </trkpt>
      <trkpt lat="49.72259" lon="5.90215">
        <ele>253.8</ele>
        <time>2026-08-11T09:20:01.367Z</time>
      </trkpt>
      <trkpt lat="49.72222" lon="5.90253">
        <ele>250.45</ele>
        <time>2026-08-11T09:20:07.368Z</time>
      </trkpt>
      <trkpt lat="49.72185" lon="5.90292">
        <ele>248.05</ele>
        <time>2026-08-11T09:20:13.360Z</time>
      </trkpt>
      <trkpt lat="49.72144" lon="5.90333">
        <ele>245.44</ele>
        <time>2026-08-11T09:20:19.361Z</time>
      </trkpt>
      <trkpt lat="49.72113" lon="5.90367">
        <ele>243.57</ele>
        <time>2026-08-11T09:20:25.373Z</time>
      </trkpt>
      <trkpt lat="49.72095" lon="5.9039">
        <ele>242.57</ele>
        <time>2026-08-11T09:20:31.371Z</time>
      </trkpt>
      <trkpt lat="49.72073" lon="5.9041">
        <ele>242.88</ele>
        <time>2026-08-11T09:20:37.365Z</time>
      </trkpt>
      <trkpt lat="49.72055" lon="5.90424">
        <ele>243.44</ele>
        <time>2026-08-11T09:20:43.361Z</time>
      </trkpt>
      <trkpt lat="49.72035" lon="5.90443">
        <ele>242.16</ele>
        <time>2026-08-11T09:20:49.368Z</time>
      </trkpt>
      <trkpt lat="49.72011" lon="5.90461">
        <ele>239.45</ele>
        <time>2026-08-11T09:20:55.371Z</time>
      </trkpt>
      <trkpt lat="49.71989" lon="5.90482">
        <ele>240.08</ele>
        <time>2026-08-11T09:21:01.376Z</time>
      </trkpt>
      <trkpt lat="49.71966" lon="5.90504">
        <ele>240.32</ele>
        <time>2026-08-11T09:21:07.365Z</time>
      </trkpt>
      <trkpt lat="49.71939" lon="5.90525">
        <ele>241.62</ele>
        <time>2026-08-11T09:21:13.360Z</time>
      </trkpt>
      <trkpt lat="49.71913" lon="5.9054">
        <ele>238.83</ele>
        <time>2026-08-11T09:21:19.365Z</time>
      </trkpt>
      <trkpt lat="49.71888" lon="5.90556">
        <ele>236.25</ele>
        <time>2026-08-11T09:21:25.376Z</time>
      </trkpt>
      <trkpt lat="49.71856" lon="5.90567">
        <ele>236.07</ele>
        <time>2026-08-11T09:21:31.376Z</time>
      </trkpt>
      <trkpt lat="49.71822" lon="5.90578">
        <ele>239.25</ele>
        <time>2026-08-11T09:21:37.359Z</time>
      </trkpt>
      <trkpt lat="49.71789" lon="5.90583">
        <ele>244.66</ele>
        <time>2026-08-11T09:21:43.363Z</time>
      </trkpt>
      <trkpt lat="49.71759" lon="5.9058">
        <ele>248.23</ele>
        <time>2026-08-11T09:21:49.364Z</time>
      </trkpt>
      <trkpt lat="49.71734" lon="5.90572">
        <ele>249.13</ele>
        <time>2026-08-11T09:21:55.374Z</time>
      </trkpt>
      <trkpt lat="49.71712" lon="5.90566">
        <ele>249.35</ele>
        <time>2026-08-11T09:22:01.375Z</time>
      </trkpt>
      <trkpt lat="49.71688" lon="5.90554">
        <ele>247.1</ele>
        <time>2026-08-11T09:22:07.364Z</time>
      </trkpt>
      <trkpt lat="49.71664" lon="5.90539">
        <ele>248.91</ele>
        <time>2026-08-11T09:22:13.363Z</time>
      </trkpt>
      <trkpt lat="49.71645" lon="5.90523">
        <ele>250.49</ele>
        <time>2026-08-11T09:22:19.362Z</time>
      </trkpt>
      <trkpt lat="49.71628" lon="5.90508">
        <ele>252.43</ele>
        <time>2026-08-11T09:22:25.382Z</time>
      </trkpt>
      <trkpt lat="49.7161" lon="5.90488">
        <ele>252.63</ele>
        <time>2026-08-11T09:22:31.378Z</time>
      </trkpt>
      <trkpt lat="49.71592" lon="5.90463">
        <ele>251.08</ele>
        <time>2026-08-11T09:22:37.361Z</time>
      </trkpt>
      <trkpt lat="49.71574" lon="5.90438">
        <ele>248.93</ele>
        <time>2026-08-11T09:22:43.365Z</time>
      </trkpt>
      <trkpt lat="49.71558" lon="5.90416">
        <ele>249.31</ele>
        <time>2026-08-11T09:22:49.366Z</time>
      </trkpt>
      <trkpt lat="49.71542" lon="5.90392">
        <ele>249.57</ele>
        <time>2026-08-11T09:22:55.379Z</time>
      </trkpt>
      <trkpt lat="49.7152" lon="5.90368">
        <ele>246.61</ele>
        <time>2026-08-11T09:23:01.378Z</time>
      </trkpt>
      <trkpt lat="49.71499" lon="5.90347">
        <ele>243.51</ele>
        <time>2026-08-11T09:23:07.363Z</time>
      </trkpt>
      <trkpt lat="49.71477" lon="5.90331">
        <ele>239.83</ele>
        <time>2026-08-11T09:23:13.366Z</time>
      </trkpt>
      <trkpt lat="49.71453" lon="5.90313">
        <ele>237.13</ele>
        <time>2026-08-11T09:23:19.362Z</time>
      </trkpt>
      <trkpt lat="49.71425" lon="5.90298">
        <ele>235.83</ele>
        <time>2026-08-11T09:23:25.353Z</time>
      </trkpt>
      <trkpt lat="49.71399" lon="5.90286">
        <ele>237.05</ele>
        <time>2026-08-11T09:23:31.378Z</time>
      </trkpt>
      <trkpt lat="49.71373" lon="5.90276">
        <ele>237.93</ele>
        <time>2026-08-11T09:23:37.363Z</time>
      </trkpt>
      <trkpt lat="49.71348" lon="5.90267">
        <ele>240.07</ele>
        <time>2026-08-11T09:23:43.365Z</time>
      </trkpt>
      <trkpt lat="49.71322" lon="5.9026">
        <ele>239.32</ele>
        <time>2026-08-11T09:23:49.360Z</time>
      </trkpt>
      <trkpt lat="49.71295" lon="5.90254">
        <ele>240.65</ele>
        <time>2026-08-11T09:23:55.379Z</time>
      </trkpt>
      <trkpt lat="49.71269" lon="5.90248">
        <ele>244.36</ele>
        <time>2026-08-11T09:24:01.375Z</time>
      </trkpt>
      <trkpt lat="49.71242" lon="5.90239">
        <ele>251.02</ele>
        <time>2026-08-11T09:24:07.360Z</time>
      </trkpt>
      <trkpt lat="49.71216" lon="5.90231">
        <ele>252.99</ele>
        <time>2026-08-11T09:24:13.366Z</time>
      </trkpt>
      <trkpt lat="49.7119" lon="5.90223">
        <ele>253.51</ele>
        <time>2026-08-11T09:24:19.361Z</time>
      </trkpt>
      <trkpt lat="49.71161" lon="5.90214">
        <ele>258.4</ele>
        <time>2026-08-11T09:24:25.382Z</time>
      </trkpt>
      <trkpt lat="49.71135" lon="5.90205">
        <ele>264.01</ele>
        <time>2026-08-11T09:24:31.374Z</time>
      </trkpt>
      <trkpt lat="49.71109" lon="5.90197">
        <ele>266.59</ele>
        <time>2026-08-11T09:24:37.363Z</time>
      </trkpt>
      <trkpt lat="49.71086" lon="5.90189">
        <ele>268.93</ele>
        <time>2026-08-11T09:24:43.363Z</time>
      </trkpt>
      <trkpt lat="49.71063" lon="5.90181">
        <ele>270.07</ele>
        <time>2026-08-11T09:24:49.366Z</time>
      </trkpt>
      <trkpt lat="49.71039" lon="5.90175">
        <ele>267.16</ele>
        <time>2026-08-11T09:24:55.382Z</time>
      </trkpt>
      <trkpt lat="49.71014" lon="5.90167">
        <ele>263.61</ele>
        <time>2026-08-11T09:25:01.373Z</time>
      </trkpt>
      <trkpt lat="49.70989" lon="5.90157">
        <ele>260.4</ele>
        <time>2026-08-11T09:25:07.363Z</time>
      </trkpt>
      <trkpt lat="49.70963" lon="5.90146">
        <ele>258.47</ele>
        <time>2026-08-11T09:25:13.356Z</time>
      </trkpt>
      <trkpt lat="49.70941" lon="5.9014">
        <ele>257.65</ele>
        <time>2026-08-11T09:25:19.368Z</time>
      </trkpt>
      <trkpt lat="49.70917" lon="5.90134">
        <ele>256.56</ele>
        <time>2026-08-11T09:25:25.380Z</time>
      </trkpt>
      <trkpt lat="49.70891" lon="5.90129">
        <ele>254.78</ele>
        <time>2026-08-11T09:25:31.373Z</time>
      </trkpt>
      <trkpt lat="49.70866" lon="5.90131">
        <ele>255.36</ele>
        <time>2026-08-11T09:25:37.363Z</time>
      </trkpt>
      <trkpt lat="49.70842" lon="5.90135">
        <ele>257.03</ele>
        <time>2026-08-11T09:25:43.362Z</time>
      </trkpt>
      <trkpt lat="49.70814" lon="5.90141">
        <ele>256.55</ele>
        <time>2026-08-11T09:25:49.362Z</time>
      </trkpt>
      <trkpt lat="49.70787" lon="5.90143">
        <ele>259.99</ele>
        <time>2026-08-11T09:25:55.358Z</time>
      </trkpt>
      <trkpt lat="49.70764" lon="5.90147">
        <ele>264.67</ele>
        <time>2026-08-11T09:26:01.372Z</time>
      </trkpt>
      <trkpt lat="49.7074" lon="5.90152">
        <ele>268.31</ele>
        <time>2026-08-11T09:26:07.363Z</time>
      </trkpt>
      <trkpt lat="49.7072" lon="5.9016">
        <ele>272.3</ele>
        <time>2026-08-11T09:26:13.366Z</time>
      </trkpt>
      <trkpt lat="49.70692" lon="5.90165">
        <ele>278.02</ele>
        <time>2026-08-11T09:26:19.365Z</time>
      </trkpt>
      <trkpt lat="49.70661" lon="5.9017">
        <ele>281.3</ele>
        <time>2026-08-11T09:26:25.379Z</time>
      </trkpt>
      <trkpt lat="49.70635" lon="5.90171">
        <ele>283.32</ele>
        <time>2026-08-11T09:26:31.374Z</time>
      </trkpt>
      <trkpt lat="49.70616" lon="5.90174">
        <ele>286.34</ele>
        <time>2026-08-11T09:26:37.365Z</time>
      </trkpt>
      <trkpt lat="49.70607" lon="5.90179">
        <ele>290.84</ele>
        <time>2026-08-11T09:26:44.311Z</time>
      </trkpt>
      <trkpt lat="49.70599" lon="5.90194">
        <ele>293.9</ele>
        <time>2026-08-11T09:26:49.358Z</time>
      </trkpt>
      <trkpt lat="49.70581" lon="5.90242">
        <ele>297.1</ele>
        <time>2026-08-11T09:26:55.378Z</time>
      </trkpt>
      <trkpt lat="49.69903" lon="5.90357">
        <ele>295.53</ele>
        <time>2026-08-11T09:29:07.326Z</time>
      </trkpt>
      <trkpt lat="49.69867" lon="5.90358">
        <ele>293.77</ele>
        <time>2026-08-11T09:29:13.329Z</time>
      </trkpt>
      <trkpt lat="49.69833" lon="5.9036">
        <ele>291.74</ele>
        <time>2026-08-11T09:29:19.329Z</time>
      </trkpt>
      <trkpt lat="49.6981" lon="5.90359">
        <ele>291.35</ele>
        <time>2026-08-11T09:29:24.330Z</time>
      </trkpt>
      <trkpt lat="49.69775" lon="5.90355">
        <ele>289.07</ele>
        <time>2026-08-11T09:29:30.333Z</time>
      </trkpt>
      <trkpt lat="49.69743" lon="5.90351">
        <ele>285.9</ele>
        <time>2026-08-11T09:29:36.332Z</time>
      </trkpt>
      <trkpt lat="49.69714" lon="5.90341">
        <ele>283.21</ele>
        <time>2026-08-11T09:29:42.329Z</time>
      </trkpt>
      <trkpt lat="49.69686" lon="5.90338">
        <ele>277.18</ele>
        <time>2026-08-11T09:29:47.333Z</time>
      </trkpt>
      <trkpt lat="49.69647" lon="5.90331">
        <ele>271.15</ele>
        <time>2026-08-11T09:29:53.332Z</time>
      </trkpt>
      <trkpt lat="49.69603" lon="5.90319">
        <ele>261.97</ele>
        <time>2026-08-11T09:29:59.347Z</time>
      </trkpt>
      <trkpt lat="49.69562" lon="5.9031">
        <ele>260.81</ele>
        <time>2026-08-11T09:30:05.327Z</time>
      </trkpt>
      <trkpt lat="49.69531" lon="5.90298">
        <ele>256.57</ele>
        <time>2026-08-11T09:30:10.327Z</time>
      </trkpt>
      <trkpt lat="49.69498" lon="5.90296">
        <ele>253.92</ele>
        <time>2026-08-11T09:30:15.328Z</time>
      </trkpt>
      <trkpt lat="49.69465" lon="5.90288">
        <ele>252.86</ele>
        <time>2026-08-11T09:30:20.329Z</time>
      </trkpt>
      <trkpt lat="49.69425" lon="5.90274">
        <ele>251.64</ele>
        <time>2026-08-11T09:30:26.330Z</time>
      </trkpt>
      <trkpt lat="49.69388" lon="5.90253">
        <ele>251.49</ele>
        <time>2026-08-11T09:30:32.329Z</time>
      </trkpt>
      <trkpt lat="49.69358" lon="5.90229">
        <ele>251.42</ele>
        <time>2026-08-11T09:30:37.329Z</time>
      </trkpt>
      <trkpt lat="49.69327" lon="5.90201">
        <ele>252.02</ele>
        <time>2026-08-11T09:30:42.331Z</time>
      </trkpt>
      <trkpt lat="49.69296" lon="5.90161">
        <ele>252.55</ele>
        <time>2026-08-11T09:30:48.328Z</time>
      </trkpt>
      <trkpt lat="49.69273" lon="5.90128">
        <ele>253.8</ele>
        <time>2026-08-11T09:30:53.330Z</time>
      </trkpt>
      <trkpt lat="49.69249" lon="5.90092">
        <ele>253.17</ele>
        <time>2026-08-11T09:30:58.331Z</time>
      </trkpt>
      <trkpt lat="49.69229" lon="5.90052">
        <ele>248.92</ele>
        <time>2026-08-11T09:31:04.332Z</time>
      </trkpt>
      <trkpt lat="49.69202" lon="5.90004">
        <ele>245.65</ele>
        <time>2026-08-11T09:31:10.329Z</time>
      </trkpt>
      <trkpt lat="49.69173" lon="5.89961">
        <ele>246.71</ele>
        <time>2026-08-11T09:31:15.332Z</time>
      </trkpt>
      <trkpt lat="49.69143" lon="5.89912">
        <ele>250.33</ele>
        <time>2026-08-11T09:31:21.327Z</time>
      </trkpt>
      <trkpt lat="49.69122" lon="5.89875">
        <ele>251.33</ele>
        <time>2026-08-11T09:31:26.327Z</time>
      </trkpt>
      <trkpt lat="49.691" lon="5.89831">
        <ele>248.42</ele>
        <time>2026-08-11T09:31:31.327Z</time>
      </trkpt>
      <trkpt lat="49.69078" lon="5.89784">
        <ele>248.56</ele>
        <time>2026-08-11T09:31:36.335Z</time>
      </trkpt>
      <trkpt lat="49.69057" lon="5.89722">
        <ele>248.73</ele>
        <time>2026-08-11T09:31:42.332Z</time>
      </trkpt>
      <trkpt lat="49.69046" lon="5.89662">
        <ele>244.29</ele>
        <time>2026-08-11T09:31:48.327Z</time>
      </trkpt>
      <trkpt lat="49.69037" lon="5.89601">
        <ele>241.98</ele>
        <time>2026-08-11T09:31:53.330Z</time>
      </trkpt>
      <trkpt lat="49.69032" lon="5.89524">
        <ele>241.41</ele>
        <time>2026-08-11T09:31:59.329Z</time>
      </trkpt>
      <trkpt lat="49.69029" lon="5.89458">
        <ele>241.54</ele>
        <time>2026-08-11T09:32:04.330Z</time>
      </trkpt>
      <trkpt lat="49.69023" lon="5.89392">
        <ele>242.48</ele>
        <time>2026-08-11T09:32:09.330Z</time>
      </trkpt>
      <trkpt lat="49.69014" lon="5.89328">
        <ele>245</ele>
        <time>2026-08-11T09:32:14.332Z</time>
      </trkpt>
      <trkpt lat="49.68998" lon="5.89255">
        <ele>247.48</ele>
        <time>2026-08-11T09:32:20.332Z</time>
      </trkpt>
      <trkpt lat="49.68984" lon="5.89178">
        <ele>248.91</ele>
        <time>2026-08-11T09:32:26.332Z</time>
      </trkpt>
      <trkpt lat="49.68971" lon="5.89104">
        <ele>250.08</ele>
        <time>2026-08-11T09:32:32.331Z</time>
      </trkpt>
      <trkpt lat="49.68962" lon="5.89045">
        <ele>250.28</ele>
        <time>2026-08-11T09:32:37.332Z</time>
      </trkpt>
      <trkpt lat="49.68952" lon="5.88987">
        <ele>249.25</ele>
        <time>2026-08-11T09:32:42.334Z</time>
      </trkpt>
      <trkpt lat="49.68933" lon="5.88917">
        <ele>244.86</ele>
        <time>2026-08-11T09:32:48.329Z</time>
      </trkpt>
      <trkpt lat="49.68914" lon="5.88862">
        <ele>240.9</ele>
        <time>2026-08-11T09:32:53.331Z</time>
      </trkpt>
      <trkpt lat="49.68887" lon="5.88799">
        <ele>236.21</ele>
        <time>2026-08-11T09:32:59.334Z</time>
      </trkpt>
      <trkpt lat="49.68853" lon="5.88738">
        <ele>234.64</ele>
        <time>2026-08-11T09:33:05.332Z</time>
      </trkpt>
      <trkpt lat="49.68815" lon="5.88679">
        <ele>233.77</ele>
        <time>2026-08-11T09:33:11.333Z</time>
      </trkpt>
      <trkpt lat="49.68784" lon="5.88629">
        <ele>232.89</ele>
        <time>2026-08-11T09:33:16.338Z</time>
      </trkpt>
      <trkpt lat="49.68758" lon="5.88581">
        <ele>232.8</ele>
        <time>2026-08-11T09:33:22.330Z</time>
      </trkpt>
      <trkpt lat="49.68728" lon="5.88541">
        <ele>232.71</ele>
        <time>2026-08-11T09:33:28.329Z</time>
      </trkpt>
      <trkpt lat="49.68704" lon="5.88518">
        <ele>234.16</ele>
        <time>2026-08-11T09:33:33.333Z</time>
      </trkpt>
      <trkpt lat="49.6869" lon="5.88499">
        <ele>236.4</ele>
        <time>2026-08-11T09:33:39.333Z</time>
      </trkpt>
      <trkpt lat="49.68678" lon="5.88484">
        <ele>240.89</ele>
        <time>2026-08-11T09:33:44.335Z</time>
      </trkpt>
      <trkpt lat="49.68664" lon="5.88467">
        <ele>244.08</ele>
        <time>2026-08-11T09:33:50.315Z</time>
      </trkpt>
      <trkpt lat="49.68649" lon="5.88454">
        <ele>244.08</ele>
        <time>2026-08-11T09:33:55.328Z</time>
      </trkpt>
      <trkpt lat="49.68632" lon="5.88441">
        <ele>243.18</ele>
        <time>2026-08-11T09:34:01.335Z</time>
      </trkpt>
      <trkpt lat="49.68619" lon="5.88437">
        <ele>242.87</ele>
        <time>2026-08-11T09:34:07.333Z</time>
      </trkpt>
      <trkpt lat="49.68606" lon="5.88426">
        <ele>243.78</ele>
        <time>2026-08-11T09:34:13.333Z</time>
      </trkpt>
      <trkpt lat="49.68594" lon="5.8841">
        <ele>244.22</ele>
        <time>2026-08-11T09:34:18.334Z</time>
      </trkpt>
      <trkpt lat="49.6858" lon="5.88392">
        <ele>243.78</ele>
        <time>2026-08-11T09:34:23.338Z</time>
      </trkpt>
      <trkpt lat="49.68559" lon="5.88371">
        <ele>244.01</ele>
        <time>2026-08-11T09:34:29.332Z</time>
      </trkpt>
      <trkpt lat="49.68541" lon="5.88351">
        <ele>243.69</ele>
        <time>2026-08-11T09:34:34.334Z</time>
      </trkpt>
      <trkpt lat="49.68511" lon="5.88323">
        <ele>244.01</ele>
        <time>2026-08-11T09:34:40.331Z</time>
      </trkpt>
      <trkpt lat="49.68477" lon="5.88296">
        <ele>243.75</ele>
        <time>2026-08-11T09:34:46.332Z</time>
      </trkpt>
      <trkpt lat="49.6845" lon="5.88271">
        <ele>242.28</ele>
        <time>2026-08-11T09:34:51.333Z</time>
      </trkpt>
      <trkpt lat="49.68416" lon="5.88222">
        <ele>240.36</ele>
        <time>2026-08-11T09:34:57.329Z</time>
      </trkpt>
      <trkpt lat="49.68383" lon="5.88181">
        <ele>237.92</ele>
        <time>2026-08-11T09:35:02.336Z</time>
      </trkpt>
      <trkpt lat="49.68346" lon="5.88131">
        <ele>236.28</ele>
        <time>2026-08-11T09:35:08.328Z</time>
      </trkpt>
      <trkpt lat="49.6832" lon="5.881">
        <ele>235.75</ele>
        <time>2026-08-11T09:35:13.339Z</time>
      </trkpt>
      <trkpt lat="49.68294" lon="5.88082">
        <ele>234.54</ele>
        <time>2026-08-11T09:35:19.339Z</time>
      </trkpt>
      <trkpt lat="49.68271" lon="5.88068">
        <ele>234.81</ele>
        <time>2026-08-11T09:35:25.332Z</time>
      </trkpt>
      <trkpt lat="49.68254" lon="5.88053">
        <ele>237.84</ele>
        <time>2026-08-11T09:35:30.334Z</time>
      </trkpt>
      <trkpt lat="49.68242" lon="5.88044">
        <ele>240.53</ele>
        <time>2026-08-11T09:35:35.335Z</time>
      </trkpt>
      <trkpt lat="49.68225" lon="5.88036">
        <ele>245.4</ele>
        <time>2026-08-11T09:35:41.332Z</time>
      </trkpt>
      <trkpt lat="49.68205" lon="5.88031">
        <ele>246.98</ele>
        <time>2026-08-11T09:35:47.336Z</time>
      </trkpt>
      <trkpt lat="49.68192" lon="5.88029">
        <ele>248.29</ele>
        <time>2026-08-11T09:35:52.337Z</time>
      </trkpt>
      <trkpt lat="49.68173" lon="5.88032">
        <ele>248.87</ele>
        <time>2026-08-11T09:35:58.325Z</time>
      </trkpt>
      <trkpt lat="49.6816" lon="5.88036">
        <ele>249.4</ele>
        <time>2026-08-11T09:36:03.330Z</time>
      </trkpt>
      <trkpt lat="49.68158" lon="5.88009">
        <ele>247.84</ele>
        <time>2026-08-11T09:36:09.333Z</time>
      </trkpt>
      <trkpt lat="49.68146" lon="5.8798">
        <ele>245.25</ele>
        <time>2026-08-11T09:36:15.331Z</time>
      </trkpt>
      <trkpt lat="49.68131" lon="5.8798">
        <ele>243.25</ele>
        <time>2026-08-11T09:36:20.333Z</time>
      </trkpt>
      <trkpt lat="49.68104" lon="5.8799">
        <ele>240.37</ele>
        <time>2026-08-11T09:36:25.333Z</time>
      </trkpt>
      <trkpt lat="49.68074" lon="5.88007">
        <ele>239.86</ele>
        <time>2026-08-11T09:36:30.334Z</time>
      </trkpt>
      <trkpt lat="49.68038" lon="5.88022">
        <ele>239.9</ele>
        <time>2026-08-11T09:36:36.334Z</time>
      </trkpt>
      <trkpt lat="49.68007" lon="5.88034">
        <ele>237.27</ele>
        <time>2026-08-11T09:36:42.334Z</time>
      </trkpt>
      <trkpt lat="49.67982" lon="5.8804">
        <ele>236.37</ele>
        <time>2026-08-11T09:36:47.335Z</time>
      </trkpt>
      <trkpt lat="49.6795" lon="5.88048">
        <ele>234.01</ele>
        <time>2026-08-11T09:36:53.332Z</time>
      </trkpt>
      <trkpt lat="49.6792" lon="5.8805">
        <ele>234.74</ele>
        <time>2026-08-11T09:36:59.337Z</time>
      </trkpt>
      <trkpt lat="49.67891" lon="5.88052">
        <ele>236.77</ele>
        <time>2026-08-11T09:37:05.335Z</time>
      </trkpt>
      <trkpt lat="49.67864" lon="5.88051">
        <ele>239.22</ele>
        <time>2026-08-11T09:37:11.328Z</time>
      </trkpt>
      <trkpt lat="49.67844" lon="5.88047">
        <ele>240.64</ele>
        <time>2026-08-11T09:37:16.333Z</time>
      </trkpt>
      <trkpt lat="49.67824" lon="5.88041">
        <ele>241.23</ele>
        <time>2026-08-11T09:37:21.333Z</time>
      </trkpt>
      <trkpt lat="49.678" lon="5.88033">
        <ele>240.96</ele>
        <time>2026-08-11T09:37:27.327Z</time>
      </trkpt>
      <trkpt lat="49.6778" lon="5.88026">
        <ele>241.72</ele>
        <time>2026-08-11T09:37:32.334Z</time>
      </trkpt>
      <trkpt lat="49.67763" lon="5.88021">
        <ele>240.97</ele>
        <time>2026-08-11T09:37:37.341Z</time>
      </trkpt>
      <trkpt lat="49.67738" lon="5.88013">
        <ele>241.41</ele>
        <time>2026-08-11T09:37:43.334Z</time>
      </trkpt>
      <trkpt lat="49.6771" lon="5.88006">
        <ele>244.32</ele>
        <time>2026-08-11T09:37:49.339Z</time>
      </trkpt>
      <trkpt lat="49.67688" lon="5.88001">
        <ele>244.82</ele>
        <time>2026-08-11T09:37:54.339Z</time>
      </trkpt>
      <trkpt lat="49.67663" lon="5.88001">
        <ele>245.27</ele>
        <time>2026-08-11T09:38:00.329Z</time>
      </trkpt>
      <trkpt lat="49.6764" lon="5.88002">
        <ele>244.09</ele>
        <time>2026-08-11T09:38:05.335Z</time>
      </trkpt>
      <trkpt lat="49.6762" lon="5.88006">
        <ele>243.74</ele>
        <time>2026-08-11T09:38:10.362Z</time>
      </trkpt>
      <trkpt lat="49.67597" lon="5.88016">
        <ele>244.65</ele>
        <time>2026-08-11T09:38:16.331Z</time>
      </trkpt>
      <trkpt lat="49.6758" lon="5.88019">
        <ele>240.76</ele>
        <time>2026-08-11T09:38:22.336Z</time>
      </trkpt>
      <trkpt lat="49.67554" lon="5.88027">
        <ele>238.34</ele>
        <time>2026-08-11T09:38:28.327Z</time>
      </trkpt>
      <trkpt lat="49.67531" lon="5.88038">
        <ele>239.35</ele>
        <time>2026-08-11T09:38:34.328Z</time>
      </trkpt>
      <trkpt lat="49.67512" lon="5.88047">
        <ele>237.53</ele>
        <time>2026-08-11T09:38:39.329Z</time>
      </trkpt>
      <trkpt lat="49.67495" lon="5.88059">
        <ele>238.81</ele>
        <time>2026-08-11T09:38:44.333Z</time>
      </trkpt>
      <trkpt lat="49.67477" lon="5.88072">
        <ele>240.65</ele>
        <time>2026-08-11T09:38:49.339Z</time>
      </trkpt>
      <trkpt lat="49.67457" lon="5.8809">
        <ele>241.99</ele>
        <time>2026-08-11T09:38:55.338Z</time>
      </trkpt>
      <trkpt lat="49.67439" lon="5.88108">
        <ele>243.69</ele>
        <time>2026-08-11T09:39:01.335Z</time>
      </trkpt>
      <trkpt lat="49.67421" lon="5.88125">
        <ele>245.55</ele>
        <time>2026-08-11T09:39:07.343Z</time>
      </trkpt>
      <trkpt lat="49.67405" lon="5.88139">
        <ele>248.28</ele>
        <time>2026-08-11T09:39:13.337Z</time>
      </trkpt>
      <trkpt lat="49.67387" lon="5.88152">
        <ele>249.4</ele>
        <time>2026-08-11T09:39:19.343Z</time>
      </trkpt>
      <trkpt lat="49.67368" lon="5.88167">
        <ele>248.69</ele>
        <time>2026-08-11T09:39:25.334Z</time>
      </trkpt>
      <trkpt lat="49.6735" lon="5.8818">
        <ele>247.5</ele>
        <time>2026-08-11T09:39:30.334Z</time>
      </trkpt>
      <trkpt lat="49.67333" lon="5.88189">
        <ele>247.73</ele>
        <time>2026-08-11T09:39:35.336Z</time>
      </trkpt>
      <trkpt lat="49.67314" lon="5.88202">
        <ele>246.43</ele>
        <time>2026-08-11T09:39:41.333Z</time>
      </trkpt>
      <trkpt lat="49.67291" lon="5.88218">
        <ele>245.74</ele>
        <time>2026-08-11T09:39:46.333Z</time>
      </trkpt>
      <trkpt lat="49.67267" lon="5.88238">
        <ele>242.42</ele>
        <time>2026-08-11T09:39:52.337Z</time>
      </trkpt>
      <trkpt lat="49.67246" lon="5.88253">
        <ele>239.11</ele>
        <time>2026-08-11T09:39:58.337Z</time>
      </trkpt>
      <trkpt lat="49.67223" lon="5.88273">
        <ele>238.48</ele>
        <time>2026-08-11T09:40:04.332Z</time>
      </trkpt>
      <trkpt lat="49.67199" lon="5.883">
        <ele>240.72</ele>
        <time>2026-08-11T09:40:10.331Z</time>
      </trkpt>
      <trkpt lat="49.6718" lon="5.88323">
        <ele>242.76</ele>
        <time>2026-08-11T09:40:15.331Z</time>
      </trkpt>
      <trkpt lat="49.67159" lon="5.88353">
        <ele>244.68</ele>
        <time>2026-08-11T09:40:21.328Z</time>
      </trkpt>
      <trkpt lat="49.67144" lon="5.8838">
        <ele>245.03</ele>
        <time>2026-08-11T09:40:26.336Z</time>
      </trkpt>
      <trkpt lat="49.67129" lon="5.8841">
        <ele>245.52</ele>
        <time>2026-08-11T09:40:32.329Z</time>
      </trkpt>
      <trkpt lat="49.6712" lon="5.88441">
        <ele>244.74</ele>
        <time>2026-08-11T09:40:37.339Z</time>
      </trkpt>
      <trkpt lat="49.6711" lon="5.88475">
        <ele>244.68</ele>
        <time>2026-08-11T09:40:43.339Z</time>
      </trkpt>
      <trkpt lat="49.671" lon="5.88508">
        <ele>245.98</ele>
        <time>2026-08-11T09:40:49.339Z</time>
      </trkpt>
      <trkpt lat="49.67094" lon="5.88541">
        <ele>247.5</ele>
        <time>2026-08-11T09:40:55.332Z</time>
      </trkpt>
      <trkpt lat="49.67088" lon="5.88575">
        <ele>248.58</ele>
        <time>2026-08-11T09:41:01.331Z</time>
      </trkpt>
      <trkpt lat="49.67083" lon="5.88602">
        <ele>248.04</ele>
        <time>2026-08-11T09:41:06.332Z</time>
      </trkpt>
      <trkpt lat="49.67079" lon="5.88632">
        <ele>246.92</ele>
        <time>2026-08-11T09:41:11.334Z</time>
      </trkpt>
      <trkpt lat="49.67078" lon="5.8867">
        <ele>248.73</ele>
        <time>2026-08-11T09:41:17.330Z</time>
      </trkpt>
      <trkpt lat="49.67078" lon="5.88702">
        <ele>251.38</ele>
        <time>2026-08-11T09:41:22.333Z</time>
      </trkpt>
      <trkpt lat="49.67078" lon="5.88739">
        <ele>253.64</ele>
        <time>2026-08-11T09:41:28.328Z</time>
      </trkpt>
      <trkpt lat="49.6708" lon="5.8878">
        <ele>254.61</ele>
        <time>2026-08-11T09:41:34.333Z</time>
      </trkpt>
      <trkpt lat="49.67082" lon="5.8882">
        <ele>255.12</ele>
        <time>2026-08-11T09:41:40.330Z</time>
      </trkpt>
      <trkpt lat="49.67086" lon="5.88857">
        <ele>255.06</ele>
        <time>2026-08-11T09:41:45.331Z</time>
      </trkpt>
      <trkpt lat="49.67086" lon="5.88894">
        <ele>257.47</ele>
        <time>2026-08-11T09:41:50.331Z</time>
      </trkpt>
      <trkpt lat="49.67086" lon="5.88929">
        <ele>258.21</ele>
        <time>2026-08-11T09:41:55.391Z</time>
      </trkpt>
      <trkpt lat="49.67085" lon="5.88977">
        <ele>261.56</ele>
        <time>2026-08-11T09:42:01.331Z</time>
      </trkpt>
      <trkpt lat="49.67085" lon="5.89023">
        <ele>262.06</ele>
        <time>2026-08-11T09:42:07.336Z</time>
      </trkpt>
      <trkpt lat="49.67083" lon="5.89065">
        <ele>262.19</ele>
        <time>2026-08-11T09:42:13.337Z</time>
      </trkpt>
      <trkpt lat="49.67075" lon="5.89114">
        <ele>260.19</ele>
        <time>2026-08-11T09:42:19.343Z</time>
      </trkpt>
      <trkpt lat="49.67065" lon="5.89157">
        <ele>256.53</ele>
        <time>2026-08-11T09:42:25.400Z</time>
      </trkpt>
      <trkpt lat="49.67048" lon="5.89198">
        <ele>253.62</ele>
        <time>2026-08-11T09:42:31.321Z</time>
      </trkpt>
      <trkpt lat="49.67033" lon="5.89232">
        <ele>251.64</ele>
        <time>2026-08-11T09:42:36.330Z</time>
      </trkpt>
      <trkpt lat="49.67015" lon="5.89262">
        <ele>249.49</ele>
        <time>2026-08-11T09:42:41.332Z</time>
      </trkpt>
      <trkpt lat="49.66999" lon="5.89295">
        <ele>247.05</ele>
        <time>2026-08-11T09:42:46.333Z</time>
      </trkpt>
      <trkpt lat="49.66986" lon="5.89338">
        <ele>245.45</ele>
        <time>2026-08-11T09:42:52.329Z</time>
      </trkpt>
      <trkpt lat="49.66973" lon="5.89376">
        <ele>242.92</ele>
        <time>2026-08-11T09:42:57.330Z</time>
      </trkpt>
      <trkpt lat="49.66961" lon="5.89412">
        <ele>239.76</ele>
        <time>2026-08-11T09:43:02.332Z</time>
      </trkpt>
      <trkpt lat="49.66952" lon="5.8945">
        <ele>236.54</ele>
        <time>2026-08-11T09:43:07.333Z</time>
      </trkpt>
      <trkpt lat="49.66948" lon="5.8949">
        <ele>237.62</ele>
        <time>2026-08-11T09:43:13.342Z</time>
      </trkpt>
      <trkpt lat="49.66947" lon="5.89535">
        <ele>239.04</ele>
        <time>2026-08-11T09:43:19.339Z</time>
      </trkpt>
      <trkpt lat="49.66946" lon="5.89588">
        <ele>241.43</ele>
        <time>2026-08-11T09:43:25.332Z</time>
      </trkpt>
      <trkpt lat="49.66947" lon="5.89634">
        <ele>244.22</ele>
        <time>2026-08-11T09:43:30.332Z</time>
      </trkpt>
      <trkpt lat="49.6695" lon="5.89687">
        <ele>245.19</ele>
        <time>2026-08-11T09:43:36.333Z</time>
      </trkpt>
      <trkpt lat="49.66951" lon="5.89732">
        <ele>248.38</ele>
        <time>2026-08-11T09:43:41.333Z</time>
      </trkpt>
      <trkpt lat="49.66953" lon="5.89771">
        <ele>250.19</ele>
        <time>2026-08-11T09:43:46.335Z</time>
      </trkpt>
      <trkpt lat="49.66953" lon="5.89818">
        <ele>252.92</ele>
        <time>2026-08-11T09:43:52.335Z</time>
      </trkpt>
      <trkpt lat="49.66951" lon="5.89859">
        <ele>256.62</ele>
        <time>2026-08-11T09:43:58.332Z</time>
      </trkpt>
      <trkpt lat="49.66943" lon="5.89898">
        <ele>259.78</ele>
        <time>2026-08-11T09:44:04.333Z</time>
      </trkpt>
      <trkpt lat="49.66937" lon="5.89928">
        <ele>261.8</ele>
        <time>2026-08-11T09:44:09.333Z</time>
      </trkpt>
      <trkpt lat="49.66933" lon="5.89976">
        <ele>263.65</ele>
        <time>2026-08-11T09:44:15.332Z</time>
      </trkpt>
      <trkpt lat="49.66928" lon="5.90014">
        <ele>263.1</ele>
        <time>2026-08-11T09:44:20.333Z</time>
      </trkpt>
      <trkpt lat="49.66922" lon="5.90052">
        <ele>264.2</ele>
        <time>2026-08-11T09:44:25.333Z</time>
      </trkpt>
      <trkpt lat="49.66919" lon="5.9009">
        <ele>264.07</ele>
        <time>2026-08-11T09:44:30.336Z</time>
      </trkpt>
      <trkpt lat="49.6692" lon="5.90136">
        <ele>264.5</ele>
        <time>2026-08-11T09:44:36.332Z</time>
      </trkpt>
      <trkpt lat="49.66928" lon="5.90161">
        <ele>261.47</ele>
        <time>2026-08-11T09:44:41.334Z</time>
      </trkpt>
      <trkpt lat="49.66937" lon="5.90195">
        <ele>258.07</ele>
        <time>2026-08-11T09:44:47.336Z</time>
      </trkpt>
      <trkpt lat="49.66955" lon="5.90226">
        <ele>254.94</ele>
        <time>2026-08-11T09:44:53.336Z</time>
      </trkpt>
      <trkpt lat="49.66971" lon="5.90253">
        <ele>250.84</ele>
        <time>2026-08-11T09:44:59.332Z</time>
      </trkpt>
      <trkpt lat="49.66981" lon="5.90274">
        <ele>248.57</ele>
        <time>2026-08-11T09:45:04.333Z</time>
      </trkpt>
      <trkpt lat="49.66994" lon="5.90298">
        <ele>250.3</ele>
        <time>2026-08-11T09:45:10.334Z</time>
      </trkpt>
      <trkpt lat="49.6701" lon="5.90325">
        <ele>252.64</ele>
        <time>2026-08-11T09:45:16.332Z</time>
      </trkpt>
      <trkpt lat="49.67022" lon="5.90342">
        <ele>255.3</ele>
        <time>2026-08-11T09:45:21.335Z</time>
      </trkpt>
      <trkpt lat="49.67036" lon="5.90362">
        <ele>256.13</ele>
        <time>2026-08-11T09:45:27.328Z</time>
      </trkpt>
      <trkpt lat="49.67048" lon="5.90377">
        <ele>254.27</ele>
        <time>2026-08-11T09:45:32.329Z</time>
      </trkpt>
      <trkpt lat="49.67063" lon="5.90392">
        <ele>256.29</ele>
        <time>2026-08-11T09:45:37.350Z</time>
      </trkpt>
      <trkpt lat="49.67079" lon="5.90411">
        <ele>257.7</ele>
        <time>2026-08-11T09:45:43.341Z</time>
      </trkpt>
      <trkpt lat="49.671" lon="5.90433">
        <ele>256.39</ele>
        <time>2026-08-11T09:45:49.344Z</time>
      </trkpt>
      <trkpt lat="49.6712" lon="5.90452">
        <ele>253.76</ele>
        <time>2026-08-11T09:45:55.336Z</time>
      </trkpt>
      <trkpt lat="49.67138" lon="5.9047">
        <ele>253.42</ele>
        <time>2026-08-11T09:46:01.332Z</time>
      </trkpt>
      <trkpt lat="49.67159" lon="5.90493">
        <ele>255.38</ele>
        <time>2026-08-11T09:46:07.345Z</time>
      </trkpt>
      <trkpt lat="49.67177" lon="5.90508">
        <ele>255.86</ele>
        <time>2026-08-11T09:46:13.340Z</time>
      </trkpt>
      <trkpt lat="49.67196" lon="5.90532">
        <ele>254.75</ele>
        <time>2026-08-11T09:46:19.348Z</time>
      </trkpt>
      <trkpt lat="49.67212" lon="5.90553">
        <ele>252.53</ele>
        <time>2026-08-11T09:46:25.345Z</time>
      </trkpt>
      <trkpt lat="49.67229" lon="5.90575">
        <ele>248.7</ele>
        <time>2026-08-11T09:46:31.338Z</time>
      </trkpt>
      <trkpt lat="49.67248" lon="5.90601">
        <ele>245.84</ele>
        <time>2026-08-11T09:46:37.348Z</time>
      </trkpt>
      <trkpt lat="49.67267" lon="5.90621">
        <ele>243.6</ele>
        <time>2026-08-11T09:46:43.346Z</time>
      </trkpt>
      <trkpt lat="49.67286" lon="5.90644">
        <ele>238.73</ele>
        <time>2026-08-11T09:46:49.349Z</time>
      </trkpt>
      <trkpt lat="49.67308" lon="5.90668">
        <ele>234.17</ele>
        <time>2026-08-11T09:46:55.339Z</time>
      </trkpt>
      <trkpt lat="49.67312" lon="5.90693">
        <ele>234.66</ele>
        <time>2026-08-11T09:47:01.349Z</time>
      </trkpt>
      <trkpt lat="49.67306" lon="5.90708">
        <ele>234.51</ele>
        <time>2026-08-11T09:47:07.340Z</time>
      </trkpt>
      <trkpt lat="49.67297" lon="5.90717">
        <ele>236.06</ele>
        <time>2026-08-11T09:47:13.346Z</time>
      </trkpt>
      <trkpt lat="49.67288" lon="5.90724">
        <ele>238.9</ele>
        <time>2026-08-11T09:47:20.333Z</time>
      </trkpt>
      <trkpt lat="49.67279" lon="5.90731">
        <ele>240.52</ele>
        <time>2026-08-11T09:47:25.395Z</time>
      </trkpt>
      <trkpt lat="49.67269" lon="5.90735">
        <ele>239.29</ele>
        <time>2026-08-11T09:47:31.356Z</time>
      </trkpt>
      <trkpt lat="49.67258" lon="5.90743">
        <ele>237.89</ele>
        <time>2026-08-11T09:47:37.344Z</time>
      </trkpt>
      <trkpt lat="49.67245" lon="5.90749">
        <ele>239.84</ele>
        <time>2026-08-11T09:47:43.345Z</time>
      </trkpt>
      <trkpt lat="49.67233" lon="5.90751">
        <ele>239.87</ele>
        <time>2026-08-11T09:47:49.345Z</time>
      </trkpt>
      <trkpt lat="49.67223" lon="5.90753">
        <ele>243.04</ele>
        <time>2026-08-11T09:47:55.401Z</time>
      </trkpt>
      <trkpt lat="49.6721" lon="5.90757">
        <ele>247.33</ele>
        <time>2026-08-11T09:48:01.360Z</time>
      </trkpt>
      <trkpt lat="49.67192" lon="5.90765">
        <ele>252.53</ele>
        <time>2026-08-11T09:48:07.347Z</time>
      </trkpt>
      <trkpt lat="49.67181" lon="5.90767">
        <ele>254.93</ele>
        <time>2026-08-11T09:48:12.372Z</time>
      </trkpt>
      <trkpt lat="49.6717" lon="5.90772">
        <ele>256.19</ele>
        <time>2026-08-11T09:48:35.329Z</time>
      </trkpt>
      <trkpt lat="49.67145" lon="5.90779">
        <ele>256.94</ele>
        <time>2026-08-11T09:48:41.341Z</time>
      </trkpt>
      <trkpt lat="49.67108" lon="5.90797">
        <ele>257.07</ele>
        <time>2026-08-11T09:48:47.334Z</time>
      </trkpt>
      <trkpt lat="49.67065" lon="5.90812">
        <ele>257.74</ele>
        <time>2026-08-11T09:48:53.332Z</time>
      </trkpt>
      <trkpt lat="49.67028" lon="5.90823">
        <ele>260.64</ele>
        <time>2026-08-11T09:48:58.335Z</time>
      </trkpt>
      <trkpt lat="49.6698" lon="5.90838">
        <ele>261.62</ele>
        <time>2026-08-11T09:49:04.332Z</time>
      </trkpt>
      <trkpt lat="49.66927" lon="5.90875">
        <ele>260.48</ele>
        <time>2026-08-11T09:49:10.329Z</time>
      </trkpt>
      <trkpt lat="49.66896" lon="5.90906">
        <ele>263.08</ele>
        <time>2026-08-11T09:49:15.331Z</time>
      </trkpt>
      <trkpt lat="49.66879" lon="5.90922">
        <ele>265.57</ele>
        <time>2026-08-11T09:49:21.332Z</time>
      </trkpt>
      <trkpt lat="49.66865" lon="5.90938">
        <ele>267.44</ele>
        <time>2026-08-11T09:49:27.333Z</time>
      </trkpt>
      <trkpt lat="49.66855" lon="5.90962">
        <ele>270.19</ele>
        <time>2026-08-11T09:49:32.336Z</time>
      </trkpt>
      <trkpt lat="49.66846" lon="5.90994">
        <ele>271.81</ele>
        <time>2026-08-11T09:49:38.336Z</time>
      </trkpt>
      <trkpt lat="49.66835" lon="5.91021">
        <ele>273.46</ele>
        <time>2026-08-11T09:49:43.345Z</time>
      </trkpt>
      <trkpt lat="49.66824" lon="5.91063">
        <ele>273.2</ele>
        <time>2026-08-11T09:49:49.345Z</time>
      </trkpt>
      <trkpt lat="49.66805" lon="5.91131">
        <ele>267.31</ele>
        <time>2026-08-11T09:49:55.396Z</time>
      </trkpt>
      <trkpt lat="49.66782" lon="5.91221">
        <ele>261.28</ele>
        <time>2026-08-11T09:50:01.335Z</time>
      </trkpt>
      <trkpt lat="49.66766" lon="5.91278">
        <ele>259.95</ele>
        <time>2026-08-11T09:50:07.343Z</time>
      </trkpt>
      <trkpt lat="49.66744" lon="5.91312">
        <ele>264.29</ele>
        <time>2026-08-11T09:50:13.341Z</time>
      </trkpt>
      <trkpt lat="49.66723" lon="5.91339">
        <ele>267.39</ele>
        <time>2026-08-11T09:50:19.342Z</time>
      </trkpt>
      <trkpt lat="49.66703" lon="5.91362">
        <ele>267.28</ele>
        <time>2026-08-11T09:50:25.331Z</time>
      </trkpt>
      <trkpt lat="49.66686" lon="5.91381">
        <ele>266.82</ele>
        <time>2026-08-11T09:50:30.336Z</time>
      </trkpt>
      <trkpt lat="49.66666" lon="5.91404">
        <ele>266.19</ele>
        <time>2026-08-11T09:50:35.337Z</time>
      </trkpt>
      <trkpt lat="49.66638" lon="5.91438">
        <ele>265.39</ele>
        <time>2026-08-11T09:50:41.335Z</time>
      </trkpt>
      <trkpt lat="49.66601" lon="5.91492">
        <ele>263.77</ele>
        <time>2026-08-11T09:50:47.336Z</time>
      </trkpt>
      <trkpt lat="49.66562" lon="5.91548">
        <ele>262.1</ele>
        <time>2026-08-11T09:50:53.332Z</time>
      </trkpt>
      <trkpt lat="49.66544" lon="5.91571">
        <ele>262.4</ele>
        <time>2026-08-11T09:50:59.335Z</time>
      </trkpt>
      <trkpt lat="49.66552" lon="5.91603">
        <ele>262.1</ele>
        <time>2026-08-11T09:51:05.333Z</time>
      </trkpt>
      <trkpt lat="49.66568" lon="5.91641">
        <ele>262.77</ele>
        <time>2026-08-11T09:51:11.333Z</time>
      </trkpt>
      <trkpt lat="49.66577" lon="5.91671">
        <ele>264.41</ele>
        <time>2026-08-11T09:51:16.337Z</time>
      </trkpt>
      <trkpt lat="49.66591" lon="5.91703">
        <ele>268.57</ele>
        <time>2026-08-11T09:51:22.333Z</time>
      </trkpt>
      <trkpt lat="49.66603" lon="5.91734">
        <ele>271.62</ele>
        <time>2026-08-11T09:51:28.332Z</time>
      </trkpt>
      <trkpt lat="49.66613" lon="5.91766">
        <ele>275.93</ele>
        <time>2026-08-11T09:51:34.332Z</time>
      </trkpt>
      <trkpt lat="49.66622" lon="5.91792">
        <ele>277.25</ele>
        <time>2026-08-11T09:51:39.333Z</time>
      </trkpt>
      <trkpt lat="49.66633" lon="5.91821">
        <ele>276.56</ele>
        <time>2026-08-11T09:51:45.336Z</time>
      </trkpt>
      <trkpt lat="49.66646" lon="5.91852">
        <ele>276.48</ele>
        <time>2026-08-11T09:51:51.330Z</time>
      </trkpt>
      <trkpt lat="49.66655" lon="5.91876">
        <ele>276.8</ele>
        <time>2026-08-11T09:51:56.337Z</time>
      </trkpt>
      <trkpt lat="49.66663" lon="5.91903">
        <ele>277.14</ele>
        <time>2026-08-11T09:52:02.333Z</time>
      </trkpt>
      <trkpt lat="49.66666" lon="5.91925">
        <ele>278.92</ele>
        <time>2026-08-11T09:52:07.356Z</time>
      </trkpt>
      <trkpt lat="49.66659" lon="5.91948">
        <ele>278.96</ele>
        <time>2026-08-11T09:52:13.349Z</time>
      </trkpt>
      <trkpt lat="49.66649" lon="5.91966">
        <ele>279.22</ele>
        <time>2026-08-11T09:52:19.360Z</time>
      </trkpt>
      <trkpt lat="49.66643" lon="5.91991">
        <ele>278.13</ele>
        <time>2026-08-11T09:52:25.401Z</time>
      </trkpt>
      <trkpt lat="49.6665" lon="5.92019">
        <ele>277.91</ele>
        <time>2026-08-11T09:52:31.337Z</time>
      </trkpt>
      <trkpt lat="49.66658" lon="5.92043">
        <ele>276.71</ele>
        <time>2026-08-11T09:52:37.360Z</time>
      </trkpt>
      <trkpt lat="49.66664" lon="5.92074">
        <ele>277.82</ele>
        <time>2026-08-11T09:52:43.359Z</time>
      </trkpt>
      <trkpt lat="49.6665" lon="5.92096">
        <ele>278.68</ele>
        <time>2026-08-11T09:52:49.363Z</time>
      </trkpt>
      <trkpt lat="49.66632" lon="5.92122">
        <ele>276.15</ele>
        <time>2026-08-11T09:52:55.334Z</time>
      </trkpt>
      <trkpt lat="49.66629" lon="5.92155">
        <ele>274.03</ele>
        <time>2026-08-11T09:53:01.330Z</time>
      </trkpt>
      <trkpt lat="49.66622" lon="5.92173">
        <ele>273.59</ele>
        <time>2026-08-11T09:53:06.330Z</time>
      </trkpt>
      <trkpt lat="49.66614" lon="5.92208">
        <ele>273.03</ele>
        <time>2026-08-11T09:53:11.336Z</time>
      </trkpt>
      <trkpt lat="49.66602" lon="5.92259">
        <ele>270.28</ele>
        <time>2026-08-11T09:53:17.335Z</time>
      </trkpt>
      <trkpt lat="49.66589" lon="5.92309">
        <ele>267.99</ele>
        <time>2026-08-11T09:53:22.335Z</time>
      </trkpt>
      <trkpt lat="49.66567" lon="5.92363">
        <ele>267.02</ele>
        <time>2026-08-11T09:53:28.332Z</time>
      </trkpt>
      <trkpt lat="49.66541" lon="5.92398">
        <ele>267.22</ele>
        <time>2026-08-11T09:53:34.330Z</time>
      </trkpt>
      <trkpt lat="49.66527" lon="5.92425">
        <ele>268.95</ele>
        <time>2026-08-11T09:53:39.334Z</time>
      </trkpt>
      <trkpt lat="49.66521" lon="5.9245">
        <ele>271.38</ele>
        <time>2026-08-11T09:53:45.329Z</time>
      </trkpt>
      <trkpt lat="49.66518" lon="5.92464">
        <ele>272.78</ele>
        <time>2026-08-11T09:53:50.332Z</time>
      </trkpt>
      <trkpt lat="49.66513" lon="5.92482">
        <ele>274.03</ele>
        <time>2026-08-11T09:53:55.397Z</time>
      </trkpt>
      <trkpt lat="49.66506" lon="5.92508">
        <ele>275.36</ele>
        <time>2026-08-11T09:54:01.334Z</time>
      </trkpt>
      <trkpt lat="49.66492" lon="5.92523">
        <ele>275.85</ele>
        <time>2026-08-11T09:54:07.364Z</time>
      </trkpt>
      <trkpt lat="49.66472" lon="5.92529">
        <ele>276.07</ele>
        <time>2026-08-11T09:54:13.365Z</time>
      </trkpt>
      <trkpt lat="49.66452" lon="5.92535">
        <ele>275.86</ele>
        <time>2026-08-11T09:54:19.365Z</time>
      </trkpt>
      <trkpt lat="49.66429" lon="5.92541">
        <ele>275.62</ele>
        <time>2026-08-11T09:54:25.399Z</time>
      </trkpt>
      <trkpt lat="49.66394" lon="5.92551">
        <ele>272.48</ele>
        <time>2026-08-11T09:54:31.334Z</time>
      </trkpt>
      <trkpt lat="49.66358" lon="5.92568">
        <ele>269.3</ele>
        <time>2026-08-11T09:54:36.335Z</time>
      </trkpt>
      <trkpt lat="49.66311" lon="5.92603">
        <ele>263.58</ele>
        <time>2026-08-11T09:54:42.330Z</time>
      </trkpt>
      <trkpt lat="49.66272" lon="5.92648">
        <ele>258.85</ele>
        <time>2026-08-11T09:54:47.334Z</time>
      </trkpt>
      <trkpt lat="49.66264" lon="5.92704">
        <ele>253.18</ele>
        <time>2026-08-11T09:54:53.334Z</time>
      </trkpt>
      <trkpt lat="49.66238" lon="5.92725">
        <ele>250.18</ele>
        <time>2026-08-11T09:54:59.333Z</time>
      </trkpt>
      <trkpt lat="49.66227" lon="5.92733">
        <ele>251.29</ele>
        <time>2026-08-11T09:55:04.333Z</time>
      </trkpt>
      <trkpt lat="49.66213" lon="5.92746">
        <ele>254.46</ele>
        <time>2026-08-11T09:55:10.336Z</time>
      </trkpt>
      <trkpt lat="49.66193" lon="5.92761">
        <ele>258.78</ele>
        <time>2026-08-11T09:55:16.335Z</time>
      </trkpt>
      <trkpt lat="49.66179" lon="5.9277">
        <ele>261.88</ele>
        <time>2026-08-11T09:55:22.333Z</time>
      </trkpt>
      <trkpt lat="49.66168" lon="5.92775">
        <ele>262.82</ele>
        <time>2026-08-11T09:55:27.336Z</time>
      </trkpt>
      <trkpt lat="49.66157" lon="5.92782">
        <ele>263.83</ele>
        <time>2026-08-11T09:55:32.336Z</time>
      </trkpt>
      <trkpt lat="49.66146" lon="5.92789">
        <ele>263.81</ele>
        <time>2026-08-11T09:55:37.366Z</time>
      </trkpt>
      <trkpt lat="49.66137" lon="5.92795">
        <ele>263.75</ele>
        <time>2026-08-11T09:55:43.379Z</time>
      </trkpt>
      <trkpt lat="49.66129" lon="5.92803">
        <ele>264.7</ele>
        <time>2026-08-11T09:55:50.334Z</time>
      </trkpt>
      <trkpt lat="49.66121" lon="5.9281">
        <ele>265.8</ele>
        <time>2026-08-11T09:55:56.337Z</time>
      </trkpt>
      <trkpt lat="49.66113" lon="5.92819">
        <ele>267.27</ele>
        <time>2026-08-11T09:56:03.332Z</time>
      </trkpt>
      <trkpt lat="49.66104" lon="5.92829">
        <ele>268.98</ele>
        <time>2026-08-11T09:56:10.333Z</time>
      </trkpt>
      <trkpt lat="49.66095" lon="5.92835">
        <ele>269.62</ele>
        <time>2026-08-11T09:56:16.336Z</time>
      </trkpt>
      <trkpt lat="49.66086" lon="5.92841">
        <ele>270.03</ele>
        <time>2026-08-11T09:56:22.333Z</time>
      </trkpt>
      <trkpt lat="49.66077" lon="5.92845">
        <ele>270.72</ele>
        <time>2026-08-11T09:56:27.337Z</time>
      </trkpt>
      <trkpt lat="49.66067" lon="5.92852">
        <ele>272.79</ele>
        <time>2026-08-11T09:56:33.330Z</time>
      </trkpt>
      <trkpt lat="49.66057" lon="5.92856">
        <ele>274.97</ele>
        <time>2026-08-11T09:56:38.335Z</time>
      </trkpt>
      <trkpt lat="49.66047" lon="5.92857">
        <ele>277.01</ele>
        <time>2026-08-11T09:56:43.383Z</time>
      </trkpt>
      <trkpt lat="49.66034" lon="5.92854">
        <ele>278.08</ele>
        <time>2026-08-11T09:56:49.382Z</time>
      </trkpt>
      <trkpt lat="49.66022" lon="5.9285">
        <ele>276.83</ele>
        <time>2026-08-11T09:56:55.335Z</time>
      </trkpt>
      <trkpt lat="49.66009" lon="5.92845">
        <ele>277.48</ele>
        <time>2026-08-11T09:57:01.332Z</time>
      </trkpt>
      <trkpt lat="49.65997" lon="5.9284">
        <ele>279.79</ele>
        <time>2026-08-11T09:57:07.382Z</time>
      </trkpt>
      <trkpt lat="49.65984" lon="5.92835">
        <ele>279.63</ele>
        <time>2026-08-11T09:57:13.384Z</time>
      </trkpt>
      <trkpt lat="49.65968" lon="5.9283">
        <ele>280.55</ele>
        <time>2026-08-11T09:57:19.381Z</time>
      </trkpt>
      <trkpt lat="49.65951" lon="5.92823">
        <ele>281.07</ele>
        <time>2026-08-11T09:57:25.397Z</time>
      </trkpt>
      <trkpt lat="49.65935" lon="5.92817">
        <ele>281.71</ele>
        <time>2026-08-11T09:57:31.335Z</time>
      </trkpt>
      <trkpt lat="49.65921" lon="5.92813">
        <ele>282.68</ele>
        <time>2026-08-11T09:57:37.384Z</time>
      </trkpt>
      <trkpt lat="49.659" lon="5.92817">
        <ele>282.62</ele>
        <time>2026-08-11T09:57:43.381Z</time>
      </trkpt>
      <trkpt lat="49.65871" lon="5.92834">
        <ele>280.1</ele>
        <time>2026-08-11T09:57:49.379Z</time>
      </trkpt>
      <trkpt lat="49.65839" lon="5.92861">
        <ele>275.54</ele>
        <time>2026-08-11T09:57:55.331Z</time>
      </trkpt>
      <trkpt lat="49.65803" lon="5.92895">
        <ele>271.44</ele>
        <time>2026-08-11T09:58:01.362Z</time>
      </trkpt>
      <trkpt lat="49.65754" lon="5.9292">
        <ele>269.74</ele>
        <time>2026-08-11T09:58:07.380Z</time>
      </trkpt>
      <trkpt lat="49.65703" lon="5.92947">
        <ele>265.93</ele>
        <time>2026-08-11T09:58:13.381Z</time>
      </trkpt>
      <trkpt lat="49.65649" lon="5.92978">
        <ele>264.17</ele>
        <time>2026-08-11T09:58:19.382Z</time>
      </trkpt>
      <trkpt lat="49.65598" lon="5.93006">
        <ele>262.62</ele>
        <time>2026-08-11T09:58:25.335Z</time>
      </trkpt>
      <trkpt lat="49.65549" lon="5.93026">
        <ele>262.75</ele>
        <time>2026-08-11T09:58:31.335Z</time>
      </trkpt>
      <trkpt lat="49.65505" lon="5.93045">
        <ele>263.1</ele>
        <time>2026-08-11T09:58:37.383Z</time>
      </trkpt>
      <trkpt lat="49.65461" lon="5.93033">
        <ele>261.39</ele>
        <time>2026-08-11T09:58:43.383Z</time>
      </trkpt>
      <trkpt lat="49.65419" lon="5.92991">
        <ele>260.05</ele>
        <time>2026-08-11T09:58:49.380Z</time>
      </trkpt>
      <trkpt lat="49.65375" lon="5.92947">
        <ele>257.66</ele>
        <time>2026-08-11T09:58:55.365Z</time>
      </trkpt>
      <trkpt lat="49.65337" lon="5.92893">
        <ele>255.5</ele>
        <time>2026-08-11T09:59:01.331Z</time>
      </trkpt>
      <trkpt lat="49.65306" lon="5.92834">
        <ele>253.24</ele>
        <time>2026-08-11T09:59:07.380Z</time>
      </trkpt>
      <trkpt lat="49.65284" lon="5.92777">
        <ele>255.34</ele>
        <time>2026-08-11T09:59:13.379Z</time>
      </trkpt>
      <trkpt lat="49.65263" lon="5.92729">
        <ele>257.05</ele>
        <time>2026-08-11T09:59:19.381Z</time>
      </trkpt>
      <trkpt lat="49.65242" lon="5.92685">
        <ele>259.4</ele>
        <time>2026-08-11T09:59:25.361Z</time>
      </trkpt>
      <trkpt lat="49.65223" lon="5.92656">
        <ele>260.8</ele>
        <time>2026-08-11T09:59:31.369Z</time>
      </trkpt>
      <trkpt lat="49.65207" lon="5.92633">
        <ele>261.98</ele>
        <time>2026-08-11T09:59:37.332Z</time>
      </trkpt>
      <trkpt lat="49.65186" lon="5.92618">
        <ele>262.38</ele>
        <time>2026-08-11T09:59:43.334Z</time>
      </trkpt>
      <trkpt lat="49.65171" lon="5.92641">
        <ele>263.15</ele>
        <time>2026-08-11T09:59:49.338Z</time>
      </trkpt>
      <trkpt lat="49.65157" lon="5.92672">
        <ele>264.71</ele>
        <time>2026-08-11T09:59:55.400Z</time>
      </trkpt>
      <trkpt lat="49.65143" lon="5.92703">
        <ele>265.59</ele>
        <time>2026-08-11T10:00:01.365Z</time>
      </trkpt>
      <trkpt lat="49.65131" lon="5.92735">
        <ele>266.17</ele>
        <time>2026-08-11T10:00:07.335Z</time>
      </trkpt>
      <trkpt lat="49.6512" lon="5.92763">
        <ele>266.31</ele>
        <time>2026-08-11T10:00:12.335Z</time>
      </trkpt>
      <trkpt lat="49.65107" lon="5.92797">
        <ele>265.27</ele>
        <time>2026-08-11T10:00:17.335Z</time>
      </trkpt>
      <trkpt lat="49.65091" lon="5.92833">
        <ele>264.29</ele>
        <time>2026-08-11T10:00:22.335Z</time>
      </trkpt>
      <trkpt lat="49.65066" lon="5.92875">
        <ele>261.78</ele>
        <time>2026-08-11T10:00:28.333Z</time>
      </trkpt>
      <trkpt lat="49.65042" lon="5.92905">
        <ele>262.21</ele>
        <time>2026-08-11T10:00:33.333Z</time>
      </trkpt>
      <trkpt lat="49.65021" lon="5.92942">
        <ele>262.01</ele>
        <time>2026-08-11T10:00:38.333Z</time>
      </trkpt>
      <trkpt lat="49.65021" lon="5.92999">
        <ele>263.36</ele>
        <time>2026-08-11T10:00:44.330Z</time>
      </trkpt>
      <trkpt lat="49.65004" lon="5.93015">
        <ele>262.07</ele>
        <time>2026-08-11T10:00:49.341Z</time>
      </trkpt>
      <trkpt lat="49.64984" lon="5.93011">
        <ele>261.67</ele>
        <time>2026-08-11T10:00:55.362Z</time>
      </trkpt>
      <trkpt lat="49.64963" lon="5.93009">
        <ele>261.27</ele>
        <time>2026-08-11T10:01:01.367Z</time>
      </trkpt>
      <trkpt lat="49.64939" lon="5.93007">
        <ele>261.47</ele>
        <time>2026-08-11T10:01:07.334Z</time>
      </trkpt>
      <trkpt lat="49.64915" lon="5.93014">
        <ele>261.79</ele>
        <time>2026-08-11T10:01:13.333Z</time>
      </trkpt>
      <trkpt lat="49.64892" lon="5.93026">
        <ele>261.03</ele>
        <time>2026-08-11T10:01:19.337Z</time>
      </trkpt>
      <trkpt lat="49.64867" lon="5.93023">
        <ele>260.45</ele>
        <time>2026-08-11T10:01:25.342Z</time>
      </trkpt>
      <trkpt lat="49.64854" lon="5.93026">
        <ele>260</ele>
        <time>2026-08-11T10:01:31.369Z</time>
      </trkpt>
      <trkpt lat="49.64829" lon="5.93032">
        <ele>261.51</ele>
        <time>2026-08-11T10:01:37.332Z</time>
      </trkpt>
      <trkpt lat="49.64788" lon="5.93033">
        <ele>260.69</ele>
        <time>2026-08-11T10:01:43.336Z</time>
      </trkpt>
      <trkpt lat="49.64755" lon="5.93032">
        <ele>259.95</ele>
        <time>2026-08-11T10:01:48.338Z</time>
      </trkpt>
      <trkpt lat="49.64723" lon="5.93032">
        <ele>260.12</ele>
        <time>2026-08-11T10:01:53.343Z</time>
      </trkpt>
      <trkpt lat="49.6469" lon="5.93034">
        <ele>258.84</ele>
        <time>2026-08-11T10:01:59.337Z</time>
      </trkpt>
      <trkpt lat="49.6466" lon="5.9303">
        <ele>258.69</ele>
        <time>2026-08-11T10:02:04.337Z</time>
      </trkpt>
      <trkpt lat="49.64627" lon="5.93012">
        <ele>257.92</ele>
        <time>2026-08-11T10:02:10.335Z</time>
      </trkpt>
      <trkpt lat="49.64604" lon="5.93005">
        <ele>258.26</ele>
        <time>2026-08-11T10:02:15.335Z</time>
      </trkpt>
      <trkpt lat="49.64586" lon="5.93004">
        <ele>259.11</ele>
        <time>2026-08-11T10:02:20.335Z</time>
      </trkpt>
      <trkpt lat="49.64568" lon="5.93">
        <ele>259.81</ele>
        <time>2026-08-11T10:02:25.399Z</time>
      </trkpt>
      <trkpt lat="49.64546" lon="5.93009">
        <ele>262.04</ele>
        <time>2026-08-11T10:02:31.334Z</time>
      </trkpt>
      <trkpt lat="49.64534" lon="5.93027">
        <ele>263.72</ele>
        <time>2026-08-11T10:02:36.336Z</time>
      </trkpt>
      <trkpt lat="49.64526" lon="5.93055">
        <ele>263.93</ele>
        <time>2026-08-11T10:02:41.346Z</time>
      </trkpt>
      <trkpt lat="49.64518" lon="5.93086">
        <ele>263.79</ele>
        <time>2026-08-11T10:02:47.335Z</time>
      </trkpt>
      <trkpt lat="49.64508" lon="5.93119">
        <ele>265.29</ele>
        <time>2026-08-11T10:02:53.334Z</time>
      </trkpt>
      <trkpt lat="49.64491" lon="5.93138">
        <ele>264.28</ele>
        <time>2026-08-11T10:02:58.334Z</time>
      </trkpt>
      <trkpt lat="49.64471" lon="5.93151">
        <ele>264.29</ele>
        <time>2026-08-11T10:03:03.334Z</time>
      </trkpt>
      <trkpt lat="49.64446" lon="5.93167">
        <ele>263.78</ele>
        <time>2026-08-11T10:03:09.328Z</time>
      </trkpt>
      <trkpt lat="49.64423" lon="5.93185">
        <ele>264.24</ele>
        <time>2026-08-11T10:03:14.331Z</time>
      </trkpt>
      <trkpt lat="49.64404" lon="5.93205">
        <ele>263.18</ele>
        <time>2026-08-11T10:03:19.356Z</time>
      </trkpt>
      <trkpt lat="49.64379" lon="5.93231">
        <ele>263.47</ele>
        <time>2026-08-11T10:03:25.335Z</time>
      </trkpt>
      <trkpt lat="49.6436" lon="5.93254">
        <ele>262.16</ele>
        <time>2026-08-11T10:03:30.336Z</time>
      </trkpt>
      <trkpt lat="49.6434" lon="5.93278">
        <ele>259.71</ele>
        <time>2026-08-11T10:03:35.336Z</time>
      </trkpt>
      <trkpt lat="49.64316" lon="5.9331">
        <ele>257.4</ele>
        <time>2026-08-11T10:03:41.333Z</time>
      </trkpt>
      <trkpt lat="49.64288" lon="5.93346">
        <ele>256.29</ele>
        <time>2026-08-11T10:03:47.337Z</time>
      </trkpt>
      <trkpt lat="49.64258" lon="5.93383">
        <ele>255.56</ele>
        <time>2026-08-11T10:03:53.334Z</time>
      </trkpt>
      <trkpt lat="49.64231" lon="5.9342">
        <ele>254.32</ele>
        <time>2026-08-11T10:03:58.334Z</time>
      </trkpt>
      <trkpt lat="49.642" lon="5.93472">
        <ele>254.65</ele>
        <time>2026-08-11T10:04:04.336Z</time>
      </trkpt>
      <trkpt lat="49.64163" lon="5.93513">
        <ele>254.79</ele>
        <time>2026-08-11T10:04:10.336Z</time>
      </trkpt>
      <trkpt lat="49.64124" lon="5.93539">
        <ele>254.1</ele>
        <time>2026-08-11T10:04:16.330Z</time>
      </trkpt>
      <trkpt lat="49.64104" lon="5.93527">
        <ele>254.18</ele>
        <time>2026-08-11T10:04:21.330Z</time>
      </trkpt>
      <trkpt lat="49.64083" lon="5.93511">
        <ele>254.06</ele>
        <time>2026-08-11T10:04:26.338Z</time>
      </trkpt>
      <trkpt lat="49.64071" lon="5.93546">
        <ele>254.64</ele>
        <time>2026-08-11T10:04:31.391Z</time>
      </trkpt>
      <trkpt lat="49.64059" lon="5.93593">
        <ele>253.79</ele>
        <time>2026-08-11T10:04:37.354Z</time>
      </trkpt>
      <trkpt lat="49.64047" lon="5.93639">
        <ele>253.07</ele>
        <time>2026-08-11T10:04:43.353Z</time>
      </trkpt>
      <trkpt lat="49.64034" lon="5.9368">
        <ele>255.55</ele>
        <time>2026-08-11T10:04:49.357Z</time>
      </trkpt>
      <trkpt lat="49.64021" lon="5.93722">
        <ele>257.88</ele>
        <time>2026-08-11T10:04:55.400Z</time>
      </trkpt>
      <trkpt lat="49.64009" lon="5.93757">
        <ele>259.54</ele>
        <time>2026-08-11T10:05:01.394Z</time>
      </trkpt>
      <trkpt lat="49.63997" lon="5.93789">
        <ele>261.88</ele>
        <time>2026-08-11T10:05:07.355Z</time>
      </trkpt>
      <trkpt lat="49.63985" lon="5.93823">
        <ele>263.88</ele>
        <time>2026-08-11T10:05:13.354Z</time>
      </trkpt>
      <trkpt lat="49.63973" lon="5.93858">
        <ele>263.37</ele>
        <time>2026-08-11T10:05:19.355Z</time>
      </trkpt>
      <trkpt lat="49.6396" lon="5.93893">
        <ele>262.78</ele>
        <time>2026-08-11T10:05:25.404Z</time>
      </trkpt>
      <trkpt lat="49.63943" lon="5.9393">
        <ele>262.14</ele>
        <time>2026-08-11T10:05:31.392Z</time>
      </trkpt>
      <trkpt lat="49.6392" lon="5.93956">
        <ele>260.15</ele>
        <time>2026-08-11T10:05:37.351Z</time>
      </trkpt>
      <trkpt lat="49.63895" lon="5.93985">
        <ele>257.99</ele>
        <time>2026-08-11T10:05:43.351Z</time>
      </trkpt>
      <trkpt lat="49.63867" lon="5.94013">
        <ele>258.07</ele>
        <time>2026-08-11T10:05:49.350Z</time>
      </trkpt>
      <trkpt lat="49.63843" lon="5.94037">
        <ele>258.12</ele>
        <time>2026-08-11T10:05:55.396Z</time>
      </trkpt>
      <trkpt lat="49.63817" lon="5.94067">
        <ele>258.55</ele>
        <time>2026-08-11T10:06:01.395Z</time>
      </trkpt>
      <trkpt lat="49.63792" lon="5.94094">
        <ele>259.24</ele>
        <time>2026-08-11T10:06:07.344Z</time>
      </trkpt>
      <trkpt lat="49.6377" lon="5.94117">
        <ele>261.87</ele>
        <time>2026-08-11T10:06:13.350Z</time>
      </trkpt>
      <trkpt lat="49.63752" lon="5.94133">
        <ele>261.39</ele>
        <time>2026-08-11T10:06:19.351Z</time>
      </trkpt>
      <trkpt lat="49.63735" lon="5.94148">
        <ele>261.53</ele>
        <time>2026-08-11T10:06:25.400Z</time>
      </trkpt>
      <trkpt lat="49.63713" lon="5.94159">
        <ele>259.83</ele>
        <time>2026-08-11T10:06:31.387Z</time>
      </trkpt>
      <trkpt lat="49.63697" lon="5.94171">
        <ele>258.6</ele>
        <time>2026-08-11T10:06:37.349Z</time>
      </trkpt>
      <trkpt lat="49.63682" lon="5.9418">
        <ele>259.09</ele>
        <time>2026-08-11T10:06:43.356Z</time>
      </trkpt>
      <trkpt lat="49.63668" lon="5.94187">
        <ele>260.55</ele>
        <time>2026-08-11T10:06:49.354Z</time>
      </trkpt>
      <trkpt lat="49.63652" lon="5.94194">
        <ele>264.41</ele>
        <time>2026-08-11T10:06:55.394Z</time>
      </trkpt>
      <trkpt lat="49.63633" lon="5.94198">
        <ele>269.44</ele>
        <time>2026-08-11T10:07:01.400Z</time>
      </trkpt>
      <trkpt lat="49.63611" lon="5.94202">
        <ele>272.77</ele>
        <time>2026-08-11T10:07:07.357Z</time>
      </trkpt>
      <trkpt lat="49.63588" lon="5.94205">
        <ele>273.47</ele>
        <time>2026-08-11T10:07:13.362Z</time>
      </trkpt>
      <trkpt lat="49.6356" lon="5.94209">
        <ele>271.09</ele>
        <time>2026-08-11T10:07:19.356Z</time>
      </trkpt>
      <trkpt lat="49.63521" lon="5.94216">
        <ele>268.18</ele>
        <time>2026-08-11T10:07:25.400Z</time>
      </trkpt>
      <trkpt lat="49.63486" lon="5.94233">
        <ele>267.03</ele>
        <time>2026-08-11T10:07:31.332Z</time>
      </trkpt>
      <trkpt lat="49.63468" lon="5.94248">
        <ele>266.17</ele>
        <time>2026-08-11T10:07:36.339Z</time>
      </trkpt>
      <trkpt lat="49.6346" lon="5.94256">
        <ele>267.7</ele>
        <time>2026-08-11T10:07:43.357Z</time>
      </trkpt>
      <trkpt lat="49.63451" lon="5.94262">
        <ele>269.53</ele>
        <time>2026-08-11T10:07:49.355Z</time>
      </trkpt>
      <trkpt lat="49.63441" lon="5.94272">
        <ele>270.8</ele>
        <time>2026-08-11T10:07:55.368Z</time>
      </trkpt>
      <trkpt lat="49.63433" lon="5.94281">
        <ele>272.24</ele>
        <time>2026-08-11T10:08:01.396Z</time>
      </trkpt>
      <trkpt lat="49.63426" lon="5.94292">
        <ele>273.34</ele>
        <time>2026-08-11T10:08:07.360Z</time>
      </trkpt>
      <trkpt lat="49.63418" lon="5.943">
        <ele>275.3</ele>
        <time>2026-08-11T10:08:14.334Z</time>
      </trkpt>
      <trkpt lat="49.63409" lon="5.94312">
        <ele>277.51</ele>
        <time>2026-08-11T10:08:25.369Z</time>
      </trkpt>
      <trkpt lat="49.63401" lon="5.94322">
        <ele>279.87</ele>
        <time>2026-08-11T10:08:31.394Z</time>
      </trkpt>
      <trkpt lat="49.63395" lon="5.94332">
        <ele>281.43</ele>
        <time>2026-08-11T10:08:37.363Z</time>
      </trkpt>
      <trkpt lat="49.63387" lon="5.94342">
        <ele>282.53</ele>
        <time>2026-08-11T10:08:44.331Z</time>
      </trkpt>
      <trkpt lat="49.63379" lon="5.94351">
        <ele>283.94</ele>
        <time>2026-08-11T10:08:50.337Z</time>
      </trkpt>
      <trkpt lat="49.63372" lon="5.9436">
        <ele>286.95</ele>
        <time>2026-08-11T10:08:58.337Z</time>
      </trkpt>
      <trkpt lat="49.63367" lon="5.94372">
        <ele>289.65</ele>
        <time>2026-08-11T10:09:05.335Z</time>
      </trkpt>
      <trkpt lat="49.63361" lon="5.94383">
        <ele>292.21</ele>
        <time>2026-08-11T10:09:17.334Z</time>
      </trkpt>
      <trkpt lat="49.63354" lon="5.94399">
        <ele>294.93</ele>
        <time>2026-08-11T10:09:29.335Z</time>
      </trkpt>
      <trkpt lat="49.6335" lon="5.94417">
        <ele>295.36</ele>
        <time>2026-08-11T10:09:34.336Z</time>
      </trkpt>
      <trkpt lat="49.63346" lon="5.9444">
        <ele>295.04</ele>
        <time>2026-08-11T10:09:40.326Z</time>
      </trkpt>
      <trkpt lat="49.63339" lon="5.94459">
        <ele>292.92</ele>
        <time>2026-08-11T10:09:45.332Z</time>
      </trkpt>
      <trkpt lat="49.6333" lon="5.94481">
        <ele>290.85</ele>
        <time>2026-08-11T10:09:50.339Z</time>
      </trkpt>
      <trkpt lat="49.63323" lon="5.94508">
        <ele>288.59</ele>
        <time>2026-08-11T10:09:55.405Z</time>
      </trkpt>
      <trkpt lat="49.63315" lon="5.94542">
        <ele>286.5</ele>
        <time>2026-08-11T10:10:01.364Z</time>
      </trkpt>
      <trkpt lat="49.63308" lon="5.94568">
        <ele>286.59</ele>
        <time>2026-08-11T10:10:07.358Z</time>
      </trkpt>
      <trkpt lat="49.63303" lon="5.94588">
        <ele>289.28</ele>
        <time>2026-08-11T10:10:13.360Z</time>
      </trkpt>
      <trkpt lat="49.63299" lon="5.94606">
        <ele>291.12</ele>
        <time>2026-08-11T10:10:19.357Z</time>
      </trkpt>
      <trkpt lat="49.63295" lon="5.9462">
        <ele>293.23</ele>
        <time>2026-08-11T10:10:25.395Z</time>
      </trkpt>
      <trkpt lat="49.63287" lon="5.94633">
        <ele>294.98</ele>
        <time>2026-08-11T10:10:31.392Z</time>
      </trkpt>
      <trkpt lat="49.63277" lon="5.94644">
        <ele>296.31</ele>
        <time>2026-08-11T10:10:37.360Z</time>
      </trkpt>
      <trkpt lat="49.63265" lon="5.94649">
        <ele>295.25</ele>
        <time>2026-08-11T10:10:43.362Z</time>
      </trkpt>
      <trkpt lat="49.63255" lon="5.9465">
        <ele>295.37</ele>
        <time>2026-08-11T10:10:49.357Z</time>
      </trkpt>
      <trkpt lat="49.63243" lon="5.94646">
        <ele>294.6</ele>
        <time>2026-08-11T10:10:55.395Z</time>
      </trkpt>
      <trkpt lat="49.63227" lon="5.94643">
        <ele>295.51</ele>
        <time>2026-08-11T10:11:01.364Z</time>
      </trkpt>
      <trkpt lat="49.63205" lon="5.94638">
        <ele>295.52</ele>
        <time>2026-08-11T10:11:07.358Z</time>
      </trkpt>
      <trkpt lat="49.63171" lon="5.94641">
        <ele>295.32</ele>
        <time>2026-08-11T10:11:13.362Z</time>
      </trkpt>
      <trkpt lat="49.63121" lon="5.9465">
        <ele>290.4</ele>
        <time>2026-08-11T10:11:19.359Z</time>
      </trkpt>
      <trkpt lat="49.63068" lon="5.94672">
        <ele>284.32</ele>
        <time>2026-08-11T10:11:25.389Z</time>
      </trkpt>
      <trkpt lat="49.63018" lon="5.94699">
        <ele>280.87</ele>
        <time>2026-08-11T10:11:31.396Z</time>
      </trkpt>
      <trkpt lat="49.62967" lon="5.94708">
        <ele>275.75</ele>
        <time>2026-08-11T10:11:37.352Z</time>
      </trkpt>
      <trkpt lat="49.62912" lon="5.94713">
        <ele>273.92</ele>
        <time>2026-08-11T10:11:43.364Z</time>
      </trkpt>
      <trkpt lat="49.6287" lon="5.94708">
        <ele>275.79</ele>
        <time>2026-08-11T10:11:49.369Z</time>
      </trkpt>
      <trkpt lat="49.62844" lon="5.94709">
        <ele>275.51</ele>
        <time>2026-08-11T10:11:55.392Z</time>
      </trkpt>
      <trkpt lat="49.62832" lon="5.94714">
        <ele>285.04</ele>
        <time>2026-08-11T11:46:32.341Z</time>
      </trkpt>
      <trkpt lat="49.62823" lon="5.9471">
        <ele>277.55</ele>
        <time>2026-08-11T11:46:41.330Z</time>
      </trkpt>
      <trkpt lat="49.62809" lon="5.94705">
        <ele>277.63</ele>
        <time>2026-08-11T11:46:47.328Z</time>
      </trkpt>
      <trkpt lat="49.62798" lon="5.94702">
        <ele>277.48</ele>
        <time>2026-08-11T11:46:52.360Z</time>
      </trkpt>
      <trkpt lat="49.62782" lon="5.94697">
        <ele>275.09</ele>
        <time>2026-08-11T11:46:57.998Z</time>
      </trkpt>
      <trkpt lat="49.62761" lon="5.94695">
        <ele>271.4</ele>
        <time>2026-08-11T11:47:03.858Z</time>
      </trkpt>
      <trkpt lat="49.62741" lon="5.94697">
        <ele>268.59</ele>
        <time>2026-08-11T11:47:08.934Z</time>
      </trkpt>
      <trkpt lat="49.62717" lon="5.94691">
        <ele>269.02</ele>
        <time>2026-08-11T11:47:14.331Z</time>
      </trkpt>
      <trkpt lat="49.62696" lon="5.94683">
        <ele>269.69</ele>
        <time>2026-08-11T11:47:20.120Z</time>
      </trkpt>
      <trkpt lat="49.62677" lon="5.94679">
        <ele>271.13</ele>
        <time>2026-08-11T11:47:25.759Z</time>
      </trkpt>
      <trkpt lat="49.62656" lon="5.94681">
        <ele>272.36</ele>
        <time>2026-08-11T11:47:31.327Z</time>
      </trkpt>
      <trkpt lat="49.62637" lon="5.94679">
        <ele>273.54</ele>
        <time>2026-08-11T11:47:36.915Z</time>
      </trkpt>
      <trkpt lat="49.62621" lon="5.94672">
        <ele>274.36</ele>
        <time>2026-08-11T11:47:42.340Z</time>
      </trkpt>
      <trkpt lat="49.62604" lon="5.94656">
        <ele>275.74</ele>
        <time>2026-08-11T11:47:48.002Z</time>
      </trkpt>
      <trkpt lat="49.6259" lon="5.94644">
        <ele>278.45</ele>
        <time>2026-08-11T11:47:53.328Z</time>
      </trkpt>
      <trkpt lat="49.62576" lon="5.9463">
        <ele>280.99</ele>
        <time>2026-08-11T11:47:58.997Z</time>
      </trkpt>
      <trkpt lat="49.62561" lon="5.94625">
        <ele>281.21</ele>
        <time>2026-08-11T11:48:04.001Z</time>
      </trkpt>
      <trkpt lat="49.62545" lon="5.94626">
        <ele>282.47</ele>
        <time>2026-08-11T11:48:09.056Z</time>
      </trkpt>
      <trkpt lat="49.62531" lon="5.94629">
        <ele>281.68</ele>
        <time>2026-08-11T11:48:14.337Z</time>
      </trkpt>
      <trkpt lat="49.62513" lon="5.94629">
        <ele>279.52</ele>
        <time>2026-08-11T11:48:19.338Z</time>
      </trkpt>
      <trkpt lat="49.62487" lon="5.94627">
        <ele>278.92</ele>
        <time>2026-08-11T11:48:25.336Z</time>
      </trkpt>
      <trkpt lat="49.62465" lon="5.94626">
        <ele>279.32</ele>
        <time>2026-08-11T11:48:30.337Z</time>
      </trkpt>
      <trkpt lat="49.62446" lon="5.94628">
        <ele>277.88</ele>
        <time>2026-08-11T11:48:35.338Z</time>
      </trkpt>
      <trkpt lat="49.62427" lon="5.94637">
        <ele>277.02</ele>
        <time>2026-08-11T11:48:41.334Z</time>
      </trkpt>
      <trkpt lat="49.62414" lon="5.94643">
        <ele>278.69</ele>
        <time>2026-08-11T11:48:46.335Z</time>
      </trkpt>
      <trkpt lat="49.62401" lon="5.94647">
        <ele>280.11</ele>
        <time>2026-08-11T11:48:52.337Z</time>
      </trkpt>
      <trkpt lat="49.62389" lon="5.94651">
        <ele>280.92</ele>
        <time>2026-08-11T11:48:58.338Z</time>
      </trkpt>
      <trkpt lat="49.62376" lon="5.94654">
        <ele>279.76</ele>
        <time>2026-08-11T11:49:04.338Z</time>
      </trkpt>
      <trkpt lat="49.62366" lon="5.94654">
        <ele>280.73</ele>
        <time>2026-08-11T11:49:10.333Z</time>
      </trkpt>
      <trkpt lat="49.62356" lon="5.94652">
        <ele>283.38</ele>
        <time>2026-08-11T11:49:16.333Z</time>
      </trkpt>
      <trkpt lat="49.62347" lon="5.9465">
        <ele>285.05</ele>
        <time>2026-08-11T11:49:22.336Z</time>
      </trkpt>
      <trkpt lat="49.62338" lon="5.94652">
        <ele>285.18</ele>
        <time>2026-08-11T11:49:27.336Z</time>
      </trkpt>
      <trkpt lat="49.62328" lon="5.94651">
        <ele>285.86</ele>
        <time>2026-08-11T11:49:33.332Z</time>
      </trkpt>
      <trkpt lat="49.62318" lon="5.94648">
        <ele>284.01</ele>
        <time>2026-08-11T11:49:41.338Z</time>
      </trkpt>
      <trkpt lat="49.62307" lon="5.94643">
        <ele>285.88</ele>
        <time>2026-08-11T11:49:48.336Z</time>
      </trkpt>
      <trkpt lat="49.62295" lon="5.94645">
        <ele>287.48</ele>
        <time>2026-08-11T11:49:53.337Z</time>
      </trkpt>
      <trkpt lat="49.62284" lon="5.94643">
        <ele>288.91</ele>
        <time>2026-08-11T11:49:59.335Z</time>
      </trkpt>
      <trkpt lat="49.62275" lon="5.94641">
        <ele>289.4</ele>
        <time>2026-08-11T11:50:05.339Z</time>
      </trkpt>
      <trkpt lat="49.62265" lon="5.94644">
        <ele>287.63</ele>
        <time>2026-08-11T11:50:11.336Z</time>
      </trkpt>
      <trkpt lat="49.62256" lon="5.94648">
        <ele>288.47</ele>
        <time>2026-08-11T11:50:18.340Z</time>
      </trkpt>
      <trkpt lat="49.62247" lon="5.94655">
        <ele>291.17</ele>
        <time>2026-08-11T11:50:24.340Z</time>
      </trkpt>
      <trkpt lat="49.62238" lon="5.94662">
        <ele>291.78</ele>
        <time>2026-08-11T11:50:31.338Z</time>
      </trkpt>
      <trkpt lat="49.62229" lon="5.94669">
        <ele>292.52</ele>
        <time>2026-08-11T11:50:37.345Z</time>
      </trkpt>
      <trkpt lat="49.62222" lon="5.94679">
        <ele>296.06</ele>
        <time>2026-08-11T11:50:44.336Z</time>
      </trkpt>
      <trkpt lat="49.62212" lon="5.94685">
        <ele>297.67</ele>
        <time>2026-08-11T11:50:49.349Z</time>
      </trkpt>
      <trkpt lat="49.62203" lon="5.94692">
        <ele>299.44</ele>
        <time>2026-08-11T11:50:55.338Z</time>
      </trkpt>
      <trkpt lat="49.62193" lon="5.94701">
        <ele>300.51</ele>
        <time>2026-08-11T11:51:01.346Z</time>
      </trkpt>
      <trkpt lat="49.62184" lon="5.94712">
        <ele>299.59</ele>
        <time>2026-08-11T11:51:07.344Z</time>
      </trkpt>
      <trkpt lat="49.62174" lon="5.94719">
        <ele>301.06</ele>
        <time>2026-08-11T11:51:13.346Z</time>
      </trkpt>
      <trkpt lat="49.62163" lon="5.94724">
        <ele>304.68</ele>
        <time>2026-08-11T11:51:19.343Z</time>
      </trkpt>
      <trkpt lat="49.62153" lon="5.94731">
        <ele>305.45</ele>
        <time>2026-08-11T11:51:25.332Z</time>
      </trkpt>
      <trkpt lat="49.62143" lon="5.94736">
        <ele>305.37</ele>
        <time>2026-08-11T11:51:30.334Z</time>
      </trkpt>
      <trkpt lat="49.62135" lon="5.94742">
        <ele>306.56</ele>
        <time>2026-08-11T11:51:35.341Z</time>
      </trkpt>
      <trkpt lat="49.62126" lon="5.9475">
        <ele>307.45</ele>
        <time>2026-08-11T11:51:41.342Z</time>
      </trkpt>
      <trkpt lat="49.62118" lon="5.94757">
        <ele>308.58</ele>
        <time>2026-08-11T11:51:49.349Z</time>
      </trkpt>
      <trkpt lat="49.6211" lon="5.94765">
        <ele>310.94</ele>
        <time>2026-08-11T11:51:55.339Z</time>
      </trkpt>
      <trkpt lat="49.62101" lon="5.94775">
        <ele>312.03</ele>
        <time>2026-08-11T11:52:00.341Z</time>
      </trkpt>
      <trkpt lat="49.62087" lon="5.94788">
        <ele>311.73</ele>
        <time>2026-08-11T11:52:06.332Z</time>
      </trkpt>
      <trkpt lat="49.62077" lon="5.94804">
        <ele>311.1</ele>
        <time>2026-08-11T11:52:11.341Z</time>
      </trkpt>
      <trkpt lat="49.62062" lon="5.94844">
        <ele>309.51</ele>
        <time>2026-08-11T11:52:17.334Z</time>
      </trkpt>
      <trkpt lat="49.62039" lon="5.94893">
        <ele>307.05</ele>
        <time>2026-08-11T11:52:22.336Z</time>
      </trkpt>
      <trkpt lat="49.62008" lon="5.9495">
        <ele>302.97</ele>
        <time>2026-08-11T11:52:28.337Z</time>
      </trkpt>
      <trkpt lat="49.61973" lon="5.94999">
        <ele>300.54</ele>
        <time>2026-08-11T11:52:34.338Z</time>
      </trkpt>
      <trkpt lat="49.6193" lon="5.95036">
        <ele>295.48</ele>
        <time>2026-08-11T11:52:40.338Z</time>
      </trkpt>
      <trkpt lat="49.61895" lon="5.95064">
        <ele>293.49</ele>
        <time>2026-08-11T11:52:46.336Z</time>
      </trkpt>
      <trkpt lat="49.61889" lon="5.95074">
        <ele>292.62</ele>
        <time>2026-08-11T11:52:57.326Z</time>
      </trkpt>
      <trkpt lat="49.619" lon="5.95088">
        <ele>292.13</ele>
        <time>2026-08-11T11:53:02.327Z</time>
      </trkpt>
      <trkpt lat="49.61916" lon="5.95094">
        <ele>292.18</ele>
        <time>2026-08-11T11:53:07.359Z</time>
      </trkpt>
      <trkpt lat="49.61936" lon="5.95102">
        <ele>294.16</ele>
        <time>2026-08-11T11:53:13.355Z</time>
      </trkpt>
      <trkpt lat="49.61959" lon="5.95107">
        <ele>294.71</ele>
        <time>2026-08-11T11:53:19.388Z</time>
      </trkpt>
      <trkpt lat="49.61981" lon="5.95115">
        <ele>295.24</ele>
        <time>2026-08-11T11:53:25.318Z</time>
      </trkpt>
      <trkpt lat="49.62" lon="5.95122">
        <ele>293.66</ele>
        <time>2026-08-11T11:53:31.328Z</time>
      </trkpt>
      <trkpt lat="49.62021" lon="5.95131">
        <ele>292.97</ele>
        <time>2026-08-11T11:53:37.344Z</time>
      </trkpt>
      <trkpt lat="49.62042" lon="5.95139">
        <ele>294.46</ele>
        <time>2026-08-11T11:53:43.346Z</time>
      </trkpt>
      <trkpt lat="49.62063" lon="5.95146">
        <ele>296.66</ele>
        <time>2026-08-11T11:53:49.350Z</time>
      </trkpt>
      <trkpt lat="49.6208" lon="5.95154">
        <ele>296.77</ele>
        <time>2026-08-11T11:53:54.360Z</time>
      </trkpt>
      <trkpt lat="49.62101" lon="5.95163">
        <ele>297.53</ele>
        <time>2026-08-11T11:54:00.343Z</time>
      </trkpt>
      <trkpt lat="49.62123" lon="5.95172">
        <ele>296.81</ele>
        <time>2026-08-11T11:54:06.317Z</time>
      </trkpt>
      <trkpt lat="49.6214" lon="5.95177">
        <ele>296.33</ele>
        <time>2026-08-11T11:54:11.317Z</time>
      </trkpt>
      <trkpt lat="49.62155" lon="5.95187">
        <ele>297.59</ele>
        <time>2026-08-11T11:54:16.317Z</time>
      </trkpt>
      <trkpt lat="49.62163" lon="5.95208">
        <ele>297.88</ele>
        <time>2026-08-11T11:54:21.326Z</time>
      </trkpt>
      <trkpt lat="49.62168" lon="5.9524">
        <ele>297.68</ele>
        <time>2026-08-11T11:54:27.329Z</time>
      </trkpt>
      <trkpt lat="49.62177" lon="5.9528">
        <ele>295.82</ele>
        <time>2026-08-11T11:54:33.330Z</time>
      </trkpt>
      <trkpt lat="49.62186" lon="5.95314">
        <ele>294.96</ele>
        <time>2026-08-11T11:54:38.336Z</time>
      </trkpt>
      <trkpt lat="49.62196" lon="5.95351">
        <ele>294.05</ele>
        <time>2026-08-11T11:54:43.367Z</time>
      </trkpt>
      <trkpt lat="49.62207" lon="5.95409">
        <ele>294.93</ele>
        <time>2026-08-11T11:54:49.362Z</time>
      </trkpt>
      <trkpt lat="49.62219" lon="5.95468">
        <ele>296.98</ele>
        <time>2026-08-11T11:54:55.403Z</time>
      </trkpt>
      <trkpt lat="49.62238" lon="5.95531">
        <ele>294.52</ele>
        <time>2026-08-11T11:55:01.337Z</time>
      </trkpt>
      <trkpt lat="49.6226" lon="5.95583">
        <ele>294.71</ele>
        <time>2026-08-11T11:55:07.360Z</time>
      </trkpt>
      <trkpt lat="49.62275" lon="5.95623">
        <ele>295.54</ele>
        <time>2026-08-11T11:55:13.362Z</time>
      </trkpt>
      <trkpt lat="49.62285" lon="5.95666">
        <ele>295.68</ele>
        <time>2026-08-11T11:55:19.363Z</time>
      </trkpt>
      <trkpt lat="49.62294" lon="5.9571">
        <ele>295.3</ele>
        <time>2026-08-11T11:55:25.340Z</time>
      </trkpt>
      <trkpt lat="49.62303" lon="5.95756">
        <ele>294.67</ele>
        <time>2026-08-11T11:55:31.338Z</time>
      </trkpt>
      <trkpt lat="49.62312" lon="5.95801">
        <ele>294.51</ele>
        <time>2026-08-11T11:55:36.338Z</time>
      </trkpt>
      <trkpt lat="49.62325" lon="5.95849">
        <ele>294.29</ele>
        <time>2026-08-11T11:55:42.337Z</time>
      </trkpt>
      <trkpt lat="49.6234" lon="5.95893">
        <ele>294.75</ele>
        <time>2026-08-11T11:55:48.336Z</time>
      </trkpt>
      <trkpt lat="49.62346" lon="5.95936">
        <ele>295.82</ele>
        <time>2026-08-11T11:55:54.336Z</time>
      </trkpt>
      <trkpt lat="49.62348" lon="5.95972">
        <ele>295.2</ele>
        <time>2026-08-11T11:55:59.342Z</time>
      </trkpt>
      <trkpt lat="49.62351" lon="5.96017">
        <ele>296.01</ele>
        <time>2026-08-11T11:56:05.339Z</time>
      </trkpt>
      <trkpt lat="49.62356" lon="5.96066">
        <ele>296.14</ele>
        <time>2026-08-11T11:56:11.339Z</time>
      </trkpt>
      <trkpt lat="49.62361" lon="5.96116">
        <ele>295.8</ele>
        <time>2026-08-11T11:56:17.341Z</time>
      </trkpt>
      <trkpt lat="49.62355" lon="5.96168">
        <ele>294.77</ele>
        <time>2026-08-11T11:56:23.344Z</time>
      </trkpt>
      <trkpt lat="49.62349" lon="5.96226">
        <ele>292.77</ele>
        <time>2026-08-11T11:56:29.339Z</time>
      </trkpt>
      <trkpt lat="49.62339" lon="5.96273">
        <ele>291.97</ele>
        <time>2026-08-11T11:56:34.339Z</time>
      </trkpt>
      <trkpt lat="49.6232" lon="5.96329">
        <ele>289.91</ele>
        <time>2026-08-11T11:56:40.334Z</time>
      </trkpt>
      <trkpt lat="49.62297" lon="5.96392">
        <ele>289.22</ele>
        <time>2026-08-11T11:56:46.339Z</time>
      </trkpt>
      <trkpt lat="49.62291" lon="5.96465">
        <ele>287.8</ele>
        <time>2026-08-11T11:56:52.340Z</time>
      </trkpt>
      <trkpt lat="49.62295" lon="5.96531">
        <ele>287.71</ele>
        <time>2026-08-11T11:56:58.339Z</time>
      </trkpt>
      <trkpt lat="49.62295" lon="5.96595">
        <ele>286.36</ele>
        <time>2026-08-11T11:57:04.339Z</time>
      </trkpt>
      <trkpt lat="49.6229" lon="5.96658">
        <ele>285.46</ele>
        <time>2026-08-11T11:57:10.340Z</time>
      </trkpt>
      <trkpt lat="49.62285" lon="5.96718">
        <ele>283.81</ele>
        <time>2026-08-11T11:57:16.339Z</time>
      </trkpt>
      <trkpt lat="49.62281" lon="5.96778">
        <ele>283.08</ele>
        <time>2026-08-11T11:57:22.340Z</time>
      </trkpt>
      <trkpt lat="49.62277" lon="5.96837">
        <ele>282.73</ele>
        <time>2026-08-11T11:57:28.341Z</time>
      </trkpt>
      <trkpt lat="49.62274" lon="5.96898">
        <ele>281.74</ele>
        <time>2026-08-11T11:57:34.338Z</time>
      </trkpt>
      <trkpt lat="49.62271" lon="5.96965">
        <ele>280.5</ele>
        <time>2026-08-11T11:57:40.335Z</time>
      </trkpt>
      <trkpt lat="49.62271" lon="5.97029">
        <ele>278.62</ele>
        <time>2026-08-11T11:57:45.340Z</time>
      </trkpt>
      <trkpt lat="49.62279" lon="5.97111">
        <ele>277.38</ele>
        <time>2026-08-11T11:57:51.337Z</time>
      </trkpt>
      <trkpt lat="49.62289" lon="5.97174">
        <ele>277.11</ele>
        <time>2026-08-11T11:57:56.338Z</time>
      </trkpt>
      <trkpt lat="49.62303" lon="5.97244">
        <ele>276.53</ele>
        <time>2026-08-11T11:58:02.341Z</time>
      </trkpt>
      <trkpt lat="49.62311" lon="5.97304">
        <ele>276.11</ele>
        <time>2026-08-11T11:58:07.389Z</time>
      </trkpt>
      <trkpt lat="49.6232" lon="5.97374">
        <ele>275.61</ele>
        <time>2026-08-11T11:58:13.386Z</time>
      </trkpt>
      <trkpt lat="49.62315" lon="5.97441">
        <ele>275.15</ele>
        <time>2026-08-11T11:58:19.388Z</time>
      </trkpt>
      <trkpt lat="49.62309" lon="5.97505">
        <ele>275.42</ele>
        <time>2026-08-11T11:58:25.342Z</time>
      </trkpt>
      <trkpt lat="49.62314" lon="5.97568">
        <ele>274.05</ele>
        <time>2026-08-11T11:58:31.335Z</time>
      </trkpt>
      <trkpt lat="49.62319" lon="5.97617">
        <ele>273.6</ele>
        <time>2026-08-11T11:58:36.335Z</time>
      </trkpt>
      <trkpt lat="49.62321" lon="5.97667">
        <ele>272.96</ele>
        <time>2026-08-11T11:58:41.341Z</time>
      </trkpt>
      <trkpt lat="49.62316" lon="5.97727">
        <ele>273.38</ele>
        <time>2026-08-11T11:58:47.342Z</time>
      </trkpt>
      <trkpt lat="49.62311" lon="5.97789">
        <ele>272.22</ele>
        <time>2026-08-11T11:58:53.340Z</time>
      </trkpt>
      <trkpt lat="49.62311" lon="5.97849">
        <ele>271.58</ele>
        <time>2026-08-11T11:58:59.340Z</time>
      </trkpt>
      <trkpt lat="49.62324" lon="5.97907">
        <ele>271.34</ele>
        <time>2026-08-11T11:59:05.339Z</time>
      </trkpt>
      <trkpt lat="49.62335" lon="5.9796">
        <ele>270.55</ele>
        <time>2026-08-11T11:59:11.340Z</time>
      </trkpt>
      <trkpt lat="49.62337" lon="5.98002">
        <ele>269.73</ele>
        <time>2026-08-11T11:59:16.340Z</time>
      </trkpt>
      <trkpt lat="49.62318" lon="5.98029">
        <ele>269.99</ele>
        <time>2026-08-11T11:59:22.339Z</time>
      </trkpt>
      <trkpt lat="49.62326" lon="5.98064">
        <ele>271.55</ele>
        <time>2026-08-11T11:59:28.341Z</time>
      </trkpt>
      <trkpt lat="49.62333" lon="5.98103">
        <ele>272.5</ele>
        <time>2026-08-11T11:59:34.340Z</time>
      </trkpt>
      <trkpt lat="49.62339" lon="5.9814">
        <ele>272.96</ele>
        <time>2026-08-11T11:59:40.343Z</time>
      </trkpt>
      <trkpt lat="49.62344" lon="5.98176">
        <ele>272.48</ele>
        <time>2026-08-11T11:59:46.337Z</time>
      </trkpt>
      <trkpt lat="49.62346" lon="5.98204">
        <ele>272.71</ele>
        <time>2026-08-11T11:59:51.338Z</time>
      </trkpt>
      <trkpt lat="49.62348" lon="5.98232">
        <ele>273.46</ele>
        <time>2026-08-11T11:59:56.343Z</time>
      </trkpt>
      <trkpt lat="49.62348" lon="5.98263">
        <ele>273.51</ele>
        <time>2026-08-11T12:00:01.375Z</time>
      </trkpt>
      <trkpt lat="49.62347" lon="5.98299">
        <ele>273.45</ele>
        <time>2026-08-11T12:00:07.343Z</time>
      </trkpt>
      <trkpt lat="49.62352" lon="5.98335">
        <ele>274.61</ele>
        <time>2026-08-11T12:00:13.338Z</time>
      </trkpt>
      <trkpt lat="49.62354" lon="5.98365">
        <ele>275.3</ele>
        <time>2026-08-11T12:00:18.343Z</time>
      </trkpt>
      <trkpt lat="49.62357" lon="5.98402">
        <ele>274.86</ele>
        <time>2026-08-11T12:00:24.340Z</time>
      </trkpt>
      <trkpt lat="49.62361" lon="5.98435">
        <ele>275.13</ele>
        <time>2026-08-11T12:00:29.341Z</time>
      </trkpt>
      <trkpt lat="49.62365" lon="5.9848">
        <ele>274.98</ele>
        <time>2026-08-11T12:00:35.340Z</time>
      </trkpt>
      <trkpt lat="49.6237" lon="5.98524">
        <ele>276.2</ele>
        <time>2026-08-11T12:00:41.340Z</time>
      </trkpt>
      <trkpt lat="49.62373" lon="5.98568">
        <ele>276.33</ele>
        <time>2026-08-11T12:00:47.339Z</time>
      </trkpt>
      <trkpt lat="49.62376" lon="5.98613">
        <ele>276.52</ele>
        <time>2026-08-11T12:00:53.340Z</time>
      </trkpt>
      <trkpt lat="49.6238" lon="5.98657">
        <ele>277.38</ele>
        <time>2026-08-11T12:00:59.338Z</time>
      </trkpt>
      <trkpt lat="49.62386" lon="5.98701">
        <ele>277.87</ele>
        <time>2026-08-11T12:01:05.339Z</time>
      </trkpt>
      <trkpt lat="49.62391" lon="5.98744">
        <ele>277.01</ele>
        <time>2026-08-11T12:01:11.329Z</time>
      </trkpt>
      <trkpt lat="49.62394" lon="5.98777">
        <ele>276.97</ele>
        <time>2026-08-11T12:01:16.342Z</time>
      </trkpt>
      <trkpt lat="49.62397" lon="5.98812">
        <ele>277.51</ele>
        <time>2026-08-11T12:01:21.342Z</time>
      </trkpt>
      <trkpt lat="49.62401" lon="5.98854">
        <ele>277.16</ele>
        <time>2026-08-11T12:01:27.338Z</time>
      </trkpt>
      <trkpt lat="49.62404" lon="5.98897">
        <ele>276.42</ele>
        <time>2026-08-11T12:01:33.339Z</time>
      </trkpt>
      <trkpt lat="49.62405" lon="5.98933">
        <ele>277.08</ele>
        <time>2026-08-11T12:01:38.341Z</time>
      </trkpt>
      <trkpt lat="49.62405" lon="5.98968">
        <ele>277.66</ele>
        <time>2026-08-11T12:01:43.364Z</time>
      </trkpt>
      <trkpt lat="49.62405" lon="5.99011">
        <ele>278.37</ele>
        <time>2026-08-11T12:01:49.363Z</time>
      </trkpt>
      <trkpt lat="49.62406" lon="5.99054">
        <ele>278.94</ele>
        <time>2026-08-11T12:01:55.335Z</time>
      </trkpt>
      <trkpt lat="49.62406" lon="5.99091">
        <ele>279.07</ele>
        <time>2026-08-11T12:02:00.338Z</time>
      </trkpt>
      <trkpt lat="49.62404" lon="5.9914">
        <ele>277.62</ele>
        <time>2026-08-11T12:02:06.339Z</time>
      </trkpt>
      <trkpt lat="49.62395" lon="5.99185">
        <ele>276.23</ele>
        <time>2026-08-11T12:02:11.339Z</time>
      </trkpt>
      <trkpt lat="49.62388" lon="5.99238">
        <ele>275.57</ele>
        <time>2026-08-11T12:02:17.341Z</time>
      </trkpt>
      <trkpt lat="49.6238" lon="5.99288">
        <ele>275.4</ele>
        <time>2026-08-11T12:02:23.340Z</time>
      </trkpt>
      <trkpt lat="49.62375" lon="5.99339">
        <ele>273.65</ele>
        <time>2026-08-11T12:02:29.341Z</time>
      </trkpt>
      <trkpt lat="49.62372" lon="5.99389">
        <ele>273.43</ele>
        <time>2026-08-11T12:02:35.340Z</time>
      </trkpt>
      <trkpt lat="49.62362" lon="5.99423">
        <ele>275.45</ele>
        <time>2026-08-11T12:02:40.340Z</time>
      </trkpt>
      <trkpt lat="49.62349" lon="5.99457">
        <ele>279.88</ele>
        <time>2026-08-11T12:02:46.340Z</time>
      </trkpt>
      <trkpt lat="49.62341" lon="5.99488">
        <ele>283.05</ele>
        <time>2026-08-11T12:02:52.339Z</time>
      </trkpt>
      <trkpt lat="49.62336" lon="5.99527">
        <ele>284.15</ele>
        <time>2026-08-11T12:02:58.340Z</time>
      </trkpt>
      <trkpt lat="49.62332" lon="5.99568">
        <ele>283.57</ele>
        <time>2026-08-11T12:03:04.339Z</time>
      </trkpt>
      <trkpt lat="49.62326" lon="5.99608">
        <ele>283.77</ele>
        <time>2026-08-11T12:03:10.339Z</time>
      </trkpt>
      <trkpt lat="49.62321" lon="5.99649">
        <ele>284.37</ele>
        <time>2026-08-11T12:03:16.343Z</time>
      </trkpt>
      <trkpt lat="49.62319" lon="5.99692">
        <ele>283.25</ele>
        <time>2026-08-11T12:03:22.339Z</time>
      </trkpt>
      <trkpt lat="49.62317" lon="5.99744">
        <ele>282.03</ele>
        <time>2026-08-11T12:03:28.335Z</time>
      </trkpt>
      <trkpt lat="49.6232" lon="5.99799">
        <ele>280.82</ele>
        <time>2026-08-11T12:03:34.335Z</time>
      </trkpt>
      <trkpt lat="49.62321" lon="5.99846">
        <ele>278.73</ele>
        <time>2026-08-11T12:03:39.340Z</time>
      </trkpt>
      <trkpt lat="49.62321" lon="5.99898">
        <ele>276.95</ele>
        <time>2026-08-11T12:03:44.341Z</time>
      </trkpt>
      <trkpt lat="49.62319" lon="5.99948">
        <ele>275.78</ele>
        <time>2026-08-11T12:03:49.375Z</time>
      </trkpt>
      <trkpt lat="49.62324" lon="6.00011">
        <ele>274.24</ele>
        <time>2026-08-11T12:03:55.376Z</time>
      </trkpt>
      <trkpt lat="49.62325" lon="6.00079">
        <ele>272.61</ele>
        <time>2026-08-11T12:04:01.345Z</time>
      </trkpt>
      <trkpt lat="49.62334" lon="6.00139">
        <ele>271.88</ele>
        <time>2026-08-11T12:04:07.374Z</time>
      </trkpt>
      <trkpt lat="49.62351" lon="6.00196">
        <ele>272.39</ele>
        <time>2026-08-11T12:04:13.376Z</time>
      </trkpt>
      <trkpt lat="49.62365" lon="6.00254">
        <ele>271.29</ele>
        <time>2026-08-11T12:04:19.376Z</time>
      </trkpt>
      <trkpt lat="49.62372" lon="6.00312">
        <ele>269.22</ele>
        <time>2026-08-11T12:04:25.338Z</time>
      </trkpt>
      <trkpt lat="49.62373" lon="6.00356">
        <ele>267.59</ele>
        <time>2026-08-11T12:04:30.338Z</time>
      </trkpt>
      <trkpt lat="49.6237" lon="6.00403">
        <ele>266.93</ele>
        <time>2026-08-11T12:04:35.342Z</time>
      </trkpt>
      <trkpt lat="49.62369" lon="6.00457">
        <ele>267.22</ele>
        <time>2026-08-11T12:04:41.339Z</time>
      </trkpt>
      <trkpt lat="49.62377" lon="6.00499">
        <ele>267.81</ele>
        <time>2026-08-11T12:04:46.341Z</time>
      </trkpt>
      <trkpt lat="49.62396" lon="6.00537">
        <ele>268.53</ele>
        <time>2026-08-11T12:04:52.339Z</time>
      </trkpt>
      <trkpt lat="49.62416" lon="6.00567">
        <ele>268.58</ele>
        <time>2026-08-11T12:04:57.339Z</time>
      </trkpt>
      <trkpt lat="49.62433" lon="6.00596">
        <ele>268.83</ele>
        <time>2026-08-11T12:05:02.341Z</time>
      </trkpt>
      <trkpt lat="49.62446" lon="6.00622">
        <ele>268.59</ele>
        <time>2026-08-11T12:05:07.375Z</time>
      </trkpt>
      <trkpt lat="49.62459" lon="6.00652">
        <ele>268.3</ele>
        <time>2026-08-11T12:05:13.383Z</time>
      </trkpt>
      <trkpt lat="49.62466" lon="6.00699">
        <ele>269.66</ele>
        <time>2026-08-11T12:05:19.381Z</time>
      </trkpt>
      <trkpt lat="49.62474" lon="6.00752">
        <ele>270.33</ele>
        <time>2026-08-11T12:05:25.404Z</time>
      </trkpt>
      <trkpt lat="49.62483" lon="6.00805">
        <ele>270.26</ele>
        <time>2026-08-11T12:05:31.407Z</time>
      </trkpt>
      <trkpt lat="49.62491" lon="6.00857">
        <ele>270.48</ele>
        <time>2026-08-11T12:05:37.377Z</time>
      </trkpt>
      <trkpt lat="49.62499" lon="6.00907">
        <ele>269.68</ele>
        <time>2026-08-11T12:05:43.374Z</time>
      </trkpt>
      <trkpt lat="49.62506" lon="6.00958">
        <ele>269.82</ele>
        <time>2026-08-11T12:05:49.376Z</time>
      </trkpt>
      <trkpt lat="49.62515" lon="6.01007">
        <ele>268.81</ele>
        <time>2026-08-11T12:05:55.341Z</time>
      </trkpt>
      <trkpt lat="49.62523" lon="6.01059">
        <ele>268.35</ele>
        <time>2026-08-11T12:06:01.406Z</time>
      </trkpt>
      <trkpt lat="49.6253" lon="6.01112">
        <ele>268.8</ele>
        <time>2026-08-11T12:06:07.376Z</time>
      </trkpt>
      <trkpt lat="49.62535" lon="6.01165">
        <ele>268.54</ele>
        <time>2026-08-11T12:06:13.381Z</time>
      </trkpt>
      <trkpt lat="49.62539" lon="6.01217">
        <ele>269.15</ele>
        <time>2026-08-11T12:06:19.369Z</time>
      </trkpt>
      <trkpt lat="49.62544" lon="6.0127">
        <ele>270.26</ele>
        <time>2026-08-11T12:06:25.405Z</time>
      </trkpt>
      <trkpt lat="49.6255" lon="6.01323">
        <ele>268.4</ele>
        <time>2026-08-11T12:06:31.377Z</time>
      </trkpt>
      <trkpt lat="49.62556" lon="6.01381">
        <ele>265.99</ele>
        <time>2026-08-11T12:06:37.378Z</time>
      </trkpt>
      <trkpt lat="49.62559" lon="6.01444">
        <ele>264.36</ele>
        <time>2026-08-11T12:06:43.376Z</time>
      </trkpt>
      <trkpt lat="49.62557" lon="6.01509">
        <ele>264.87</ele>
        <time>2026-08-11T12:06:49.374Z</time>
      </trkpt>
      <trkpt lat="49.62555" lon="6.01568">
        <ele>263.4</ele>
        <time>2026-08-11T12:06:55.340Z</time>
      </trkpt>
      <trkpt lat="49.62553" lon="6.01618">
        <ele>261.32</ele>
        <time>2026-08-11T12:07:00.340Z</time>
      </trkpt>
      <trkpt lat="49.62549" lon="6.01655">
        <ele>259.45</ele>
        <time>2026-08-11T12:07:05.345Z</time>
      </trkpt>
      <trkpt lat="49.6256" lon="6.01673">
        <ele>259.18</ele>
        <time>2026-08-11T12:07:11.343Z</time>
      </trkpt>
      <trkpt lat="49.62586" lon="6.01694">
        <ele>258.74</ele>
        <time>2026-08-11T12:07:17.345Z</time>
      </trkpt>
      <trkpt lat="49.62615" lon="6.0172">
        <ele>257.46</ele>
        <time>2026-08-11T12:07:23.344Z</time>
      </trkpt>
      <trkpt lat="49.62649" lon="6.01747">
        <ele>256.02</ele>
        <time>2026-08-11T12:07:29.339Z</time>
      </trkpt>
      <trkpt lat="49.62678" lon="6.0177">
        <ele>255.35</ele>
        <time>2026-08-11T12:07:34.341Z</time>
      </trkpt>
      <trkpt lat="49.62706" lon="6.01803">
        <ele>255.75</ele>
        <time>2026-08-11T12:07:40.340Z</time>
      </trkpt>
      <trkpt lat="49.62723" lon="6.01835">
        <ele>256.28</ele>
        <time>2026-08-11T12:07:45.341Z</time>
      </trkpt>
      <trkpt lat="49.62725" lon="6.0187">
        <ele>254.25</ele>
        <time>2026-08-11T12:07:51.338Z</time>
      </trkpt>
      <trkpt lat="49.62695" lon="6.01899">
        <ele>252.85</ele>
        <time>2026-08-11T12:07:56.339Z</time>
      </trkpt>
      <trkpt lat="49.62664" lon="6.01934">
        <ele>251.28</ele>
        <time>2026-08-11T12:08:01.402Z</time>
      </trkpt>
      <trkpt lat="49.62626" lon="6.01977">
        <ele>250.91</ele>
        <time>2026-08-11T12:08:07.376Z</time>
      </trkpt>
      <trkpt lat="49.62601" lon="6.02021">
        <ele>249.92</ele>
        <time>2026-08-11T12:08:13.379Z</time>
      </trkpt>
      <trkpt lat="49.62586" lon="6.02042">
        <ele>249.88</ele>
        <time>2026-08-11T12:08:19.382Z</time>
      </trkpt>
      <trkpt lat="49.62574" lon="6.02059">
        <ele>251.31</ele>
        <time>2026-08-11T12:08:24.401Z</time>
      </trkpt>
      <trkpt lat="49.62562" lon="6.0208">
        <ele>253.55</ele>
        <time>2026-08-11T12:08:30.330Z</time>
      </trkpt>
      <trkpt lat="49.62547" lon="6.02097">
        <ele>251.37</ele>
        <time>2026-08-11T12:08:35.331Z</time>
      </trkpt>
      <trkpt lat="49.6253" lon="6.02115">
        <ele>250</ele>
        <time>2026-08-11T12:08:40.331Z</time>
      </trkpt>
      <trkpt lat="49.62534" lon="6.02148">
        <ele>247.53</ele>
        <time>2026-08-11T12:08:46.330Z</time>
      </trkpt>
      <trkpt lat="49.62551" lon="6.02185">
        <ele>243.98</ele>
        <time>2026-08-11T12:08:52.328Z</time>
      </trkpt>
      <trkpt lat="49.62563" lon="6.02225">
        <ele>242.37</ele>
        <time>2026-08-11T12:08:58.321Z</time>
      </trkpt>
      <trkpt lat="49.62531" lon="6.02241">
        <ele>242.34</ele>
        <time>2026-08-11T12:09:03.324Z</time>
      </trkpt>
      <trkpt lat="49.62497" lon="6.02259">
        <ele>242.33</ele>
        <time>2026-08-11T12:09:08.324Z</time>
      </trkpt>
      <trkpt lat="49.62464" lon="6.02277">
        <ele>243.41</ele>
        <time>2026-08-11T12:09:13.357Z</time>
      </trkpt>
      <trkpt lat="49.62425" lon="6.02295">
        <ele>243.65</ele>
        <time>2026-08-11T12:09:19.360Z</time>
      </trkpt>
      <trkpt lat="49.62391" lon="6.02309">
        <ele>244.68</ele>
        <time>2026-08-11T12:09:25.334Z</time>
      </trkpt>
      <trkpt lat="49.6236" lon="6.02321">
        <ele>244.74</ele>
        <time>2026-08-11T12:09:31.363Z</time>
      </trkpt>
      <trkpt lat="49.62335" lon="6.02344">
        <ele>242.66</ele>
        <time>2026-08-11T12:09:37.368Z</time>
      </trkpt>
      <trkpt lat="49.62312" lon="6.02358">
        <ele>241.21</ele>
        <time>2026-08-11T12:09:43.379Z</time>
      </trkpt>
      <trkpt lat="49.62309" lon="6.02385">
        <ele>239.94</ele>
        <time>2026-08-11T12:09:49.371Z</time>
      </trkpt>
      <trkpt lat="49.62308" lon="6.02424">
        <ele>239.76</ele>
        <time>2026-08-11T12:09:55.400Z</time>
      </trkpt>
      <trkpt lat="49.62305" lon="6.0247">
        <ele>241.35</ele>
        <time>2026-08-11T12:10:01.387Z</time>
      </trkpt>
      <trkpt lat="49.62296" lon="6.02512">
        <ele>240.31</ele>
        <time>2026-08-11T12:10:07.380Z</time>
      </trkpt>
      <trkpt lat="49.62285" lon="6.02554">
        <ele>240.74</ele>
        <time>2026-08-11T12:10:13.368Z</time>
      </trkpt>
      <trkpt lat="49.62275" lon="6.02593">
        <ele>241.4</ele>
        <time>2026-08-11T12:10:19.367Z</time>
      </trkpt>
      <trkpt lat="49.62266" lon="6.02624">
        <ele>241.85</ele>
        <time>2026-08-11T12:10:25.389Z</time>
      </trkpt>
      <trkpt lat="49.62256" lon="6.02659">
        <ele>243.98</ele>
        <time>2026-08-11T12:10:31.396Z</time>
      </trkpt>
      <trkpt lat="49.62249" lon="6.02686">
        <ele>246.29</ele>
        <time>2026-08-11T12:10:37.384Z</time>
      </trkpt>
      <trkpt lat="49.62239" lon="6.02713">
        <ele>246.4</ele>
        <time>2026-08-11T12:10:43.379Z</time>
      </trkpt>
      <trkpt lat="49.62229" lon="6.02747">
        <ele>251.28</ele>
        <time>2026-08-11T12:10:49.381Z</time>
      </trkpt>
      <trkpt lat="49.62222" lon="6.02777">
        <ele>252.87</ele>
        <time>2026-08-11T12:10:55.403Z</time>
      </trkpt>
      <trkpt lat="49.62212" lon="6.02806">
        <ele>253.18</ele>
        <time>2026-08-11T12:11:01.402Z</time>
      </trkpt>
      <trkpt lat="49.62203" lon="6.02835">
        <ele>252.55</ele>
        <time>2026-08-11T12:11:07.382Z</time>
      </trkpt>
      <trkpt lat="49.62195" lon="6.02867">
        <ele>252.27</ele>
        <time>2026-08-11T12:11:13.380Z</time>
      </trkpt>
      <trkpt lat="49.62189" lon="6.029">
        <ele>252.71</ele>
        <time>2026-08-11T12:11:19.381Z</time>
      </trkpt>
      <trkpt lat="49.62184" lon="6.02932">
        <ele>252.92</ele>
        <time>2026-08-11T12:11:25.405Z</time>
      </trkpt>
      <trkpt lat="49.62181" lon="6.02963">
        <ele>253.9</ele>
        <time>2026-08-11T12:11:31.374Z</time>
      </trkpt>
      <trkpt lat="49.62178" lon="6.02995">
        <ele>255.27</ele>
        <time>2026-08-11T12:11:37.381Z</time>
      </trkpt>
      <trkpt lat="49.62175" lon="6.03024">
        <ele>255.33</ele>
        <time>2026-08-11T12:11:43.377Z</time>
      </trkpt>
      <trkpt lat="49.6217" lon="6.03055">
        <ele>255.14</ele>
        <time>2026-08-11T12:11:49.405Z</time>
      </trkpt>
      <trkpt lat="49.62164" lon="6.03088">
        <ele>257.11</ele>
        <time>2026-08-11T12:11:55.411Z</time>
      </trkpt>
      <trkpt lat="49.62153" lon="6.03123">
        <ele>256.09</ele>
        <time>2026-08-11T12:12:01.402Z</time>
      </trkpt>
      <trkpt lat="49.62144" lon="6.03161">
        <ele>252.88</ele>
        <time>2026-08-11T12:12:07.373Z</time>
      </trkpt>
      <trkpt lat="49.62129" lon="6.03202">
        <ele>252.2</ele>
        <time>2026-08-11T12:12:13.380Z</time>
      </trkpt>
      <trkpt lat="49.62111" lon="6.03246">
        <ele>253.67</ele>
        <time>2026-08-11T12:12:19.381Z</time>
      </trkpt>
      <trkpt lat="49.62094" lon="6.0329">
        <ele>251.59</ele>
        <time>2026-08-11T12:12:25.408Z</time>
      </trkpt>
      <trkpt lat="49.62076" lon="6.0334">
        <ele>251.25</ele>
        <time>2026-08-11T12:12:31.402Z</time>
      </trkpt>
      <trkpt lat="49.62057" lon="6.03405">
        <ele>248.8</ele>
        <time>2026-08-11T12:12:37.383Z</time>
      </trkpt>
      <trkpt lat="49.62039" lon="6.03471">
        <ele>245.71</ele>
        <time>2026-08-11T12:12:43.379Z</time>
      </trkpt>
      <trkpt lat="49.62036" lon="6.03525">
        <ele>243.84</ele>
        <time>2026-08-11T12:12:48.393Z</time>
      </trkpt>
      <trkpt lat="49.62042" lon="6.03571">
        <ele>243.85</ele>
        <time>2026-08-11T12:12:54.339Z</time>
      </trkpt>
      <trkpt lat="49.62048" lon="6.03597">
        <ele>246.13</ele>
        <time>2026-08-11T12:12:59.340Z</time>
      </trkpt>
      <trkpt lat="49.62051" lon="6.03621">
        <ele>248.49</ele>
        <time>2026-08-11T12:13:04.341Z</time>
      </trkpt>
      <trkpt lat="49.62046" lon="6.03633">
        <ele>252</ele>
        <time>2026-08-11T12:13:27.333Z</time>
      </trkpt>
      <trkpt lat="49.62037" lon="6.03647">
        <ele>252.55</ele>
        <time>2026-08-11T12:13:33.328Z</time>
      </trkpt>
      <trkpt lat="49.62046" lon="6.03635">
        <ele>253.48</ele>
        <time>2026-08-11T12:13:38.344Z</time>
      </trkpt>
      <trkpt lat="49.62055" lon="6.0365">
        <ele>254.6</ele>
        <time>2026-08-11T12:13:43.380Z</time>
      </trkpt>
      <trkpt lat="49.62049" lon="6.03675">
        <ele>255.18</ele>
        <time>2026-08-11T12:13:49.371Z</time>
      </trkpt>
      <trkpt lat="49.62037" lon="6.037">
        <ele>255.12</ele>
        <time>2026-08-11T12:13:55.407Z</time>
      </trkpt>
      <trkpt lat="49.62023" lon="6.03716">
        <ele>255.25</ele>
        <time>2026-08-11T12:14:01.404Z</time>
      </trkpt>
      <trkpt lat="49.62046" lon="6.03724">
        <ele>255.18</ele>
        <time>2026-08-11T12:14:07.377Z</time>
      </trkpt>
      <trkpt lat="49.62063" lon="6.03749">
        <ele>255.27</ele>
        <time>2026-08-11T12:14:13.381Z</time>
      </trkpt>
      <trkpt lat="49.62062" lon="6.03801">
        <ele>253.73</ele>
        <time>2026-08-11T12:14:19.380Z</time>
      </trkpt>
      <trkpt lat="49.62061" lon="6.0385">
        <ele>254.38</ele>
        <time>2026-08-11T12:14:25.365Z</time>
      </trkpt>
      <trkpt lat="49.62057" lon="6.03882">
        <ele>254.72</ele>
        <time>2026-08-11T12:14:31.362Z</time>
      </trkpt>
      <trkpt lat="49.62053" lon="6.03908">
        <ele>255.1</ele>
        <time>2026-08-11T12:14:37.380Z</time>
      </trkpt>
      <trkpt lat="49.6205" lon="6.03926">
        <ele>255.87</ele>
        <time>2026-08-11T12:14:43.381Z</time>
      </trkpt>
      <trkpt lat="49.62046" lon="6.03946">
        <ele>257.08</ele>
        <time>2026-08-11T12:14:49.374Z</time>
      </trkpt>
      <trkpt lat="49.62043" lon="6.03969">
        <ele>258.31</ele>
        <time>2026-08-11T12:14:55.398Z</time>
      </trkpt>
      <trkpt lat="49.62039" lon="6.03991">
        <ele>259.59</ele>
        <time>2026-08-11T12:15:01.375Z</time>
      </trkpt>
      <trkpt lat="49.62037" lon="6.0401">
        <ele>260.46</ele>
        <time>2026-08-11T12:15:07.380Z</time>
      </trkpt>
      <trkpt lat="49.62034" lon="6.04024">
        <ele>262.11</ele>
        <time>2026-08-11T12:15:14.342Z</time>
      </trkpt>
      <trkpt lat="49.62032" lon="6.04038">
        <ele>262.72</ele>
        <time>2026-08-11T12:15:20.336Z</time>
      </trkpt>
      <trkpt lat="49.62029" lon="6.04053">
        <ele>263.61</ele>
        <time>2026-08-11T12:15:26.340Z</time>
      </trkpt>
      <trkpt lat="49.62026" lon="6.04068">
        <ele>264.51</ele>
        <time>2026-08-11T12:15:32.342Z</time>
      </trkpt>
      <trkpt lat="49.62022" lon="6.04082">
        <ele>265.28</ele>
        <time>2026-08-11T12:15:37.383Z</time>
      </trkpt>
      <trkpt lat="49.62017" lon="6.04098">
        <ele>265.82</ele>
        <time>2026-08-11T12:15:43.379Z</time>
      </trkpt>
      <trkpt lat="49.62013" lon="6.04116">
        <ele>265.92</ele>
        <time>2026-08-11T12:15:49.383Z</time>
      </trkpt>
      <trkpt lat="49.62009" lon="6.04132">
        <ele>267.11</ele>
        <time>2026-08-11T12:15:55.401Z</time>
      </trkpt>
      <trkpt lat="49.62003" lon="6.04151">
        <ele>267.84</ele>
        <time>2026-08-11T12:16:01.400Z</time>
      </trkpt>
      <trkpt lat="49.61997" lon="6.04169">
        <ele>268.51</ele>
        <time>2026-08-11T12:16:07.387Z</time>
      </trkpt>
      <trkpt lat="49.6199" lon="6.04188">
        <ele>269.04</ele>
        <time>2026-08-11T12:16:13.391Z</time>
      </trkpt>
      <trkpt lat="49.61981" lon="6.04207">
        <ele>269.51</ele>
        <time>2026-08-11T12:16:19.387Z</time>
      </trkpt>
      <trkpt lat="49.6197" lon="6.04229">
        <ele>269.86</ele>
        <time>2026-08-11T12:16:25.398Z</time>
      </trkpt>
      <trkpt lat="49.61956" lon="6.04258">
        <ele>269.47</ele>
        <time>2026-08-11T12:16:31.362Z</time>
      </trkpt>
      <trkpt lat="49.61941" lon="6.04287">
        <ele>268.18</ele>
        <time>2026-08-11T12:16:37.385Z</time>
      </trkpt>
      <trkpt lat="49.61925" lon="6.0432">
        <ele>268.12</ele>
        <time>2026-08-11T12:16:43.388Z</time>
      </trkpt>
      <trkpt lat="49.6191" lon="6.04351">
        <ele>268.07</ele>
        <time>2026-08-11T12:16:49.384Z</time>
      </trkpt>
      <trkpt lat="49.61894" lon="6.04385">
        <ele>267.15</ele>
        <time>2026-08-11T12:16:55.398Z</time>
      </trkpt>
      <trkpt lat="49.61878" lon="6.04421">
        <ele>265.34</ele>
        <time>2026-08-11T12:17:01.341Z</time>
      </trkpt>
      <trkpt lat="49.61861" lon="6.04457">
        <ele>263.77</ele>
        <time>2026-08-11T12:17:07.383Z</time>
      </trkpt>
      <trkpt lat="49.61842" lon="6.04495">
        <ele>261.31</ele>
        <time>2026-08-11T12:17:13.390Z</time>
      </trkpt>
      <trkpt lat="49.61823" lon="6.04532">
        <ele>259.85</ele>
        <time>2026-08-11T12:17:19.391Z</time>
      </trkpt>
      <trkpt lat="49.61807" lon="6.04567">
        <ele>260.6</ele>
        <time>2026-08-11T12:17:25.400Z</time>
      </trkpt>
      <trkpt lat="49.61791" lon="6.04605">
        <ele>260.2</ele>
        <time>2026-08-11T12:17:31.397Z</time>
      </trkpt>
      <trkpt lat="49.61772" lon="6.04646">
        <ele>261.05</ele>
        <time>2026-08-11T12:17:37.389Z</time>
      </trkpt>
      <trkpt lat="49.61756" lon="6.04679">
        <ele>262.65</ele>
        <time>2026-08-11T12:17:43.389Z</time>
      </trkpt>
      <trkpt lat="49.61745" lon="6.04717">
        <ele>264.72</ele>
        <time>2026-08-11T12:17:49.374Z</time>
      </trkpt>
      <trkpt lat="49.61741" lon="6.04759">
        <ele>265.66</ele>
        <time>2026-08-11T12:17:55.396Z</time>
      </trkpt>
      <trkpt lat="49.61739" lon="6.04793">
        <ele>265.48</ele>
        <time>2026-08-11T12:18:01.399Z</time>
      </trkpt>
      <trkpt lat="49.61738" lon="6.0481">
        <ele>266.21</ele>
        <time>2026-08-11T12:18:07.381Z</time>
      </trkpt>
      <trkpt lat="49.6174" lon="6.04826">
        <ele>266.42</ele>
        <time>2026-08-11T12:18:15.325Z</time>
      </trkpt>
      <trkpt lat="49.6174" lon="6.04856">
        <ele>266.38</ele>
        <time>2026-08-11T12:18:20.325Z</time>
      </trkpt>
      <trkpt lat="49.61742" lon="6.04895">
        <ele>266.93</ele>
        <time>2026-08-11T12:18:25.355Z</time>
      </trkpt>
      <trkpt lat="49.61743" lon="6.04943">
        <ele>266.19</ele>
        <time>2026-08-11T12:18:31.395Z</time>
      </trkpt>
      <trkpt lat="49.61742" lon="6.04986">
        <ele>266.72</ele>
        <time>2026-08-11T12:18:37.386Z</time>
      </trkpt>
      <trkpt lat="49.61742" lon="6.05035">
        <ele>266.37</ele>
        <time>2026-08-11T12:18:43.388Z</time>
      </trkpt>
      <trkpt lat="49.61743" lon="6.05088">
        <ele>264.28</ele>
        <time>2026-08-11T12:18:49.387Z</time>
      </trkpt>
      <trkpt lat="49.61742" lon="6.05149">
        <ele>261.4</ele>
        <time>2026-08-11T12:18:55.403Z</time>
      </trkpt>
      <trkpt lat="49.61743" lon="6.05212">
        <ele>259.59</ele>
        <time>2026-08-11T12:19:01.399Z</time>
      </trkpt>
      <trkpt lat="49.61748" lon="6.05271">
        <ele>258.49</ele>
        <time>2026-08-11T12:19:07.386Z</time>
      </trkpt>
      <trkpt lat="49.61756" lon="6.05322">
        <ele>257.46</ele>
        <time>2026-08-11T12:19:13.383Z</time>
      </trkpt>
      <trkpt lat="49.61764" lon="6.05363">
        <ele>256.18</ele>
        <time>2026-08-11T12:19:19.389Z</time>
      </trkpt>
      <trkpt lat="49.6177" lon="6.05408">
        <ele>256.42</ele>
        <time>2026-08-11T12:19:25.401Z</time>
      </trkpt>
      <trkpt lat="49.61776" lon="6.05454">
        <ele>256.85</ele>
        <time>2026-08-11T12:19:31.356Z</time>
      </trkpt>
      <trkpt lat="49.61783" lon="6.05498">
        <ele>256.66</ele>
        <time>2026-08-11T12:19:37.377Z</time>
      </trkpt>
      <trkpt lat="49.61787" lon="6.0554">
        <ele>255.64</ele>
        <time>2026-08-11T12:19:43.385Z</time>
      </trkpt>
      <trkpt lat="49.61791" lon="6.05587">
        <ele>255.67</ele>
        <time>2026-08-11T12:19:49.384Z</time>
      </trkpt>
      <trkpt lat="49.61796" lon="6.05634">
        <ele>256.9</ele>
        <time>2026-08-11T12:19:55.403Z</time>
      </trkpt>
      <trkpt lat="49.61801" lon="6.05678">
        <ele>257.65</ele>
        <time>2026-08-11T12:20:01.395Z</time>
      </trkpt>
      <trkpt lat="49.61806" lon="6.05722">
        <ele>257.47</ele>
        <time>2026-08-11T12:20:07.392Z</time>
      </trkpt>
      <trkpt lat="49.61812" lon="6.05768">
        <ele>257.76</ele>
        <time>2026-08-11T12:20:13.386Z</time>
      </trkpt>
      <trkpt lat="49.61816" lon="6.05809">
        <ele>257.35</ele>
        <time>2026-08-11T12:20:19.388Z</time>
      </trkpt>
      <trkpt lat="49.61819" lon="6.05843">
        <ele>258.81</ele>
        <time>2026-08-11T12:20:25.404Z</time>
      </trkpt>
      <trkpt lat="49.61823" lon="6.05886">
        <ele>259.25</ele>
        <time>2026-08-11T12:20:31.392Z</time>
      </trkpt>
      <trkpt lat="49.6183" lon="6.05934">
        <ele>260.35</ele>
        <time>2026-08-11T12:20:37.387Z</time>
      </trkpt>
      <trkpt lat="49.61836" lon="6.0598">
        <ele>259.48</ele>
        <time>2026-08-11T12:20:43.386Z</time>
      </trkpt>
      <trkpt lat="49.61838" lon="6.06022">
        <ele>259.11</ele>
        <time>2026-08-11T12:20:49.384Z</time>
      </trkpt>
      <trkpt lat="49.6184" lon="6.06065">
        <ele>258.29</ele>
        <time>2026-08-11T12:20:55.362Z</time>
      </trkpt>
      <trkpt lat="49.61843" lon="6.06109">
        <ele>258.3</ele>
        <time>2026-08-11T12:21:01.392Z</time>
      </trkpt>
      <trkpt lat="49.61845" lon="6.06158">
        <ele>258.25</ele>
        <time>2026-08-11T12:21:07.383Z</time>
      </trkpt>
      <trkpt lat="49.61848" lon="6.06201">
        <ele>258.84</ele>
        <time>2026-08-11T12:21:13.384Z</time>
      </trkpt>
      <trkpt lat="49.61848" lon="6.06243">
        <ele>257.35</ele>
        <time>2026-08-11T12:21:19.381Z</time>
      </trkpt>
      <trkpt lat="49.61845" lon="6.06263">
        <ele>256.77</ele>
        <time>2026-08-11T12:21:25.440Z</time>
      </trkpt>
      <trkpt lat="49.61844" lon="6.06277">
        <ele>256.63</ele>
        <time>2026-08-11T12:21:34.325Z</time>
      </trkpt>
      <trkpt lat="49.61852" lon="6.06309">
        <ele>255.81</ele>
        <time>2026-08-11T12:21:39.328Z</time>
      </trkpt>
      <trkpt lat="49.61854" lon="6.06346">
        <ele>257.29</ele>
        <time>2026-08-11T12:21:44.340Z</time>
      </trkpt>
      <trkpt lat="49.61856" lon="6.06382">
        <ele>256.98</ele>
        <time>2026-08-11T12:21:49.386Z</time>
      </trkpt>
      <trkpt lat="49.61859" lon="6.06427">
        <ele>256.41</ele>
        <time>2026-08-11T12:21:55.399Z</time>
      </trkpt>
      <trkpt lat="49.61862" lon="6.06471">
        <ele>255.57</ele>
        <time>2026-08-11T12:22:01.394Z</time>
      </trkpt>
      <trkpt lat="49.61867" lon="6.06509">
        <ele>255.97</ele>
        <time>2026-08-11T12:22:07.383Z</time>
      </trkpt>
      <trkpt lat="49.61867" lon="6.06553">
        <ele>256</ele>
        <time>2026-08-11T12:22:13.385Z</time>
      </trkpt>
      <trkpt lat="49.61871" lon="6.06599">
        <ele>256.8</ele>
        <time>2026-08-11T12:22:19.385Z</time>
      </trkpt>
      <trkpt lat="49.61874" lon="6.06647">
        <ele>256.56</ele>
        <time>2026-08-11T12:22:25.401Z</time>
      </trkpt>
      <trkpt lat="49.61876" lon="6.06695">
        <ele>256.6</ele>
        <time>2026-08-11T12:22:31.395Z</time>
      </trkpt>
      <trkpt lat="49.6188" lon="6.06742">
        <ele>258.23</ele>
        <time>2026-08-11T12:22:37.385Z</time>
      </trkpt>
      <trkpt lat="49.61885" lon="6.06789">
        <ele>257.11</ele>
        <time>2026-08-11T12:22:43.385Z</time>
      </trkpt>
      <trkpt lat="49.61885" lon="6.06836">
        <ele>256.14</ele>
        <time>2026-08-11T12:22:49.382Z</time>
      </trkpt>
      <trkpt lat="49.6189" lon="6.06884">
        <ele>255.38</ele>
        <time>2026-08-11T12:22:55.401Z</time>
      </trkpt>
      <trkpt lat="49.6189" lon="6.06931">
        <ele>252.98</ele>
        <time>2026-08-11T12:23:01.398Z</time>
      </trkpt>
      <trkpt lat="49.61894" lon="6.0697">
        <ele>253.2</ele>
        <time>2026-08-11T12:23:07.382Z</time>
      </trkpt>
      <trkpt lat="49.61899" lon="6.07004">
        <ele>253.85</ele>
        <time>2026-08-11T12:23:13.384Z</time>
      </trkpt>
      <trkpt lat="49.61906" lon="6.07038">
        <ele>255.64</ele>
        <time>2026-08-11T12:23:19.386Z</time>
      </trkpt>
      <trkpt lat="49.61908" lon="6.07074">
        <ele>258</ele>
        <time>2026-08-11T12:23:25.401Z</time>
      </trkpt>
      <trkpt lat="49.61906" lon="6.07112">
        <ele>259.31</ele>
        <time>2026-08-11T12:23:31.395Z</time>
      </trkpt>
      <trkpt lat="49.61906" lon="6.07148">
        <ele>258.59</ele>
        <time>2026-08-11T12:23:37.385Z</time>
      </trkpt>
      <trkpt lat="49.61906" lon="6.0719">
        <ele>256.47</ele>
        <time>2026-08-11T12:23:43.384Z</time>
      </trkpt>
      <trkpt lat="49.61905" lon="6.07228">
        <ele>257.55</ele>
        <time>2026-08-11T12:23:49.383Z</time>
      </trkpt>
      <trkpt lat="49.61905" lon="6.07265">
        <ele>257.89</ele>
        <time>2026-08-11T12:23:55.402Z</time>
      </trkpt>
      <trkpt lat="49.61904" lon="6.07304">
        <ele>257.36</ele>
        <time>2026-08-11T12:24:01.395Z</time>
      </trkpt>
      <trkpt lat="49.61905" lon="6.07343">
        <ele>256.5</ele>
        <time>2026-08-11T12:24:07.383Z</time>
      </trkpt>
      <trkpt lat="49.619" lon="6.07374">
        <ele>257.15</ele>
        <time>2026-08-11T12:24:13.383Z</time>
      </trkpt>
      <trkpt lat="49.61885" lon="6.07418">
        <ele>255.29</ele>
        <time>2026-08-11T12:24:19.382Z</time>
      </trkpt>
      <trkpt lat="49.61884" lon="6.07468">
        <ele>258.16</ele>
        <time>2026-08-11T12:24:25.405Z</time>
      </trkpt>
      <trkpt lat="49.61883" lon="6.07518">
        <ele>261.19</ele>
        <time>2026-08-11T12:24:31.403Z</time>
      </trkpt>
      <trkpt lat="49.6188" lon="6.07568">
        <ele>260.45</ele>
        <time>2026-08-11T12:24:37.386Z</time>
      </trkpt>
      <trkpt lat="49.61875" lon="6.07612">
        <ele>257.58</ele>
        <time>2026-08-11T12:24:43.379Z</time>
      </trkpt>
      <trkpt lat="49.6187" lon="6.07657">
        <ele>254.85</ele>
        <time>2026-08-11T12:24:49.389Z</time>
      </trkpt>
      <trkpt lat="49.61864" lon="6.07692">
        <ele>254.36</ele>
        <time>2026-08-11T12:24:55.401Z</time>
      </trkpt>
      <trkpt lat="49.61858" lon="6.07721">
        <ele>257.68</ele>
        <time>2026-08-11T12:25:01.399Z</time>
      </trkpt>
      <trkpt lat="49.61868" lon="6.07742">
        <ele>257.75</ele>
        <time>2026-08-11T12:25:07.386Z</time>
      </trkpt>
      <trkpt lat="49.61861" lon="6.07772">
        <ele>257.63</ele>
        <time>2026-08-11T12:25:13.389Z</time>
      </trkpt>
      <trkpt lat="49.61855" lon="6.07805">
        <ele>260.71</ele>
        <time>2026-08-11T12:25:19.387Z</time>
      </trkpt>
      <trkpt lat="49.61848" lon="6.07837">
        <ele>260.9</ele>
        <time>2026-08-11T12:25:25.400Z</time>
      </trkpt>
      <trkpt lat="49.61842" lon="6.07866">
        <ele>261.03</ele>
        <time>2026-08-11T12:25:31.400Z</time>
      </trkpt>
      <trkpt lat="49.61836" lon="6.07899">
        <ele>259.54</ele>
        <time>2026-08-11T12:25:37.386Z</time>
      </trkpt>
      <trkpt lat="49.61832" lon="6.07932">
        <ele>262.37</ele>
        <time>2026-08-11T12:25:43.385Z</time>
      </trkpt>
      <trkpt lat="49.61829" lon="6.07966">
        <ele>265.66</ele>
        <time>2026-08-11T12:25:49.390Z</time>
      </trkpt>
      <trkpt lat="49.61822" lon="6.08001">
        <ele>266.77</ele>
        <time>2026-08-11T12:25:55.399Z</time>
      </trkpt>
      <trkpt lat="49.61816" lon="6.08036">
        <ele>265.56</ele>
        <time>2026-08-11T12:26:01.400Z</time>
      </trkpt>
      <trkpt lat="49.61809" lon="6.08066">
        <ele>264.22</ele>
        <time>2026-08-11T12:26:07.386Z</time>
      </trkpt>
      <trkpt lat="49.61805" lon="6.08105">
        <ele>262.23</ele>
        <time>2026-08-11T12:26:13.387Z</time>
      </trkpt>
      <trkpt lat="49.61798" lon="6.0814">
        <ele>261.27</ele>
        <time>2026-08-11T12:26:19.389Z</time>
      </trkpt>
      <trkpt lat="49.61791" lon="6.08172">
        <ele>262.25</ele>
        <time>2026-08-11T12:26:25.397Z</time>
      </trkpt>
      <trkpt lat="49.61783" lon="6.08214">
        <ele>267.17</ele>
        <time>2026-08-11T12:26:31.398Z</time>
      </trkpt>
      <trkpt lat="49.61775" lon="6.08254">
        <ele>270.8</ele>
        <time>2026-08-11T12:26:37.389Z</time>
      </trkpt>
      <trkpt lat="49.61766" lon="6.08291">
        <ele>272.62</ele>
        <time>2026-08-11T12:26:43.387Z</time>
      </trkpt>
      <trkpt lat="49.61755" lon="6.0833">
        <ele>275.09</ele>
        <time>2026-08-11T12:26:49.386Z</time>
      </trkpt>
      <trkpt lat="49.61744" lon="6.0837">
        <ele>274.63</ele>
        <time>2026-08-11T12:26:55.408Z</time>
      </trkpt>
      <trkpt lat="49.61734" lon="6.08403">
        <ele>275.43</ele>
        <time>2026-08-11T12:27:01.392Z</time>
      </trkpt>
      <trkpt lat="49.61738" lon="6.08387">
        <ele>270.09</ele>
        <time>2026-08-11T12:27:15.321Z</time>
      </trkpt>
      <trkpt lat="49.61746" lon="6.0836">
        <ele>267.26</ele>
        <time>2026-08-11T12:27:20.335Z</time>
      </trkpt>
      <trkpt lat="49.61754" lon="6.08328">
        <ele>268.06</ele>
        <time>2026-08-11T12:27:25.403Z</time>
      </trkpt>
      <trkpt lat="49.61763" lon="6.08291">
        <ele>271.15</ele>
        <time>2026-08-11T12:27:31.396Z</time>
      </trkpt>
      <trkpt lat="49.61757" lon="6.08279">
        <ele>271.6</ele>
        <time>2026-08-11T12:27:37.387Z</time>
      </trkpt>
      <trkpt lat="49.61735" lon="6.08272">
        <ele>265.65</ele>
        <time>2026-08-11T12:27:43.387Z</time>
      </trkpt>
      <trkpt lat="49.61702" lon="6.08268">
        <ele>259.04</ele>
        <time>2026-08-11T12:27:49.383Z</time>
      </trkpt>
      <trkpt lat="49.61669" lon="6.08268">
        <ele>254.63</ele>
        <time>2026-08-11T12:27:55.400Z</time>
      </trkpt>
      <trkpt lat="49.61633" lon="6.08256">
        <ele>254.41</ele>
        <time>2026-08-11T12:28:01.398Z</time>
      </trkpt>
      <trkpt lat="49.61594" lon="6.08243">
        <ele>256.35</ele>
        <time>2026-08-11T12:28:07.386Z</time>
      </trkpt>
      <trkpt lat="49.61556" lon="6.08226">
        <ele>259.13</ele>
        <time>2026-08-11T12:28:13.386Z</time>
      </trkpt>
      <trkpt lat="49.61519" lon="6.08214">
        <ele>261.14</ele>
        <time>2026-08-11T12:28:19.384Z</time>
      </trkpt>
      <trkpt lat="49.61485" lon="6.08221">
        <ele>263.46</ele>
        <time>2026-08-11T12:28:25.400Z</time>
      </trkpt>
      <trkpt lat="49.6145" lon="6.08224">
        <ele>263.43</ele>
        <time>2026-08-11T12:28:31.397Z</time>
      </trkpt>
      <trkpt lat="49.61411" lon="6.08225">
        <ele>262.5</ele>
        <time>2026-08-11T12:28:37.383Z</time>
      </trkpt>
      <trkpt lat="49.61372" lon="6.08216">
        <ele>262.82</ele>
        <time>2026-08-11T12:28:43.387Z</time>
      </trkpt>
      <trkpt lat="49.61334" lon="6.08208">
        <ele>261.51</ele>
        <time>2026-08-11T12:28:49.387Z</time>
      </trkpt>
      <trkpt lat="49.61294" lon="6.082">
        <ele>262.25</ele>
        <time>2026-08-11T12:28:55.395Z</time>
      </trkpt>
      <trkpt lat="49.61261" lon="6.08182">
        <ele>261.5</ele>
        <time>2026-08-11T12:29:01.396Z</time>
      </trkpt>
      <trkpt lat="49.6124" lon="6.08138">
        <ele>261.37</ele>
        <time>2026-08-11T12:29:07.388Z</time>
      </trkpt>
      <trkpt lat="49.6122" lon="6.08138">
        <ele>261.45</ele>
        <time>2026-08-11T12:29:13.386Z</time>
      </trkpt>
      <trkpt lat="49.61225" lon="6.0815">
        <ele>258.21</ele>
        <time>2026-08-11T12:29:43.392Z</time>
      </trkpt>
      <trkpt lat="49.61229" lon="6.08168">
        <ele>256.55</ele>
        <time>2026-08-11T12:29:49.400Z</time>
      </trkpt>
      <trkpt lat="49.61232" lon="6.08191">
        <ele>257.06</ele>
        <time>2026-08-11T12:29:55.400Z</time>
      </trkpt>
      <trkpt lat="49.61239" lon="6.08216">
        <ele>259.81</ele>
        <time>2026-08-11T12:30:01.392Z</time>
      </trkpt>
      <trkpt lat="49.61245" lon="6.08243">
        <ele>261.98</ele>
        <time>2026-08-11T12:30:07.397Z</time>
      </trkpt>
      <trkpt lat="49.6125" lon="6.0827">
        <ele>264.4</ele>
        <time>2026-08-11T12:30:13.390Z</time>
      </trkpt>
      <trkpt lat="49.61253" lon="6.08296">
        <ele>266.91</ele>
        <time>2026-08-11T12:30:19.389Z</time>
      </trkpt>
      <trkpt lat="49.61256" lon="6.08327">
        <ele>268.71</ele>
        <time>2026-08-11T12:30:25.422Z</time>
      </trkpt>
      <trkpt lat="49.61252" lon="6.08356">
        <ele>267.54</ele>
        <time>2026-08-11T12:30:31.389Z</time>
      </trkpt>
      <trkpt lat="49.61244" lon="6.08383">
        <ele>265.36</ele>
        <time>2026-08-11T12:30:37.390Z</time>
      </trkpt>
      <trkpt lat="49.61229" lon="6.08415">
        <ele>263.52</ele>
        <time>2026-08-11T12:30:43.381Z</time>
      </trkpt>
      <trkpt lat="49.61229" lon="6.08458">
        <ele>259.75</ele>
        <time>2026-08-11T12:30:49.382Z</time>
      </trkpt>
      <trkpt lat="49.61241" lon="6.08495">
        <ele>256.88</ele>
        <time>2026-08-11T12:30:55.364Z</time>
      </trkpt>
      <trkpt lat="49.61253" lon="6.08534">
        <ele>251.86</ele>
        <time>2026-08-11T12:31:01.403Z</time>
      </trkpt>
      <trkpt lat="49.61273" lon="6.08564">
        <ele>253.09</ele>
        <time>2026-08-11T12:31:07.404Z</time>
      </trkpt>
      <trkpt lat="49.61286" lon="6.08599">
        <ele>257.41</ele>
        <time>2026-08-11T12:31:13.388Z</time>
      </trkpt>
      <trkpt lat="49.6129" lon="6.08637">
        <ele>259.93</ele>
        <time>2026-08-11T12:31:19.399Z</time>
      </trkpt>
      <trkpt lat="49.61294" lon="6.08682">
        <ele>260.28</ele>
        <time>2026-08-11T12:31:25.401Z</time>
      </trkpt>
      <trkpt lat="49.61296" lon="6.08724">
        <ele>259.28</ele>
        <time>2026-08-11T12:31:31.398Z</time>
      </trkpt>
      <trkpt lat="49.61295" lon="6.08753">
        <ele>260.43</ele>
        <time>2026-08-11T12:31:37.398Z</time>
      </trkpt>
      <trkpt lat="49.61302" lon="6.08797">
        <ele>258.87</ele>
        <time>2026-08-11T12:31:43.395Z</time>
      </trkpt>
      <trkpt lat="49.61309" lon="6.08844">
        <ele>256.55</ele>
        <time>2026-08-11T12:31:49.399Z</time>
      </trkpt>
      <trkpt lat="49.61315" lon="6.08893">
        <ele>254.29</ele>
        <time>2026-08-11T12:31:55.404Z</time>
      </trkpt>
      <trkpt lat="49.61319" lon="6.08937">
        <ele>254.29</ele>
        <time>2026-08-11T12:32:01.363Z</time>
      </trkpt>
      <trkpt lat="49.61323" lon="6.08981">
        <ele>255.14</ele>
        <time>2026-08-11T12:32:07.395Z</time>
      </trkpt>
      <trkpt lat="49.61326" lon="6.09027">
        <ele>256.35</ele>
        <time>2026-08-11T12:32:13.399Z</time>
      </trkpt>
      <trkpt lat="49.61328" lon="6.09073">
        <ele>257.55</ele>
        <time>2026-08-11T12:32:19.398Z</time>
      </trkpt>
      <trkpt lat="49.61329" lon="6.09122">
        <ele>257.36</ele>
        <time>2026-08-11T12:32:25.404Z</time>
      </trkpt>
      <trkpt lat="49.61323" lon="6.09166">
        <ele>258.83</ele>
        <time>2026-08-11T12:32:31.397Z</time>
      </trkpt>
      <trkpt lat="49.61318" lon="6.09207">
        <ele>259.73</ele>
        <time>2026-08-11T12:32:37.398Z</time>
      </trkpt>
      <trkpt lat="49.61309" lon="6.0925">
        <ele>260.01</ele>
        <time>2026-08-11T12:32:43.397Z</time>
      </trkpt>
      <trkpt lat="49.61298" lon="6.09293">
        <ele>259.96</ele>
        <time>2026-08-11T12:32:49.399Z</time>
      </trkpt>
      <trkpt lat="49.61288" lon="6.0933">
        <ele>260.34</ele>
        <time>2026-08-11T12:32:55.400Z</time>
      </trkpt>
      <trkpt lat="49.61277" lon="6.09368">
        <ele>259.65</ele>
        <time>2026-08-11T12:33:01.393Z</time>
      </trkpt>
      <trkpt lat="49.61264" lon="6.0941">
        <ele>258.24</ele>
        <time>2026-08-11T12:33:07.389Z</time>
      </trkpt>
      <trkpt lat="49.61253" lon="6.09454">
        <ele>257.54</ele>
        <time>2026-08-11T12:33:13.393Z</time>
      </trkpt>
      <trkpt lat="49.61245" lon="6.095">
        <ele>257.36</ele>
        <time>2026-08-11T12:33:19.399Z</time>
      </trkpt>
      <trkpt lat="49.6124" lon="6.09544">
        <ele>257.14</ele>
        <time>2026-08-11T12:33:25.383Z</time>
      </trkpt>
      <trkpt lat="49.61236" lon="6.09585">
        <ele>258.67</ele>
        <time>2026-08-11T12:33:31.402Z</time>
      </trkpt>
      <trkpt lat="49.61234" lon="6.09625">
        <ele>260.47</ele>
        <time>2026-08-11T12:33:37.398Z</time>
      </trkpt>
      <trkpt lat="49.61233" lon="6.09666">
        <ele>262.21</ele>
        <time>2026-08-11T12:33:43.400Z</time>
      </trkpt>
      <trkpt lat="49.61234" lon="6.09699">
        <ele>264.46</ele>
        <time>2026-08-11T12:33:48.447Z</time>
      </trkpt>
      <trkpt lat="49.61239" lon="6.09735">
        <ele>264.04</ele>
        <time>2026-08-11T12:33:54.329Z</time>
      </trkpt>
      <trkpt lat="49.61232" lon="6.09754">
        <ele>262.08</ele>
        <time>2026-08-11T12:33:59.340Z</time>
      </trkpt>
      <trkpt lat="49.61197" lon="6.09751">
        <ele>256.61</ele>
        <time>2026-08-11T12:34:05.329Z</time>
      </trkpt>
      <trkpt lat="49.61165" lon="6.09741">
        <ele>252.5</ele>
        <time>2026-08-11T12:34:11.332Z</time>
      </trkpt>
      <trkpt lat="49.61137" lon="6.09739">
        <ele>253.3</ele>
        <time>2026-08-11T12:34:16.339Z</time>
      </trkpt>
      <trkpt lat="49.61104" lon="6.09741">
        <ele>255.82</ele>
        <time>2026-08-11T12:34:22.330Z</time>
      </trkpt>
      <trkpt lat="49.61078" lon="6.09739">
        <ele>257.26</ele>
        <time>2026-08-11T12:34:27.330Z</time>
      </trkpt>
      <trkpt lat="49.61048" lon="6.09737">
        <ele>258.85</ele>
        <time>2026-08-11T12:34:33.330Z</time>
      </trkpt>
      <trkpt lat="49.61026" lon="6.09735">
        <ele>260.02</ele>
        <time>2026-08-11T12:34:38.335Z</time>
      </trkpt>
      <trkpt lat="49.61006" lon="6.09732">
        <ele>260.81</ele>
        <time>2026-08-11T12:34:43.385Z</time>
      </trkpt>
      <trkpt lat="49.60986" lon="6.09737">
        <ele>262.37</ele>
        <time>2026-08-11T12:34:49.411Z</time>
      </trkpt>
      <trkpt lat="49.60968" lon="6.09752">
        <ele>262.33</ele>
        <time>2026-08-11T12:34:55.395Z</time>
      </trkpt>
      <trkpt lat="49.60968" lon="6.09786">
        <ele>258.75</ele>
        <time>2026-08-11T12:35:01.380Z</time>
      </trkpt>
      <trkpt lat="49.60971" lon="6.09825">
        <ele>256.25</ele>
        <time>2026-08-11T12:35:07.402Z</time>
      </trkpt>
      <trkpt lat="49.60974" lon="6.09866">
        <ele>256.64</ele>
        <time>2026-08-11T12:35:13.381Z</time>
      </trkpt>
      <trkpt lat="49.60979" lon="6.09904">
        <ele>257.36</ele>
        <time>2026-08-11T12:35:19.387Z</time>
      </trkpt>
      <trkpt lat="49.60984" lon="6.09945">
        <ele>256.53</ele>
        <time>2026-08-11T12:35:25.398Z</time>
      </trkpt>
      <trkpt lat="49.60988" lon="6.09987">
        <ele>256.68</ele>
        <time>2026-08-11T12:35:31.381Z</time>
      </trkpt>
      <trkpt lat="49.60992" lon="6.10025">
        <ele>258.42</ele>
        <time>2026-08-11T12:35:37.382Z</time>
      </trkpt>
      <trkpt lat="49.60992" lon="6.10062">
        <ele>261.29</ele>
        <time>2026-08-11T12:35:43.381Z</time>
      </trkpt>
      <trkpt lat="49.60988" lon="6.10098">
        <ele>265.04</ele>
        <time>2026-08-11T12:35:49.404Z</time>
      </trkpt>
      <trkpt lat="49.60983" lon="6.10132">
        <ele>270.8</ele>
        <time>2026-08-11T12:35:54.612Z</time>
      </trkpt>
      <trkpt lat="49.60982" lon="6.10165">
        <ele>270.68</ele>
        <time>2026-08-11T12:36:00.416Z</time>
      </trkpt>
      <trkpt lat="49.60976" lon="6.10202">
        <ele>267.1</ele>
        <time>2026-08-11T12:36:06.405Z</time>
      </trkpt>
      <trkpt lat="49.60976" lon="6.10244">
        <ele>311.62</ele>
        <time>2026-08-11T12:36:12.321Z</time>
      </trkpt>
      <trkpt lat="49.60969" lon="6.10278">
        <ele>311.54</ele>
        <time>2026-08-11T12:36:17.337Z</time>
      </trkpt>
      <trkpt lat="49.60958" lon="6.10318">
        <ele>311.53</ele>
        <time>2026-08-11T12:36:23.394Z</time>
      </trkpt>
      <trkpt lat="49.60953" lon="6.1037">
        <ele>310.35</ele>
        <time>2026-08-11T12:36:29.332Z</time>
      </trkpt>
      <trkpt lat="49.60944" lon="6.10414">
        <ele>310.33</ele>
        <time>2026-08-11T12:36:34.333Z</time>
      </trkpt>
      <trkpt lat="49.60944" lon="6.10484">
        <ele>310.33</ele>
        <time>2026-08-11T12:36:40.328Z</time>
      </trkpt>
      <trkpt lat="49.60956" lon="6.10546">
        <ele>310.33</ele>
        <time>2026-08-11T12:36:46.326Z</time>
      </trkpt>
      <trkpt lat="49.60972" lon="6.10587">
        <ele>310.33</ele>
        <time>2026-08-11T12:36:51.326Z</time>
      </trkpt>
      <trkpt lat="49.60985" lon="6.10608">
        <ele>310.33</ele>
        <time>2026-08-11T12:36:56.367Z</time>
      </trkpt>
      <trkpt lat="49.60993" lon="6.10622">
        <ele>310.33</ele>
        <time>2026-08-11T12:37:01.404Z</time>
      </trkpt>
      <trkpt lat="49.61005" lon="6.10655">
        <ele>310.33</ele>
        <time>2026-08-11T12:37:07.385Z</time>
      </trkpt>
      <trkpt lat="49.61018" lon="6.10691">
        <ele>310.33</ele>
        <time>2026-08-11T12:37:13.382Z</time>
      </trkpt>
      <trkpt lat="49.61026" lon="6.10724">
        <ele>306</ele>
        <time>2026-08-11T12:37:19.397Z</time>
      </trkpt>
      <trkpt lat="49.61027" lon="6.10756">
        <ele>305.93</ele>
        <time>2026-08-11T12:37:25.388Z</time>
      </trkpt>
      <trkpt lat="49.61033" lon="6.10787">
        <ele>305.93</ele>
        <time>2026-08-11T12:37:31.388Z</time>
      </trkpt>
      <trkpt lat="49.61036" lon="6.10819">
        <ele>305.93</ele>
        <time>2026-08-11T12:37:37.373Z</time>
      </trkpt>
      <trkpt lat="49.61041" lon="6.10852">
        <ele>307.82</ele>
        <time>2026-08-11T12:37:43.383Z</time>
      </trkpt>
      <trkpt lat="49.61041" lon="6.10891">
        <ele>307.83</ele>
        <time>2026-08-11T12:37:49.389Z</time>
      </trkpt>
      <trkpt lat="49.6104" lon="6.10934">
        <ele>307.83</ele>
        <time>2026-08-11T12:37:55.379Z</time>
      </trkpt>
      <trkpt lat="49.61038" lon="6.1098">
        <ele>307.83</ele>
        <time>2026-08-11T12:38:01.379Z</time>
      </trkpt>
      <trkpt lat="49.61037" lon="6.11024">
        <ele>307.83</ele>
        <time>2026-08-11T12:38:07.381Z</time>
      </trkpt>
      <trkpt lat="49.61036" lon="6.11068">
        <ele>307.83</ele>
        <time>2026-08-11T12:38:13.383Z</time>
      </trkpt>
      <trkpt lat="49.61032" lon="6.1111">
        <ele>307.83</ele>
        <time>2026-08-11T12:38:19.377Z</time>
      </trkpt>
      <trkpt lat="49.61032" lon="6.11156">
        <ele>307.83</ele>
        <time>2026-08-11T12:38:25.379Z</time>
      </trkpt>
      <trkpt lat="49.61028" lon="6.11196">
        <ele>307.83</ele>
        <time>2026-08-11T12:38:31.383Z</time>
      </trkpt>
      <trkpt lat="49.61026" lon="6.11236">
        <ele>307.83</ele>
        <time>2026-08-11T12:38:37.399Z</time>
      </trkpt>
      <trkpt lat="49.61023" lon="6.11283">
        <ele>307.83</ele>
        <time>2026-08-11T12:38:43.384Z</time>
      </trkpt>
      <trkpt lat="49.61021" lon="6.11334">
        <ele>307.83</ele>
        <time>2026-08-11T12:38:49.375Z</time>
      </trkpt>
      <trkpt lat="49.61019" lon="6.11382">
        <ele>307.83</ele>
        <time>2026-08-11T12:38:55.380Z</time>
      </trkpt>
      <trkpt lat="49.61018" lon="6.11431">
        <ele>307.83</ele>
        <time>2026-08-11T12:39:01.385Z</time>
      </trkpt>
      <trkpt lat="49.61015" lon="6.11479">
        <ele>307.83</ele>
        <time>2026-08-11T12:39:07.381Z</time>
      </trkpt>
      <trkpt lat="49.61013" lon="6.11524">
        <ele>254.99</ele>
        <time>2026-08-11T12:39:13.380Z</time>
      </trkpt>
      <trkpt lat="49.61013" lon="6.11573">
        <ele>254.43</ele>
        <time>2026-08-11T12:39:19.392Z</time>
      </trkpt>
      <trkpt lat="49.61014" lon="6.1162">
        <ele>254.17</ele>
        <time>2026-08-11T12:39:25.408Z</time>
      </trkpt>
      <trkpt lat="49.61016" lon="6.11665">
        <ele>258.06</ele>
        <time>2026-08-11T12:39:31.389Z</time>
      </trkpt>
      <trkpt lat="49.61007" lon="6.11716">
        <ele>255.92</ele>
        <time>2026-08-11T12:39:37.395Z</time>
      </trkpt>
      <trkpt lat="49.61007" lon="6.11767">
        <ele>252.66</ele>
        <time>2026-08-11T12:39:43.392Z</time>
      </trkpt>
      <trkpt lat="49.61005" lon="6.11819">
        <ele>252.93</ele>
        <time>2026-08-11T12:39:49.390Z</time>
      </trkpt>
      <trkpt lat="49.61004" lon="6.11852">
        <ele>253.82</ele>
        <time>2026-08-11T12:39:55.398Z</time>
      </trkpt>
      <trkpt lat="49.61004" lon="6.11866">
        <ele>302.58</ele>
        <time>2026-08-11T12:40:10.111Z</time>
      </trkpt>
      <trkpt lat="49.61003" lon="6.11887">
        <ele>302.53</ele>
        <time>2026-08-11T12:40:15.335Z</time>
      </trkpt>
      <trkpt lat="49.60989" lon="6.11905">
        <ele>302.53</ele>
        <time>2026-08-11T12:40:21.351Z</time>
      </trkpt>
      <trkpt lat="49.60983" lon="6.11918">
        <ele>301.73</ele>
        <time>2026-08-11T12:40:39.334Z</time>
      </trkpt>
      <trkpt lat="49.60974" lon="6.11937">
        <ele>301.73</ele>
        <time>2026-08-11T12:40:44.352Z</time>
      </trkpt>
      <trkpt lat="49.60978" lon="6.1198">
        <ele>299.93</ele>
        <time>2026-08-11T12:40:49.383Z</time>
      </trkpt>
      <trkpt lat="49.6098" lon="6.12014">
        <ele>299.93</ele>
        <time>2026-08-11T12:40:55.402Z</time>
      </trkpt>
      <trkpt lat="49.60982" lon="6.12055">
        <ele>299.93</ele>
        <time>2026-08-11T12:41:01.381Z</time>
      </trkpt>
      <trkpt lat="49.60983" lon="6.12072">
        <ele>299.93</ele>
        <time>2026-08-11T12:41:07.381Z</time>
      </trkpt>
      <trkpt lat="49.60986" lon="6.12085">
        <ele>300.03</ele>
        <time>2026-08-11T12:41:23.335Z</time>
      </trkpt>
      <trkpt lat="49.60983" lon="6.12106">
        <ele>300.03</ele>
        <time>2026-08-11T12:41:53.313Z</time>
      </trkpt>
      <trkpt lat="49.6099" lon="6.12139">
        <ele>299.83</ele>
        <time>2026-08-11T12:41:58.326Z</time>
      </trkpt>
      <trkpt lat="49.60991" lon="6.12177">
        <ele>299.82</ele>
        <time>2026-08-11T12:42:04.348Z</time>
      </trkpt>
      <trkpt lat="49.60992" lon="6.122">
        <ele>299.82</ele>
        <time>2026-08-11T12:42:10.318Z</time>
      </trkpt>
      <trkpt lat="49.60983" lon="6.12204">
        <ele>299.82</ele>
        <time>2026-08-11T12:42:18.323Z</time>
      </trkpt>
      <trkpt lat="49.6097" lon="6.12207">
        <ele>299.82</ele>
        <time>2026-08-11T12:42:23.340Z</time>
      </trkpt>
      <trkpt lat="49.60945" lon="6.12229">
        <ele>299.83</ele>
        <time>2026-08-11T12:42:29.318Z</time>
      </trkpt>
      <trkpt lat="49.60922" lon="6.12251">
        <ele>299.83</ele>
        <time>2026-08-11T12:42:34.319Z</time>
      </trkpt>
      <trkpt lat="49.60895" lon="6.12263">
        <ele>299.83</ele>
        <time>2026-08-11T12:42:39.324Z</time>
      </trkpt>
      <trkpt lat="49.60865" lon="6.12262">
        <ele>299.83</ele>
        <time>2026-08-11T12:42:45.324Z</time>
      </trkpt>
      <trkpt lat="49.60842" lon="6.12262">
        <ele>299.83</ele>
        <time>2026-08-11T12:42:50.325Z</time>
      </trkpt>
      <trkpt lat="49.60822" lon="6.12269">
        <ele>299.83</ele>
        <time>2026-08-11T12:42:55.390Z</time>
      </trkpt>
      <trkpt lat="49.6083" lon="6.12301">
        <ele>299.83</ele>
        <time>2026-08-11T12:43:01.388Z</time>
      </trkpt>
      <trkpt lat="49.60844" lon="6.12343">
        <ele>299.83</ele>
        <time>2026-08-11T12:43:07.383Z</time>
      </trkpt>
      <trkpt lat="49.60855" lon="6.12378">
        <ele>296.68</ele>
        <time>2026-08-11T12:43:13.091Z</time>
      </trkpt>
      <trkpt lat="49.60874" lon="6.12405">
        <ele>295.63</ele>
        <time>2026-08-11T12:43:18.328Z</time>
      </trkpt>
      <trkpt lat="49.6088" lon="6.12429">
        <ele>295.63</ele>
        <time>2026-08-11T12:43:23.331Z</time>
      </trkpt>
      <trkpt lat="49.60891" lon="6.1245">
        <ele>295.62</ele>
        <time>2026-08-11T12:43:29.323Z</time>
      </trkpt>
      <trkpt lat="49.60902" lon="6.12466">
        <ele>295.62</ele>
        <time>2026-08-11T12:43:35.315Z</time>
      </trkpt>
      <trkpt lat="49.60907" lon="6.12482">
        <ele>297.22</ele>
        <time>2026-08-11T12:43:40.332Z</time>
      </trkpt>
      <trkpt lat="49.60903" lon="6.125">
        <ele>297.42</ele>
        <time>2026-08-11T12:44:10.317Z</time>
      </trkpt>
      <trkpt lat="49.60892" lon="6.12513">
        <ele>297.23</ele>
        <time>2026-08-11T12:44:15.339Z</time>
      </trkpt>
      <trkpt lat="49.60887" lon="6.12526">
        <ele>297.22</ele>
        <time>2026-08-11T12:44:23.331Z</time>
      </trkpt>
      <trkpt lat="49.60894" lon="6.12538">
        <ele>297.02</ele>
        <time>2026-08-11T12:44:30.349Z</time>
      </trkpt>
      <trkpt lat="49.60905" lon="6.12558">
        <ele>297.02</ele>
        <time>2026-08-11T12:44:36.334Z</time>
      </trkpt>
      <trkpt lat="49.60913" lon="6.12585">
        <ele>297.02</ele>
        <time>2026-08-11T12:44:42.333Z</time>
      </trkpt>
      <trkpt lat="49.60915" lon="6.12611">
        <ele>296.65</ele>
        <time>2026-08-11T12:44:47.354Z</time>
      </trkpt>
      <trkpt lat="49.6083" lon="6.12498">
        <ele>296.6</ele>
        <time>2026-08-11T12:45:12.546Z</time>
      </trkpt>
      <trkpt lat="49.60779" lon="6.12764">
        <ele>296.32</ele>
        <time>2026-08-11T12:45:34.547Z</time>
      </trkpt>
      <trkpt lat="49.60748" lon="6.12705">
        <ele>296.23</ele>
        <time>2026-08-11T12:45:40.323Z</time>
      </trkpt>
      <trkpt lat="49.60735" lon="6.12694">
        <ele>296.23</ele>
        <time>2026-08-11T12:45:45.330Z</time>
      </trkpt>
      <trkpt lat="49.60726" lon="6.12703">
        <ele>296.23</ele>
        <time>2026-08-11T12:45:50.332Z</time>
      </trkpt>
      <trkpt lat="49.60721" lon="6.12719">
        <ele>296.23</ele>
        <time>2026-08-11T12:45:55.385Z</time>
      </trkpt>
      <trkpt lat="49.60715" lon="6.12738">
        <ele>295.23</ele>
        <time>2026-08-11T12:46:01.389Z</time>
      </trkpt>
      <trkpt lat="49.60709" lon="6.12758">
        <ele>295.23</ele>
        <time>2026-08-11T12:46:07.385Z</time>
      </trkpt>
      <trkpt lat="49.60712" lon="6.12773">
        <ele>295.23</ele>
        <time>2026-08-11T12:46:13.380Z</time>
      </trkpt>
      <trkpt lat="49.60715" lon="6.12795">
        <ele>295.23</ele>
        <time>2026-08-11T12:46:19.383Z</time>
      </trkpt>
      <trkpt lat="49.60699" lon="6.12801">
        <ele>295.23</ele>
        <time>2026-08-11T12:46:25.406Z</time>
      </trkpt>
      <trkpt lat="49.60681" lon="6.12814">
        <ele>295.23</ele>
        <time>2026-08-11T12:46:31.391Z</time>
      </trkpt>
      <trkpt lat="49.6066" lon="6.12832">
        <ele>295.23</ele>
        <time>2026-08-11T12:46:37.385Z</time>
      </trkpt>
      <trkpt lat="49.60644" lon="6.1285">
        <ele>294.93</ele>
        <time>2026-08-11T12:46:43.390Z</time>
      </trkpt>
      <trkpt lat="49.60625" lon="6.12864">
        <ele>294.93</ele>
        <time>2026-08-11T12:46:49.370Z</time>
      </trkpt>
      <trkpt lat="49.60603" lon="6.12883">
        <ele>294.53</ele>
        <time>2026-08-11T12:46:55.392Z</time>
      </trkpt>
      <trkpt lat="49.60584" lon="6.12894">
        <ele>294.53</ele>
        <time>2026-08-11T12:47:01.380Z</time>
      </trkpt>
      <trkpt lat="49.60566" lon="6.1291">
        <ele>294.04</ele>
        <time>2026-08-11T12:47:07.393Z</time>
      </trkpt>
      <trkpt lat="49.60554" lon="6.12912">
        <ele>294.03</ele>
        <time>2026-08-11T12:47:13.380Z</time>
      </trkpt>
      <trkpt lat="49.60546" lon="6.12925">
        <ele>294</ele>
        <time>2026-08-11T12:47:58.249Z</time>
      </trkpt>
      <trkpt lat="49.60536" lon="6.12943">
        <ele>294.03</ele>
        <time>2026-08-11T12:48:03.336Z</time>
      </trkpt>
      <trkpt lat="49.60541" lon="6.12929">
        <ele>293.83</ele>
        <time>2026-08-11T12:48:23.160Z</time>
      </trkpt>
      <trkpt lat="49.60551" lon="6.12924">
        <ele>293.93</ele>
        <time>2026-08-11T12:48:29.343Z</time>
      </trkpt>
      <trkpt lat="49.60545" lon="6.12935">
        <ele>297.23</ele>
        <time>2026-08-11T12:48:57.262Z</time>
      </trkpt>
      <trkpt lat="49.60531" lon="6.1295">
        <ele>297.23</ele>
        <time>2026-08-11T12:49:02.344Z</time>
      </trkpt>
      <trkpt lat="49.60512" lon="6.12964">
        <ele>297.23</ele>
        <time>2026-08-11T12:49:08.059Z</time>
      </trkpt>
      <trkpt lat="49.60499" lon="6.12976">
        <ele>293.23</ele>
        <time>2026-08-11T12:49:13.206Z</time>
      </trkpt>
      <trkpt lat="49.60478" lon="6.12984">
        <ele>293.23</ele>
        <time>2026-08-11T12:49:18.337Z</time>
      </trkpt>
      <trkpt lat="49.60458" lon="6.13001">
        <ele>293.23</ele>
        <time>2026-08-11T12:49:23.468Z</time>
      </trkpt>
      <trkpt lat="49.60437" lon="6.13017">
        <ele>293.23</ele>
        <time>2026-08-11T12:49:28.998Z</time>
      </trkpt>
      <trkpt lat="49.60424" lon="6.13046">
        <ele>293.23</ele>
        <time>2026-08-11T12:49:34.165Z</time>
      </trkpt>
      <trkpt lat="49.60403" lon="6.13055">
        <ele>293.23</ele>
        <time>2026-08-11T12:49:40.323Z</time>
      </trkpt>
      <trkpt lat="49.60384" lon="6.13076">
        <ele>292.29</ele>
        <time>2026-08-11T12:49:45.336Z</time>
      </trkpt>
      <trkpt lat="49.60374" lon="6.13098">
        <ele>292.23</ele>
        <time>2026-08-11T12:49:50.337Z</time>
      </trkpt>
      <trkpt lat="49.60353" lon="6.13114">
        <ele>292.23</ele>
        <time>2026-08-11T12:49:55.388Z</time>
      </trkpt>
      <trkpt lat="49.60334" lon="6.13126">
        <ele>292.03</ele>
        <time>2026-08-11T12:50:01.383Z</time>
      </trkpt>
      <trkpt lat="49.60324" lon="6.1313">
        <ele>292.03</ele>
        <time>2026-08-11T12:50:07.378Z</time>
      </trkpt>
      <trkpt lat="49.60314" lon="6.1313">
        <ele>291.73</ele>
        <time>2026-08-11T12:50:16.309Z</time>
      </trkpt>
      <trkpt lat="49.60307" lon="6.13148">
        <ele>291.63</ele>
        <time>2026-08-11T12:50:33.317Z</time>
      </trkpt>
      <trkpt lat="49.60305" lon="6.13165">
        <ele>291.33</ele>
        <time>2026-08-11T12:50:43.375Z</time>
      </trkpt>
      <trkpt lat="49.60302" lon="6.1318">
        <ele>291.03</ele>
        <time>2026-08-11T12:50:49.379Z</time>
      </trkpt>
      <trkpt lat="49.60293" lon="6.13185">
        <ele>290.93</ele>
        <time>2026-08-11T12:50:57.318Z</time>
      </trkpt>
      <trkpt lat="49.60285" lon="6.13194">
        <ele>290.83</ele>
        <time>2026-08-11T12:51:03.333Z</time>
      </trkpt>
      <trkpt lat="49.60275" lon="6.13197">
        <ele>290.83</ele>
        <time>2026-08-11T12:51:18.321Z</time>
      </trkpt>
      <trkpt lat="49.60263" lon="6.13199">
        <ele>290.13</ele>
        <time>2026-08-11T12:51:31.424Z</time>
      </trkpt>
      <trkpt lat="49.60252" lon="6.13203">
        <ele>290.28</ele>
        <time>2026-08-11T12:52:21.344Z</time>
      </trkpt>
      <trkpt lat="49.60243" lon="6.13217">
        <ele>290.33</ele>
        <time>2026-08-11T12:52:27.313Z</time>
      </trkpt>
      <trkpt lat="49.60236" lon="6.13228">
        <ele>290.23</ele>
        <time>2026-08-11T12:52:32.337Z</time>
      </trkpt>
      <trkpt lat="49.60225" lon="6.1324">
        <ele>290.33</ele>
        <time>2026-08-11T12:52:47.321Z</time>
      </trkpt>
      <trkpt lat="49.60214" lon="6.1325">
        <ele>290.33</ele>
        <time>2026-08-11T12:52:52.338Z</time>
      </trkpt>
      <trkpt lat="49.60207" lon="6.1326">
        <ele>289.88</ele>
        <time>2026-08-11T12:53:01.399Z</time>
      </trkpt>
      <trkpt lat="49.60199" lon="6.1327">
        <ele>289.44</ele>
        <time>2026-08-11T12:53:10.336Z</time>
      </trkpt>
      <trkpt lat="49.6019" lon="6.13282">
        <ele>289.43</ele>
        <time>2026-08-11T12:53:16.320Z</time>
      </trkpt>
      <trkpt lat="49.6018" lon="6.13286">
        <ele>289.33</ele>
        <time>2026-08-11T12:53:24.322Z</time>
      </trkpt>
      <trkpt lat="49.60172" lon="6.13294">
        <ele>289.23</ele>
        <time>2026-08-11T12:53:30.334Z</time>
      </trkpt>
      <trkpt lat="49.60159" lon="6.13295">
        <ele>288.53</ele>
        <time>2026-08-11T12:53:49.373Z</time>
      </trkpt>
      <trkpt lat="49.60146" lon="6.13304">
        <ele>288.63</ele>
        <time>2026-08-11T12:53:55.394Z</time>
      </trkpt>
      <trkpt lat="49.60131" lon="6.13302">
        <ele>288.63</ele>
        <time>2026-08-11T12:54:01.377Z</time>
      </trkpt>
      <trkpt lat="49.6012" lon="6.13308">
        <ele>288.34</ele>
        <time>2026-08-11T12:54:07.396Z</time>
      </trkpt>
      <trkpt lat="49.60111" lon="6.13316">
        <ele>288.24</ele>
        <time>2026-08-11T12:54:16.337Z</time>
      </trkpt>
      <trkpt lat="49.60101" lon="6.13316">
        <ele>288.23</ele>
        <time>2026-08-11T12:54:26.320Z</time>
      </trkpt>
      <trkpt lat="49.60094" lon="6.13328">
        <ele>288.33</ele>
        <time>2026-08-11T12:54:31.392Z</time>
      </trkpt>
      <trkpt lat="49.60084" lon="6.13328">
        <ele>288.33</ele>
        <time>2026-08-11T12:54:39.335Z</time>
      </trkpt>
      <trkpt lat="49.60076" lon="6.13336">
        <ele>288.43</ele>
        <time>2026-08-11T12:54:47.344Z</time>
      </trkpt>
      <trkpt lat="49.60066" lon="6.13336">
        <ele>286.73</ele>
        <time>2026-08-11T12:54:59.341Z</time>
      </trkpt>
      <trkpt lat="49.60055" lon="6.13337">
        <ele>286.83</ele>
        <time>2026-08-11T12:55:06.339Z</time>
      </trkpt>
      <trkpt lat="49.60043" lon="6.13335">
        <ele>286.83</ele>
        <time>2026-08-11T12:55:12.322Z</time>
      </trkpt>
      <trkpt lat="49.60037" lon="6.13349">
        <ele>285.81</ele>
        <time>2026-08-11T12:56:59.337Z</time>
      </trkpt>
      <trkpt lat="49.60032" lon="6.13335">
        <ele>285.51</ele>
        <time>2026-08-11T12:57:16.330Z</time>
      </trkpt>
      <trkpt lat="49.60023" lon="6.1334">
        <ele>285.43</ele>
        <time>2026-08-11T12:57:22.321Z</time>
      </trkpt>
      <trkpt lat="49.60017" lon="6.13327">
        <ele>285.73</ele>
        <time>2026-08-11T12:57:55.387Z</time>
      </trkpt>
      <trkpt lat="49.60025" lon="6.13317">
        <ele>285.63</ele>
        <time>2026-08-11T12:58:14.316Z</time>
      </trkpt>
      <trkpt lat="49.60033" lon="6.133">
        <ele>286.13</ele>
        <time>2026-08-11T12:58:19.383Z</time>
      </trkpt>
      <trkpt lat="49.60028" lon="6.13271">
        <ele>286.13</ele>
        <time>2026-08-11T12:58:25.364Z</time>
      </trkpt>
      <trkpt lat="49.60037" lon="6.13241">
        <ele>286.13</ele>
        <time>2026-08-11T12:58:31.379Z</time>
      </trkpt>
      <trkpt lat="49.60049" lon="6.13211">
        <ele>286.13</ele>
        <time>2026-08-11T12:58:37.382Z</time>
      </trkpt>
      <trkpt lat="49.60059" lon="6.13174">
        <ele>286.82</ele>
        <time>2026-08-11T12:58:43.384Z</time>
      </trkpt>
      <trkpt lat="49.60061" lon="6.13149">
        <ele>286.83</ele>
        <time>2026-08-11T12:58:49.380Z</time>
      </trkpt>
      <trkpt lat="49.60068" lon="6.13119">
        <ele>286.83</ele>
        <time>2026-08-11T12:58:55.393Z</time>
      </trkpt>
      <trkpt lat="49.60076" lon="6.13099">
        <ele>286.83</ele>
        <time>2026-08-11T12:59:01.376Z</time>
      </trkpt>
      <trkpt lat="49.6009" lon="6.13069">
        <ele>286.33</ele>
        <time>2026-08-11T12:59:07.393Z</time>
      </trkpt>
      <trkpt lat="49.60092" lon="6.13048">
        <ele>286.11</ele>
        <time>2026-08-11T12:59:15.324Z</time>
      </trkpt>
      <trkpt lat="49.60098" lon="6.13034">
        <ele>286.03</ele>
        <time>2026-08-11T12:59:20.331Z</time>
      </trkpt>
      <trkpt lat="49.60095" lon="6.13015">
        <ele>286.03</ele>
        <time>2026-08-11T12:59:25.397Z</time>
      </trkpt>
      <trkpt lat="49.60089" lon="6.12981">
        <ele>286.03</ele>
        <time>2026-08-11T12:59:31.382Z</time>
      </trkpt>
      <trkpt lat="49.6008" lon="6.12937">
        <ele>286.03</ele>
        <time>2026-08-11T12:59:37.381Z</time>
      </trkpt>
      <trkpt lat="49.60072" lon="6.12908">
        <ele>286.03</ele>
        <time>2026-08-11T12:59:43.373Z</time>
      </trkpt>
      <trkpt lat="49.60066" lon="6.12894">
        <ele>286.03</ele>
        <time>2026-08-11T12:59:49.377Z</time>
      </trkpt>
      <trkpt lat="49.60063" lon="6.12869">
        <ele>283.74</ele>
        <time>2026-08-11T12:59:55.398Z</time>
      </trkpt>
      <trkpt lat="49.6006" lon="6.12855">
        <ele>283.13</ele>
        <time>2026-08-11T13:00:01.125Z</time>
      </trkpt>
      <trkpt lat="49.6005" lon="6.12816">
        <ele>282.94</ele>
        <time>2026-08-11T13:00:06.332Z</time>
      </trkpt>
      <trkpt lat="49.60042" lon="6.12782">
        <ele>282.94</ele>
        <time>2026-08-11T13:00:11.335Z</time>
      </trkpt>
      <trkpt lat="49.6003" lon="6.12729">
        <ele>282.94</ele>
        <time>2026-08-11T13:00:17.322Z</time>
      </trkpt>
      <trkpt lat="49.60023" lon="6.12697">
        <ele>281.06</ele>
        <time>2026-08-11T13:00:22.329Z</time>
      </trkpt>
      <trkpt lat="49.6001" lon="6.1266">
        <ele>280.44</ele>
        <time>2026-08-11T13:00:27.330Z</time>
      </trkpt>
      <trkpt lat="49.59999" lon="6.12618">
        <ele>280.44</ele>
        <time>2026-08-11T13:00:33.321Z</time>
      </trkpt>
      <trkpt lat="49.59992" lon="6.12585">
        <ele>280.36</ele>
        <time>2026-08-11T13:00:38.332Z</time>
      </trkpt>
      <trkpt lat="49.59986" lon="6.12552">
        <ele>280.34</ele>
        <time>2026-08-11T13:00:43.385Z</time>
      </trkpt>
      <trkpt lat="49.59972" lon="6.12512">
        <ele>280.34</ele>
        <time>2026-08-11T13:00:49.372Z</time>
      </trkpt>
      <trkpt lat="49.59979" lon="6.12503">
        <ele>282.71</ele>
        <time>2026-08-11T13:01:01.381Z</time>
      </trkpt>
      <trkpt lat="49.6" lon="6.12495">
        <ele>277.04</ele>
        <time>2026-08-11T13:01:07.384Z</time>
      </trkpt>
      <trkpt lat="49.60022" lon="6.12477">
        <ele>277.04</ele>
        <time>2026-08-11T13:01:13.401Z</time>
      </trkpt>
      <trkpt lat="49.6004" lon="6.12451">
        <ele>277.04</ele>
        <time>2026-08-11T13:01:19.384Z</time>
      </trkpt>
      <trkpt lat="49.60049" lon="6.12426">
        <ele>276.74</ele>
        <time>2026-08-11T13:01:25.405Z</time>
      </trkpt>
      <trkpt lat="49.6006" lon="6.12423">
        <ele>276.64</ele>
        <time>2026-08-11T13:01:31.391Z</time>
      </trkpt>
      <trkpt lat="49.60076" lon="6.12439">
        <ele>276.64</ele>
        <time>2026-08-11T13:01:37.386Z</time>
      </trkpt>
      <trkpt lat="49.60095" lon="6.12454">
        <ele>276.64</ele>
        <time>2026-08-11T13:01:43.382Z</time>
      </trkpt>
      <trkpt lat="49.60116" lon="6.12474">
        <ele>276.93</ele>
        <time>2026-08-11T13:01:49.408Z</time>
      </trkpt>
      <trkpt lat="49.60131" lon="6.12488">
        <ele>276.86</ele>
        <time>2026-08-11T13:01:55.082Z</time>
      </trkpt>
      <trkpt lat="49.60149" lon="6.12502">
        <ele>276.83</ele>
        <time>2026-08-11T13:02:00.334Z</time>
      </trkpt>
      <trkpt lat="49.60163" lon="6.12526">
        <ele>276.83</ele>
        <time>2026-08-11T13:02:06.330Z</time>
      </trkpt>
      <trkpt lat="49.60164" lon="6.12553">
        <ele>276.83</ele>
        <time>2026-08-11T13:02:11.334Z</time>
      </trkpt>
      <trkpt lat="49.60164" lon="6.12582">
        <ele>276.83</ele>
        <time>2026-08-11T13:02:17.330Z</time>
      </trkpt>
      <trkpt lat="49.60174" lon="6.12591">
        <ele>279.13</ele>
        <time>2026-08-11T13:02:22.340Z</time>
      </trkpt>
      <trkpt lat="49.60179" lon="6.12621">
        <ele>279.13</ele>
        <time>2026-08-11T13:02:28.330Z</time>
      </trkpt>
      <trkpt lat="49.60185" lon="6.12639">
        <ele>279.13</ele>
        <time>2026-08-11T13:02:33.330Z</time>
      </trkpt>
      <trkpt lat="49.60199" lon="6.12665">
        <ele>280.56</ele>
        <time>2026-08-11T13:02:39.324Z</time>
      </trkpt>
      <trkpt lat="49.60208" lon="6.12681">
        <ele>281.03</ele>
        <time>2026-08-11T13:02:44.334Z</time>
      </trkpt>
      <trkpt lat="49.60222" lon="6.12682">
        <ele>281.03</ele>
        <time>2026-08-11T13:02:52.323Z</time>
      </trkpt>
      <trkpt lat="49.60242" lon="6.12667">
        <ele>281.83</ele>
        <time>2026-08-11T13:02:57.342Z</time>
      </trkpt>
      <trkpt lat="49.60258" lon="6.12656">
        <ele>281.83</ele>
        <time>2026-08-11T13:03:03.353Z</time>
      </trkpt>
      <trkpt lat="49.60276" lon="6.12633">
        <ele>282.13</ele>
        <time>2026-08-11T13:03:09.338Z</time>
      </trkpt>
      <trkpt lat="49.60295" lon="6.12625">
        <ele>282.13</ele>
        <time>2026-08-11T13:03:15.338Z</time>
      </trkpt>
      <trkpt lat="49.60313" lon="6.12601">
        <ele>282.13</ele>
        <time>2026-08-11T13:03:21.322Z</time>
      </trkpt>
      <trkpt lat="49.60327" lon="6.12584">
        <ele>282.13</ele>
        <time>2026-08-11T13:03:26.328Z</time>
      </trkpt>
      <trkpt lat="49.60339" lon="6.12559">
        <ele>283.03</ele>
        <time>2026-08-11T13:03:31.375Z</time>
      </trkpt>
      <trkpt lat="49.60356" lon="6.1254">
        <ele>283.03</ele>
        <time>2026-08-11T13:03:37.386Z</time>
      </trkpt>
      <trkpt lat="49.60371" lon="6.12531">
        <ele>283.03</ele>
        <time>2026-08-11T13:03:43.385Z</time>
      </trkpt>
      <trkpt lat="49.60391" lon="6.12509">
        <ele>283.03</ele>
        <time>2026-08-11T13:03:49.397Z</time>
      </trkpt>
      <trkpt lat="49.60404" lon="6.12495">
        <ele>283.03</ele>
        <time>2026-08-11T13:03:55.385Z</time>
      </trkpt>
      <trkpt lat="49.60427" lon="6.12475">
        <ele>283.03</ele>
        <time>2026-08-11T13:04:01.369Z</time>
      </trkpt>
      <trkpt lat="49.60449" lon="6.12445">
        <ele>284.41</ele>
        <time>2026-08-11T13:04:07.379Z</time>
      </trkpt>
      <trkpt lat="49.60468" lon="6.12449">
        <ele>284.43</ele>
        <time>2026-08-11T13:04:13.388Z</time>
      </trkpt>
      <trkpt lat="49.6048" lon="6.12422">
        <ele>283.83</ele>
        <time>2026-08-11T13:04:19.385Z</time>
      </trkpt>
      <trkpt lat="49.60489" lon="6.12429">
        <ele>284.03</ele>
        <time>2026-08-11T13:04:31.373Z</time>
      </trkpt>
      <trkpt lat="49.60502" lon="6.12441">
        <ele>284.42</ele>
        <time>2026-08-11T13:04:37.416Z</time>
      </trkpt>
      <trkpt lat="49.60514" lon="6.12458">
        <ele>284.43</ele>
        <time>2026-08-11T13:04:43.389Z</time>
      </trkpt>
      <trkpt lat="49.60533" lon="6.12459">
        <ele>285.37</ele>
        <time>2026-08-11T13:04:49.382Z</time>
      </trkpt>
      <trkpt lat="49.6055" lon="6.12476">
        <ele>285.43</ele>
        <time>2026-08-11T13:04:55.391Z</time>
      </trkpt>
      <trkpt lat="49.60563" lon="6.12495">
        <ele>285.43</ele>
        <time>2026-08-11T13:05:01.386Z</time>
      </trkpt>
      <trkpt lat="49.60576" lon="6.1251">
        <ele>285.43</ele>
        <time>2026-08-11T13:05:07.415Z</time>
      </trkpt>
      <trkpt lat="49.60584" lon="6.12524">
        <ele>289.13</ele>
        <time>2026-08-11T13:05:13.403Z</time>
      </trkpt>
      <trkpt lat="49.60591" lon="6.12542">
        <ele>289.13</ele>
        <time>2026-08-11T13:05:19.392Z</time>
      </trkpt>
      <trkpt lat="49.60605" lon="6.12556">
        <ele>289.13</ele>
        <time>2026-08-11T13:05:25.401Z</time>
      </trkpt>
      <trkpt lat="49.60618" lon="6.12573">
        <ele>290.21</ele>
        <time>2026-08-11T13:05:31.388Z</time>
      </trkpt>
      <trkpt lat="49.60621" lon="6.12594">
        <ele>290.23</ele>
        <time>2026-08-11T13:05:37.366Z</time>
      </trkpt>
      <trkpt lat="49.60638" lon="6.12615">
        <ele>291.11</ele>
        <time>2026-08-11T13:05:43.406Z</time>
      </trkpt>
      <trkpt lat="49.6065" lon="6.12627">
        <ele>291.13</ele>
        <time>2026-08-11T13:05:49.389Z</time>
      </trkpt>
      <trkpt lat="49.60666" lon="6.12642">
        <ele>291.13</ele>
        <time>2026-08-11T13:05:55.382Z</time>
      </trkpt>
      <trkpt lat="49.60682" lon="6.12657">
        <ele>292.25</ele>
        <time>2026-08-11T13:06:01.391Z</time>
      </trkpt>
      <trkpt lat="49.60689" lon="6.12677">
        <ele>292.63</ele>
        <time>2026-08-11T13:06:07.379Z</time>
      </trkpt>
      <trkpt lat="49.607" lon="6.12695">
        <ele>292.63</ele>
        <time>2026-08-11T13:06:13.378Z</time>
      </trkpt>
      <trkpt lat="49.60709" lon="6.12714">
        <ele>292.63</ele>
        <time>2026-08-11T13:06:19.413Z</time>
      </trkpt>
      <trkpt lat="49.60718" lon="6.12729">
        <ele>294.92</ele>
        <time>2026-08-11T13:06:25.379Z</time>
      </trkpt>
      <trkpt lat="49.60725" lon="6.12737">
        <ele>295.15</ele>
        <time>2026-08-11T13:06:31.378Z</time>
      </trkpt>
      <trkpt lat="49.60734" lon="6.12746">
        <ele>295.23</ele>
        <time>2026-08-11T13:06:38.327Z</time>
      </trkpt>
      <trkpt lat="49.60738" lon="6.12759">
        <ele>295.23</ele>
        <time>2026-08-11T13:06:43.396Z</time>
      </trkpt>
      <trkpt lat="49.6073" lon="6.12771">
        <ele>295.23</ele>
        <time>2026-08-11T13:06:49.387Z</time>
      </trkpt>
      <trkpt lat="49.60719" lon="6.1278">
        <ele>295.23</ele>
        <time>2026-08-11T13:06:55.399Z</time>
      </trkpt>
      <trkpt lat="49.60725" lon="6.12795">
        <ele>295.23</ele>
        <time>2026-08-11T13:07:01.406Z</time>
      </trkpt>
      <trkpt lat="49.60732" lon="6.12807">
        <ele>295.23</ele>
        <time>2026-08-11T13:07:12.323Z</time>
      </trkpt>
      <trkpt lat="49.60741" lon="6.12826">
        <ele>295.23</ele>
        <time>2026-08-11T13:07:18.327Z</time>
      </trkpt>
      <trkpt lat="49.60754" lon="6.1284">
        <ele>295.23</ele>
        <time>2026-08-11T13:07:24.329Z</time>
      </trkpt>
      <trkpt lat="49.60756" lon="6.12855">
        <ele>295.23</ele>
        <time>2026-08-11T13:07:30.327Z</time>
      </trkpt>
      <trkpt lat="49.60758" lon="6.1287">
        <ele>295.22</ele>
        <time>2026-08-11T13:07:38.337Z</time>
      </trkpt>
      <trkpt lat="49.60767" lon="6.12867">
        <ele>298.32</ele>
        <time>2026-08-11T13:10:04.428Z</time>
      </trkpt>
      <trkpt lat="49.60758" lon="6.12869">
        <ele>298.43</ele>
        <time>2026-08-11T13:10:55.363Z</time>
      </trkpt>
      <trkpt lat="49.60767" lon="6.12866">
        <ele>305.12</ele>
        <time>2026-08-11T13:12:15.321Z</time>
      </trkpt>
      <trkpt lat="49.60761" lon="6.12878">
        <ele>295.42</ele>
        <time>2026-08-11T13:13:34.379Z</time>
      </trkpt>
      <trkpt lat="49.60759" lon="6.12864">
        <ele>295.22</ele>
        <time>2026-08-11T13:14:11.381Z</time>
      </trkpt>
      <trkpt lat="49.60748" lon="6.12878">
        <ele>300.8</ele>
        <time>2026-08-11T13:14:22.370Z</time>
      </trkpt>
      <trkpt lat="49.60732" lon="6.12906">
        <ele>301.62</ele>
        <time>2026-08-11T13:14:28.331Z</time>
      </trkpt>
      <trkpt lat="49.60709" lon="6.12922">
        <ele>301.63</ele>
        <time>2026-08-11T13:14:34.342Z</time>
      </trkpt>
      <trkpt lat="49.60692" lon="6.12939">
        <ele>301.63</ele>
        <time>2026-08-11T13:14:40.331Z</time>
      </trkpt>
      <trkpt lat="49.60683" lon="6.12933">
        <ele>301.63</ele>
        <time>2026-08-11T13:14:45.350Z</time>
      </trkpt>
      <trkpt lat="49.60672" lon="6.12921">
        <ele>294.43</ele>
        <time>2026-08-11T13:14:51.323Z</time>
      </trkpt>
      <trkpt lat="49.60664" lon="6.12898">
        <ele>299.15</ele>
        <time>2026-08-11T13:14:56.330Z</time>
      </trkpt>
      <trkpt lat="49.60659" lon="6.12885">
        <ele>299.23</ele>
        <time>2026-08-11T13:15:03.337Z</time>
      </trkpt>
      <trkpt lat="49.60651" lon="6.12869">
        <ele>299.23</ele>
        <time>2026-08-11T13:15:08.351Z</time>
      </trkpt>
      <trkpt lat="49.60631" lon="6.12874">
        <ele>299.23</ele>
        <time>2026-08-11T13:15:13.384Z</time>
      </trkpt>
      <trkpt lat="49.60611" lon="6.12889">
        <ele>294.91</ele>
        <time>2026-08-11T13:15:19.396Z</time>
      </trkpt>
      <trkpt lat="49.60592" lon="6.12899">
        <ele>294.63</ele>
        <time>2026-08-11T13:15:25.383Z</time>
      </trkpt>
      <trkpt lat="49.60581" lon="6.1288">
        <ele>294.63</ele>
        <time>2026-08-11T13:15:31.396Z</time>
      </trkpt>
      <trkpt lat="49.60575" lon="6.12852">
        <ele>294.63</ele>
        <time>2026-08-11T13:15:37.419Z</time>
      </trkpt>
      <trkpt lat="49.60566" lon="6.12817">
        <ele>293.93</ele>
        <time>2026-08-11T13:15:43.390Z</time>
      </trkpt>
      <trkpt lat="49.60575" lon="6.12814">
        <ele>293.93</ele>
        <time>2026-08-11T13:15:50.339Z</time>
      </trkpt>
      <trkpt lat="49.60588" lon="6.12779">
        <ele>293.55</ele>
        <time>2026-08-11T13:15:55.463Z</time>
      </trkpt>
      <trkpt lat="49.60603" lon="6.12763">
        <ele>293.53</ele>
        <time>2026-08-11T13:16:01.388Z</time>
      </trkpt>
      <trkpt lat="49.60622" lon="6.12741">
        <ele>293.53</ele>
        <time>2026-08-11T13:16:07.387Z</time>
      </trkpt>
      <trkpt lat="49.60641" lon="6.1271">
        <ele>293.53</ele>
        <time>2026-08-11T13:16:13.379Z</time>
      </trkpt>
      <trkpt lat="49.60663" lon="6.12695">
        <ele>293.53</ele>
        <time>2026-08-11T13:16:19.384Z</time>
      </trkpt>
      <trkpt lat="49.60683" lon="6.12682">
        <ele>293.53</ele>
        <time>2026-08-11T13:16:25.423Z</time>
      </trkpt>
      <trkpt lat="49.60702" lon="6.12673">
        <ele>293.53</ele>
        <time>2026-08-11T13:16:31.387Z</time>
      </trkpt>
      <trkpt lat="49.60712" lon="6.12705">
        <ele>294.33</ele>
        <time>2026-08-11T13:16:37.378Z</time>
      </trkpt>
      <trkpt lat="49.60719" lon="6.1272">
        <ele>294.33</ele>
        <time>2026-08-11T13:16:43.387Z</time>
      </trkpt>
      <trkpt lat="49.60725" lon="6.12704">
        <ele>294.33</ele>
        <time>2026-08-11T13:16:48.400Z</time>
      </trkpt>
      <trkpt lat="49.60739" lon="6.12702">
        <ele>294.33</ele>
        <time>2026-08-11T13:16:54.329Z</time>
      </trkpt>
      <trkpt lat="49.60749" lon="6.12719">
        <ele>294.93</ele>
        <time>2026-08-11T13:16:59.338Z</time>
      </trkpt>
      <trkpt lat="49.60754" lon="6.12748">
        <ele>294.93</ele>
        <time>2026-08-11T13:17:04.345Z</time>
      </trkpt>
      <trkpt lat="49.60763" lon="6.12779">
        <ele>294.93</ele>
        <time>2026-08-11T13:17:10.341Z</time>
      </trkpt>
      <trkpt lat="49.60892" lon="6.12497">
        <ele>296.73</ele>
        <time>2026-08-11T13:17:59.215Z</time>
      </trkpt>
      <trkpt lat="49.60916" lon="6.12574">
        <ele>296.62</ele>
        <time>2026-08-11T13:18:04.329Z</time>
      </trkpt>
      <trkpt lat="49.60911" lon="6.12557">
        <ele>296.62</ele>
        <time>2026-08-11T13:18:09.335Z</time>
      </trkpt>
      <trkpt lat="49.60902" lon="6.12541">
        <ele>296.62</ele>
        <time>2026-08-11T13:18:14.335Z</time>
      </trkpt>
      <trkpt lat="49.60893" lon="6.12527">
        <ele>296.62</ele>
        <time>2026-08-11T13:18:19.401Z</time>
      </trkpt>
      <trkpt lat="49.60889" lon="6.12515">
        <ele>297.12</ele>
        <time>2026-08-11T13:18:28.307Z</time>
      </trkpt>
      <trkpt lat="49.60895" lon="6.12504">
        <ele>296.93</ele>
        <time>2026-08-11T13:18:33.332Z</time>
      </trkpt>
      <trkpt lat="49.60888" lon="6.12516">
        <ele>297.04</ele>
        <time>2026-08-11T13:19:15.327Z</time>
      </trkpt>
      <trkpt lat="49.60896" lon="6.12528">
        <ele>296.91</ele>
        <time>2026-08-11T13:21:21.319Z</time>
      </trkpt>
      <trkpt lat="49.60888" lon="6.12517">
        <ele>296.62</ele>
        <time>2026-08-11T13:22:30.325Z</time>
      </trkpt>
      <trkpt lat="49.60894" lon="6.1253">
        <ele>296.92</ele>
        <time>2026-08-11T13:23:16.321Z</time>
      </trkpt>
      <trkpt lat="49.60907" lon="6.12552">
        <ele>296.92</ele>
        <time>2026-08-11T13:23:21.420Z</time>
      </trkpt>
      <trkpt lat="49.60924" lon="6.12594">
        <ele>297.22</ele>
        <time>2026-08-11T13:23:27.350Z</time>
      </trkpt>
      <trkpt lat="49.60933" lon="6.12627">
        <ele>297.22</ele>
        <time>2026-08-11T13:23:32.365Z</time>
      </trkpt>
      <trkpt lat="49.60759" lon="6.12712">
        <ele>296.62</ele>
        <time>2026-08-11T13:24:26.349Z</time>
      </trkpt>
      <trkpt lat="49.60749" lon="6.1271">
        <ele>296.63</ele>
        <time>2026-08-11T13:24:34.337Z</time>
      </trkpt>
      <trkpt lat="49.6074" lon="6.127">
        <ele>295.31</ele>
        <time>2026-08-11T13:24:39.350Z</time>
      </trkpt>
      <trkpt lat="49.60731" lon="6.12698">
        <ele>295.23</ele>
        <time>2026-08-11T13:24:45.324Z</time>
      </trkpt>
      <trkpt lat="49.60724" lon="6.12716">
        <ele>295.23</ele>
        <time>2026-08-11T13:24:50.344Z</time>
      </trkpt>
      <trkpt lat="49.60723" lon="6.12732">
        <ele>295.23</ele>
        <time>2026-08-11T13:24:58.342Z</time>
      </trkpt>
      <trkpt lat="49.60714" lon="6.12746">
        <ele>295.23</ele>
        <time>2026-08-11T13:25:04.345Z</time>
      </trkpt>
      <trkpt lat="49.60716" lon="6.12772">
        <ele>300.33</ele>
        <time>2026-08-11T13:25:10.348Z</time>
      </trkpt>
      <trkpt lat="49.60719" lon="6.12787">
        <ele>302.03</ele>
        <time>2026-08-11T13:25:16.342Z</time>
      </trkpt>
      <trkpt lat="49.60728" lon="6.128">
        <ele>295.24</ele>
        <time>2026-08-11T13:25:40.335Z</time>
      </trkpt>
      <trkpt lat="49.60734" lon="6.12818">
        <ele>295.23</ele>
        <time>2026-08-11T13:25:45.341Z</time>
      </trkpt>
      <trkpt lat="49.60745" lon="6.12831">
        <ele>295.23</ele>
        <time>2026-08-11T13:25:51.321Z</time>
      </trkpt>
      <trkpt lat="49.60753" lon="6.12842">
        <ele>296.12</ele>
        <time>2026-08-11T13:25:56.334Z</time>
      </trkpt>
      <trkpt lat="49.60761" lon="6.12848">
        <ele>296.12</ele>
        <time>2026-08-11T13:26:01.403Z</time>
      </trkpt>
      <trkpt lat="49.60762" lon="6.12864">
        <ele>296.12</ele>
        <time>2026-08-11T13:26:07.404Z</time>
      </trkpt>
      <trkpt lat="49.60757" lon="6.12875">
        <ele>298.19</ele>
        <time>2026-08-11T13:28:13.460Z</time>
      </trkpt>
      <trkpt lat="49.60755" lon="6.1286">
        <ele>295.23</ele>
        <time>2026-08-11T13:30:39.337Z</time>
      </trkpt>
      <trkpt lat="49.60751" lon="6.12875">
        <ele>305.1</ele>
        <time>2026-08-11T13:31:35.339Z</time>
      </trkpt>
      <trkpt lat="49.60759" lon="6.1287">
        <ele>295.23</ele>
        <time>2026-08-11T13:34:37.402Z</time>
      </trkpt>
      <trkpt lat="49.60759" lon="6.12852">
        <ele>296.23</ele>
        <time>2026-08-11T13:36:17.323Z</time>
      </trkpt>
      <trkpt lat="49.60751" lon="6.1284">
        <ele>301.66</ele>
        <time>2026-08-11T13:36:22.335Z</time>
      </trkpt>
      <trkpt lat="49.60736" lon="6.12841">
        <ele>302.03</ele>
        <time>2026-08-11T13:36:27.343Z</time>
      </trkpt>
      <trkpt lat="49.60728" lon="6.12821">
        <ele>302.03</ele>
        <time>2026-08-11T13:36:33.328Z</time>
      </trkpt>
      <trkpt lat="49.60721" lon="6.12807">
        <ele>295.35</ele>
        <time>2026-08-11T13:36:38.337Z</time>
      </trkpt>
      <trkpt lat="49.60714" lon="6.1279">
        <ele>302.02</ele>
        <time>2026-08-11T13:37:15.334Z</time>
      </trkpt>
      <trkpt lat="49.60698" lon="6.12809">
        <ele>295.23</ele>
        <time>2026-08-11T13:37:21.350Z</time>
      </trkpt>
      <trkpt lat="49.6068" lon="6.12811">
        <ele>295.13</ele>
        <time>2026-08-11T13:37:27.336Z</time>
      </trkpt>
      <trkpt lat="49.60667" lon="6.1282">
        <ele>295.13</ele>
        <time>2026-08-11T13:37:32.339Z</time>
      </trkpt>
      <trkpt lat="49.60652" lon="6.12831">
        <ele>295.13</ele>
        <time>2026-08-11T13:37:37.382Z</time>
      </trkpt>
      <trkpt lat="49.60635" lon="6.12853">
        <ele>295.13</ele>
        <time>2026-08-11T13:37:43.387Z</time>
      </trkpt>
      <trkpt lat="49.60616" lon="6.12867">
        <ele>294.53</ele>
        <time>2026-08-11T13:37:49.405Z</time>
      </trkpt>
      <trkpt lat="49.60596" lon="6.12882">
        <ele>294.53</ele>
        <time>2026-08-11T13:37:55.401Z</time>
      </trkpt>
      <trkpt lat="49.60577" lon="6.12895">
        <ele>294.53</ele>
        <time>2026-08-11T13:38:01.416Z</time>
      </trkpt>
      <trkpt lat="49.60559" lon="6.12928">
        <ele>294.04</ele>
        <time>2026-08-11T13:38:07.393Z</time>
      </trkpt>
      <trkpt lat="49.60538" lon="6.12941">
        <ele>294.03</ele>
        <time>2026-08-11T13:38:13.389Z</time>
      </trkpt>
      <trkpt lat="49.60519" lon="6.12953">
        <ele>294.03</ele>
        <time>2026-08-11T13:38:19.405Z</time>
      </trkpt>
      <trkpt lat="49.60506" lon="6.12963">
        <ele>294.03</ele>
        <time>2026-08-11T13:38:25.402Z</time>
      </trkpt>
      <trkpt lat="49.60496" lon="6.12966">
        <ele>293.53</ele>
        <time>2026-08-11T13:38:41.325Z</time>
      </trkpt>
      <trkpt lat="49.60483" lon="6.1298">
        <ele>293.53</ele>
        <time>2026-08-11T13:38:46.326Z</time>
      </trkpt>
      <trkpt lat="49.60469" lon="6.12978">
        <ele>292.93</ele>
        <time>2026-08-11T13:38:51.337Z</time>
      </trkpt>
      <trkpt lat="49.60456" lon="6.1299">
        <ele>292.93</ele>
        <time>2026-08-11T13:38:57.334Z</time>
      </trkpt>
      <trkpt lat="49.60445" lon="6.13">
        <ele>292.93</ele>
        <time>2026-08-11T13:39:03.332Z</time>
      </trkpt>
      <trkpt lat="49.60437" lon="6.13014">
        <ele>292.43</ele>
        <time>2026-08-11T13:39:12.326Z</time>
      </trkpt>
      <trkpt lat="49.60423" lon="6.13019">
        <ele>292.43</ele>
        <time>2026-08-11T13:39:28.335Z</time>
      </trkpt>
      <trkpt lat="49.60401" lon="6.13037">
        <ele>292.43</ele>
        <time>2026-08-11T13:39:34.319Z</time>
      </trkpt>
      <trkpt lat="49.60383" lon="6.13062">
        <ele>292.43</ele>
        <time>2026-08-11T13:39:39.340Z</time>
      </trkpt>
      <trkpt lat="49.60372" lon="6.13064">
        <ele>292.43</ele>
        <time>2026-08-11T13:39:46.346Z</time>
      </trkpt>
      <trkpt lat="49.60361" lon="6.13054">
        <ele>292.03</ele>
        <time>2026-08-11T13:39:52.335Z</time>
      </trkpt>
      <trkpt lat="49.60357" lon="6.13069">
        <ele>291.33</ele>
        <time>2026-08-11T13:42:33.325Z</time>
      </trkpt>
      <trkpt lat="49.60352" lon="6.13088">
        <ele>291.33</ele>
        <time>2026-08-11T13:42:39.320Z</time>
      </trkpt>
      <trkpt lat="49.6034" lon="6.13109">
        <ele>292.03</ele>
        <time>2026-08-11T13:42:44.329Z</time>
      </trkpt>
      <trkpt lat="49.60332" lon="6.13133">
        <ele>292.03</ele>
        <time>2026-08-11T13:42:49.395Z</time>
      </trkpt>
      <trkpt lat="49.60325" lon="6.13172">
        <ele>292.03</ele>
        <time>2026-08-11T13:42:55.380Z</time>
      </trkpt>
      <trkpt lat="49.60324" lon="6.1321">
        <ele>291.83</ele>
        <time>2026-08-11T13:43:01.394Z</time>
      </trkpt>
      <trkpt lat="49.60319" lon="6.13251">
        <ele>291.83</ele>
        <time>2026-08-11T13:43:07.397Z</time>
      </trkpt>
      <trkpt lat="49.60316" lon="6.13279">
        <ele>291.83</ele>
        <time>2026-08-11T13:43:13.392Z</time>
      </trkpt>
      <trkpt lat="49.60307" lon="6.13288">
        <ele>291.03</ele>
        <time>2026-08-11T13:43:32.324Z</time>
      </trkpt>
      <trkpt lat="49.60297" lon="6.133">
        <ele>291.03</ele>
        <time>2026-08-11T13:43:43.379Z</time>
      </trkpt>
      <trkpt lat="49.60267" lon="6.13298">
        <ele>291.03</ele>
        <time>2026-08-11T13:43:49.395Z</time>
      </trkpt>
      <trkpt lat="49.60239" lon="6.13296">
        <ele>291.03</ele>
        <time>2026-08-11T13:43:55.384Z</time>
      </trkpt>
      <trkpt lat="49.60206" lon="6.13306">
        <ele>290.13</ele>
        <time>2026-08-11T13:44:01.396Z</time>
      </trkpt>
      <trkpt lat="49.6017" lon="6.13311">
        <ele>290.13</ele>
        <time>2026-08-11T13:44:07.392Z</time>
      </trkpt>
      <trkpt lat="49.60143" lon="6.13318">
        <ele>290.13</ele>
        <time>2026-08-11T13:44:13.383Z</time>
      </trkpt>
      <trkpt lat="49.60113" lon="6.13316">
        <ele>288.54</ele>
        <time>2026-08-11T13:44:19.390Z</time>
      </trkpt>
      <trkpt lat="49.60085" lon="6.13336">
        <ele>288.53</ele>
        <time>2026-08-11T13:44:25.400Z</time>
      </trkpt>
      <trkpt lat="49.60055" lon="6.13368">
        <ele>288.53</ele>
        <time>2026-08-11T13:44:31.388Z</time>
      </trkpt>
      <trkpt lat="49.6003" lon="6.13382">
        <ele>286.43</ele>
        <time>2026-08-11T13:44:37.396Z</time>
      </trkpt>
      <trkpt lat="49.60019" lon="6.13386">
        <ele>285.73</ele>
        <time>2026-08-11T13:44:43.397Z</time>
      </trkpt>
      <trkpt lat="49.60028" lon="6.13383">
        <ele>285.73</ele>
        <time>2026-08-11T13:44:52.327Z</time>
      </trkpt>
      <trkpt lat="49.60019" lon="6.13377">
        <ele>285.73</ele>
        <time>2026-08-11T13:45:31.380Z</time>
      </trkpt>
      <trkpt lat="49.60017" lon="6.13361">
        <ele>285.63</ele>
        <time>2026-08-11T13:45:42.324Z</time>
      </trkpt>
      <trkpt lat="49.60018" lon="6.1334">
        <ele>285.73</ele>
        <time>2026-08-11T13:45:47.339Z</time>
      </trkpt>
      <trkpt lat="49.60024" lon="6.13328">
        <ele>285.73</ele>
        <time>2026-08-11T13:45:55.377Z</time>
      </trkpt>
      <trkpt lat="49.60019" lon="6.13316">
        <ele>285.83</ele>
        <time>2026-08-11T13:46:07.391Z</time>
      </trkpt>
      <trkpt lat="49.60009" lon="6.13321">
        <ele>285.83</ele>
        <time>2026-08-11T13:46:13.387Z</time>
      </trkpt>
      <trkpt lat="49.60005" lon="6.13334">
        <ele>285.63</ele>
        <time>2026-08-11T13:46:51.338Z</time>
      </trkpt>
      <trkpt lat="49.60015" lon="6.13341">
        <ele>285.83</ele>
        <time>2026-08-11T13:47:23.318Z</time>
      </trkpt>
      <trkpt lat="49.60032" lon="6.13328">
        <ele>286.13</ele>
        <time>2026-08-11T13:47:28.323Z</time>
      </trkpt>
      <trkpt lat="49.60026" lon="6.13318">
        <ele>286.13</ele>
        <time>2026-08-11T13:47:40.324Z</time>
      </trkpt>
      <trkpt lat="49.60024" lon="6.13304">
        <ele>286.13</ele>
        <time>2026-08-11T13:47:49.396Z</time>
      </trkpt>
      <trkpt lat="49.60021" lon="6.13291">
        <ele>286.13</ele>
        <time>2026-08-11T13:47:55.392Z</time>
      </trkpt>
      <trkpt lat="49.60031" lon="6.13286">
        <ele>286.13</ele>
        <time>2026-08-11T13:48:41.338Z</time>
      </trkpt>
      <trkpt lat="49.60032" lon="6.13272">
        <ele>286.13</ele>
        <time>2026-08-11T13:48:52.323Z</time>
      </trkpt>
      <trkpt lat="49.60036" lon="6.13256">
        <ele>286.13</ele>
        <time>2026-08-11T13:49:15.336Z</time>
      </trkpt>
      <trkpt lat="49.60039" lon="6.13238">
        <ele>286.23</ele>
        <time>2026-08-11T13:49:26.319Z</time>
      </trkpt>
      <trkpt lat="49.60042" lon="6.13224">
        <ele>286.23</ele>
        <time>2026-08-11T13:49:32.336Z</time>
      </trkpt>
      <trkpt lat="49.60047" lon="6.13204">
        <ele>286.63</ele>
        <time>2026-08-11T13:49:48.321Z</time>
      </trkpt>
      <trkpt lat="49.6005" lon="6.13185">
        <ele>286.73</ele>
        <time>2026-08-11T13:49:53.333Z</time>
      </trkpt>
      <trkpt lat="49.60054" lon="6.13167">
        <ele>286.83</ele>
        <time>2026-08-11T13:50:53.333Z</time>
      </trkpt>
      <trkpt lat="49.60045" lon="6.13173">
        <ele>286.83</ele>
        <time>2026-08-11T13:52:12.336Z</time>
      </trkpt>
      <trkpt lat="49.60055" lon="6.13166">
        <ele>287.03</ele>
        <time>2026-08-11T13:52:55.381Z</time>
      </trkpt>
      <trkpt lat="49.60065" lon="6.13164">
        <ele>286.83</ele>
        <time>2026-08-11T13:56:27.337Z</time>
      </trkpt>
      <trkpt lat="49.60056" lon="6.13168">
        <ele>286.83</ele>
        <time>2026-08-11T13:57:14.317Z</time>
      </trkpt>
      <trkpt lat="49.60061" lon="6.13155">
        <ele>286.83</ele>
        <time>2026-08-11T14:02:16.338Z</time>
      </trkpt>
      <trkpt lat="49.60058" lon="6.13168">
        <ele>286.83</ele>
        <time>2026-08-11T14:04:36.330Z</time>
      </trkpt>
      <trkpt lat="49.60059" lon="6.13154">
        <ele>286.83</ele>
        <time>2026-08-11T14:07:00.681Z</time>
      </trkpt>
      <trkpt lat="49.6007" lon="6.13118">
        <ele>286.53</ele>
        <time>2026-08-11T14:07:06.339Z</time>
      </trkpt>
      <trkpt lat="49.60081" lon="6.13089">
        <ele>286.53</ele>
        <time>2026-08-11T14:07:11.940Z</time>
      </trkpt>
      <trkpt lat="49.60094" lon="6.13065">
        <ele>286.53</ele>
        <time>2026-08-11T14:07:17.277Z</time>
      </trkpt>
      <trkpt lat="49.60098" lon="6.13031">
        <ele>286.53</ele>
        <time>2026-08-11T14:07:22.393Z</time>
      </trkpt>
      <trkpt lat="49.60091" lon="6.12989">
        <ele>286.53</ele>
        <time>2026-08-11T14:07:28.339Z</time>
      </trkpt>
      <trkpt lat="49.60077" lon="6.12942">
        <ele>286.53</ele>
        <time>2026-08-11T14:07:34.216Z</time>
      </trkpt>
      <trkpt lat="49.6007" lon="6.12906">
        <ele>286.53</ele>
        <time>2026-08-11T14:07:39.333Z</time>
      </trkpt>
      <trkpt lat="49.60064" lon="6.12882">
        <ele>286.53</ele>
        <time>2026-08-11T14:07:45.093Z</time>
      </trkpt>
      <trkpt lat="49.60062" lon="6.12865">
        <ele>283.74</ele>
        <time>2026-08-11T14:07:52.326Z</time>
      </trkpt>
      <trkpt lat="49.60051" lon="6.12839">
        <ele>283.73</ele>
        <time>2026-08-11T14:07:57.711Z</time>
      </trkpt>
      <trkpt lat="49.6004" lon="6.12815">
        <ele>283.74</ele>
        <time>2026-08-11T14:08:02.847Z</time>
      </trkpt>
      <trkpt lat="49.60053" lon="6.12795">
        <ele>282.33</ele>
        <time>2026-08-11T14:08:08.313Z</time>
      </trkpt>
      <trkpt lat="49.60071" lon="6.12791">
        <ele>282.23</ele>
        <time>2026-08-11T14:08:14.187Z</time>
      </trkpt>
      <trkpt lat="49.60094" lon="6.12779">
        <ele>282.23</ele>
        <time>2026-08-11T14:08:19.351Z</time>
      </trkpt>
      <trkpt lat="49.60128" lon="6.12763">
        <ele>282.23</ele>
        <time>2026-08-11T14:08:25.381Z</time>
      </trkpt>
      <trkpt lat="49.60144" lon="6.12791">
        <ele>282.23</ele>
        <time>2026-08-11T14:08:31.398Z</time>
      </trkpt>
      <trkpt lat="49.60154" lon="6.12818">
        <ele>283.36</ele>
        <time>2026-08-11T14:08:37.360Z</time>
      </trkpt>
      <trkpt lat="49.60167" lon="6.12835">
        <ele>283.43</ele>
        <time>2026-08-11T14:08:43.349Z</time>
      </trkpt>
      <trkpt lat="49.6017" lon="6.12858">
        <ele>283.43</ele>
        <time>2026-08-11T14:08:49.357Z</time>
      </trkpt>
      <trkpt lat="49.60184" lon="6.12904">
        <ele>284.56</ele>
        <time>2026-08-11T14:08:55.373Z</time>
      </trkpt>
      <trkpt lat="49.60191" lon="6.12932">
        <ele>284.63</ele>
        <time>2026-08-11T14:09:01.385Z</time>
      </trkpt>
      <trkpt lat="49.60195" lon="6.12959">
        <ele>284.63</ele>
        <time>2026-08-11T14:09:07.350Z</time>
      </trkpt>
      <trkpt lat="49.602" lon="6.12985">
        <ele>285.42</ele>
        <time>2026-08-11T14:09:13.355Z</time>
      </trkpt>
      <trkpt lat="49.602" lon="6.13002">
        <ele>285.43</ele>
        <time>2026-08-11T14:09:19.350Z</time>
      </trkpt>
      <trkpt lat="49.60201" lon="6.13037">
        <ele>286.93</ele>
        <time>2026-08-11T14:09:25.385Z</time>
      </trkpt>
      <trkpt lat="49.60209" lon="6.13062">
        <ele>286.93</ele>
        <time>2026-08-11T14:09:31.384Z</time>
      </trkpt>
      <trkpt lat="49.60221" lon="6.13087">
        <ele>288.43</ele>
        <time>2026-08-11T14:09:37.352Z</time>
      </trkpt>
      <trkpt lat="49.60233" lon="6.13096">
        <ele>288.53</ele>
        <time>2026-08-11T14:09:43.363Z</time>
      </trkpt>
      <trkpt lat="49.60247" lon="6.13091">
        <ele>288.53</ele>
        <time>2026-08-11T14:09:49.368Z</time>
      </trkpt>
      <trkpt lat="49.60264" lon="6.13084">
        <ele>288.53</ele>
        <time>2026-08-11T14:09:55.395Z</time>
      </trkpt>
      <trkpt lat="49.60288" lon="6.13071">
        <ele>288.53</ele>
        <time>2026-08-11T14:10:01.377Z</time>
      </trkpt>
      <trkpt lat="49.60301" lon="6.13066">
        <ele>288.53</ele>
        <time>2026-08-11T14:10:07.358Z</time>
      </trkpt>
      <trkpt lat="49.60313" lon="6.13066">
        <ele>290.56</ele>
        <time>2026-08-11T14:10:13.355Z</time>
      </trkpt>
      <trkpt lat="49.6033" lon="6.13078">
        <ele>291.23</ele>
        <time>2026-08-11T14:10:19.353Z</time>
      </trkpt>
      <trkpt lat="49.60332" lon="6.13102">
        <ele>291.23</ele>
        <time>2026-08-11T14:10:25.399Z</time>
      </trkpt>
      <trkpt lat="49.60327" lon="6.13113">
        <ele>291.93</ele>
        <time>2026-08-11T14:10:48.308Z</time>
      </trkpt>
      <trkpt lat="49.60328" lon="6.13128">
        <ele>292.03</ele>
        <time>2026-08-11T14:11:24.310Z</time>
      </trkpt>
      <trkpt lat="49.60323" lon="6.13151">
        <ele>291.83</ele>
        <time>2026-08-11T14:11:29.321Z</time>
      </trkpt>
      <trkpt lat="49.60315" lon="6.13185">
        <ele>291.83</ele>
        <time>2026-08-11T14:11:34.321Z</time>
      </trkpt>
      <trkpt lat="49.60315" lon="6.13219">
        <ele>291.83</ele>
        <time>2026-08-11T14:11:39.334Z</time>
      </trkpt>
      <trkpt lat="49.6031" lon="6.13247">
        <ele>291.83</ele>
        <time>2026-08-11T14:11:44.339Z</time>
      </trkpt>
      <trkpt lat="49.60311" lon="6.13273">
        <ele>291.23</ele>
        <time>2026-08-11T14:11:49.355Z</time>
      </trkpt>
      <trkpt lat="49.60304" lon="6.13305">
        <ele>291.03</ele>
        <time>2026-08-11T14:11:55.576Z</time>
      </trkpt>
      <trkpt lat="49.60317" lon="6.13319">
        <ele>291.03</ele>
        <time>2026-08-11T14:12:01.386Z</time>
      </trkpt>
      <trkpt lat="49.60341" lon="6.13327">
        <ele>290.63</ele>
        <time>2026-08-11T14:12:07.368Z</time>
      </trkpt>
      <trkpt lat="49.60355" lon="6.13327">
        <ele>290.53</ele>
        <time>2026-08-11T14:12:27.318Z</time>
      </trkpt>
      <trkpt lat="49.60366" lon="6.13321">
        <ele>290.53</ele>
        <time>2026-08-11T14:12:32.322Z</time>
      </trkpt>
      <trkpt lat="49.6038" lon="6.13321">
        <ele>290.43</ele>
        <time>2026-08-11T14:12:37.360Z</time>
      </trkpt>
      <trkpt lat="49.60406" lon="6.13336">
        <ele>290.43</ele>
        <time>2026-08-11T14:12:43.364Z</time>
      </trkpt>
      <trkpt lat="49.60428" lon="6.13344">
        <ele>290.43</ele>
        <time>2026-08-11T14:12:49.366Z</time>
      </trkpt>
      <trkpt lat="49.60441" lon="6.13351">
        <ele>290.43</ele>
        <time>2026-08-11T14:12:55.395Z</time>
      </trkpt>
      <trkpt lat="49.6045" lon="6.13353">
        <ele>289.83</ele>
        <time>2026-08-11T14:13:01.373Z</time>
      </trkpt>
      <trkpt lat="49.60459" lon="6.13353">
        <ele>289.73</ele>
        <time>2026-08-11T14:13:18.328Z</time>
      </trkpt>
      <trkpt lat="49.60469" lon="6.1335">
        <ele>289.82</ele>
        <time>2026-08-11T14:13:24.330Z</time>
      </trkpt>
      <trkpt lat="49.60471" lon="6.13336">
        <ele>289.83</ele>
        <time>2026-08-11T14:13:30.340Z</time>
      </trkpt>
      <trkpt lat="49.60482" lon="6.13338">
        <ele>289.73</ele>
        <time>2026-08-11T14:13:36.336Z</time>
      </trkpt>
      <trkpt lat="49.60496" lon="6.13346">
        <ele>289.73</ele>
        <time>2026-08-11T14:13:42.322Z</time>
      </trkpt>
      <trkpt lat="49.60515" lon="6.13351">
        <ele>289.83</ele>
        <time>2026-08-11T14:13:47.326Z</time>
      </trkpt>
      <trkpt lat="49.60536" lon="6.13351">
        <ele>289.83</ele>
        <time>2026-08-11T14:13:52.332Z</time>
      </trkpt>
      <trkpt lat="49.60561" lon="6.13352">
        <ele>289.83</ele>
        <time>2026-08-11T14:13:58.327Z</time>
      </trkpt>
      <trkpt lat="49.60584" lon="6.13357">
        <ele>289.63</ele>
        <time>2026-08-11T14:14:04.316Z</time>
      </trkpt>
      <trkpt lat="49.60603" lon="6.13356">
        <ele>289.62</ele>
        <time>2026-08-11T14:14:09.331Z</time>
      </trkpt>
      <trkpt lat="49.60627" lon="6.13355">
        <ele>278.33</ele>
        <time>2026-08-11T14:14:15.331Z</time>
      </trkpt>
      <trkpt lat="49.60645" lon="6.13354">
        <ele>278.32</ele>
        <time>2026-08-11T14:14:20.336Z</time>
      </trkpt>
      <trkpt lat="49.60664" lon="6.13352">
        <ele>279.62</ele>
        <time>2026-08-11T14:14:25.396Z</time>
      </trkpt>
      <trkpt lat="49.60687" lon="6.13344">
        <ele>279.62</ele>
        <time>2026-08-11T14:14:31.396Z</time>
      </trkpt>
      <trkpt lat="49.60702" lon="6.13333">
        <ele>279.62</ele>
        <time>2026-08-11T14:14:37.361Z</time>
      </trkpt>
      <trkpt lat="49.60717" lon="6.13318">
        <ele>278.65</ele>
        <time>2026-08-11T14:14:43.362Z</time>
      </trkpt>
      <trkpt lat="49.60734" lon="6.13309">
        <ele>278.32</ele>
        <time>2026-08-11T14:14:49.372Z</time>
      </trkpt>
      <trkpt lat="49.60753" lon="6.13294">
        <ele>278.32</ele>
        <time>2026-08-11T14:14:55.384Z</time>
      </trkpt>
      <trkpt lat="49.60764" lon="6.13283">
        <ele>278.32</ele>
        <time>2026-08-11T14:15:01.377Z</time>
      </trkpt>
      <trkpt lat="49.60782" lon="6.1327">
        <ele>278.32</ele>
        <time>2026-08-11T14:15:07.358Z</time>
      </trkpt>
      <trkpt lat="49.60799" lon="6.13259">
        <ele>278.32</ele>
        <time>2026-08-11T14:15:13.365Z</time>
      </trkpt>
      <trkpt lat="49.60813" lon="6.13251">
        <ele>279.92</ele>
        <time>2026-08-11T14:15:19.389Z</time>
      </trkpt>
      <trkpt lat="49.60825" lon="6.13234">
        <ele>279.92</ele>
        <time>2026-08-11T14:15:25.388Z</time>
      </trkpt>
      <trkpt lat="49.60827" lon="6.1322">
        <ele>297.32</ele>
        <time>2026-08-11T14:15:44.331Z</time>
      </trkpt>
      <trkpt lat="49.60836" lon="6.1322">
        <ele>297.32</ele>
        <time>2026-08-11T14:15:51.327Z</time>
      </trkpt>
      <trkpt lat="49.60844" lon="6.13228">
        <ele>297.32</ele>
        <time>2026-08-11T14:15:56.332Z</time>
      </trkpt>
      <trkpt lat="49.60863" lon="6.13207">
        <ele>298.3</ele>
        <time>2026-08-11T14:16:01.389Z</time>
      </trkpt>
      <trkpt lat="49.60877" lon="6.13192">
        <ele>298.62</ele>
        <time>2026-08-11T14:16:06.389Z</time>
      </trkpt>
      <trkpt lat="49.60872" lon="6.13206">
        <ele>298.52</ele>
        <time>2026-08-11T14:16:17.337Z</time>
      </trkpt>
      <trkpt lat="49.60859" lon="6.13225">
        <ele>298.52</ele>
        <time>2026-08-11T14:16:23.326Z</time>
      </trkpt>
      <trkpt lat="49.60854" lon="6.13242">
        <ele>298.52</ele>
        <time>2026-08-11T14:16:28.332Z</time>
      </trkpt>
      <trkpt lat="49.60846" lon="6.13264">
        <ele>298.52</ele>
        <time>2026-08-11T14:16:34.336Z</time>
      </trkpt>
      <trkpt lat="49.6084" lon="6.13287">
        <ele>298.42</ele>
        <time>2026-08-11T14:16:40.332Z</time>
      </trkpt>
      <trkpt lat="49.60828" lon="6.133">
        <ele>298.42</ele>
        <time>2026-08-11T14:16:46.327Z</time>
      </trkpt>
      <trkpt lat="49.60824" lon="6.13314">
        <ele>297.12</ele>
        <time>2026-08-11T14:16:52.321Z</time>
      </trkpt>
      <trkpt lat="49.60824" lon="6.13335">
        <ele>297.12</ele>
        <time>2026-08-11T14:16:57.330Z</time>
      </trkpt>
      <trkpt lat="49.60833" lon="6.13345">
        <ele>297.12</ele>
        <time>2026-08-11T14:17:02.338Z</time>
      </trkpt>
      <trkpt lat="49.60849" lon="6.13359">
        <ele>297.12</ele>
        <time>2026-08-11T14:17:07.355Z</time>
      </trkpt>
      <trkpt lat="49.60856" lon="6.13374">
        <ele>295.92</ele>
        <time>2026-08-11T14:17:13.399Z</time>
      </trkpt>
      <trkpt lat="49.60849" lon="6.1339">
        <ele>296.2</ele>
        <time>2026-08-11T14:17:22.355Z</time>
      </trkpt>
      <trkpt lat="49.60835" lon="6.13408">
        <ele>296.22</ele>
        <time>2026-08-11T14:17:28.325Z</time>
      </trkpt>
      <trkpt lat="49.60844" lon="6.13404">
        <ele>294.33</ele>
        <time>2026-08-11T14:17:38.335Z</time>
      </trkpt>
      <trkpt lat="49.60854" lon="6.13398">
        <ele>294.32</ele>
        <time>2026-08-11T14:17:49.363Z</time>
      </trkpt>
      <trkpt lat="49.60873" lon="6.13403">
        <ele>294.32</ele>
        <time>2026-08-11T14:17:55.379Z</time>
      </trkpt>
      <trkpt lat="49.60889" lon="6.13413">
        <ele>294.32</ele>
        <time>2026-08-11T14:18:01.381Z</time>
      </trkpt>
      <trkpt lat="49.60898" lon="6.13409">
        <ele>294.32</ele>
        <time>2026-08-11T14:18:07.361Z</time>
      </trkpt>
      <trkpt lat="49.60907" lon="6.13408">
        <ele>289.12</ele>
        <time>2026-08-11T14:18:27.363Z</time>
      </trkpt>
      <trkpt lat="49.60915" lon="6.13398">
        <ele>285.36</ele>
        <time>2026-08-11T14:19:52.332Z</time>
      </trkpt>
      <trkpt lat="49.60925" lon="6.13391">
        <ele>285.32</ele>
        <time>2026-08-11T14:19:58.322Z</time>
      </trkpt>
      <trkpt lat="49.6094" lon="6.13394">
        <ele>285.32</ele>
        <time>2026-08-11T14:20:03.329Z</time>
      </trkpt>
      <trkpt lat="49.60956" lon="6.13384">
        <ele>285.32</ele>
        <time>2026-08-11T14:20:09.330Z</time>
      </trkpt>
      <trkpt lat="49.60971" lon="6.13392">
        <ele>285.32</ele>
        <time>2026-08-11T14:20:15.313Z</time>
      </trkpt>
      <trkpt lat="49.60978" lon="6.1341">
        <ele>284.62</ele>
        <time>2026-08-11T14:20:20.353Z</time>
      </trkpt>
      <trkpt lat="49.60987" lon="6.13419">
        <ele>284.62</ele>
        <time>2026-08-11T14:20:27.319Z</time>
      </trkpt>
      <trkpt lat="49.60999" lon="6.13425">
        <ele>290.61</ele>
        <time>2026-08-11T14:20:32.322Z</time>
      </trkpt>
      <trkpt lat="49.61008" lon="6.13432">
        <ele>290.62</ele>
        <time>2026-08-11T14:20:37.362Z</time>
      </trkpt>
      <trkpt lat="49.6102" lon="6.13438">
        <ele>290.62</ele>
        <time>2026-08-11T14:20:43.370Z</time>
      </trkpt>
      <trkpt lat="49.61029" lon="6.13449">
        <ele>287.27</ele>
        <time>2026-08-11T14:20:49.363Z</time>
      </trkpt>
      <trkpt lat="49.61043" lon="6.13444">
        <ele>287.22</ele>
        <time>2026-08-11T14:20:55.380Z</time>
      </trkpt>
      <trkpt lat="49.61051" lon="6.13455">
        <ele>287.22</ele>
        <time>2026-08-11T14:21:01.388Z</time>
      </trkpt>
      <trkpt lat="49.61059" lon="6.13463">
        <ele>289.92</ele>
        <time>2026-08-11T14:21:07.363Z</time>
      </trkpt>
      <trkpt lat="49.61069" lon="6.13466">
        <ele>290.82</ele>
        <time>2026-08-11T14:21:13.360Z</time>
      </trkpt>
      <trkpt lat="49.61076" lon="6.13475">
        <ele>293.77</ele>
        <time>2026-08-11T14:21:19.370Z</time>
      </trkpt>
      <trkpt lat="49.61085" lon="6.13486">
        <ele>293.82</ele>
        <time>2026-08-11T14:21:25.383Z</time>
      </trkpt>
      <trkpt lat="49.61088" lon="6.13502">
        <ele>293.82</ele>
        <time>2026-08-11T14:21:31.382Z</time>
      </trkpt>
      <trkpt lat="49.61092" lon="6.13515">
        <ele>293.82</ele>
        <time>2026-08-11T14:21:37.380Z</time>
      </trkpt>
      <trkpt lat="49.61102" lon="6.13524">
        <ele>294.01</ele>
        <time>2026-08-11T14:21:43.372Z</time>
      </trkpt>
      <trkpt lat="49.61113" lon="6.13526">
        <ele>294.02</ele>
        <time>2026-08-11T14:21:49.371Z</time>
      </trkpt>
      <trkpt lat="49.61121" lon="6.13534">
        <ele>294.02</ele>
        <time>2026-08-11T14:21:55.377Z</time>
      </trkpt>
      <trkpt lat="49.61127" lon="6.13547">
        <ele>294.71</ele>
        <time>2026-08-11T14:22:02.331Z</time>
      </trkpt>
      <trkpt lat="49.61139" lon="6.13549">
        <ele>294.72</ele>
        <time>2026-08-11T14:22:10.334Z</time>
      </trkpt>
      <trkpt lat="49.6115" lon="6.13546">
        <ele>294.72</ele>
        <time>2026-08-11T14:22:31.374Z</time>
      </trkpt>
      <trkpt lat="49.61158" lon="6.13556">
        <ele>294.72</ele>
        <time>2026-08-11T14:22:37.370Z</time>
      </trkpt>
      <trkpt lat="49.61161" lon="6.13572">
        <ele>294.72</ele>
        <time>2026-08-11T14:22:43.372Z</time>
      </trkpt>
      <trkpt lat="49.61164" lon="6.13587">
        <ele>298.52</ele>
        <time>2026-08-11T14:22:55.382Z</time>
      </trkpt>
      <trkpt lat="49.61165" lon="6.13602">
        <ele>298.52</ele>
        <time>2026-08-11T14:23:01.362Z</time>
      </trkpt>
      <trkpt lat="49.61169" lon="6.13616">
        <ele>256.59</ele>
        <time>2026-08-11T14:23:10.324Z</time>
      </trkpt>
      <trkpt lat="49.61172" lon="6.13631">
        <ele>291.31</ele>
        <time>2026-08-11T14:23:19.374Z</time>
      </trkpt>
      <trkpt lat="49.61175" lon="6.13644">
        <ele>298.5</ele>
        <time>2026-08-11T14:23:29.347Z</time>
      </trkpt>
      <trkpt lat="49.61168" lon="6.13656">
        <ele>300.31</ele>
        <time>2026-08-11T14:23:39.353Z</time>
      </trkpt>
      <trkpt lat="49.61164" lon="6.13642">
        <ele>294.72</ele>
        <time>2026-08-11T14:25:22.354Z</time>
      </trkpt>
      <trkpt lat="49.61155" lon="6.13633">
        <ele>294.72</ele>
        <time>2026-08-11T14:25:39.327Z</time>
      </trkpt>
      <trkpt lat="49.61146" lon="6.1363">
        <ele>239.29</ele>
        <time>2026-08-11T14:26:02.352Z</time>
      </trkpt>
      <trkpt lat="49.61158" lon="6.13628">
        <ele>294.72</ele>
        <time>2026-08-11T14:27:56.385Z</time>
      </trkpt>
      <trkpt lat="49.61172" lon="6.13646">
        <ele>294.72</ele>
        <time>2026-08-11T14:28:25.316Z</time>
      </trkpt>
      <trkpt lat="49.61177" lon="6.13658">
        <ele>298.52</ele>
        <time>2026-08-11T14:28:55.164Z</time>
      </trkpt>
      <trkpt lat="49.61186" lon="6.13659">
        <ele>298.52</ele>
        <time>2026-08-11T14:29:07.375Z</time>
      </trkpt>
      <trkpt lat="49.61196" lon="6.13655">
        <ele>298.52</ele>
        <time>2026-08-11T14:29:12.975Z</time>
      </trkpt>
      <trkpt lat="49.61186" lon="6.13657">
        <ele>252.37</ele>
        <time>2026-08-11T14:31:07.365Z</time>
      </trkpt>
      <trkpt lat="49.61177" lon="6.13652">
        <ele>290.82</ele>
        <time>2026-08-11T14:31:34.323Z</time>
      </trkpt>
      <trkpt lat="49.61185" lon="6.1366">
        <ele>262.62</ele>
        <time>2026-08-11T14:32:53.339Z</time>
      </trkpt>
      <trkpt lat="49.6117" lon="6.13663">
        <ele>243.04</ele>
        <time>2026-08-11T14:35:14.336Z</time>
      </trkpt>
      <trkpt lat="49.6116" lon="6.13659">
        <ele>242.33</ele>
        <time>2026-08-11T14:35:30.898Z</time>
      </trkpt>
      <trkpt lat="49.61169" lon="6.13655">
        <ele>246.83</ele>
        <time>2026-08-11T14:36:32.333Z</time>
      </trkpt>
      <trkpt lat="49.61169" lon="6.13641">
        <ele>246.45</ele>
        <time>2026-08-11T14:36:37.385Z</time>
      </trkpt>
      <trkpt lat="49.61166" lon="6.13625">
        <ele>245.56</ele>
        <time>2026-08-11T14:36:43.379Z</time>
      </trkpt>
      <trkpt lat="49.61164" lon="6.1361">
        <ele>243.89</ele>
        <time>2026-08-11T14:36:50.336Z</time>
      </trkpt>
      <trkpt lat="49.61161" lon="6.13595">
        <ele>243.34</ele>
        <time>2026-08-11T14:36:56.339Z</time>
      </trkpt>
      <trkpt lat="49.61159" lon="6.1358">
        <ele>242.67</ele>
        <time>2026-08-11T14:37:01.391Z</time>
      </trkpt>
      <trkpt lat="49.61155" lon="6.13561">
        <ele>242.68</ele>
        <time>2026-08-11T14:37:07.383Z</time>
      </trkpt>
      <trkpt lat="49.61153" lon="6.13542">
        <ele>244.09</ele>
        <time>2026-08-11T14:37:13.383Z</time>
      </trkpt>
      <trkpt lat="49.61148" lon="6.13522">
        <ele>246.55</ele>
        <time>2026-08-11T14:37:19.389Z</time>
      </trkpt>
      <trkpt lat="49.61144" lon="6.13504">
        <ele>248.86</ele>
        <time>2026-08-11T14:37:25.401Z</time>
      </trkpt>
      <trkpt lat="49.61138" lon="6.13492">
        <ele>251.22</ele>
        <time>2026-08-11T14:37:31.395Z</time>
      </trkpt>
      <trkpt lat="49.61133" lon="6.13479">
        <ele>254.78</ele>
        <time>2026-08-11T14:37:39.335Z</time>
      </trkpt>
      <trkpt lat="49.61133" lon="6.13461">
        <ele>257.17</ele>
        <time>2026-08-11T14:40:56.336Z</time>
      </trkpt>
      <trkpt lat="49.61138" lon="6.13487">
        <ele>243.83</ele>
        <time>2026-08-11T14:42:24.337Z</time>
      </trkpt>
      <trkpt lat="49.61129" lon="6.13487">
        <ele>238.1</ele>
        <time>2026-08-11T14:42:42.333Z</time>
      </trkpt>
      <trkpt lat="49.61115" lon="6.13484">
        <ele>243.62</ele>
        <time>2026-08-11T14:42:48.372Z</time>
      </trkpt>
      <trkpt lat="49.61121" lon="6.13472">
        <ele>247.82</ele>
        <time>2026-08-11T14:44:03.040Z</time>
      </trkpt>
      <trkpt lat="49.61127" lon="6.13459">
        <ele>247.4</ele>
        <time>2026-08-11T14:44:12.340Z</time>
      </trkpt>
      <trkpt lat="49.61139" lon="6.1347">
        <ele>255.13</ele>
        <time>2026-08-11T14:44:28.342Z</time>
      </trkpt>
      <trkpt lat="49.61135" lon="6.13457">
        <ele>255.06</ele>
        <time>2026-08-11T14:45:31.658Z</time>
      </trkpt>
      <trkpt lat="49.61134" lon="6.1344">
        <ele>252.45</ele>
        <time>2026-08-11T14:45:37.385Z</time>
      </trkpt>
      <trkpt lat="49.61131" lon="6.13426">
        <ele>249.83</ele>
        <time>2026-08-11T14:45:43.389Z</time>
      </trkpt>
      <trkpt lat="49.61135" lon="6.1341">
        <ele>248.84</ele>
        <time>2026-08-11T14:45:49.390Z</time>
      </trkpt>
      <trkpt lat="49.61139" lon="6.13396">
        <ele>249.26</ele>
        <time>2026-08-11T14:45:55.394Z</time>
      </trkpt>
      <trkpt lat="49.6114" lon="6.1338">
        <ele>250.43</ele>
        <time>2026-08-11T14:46:01.390Z</time>
      </trkpt>
      <trkpt lat="49.61141" lon="6.13366">
        <ele>250.95</ele>
        <time>2026-08-11T14:46:07.389Z</time>
      </trkpt>
      <trkpt lat="49.61139" lon="6.13352">
        <ele>250.6</ele>
        <time>2026-08-11T14:46:14.338Z</time>
      </trkpt>
      <trkpt lat="49.61141" lon="6.13336">
        <ele>251.64</ele>
        <time>2026-08-11T14:46:21.334Z</time>
      </trkpt>
      <trkpt lat="49.61146" lon="6.13322">
        <ele>253.85</ele>
        <time>2026-08-11T14:46:27.330Z</time>
      </trkpt>
      <trkpt lat="49.61146" lon="6.13308">
        <ele>255.01</ele>
        <time>2026-08-11T14:46:35.344Z</time>
      </trkpt>
      <trkpt lat="49.61145" lon="6.13293">
        <ele>256.07</ele>
        <time>2026-08-11T14:46:41.337Z</time>
      </trkpt>
      <trkpt lat="49.61145" lon="6.13278">
        <ele>256.09</ele>
        <time>2026-08-11T14:46:47.343Z</time>
      </trkpt>
      <trkpt lat="49.61144" lon="6.13263">
        <ele>256.22</ele>
        <time>2026-08-11T14:46:54.340Z</time>
      </trkpt>
      <trkpt lat="49.61146" lon="6.13249">
        <ele>256.73</ele>
        <time>2026-08-11T14:47:02.345Z</time>
      </trkpt>
      <trkpt lat="49.61154" lon="6.13244">
        <ele>256.77</ele>
        <time>2026-08-11T14:47:13.381Z</time>
      </trkpt>
      <trkpt lat="49.61173" lon="6.13235">
        <ele>257.29</ele>
        <time>2026-08-11T14:47:19.382Z</time>
      </trkpt>
      <trkpt lat="49.61185" lon="6.13228">
        <ele>256.95</ele>
        <time>2026-08-11T14:47:25.404Z</time>
      </trkpt>
      <trkpt lat="49.6119" lon="6.13211">
        <ele>256.59</ele>
        <time>2026-08-11T14:47:31.393Z</time>
      </trkpt>
      <trkpt lat="49.61193" lon="6.13195">
        <ele>254.81</ele>
        <time>2026-08-11T14:47:38.341Z</time>
      </trkpt>
      <trkpt lat="49.61196" lon="6.13182">
        <ele>253.61</ele>
        <time>2026-08-11T14:47:44.340Z</time>
      </trkpt>
      <trkpt lat="49.61201" lon="6.13169">
        <ele>252.17</ele>
        <time>2026-08-11T14:47:53.343Z</time>
      </trkpt>
      <trkpt lat="49.61201" lon="6.13154">
        <ele>252.69</ele>
        <time>2026-08-11T14:47:59.344Z</time>
      </trkpt>
      <trkpt lat="49.61202" lon="6.13137">
        <ele>252.8</ele>
        <time>2026-08-11T14:48:05.346Z</time>
      </trkpt>
      <trkpt lat="49.61204" lon="6.13114">
        <ele>253.52</ele>
        <time>2026-08-11T14:48:11.341Z</time>
      </trkpt>
      <trkpt lat="49.61206" lon="6.13099">
        <ele>253.04</ele>
        <time>2026-08-11T14:48:16.344Z</time>
      </trkpt>
      <trkpt lat="49.61205" lon="6.13079">
        <ele>252.52</ele>
        <time>2026-08-11T14:48:22.340Z</time>
      </trkpt>
      <trkpt lat="49.61206" lon="6.13062">
        <ele>252.08</ele>
        <time>2026-08-11T14:48:27.342Z</time>
      </trkpt>
      <trkpt lat="49.61206" lon="6.13047">
        <ele>250.48</ele>
        <time>2026-08-11T14:48:32.347Z</time>
      </trkpt>
      <trkpt lat="49.61205" lon="6.13028">
        <ele>248.5</ele>
        <time>2026-08-11T14:48:37.381Z</time>
      </trkpt>
      <trkpt lat="49.61205" lon="6.13006">
        <ele>248.64</ele>
        <time>2026-08-11T14:48:43.382Z</time>
      </trkpt>
      <trkpt lat="49.61208" lon="6.12992">
        <ele>247.01</ele>
        <time>2026-08-11T14:48:49.387Z</time>
      </trkpt>
      <trkpt lat="49.61206" lon="6.12974">
        <ele>245.67</ele>
        <time>2026-08-11T14:48:59.345Z</time>
      </trkpt>
      <trkpt lat="49.61205" lon="6.12957">
        <ele>243.89</ele>
        <time>2026-08-11T14:49:05.347Z</time>
      </trkpt>
      <trkpt lat="49.61206" lon="6.1294">
        <ele>243.94</ele>
        <time>2026-08-11T14:49:41.340Z</time>
      </trkpt>
      <trkpt lat="49.61208" lon="6.12924">
        <ele>244.97</ele>
        <time>2026-08-11T14:49:51.346Z</time>
      </trkpt>
      <trkpt lat="49.61211" lon="6.12908">
        <ele>247.09</ele>
        <time>2026-08-11T14:49:57.346Z</time>
      </trkpt>
      <trkpt lat="49.61213" lon="6.1289">
        <ele>248.77</ele>
        <time>2026-08-11T14:50:09.331Z</time>
      </trkpt>
      <trkpt lat="49.61214" lon="6.12876">
        <ele>251.25</ele>
        <time>2026-08-11T14:50:15.338Z</time>
      </trkpt>
      <trkpt lat="49.61214" lon="6.12862">
        <ele>253.41</ele>
        <time>2026-08-11T14:50:24.336Z</time>
      </trkpt>
      <trkpt lat="49.61214" lon="6.12847">
        <ele>254.41</ele>
        <time>2026-08-11T14:50:33.337Z</time>
      </trkpt>
      <trkpt lat="49.61212" lon="6.12832">
        <ele>254.52</ele>
        <time>2026-08-11T14:50:42.341Z</time>
      </trkpt>
      <trkpt lat="49.61206" lon="6.12819">
        <ele>253.97</ele>
        <time>2026-08-11T14:51:12.350Z</time>
      </trkpt>
      <trkpt lat="49.61193" lon="6.12816">
        <ele>253.52</ele>
        <time>2026-08-11T14:51:18.340Z</time>
      </trkpt>
      <trkpt lat="49.61184" lon="6.12812">
        <ele>253.23</ele>
        <time>2026-08-11T14:51:23.344Z</time>
      </trkpt>
      <trkpt lat="49.61174" lon="6.1281">
        <ele>252.83</ele>
        <time>2026-08-11T14:51:29.339Z</time>
      </trkpt>
      <trkpt lat="49.61165" lon="6.12808">
        <ele>252.54</ele>
        <time>2026-08-11T14:51:35.346Z</time>
      </trkpt>
      <trkpt lat="49.61156" lon="6.12804">
        <ele>252.71</ele>
        <time>2026-08-11T14:51:42.347Z</time>
      </trkpt>
      <trkpt lat="49.61142" lon="6.12799">
        <ele>253.17</ele>
        <time>2026-08-11T14:51:59.366Z</time>
      </trkpt>
      <trkpt lat="49.61141" lon="6.12817">
        <ele>252.42</ele>
        <time>2026-08-11T14:52:17.342Z</time>
      </trkpt>
      <trkpt lat="49.61144" lon="6.12832">
        <ele>251.72</ele>
        <time>2026-08-11T14:52:25.412Z</time>
      </trkpt>
      <trkpt lat="49.61149" lon="6.12849">
        <ele>251.15</ele>
        <time>2026-08-11T14:52:31.393Z</time>
      </trkpt>
      <trkpt lat="49.61147" lon="6.12867">
        <ele>250.89</ele>
        <time>2026-08-11T14:52:45.331Z</time>
      </trkpt>
      <trkpt lat="49.6114" lon="6.12877">
        <ele>251.34</ele>
        <time>2026-08-11T14:52:51.344Z</time>
      </trkpt>
      <trkpt lat="49.61134" lon="6.1289">
        <ele>252.33</ele>
        <time>2026-08-11T14:52:59.344Z</time>
      </trkpt>
      <trkpt lat="49.61136" lon="6.12906">
        <ele>254.39</ele>
        <time>2026-08-11T14:53:15.332Z</time>
      </trkpt>
      <trkpt lat="49.61136" lon="6.1292">
        <ele>256.52</ele>
        <time>2026-08-11T14:53:30.340Z</time>
      </trkpt>
      <trkpt lat="49.6113" lon="6.12904">
        <ele>257.13</ele>
        <time>2026-08-11T14:53:43.387Z</time>
      </trkpt>
      <trkpt lat="49.61135" lon="6.12923">
        <ele>255.89</ele>
        <time>2026-08-11T14:54:12.318Z</time>
      </trkpt>
      <trkpt lat="49.61135" lon="6.12937">
        <ele>257.36</ele>
        <time>2026-08-11T14:54:17.331Z</time>
      </trkpt>
      <trkpt lat="49.61133" lon="6.12951">
        <ele>258.87</ele>
        <time>2026-08-11T14:54:27.341Z</time>
      </trkpt>
      <trkpt lat="49.61133" lon="6.12966">
        <ele>258.35</ele>
        <time>2026-08-11T14:54:36.346Z</time>
      </trkpt>
      <trkpt lat="49.61124" lon="6.12975">
        <ele>257.29</ele>
        <time>2026-08-11T14:55:09.338Z</time>
      </trkpt>
      <trkpt lat="49.61112" lon="6.12972">
        <ele>257.39</ele>
        <time>2026-08-11T14:55:21.337Z</time>
      </trkpt>
      <trkpt lat="49.61099" lon="6.12968">
        <ele>257.25</ele>
        <time>2026-08-11T14:55:26.343Z</time>
      </trkpt>
      <trkpt lat="49.61089" lon="6.12967">
        <ele>256.28</ele>
        <time>2026-08-11T14:55:33.343Z</time>
      </trkpt>
      <trkpt lat="49.6108" lon="6.12961">
        <ele>255.36</ele>
        <time>2026-08-11T14:55:39.337Z</time>
      </trkpt>
      <trkpt lat="49.61071" lon="6.12957">
        <ele>254.56</ele>
        <time>2026-08-11T14:55:49.387Z</time>
      </trkpt>
      <trkpt lat="49.61062" lon="6.12955">
        <ele>254.22</ele>
        <time>2026-08-11T14:55:58.336Z</time>
      </trkpt>
      <trkpt lat="49.6105" lon="6.1296">
        <ele>253.56</ele>
        <time>2026-08-11T14:56:12.335Z</time>
      </trkpt>
      <trkpt lat="49.61038" lon="6.12962">
        <ele>252.88</ele>
        <time>2026-08-11T14:56:27.333Z</time>
      </trkpt>
      <trkpt lat="49.61026" lon="6.12961">
        <ele>253.05</ele>
        <time>2026-08-11T14:56:43.387Z</time>
      </trkpt>
      <trkpt lat="49.61014" lon="6.1296">
        <ele>252.85</ele>
        <time>2026-08-11T14:57:00.340Z</time>
      </trkpt>
      <trkpt lat="49.61004" lon="6.12963">
        <ele>253.66</ele>
        <time>2026-08-11T14:57:09.335Z</time>
      </trkpt>
      <trkpt lat="49.61001" lon="6.12979">
        <ele>255.74</ele>
        <time>2026-08-11T14:57:44.328Z</time>
      </trkpt>
      <trkpt lat="49.61001" lon="6.12995">
        <ele>256.63</ele>
        <time>2026-08-11T14:57:49.395Z</time>
      </trkpt>
      <trkpt lat="49.61001" lon="6.13023">
        <ele>255.99</ele>
        <time>2026-08-11T14:57:55.390Z</time>
      </trkpt>
      <trkpt lat="49.61003" lon="6.1305">
        <ele>255.26</ele>
        <time>2026-08-11T14:58:01.388Z</time>
      </trkpt>
      <trkpt lat="49.61006" lon="6.13076">
        <ele>256.11</ele>
        <time>2026-08-11T14:58:07.376Z</time>
      </trkpt>
      <trkpt lat="49.61007" lon="6.13102">
        <ele>258.53</ele>
        <time>2026-08-11T14:58:13.379Z</time>
      </trkpt>
      <trkpt lat="49.61007" lon="6.13133">
        <ele>255.84</ele>
        <time>2026-08-11T14:58:19.376Z</time>
      </trkpt>
      <trkpt lat="49.61006" lon="6.1316">
        <ele>253.37</ele>
        <time>2026-08-11T14:58:25.386Z</time>
      </trkpt>
      <trkpt lat="49.61005" lon="6.13184">
        <ele>250.87</ele>
        <time>2026-08-11T14:58:31.384Z</time>
      </trkpt>
      <trkpt lat="49.61009" lon="6.13209">
        <ele>248.65</ele>
        <time>2026-08-11T14:58:37.377Z</time>
      </trkpt>
      <trkpt lat="49.61013" lon="6.13231">
        <ele>250.5</ele>
        <time>2026-08-11T14:58:43.396Z</time>
      </trkpt>
      <trkpt lat="49.61019" lon="6.13245">
        <ele>252.69</ele>
        <time>2026-08-11T14:58:53.337Z</time>
      </trkpt>
      <trkpt lat="49.61027" lon="6.13257">
        <ele>254.27</ele>
        <time>2026-08-11T14:58:58.339Z</time>
      </trkpt>
      <trkpt lat="49.61035" lon="6.13275">
        <ele>254.29</ele>
        <time>2026-08-11T14:59:13.383Z</time>
      </trkpt>
      <trkpt lat="49.61044" lon="6.13286">
        <ele>255.4</ele>
        <time>2026-08-11T14:59:19.384Z</time>
      </trkpt>
      <trkpt lat="49.61039" lon="6.13297">
        <ele>255.92</ele>
        <time>2026-08-11T14:59:40.336Z</time>
      </trkpt>
      <trkpt lat="49.61026" lon="6.13322">
        <ele>253.19</ele>
        <time>2026-08-11T14:59:46.338Z</time>
      </trkpt>
      <trkpt lat="49.6101" lon="6.13338">
        <ele>250.44</ele>
        <time>2026-08-11T14:59:51.338Z</time>
      </trkpt>
      <trkpt lat="49.6099" lon="6.13336">
        <ele>246.98</ele>
        <time>2026-08-11T14:59:56.340Z</time>
      </trkpt>
      <trkpt lat="49.60973" lon="6.13336">
        <ele>242.78</ele>
        <time>2026-08-11T15:00:01.418Z</time>
      </trkpt>
      <trkpt lat="49.60945" lon="6.13343">
        <ele>241.37</ele>
        <time>2026-08-11T15:00:07.392Z</time>
      </trkpt>
      <trkpt lat="49.60919" lon="6.13345">
        <ele>238.57</ele>
        <time>2026-08-11T15:00:13.370Z</time>
      </trkpt>
      <trkpt lat="49.60899" lon="6.13348">
        <ele>235.72</ele>
        <time>2026-08-11T15:00:19.385Z</time>
      </trkpt>
      <trkpt lat="49.60878" lon="6.13361">
        <ele>236.75</ele>
        <time>2026-08-11T15:00:25.399Z</time>
      </trkpt>
      <trkpt lat="49.60864" lon="6.13373">
        <ele>241.26</ele>
        <time>2026-08-11T15:00:31.390Z</time>
      </trkpt>
      <trkpt lat="49.60853" lon="6.13382">
        <ele>244.39</ele>
        <time>2026-08-11T15:00:37.385Z</time>
      </trkpt>
      <trkpt lat="49.60836" lon="6.13395">
        <ele>242.86</ele>
        <time>2026-08-11T15:00:43.382Z</time>
      </trkpt>
      <trkpt lat="49.60829" lon="6.1341">
        <ele>241.36</ele>
        <time>2026-08-11T15:00:49.380Z</time>
      </trkpt>
      <trkpt lat="49.6085" lon="6.13396">
        <ele>240.38</ele>
        <time>2026-08-11T15:00:55.382Z</time>
      </trkpt>
      <trkpt lat="49.60873" lon="6.13393">
        <ele>235.65</ele>
        <time>2026-08-11T15:01:01.379Z</time>
      </trkpt>
      <trkpt lat="49.60884" lon="6.13403">
        <ele>231.56</ele>
        <time>2026-08-11T15:01:07.404Z</time>
      </trkpt>
      <trkpt lat="49.60894" lon="6.13404">
        <ele>231.85</ele>
        <time>2026-08-11T15:01:28.323Z</time>
      </trkpt>
      <trkpt lat="49.6091" lon="6.13395">
        <ele>232.09</ele>
        <time>2026-08-11T15:01:33.347Z</time>
      </trkpt>
      <trkpt lat="49.60923" lon="6.1339">
        <ele>231.78</ele>
        <time>2026-08-11T15:01:39.326Z</time>
      </trkpt>
      <trkpt lat="49.60935" lon="6.1339">
        <ele>232.28</ele>
        <time>2026-08-11T15:01:44.334Z</time>
      </trkpt>
      <trkpt lat="49.60952" lon="6.13387">
        <ele>233</ele>
        <time>2026-08-11T15:01:49.379Z</time>
      </trkpt>
      <trkpt lat="49.60969" lon="6.13391">
        <ele>233.2</ele>
        <time>2026-08-11T15:01:55.391Z</time>
      </trkpt>
      <trkpt lat="49.60981" lon="6.13411">
        <ele>236.12</ele>
        <time>2026-08-11T15:02:01.380Z</time>
      </trkpt>
      <trkpt lat="49.60987" lon="6.13425">
        <ele>235.27</ele>
        <time>2026-08-11T15:02:07.375Z</time>
      </trkpt>
      <trkpt lat="49.60982" lon="6.13412">
        <ele>234.33</ele>
        <time>2026-08-11T15:02:16.338Z</time>
      </trkpt>
      <trkpt lat="49.60978" lon="6.13393">
        <ele>233.79</ele>
        <time>2026-08-11T15:02:21.339Z</time>
      </trkpt>
      <trkpt lat="49.60988" lon="6.13394">
        <ele>233.13</ele>
        <time>2026-08-11T15:02:28.343Z</time>
      </trkpt>
      <trkpt lat="49.60997" lon="6.13394">
        <ele>233.28</ele>
        <time>2026-08-11T15:02:35.343Z</time>
      </trkpt>
      <trkpt lat="49.61007" lon="6.13397">
        <ele>234.12</ele>
        <time>2026-08-11T15:02:44.345Z</time>
      </trkpt>
      <trkpt lat="49.61016" lon="6.13396">
        <ele>234.05</ele>
        <time>2026-08-11T15:02:52.337Z</time>
      </trkpt>
      <trkpt lat="49.61026" lon="6.13403">
        <ele>234.21</ele>
        <time>2026-08-11T15:03:28.329Z</time>
      </trkpt>
      <trkpt lat="49.61016" lon="6.13402">
        <ele>233.99</ele>
        <time>2026-08-11T15:03:53.357Z</time>
      </trkpt>
      <trkpt lat="49.61" lon="6.13397">
        <ele>232.98</ele>
        <time>2026-08-11T15:03:59.330Z</time>
      </trkpt>
      <trkpt lat="49.60987" lon="6.13402">
        <ele>231.85</ele>
        <time>2026-08-11T15:04:04.330Z</time>
      </trkpt>
      <trkpt lat="49.60976" lon="6.13406">
        <ele>231.15</ele>
        <time>2026-08-11T15:04:10.326Z</time>
      </trkpt>
      <trkpt lat="49.60964" lon="6.1341">
        <ele>228.53</ele>
        <time>2026-08-11T15:04:15.335Z</time>
      </trkpt>
      <trkpt lat="49.60956" lon="6.13417">
        <ele>223.54</ele>
        <time>2026-08-11T15:04:28.329Z</time>
      </trkpt>
      <trkpt lat="49.60937" lon="6.13421">
        <ele>221.27</ele>
        <time>2026-08-11T15:04:33.344Z</time>
      </trkpt>
      <trkpt lat="49.60901" lon="6.13445">
        <ele>214.44</ele>
        <time>2026-08-11T15:04:39.319Z</time>
      </trkpt>
      <trkpt lat="49.60875" lon="6.13469">
        <ele>206.87</ele>
        <time>2026-08-11T15:04:44.328Z</time>
      </trkpt>
      <trkpt lat="49.60856" lon="6.13487">
        <ele>198.36</ele>
        <time>2026-08-11T15:04:49.380Z</time>
      </trkpt>
      <trkpt lat="49.60843" lon="6.13509">
        <ele>193.52</ele>
        <time>2026-08-11T15:04:55.401Z</time>
      </trkpt>
      <trkpt lat="49.60838" lon="6.13526">
        <ele>192.92</ele>
        <time>2026-08-11T15:05:01.380Z</time>
      </trkpt>
      <trkpt lat="49.60847" lon="6.1354">
        <ele>191.09</ele>
        <time>2026-08-11T15:05:09.334Z</time>
      </trkpt>
      <trkpt lat="49.60865" lon="6.1357">
        <ele>192.05</ele>
        <time>2026-08-11T15:05:15.325Z</time>
      </trkpt>
      <trkpt lat="49.60877" lon="6.13598">
        <ele>192.96</ele>
        <time>2026-08-11T15:05:20.334Z</time>
      </trkpt>
      <trkpt lat="49.6088" lon="6.13615">
        <ele>195.15</ele>
        <time>2026-08-11T15:05:25.410Z</time>
      </trkpt>
      <trkpt lat="49.60863" lon="6.13627">
        <ele>196.26</ele>
        <time>2026-08-11T15:05:31.390Z</time>
      </trkpt>
      <trkpt lat="49.60852" lon="6.13644">
        <ele>195.54</ele>
        <time>2026-08-11T15:05:37.395Z</time>
      </trkpt>
      <trkpt lat="49.60841" lon="6.13661">
        <ele>193.2</ele>
        <time>2026-08-11T15:05:43.388Z</time>
      </trkpt>
      <trkpt lat="49.60828" lon="6.13693">
        <ele>191.27</ele>
        <time>2026-08-11T15:05:49.391Z</time>
      </trkpt>
      <trkpt lat="49.60819" lon="6.13727">
        <ele>192.85</ele>
        <time>2026-08-11T15:05:55.392Z</time>
      </trkpt>
      <trkpt lat="49.60812" lon="6.13759">
        <ele>194.85</ele>
        <time>2026-08-11T15:06:01.369Z</time>
      </trkpt>
      <trkpt lat="49.6081" lon="6.13792">
        <ele>194.95</ele>
        <time>2026-08-11T15:06:07.396Z</time>
      </trkpt>
      <trkpt lat="49.60808" lon="6.13821">
        <ele>195.68</ele>
        <time>2026-08-11T15:06:13.385Z</time>
      </trkpt>
      <trkpt lat="49.6081" lon="6.13846">
        <ele>196.72</ele>
        <time>2026-08-11T15:06:19.371Z</time>
      </trkpt>
      <trkpt lat="49.60809" lon="6.13871">
        <ele>198.2</ele>
        <time>2026-08-11T15:06:25.412Z</time>
      </trkpt>
      <trkpt lat="49.60814" lon="6.139">
        <ele>198.49</ele>
        <time>2026-08-11T15:06:31.389Z</time>
      </trkpt>
      <trkpt lat="49.60822" lon="6.13936">
        <ele>197.97</ele>
        <time>2026-08-11T15:06:37.390Z</time>
      </trkpt>
      <trkpt lat="49.60836" lon="6.13952">
        <ele>202.23</ele>
        <time>2026-08-11T15:06:43.391Z</time>
      </trkpt>
      <trkpt lat="49.6085" lon="6.13969">
        <ele>207.45</ele>
        <time>2026-08-11T15:06:49.390Z</time>
      </trkpt>
      <trkpt lat="49.60853" lon="6.14014">
        <ele>207.48</ele>
        <time>2026-08-11T15:06:55.404Z</time>
      </trkpt>
      <trkpt lat="49.60864" lon="6.14049">
        <ele>204.19</ele>
        <time>2026-08-11T15:07:01.405Z</time>
      </trkpt>
      <trkpt lat="49.60887" lon="6.14071">
        <ele>201.42</ele>
        <time>2026-08-11T15:07:07.390Z</time>
      </trkpt>
      <trkpt lat="49.60907" lon="6.14096">
        <ele>200.12</ele>
        <time>2026-08-11T15:07:13.387Z</time>
      </trkpt>
      <trkpt lat="49.60923" lon="6.14122">
        <ele>198.74</ele>
        <time>2026-08-11T15:07:19.390Z</time>
      </trkpt>
      <trkpt lat="49.60937" lon="6.14146">
        <ele>198.13</ele>
        <time>2026-08-11T15:07:25.410Z</time>
      </trkpt>
      <trkpt lat="49.6095" lon="6.14176">
        <ele>196.12</ele>
        <time>2026-08-11T15:07:31.387Z</time>
      </trkpt>
      <trkpt lat="49.60963" lon="6.14204">
        <ele>197.03</ele>
        <time>2026-08-11T15:07:37.386Z</time>
      </trkpt>
      <trkpt lat="49.60974" lon="6.14237">
        <ele>195.65</ele>
        <time>2026-08-11T15:07:43.388Z</time>
      </trkpt>
      <trkpt lat="49.60984" lon="6.14283">
        <ele>193.08</ele>
        <time>2026-08-11T15:07:49.388Z</time>
      </trkpt>
      <trkpt lat="49.60992" lon="6.1433">
        <ele>193.83</ele>
        <time>2026-08-11T15:07:55.388Z</time>
      </trkpt>
      <trkpt lat="49.60997" lon="6.14372">
        <ele>196.84</ele>
        <time>2026-08-11T15:08:01.388Z</time>
      </trkpt>
      <trkpt lat="49.60998" lon="6.1441">
        <ele>203</ele>
        <time>2026-08-11T15:08:07.393Z</time>
      </trkpt>
      <trkpt lat="49.60994" lon="6.14444">
        <ele>205.32</ele>
        <time>2026-08-11T15:08:13.390Z</time>
      </trkpt>
      <trkpt lat="49.60986" lon="6.14476">
        <ele>208.34</ele>
        <time>2026-08-11T15:08:19.393Z</time>
      </trkpt>
      <trkpt lat="49.6098" lon="6.14508">
        <ele>210.39</ele>
        <time>2026-08-11T15:08:25.387Z</time>
      </trkpt>
      <trkpt lat="49.60974" lon="6.14539">
        <ele>211.23</ele>
        <time>2026-08-11T15:08:31.391Z</time>
      </trkpt>
      <trkpt lat="49.60967" lon="6.14571">
        <ele>211.42</ele>
        <time>2026-08-11T15:08:37.390Z</time>
      </trkpt>
      <trkpt lat="49.60961" lon="6.14602">
        <ele>209.99</ele>
        <time>2026-08-11T15:08:43.396Z</time>
      </trkpt>
      <trkpt lat="49.60953" lon="6.14633">
        <ele>209.77</ele>
        <time>2026-08-11T15:08:49.389Z</time>
      </trkpt>
      <trkpt lat="49.60946" lon="6.14665">
        <ele>210.48</ele>
        <time>2026-08-11T15:08:55.391Z</time>
      </trkpt>
      <trkpt lat="49.60939" lon="6.14699">
        <ele>210.84</ele>
        <time>2026-08-11T15:09:01.392Z</time>
      </trkpt>
      <trkpt lat="49.60933" lon="6.1473">
        <ele>210.83</ele>
        <time>2026-08-11T15:09:07.391Z</time>
      </trkpt>
      <trkpt lat="49.6092" lon="6.14758">
        <ele>210.39</ele>
        <time>2026-08-11T15:09:13.393Z</time>
      </trkpt>
      <trkpt lat="49.60918" lon="6.14779">
        <ele>209.32</ele>
        <time>2026-08-11T15:09:19.382Z</time>
      </trkpt>
      <trkpt lat="49.60903" lon="6.14813">
        <ele>206.36</ele>
        <time>2026-08-11T15:09:25.386Z</time>
      </trkpt>
      <trkpt lat="49.60886" lon="6.14867">
        <ele>203.2</ele>
        <time>2026-08-11T15:09:31.392Z</time>
      </trkpt>
      <trkpt lat="49.60878" lon="6.14908">
        <ele>204.27</ele>
        <time>2026-08-11T15:09:37.385Z</time>
      </trkpt>
      <trkpt lat="49.60878" lon="6.14941">
        <ele>202.04</ele>
        <time>2026-08-11T15:09:43.391Z</time>
      </trkpt>
      <trkpt lat="49.60878" lon="6.14978">
        <ele>199.8</ele>
        <time>2026-08-11T15:09:49.387Z</time>
      </trkpt>
      <trkpt lat="49.60881" lon="6.15009">
        <ele>199.5</ele>
        <time>2026-08-11T15:09:55.407Z</time>
      </trkpt>
      <trkpt lat="49.60885" lon="6.15031">
        <ele>199.87</ele>
        <time>2026-08-11T15:10:01.389Z</time>
      </trkpt>
      <trkpt lat="49.60889" lon="6.15061">
        <ele>197.75</ele>
        <time>2026-08-11T15:10:07.385Z</time>
      </trkpt>
      <trkpt lat="49.60881" lon="6.15092">
        <ele>198.29</ele>
        <time>2026-08-11T15:10:13.389Z</time>
      </trkpt>
      <trkpt lat="49.60862" lon="6.15114">
        <ele>199.17</ele>
        <time>2026-08-11T15:10:19.391Z</time>
      </trkpt>
      <trkpt lat="49.60836" lon="6.15136">
        <ele>198.49</ele>
        <time>2026-08-11T15:10:25.390Z</time>
      </trkpt>
      <trkpt lat="49.60805" lon="6.15146">
        <ele>197.57</ele>
        <time>2026-08-11T15:10:31.390Z</time>
      </trkpt>
      <trkpt lat="49.60774" lon="6.15145">
        <ele>198.06</ele>
        <time>2026-08-11T15:10:37.385Z</time>
      </trkpt>
      <trkpt lat="49.60744" lon="6.1513">
        <ele>199.4</ele>
        <time>2026-08-11T15:10:43.389Z</time>
      </trkpt>
      <trkpt lat="49.60715" lon="6.15098">
        <ele>198.62</ele>
        <time>2026-08-11T15:10:49.385Z</time>
      </trkpt>
      <trkpt lat="49.6069" lon="6.15058">
        <ele>199.08</ele>
        <time>2026-08-11T15:10:55.386Z</time>
      </trkpt>
      <trkpt lat="49.60671" lon="6.1502">
        <ele>199.69</ele>
        <time>2026-08-11T15:11:01.389Z</time>
      </trkpt>
      <trkpt lat="49.60651" lon="6.14984">
        <ele>199.67</ele>
        <time>2026-08-11T15:11:07.380Z</time>
      </trkpt>
      <trkpt lat="49.6064" lon="6.14945">
        <ele>198.18</ele>
        <time>2026-08-11T15:11:13.390Z</time>
      </trkpt>
      <trkpt lat="49.60624" lon="6.14907">
        <ele>195.57</ele>
        <time>2026-08-11T15:11:19.389Z</time>
      </trkpt>
      <trkpt lat="49.60603" lon="6.14868">
        <ele>196.11</ele>
        <time>2026-08-11T15:11:25.390Z</time>
      </trkpt>
      <trkpt lat="49.60583" lon="6.14834">
        <ele>194.95</ele>
        <time>2026-08-11T15:11:31.386Z</time>
      </trkpt>
      <trkpt lat="49.6056" lon="6.14799">
        <ele>195.19</ele>
        <time>2026-08-11T15:11:37.388Z</time>
      </trkpt>
      <trkpt lat="49.60543" lon="6.14764">
        <ele>193.77</ele>
        <time>2026-08-11T15:11:43.389Z</time>
      </trkpt>
      <trkpt lat="49.60526" lon="6.14719">
        <ele>192.84</ele>
        <time>2026-08-11T15:11:49.390Z</time>
      </trkpt>
      <trkpt lat="49.60505" lon="6.14677">
        <ele>193.1</ele>
        <time>2026-08-11T15:11:55.394Z</time>
      </trkpt>
      <trkpt lat="49.60487" lon="6.14632">
        <ele>194.29</ele>
        <time>2026-08-11T15:12:01.388Z</time>
      </trkpt>
      <trkpt lat="49.60469" lon="6.14589">
        <ele>194.37</ele>
        <time>2026-08-11T15:12:07.388Z</time>
      </trkpt>
      <trkpt lat="49.60448" lon="6.14548">
        <ele>191.78</ele>
        <time>2026-08-11T15:12:13.388Z</time>
      </trkpt>
      <trkpt lat="49.60427" lon="6.14506">
        <ele>190.13</ele>
        <time>2026-08-11T15:12:19.388Z</time>
      </trkpt>
      <trkpt lat="49.60401" lon="6.14472">
        <ele>191.3</ele>
        <time>2026-08-11T15:12:25.407Z</time>
      </trkpt>
      <trkpt lat="49.60373" lon="6.14441">
        <ele>192.51</ele>
        <time>2026-08-11T15:12:31.391Z</time>
      </trkpt>
      <trkpt lat="49.60342" lon="6.14412">
        <ele>195.37</ele>
        <time>2026-08-11T15:12:37.389Z</time>
      </trkpt>
      <trkpt lat="49.60312" lon="6.14392">
        <ele>195.19</ele>
        <time>2026-08-11T15:12:43.389Z</time>
      </trkpt>
      <trkpt lat="49.60277" lon="6.14388">
        <ele>194.62</ele>
        <time>2026-08-11T15:12:49.389Z</time>
      </trkpt>
      <trkpt lat="49.60246" lon="6.144">
        <ele>193.6</ele>
        <time>2026-08-11T15:12:55.411Z</time>
      </trkpt>
      <trkpt lat="49.6022" lon="6.14424">
        <ele>194.17</ele>
        <time>2026-08-11T15:13:01.384Z</time>
      </trkpt>
      <trkpt lat="49.60199" lon="6.1446">
        <ele>196.8</ele>
        <time>2026-08-11T15:13:07.391Z</time>
      </trkpt>
      <trkpt lat="49.60184" lon="6.14498">
        <ele>199.36</ele>
        <time>2026-08-11T15:13:13.389Z</time>
      </trkpt>
      <trkpt lat="49.60175" lon="6.14522">
        <ele>200.54</ele>
        <time>2026-08-11T15:13:19.389Z</time>
      </trkpt>
      <trkpt lat="49.60172" lon="6.14535">
        <ele>201.05</ele>
        <time>2026-08-11T15:13:25.386Z</time>
      </trkpt>
      <trkpt lat="49.60168" lon="6.1455">
        <ele>201.29</ele>
        <time>2026-08-11T15:14:27.337Z</time>
      </trkpt>
      <trkpt lat="49.60157" lon="6.14569">
        <ele>198.6</ele>
        <time>2026-08-11T15:14:33.332Z</time>
      </trkpt>
      <trkpt lat="49.60134" lon="6.14582">
        <ele>196.8</ele>
        <time>2026-08-11T15:14:38.345Z</time>
      </trkpt>
      <trkpt lat="49.60116" lon="6.14607">
        <ele>193.82</ele>
        <time>2026-08-11T15:14:43.393Z</time>
      </trkpt>
      <trkpt lat="49.60096" lon="6.14641">
        <ele>195.17</ele>
        <time>2026-08-11T15:14:49.391Z</time>
      </trkpt>
      <trkpt lat="49.60089" lon="6.14688">
        <ele>194.92</ele>
        <time>2026-08-11T15:14:55.409Z</time>
      </trkpt>
      <trkpt lat="49.60092" lon="6.14739">
        <ele>194.6</ele>
        <time>2026-08-11T15:15:01.398Z</time>
      </trkpt>
      <trkpt lat="49.601" lon="6.14787">
        <ele>193.94</ele>
        <time>2026-08-11T15:15:07.389Z</time>
      </trkpt>
      <trkpt lat="49.60111" lon="6.14827">
        <ele>194.85</ele>
        <time>2026-08-11T15:15:13.382Z</time>
      </trkpt>
      <trkpt lat="49.60126" lon="6.1487">
        <ele>195.56</ele>
        <time>2026-08-11T15:15:19.390Z</time>
      </trkpt>
      <trkpt lat="49.6014" lon="6.14917">
        <ele>195.55</ele>
        <time>2026-08-11T15:15:25.408Z</time>
      </trkpt>
      <trkpt lat="49.60158" lon="6.14955">
        <ele>193.74</ele>
        <time>2026-08-11T15:15:31.384Z</time>
      </trkpt>
      <trkpt lat="49.60173" lon="6.14993">
        <ele>192.73</ele>
        <time>2026-08-11T15:15:37.391Z</time>
      </trkpt>
      <trkpt lat="49.60189" lon="6.1503">
        <ele>192.26</ele>
        <time>2026-08-11T15:15:43.391Z</time>
      </trkpt>
      <trkpt lat="49.60205" lon="6.15072">
        <ele>192.66</ele>
        <time>2026-08-11T15:15:49.388Z</time>
      </trkpt>
      <trkpt lat="49.6022" lon="6.15115">
        <ele>194.99</ele>
        <time>2026-08-11T15:15:55.388Z</time>
      </trkpt>
      <trkpt lat="49.60234" lon="6.1516">
        <ele>194.56</ele>
        <time>2026-08-11T15:16:01.395Z</time>
      </trkpt>
      <trkpt lat="49.60248" lon="6.1521">
        <ele>195.62</ele>
        <time>2026-08-11T15:16:07.392Z</time>
      </trkpt>
      <trkpt lat="49.60261" lon="6.15258">
        <ele>200.44</ele>
        <time>2026-08-11T15:16:13.390Z</time>
      </trkpt>
      <trkpt lat="49.60269" lon="6.15309">
        <ele>204.28</ele>
        <time>2026-08-11T15:16:19.393Z</time>
      </trkpt>
      <trkpt lat="49.60277" lon="6.15359">
        <ele>208.04</ele>
        <time>2026-08-11T15:16:25.411Z</time>
      </trkpt>
      <trkpt lat="49.60288" lon="6.15411">
        <ele>208.35</ele>
        <time>2026-08-11T15:16:31.400Z</time>
      </trkpt>
      <trkpt lat="49.60295" lon="6.15462">
        <ele>209.57</ele>
        <time>2026-08-11T15:16:37.393Z</time>
      </trkpt>
      <trkpt lat="49.60295" lon="6.15509">
        <ele>211.56</ele>
        <time>2026-08-11T15:16:43.391Z</time>
      </trkpt>
      <trkpt lat="49.60298" lon="6.15563">
        <ele>214</ele>
        <time>2026-08-11T15:16:49.386Z</time>
      </trkpt>
      <trkpt lat="49.60307" lon="6.15618">
        <ele>215.41</ele>
        <time>2026-08-11T15:16:55.411Z</time>
      </trkpt>
      <trkpt lat="49.6032" lon="6.15677">
        <ele>212.14</ele>
        <time>2026-08-11T15:17:01.396Z</time>
      </trkpt>
      <trkpt lat="49.60333" lon="6.15729">
        <ele>208.31</ele>
        <time>2026-08-11T15:17:07.389Z</time>
      </trkpt>
      <trkpt lat="49.6035" lon="6.15776">
        <ele>208.38</ele>
        <time>2026-08-11T15:17:13.391Z</time>
      </trkpt>
      <trkpt lat="49.60368" lon="6.15809">
        <ele>208.01</ele>
        <time>2026-08-11T15:17:19.392Z</time>
      </trkpt>
      <trkpt lat="49.60386" lon="6.15839">
        <ele>207.81</ele>
        <time>2026-08-11T15:17:25.406Z</time>
      </trkpt>
      <trkpt lat="49.60409" lon="6.15867">
        <ele>206.39</ele>
        <time>2026-08-11T15:17:31.399Z</time>
      </trkpt>
      <trkpt lat="49.60433" lon="6.15896">
        <ele>205</ele>
        <time>2026-08-11T15:17:37.390Z</time>
      </trkpt>
      <trkpt lat="49.60456" lon="6.15925">
        <ele>202.06</ele>
        <time>2026-08-11T15:17:43.392Z</time>
      </trkpt>
      <trkpt lat="49.60481" lon="6.15947">
        <ele>198.94</ele>
        <time>2026-08-11T15:17:49.397Z</time>
      </trkpt>
      <trkpt lat="49.60509" lon="6.15965">
        <ele>198.89</ele>
        <time>2026-08-11T15:17:55.410Z</time>
      </trkpt>
      <trkpt lat="49.60535" lon="6.15985">
        <ele>199.19</ele>
        <time>2026-08-11T15:18:01.397Z</time>
      </trkpt>
      <trkpt lat="49.60563" lon="6.16">
        <ele>198.56</ele>
        <time>2026-08-11T15:18:07.391Z</time>
      </trkpt>
      <trkpt lat="49.60594" lon="6.16014">
        <ele>197.33</ele>
        <time>2026-08-11T15:18:13.389Z</time>
      </trkpt>
      <trkpt lat="49.60629" lon="6.16029">
        <ele>197.41</ele>
        <time>2026-08-11T15:18:19.392Z</time>
      </trkpt>
      <trkpt lat="49.6066" lon="6.16038">
        <ele>197.95</ele>
        <time>2026-08-11T15:18:25.410Z</time>
      </trkpt>
      <trkpt lat="49.60689" lon="6.1605">
        <ele>200.06</ele>
        <time>2026-08-11T15:18:31.397Z</time>
      </trkpt>
      <trkpt lat="49.60722" lon="6.16061">
        <ele>201.29</ele>
        <time>2026-08-11T15:18:37.389Z</time>
      </trkpt>
      <trkpt lat="49.60753" lon="6.16069">
        <ele>201.79</ele>
        <time>2026-08-11T15:18:43.392Z</time>
      </trkpt>
      <trkpt lat="49.60782" lon="6.16081">
        <ele>200.33</ele>
        <time>2026-08-11T15:18:49.393Z</time>
      </trkpt>
      <trkpt lat="49.60805" lon="6.16095">
        <ele>200.32</ele>
        <time>2026-08-11T15:18:55.407Z</time>
      </trkpt>
      <trkpt lat="49.60828" lon="6.16123">
        <ele>203.17</ele>
        <time>2026-08-11T15:19:01.397Z</time>
      </trkpt>
      <trkpt lat="49.60846" lon="6.16174">
        <ele>203.18</ele>
        <time>2026-08-11T15:19:07.391Z</time>
      </trkpt>
      <trkpt lat="49.60855" lon="6.16215">
        <ele>202.06</ele>
        <time>2026-08-11T15:19:13.393Z</time>
      </trkpt>
      <trkpt lat="49.60856" lon="6.16263">
        <ele>200.54</ele>
        <time>2026-08-11T15:19:19.392Z</time>
      </trkpt>
      <trkpt lat="49.60852" lon="6.16297">
        <ele>201.66</ele>
        <time>2026-08-11T15:19:25.413Z</time>
      </trkpt>
      <trkpt lat="49.60845" lon="6.16325">
        <ele>203.53</ele>
        <time>2026-08-11T15:19:31.408Z</time>
      </trkpt>
      <trkpt lat="49.60842" lon="6.16345">
        <ele>206.51</ele>
        <time>2026-08-11T15:19:37.391Z</time>
      </trkpt>
      <trkpt lat="49.60838" lon="6.16362">
        <ele>206.95</ele>
        <time>2026-08-11T15:19:43.389Z</time>
      </trkpt>
      <trkpt lat="49.60835" lon="6.1638">
        <ele>207.76</ele>
        <time>2026-08-11T15:19:49.393Z</time>
      </trkpt>
      <trkpt lat="49.60828" lon="6.16401">
        <ele>212.25</ele>
        <time>2026-08-11T15:19:55.407Z</time>
      </trkpt>
      <trkpt lat="49.60819" lon="6.16416">
        <ele>213.87</ele>
        <time>2026-08-11T15:20:01.396Z</time>
      </trkpt>
      <trkpt lat="49.60812" lon="6.16433">
        <ele>212.28</ele>
        <time>2026-08-11T15:20:07.392Z</time>
      </trkpt>
      <trkpt lat="49.60796" lon="6.16456">
        <ele>210.4</ele>
        <time>2026-08-11T15:20:13.480Z</time>
      </trkpt>
      <trkpt lat="49.60772" lon="6.16486">
        <ele>209.21</ele>
        <time>2026-08-11T15:20:19.381Z</time>
      </trkpt>
      <trkpt lat="49.60748" lon="6.16515">
        <ele>207.71</ele>
        <time>2026-08-11T15:20:25.474Z</time>
      </trkpt>
      <trkpt lat="49.60725" lon="6.16545">
        <ele>207.98</ele>
        <time>2026-08-11T15:20:31.393Z</time>
      </trkpt>
      <trkpt lat="49.60702" lon="6.16572">
        <ele>203.19</ele>
        <time>2026-08-11T15:20:37.387Z</time>
      </trkpt>
      <trkpt lat="49.60679" lon="6.16614">
        <ele>204.42</ele>
        <time>2026-08-11T15:20:43.382Z</time>
      </trkpt>
      <trkpt lat="49.60651" lon="6.16662">
        <ele>204.17</ele>
        <time>2026-08-11T15:20:49.377Z</time>
      </trkpt>
      <trkpt lat="49.60632" lon="6.16721">
        <ele>202.26</ele>
        <time>2026-08-11T15:20:55.378Z</time>
      </trkpt>
      <trkpt lat="49.60618" lon="6.16778">
        <ele>199.58</ele>
        <time>2026-08-11T15:21:01.383Z</time>
      </trkpt>
      <trkpt lat="49.6061" lon="6.16834">
        <ele>197.46</ele>
        <time>2026-08-11T15:21:07.375Z</time>
      </trkpt>
      <trkpt lat="49.60606" lon="6.16887">
        <ele>194.46</ele>
        <time>2026-08-11T15:21:13.378Z</time>
      </trkpt>
      <trkpt lat="49.606" lon="6.16932">
        <ele>193.58</ele>
        <time>2026-08-11T15:21:19.380Z</time>
      </trkpt>
      <trkpt lat="49.60576" lon="6.16974">
        <ele>194.22</ele>
        <time>2026-08-11T15:21:25.402Z</time>
      </trkpt>
      <trkpt lat="49.60551" lon="6.17012">
        <ele>189.66</ele>
        <time>2026-08-11T15:21:31.403Z</time>
      </trkpt>
      <trkpt lat="49.60521" lon="6.17045">
        <ele>190.85</ele>
        <time>2026-08-11T15:21:37.374Z</time>
      </trkpt>
      <trkpt lat="49.6049" lon="6.17067">
        <ele>194.98</ele>
        <time>2026-08-11T15:21:43.379Z</time>
      </trkpt>
      <trkpt lat="49.60458" lon="6.17076">
        <ele>196.34</ele>
        <time>2026-08-11T15:21:49.384Z</time>
      </trkpt>
      <trkpt lat="49.60431" lon="6.1708">
        <ele>196.37</ele>
        <time>2026-08-11T15:21:55.379Z</time>
      </trkpt>
      <trkpt lat="49.60404" lon="6.17081">
        <ele>198.02</ele>
        <time>2026-08-11T15:22:01.388Z</time>
      </trkpt>
      <trkpt lat="49.60378" lon="6.17076">
        <ele>199.41</ele>
        <time>2026-08-11T15:22:07.393Z</time>
      </trkpt>
      <trkpt lat="49.60346" lon="6.17063">
        <ele>200.51</ele>
        <time>2026-08-11T15:22:13.389Z</time>
      </trkpt>
      <trkpt lat="49.60319" lon="6.1704">
        <ele>200.65</ele>
        <time>2026-08-11T15:22:19.389Z</time>
      </trkpt>
      <trkpt lat="49.60291" lon="6.1701">
        <ele>200.2</ele>
        <time>2026-08-11T15:22:25.407Z</time>
      </trkpt>
      <trkpt lat="49.6027" lon="6.16981">
        <ele>201.66</ele>
        <time>2026-08-11T15:22:31.393Z</time>
      </trkpt>
      <trkpt lat="49.60245" lon="6.16939">
        <ele>204.56</ele>
        <time>2026-08-11T15:22:37.388Z</time>
      </trkpt>
      <trkpt lat="49.60226" lon="6.16894">
        <ele>209.48</ele>
        <time>2026-08-11T15:22:43.376Z</time>
      </trkpt>
      <trkpt lat="49.60211" lon="6.16858">
        <ele>212.32</ele>
        <time>2026-08-11T15:22:49.392Z</time>
      </trkpt>
      <trkpt lat="49.60198" lon="6.16818">
        <ele>212.18</ele>
        <time>2026-08-11T15:22:55.397Z</time>
      </trkpt>
      <trkpt lat="49.60193" lon="6.16779">
        <ele>212.68</ele>
        <time>2026-08-11T15:23:01.394Z</time>
      </trkpt>
      <trkpt lat="49.60187" lon="6.16727">
        <ele>214.3</ele>
        <time>2026-08-11T15:23:07.388Z</time>
      </trkpt>
      <trkpt lat="49.6018" lon="6.16677">
        <ele>216.69</ele>
        <time>2026-08-11T15:23:13.391Z</time>
      </trkpt>
      <trkpt lat="49.60173" lon="6.16627">
        <ele>220.57</ele>
        <time>2026-08-11T15:23:19.389Z</time>
      </trkpt>
      <trkpt lat="49.60168" lon="6.16583">
        <ele>222.79</ele>
        <time>2026-08-11T15:23:25.396Z</time>
      </trkpt>
      <trkpt lat="49.60162" lon="6.16534">
        <ele>226.88</ele>
        <time>2026-08-11T15:23:31.397Z</time>
      </trkpt>
      <trkpt lat="49.60153" lon="6.16481">
        <ele>230.54</ele>
        <time>2026-08-11T15:23:37.389Z</time>
      </trkpt>
      <trkpt lat="49.60144" lon="6.1643">
        <ele>234.62</ele>
        <time>2026-08-11T15:23:43.390Z</time>
      </trkpt>
      <trkpt lat="49.60132" lon="6.16385">
        <ele>236.68</ele>
        <time>2026-08-11T15:23:49.392Z</time>
      </trkpt>
      <trkpt lat="49.60116" lon="6.16341">
        <ele>235.78</ele>
        <time>2026-08-11T15:23:55.385Z</time>
      </trkpt>
      <trkpt lat="49.60098" lon="6.16297">
        <ele>228.99</ele>
        <time>2026-08-11T15:24:01.395Z</time>
      </trkpt>
      <trkpt lat="49.60076" lon="6.16264">
        <ele>220.63</ele>
        <time>2026-08-11T15:24:07.394Z</time>
      </trkpt>
      <trkpt lat="49.60044" lon="6.16228">
        <ele>213.29</ele>
        <time>2026-08-11T15:24:13.387Z</time>
      </trkpt>
      <trkpt lat="49.60018" lon="6.16194">
        <ele>206.42</ele>
        <time>2026-08-11T15:24:19.391Z</time>
      </trkpt>
      <trkpt lat="49.59991" lon="6.16161">
        <ele>204.51</ele>
        <time>2026-08-11T15:24:25.397Z</time>
      </trkpt>
      <trkpt lat="49.59963" lon="6.16135">
        <ele>204.26</ele>
        <time>2026-08-11T15:24:31.399Z</time>
      </trkpt>
      <trkpt lat="49.59932" lon="6.1611">
        <ele>204.25</ele>
        <time>2026-08-11T15:24:37.390Z</time>
      </trkpt>
      <trkpt lat="49.59903" lon="6.16091">
        <ele>203.81</ele>
        <time>2026-08-11T15:24:43.393Z</time>
      </trkpt>
      <trkpt lat="49.59871" lon="6.16077">
        <ele>203.88</ele>
        <time>2026-08-11T15:24:49.393Z</time>
      </trkpt>
      <trkpt lat="49.59839" lon="6.16066">
        <ele>201.26</ele>
        <time>2026-08-11T15:24:55.406Z</time>
      </trkpt>
      <trkpt lat="49.59808" lon="6.16056">
        <ele>196.09</ele>
        <time>2026-08-11T15:25:01.397Z</time>
      </trkpt>
      <trkpt lat="49.59775" lon="6.16051">
        <ele>195.85</ele>
        <time>2026-08-11T15:25:07.388Z</time>
      </trkpt>
      <trkpt lat="49.5974" lon="6.16059">
        <ele>194.56</ele>
        <time>2026-08-11T15:25:13.391Z</time>
      </trkpt>
      <trkpt lat="49.59711" lon="6.16075">
        <ele>194.51</ele>
        <time>2026-08-11T15:25:19.391Z</time>
      </trkpt>
      <trkpt lat="49.59678" lon="6.16094">
        <ele>192.94</ele>
        <time>2026-08-11T15:25:25.412Z</time>
      </trkpt>
      <trkpt lat="49.59643" lon="6.16118">
        <ele>194.59</ele>
        <time>2026-08-11T15:25:31.397Z</time>
      </trkpt>
      <trkpt lat="49.59611" lon="6.1613">
        <ele>193.63</ele>
        <time>2026-08-11T15:25:37.392Z</time>
      </trkpt>
      <trkpt lat="49.59579" lon="6.16136">
        <ele>192.77</ele>
        <time>2026-08-11T15:25:43.391Z</time>
      </trkpt>
      <trkpt lat="49.59544" lon="6.16134">
        <ele>191.56</ele>
        <time>2026-08-11T15:25:49.401Z</time>
      </trkpt>
      <trkpt lat="49.59512" lon="6.16124">
        <ele>190.56</ele>
        <time>2026-08-11T15:25:55.389Z</time>
      </trkpt>
      <trkpt lat="49.59488" lon="6.16108">
        <ele>189.35</ele>
        <time>2026-08-11T15:26:01.402Z</time>
      </trkpt>
      <trkpt lat="49.59469" lon="6.16083">
        <ele>187.65</ele>
        <time>2026-08-11T15:26:07.394Z</time>
      </trkpt>
      <trkpt lat="49.59442" lon="6.1605">
        <ele>187.61</ele>
        <time>2026-08-11T15:26:13.390Z</time>
      </trkpt>
      <trkpt lat="49.59415" lon="6.16015">
        <ele>188.15</ele>
        <time>2026-08-11T15:26:19.392Z</time>
      </trkpt>
      <trkpt lat="49.5939" lon="6.1598">
        <ele>187.61</ele>
        <time>2026-08-11T15:26:25.407Z</time>
      </trkpt>
      <trkpt lat="49.59362" lon="6.15942">
        <ele>187.67</ele>
        <time>2026-08-11T15:26:31.390Z</time>
      </trkpt>
      <trkpt lat="49.59331" lon="6.15897">
        <ele>188.41</ele>
        <time>2026-08-11T15:26:37.385Z</time>
      </trkpt>
      <trkpt lat="49.59303" lon="6.15858">
        <ele>189.5</ele>
        <time>2026-08-11T15:26:43.383Z</time>
      </trkpt>
      <trkpt lat="49.59277" lon="6.15819">
        <ele>191.36</ele>
        <time>2026-08-11T15:26:49.402Z</time>
      </trkpt>
      <trkpt lat="49.59252" lon="6.15781">
        <ele>191.48</ele>
        <time>2026-08-11T15:26:55.406Z</time>
      </trkpt>
      <trkpt lat="49.59224" lon="6.15748">
        <ele>190.56</ele>
        <time>2026-08-11T15:27:01.389Z</time>
      </trkpt>
      <trkpt lat="49.59196" lon="6.1572">
        <ele>193.46</ele>
        <time>2026-08-11T15:27:07.385Z</time>
      </trkpt>
      <trkpt lat="49.59167" lon="6.15698">
        <ele>197.76</ele>
        <time>2026-08-11T15:27:13.384Z</time>
      </trkpt>
      <trkpt lat="49.59144" lon="6.15684">
        <ele>200.6</ele>
        <time>2026-08-11T15:27:19.385Z</time>
      </trkpt>
      <trkpt lat="49.59116" lon="6.15667">
        <ele>202.82</ele>
        <time>2026-08-11T15:27:25.408Z</time>
      </trkpt>
      <trkpt lat="49.59086" lon="6.15656">
        <ele>204.94</ele>
        <time>2026-08-11T15:27:31.393Z</time>
      </trkpt>
      <trkpt lat="49.59056" lon="6.15647">
        <ele>206.87</ele>
        <time>2026-08-11T15:27:37.387Z</time>
      </trkpt>
      <trkpt lat="49.59026" lon="6.15635">
        <ele>209.31</ele>
        <time>2026-08-11T15:27:43.386Z</time>
      </trkpt>
      <trkpt lat="49.58998" lon="6.15625">
        <ele>209.59</ele>
        <time>2026-08-11T15:27:49.376Z</time>
      </trkpt>
      <trkpt lat="49.58973" lon="6.15614">
        <ele>211.14</ele>
        <time>2026-08-11T15:27:55.411Z</time>
      </trkpt>
      <trkpt lat="49.58951" lon="6.15605">
        <ele>211.92</ele>
        <time>2026-08-11T15:28:01.385Z</time>
      </trkpt>
      <trkpt lat="49.5893" lon="6.15595">
        <ele>209.26</ele>
        <time>2026-08-11T15:28:07.383Z</time>
      </trkpt>
      <trkpt lat="49.58914" lon="6.15568">
        <ele>206.02</ele>
        <time>2026-08-11T15:28:13.382Z</time>
      </trkpt>
      <trkpt lat="49.58893" lon="6.15536">
        <ele>200.72</ele>
        <time>2026-08-11T15:28:19.381Z</time>
      </trkpt>
      <trkpt lat="49.58873" lon="6.15508">
        <ele>195.56</ele>
        <time>2026-08-11T15:28:25.373Z</time>
      </trkpt>
      <trkpt lat="49.58851" lon="6.15471">
        <ele>197.28</ele>
        <time>2026-08-11T15:28:31.391Z</time>
      </trkpt>
      <trkpt lat="49.58834" lon="6.15441">
        <ele>194.15</ele>
        <time>2026-08-11T15:28:37.379Z</time>
      </trkpt>
      <trkpt lat="49.58821" lon="6.15414">
        <ele>196.68</ele>
        <time>2026-08-11T15:28:43.393Z</time>
      </trkpt>
      <trkpt lat="49.58805" lon="6.15388">
        <ele>200.17</ele>
        <time>2026-08-11T15:28:49.383Z</time>
      </trkpt>
      <trkpt lat="49.58793" lon="6.15355">
        <ele>200.08</ele>
        <time>2026-08-11T15:28:55.388Z</time>
      </trkpt>
      <trkpt lat="49.58776" lon="6.15326">
        <ele>197.97</ele>
        <time>2026-08-11T15:29:01.394Z</time>
      </trkpt>
      <trkpt lat="49.58755" lon="6.15271">
        <ele>201.26</ele>
        <time>2026-08-11T15:29:07.384Z</time>
      </trkpt>
      <trkpt lat="49.58731" lon="6.15212">
        <ele>207.56</ele>
        <time>2026-08-11T15:29:13.370Z</time>
      </trkpt>
      <trkpt lat="49.5871" lon="6.15162">
        <ele>210.86</ele>
        <time>2026-08-11T15:29:19.384Z</time>
      </trkpt>
      <trkpt lat="49.58694" lon="6.1512">
        <ele>212.7</ele>
        <time>2026-08-11T15:29:25.406Z</time>
      </trkpt>
      <trkpt lat="49.58679" lon="6.15083">
        <ele>214.71</ele>
        <time>2026-08-11T15:29:31.392Z</time>
      </trkpt>
      <trkpt lat="49.58663" lon="6.15042">
        <ele>215.43</ele>
        <time>2026-08-11T15:29:37.385Z</time>
      </trkpt>
      <trkpt lat="49.58648" lon="6.14998">
        <ele>216.19</ele>
        <time>2026-08-11T15:29:43.387Z</time>
      </trkpt>
      <trkpt lat="49.58626" lon="6.14957">
        <ele>213.93</ele>
        <time>2026-08-11T15:29:49.388Z</time>
      </trkpt>
      <trkpt lat="49.58605" lon="6.14925">
        <ele>209.9</ele>
        <time>2026-08-11T15:29:55.406Z</time>
      </trkpt>
      <trkpt lat="49.58588" lon="6.14903">
        <ele>206.81</ele>
        <time>2026-08-11T15:30:01.393Z</time>
      </trkpt>
      <trkpt lat="49.5856" lon="6.14883">
        <ele>203.76</ele>
        <time>2026-08-11T15:30:07.388Z</time>
      </trkpt>
      <trkpt lat="49.58531" lon="6.14865">
        <ele>200.34</ele>
        <time>2026-08-11T15:30:13.382Z</time>
      </trkpt>
      <trkpt lat="49.58502" lon="6.14852">
        <ele>198.06</ele>
        <time>2026-08-11T15:30:19.384Z</time>
      </trkpt>
      <trkpt lat="49.58472" lon="6.14846">
        <ele>196</ele>
        <time>2026-08-11T15:30:25.405Z</time>
      </trkpt>
      <trkpt lat="49.58439" lon="6.14844">
        <ele>194.37</ele>
        <time>2026-08-11T15:30:31.388Z</time>
      </trkpt>
      <trkpt lat="49.58406" lon="6.14854">
        <ele>195.02</ele>
        <time>2026-08-11T15:30:37.383Z</time>
      </trkpt>
      <trkpt lat="49.58374" lon="6.14875">
        <ele>198.17</ele>
        <time>2026-08-11T15:30:43.382Z</time>
      </trkpt>
      <trkpt lat="49.58343" lon="6.14897">
        <ele>196.43</ele>
        <time>2026-08-11T15:30:49.383Z</time>
      </trkpt>
      <trkpt lat="49.58313" lon="6.14915">
        <ele>196.21</ele>
        <time>2026-08-11T15:30:55.406Z</time>
      </trkpt>
      <trkpt lat="49.58282" lon="6.14933">
        <ele>195.48</ele>
        <time>2026-08-11T15:31:01.389Z</time>
      </trkpt>
      <trkpt lat="49.5825" lon="6.14951">
        <ele>192.61</ele>
        <time>2026-08-11T15:31:07.386Z</time>
      </trkpt>
      <trkpt lat="49.58217" lon="6.1497">
        <ele>191.78</ele>
        <time>2026-08-11T15:31:13.384Z</time>
      </trkpt>
      <trkpt lat="49.58186" lon="6.1499">
        <ele>190.56</ele>
        <time>2026-08-11T15:31:19.384Z</time>
      </trkpt>
      <trkpt lat="49.58157" lon="6.15015">
        <ele>187.45</ele>
        <time>2026-08-11T15:31:25.473Z</time>
      </trkpt>
      <trkpt lat="49.58131" lon="6.1505">
        <ele>190.03</ele>
        <time>2026-08-11T15:31:31.690Z</time>
      </trkpt>
      <trkpt lat="49.58113" lon="6.15057">
        <ele>188.3</ele>
        <time>2026-08-11T15:31:37.487Z</time>
      </trkpt>
      <trkpt lat="49.58099" lon="6.1507">
        <ele>185.42</ele>
        <time>2026-08-11T15:31:43.464Z</time>
      </trkpt>
      <trkpt lat="49.58091" lon="6.15079">
        <ele>279.15</ele>
        <time>2026-08-11T15:32:18.396Z</time>
      </trkpt>
      <trkpt lat="49.58083" lon="6.15093">
        <ele>279.15</ele>
        <time>2026-08-11T15:32:26.333Z</time>
      </trkpt>
      <trkpt lat="49.5807" lon="6.15112">
        <ele>264.15</ele>
        <time>2026-08-11T15:32:31.381Z</time>
      </trkpt>
      <trkpt lat="49.58057" lon="6.15145">
        <ele>263.15</ele>
        <time>2026-08-11T15:32:37.384Z</time>
      </trkpt>
      <trkpt lat="49.58047" lon="6.15191">
        <ele>263.15</ele>
        <time>2026-08-11T15:32:43.383Z</time>
      </trkpt>
      <trkpt lat="49.5803" lon="6.15226">
        <ele>263.15</ele>
        <time>2026-08-11T15:32:49.383Z</time>
      </trkpt>
      <trkpt lat="49.58014" lon="6.15262">
        <ele>272.15</ele>
        <time>2026-08-11T15:32:55.393Z</time>
      </trkpt>
      <trkpt lat="49.57999" lon="6.15292">
        <ele>272.75</ele>
        <time>2026-08-11T15:33:01.392Z</time>
      </trkpt>
      <trkpt lat="49.57983" lon="6.15326">
        <ele>272.75</ele>
        <time>2026-08-11T15:33:07.368Z</time>
      </trkpt>
      <trkpt lat="49.57956" lon="6.15366">
        <ele>267.57</ele>
        <time>2026-08-11T15:33:13.381Z</time>
      </trkpt>
      <trkpt lat="49.57937" lon="6.15392">
        <ele>267.55</ele>
        <time>2026-08-11T15:33:19.383Z</time>
      </trkpt>
      <trkpt lat="49.57911" lon="6.15415">
        <ele>267.55</ele>
        <time>2026-08-11T15:33:25.388Z</time>
      </trkpt>
      <trkpt lat="49.57883" lon="6.15434">
        <ele>266.46</ele>
        <time>2026-08-11T15:33:31.388Z</time>
      </trkpt>
      <trkpt lat="49.57856" lon="6.15448">
        <ele>266.45</ele>
        <time>2026-08-11T15:33:37.380Z</time>
      </trkpt>
      <trkpt lat="49.57828" lon="6.15458">
        <ele>266.46</ele>
        <time>2026-08-11T15:33:43.385Z</time>
      </trkpt>
      <trkpt lat="49.57797" lon="6.15472">
        <ele>266.46</ele>
        <time>2026-08-11T15:33:49.385Z</time>
      </trkpt>
      <trkpt lat="49.57764" lon="6.15482">
        <ele>266.46</ele>
        <time>2026-08-11T15:33:55.392Z</time>
      </trkpt>
      <trkpt lat="49.57733" lon="6.15487">
        <ele>266.46</ele>
        <time>2026-08-11T15:34:01.389Z</time>
      </trkpt>
      <trkpt lat="49.57705" lon="6.15487">
        <ele>266.46</ele>
        <time>2026-08-11T15:34:07.386Z</time>
      </trkpt>
      <trkpt lat="49.57676" lon="6.15477">
        <ele>266.46</ele>
        <time>2026-08-11T15:34:13.387Z</time>
      </trkpt>
      <trkpt lat="49.57649" lon="6.15468">
        <ele>266.46</ele>
        <time>2026-08-11T15:34:19.385Z</time>
      </trkpt>
      <trkpt lat="49.57616" lon="6.15458">
        <ele>266.46</ele>
        <time>2026-08-11T15:34:25.394Z</time>
      </trkpt>
      <trkpt lat="49.57583" lon="6.15443">
        <ele>266.46</ele>
        <time>2026-08-11T15:34:31.387Z</time>
      </trkpt>
      <trkpt lat="49.57548" lon="6.15431">
        <ele>266.46</ele>
        <time>2026-08-11T15:34:37.385Z</time>
      </trkpt>
      <trkpt lat="49.57515" lon="6.1543">
        <ele>266.46</ele>
        <time>2026-08-11T15:34:43.383Z</time>
      </trkpt>
      <trkpt lat="49.57482" lon="6.15437">
        <ele>266.46</ele>
        <time>2026-08-11T15:34:49.383Z</time>
      </trkpt>
      <trkpt lat="49.57448" lon="6.15452">
        <ele>266.46</ele>
        <time>2026-08-11T15:34:55.408Z</time>
      </trkpt>
      <trkpt lat="49.57421" lon="6.15484">
        <ele>190.52</ele>
        <time>2026-08-11T15:35:01.392Z</time>
      </trkpt>
      <trkpt lat="49.57397" lon="6.15525">
        <ele>195.15</ele>
        <time>2026-08-11T15:35:07.384Z</time>
      </trkpt>
      <trkpt lat="49.57379" lon="6.15569">
        <ele>201.96</ele>
        <time>2026-08-11T15:35:13.386Z</time>
      </trkpt>
      <trkpt lat="49.57362" lon="6.15596">
        <ele>207.2</ele>
        <time>2026-08-11T15:35:19.388Z</time>
      </trkpt>
      <trkpt lat="49.57346" lon="6.15609">
        <ele>208.77</ele>
        <time>2026-08-11T15:35:25.387Z</time>
      </trkpt>
      <trkpt lat="49.57322" lon="6.15627">
        <ele>207.5</ele>
        <time>2026-08-11T15:35:31.386Z</time>
      </trkpt>
      <trkpt lat="49.57299" lon="6.15641">
        <ele>208.31</ele>
        <time>2026-08-11T15:35:37.419Z</time>
      </trkpt>
      <trkpt lat="49.57283" lon="6.15651">
        <ele>208.7</ele>
        <time>2026-08-11T15:35:43.394Z</time>
      </trkpt>
      <trkpt lat="49.57278" lon="6.15677">
        <ele>202.78</ele>
        <time>2026-08-11T15:35:49.363Z</time>
      </trkpt>
      <trkpt lat="49.57262" lon="6.15708">
        <ele>204.19</ele>
        <time>2026-08-11T15:35:55.402Z</time>
      </trkpt>
      <trkpt lat="49.57242" lon="6.15698">
        <ele>203.7</ele>
        <time>2026-08-11T15:36:01.494Z</time>
      </trkpt>
      <trkpt lat="49.57222" lon="6.15693">
        <ele>201.8</ele>
        <time>2026-08-11T15:36:07.368Z</time>
      </trkpt>
      <trkpt lat="49.57201" lon="6.15695">
        <ele>265.5</ele>
        <time>2026-08-11T15:36:13.368Z</time>
      </trkpt>
      <trkpt lat="49.57178" lon="6.15699">
        <ele>265.56</ele>
        <time>2026-08-11T15:36:19.372Z</time>
      </trkpt>
      <trkpt lat="49.57156" lon="6.15701">
        <ele>265.56</ele>
        <time>2026-08-11T15:36:25.383Z</time>
      </trkpt>
      <trkpt lat="49.5714" lon="6.15711">
        <ele>266.84</ele>
        <time>2026-08-11T15:36:31.374Z</time>
      </trkpt>
      <trkpt lat="49.57123" lon="6.15714">
        <ele>266.86</ele>
        <time>2026-08-11T15:36:37.386Z</time>
      </trkpt>
      <trkpt lat="49.57099" lon="6.15729">
        <ele>266.86</ele>
        <time>2026-08-11T15:36:43.370Z</time>
      </trkpt>
      <trkpt lat="49.57077" lon="6.1575">
        <ele>266.86</ele>
        <time>2026-08-11T15:36:49.375Z</time>
      </trkpt>
      <trkpt lat="49.57058" lon="6.15769">
        <ele>266.77</ele>
        <time>2026-08-11T15:36:55.395Z</time>
      </trkpt>
      <trkpt lat="49.57048" lon="6.15791">
        <ele>266.77</ele>
        <time>2026-08-11T15:37:01.398Z</time>
      </trkpt>
      <trkpt lat="49.57039" lon="6.15813">
        <ele>266.77</ele>
        <time>2026-08-11T15:37:07.376Z</time>
      </trkpt>
      <trkpt lat="49.57032" lon="6.15827">
        <ele>263.57</ele>
        <time>2026-08-11T15:37:17.328Z</time>
      </trkpt>
      <trkpt lat="49.57029" lon="6.15843">
        <ele>263.57</ele>
        <time>2026-08-11T15:37:22.356Z</time>
      </trkpt>
      <trkpt lat="49.57029" lon="6.15875">
        <ele>263.57</ele>
        <time>2026-08-11T15:37:28.335Z</time>
      </trkpt>
      <trkpt lat="49.57029" lon="6.15891">
        <ele>263.57</ele>
        <time>2026-08-11T15:37:33.369Z</time>
      </trkpt>
      <trkpt lat="49.57028" lon="6.15877">
        <ele>263.57</ele>
        <time>2026-08-11T15:37:40.326Z</time>
      </trkpt>
      <trkpt lat="49.5702" lon="6.15868">
        <ele>263.57</ele>
        <time>2026-08-11T15:37:45.329Z</time>
      </trkpt>
      <trkpt lat="49.57009" lon="6.15873">
        <ele>263.57</ele>
        <time>2026-08-11T15:37:53.326Z</time>
      </trkpt>
      <trkpt lat="49.56997" lon="6.15895">
        <ele>263.47</ele>
        <time>2026-08-11T15:37:58.337Z</time>
      </trkpt>
      <trkpt lat="49.56987" lon="6.15908">
        <ele>263.47</ele>
        <time>2026-08-11T15:38:03.346Z</time>
      </trkpt>
      <trkpt lat="49.56976" lon="6.15935">
        <ele>263.47</ele>
        <time>2026-08-11T15:38:08.384Z</time>
      </trkpt>
      <trkpt lat="49.56962" lon="6.15965">
        <ele>263.47</ele>
        <time>2026-08-11T15:38:14.332Z</time>
      </trkpt>
      <trkpt lat="49.56951" lon="6.1598">
        <ele>263.47</ele>
        <time>2026-08-11T15:38:19.403Z</time>
      </trkpt>
      <trkpt lat="49.56935" lon="6.15997">
        <ele>263.47</ele>
        <time>2026-08-11T15:38:25.387Z</time>
      </trkpt>
      <trkpt lat="49.5692" lon="6.16008">
        <ele>263.47</ele>
        <time>2026-08-11T15:38:31.387Z</time>
      </trkpt>
      <trkpt lat="49.56911" lon="6.16008">
        <ele>263.47</ele>
        <time>2026-08-11T15:38:37.379Z</time>
      </trkpt>
      <trkpt lat="49.5692" lon="6.16021">
        <ele>264.57</ele>
        <time>2026-08-11T15:40:03.321Z</time>
      </trkpt>
      <trkpt lat="49.56928" lon="6.1603">
        <ele>264.57</ele>
        <time>2026-08-11T15:40:08.327Z</time>
      </trkpt>
      <trkpt lat="49.56956" lon="6.15844">
        <ele>201.64</ele>
        <time>2026-08-12T06:18:43.481Z</time>
      </trkpt>
      <trkpt lat="49.56968" lon="6.15845">
        <ele>213.23</ele>
        <time>2026-08-12T06:19:00.485Z</time>
      </trkpt>
      <trkpt lat="49.56977" lon="6.15852">
        <ele>213.39</ele>
        <time>2026-08-12T06:19:11.481Z</time>
      </trkpt>
      <trkpt lat="49.56975" lon="6.1587">
        <ele>212.81</ele>
        <time>2026-08-12T06:19:17.490Z</time>
      </trkpt>
      <trkpt lat="49.56974" lon="6.1589">
        <ele>213.45</ele>
        <time>2026-08-12T06:19:23.516Z</time>
      </trkpt>
      <trkpt lat="49.56979" lon="6.15905">
        <ele>215.56</ele>
        <time>2026-08-12T06:19:29.490Z</time>
      </trkpt>
      <trkpt lat="49.56981" lon="6.15923">
        <ele>215.95</ele>
        <time>2026-08-12T06:19:35.486Z</time>
      </trkpt>
      <trkpt lat="49.56973" lon="6.15943">
        <ele>214.54</ele>
        <time>2026-08-12T06:19:41.478Z</time>
      </trkpt>
      <trkpt lat="49.56961" lon="6.15961">
        <ele>214</ele>
        <time>2026-08-12T06:19:46.482Z</time>
      </trkpt>
      <trkpt lat="49.5695" lon="6.15981">
        <ele>214.76</ele>
        <time>2026-08-12T06:19:51.483Z</time>
      </trkpt>
      <trkpt lat="49.56936" lon="6.15996">
        <ele>215.05</ele>
        <time>2026-08-12T06:19:56.489Z</time>
      </trkpt>
      <trkpt lat="49.56928" lon="6.16008">
        <ele>214.58</ele>
        <time>2026-08-12T06:20:02.491Z</time>
      </trkpt>
      <trkpt lat="49.56936" lon="6.15999">
        <ele>220.18</ele>
        <time>2026-08-12T06:21:13.486Z</time>
      </trkpt>
      <trkpt lat="49.56945" lon="6.15992">
        <ele>218.43</ele>
        <time>2026-08-12T06:21:21.491Z</time>
      </trkpt>
      <trkpt lat="49.56936" lon="6.16">
        <ele>220.22</ele>
        <time>2026-08-12T06:24:36.536Z</time>
      </trkpt>
      <trkpt lat="49.56921" lon="6.16009">
        <ele>217.67</ele>
        <time>2026-08-12T06:24:42.534Z</time>
      </trkpt>
      <trkpt lat="49.56908" lon="6.16019">
        <ele>217.07</ele>
        <time>2026-08-12T06:24:48.536Z</time>
      </trkpt>
      <trkpt lat="49.569" lon="6.16038">
        <ele>218.38</ele>
        <time>2026-08-12T06:24:54.557Z</time>
      </trkpt>
      <trkpt lat="49.56899" lon="6.16056">
        <ele>219.76</ele>
        <time>2026-08-12T06:25:00.510Z</time>
      </trkpt>
      <trkpt lat="49.569" lon="6.16076">
        <ele>221.54</ele>
        <time>2026-08-12T06:25:06.540Z</time>
      </trkpt>
      <trkpt lat="49.56901" lon="6.16097">
        <ele>224.7</ele>
        <time>2026-08-12T06:25:12.546Z</time>
      </trkpt>
      <trkpt lat="49.56893" lon="6.16109">
        <ele>220.72</ele>
        <time>2026-08-12T06:26:20.489Z</time>
      </trkpt>
      <trkpt lat="49.56885" lon="6.16133">
        <ele>217.97</ele>
        <time>2026-08-12T06:26:26.522Z</time>
      </trkpt>
      <trkpt lat="49.56889" lon="6.16161">
        <ele>215.46</ele>
        <time>2026-08-12T06:26:32.482Z</time>
      </trkpt>
      <trkpt lat="49.56901" lon="6.16186">
        <ele>216.88</ele>
        <time>2026-08-12T06:26:37.482Z</time>
      </trkpt>
      <trkpt lat="49.56909" lon="6.16215">
        <ele>219.09</ele>
        <time>2026-08-12T06:26:42.535Z</time>
      </trkpt>
      <trkpt lat="49.56911" lon="6.16246">
        <ele>223.11</ele>
        <time>2026-08-12T06:26:48.537Z</time>
      </trkpt>
      <trkpt lat="49.56914" lon="6.16275">
        <ele>225.98</ele>
        <time>2026-08-12T06:26:54.475Z</time>
      </trkpt>
      <trkpt lat="49.56916" lon="6.16304">
        <ele>228.87</ele>
        <time>2026-08-12T06:27:00.488Z</time>
      </trkpt>
      <trkpt lat="49.56917" lon="6.16334">
        <ele>231.65</ele>
        <time>2026-08-12T06:27:06.534Z</time>
      </trkpt>
      <trkpt lat="49.56914" lon="6.16361">
        <ele>230.81</ele>
        <time>2026-08-12T06:27:12.545Z</time>
      </trkpt>
      <trkpt lat="49.56904" lon="6.16384">
        <ele>230.07</ele>
        <time>2026-08-12T06:27:18.540Z</time>
      </trkpt>
      <trkpt lat="49.56888" lon="6.16395">
        <ele>229.75</ele>
        <time>2026-08-12T06:27:24.546Z</time>
      </trkpt>
      <trkpt lat="49.56876" lon="6.16402">
        <ele>230.17</ele>
        <time>2026-08-12T06:27:29.550Z</time>
      </trkpt>
      <trkpt lat="49.56859" lon="6.16403">
        <ele>229.79</ele>
        <time>2026-08-12T06:27:35.483Z</time>
      </trkpt>
      <trkpt lat="49.56844" lon="6.164">
        <ele>229.19</ele>
        <time>2026-08-12T06:27:40.484Z</time>
      </trkpt>
      <trkpt lat="49.56829" lon="6.16398">
        <ele>229.02</ele>
        <time>2026-08-12T06:27:45.484Z</time>
      </trkpt>
      <trkpt lat="49.56813" lon="6.16394">
        <ele>226.7</ele>
        <time>2026-08-12T06:27:50.493Z</time>
      </trkpt>
      <trkpt lat="49.56798" lon="6.1639">
        <ele>226.34</ele>
        <time>2026-08-12T06:27:56.483Z</time>
      </trkpt>
      <trkpt lat="49.56781" lon="6.16382">
        <ele>228.7</ele>
        <time>2026-08-12T06:28:02.487Z</time>
      </trkpt>
      <trkpt lat="49.56766" lon="6.16376">
        <ele>231.19</ele>
        <time>2026-08-12T06:28:07.491Z</time>
      </trkpt>
      <trkpt lat="49.56749" lon="6.16369">
        <ele>232.68</ele>
        <time>2026-08-12T06:28:12.540Z</time>
      </trkpt>
      <trkpt lat="49.56724" lon="6.16365">
        <ele>232.69</ele>
        <time>2026-08-12T06:28:18.545Z</time>
      </trkpt>
      <trkpt lat="49.56695" lon="6.16356">
        <ele>229.97</ele>
        <time>2026-08-12T06:28:24.489Z</time>
      </trkpt>
      <trkpt lat="49.5667" lon="6.16364">
        <ele>226.91</ele>
        <time>2026-08-12T06:28:29.491Z</time>
      </trkpt>
      <trkpt lat="49.56651" lon="6.16407">
        <ele>227</ele>
        <time>2026-08-12T06:28:35.495Z</time>
      </trkpt>
      <trkpt lat="49.56652" lon="6.16442">
        <ele>227.59</ele>
        <time>2026-08-12T06:28:40.496Z</time>
      </trkpt>
      <trkpt lat="49.56651" lon="6.16477">
        <ele>228.11</ele>
        <time>2026-08-12T06:28:46.494Z</time>
      </trkpt>
      <trkpt lat="49.56649" lon="6.16507">
        <ele>227.65</ele>
        <time>2026-08-12T06:28:51.498Z</time>
      </trkpt>
      <trkpt lat="49.56634" lon="6.16551">
        <ele>228.06</ele>
        <time>2026-08-12T06:28:57.492Z</time>
      </trkpt>
      <trkpt lat="49.56618" lon="6.16602">
        <ele>227.1</ele>
        <time>2026-08-12T06:29:03.492Z</time>
      </trkpt>
      <trkpt lat="49.56598" lon="6.16661">
        <ele>226.32</ele>
        <time>2026-08-12T06:29:09.491Z</time>
      </trkpt>
      <trkpt lat="49.56576" lon="6.16723">
        <ele>225.13</ele>
        <time>2026-08-12T06:29:15.489Z</time>
      </trkpt>
      <trkpt lat="49.56558" lon="6.16774">
        <ele>223.31</ele>
        <time>2026-08-12T06:29:20.492Z</time>
      </trkpt>
      <trkpt lat="49.56541" lon="6.16822">
        <ele>222.04</ele>
        <time>2026-08-12T06:29:25.495Z</time>
      </trkpt>
      <trkpt lat="49.56522" lon="6.16877">
        <ele>222.27</ele>
        <time>2026-08-12T06:29:31.491Z</time>
      </trkpt>
      <trkpt lat="49.56508" lon="6.16921">
        <ele>221.53</ele>
        <time>2026-08-12T06:29:36.546Z</time>
      </trkpt>
      <trkpt lat="49.56499" lon="6.16976">
        <ele>220.4</ele>
        <time>2026-08-12T06:29:42.543Z</time>
      </trkpt>
      <trkpt lat="49.56487" lon="6.17029">
        <ele>221.61</ele>
        <time>2026-08-12T06:29:48.540Z</time>
      </trkpt>
      <trkpt lat="49.56467" lon="6.17078">
        <ele>220.94</ele>
        <time>2026-08-12T06:29:54.552Z</time>
      </trkpt>
      <trkpt lat="49.56454" lon="6.17115">
        <ele>220.79</ele>
        <time>2026-08-12T06:30:00.493Z</time>
      </trkpt>
      <trkpt lat="49.5646" lon="6.17102">
        <ele>222.01</ele>
        <time>2026-08-12T06:30:06.551Z</time>
      </trkpt>
      <trkpt lat="49.56468" lon="6.17074">
        <ele>223.58</ele>
        <time>2026-08-12T06:30:12.549Z</time>
      </trkpt>
      <trkpt lat="49.56483" lon="6.17036">
        <ele>223.64</ele>
        <time>2026-08-12T06:30:18.550Z</time>
      </trkpt>
      <trkpt lat="49.56496" lon="6.17003">
        <ele>222.29</ele>
        <time>2026-08-12T06:30:24.553Z</time>
      </trkpt>
      <trkpt lat="49.56504" lon="6.17033">
        <ele>220.95</ele>
        <time>2026-08-12T06:30:30.547Z</time>
      </trkpt>
      <trkpt lat="49.56511" lon="6.17073">
        <ele>220.97</ele>
        <time>2026-08-12T06:30:36.549Z</time>
      </trkpt>
      <trkpt lat="49.56517" lon="6.17114">
        <ele>220.91</ele>
        <time>2026-08-12T06:30:42.547Z</time>
      </trkpt>
      <trkpt lat="49.56521" lon="6.17154">
        <ele>220.28</ele>
        <time>2026-08-12T06:30:48.544Z</time>
      </trkpt>
      <trkpt lat="49.56523" lon="6.17188">
        <ele>220.99</ele>
        <time>2026-08-12T06:30:54.551Z</time>
      </trkpt>
      <trkpt lat="49.56524" lon="6.17218">
        <ele>222.42</ele>
        <time>2026-08-12T06:31:00.548Z</time>
      </trkpt>
      <trkpt lat="49.56525" lon="6.17244">
        <ele>225.2</ele>
        <time>2026-08-12T06:31:06.548Z</time>
      </trkpt>
      <trkpt lat="49.56525" lon="6.17267">
        <ele>226.7</ele>
        <time>2026-08-12T06:31:12.548Z</time>
      </trkpt>
      <trkpt lat="49.56525" lon="6.17292">
        <ele>228.52</ele>
        <time>2026-08-12T06:31:18.546Z</time>
      </trkpt>
      <trkpt lat="49.56525" lon="6.17317">
        <ele>228.66</ele>
        <time>2026-08-12T06:31:24.552Z</time>
      </trkpt>
      <trkpt lat="49.56525" lon="6.17344">
        <ele>229.2</ele>
        <time>2026-08-12T06:31:30.531Z</time>
      </trkpt>
      <trkpt lat="49.56525" lon="6.17371">
        <ele>228.73</ele>
        <time>2026-08-12T06:31:36.550Z</time>
      </trkpt>
      <trkpt lat="49.56525" lon="6.17398">
        <ele>229.72</ele>
        <time>2026-08-12T06:31:42.553Z</time>
      </trkpt>
      <trkpt lat="49.56524" lon="6.17426">
        <ele>231.1</ele>
        <time>2026-08-12T06:31:48.549Z</time>
      </trkpt>
      <trkpt lat="49.56525" lon="6.17454">
        <ele>231.18</ele>
        <time>2026-08-12T06:31:54.546Z</time>
      </trkpt>
      <trkpt lat="49.56526" lon="6.17482">
        <ele>231.82</ele>
        <time>2026-08-12T06:32:00.491Z</time>
      </trkpt>
      <trkpt lat="49.56526" lon="6.17506">
        <ele>233</ele>
        <time>2026-08-12T06:32:05.492Z</time>
      </trkpt>
      <trkpt lat="49.56523" lon="6.17534">
        <ele>233.35</ele>
        <time>2026-08-12T06:32:11.495Z</time>
      </trkpt>
      <trkpt lat="49.56521" lon="6.17562">
        <ele>234.17</ele>
        <time>2026-08-12T06:32:17.486Z</time>
      </trkpt>
      <trkpt lat="49.56518" lon="6.17584">
        <ele>234.32</ele>
        <time>2026-08-12T06:32:22.492Z</time>
      </trkpt>
      <trkpt lat="49.56516" lon="6.17607">
        <ele>235.44</ele>
        <time>2026-08-12T06:32:27.493Z</time>
      </trkpt>
      <trkpt lat="49.56512" lon="6.17634">
        <ele>237.52</ele>
        <time>2026-08-12T06:32:33.494Z</time>
      </trkpt>
      <trkpt lat="49.56509" lon="6.17663">
        <ele>238.25</ele>
        <time>2026-08-12T06:32:39.495Z</time>
      </trkpt>
      <trkpt lat="49.56505" lon="6.17687">
        <ele>238.46</ele>
        <time>2026-08-12T06:32:44.497Z</time>
      </trkpt>
      <trkpt lat="49.56503" lon="6.17712">
        <ele>238.92</ele>
        <time>2026-08-12T06:32:49.519Z</time>
      </trkpt>
      <trkpt lat="49.56499" lon="6.17736">
        <ele>238.42</ele>
        <time>2026-08-12T06:32:54.553Z</time>
      </trkpt>
      <trkpt lat="49.56492" lon="6.1776">
        <ele>239.38</ele>
        <time>2026-08-12T06:33:00.586Z</time>
      </trkpt>
      <trkpt lat="49.56487" lon="6.17795">
        <ele>240.2</ele>
        <time>2026-08-12T06:33:06.558Z</time>
      </trkpt>
      <trkpt lat="49.56478" lon="6.17832">
        <ele>240.15</ele>
        <time>2026-08-12T06:33:12.552Z</time>
      </trkpt>
      <trkpt lat="49.56469" lon="6.17872">
        <ele>240.4</ele>
        <time>2026-08-12T06:33:18.583Z</time>
      </trkpt>
      <trkpt lat="49.5646" lon="6.17916">
        <ele>241.21</ele>
        <time>2026-08-12T06:33:24.508Z</time>
      </trkpt>
      <trkpt lat="49.56452" lon="6.17959">
        <ele>241.74</ele>
        <time>2026-08-12T06:33:30.493Z</time>
      </trkpt>
      <trkpt lat="49.5644" lon="6.18002">
        <ele>238.7</ele>
        <time>2026-08-12T06:33:36.543Z</time>
      </trkpt>
      <trkpt lat="49.56427" lon="6.1805">
        <ele>238.02</ele>
        <time>2026-08-12T06:33:42.548Z</time>
      </trkpt>
      <trkpt lat="49.56414" lon="6.18097">
        <ele>238.77</ele>
        <time>2026-08-12T06:33:48.551Z</time>
      </trkpt>
      <trkpt lat="49.56402" lon="6.18138">
        <ele>237.6</ele>
        <time>2026-08-12T06:33:54.539Z</time>
      </trkpt>
      <trkpt lat="49.56391" lon="6.18178">
        <ele>235.6</ele>
        <time>2026-08-12T06:34:00.548Z</time>
      </trkpt>
      <trkpt lat="49.56378" lon="6.18219">
        <ele>233.51</ele>
        <time>2026-08-12T06:34:06.549Z</time>
      </trkpt>
      <trkpt lat="49.56365" lon="6.18268">
        <ele>227.73</ele>
        <time>2026-08-12T06:34:12.549Z</time>
      </trkpt>
      <trkpt lat="49.56354" lon="6.18331">
        <ele>224.35</ele>
        <time>2026-08-12T06:34:18.552Z</time>
      </trkpt>
      <trkpt lat="49.56362" lon="6.18391">
        <ele>224.14</ele>
        <time>2026-08-12T06:34:24.549Z</time>
      </trkpt>
      <trkpt lat="49.56378" lon="6.1844">
        <ele>224.48</ele>
        <time>2026-08-12T06:34:30.553Z</time>
      </trkpt>
      <trkpt lat="49.56393" lon="6.18483">
        <ele>226.66</ele>
        <time>2026-08-12T06:34:36.551Z</time>
      </trkpt>
      <trkpt lat="49.56404" lon="6.18521">
        <ele>226.89</ele>
        <time>2026-08-12T06:34:42.547Z</time>
      </trkpt>
      <trkpt lat="49.56411" lon="6.18561">
        <ele>225.88</ele>
        <time>2026-08-12T06:34:48.555Z</time>
      </trkpt>
      <trkpt lat="49.56416" lon="6.18597">
        <ele>223.59</ele>
        <time>2026-08-12T06:34:54.551Z</time>
      </trkpt>
      <trkpt lat="49.56414" lon="6.18632">
        <ele>221.9</ele>
        <time>2026-08-12T06:35:00.550Z</time>
      </trkpt>
      <trkpt lat="49.56407" lon="6.18667">
        <ele>221.61</ele>
        <time>2026-08-12T06:35:06.549Z</time>
      </trkpt>
      <trkpt lat="49.56395" lon="6.18697">
        <ele>222.12</ele>
        <time>2026-08-12T06:35:12.550Z</time>
      </trkpt>
      <trkpt lat="49.56376" lon="6.1873">
        <ele>225.76</ele>
        <time>2026-08-12T06:35:18.548Z</time>
      </trkpt>
      <trkpt lat="49.56357" lon="6.18762">
        <ele>227.35</ele>
        <time>2026-08-12T06:35:24.550Z</time>
      </trkpt>
      <trkpt lat="49.5634" lon="6.18794">
        <ele>226.13</ele>
        <time>2026-08-12T06:35:30.548Z</time>
      </trkpt>
      <trkpt lat="49.5633" lon="6.18832">
        <ele>223.9</ele>
        <time>2026-08-12T06:35:36.544Z</time>
      </trkpt>
      <trkpt lat="49.56323" lon="6.18869">
        <ele>220.85</ele>
        <time>2026-08-12T06:35:42.550Z</time>
      </trkpt>
      <trkpt lat="49.56322" lon="6.18908">
        <ele>220.76</ele>
        <time>2026-08-12T06:35:48.549Z</time>
      </trkpt>
      <trkpt lat="49.56328" lon="6.18951">
        <ele>224.4</ele>
        <time>2026-08-12T06:35:54.551Z</time>
      </trkpt>
      <trkpt lat="49.56336" lon="6.18987">
        <ele>226.02</ele>
        <time>2026-08-12T06:36:00.547Z</time>
      </trkpt>
      <trkpt lat="49.56343" lon="6.1902">
        <ele>229.43</ele>
        <time>2026-08-12T06:36:06.547Z</time>
      </trkpt>
      <trkpt lat="49.56349" lon="6.1905">
        <ele>232.67</ele>
        <time>2026-08-12T06:36:12.548Z</time>
      </trkpt>
      <trkpt lat="49.56356" lon="6.1908">
        <ele>235.03</ele>
        <time>2026-08-12T06:36:18.549Z</time>
      </trkpt>
      <trkpt lat="49.56361" lon="6.19106">
        <ele>237.11</ele>
        <time>2026-08-12T06:36:24.550Z</time>
      </trkpt>
      <trkpt lat="49.56367" lon="6.19133">
        <ele>238.22</ele>
        <time>2026-08-12T06:36:30.546Z</time>
      </trkpt>
      <trkpt lat="49.56372" lon="6.1916">
        <ele>239.41</ele>
        <time>2026-08-12T06:36:36.548Z</time>
      </trkpt>
      <trkpt lat="49.56377" lon="6.19183">
        <ele>240.56</ele>
        <time>2026-08-12T06:36:42.548Z</time>
      </trkpt>
      <trkpt lat="49.56383" lon="6.19207">
        <ele>241.67</ele>
        <time>2026-08-12T06:36:48.545Z</time>
      </trkpt>
      <trkpt lat="49.56387" lon="6.19233">
        <ele>242.2</ele>
        <time>2026-08-12T06:36:54.496Z</time>
      </trkpt>
      <trkpt lat="49.56392" lon="6.19258">
        <ele>243.25</ele>
        <time>2026-08-12T06:37:00.491Z</time>
      </trkpt>
      <trkpt lat="49.56397" lon="6.19278">
        <ele>244.54</ele>
        <time>2026-08-12T06:37:05.496Z</time>
      </trkpt>
      <trkpt lat="49.56402" lon="6.19298">
        <ele>245.17</ele>
        <time>2026-08-12T06:37:11.489Z</time>
      </trkpt>
      <trkpt lat="49.56407" lon="6.19317">
        <ele>246.88</ele>
        <time>2026-08-12T06:37:17.491Z</time>
      </trkpt>
      <trkpt lat="49.56408" lon="6.19331">
        <ele>246.44</ele>
        <time>2026-08-12T06:37:22.491Z</time>
      </trkpt>
      <trkpt lat="49.56405" lon="6.19345">
        <ele>246.43</ele>
        <time>2026-08-12T06:37:27.491Z</time>
      </trkpt>
      <trkpt lat="49.56401" lon="6.19361">
        <ele>246.58</ele>
        <time>2026-08-12T06:37:33.491Z</time>
      </trkpt>
      <trkpt lat="49.564" lon="6.19377">
        <ele>247.11</ele>
        <time>2026-08-12T06:37:39.489Z</time>
      </trkpt>
      <trkpt lat="49.56391" lon="6.19388">
        <ele>246.88</ele>
        <time>2026-08-12T06:37:45.491Z</time>
      </trkpt>
      <trkpt lat="49.56378" lon="6.19402">
        <ele>246.31</ele>
        <time>2026-08-12T06:37:51.494Z</time>
      </trkpt>
      <trkpt lat="49.56359" lon="6.19421">
        <ele>246.17</ele>
        <time>2026-08-12T06:37:57.492Z</time>
      </trkpt>
      <trkpt lat="49.56333" lon="6.19448">
        <ele>246.17</ele>
        <time>2026-08-12T06:38:03.516Z</time>
      </trkpt>
      <trkpt lat="49.56303" lon="6.19483">
        <ele>245.93</ele>
        <time>2026-08-12T06:38:09.492Z</time>
      </trkpt>
      <trkpt lat="49.56277" lon="6.1952">
        <ele>244.94</ele>
        <time>2026-08-12T06:38:14.498Z</time>
      </trkpt>
      <trkpt lat="49.56259" lon="6.19575">
        <ele>244.09</ele>
        <time>2026-08-12T06:38:20.486Z</time>
      </trkpt>
      <trkpt lat="49.56253" lon="6.19614">
        <ele>244.31</ele>
        <time>2026-08-12T06:38:25.490Z</time>
      </trkpt>
      <trkpt lat="49.56254" lon="6.19654">
        <ele>245.16</ele>
        <time>2026-08-12T06:38:31.482Z</time>
      </trkpt>
      <trkpt lat="49.56257" lon="6.19684">
        <ele>246.13</ele>
        <time>2026-08-12T06:38:36.546Z</time>
      </trkpt>
      <trkpt lat="49.56261" lon="6.19718">
        <ele>244.14</ele>
        <time>2026-08-12T06:38:42.549Z</time>
      </trkpt>
      <trkpt lat="49.56266" lon="6.1975">
        <ele>244.47</ele>
        <time>2026-08-12T06:38:48.547Z</time>
      </trkpt>
      <trkpt lat="49.56271" lon="6.1978">
        <ele>243.88</ele>
        <time>2026-08-12T06:38:54.549Z</time>
      </trkpt>
      <trkpt lat="49.56274" lon="6.19808">
        <ele>245.39</ele>
        <time>2026-08-12T06:39:00.549Z</time>
      </trkpt>
      <trkpt lat="49.56278" lon="6.19837">
        <ele>245.67</ele>
        <time>2026-08-12T06:39:06.550Z</time>
      </trkpt>
      <trkpt lat="49.56282" lon="6.19865">
        <ele>246.41</ele>
        <time>2026-08-12T06:39:12.548Z</time>
      </trkpt>
      <trkpt lat="49.56286" lon="6.19892">
        <ele>248.4</ele>
        <time>2026-08-12T06:39:18.550Z</time>
      </trkpt>
      <trkpt lat="49.56292" lon="6.1992">
        <ele>250.3</ele>
        <time>2026-08-12T06:39:24.554Z</time>
      </trkpt>
      <trkpt lat="49.56296" lon="6.19948">
        <ele>251.72</ele>
        <time>2026-08-12T06:39:30.490Z</time>
      </trkpt>
      <trkpt lat="49.56298" lon="6.19974">
        <ele>252.41</ele>
        <time>2026-08-12T06:39:36.547Z</time>
      </trkpt>
      <trkpt lat="49.56297" lon="6.19998">
        <ele>252.36</ele>
        <time>2026-08-12T06:39:42.545Z</time>
      </trkpt>
      <trkpt lat="49.56296" lon="6.20023">
        <ele>253.02</ele>
        <time>2026-08-12T06:39:48.547Z</time>
      </trkpt>
      <trkpt lat="49.56295" lon="6.20047">
        <ele>253.38</ele>
        <time>2026-08-12T06:39:54.548Z</time>
      </trkpt>
      <trkpt lat="49.56295" lon="6.20071">
        <ele>254.01</ele>
        <time>2026-08-12T06:40:00.489Z</time>
      </trkpt>
      <trkpt lat="49.56295" lon="6.2009">
        <ele>255.83</ele>
        <time>2026-08-12T06:40:05.490Z</time>
      </trkpt>
      <trkpt lat="49.56296" lon="6.2011">
        <ele>257.16</ele>
        <time>2026-08-12T06:40:10.490Z</time>
      </trkpt>
      <trkpt lat="49.56298" lon="6.2013">
        <ele>258.02</ele>
        <time>2026-08-12T06:40:15.492Z</time>
      </trkpt>
      <trkpt lat="49.56303" lon="6.2015">
        <ele>259.39</ele>
        <time>2026-08-12T06:40:20.494Z</time>
      </trkpt>
      <trkpt lat="49.56309" lon="6.20172">
        <ele>259.61</ele>
        <time>2026-08-12T06:40:26.487Z</time>
      </trkpt>
      <trkpt lat="49.56315" lon="6.2019">
        <ele>259.74</ele>
        <time>2026-08-12T06:40:31.489Z</time>
      </trkpt>
      <trkpt lat="49.56322" lon="6.20208">
        <ele>260.3</ele>
        <time>2026-08-12T06:40:36.549Z</time>
      </trkpt>
      <trkpt lat="49.56331" lon="6.20228">
        <ele>261.32</ele>
        <time>2026-08-12T06:40:42.543Z</time>
      </trkpt>
      <trkpt lat="49.56339" lon="6.20249">
        <ele>260.93</ele>
        <time>2026-08-12T06:40:48.548Z</time>
      </trkpt>
      <trkpt lat="49.56347" lon="6.20271">
        <ele>260.95</ele>
        <time>2026-08-12T06:40:54.493Z</time>
      </trkpt>
      <trkpt lat="49.56357" lon="6.20292">
        <ele>261.58</ele>
        <time>2026-08-12T06:41:00.478Z</time>
      </trkpt>
      <trkpt lat="49.56365" lon="6.2031">
        <ele>261.81</ele>
        <time>2026-08-12T06:41:05.482Z</time>
      </trkpt>
      <trkpt lat="49.56372" lon="6.20327">
        <ele>262.37</ele>
        <time>2026-08-12T06:41:10.489Z</time>
      </trkpt>
      <trkpt lat="49.5638" lon="6.20346">
        <ele>262.35</ele>
        <time>2026-08-12T06:41:15.495Z</time>
      </trkpt>
      <trkpt lat="49.5639" lon="6.20369">
        <ele>264.44</ele>
        <time>2026-08-12T06:41:21.491Z</time>
      </trkpt>
      <trkpt lat="49.56397" lon="6.20387">
        <ele>265.29</ele>
        <time>2026-08-12T06:41:26.492Z</time>
      </trkpt>
      <trkpt lat="49.56402" lon="6.2041">
        <ele>265.05</ele>
        <time>2026-08-12T06:41:32.487Z</time>
      </trkpt>
      <trkpt lat="49.56405" lon="6.20432">
        <ele>264.66</ele>
        <time>2026-08-12T06:41:37.492Z</time>
      </trkpt>
      <trkpt lat="49.56407" lon="6.20454">
        <ele>265.91</ele>
        <time>2026-08-12T06:41:42.548Z</time>
      </trkpt>
      <trkpt lat="49.56407" lon="6.20481">
        <ele>267.11</ele>
        <time>2026-08-12T06:41:48.546Z</time>
      </trkpt>
      <trkpt lat="49.56403" lon="6.20508">
        <ele>266.69</ele>
        <time>2026-08-12T06:41:54.550Z</time>
      </trkpt>
      <trkpt lat="49.56398" lon="6.20534">
        <ele>268.16</ele>
        <time>2026-08-12T06:42:00.548Z</time>
      </trkpt>
      <trkpt lat="49.5639" lon="6.20564">
        <ele>269.22</ele>
        <time>2026-08-12T06:42:06.550Z</time>
      </trkpt>
      <trkpt lat="49.56382" lon="6.20595">
        <ele>268.95</ele>
        <time>2026-08-12T06:42:12.546Z</time>
      </trkpt>
      <trkpt lat="49.56373" lon="6.20624">
        <ele>269.79</ele>
        <time>2026-08-12T06:42:18.549Z</time>
      </trkpt>
      <trkpt lat="49.56363" lon="6.20652">
        <ele>271.58</ele>
        <time>2026-08-12T06:42:24.545Z</time>
      </trkpt>
      <trkpt lat="49.56353" lon="6.20678">
        <ele>272.3</ele>
        <time>2026-08-12T06:42:30.528Z</time>
      </trkpt>
      <trkpt lat="49.56341" lon="6.20706">
        <ele>273.72</ele>
        <time>2026-08-12T06:42:36.545Z</time>
      </trkpt>
      <trkpt lat="49.5633" lon="6.20733">
        <ele>272.81</ele>
        <time>2026-08-12T06:42:42.546Z</time>
      </trkpt>
      <trkpt lat="49.56321" lon="6.20759">
        <ele>272.61</ele>
        <time>2026-08-12T06:42:48.555Z</time>
      </trkpt>
      <trkpt lat="49.56312" lon="6.20786">
        <ele>274.53</ele>
        <time>2026-08-12T06:42:54.551Z</time>
      </trkpt>
      <trkpt lat="49.56307" lon="6.20813">
        <ele>276.44</ele>
        <time>2026-08-12T06:43:00.553Z</time>
      </trkpt>
      <trkpt lat="49.56299" lon="6.20834">
        <ele>277.39</ele>
        <time>2026-08-12T06:43:06.548Z</time>
      </trkpt>
      <trkpt lat="49.5628" lon="6.20819">
        <ele>275.45</ele>
        <time>2026-08-12T06:43:12.551Z</time>
      </trkpt>
      <trkpt lat="49.56252" lon="6.20797">
        <ele>272.87</ele>
        <time>2026-08-12T06:43:18.549Z</time>
      </trkpt>
      <trkpt lat="49.56219" lon="6.20776">
        <ele>271.13</ele>
        <time>2026-08-12T06:43:24.551Z</time>
      </trkpt>
      <trkpt lat="49.56183" lon="6.20752">
        <ele>271.23</ele>
        <time>2026-08-12T06:43:30.550Z</time>
      </trkpt>
      <trkpt lat="49.56143" lon="6.20733">
        <ele>270.3</ele>
        <time>2026-08-12T06:43:36.547Z</time>
      </trkpt>
      <trkpt lat="49.56105" lon="6.20716">
        <ele>270.28</ele>
        <time>2026-08-12T06:43:42.546Z</time>
      </trkpt>
      <trkpt lat="49.56068" lon="6.20702">
        <ele>269.77</ele>
        <time>2026-08-12T06:43:48.547Z</time>
      </trkpt>
      <trkpt lat="49.56028" lon="6.20688">
        <ele>268.14</ele>
        <time>2026-08-12T06:43:54.548Z</time>
      </trkpt>
      <trkpt lat="49.55976" lon="6.2067">
        <ele>263.88</ele>
        <time>2026-08-12T06:44:00.550Z</time>
      </trkpt>
      <trkpt lat="49.55911" lon="6.20644">
        <ele>258.41</ele>
        <time>2026-08-12T06:44:06.542Z</time>
      </trkpt>
      <trkpt lat="49.55841" lon="6.20615">
        <ele>254.78</ele>
        <time>2026-08-12T06:44:12.551Z</time>
      </trkpt>
      <trkpt lat="49.5579" lon="6.20591">
        <ele>255.68</ele>
        <time>2026-08-12T06:44:18.549Z</time>
      </trkpt>
      <trkpt lat="49.55767" lon="6.20578">
        <ele>258.72</ele>
        <time>2026-08-12T06:44:24.547Z</time>
      </trkpt>
      <trkpt lat="49.5575" lon="6.2057">
        <ele>260.88</ele>
        <time>2026-08-12T06:44:30.486Z</time>
      </trkpt>
      <trkpt lat="49.55732" lon="6.20562">
        <ele>262.41</ele>
        <time>2026-08-12T06:44:36.544Z</time>
      </trkpt>
      <trkpt lat="49.55719" lon="6.2056">
        <ele>265.34</ele>
        <time>2026-08-12T06:44:42.548Z</time>
      </trkpt>
      <trkpt lat="49.55707" lon="6.20564">
        <ele>267.44</ele>
        <time>2026-08-12T06:44:48.551Z</time>
      </trkpt>
      <trkpt lat="49.55696" lon="6.2057">
        <ele>268.4</ele>
        <time>2026-08-12T06:44:54.546Z</time>
      </trkpt>
      <trkpt lat="49.55684" lon="6.20576">
        <ele>268.47</ele>
        <time>2026-08-12T06:45:00.548Z</time>
      </trkpt>
      <trkpt lat="49.5567" lon="6.20583">
        <ele>269.12</ele>
        <time>2026-08-12T06:45:06.550Z</time>
      </trkpt>
      <trkpt lat="49.55657" lon="6.2059">
        <ele>269.49</ele>
        <time>2026-08-12T06:45:12.547Z</time>
      </trkpt>
      <trkpt lat="49.55641" lon="6.20599">
        <ele>270.05</ele>
        <time>2026-08-12T06:45:18.535Z</time>
      </trkpt>
      <trkpt lat="49.55627" lon="6.20609">
        <ele>271.6</ele>
        <time>2026-08-12T06:45:24.549Z</time>
      </trkpt>
      <trkpt lat="49.55613" lon="6.20616">
        <ele>273.62</ele>
        <time>2026-08-12T06:45:30.552Z</time>
      </trkpt>
      <trkpt lat="49.55598" lon="6.2062">
        <ele>272.67</ele>
        <time>2026-08-12T06:45:36.549Z</time>
      </trkpt>
      <trkpt lat="49.55581" lon="6.20623">
        <ele>272.06</ele>
        <time>2026-08-12T06:45:42.550Z</time>
      </trkpt>
      <trkpt lat="49.55563" lon="6.20626">
        <ele>271.14</ele>
        <time>2026-08-12T06:45:48.545Z</time>
      </trkpt>
      <trkpt lat="49.55545" lon="6.2063">
        <ele>273.04</ele>
        <time>2026-08-12T06:45:54.491Z</time>
      </trkpt>
      <trkpt lat="49.55529" lon="6.20639">
        <ele>275.9</ele>
        <time>2026-08-12T06:45:59.493Z</time>
      </trkpt>
      <trkpt lat="49.5551" lon="6.20653">
        <ele>276.49</ele>
        <time>2026-08-12T06:46:05.490Z</time>
      </trkpt>
      <trkpt lat="49.55488" lon="6.20665">
        <ele>275.81</ele>
        <time>2026-08-12T06:46:11.491Z</time>
      </trkpt>
      <trkpt lat="49.55463" lon="6.20673">
        <ele>272.46</ele>
        <time>2026-08-12T06:46:17.476Z</time>
      </trkpt>
      <trkpt lat="49.55454" lon="6.20667">
        <ele>270.82</ele>
        <time>2026-08-12T06:46:24.551Z</time>
      </trkpt>
      <trkpt lat="49.55442" lon="6.20648">
        <ele>271.1</ele>
        <time>2026-08-12T06:46:30.540Z</time>
      </trkpt>
      <trkpt lat="49.55446" lon="6.20662">
        <ele>273.74</ele>
        <time>2026-08-12T06:46:41.494Z</time>
      </trkpt>
      <trkpt lat="49.55437" lon="6.20684">
        <ele>271.56</ele>
        <time>2026-08-12T06:46:47.493Z</time>
      </trkpt>
      <trkpt lat="49.55402" lon="6.20702">
        <ele>269.72</ele>
        <time>2026-08-12T06:46:53.480Z</time>
      </trkpt>
      <trkpt lat="49.5537" lon="6.2073">
        <ele>269.05</ele>
        <time>2026-08-12T06:46:58.494Z</time>
      </trkpt>
      <trkpt lat="49.55332" lon="6.20762">
        <ele>268.61</ele>
        <time>2026-08-12T06:47:04.493Z</time>
      </trkpt>
      <trkpt lat="49.55307" lon="6.2077">
        <ele>266.56</ele>
        <time>2026-08-12T06:47:09.494Z</time>
      </trkpt>
      <trkpt lat="49.55286" lon="6.20734">
        <ele>266.13</ele>
        <time>2026-08-12T06:47:15.491Z</time>
      </trkpt>
      <trkpt lat="49.55253" lon="6.207">
        <ele>265</ele>
        <time>2026-08-12T06:47:21.479Z</time>
      </trkpt>
      <trkpt lat="49.55218" lon="6.20698">
        <ele>265.59</ele>
        <time>2026-08-12T06:47:26.485Z</time>
      </trkpt>
      <trkpt lat="49.55177" lon="6.20742">
        <ele>261.39</ele>
        <time>2026-08-12T06:47:31.495Z</time>
      </trkpt>
      <trkpt lat="49.5513" lon="6.20765">
        <ele>256.36</ele>
        <time>2026-08-12T06:47:36.552Z</time>
      </trkpt>
      <trkpt lat="49.55083" lon="6.20792">
        <ele>248.04</ele>
        <time>2026-08-12T06:47:42.547Z</time>
      </trkpt>
      <trkpt lat="49.55068" lon="6.20791">
        <ele>244.34</ele>
        <time>2026-08-12T06:47:48.543Z</time>
      </trkpt>
      <trkpt lat="49.55058" lon="6.208">
        <ele>242.96</ele>
        <time>2026-08-12T06:48:03.477Z</time>
      </trkpt>
      <trkpt lat="49.5504" lon="6.20829">
        <ele>241.4</ele>
        <time>2026-08-12T06:48:08.490Z</time>
      </trkpt>
      <trkpt lat="49.55017" lon="6.20862">
        <ele>238.47</ele>
        <time>2026-08-12T06:48:13.490Z</time>
      </trkpt>
      <trkpt lat="49.54993" lon="6.20897">
        <ele>239.95</ele>
        <time>2026-08-12T06:48:18.549Z</time>
      </trkpt>
      <trkpt lat="49.54972" lon="6.20944">
        <ele>242.29</ele>
        <time>2026-08-12T06:48:24.549Z</time>
      </trkpt>
      <trkpt lat="49.54948" lon="6.20988">
        <ele>243.25</ele>
        <time>2026-08-12T06:48:30.538Z</time>
      </trkpt>
      <trkpt lat="49.54924" lon="6.21029">
        <ele>244.26</ele>
        <time>2026-08-12T06:48:36.551Z</time>
      </trkpt>
      <trkpt lat="49.54907" lon="6.21073">
        <ele>243.48</ele>
        <time>2026-08-12T06:48:42.551Z</time>
      </trkpt>
      <trkpt lat="49.54894" lon="6.21112">
        <ele>242.39</ele>
        <time>2026-08-12T06:48:48.552Z</time>
      </trkpt>
      <trkpt lat="49.54885" lon="6.21144">
        <ele>243.01</ele>
        <time>2026-08-12T06:48:54.553Z</time>
      </trkpt>
      <trkpt lat="49.5488" lon="6.21168">
        <ele>244.42</ele>
        <time>2026-08-12T06:49:00.550Z</time>
      </trkpt>
      <trkpt lat="49.54878" lon="6.21188">
        <ele>246.23</ele>
        <time>2026-08-12T06:49:06.550Z</time>
      </trkpt>
      <trkpt lat="49.54876" lon="6.21205">
        <ele>248.1</ele>
        <time>2026-08-12T06:49:12.549Z</time>
      </trkpt>
      <trkpt lat="49.54875" lon="6.21225">
        <ele>248.33</ele>
        <time>2026-08-12T06:49:18.544Z</time>
      </trkpt>
      <trkpt lat="49.54874" lon="6.21244">
        <ele>249.65</ele>
        <time>2026-08-12T06:49:24.491Z</time>
      </trkpt>
      <trkpt lat="49.54873" lon="6.21264">
        <ele>250.2</ele>
        <time>2026-08-12T06:49:30.492Z</time>
      </trkpt>
      <trkpt lat="49.54871" lon="6.21284">
        <ele>251.32</ele>
        <time>2026-08-12T06:49:36.549Z</time>
      </trkpt>
      <trkpt lat="49.5487" lon="6.21304">
        <ele>252.04</ele>
        <time>2026-08-12T06:49:42.548Z</time>
      </trkpt>
      <trkpt lat="49.54867" lon="6.21323">
        <ele>253.6</ele>
        <time>2026-08-12T06:49:48.548Z</time>
      </trkpt>
      <trkpt lat="49.54865" lon="6.21343">
        <ele>255.51</ele>
        <time>2026-08-12T06:49:54.547Z</time>
      </trkpt>
      <trkpt lat="49.54861" lon="6.21363">
        <ele>257.43</ele>
        <time>2026-08-12T06:50:00.553Z</time>
      </trkpt>
      <trkpt lat="49.54858" lon="6.21383">
        <ele>258.01</ele>
        <time>2026-08-12T06:50:06.554Z</time>
      </trkpt>
      <trkpt lat="49.54854" lon="6.21402">
        <ele>257.59</ele>
        <time>2026-08-12T06:50:12.549Z</time>
      </trkpt>
      <trkpt lat="49.54851" lon="6.21423">
        <ele>256.81</ele>
        <time>2026-08-12T06:50:18.546Z</time>
      </trkpt>
      <trkpt lat="49.54851" lon="6.2145">
        <ele>258.72</ele>
        <time>2026-08-12T06:50:24.550Z</time>
      </trkpt>
      <trkpt lat="49.54853" lon="6.21477">
        <ele>260.51</ele>
        <time>2026-08-12T06:50:30.544Z</time>
      </trkpt>
      <trkpt lat="49.54854" lon="6.21504">
        <ele>261.9</ele>
        <time>2026-08-12T06:50:36.550Z</time>
      </trkpt>
      <trkpt lat="49.54855" lon="6.21531">
        <ele>260.68</ele>
        <time>2026-08-12T06:50:42.547Z</time>
      </trkpt>
      <trkpt lat="49.54855" lon="6.21558">
        <ele>260.37</ele>
        <time>2026-08-12T06:50:48.547Z</time>
      </trkpt>
      <trkpt lat="49.54856" lon="6.21583">
        <ele>260.91</ele>
        <time>2026-08-12T06:50:54.512Z</time>
      </trkpt>
      <trkpt lat="49.54848" lon="6.21606">
        <ele>261.77</ele>
        <time>2026-08-12T06:51:00.521Z</time>
      </trkpt>
      <trkpt lat="49.54839" lon="6.21629">
        <ele>262.79</ele>
        <time>2026-08-12T06:51:06.538Z</time>
      </trkpt>
      <trkpt lat="49.54823" lon="6.21644">
        <ele>261.47</ele>
        <time>2026-08-12T06:51:12.551Z</time>
      </trkpt>
      <trkpt lat="49.54805" lon="6.21653">
        <ele>262.66</ele>
        <time>2026-08-12T06:51:18.551Z</time>
      </trkpt>
      <trkpt lat="49.54786" lon="6.21659">
        <ele>263.2</ele>
        <time>2026-08-12T06:51:24.545Z</time>
      </trkpt>
      <trkpt lat="49.54767" lon="6.21667">
        <ele>263.08</ele>
        <time>2026-08-12T06:51:30.552Z</time>
      </trkpt>
      <trkpt lat="49.54748" lon="6.21675">
        <ele>262.97</ele>
        <time>2026-08-12T06:51:36.553Z</time>
      </trkpt>
      <trkpt lat="49.54729" lon="6.21682">
        <ele>263.61</ele>
        <time>2026-08-12T06:51:42.550Z</time>
      </trkpt>
      <trkpt lat="49.54712" lon="6.21689">
        <ele>264.41</ele>
        <time>2026-08-12T06:51:48.551Z</time>
      </trkpt>
      <trkpt lat="49.54695" lon="6.21702">
        <ele>266.06</ele>
        <time>2026-08-12T06:51:54.556Z</time>
      </trkpt>
      <trkpt lat="49.54686" lon="6.21715">
        <ele>268.24</ele>
        <time>2026-08-12T06:52:00.533Z</time>
      </trkpt>
      <trkpt lat="49.54679" lon="6.21724">
        <ele>270.11</ele>
        <time>2026-08-12T06:52:37.479Z</time>
      </trkpt>
      <trkpt lat="49.54669" lon="6.21738">
        <ele>270.68</ele>
        <time>2026-08-12T06:52:42.543Z</time>
      </trkpt>
      <trkpt lat="49.54657" lon="6.21754">
        <ele>270.88</ele>
        <time>2026-08-12T06:52:48.545Z</time>
      </trkpt>
      <trkpt lat="49.54641" lon="6.21777">
        <ele>269.46</ele>
        <time>2026-08-12T06:52:54.555Z</time>
      </trkpt>
      <trkpt lat="49.54617" lon="6.21811">
        <ele>267.32</ele>
        <time>2026-08-12T06:53:00.530Z</time>
      </trkpt>
      <trkpt lat="49.54582" lon="6.2187">
        <ele>260.49</ele>
        <time>2026-08-12T06:53:06.546Z</time>
      </trkpt>
      <trkpt lat="49.54537" lon="6.21953">
        <ele>251.47</ele>
        <time>2026-08-12T06:53:12.545Z</time>
      </trkpt>
      <trkpt lat="49.54492" lon="6.22054">
        <ele>244.84</ele>
        <time>2026-08-12T06:53:18.544Z</time>
      </trkpt>
      <trkpt lat="49.54454" lon="6.22159">
        <ele>238.62</ele>
        <time>2026-08-12T06:53:24.512Z</time>
      </trkpt>
      <trkpt lat="49.54415" lon="6.22248">
        <ele>236.75</ele>
        <time>2026-08-12T06:53:30.529Z</time>
      </trkpt>
      <trkpt lat="49.54377" lon="6.22315">
        <ele>238.07</ele>
        <time>2026-08-12T06:53:36.546Z</time>
      </trkpt>
      <trkpt lat="49.54351" lon="6.22358">
        <ele>240.6</ele>
        <time>2026-08-12T06:53:42.541Z</time>
      </trkpt>
      <trkpt lat="49.54332" lon="6.22393">
        <ele>240.89</ele>
        <time>2026-08-12T06:53:48.543Z</time>
      </trkpt>
      <trkpt lat="49.54314" lon="6.22427">
        <ele>241.31</ele>
        <time>2026-08-12T06:53:54.550Z</time>
      </trkpt>
      <trkpt lat="49.54298" lon="6.22463">
        <ele>242.29</ele>
        <time>2026-08-12T06:54:00.549Z</time>
      </trkpt>
      <trkpt lat="49.54285" lon="6.22496">
        <ele>242.1</ele>
        <time>2026-08-12T06:54:06.547Z</time>
      </trkpt>
      <trkpt lat="49.54265" lon="6.22521">
        <ele>242.46</ele>
        <time>2026-08-12T06:54:12.548Z</time>
      </trkpt>
      <trkpt lat="49.54241" lon="6.22505">
        <ele>243.66</ele>
        <time>2026-08-12T06:54:18.529Z</time>
      </trkpt>
      <trkpt lat="49.54231" lon="6.22491">
        <ele>243.07</ele>
        <time>2026-08-12T06:54:24.551Z</time>
      </trkpt>
      <trkpt lat="49.54241" lon="6.22504">
        <ele>243.61</ele>
        <time>2026-08-12T06:54:30.543Z</time>
      </trkpt>
      <trkpt lat="49.54254" lon="6.22521">
        <ele>240.68</ele>
        <time>2026-08-12T06:54:36.584Z</time>
      </trkpt>
      <trkpt lat="49.54241" lon="6.22549">
        <ele>242.2</ele>
        <time>2026-08-12T06:54:42.529Z</time>
      </trkpt>
      <trkpt lat="49.54223" lon="6.22569">
        <ele>242.94</ele>
        <time>2026-08-12T06:54:48.545Z</time>
      </trkpt>
      <trkpt lat="49.54205" lon="6.22592">
        <ele>244.95</ele>
        <time>2026-08-12T06:54:54.554Z</time>
      </trkpt>
      <trkpt lat="49.54189" lon="6.22616">
        <ele>246.7</ele>
        <time>2026-08-12T06:55:00.551Z</time>
      </trkpt>
      <trkpt lat="49.54175" lon="6.22646">
        <ele>248.22</ele>
        <time>2026-08-12T06:55:06.547Z</time>
      </trkpt>
      <trkpt lat="49.54164" lon="6.22674">
        <ele>248.95</ele>
        <time>2026-08-12T06:55:12.544Z</time>
      </trkpt>
      <trkpt lat="49.54152" lon="6.22702">
        <ele>249.59</ele>
        <time>2026-08-12T06:55:18.546Z</time>
      </trkpt>
      <trkpt lat="49.54142" lon="6.22731">
        <ele>249.07</ele>
        <time>2026-08-12T06:55:24.555Z</time>
      </trkpt>
      <trkpt lat="49.54131" lon="6.2276">
        <ele>248.56</ele>
        <time>2026-08-12T06:55:30.554Z</time>
      </trkpt>
      <trkpt lat="49.54119" lon="6.22793">
        <ele>247.71</ele>
        <time>2026-08-12T06:55:36.543Z</time>
      </trkpt>
      <trkpt lat="49.54101" lon="6.22834">
        <ele>246.37</ele>
        <time>2026-08-12T06:55:42.547Z</time>
      </trkpt>
      <trkpt lat="49.54074" lon="6.22876">
        <ele>243.43</ele>
        <time>2026-08-12T06:55:48.540Z</time>
      </trkpt>
      <trkpt lat="49.54053" lon="6.22931">
        <ele>240.23</ele>
        <time>2026-08-12T06:55:54.550Z</time>
      </trkpt>
      <trkpt lat="49.54035" lon="6.22985">
        <ele>241.51</ele>
        <time>2026-08-12T06:56:00.546Z</time>
      </trkpt>
      <trkpt lat="49.54024" lon="6.23038">
        <ele>243.82</ele>
        <time>2026-08-12T06:56:06.546Z</time>
      </trkpt>
      <trkpt lat="49.54014" lon="6.23079">
        <ele>246.11</ele>
        <time>2026-08-12T06:56:12.544Z</time>
      </trkpt>
      <trkpt lat="49.54" lon="6.23115">
        <ele>246.95</ele>
        <time>2026-08-12T06:56:18.541Z</time>
      </trkpt>
      <trkpt lat="49.53986" lon="6.23152">
        <ele>247.34</ele>
        <time>2026-08-12T06:56:24.554Z</time>
      </trkpt>
      <trkpt lat="49.53974" lon="6.23191">
        <ele>246.23</ele>
        <time>2026-08-12T06:56:30.548Z</time>
      </trkpt>
      <trkpt lat="49.53963" lon="6.23229">
        <ele>245.84</ele>
        <time>2026-08-12T06:56:36.545Z</time>
      </trkpt>
      <trkpt lat="49.53953" lon="6.23263">
        <ele>246.33</ele>
        <time>2026-08-12T06:56:42.546Z</time>
      </trkpt>
      <trkpt lat="49.53944" lon="6.23297">
        <ele>247.42</ele>
        <time>2026-08-12T06:56:48.546Z</time>
      </trkpt>
      <trkpt lat="49.53933" lon="6.2333">
        <ele>248.22</ele>
        <time>2026-08-12T06:56:54.548Z</time>
      </trkpt>
      <trkpt lat="49.53924" lon="6.23362">
        <ele>247.74</ele>
        <time>2026-08-12T06:57:00.494Z</time>
      </trkpt>
      <trkpt lat="49.53914" lon="6.23394">
        <ele>248.81</ele>
        <time>2026-08-12T06:57:06.547Z</time>
      </trkpt>
      <trkpt lat="49.53902" lon="6.23425">
        <ele>249.16</ele>
        <time>2026-08-12T06:57:12.543Z</time>
      </trkpt>
      <trkpt lat="49.53885" lon="6.23453">
        <ele>249.41</ele>
        <time>2026-08-12T06:57:18.548Z</time>
      </trkpt>
      <trkpt lat="49.53866" lon="6.23481">
        <ele>248.29</ele>
        <time>2026-08-12T06:57:24.547Z</time>
      </trkpt>
      <trkpt lat="49.53837" lon="6.23506">
        <ele>247.1</ele>
        <time>2026-08-12T06:57:30.552Z</time>
      </trkpt>
      <trkpt lat="49.53811" lon="6.23529">
        <ele>246.95</ele>
        <time>2026-08-12T06:57:36.545Z</time>
      </trkpt>
      <trkpt lat="49.53794" lon="6.23552">
        <ele>247.58</ele>
        <time>2026-08-12T06:57:42.541Z</time>
      </trkpt>
      <trkpt lat="49.53776" lon="6.23576">
        <ele>249.02</ele>
        <time>2026-08-12T06:57:48.546Z</time>
      </trkpt>
      <trkpt lat="49.53758" lon="6.23602">
        <ele>250.19</ele>
        <time>2026-08-12T06:57:54.553Z</time>
      </trkpt>
      <trkpt lat="49.5374" lon="6.2363">
        <ele>250.49</ele>
        <time>2026-08-12T06:58:00.547Z</time>
      </trkpt>
      <trkpt lat="49.53721" lon="6.23662">
        <ele>251.33</ele>
        <time>2026-08-12T06:58:06.542Z</time>
      </trkpt>
      <trkpt lat="49.53698" lon="6.23696">
        <ele>250.91</ele>
        <time>2026-08-12T06:58:12.545Z</time>
      </trkpt>
      <trkpt lat="49.53673" lon="6.23728">
        <ele>249.55</ele>
        <time>2026-08-12T06:58:18.534Z</time>
      </trkpt>
      <trkpt lat="49.53646" lon="6.23759">
        <ele>249.31</ele>
        <time>2026-08-12T06:58:24.550Z</time>
      </trkpt>
      <trkpt lat="49.53617" lon="6.23794">
        <ele>248.52</ele>
        <time>2026-08-12T06:58:30.550Z</time>
      </trkpt>
      <trkpt lat="49.53588" lon="6.2383">
        <ele>247.78</ele>
        <time>2026-08-12T06:58:36.544Z</time>
      </trkpt>
      <trkpt lat="49.53566" lon="6.23869">
        <ele>248.15</ele>
        <time>2026-08-12T06:58:42.542Z</time>
      </trkpt>
      <trkpt lat="49.53548" lon="6.23907">
        <ele>249.2</ele>
        <time>2026-08-12T06:58:48.546Z</time>
      </trkpt>
      <trkpt lat="49.53532" lon="6.23939">
        <ele>250.47</ele>
        <time>2026-08-12T06:58:54.554Z</time>
      </trkpt>
      <trkpt lat="49.53515" lon="6.23972">
        <ele>251.29</ele>
        <time>2026-08-12T06:59:00.553Z</time>
      </trkpt>
      <trkpt lat="49.53498" lon="6.24005">
        <ele>251.9</ele>
        <time>2026-08-12T06:59:06.545Z</time>
      </trkpt>
      <trkpt lat="49.53482" lon="6.24038">
        <ele>253.22</ele>
        <time>2026-08-12T06:59:12.545Z</time>
      </trkpt>
      <trkpt lat="49.53469" lon="6.24074">
        <ele>253.2</ele>
        <time>2026-08-12T06:59:18.544Z</time>
      </trkpt>
      <trkpt lat="49.53462" lon="6.24112">
        <ele>253.74</ele>
        <time>2026-08-12T06:59:24.550Z</time>
      </trkpt>
      <trkpt lat="49.53454" lon="6.24142">
        <ele>253.94</ele>
        <time>2026-08-12T06:59:30.552Z</time>
      </trkpt>
      <trkpt lat="49.53444" lon="6.24178">
        <ele>253.1</ele>
        <time>2026-08-12T06:59:36.546Z</time>
      </trkpt>
      <trkpt lat="49.53434" lon="6.24217">
        <ele>252.89</ele>
        <time>2026-08-12T06:59:42.546Z</time>
      </trkpt>
      <trkpt lat="49.53424" lon="6.24261">
        <ele>250.57</ele>
        <time>2026-08-12T06:59:48.545Z</time>
      </trkpt>
      <trkpt lat="49.53413" lon="6.24308">
        <ele>249.73</ele>
        <time>2026-08-12T06:59:54.546Z</time>
      </trkpt>
      <trkpt lat="49.53398" lon="6.2436">
        <ele>248.67</ele>
        <time>2026-08-12T07:00:00.546Z</time>
      </trkpt>
      <trkpt lat="49.53382" lon="6.24416">
        <ele>246.84</ele>
        <time>2026-08-12T07:00:06.544Z</time>
      </trkpt>
      <trkpt lat="49.53381" lon="6.2448">
        <ele>243.76</ele>
        <time>2026-08-12T07:00:12.543Z</time>
      </trkpt>
      <trkpt lat="49.53363" lon="6.24541">
        <ele>241.04</ele>
        <time>2026-08-12T07:00:18.540Z</time>
      </trkpt>
      <trkpt lat="49.53334" lon="6.24587">
        <ele>241.11</ele>
        <time>2026-08-12T07:00:24.548Z</time>
      </trkpt>
      <trkpt lat="49.53325" lon="6.24597">
        <ele>242.23</ele>
        <time>2026-08-12T07:00:30.540Z</time>
      </trkpt>
      <trkpt lat="49.53327" lon="6.24612">
        <ele>241.59</ele>
        <time>2026-08-12T07:01:03.493Z</time>
      </trkpt>
      <trkpt lat="49.53329" lon="6.2464">
        <ele>239.42</ele>
        <time>2026-08-12T07:01:09.489Z</time>
      </trkpt>
      <trkpt lat="49.5332" lon="6.24673">
        <ele>240.69</ele>
        <time>2026-08-12T07:01:15.489Z</time>
      </trkpt>
      <trkpt lat="49.53311" lon="6.24699">
        <ele>243</ele>
        <time>2026-08-12T07:01:21.483Z</time>
      </trkpt>
      <trkpt lat="49.53295" lon="6.24727">
        <ele>242.57</ele>
        <time>2026-08-12T07:01:27.480Z</time>
      </trkpt>
      <trkpt lat="49.53273" lon="6.24751">
        <ele>243.35</ele>
        <time>2026-08-12T07:01:33.490Z</time>
      </trkpt>
      <trkpt lat="49.53248" lon="6.24767">
        <ele>240.25</ele>
        <time>2026-08-12T07:01:39.482Z</time>
      </trkpt>
      <trkpt lat="49.53225" lon="6.24776">
        <ele>238.89</ele>
        <time>2026-08-12T07:01:44.485Z</time>
      </trkpt>
      <trkpt lat="49.53212" lon="6.24804">
        <ele>239.42</ele>
        <time>2026-08-12T07:01:50.480Z</time>
      </trkpt>
      <trkpt lat="49.53226" lon="6.24823">
        <ele>241.03</ele>
        <time>2026-08-12T07:01:56.492Z</time>
      </trkpt>
      <trkpt lat="49.53242" lon="6.24843">
        <ele>241.53</ele>
        <time>2026-08-12T07:02:02.485Z</time>
      </trkpt>
      <trkpt lat="49.5326" lon="6.24867">
        <ele>245.11</ele>
        <time>2026-08-12T07:02:08.482Z</time>
      </trkpt>
      <trkpt lat="49.53277" lon="6.24885">
        <ele>248.95</ele>
        <time>2026-08-12T07:02:14.483Z</time>
      </trkpt>
      <trkpt lat="49.53295" lon="6.24901">
        <ele>250.03</ele>
        <time>2026-08-12T07:02:20.482Z</time>
      </trkpt>
      <trkpt lat="49.53314" lon="6.24916">
        <ele>250.18</ele>
        <time>2026-08-12T07:02:26.498Z</time>
      </trkpt>
      <trkpt lat="49.53324" lon="6.24931">
        <ele>251.26</ele>
        <time>2026-08-12T07:02:32.520Z</time>
      </trkpt>
      <trkpt lat="49.53329" lon="6.24954">
        <ele>250.64</ele>
        <time>2026-08-12T07:02:38.488Z</time>
      </trkpt>
      <trkpt lat="49.53336" lon="6.24981">
        <ele>250.21</ele>
        <time>2026-08-12T07:02:44.481Z</time>
      </trkpt>
      <trkpt lat="49.5334" lon="6.25007">
        <ele>249.84</ele>
        <time>2026-08-12T07:02:49.490Z</time>
      </trkpt>
      <trkpt lat="49.53344" lon="6.25037">
        <ele>249.48</ele>
        <time>2026-08-12T07:02:54.551Z</time>
      </trkpt>
      <trkpt lat="49.53349" lon="6.25075">
        <ele>249.19</ele>
        <time>2026-08-12T07:03:00.549Z</time>
      </trkpt>
      <trkpt lat="49.53354" lon="6.25113">
        <ele>249.78</ele>
        <time>2026-08-12T07:03:06.543Z</time>
      </trkpt>
      <trkpt lat="49.53364" lon="6.25151">
        <ele>249.82</ele>
        <time>2026-08-12T07:03:12.545Z</time>
      </trkpt>
      <trkpt lat="49.53375" lon="6.25182">
        <ele>250.36</ele>
        <time>2026-08-12T07:03:18.545Z</time>
      </trkpt>
      <trkpt lat="49.53388" lon="6.25206">
        <ele>250.75</ele>
        <time>2026-08-12T07:03:24.510Z</time>
      </trkpt>
      <trkpt lat="49.53401" lon="6.25229">
        <ele>251.43</ele>
        <time>2026-08-12T07:03:30.525Z</time>
      </trkpt>
      <trkpt lat="49.53415" lon="6.25251">
        <ele>251.81</ele>
        <time>2026-08-12T07:03:36.543Z</time>
      </trkpt>
      <trkpt lat="49.53427" lon="6.25272">
        <ele>252.63</ele>
        <time>2026-08-12T07:03:42.547Z</time>
      </trkpt>
      <trkpt lat="49.53439" lon="6.25293">
        <ele>254.39</ele>
        <time>2026-08-12T07:03:48.546Z</time>
      </trkpt>
      <trkpt lat="49.53452" lon="6.2531">
        <ele>254.9</ele>
        <time>2026-08-12T07:03:54.552Z</time>
      </trkpt>
      <trkpt lat="49.53465" lon="6.25327">
        <ele>255.07</ele>
        <time>2026-08-12T07:04:00.553Z</time>
      </trkpt>
      <trkpt lat="49.53478" lon="6.25344">
        <ele>255.99</ele>
        <time>2026-08-12T07:04:06.544Z</time>
      </trkpt>
      <trkpt lat="49.5349" lon="6.25362">
        <ele>257.33</ele>
        <time>2026-08-12T07:04:12.544Z</time>
      </trkpt>
      <trkpt lat="49.53503" lon="6.25381">
        <ele>257.56</ele>
        <time>2026-08-12T07:04:18.544Z</time>
      </trkpt>
      <trkpt lat="49.53515" lon="6.25399">
        <ele>257.66</ele>
        <time>2026-08-12T07:04:24.553Z</time>
      </trkpt>
      <trkpt lat="49.53527" lon="6.25417">
        <ele>258.57</ele>
        <time>2026-08-12T07:04:30.550Z</time>
      </trkpt>
      <trkpt lat="49.53539" lon="6.25435">
        <ele>259.71</ele>
        <time>2026-08-12T07:04:36.549Z</time>
      </trkpt>
      <trkpt lat="49.5355" lon="6.25454">
        <ele>261.29</ele>
        <time>2026-08-12T07:04:42.545Z</time>
      </trkpt>
      <trkpt lat="49.53561" lon="6.25472">
        <ele>262.45</ele>
        <time>2026-08-12T07:04:48.543Z</time>
      </trkpt>
      <trkpt lat="49.53571" lon="6.25493">
        <ele>262.7</ele>
        <time>2026-08-12T07:04:54.550Z</time>
      </trkpt>
      <trkpt lat="49.53577" lon="6.25516">
        <ele>262.51</ele>
        <time>2026-08-12T07:05:00.521Z</time>
      </trkpt>
      <trkpt lat="49.53583" lon="6.25541">
        <ele>263.02</ele>
        <time>2026-08-12T07:05:06.547Z</time>
      </trkpt>
      <trkpt lat="49.53587" lon="6.25569">
        <ele>263.18</ele>
        <time>2026-08-12T07:05:12.549Z</time>
      </trkpt>
      <trkpt lat="49.5359" lon="6.25599">
        <ele>263.82</ele>
        <time>2026-08-12T07:05:18.546Z</time>
      </trkpt>
      <trkpt lat="49.53591" lon="6.2563">
        <ele>264.1</ele>
        <time>2026-08-12T07:05:24.554Z</time>
      </trkpt>
      <trkpt lat="49.53588" lon="6.25661">
        <ele>264.28</ele>
        <time>2026-08-12T07:05:30.531Z</time>
      </trkpt>
      <trkpt lat="49.53582" lon="6.2569">
        <ele>265.22</ele>
        <time>2026-08-12T07:05:36.545Z</time>
      </trkpt>
      <trkpt lat="49.53579" lon="6.25721">
        <ele>266.77</ele>
        <time>2026-08-12T07:05:42.545Z</time>
      </trkpt>
      <trkpt lat="49.5358" lon="6.25749">
        <ele>267.62</ele>
        <time>2026-08-12T07:05:48.546Z</time>
      </trkpt>
      <trkpt lat="49.53586" lon="6.25776">
        <ele>267.78</ele>
        <time>2026-08-12T07:05:54.519Z</time>
      </trkpt>
      <trkpt lat="49.53593" lon="6.258">
        <ele>267.68</ele>
        <time>2026-08-12T07:06:00.547Z</time>
      </trkpt>
      <trkpt lat="49.53602" lon="6.25823">
        <ele>268.42</ele>
        <time>2026-08-12T07:06:06.542Z</time>
      </trkpt>
      <trkpt lat="49.53611" lon="6.25844">
        <ele>267.89</ele>
        <time>2026-08-12T07:06:12.549Z</time>
      </trkpt>
      <trkpt lat="49.5362" lon="6.25865">
        <ele>268.16</ele>
        <time>2026-08-12T07:06:18.545Z</time>
      </trkpt>
      <trkpt lat="49.53631" lon="6.25884">
        <ele>269.54</ele>
        <time>2026-08-12T07:06:24.549Z</time>
      </trkpt>
      <trkpt lat="49.53642" lon="6.25903">
        <ele>270.31</ele>
        <time>2026-08-12T07:06:30.555Z</time>
      </trkpt>
      <trkpt lat="49.53654" lon="6.25919">
        <ele>272.85</ele>
        <time>2026-08-12T07:06:36.542Z</time>
      </trkpt>
      <trkpt lat="49.53667" lon="6.25933">
        <ele>275.26</ele>
        <time>2026-08-12T07:06:42.546Z</time>
      </trkpt>
      <trkpt lat="49.53682" lon="6.25944">
        <ele>276.93</ele>
        <time>2026-08-12T07:06:48.547Z</time>
      </trkpt>
      <trkpt lat="49.53698" lon="6.25956">
        <ele>277.27</ele>
        <time>2026-08-12T07:06:54.550Z</time>
      </trkpt>
      <trkpt lat="49.53712" lon="6.25967">
        <ele>275.21</ele>
        <time>2026-08-12T07:07:00.551Z</time>
      </trkpt>
      <trkpt lat="49.53726" lon="6.25979">
        <ele>275.68</ele>
        <time>2026-08-12T07:07:06.543Z</time>
      </trkpt>
      <trkpt lat="49.53741" lon="6.25992">
        <ele>275.84</ele>
        <time>2026-08-12T07:07:12.545Z</time>
      </trkpt>
      <trkpt lat="49.53757" lon="6.26004">
        <ele>276.95</ele>
        <time>2026-08-12T07:07:18.539Z</time>
      </trkpt>
      <trkpt lat="49.53772" lon="6.26016">
        <ele>278.5</ele>
        <time>2026-08-12T07:07:24.553Z</time>
      </trkpt>
      <trkpt lat="49.53787" lon="6.26028">
        <ele>278.17</ele>
        <time>2026-08-12T07:07:30.558Z</time>
      </trkpt>
      <trkpt lat="49.53802" lon="6.2604">
        <ele>279.41</ele>
        <time>2026-08-12T07:07:36.543Z</time>
      </trkpt>
      <trkpt lat="49.53817" lon="6.26052">
        <ele>280.23</ele>
        <time>2026-08-12T07:07:42.546Z</time>
      </trkpt>
      <trkpt lat="49.53833" lon="6.26067">
        <ele>281.69</ele>
        <time>2026-08-12T07:07:48.546Z</time>
      </trkpt>
      <trkpt lat="49.53847" lon="6.26084">
        <ele>282.18</ele>
        <time>2026-08-12T07:07:54.554Z</time>
      </trkpt>
      <trkpt lat="49.5386" lon="6.26103">
        <ele>282.56</ele>
        <time>2026-08-12T07:08:00.551Z</time>
      </trkpt>
      <trkpt lat="49.53872" lon="6.26123">
        <ele>283.48</ele>
        <time>2026-08-12T07:08:06.546Z</time>
      </trkpt>
      <trkpt lat="49.53883" lon="6.26142">
        <ele>283.34</ele>
        <time>2026-08-12T07:08:12.544Z</time>
      </trkpt>
      <trkpt lat="49.53894" lon="6.26161">
        <ele>284.08</ele>
        <time>2026-08-12T07:08:18.545Z</time>
      </trkpt>
      <trkpt lat="49.53905" lon="6.26179">
        <ele>284.64</ele>
        <time>2026-08-12T07:08:24.548Z</time>
      </trkpt>
      <trkpt lat="49.53907" lon="6.26196">
        <ele>285.45</ele>
        <time>2026-08-12T07:08:30.551Z</time>
      </trkpt>
      <trkpt lat="49.5391" lon="6.26211">
        <ele>284.46</ele>
        <time>2026-08-12T07:08:36.543Z</time>
      </trkpt>
      <trkpt lat="49.53911" lon="6.26241">
        <ele>284.42</ele>
        <time>2026-08-12T07:08:42.546Z</time>
      </trkpt>
      <trkpt lat="49.53914" lon="6.26274">
        <ele>284.98</ele>
        <time>2026-08-12T07:08:48.545Z</time>
      </trkpt>
      <trkpt lat="49.53917" lon="6.26306">
        <ele>285.17</ele>
        <time>2026-08-12T07:08:54.548Z</time>
      </trkpt>
      <trkpt lat="49.53922" lon="6.26337">
        <ele>286.1</ele>
        <time>2026-08-12T07:09:00.548Z</time>
      </trkpt>
      <trkpt lat="49.5393" lon="6.26367">
        <ele>286</ele>
        <time>2026-08-12T07:09:06.547Z</time>
      </trkpt>
      <trkpt lat="49.53938" lon="6.26396">
        <ele>284.02</ele>
        <time>2026-08-12T07:09:12.543Z</time>
      </trkpt>
      <trkpt lat="49.53947" lon="6.26425">
        <ele>283.72</ele>
        <time>2026-08-12T07:09:18.545Z</time>
      </trkpt>
      <trkpt lat="49.53932" lon="6.26447">
        <ele>283.62</ele>
        <time>2026-08-12T07:09:24.550Z</time>
      </trkpt>
      <trkpt lat="49.53912" lon="6.26466">
        <ele>283.97</ele>
        <time>2026-08-12T07:09:30.547Z</time>
      </trkpt>
      <trkpt lat="49.53899" lon="6.26498">
        <ele>285.07</ele>
        <time>2026-08-12T07:09:36.538Z</time>
      </trkpt>
      <trkpt lat="49.53891" lon="6.26535">
        <ele>285.82</ele>
        <time>2026-08-12T07:09:42.543Z</time>
      </trkpt>
      <trkpt lat="49.53884" lon="6.26571">
        <ele>286.77</ele>
        <time>2026-08-12T07:09:48.545Z</time>
      </trkpt>
      <trkpt lat="49.53877" lon="6.26607">
        <ele>286.32</ele>
        <time>2026-08-12T07:09:54.553Z</time>
      </trkpt>
      <trkpt lat="49.53871" lon="6.26645">
        <ele>287.25</ele>
        <time>2026-08-12T07:10:00.554Z</time>
      </trkpt>
      <trkpt lat="49.53863" lon="6.26685">
        <ele>286.83</ele>
        <time>2026-08-12T07:10:06.542Z</time>
      </trkpt>
      <trkpt lat="49.53852" lon="6.26724">
        <ele>286.33</ele>
        <time>2026-08-12T07:10:12.543Z</time>
      </trkpt>
      <trkpt lat="49.5384" lon="6.26764">
        <ele>286.34</ele>
        <time>2026-08-12T07:10:18.542Z</time>
      </trkpt>
      <trkpt lat="49.53827" lon="6.26804">
        <ele>286.74</ele>
        <time>2026-08-12T07:10:24.551Z</time>
      </trkpt>
      <trkpt lat="49.53815" lon="6.26845">
        <ele>286.94</ele>
        <time>2026-08-12T07:10:30.552Z</time>
      </trkpt>
      <trkpt lat="49.53804" lon="6.26884">
        <ele>287.2</ele>
        <time>2026-08-12T07:10:36.547Z</time>
      </trkpt>
      <trkpt lat="49.53796" lon="6.26918">
        <ele>287.8</ele>
        <time>2026-08-12T07:10:42.542Z</time>
      </trkpt>
      <trkpt lat="49.53787" lon="6.26955">
        <ele>288.41</ele>
        <time>2026-08-12T07:10:48.547Z</time>
      </trkpt>
      <trkpt lat="49.53778" lon="6.26991">
        <ele>290.1</ele>
        <time>2026-08-12T07:10:54.549Z</time>
      </trkpt>
      <trkpt lat="49.5377" lon="6.27025">
        <ele>291.11</ele>
        <time>2026-08-12T07:11:00.560Z</time>
      </trkpt>
      <trkpt lat="49.53759" lon="6.27059">
        <ele>291.98</ele>
        <time>2026-08-12T07:11:06.543Z</time>
      </trkpt>
      <trkpt lat="49.53748" lon="6.27092">
        <ele>292.88</ele>
        <time>2026-08-12T07:11:12.558Z</time>
      </trkpt>
      <trkpt lat="49.53737" lon="6.27124">
        <ele>291.23</ele>
        <time>2026-08-12T07:11:18.544Z</time>
      </trkpt>
      <trkpt lat="49.53728" lon="6.27153">
        <ele>291.75</ele>
        <time>2026-08-12T07:11:24.552Z</time>
      </trkpt>
      <trkpt lat="49.53721" lon="6.27184">
        <ele>294.24</ele>
        <time>2026-08-12T07:11:30.549Z</time>
      </trkpt>
      <trkpt lat="49.53717" lon="6.27217">
        <ele>296.13</ele>
        <time>2026-08-12T07:11:36.547Z</time>
      </trkpt>
      <trkpt lat="49.53716" lon="6.27256">
        <ele>295.54</ele>
        <time>2026-08-12T07:11:42.546Z</time>
      </trkpt>
      <trkpt lat="49.53713" lon="6.27299">
        <ele>295.28</ele>
        <time>2026-08-12T07:11:48.544Z</time>
      </trkpt>
      <trkpt lat="49.5371" lon="6.27346">
        <ele>293.18</ele>
        <time>2026-08-12T07:11:54.544Z</time>
      </trkpt>
      <trkpt lat="49.53708" lon="6.27398">
        <ele>290.94</ele>
        <time>2026-08-12T07:12:00.549Z</time>
      </trkpt>
      <trkpt lat="49.53702" lon="6.27458">
        <ele>287.24</ele>
        <time>2026-08-12T07:12:06.544Z</time>
      </trkpt>
      <trkpt lat="49.53703" lon="6.27519">
        <ele>285.48</ele>
        <time>2026-08-12T07:12:12.544Z</time>
      </trkpt>
      <trkpt lat="49.53705" lon="6.27579">
        <ele>284.65</ele>
        <time>2026-08-12T07:12:18.542Z</time>
      </trkpt>
      <trkpt lat="49.53671" lon="6.27644">
        <ele>279.2</ele>
        <time>2026-08-12T07:12:24.548Z</time>
      </trkpt>
      <trkpt lat="49.53589" lon="6.27658">
        <ele>271.36</ele>
        <time>2026-08-12T07:12:30.547Z</time>
      </trkpt>
      <trkpt lat="49.53538" lon="6.27739">
        <ele>262.84</ele>
        <time>2026-08-12T07:12:36.543Z</time>
      </trkpt>
      <trkpt lat="49.53491" lon="6.2785">
        <ele>251.02</ele>
        <time>2026-08-12T07:12:42.539Z</time>
      </trkpt>
      <trkpt lat="49.53463" lon="6.27936">
        <ele>244.1</ele>
        <time>2026-08-12T07:12:48.541Z</time>
      </trkpt>
      <trkpt lat="49.53435" lon="6.27973">
        <ele>240.38</ele>
        <time>2026-08-12T07:12:54.546Z</time>
      </trkpt>
      <trkpt lat="49.53398" lon="6.28039">
        <ele>234.11</ele>
        <time>2026-08-12T07:13:00.551Z</time>
      </trkpt>
      <trkpt lat="49.53363" lon="6.2811">
        <ele>230.43</ele>
        <time>2026-08-12T07:13:06.545Z</time>
      </trkpt>
      <trkpt lat="49.53334" lon="6.28168">
        <ele>229.43</ele>
        <time>2026-08-12T07:13:12.540Z</time>
      </trkpt>
      <trkpt lat="49.53303" lon="6.28213">
        <ele>231.34</ele>
        <time>2026-08-12T07:13:18.540Z</time>
      </trkpt>
      <trkpt lat="49.5326" lon="6.2823">
        <ele>233.3</ele>
        <time>2026-08-12T07:13:24.548Z</time>
      </trkpt>
      <trkpt lat="49.53223" lon="6.28219">
        <ele>234.98</ele>
        <time>2026-08-12T07:13:30.548Z</time>
      </trkpt>
      <trkpt lat="49.53204" lon="6.28256">
        <ele>235.12</ele>
        <time>2026-08-12T07:13:36.542Z</time>
      </trkpt>
      <trkpt lat="49.53178" lon="6.2829">
        <ele>234.57</ele>
        <time>2026-08-12T07:13:42.540Z</time>
      </trkpt>
      <trkpt lat="49.5315" lon="6.28317">
        <ele>235.25</ele>
        <time>2026-08-12T07:13:48.545Z</time>
      </trkpt>
      <trkpt lat="49.53124" lon="6.28344">
        <ele>236.92</ele>
        <time>2026-08-12T07:13:54.546Z</time>
      </trkpt>
      <trkpt lat="49.531" lon="6.2837">
        <ele>237.46</ele>
        <time>2026-08-12T07:14:00.546Z</time>
      </trkpt>
      <trkpt lat="49.53076" lon="6.28395">
        <ele>239.58</ele>
        <time>2026-08-12T07:14:06.542Z</time>
      </trkpt>
      <trkpt lat="49.5305" lon="6.28416">
        <ele>239.97</ele>
        <time>2026-08-12T07:14:12.539Z</time>
      </trkpt>
      <trkpt lat="49.53025" lon="6.2844">
        <ele>240.06</ele>
        <time>2026-08-12T07:14:18.542Z</time>
      </trkpt>
      <trkpt lat="49.53002" lon="6.28465">
        <ele>239.67</ele>
        <time>2026-08-12T07:14:24.514Z</time>
      </trkpt>
      <trkpt lat="49.5298" lon="6.28488">
        <ele>239.42</ele>
        <time>2026-08-12T07:14:30.525Z</time>
      </trkpt>
      <trkpt lat="49.52957" lon="6.28511">
        <ele>239.54</ele>
        <time>2026-08-12T07:14:36.547Z</time>
      </trkpt>
      <trkpt lat="49.52935" lon="6.28533">
        <ele>240.06</ele>
        <time>2026-08-12T07:14:42.545Z</time>
      </trkpt>
      <trkpt lat="49.5291" lon="6.28554">
        <ele>240.08</ele>
        <time>2026-08-12T07:14:48.540Z</time>
      </trkpt>
      <trkpt lat="49.52885" lon="6.28573">
        <ele>241.04</ele>
        <time>2026-08-12T07:14:54.546Z</time>
      </trkpt>
      <trkpt lat="49.52859" lon="6.28594">
        <ele>241.47</ele>
        <time>2026-08-12T07:15:00.548Z</time>
      </trkpt>
      <trkpt lat="49.52831" lon="6.28615">
        <ele>241.46</ele>
        <time>2026-08-12T07:15:06.542Z</time>
      </trkpt>
      <trkpt lat="49.52802" lon="6.28638">
        <ele>241.62</ele>
        <time>2026-08-12T07:15:12.541Z</time>
      </trkpt>
      <trkpt lat="49.52769" lon="6.28655">
        <ele>241.49</ele>
        <time>2026-08-12T07:15:18.546Z</time>
      </trkpt>
      <trkpt lat="49.52728" lon="6.28653">
        <ele>240.15</ele>
        <time>2026-08-12T07:15:24.545Z</time>
      </trkpt>
      <trkpt lat="49.52684" lon="6.28651">
        <ele>239.28</ele>
        <time>2026-08-12T07:15:30.535Z</time>
      </trkpt>
      <trkpt lat="49.5264" lon="6.28649">
        <ele>237.82</ele>
        <time>2026-08-12T07:15:36.543Z</time>
      </trkpt>
      <trkpt lat="49.52593" lon="6.28656">
        <ele>236.52</ele>
        <time>2026-08-12T07:15:42.541Z</time>
      </trkpt>
      <trkpt lat="49.52548" lon="6.28674">
        <ele>235.17</ele>
        <time>2026-08-12T07:15:48.545Z</time>
      </trkpt>
      <trkpt lat="49.52507" lon="6.28698">
        <ele>234.5</ele>
        <time>2026-08-12T07:15:54.503Z</time>
      </trkpt>
      <trkpt lat="49.52468" lon="6.28729">
        <ele>233.91</ele>
        <time>2026-08-12T07:16:00.549Z</time>
      </trkpt>
      <trkpt lat="49.5243" lon="6.28763">
        <ele>233.26</ele>
        <time>2026-08-12T07:16:06.542Z</time>
      </trkpt>
      <trkpt lat="49.52396" lon="6.28804">
        <ele>231.48</ele>
        <time>2026-08-12T07:16:12.540Z</time>
      </trkpt>
      <trkpt lat="49.52379" lon="6.28862">
        <ele>230.17</ele>
        <time>2026-08-12T07:16:18.542Z</time>
      </trkpt>
      <trkpt lat="49.52361" lon="6.28926">
        <ele>227.51</ele>
        <time>2026-08-12T07:16:24.548Z</time>
      </trkpt>
      <trkpt lat="49.52342" lon="6.29001">
        <ele>223.02</ele>
        <time>2026-08-12T07:16:30.552Z</time>
      </trkpt>
      <trkpt lat="49.52315" lon="6.29076">
        <ele>216.62</ele>
        <time>2026-08-12T07:16:36.546Z</time>
      </trkpt>
      <trkpt lat="49.52272" lon="6.29134">
        <ele>208.8</ele>
        <time>2026-08-12T07:16:42.538Z</time>
      </trkpt>
      <trkpt lat="49.5226" lon="6.29219">
        <ele>201.2</ele>
        <time>2026-08-12T07:16:48.539Z</time>
      </trkpt>
      <trkpt lat="49.52237" lon="6.29308">
        <ele>194.52</ele>
        <time>2026-08-12T07:16:54.546Z</time>
      </trkpt>
      <trkpt lat="49.52219" lon="6.29402">
        <ele>190.63</ele>
        <time>2026-08-12T07:17:00.551Z</time>
      </trkpt>
      <trkpt lat="49.52222" lon="6.29486">
        <ele>189.66</ele>
        <time>2026-08-12T07:17:06.543Z</time>
      </trkpt>
      <trkpt lat="49.52222" lon="6.29534">
        <ele>189.56</ele>
        <time>2026-08-12T07:17:12.541Z</time>
      </trkpt>
      <trkpt lat="49.52195" lon="6.2958">
        <ele>186.59</ele>
        <time>2026-08-12T07:17:18.543Z</time>
      </trkpt>
      <trkpt lat="49.52171" lon="6.29625">
        <ele>185.36</ele>
        <time>2026-08-12T07:17:24.546Z</time>
      </trkpt>
      <trkpt lat="49.52143" lon="6.29669">
        <ele>182.42</ele>
        <time>2026-08-12T07:17:30.558Z</time>
      </trkpt>
      <trkpt lat="49.52121" lon="6.2972">
        <ele>180.07</ele>
        <time>2026-08-12T07:17:36.534Z</time>
      </trkpt>
      <trkpt lat="49.52106" lon="6.29749">
        <ele>179.77</ele>
        <time>2026-08-12T07:17:42.539Z</time>
      </trkpt>
      <trkpt lat="49.52093" lon="6.29735">
        <ele>182.77</ele>
        <time>2026-08-12T07:17:48.554Z</time>
      </trkpt>
      <trkpt lat="49.5207" lon="6.29713">
        <ele>182.85</ele>
        <time>2026-08-12T07:17:54.553Z</time>
      </trkpt>
      <trkpt lat="49.52045" lon="6.29684">
        <ele>180.21</ele>
        <time>2026-08-12T07:18:00.563Z</time>
      </trkpt>
      <trkpt lat="49.52034" lon="6.29647">
        <ele>180.77</ele>
        <time>2026-08-12T07:18:06.545Z</time>
      </trkpt>
      <trkpt lat="49.52028" lon="6.29621">
        <ele>182.61</ele>
        <time>2026-08-12T07:18:12.541Z</time>
      </trkpt>
      <trkpt lat="49.5203" lon="6.29639">
        <ele>183.86</ele>
        <time>2026-08-12T07:18:17.594Z</time>
      </trkpt>
      <trkpt lat="49.52035" lon="6.29668">
        <ele>182.67</ele>
        <time>2026-08-12T07:18:23.484Z</time>
      </trkpt>
      <trkpt lat="49.52047" lon="6.29691">
        <ele>177.21</ele>
        <time>2026-08-12T07:18:29.470Z</time>
      </trkpt>
      <trkpt lat="49.52039" lon="6.29723">
        <ele>175.55</ele>
        <time>2026-08-12T07:18:34.492Z</time>
      </trkpt>
      <trkpt lat="49.52015" lon="6.29773">
        <ele>172.88</ele>
        <time>2026-08-12T07:18:40.492Z</time>
      </trkpt>
      <trkpt lat="49.51995" lon="6.29815">
        <ele>173.88</ele>
        <time>2026-08-12T07:18:46.478Z</time>
      </trkpt>
      <trkpt lat="49.51977" lon="6.29843">
        <ele>177.1</ele>
        <time>2026-08-12T07:18:51.493Z</time>
      </trkpt>
      <trkpt lat="49.51963" lon="6.29864">
        <ele>179.31</ele>
        <time>2026-08-12T07:18:57.490Z</time>
      </trkpt>
      <trkpt lat="49.51955" lon="6.29877">
        <ele>182.69</ele>
        <time>2026-08-12T07:19:02.494Z</time>
      </trkpt>
      <trkpt lat="49.51944" lon="6.29894">
        <ele>185.94</ele>
        <time>2026-08-12T07:19:08.493Z</time>
      </trkpt>
      <trkpt lat="49.51933" lon="6.29912">
        <ele>186.68</ele>
        <time>2026-08-12T07:19:14.494Z</time>
      </trkpt>
      <trkpt lat="49.51923" lon="6.29928">
        <ele>186.38</ele>
        <time>2026-08-12T07:19:20.489Z</time>
      </trkpt>
      <trkpt lat="49.51916" lon="6.2994">
        <ele>187.17</ele>
        <time>2026-08-12T07:19:25.493Z</time>
      </trkpt>
      <trkpt lat="49.5191" lon="6.29952">
        <ele>189.01</ele>
        <time>2026-08-12T07:19:30.551Z</time>
      </trkpt>
      <trkpt lat="49.51901" lon="6.29967">
        <ele>189.48</ele>
        <time>2026-08-12T07:19:36.544Z</time>
      </trkpt>
      <trkpt lat="49.51889" lon="6.29977">
        <ele>191.58</ele>
        <time>2026-08-12T07:19:42.549Z</time>
      </trkpt>
      <trkpt lat="49.5188" lon="6.29989">
        <ele>190.67</ele>
        <time>2026-08-12T07:19:48.543Z</time>
      </trkpt>
      <trkpt lat="49.51869" lon="6.30009">
        <ele>189.85</ele>
        <time>2026-08-12T07:19:54.562Z</time>
      </trkpt>
      <trkpt lat="49.51858" lon="6.30029">
        <ele>191.77</ele>
        <time>2026-08-12T07:20:00.546Z</time>
      </trkpt>
      <trkpt lat="49.51845" lon="6.30048">
        <ele>193.82</ele>
        <time>2026-08-12T07:20:06.544Z</time>
      </trkpt>
      <trkpt lat="49.51834" lon="6.30072">
        <ele>194.39</ele>
        <time>2026-08-12T07:20:12.543Z</time>
      </trkpt>
      <trkpt lat="49.5182" lon="6.30094">
        <ele>195.06</ele>
        <time>2026-08-12T07:20:18.546Z</time>
      </trkpt>
      <trkpt lat="49.51804" lon="6.30115">
        <ele>194.83</ele>
        <time>2026-08-12T07:20:24.547Z</time>
      </trkpt>
      <trkpt lat="49.51788" lon="6.30135">
        <ele>197.57</ele>
        <time>2026-08-12T07:20:30.542Z</time>
      </trkpt>
      <trkpt lat="49.51777" lon="6.30135">
        <ele>196.9</ele>
        <time>2026-08-12T07:20:36.537Z</time>
      </trkpt>
      <trkpt lat="49.51764" lon="6.30156">
        <ele>195.02</ele>
        <time>2026-08-12T07:20:42.533Z</time>
      </trkpt>
      <trkpt lat="49.51751" lon="6.30196">
        <ele>191.78</ele>
        <time>2026-08-12T07:20:48.532Z</time>
      </trkpt>
      <trkpt lat="49.51731" lon="6.30232">
        <ele>189.12</ele>
        <time>2026-08-12T07:20:54.550Z</time>
      </trkpt>
      <trkpt lat="49.51708" lon="6.3027">
        <ele>189.22</ele>
        <time>2026-08-12T07:21:00.534Z</time>
      </trkpt>
      <trkpt lat="49.51686" lon="6.30308">
        <ele>189.73</ele>
        <time>2026-08-12T07:21:06.543Z</time>
      </trkpt>
      <trkpt lat="49.51668" lon="6.30339">
        <ele>191.56</ele>
        <time>2026-08-12T07:21:12.530Z</time>
      </trkpt>
      <trkpt lat="49.51651" lon="6.30367">
        <ele>191.89</ele>
        <time>2026-08-12T07:21:18.542Z</time>
      </trkpt>
      <trkpt lat="49.51631" lon="6.30397">
        <ele>191.59</ele>
        <time>2026-08-12T07:21:24.540Z</time>
      </trkpt>
      <trkpt lat="49.51617" lon="6.30427">
        <ele>193</ele>
        <time>2026-08-12T07:21:30.537Z</time>
      </trkpt>
      <trkpt lat="49.51606" lon="6.30456">
        <ele>194.49</ele>
        <time>2026-08-12T07:21:36.547Z</time>
      </trkpt>
      <trkpt lat="49.51596" lon="6.3049">
        <ele>195.2</ele>
        <time>2026-08-12T07:21:42.535Z</time>
      </trkpt>
      <trkpt lat="49.51587" lon="6.30518">
        <ele>197.96</ele>
        <time>2026-08-12T07:21:48.536Z</time>
      </trkpt>
      <trkpt lat="49.51571" lon="6.30529">
        <ele>198.42</ele>
        <time>2026-08-12T07:21:54.551Z</time>
      </trkpt>
      <trkpt lat="49.51551" lon="6.30521">
        <ele>196.84</ele>
        <time>2026-08-12T07:22:00.542Z</time>
      </trkpt>
      <trkpt lat="49.51535" lon="6.30516">
        <ele>195.29</ele>
        <time>2026-08-12T07:22:06.535Z</time>
      </trkpt>
      <trkpt lat="49.51526" lon="6.30542">
        <ele>197.34</ele>
        <time>2026-08-12T07:22:12.529Z</time>
      </trkpt>
      <trkpt lat="49.51509" lon="6.30563">
        <ele>198.76</ele>
        <time>2026-08-12T07:22:18.527Z</time>
      </trkpt>
      <trkpt lat="49.51497" lon="6.30588">
        <ele>201.11</ele>
        <time>2026-08-12T07:22:24.562Z</time>
      </trkpt>
      <trkpt lat="49.5149" lon="6.30611">
        <ele>202.19</ele>
        <time>2026-08-12T07:22:30.554Z</time>
      </trkpt>
      <trkpt lat="49.51487" lon="6.30637">
        <ele>203.72</ele>
        <time>2026-08-12T07:22:36.555Z</time>
      </trkpt>
      <trkpt lat="49.51487" lon="6.30663">
        <ele>204.28</ele>
        <time>2026-08-12T07:22:42.545Z</time>
      </trkpt>
      <trkpt lat="49.51486" lon="6.3069">
        <ele>204.95</ele>
        <time>2026-08-12T07:22:48.540Z</time>
      </trkpt>
      <trkpt lat="49.5148" lon="6.30713">
        <ele>207.18</ele>
        <time>2026-08-12T07:22:54.537Z</time>
      </trkpt>
      <trkpt lat="49.51475" lon="6.30731">
        <ele>208.39</ele>
        <time>2026-08-12T07:23:00.556Z</time>
      </trkpt>
      <trkpt lat="49.5147" lon="6.30752">
        <ele>210.03</ele>
        <time>2026-08-12T07:23:06.538Z</time>
      </trkpt>
      <trkpt lat="49.5146" lon="6.30768">
        <ele>212.73</ele>
        <time>2026-08-12T07:23:12.532Z</time>
      </trkpt>
      <trkpt lat="49.51449" lon="6.30785">
        <ele>212.55</ele>
        <time>2026-08-12T07:23:18.531Z</time>
      </trkpt>
      <trkpt lat="49.51437" lon="6.30804">
        <ele>210.69</ele>
        <time>2026-08-12T07:23:24.551Z</time>
      </trkpt>
      <trkpt lat="49.51424" lon="6.30825">
        <ele>210.13</ele>
        <time>2026-08-12T07:23:30.531Z</time>
      </trkpt>
      <trkpt lat="49.51411" lon="6.30847">
        <ele>209.68</ele>
        <time>2026-08-12T07:23:36.534Z</time>
      </trkpt>
      <trkpt lat="49.514" lon="6.30868">
        <ele>210.24</ele>
        <time>2026-08-12T07:23:42.554Z</time>
      </trkpt>
      <trkpt lat="49.51389" lon="6.30885">
        <ele>211.76</ele>
        <time>2026-08-12T07:23:48.538Z</time>
      </trkpt>
      <trkpt lat="49.51378" lon="6.30903">
        <ele>213.15</ele>
        <time>2026-08-12T07:23:54.536Z</time>
      </trkpt>
      <trkpt lat="49.51367" lon="6.30923">
        <ele>213.96</ele>
        <time>2026-08-12T07:24:00.530Z</time>
      </trkpt>
      <trkpt lat="49.51356" lon="6.30941">
        <ele>213.71</ele>
        <time>2026-08-12T07:24:06.542Z</time>
      </trkpt>
      <trkpt lat="49.51344" lon="6.30962">
        <ele>214.84</ele>
        <time>2026-08-12T07:24:12.534Z</time>
      </trkpt>
      <trkpt lat="49.51332" lon="6.30981">
        <ele>215.4</ele>
        <time>2026-08-12T07:24:18.546Z</time>
      </trkpt>
      <trkpt lat="49.5132" lon="6.31003">
        <ele>216.13</ele>
        <time>2026-08-12T07:24:24.554Z</time>
      </trkpt>
      <trkpt lat="49.51309" lon="6.31024">
        <ele>218.27</ele>
        <time>2026-08-12T07:24:30.550Z</time>
      </trkpt>
      <trkpt lat="49.51297" lon="6.31044">
        <ele>221.41</ele>
        <time>2026-08-12T07:24:36.541Z</time>
      </trkpt>
      <trkpt lat="49.51287" lon="6.31063">
        <ele>224.69</ele>
        <time>2026-08-12T07:24:42.550Z</time>
      </trkpt>
      <trkpt lat="49.51276" lon="6.31081">
        <ele>225.74</ele>
        <time>2026-08-12T07:24:48.551Z</time>
      </trkpt>
      <trkpt lat="49.51264" lon="6.311">
        <ele>226.18</ele>
        <time>2026-08-12T07:24:54.554Z</time>
      </trkpt>
      <trkpt lat="49.51253" lon="6.31121">
        <ele>226.57</ele>
        <time>2026-08-12T07:25:00.554Z</time>
      </trkpt>
      <trkpt lat="49.5124" lon="6.3114">
        <ele>224.86</ele>
        <time>2026-08-12T07:25:06.547Z</time>
      </trkpt>
      <trkpt lat="49.51226" lon="6.31162">
        <ele>225.2</ele>
        <time>2026-08-12T07:25:12.551Z</time>
      </trkpt>
      <trkpt lat="49.51211" lon="6.31183">
        <ele>225.85</ele>
        <time>2026-08-12T07:25:18.546Z</time>
      </trkpt>
      <trkpt lat="49.51196" lon="6.312">
        <ele>226.32</ele>
        <time>2026-08-12T07:25:24.558Z</time>
      </trkpt>
      <trkpt lat="49.51181" lon="6.31218">
        <ele>226.28</ele>
        <time>2026-08-12T07:25:30.546Z</time>
      </trkpt>
      <trkpt lat="49.51161" lon="6.31233">
        <ele>226.26</ele>
        <time>2026-08-12T07:25:36.544Z</time>
      </trkpt>
      <trkpt lat="49.51141" lon="6.31247">
        <ele>225.85</ele>
        <time>2026-08-12T07:25:42.539Z</time>
      </trkpt>
      <trkpt lat="49.51121" lon="6.31261">
        <ele>226.6</ele>
        <time>2026-08-12T07:25:48.540Z</time>
      </trkpt>
      <trkpt lat="49.51098" lon="6.31276">
        <ele>226.09</ele>
        <time>2026-08-12T07:25:54.545Z</time>
      </trkpt>
      <trkpt lat="49.51073" lon="6.31292">
        <ele>224.92</ele>
        <time>2026-08-12T07:26:00.539Z</time>
      </trkpt>
      <trkpt lat="49.51044" lon="6.3131">
        <ele>224.09</ele>
        <time>2026-08-12T07:26:06.541Z</time>
      </trkpt>
      <trkpt lat="49.51013" lon="6.3133">
        <ele>223.63</ele>
        <time>2026-08-12T07:26:12.547Z</time>
      </trkpt>
      <trkpt lat="49.50983" lon="6.31351">
        <ele>223.42</ele>
        <time>2026-08-12T07:26:18.531Z</time>
      </trkpt>
      <trkpt lat="49.50954" lon="6.31371">
        <ele>223.68</ele>
        <time>2026-08-12T07:26:24.541Z</time>
      </trkpt>
      <trkpt lat="49.50922" lon="6.31391">
        <ele>223.43</ele>
        <time>2026-08-12T07:26:30.546Z</time>
      </trkpt>
      <trkpt lat="49.50884" lon="6.31409">
        <ele>224.09</ele>
        <time>2026-08-12T07:26:36.540Z</time>
      </trkpt>
      <trkpt lat="49.50848" lon="6.31422">
        <ele>222.62</ele>
        <time>2026-08-12T07:26:42.538Z</time>
      </trkpt>
      <trkpt lat="49.50811" lon="6.31435">
        <ele>221.66</ele>
        <time>2026-08-12T07:26:48.536Z</time>
      </trkpt>
      <trkpt lat="49.50778" lon="6.31447">
        <ele>222.32</ele>
        <time>2026-08-12T07:26:54.547Z</time>
      </trkpt>
      <trkpt lat="49.50794" lon="6.31476">
        <ele>221.37</ele>
        <time>2026-08-12T07:27:00.539Z</time>
      </trkpt>
      <trkpt lat="49.50819" lon="6.31496">
        <ele>221.11</ele>
        <time>2026-08-12T07:27:06.540Z</time>
      </trkpt>
      <trkpt lat="49.5084" lon="6.31518">
        <ele>220.91</ele>
        <time>2026-08-12T07:27:12.538Z</time>
      </trkpt>
      <trkpt lat="49.5086" lon="6.31537">
        <ele>219.86</ele>
        <time>2026-08-12T07:27:18.542Z</time>
      </trkpt>
      <trkpt lat="49.50875" lon="6.31556">
        <ele>219.67</ele>
        <time>2026-08-12T07:27:24.544Z</time>
      </trkpt>
      <trkpt lat="49.50871" lon="6.31571">
        <ele>221.15</ele>
        <time>2026-08-12T07:27:30.552Z</time>
      </trkpt>
      <trkpt lat="49.50852" lon="6.31585">
        <ele>218.99</ele>
        <time>2026-08-12T07:27:36.532Z</time>
      </trkpt>
      <trkpt lat="49.50822" lon="6.31593">
        <ele>215.81</ele>
        <time>2026-08-12T07:27:42.543Z</time>
      </trkpt>
      <trkpt lat="49.50792" lon="6.31602">
        <ele>214.59</ele>
        <time>2026-08-12T07:27:48.538Z</time>
      </trkpt>
      <trkpt lat="49.50762" lon="6.31605">
        <ele>213.29</ele>
        <time>2026-08-12T07:27:54.540Z</time>
      </trkpt>
      <trkpt lat="49.50755" lon="6.31629">
        <ele>211.49</ele>
        <time>2026-08-12T07:28:00.542Z</time>
      </trkpt>
      <trkpt lat="49.50769" lon="6.31665">
        <ele>207.76</ele>
        <time>2026-08-12T07:28:06.542Z</time>
      </trkpt>
      <trkpt lat="49.50771" lon="6.31719">
        <ele>207.16</ele>
        <time>2026-08-12T07:28:12.538Z</time>
      </trkpt>
      <trkpt lat="49.50783" lon="6.31771">
        <ele>204.96</ele>
        <time>2026-08-12T07:28:18.534Z</time>
      </trkpt>
      <trkpt lat="49.50795" lon="6.31806">
        <ele>203.92</ele>
        <time>2026-08-12T07:28:24.495Z</time>
      </trkpt>
      <trkpt lat="49.50795" lon="6.3179">
        <ele>204.47</ele>
        <time>2026-08-12T07:28:35.486Z</time>
      </trkpt>
      <trkpt lat="49.50786" lon="6.31759">
        <ele>204.56</ele>
        <time>2026-08-12T07:28:40.486Z</time>
      </trkpt>
      <trkpt lat="49.50775" lon="6.31725">
        <ele>206</ele>
        <time>2026-08-12T07:28:46.481Z</time>
      </trkpt>
      <trkpt lat="49.50765" lon="6.31723">
        <ele>207.09</ele>
        <time>2026-08-12T07:28:51.495Z</time>
      </trkpt>
      <trkpt lat="49.50752" lon="6.31769">
        <ele>207.36</ele>
        <time>2026-08-12T07:28:57.480Z</time>
      </trkpt>
      <trkpt lat="49.50738" lon="6.31815">
        <ele>205.8</ele>
        <time>2026-08-12T07:29:03.476Z</time>
      </trkpt>
      <trkpt lat="49.50707" lon="6.3182">
        <ele>203.09</ele>
        <time>2026-08-12T07:29:08.488Z</time>
      </trkpt>
      <trkpt lat="49.50697" lon="6.31885">
        <ele>199.86</ele>
        <time>2026-08-12T07:29:14.478Z</time>
      </trkpt>
      <trkpt lat="49.50701" lon="6.31988">
        <ele>192.01</ele>
        <time>2026-08-12T07:29:20.478Z</time>
      </trkpt>
      <trkpt lat="49.50716" lon="6.32095">
        <ele>183.91</ele>
        <time>2026-08-12T07:29:26.477Z</time>
      </trkpt>
      <trkpt lat="49.50726" lon="6.32178">
        <ele>176.17</ele>
        <time>2026-08-12T07:29:31.485Z</time>
      </trkpt>
      <trkpt lat="49.50724" lon="6.32262">
        <ele>169.89</ele>
        <time>2026-08-12T07:29:36.548Z</time>
      </trkpt>
      <trkpt lat="49.50727" lon="6.32368">
        <ele>163.64</ele>
        <time>2026-08-12T07:29:42.529Z</time>
      </trkpt>
      <trkpt lat="49.50757" lon="6.32434">
        <ele>158.17</ele>
        <time>2026-08-12T07:29:48.529Z</time>
      </trkpt>
      <trkpt lat="49.50754" lon="6.32496">
        <ele>154.05</ele>
        <time>2026-08-12T07:29:54.547Z</time>
      </trkpt>
      <trkpt lat="49.50725" lon="6.32556">
        <ele>152.03</ele>
        <time>2026-08-12T07:30:00.536Z</time>
      </trkpt>
      <trkpt lat="49.50718" lon="6.32626">
        <ele>152.19</ele>
        <time>2026-08-12T07:30:06.537Z</time>
      </trkpt>
      <trkpt lat="49.50716" lon="6.32693">
        <ele>153.35</ele>
        <time>2026-08-12T07:30:12.543Z</time>
      </trkpt>
      <trkpt lat="49.50711" lon="6.32757">
        <ele>155.02</ele>
        <time>2026-08-12T07:30:18.537Z</time>
      </trkpt>
      <trkpt lat="49.50707" lon="6.32818">
        <ele>158.01</ele>
        <time>2026-08-12T07:30:24.541Z</time>
      </trkpt>
      <trkpt lat="49.507" lon="6.32869">
        <ele>159.36</ele>
        <time>2026-08-12T07:30:30.535Z</time>
      </trkpt>
      <trkpt lat="49.50693" lon="6.32939">
        <ele>158.15</ele>
        <time>2026-08-12T07:30:36.530Z</time>
      </trkpt>
      <trkpt lat="49.50687" lon="6.33032">
        <ele>154.56</ele>
        <time>2026-08-12T07:30:42.531Z</time>
      </trkpt>
      <trkpt lat="49.50695" lon="6.33112">
        <ele>151.47</ele>
        <time>2026-08-12T07:30:48.552Z</time>
      </trkpt>
      <trkpt lat="49.50709" lon="6.33178">
        <ele>151.21</ele>
        <time>2026-08-12T07:30:54.514Z</time>
      </trkpt>
      <trkpt lat="49.50726" lon="6.33249">
        <ele>147.27</ele>
        <time>2026-08-12T07:31:00.533Z</time>
      </trkpt>
      <trkpt lat="49.50736" lon="6.33333">
        <ele>143.31</ele>
        <time>2026-08-12T07:31:06.542Z</time>
      </trkpt>
      <trkpt lat="49.5073" lon="6.33411">
        <ele>139.57</ele>
        <time>2026-08-12T07:31:12.535Z</time>
      </trkpt>
      <trkpt lat="49.50712" lon="6.33478">
        <ele>134.98</ele>
        <time>2026-08-12T07:31:18.536Z</time>
      </trkpt>
      <trkpt lat="49.50678" lon="6.33502">
        <ele>132.32</ele>
        <time>2026-08-12T07:31:24.542Z</time>
      </trkpt>
      <trkpt lat="49.50636" lon="6.33511">
        <ele>129.98</ele>
        <time>2026-08-12T07:31:30.538Z</time>
      </trkpt>
      <trkpt lat="49.50602" lon="6.33553">
        <ele>129.8</ele>
        <time>2026-08-12T07:31:36.539Z</time>
      </trkpt>
      <trkpt lat="49.50573" lon="6.33609">
        <ele>133.29</ele>
        <time>2026-08-12T07:31:42.535Z</time>
      </trkpt>
      <trkpt lat="49.50553" lon="6.33648">
        <ele>134.82</ele>
        <time>2026-08-12T07:31:48.537Z</time>
      </trkpt>
      <trkpt lat="49.50528" lon="6.33693">
        <ele>135.27</ele>
        <time>2026-08-12T07:31:54.545Z</time>
      </trkpt>
      <trkpt lat="49.50505" lon="6.33759">
        <ele>134.54</ele>
        <time>2026-08-12T07:32:00.536Z</time>
      </trkpt>
      <trkpt lat="49.50489" lon="6.33824">
        <ele>134.96</ele>
        <time>2026-08-12T07:32:06.534Z</time>
      </trkpt>
      <trkpt lat="49.50471" lon="6.33882">
        <ele>135.24</ele>
        <time>2026-08-12T07:32:12.534Z</time>
      </trkpt>
      <trkpt lat="49.50452" lon="6.33929">
        <ele>134.39</ele>
        <time>2026-08-12T07:32:18.535Z</time>
      </trkpt>
      <trkpt lat="49.50435" lon="6.33971">
        <ele>133.42</ele>
        <time>2026-08-12T07:32:24.550Z</time>
      </trkpt>
      <trkpt lat="49.50419" lon="6.3402">
        <ele>130.45</ele>
        <time>2026-08-12T07:32:30.542Z</time>
      </trkpt>
      <trkpt lat="49.50395" lon="6.3406">
        <ele>130.12</ele>
        <time>2026-08-12T07:32:36.533Z</time>
      </trkpt>
      <trkpt lat="49.50374" lon="6.34107">
        <ele>130.22</ele>
        <time>2026-08-12T07:32:42.531Z</time>
      </trkpt>
      <trkpt lat="49.50368" lon="6.3418">
        <ele>129.22</ele>
        <time>2026-08-12T07:32:48.541Z</time>
      </trkpt>
      <trkpt lat="49.50376" lon="6.34236">
        <ele>126.92</ele>
        <time>2026-08-12T07:32:54.538Z</time>
      </trkpt>
      <trkpt lat="49.50389" lon="6.34273">
        <ele>124.41</ele>
        <time>2026-08-12T07:33:00.549Z</time>
      </trkpt>
      <trkpt lat="49.50388" lon="6.3432">
        <ele>123.25</ele>
        <time>2026-08-12T07:33:06.548Z</time>
      </trkpt>
      <trkpt lat="49.50383" lon="6.34371">
        <ele>122.33</ele>
        <time>2026-08-12T07:33:12.527Z</time>
      </trkpt>
      <trkpt lat="49.50365" lon="6.34439">
        <ele>121.99</ele>
        <time>2026-08-12T07:33:18.535Z</time>
      </trkpt>
      <trkpt lat="49.50338" lon="6.34511">
        <ele>121.68</ele>
        <time>2026-08-12T07:33:24.541Z</time>
      </trkpt>
      <trkpt lat="49.50302" lon="6.34571">
        <ele>122.37</ele>
        <time>2026-08-12T07:33:30.534Z</time>
      </trkpt>
      <trkpt lat="49.50266" lon="6.34624">
        <ele>120.65</ele>
        <time>2026-08-12T07:33:36.537Z</time>
      </trkpt>
      <trkpt lat="49.50241" lon="6.34689">
        <ele>117.56</ele>
        <time>2026-08-12T07:33:42.526Z</time>
      </trkpt>
      <trkpt lat="49.50222" lon="6.34749">
        <ele>114.88</ele>
        <time>2026-08-12T07:33:48.536Z</time>
      </trkpt>
      <trkpt lat="49.50206" lon="6.34812">
        <ele>110.93</ele>
        <time>2026-08-12T07:33:54.539Z</time>
      </trkpt>
      <trkpt lat="49.50192" lon="6.34878">
        <ele>110.44</ele>
        <time>2026-08-12T07:34:00.536Z</time>
      </trkpt>
      <trkpt lat="49.50168" lon="6.34942">
        <ele>110.31</ele>
        <time>2026-08-12T07:34:06.535Z</time>
      </trkpt>
      <trkpt lat="49.5015" lon="6.35003">
        <ele>110.4</ele>
        <time>2026-08-12T07:34:12.532Z</time>
      </trkpt>
      <trkpt lat="49.50158" lon="6.35059">
        <ele>110.11</ele>
        <time>2026-08-12T07:34:18.533Z</time>
      </trkpt>
      <trkpt lat="49.50144" lon="6.35098">
        <ele>111.83</ele>
        <time>2026-08-12T07:34:24.548Z</time>
      </trkpt>
      <trkpt lat="49.50119" lon="6.35129">
        <ele>113.54</ele>
        <time>2026-08-12T07:34:30.547Z</time>
      </trkpt>
      <trkpt lat="49.50096" lon="6.35163">
        <ele>112.13</ele>
        <time>2026-08-12T07:34:36.542Z</time>
      </trkpt>
      <trkpt lat="49.50074" lon="6.35201">
        <ele>111.55</ele>
        <time>2026-08-12T07:34:42.534Z</time>
      </trkpt>
      <trkpt lat="49.5005" lon="6.35244">
        <ele>111.48</ele>
        <time>2026-08-12T07:34:48.535Z</time>
      </trkpt>
      <trkpt lat="49.50024" lon="6.35284">
        <ele>108.01</ele>
        <time>2026-08-12T07:34:54.544Z</time>
      </trkpt>
      <trkpt lat="49.49994" lon="6.35309">
        <ele>105.32</ele>
        <time>2026-08-12T07:35:00.544Z</time>
      </trkpt>
      <trkpt lat="49.49972" lon="6.35285">
        <ele>107.25</ele>
        <time>2026-08-12T07:35:06.546Z</time>
      </trkpt>
      <trkpt lat="49.4995" lon="6.35262">
        <ele>107.69</ele>
        <time>2026-08-12T07:35:12.563Z</time>
      </trkpt>
      <trkpt lat="49.49926" lon="6.35246">
        <ele>109.1</ele>
        <time>2026-08-12T07:35:18.612Z</time>
      </trkpt>
      <trkpt lat="49.49904" lon="6.35234">
        <ele>110.85</ele>
        <time>2026-08-12T07:35:24.553Z</time>
      </trkpt>
      <trkpt lat="49.49882" lon="6.35222">
        <ele>111.82</ele>
        <time>2026-08-12T07:35:30.554Z</time>
      </trkpt>
      <trkpt lat="49.4986" lon="6.35211">
        <ele>113.22</ele>
        <time>2026-08-12T07:35:36.541Z</time>
      </trkpt>
      <trkpt lat="49.49839" lon="6.35202">
        <ele>113.7</ele>
        <time>2026-08-12T07:35:42.540Z</time>
      </trkpt>
      <trkpt lat="49.49816" lon="6.35193">
        <ele>114.33</ele>
        <time>2026-08-12T07:35:48.541Z</time>
      </trkpt>
      <trkpt lat="49.49792" lon="6.35183">
        <ele>113.42</ele>
        <time>2026-08-12T07:35:54.541Z</time>
      </trkpt>
      <trkpt lat="49.4976" lon="6.35174">
        <ele>113.87</ele>
        <time>2026-08-12T07:36:00.557Z</time>
      </trkpt>
      <trkpt lat="49.49734" lon="6.35166">
        <ele>114.86</ele>
        <time>2026-08-12T07:36:06.540Z</time>
      </trkpt>
      <trkpt lat="49.49709" lon="6.35154">
        <ele>115.13</ele>
        <time>2026-08-12T07:36:12.543Z</time>
      </trkpt>
      <trkpt lat="49.49681" lon="6.3514">
        <ele>116.27</ele>
        <time>2026-08-12T07:36:18.540Z</time>
      </trkpt>
      <trkpt lat="49.49651" lon="6.35126">
        <ele>115.42</ele>
        <time>2026-08-12T07:36:24.582Z</time>
      </trkpt>
      <trkpt lat="49.49622" lon="6.35116">
        <ele>115.54</ele>
        <time>2026-08-12T07:36:30.533Z</time>
      </trkpt>
      <trkpt lat="49.4959" lon="6.35105">
        <ele>115.36</ele>
        <time>2026-08-12T07:36:36.541Z</time>
      </trkpt>
      <trkpt lat="49.49558" lon="6.35103">
        <ele>114.53</ele>
        <time>2026-08-12T07:36:42.548Z</time>
      </trkpt>
      <trkpt lat="49.4953" lon="6.35099">
        <ele>115.31</ele>
        <time>2026-08-12T07:36:48.540Z</time>
      </trkpt>
      <trkpt lat="49.49501" lon="6.35099">
        <ele>116.24</ele>
        <time>2026-08-12T07:36:54.542Z</time>
      </trkpt>
      <trkpt lat="49.49471" lon="6.35099">
        <ele>116.71</ele>
        <time>2026-08-12T07:37:00.542Z</time>
      </trkpt>
      <trkpt lat="49.49447" lon="6.35098">
        <ele>118.27</ele>
        <time>2026-08-12T07:37:06.548Z</time>
      </trkpt>
      <trkpt lat="49.4942" lon="6.35096">
        <ele>117.32</ele>
        <time>2026-08-12T07:37:12.541Z</time>
      </trkpt>
      <trkpt lat="49.4939" lon="6.35096">
        <ele>116.97</ele>
        <time>2026-08-12T07:37:18.542Z</time>
      </trkpt>
      <trkpt lat="49.49362" lon="6.35095">
        <ele>117.84</ele>
        <time>2026-08-12T07:37:24.547Z</time>
      </trkpt>
      <trkpt lat="49.49334" lon="6.35094">
        <ele>117.88</ele>
        <time>2026-08-12T07:37:30.575Z</time>
      </trkpt>
      <trkpt lat="49.49307" lon="6.35093">
        <ele>119.34</ele>
        <time>2026-08-12T07:37:36.530Z</time>
      </trkpt>
      <trkpt lat="49.49282" lon="6.3509">
        <ele>120.86</ele>
        <time>2026-08-12T07:37:42.537Z</time>
      </trkpt>
      <trkpt lat="49.49254" lon="6.35089">
        <ele>121.61</ele>
        <time>2026-08-12T07:37:48.530Z</time>
      </trkpt>
      <trkpt lat="49.49224" lon="6.35087">
        <ele>119.02</ele>
        <time>2026-08-12T07:37:54.536Z</time>
      </trkpt>
      <trkpt lat="49.49193" lon="6.35082">
        <ele>118.13</ele>
        <time>2026-08-12T07:38:00.537Z</time>
      </trkpt>
      <trkpt lat="49.49168" lon="6.35105">
        <ele>117.53</ele>
        <time>2026-08-12T07:38:06.535Z</time>
      </trkpt>
      <trkpt lat="49.49151" lon="6.35174">
        <ele>113.76</ele>
        <time>2026-08-12T07:38:12.535Z</time>
      </trkpt>
      <trkpt lat="49.49141" lon="6.35209">
        <ele>108.78</ele>
        <time>2026-08-12T07:38:18.534Z</time>
      </trkpt>
      <trkpt lat="49.49142" lon="6.35224">
        <ele>106.76</ele>
        <time>2026-08-12T07:38:30.533Z</time>
      </trkpt>
      <trkpt lat="49.49156" lon="6.35242">
        <ele>107.14</ele>
        <time>2026-08-12T07:38:36.541Z</time>
      </trkpt>
      <trkpt lat="49.49169" lon="6.35275">
        <ele>106.28</ele>
        <time>2026-08-12T07:38:42.547Z</time>
      </trkpt>
      <trkpt lat="49.49168" lon="6.35324">
        <ele>104.6</ele>
        <time>2026-08-12T07:38:48.539Z</time>
      </trkpt>
      <trkpt lat="49.49172" lon="6.35376">
        <ele>105.2</ele>
        <time>2026-08-12T07:38:54.528Z</time>
      </trkpt>
      <trkpt lat="49.49178" lon="6.35428">
        <ele>106.48</ele>
        <time>2026-08-12T07:39:00.529Z</time>
      </trkpt>
      <trkpt lat="49.49181" lon="6.35482">
        <ele>105.51</ele>
        <time>2026-08-12T07:39:06.533Z</time>
      </trkpt>
      <trkpt lat="49.49189" lon="6.35536">
        <ele>105.98</ele>
        <time>2026-08-12T07:39:12.536Z</time>
      </trkpt>
      <trkpt lat="49.49205" lon="6.35587">
        <ele>106.53</ele>
        <time>2026-08-12T07:39:18.539Z</time>
      </trkpt>
      <trkpt lat="49.49226" lon="6.35635">
        <ele>104.23</ele>
        <time>2026-08-12T07:39:24.538Z</time>
      </trkpt>
      <trkpt lat="49.49247" lon="6.35676">
        <ele>101.75</ele>
        <time>2026-08-12T07:39:30.531Z</time>
      </trkpt>
      <trkpt lat="49.49253" lon="6.35721">
        <ele>101.91</ele>
        <time>2026-08-12T07:39:36.536Z</time>
      </trkpt>
      <trkpt lat="49.49253" lon="6.35773">
        <ele>101.53</ele>
        <time>2026-08-12T07:39:42.525Z</time>
      </trkpt>
      <trkpt lat="49.49254" lon="6.35831">
        <ele>102.52</ele>
        <time>2026-08-12T07:39:48.538Z</time>
      </trkpt>
      <trkpt lat="49.49255" lon="6.3589">
        <ele>106.23</ele>
        <time>2026-08-12T07:39:54.538Z</time>
      </trkpt>
      <trkpt lat="49.49257" lon="6.35944">
        <ele>108.3</ele>
        <time>2026-08-12T07:40:00.531Z</time>
      </trkpt>
      <trkpt lat="49.49259" lon="6.35999">
        <ele>107.37</ele>
        <time>2026-08-12T07:40:06.543Z</time>
      </trkpt>
      <trkpt lat="49.49261" lon="6.36051">
        <ele>107.63</ele>
        <time>2026-08-12T07:40:12.541Z</time>
      </trkpt>
      <trkpt lat="49.49266" lon="6.36097">
        <ele>106.04</ele>
        <time>2026-08-12T07:40:18.537Z</time>
      </trkpt>
      <trkpt lat="49.49266" lon="6.36146">
        <ele>104.91</ele>
        <time>2026-08-12T07:40:24.543Z</time>
      </trkpt>
      <trkpt lat="49.49268" lon="6.36197">
        <ele>103.4</ele>
        <time>2026-08-12T07:40:30.527Z</time>
      </trkpt>
      <trkpt lat="49.49271" lon="6.36249">
        <ele>102.41</ele>
        <time>2026-08-12T07:40:36.526Z</time>
      </trkpt>
      <trkpt lat="49.49273" lon="6.36304">
        <ele>101.98</ele>
        <time>2026-08-12T07:40:42.534Z</time>
      </trkpt>
      <trkpt lat="49.49276" lon="6.3636">
        <ele>100.06</ele>
        <time>2026-08-12T07:40:48.531Z</time>
      </trkpt>
      <trkpt lat="49.49279" lon="6.36416">
        <ele>100.84</ele>
        <time>2026-08-12T07:40:54.492Z</time>
      </trkpt>
      <trkpt lat="49.49281" lon="6.3647">
        <ele>101.5</ele>
        <time>2026-08-12T07:41:00.526Z</time>
      </trkpt>
      <trkpt lat="49.49285" lon="6.36523">
        <ele>101.92</ele>
        <time>2026-08-12T07:41:06.538Z</time>
      </trkpt>
      <trkpt lat="49.49285" lon="6.36572">
        <ele>104.03</ele>
        <time>2026-08-12T07:41:12.532Z</time>
      </trkpt>
      <trkpt lat="49.49285" lon="6.36587">
        <ele>104.94</ele>
        <time>2026-08-12T07:41:18.534Z</time>
      </trkpt>
      <trkpt lat="49.49287" lon="6.36603">
        <ele>104.84</ele>
        <time>2026-08-12T07:41:24.536Z</time>
      </trkpt>
      <trkpt lat="49.49272" lon="6.36607">
        <ele>103.77</ele>
        <time>2026-08-12T07:41:30.550Z</time>
      </trkpt>
      <trkpt lat="49.49246" lon="6.36613">
        <ele>101.04</ele>
        <time>2026-08-12T07:41:36.543Z</time>
      </trkpt>
      <trkpt lat="49.49217" lon="6.36619">
        <ele>98.96</ele>
        <time>2026-08-12T07:41:42.536Z</time>
      </trkpt>
      <trkpt lat="49.49188" lon="6.36625">
        <ele>98.86</ele>
        <time>2026-08-12T07:41:48.539Z</time>
      </trkpt>
      <trkpt lat="49.49161" lon="6.36633">
        <ele>100.39</ele>
        <time>2026-08-12T07:41:54.539Z</time>
      </trkpt>
      <trkpt lat="49.49131" lon="6.36636">
        <ele>103.02</ele>
        <time>2026-08-12T07:42:00.544Z</time>
      </trkpt>
      <trkpt lat="49.49103" lon="6.36643">
        <ele>102.53</ele>
        <time>2026-08-12T07:42:06.545Z</time>
      </trkpt>
      <trkpt lat="49.49073" lon="6.36651">
        <ele>103.51</ele>
        <time>2026-08-12T07:42:12.542Z</time>
      </trkpt>
      <trkpt lat="49.49044" lon="6.36658">
        <ele>104.52</ele>
        <time>2026-08-12T07:42:18.544Z</time>
      </trkpt>
      <trkpt lat="49.49015" lon="6.36663">
        <ele>105.24</ele>
        <time>2026-08-12T07:42:24.550Z</time>
      </trkpt>
      <trkpt lat="49.48986" lon="6.36669">
        <ele>106.32</ele>
        <time>2026-08-12T07:42:30.541Z</time>
      </trkpt>
      <trkpt lat="49.48958" lon="6.36674">
        <ele>106.16</ele>
        <time>2026-08-12T07:42:36.543Z</time>
      </trkpt>
      <trkpt lat="49.4893" lon="6.36679">
        <ele>104.05</ele>
        <time>2026-08-12T07:42:42.544Z</time>
      </trkpt>
      <trkpt lat="49.48898" lon="6.36684">
        <ele>104.01</ele>
        <time>2026-08-12T07:42:48.542Z</time>
      </trkpt>
      <trkpt lat="49.48866" lon="6.36688">
        <ele>103.3</ele>
        <time>2026-08-12T07:42:54.554Z</time>
      </trkpt>
      <trkpt lat="49.48834" lon="6.36691">
        <ele>101.82</ele>
        <time>2026-08-12T07:43:00.543Z</time>
      </trkpt>
      <trkpt lat="49.48802" lon="6.36696">
        <ele>100.27</ele>
        <time>2026-08-12T07:43:06.550Z</time>
      </trkpt>
      <trkpt lat="49.48769" lon="6.36697">
        <ele>100.44</ele>
        <time>2026-08-12T07:43:12.543Z</time>
      </trkpt>
      <trkpt lat="49.48736" lon="6.36698">
        <ele>101.54</ele>
        <time>2026-08-12T07:43:18.545Z</time>
      </trkpt>
      <trkpt lat="49.48701" lon="6.367">
        <ele>102.79</ele>
        <time>2026-08-12T07:43:24.520Z</time>
      </trkpt>
      <trkpt lat="49.48667" lon="6.36699">
        <ele>100.23</ele>
        <time>2026-08-12T07:43:30.542Z</time>
      </trkpt>
      <trkpt lat="49.4863" lon="6.36698">
        <ele>97.52</ele>
        <time>2026-08-12T07:43:36.544Z</time>
      </trkpt>
      <trkpt lat="49.48593" lon="6.36696">
        <ele>98.13</ele>
        <time>2026-08-12T07:43:42.544Z</time>
      </trkpt>
      <trkpt lat="49.48556" lon="6.36696">
        <ele>98.75</ele>
        <time>2026-08-12T07:43:48.546Z</time>
      </trkpt>
      <trkpt lat="49.48523" lon="6.36695">
        <ele>97.88</ele>
        <time>2026-08-12T07:43:54.548Z</time>
      </trkpt>
      <trkpt lat="49.48489" lon="6.3669">
        <ele>97.04</ele>
        <time>2026-08-12T07:44:00.539Z</time>
      </trkpt>
      <trkpt lat="49.48455" lon="6.36677">
        <ele>98.06</ele>
        <time>2026-08-12T07:44:06.544Z</time>
      </trkpt>
      <trkpt lat="49.48424" lon="6.36658">
        <ele>98.93</ele>
        <time>2026-08-12T07:44:12.543Z</time>
      </trkpt>
      <trkpt lat="49.48399" lon="6.36668">
        <ele>101.46</ele>
        <time>2026-08-12T07:44:18.544Z</time>
      </trkpt>
      <trkpt lat="49.48375" lon="6.36713">
        <ele>103</ele>
        <time>2026-08-12T07:44:24.553Z</time>
      </trkpt>
      <trkpt lat="49.48334" lon="6.36731">
        <ele>102.19</ele>
        <time>2026-08-12T07:44:30.539Z</time>
      </trkpt>
      <trkpt lat="49.4829" lon="6.36723">
        <ele>101.7</ele>
        <time>2026-08-12T07:44:36.543Z</time>
      </trkpt>
      <trkpt lat="49.48254" lon="6.36718">
        <ele>101.23</ele>
        <time>2026-08-12T07:44:42.544Z</time>
      </trkpt>
      <trkpt lat="49.48219" lon="6.36711">
        <ele>100.76</ele>
        <time>2026-08-12T07:44:48.547Z</time>
      </trkpt>
      <trkpt lat="49.48183" lon="6.36707">
        <ele>103.15</ele>
        <time>2026-08-12T07:44:54.550Z</time>
      </trkpt>
      <trkpt lat="49.48147" lon="6.36704">
        <ele>104.13</ele>
        <time>2026-08-12T07:45:00.540Z</time>
      </trkpt>
      <trkpt lat="49.4811" lon="6.36702">
        <ele>103.21</ele>
        <time>2026-08-12T07:45:06.545Z</time>
      </trkpt>
      <trkpt lat="49.48076" lon="6.36701">
        <ele>104.13</ele>
        <time>2026-08-12T07:45:12.550Z</time>
      </trkpt>
      <trkpt lat="49.48039" lon="6.367">
        <ele>102.38</ele>
        <time>2026-08-12T07:45:18.546Z</time>
      </trkpt>
      <trkpt lat="49.48002" lon="6.367">
        <ele>101.19</ele>
        <time>2026-08-12T07:45:24.550Z</time>
      </trkpt>
      <trkpt lat="49.47966" lon="6.36701">
        <ele>101.57</ele>
        <time>2026-08-12T07:45:30.539Z</time>
      </trkpt>
      <trkpt lat="49.4793" lon="6.367">
        <ele>103.03</ele>
        <time>2026-08-12T07:45:36.546Z</time>
      </trkpt>
      <trkpt lat="49.47895" lon="6.36702">
        <ele>102.96</ele>
        <time>2026-08-12T07:45:42.544Z</time>
      </trkpt>
      <trkpt lat="49.47855" lon="6.36702">
        <ele>100.85</ele>
        <time>2026-08-12T07:45:48.545Z</time>
      </trkpt>
      <trkpt lat="49.47818" lon="6.36704">
        <ele>100</ele>
        <time>2026-08-12T07:45:54.551Z</time>
      </trkpt>
      <trkpt lat="49.47781" lon="6.36707">
        <ele>100.99</ele>
        <time>2026-08-12T07:46:00.540Z</time>
      </trkpt>
      <trkpt lat="49.47745" lon="6.3671">
        <ele>102.41</ele>
        <time>2026-08-12T07:46:06.545Z</time>
      </trkpt>
      <trkpt lat="49.47709" lon="6.3671">
        <ele>102.99</ele>
        <time>2026-08-12T07:46:12.545Z</time>
      </trkpt>
      <trkpt lat="49.47673" lon="6.36711">
        <ele>103.91</ele>
        <time>2026-08-12T07:46:18.546Z</time>
      </trkpt>
      <trkpt lat="49.47636" lon="6.36713">
        <ele>104.12</ele>
        <time>2026-08-12T07:46:24.545Z</time>
      </trkpt>
      <trkpt lat="49.47601" lon="6.36713">
        <ele>103.19</ele>
        <time>2026-08-12T07:46:30.538Z</time>
      </trkpt>
      <trkpt lat="49.47566" lon="6.36714">
        <ele>103.54</ele>
        <time>2026-08-12T07:46:36.547Z</time>
      </trkpt>
      <trkpt lat="49.47532" lon="6.36709">
        <ele>103.83</ele>
        <time>2026-08-12T07:46:42.543Z</time>
      </trkpt>
      <trkpt lat="49.47498" lon="6.36706">
        <ele>103.22</ele>
        <time>2026-08-12T07:46:48.543Z</time>
      </trkpt>
      <trkpt lat="49.47461" lon="6.36703">
        <ele>102.42</ele>
        <time>2026-08-12T07:46:54.550Z</time>
      </trkpt>
      <trkpt lat="49.47426" lon="6.367">
        <ele>101.34</ele>
        <time>2026-08-12T07:47:00.550Z</time>
      </trkpt>
      <trkpt lat="49.4739" lon="6.36696">
        <ele>101.76</ele>
        <time>2026-08-12T07:47:06.543Z</time>
      </trkpt>
      <trkpt lat="49.47354" lon="6.36693">
        <ele>102.12</ele>
        <time>2026-08-12T07:47:12.544Z</time>
      </trkpt>
      <trkpt lat="49.4732" lon="6.36691">
        <ele>102.03</ele>
        <time>2026-08-12T07:47:18.547Z</time>
      </trkpt>
      <trkpt lat="49.47288" lon="6.36689">
        <ele>102.32</ele>
        <time>2026-08-12T07:47:24.552Z</time>
      </trkpt>
      <trkpt lat="49.47258" lon="6.36683">
        <ele>102.64</ele>
        <time>2026-08-12T07:47:30.541Z</time>
      </trkpt>
      <trkpt lat="49.47236" lon="6.36682">
        <ele>103.43</ele>
        <time>2026-08-12T07:47:36.545Z</time>
      </trkpt>
      <trkpt lat="49.47226" lon="6.36681">
        <ele>104.06</ele>
        <time>2026-08-12T07:47:43.486Z</time>
      </trkpt>
      <trkpt lat="49.47225" lon="6.36667">
        <ele>104.19</ele>
        <time>2026-08-12T07:47:48.553Z</time>
      </trkpt>
      <trkpt lat="49.47209" lon="6.36657">
        <ele>104.35</ele>
        <time>2026-08-12T07:47:54.531Z</time>
      </trkpt>
      <trkpt lat="49.47194" lon="6.36638">
        <ele>102.48</ele>
        <time>2026-08-12T07:48:00.593Z</time>
      </trkpt>
      <trkpt lat="49.47176" lon="6.36653">
        <ele>103.78</ele>
        <time>2026-08-12T07:48:06.537Z</time>
      </trkpt>
      <trkpt lat="49.47173" lon="6.36684">
        <ele>105.13</ele>
        <time>2026-08-12T07:48:12.536Z</time>
      </trkpt>
      <trkpt lat="49.47171" lon="6.36711">
        <ele>105.71</ele>
        <time>2026-08-12T07:48:18.544Z</time>
      </trkpt>
      <trkpt lat="49.4717" lon="6.36741">
        <ele>107.88</ele>
        <time>2026-08-12T07:48:24.539Z</time>
      </trkpt>
      <trkpt lat="49.47167" lon="6.36771">
        <ele>109.42</ele>
        <time>2026-08-12T07:48:30.527Z</time>
      </trkpt>
      <trkpt lat="49.47164" lon="6.36798">
        <ele>111.06</ele>
        <time>2026-08-12T07:48:36.543Z</time>
      </trkpt>
      <trkpt lat="49.47162" lon="6.36825">
        <ele>111.18</ele>
        <time>2026-08-12T07:48:42.532Z</time>
      </trkpt>
      <trkpt lat="49.47159" lon="6.36852">
        <ele>112.17</ele>
        <time>2026-08-12T07:48:48.531Z</time>
      </trkpt>
      <trkpt lat="49.47156" lon="6.36882">
        <ele>113.02</ele>
        <time>2026-08-12T07:48:54.551Z</time>
      </trkpt>
      <trkpt lat="49.47153" lon="6.36909">
        <ele>112.91</ele>
        <time>2026-08-12T07:49:00.534Z</time>
      </trkpt>
      <trkpt lat="49.47151" lon="6.36937">
        <ele>114.3</ele>
        <time>2026-08-12T07:49:06.535Z</time>
      </trkpt>
      <trkpt lat="49.47149" lon="6.36971">
        <ele>116.52</ele>
        <time>2026-08-12T07:49:12.538Z</time>
      </trkpt>
      <trkpt lat="49.47144" lon="6.37008">
        <ele>116.72</ele>
        <time>2026-08-12T07:49:18.533Z</time>
      </trkpt>
      <trkpt lat="49.4714" lon="6.37048">
        <ele>116.18</ele>
        <time>2026-08-12T07:49:24.541Z</time>
      </trkpt>
      <trkpt lat="49.47136" lon="6.3709">
        <ele>114.27</ele>
        <time>2026-08-12T07:49:30.537Z</time>
      </trkpt>
      <trkpt lat="49.47133" lon="6.37134">
        <ele>113.41</ele>
        <time>2026-08-12T07:49:36.530Z</time>
      </trkpt>
      <trkpt lat="49.47129" lon="6.37177">
        <ele>114.35</ele>
        <time>2026-08-12T07:49:42.534Z</time>
      </trkpt>
      <trkpt lat="49.47125" lon="6.37216">
        <ele>114.83</ele>
        <time>2026-08-12T07:49:48.545Z</time>
      </trkpt>
      <trkpt lat="49.47106" lon="6.37236">
        <ele>116.25</ele>
        <time>2026-08-12T07:49:54.544Z</time>
      </trkpt>
      <trkpt lat="49.47083" lon="6.3723">
        <ele>117.5</ele>
        <time>2026-08-12T07:50:00.551Z</time>
      </trkpt>
      <trkpt lat="49.47064" lon="6.37229">
        <ele>117.91</ele>
        <time>2026-08-12T07:50:06.528Z</time>
      </trkpt>
      <trkpt lat="49.4704" lon="6.37226">
        <ele>118.39</ele>
        <time>2026-08-12T07:50:12.527Z</time>
      </trkpt>
      <trkpt lat="49.47011" lon="6.37219">
        <ele>120.28</ele>
        <time>2026-08-12T07:50:18.534Z</time>
      </trkpt>
      <trkpt lat="49.46982" lon="6.37215">
        <ele>120.23</ele>
        <time>2026-08-12T07:50:24.535Z</time>
      </trkpt>
      <trkpt lat="49.46962" lon="6.37209">
        <ele>119.32</ele>
        <time>2026-08-12T07:50:30.536Z</time>
      </trkpt>
      <trkpt lat="49.46938" lon="6.37198">
        <ele>119.87</ele>
        <time>2026-08-12T07:50:36.540Z</time>
      </trkpt>
      <trkpt lat="49.46909" lon="6.37188">
        <ele>119.1</ele>
        <time>2026-08-12T07:50:42.542Z</time>
      </trkpt>
      <trkpt lat="49.46878" lon="6.37184">
        <ele>118.96</ele>
        <time>2026-08-12T07:50:48.545Z</time>
      </trkpt>
      <trkpt lat="49.46846" lon="6.37181">
        <ele>117.79</ele>
        <time>2026-08-12T07:50:54.545Z</time>
      </trkpt>
      <trkpt lat="49.46821" lon="6.37179">
        <ele>118.33</ele>
        <time>2026-08-12T07:51:00.536Z</time>
      </trkpt>
      <trkpt lat="49.46796" lon="6.37177">
        <ele>120.14</ele>
        <time>2026-08-12T07:51:06.544Z</time>
      </trkpt>
      <trkpt lat="49.46772" lon="6.37175">
        <ele>120.02</ele>
        <time>2026-08-12T07:51:12.546Z</time>
      </trkpt>
      <trkpt lat="49.46746" lon="6.37173">
        <ele>120.19</ele>
        <time>2026-08-12T07:51:18.546Z</time>
      </trkpt>
      <trkpt lat="49.46722" lon="6.3717">
        <ele>120.82</ele>
        <time>2026-08-12T07:51:24.542Z</time>
      </trkpt>
      <trkpt lat="49.46703" lon="6.37172">
        <ele>120.95</ele>
        <time>2026-08-12T07:51:30.537Z</time>
      </trkpt>
      <trkpt lat="49.46691" lon="6.37174">
        <ele>118.78</ele>
        <time>2026-08-12T07:53:10.477Z</time>
      </trkpt>
      <trkpt lat="49.46679" lon="6.37171">
        <ele>118.98</ele>
        <time>2026-08-12T07:53:16.483Z</time>
      </trkpt>
      <trkpt lat="49.46667" lon="6.37166">
        <ele>120.19</ele>
        <time>2026-08-12T07:53:22.468Z</time>
      </trkpt>
      <trkpt lat="49.46658" lon="6.37178">
        <ele>121.96</ele>
        <time>2026-08-12T07:53:27.475Z</time>
      </trkpt>
      <trkpt lat="49.46647" lon="6.37185">
        <ele>123.62</ele>
        <time>2026-08-12T07:53:32.479Z</time>
      </trkpt>
      <trkpt lat="49.46631" lon="6.37185">
        <ele>123.68</ele>
        <time>2026-08-12T07:53:38.465Z</time>
      </trkpt>
      <trkpt lat="49.46617" lon="6.37185">
        <ele>123.64</ele>
        <time>2026-08-12T07:53:43.497Z</time>
      </trkpt>
      <trkpt lat="49.46601" lon="6.37186">
        <ele>124.58</ele>
        <time>2026-08-12T07:53:48.547Z</time>
      </trkpt>
      <trkpt lat="49.46584" lon="6.37189">
        <ele>125.4</ele>
        <time>2026-08-12T07:53:54.554Z</time>
      </trkpt>
      <trkpt lat="49.46566" lon="6.37194">
        <ele>124.46</ele>
        <time>2026-08-12T07:54:00.561Z</time>
      </trkpt>
      <trkpt lat="49.46548" lon="6.37199">
        <ele>124.87</ele>
        <time>2026-08-12T07:54:06.541Z</time>
      </trkpt>
      <trkpt lat="49.4653" lon="6.37206">
        <ele>124.78</ele>
        <time>2026-08-12T07:54:12.547Z</time>
      </trkpt>
      <trkpt lat="49.46508" lon="6.37216">
        <ele>126.3</ele>
        <time>2026-08-12T07:54:18.543Z</time>
      </trkpt>
      <trkpt lat="49.46486" lon="6.37231">
        <ele>126.99</ele>
        <time>2026-08-12T07:54:24.540Z</time>
      </trkpt>
      <trkpt lat="49.46463" lon="6.37247">
        <ele>127.77</ele>
        <time>2026-08-12T07:54:30.553Z</time>
      </trkpt>
      <trkpt lat="49.46438" lon="6.37264">
        <ele>129.11</ele>
        <time>2026-08-12T07:54:36.544Z</time>
      </trkpt>
      <trkpt lat="49.46413" lon="6.37282">
        <ele>130.38</ele>
        <time>2026-08-12T07:54:42.535Z</time>
      </trkpt>
      <trkpt lat="49.46387" lon="6.37301">
        <ele>129.71</ele>
        <time>2026-08-12T07:54:48.562Z</time>
      </trkpt>
      <trkpt lat="49.46364" lon="6.37319">
        <ele>129.73</ele>
        <time>2026-08-12T07:54:54.544Z</time>
      </trkpt>
      <trkpt lat="49.46344" lon="6.37331">
        <ele>130.38</ele>
        <time>2026-08-12T07:55:00.545Z</time>
      </trkpt>
      <trkpt lat="49.46321" lon="6.37347">
        <ele>131.76</ele>
        <time>2026-08-12T07:55:06.574Z</time>
      </trkpt>
      <trkpt lat="49.46301" lon="6.37362">
        <ele>133.06</ele>
        <time>2026-08-12T07:55:12.554Z</time>
      </trkpt>
      <trkpt lat="49.4628" lon="6.37375">
        <ele>134.18</ele>
        <time>2026-08-12T07:55:18.542Z</time>
      </trkpt>
      <trkpt lat="49.46265" lon="6.37389">
        <ele>134.95</ele>
        <time>2026-08-12T07:55:24.536Z</time>
      </trkpt>
      <trkpt lat="49.46267" lon="6.37415">
        <ele>135.12</ele>
        <time>2026-08-12T07:55:30.549Z</time>
      </trkpt>
      <trkpt lat="49.46274" lon="6.37427">
        <ele>135.27</ele>
        <time>2026-08-12T07:55:36.567Z</time>
      </trkpt>
      <trkpt lat="49.46283" lon="6.37438">
        <ele>136.08</ele>
        <time>2026-08-12T07:55:42.607Z</time>
      </trkpt>
      <trkpt lat="49.46293" lon="6.37445">
        <ele>138.55</ele>
        <time>2026-08-12T07:55:48.542Z</time>
      </trkpt>
      <trkpt lat="49.46304" lon="6.37455">
        <ele>138.3</ele>
        <time>2026-08-12T07:55:54.515Z</time>
      </trkpt>
      <trkpt lat="49.46302" lon="6.37473">
        <ele>137.48</ele>
        <time>2026-08-12T07:56:00.530Z</time>
      </trkpt>
      <trkpt lat="49.46289" lon="6.3748">
        <ele>138.14</ele>
        <time>2026-08-12T07:56:06.528Z</time>
      </trkpt>
      <trkpt lat="49.46272" lon="6.37494">
        <ele>138.13</ele>
        <time>2026-08-12T07:56:12.530Z</time>
      </trkpt>
      <trkpt lat="49.46261" lon="6.37511">
        <ele>138.53</ele>
        <time>2026-08-12T07:56:18.535Z</time>
      </trkpt>
      <trkpt lat="49.46253" lon="6.3753">
        <ele>140.48</ele>
        <time>2026-08-12T07:56:24.542Z</time>
      </trkpt>
      <trkpt lat="49.46246" lon="6.37553">
        <ele>141.03</ele>
        <time>2026-08-12T07:56:30.536Z</time>
      </trkpt>
      <trkpt lat="49.46236" lon="6.37584">
        <ele>139.38</ele>
        <time>2026-08-12T07:56:36.533Z</time>
      </trkpt>
      <trkpt lat="49.46228" lon="6.37619">
        <ele>139.22</ele>
        <time>2026-08-12T07:56:42.529Z</time>
      </trkpt>
      <trkpt lat="49.46224" lon="6.3766">
        <ele>138.76</ele>
        <time>2026-08-12T07:56:48.539Z</time>
      </trkpt>
      <trkpt lat="49.4622" lon="6.37705">
        <ele>136.59</ele>
        <time>2026-08-12T07:56:54.547Z</time>
      </trkpt>
      <trkpt lat="49.46217" lon="6.37756">
        <ele>135.72</ele>
        <time>2026-08-12T07:57:00.533Z</time>
      </trkpt>
      <trkpt lat="49.46213" lon="6.37804">
        <ele>134.89</ele>
        <time>2026-08-12T07:57:06.527Z</time>
      </trkpt>
      <trkpt lat="49.46208" lon="6.37846">
        <ele>136.59</ele>
        <time>2026-08-12T07:57:12.532Z</time>
      </trkpt>
      <trkpt lat="49.46205" lon="6.3789">
        <ele>137.64</ele>
        <time>2026-08-12T07:57:18.527Z</time>
      </trkpt>
      <trkpt lat="49.46202" lon="6.37932">
        <ele>139.03</ele>
        <time>2026-08-12T07:57:24.545Z</time>
      </trkpt>
      <trkpt lat="49.46199" lon="6.37979">
        <ele>137.56</ele>
        <time>2026-08-12T07:57:30.535Z</time>
      </trkpt>
      <trkpt lat="49.462" lon="6.38007">
        <ele>138.6</ele>
        <time>2026-08-12T07:57:36.530Z</time>
      </trkpt>
      <trkpt lat="49.46203" lon="6.3799">
        <ele>138.05</ele>
        <time>2026-08-12T07:57:42.537Z</time>
      </trkpt>
      <trkpt lat="49.46201" lon="6.37976">
        <ele>134.27</ele>
        <time>2026-08-12T07:57:48.552Z</time>
      </trkpt>
      <trkpt lat="49.46193" lon="6.37968">
        <ele>133.95</ele>
        <time>2026-08-12T07:57:55.481Z</time>
      </trkpt>
      <trkpt lat="49.4618" lon="6.37941">
        <ele>132.23</ele>
        <time>2026-08-12T07:58:00.546Z</time>
      </trkpt>
      <trkpt lat="49.46156" lon="6.37898">
        <ele>127.01</ele>
        <time>2026-08-12T07:58:06.531Z</time>
      </trkpt>
      <trkpt lat="49.4614" lon="6.37866">
        <ele>121.82</ele>
        <time>2026-08-12T07:58:12.553Z</time>
      </trkpt>
      <trkpt lat="49.46132" lon="6.37857">
        <ele>120.58</ele>
        <time>2026-08-12T07:58:24.539Z</time>
      </trkpt>
      <trkpt lat="49.46124" lon="6.37837">
        <ele>115.68</ele>
        <time>2026-08-12T07:58:30.533Z</time>
      </trkpt>
      <trkpt lat="49.46119" lon="6.37849">
        <ele>116.57</ele>
        <time>2026-08-12T07:58:37.472Z</time>
      </trkpt>
      <trkpt lat="49.46111" lon="6.37876">
        <ele>118.92</ele>
        <time>2026-08-12T07:58:42.539Z</time>
      </trkpt>
      <trkpt lat="49.461" lon="6.37916">
        <ele>120.18</ele>
        <time>2026-08-12T07:58:48.536Z</time>
      </trkpt>
      <trkpt lat="49.46096" lon="6.37962">
        <ele>118.72</ele>
        <time>2026-08-12T07:58:54.535Z</time>
      </trkpt>
      <trkpt lat="49.46099" lon="6.38009">
        <ele>115.42</ele>
        <time>2026-08-12T07:59:00.531Z</time>
      </trkpt>
      <trkpt lat="49.46099" lon="6.38059">
        <ele>113.83</ele>
        <time>2026-08-12T07:59:06.539Z</time>
      </trkpt>
      <trkpt lat="49.46089" lon="6.38108">
        <ele>113.69</ele>
        <time>2026-08-12T07:59:12.537Z</time>
      </trkpt>
      <trkpt lat="49.46075" lon="6.3815">
        <ele>113.18</ele>
        <time>2026-08-12T07:59:18.532Z</time>
      </trkpt>
      <trkpt lat="49.46062" lon="6.38187">
        <ele>114.9</ele>
        <time>2026-08-12T07:59:24.661Z</time>
      </trkpt>
      <trkpt lat="49.46047" lon="6.38222">
        <ele>119.67</ele>
        <time>2026-08-12T07:59:30.544Z</time>
      </trkpt>
      <trkpt lat="49.46037" lon="6.38255">
        <ele>122.65</ele>
        <time>2026-08-12T07:59:36.474Z</time>
      </trkpt>
      <trkpt lat="49.46027" lon="6.38285">
        <ele>125.82</ele>
        <time>2026-08-12T07:59:42.479Z</time>
      </trkpt>
      <trkpt lat="49.46016" lon="6.38317">
        <ele>128.53</ele>
        <time>2026-08-12T07:59:48.471Z</time>
      </trkpt>
      <trkpt lat="49.4601" lon="6.38346">
        <ele>126.95</ele>
        <time>2026-08-12T07:59:53.474Z</time>
      </trkpt>
      <trkpt lat="49.46003" lon="6.38378">
        <ele>126.46</ele>
        <time>2026-08-12T07:59:58.480Z</time>
      </trkpt>
      <trkpt lat="49.46002" lon="6.38417">
        <ele>125.32</ele>
        <time>2026-08-12T08:00:04.464Z</time>
      </trkpt>
      <trkpt lat="49.46005" lon="6.38446">
        <ele>125.52</ele>
        <time>2026-08-12T08:00:09.475Z</time>
      </trkpt>
      <trkpt lat="49.46005" lon="6.38472">
        <ele>126.3</ele>
        <time>2026-08-12T08:00:14.475Z</time>
      </trkpt>
      <trkpt lat="49.46002" lon="6.38495">
        <ele>129.49</ele>
        <time>2026-08-12T08:00:19.481Z</time>
      </trkpt>
      <trkpt lat="49.45998" lon="6.38512">
        <ele>130.59</ele>
        <time>2026-08-12T08:00:24.538Z</time>
      </trkpt>
      <trkpt lat="49.45996" lon="6.38533">
        <ele>131.93</ele>
        <time>2026-08-12T08:00:30.542Z</time>
      </trkpt>
      <trkpt lat="49.45995" lon="6.38552">
        <ele>129.24</ele>
        <time>2026-08-12T08:00:36.466Z</time>
      </trkpt>
      <trkpt lat="49.45996" lon="6.38569">
        <ele>129.41</ele>
        <time>2026-08-12T08:00:41.469Z</time>
      </trkpt>
      <trkpt lat="49.45992" lon="6.38588">
        <ele>130.66</ele>
        <time>2026-08-12T08:00:47.467Z</time>
      </trkpt>
      <trkpt lat="49.45989" lon="6.38601">
        <ele>131.64</ele>
        <time>2026-08-12T08:00:52.476Z</time>
      </trkpt>
      <trkpt lat="49.45984" lon="6.38613">
        <ele>132.6</ele>
        <time>2026-08-12T08:00:57.482Z</time>
      </trkpt>
      <trkpt lat="49.45978" lon="6.38626">
        <ele>132.77</ele>
        <time>2026-08-12T08:01:02.483Z</time>
      </trkpt>
      <trkpt lat="49.45971" lon="6.38638">
        <ele>133.36</ele>
        <time>2026-08-12T08:01:07.483Z</time>
      </trkpt>
      <trkpt lat="49.45963" lon="6.38649">
        <ele>135.56</ele>
        <time>2026-08-12T08:01:13.469Z</time>
      </trkpt>
      <trkpt lat="49.45954" lon="6.38657">
        <ele>136.16</ele>
        <time>2026-08-12T08:01:18.480Z</time>
      </trkpt>
      <trkpt lat="49.45943" lon="6.3867">
        <ele>136.95</ele>
        <time>2026-08-12T08:01:24.539Z</time>
      </trkpt>
      <trkpt lat="49.45934" lon="6.38684">
        <ele>137.26</ele>
        <time>2026-08-12T08:01:30.538Z</time>
      </trkpt>
      <trkpt lat="49.45922" lon="6.38703">
        <ele>136.44</ele>
        <time>2026-08-12T08:01:36.489Z</time>
      </trkpt>
      <trkpt lat="49.4589" lon="6.38724">
        <ele>132.51</ele>
        <time>2026-08-12T08:01:42.476Z</time>
      </trkpt>
      <trkpt lat="49.45866" lon="6.38742">
        <ele>129.76</ele>
        <time>2026-08-12T08:01:48.500Z</time>
      </trkpt>
      <trkpt lat="49.4587" lon="6.38774">
        <ele>127.76</ele>
        <time>2026-08-12T08:01:54.541Z</time>
      </trkpt>
      <trkpt lat="49.45869" lon="6.38803">
        <ele>124.63</ele>
        <time>2026-08-12T08:02:00.544Z</time>
      </trkpt>
      <trkpt lat="49.45861" lon="6.38839">
        <ele>121.53</ele>
        <time>2026-08-12T08:02:06.476Z</time>
      </trkpt>
      <trkpt lat="49.45857" lon="6.38864">
        <ele>119.99</ele>
        <time>2026-08-12T08:02:11.481Z</time>
      </trkpt>
      <trkpt lat="49.45856" lon="6.38886">
        <ele>119.54</ele>
        <time>2026-08-12T08:02:16.493Z</time>
      </trkpt>
      <trkpt lat="49.45855" lon="6.38912">
        <ele>118.12</ele>
        <time>2026-08-12T08:02:22.479Z</time>
      </trkpt>
      <trkpt lat="49.45851" lon="6.3893">
        <ele>115.34</ele>
        <time>2026-08-12T08:02:27.480Z</time>
      </trkpt>
      <trkpt lat="49.45845" lon="6.38954">
        <ele>114.5</ele>
        <time>2026-08-12T08:02:33.497Z</time>
      </trkpt>
      <trkpt lat="49.4584" lon="6.38977">
        <ele>116.56</ele>
        <time>2026-08-12T08:02:39.471Z</time>
      </trkpt>
      <trkpt lat="49.45835" lon="6.38995">
        <ele>118.98</ele>
        <time>2026-08-12T08:02:44.508Z</time>
      </trkpt>
      <trkpt lat="49.45832" lon="6.39015">
        <ele>122.2</ele>
        <time>2026-08-12T08:02:50.463Z</time>
      </trkpt>
      <trkpt lat="49.45828" lon="6.39027">
        <ele>126.62</ele>
        <time>2026-08-12T08:02:55.504Z</time>
      </trkpt>
      <trkpt lat="49.45825" lon="6.39041">
        <ele>130.84</ele>
        <time>2026-08-12T08:03:02.484Z</time>
      </trkpt>
      <trkpt lat="49.45821" lon="6.39054">
        <ele>135.8</ele>
        <time>2026-08-12T08:03:10.468Z</time>
      </trkpt>
      <trkpt lat="49.45809" lon="6.39064">
        <ele>138.96</ele>
        <time>2026-08-12T08:03:22.481Z</time>
      </trkpt>
      <trkpt lat="49.458" lon="6.39072">
        <ele>140.56</ele>
        <time>2026-08-12T08:03:27.481Z</time>
      </trkpt>
      <trkpt lat="49.4579" lon="6.39081">
        <ele>142.18</ele>
        <time>2026-08-12T08:03:33.467Z</time>
      </trkpt>
      <trkpt lat="49.45781" lon="6.39092">
        <ele>142.62</ele>
        <time>2026-08-12T08:03:38.471Z</time>
      </trkpt>
      <trkpt lat="49.4577" lon="6.39107">
        <ele>144.19</ele>
        <time>2026-08-12T08:03:44.477Z</time>
      </trkpt>
      <trkpt lat="49.45759" lon="6.39122">
        <ele>144.87</ele>
        <time>2026-08-12T08:03:50.473Z</time>
      </trkpt>
      <trkpt lat="49.45751" lon="6.39137">
        <ele>144.9</ele>
        <time>2026-08-12T08:03:55.478Z</time>
      </trkpt>
      <trkpt lat="49.45744" lon="6.39157">
        <ele>145</ele>
        <time>2026-08-12T08:04:00.534Z</time>
      </trkpt>
      <trkpt lat="49.45737" lon="6.39186">
        <ele>145.19</ele>
        <time>2026-08-12T08:04:06.473Z</time>
      </trkpt>
      <trkpt lat="49.4573" lon="6.39209">
        <ele>145.75</ele>
        <time>2026-08-12T08:04:12.472Z</time>
      </trkpt>
      <trkpt lat="49.45721" lon="6.39231">
        <ele>146.71</ele>
        <time>2026-08-12T08:04:18.478Z</time>
      </trkpt>
      <trkpt lat="49.45714" lon="6.39249">
        <ele>147.03</ele>
        <time>2026-08-12T08:04:23.492Z</time>
      </trkpt>
      <trkpt lat="49.45704" lon="6.39275">
        <ele>147.73</ele>
        <time>2026-08-12T08:04:29.479Z</time>
      </trkpt>
      <trkpt lat="49.45697" lon="6.39298">
        <ele>148.47</ele>
        <time>2026-08-12T08:04:34.483Z</time>
      </trkpt>
      <trkpt lat="49.45691" lon="6.39328">
        <ele>147.77</ele>
        <time>2026-08-12T08:04:40.479Z</time>
      </trkpt>
      <trkpt lat="49.45684" lon="6.39363">
        <ele>146.88</ele>
        <time>2026-08-12T08:04:46.463Z</time>
      </trkpt>
      <trkpt lat="49.45677" lon="6.39383">
        <ele>147.22</ele>
        <time>2026-08-12T08:04:51.466Z</time>
      </trkpt>
      <trkpt lat="49.45664" lon="6.39406">
        <ele>149.58</ele>
        <time>2026-08-12T08:04:57.471Z</time>
      </trkpt>
      <trkpt lat="49.45652" lon="6.39429">
        <ele>150.37</ele>
        <time>2026-08-12T08:05:03.473Z</time>
      </trkpt>
      <trkpt lat="49.45631" lon="6.39453">
        <ele>149.18</ele>
        <time>2026-08-12T08:05:08.499Z</time>
      </trkpt>
      <trkpt lat="49.45594" lon="6.39495">
        <ele>148.22</ele>
        <time>2026-08-12T08:05:14.485Z</time>
      </trkpt>
      <trkpt lat="49.45581" lon="6.39549">
        <ele>147.95</ele>
        <time>2026-08-12T08:05:20.468Z</time>
      </trkpt>
      <trkpt lat="49.45575" lon="6.39588">
        <ele>147.34</ele>
        <time>2026-08-12T08:05:25.474Z</time>
      </trkpt>
      <trkpt lat="49.45571" lon="6.39626">
        <ele>147.14</ele>
        <time>2026-08-12T08:05:30.536Z</time>
      </trkpt>
      <trkpt lat="49.45566" lon="6.39661">
        <ele>147.76</ele>
        <time>2026-08-12T08:05:36.488Z</time>
      </trkpt>
      <trkpt lat="49.45564" lon="6.39685">
        <ele>147.64</ele>
        <time>2026-08-12T08:05:42.479Z</time>
      </trkpt>
      <trkpt lat="49.45561" lon="6.39706">
        <ele>149.78</ele>
        <time>2026-08-12T08:05:48.503Z</time>
      </trkpt>
      <trkpt lat="49.45558" lon="6.3973">
        <ele>151.7</ele>
        <time>2026-08-12T08:05:54.519Z</time>
      </trkpt>
      <trkpt lat="49.45554" lon="6.39755">
        <ele>153.47</ele>
        <time>2026-08-12T08:06:00.539Z</time>
      </trkpt>
      <trkpt lat="49.45551" lon="6.39772">
        <ele>153.18</ele>
        <time>2026-08-12T08:06:06.481Z</time>
      </trkpt>
      <trkpt lat="49.45546" lon="6.3979">
        <ele>152.76</ele>
        <time>2026-08-12T08:06:12.476Z</time>
      </trkpt>
      <trkpt lat="49.45542" lon="6.39805">
        <ele>153.16</ele>
        <time>2026-08-12T08:06:18.467Z</time>
      </trkpt>
      <trkpt lat="49.45535" lon="6.39817">
        <ele>153.22</ele>
        <time>2026-08-12T08:06:23.469Z</time>
      </trkpt>
      <trkpt lat="49.45525" lon="6.39826">
        <ele>152.45</ele>
        <time>2026-08-12T08:06:28.476Z</time>
      </trkpt>
      <trkpt lat="49.45513" lon="6.39836">
        <ele>151.83</ele>
        <time>2026-08-12T08:06:33.482Z</time>
      </trkpt>
      <trkpt lat="49.45497" lon="6.39848">
        <ele>151.99</ele>
        <time>2026-08-12T08:06:39.509Z</time>
      </trkpt>
      <trkpt lat="49.45486" lon="6.39861">
        <ele>152.02</ele>
        <time>2026-08-12T08:06:45.470Z</time>
      </trkpt>
      <trkpt lat="49.45474" lon="6.3987">
        <ele>152.89</ele>
        <time>2026-08-12T08:06:50.473Z</time>
      </trkpt>
      <trkpt lat="49.45463" lon="6.3988">
        <ele>154.82</ele>
        <time>2026-08-12T08:06:56.474Z</time>
      </trkpt>
      <trkpt lat="49.45455" lon="6.39892">
        <ele>156.08</ele>
        <time>2026-08-12T08:07:01.479Z</time>
      </trkpt>
      <trkpt lat="49.45448" lon="6.39906">
        <ele>155.7</ele>
        <time>2026-08-12T08:07:07.471Z</time>
      </trkpt>
      <trkpt lat="49.45443" lon="6.3992">
        <ele>157.15</ele>
        <time>2026-08-12T08:07:12.489Z</time>
      </trkpt>
      <trkpt lat="49.45435" lon="6.3994">
        <ele>160.65</ele>
        <time>2026-08-12T08:07:18.470Z</time>
      </trkpt>
      <trkpt lat="49.45428" lon="6.39962">
        <ele>160.82</ele>
        <time>2026-08-12T08:07:23.470Z</time>
      </trkpt>
      <trkpt lat="49.45421" lon="6.39986">
        <ele>161.74</ele>
        <time>2026-08-12T08:07:28.474Z</time>
      </trkpt>
      <trkpt lat="49.45412" lon="6.40009">
        <ele>161.29</ele>
        <time>2026-08-12T08:07:33.504Z</time>
      </trkpt>
      <trkpt lat="49.45403" lon="6.40035">
        <ele>160.55</ele>
        <time>2026-08-12T08:07:39.470Z</time>
      </trkpt>
      <trkpt lat="49.45394" lon="6.40062">
        <ele>159.6</ele>
        <time>2026-08-12T08:07:45.477Z</time>
      </trkpt>
      <trkpt lat="49.45385" lon="6.40088">
        <ele>158.59</ele>
        <time>2026-08-12T08:07:51.484Z</time>
      </trkpt>
      <trkpt lat="49.45376" lon="6.40115">
        <ele>158.77</ele>
        <time>2026-08-12T08:07:57.488Z</time>
      </trkpt>
      <trkpt lat="49.45366" lon="6.40141">
        <ele>160.99</ele>
        <time>2026-08-12T08:08:03.476Z</time>
      </trkpt>
      <trkpt lat="49.45357" lon="6.40168">
        <ele>162.86</ele>
        <time>2026-08-12T08:08:09.465Z</time>
      </trkpt>
      <trkpt lat="49.45353" lon="6.4019">
        <ele>164.67</ele>
        <time>2026-08-12T08:08:14.473Z</time>
      </trkpt>
      <trkpt lat="49.45349" lon="6.40213">
        <ele>166.28</ele>
        <time>2026-08-12T08:08:20.474Z</time>
      </trkpt>
      <trkpt lat="49.45346" lon="6.40234">
        <ele>166.07</ele>
        <time>2026-08-12T08:08:25.477Z</time>
      </trkpt>
      <trkpt lat="49.45342" lon="6.40255">
        <ele>167.42</ele>
        <time>2026-08-12T08:08:30.552Z</time>
      </trkpt>
      <trkpt lat="49.45337" lon="6.40279">
        <ele>167.34</ele>
        <time>2026-08-12T08:08:36.487Z</time>
      </trkpt>
      <trkpt lat="49.45333" lon="6.40306">
        <ele>168.04</ele>
        <time>2026-08-12T08:08:42.490Z</time>
      </trkpt>
      <trkpt lat="49.45327" lon="6.40331">
        <ele>168.29</ele>
        <time>2026-08-12T08:08:48.493Z</time>
      </trkpt>
      <trkpt lat="49.45323" lon="6.4035">
        <ele>168.57</ele>
        <time>2026-08-12T08:08:54.527Z</time>
      </trkpt>
      <trkpt lat="49.45318" lon="6.40374">
        <ele>168.79</ele>
        <time>2026-08-12T08:09:00.551Z</time>
      </trkpt>
      <trkpt lat="49.45308" lon="6.40408">
        <ele>166.56</ele>
        <time>2026-08-12T08:09:06.496Z</time>
      </trkpt>
      <trkpt lat="49.4529" lon="6.40469">
        <ele>162.54</ele>
        <time>2026-08-12T08:09:12.493Z</time>
      </trkpt>
      <trkpt lat="49.45266" lon="6.40546">
        <ele>158.78</ele>
        <time>2026-08-12T08:09:18.491Z</time>
      </trkpt>
      <trkpt lat="49.4525" lon="6.40617">
        <ele>159.02</ele>
        <time>2026-08-12T08:09:24.540Z</time>
      </trkpt>
      <trkpt lat="49.4523" lon="6.40676">
        <ele>158.24</ele>
        <time>2026-08-12T08:09:30.523Z</time>
      </trkpt>
      <trkpt lat="49.45211" lon="6.40723">
        <ele>155.93</ele>
        <time>2026-08-12T08:09:36.496Z</time>
      </trkpt>
      <trkpt lat="49.45198" lon="6.40758">
        <ele>155.53</ele>
        <time>2026-08-12T08:09:42.500Z</time>
      </trkpt>
      <trkpt lat="49.4519" lon="6.40785">
        <ele>156.12</ele>
        <time>2026-08-12T08:09:48.504Z</time>
      </trkpt>
      <trkpt lat="49.45181" lon="6.40816">
        <ele>159.5</ele>
        <time>2026-08-12T08:09:54.530Z</time>
      </trkpt>
      <trkpt lat="49.45174" lon="6.40845">
        <ele>161.02</ele>
        <time>2026-08-12T08:10:00.532Z</time>
      </trkpt>
      <trkpt lat="49.45171" lon="6.40872">
        <ele>163.48</ele>
        <time>2026-08-12T08:10:06.511Z</time>
      </trkpt>
      <trkpt lat="49.4517" lon="6.40901">
        <ele>163.9</ele>
        <time>2026-08-12T08:10:12.492Z</time>
      </trkpt>
      <trkpt lat="49.45173" lon="6.40939">
        <ele>162.96</ele>
        <time>2026-08-12T08:10:18.494Z</time>
      </trkpt>
      <trkpt lat="49.45178" lon="6.4098">
        <ele>161.67</ele>
        <time>2026-08-12T08:10:24.534Z</time>
      </trkpt>
      <trkpt lat="49.45178" lon="6.41019">
        <ele>160.89</ele>
        <time>2026-08-12T08:10:30.537Z</time>
      </trkpt>
      <trkpt lat="49.45183" lon="6.41056">
        <ele>160.45</ele>
        <time>2026-08-12T08:10:36.499Z</time>
      </trkpt>
      <trkpt lat="49.45195" lon="6.41079">
        <ele>160.26</ele>
        <time>2026-08-12T08:10:42.495Z</time>
      </trkpt>
      <trkpt lat="49.4518" lon="6.41082">
        <ele>162.3</ele>
        <time>2026-08-12T08:10:48.495Z</time>
      </trkpt>
      <trkpt lat="49.45161" lon="6.41076">
        <ele>161.96</ele>
        <time>2026-08-12T08:10:54.533Z</time>
      </trkpt>
      <trkpt lat="49.45148" lon="6.41061">
        <ele>161.82</ele>
        <time>2026-08-12T08:11:00.545Z</time>
      </trkpt>
      <trkpt lat="49.4514" lon="6.41049">
        <ele>163.19</ele>
        <time>2026-08-12T08:11:06.506Z</time>
      </trkpt>
      <trkpt lat="49.45133" lon="6.41036">
        <ele>164.53</ele>
        <time>2026-08-12T08:11:12.505Z</time>
      </trkpt>
      <trkpt lat="49.45126" lon="6.41027">
        <ele>166.51</ele>
        <time>2026-08-12T08:11:18.493Z</time>
      </trkpt>
      <trkpt lat="49.45119" lon="6.41018">
        <ele>168.4</ele>
        <time>2026-08-12T08:11:24.545Z</time>
      </trkpt>
      <trkpt lat="49.4511" lon="6.41011">
        <ele>169.84</ele>
        <time>2026-08-12T08:11:31.481Z</time>
      </trkpt>
      <trkpt lat="49.45102" lon="6.41004">
        <ele>169.22</ele>
        <time>2026-08-12T08:11:37.466Z</time>
      </trkpt>
      <trkpt lat="49.45094" lon="6.40994">
        <ele>169.32</ele>
        <time>2026-08-12T08:11:43.487Z</time>
      </trkpt>
      <trkpt lat="49.45087" lon="6.40985">
        <ele>169.15</ele>
        <time>2026-08-12T08:11:48.494Z</time>
      </trkpt>
      <trkpt lat="49.45079" lon="6.40976">
        <ele>169.42</ele>
        <time>2026-08-12T08:11:55.466Z</time>
      </trkpt>
      <trkpt lat="49.45072" lon="6.40967">
        <ele>171.37</ele>
        <time>2026-08-12T08:12:01.473Z</time>
      </trkpt>
      <trkpt lat="49.45063" lon="6.4096">
        <ele>174.31</ele>
        <time>2026-08-12T08:12:07.466Z</time>
      </trkpt>
      <trkpt lat="49.45055" lon="6.40952">
        <ele>176.87</ele>
        <time>2026-08-12T08:12:13.480Z</time>
      </trkpt>
      <trkpt lat="49.45049" lon="6.40942">
        <ele>178.55</ele>
        <time>2026-08-12T08:12:19.472Z</time>
      </trkpt>
      <trkpt lat="49.4504" lon="6.40937">
        <ele>179.54</ele>
        <time>2026-08-12T08:12:26.473Z</time>
      </trkpt>
      <trkpt lat="49.45038" lon="6.40952">
        <ele>179.46</ele>
        <time>2026-08-12T08:12:31.483Z</time>
      </trkpt>
      <trkpt lat="49.45039" lon="6.4097">
        <ele>179.34</ele>
        <time>2026-08-12T08:12:36.508Z</time>
      </trkpt>
      <trkpt lat="49.45041" lon="6.4099">
        <ele>178.81</ele>
        <time>2026-08-12T08:12:42.511Z</time>
      </trkpt>
      <trkpt lat="49.45043" lon="6.41012">
        <ele>178.05</ele>
        <time>2026-08-12T08:12:48.529Z</time>
      </trkpt>
      <trkpt lat="49.45045" lon="6.41035">
        <ele>178.11</ele>
        <time>2026-08-12T08:12:54.531Z</time>
      </trkpt>
      <trkpt lat="49.45048" lon="6.41059">
        <ele>178.96</ele>
        <time>2026-08-12T08:13:00.542Z</time>
      </trkpt>
      <trkpt lat="49.45051" lon="6.41084">
        <ele>179.26</ele>
        <time>2026-08-12T08:13:06.503Z</time>
      </trkpt>
      <trkpt lat="49.45054" lon="6.41108">
        <ele>179.37</ele>
        <time>2026-08-12T08:13:12.509Z</time>
      </trkpt>
      <trkpt lat="49.45057" lon="6.41132">
        <ele>179.78</ele>
        <time>2026-08-12T08:13:18.495Z</time>
      </trkpt>
      <trkpt lat="49.45058" lon="6.41155">
        <ele>179.73</ele>
        <time>2026-08-12T08:13:24.564Z</time>
      </trkpt>
      <trkpt lat="49.45061" lon="6.41175">
        <ele>183.12</ele>
        <time>2026-08-12T08:13:30.540Z</time>
      </trkpt>
      <trkpt lat="49.45062" lon="6.41195">
        <ele>184.91</ele>
        <time>2026-08-12T08:13:36.522Z</time>
      </trkpt>
      <trkpt lat="49.45064" lon="6.41217">
        <ele>185.95</ele>
        <time>2026-08-12T08:13:42.523Z</time>
      </trkpt>
      <trkpt lat="49.45067" lon="6.41237">
        <ele>187.1</ele>
        <time>2026-08-12T08:13:48.518Z</time>
      </trkpt>
      <trkpt lat="49.45069" lon="6.41256">
        <ele>186.2</ele>
        <time>2026-08-12T08:13:54.541Z</time>
      </trkpt>
      <trkpt lat="49.45071" lon="6.41276">
        <ele>186.87</ele>
        <time>2026-08-12T08:14:00.531Z</time>
      </trkpt>
      <trkpt lat="49.45074" lon="6.41296">
        <ele>187.72</ele>
        <time>2026-08-12T08:14:06.516Z</time>
      </trkpt>
      <trkpt lat="49.45075" lon="6.41313">
        <ele>187.76</ele>
        <time>2026-08-12T08:14:12.514Z</time>
      </trkpt>
      <trkpt lat="49.45077" lon="6.41333">
        <ele>188.55</ele>
        <time>2026-08-12T08:14:18.527Z</time>
      </trkpt>
      <trkpt lat="49.4508" lon="6.41354">
        <ele>189.63</ele>
        <time>2026-08-12T08:14:24.544Z</time>
      </trkpt>
      <trkpt lat="49.45083" lon="6.41373">
        <ele>191.28</ele>
        <time>2026-08-12T08:14:30.544Z</time>
      </trkpt>
      <trkpt lat="49.45084" lon="6.41393">
        <ele>190.98</ele>
        <time>2026-08-12T08:14:36.511Z</time>
      </trkpt>
      <trkpt lat="49.45086" lon="6.41414">
        <ele>192.26</ele>
        <time>2026-08-12T08:14:42.513Z</time>
      </trkpt>
      <trkpt lat="49.45087" lon="6.41434">
        <ele>191.75</ele>
        <time>2026-08-12T08:14:48.518Z</time>
      </trkpt>
      <trkpt lat="49.4509" lon="6.41455">
        <ele>191.68</ele>
        <time>2026-08-12T08:14:54.548Z</time>
      </trkpt>
      <trkpt lat="49.45091" lon="6.41474">
        <ele>193.28</ele>
        <time>2026-08-12T08:15:00.536Z</time>
      </trkpt>
      <trkpt lat="49.45095" lon="6.41496">
        <ele>194.63</ele>
        <time>2026-08-12T08:15:06.549Z</time>
      </trkpt>
      <trkpt lat="49.45097" lon="6.41519">
        <ele>196.15</ele>
        <time>2026-08-12T08:15:12.529Z</time>
      </trkpt>
      <trkpt lat="49.45099" lon="6.41539">
        <ele>195.14</ele>
        <time>2026-08-12T08:15:18.531Z</time>
      </trkpt>
      <trkpt lat="49.45101" lon="6.41562">
        <ele>193.4</ele>
        <time>2026-08-12T08:15:24.541Z</time>
      </trkpt>
      <trkpt lat="49.45104" lon="6.41589">
        <ele>193.69</ele>
        <time>2026-08-12T08:15:30.533Z</time>
      </trkpt>
      <trkpt lat="49.45104" lon="6.41613">
        <ele>194.58</ele>
        <time>2026-08-12T08:15:36.520Z</time>
      </trkpt>
      <trkpt lat="49.45105" lon="6.41642">
        <ele>195.95</ele>
        <time>2026-08-12T08:15:42.526Z</time>
      </trkpt>
      <trkpt lat="49.45105" lon="6.41672">
        <ele>197.24</ele>
        <time>2026-08-12T08:15:48.538Z</time>
      </trkpt>
      <trkpt lat="49.45104" lon="6.41702">
        <ele>199.59</ele>
        <time>2026-08-12T08:15:54.545Z</time>
      </trkpt>
      <trkpt lat="49.451" lon="6.41737">
        <ele>199.2</ele>
        <time>2026-08-12T08:16:00.534Z</time>
      </trkpt>
      <trkpt lat="49.45096" lon="6.41771">
        <ele>199.1</ele>
        <time>2026-08-12T08:16:06.525Z</time>
      </trkpt>
      <trkpt lat="49.45092" lon="6.41806">
        <ele>199.18</ele>
        <time>2026-08-12T08:16:12.539Z</time>
      </trkpt>
      <trkpt lat="49.45087" lon="6.41845">
        <ele>199.25</ele>
        <time>2026-08-12T08:16:18.527Z</time>
      </trkpt>
      <trkpt lat="49.45086" lon="6.41884">
        <ele>200.33</ele>
        <time>2026-08-12T08:16:24.542Z</time>
      </trkpt>
      <trkpt lat="49.45083" lon="6.4192">
        <ele>200.26</ele>
        <time>2026-08-12T08:16:30.537Z</time>
      </trkpt>
      <trkpt lat="49.45078" lon="6.41947">
        <ele>199.3</ele>
        <time>2026-08-12T08:16:36.532Z</time>
      </trkpt>
      <trkpt lat="49.45072" lon="6.41977">
        <ele>196.59</ele>
        <time>2026-08-12T08:16:42.527Z</time>
      </trkpt>
      <trkpt lat="49.4507" lon="6.42006">
        <ele>197.59</ele>
        <time>2026-08-12T08:16:48.533Z</time>
      </trkpt>
      <trkpt lat="49.45067" lon="6.42039">
        <ele>200.94</ele>
        <time>2026-08-12T08:16:54.531Z</time>
      </trkpt>
      <trkpt lat="49.45066" lon="6.42073">
        <ele>203.22</ele>
        <time>2026-08-12T08:17:00.535Z</time>
      </trkpt>
      <trkpt lat="49.45066" lon="6.42111">
        <ele>201.9</ele>
        <time>2026-08-12T08:17:06.517Z</time>
      </trkpt>
      <trkpt lat="49.45067" lon="6.42156">
        <ele>200.73</ele>
        <time>2026-08-12T08:17:12.524Z</time>
      </trkpt>
      <trkpt lat="49.45068" lon="6.42203">
        <ele>199.4</ele>
        <time>2026-08-12T08:17:18.522Z</time>
      </trkpt>
      <trkpt lat="49.45068" lon="6.42248">
        <ele>200.46</ele>
        <time>2026-08-12T08:17:24.542Z</time>
      </trkpt>
      <trkpt lat="49.45069" lon="6.42284">
        <ele>201.71</ele>
        <time>2026-08-12T08:17:30.546Z</time>
      </trkpt>
      <trkpt lat="49.4507" lon="6.42316">
        <ele>202.58</ele>
        <time>2026-08-12T08:17:36.530Z</time>
      </trkpt>
      <trkpt lat="49.45068" lon="6.42357">
        <ele>205.43</ele>
        <time>2026-08-12T08:17:42.525Z</time>
      </trkpt>
      <trkpt lat="49.45066" lon="6.42402">
        <ele>204.79</ele>
        <time>2026-08-12T08:17:48.524Z</time>
      </trkpt>
      <trkpt lat="49.45064" lon="6.42443">
        <ele>204.96</ele>
        <time>2026-08-12T08:17:54.537Z</time>
      </trkpt>
      <trkpt lat="49.45062" lon="6.42485">
        <ele>205.88</ele>
        <time>2026-08-12T08:18:00.529Z</time>
      </trkpt>
      <trkpt lat="49.45059" lon="6.42529">
        <ele>204.99</ele>
        <time>2026-08-12T08:18:06.520Z</time>
      </trkpt>
      <trkpt lat="49.45056" lon="6.42577">
        <ele>203.06</ele>
        <time>2026-08-12T08:18:12.521Z</time>
      </trkpt>
      <trkpt lat="49.45053" lon="6.42621">
        <ele>202.61</ele>
        <time>2026-08-12T08:18:18.524Z</time>
      </trkpt>
      <trkpt lat="49.4505" lon="6.42669">
        <ele>202.48</ele>
        <time>2026-08-12T08:18:24.497Z</time>
      </trkpt>
      <trkpt lat="49.45047" lon="6.42718">
        <ele>202.57</ele>
        <time>2026-08-12T08:18:30.534Z</time>
      </trkpt>
      <trkpt lat="49.45044" lon="6.42759">
        <ele>202.47</ele>
        <time>2026-08-12T08:18:36.529Z</time>
      </trkpt>
      <trkpt lat="49.45042" lon="6.42806">
        <ele>202.68</ele>
        <time>2026-08-12T08:18:42.511Z</time>
      </trkpt>
      <trkpt lat="49.45039" lon="6.42859">
        <ele>201.21</ele>
        <time>2026-08-12T08:18:48.524Z</time>
      </trkpt>
      <trkpt lat="49.45037" lon="6.42905">
        <ele>199.61</ele>
        <time>2026-08-12T08:18:54.525Z</time>
      </trkpt>
      <trkpt lat="49.45038" lon="6.42947">
        <ele>200.14</ele>
        <time>2026-08-12T08:19:00.533Z</time>
      </trkpt>
      <trkpt lat="49.45036" lon="6.42992">
        <ele>201.03</ele>
        <time>2026-08-12T08:19:06.522Z</time>
      </trkpt>
      <trkpt lat="49.4503" lon="6.43036">
        <ele>200.85</ele>
        <time>2026-08-12T08:19:12.525Z</time>
      </trkpt>
      <trkpt lat="49.4502" lon="6.4308">
        <ele>200.13</ele>
        <time>2026-08-12T08:19:18.525Z</time>
      </trkpt>
      <trkpt lat="49.4501" lon="6.43127">
        <ele>198.91</ele>
        <time>2026-08-12T08:19:24.540Z</time>
      </trkpt>
      <trkpt lat="49.44992" lon="6.43165">
        <ele>200.03</ele>
        <time>2026-08-12T08:19:30.538Z</time>
      </trkpt>
      <trkpt lat="49.44966" lon="6.43203">
        <ele>198.79</ele>
        <time>2026-08-12T08:19:36.518Z</time>
      </trkpt>
      <trkpt lat="49.44937" lon="6.43245">
        <ele>197.91</ele>
        <time>2026-08-12T08:19:42.514Z</time>
      </trkpt>
      <trkpt lat="49.44912" lon="6.43285">
        <ele>196.23</ele>
        <time>2026-08-12T08:19:48.527Z</time>
      </trkpt>
      <trkpt lat="49.44892" lon="6.43321">
        <ele>195.8</ele>
        <time>2026-08-12T08:19:54.552Z</time>
      </trkpt>
      <trkpt lat="49.44884" lon="6.4337">
        <ele>195.71</ele>
        <time>2026-08-12T08:20:00.534Z</time>
      </trkpt>
      <trkpt lat="49.44891" lon="6.43415">
        <ele>197.68</ele>
        <time>2026-08-12T08:20:06.523Z</time>
      </trkpt>
      <trkpt lat="49.44902" lon="6.43438">
        <ele>198.47</ele>
        <time>2026-08-12T08:20:12.530Z</time>
      </trkpt>
      <trkpt lat="49.44918" lon="6.43448">
        <ele>201.25</ele>
        <time>2026-08-12T08:20:18.527Z</time>
      </trkpt>
      <trkpt lat="49.44932" lon="6.43455">
        <ele>201.38</ele>
        <time>2026-08-12T08:20:24.547Z</time>
      </trkpt>
      <trkpt lat="49.44944" lon="6.43461">
        <ele>202.33</ele>
        <time>2026-08-12T08:20:30.525Z</time>
      </trkpt>
      <trkpt lat="49.44954" lon="6.43466">
        <ele>203.74</ele>
        <time>2026-08-12T08:20:36.530Z</time>
      </trkpt>
      <trkpt lat="49.44966" lon="6.43472">
        <ele>204.87</ele>
        <time>2026-08-12T08:20:42.532Z</time>
      </trkpt>
      <trkpt lat="49.44978" lon="6.43479">
        <ele>206.95</ele>
        <time>2026-08-12T08:20:48.531Z</time>
      </trkpt>
      <trkpt lat="49.4499" lon="6.43491">
        <ele>207.33</ele>
        <time>2026-08-12T08:20:54.518Z</time>
      </trkpt>
      <trkpt lat="49.44996" lon="6.43505">
        <ele>208.37</ele>
        <time>2026-08-12T08:21:00.552Z</time>
      </trkpt>
      <trkpt lat="49.44998" lon="6.43491">
        <ele>208.46</ele>
        <time>2026-08-12T08:21:11.457Z</time>
      </trkpt>
      <trkpt lat="49.45008" lon="6.43493">
        <ele>208.3</ele>
        <time>2026-08-12T08:21:17.469Z</time>
      </trkpt>
      <trkpt lat="49.45007" lon="6.43508">
        <ele>209.47</ele>
        <time>2026-08-12T08:21:23.493Z</time>
      </trkpt>
      <trkpt lat="49.45001" lon="6.43521">
        <ele>212.91</ele>
        <time>2026-08-12T08:26:24.546Z</time>
      </trkpt>
      <trkpt lat="49.44997" lon="6.43539">
        <ele>213.01</ele>
        <time>2026-08-12T08:26:30.550Z</time>
      </trkpt>
      <trkpt lat="49.44989" lon="6.43552">
        <ele>213.2</ele>
        <time>2026-08-12T08:26:36.528Z</time>
      </trkpt>
      <trkpt lat="49.44976" lon="6.43551">
        <ele>211.1</ele>
        <time>2026-08-12T08:26:42.544Z</time>
      </trkpt>
      <trkpt lat="49.44966" lon="6.43553">
        <ele>209.52</ele>
        <time>2026-08-12T08:26:48.538Z</time>
      </trkpt>
      <trkpt lat="49.44955" lon="6.43554">
        <ele>209.77</ele>
        <time>2026-08-12T08:26:54.546Z</time>
      </trkpt>
      <trkpt lat="49.44946" lon="6.4356">
        <ele>209.72</ele>
        <time>2026-08-12T08:27:00.525Z</time>
      </trkpt>
      <trkpt lat="49.44944" lon="6.43573">
        <ele>210.27</ele>
        <time>2026-08-12T08:27:06.527Z</time>
      </trkpt>
      <trkpt lat="49.44943" lon="6.43588">
        <ele>212.25</ele>
        <time>2026-08-12T08:27:13.462Z</time>
      </trkpt>
      <trkpt lat="49.44941" lon="6.43603">
        <ele>214.14</ele>
        <time>2026-08-12T08:27:20.458Z</time>
      </trkpt>
      <trkpt lat="49.44941" lon="6.43619">
        <ele>216.42</ele>
        <time>2026-08-12T08:27:26.471Z</time>
      </trkpt>
      <trkpt lat="49.4494" lon="6.43636">
        <ele>218.11</ele>
        <time>2026-08-12T08:27:32.467Z</time>
      </trkpt>
      <trkpt lat="49.44944" lon="6.43649">
        <ele>219.29</ele>
        <time>2026-08-12T08:27:37.471Z</time>
      </trkpt>
      <trkpt lat="49.4495" lon="6.43659">
        <ele>219.9</ele>
        <time>2026-08-12T08:27:43.475Z</time>
      </trkpt>
      <trkpt lat="49.44958" lon="6.43669">
        <ele>219.24</ele>
        <time>2026-08-12T08:27:49.471Z</time>
      </trkpt>
      <trkpt lat="49.44965" lon="6.43678">
        <ele>219.71</ele>
        <time>2026-08-12T08:27:54.524Z</time>
      </trkpt>
      <trkpt lat="49.44975" lon="6.43691">
        <ele>221.46</ele>
        <time>2026-08-12T08:28:00.527Z</time>
      </trkpt>
      <trkpt lat="49.44984" lon="6.43703">
        <ele>222.86</ele>
        <time>2026-08-12T08:28:06.533Z</time>
      </trkpt>
      <trkpt lat="49.44999" lon="6.43708">
        <ele>224.01</ele>
        <time>2026-08-12T08:28:12.539Z</time>
      </trkpt>
      <trkpt lat="49.4501" lon="6.43713">
        <ele>224.33</ele>
        <time>2026-08-12T08:28:18.552Z</time>
      </trkpt>
      <trkpt lat="49.4502" lon="6.43719">
        <ele>221.59</ele>
        <time>2026-08-12T08:32:45.475Z</time>
      </trkpt>
      <trkpt lat="49.45032" lon="6.43721">
        <ele>221.49</ele>
        <time>2026-08-12T08:32:50.486Z</time>
      </trkpt>
      <trkpt lat="49.45046" lon="6.43727">
        <ele>221.58</ele>
        <time>2026-08-12T08:32:56.461Z</time>
      </trkpt>
      <trkpt lat="49.45056" lon="6.43735">
        <ele>221.31</ele>
        <time>2026-08-12T08:33:01.474Z</time>
      </trkpt>
      <trkpt lat="49.45062" lon="6.43746">
        <ele>220.15</ele>
        <time>2026-08-12T08:33:06.540Z</time>
      </trkpt>
      <trkpt lat="49.4506" lon="6.43765">
        <ele>221.65</ele>
        <time>2026-08-12T08:33:12.536Z</time>
      </trkpt>
      <trkpt lat="49.45057" lon="6.43786">
        <ele>225.93</ele>
        <time>2026-08-12T08:33:18.534Z</time>
      </trkpt>
      <trkpt lat="49.45057" lon="6.43802">
        <ele>227.7</ele>
        <time>2026-08-12T08:33:24.512Z</time>
      </trkpt>
      <trkpt lat="49.45054" lon="6.43818">
        <ele>228.65</ele>
        <time>2026-08-12T08:33:30.518Z</time>
      </trkpt>
      <trkpt lat="49.45053" lon="6.43834">
        <ele>228.11</ele>
        <time>2026-08-12T08:33:36.524Z</time>
      </trkpt>
      <trkpt lat="49.45053" lon="6.43852">
        <ele>229.5</ele>
        <time>2026-08-12T08:33:42.527Z</time>
      </trkpt>
      <trkpt lat="49.45051" lon="6.43871">
        <ele>231.39</ele>
        <time>2026-08-12T08:33:48.530Z</time>
      </trkpt>
      <trkpt lat="49.45045" lon="6.43885">
        <ele>232.57</ele>
        <time>2026-08-12T08:33:54.538Z</time>
      </trkpt>
      <trkpt lat="49.45037" lon="6.43896">
        <ele>234.8</ele>
        <time>2026-08-12T08:34:00.538Z</time>
      </trkpt>
      <trkpt lat="49.45029" lon="6.43908">
        <ele>236.11</ele>
        <time>2026-08-12T08:34:06.541Z</time>
      </trkpt>
      <trkpt lat="49.4502" lon="6.4392">
        <ele>236.49</ele>
        <time>2026-08-12T08:34:12.541Z</time>
      </trkpt>
      <trkpt lat="49.45011" lon="6.43931">
        <ele>237.09</ele>
        <time>2026-08-12T08:34:18.533Z</time>
      </trkpt>
      <trkpt lat="49.45003" lon="6.43944">
        <ele>238.57</ele>
        <time>2026-08-12T08:34:24.539Z</time>
      </trkpt>
      <trkpt lat="49.44995" lon="6.43958">
        <ele>239.35</ele>
        <time>2026-08-12T08:34:30.529Z</time>
      </trkpt>
      <trkpt lat="49.44986" lon="6.43969">
        <ele>241.26</ele>
        <time>2026-08-12T08:34:36.524Z</time>
      </trkpt>
      <trkpt lat="49.44974" lon="6.43977">
        <ele>242.52</ele>
        <time>2026-08-12T08:34:42.529Z</time>
      </trkpt>
      <trkpt lat="49.44962" lon="6.43977">
        <ele>242.42</ele>
        <time>2026-08-12T08:34:48.525Z</time>
      </trkpt>
      <trkpt lat="49.44948" lon="6.43973">
        <ele>242.49</ele>
        <time>2026-08-12T08:34:54.521Z</time>
      </trkpt>
      <trkpt lat="49.44938" lon="6.43963">
        <ele>244.01</ele>
        <time>2026-08-12T08:35:00.522Z</time>
      </trkpt>
      <trkpt lat="49.44928" lon="6.4395">
        <ele>244.05</ele>
        <time>2026-08-12T08:35:06.525Z</time>
      </trkpt>
      <trkpt lat="49.44917" lon="6.43936">
        <ele>244.71</ele>
        <time>2026-08-12T08:35:12.518Z</time>
      </trkpt>
      <trkpt lat="49.44905" lon="6.43922">
        <ele>243.79</ele>
        <time>2026-08-12T08:35:18.537Z</time>
      </trkpt>
      <trkpt lat="49.44893" lon="6.43905">
        <ele>243.81</ele>
        <time>2026-08-12T08:35:24.530Z</time>
      </trkpt>
      <trkpt lat="49.4488" lon="6.43887">
        <ele>244.64</ele>
        <time>2026-08-12T08:35:30.534Z</time>
      </trkpt>
      <trkpt lat="49.44869" lon="6.43871">
        <ele>245.5</ele>
        <time>2026-08-12T08:35:36.528Z</time>
      </trkpt>
      <trkpt lat="49.44856" lon="6.43856">
        <ele>247.25</ele>
        <time>2026-08-12T08:35:42.516Z</time>
      </trkpt>
      <trkpt lat="49.44843" lon="6.43844">
        <ele>249.39</ele>
        <time>2026-08-12T08:35:48.517Z</time>
      </trkpt>
      <trkpt lat="49.44827" lon="6.4384">
        <ele>249.84</ele>
        <time>2026-08-12T08:35:54.531Z</time>
      </trkpt>
      <trkpt lat="49.44813" lon="6.43846">
        <ele>250.26</ele>
        <time>2026-08-12T08:36:00.534Z</time>
      </trkpt>
      <trkpt lat="49.448" lon="6.4386">
        <ele>250.7</ele>
        <time>2026-08-12T08:36:06.517Z</time>
      </trkpt>
      <trkpt lat="49.44789" lon="6.43875">
        <ele>252.76</ele>
        <time>2026-08-12T08:36:12.537Z</time>
      </trkpt>
      <trkpt lat="49.44778" lon="6.4389">
        <ele>256.03</ele>
        <time>2026-08-12T08:36:18.512Z</time>
      </trkpt>
      <trkpt lat="49.44767" lon="6.43903">
        <ele>255.98</ele>
        <time>2026-08-12T08:36:24.527Z</time>
      </trkpt>
      <trkpt lat="49.44757" lon="6.43918">
        <ele>257.07</ele>
        <time>2026-08-12T08:36:30.530Z</time>
      </trkpt>
      <trkpt lat="49.44745" lon="6.43939">
        <ele>257.52</ele>
        <time>2026-08-12T08:36:36.546Z</time>
      </trkpt>
      <trkpt lat="49.44735" lon="6.43958">
        <ele>256.03</ele>
        <time>2026-08-12T08:36:42.519Z</time>
      </trkpt>
      <trkpt lat="49.44724" lon="6.43974">
        <ele>256.99</ele>
        <time>2026-08-12T08:36:48.536Z</time>
      </trkpt>
      <trkpt lat="49.44715" lon="6.4399">
        <ele>257.76</ele>
        <time>2026-08-12T08:36:54.533Z</time>
      </trkpt>
      <trkpt lat="49.44705" lon="6.44009">
        <ele>258.46</ele>
        <time>2026-08-12T08:37:00.541Z</time>
      </trkpt>
      <trkpt lat="49.44696" lon="6.44026">
        <ele>259.2</ele>
        <time>2026-08-12T08:37:06.558Z</time>
      </trkpt>
      <trkpt lat="49.44687" lon="6.44042">
        <ele>259.93</ele>
        <time>2026-08-12T08:37:12.526Z</time>
      </trkpt>
      <trkpt lat="49.44678" lon="6.44058">
        <ele>260.98</ele>
        <time>2026-08-12T08:37:18.528Z</time>
      </trkpt>
      <trkpt lat="49.44669" lon="6.44076">
        <ele>261.33</ele>
        <time>2026-08-12T08:37:24.526Z</time>
      </trkpt>
      <trkpt lat="49.44659" lon="6.44095">
        <ele>262.56</ele>
        <time>2026-08-12T08:37:30.538Z</time>
      </trkpt>
      <trkpt lat="49.44649" lon="6.44114">
        <ele>264.29</ele>
        <time>2026-08-12T08:37:36.542Z</time>
      </trkpt>
      <trkpt lat="49.4464" lon="6.44131">
        <ele>265.97</ele>
        <time>2026-08-12T08:37:42.532Z</time>
      </trkpt>
      <trkpt lat="49.44631" lon="6.44149">
        <ele>266.72</ele>
        <time>2026-08-12T08:37:48.531Z</time>
      </trkpt>
      <trkpt lat="49.44622" lon="6.44166">
        <ele>265.85</ele>
        <time>2026-08-12T08:37:54.545Z</time>
      </trkpt>
      <trkpt lat="49.44613" lon="6.44183">
        <ele>265.71</ele>
        <time>2026-08-12T08:38:00.522Z</time>
      </trkpt>
      <trkpt lat="49.44605" lon="6.44201">
        <ele>265.16</ele>
        <time>2026-08-12T08:38:06.539Z</time>
      </trkpt>
      <trkpt lat="49.44596" lon="6.44219">
        <ele>266.25</ele>
        <time>2026-08-12T08:38:12.531Z</time>
      </trkpt>
      <trkpt lat="49.44587" lon="6.44236">
        <ele>267.64</ele>
        <time>2026-08-12T08:38:18.548Z</time>
      </trkpt>
      <trkpt lat="49.44578" lon="6.44252">
        <ele>269.07</ele>
        <time>2026-08-12T08:38:24.533Z</time>
      </trkpt>
      <trkpt lat="49.44569" lon="6.44269">
        <ele>271.21</ele>
        <time>2026-08-12T08:38:30.533Z</time>
      </trkpt>
      <trkpt lat="49.4456" lon="6.44286">
        <ele>271.55</ele>
        <time>2026-08-12T08:38:36.539Z</time>
      </trkpt>
      <trkpt lat="49.44551" lon="6.44303">
        <ele>271.66</ele>
        <time>2026-08-12T08:38:42.524Z</time>
      </trkpt>
      <trkpt lat="49.44541" lon="6.44321">
        <ele>272.88</ele>
        <time>2026-08-12T08:38:48.538Z</time>
      </trkpt>
      <trkpt lat="49.44532" lon="6.4434">
        <ele>273.65</ele>
        <time>2026-08-12T08:38:54.538Z</time>
      </trkpt>
      <trkpt lat="49.44521" lon="6.44359">
        <ele>274.79</ele>
        <time>2026-08-12T08:39:00.543Z</time>
      </trkpt>
      <trkpt lat="49.44511" lon="6.44379">
        <ele>275.17</ele>
        <time>2026-08-12T08:39:06.538Z</time>
      </trkpt>
      <trkpt lat="49.44501" lon="6.44401">
        <ele>275.73</ele>
        <time>2026-08-12T08:39:12.542Z</time>
      </trkpt>
      <trkpt lat="49.4449" lon="6.44421">
        <ele>275.12</ele>
        <time>2026-08-12T08:39:18.538Z</time>
      </trkpt>
      <trkpt lat="49.44479" lon="6.44442">
        <ele>275.52</ele>
        <time>2026-08-12T08:39:24.535Z</time>
      </trkpt>
      <trkpt lat="49.44467" lon="6.44464">
        <ele>275.99</ele>
        <time>2026-08-12T08:39:30.530Z</time>
      </trkpt>
      <trkpt lat="49.44455" lon="6.44484">
        <ele>275.39</ele>
        <time>2026-08-12T08:39:36.530Z</time>
      </trkpt>
      <trkpt lat="49.44442" lon="6.44504">
        <ele>274.64</ele>
        <time>2026-08-12T08:39:42.533Z</time>
      </trkpt>
      <trkpt lat="49.44429" lon="6.44525">
        <ele>274.52</ele>
        <time>2026-08-12T08:39:48.535Z</time>
      </trkpt>
      <trkpt lat="49.44416" lon="6.44545">
        <ele>274.13</ele>
        <time>2026-08-12T08:39:54.541Z</time>
      </trkpt>
      <trkpt lat="49.44403" lon="6.44562">
        <ele>273.72</ele>
        <time>2026-08-12T08:40:00.534Z</time>
      </trkpt>
      <trkpt lat="49.4439" lon="6.44583">
        <ele>273.3</ele>
        <time>2026-08-12T08:40:06.529Z</time>
      </trkpt>
      <trkpt lat="49.44376" lon="6.44602">
        <ele>273.03</ele>
        <time>2026-08-12T08:40:12.534Z</time>
      </trkpt>
      <trkpt lat="49.44362" lon="6.44623">
        <ele>274.1</ele>
        <time>2026-08-12T08:40:18.535Z</time>
      </trkpt>
      <trkpt lat="49.44349" lon="6.44644">
        <ele>276.32</ele>
        <time>2026-08-12T08:40:24.536Z</time>
      </trkpt>
      <trkpt lat="49.44336" lon="6.44662">
        <ele>275.88</ele>
        <time>2026-08-12T08:40:30.535Z</time>
      </trkpt>
      <trkpt lat="49.44322" lon="6.44681">
        <ele>276.01</ele>
        <time>2026-08-12T08:40:36.536Z</time>
      </trkpt>
      <trkpt lat="49.4431" lon="6.44701">
        <ele>275.32</ele>
        <time>2026-08-12T08:40:42.528Z</time>
      </trkpt>
      <trkpt lat="49.44301" lon="6.44725">
        <ele>276.71</ele>
        <time>2026-08-12T08:40:48.536Z</time>
      </trkpt>
      <trkpt lat="49.44297" lon="6.44749">
        <ele>278.73</ele>
        <time>2026-08-12T08:40:54.554Z</time>
      </trkpt>
      <trkpt lat="49.44294" lon="6.44774">
        <ele>279.29</ele>
        <time>2026-08-12T08:41:00.546Z</time>
      </trkpt>
      <trkpt lat="49.44291" lon="6.44799">
        <ele>279.37</ele>
        <time>2026-08-12T08:41:06.542Z</time>
      </trkpt>
      <trkpt lat="49.44288" lon="6.44823">
        <ele>279.36</ele>
        <time>2026-08-12T08:41:12.541Z</time>
      </trkpt>
      <trkpt lat="49.44285" lon="6.44848">
        <ele>279.95</ele>
        <time>2026-08-12T08:41:18.543Z</time>
      </trkpt>
      <trkpt lat="49.44281" lon="6.44872">
        <ele>280.25</ele>
        <time>2026-08-12T08:41:24.530Z</time>
      </trkpt>
      <trkpt lat="49.44276" lon="6.44896">
        <ele>282.86</ele>
        <time>2026-08-12T08:41:30.546Z</time>
      </trkpt>
      <trkpt lat="49.44271" lon="6.4492">
        <ele>283.95</ele>
        <time>2026-08-12T08:41:36.541Z</time>
      </trkpt>
      <trkpt lat="49.44268" lon="6.4494">
        <ele>285.05</ele>
        <time>2026-08-12T08:41:42.539Z</time>
      </trkpt>
      <trkpt lat="49.44263" lon="6.44965">
        <ele>285.65</ele>
        <time>2026-08-12T08:41:48.542Z</time>
      </trkpt>
      <trkpt lat="49.44257" lon="6.4499">
        <ele>286.84</ele>
        <time>2026-08-12T08:41:54.542Z</time>
      </trkpt>
      <trkpt lat="49.44252" lon="6.45015">
        <ele>287.15</ele>
        <time>2026-08-12T08:42:00.546Z</time>
      </trkpt>
      <trkpt lat="49.44246" lon="6.4504">
        <ele>287.79</ele>
        <time>2026-08-12T08:42:06.539Z</time>
      </trkpt>
      <trkpt lat="49.44239" lon="6.45064">
        <ele>288.27</ele>
        <time>2026-08-12T08:42:12.539Z</time>
      </trkpt>
      <trkpt lat="49.44232" lon="6.45088">
        <ele>288.61</ele>
        <time>2026-08-12T08:42:18.539Z</time>
      </trkpt>
      <trkpt lat="49.44224" lon="6.4511">
        <ele>289.63</ele>
        <time>2026-08-12T08:42:24.545Z</time>
      </trkpt>
      <trkpt lat="49.44216" lon="6.45134">
        <ele>289.62</ele>
        <time>2026-08-12T08:42:30.540Z</time>
      </trkpt>
      <trkpt lat="49.44208" lon="6.45157">
        <ele>290.86</ele>
        <time>2026-08-12T08:42:36.542Z</time>
      </trkpt>
      <trkpt lat="49.44199" lon="6.4518">
        <ele>290.77</ele>
        <time>2026-08-12T08:42:42.539Z</time>
      </trkpt>
      <trkpt lat="49.44189" lon="6.45204">
        <ele>291.03</ele>
        <time>2026-08-12T08:42:48.545Z</time>
      </trkpt>
      <trkpt lat="49.44177" lon="6.45234">
        <ele>289.95</ele>
        <time>2026-08-12T08:42:54.538Z</time>
      </trkpt>
      <trkpt lat="49.4416" lon="6.45273">
        <ele>288.53</ele>
        <time>2026-08-12T08:43:00.541Z</time>
      </trkpt>
      <trkpt lat="49.4414" lon="6.45321">
        <ele>285.58</ele>
        <time>2026-08-12T08:43:06.539Z</time>
      </trkpt>
      <trkpt lat="49.44118" lon="6.45371">
        <ele>283.69</ele>
        <time>2026-08-12T08:43:12.541Z</time>
      </trkpt>
      <trkpt lat="49.44097" lon="6.45419">
        <ele>284.05</ele>
        <time>2026-08-12T08:43:18.549Z</time>
      </trkpt>
      <trkpt lat="49.44081" lon="6.45458">
        <ele>285.47</ele>
        <time>2026-08-12T08:43:24.519Z</time>
      </trkpt>
      <trkpt lat="49.44067" lon="6.45488">
        <ele>287.7</ele>
        <time>2026-08-12T08:43:30.544Z</time>
      </trkpt>
      <trkpt lat="49.44054" lon="6.45518">
        <ele>288.5</ele>
        <time>2026-08-12T08:43:36.541Z</time>
      </trkpt>
      <trkpt lat="49.44039" lon="6.4555">
        <ele>287.27</ele>
        <time>2026-08-12T08:43:42.535Z</time>
      </trkpt>
      <trkpt lat="49.4402" lon="6.45577">
        <ele>286.48</ele>
        <time>2026-08-12T08:43:48.545Z</time>
      </trkpt>
      <trkpt lat="49.43997" lon="6.45595">
        <ele>283.93</ele>
        <time>2026-08-12T08:43:54.542Z</time>
      </trkpt>
      <trkpt lat="49.43975" lon="6.45615">
        <ele>284.02</ele>
        <time>2026-08-12T08:44:00.544Z</time>
      </trkpt>
      <trkpt lat="49.43954" lon="6.45633">
        <ele>285.24</ele>
        <time>2026-08-12T08:44:06.541Z</time>
      </trkpt>
      <trkpt lat="49.43935" lon="6.45649">
        <ele>285.4</ele>
        <time>2026-08-12T08:44:12.537Z</time>
      </trkpt>
      <trkpt lat="49.43915" lon="6.45665">
        <ele>288.07</ele>
        <time>2026-08-12T08:44:18.539Z</time>
      </trkpt>
      <trkpt lat="49.43895" lon="6.45679">
        <ele>290.25</ele>
        <time>2026-08-12T08:44:24.540Z</time>
      </trkpt>
      <trkpt lat="49.43869" lon="6.45698">
        <ele>289.12</ele>
        <time>2026-08-12T08:44:30.537Z</time>
      </trkpt>
      <trkpt lat="49.43836" lon="6.45734">
        <ele>286.34</ele>
        <time>2026-08-12T08:44:36.541Z</time>
      </trkpt>
      <trkpt lat="49.43798" lon="6.45796">
        <ele>280.1</ele>
        <time>2026-08-12T08:44:42.535Z</time>
      </trkpt>
      <trkpt lat="49.43765" lon="6.45873">
        <ele>276.34</ele>
        <time>2026-08-12T08:44:48.573Z</time>
      </trkpt>
      <trkpt lat="49.43733" lon="6.45927">
        <ele>276.21</ele>
        <time>2026-08-12T08:44:54.527Z</time>
      </trkpt>
      <trkpt lat="49.43702" lon="6.45934">
        <ele>276.13</ele>
        <time>2026-08-12T08:45:00.524Z</time>
      </trkpt>
      <trkpt lat="49.43675" lon="6.45949">
        <ele>278.05</ele>
        <time>2026-08-12T08:45:06.538Z</time>
      </trkpt>
      <trkpt lat="49.43657" lon="6.45978">
        <ele>280.27</ele>
        <time>2026-08-12T08:45:12.537Z</time>
      </trkpt>
      <trkpt lat="49.43653" lon="6.4601">
        <ele>280.32</ele>
        <time>2026-08-12T08:45:18.529Z</time>
      </trkpt>
      <trkpt lat="49.43649" lon="6.46039">
        <ele>281.33</ele>
        <time>2026-08-12T08:45:24.542Z</time>
      </trkpt>
      <trkpt lat="49.43652" lon="6.4607">
        <ele>282.96</ele>
        <time>2026-08-12T08:45:30.523Z</time>
      </trkpt>
      <trkpt lat="49.4366" lon="6.46103">
        <ele>286.81</ele>
        <time>2026-08-12T08:45:36.548Z</time>
      </trkpt>
      <trkpt lat="49.43663" lon="6.46136">
        <ele>289.47</ele>
        <time>2026-08-12T08:45:42.528Z</time>
      </trkpt>
      <trkpt lat="49.43664" lon="6.46169">
        <ele>289.66</ele>
        <time>2026-08-12T08:45:48.524Z</time>
      </trkpt>
      <trkpt lat="49.43664" lon="6.46205">
        <ele>289.86</ele>
        <time>2026-08-12T08:45:54.531Z</time>
      </trkpt>
      <trkpt lat="49.43669" lon="6.46245">
        <ele>289.46</ele>
        <time>2026-08-12T08:46:00.538Z</time>
      </trkpt>
      <trkpt lat="49.43674" lon="6.46279">
        <ele>284.81</ele>
        <time>2026-08-12T08:46:06.538Z</time>
      </trkpt>
      <trkpt lat="49.43684" lon="6.46313">
        <ele>281.93</ele>
        <time>2026-08-12T08:46:12.541Z</time>
      </trkpt>
      <trkpt lat="49.43692" lon="6.46348">
        <ele>283.81</ele>
        <time>2026-08-12T08:46:18.542Z</time>
      </trkpt>
      <trkpt lat="49.43692" lon="6.46386">
        <ele>286.48</ele>
        <time>2026-08-12T08:46:24.545Z</time>
      </trkpt>
      <trkpt lat="49.43683" lon="6.46414">
        <ele>288.48</ele>
        <time>2026-08-12T08:46:30.540Z</time>
      </trkpt>
      <trkpt lat="49.43679" lon="6.46443">
        <ele>289.1</ele>
        <time>2026-08-12T08:46:36.540Z</time>
      </trkpt>
      <trkpt lat="49.43679" lon="6.46471">
        <ele>287.68</ele>
        <time>2026-08-12T08:46:42.538Z</time>
      </trkpt>
      <trkpt lat="49.43684" lon="6.46501">
        <ele>285.61</ele>
        <time>2026-08-12T08:46:48.541Z</time>
      </trkpt>
      <trkpt lat="49.4369" lon="6.46527">
        <ele>286.05</ele>
        <time>2026-08-12T08:46:54.540Z</time>
      </trkpt>
      <trkpt lat="49.43696" lon="6.46553">
        <ele>287.01</ele>
        <time>2026-08-12T08:47:00.543Z</time>
      </trkpt>
      <trkpt lat="49.437" lon="6.46579">
        <ele>288.6</ele>
        <time>2026-08-12T08:47:06.539Z</time>
      </trkpt>
      <trkpt lat="49.43705" lon="6.46607">
        <ele>288.38</ele>
        <time>2026-08-12T08:47:12.542Z</time>
      </trkpt>
      <trkpt lat="49.43707" lon="6.46633">
        <ele>289.76</ele>
        <time>2026-08-12T08:47:18.538Z</time>
      </trkpt>
      <trkpt lat="49.4371" lon="6.4666">
        <ele>290.7</ele>
        <time>2026-08-12T08:47:24.537Z</time>
      </trkpt>
      <trkpt lat="49.43712" lon="6.46686">
        <ele>291.82</ele>
        <time>2026-08-12T08:47:30.541Z</time>
      </trkpt>
      <trkpt lat="49.43712" lon="6.46712">
        <ele>292.68</ele>
        <time>2026-08-12T08:47:36.547Z</time>
      </trkpt>
      <trkpt lat="49.43712" lon="6.46739">
        <ele>293.86</ele>
        <time>2026-08-12T08:47:42.542Z</time>
      </trkpt>
      <trkpt lat="49.43711" lon="6.46763">
        <ele>294.74</ele>
        <time>2026-08-12T08:47:48.540Z</time>
      </trkpt>
      <trkpt lat="49.43709" lon="6.46785">
        <ele>296.02</ele>
        <time>2026-08-12T08:47:54.544Z</time>
      </trkpt>
      <trkpt lat="49.43707" lon="6.46807">
        <ele>296.65</ele>
        <time>2026-08-12T08:48:00.540Z</time>
      </trkpt>
      <trkpt lat="49.43704" lon="6.4683">
        <ele>296.48</ele>
        <time>2026-08-12T08:48:06.541Z</time>
      </trkpt>
      <trkpt lat="49.43701" lon="6.46852">
        <ele>297.94</ele>
        <time>2026-08-12T08:48:12.542Z</time>
      </trkpt>
      <trkpt lat="49.43697" lon="6.4687">
        <ele>299.52</ele>
        <time>2026-08-12T08:48:18.540Z</time>
      </trkpt>
      <trkpt lat="49.43693" lon="6.46887">
        <ele>300.38</ele>
        <time>2026-08-12T08:48:24.538Z</time>
      </trkpt>
      <trkpt lat="49.43692" lon="6.46902">
        <ele>300.94</ele>
        <time>2026-08-12T08:48:30.542Z</time>
      </trkpt>
      <trkpt lat="49.43688" lon="6.46919">
        <ele>303.21</ele>
        <time>2026-08-12T08:48:36.539Z</time>
      </trkpt>
      <trkpt lat="49.43686" lon="6.46936">
        <ele>304.09</ele>
        <time>2026-08-12T08:48:42.540Z</time>
      </trkpt>
      <trkpt lat="49.43682" lon="6.46955">
        <ele>304.84</ele>
        <time>2026-08-12T08:48:48.544Z</time>
      </trkpt>
      <trkpt lat="49.43679" lon="6.46972">
        <ele>306.21</ele>
        <time>2026-08-12T08:48:54.538Z</time>
      </trkpt>
      <trkpt lat="49.43676" lon="6.46989">
        <ele>307.59</ele>
        <time>2026-08-12T08:49:00.555Z</time>
      </trkpt>
      <trkpt lat="49.43672" lon="6.47007">
        <ele>309.02</ele>
        <time>2026-08-12T08:49:06.543Z</time>
      </trkpt>
      <trkpt lat="49.43668" lon="6.47026">
        <ele>309.72</ele>
        <time>2026-08-12T08:49:12.541Z</time>
      </trkpt>
      <trkpt lat="49.43664" lon="6.47042">
        <ele>309.67</ele>
        <time>2026-08-12T08:49:18.537Z</time>
      </trkpt>
      <trkpt lat="49.4366" lon="6.47061">
        <ele>310.24</ele>
        <time>2026-08-12T08:49:24.539Z</time>
      </trkpt>
      <trkpt lat="49.43656" lon="6.47081">
        <ele>310.78</ele>
        <time>2026-08-12T08:49:30.542Z</time>
      </trkpt>
      <trkpt lat="49.43652" lon="6.47098">
        <ele>311.6</ele>
        <time>2026-08-12T08:49:36.541Z</time>
      </trkpt>
      <trkpt lat="49.43648" lon="6.47116">
        <ele>311.79</ele>
        <time>2026-08-12T08:49:42.542Z</time>
      </trkpt>
      <trkpt lat="49.43643" lon="6.47134">
        <ele>313.55</ele>
        <time>2026-08-12T08:49:48.544Z</time>
      </trkpt>
      <trkpt lat="49.43638" lon="6.47151">
        <ele>315.42</ele>
        <time>2026-08-12T08:49:54.538Z</time>
      </trkpt>
      <trkpt lat="49.43631" lon="6.47169">
        <ele>315.89</ele>
        <time>2026-08-12T08:50:00.539Z</time>
      </trkpt>
      <trkpt lat="49.43625" lon="6.47188">
        <ele>315.9</ele>
        <time>2026-08-12T08:50:06.530Z</time>
      </trkpt>
      <trkpt lat="49.43618" lon="6.47207">
        <ele>315.95</ele>
        <time>2026-08-12T08:50:12.541Z</time>
      </trkpt>
      <trkpt lat="49.43611" lon="6.47224">
        <ele>316.38</ele>
        <time>2026-08-12T08:50:18.542Z</time>
      </trkpt>
      <trkpt lat="49.43603" lon="6.47242">
        <ele>318.06</ele>
        <time>2026-08-12T08:50:24.540Z</time>
      </trkpt>
      <trkpt lat="49.43597" lon="6.4726">
        <ele>317.99</ele>
        <time>2026-08-12T08:50:30.537Z</time>
      </trkpt>
      <trkpt lat="49.43591" lon="6.47281">
        <ele>316.95</ele>
        <time>2026-08-12T08:50:36.538Z</time>
      </trkpt>
      <trkpt lat="49.43586" lon="6.47301">
        <ele>316.86</ele>
        <time>2026-08-12T08:50:42.536Z</time>
      </trkpt>
      <trkpt lat="49.43582" lon="6.47323">
        <ele>317.09</ele>
        <time>2026-08-12T08:50:48.540Z</time>
      </trkpt>
      <trkpt lat="49.43578" lon="6.47348">
        <ele>318.36</ele>
        <time>2026-08-12T08:50:54.539Z</time>
      </trkpt>
      <trkpt lat="49.43576" lon="6.47377">
        <ele>319.1</ele>
        <time>2026-08-12T08:51:00.537Z</time>
      </trkpt>
      <trkpt lat="49.43574" lon="6.47405">
        <ele>319.17</ele>
        <time>2026-08-12T08:51:06.537Z</time>
      </trkpt>
      <trkpt lat="49.43575" lon="6.47436">
        <ele>318.44</ele>
        <time>2026-08-12T08:51:12.538Z</time>
      </trkpt>
      <trkpt lat="49.43578" lon="6.47465">
        <ele>317.31</ele>
        <time>2026-08-12T08:51:18.543Z</time>
      </trkpt>
      <trkpt lat="49.43582" lon="6.47496">
        <ele>316.85</ele>
        <time>2026-08-12T08:51:24.539Z</time>
      </trkpt>
      <trkpt lat="49.43588" lon="6.47527">
        <ele>317.68</ele>
        <time>2026-08-12T08:51:30.538Z</time>
      </trkpt>
      <trkpt lat="49.43597" lon="6.47561">
        <ele>317.22</ele>
        <time>2026-08-12T08:51:36.537Z</time>
      </trkpt>
      <trkpt lat="49.43607" lon="6.47596">
        <ele>316.5</ele>
        <time>2026-08-12T08:51:42.544Z</time>
      </trkpt>
      <trkpt lat="49.43615" lon="6.47635">
        <ele>314.95</ele>
        <time>2026-08-12T08:51:48.540Z</time>
      </trkpt>
      <trkpt lat="49.43621" lon="6.47677">
        <ele>313.27</ele>
        <time>2026-08-12T08:51:54.542Z</time>
      </trkpt>
      <trkpt lat="49.43625" lon="6.47723">
        <ele>312.6</ele>
        <time>2026-08-12T08:52:00.542Z</time>
      </trkpt>
      <trkpt lat="49.43629" lon="6.47777">
        <ele>311.89</ele>
        <time>2026-08-12T08:52:06.542Z</time>
      </trkpt>
      <trkpt lat="49.43629" lon="6.47837">
        <ele>310.89</ele>
        <time>2026-08-12T08:52:12.552Z</time>
      </trkpt>
      <trkpt lat="49.43622" lon="6.47898">
        <ele>312.03</ele>
        <time>2026-08-12T08:52:18.539Z</time>
      </trkpt>
      <trkpt lat="49.43613" lon="6.47949">
        <ele>312.91</ele>
        <time>2026-08-12T08:52:24.542Z</time>
      </trkpt>
      <trkpt lat="49.43606" lon="6.47993">
        <ele>314.59</ele>
        <time>2026-08-12T08:52:30.540Z</time>
      </trkpt>
      <trkpt lat="49.436" lon="6.48033">
        <ele>314.2</ele>
        <time>2026-08-12T08:52:36.538Z</time>
      </trkpt>
      <trkpt lat="49.43597" lon="6.48076">
        <ele>312.83</ele>
        <time>2026-08-12T08:52:42.543Z</time>
      </trkpt>
      <trkpt lat="49.43599" lon="6.48117">
        <ele>312.57</ele>
        <time>2026-08-12T08:52:48.540Z</time>
      </trkpt>
      <trkpt lat="49.43604" lon="6.48157">
        <ele>311.9</ele>
        <time>2026-08-12T08:52:54.541Z</time>
      </trkpt>
      <trkpt lat="49.43612" lon="6.48196">
        <ele>312.18</ele>
        <time>2026-08-12T08:53:00.538Z</time>
      </trkpt>
      <trkpt lat="49.43624" lon="6.48236">
        <ele>312.98</ele>
        <time>2026-08-12T08:53:06.543Z</time>
      </trkpt>
      <trkpt lat="49.4364" lon="6.48275">
        <ele>310.71</ele>
        <time>2026-08-12T08:53:12.535Z</time>
      </trkpt>
      <trkpt lat="49.43655" lon="6.48308">
        <ele>310.14</ele>
        <time>2026-08-12T08:53:18.540Z</time>
      </trkpt>
      <trkpt lat="49.4367" lon="6.4834">
        <ele>312.1</ele>
        <time>2026-08-12T08:53:24.539Z</time>
      </trkpt>
      <trkpt lat="49.43682" lon="6.48372">
        <ele>313.66</ele>
        <time>2026-08-12T08:53:30.539Z</time>
      </trkpt>
      <trkpt lat="49.43691" lon="6.48402">
        <ele>314.71</ele>
        <time>2026-08-12T08:53:36.544Z</time>
      </trkpt>
      <trkpt lat="49.43697" lon="6.48425">
        <ele>313.26</ele>
        <time>2026-08-12T08:53:42.541Z</time>
      </trkpt>
      <trkpt lat="49.43701" lon="6.48444">
        <ele>313.52</ele>
        <time>2026-08-12T08:53:48.540Z</time>
      </trkpt>
      <trkpt lat="49.43705" lon="6.48465">
        <ele>313.55</ele>
        <time>2026-08-12T08:53:54.539Z</time>
      </trkpt>
      <trkpt lat="49.4371" lon="6.48485">
        <ele>313.36</ele>
        <time>2026-08-12T08:54:00.539Z</time>
      </trkpt>
      <trkpt lat="49.43715" lon="6.48507">
        <ele>314.66</ele>
        <time>2026-08-12T08:54:06.541Z</time>
      </trkpt>
      <trkpt lat="49.43719" lon="6.48528">
        <ele>315.75</ele>
        <time>2026-08-12T08:54:12.538Z</time>
      </trkpt>
      <trkpt lat="49.43723" lon="6.4855">
        <ele>317.68</ele>
        <time>2026-08-12T08:54:18.542Z</time>
      </trkpt>
      <trkpt lat="49.43725" lon="6.48573">
        <ele>318.48</ele>
        <time>2026-08-12T08:54:24.539Z</time>
      </trkpt>
      <trkpt lat="49.43728" lon="6.48596">
        <ele>317.63</ele>
        <time>2026-08-12T08:54:30.538Z</time>
      </trkpt>
      <trkpt lat="49.43731" lon="6.48619">
        <ele>318.06</ele>
        <time>2026-08-12T08:54:36.540Z</time>
      </trkpt>
      <trkpt lat="49.43734" lon="6.48647">
        <ele>318.59</ele>
        <time>2026-08-12T08:54:42.544Z</time>
      </trkpt>
      <trkpt lat="49.43737" lon="6.48673">
        <ele>317.38</ele>
        <time>2026-08-12T08:54:48.543Z</time>
      </trkpt>
      <trkpt lat="49.4374" lon="6.48702">
        <ele>317.47</ele>
        <time>2026-08-12T08:54:54.536Z</time>
      </trkpt>
      <trkpt lat="49.43744" lon="6.48731">
        <ele>319</ele>
        <time>2026-08-12T08:55:00.538Z</time>
      </trkpt>
      <trkpt lat="49.43749" lon="6.48762">
        <ele>319.82</ele>
        <time>2026-08-12T08:55:06.537Z</time>
      </trkpt>
      <trkpt lat="49.43756" lon="6.48796">
        <ele>319.86</ele>
        <time>2026-08-12T08:55:12.536Z</time>
      </trkpt>
      <trkpt lat="49.43763" lon="6.48832">
        <ele>318.89</ele>
        <time>2026-08-12T08:55:18.542Z</time>
      </trkpt>
      <trkpt lat="49.43772" lon="6.48873">
        <ele>317.8</ele>
        <time>2026-08-12T08:55:24.540Z</time>
      </trkpt>
      <trkpt lat="49.43781" lon="6.48919">
        <ele>316.65</ele>
        <time>2026-08-12T08:55:30.540Z</time>
      </trkpt>
      <trkpt lat="49.43792" lon="6.48975">
        <ele>315.08</ele>
        <time>2026-08-12T08:55:36.542Z</time>
      </trkpt>
      <trkpt lat="49.43806" lon="6.49037">
        <ele>312.39</ele>
        <time>2026-08-12T08:55:42.540Z</time>
      </trkpt>
      <trkpt lat="49.43824" lon="6.49103">
        <ele>308.46</ele>
        <time>2026-08-12T08:55:48.541Z</time>
      </trkpt>
      <trkpt lat="49.43847" lon="6.49177">
        <ele>304.3</ele>
        <time>2026-08-12T08:55:54.517Z</time>
      </trkpt>
      <trkpt lat="49.43849" lon="6.49256">
        <ele>303.56</ele>
        <time>2026-08-12T08:56:00.540Z</time>
      </trkpt>
      <trkpt lat="49.43844" lon="6.49327">
        <ele>303.36</ele>
        <time>2026-08-12T08:56:06.535Z</time>
      </trkpt>
      <trkpt lat="49.4384" lon="6.49392">
        <ele>304.13</ele>
        <time>2026-08-12T08:56:12.520Z</time>
      </trkpt>
      <trkpt lat="49.43838" lon="6.49435">
        <ele>304.73</ele>
        <time>2026-08-12T08:56:18.531Z</time>
      </trkpt>
      <trkpt lat="49.43835" lon="6.4948">
        <ele>303.28</ele>
        <time>2026-08-12T08:56:24.523Z</time>
      </trkpt>
      <trkpt lat="49.43837" lon="6.49522">
        <ele>303</ele>
        <time>2026-08-12T08:56:30.531Z</time>
      </trkpt>
      <trkpt lat="49.4385" lon="6.49568">
        <ele>302.38</ele>
        <time>2026-08-12T08:56:36.533Z</time>
      </trkpt>
      <trkpt lat="49.43842" lon="6.49623">
        <ele>301.55</ele>
        <time>2026-08-12T08:56:42.532Z</time>
      </trkpt>
      <trkpt lat="49.43817" lon="6.49673">
        <ele>300.39</ele>
        <time>2026-08-12T08:56:48.541Z</time>
      </trkpt>
      <trkpt lat="49.43809" lon="6.49717">
        <ele>298.65</ele>
        <time>2026-08-12T08:56:54.530Z</time>
      </trkpt>
      <trkpt lat="49.43815" lon="6.49762">
        <ele>295.51</ele>
        <time>2026-08-12T08:57:00.529Z</time>
      </trkpt>
      <trkpt lat="49.43824" lon="6.49811">
        <ele>292.82</ele>
        <time>2026-08-12T08:57:06.541Z</time>
      </trkpt>
      <trkpt lat="49.43857" lon="6.49826">
        <ele>292.88</ele>
        <time>2026-08-12T08:57:12.530Z</time>
      </trkpt>
      <trkpt lat="49.43881" lon="6.49856">
        <ele>293.51</ele>
        <time>2026-08-12T08:57:18.527Z</time>
      </trkpt>
      <trkpt lat="49.43887" lon="6.49905">
        <ele>295.81</ele>
        <time>2026-08-12T08:57:24.536Z</time>
      </trkpt>
      <trkpt lat="49.43878" lon="6.49946">
        <ele>298.31</ele>
        <time>2026-08-12T08:57:30.537Z</time>
      </trkpt>
      <trkpt lat="49.43857" lon="6.49956">
        <ele>301.22</ele>
        <time>2026-08-12T08:57:36.535Z</time>
      </trkpt>
      <trkpt lat="49.43834" lon="6.4997">
        <ele>300.18</ele>
        <time>2026-08-12T08:57:42.538Z</time>
      </trkpt>
      <trkpt lat="49.43811" lon="6.49995">
        <ele>299.59</ele>
        <time>2026-08-12T08:57:48.530Z</time>
      </trkpt>
      <trkpt lat="49.43789" lon="6.50021">
        <ele>299.41</ele>
        <time>2026-08-12T08:57:54.531Z</time>
      </trkpt>
      <trkpt lat="49.4377" lon="6.50053">
        <ele>298.35</ele>
        <time>2026-08-12T08:58:00.527Z</time>
      </trkpt>
      <trkpt lat="49.43759" lon="6.50088">
        <ele>299.68</ele>
        <time>2026-08-12T08:58:06.524Z</time>
      </trkpt>
      <trkpt lat="49.4375" lon="6.50121">
        <ele>300.5</ele>
        <time>2026-08-12T08:58:12.529Z</time>
      </trkpt>
      <trkpt lat="49.4374" lon="6.50154">
        <ele>299.95</ele>
        <time>2026-08-12T08:58:18.530Z</time>
      </trkpt>
      <trkpt lat="49.43731" lon="6.50187">
        <ele>301.88</ele>
        <time>2026-08-12T08:58:24.500Z</time>
      </trkpt>
      <trkpt lat="49.43721" lon="6.50222">
        <ele>301.86</ele>
        <time>2026-08-12T08:58:30.528Z</time>
      </trkpt>
      <trkpt lat="49.4371" lon="6.50258">
        <ele>301.02</ele>
        <time>2026-08-12T08:58:36.523Z</time>
      </trkpt>
      <trkpt lat="49.437" lon="6.50292">
        <ele>299.77</ele>
        <time>2026-08-12T08:58:41.538Z</time>
      </trkpt>
      <trkpt lat="49.43687" lon="6.50339">
        <ele>298.44</ele>
        <time>2026-08-12T08:58:47.458Z</time>
      </trkpt>
      <trkpt lat="49.43677" lon="6.50381">
        <ele>297.47</ele>
        <time>2026-08-12T08:58:52.462Z</time>
      </trkpt>
      <trkpt lat="49.43667" lon="6.50417">
        <ele>296.27</ele>
        <time>2026-08-12T08:58:57.475Z</time>
      </trkpt>
      <trkpt lat="49.43658" lon="6.50456">
        <ele>297.2</ele>
        <time>2026-08-12T08:59:02.539Z</time>
      </trkpt>
      <trkpt lat="49.4365" lon="6.50495">
        <ele>298.74</ele>
        <time>2026-08-12T08:59:08.529Z</time>
      </trkpt>
      <trkpt lat="49.43638" lon="6.50534">
        <ele>295.78</ele>
        <time>2026-08-12T08:59:14.501Z</time>
      </trkpt>
      <trkpt lat="49.43623" lon="6.50573">
        <ele>291.52</ele>
        <time>2026-08-12T08:59:19.503Z</time>
      </trkpt>
      <trkpt lat="49.43607" lon="6.50619">
        <ele>287.42</ele>
        <time>2026-08-12T08:59:24.522Z</time>
      </trkpt>
      <trkpt lat="49.43594" lon="6.50689">
        <ele>285.62</ele>
        <time>2026-08-12T08:59:30.523Z</time>
      </trkpt>
      <trkpt lat="49.43626" lon="6.5075">
        <ele>279.75</ele>
        <time>2026-08-12T08:59:36.539Z</time>
      </trkpt>
      <trkpt lat="49.43662" lon="6.50796">
        <ele>277.12</ele>
        <time>2026-08-12T08:59:42.539Z</time>
      </trkpt>
      <trkpt lat="49.43669" lon="6.50845">
        <ele>280.83</ele>
        <time>2026-08-12T08:59:48.530Z</time>
      </trkpt>
      <trkpt lat="49.43671" lon="6.5087">
        <ele>285.52</ele>
        <time>2026-08-12T08:59:54.545Z</time>
      </trkpt>
      <trkpt lat="49.43672" lon="6.50888">
        <ele>288.74</ele>
        <time>2026-08-12T09:00:00.537Z</time>
      </trkpt>
      <trkpt lat="49.43673" lon="6.50903">
        <ele>289.64</ele>
        <time>2026-08-12T09:00:07.462Z</time>
      </trkpt>
      <trkpt lat="49.43673" lon="6.50917">
        <ele>291.19</ele>
        <time>2026-08-12T09:00:15.465Z</time>
      </trkpt>
      <trkpt lat="49.43672" lon="6.50931">
        <ele>291.88</ele>
        <time>2026-08-12T09:00:23.492Z</time>
      </trkpt>
      <trkpt lat="49.43669" lon="6.50945">
        <ele>292.51</ele>
        <time>2026-08-12T09:00:31.450Z</time>
      </trkpt>
      <trkpt lat="49.43667" lon="6.5096">
        <ele>294.05</ele>
        <time>2026-08-12T09:00:38.458Z</time>
      </trkpt>
      <trkpt lat="49.43664" lon="6.50973">
        <ele>294.17</ele>
        <time>2026-08-12T09:00:45.459Z</time>
      </trkpt>
      <trkpt lat="49.43657" lon="6.50984">
        <ele>293.81</ele>
        <time>2026-08-12T09:00:52.507Z</time>
      </trkpt>
      <trkpt lat="49.43652" lon="6.50997">
        <ele>294.2</ele>
        <time>2026-08-12T09:01:00.529Z</time>
      </trkpt>
      <trkpt lat="49.43647" lon="6.51009">
        <ele>294.3</ele>
        <time>2026-08-12T09:01:06.521Z</time>
      </trkpt>
      <trkpt lat="49.43641" lon="6.51023">
        <ele>295.68</ele>
        <time>2026-08-12T09:01:12.529Z</time>
      </trkpt>
      <trkpt lat="49.43634" lon="6.51036">
        <ele>296.92</ele>
        <time>2026-08-12T09:01:18.533Z</time>
      </trkpt>
      <trkpt lat="49.43627" lon="6.51048">
        <ele>298.15</ele>
        <time>2026-08-12T09:01:24.529Z</time>
      </trkpt>
      <trkpt lat="49.43624" lon="6.51062">
        <ele>300.17</ele>
        <time>2026-08-12T09:01:31.465Z</time>
      </trkpt>
      <trkpt lat="49.43617" lon="6.51074">
        <ele>301.18</ele>
        <time>2026-08-12T09:01:38.455Z</time>
      </trkpt>
      <trkpt lat="49.43611" lon="6.51086">
        <ele>301.27</ele>
        <time>2026-08-12T09:01:45.466Z</time>
      </trkpt>
      <trkpt lat="49.43606" lon="6.51099">
        <ele>302.62</ele>
        <time>2026-08-12T09:01:52.470Z</time>
      </trkpt>
      <trkpt lat="49.436" lon="6.51111">
        <ele>303.51</ele>
        <time>2026-08-12T09:01:59.469Z</time>
      </trkpt>
      <trkpt lat="49.43597" lon="6.51124">
        <ele>303.8</ele>
        <time>2026-08-12T09:02:05.468Z</time>
      </trkpt>
      <trkpt lat="49.43594" lon="6.51139">
        <ele>305.08</ele>
        <time>2026-08-12T09:02:12.522Z</time>
      </trkpt>
      <trkpt lat="49.43593" lon="6.51154">
        <ele>306.17</ele>
        <time>2026-08-12T09:02:18.550Z</time>
      </trkpt>
      <trkpt lat="49.43594" lon="6.51168">
        <ele>307.38</ele>
        <time>2026-08-12T09:02:24.528Z</time>
      </trkpt>
      <trkpt lat="49.43594" lon="6.51183">
        <ele>307.66</ele>
        <time>2026-08-12T09:02:31.473Z</time>
      </trkpt>
      <trkpt lat="49.43595" lon="6.51198">
        <ele>307.88</ele>
        <time>2026-08-12T09:02:37.455Z</time>
      </trkpt>
      <trkpt lat="49.43596" lon="6.51213">
        <ele>307.59</ele>
        <time>2026-08-12T09:02:43.460Z</time>
      </trkpt>
      <trkpt lat="49.43598" lon="6.51228">
        <ele>307.09</ele>
        <time>2026-08-12T09:02:49.476Z</time>
      </trkpt>
      <trkpt lat="49.43599" lon="6.51242">
        <ele>308.05</ele>
        <time>2026-08-12T09:02:54.533Z</time>
      </trkpt>
      <trkpt lat="49.43601" lon="6.51257">
        <ele>308.95</ele>
        <time>2026-08-12T09:03:00.531Z</time>
      </trkpt>
      <trkpt lat="49.43603" lon="6.51271">
        <ele>310.17</ele>
        <time>2026-08-12T09:03:08.483Z</time>
      </trkpt>
      <trkpt lat="49.43603" lon="6.51287">
        <ele>312.41</ele>
        <time>2026-08-12T09:03:15.470Z</time>
      </trkpt>
      <trkpt lat="49.43604" lon="6.51304">
        <ele>313.99</ele>
        <time>2026-08-12T09:03:21.476Z</time>
      </trkpt>
      <trkpt lat="49.43606" lon="6.51318">
        <ele>314.87</ele>
        <time>2026-08-12T09:03:26.477Z</time>
      </trkpt>
      <trkpt lat="49.43608" lon="6.51337">
        <ele>316.1</ele>
        <time>2026-08-12T09:03:31.478Z</time>
      </trkpt>
      <trkpt lat="49.43609" lon="6.51352">
        <ele>317.16</ele>
        <time>2026-08-12T09:03:36.529Z</time>
      </trkpt>
      <trkpt lat="49.4361" lon="6.51371">
        <ele>317.34</ele>
        <time>2026-08-12T09:03:42.530Z</time>
      </trkpt>
      <trkpt lat="49.43613" lon="6.51391">
        <ele>317.4</ele>
        <time>2026-08-12T09:03:48.541Z</time>
      </trkpt>
      <trkpt lat="49.43616" lon="6.51412">
        <ele>317.72</ele>
        <time>2026-08-12T09:03:54.554Z</time>
      </trkpt>
      <trkpt lat="49.43619" lon="6.51434">
        <ele>319.15</ele>
        <time>2026-08-12T09:04:00.533Z</time>
      </trkpt>
      <trkpt lat="49.43623" lon="6.51457">
        <ele>319.36</ele>
        <time>2026-08-12T09:04:06.544Z</time>
      </trkpt>
      <trkpt lat="49.43626" lon="6.51483">
        <ele>319.18</ele>
        <time>2026-08-12T09:04:12.536Z</time>
      </trkpt>
      <trkpt lat="49.43629" lon="6.51508">
        <ele>319.27</ele>
        <time>2026-08-12T09:04:18.531Z</time>
      </trkpt>
      <trkpt lat="49.43631" lon="6.51531">
        <ele>318.06</ele>
        <time>2026-08-12T09:04:24.534Z</time>
      </trkpt>
      <trkpt lat="49.43633" lon="6.51555">
        <ele>317.61</ele>
        <time>2026-08-12T09:04:30.542Z</time>
      </trkpt>
      <trkpt lat="49.43633" lon="6.51571">
        <ele>317.36</ele>
        <time>2026-08-12T09:04:45.473Z</time>
      </trkpt>
      <trkpt lat="49.43634" lon="6.51587">
        <ele>316.63</ele>
        <time>2026-08-12T09:17:59.457Z</time>
      </trkpt>
      <trkpt lat="49.43637" lon="6.51605">
        <ele>318.38</ele>
        <time>2026-08-12T09:18:04.473Z</time>
      </trkpt>
      <trkpt lat="49.43639" lon="6.51629">
        <ele>319.04</ele>
        <time>2026-08-12T09:18:10.175Z</time>
      </trkpt>
      <trkpt lat="49.43639" lon="6.51651">
        <ele>317.85</ele>
        <time>2026-08-12T09:18:15.179Z</time>
      </trkpt>
      <trkpt lat="49.43638" lon="6.51678">
        <ele>317.04</ele>
        <time>2026-08-12T09:18:20.375Z</time>
      </trkpt>
      <trkpt lat="49.43639" lon="6.51713">
        <ele>316.09</ele>
        <time>2026-08-12T09:18:25.812Z</time>
      </trkpt>
      <trkpt lat="49.4364" lon="6.51744">
        <ele>314.86</ele>
        <time>2026-08-12T09:18:30.837Z</time>
      </trkpt>
      <trkpt lat="49.43638" lon="6.5178">
        <ele>313.16</ele>
        <time>2026-08-12T09:18:36.526Z</time>
      </trkpt>
      <trkpt lat="49.43634" lon="6.51827">
        <ele>310.45</ele>
        <time>2026-08-12T09:18:42.527Z</time>
      </trkpt>
      <trkpt lat="49.43628" lon="6.5188">
        <ele>309.39</ele>
        <time>2026-08-12T09:18:48.532Z</time>
      </trkpt>
      <trkpt lat="49.43622" lon="6.51922">
        <ele>309.36</ele>
        <time>2026-08-12T09:18:54.531Z</time>
      </trkpt>
      <trkpt lat="49.43619" lon="6.51949">
        <ele>308.88</ele>
        <time>2026-08-12T09:18:59.657Z</time>
      </trkpt>
      <trkpt lat="49.43616" lon="6.51974">
        <ele>308.43</ele>
        <time>2026-08-12T09:19:04.872Z</time>
      </trkpt>
      <trkpt lat="49.43613" lon="6.51996">
        <ele>307.84</ele>
        <time>2026-08-12T09:19:10.470Z</time>
      </trkpt>
      <trkpt lat="49.43611" lon="6.52018">
        <ele>307.58</ele>
        <time>2026-08-12T09:19:16.270Z</time>
      </trkpt>
      <trkpt lat="49.43609" lon="6.52039">
        <ele>307.23</ele>
        <time>2026-08-12T09:19:21.435Z</time>
      </trkpt>
      <trkpt lat="49.43607" lon="6.5206">
        <ele>308.15</ele>
        <time>2026-08-12T09:19:27.469Z</time>
      </trkpt>
      <trkpt lat="49.43605" lon="6.52083">
        <ele>308.15</ele>
        <time>2026-08-12T09:19:33.471Z</time>
      </trkpt>
      <trkpt lat="49.43603" lon="6.52101">
        <ele>307.59</ele>
        <time>2026-08-12T09:19:39.469Z</time>
      </trkpt>
      <trkpt lat="49.43602" lon="6.52116">
        <ele>308.04</ele>
        <time>2026-08-12T09:19:45.456Z</time>
      </trkpt>
      <trkpt lat="49.43601" lon="6.5213">
        <ele>309.26</ele>
        <time>2026-08-12T09:19:50.466Z</time>
      </trkpt>
      <trkpt lat="49.43599" lon="6.52146">
        <ele>310.36</ele>
        <time>2026-08-12T09:19:56.467Z</time>
      </trkpt>
      <trkpt lat="49.43598" lon="6.5216">
        <ele>311.43</ele>
        <time>2026-08-12T09:20:01.471Z</time>
      </trkpt>
      <trkpt lat="49.43596" lon="6.52175">
        <ele>310.96</ele>
        <time>2026-08-12T09:20:06.529Z</time>
      </trkpt>
      <trkpt lat="49.43594" lon="6.52194">
        <ele>311.42</ele>
        <time>2026-08-12T09:20:12.532Z</time>
      </trkpt>
      <trkpt lat="49.43592" lon="6.52211">
        <ele>312.14</ele>
        <time>2026-08-12T09:20:18.528Z</time>
      </trkpt>
      <trkpt lat="49.4359" lon="6.5223">
        <ele>312.33</ele>
        <time>2026-08-12T09:20:24.541Z</time>
      </trkpt>
      <trkpt lat="49.43587" lon="6.52248">
        <ele>313.35</ele>
        <time>2026-08-12T09:20:30.532Z</time>
      </trkpt>
      <trkpt lat="49.43585" lon="6.52266">
        <ele>314.21</ele>
        <time>2026-08-12T09:20:36.530Z</time>
      </trkpt>
      <trkpt lat="49.43584" lon="6.52282">
        <ele>314.53</ele>
        <time>2026-08-12T09:20:42.529Z</time>
      </trkpt>
      <trkpt lat="49.43583" lon="6.52299">
        <ele>315.34</ele>
        <time>2026-08-12T09:20:48.531Z</time>
      </trkpt>
      <trkpt lat="49.43582" lon="6.52316">
        <ele>315.87</ele>
        <time>2026-08-12T09:20:54.524Z</time>
      </trkpt>
      <trkpt lat="49.4358" lon="6.52331">
        <ele>316</ele>
        <time>2026-08-12T09:21:00.532Z</time>
      </trkpt>
      <trkpt lat="49.43578" lon="6.52349">
        <ele>316.83</ele>
        <time>2026-08-12T09:21:06.529Z</time>
      </trkpt>
      <trkpt lat="49.43577" lon="6.52367">
        <ele>317.52</ele>
        <time>2026-08-12T09:21:12.525Z</time>
      </trkpt>
      <trkpt lat="49.43576" lon="6.52382">
        <ele>317.79</ele>
        <time>2026-08-12T09:21:18.537Z</time>
      </trkpt>
      <trkpt lat="49.43574" lon="6.52398">
        <ele>318.78</ele>
        <time>2026-08-12T09:21:24.536Z</time>
      </trkpt>
      <trkpt lat="49.43573" lon="6.52414">
        <ele>319.32</ele>
        <time>2026-08-12T09:21:30.537Z</time>
      </trkpt>
      <trkpt lat="49.43571" lon="6.5243">
        <ele>319.14</ele>
        <time>2026-08-12T09:21:36.535Z</time>
      </trkpt>
      <trkpt lat="49.43569" lon="6.52447">
        <ele>319.59</ele>
        <time>2026-08-12T09:21:42.533Z</time>
      </trkpt>
      <trkpt lat="49.43565" lon="6.52463">
        <ele>320.16</ele>
        <time>2026-08-12T09:21:48.532Z</time>
      </trkpt>
      <trkpt lat="49.43557" lon="6.52479">
        <ele>321.45</ele>
        <time>2026-08-12T09:21:54.534Z</time>
      </trkpt>
      <trkpt lat="49.43551" lon="6.52496">
        <ele>322.11</ele>
        <time>2026-08-12T09:22:00.539Z</time>
      </trkpt>
      <trkpt lat="49.43547" lon="6.52514">
        <ele>323.48</ele>
        <time>2026-08-12T09:22:06.526Z</time>
      </trkpt>
      <trkpt lat="49.43544" lon="6.52533">
        <ele>323.6</ele>
        <time>2026-08-12T09:22:12.534Z</time>
      </trkpt>
      <trkpt lat="49.43541" lon="6.52553">
        <ele>324.52</ele>
        <time>2026-08-12T09:22:18.534Z</time>
      </trkpt>
      <trkpt lat="49.43539" lon="6.52573">
        <ele>324.85</ele>
        <time>2026-08-12T09:22:24.523Z</time>
      </trkpt>
      <trkpt lat="49.43537" lon="6.52593">
        <ele>324.71</ele>
        <time>2026-08-12T09:22:30.534Z</time>
      </trkpt>
      <trkpt lat="49.43535" lon="6.52616">
        <ele>325.34</ele>
        <time>2026-08-12T09:22:36.535Z</time>
      </trkpt>
      <trkpt lat="49.43533" lon="6.52645">
        <ele>325.69</ele>
        <time>2026-08-12T09:22:42.534Z</time>
      </trkpt>
      <trkpt lat="49.43532" lon="6.52673">
        <ele>326.02</ele>
        <time>2026-08-12T09:22:48.533Z</time>
      </trkpt>
      <trkpt lat="49.4353" lon="6.52702">
        <ele>326.19</ele>
        <time>2026-08-12T09:22:54.535Z</time>
      </trkpt>
      <trkpt lat="49.4353" lon="6.52731">
        <ele>326.71</ele>
        <time>2026-08-12T09:23:00.536Z</time>
      </trkpt>
      <trkpt lat="49.43531" lon="6.52762">
        <ele>327.65</ele>
        <time>2026-08-12T09:23:06.533Z</time>
      </trkpt>
      <trkpt lat="49.43532" lon="6.52793">
        <ele>327.41</ele>
        <time>2026-08-12T09:23:12.536Z</time>
      </trkpt>
      <trkpt lat="49.43533" lon="6.52828">
        <ele>326.74</ele>
        <time>2026-08-12T09:23:18.534Z</time>
      </trkpt>
      <trkpt lat="49.43534" lon="6.52864">
        <ele>326.82</ele>
        <time>2026-08-12T09:23:24.524Z</time>
      </trkpt>
      <trkpt lat="49.43535" lon="6.52904">
        <ele>327.53</ele>
        <time>2026-08-12T09:23:30.542Z</time>
      </trkpt>
      <trkpt lat="49.43536" lon="6.52945">
        <ele>327.5</ele>
        <time>2026-08-12T09:23:36.533Z</time>
      </trkpt>
      <trkpt lat="49.43537" lon="6.52988">
        <ele>325.88</ele>
        <time>2026-08-12T09:23:42.541Z</time>
      </trkpt>
      <trkpt lat="49.43538" lon="6.53035">
        <ele>325.29</ele>
        <time>2026-08-12T09:23:48.533Z</time>
      </trkpt>
      <trkpt lat="49.43539" lon="6.53077">
        <ele>325.68</ele>
        <time>2026-08-12T09:23:54.536Z</time>
      </trkpt>
      <trkpt lat="49.43539" lon="6.53113">
        <ele>325.51</ele>
        <time>2026-08-12T09:24:00.534Z</time>
      </trkpt>
      <trkpt lat="49.4354" lon="6.53158">
        <ele>324.61</ele>
        <time>2026-08-12T09:24:06.532Z</time>
      </trkpt>
      <trkpt lat="49.43542" lon="6.53208">
        <ele>324.45</ele>
        <time>2026-08-12T09:24:12.534Z</time>
      </trkpt>
      <trkpt lat="49.43544" lon="6.53255">
        <ele>323.7</ele>
        <time>2026-08-12T09:24:18.536Z</time>
      </trkpt>
      <trkpt lat="49.43547" lon="6.53303">
        <ele>322.38</ele>
        <time>2026-08-12T09:24:24.534Z</time>
      </trkpt>
      <trkpt lat="49.43551" lon="6.53351">
        <ele>321.01</ele>
        <time>2026-08-12T09:24:30.533Z</time>
      </trkpt>
      <trkpt lat="49.43556" lon="6.53403">
        <ele>319.71</ele>
        <time>2026-08-12T09:24:36.532Z</time>
      </trkpt>
      <trkpt lat="49.43563" lon="6.53462">
        <ele>318.83</ele>
        <time>2026-08-12T09:24:42.534Z</time>
      </trkpt>
      <trkpt lat="49.43567" lon="6.53511">
        <ele>317.04</ele>
        <time>2026-08-12T09:24:48.533Z</time>
      </trkpt>
      <trkpt lat="49.4357" lon="6.5355">
        <ele>316.32</ele>
        <time>2026-08-12T09:24:54.538Z</time>
      </trkpt>
      <trkpt lat="49.43573" lon="6.53586">
        <ele>317.03</ele>
        <time>2026-08-12T09:25:00.539Z</time>
      </trkpt>
      <trkpt lat="49.43574" lon="6.53622">
        <ele>317.36</ele>
        <time>2026-08-12T09:25:06.535Z</time>
      </trkpt>
      <trkpt lat="49.43574" lon="6.5366">
        <ele>317.81</ele>
        <time>2026-08-12T09:25:12.535Z</time>
      </trkpt>
      <trkpt lat="49.43573" lon="6.53695">
        <ele>318.19</ele>
        <time>2026-08-12T09:25:18.532Z</time>
      </trkpt>
      <trkpt lat="49.43573" lon="6.53731">
        <ele>317.44</ele>
        <time>2026-08-12T09:25:24.534Z</time>
      </trkpt>
      <trkpt lat="49.43573" lon="6.53767">
        <ele>316.16</ele>
        <time>2026-08-12T09:25:30.533Z</time>
      </trkpt>
      <trkpt lat="49.43573" lon="6.53799">
        <ele>316.36</ele>
        <time>2026-08-12T09:25:36.537Z</time>
      </trkpt>
      <trkpt lat="49.43573" lon="6.5383">
        <ele>317.39</ele>
        <time>2026-08-12T09:25:42.533Z</time>
      </trkpt>
      <trkpt lat="49.43573" lon="6.53862">
        <ele>317.97</ele>
        <time>2026-08-12T09:25:48.536Z</time>
      </trkpt>
      <trkpt lat="49.43574" lon="6.53898">
        <ele>317.8</ele>
        <time>2026-08-12T09:25:54.530Z</time>
      </trkpt>
      <trkpt lat="49.43573" lon="6.53934">
        <ele>318.17</ele>
        <time>2026-08-12T09:26:00.535Z</time>
      </trkpt>
      <trkpt lat="49.43573" lon="6.53972">
        <ele>318.25</ele>
        <time>2026-08-12T09:26:06.536Z</time>
      </trkpt>
      <trkpt lat="49.43575" lon="6.54009">
        <ele>319.39</ele>
        <time>2026-08-12T09:26:12.535Z</time>
      </trkpt>
      <trkpt lat="49.43576" lon="6.54047">
        <ele>318.94</ele>
        <time>2026-08-12T09:26:18.532Z</time>
      </trkpt>
      <trkpt lat="49.43578" lon="6.54084">
        <ele>319.22</ele>
        <time>2026-08-12T09:26:24.533Z</time>
      </trkpt>
      <trkpt lat="49.43574" lon="6.54119">
        <ele>318.98</ele>
        <time>2026-08-12T09:26:30.535Z</time>
      </trkpt>
      <trkpt lat="49.43558" lon="6.54143">
        <ele>318.66</ele>
        <time>2026-08-12T09:26:36.538Z</time>
      </trkpt>
      <trkpt lat="49.43542" lon="6.54162">
        <ele>318.8</ele>
        <time>2026-08-12T09:26:42.531Z</time>
      </trkpt>
      <trkpt lat="49.43525" lon="6.54183">
        <ele>319.19</ele>
        <time>2026-08-12T09:26:48.533Z</time>
      </trkpt>
      <trkpt lat="49.43509" lon="6.54203">
        <ele>320.51</ele>
        <time>2026-08-12T09:26:54.539Z</time>
      </trkpt>
      <trkpt lat="49.43493" lon="6.54223">
        <ele>320.98</ele>
        <time>2026-08-12T09:27:00.531Z</time>
      </trkpt>
      <trkpt lat="49.43479" lon="6.54241">
        <ele>321.26</ele>
        <time>2026-08-12T09:27:06.608Z</time>
      </trkpt>
      <trkpt lat="49.43464" lon="6.5426">
        <ele>322.73</ele>
        <time>2026-08-12T09:27:12.524Z</time>
      </trkpt>
      <trkpt lat="49.43453" lon="6.5427">
        <ele>324.08</ele>
        <time>2026-08-12T09:27:18.537Z</time>
      </trkpt>
      <trkpt lat="49.43441" lon="6.54282">
        <ele>322.52</ele>
        <time>2026-08-12T09:27:24.521Z</time>
      </trkpt>
      <trkpt lat="49.4343" lon="6.54297">
        <ele>323.08</ele>
        <time>2026-08-12T09:27:30.530Z</time>
      </trkpt>
      <trkpt lat="49.43419" lon="6.54311">
        <ele>323.92</ele>
        <time>2026-08-12T09:27:36.526Z</time>
      </trkpt>
      <trkpt lat="49.43407" lon="6.54325">
        <ele>324.24</ele>
        <time>2026-08-12T09:27:42.554Z</time>
      </trkpt>
      <trkpt lat="49.43394" lon="6.54339">
        <ele>325.97</ele>
        <time>2026-08-12T09:27:48.547Z</time>
      </trkpt>
      <trkpt lat="49.43385" lon="6.54353">
        <ele>326.69</ele>
        <time>2026-08-12T09:27:54.521Z</time>
      </trkpt>
      <trkpt lat="49.43386" lon="6.54368">
        <ele>329.14</ele>
        <time>2026-08-12T09:28:00.520Z</time>
      </trkpt>
      <trkpt lat="49.43391" lon="6.54384">
        <ele>331.67</ele>
        <time>2026-08-12T09:28:06.527Z</time>
      </trkpt>
      <trkpt lat="49.43398" lon="6.54406">
        <ele>334.93</ele>
        <time>2026-08-12T09:28:12.524Z</time>
      </trkpt>
      <trkpt lat="49.43405" lon="6.54434">
        <ele>337.23</ele>
        <time>2026-08-12T09:28:18.526Z</time>
      </trkpt>
      <trkpt lat="49.43409" lon="6.54461">
        <ele>336.5</ele>
        <time>2026-08-12T09:28:24.536Z</time>
      </trkpt>
      <trkpt lat="49.43414" lon="6.54495">
        <ele>338.35</ele>
        <time>2026-08-12T09:28:30.535Z</time>
      </trkpt>
      <trkpt lat="49.43418" lon="6.54524">
        <ele>340.67</ele>
        <time>2026-08-12T09:28:36.532Z</time>
      </trkpt>
      <trkpt lat="49.43426" lon="6.54549">
        <ele>343.77</ele>
        <time>2026-08-12T09:28:42.541Z</time>
      </trkpt>
      <trkpt lat="49.43431" lon="6.54577">
        <ele>345.73</ele>
        <time>2026-08-12T09:28:48.535Z</time>
      </trkpt>
      <trkpt lat="49.43438" lon="6.54603">
        <ele>346.27</ele>
        <time>2026-08-12T09:28:54.538Z</time>
      </trkpt>
      <trkpt lat="49.43445" lon="6.5463">
        <ele>346.72</ele>
        <time>2026-08-12T09:29:00.537Z</time>
      </trkpt>
      <trkpt lat="49.43451" lon="6.54658">
        <ele>346.06</ele>
        <time>2026-08-12T09:29:06.535Z</time>
      </trkpt>
      <trkpt lat="49.43458" lon="6.54688">
        <ele>345.69</ele>
        <time>2026-08-12T09:29:12.535Z</time>
      </trkpt>
      <trkpt lat="49.43466" lon="6.5472">
        <ele>345.63</ele>
        <time>2026-08-12T09:29:18.535Z</time>
      </trkpt>
      <trkpt lat="49.43474" lon="6.54753">
        <ele>346.03</ele>
        <time>2026-08-12T09:29:24.537Z</time>
      </trkpt>
      <trkpt lat="49.43484" lon="6.54791">
        <ele>344.8</ele>
        <time>2026-08-12T09:29:30.530Z</time>
      </trkpt>
      <trkpt lat="49.43495" lon="6.54821">
        <ele>343.43</ele>
        <time>2026-08-12T09:29:36.529Z</time>
      </trkpt>
      <trkpt lat="49.43502" lon="6.54849">
        <ele>343.02</ele>
        <time>2026-08-12T09:29:42.531Z</time>
      </trkpt>
      <trkpt lat="49.43509" lon="6.54876">
        <ele>341.82</ele>
        <time>2026-08-12T09:29:48.533Z</time>
      </trkpt>
      <trkpt lat="49.43517" lon="6.54901">
        <ele>341.91</ele>
        <time>2026-08-12T09:29:54.538Z</time>
      </trkpt>
      <trkpt lat="49.43527" lon="6.54932">
        <ele>341.71</ele>
        <time>2026-08-12T09:30:00.537Z</time>
      </trkpt>
      <trkpt lat="49.43539" lon="6.54959">
        <ele>339.49</ele>
        <time>2026-08-12T09:30:06.534Z</time>
      </trkpt>
      <trkpt lat="49.43549" lon="6.54986">
        <ele>336.58</ele>
        <time>2026-08-12T09:30:12.552Z</time>
      </trkpt>
      <trkpt lat="49.43559" lon="6.55014">
        <ele>336.23</ele>
        <time>2026-08-12T09:30:18.535Z</time>
      </trkpt>
      <trkpt lat="49.43569" lon="6.55043">
        <ele>336.45</ele>
        <time>2026-08-12T09:30:24.534Z</time>
      </trkpt>
      <trkpt lat="49.4358" lon="6.55072">
        <ele>337.03</ele>
        <time>2026-08-12T09:30:30.536Z</time>
      </trkpt>
      <trkpt lat="49.43591" lon="6.551">
        <ele>338</ele>
        <time>2026-08-12T09:30:36.534Z</time>
      </trkpt>
      <trkpt lat="49.43598" lon="6.55127">
        <ele>338.16</ele>
        <time>2026-08-12T09:30:42.533Z</time>
      </trkpt>
      <trkpt lat="49.43602" lon="6.55163">
        <ele>337.55</ele>
        <time>2026-08-12T09:30:48.532Z</time>
      </trkpt>
      <trkpt lat="49.43606" lon="6.552">
        <ele>336.78</ele>
        <time>2026-08-12T09:30:54.534Z</time>
      </trkpt>
      <trkpt lat="49.43609" lon="6.55237">
        <ele>336.18</ele>
        <time>2026-08-12T09:31:00.534Z</time>
      </trkpt>
      <trkpt lat="49.4361" lon="6.55273">
        <ele>336.15</ele>
        <time>2026-08-12T09:31:06.528Z</time>
      </trkpt>
      <trkpt lat="49.43615" lon="6.55313">
        <ele>337.19</ele>
        <time>2026-08-12T09:31:12.533Z</time>
      </trkpt>
      <trkpt lat="49.43618" lon="6.55362">
        <ele>337.14</ele>
        <time>2026-08-12T09:31:18.533Z</time>
      </trkpt>
      <trkpt lat="49.43607" lon="6.55405">
        <ele>331.71</ele>
        <time>2026-08-12T09:31:24.534Z</time>
      </trkpt>
      <trkpt lat="49.43598" lon="6.55451">
        <ele>326.59</ele>
        <time>2026-08-12T09:31:30.531Z</time>
      </trkpt>
      <trkpt lat="49.43594" lon="6.55498">
        <ele>324.67</ele>
        <time>2026-08-12T09:31:36.534Z</time>
      </trkpt>
      <trkpt lat="49.43588" lon="6.55542">
        <ele>323.72</ele>
        <time>2026-08-12T09:31:42.534Z</time>
      </trkpt>
      <trkpt lat="49.43584" lon="6.55579">
        <ele>322.35</ele>
        <time>2026-08-12T09:31:48.531Z</time>
      </trkpt>
      <trkpt lat="49.43587" lon="6.55623">
        <ele>321.98</ele>
        <time>2026-08-12T09:31:54.524Z</time>
      </trkpt>
      <trkpt lat="49.43591" lon="6.55662">
        <ele>321.9</ele>
        <time>2026-08-12T09:32:00.530Z</time>
      </trkpt>
      <trkpt lat="49.43596" lon="6.55702">
        <ele>323.11</ele>
        <time>2026-08-12T09:32:06.532Z</time>
      </trkpt>
      <trkpt lat="49.43599" lon="6.55745">
        <ele>321.42</ele>
        <time>2026-08-12T09:32:12.522Z</time>
      </trkpt>
      <trkpt lat="49.43602" lon="6.55785">
        <ele>320.91</ele>
        <time>2026-08-12T09:32:18.531Z</time>
      </trkpt>
      <trkpt lat="49.43604" lon="6.55828">
        <ele>322.61</ele>
        <time>2026-08-12T09:32:24.536Z</time>
      </trkpt>
      <trkpt lat="49.43606" lon="6.55866">
        <ele>323.49</ele>
        <time>2026-08-12T09:32:30.531Z</time>
      </trkpt>
      <trkpt lat="49.43609" lon="6.55906">
        <ele>325.27</ele>
        <time>2026-08-12T09:32:36.532Z</time>
      </trkpt>
      <trkpt lat="49.43614" lon="6.55948">
        <ele>326.07</ele>
        <time>2026-08-12T09:32:42.533Z</time>
      </trkpt>
      <trkpt lat="49.4362" lon="6.55988">
        <ele>326.18</ele>
        <time>2026-08-12T09:32:48.534Z</time>
      </trkpt>
      <trkpt lat="49.43623" lon="6.56035">
        <ele>327.61</ele>
        <time>2026-08-12T09:32:54.532Z</time>
      </trkpt>
      <trkpt lat="49.43628" lon="6.56081">
        <ele>325.65</ele>
        <time>2026-08-12T09:33:00.532Z</time>
      </trkpt>
      <trkpt lat="49.43603" lon="6.56134">
        <ele>319.42</ele>
        <time>2026-08-12T09:33:06.534Z</time>
      </trkpt>
      <trkpt lat="49.43567" lon="6.56177">
        <ele>313.06</ele>
        <time>2026-08-12T09:33:12.533Z</time>
      </trkpt>
      <trkpt lat="49.43531" lon="6.56219">
        <ele>305.92</ele>
        <time>2026-08-12T09:33:18.531Z</time>
      </trkpt>
      <trkpt lat="49.43507" lon="6.56248">
        <ele>296.36</ele>
        <time>2026-08-12T09:33:24.525Z</time>
      </trkpt>
      <trkpt lat="49.43489" lon="6.56255">
        <ele>294.41</ele>
        <time>2026-08-12T09:33:30.531Z</time>
      </trkpt>
      <trkpt lat="49.43476" lon="6.56235">
        <ele>297.3</ele>
        <time>2026-08-12T09:33:36.535Z</time>
      </trkpt>
      <trkpt lat="49.43466" lon="6.56237">
        <ele>299.78</ele>
        <time>2026-08-12T09:34:05.457Z</time>
      </trkpt>
      <trkpt lat="49.43447" lon="6.56239">
        <ele>302.8</ele>
        <time>2026-08-12T09:34:11.473Z</time>
      </trkpt>
      <trkpt lat="49.43416" lon="6.56244">
        <ele>308.11</ele>
        <time>2026-08-12T09:34:17.465Z</time>
      </trkpt>
      <trkpt lat="49.43397" lon="6.56257">
        <ele>309.81</ele>
        <time>2026-08-12T09:34:22.467Z</time>
      </trkpt>
      <trkpt lat="49.43379" lon="6.56279">
        <ele>308.3</ele>
        <time>2026-08-12T09:34:27.467Z</time>
      </trkpt>
      <trkpt lat="49.43358" lon="6.56306">
        <ele>305.32</ele>
        <time>2026-08-12T09:34:33.140Z</time>
      </trkpt>
      <trkpt lat="49.4334" lon="6.56329">
        <ele>302.7</ele>
        <time>2026-08-12T09:34:38.463Z</time>
      </trkpt>
      <trkpt lat="49.4332" lon="6.56351">
        <ele>300.92</ele>
        <time>2026-08-12T09:34:43.469Z</time>
      </trkpt>
      <trkpt lat="49.43297" lon="6.56378">
        <ele>299.63</ele>
        <time>2026-08-12T09:34:48.538Z</time>
      </trkpt>
      <trkpt lat="49.43272" lon="6.56407">
        <ele>295.48</ele>
        <time>2026-08-12T09:34:54.538Z</time>
      </trkpt>
      <trkpt lat="49.43251" lon="6.56429">
        <ele>290.89</ele>
        <time>2026-08-12T09:35:00.532Z</time>
      </trkpt>
      <trkpt lat="49.43226" lon="6.56449">
        <ele>287.44</ele>
        <time>2026-08-12T09:35:06.538Z</time>
      </trkpt>
      <trkpt lat="49.43196" lon="6.56477">
        <ele>289.7</ele>
        <time>2026-08-12T09:35:12.534Z</time>
      </trkpt>
      <trkpt lat="49.43159" lon="6.56495">
        <ele>292.46</ele>
        <time>2026-08-12T09:35:18.533Z</time>
      </trkpt>
      <trkpt lat="49.43126" lon="6.56507">
        <ele>295.99</ele>
        <time>2026-08-12T09:35:24.536Z</time>
      </trkpt>
      <trkpt lat="49.43085" lon="6.56526">
        <ele>293.5</ele>
        <time>2026-08-12T09:35:30.534Z</time>
      </trkpt>
      <trkpt lat="49.4305" lon="6.56544">
        <ele>295.09</ele>
        <time>2026-08-12T09:35:36.526Z</time>
      </trkpt>
      <trkpt lat="49.43026" lon="6.56562">
        <ele>296.99</ele>
        <time>2026-08-12T09:35:42.521Z</time>
      </trkpt>
      <trkpt lat="49.43008" lon="6.56569">
        <ele>296.6</ele>
        <time>2026-08-12T09:35:48.521Z</time>
      </trkpt>
      <trkpt lat="49.42985" lon="6.56575">
        <ele>296.57</ele>
        <time>2026-08-12T09:35:54.510Z</time>
      </trkpt>
      <trkpt lat="49.42963" lon="6.56581">
        <ele>296.38</ele>
        <time>2026-08-12T09:36:00.519Z</time>
      </trkpt>
      <trkpt lat="49.42938" lon="6.56589">
        <ele>296.41</ele>
        <time>2026-08-12T09:36:06.523Z</time>
      </trkpt>
      <trkpt lat="49.42913" lon="6.56599">
        <ele>295.72</ele>
        <time>2026-08-12T09:36:12.523Z</time>
      </trkpt>
      <trkpt lat="49.42888" lon="6.56613">
        <ele>294.25</ele>
        <time>2026-08-12T09:36:18.529Z</time>
      </trkpt>
      <trkpt lat="49.4286" lon="6.56634">
        <ele>291.87</ele>
        <time>2026-08-12T09:36:24.526Z</time>
      </trkpt>
      <trkpt lat="49.42821" lon="6.56665">
        <ele>287.2</ele>
        <time>2026-08-12T09:36:30.527Z</time>
      </trkpt>
      <trkpt lat="49.42772" lon="6.56693">
        <ele>281.32</ele>
        <time>2026-08-12T09:36:36.524Z</time>
      </trkpt>
      <trkpt lat="49.42719" lon="6.56707">
        <ele>275.66</ele>
        <time>2026-08-12T09:36:42.522Z</time>
      </trkpt>
      <trkpt lat="49.42658" lon="6.5672">
        <ele>269.6</ele>
        <time>2026-08-12T09:36:48.520Z</time>
      </trkpt>
      <trkpt lat="49.42607" lon="6.56726">
        <ele>264.21</ele>
        <time>2026-08-12T09:36:54.532Z</time>
      </trkpt>
      <trkpt lat="49.42575" lon="6.56699">
        <ele>261.4</ele>
        <time>2026-08-12T09:37:00.520Z</time>
      </trkpt>
      <trkpt lat="49.42547" lon="6.56671">
        <ele>258.35</ele>
        <time>2026-08-12T09:37:06.520Z</time>
      </trkpt>
      <trkpt lat="49.42518" lon="6.56669">
        <ele>254.54</ele>
        <time>2026-08-12T09:37:12.524Z</time>
      </trkpt>
      <trkpt lat="49.4249" lon="6.56709">
        <ele>252.73</ele>
        <time>2026-08-12T09:37:18.524Z</time>
      </trkpt>
      <trkpt lat="49.4246" lon="6.56758">
        <ele>251.51</ele>
        <time>2026-08-12T09:37:24.522Z</time>
      </trkpt>
      <trkpt lat="49.42438" lon="6.56832">
        <ele>248.13</ele>
        <time>2026-08-12T09:37:30.524Z</time>
      </trkpt>
      <trkpt lat="49.4241" lon="6.56908">
        <ele>243.05</ele>
        <time>2026-08-12T09:37:36.520Z</time>
      </trkpt>
      <trkpt lat="49.42396" lon="6.56993">
        <ele>239.16</ele>
        <time>2026-08-12T09:37:42.520Z</time>
      </trkpt>
      <trkpt lat="49.42383" lon="6.57059">
        <ele>235.61</ele>
        <time>2026-08-12T09:37:48.530Z</time>
      </trkpt>
      <trkpt lat="49.4236" lon="6.57102">
        <ele>235.3</ele>
        <time>2026-08-12T09:37:54.524Z</time>
      </trkpt>
      <trkpt lat="49.42341" lon="6.57131">
        <ele>233.71</ele>
        <time>2026-08-12T09:38:00.529Z</time>
      </trkpt>
      <trkpt lat="49.42317" lon="6.57169">
        <ele>230.62</ele>
        <time>2026-08-12T09:38:06.529Z</time>
      </trkpt>
      <trkpt lat="49.42297" lon="6.57221">
        <ele>229.85</ele>
        <time>2026-08-12T09:38:12.523Z</time>
      </trkpt>
      <trkpt lat="49.42284" lon="6.57281">
        <ele>229.95</ele>
        <time>2026-08-12T09:38:18.522Z</time>
      </trkpt>
      <trkpt lat="49.42273" lon="6.57341">
        <ele>227.68</ele>
        <time>2026-08-12T09:38:24.522Z</time>
      </trkpt>
      <trkpt lat="49.42267" lon="6.57385">
        <ele>228.62</ele>
        <time>2026-08-12T09:38:30.529Z</time>
      </trkpt>
      <trkpt lat="49.42258" lon="6.57413">
        <ele>228.15</ele>
        <time>2026-08-12T09:38:36.522Z</time>
      </trkpt>
      <trkpt lat="49.42237" lon="6.57433">
        <ele>229.24</ele>
        <time>2026-08-12T09:38:42.528Z</time>
      </trkpt>
      <trkpt lat="49.42218" lon="6.57461">
        <ele>228.03</ele>
        <time>2026-08-12T09:38:48.521Z</time>
      </trkpt>
      <trkpt lat="49.42211" lon="6.57506">
        <ele>226.49</ele>
        <time>2026-08-12T09:38:54.529Z</time>
      </trkpt>
      <trkpt lat="49.422" lon="6.5755">
        <ele>225.01</ele>
        <time>2026-08-12T09:39:00.523Z</time>
      </trkpt>
      <trkpt lat="49.42187" lon="6.57598">
        <ele>224.88</ele>
        <time>2026-08-12T09:39:06.522Z</time>
      </trkpt>
      <trkpt lat="49.42175" lon="6.57648">
        <ele>224.8</ele>
        <time>2026-08-12T09:39:12.522Z</time>
      </trkpt>
      <trkpt lat="49.42162" lon="6.57696">
        <ele>225.54</ele>
        <time>2026-08-12T09:39:18.535Z</time>
      </trkpt>
      <trkpt lat="49.4215" lon="6.57747">
        <ele>227.01</ele>
        <time>2026-08-12T09:39:24.524Z</time>
      </trkpt>
      <trkpt lat="49.42137" lon="6.57797">
        <ele>225.94</ele>
        <time>2026-08-12T09:39:30.526Z</time>
      </trkpt>
      <trkpt lat="49.42122" lon="6.57851">
        <ele>224.49</ele>
        <time>2026-08-12T09:39:36.524Z</time>
      </trkpt>
      <trkpt lat="49.42105" lon="6.57909">
        <ele>222.57</ele>
        <time>2026-08-12T09:39:42.523Z</time>
      </trkpt>
      <trkpt lat="49.42089" lon="6.57966">
        <ele>219.63</ele>
        <time>2026-08-12T09:39:48.525Z</time>
      </trkpt>
      <trkpt lat="49.42076" lon="6.58023">
        <ele>217.77</ele>
        <time>2026-08-12T09:39:54.525Z</time>
      </trkpt>
      <trkpt lat="49.42063" lon="6.5808">
        <ele>216.08</ele>
        <time>2026-08-12T09:40:00.520Z</time>
      </trkpt>
      <trkpt lat="49.42047" lon="6.58136">
        <ele>213.69</ele>
        <time>2026-08-12T09:40:06.523Z</time>
      </trkpt>
      <trkpt lat="49.42031" lon="6.58193">
        <ele>212.21</ele>
        <time>2026-08-12T09:40:12.521Z</time>
      </trkpt>
      <trkpt lat="49.42014" lon="6.58251">
        <ele>212.23</ele>
        <time>2026-08-12T09:40:18.524Z</time>
      </trkpt>
      <trkpt lat="49.41996" lon="6.58314">
        <ele>211.98</ele>
        <time>2026-08-12T09:40:24.524Z</time>
      </trkpt>
      <trkpt lat="49.41979" lon="6.58375">
        <ele>209.68</ele>
        <time>2026-08-12T09:40:30.518Z</time>
      </trkpt>
      <trkpt lat="49.41961" lon="6.5844">
        <ele>207.52</ele>
        <time>2026-08-12T09:40:36.517Z</time>
      </trkpt>
      <trkpt lat="49.41943" lon="6.58505">
        <ele>205.72</ele>
        <time>2026-08-12T09:40:42.525Z</time>
      </trkpt>
      <trkpt lat="49.41926" lon="6.58566">
        <ele>205.38</ele>
        <time>2026-08-12T09:40:48.519Z</time>
      </trkpt>
      <trkpt lat="49.41908" lon="6.58626">
        <ele>204.22</ele>
        <time>2026-08-12T09:40:54.536Z</time>
      </trkpt>
      <trkpt lat="49.41887" lon="6.58679">
        <ele>202.64</ele>
        <time>2026-08-12T09:41:00.524Z</time>
      </trkpt>
      <trkpt lat="49.41872" lon="6.58731">
        <ele>201.24</ele>
        <time>2026-08-12T09:41:06.524Z</time>
      </trkpt>
      <trkpt lat="49.41854" lon="6.58786">
        <ele>198.53</ele>
        <time>2026-08-12T09:41:12.524Z</time>
      </trkpt>
      <trkpt lat="49.41833" lon="6.58842">
        <ele>196.07</ele>
        <time>2026-08-12T09:41:18.520Z</time>
      </trkpt>
      <trkpt lat="49.41807" lon="6.58898">
        <ele>193.96</ele>
        <time>2026-08-12T09:41:24.523Z</time>
      </trkpt>
      <trkpt lat="49.41779" lon="6.58957">
        <ele>191.59</ele>
        <time>2026-08-12T09:41:30.521Z</time>
      </trkpt>
      <trkpt lat="49.4175" lon="6.59019">
        <ele>189.42</ele>
        <time>2026-08-12T09:41:36.523Z</time>
      </trkpt>
      <trkpt lat="49.41722" lon="6.59079">
        <ele>186.75</ele>
        <time>2026-08-12T09:41:42.540Z</time>
      </trkpt>
      <trkpt lat="49.41702" lon="6.59145">
        <ele>185.15</ele>
        <time>2026-08-12T09:41:48.523Z</time>
      </trkpt>
      <trkpt lat="49.41695" lon="6.59218">
        <ele>184.18</ele>
        <time>2026-08-12T09:41:54.529Z</time>
      </trkpt>
      <trkpt lat="49.41685" lon="6.59279">
        <ele>184.03</ele>
        <time>2026-08-12T09:42:00.522Z</time>
      </trkpt>
      <trkpt lat="49.41673" lon="6.59332">
        <ele>185.78</ele>
        <time>2026-08-12T09:42:06.525Z</time>
      </trkpt>
      <trkpt lat="49.41664" lon="6.59382">
        <ele>186.25</ele>
        <time>2026-08-12T09:42:12.525Z</time>
      </trkpt>
      <trkpt lat="49.41654" lon="6.59434">
        <ele>184.47</ele>
        <time>2026-08-12T09:42:18.524Z</time>
      </trkpt>
      <trkpt lat="49.41648" lon="6.59501">
        <ele>185.1</ele>
        <time>2026-08-12T09:42:24.525Z</time>
      </trkpt>
      <trkpt lat="49.41642" lon="6.59572">
        <ele>181.36</ele>
        <time>2026-08-12T09:42:30.525Z</time>
      </trkpt>
      <trkpt lat="49.41637" lon="6.59632">
        <ele>181.01</ele>
        <time>2026-08-12T09:42:36.539Z</time>
      </trkpt>
      <trkpt lat="49.41635" lon="6.59681">
        <ele>182.05</ele>
        <time>2026-08-12T09:42:42.530Z</time>
      </trkpt>
      <trkpt lat="49.41635" lon="6.59728">
        <ele>182.4</ele>
        <time>2026-08-12T09:42:48.524Z</time>
      </trkpt>
      <trkpt lat="49.41637" lon="6.59782">
        <ele>181.78</ele>
        <time>2026-08-12T09:42:54.520Z</time>
      </trkpt>
      <trkpt lat="49.41642" lon="6.59849">
        <ele>179.61</ele>
        <time>2026-08-12T09:43:00.526Z</time>
      </trkpt>
      <trkpt lat="49.41645" lon="6.5991">
        <ele>177.96</ele>
        <time>2026-08-12T09:43:06.524Z</time>
      </trkpt>
      <trkpt lat="49.41649" lon="6.59951">
        <ele>178.85</ele>
        <time>2026-08-12T09:43:12.523Z</time>
      </trkpt>
      <trkpt lat="49.41652" lon="6.59995">
        <ele>177.57</ele>
        <time>2026-08-12T09:43:18.520Z</time>
      </trkpt>
      <trkpt lat="49.41658" lon="6.60041">
        <ele>177.82</ele>
        <time>2026-08-12T09:43:24.519Z</time>
      </trkpt>
      <trkpt lat="49.41668" lon="6.60092">
        <ele>178.09</ele>
        <time>2026-08-12T09:43:30.525Z</time>
      </trkpt>
      <trkpt lat="49.4168" lon="6.6015">
        <ele>177.13</ele>
        <time>2026-08-12T09:43:36.532Z</time>
      </trkpt>
      <trkpt lat="49.41693" lon="6.60211">
        <ele>174.22</ele>
        <time>2026-08-12T09:43:42.528Z</time>
      </trkpt>
      <trkpt lat="49.41708" lon="6.60273">
        <ele>172.1</ele>
        <time>2026-08-12T09:43:48.527Z</time>
      </trkpt>
      <trkpt lat="49.41726" lon="6.60336">
        <ele>169.64</ele>
        <time>2026-08-12T09:43:54.524Z</time>
      </trkpt>
      <trkpt lat="49.41747" lon="6.60401">
        <ele>167.63</ele>
        <time>2026-08-12T09:44:00.525Z</time>
      </trkpt>
      <trkpt lat="49.41768" lon="6.60461">
        <ele>166.54</ele>
        <time>2026-08-12T09:44:06.524Z</time>
      </trkpt>
      <trkpt lat="49.41791" lon="6.60518">
        <ele>166.24</ele>
        <time>2026-08-12T09:44:12.526Z</time>
      </trkpt>
      <trkpt lat="49.41816" lon="6.60572">
        <ele>166.03</ele>
        <time>2026-08-12T09:44:18.516Z</time>
      </trkpt>
      <trkpt lat="49.41844" lon="6.60623">
        <ele>164.29</ele>
        <time>2026-08-12T09:44:24.517Z</time>
      </trkpt>
      <trkpt lat="49.41873" lon="6.60675">
        <ele>162.28</ele>
        <time>2026-08-12T09:44:30.516Z</time>
      </trkpt>
      <trkpt lat="49.419" lon="6.60729">
        <ele>160.53</ele>
        <time>2026-08-12T09:44:36.522Z</time>
      </trkpt>
      <trkpt lat="49.41932" lon="6.60781">
        <ele>160.21</ele>
        <time>2026-08-12T09:44:42.529Z</time>
      </trkpt>
      <trkpt lat="49.41965" lon="6.60832">
        <ele>159.19</ele>
        <time>2026-08-12T09:44:48.528Z</time>
      </trkpt>
      <trkpt lat="49.41996" lon="6.60881">
        <ele>158.53</ele>
        <time>2026-08-12T09:44:54.521Z</time>
      </trkpt>
      <trkpt lat="49.42025" lon="6.60928">
        <ele>158.42</ele>
        <time>2026-08-12T09:45:00.524Z</time>
      </trkpt>
      <trkpt lat="49.42058" lon="6.60978">
        <ele>157.68</ele>
        <time>2026-08-12T09:45:06.514Z</time>
      </trkpt>
      <trkpt lat="49.4209" lon="6.61027">
        <ele>158.74</ele>
        <time>2026-08-12T09:45:12.522Z</time>
      </trkpt>
      <trkpt lat="49.4212" lon="6.61085">
        <ele>158.54</ele>
        <time>2026-08-12T09:45:18.526Z</time>
      </trkpt>
      <trkpt lat="49.42142" lon="6.61152">
        <ele>155</ele>
        <time>2026-08-12T09:45:24.527Z</time>
      </trkpt>
      <trkpt lat="49.42158" lon="6.61226">
        <ele>152.73</ele>
        <time>2026-08-12T09:45:30.525Z</time>
      </trkpt>
      <trkpt lat="49.42176" lon="6.61299">
        <ele>151.02</ele>
        <time>2026-08-12T09:45:36.515Z</time>
      </trkpt>
      <trkpt lat="49.42197" lon="6.61372">
        <ele>150.86</ele>
        <time>2026-08-12T09:45:42.526Z</time>
      </trkpt>
      <trkpt lat="49.42223" lon="6.61448">
        <ele>150.11</ele>
        <time>2026-08-12T09:45:48.528Z</time>
      </trkpt>
      <trkpt lat="49.42256" lon="6.6152">
        <ele>148</ele>
        <time>2026-08-12T09:45:54.525Z</time>
      </trkpt>
      <trkpt lat="49.42293" lon="6.61586">
        <ele>146.23</ele>
        <time>2026-08-12T09:46:00.524Z</time>
      </trkpt>
      <trkpt lat="49.42332" lon="6.61645">
        <ele>144.08</ele>
        <time>2026-08-12T09:46:06.536Z</time>
      </trkpt>
      <trkpt lat="49.42369" lon="6.61706">
        <ele>141.83</ele>
        <time>2026-08-12T09:46:12.522Z</time>
      </trkpt>
      <trkpt lat="49.42408" lon="6.61769">
        <ele>138.34</ele>
        <time>2026-08-12T09:46:18.520Z</time>
      </trkpt>
      <trkpt lat="49.42442" lon="6.61825">
        <ele>136.51</ele>
        <time>2026-08-12T09:46:24.522Z</time>
      </trkpt>
      <trkpt lat="49.42469" lon="6.61882">
        <ele>134.82</ele>
        <time>2026-08-12T09:46:30.522Z</time>
      </trkpt>
      <trkpt lat="49.42485" lon="6.61943">
        <ele>133.03</ele>
        <time>2026-08-12T09:46:36.523Z</time>
      </trkpt>
      <trkpt lat="49.42494" lon="6.62005">
        <ele>131.8</ele>
        <time>2026-08-12T09:46:42.522Z</time>
      </trkpt>
      <trkpt lat="49.42506" lon="6.62067">
        <ele>132.55</ele>
        <time>2026-08-12T09:46:48.517Z</time>
      </trkpt>
      <trkpt lat="49.42517" lon="6.6213">
        <ele>131.96</ele>
        <time>2026-08-12T09:46:54.525Z</time>
      </trkpt>
      <trkpt lat="49.42528" lon="6.6219">
        <ele>131</ele>
        <time>2026-08-12T09:47:00.522Z</time>
      </trkpt>
      <trkpt lat="49.42544" lon="6.62254">
        <ele>131.17</ele>
        <time>2026-08-12T09:47:06.525Z</time>
      </trkpt>
      <trkpt lat="49.42562" lon="6.62313">
        <ele>127.35</ele>
        <time>2026-08-12T09:47:12.519Z</time>
      </trkpt>
      <trkpt lat="49.4258" lon="6.62371">
        <ele>125.95</ele>
        <time>2026-08-12T09:47:18.527Z</time>
      </trkpt>
      <trkpt lat="49.426" lon="6.62428">
        <ele>125.55</ele>
        <time>2026-08-12T09:47:24.522Z</time>
      </trkpt>
      <trkpt lat="49.42618" lon="6.62488">
        <ele>124.89</ele>
        <time>2026-08-12T09:47:30.521Z</time>
      </trkpt>
      <trkpt lat="49.42636" lon="6.62543">
        <ele>124.76</ele>
        <time>2026-08-12T09:47:36.528Z</time>
      </trkpt>
      <trkpt lat="49.42652" lon="6.62595">
        <ele>124.95</ele>
        <time>2026-08-12T09:47:42.523Z</time>
      </trkpt>
      <trkpt lat="49.42668" lon="6.62647">
        <ele>124.05</ele>
        <time>2026-08-12T09:47:48.521Z</time>
      </trkpt>
      <trkpt lat="49.42686" lon="6.62699">
        <ele>125.07</ele>
        <time>2026-08-12T09:47:54.527Z</time>
      </trkpt>
      <trkpt lat="49.42703" lon="6.62749">
        <ele>125.73</ele>
        <time>2026-08-12T09:48:00.524Z</time>
      </trkpt>
      <trkpt lat="49.42718" lon="6.62794">
        <ele>127.76</ele>
        <time>2026-08-12T09:48:06.522Z</time>
      </trkpt>
      <trkpt lat="49.42733" lon="6.62839">
        <ele>127.92</ele>
        <time>2026-08-12T09:48:12.524Z</time>
      </trkpt>
      <trkpt lat="49.42743" lon="6.62881">
        <ele>125.94</ele>
        <time>2026-08-12T09:48:18.534Z</time>
      </trkpt>
      <trkpt lat="49.42732" lon="6.62902">
        <ele>126.8</ele>
        <time>2026-08-12T09:48:24.531Z</time>
      </trkpt>
      <trkpt lat="49.42716" lon="6.62923">
        <ele>125.54</ele>
        <time>2026-08-12T09:48:30.520Z</time>
      </trkpt>
      <trkpt lat="49.42723" lon="6.62957">
        <ele>123.52</ele>
        <time>2026-08-12T09:48:36.527Z</time>
      </trkpt>
      <trkpt lat="49.42733" lon="6.63004">
        <ele>118.97</ele>
        <time>2026-08-12T09:48:42.523Z</time>
      </trkpt>
      <trkpt lat="49.42747" lon="6.63055">
        <ele>114.37</ele>
        <time>2026-08-12T09:48:48.535Z</time>
      </trkpt>
      <trkpt lat="49.42744" lon="6.631">
        <ele>114.26</ele>
        <time>2026-08-12T09:48:54.526Z</time>
      </trkpt>
      <trkpt lat="49.42726" lon="6.63124">
        <ele>116.47</ele>
        <time>2026-08-12T09:49:00.524Z</time>
      </trkpt>
      <trkpt lat="49.4269" lon="6.63132">
        <ele>115.97</ele>
        <time>2026-08-12T09:49:06.518Z</time>
      </trkpt>
      <trkpt lat="49.42655" lon="6.63143">
        <ele>114.58</ele>
        <time>2026-08-12T09:49:12.533Z</time>
      </trkpt>
      <trkpt lat="49.42621" lon="6.63152">
        <ele>114.58</ele>
        <time>2026-08-12T09:49:18.522Z</time>
      </trkpt>
      <trkpt lat="49.42588" lon="6.63167">
        <ele>116.9</ele>
        <time>2026-08-12T09:49:24.527Z</time>
      </trkpt>
      <trkpt lat="49.42556" lon="6.63183">
        <ele>119.38</ele>
        <time>2026-08-12T09:49:30.532Z</time>
      </trkpt>
      <trkpt lat="49.42523" lon="6.63199">
        <ele>117.78</ele>
        <time>2026-08-12T09:49:36.532Z</time>
      </trkpt>
      <trkpt lat="49.42492" lon="6.63215">
        <ele>120.03</ele>
        <time>2026-08-12T09:49:42.531Z</time>
      </trkpt>
      <trkpt lat="49.42461" lon="6.6323">
        <ele>121.38</ele>
        <time>2026-08-12T09:49:48.530Z</time>
      </trkpt>
      <trkpt lat="49.4243" lon="6.63246">
        <ele>120.99</ele>
        <time>2026-08-12T09:49:54.531Z</time>
      </trkpt>
      <trkpt lat="49.42397" lon="6.63263">
        <ele>120.3</ele>
        <time>2026-08-12T09:50:00.531Z</time>
      </trkpt>
      <trkpt lat="49.42366" lon="6.63278">
        <ele>119.15</ele>
        <time>2026-08-12T09:50:06.535Z</time>
      </trkpt>
      <trkpt lat="49.42334" lon="6.63296">
        <ele>117.73</ele>
        <time>2026-08-12T09:50:12.534Z</time>
      </trkpt>
      <trkpt lat="49.42303" lon="6.63313">
        <ele>117.03</ele>
        <time>2026-08-12T09:50:18.533Z</time>
      </trkpt>
      <trkpt lat="49.42271" lon="6.63331">
        <ele>116.37</ele>
        <time>2026-08-12T09:50:24.532Z</time>
      </trkpt>
      <trkpt lat="49.4224" lon="6.6335">
        <ele>116.83</ele>
        <time>2026-08-12T09:50:30.531Z</time>
      </trkpt>
      <trkpt lat="49.4221" lon="6.63371">
        <ele>117.76</ele>
        <time>2026-08-12T09:50:36.534Z</time>
      </trkpt>
      <trkpt lat="49.42181" lon="6.63391">
        <ele>117.15</ele>
        <time>2026-08-12T09:50:42.532Z</time>
      </trkpt>
      <trkpt lat="49.42151" lon="6.63409">
        <ele>117.03</ele>
        <time>2026-08-12T09:50:48.533Z</time>
      </trkpt>
      <trkpt lat="49.42119" lon="6.63432">
        <ele>116.94</ele>
        <time>2026-08-12T09:50:54.532Z</time>
      </trkpt>
      <trkpt lat="49.42088" lon="6.63455">
        <ele>116.74</ele>
        <time>2026-08-12T09:51:00.530Z</time>
      </trkpt>
      <trkpt lat="49.42058" lon="6.63478">
        <ele>116.88</ele>
        <time>2026-08-12T09:51:06.532Z</time>
      </trkpt>
      <trkpt lat="49.42029" lon="6.635">
        <ele>117.77</ele>
        <time>2026-08-12T09:51:12.522Z</time>
      </trkpt>
      <trkpt lat="49.42001" lon="6.63523">
        <ele>118.98</ele>
        <time>2026-08-12T09:51:18.533Z</time>
      </trkpt>
      <trkpt lat="49.41973" lon="6.63542">
        <ele>119.4</ele>
        <time>2026-08-12T09:51:24.532Z</time>
      </trkpt>
      <trkpt lat="49.41945" lon="6.63563">
        <ele>119.83</ele>
        <time>2026-08-12T09:51:30.535Z</time>
      </trkpt>
      <trkpt lat="49.41914" lon="6.63586">
        <ele>119.57</ele>
        <time>2026-08-12T09:51:36.528Z</time>
      </trkpt>
      <trkpt lat="49.41883" lon="6.63609">
        <ele>119.29</ele>
        <time>2026-08-12T09:51:42.532Z</time>
      </trkpt>
      <trkpt lat="49.41851" lon="6.63635">
        <ele>119.83</ele>
        <time>2026-08-12T09:51:48.529Z</time>
      </trkpt>
      <trkpt lat="49.4182" lon="6.63657">
        <ele>121.45</ele>
        <time>2026-08-12T09:51:54.534Z</time>
      </trkpt>
      <trkpt lat="49.4179" lon="6.63677">
        <ele>121.49</ele>
        <time>2026-08-12T09:52:00.532Z</time>
      </trkpt>
      <trkpt lat="49.41759" lon="6.63698">
        <ele>121.09</ele>
        <time>2026-08-12T09:52:06.533Z</time>
      </trkpt>
      <trkpt lat="49.41729" lon="6.63719">
        <ele>121.38</ele>
        <time>2026-08-12T09:52:12.531Z</time>
      </trkpt>
      <trkpt lat="49.41697" lon="6.63742">
        <ele>121.67</ele>
        <time>2026-08-12T09:52:18.532Z</time>
      </trkpt>
      <trkpt lat="49.41666" lon="6.63764">
        <ele>122.53</ele>
        <time>2026-08-12T09:52:24.532Z</time>
      </trkpt>
      <trkpt lat="49.41634" lon="6.63789">
        <ele>120.94</ele>
        <time>2026-08-12T09:52:30.535Z</time>
      </trkpt>
      <trkpt lat="49.41601" lon="6.63812">
        <ele>120.59</ele>
        <time>2026-08-12T09:52:36.534Z</time>
      </trkpt>
      <trkpt lat="49.41568" lon="6.63836">
        <ele>119.92</ele>
        <time>2026-08-12T09:52:42.532Z</time>
      </trkpt>
      <trkpt lat="49.41536" lon="6.63862">
        <ele>120.84</ele>
        <time>2026-08-12T09:52:48.534Z</time>
      </trkpt>
      <trkpt lat="49.41505" lon="6.63885">
        <ele>121.48</ele>
        <time>2026-08-12T09:52:54.532Z</time>
      </trkpt>
      <trkpt lat="49.41475" lon="6.63905">
        <ele>122.6</ele>
        <time>2026-08-12T09:53:00.533Z</time>
      </trkpt>
      <trkpt lat="49.41443" lon="6.63929">
        <ele>121.65</ele>
        <time>2026-08-12T09:53:06.536Z</time>
      </trkpt>
      <trkpt lat="49.41412" lon="6.63955">
        <ele>122.53</ele>
        <time>2026-08-12T09:53:12.532Z</time>
      </trkpt>
      <trkpt lat="49.41383" lon="6.63976">
        <ele>122.72</ele>
        <time>2026-08-12T09:53:18.534Z</time>
      </trkpt>
      <trkpt lat="49.41353" lon="6.63998">
        <ele>121.77</ele>
        <time>2026-08-12T09:53:24.533Z</time>
      </trkpt>
      <trkpt lat="49.41323" lon="6.64022">
        <ele>123.07</ele>
        <time>2026-08-12T09:53:30.534Z</time>
      </trkpt>
      <trkpt lat="49.41294" lon="6.64042">
        <ele>120.3</ele>
        <time>2026-08-12T09:53:36.534Z</time>
      </trkpt>
      <trkpt lat="49.41264" lon="6.64072">
        <ele>119.94</ele>
        <time>2026-08-12T09:53:42.532Z</time>
      </trkpt>
      <trkpt lat="49.41235" lon="6.64099">
        <ele>121.39</ele>
        <time>2026-08-12T09:53:48.534Z</time>
      </trkpt>
      <trkpt lat="49.41207" lon="6.64131">
        <ele>120.95</ele>
        <time>2026-08-12T09:53:54.533Z</time>
      </trkpt>
      <trkpt lat="49.41179" lon="6.64163">
        <ele>120.58</ele>
        <time>2026-08-12T09:54:00.534Z</time>
      </trkpt>
      <trkpt lat="49.41151" lon="6.64197">
        <ele>121.04</ele>
        <time>2026-08-12T09:54:06.530Z</time>
      </trkpt>
      <trkpt lat="49.41126" lon="6.6423">
        <ele>121.09</ele>
        <time>2026-08-12T09:54:12.530Z</time>
      </trkpt>
      <trkpt lat="49.411" lon="6.64265">
        <ele>119.64</ele>
        <time>2026-08-12T09:54:18.535Z</time>
      </trkpt>
      <trkpt lat="49.41075" lon="6.643">
        <ele>119.95</ele>
        <time>2026-08-12T09:54:24.532Z</time>
      </trkpt>
      <trkpt lat="49.4105" lon="6.64339">
        <ele>119.53</ele>
        <time>2026-08-12T09:54:30.532Z</time>
      </trkpt>
      <trkpt lat="49.41026" lon="6.6438">
        <ele>119.09</ele>
        <time>2026-08-12T09:54:36.535Z</time>
      </trkpt>
      <trkpt lat="49.41004" lon="6.64416">
        <ele>118.11</ele>
        <time>2026-08-12T09:54:42.533Z</time>
      </trkpt>
      <trkpt lat="49.40982" lon="6.64457">
        <ele>117.07</ele>
        <time>2026-08-12T09:54:48.534Z</time>
      </trkpt>
      <trkpt lat="49.40962" lon="6.64496">
        <ele>118.26</ele>
        <time>2026-08-12T09:54:54.533Z</time>
      </trkpt>
      <trkpt lat="49.40942" lon="6.64539">
        <ele>117.34</ele>
        <time>2026-08-12T09:55:00.536Z</time>
      </trkpt>
      <trkpt lat="49.40924" lon="6.6458">
        <ele>117.79</ele>
        <time>2026-08-12T09:55:06.535Z</time>
      </trkpt>
      <trkpt lat="49.40905" lon="6.64626">
        <ele>115.41</ele>
        <time>2026-08-12T09:55:12.531Z</time>
      </trkpt>
      <trkpt lat="49.40888" lon="6.6467">
        <ele>114.04</ele>
        <time>2026-08-12T09:55:18.534Z</time>
      </trkpt>
      <trkpt lat="49.40871" lon="6.64717">
        <ele>115.71</ele>
        <time>2026-08-12T09:55:24.537Z</time>
      </trkpt>
      <trkpt lat="49.40854" lon="6.64761">
        <ele>117.36</ele>
        <time>2026-08-12T09:55:30.535Z</time>
      </trkpt>
      <trkpt lat="49.4084" lon="6.64806">
        <ele>118.81</ele>
        <time>2026-08-12T09:55:36.534Z</time>
      </trkpt>
      <trkpt lat="49.40825" lon="6.6485">
        <ele>120.06</ele>
        <time>2026-08-12T09:55:42.534Z</time>
      </trkpt>
      <trkpt lat="49.40807" lon="6.64894">
        <ele>119.15</ele>
        <time>2026-08-12T09:55:48.523Z</time>
      </trkpt>
      <trkpt lat="49.40789" lon="6.64936">
        <ele>115.86</ele>
        <time>2026-08-12T09:55:54.535Z</time>
      </trkpt>
      <trkpt lat="49.40772" lon="6.64978">
        <ele>114.19</ele>
        <time>2026-08-12T09:56:00.538Z</time>
      </trkpt>
      <trkpt lat="49.40751" lon="6.65022">
        <ele>115.35</ele>
        <time>2026-08-12T09:56:06.534Z</time>
      </trkpt>
      <trkpt lat="49.40732" lon="6.6506">
        <ele>115.69</ele>
        <time>2026-08-12T09:56:12.531Z</time>
      </trkpt>
      <trkpt lat="49.40713" lon="6.65096">
        <ele>115.87</ele>
        <time>2026-08-12T09:56:18.526Z</time>
      </trkpt>
      <trkpt lat="49.40689" lon="6.65139">
        <ele>117.42</ele>
        <time>2026-08-12T09:56:24.529Z</time>
      </trkpt>
      <trkpt lat="49.40666" lon="6.65174">
        <ele>116.13</ele>
        <time>2026-08-12T09:56:30.527Z</time>
      </trkpt>
      <trkpt lat="49.40642" lon="6.65211">
        <ele>116.16</ele>
        <time>2026-08-12T09:56:36.528Z</time>
      </trkpt>
      <trkpt lat="49.40616" lon="6.65246">
        <ele>116.66</ele>
        <time>2026-08-12T09:56:42.528Z</time>
      </trkpt>
      <trkpt lat="49.40591" lon="6.65283">
        <ele>116.87</ele>
        <time>2026-08-12T09:56:48.530Z</time>
      </trkpt>
      <trkpt lat="49.40566" lon="6.65314">
        <ele>116.52</ele>
        <time>2026-08-12T09:56:54.533Z</time>
      </trkpt>
      <trkpt lat="49.40545" lon="6.65341">
        <ele>115.73</ele>
        <time>2026-08-12T09:56:59.558Z</time>
      </trkpt>
      <trkpt lat="49.40518" lon="6.65386">
        <ele>118.05</ele>
        <time>2026-08-12T09:57:05.470Z</time>
      </trkpt>
      <trkpt lat="49.40494" lon="6.65406">
        <ele>117.26</ele>
        <time>2026-08-12T09:57:11.470Z</time>
      </trkpt>
      <trkpt lat="49.40466" lon="6.65451">
        <ele>114.56</ele>
        <time>2026-08-12T09:57:17.470Z</time>
      </trkpt>
      <trkpt lat="49.40438" lon="6.65491">
        <ele>112.77</ele>
        <time>2026-08-12T09:57:23.467Z</time>
      </trkpt>
      <trkpt lat="49.40416" lon="6.65523">
        <ele>112.49</ele>
        <time>2026-08-12T09:57:28.470Z</time>
      </trkpt>
      <trkpt lat="49.40395" lon="6.65553">
        <ele>112.63</ele>
        <time>2026-08-12T09:57:33.470Z</time>
      </trkpt>
      <trkpt lat="49.4037" lon="6.65589">
        <ele>111.83</ele>
        <time>2026-08-12T09:57:39.472Z</time>
      </trkpt>
      <trkpt lat="49.40345" lon="6.65623">
        <ele>112.34</ele>
        <time>2026-08-12T09:57:45.470Z</time>
      </trkpt>
      <trkpt lat="49.40323" lon="6.6565">
        <ele>113.77</ele>
        <time>2026-08-12T09:57:50.473Z</time>
      </trkpt>
      <trkpt lat="49.40298" lon="6.6568">
        <ele>114.38</ele>
        <time>2026-08-12T09:57:56.471Z</time>
      </trkpt>
      <trkpt lat="49.40277" lon="6.65703">
        <ele>114.15</ele>
        <time>2026-08-12T09:58:01.474Z</time>
      </trkpt>
      <trkpt lat="49.40256" lon="6.65728">
        <ele>111.94</ele>
        <time>2026-08-12T09:58:06.530Z</time>
      </trkpt>
      <trkpt lat="49.40228" lon="6.65766">
        <ele>110.62</ele>
        <time>2026-08-12T09:58:12.526Z</time>
      </trkpt>
      <trkpt lat="49.402" lon="6.65803">
        <ele>108.9</ele>
        <time>2026-08-12T09:58:18.531Z</time>
      </trkpt>
      <trkpt lat="49.40174" lon="6.65838">
        <ele>109.75</ele>
        <time>2026-08-12T09:58:24.524Z</time>
      </trkpt>
      <trkpt lat="49.40146" lon="6.65871">
        <ele>108.84</ele>
        <time>2026-08-12T09:58:30.532Z</time>
      </trkpt>
      <trkpt lat="49.40119" lon="6.65906">
        <ele>110.02</ele>
        <time>2026-08-12T09:58:36.526Z</time>
      </trkpt>
      <trkpt lat="49.40092" lon="6.65941">
        <ele>111.26</ele>
        <time>2026-08-12T09:58:42.528Z</time>
      </trkpt>
      <trkpt lat="49.40065" lon="6.65976">
        <ele>114.38</ele>
        <time>2026-08-12T09:58:48.529Z</time>
      </trkpt>
      <trkpt lat="49.40037" lon="6.66006">
        <ele>115.03</ele>
        <time>2026-08-12T09:58:54.531Z</time>
      </trkpt>
      <trkpt lat="49.4001" lon="6.66039">
        <ele>114.4</ele>
        <time>2026-08-12T09:59:00.525Z</time>
      </trkpt>
      <trkpt lat="49.39983" lon="6.66069">
        <ele>114.28</ele>
        <time>2026-08-12T09:59:06.529Z</time>
      </trkpt>
      <trkpt lat="49.39956" lon="6.66099">
        <ele>115.66</ele>
        <time>2026-08-12T09:59:12.529Z</time>
      </trkpt>
      <trkpt lat="49.39927" lon="6.6613">
        <ele>115.96</ele>
        <time>2026-08-12T09:59:18.527Z</time>
      </trkpt>
      <trkpt lat="49.39899" lon="6.66159">
        <ele>115.5</ele>
        <time>2026-08-12T09:59:24.530Z</time>
      </trkpt>
      <trkpt lat="49.39868" lon="6.66187">
        <ele>114.61</ele>
        <time>2026-08-12T09:59:30.527Z</time>
      </trkpt>
      <trkpt lat="49.39838" lon="6.66218">
        <ele>115.46</ele>
        <time>2026-08-12T09:59:36.473Z</time>
      </trkpt>
      <trkpt lat="49.39808" lon="6.66249">
        <ele>116.61</ele>
        <time>2026-08-12T09:59:42.467Z</time>
      </trkpt>
      <trkpt lat="49.39777" lon="6.66277">
        <ele>116.17</ele>
        <time>2026-08-12T09:59:48.468Z</time>
      </trkpt>
      <trkpt lat="49.39752" lon="6.66299">
        <ele>115.15</ele>
        <time>2026-08-12T09:59:53.471Z</time>
      </trkpt>
      <trkpt lat="49.39722" lon="6.66322">
        <ele>114.21</ele>
        <time>2026-08-12T09:59:59.469Z</time>
      </trkpt>
      <trkpt lat="49.39697" lon="6.66342">
        <ele>113.18</ele>
        <time>2026-08-12T10:00:04.470Z</time>
      </trkpt>
      <trkpt lat="49.39668" lon="6.66369">
        <ele>113.43</ele>
        <time>2026-08-12T10:00:10.466Z</time>
      </trkpt>
      <trkpt lat="49.39643" lon="6.66391">
        <ele>113.63</ele>
        <time>2026-08-12T10:00:15.467Z</time>
      </trkpt>
      <trkpt lat="49.39612" lon="6.66417">
        <ele>113.4</ele>
        <time>2026-08-12T10:00:21.467Z</time>
      </trkpt>
      <trkpt lat="49.39581" lon="6.66439">
        <ele>113.92</ele>
        <time>2026-08-12T10:00:27.467Z</time>
      </trkpt>
      <trkpt lat="49.39549" lon="6.66462">
        <ele>115.1</ele>
        <time>2026-08-12T10:00:33.466Z</time>
      </trkpt>
      <trkpt lat="49.39516" lon="6.66482">
        <ele>113.91</ele>
        <time>2026-08-12T10:00:39.468Z</time>
      </trkpt>
      <trkpt lat="49.39491" lon="6.66496">
        <ele>113.87</ele>
        <time>2026-08-12T10:00:44.468Z</time>
      </trkpt>
      <trkpt lat="49.39458" lon="6.66516">
        <ele>113.03</ele>
        <time>2026-08-12T10:00:50.463Z</time>
      </trkpt>
      <trkpt lat="49.39431" lon="6.66533">
        <ele>113.4</ele>
        <time>2026-08-12T10:00:55.464Z</time>
      </trkpt>
      <trkpt lat="49.39403" lon="6.66551">
        <ele>114.62</ele>
        <time>2026-08-12T10:01:00.530Z</time>
      </trkpt>
      <trkpt lat="49.39368" lon="6.66573">
        <ele>115.97</ele>
        <time>2026-08-12T10:01:06.470Z</time>
      </trkpt>
      <trkpt lat="49.39334" lon="6.66589">
        <ele>116.21</ele>
        <time>2026-08-12T10:01:12.472Z</time>
      </trkpt>
      <trkpt lat="49.39299" lon="6.66597">
        <ele>116.15</ele>
        <time>2026-08-12T10:01:18.469Z</time>
      </trkpt>
      <trkpt lat="49.39266" lon="6.66604">
        <ele>117.16</ele>
        <time>2026-08-12T10:01:24.534Z</time>
      </trkpt>
      <trkpt lat="49.3923" lon="6.66608">
        <ele>119.32</ele>
        <time>2026-08-12T10:01:30.529Z</time>
      </trkpt>
      <trkpt lat="49.39192" lon="6.66609">
        <ele>119.06</ele>
        <time>2026-08-12T10:01:36.466Z</time>
      </trkpt>
      <trkpt lat="49.39161" lon="6.66609">
        <ele>120.21</ele>
        <time>2026-08-12T10:01:41.466Z</time>
      </trkpt>
      <trkpt lat="49.39132" lon="6.66608">
        <ele>121.72</ele>
        <time>2026-08-12T10:01:46.467Z</time>
      </trkpt>
      <trkpt lat="49.39102" lon="6.66605">
        <ele>123.46</ele>
        <time>2026-08-12T10:01:51.474Z</time>
      </trkpt>
      <trkpt lat="49.39068" lon="6.66597">
        <ele>125.64</ele>
        <time>2026-08-12T10:01:57.470Z</time>
      </trkpt>
      <trkpt lat="49.39036" lon="6.66578">
        <ele>121.98</ele>
        <time>2026-08-12T10:02:03.468Z</time>
      </trkpt>
      <trkpt lat="49.39004" lon="6.66559">
        <ele>122.69</ele>
        <time>2026-08-12T10:02:09.471Z</time>
      </trkpt>
      <trkpt lat="49.38994" lon="6.66539">
        <ele>124.75</ele>
        <time>2026-08-12T10:02:15.471Z</time>
      </trkpt>
      <trkpt lat="49.38976" lon="6.66539">
        <ele>124.56</ele>
        <time>2026-08-12T10:02:21.469Z</time>
      </trkpt>
      <trkpt lat="49.38958" lon="6.66538">
        <ele>125.15</ele>
        <time>2026-08-12T10:02:26.469Z</time>
      </trkpt>
      <trkpt lat="49.38933" lon="6.66538">
        <ele>127.22</ele>
        <time>2026-08-12T10:02:32.471Z</time>
      </trkpt>
      <trkpt lat="49.38912" lon="6.66535">
        <ele>129.08</ele>
        <time>2026-08-12T10:02:37.473Z</time>
      </trkpt>
      <trkpt lat="49.38882" lon="6.6653">
        <ele>129.82</ele>
        <time>2026-08-12T10:02:43.467Z</time>
      </trkpt>
      <trkpt lat="49.38857" lon="6.66524">
        <ele>129.21</ele>
        <time>2026-08-12T10:02:48.469Z</time>
      </trkpt>
      <trkpt lat="49.38827" lon="6.66514">
        <ele>125.79</ele>
        <time>2026-08-12T10:02:54.531Z</time>
      </trkpt>
      <trkpt lat="49.38795" lon="6.66504">
        <ele>125.41</ele>
        <time>2026-08-12T10:03:00.527Z</time>
      </trkpt>
      <trkpt lat="49.38763" lon="6.66496">
        <ele>127.94</ele>
        <time>2026-08-12T10:03:06.471Z</time>
      </trkpt>
      <trkpt lat="49.38733" lon="6.66489">
        <ele>129.1</ele>
        <time>2026-08-12T10:03:12.478Z</time>
      </trkpt>
      <trkpt lat="49.387" lon="6.66487">
        <ele>127.86</ele>
        <time>2026-08-12T10:03:18.477Z</time>
      </trkpt>
      <trkpt lat="49.38664" lon="6.66492">
        <ele>128.03</ele>
        <time>2026-08-12T10:03:24.532Z</time>
      </trkpt>
      <trkpt lat="49.3863" lon="6.66504">
        <ele>128.37</ele>
        <time>2026-08-12T10:03:30.525Z</time>
      </trkpt>
      <trkpt lat="49.38598" lon="6.66523">
        <ele>130.87</ele>
        <time>2026-08-12T10:03:36.469Z</time>
      </trkpt>
      <trkpt lat="49.38571" lon="6.66543">
        <ele>127.99</ele>
        <time>2026-08-12T10:03:42.468Z</time>
      </trkpt>
      <trkpt lat="49.38545" lon="6.66566">
        <ele>127.15</ele>
        <time>2026-08-12T10:03:48.482Z</time>
      </trkpt>
      <trkpt lat="49.38522" lon="6.66593">
        <ele>127.83</ele>
        <time>2026-08-12T10:03:54.520Z</time>
      </trkpt>
      <trkpt lat="49.38511" lon="6.66625">
        <ele>126.86</ele>
        <time>2026-08-12T10:04:00.520Z</time>
      </trkpt>
      <trkpt lat="49.38529" lon="6.66653">
        <ele>123.66</ele>
        <time>2026-08-12T10:04:06.484Z</time>
      </trkpt>
      <trkpt lat="49.38541" lon="6.66681">
        <ele>122.99</ele>
        <time>2026-08-12T10:04:12.488Z</time>
      </trkpt>
      <trkpt lat="49.38556" lon="6.6671">
        <ele>123.96</ele>
        <time>2026-08-12T10:04:18.484Z</time>
      </trkpt>
      <trkpt lat="49.38573" lon="6.66748">
        <ele>124.07</ele>
        <time>2026-08-12T10:04:24.522Z</time>
      </trkpt>
      <trkpt lat="49.38586" lon="6.66792">
        <ele>122.06</ele>
        <time>2026-08-12T10:04:30.520Z</time>
      </trkpt>
      <trkpt lat="49.38597" lon="6.66833">
        <ele>122.44</ele>
        <time>2026-08-12T10:04:36.481Z</time>
      </trkpt>
      <trkpt lat="49.38608" lon="6.66875">
        <ele>125.96</ele>
        <time>2026-08-12T10:04:42.477Z</time>
      </trkpt>
      <trkpt lat="49.38618" lon="6.66924">
        <ele>127.37</ele>
        <time>2026-08-12T10:04:48.485Z</time>
      </trkpt>
      <trkpt lat="49.38628" lon="6.66969">
        <ele>128.05</ele>
        <time>2026-08-12T10:04:54.519Z</time>
      </trkpt>
      <trkpt lat="49.38637" lon="6.67019">
        <ele>126.46</ele>
        <time>2026-08-12T10:05:00.516Z</time>
      </trkpt>
      <trkpt lat="49.38644" lon="6.67071">
        <ele>125.43</ele>
        <time>2026-08-12T10:05:06.481Z</time>
      </trkpt>
      <trkpt lat="49.38648" lon="6.67123">
        <ele>126.8</ele>
        <time>2026-08-12T10:05:12.481Z</time>
      </trkpt>
      <trkpt lat="49.3865" lon="6.67171">
        <ele>127.77</ele>
        <time>2026-08-12T10:05:18.485Z</time>
      </trkpt>
      <trkpt lat="49.38652" lon="6.67221">
        <ele>124.66</ele>
        <time>2026-08-12T10:05:24.524Z</time>
      </trkpt>
      <trkpt lat="49.38656" lon="6.6727">
        <ele>122.07</ele>
        <time>2026-08-12T10:05:30.515Z</time>
      </trkpt>
      <trkpt lat="49.38674" lon="6.67322">
        <ele>121.12</ele>
        <time>2026-08-12T10:05:36.491Z</time>
      </trkpt>
      <trkpt lat="49.38708" lon="6.67358">
        <ele>120.35</ele>
        <time>2026-08-12T10:05:42.495Z</time>
      </trkpt>
      <trkpt lat="49.38734" lon="6.67385">
        <ele>116.24</ele>
        <time>2026-08-12T10:05:48.487Z</time>
      </trkpt>
      <trkpt lat="49.38744" lon="6.67431">
        <ele>116.16</ele>
        <time>2026-08-12T10:05:54.520Z</time>
      </trkpt>
      <trkpt lat="49.38743" lon="6.6749">
        <ele>115.82</ele>
        <time>2026-08-12T10:06:00.519Z</time>
      </trkpt>
      <trkpt lat="49.38723" lon="6.67546">
        <ele>117.61</ele>
        <time>2026-08-12T10:06:06.480Z</time>
      </trkpt>
      <trkpt lat="49.38706" lon="6.67596">
        <ele>117.88</ele>
        <time>2026-08-12T10:06:12.477Z</time>
      </trkpt>
      <trkpt lat="49.38689" lon="6.67647">
        <ele>118.96</ele>
        <time>2026-08-12T10:06:18.493Z</time>
      </trkpt>
      <trkpt lat="49.3867" lon="6.67695">
        <ele>117.53</ele>
        <time>2026-08-12T10:06:24.528Z</time>
      </trkpt>
      <trkpt lat="49.38655" lon="6.67745">
        <ele>120.1</ele>
        <time>2026-08-12T10:06:30.531Z</time>
      </trkpt>
      <trkpt lat="49.38639" lon="6.67794">
        <ele>121.96</ele>
        <time>2026-08-12T10:06:36.494Z</time>
      </trkpt>
      <trkpt lat="49.38623" lon="6.67842">
        <ele>122.34</ele>
        <time>2026-08-12T10:06:42.492Z</time>
      </trkpt>
      <trkpt lat="49.38608" lon="6.67892">
        <ele>123.47</ele>
        <time>2026-08-12T10:06:48.498Z</time>
      </trkpt>
      <trkpt lat="49.38593" lon="6.67937">
        <ele>122.99</ele>
        <time>2026-08-12T10:06:54.528Z</time>
      </trkpt>
      <trkpt lat="49.38578" lon="6.67983">
        <ele>121.88</ele>
        <time>2026-08-12T10:07:00.529Z</time>
      </trkpt>
      <trkpt lat="49.38564" lon="6.68031">
        <ele>122.78</ele>
        <time>2026-08-12T10:07:06.499Z</time>
      </trkpt>
      <trkpt lat="49.38551" lon="6.68077">
        <ele>124.31</ele>
        <time>2026-08-12T10:07:12.497Z</time>
      </trkpt>
      <trkpt lat="49.38536" lon="6.68125">
        <ele>126.29</ele>
        <time>2026-08-12T10:07:18.494Z</time>
      </trkpt>
      <trkpt lat="49.38522" lon="6.68174">
        <ele>127.34</ele>
        <time>2026-08-12T10:07:24.534Z</time>
      </trkpt>
      <trkpt lat="49.38507" lon="6.68225">
        <ele>126.29</ele>
        <time>2026-08-12T10:07:30.528Z</time>
      </trkpt>
      <trkpt lat="49.38491" lon="6.68273">
        <ele>124.33</ele>
        <time>2026-08-12T10:07:36.499Z</time>
      </trkpt>
      <trkpt lat="49.38477" lon="6.68322">
        <ele>122.9</ele>
        <time>2026-08-12T10:07:42.497Z</time>
      </trkpt>
      <trkpt lat="49.38464" lon="6.68373">
        <ele>122.87</ele>
        <time>2026-08-12T10:07:48.500Z</time>
      </trkpt>
      <trkpt lat="49.38451" lon="6.68422">
        <ele>123.08</ele>
        <time>2026-08-12T10:07:54.530Z</time>
      </trkpt>
      <trkpt lat="49.38438" lon="6.6847">
        <ele>123.05</ele>
        <time>2026-08-12T10:08:00.528Z</time>
      </trkpt>
      <trkpt lat="49.38425" lon="6.68522">
        <ele>123.29</ele>
        <time>2026-08-12T10:08:06.496Z</time>
      </trkpt>
      <trkpt lat="49.38411" lon="6.68573">
        <ele>121.56</ele>
        <time>2026-08-12T10:08:12.497Z</time>
      </trkpt>
      <trkpt lat="49.38397" lon="6.68622">
        <ele>119.08</ele>
        <time>2026-08-12T10:08:18.502Z</time>
      </trkpt>
      <trkpt lat="49.38384" lon="6.68672">
        <ele>119.67</ele>
        <time>2026-08-12T10:08:24.527Z</time>
      </trkpt>
      <trkpt lat="49.38371" lon="6.68718">
        <ele>120.11</ele>
        <time>2026-08-12T10:08:30.531Z</time>
      </trkpt>
      <trkpt lat="49.38358" lon="6.68765">
        <ele>120.41</ele>
        <time>2026-08-12T10:08:36.500Z</time>
      </trkpt>
      <trkpt lat="49.38346" lon="6.68813">
        <ele>120.65</ele>
        <time>2026-08-12T10:08:42.500Z</time>
      </trkpt>
      <trkpt lat="49.38333" lon="6.68861">
        <ele>122.32</ele>
        <time>2026-08-12T10:08:48.502Z</time>
      </trkpt>
      <trkpt lat="49.38319" lon="6.68914">
        <ele>119.19</ele>
        <time>2026-08-12T10:08:54.527Z</time>
      </trkpt>
      <trkpt lat="49.38306" lon="6.68965">
        <ele>118.29</ele>
        <time>2026-08-12T10:09:00.523Z</time>
      </trkpt>
      <trkpt lat="49.38294" lon="6.69012">
        <ele>117.81</ele>
        <time>2026-08-12T10:09:06.481Z</time>
      </trkpt>
      <trkpt lat="49.38281" lon="6.69059">
        <ele>118.92</ele>
        <time>2026-08-12T10:09:12.499Z</time>
      </trkpt>
      <trkpt lat="49.38266" lon="6.69109">
        <ele>120.41</ele>
        <time>2026-08-12T10:09:18.504Z</time>
      </trkpt>
      <trkpt lat="49.38249" lon="6.69157">
        <ele>120.59</ele>
        <time>2026-08-12T10:09:24.530Z</time>
      </trkpt>
      <trkpt lat="49.38233" lon="6.69209">
        <ele>121.68</ele>
        <time>2026-08-12T10:09:30.529Z</time>
      </trkpt>
      <trkpt lat="49.38216" lon="6.69257">
        <ele>121.82</ele>
        <time>2026-08-12T10:09:36.493Z</time>
      </trkpt>
      <trkpt lat="49.38196" lon="6.69304">
        <ele>120.48</ele>
        <time>2026-08-12T10:09:42.496Z</time>
      </trkpt>
      <trkpt lat="49.38178" lon="6.69349">
        <ele>119.04</ele>
        <time>2026-08-12T10:09:48.500Z</time>
      </trkpt>
      <trkpt lat="49.38156" lon="6.69397">
        <ele>118.44</ele>
        <time>2026-08-12T10:09:54.535Z</time>
      </trkpt>
      <trkpt lat="49.38135" lon="6.69439">
        <ele>120.16</ele>
        <time>2026-08-12T10:10:00.530Z</time>
      </trkpt>
      <trkpt lat="49.38111" lon="6.6948">
        <ele>117.6</ele>
        <time>2026-08-12T10:10:06.496Z</time>
      </trkpt>
      <trkpt lat="49.38087" lon="6.69515">
        <ele>116.41</ele>
        <time>2026-08-12T10:10:12.497Z</time>
      </trkpt>
      <trkpt lat="49.38062" lon="6.6955">
        <ele>114.84</ele>
        <time>2026-08-12T10:10:18.506Z</time>
      </trkpt>
      <trkpt lat="49.38034" lon="6.69582">
        <ele>115.59</ele>
        <time>2026-08-12T10:10:24.537Z</time>
      </trkpt>
      <trkpt lat="49.38005" lon="6.69612">
        <ele>116.24</ele>
        <time>2026-08-12T10:10:30.533Z</time>
      </trkpt>
      <trkpt lat="49.37975" lon="6.69637">
        <ele>117.4</ele>
        <time>2026-08-12T10:10:36.510Z</time>
      </trkpt>
      <trkpt lat="49.37945" lon="6.69661">
        <ele>117.29</ele>
        <time>2026-08-12T10:10:42.514Z</time>
      </trkpt>
      <trkpt lat="49.37913" lon="6.69682">
        <ele>114.82</ele>
        <time>2026-08-12T10:10:48.512Z</time>
      </trkpt>
      <trkpt lat="49.3788" lon="6.697">
        <ele>114.07</ele>
        <time>2026-08-12T10:10:54.527Z</time>
      </trkpt>
      <trkpt lat="49.37847" lon="6.69715">
        <ele>114.59</ele>
        <time>2026-08-12T10:11:00.534Z</time>
      </trkpt>
      <trkpt lat="49.37811" lon="6.69728">
        <ele>115.02</ele>
        <time>2026-08-12T10:11:06.518Z</time>
      </trkpt>
      <trkpt lat="49.37774" lon="6.69737">
        <ele>115.39</ele>
        <time>2026-08-12T10:11:12.511Z</time>
      </trkpt>
      <trkpt lat="49.37738" lon="6.69741">
        <ele>115.93</ele>
        <time>2026-08-12T10:11:18.510Z</time>
      </trkpt>
      <trkpt lat="49.37701" lon="6.69741">
        <ele>115.68</ele>
        <time>2026-08-12T10:11:24.537Z</time>
      </trkpt>
      <trkpt lat="49.37664" lon="6.6974">
        <ele>116.84</ele>
        <time>2026-08-12T10:11:30.535Z</time>
      </trkpt>
      <trkpt lat="49.37631" lon="6.69763">
        <ele>117.45</ele>
        <time>2026-08-12T10:11:36.514Z</time>
      </trkpt>
      <trkpt lat="49.37592" lon="6.69765">
        <ele>118.91</ele>
        <time>2026-08-12T10:11:42.511Z</time>
      </trkpt>
      <trkpt lat="49.37552" lon="6.69763">
        <ele>120.18</ele>
        <time>2026-08-12T10:11:48.512Z</time>
      </trkpt>
      <trkpt lat="49.37513" lon="6.69762">
        <ele>120.57</ele>
        <time>2026-08-12T10:11:54.532Z</time>
      </trkpt>
      <trkpt lat="49.37473" lon="6.69761">
        <ele>120.82</ele>
        <time>2026-08-12T10:12:00.534Z</time>
      </trkpt>
      <trkpt lat="49.37437" lon="6.6975">
        <ele>124.25</ele>
        <time>2026-08-12T10:12:06.512Z</time>
      </trkpt>
      <trkpt lat="49.37412" lon="6.69739">
        <ele>127.65</ele>
        <time>2026-08-12T10:12:12.514Z</time>
      </trkpt>
      <trkpt lat="49.37391" lon="6.69737">
        <ele>129.3</ele>
        <time>2026-08-12T10:12:18.518Z</time>
      </trkpt>
      <trkpt lat="49.37372" lon="6.6974">
        <ele>130.6</ele>
        <time>2026-08-12T10:12:24.530Z</time>
      </trkpt>
      <trkpt lat="49.37348" lon="6.69735">
        <ele>128.74</ele>
        <time>2026-08-12T10:12:30.545Z</time>
      </trkpt>
      <trkpt lat="49.37321" lon="6.6973">
        <ele>125.02</ele>
        <time>2026-08-12T10:12:36.510Z</time>
      </trkpt>
      <trkpt lat="49.37286" lon="6.6973">
        <ele>124.92</ele>
        <time>2026-08-12T10:12:42.510Z</time>
      </trkpt>
      <trkpt lat="49.37251" lon="6.6973">
        <ele>127</ele>
        <time>2026-08-12T10:12:48.512Z</time>
      </trkpt>
      <trkpt lat="49.37214" lon="6.69728">
        <ele>127.68</ele>
        <time>2026-08-12T10:12:54.534Z</time>
      </trkpt>
      <trkpt lat="49.37178" lon="6.69724">
        <ele>126.34</ele>
        <time>2026-08-12T10:13:00.534Z</time>
      </trkpt>
      <trkpt lat="49.37141" lon="6.69722">
        <ele>125.64</ele>
        <time>2026-08-12T10:13:06.515Z</time>
      </trkpt>
      <trkpt lat="49.37105" lon="6.6972">
        <ele>125.79</ele>
        <time>2026-08-12T10:13:12.519Z</time>
      </trkpt>
      <trkpt lat="49.3707" lon="6.69717">
        <ele>125.08</ele>
        <time>2026-08-12T10:13:18.513Z</time>
      </trkpt>
      <trkpt lat="49.37034" lon="6.69715">
        <ele>124.81</ele>
        <time>2026-08-12T10:13:24.527Z</time>
      </trkpt>
      <trkpt lat="49.36998" lon="6.69712">
        <ele>124.44</ele>
        <time>2026-08-12T10:13:30.534Z</time>
      </trkpt>
      <trkpt lat="49.36961" lon="6.69709">
        <ele>125.49</ele>
        <time>2026-08-12T10:13:36.512Z</time>
      </trkpt>
      <trkpt lat="49.36923" lon="6.6971">
        <ele>127.05</ele>
        <time>2026-08-12T10:13:42.509Z</time>
      </trkpt>
      <trkpt lat="49.36886" lon="6.69712">
        <ele>129.07</ele>
        <time>2026-08-12T10:13:48.511Z</time>
      </trkpt>
      <trkpt lat="49.3685" lon="6.69711">
        <ele>129.03</ele>
        <time>2026-08-12T10:13:54.535Z</time>
      </trkpt>
      <trkpt lat="49.36813" lon="6.6971">
        <ele>128.69</ele>
        <time>2026-08-12T10:14:00.534Z</time>
      </trkpt>
      <trkpt lat="49.36778" lon="6.69709">
        <ele>128.27</ele>
        <time>2026-08-12T10:14:06.514Z</time>
      </trkpt>
      <trkpt lat="49.36743" lon="6.69707">
        <ele>128.06</ele>
        <time>2026-08-12T10:14:12.512Z</time>
      </trkpt>
      <trkpt lat="49.36709" lon="6.69701">
        <ele>126.36</ele>
        <time>2026-08-12T10:14:18.513Z</time>
      </trkpt>
      <trkpt lat="49.36674" lon="6.69699">
        <ele>126</ele>
        <time>2026-08-12T10:14:24.537Z</time>
      </trkpt>
      <trkpt lat="49.36639" lon="6.69697">
        <ele>125.93</ele>
        <time>2026-08-12T10:14:30.537Z</time>
      </trkpt>
      <trkpt lat="49.36603" lon="6.69694">
        <ele>126.24</ele>
        <time>2026-08-12T10:14:36.514Z</time>
      </trkpt>
      <trkpt lat="49.36568" lon="6.69692">
        <ele>124.68</ele>
        <time>2026-08-12T10:14:42.514Z</time>
      </trkpt>
      <trkpt lat="49.36534" lon="6.69688">
        <ele>124.3</ele>
        <time>2026-08-12T10:14:48.513Z</time>
      </trkpt>
      <trkpt lat="49.36498" lon="6.69687">
        <ele>124.41</ele>
        <time>2026-08-12T10:14:54.534Z</time>
      </trkpt>
      <trkpt lat="49.36464" lon="6.69688">
        <ele>126.32</ele>
        <time>2026-08-12T10:15:00.553Z</time>
      </trkpt>
      <trkpt lat="49.36433" lon="6.69688">
        <ele>128.07</ele>
        <time>2026-08-12T10:15:06.501Z</time>
      </trkpt>
      <trkpt lat="49.36408" lon="6.69661">
        <ele>125.88</ele>
        <time>2026-08-12T10:15:12.502Z</time>
      </trkpt>
      <trkpt lat="49.36377" lon="6.69626">
        <ele>124.73</ele>
        <time>2026-08-12T10:15:18.511Z</time>
      </trkpt>
      <trkpt lat="49.36338" lon="6.69616">
        <ele>124.64</ele>
        <time>2026-08-12T10:15:24.535Z</time>
      </trkpt>
      <trkpt lat="49.36302" lon="6.69601">
        <ele>126.31</ele>
        <time>2026-08-12T10:15:30.534Z</time>
      </trkpt>
      <trkpt lat="49.36271" lon="6.69573">
        <ele>126.69</ele>
        <time>2026-08-12T10:15:36.511Z</time>
      </trkpt>
      <trkpt lat="49.36242" lon="6.6954">
        <ele>127.87</ele>
        <time>2026-08-12T10:15:42.513Z</time>
      </trkpt>
      <trkpt lat="49.36208" lon="6.6952">
        <ele>127.76</ele>
        <time>2026-08-12T10:15:48.513Z</time>
      </trkpt>
      <trkpt lat="49.3617" lon="6.69514">
        <ele>127.38</ele>
        <time>2026-08-12T10:15:54.535Z</time>
      </trkpt>
      <trkpt lat="49.36134" lon="6.69531">
        <ele>125.48</ele>
        <time>2026-08-12T10:16:00.534Z</time>
      </trkpt>
      <trkpt lat="49.36101" lon="6.69559">
        <ele>123.64</ele>
        <time>2026-08-12T10:16:06.517Z</time>
      </trkpt>
      <trkpt lat="49.36063" lon="6.6958">
        <ele>123.5</ele>
        <time>2026-08-12T10:16:12.517Z</time>
      </trkpt>
      <trkpt lat="49.36023" lon="6.69597">
        <ele>125.33</ele>
        <time>2026-08-12T10:16:18.514Z</time>
      </trkpt>
      <trkpt lat="49.35984" lon="6.69615">
        <ele>126.02</ele>
        <time>2026-08-12T10:16:24.536Z</time>
      </trkpt>
      <trkpt lat="49.35946" lon="6.69637">
        <ele>125.85</ele>
        <time>2026-08-12T10:16:30.535Z</time>
      </trkpt>
      <trkpt lat="49.35909" lon="6.69662">
        <ele>126.14</ele>
        <time>2026-08-12T10:16:36.518Z</time>
      </trkpt>
      <trkpt lat="49.35874" lon="6.6969">
        <ele>125.66</ele>
        <time>2026-08-12T10:16:42.518Z</time>
      </trkpt>
      <trkpt lat="49.3584" lon="6.69721">
        <ele>125.78</ele>
        <time>2026-08-12T10:16:48.511Z</time>
      </trkpt>
      <trkpt lat="49.35805" lon="6.69755">
        <ele>126.49</ele>
        <time>2026-08-12T10:16:54.536Z</time>
      </trkpt>
      <trkpt lat="49.35772" lon="6.69791">
        <ele>125.67</ele>
        <time>2026-08-12T10:17:00.534Z</time>
      </trkpt>
      <trkpt lat="49.35742" lon="6.69831">
        <ele>123.56</ele>
        <time>2026-08-12T10:17:06.521Z</time>
      </trkpt>
      <trkpt lat="49.35718" lon="6.69875">
        <ele>123.61</ele>
        <time>2026-08-12T10:17:12.519Z</time>
      </trkpt>
      <trkpt lat="49.35691" lon="6.69919">
        <ele>125.21</ele>
        <time>2026-08-12T10:17:18.518Z</time>
      </trkpt>
      <trkpt lat="49.3566" lon="6.69959">
        <ele>126.71</ele>
        <time>2026-08-12T10:17:24.535Z</time>
      </trkpt>
      <trkpt lat="49.35627" lon="6.6999">
        <ele>126.02</ele>
        <time>2026-08-12T10:17:30.535Z</time>
      </trkpt>
      <trkpt lat="49.35591" lon="6.70011">
        <ele>126.17</ele>
        <time>2026-08-12T10:17:36.518Z</time>
      </trkpt>
      <trkpt lat="49.35557" lon="6.70034">
        <ele>125.5</ele>
        <time>2026-08-12T10:17:42.519Z</time>
      </trkpt>
      <trkpt lat="49.35524" lon="6.70052">
        <ele>122.41</ele>
        <time>2026-08-12T10:17:48.523Z</time>
      </trkpt>
      <trkpt lat="49.35492" lon="6.70068">
        <ele>121.62</ele>
        <time>2026-08-12T10:17:54.536Z</time>
      </trkpt>
      <trkpt lat="49.35458" lon="6.70085">
        <ele>119.93</ele>
        <time>2026-08-12T10:18:00.536Z</time>
      </trkpt>
      <trkpt lat="49.35421" lon="6.70102">
        <ele>120.45</ele>
        <time>2026-08-12T10:18:06.525Z</time>
      </trkpt>
      <trkpt lat="49.35385" lon="6.70117">
        <ele>120.85</ele>
        <time>2026-08-12T10:18:12.522Z</time>
      </trkpt>
      <trkpt lat="49.3535" lon="6.70132">
        <ele>122.55</ele>
        <time>2026-08-12T10:18:18.523Z</time>
      </trkpt>
      <trkpt lat="49.35313" lon="6.70145">
        <ele>123.53</ele>
        <time>2026-08-12T10:18:24.534Z</time>
      </trkpt>
      <trkpt lat="49.35276" lon="6.70158">
        <ele>124.76</ele>
        <time>2026-08-12T10:18:30.534Z</time>
      </trkpt>
      <trkpt lat="49.35239" lon="6.70169">
        <ele>126.03</ele>
        <time>2026-08-12T10:18:36.522Z</time>
      </trkpt>
      <trkpt lat="49.35202" lon="6.70176">
        <ele>124.97</ele>
        <time>2026-08-12T10:18:42.524Z</time>
      </trkpt>
      <trkpt lat="49.35165" lon="6.70183">
        <ele>124.28</ele>
        <time>2026-08-12T10:18:48.528Z</time>
      </trkpt>
      <trkpt lat="49.35129" lon="6.70187">
        <ele>124.42</ele>
        <time>2026-08-12T10:18:54.535Z</time>
      </trkpt>
      <trkpt lat="49.35093" lon="6.70188">
        <ele>125.56</ele>
        <time>2026-08-12T10:19:00.534Z</time>
      </trkpt>
      <trkpt lat="49.35057" lon="6.70189">
        <ele>126.63</ele>
        <time>2026-08-12T10:19:06.523Z</time>
      </trkpt>
      <trkpt lat="49.3502" lon="6.70189">
        <ele>126.06</ele>
        <time>2026-08-12T10:19:12.523Z</time>
      </trkpt>
      <trkpt lat="49.34984" lon="6.70186">
        <ele>125.06</ele>
        <time>2026-08-12T10:19:18.527Z</time>
      </trkpt>
      <trkpt lat="49.34947" lon="6.70183">
        <ele>125.28</ele>
        <time>2026-08-12T10:19:24.534Z</time>
      </trkpt>
      <trkpt lat="49.34912" lon="6.70181">
        <ele>125.28</ele>
        <time>2026-08-12T10:19:30.533Z</time>
      </trkpt>
      <trkpt lat="49.34871" lon="6.70184">
        <ele>125.12</ele>
        <time>2026-08-12T10:19:36.523Z</time>
      </trkpt>
      <trkpt lat="49.34832" lon="6.70187">
        <ele>124.57</ele>
        <time>2026-08-12T10:19:42.523Z</time>
      </trkpt>
      <trkpt lat="49.34791" lon="6.70195">
        <ele>124.44</ele>
        <time>2026-08-12T10:19:48.523Z</time>
      </trkpt>
      <trkpt lat="49.34752" lon="6.70207">
        <ele>124.95</ele>
        <time>2026-08-12T10:19:54.534Z</time>
      </trkpt>
      <trkpt lat="49.34714" lon="6.70219">
        <ele>125.45</ele>
        <time>2026-08-12T10:20:00.527Z</time>
      </trkpt>
      <trkpt lat="49.34677" lon="6.70236">
        <ele>125.42</ele>
        <time>2026-08-12T10:20:06.517Z</time>
      </trkpt>
      <trkpt lat="49.34639" lon="6.70253">
        <ele>127.78</ele>
        <time>2026-08-12T10:20:12.521Z</time>
      </trkpt>
      <trkpt lat="49.34601" lon="6.70275">
        <ele>129.66</ele>
        <time>2026-08-12T10:20:18.516Z</time>
      </trkpt>
      <trkpt lat="49.34566" lon="6.70299">
        <ele>127.6</ele>
        <time>2026-08-12T10:20:24.531Z</time>
      </trkpt>
      <trkpt lat="49.34533" lon="6.70324">
        <ele>126.06</ele>
        <time>2026-08-12T10:20:30.531Z</time>
      </trkpt>
      <trkpt lat="49.34497" lon="6.70353">
        <ele>124.46</ele>
        <time>2026-08-12T10:20:36.519Z</time>
      </trkpt>
      <trkpt lat="49.34462" lon="6.70384">
        <ele>121.76</ele>
        <time>2026-08-12T10:20:42.513Z</time>
      </trkpt>
      <trkpt lat="49.3443" lon="6.70423">
        <ele>124.35</ele>
        <time>2026-08-12T10:20:48.518Z</time>
      </trkpt>
      <trkpt lat="49.34401" lon="6.70458">
        <ele>123.13</ele>
        <time>2026-08-12T10:20:54.527Z</time>
      </trkpt>
      <trkpt lat="49.34372" lon="6.70498">
        <ele>122.09</ele>
        <time>2026-08-12T10:21:00.530Z</time>
      </trkpt>
      <trkpt lat="49.34346" lon="6.70537">
        <ele>121.09</ele>
        <time>2026-08-12T10:21:06.516Z</time>
      </trkpt>
      <trkpt lat="49.34322" lon="6.70576">
        <ele>120.44</ele>
        <time>2026-08-12T10:21:12.515Z</time>
      </trkpt>
      <trkpt lat="49.34297" lon="6.70615">
        <ele>119.9</ele>
        <time>2026-08-12T10:21:18.518Z</time>
      </trkpt>
      <trkpt lat="49.34272" lon="6.70657">
        <ele>121.15</ele>
        <time>2026-08-12T10:21:24.529Z</time>
      </trkpt>
      <trkpt lat="49.34249" lon="6.70697">
        <ele>121.54</ele>
        <time>2026-08-12T10:21:30.528Z</time>
      </trkpt>
      <trkpt lat="49.34227" lon="6.70739">
        <ele>123.38</ele>
        <time>2026-08-12T10:21:36.518Z</time>
      </trkpt>
      <trkpt lat="49.34206" lon="6.70783">
        <ele>124.16</ele>
        <time>2026-08-12T10:21:42.516Z</time>
      </trkpt>
      <trkpt lat="49.34184" lon="6.70823">
        <ele>124.9</ele>
        <time>2026-08-12T10:21:48.518Z</time>
      </trkpt>
      <trkpt lat="49.34161" lon="6.70869">
        <ele>123.91</ele>
        <time>2026-08-12T10:21:54.529Z</time>
      </trkpt>
      <trkpt lat="49.3414" lon="6.70912">
        <ele>123.55</ele>
        <time>2026-08-12T10:22:00.529Z</time>
      </trkpt>
      <trkpt lat="49.34121" lon="6.70959">
        <ele>121.37</ele>
        <time>2026-08-12T10:22:06.521Z</time>
      </trkpt>
      <trkpt lat="49.34099" lon="6.71008">
        <ele>121.86</ele>
        <time>2026-08-12T10:22:12.519Z</time>
      </trkpt>
      <trkpt lat="49.3408" lon="6.71056">
        <ele>122.04</ele>
        <time>2026-08-12T10:22:18.520Z</time>
      </trkpt>
      <trkpt lat="49.34061" lon="6.71106">
        <ele>124.41</ele>
        <time>2026-08-12T10:22:24.523Z</time>
      </trkpt>
      <trkpt lat="49.34041" lon="6.7115">
        <ele>123.03</ele>
        <time>2026-08-12T10:22:30.511Z</time>
      </trkpt>
      <trkpt lat="49.34022" lon="6.71199">
        <ele>120.5</ele>
        <time>2026-08-12T10:22:36.518Z</time>
      </trkpt>
      <trkpt lat="49.34005" lon="6.71246">
        <ele>119</ele>
        <time>2026-08-12T10:22:42.517Z</time>
      </trkpt>
      <trkpt lat="49.33989" lon="6.71297">
        <ele>121.73</ele>
        <time>2026-08-12T10:22:48.517Z</time>
      </trkpt>
      <trkpt lat="49.33974" lon="6.71347">
        <ele>123.77</ele>
        <time>2026-08-12T10:22:54.535Z</time>
      </trkpt>
      <trkpt lat="49.33959" lon="6.71394">
        <ele>123.7</ele>
        <time>2026-08-12T10:23:00.530Z</time>
      </trkpt>
      <trkpt lat="49.33944" lon="6.71444">
        <ele>124.39</ele>
        <time>2026-08-12T10:23:06.518Z</time>
      </trkpt>
      <trkpt lat="49.33934" lon="6.71498">
        <ele>124.9</ele>
        <time>2026-08-12T10:23:12.517Z</time>
      </trkpt>
      <trkpt lat="49.33923" lon="6.71539">
        <ele>125.18</ele>
        <time>2026-08-12T10:23:18.520Z</time>
      </trkpt>
      <trkpt lat="49.33904" lon="6.71581">
        <ele>122.85</ele>
        <time>2026-08-12T10:23:24.519Z</time>
      </trkpt>
      <trkpt lat="49.33886" lon="6.71634">
        <ele>125.59</ele>
        <time>2026-08-12T10:23:30.529Z</time>
      </trkpt>
      <trkpt lat="49.33871" lon="6.71683">
        <ele>127.11</ele>
        <time>2026-08-12T10:23:36.518Z</time>
      </trkpt>
      <trkpt lat="49.33856" lon="6.71731">
        <ele>127.73</ele>
        <time>2026-08-12T10:23:42.516Z</time>
      </trkpt>
      <trkpt lat="49.33841" lon="6.71781">
        <ele>127.39</ele>
        <time>2026-08-12T10:23:48.517Z</time>
      </trkpt>
      <trkpt lat="49.33826" lon="6.71829">
        <ele>126.24</ele>
        <time>2026-08-12T10:23:54.536Z</time>
      </trkpt>
      <trkpt lat="49.33809" lon="6.71883">
        <ele>125.96</ele>
        <time>2026-08-12T10:24:00.530Z</time>
      </trkpt>
      <trkpt lat="49.33793" lon="6.71933">
        <ele>125.5</ele>
        <time>2026-08-12T10:24:06.521Z</time>
      </trkpt>
      <trkpt lat="49.33775" lon="6.71984">
        <ele>124.71</ele>
        <time>2026-08-12T10:24:12.518Z</time>
      </trkpt>
      <trkpt lat="49.33757" lon="6.72034">
        <ele>124.79</ele>
        <time>2026-08-12T10:24:18.521Z</time>
      </trkpt>
      <trkpt lat="49.33738" lon="6.72084">
        <ele>124.02</ele>
        <time>2026-08-12T10:24:24.537Z</time>
      </trkpt>
      <trkpt lat="49.3372" lon="6.72133">
        <ele>124.99</ele>
        <time>2026-08-12T10:24:30.529Z</time>
      </trkpt>
      <trkpt lat="49.33701" lon="6.72181">
        <ele>125.37</ele>
        <time>2026-08-12T10:24:36.518Z</time>
      </trkpt>
      <trkpt lat="49.33681" lon="6.72231">
        <ele>125.48</ele>
        <time>2026-08-12T10:24:42.520Z</time>
      </trkpt>
      <trkpt lat="49.3366" lon="6.72278">
        <ele>125.33</ele>
        <time>2026-08-12T10:24:48.520Z</time>
      </trkpt>
      <trkpt lat="49.3364" lon="6.72325">
        <ele>125.5</ele>
        <time>2026-08-12T10:24:54.536Z</time>
      </trkpt>
      <trkpt lat="49.33621" lon="6.7237">
        <ele>125.8</ele>
        <time>2026-08-12T10:25:00.530Z</time>
      </trkpt>
      <trkpt lat="49.336" lon="6.72416">
        <ele>126.18</ele>
        <time>2026-08-12T10:25:06.519Z</time>
      </trkpt>
      <trkpt lat="49.33579" lon="6.7246">
        <ele>126.1</ele>
        <time>2026-08-12T10:25:12.518Z</time>
      </trkpt>
      <trkpt lat="49.33557" lon="6.72504">
        <ele>125.87</ele>
        <time>2026-08-12T10:25:18.521Z</time>
      </trkpt>
      <trkpt lat="49.33537" lon="6.72546">
        <ele>125.95</ele>
        <time>2026-08-12T10:25:24.536Z</time>
      </trkpt>
      <trkpt lat="49.33515" lon="6.7259">
        <ele>125.79</ele>
        <time>2026-08-12T10:25:30.531Z</time>
      </trkpt>
      <trkpt lat="49.33494" lon="6.72634">
        <ele>125.94</ele>
        <time>2026-08-12T10:25:36.517Z</time>
      </trkpt>
      <trkpt lat="49.33471" lon="6.72674">
        <ele>126.87</ele>
        <time>2026-08-12T10:25:42.520Z</time>
      </trkpt>
      <trkpt lat="49.33448" lon="6.72715">
        <ele>125.78</ele>
        <time>2026-08-12T10:25:48.520Z</time>
      </trkpt>
      <trkpt lat="49.33425" lon="6.72756">
        <ele>125.35</ele>
        <time>2026-08-12T10:25:54.529Z</time>
      </trkpt>
      <trkpt lat="49.33403" lon="6.72793">
        <ele>126.61</ele>
        <time>2026-08-12T10:26:00.526Z</time>
      </trkpt>
      <trkpt lat="49.33379" lon="6.72837">
        <ele>125.48</ele>
        <time>2026-08-12T10:26:06.512Z</time>
      </trkpt>
      <trkpt lat="49.33356" lon="6.72883">
        <ele>126.44</ele>
        <time>2026-08-12T10:26:12.502Z</time>
      </trkpt>
      <trkpt lat="49.33335" lon="6.72919">
        <ele>126.37</ele>
        <time>2026-08-12T10:26:18.518Z</time>
      </trkpt>
      <trkpt lat="49.33313" lon="6.7296">
        <ele>124.37</ele>
        <time>2026-08-12T10:26:24.545Z</time>
      </trkpt>
      <trkpt lat="49.3329" lon="6.72999">
        <ele>124.57</ele>
        <time>2026-08-12T10:26:30.531Z</time>
      </trkpt>
      <trkpt lat="49.33269" lon="6.73039">
        <ele>124.89</ele>
        <time>2026-08-12T10:26:36.522Z</time>
      </trkpt>
      <trkpt lat="49.33248" lon="6.73077">
        <ele>124.52</ele>
        <time>2026-08-12T10:26:42.523Z</time>
      </trkpt>
      <trkpt lat="49.33228" lon="6.73112">
        <ele>125</ele>
        <time>2026-08-12T10:26:48.520Z</time>
      </trkpt>
      <trkpt lat="49.33206" lon="6.73148">
        <ele>124.25</ele>
        <time>2026-08-12T10:26:54.536Z</time>
      </trkpt>
      <trkpt lat="49.33183" lon="6.73185">
        <ele>123.31</ele>
        <time>2026-08-12T10:27:00.526Z</time>
      </trkpt>
      <trkpt lat="49.3316" lon="6.73222">
        <ele>123.12</ele>
        <time>2026-08-12T10:27:06.519Z</time>
      </trkpt>
      <trkpt lat="49.33137" lon="6.73259">
        <ele>123.36</ele>
        <time>2026-08-12T10:27:12.520Z</time>
      </trkpt>
      <trkpt lat="49.33115" lon="6.73294">
        <ele>121.96</ele>
        <time>2026-08-12T10:27:18.521Z</time>
      </trkpt>
      <trkpt lat="49.33092" lon="6.73324">
        <ele>121.96</ele>
        <time>2026-08-12T10:27:24.536Z</time>
      </trkpt>
      <trkpt lat="49.33069" lon="6.73357">
        <ele>122.13</ele>
        <time>2026-08-12T10:27:30.531Z</time>
      </trkpt>
      <trkpt lat="49.33045" lon="6.73391">
        <ele>122.76</ele>
        <time>2026-08-12T10:27:36.526Z</time>
      </trkpt>
      <trkpt lat="49.33023" lon="6.73423">
        <ele>123.43</ele>
        <time>2026-08-12T10:27:42.519Z</time>
      </trkpt>
      <trkpt lat="49.32998" lon="6.73457">
        <ele>124.14</ele>
        <time>2026-08-12T10:27:48.521Z</time>
      </trkpt>
      <trkpt lat="49.32974" lon="6.73491">
        <ele>124.32</ele>
        <time>2026-08-12T10:27:54.541Z</time>
      </trkpt>
      <trkpt lat="49.32949" lon="6.73527">
        <ele>125.06</ele>
        <time>2026-08-12T10:28:00.537Z</time>
      </trkpt>
      <trkpt lat="49.32924" lon="6.73562">
        <ele>125.73</ele>
        <time>2026-08-12T10:28:06.519Z</time>
      </trkpt>
      <trkpt lat="49.32899" lon="6.73597">
        <ele>125.54</ele>
        <time>2026-08-12T10:28:12.521Z</time>
      </trkpt>
      <trkpt lat="49.32874" lon="6.73632">
        <ele>125.8</ele>
        <time>2026-08-12T10:28:18.516Z</time>
      </trkpt>
      <trkpt lat="49.3285" lon="6.73667">
        <ele>125.97</ele>
        <time>2026-08-12T10:28:24.538Z</time>
      </trkpt>
      <trkpt lat="49.32828" lon="6.73699">
        <ele>126.21</ele>
        <time>2026-08-12T10:28:30.537Z</time>
      </trkpt>
      <trkpt lat="49.32809" lon="6.73726">
        <ele>127.46</ele>
        <time>2026-08-12T10:28:36.522Z</time>
      </trkpt>
      <trkpt lat="49.32793" lon="6.73747">
        <ele>130.1</ele>
        <time>2026-08-12T10:28:42.519Z</time>
      </trkpt>
      <trkpt lat="49.32778" lon="6.73756">
        <ele>130.27</ele>
        <time>2026-08-12T10:28:48.520Z</time>
      </trkpt>
      <trkpt lat="49.32768" lon="6.73751">
        <ele>129.54</ele>
        <time>2026-08-12T10:28:54.540Z</time>
      </trkpt>
      <trkpt lat="49.32758" lon="6.73749">
        <ele>130.89</ele>
        <time>2026-08-12T10:29:03.473Z</time>
      </trkpt>
      <trkpt lat="49.32749" lon="6.73743">
        <ele>131.99</ele>
        <time>2026-08-12T10:29:10.488Z</time>
      </trkpt>
      <trkpt lat="49.32738" lon="6.73735">
        <ele>130</ele>
        <time>2026-08-12T10:29:16.455Z</time>
      </trkpt>
      <trkpt lat="49.32727" lon="6.73725">
        <ele>125.65</ele>
        <time>2026-08-12T10:29:21.475Z</time>
      </trkpt>
      <trkpt lat="49.32712" lon="6.73713">
        <ele>121.61</ele>
        <time>2026-08-12T10:29:27.477Z</time>
      </trkpt>
      <trkpt lat="49.32719" lon="6.73725">
        <ele>119.23</ele>
        <time>2026-08-12T10:29:35.484Z</time>
      </trkpt>
      <trkpt lat="49.32733" lon="6.73736">
        <ele>118.29</ele>
        <time>2026-08-12T10:29:41.457Z</time>
      </trkpt>
      <trkpt lat="49.32748" lon="6.73748">
        <ele>116.85</ele>
        <time>2026-08-12T10:29:46.469Z</time>
      </trkpt>
      <trkpt lat="49.32759" lon="6.73761">
        <ele>117.36</ele>
        <time>2026-08-12T10:29:52.471Z</time>
      </trkpt>
      <trkpt lat="49.3275" lon="6.73775">
        <ele>122.77</ele>
        <time>2026-08-12T10:29:58.458Z</time>
      </trkpt>
      <trkpt lat="49.32743" lon="6.73788">
        <ele>126.06</ele>
        <time>2026-08-12T10:30:03.467Z</time>
      </trkpt>
      <trkpt lat="49.32746" lon="6.7381">
        <ele>127.4</ele>
        <time>2026-08-12T10:30:09.453Z</time>
      </trkpt>
      <trkpt lat="49.32742" lon="6.73823">
        <ele>126.96</ele>
        <time>2026-08-12T10:30:15.475Z</time>
      </trkpt>
      <trkpt lat="49.32745" lon="6.7381">
        <ele>129.17</ele>
        <time>2026-08-12T10:30:27.461Z</time>
      </trkpt>
      <trkpt lat="49.32744" lon="6.73795">
        <ele>130.45</ele>
        <time>2026-08-12T10:30:33.457Z</time>
      </trkpt>
      <trkpt lat="49.32734" lon="6.73783">
        <ele>130.31</ele>
        <time>2026-08-12T10:30:38.461Z</time>
      </trkpt>
      <trkpt lat="49.32718" lon="6.7377">
        <ele>131.11</ele>
        <time>2026-08-12T10:30:44.461Z</time>
      </trkpt>
      <trkpt lat="49.32707" lon="6.73761">
        <ele>128.82</ele>
        <time>2026-08-12T10:30:50.475Z</time>
      </trkpt>
      <trkpt lat="49.32715" lon="6.73771">
        <ele>127</ele>
        <time>2026-08-12T10:30:58.472Z</time>
      </trkpt>
      <trkpt lat="49.32733" lon="6.73783">
        <ele>124.75</ele>
        <time>2026-08-12T10:31:04.478Z</time>
      </trkpt>
      <trkpt lat="49.32743" lon="6.73812">
        <ele>125.86</ele>
        <time>2026-08-12T10:31:10.472Z</time>
      </trkpt>
      <trkpt lat="49.32728" lon="6.73838">
        <ele>127.35</ele>
        <time>2026-08-12T10:31:16.470Z</time>
      </trkpt>
      <trkpt lat="49.3271" lon="6.73861">
        <ele>126.9</ele>
        <time>2026-08-12T10:31:22.464Z</time>
      </trkpt>
      <trkpt lat="49.32697" lon="6.73876">
        <ele>126.52</ele>
        <time>2026-08-12T10:31:27.473Z</time>
      </trkpt>
      <trkpt lat="49.32679" lon="6.73899">
        <ele>127.79</ele>
        <time>2026-08-12T10:31:33.462Z</time>
      </trkpt>
      <trkpt lat="49.32665" lon="6.73918">
        <ele>127.72</ele>
        <time>2026-08-12T10:31:38.463Z</time>
      </trkpt>
      <trkpt lat="49.32649" lon="6.7394">
        <ele>128.42</ele>
        <time>2026-08-12T10:31:44.469Z</time>
      </trkpt>
      <trkpt lat="49.32628" lon="6.73968">
        <ele>129.65</ele>
        <time>2026-08-12T10:31:50.459Z</time>
      </trkpt>
      <trkpt lat="49.3261" lon="6.73995">
        <ele>129.43</ele>
        <time>2026-08-12T10:31:55.466Z</time>
      </trkpt>
      <trkpt lat="49.32592" lon="6.74019">
        <ele>129.59</ele>
        <time>2026-08-12T10:32:00.535Z</time>
      </trkpt>
      <trkpt lat="49.32567" lon="6.74052">
        <ele>128.97</ele>
        <time>2026-08-12T10:32:06.508Z</time>
      </trkpt>
      <trkpt lat="49.32544" lon="6.74085">
        <ele>127.84</ele>
        <time>2026-08-12T10:32:12.511Z</time>
      </trkpt>
      <trkpt lat="49.32521" lon="6.74118">
        <ele>127.77</ele>
        <time>2026-08-12T10:32:18.510Z</time>
      </trkpt>
      <trkpt lat="49.32504" lon="6.74145">
        <ele>127.99</ele>
        <time>2026-08-12T10:32:24.528Z</time>
      </trkpt>
      <trkpt lat="49.32485" lon="6.74175">
        <ele>128.98</ele>
        <time>2026-08-12T10:32:30.524Z</time>
      </trkpt>
      <trkpt lat="49.32467" lon="6.74206">
        <ele>130.2</ele>
        <time>2026-08-12T10:32:36.525Z</time>
      </trkpt>
      <trkpt lat="49.32448" lon="6.74238">
        <ele>130.27</ele>
        <time>2026-08-12T10:32:42.514Z</time>
      </trkpt>
      <trkpt lat="49.32431" lon="6.7427">
        <ele>129.58</ele>
        <time>2026-08-12T10:32:48.513Z</time>
      </trkpt>
      <trkpt lat="49.32414" lon="6.74305">
        <ele>128.09</ele>
        <time>2026-08-12T10:32:54.527Z</time>
      </trkpt>
      <trkpt lat="49.32395" lon="6.74339">
        <ele>126.36</ele>
        <time>2026-08-12T10:33:00.523Z</time>
      </trkpt>
      <trkpt lat="49.3238" lon="6.74375">
        <ele>126.67</ele>
        <time>2026-08-12T10:33:06.510Z</time>
      </trkpt>
      <trkpt lat="49.32369" lon="6.744">
        <ele>128.34</ele>
        <time>2026-08-12T10:33:12.520Z</time>
      </trkpt>
      <trkpt lat="49.32363" lon="6.7442">
        <ele>129.3</ele>
        <time>2026-08-12T10:33:18.503Z</time>
      </trkpt>
      <trkpt lat="49.3237" lon="6.74408">
        <ele>130.2</ele>
        <time>2026-08-12T10:33:26.457Z</time>
      </trkpt>
      <trkpt lat="49.32377" lon="6.74396">
        <ele>128.83</ele>
        <time>2026-08-12T10:33:31.475Z</time>
      </trkpt>
      <trkpt lat="49.32371" lon="6.74409">
        <ele>125.97</ele>
        <time>2026-08-12T11:47:22.462Z</time>
      </trkpt>
      <trkpt lat="49.3236" lon="6.74434">
        <ele>124.27</ele>
        <time>2026-08-12T11:47:28.456Z</time>
      </trkpt>
      <trkpt lat="49.32349" lon="6.74464">
        <ele>122.66</ele>
        <time>2026-08-12T11:47:34.454Z</time>
      </trkpt>
      <trkpt lat="49.32341" lon="6.74487">
        <ele>121.46</ele>
        <time>2026-08-12T11:47:39.462Z</time>
      </trkpt>
      <trkpt lat="49.32329" lon="6.7452">
        <ele>120.01</ele>
        <time>2026-08-12T11:47:45.452Z</time>
      </trkpt>
      <trkpt lat="49.32319" lon="6.74549">
        <ele>120.93</ele>
        <time>2026-08-12T11:47:50.810Z</time>
      </trkpt>
      <trkpt lat="49.32312" lon="6.74578">
        <ele>121</ele>
        <time>2026-08-12T11:47:56.461Z</time>
      </trkpt>
      <trkpt lat="49.32302" lon="6.7461">
        <ele>120.86</ele>
        <time>2026-08-12T11:48:02.450Z</time>
      </trkpt>
      <trkpt lat="49.32294" lon="6.74635">
        <ele>121.53</ele>
        <time>2026-08-12T11:48:07.453Z</time>
      </trkpt>
      <trkpt lat="49.32286" lon="6.74663">
        <ele>122.97</ele>
        <time>2026-08-12T11:48:12.486Z</time>
      </trkpt>
      <trkpt lat="49.32279" lon="6.74692">
        <ele>124.46</ele>
        <time>2026-08-12T11:48:18.197Z</time>
      </trkpt>
      <trkpt lat="49.32277" lon="6.74713">
        <ele>124.58</ele>
        <time>2026-08-12T11:48:23.451Z</time>
      </trkpt>
      <trkpt lat="49.32271" lon="6.74737">
        <ele>124.03</ele>
        <time>2026-08-12T11:48:28.465Z</time>
      </trkpt>
      <trkpt lat="49.32261" lon="6.74771">
        <ele>124.88</ele>
        <time>2026-08-12T11:48:34.456Z</time>
      </trkpt>
      <trkpt lat="49.32254" lon="6.74808">
        <ele>123.9</ele>
        <time>2026-08-12T11:48:40.462Z</time>
      </trkpt>
      <trkpt lat="49.32246" lon="6.74842">
        <ele>122.53</ele>
        <time>2026-08-12T11:48:45.957Z</time>
      </trkpt>
      <trkpt lat="49.3224" lon="6.74874">
        <ele>120.74</ele>
        <time>2026-08-12T11:48:51.414Z</time>
      </trkpt>
      <trkpt lat="49.32234" lon="6.74898">
        <ele>119.22</ele>
        <time>2026-08-12T11:48:56.546Z</time>
      </trkpt>
      <trkpt lat="49.32224" lon="6.74932">
        <ele>118.09</ele>
        <time>2026-08-12T11:49:02.468Z</time>
      </trkpt>
      <trkpt lat="49.32216" lon="6.74964">
        <ele>116.49</ele>
        <time>2026-08-12T11:49:07.476Z</time>
      </trkpt>
      <trkpt lat="49.32208" lon="6.75001">
        <ele>114.57</ele>
        <time>2026-08-12T11:49:12.477Z</time>
      </trkpt>
      <trkpt lat="49.32199" lon="6.75045">
        <ele>114.25</ele>
        <time>2026-08-12T11:49:18.477Z</time>
      </trkpt>
      <trkpt lat="49.32187" lon="6.75092">
        <ele>115.72</ele>
        <time>2026-08-12T11:49:24.479Z</time>
      </trkpt>
      <trkpt lat="49.32173" lon="6.75132">
        <ele>119.27</ele>
        <time>2026-08-12T11:49:30.476Z</time>
      </trkpt>
      <trkpt lat="49.32159" lon="6.75172">
        <ele>121.27</ele>
        <time>2026-08-12T11:49:36.486Z</time>
      </trkpt>
      <trkpt lat="49.32146" lon="6.75208">
        <ele>122.91</ele>
        <time>2026-08-12T11:49:42.490Z</time>
      </trkpt>
      <trkpt lat="49.32133" lon="6.75244">
        <ele>122.71</ele>
        <time>2026-08-12T11:49:48.479Z</time>
      </trkpt>
      <trkpt lat="49.3212" lon="6.75281">
        <ele>120.92</ele>
        <time>2026-08-12T11:49:54.473Z</time>
      </trkpt>
      <trkpt lat="49.32106" lon="6.7532">
        <ele>121.1</ele>
        <time>2026-08-12T11:50:00.475Z</time>
      </trkpt>
      <trkpt lat="49.32092" lon="6.75361">
        <ele>119.96</ele>
        <time>2026-08-12T11:50:06.486Z</time>
      </trkpt>
      <trkpt lat="49.3208" lon="6.75402">
        <ele>119.66</ele>
        <time>2026-08-12T11:50:12.486Z</time>
      </trkpt>
      <trkpt lat="49.32069" lon="6.75445">
        <ele>121</ele>
        <time>2026-08-12T11:50:18.483Z</time>
      </trkpt>
      <trkpt lat="49.32059" lon="6.75488">
        <ele>121.36</ele>
        <time>2026-08-12T11:50:24.471Z</time>
      </trkpt>
      <trkpt lat="49.32048" lon="6.7553">
        <ele>121.96</ele>
        <time>2026-08-12T11:50:30.474Z</time>
      </trkpt>
      <trkpt lat="49.32041" lon="6.75575">
        <ele>124.88</ele>
        <time>2026-08-12T11:50:36.486Z</time>
      </trkpt>
      <trkpt lat="49.32034" lon="6.75616">
        <ele>126.17</ele>
        <time>2026-08-12T11:50:42.484Z</time>
      </trkpt>
      <trkpt lat="49.3203" lon="6.75659">
        <ele>127.24</ele>
        <time>2026-08-12T11:50:48.485Z</time>
      </trkpt>
      <trkpt lat="49.32032" lon="6.75701">
        <ele>125.36</ele>
        <time>2026-08-12T11:50:54.473Z</time>
      </trkpt>
      <trkpt lat="49.32033" lon="6.75736">
        <ele>125.35</ele>
        <time>2026-08-12T11:50:59.473Z</time>
      </trkpt>
      <trkpt lat="49.32036" lon="6.75772">
        <ele>125.53</ele>
        <time>2026-08-12T11:51:04.475Z</time>
      </trkpt>
      <trkpt lat="49.3204" lon="6.75817">
        <ele>125.89</ele>
        <time>2026-08-12T11:51:10.474Z</time>
      </trkpt>
      <trkpt lat="49.32044" lon="6.75859">
        <ele>127.06</ele>
        <time>2026-08-12T11:51:16.472Z</time>
      </trkpt>
      <trkpt lat="49.32051" lon="6.75901">
        <ele>127.47</ele>
        <time>2026-08-12T11:51:22.475Z</time>
      </trkpt>
      <trkpt lat="49.32058" lon="6.75939">
        <ele>126.46</ele>
        <time>2026-08-12T11:51:28.476Z</time>
      </trkpt>
      <trkpt lat="49.32069" lon="6.75981">
        <ele>126.62</ele>
        <time>2026-08-12T11:51:34.474Z</time>
      </trkpt>
      <trkpt lat="49.32079" lon="6.76021">
        <ele>126.05</ele>
        <time>2026-08-12T11:51:40.472Z</time>
      </trkpt>
      <trkpt lat="49.32086" lon="6.76059">
        <ele>126.13</ele>
        <time>2026-08-12T11:51:45.472Z</time>
      </trkpt>
      <trkpt lat="49.32097" lon="6.761">
        <ele>126.71</ele>
        <time>2026-08-12T11:51:51.472Z</time>
      </trkpt>
      <trkpt lat="49.32109" lon="6.7614">
        <ele>126.36</ele>
        <time>2026-08-12T11:51:57.474Z</time>
      </trkpt>
      <trkpt lat="49.32119" lon="6.76181">
        <ele>126.61</ele>
        <time>2026-08-12T11:52:03.471Z</time>
      </trkpt>
      <trkpt lat="49.3213" lon="6.76223">
        <ele>127.49</ele>
        <time>2026-08-12T11:52:09.469Z</time>
      </trkpt>
      <trkpt lat="49.32141" lon="6.76267">
        <ele>127.43</ele>
        <time>2026-08-12T11:52:15.460Z</time>
      </trkpt>
      <trkpt lat="49.3215" lon="6.76305">
        <ele>127.04</ele>
        <time>2026-08-12T11:52:20.470Z</time>
      </trkpt>
      <trkpt lat="49.3216" lon="6.76352">
        <ele>126.44</ele>
        <time>2026-08-12T11:52:26.471Z</time>
      </trkpt>
      <trkpt lat="49.32166" lon="6.76392">
        <ele>126.64</ele>
        <time>2026-08-12T11:52:31.474Z</time>
      </trkpt>
      <trkpt lat="49.32171" lon="6.76432">
        <ele>127.04</ele>
        <time>2026-08-12T11:52:36.504Z</time>
      </trkpt>
      <trkpt lat="49.32178" lon="6.76478">
        <ele>126.93</ele>
        <time>2026-08-12T11:52:42.495Z</time>
      </trkpt>
      <trkpt lat="49.32182" lon="6.76524">
        <ele>126.34</ele>
        <time>2026-08-12T11:52:48.497Z</time>
      </trkpt>
      <trkpt lat="49.32183" lon="6.76573">
        <ele>126.81</ele>
        <time>2026-08-12T11:52:54.477Z</time>
      </trkpt>
      <trkpt lat="49.3218" lon="6.76623">
        <ele>127.01</ele>
        <time>2026-08-12T11:53:00.477Z</time>
      </trkpt>
      <trkpt lat="49.32175" lon="6.76672">
        <ele>127.54</ele>
        <time>2026-08-12T11:53:06.498Z</time>
      </trkpt>
      <trkpt lat="49.32167" lon="6.76717">
        <ele>125.68</ele>
        <time>2026-08-12T11:53:12.501Z</time>
      </trkpt>
      <trkpt lat="49.3215" lon="6.7676">
        <ele>127.56</ele>
        <time>2026-08-12T11:53:18.504Z</time>
      </trkpt>
      <trkpt lat="49.32141" lon="6.76807">
        <ele>128.23</ele>
        <time>2026-08-12T11:53:24.474Z</time>
      </trkpt>
      <trkpt lat="49.32138" lon="6.76857">
        <ele>129.34</ele>
        <time>2026-08-12T11:53:30.477Z</time>
      </trkpt>
      <trkpt lat="49.32126" lon="6.76904">
        <ele>128.3</ele>
        <time>2026-08-12T11:53:36.515Z</time>
      </trkpt>
      <trkpt lat="49.3211" lon="6.76948">
        <ele>128.95</ele>
        <time>2026-08-12T11:53:42.512Z</time>
      </trkpt>
      <trkpt lat="49.32089" lon="6.76991">
        <ele>129.09</ele>
        <time>2026-08-12T11:53:48.515Z</time>
      </trkpt>
      <trkpt lat="49.32068" lon="6.7703">
        <ele>129.29</ele>
        <time>2026-08-12T11:53:54.475Z</time>
      </trkpt>
      <trkpt lat="49.32045" lon="6.77068">
        <ele>128.63</ele>
        <time>2026-08-12T11:54:00.477Z</time>
      </trkpt>
      <trkpt lat="49.3202" lon="6.771">
        <ele>129.06</ele>
        <time>2026-08-12T11:54:06.513Z</time>
      </trkpt>
      <trkpt lat="49.31993" lon="6.77131">
        <ele>127.75</ele>
        <time>2026-08-12T11:54:12.513Z</time>
      </trkpt>
      <trkpt lat="49.31965" lon="6.77164">
        <ele>127.15</ele>
        <time>2026-08-12T11:54:18.511Z</time>
      </trkpt>
      <trkpt lat="49.31938" lon="6.77192">
        <ele>127.56</ele>
        <time>2026-08-12T11:54:24.480Z</time>
      </trkpt>
      <trkpt lat="49.31909" lon="6.77215">
        <ele>129.52</ele>
        <time>2026-08-12T11:54:30.475Z</time>
      </trkpt>
      <trkpt lat="49.31879" lon="6.77234">
        <ele>129.6</ele>
        <time>2026-08-12T11:54:36.509Z</time>
      </trkpt>
      <trkpt lat="49.31847" lon="6.77252">
        <ele>129.87</ele>
        <time>2026-08-12T11:54:42.510Z</time>
      </trkpt>
      <trkpt lat="49.31812" lon="6.77259">
        <ele>131.5</ele>
        <time>2026-08-12T11:54:48.518Z</time>
      </trkpt>
      <trkpt lat="49.31778" lon="6.77264">
        <ele>132.08</ele>
        <time>2026-08-12T11:54:54.539Z</time>
      </trkpt>
      <trkpt lat="49.31744" lon="6.77273">
        <ele>131.97</ele>
        <time>2026-08-12T11:55:00.476Z</time>
      </trkpt>
      <trkpt lat="49.31715" lon="6.77278">
        <ele>132.67</ele>
        <time>2026-08-12T11:55:05.477Z</time>
      </trkpt>
      <trkpt lat="49.31682" lon="6.77275">
        <ele>131.09</ele>
        <time>2026-08-12T11:55:11.472Z</time>
      </trkpt>
      <trkpt lat="49.31656" lon="6.7727">
        <ele>125.93</ele>
        <time>2026-08-12T11:55:16.474Z</time>
      </trkpt>
      <trkpt lat="49.31621" lon="6.77267">
        <ele>125.39</ele>
        <time>2026-08-12T11:55:22.475Z</time>
      </trkpt>
      <trkpt lat="49.31588" lon="6.77262">
        <ele>125.3</ele>
        <time>2026-08-12T11:55:28.475Z</time>
      </trkpt>
      <trkpt lat="49.31559" lon="6.77252">
        <ele>127.05</ele>
        <time>2026-08-12T11:55:33.477Z</time>
      </trkpt>
      <trkpt lat="49.31526" lon="6.77236">
        <ele>126.78</ele>
        <time>2026-08-12T11:55:39.473Z</time>
      </trkpt>
      <trkpt lat="49.31493" lon="6.77217">
        <ele>126.53</ele>
        <time>2026-08-12T11:55:45.476Z</time>
      </trkpt>
      <trkpt lat="49.31462" lon="6.77196">
        <ele>124.98</ele>
        <time>2026-08-12T11:55:51.471Z</time>
      </trkpt>
      <trkpt lat="49.31435" lon="6.77182">
        <ele>125.76</ele>
        <time>2026-08-12T11:55:56.471Z</time>
      </trkpt>
      <trkpt lat="49.31409" lon="6.77169">
        <ele>127.53</ele>
        <time>2026-08-12T11:56:01.474Z</time>
      </trkpt>
      <trkpt lat="49.31383" lon="6.77153">
        <ele>128.68</ele>
        <time>2026-08-12T11:56:06.521Z</time>
      </trkpt>
      <trkpt lat="49.31353" lon="6.77134">
        <ele>128.7</ele>
        <time>2026-08-12T11:56:12.522Z</time>
      </trkpt>
      <trkpt lat="49.3132" lon="6.77116">
        <ele>129.83</ele>
        <time>2026-08-12T11:56:18.524Z</time>
      </trkpt>
      <trkpt lat="49.3129" lon="6.77092">
        <ele>129.97</ele>
        <time>2026-08-12T11:56:24.480Z</time>
      </trkpt>
      <trkpt lat="49.31261" lon="6.77071">
        <ele>128.94</ele>
        <time>2026-08-12T11:56:30.477Z</time>
      </trkpt>
      <trkpt lat="49.3123" lon="6.77052">
        <ele>128.77</ele>
        <time>2026-08-12T11:56:36.524Z</time>
      </trkpt>
      <trkpt lat="49.31198" lon="6.77034">
        <ele>128.59</ele>
        <time>2026-08-12T11:56:42.524Z</time>
      </trkpt>
      <trkpt lat="49.31168" lon="6.77019">
        <ele>127.3</ele>
        <time>2026-08-12T11:56:48.524Z</time>
      </trkpt>
      <trkpt lat="49.31135" lon="6.76999">
        <ele>127.11</ele>
        <time>2026-08-12T11:56:54.475Z</time>
      </trkpt>
      <trkpt lat="49.31103" lon="6.76979">
        <ele>128.18</ele>
        <time>2026-08-12T11:57:00.477Z</time>
      </trkpt>
      <trkpt lat="49.31073" lon="6.7696">
        <ele>127.71</ele>
        <time>2026-08-12T11:57:06.521Z</time>
      </trkpt>
      <trkpt lat="49.3104" lon="6.7694">
        <ele>127.57</ele>
        <time>2026-08-12T11:57:12.522Z</time>
      </trkpt>
      <trkpt lat="49.31006" lon="6.76919">
        <ele>128.35</ele>
        <time>2026-08-12T11:57:18.525Z</time>
      </trkpt>
      <trkpt lat="49.30974" lon="6.76897">
        <ele>127.63</ele>
        <time>2026-08-12T11:57:24.538Z</time>
      </trkpt>
      <trkpt lat="49.30942" lon="6.76877">
        <ele>126.57</ele>
        <time>2026-08-12T11:57:30.475Z</time>
      </trkpt>
      <trkpt lat="49.30907" lon="6.76855">
        <ele>129.08</ele>
        <time>2026-08-12T11:57:36.523Z</time>
      </trkpt>
      <trkpt lat="49.30872" lon="6.76834">
        <ele>130.59</ele>
        <time>2026-08-12T11:57:42.521Z</time>
      </trkpt>
      <trkpt lat="49.30837" lon="6.76813">
        <ele>130.97</ele>
        <time>2026-08-12T11:57:48.525Z</time>
      </trkpt>
      <trkpt lat="49.30802" lon="6.76791">
        <ele>129.65</ele>
        <time>2026-08-12T11:57:54.477Z</time>
      </trkpt>
      <trkpt lat="49.30767" lon="6.76767">
        <ele>129.67</ele>
        <time>2026-08-12T11:58:00.473Z</time>
      </trkpt>
      <trkpt lat="49.30732" lon="6.76745">
        <ele>129.19</ele>
        <time>2026-08-12T11:58:06.523Z</time>
      </trkpt>
      <trkpt lat="49.30698" lon="6.76725">
        <ele>128.36</ele>
        <time>2026-08-12T11:58:12.522Z</time>
      </trkpt>
      <trkpt lat="49.30663" lon="6.76704">
        <ele>127.54</ele>
        <time>2026-08-12T11:58:18.523Z</time>
      </trkpt>
      <trkpt lat="49.30628" lon="6.76685">
        <ele>127.62</ele>
        <time>2026-08-12T11:58:24.475Z</time>
      </trkpt>
      <trkpt lat="49.3059" lon="6.76663">
        <ele>125.01</ele>
        <time>2026-08-12T11:58:30.475Z</time>
      </trkpt>
      <trkpt lat="49.30561" lon="6.76633">
        <ele>123.57</ele>
        <time>2026-08-12T11:58:36.526Z</time>
      </trkpt>
      <trkpt lat="49.30571" lon="6.76591">
        <ele>123.84</ele>
        <time>2026-08-12T11:58:42.525Z</time>
      </trkpt>
      <trkpt lat="49.3058" lon="6.76551">
        <ele>125.31</ele>
        <time>2026-08-12T11:58:48.518Z</time>
      </trkpt>
      <trkpt lat="49.30588" lon="6.76509">
        <ele>125.6</ele>
        <time>2026-08-12T11:58:54.473Z</time>
      </trkpt>
      <trkpt lat="49.30596" lon="6.76465">
        <ele>124.13</ele>
        <time>2026-08-12T11:59:00.474Z</time>
      </trkpt>
      <trkpt lat="49.30602" lon="6.76414">
        <ele>123.4</ele>
        <time>2026-08-12T11:59:06.528Z</time>
      </trkpt>
      <trkpt lat="49.30607" lon="6.76348">
        <ele>120.96</ele>
        <time>2026-08-12T11:59:12.529Z</time>
      </trkpt>
      <trkpt lat="49.30621" lon="6.76295">
        <ele>121.26</ele>
        <time>2026-08-12T11:59:18.548Z</time>
      </trkpt>
      <trkpt lat="49.3063" lon="6.76253">
        <ele>123.84</ele>
        <time>2026-08-12T11:59:24.460Z</time>
      </trkpt>
      <trkpt lat="49.30624" lon="6.76231">
        <ele>121.96</ele>
        <time>2026-08-12T11:59:29.471Z</time>
      </trkpt>
      <trkpt lat="49.30602" lon="6.76229">
        <ele>120.9</ele>
        <time>2026-08-12T11:59:34.481Z</time>
      </trkpt>
      <trkpt lat="49.30561" lon="6.76245">
        <ele>121.41</ele>
        <time>2026-08-12T11:59:40.474Z</time>
      </trkpt>
      <trkpt lat="49.30524" lon="6.76281">
        <ele>121.71</ele>
        <time>2026-08-12T11:59:46.476Z</time>
      </trkpt>
      <trkpt lat="49.30491" lon="6.76319">
        <ele>121.38</ele>
        <time>2026-08-12T11:59:52.478Z</time>
      </trkpt>
      <trkpt lat="49.30462" lon="6.76361">
        <ele>122.69</ele>
        <time>2026-08-12T11:59:58.474Z</time>
      </trkpt>
      <trkpt lat="49.30433" lon="6.76399">
        <ele>126.18</ele>
        <time>2026-08-12T12:00:04.474Z</time>
      </trkpt>
      <trkpt lat="49.304" lon="6.7643">
        <ele>127.08</ele>
        <time>2026-08-12T12:00:10.474Z</time>
      </trkpt>
      <trkpt lat="49.30365" lon="6.76433">
        <ele>125.85</ele>
        <time>2026-08-12T12:00:16.478Z</time>
      </trkpt>
      <trkpt lat="49.30331" lon="6.76432">
        <ele>124.58</ele>
        <time>2026-08-12T12:00:22.472Z</time>
      </trkpt>
      <trkpt lat="49.303" lon="6.76436">
        <ele>123.01</ele>
        <time>2026-08-12T12:00:27.475Z</time>
      </trkpt>
      <trkpt lat="49.30267" lon="6.76437">
        <ele>121.33</ele>
        <time>2026-08-12T12:00:33.471Z</time>
      </trkpt>
      <trkpt lat="49.30239" lon="6.76431">
        <ele>121.22</ele>
        <time>2026-08-12T12:00:38.478Z</time>
      </trkpt>
      <trkpt lat="49.30205" lon="6.76424">
        <ele>121.38</ele>
        <time>2026-08-12T12:00:44.474Z</time>
      </trkpt>
      <trkpt lat="49.30166" lon="6.76416">
        <ele>122.68</ele>
        <time>2026-08-12T12:00:50.471Z</time>
      </trkpt>
      <trkpt lat="49.30136" lon="6.76412">
        <ele>122.34</ele>
        <time>2026-08-12T12:00:55.473Z</time>
      </trkpt>
      <trkpt lat="49.30108" lon="6.7641">
        <ele>122.47</ele>
        <time>2026-08-12T12:01:00.498Z</time>
      </trkpt>
      <trkpt lat="49.30076" lon="6.76416">
        <ele>126.21</ele>
        <time>2026-08-12T12:01:06.481Z</time>
      </trkpt>
      <trkpt lat="49.30048" lon="6.76429">
        <ele>129.73</ele>
        <time>2026-08-12T12:01:12.483Z</time>
      </trkpt>
      <trkpt lat="49.30021" lon="6.76432">
        <ele>131.71</ele>
        <time>2026-08-12T12:01:18.479Z</time>
      </trkpt>
      <trkpt lat="49.29988" lon="6.76434">
        <ele>131.99</ele>
        <time>2026-08-12T12:01:24.474Z</time>
      </trkpt>
      <trkpt lat="49.29962" lon="6.76434">
        <ele>130.87</ele>
        <time>2026-08-12T12:01:29.474Z</time>
      </trkpt>
      <trkpt lat="49.29935" lon="6.76432">
        <ele>130.5</ele>
        <time>2026-08-12T12:01:34.474Z</time>
      </trkpt>
      <trkpt lat="49.29903" lon="6.76431">
        <ele>129.59</ele>
        <time>2026-08-12T12:01:40.478Z</time>
      </trkpt>
      <trkpt lat="49.29869" lon="6.7643">
        <ele>129.66</ele>
        <time>2026-08-12T12:01:46.473Z</time>
      </trkpt>
      <trkpt lat="49.29842" lon="6.7643">
        <ele>128.96</ele>
        <time>2026-08-12T12:01:51.475Z</time>
      </trkpt>
      <trkpt lat="49.29809" lon="6.76428">
        <ele>127.26</ele>
        <time>2026-08-12T12:01:57.474Z</time>
      </trkpt>
      <trkpt lat="49.29778" lon="6.76425">
        <ele>127</ele>
        <time>2026-08-12T12:02:03.477Z</time>
      </trkpt>
      <trkpt lat="49.29745" lon="6.76425">
        <ele>126.95</ele>
        <time>2026-08-12T12:02:09.475Z</time>
      </trkpt>
      <trkpt lat="49.29709" lon="6.76426">
        <ele>126.76</ele>
        <time>2026-08-12T12:02:15.479Z</time>
      </trkpt>
      <trkpt lat="49.29673" lon="6.76427">
        <ele>127.32</ele>
        <time>2026-08-12T12:02:21.477Z</time>
      </trkpt>
      <trkpt lat="49.29637" lon="6.76424">
        <ele>128.79</ele>
        <time>2026-08-12T12:02:27.476Z</time>
      </trkpt>
      <trkpt lat="49.29603" lon="6.76423">
        <ele>131.03</ele>
        <time>2026-08-12T12:02:33.473Z</time>
      </trkpt>
      <trkpt lat="49.2957" lon="6.76429">
        <ele>133.08</ele>
        <time>2026-08-12T12:02:39.471Z</time>
      </trkpt>
      <trkpt lat="49.29543" lon="6.76433">
        <ele>134.59</ele>
        <time>2026-08-12T12:02:44.474Z</time>
      </trkpt>
      <trkpt lat="49.29509" lon="6.76437">
        <ele>135.28</ele>
        <time>2026-08-12T12:02:50.475Z</time>
      </trkpt>
      <trkpt lat="49.29481" lon="6.76449">
        <ele>134.52</ele>
        <time>2026-08-12T12:02:55.475Z</time>
      </trkpt>
      <trkpt lat="49.29451" lon="6.76455">
        <ele>135.64</ele>
        <time>2026-08-12T12:03:00.501Z</time>
      </trkpt>
      <trkpt lat="49.29417" lon="6.76455">
        <ele>134.57</ele>
        <time>2026-08-12T12:03:06.484Z</time>
      </trkpt>
      <trkpt lat="49.29384" lon="6.76455">
        <ele>134.92</ele>
        <time>2026-08-12T12:03:12.476Z</time>
      </trkpt>
      <trkpt lat="49.29349" lon="6.76453">
        <ele>134.15</ele>
        <time>2026-08-12T12:03:18.480Z</time>
      </trkpt>
      <trkpt lat="49.29312" lon="6.76453">
        <ele>133.52</ele>
        <time>2026-08-12T12:03:24.494Z</time>
      </trkpt>
      <trkpt lat="49.29277" lon="6.76453">
        <ele>133.91</ele>
        <time>2026-08-12T12:03:30.498Z</time>
      </trkpt>
      <trkpt lat="49.29241" lon="6.76454">
        <ele>133.48</ele>
        <time>2026-08-12T12:03:36.481Z</time>
      </trkpt>
      <trkpt lat="49.29205" lon="6.76454">
        <ele>134.52</ele>
        <time>2026-08-12T12:03:42.481Z</time>
      </trkpt>
      <trkpt lat="49.29169" lon="6.76457">
        <ele>134.11</ele>
        <time>2026-08-12T12:03:48.477Z</time>
      </trkpt>
      <trkpt lat="49.29134" lon="6.7646">
        <ele>133.28</ele>
        <time>2026-08-12T12:03:54.539Z</time>
      </trkpt>
      <trkpt lat="49.29099" lon="6.76462">
        <ele>132.25</ele>
        <time>2026-08-12T12:04:00.536Z</time>
      </trkpt>
      <trkpt lat="49.29064" lon="6.76465">
        <ele>132.31</ele>
        <time>2026-08-12T12:04:06.481Z</time>
      </trkpt>
      <trkpt lat="49.29026" lon="6.76465">
        <ele>131.35</ele>
        <time>2026-08-12T12:04:12.482Z</time>
      </trkpt>
      <trkpt lat="49.28991" lon="6.76466">
        <ele>131.05</ele>
        <time>2026-08-12T12:04:18.482Z</time>
      </trkpt>
      <trkpt lat="49.28954" lon="6.76467">
        <ele>132.89</ele>
        <time>2026-08-12T12:04:24.542Z</time>
      </trkpt>
      <trkpt lat="49.28917" lon="6.7647">
        <ele>134.06</ele>
        <time>2026-08-12T12:04:30.543Z</time>
      </trkpt>
      <trkpt lat="49.28881" lon="6.76476">
        <ele>133.93</ele>
        <time>2026-08-12T12:04:36.488Z</time>
      </trkpt>
      <trkpt lat="49.28845" lon="6.76482">
        <ele>134.56</ele>
        <time>2026-08-12T12:04:42.485Z</time>
      </trkpt>
      <trkpt lat="49.28813" lon="6.76495">
        <ele>133.54</ele>
        <time>2026-08-12T12:04:48.488Z</time>
      </trkpt>
      <trkpt lat="49.28778" lon="6.76505">
        <ele>132.29</ele>
        <time>2026-08-12T12:04:54.543Z</time>
      </trkpt>
      <trkpt lat="49.28742" lon="6.76511">
        <ele>131.72</ele>
        <time>2026-08-12T12:05:00.541Z</time>
      </trkpt>
      <trkpt lat="49.28705" lon="6.76519">
        <ele>130.27</ele>
        <time>2026-08-12T12:05:06.487Z</time>
      </trkpt>
      <trkpt lat="49.28672" lon="6.76525">
        <ele>128.54</ele>
        <time>2026-08-12T12:05:12.486Z</time>
      </trkpt>
      <trkpt lat="49.28637" lon="6.76536">
        <ele>127.28</ele>
        <time>2026-08-12T12:05:18.488Z</time>
      </trkpt>
      <trkpt lat="49.28599" lon="6.76547">
        <ele>128.16</ele>
        <time>2026-08-12T12:05:24.543Z</time>
      </trkpt>
      <trkpt lat="49.28563" lon="6.76561">
        <ele>128.82</ele>
        <time>2026-08-12T12:05:30.477Z</time>
      </trkpt>
      <trkpt lat="49.28527" lon="6.7658">
        <ele>128.19</ele>
        <time>2026-08-12T12:05:36.489Z</time>
      </trkpt>
      <trkpt lat="49.28486" lon="6.76603">
        <ele>126.34</ele>
        <time>2026-08-12T12:05:42.487Z</time>
      </trkpt>
      <trkpt lat="49.2845" lon="6.76634">
        <ele>128.08</ele>
        <time>2026-08-12T12:05:48.484Z</time>
      </trkpt>
      <trkpt lat="49.28415" lon="6.76656">
        <ele>127.71</ele>
        <time>2026-08-12T12:05:54.482Z</time>
      </trkpt>
      <trkpt lat="49.28378" lon="6.76677">
        <ele>132.41</ele>
        <time>2026-08-12T12:06:00.539Z</time>
      </trkpt>
      <trkpt lat="49.28344" lon="6.76708">
        <ele>136.27</ele>
        <time>2026-08-12T12:06:06.486Z</time>
      </trkpt>
      <trkpt lat="49.28314" lon="6.7674">
        <ele>136.76</ele>
        <time>2026-08-12T12:06:12.486Z</time>
      </trkpt>
      <trkpt lat="49.28283" lon="6.7677">
        <ele>136.99</ele>
        <time>2026-08-12T12:06:18.466Z</time>
      </trkpt>
      <trkpt lat="49.28257" lon="6.76796">
        <ele>136.67</ele>
        <time>2026-08-12T12:06:23.477Z</time>
      </trkpt>
      <trkpt lat="49.28226" lon="6.76827">
        <ele>135.19</ele>
        <time>2026-08-12T12:06:29.475Z</time>
      </trkpt>
      <trkpt lat="49.28198" lon="6.76856">
        <ele>133.6</ele>
        <time>2026-08-12T12:06:34.476Z</time>
      </trkpt>
      <trkpt lat="49.28172" lon="6.76879">
        <ele>130.13</ele>
        <time>2026-08-12T12:06:39.476Z</time>
      </trkpt>
      <trkpt lat="49.28144" lon="6.7691">
        <ele>127.6</ele>
        <time>2026-08-12T12:06:45.476Z</time>
      </trkpt>
      <trkpt lat="49.28116" lon="6.76943">
        <ele>126.68</ele>
        <time>2026-08-12T12:06:51.477Z</time>
      </trkpt>
      <trkpt lat="49.28091" lon="6.76975">
        <ele>127.96</ele>
        <time>2026-08-12T12:06:57.474Z</time>
      </trkpt>
      <trkpt lat="49.28067" lon="6.77003">
        <ele>129.1</ele>
        <time>2026-08-12T12:07:02.477Z</time>
      </trkpt>
      <trkpt lat="49.28043" lon="6.77032">
        <ele>129.97</ele>
        <time>2026-08-12T12:07:07.477Z</time>
      </trkpt>
      <trkpt lat="49.2802" lon="6.77062">
        <ele>128.76</ele>
        <time>2026-08-12T12:07:12.487Z</time>
      </trkpt>
      <trkpt lat="49.27991" lon="6.77098">
        <ele>130.74</ele>
        <time>2026-08-12T12:07:18.488Z</time>
      </trkpt>
      <trkpt lat="49.27964" lon="6.77131">
        <ele>130.71</ele>
        <time>2026-08-12T12:07:24.541Z</time>
      </trkpt>
      <trkpt lat="49.27933" lon="6.77169">
        <ele>129.91</ele>
        <time>2026-08-12T12:07:30.507Z</time>
      </trkpt>
      <trkpt lat="49.27904" lon="6.772">
        <ele>124.85</ele>
        <time>2026-08-12T12:07:36.487Z</time>
      </trkpt>
      <trkpt lat="49.27877" lon="6.77233">
        <ele>122.03</ele>
        <time>2026-08-12T12:07:42.488Z</time>
      </trkpt>
      <trkpt lat="49.27849" lon="6.77267">
        <ele>119.26</ele>
        <time>2026-08-12T12:07:48.488Z</time>
      </trkpt>
      <trkpt lat="49.27821" lon="6.77303">
        <ele>117.79</ele>
        <time>2026-08-12T12:07:54.541Z</time>
      </trkpt>
      <trkpt lat="49.27795" lon="6.77338">
        <ele>115.26</ele>
        <time>2026-08-12T12:08:00.507Z</time>
      </trkpt>
      <trkpt lat="49.27768" lon="6.77372">
        <ele>116.81</ele>
        <time>2026-08-12T12:08:06.487Z</time>
      </trkpt>
      <trkpt lat="49.27741" lon="6.77408">
        <ele>118.83</ele>
        <time>2026-08-12T12:08:12.490Z</time>
      </trkpt>
      <trkpt lat="49.27713" lon="6.77445">
        <ele>124.57</ele>
        <time>2026-08-12T12:08:18.487Z</time>
      </trkpt>
      <trkpt lat="49.27681" lon="6.77481">
        <ele>127.07</ele>
        <time>2026-08-12T12:08:24.544Z</time>
      </trkpt>
      <trkpt lat="49.27655" lon="6.7753">
        <ele>130.44</ele>
        <time>2026-08-12T12:08:30.643Z</time>
      </trkpt>
      <trkpt lat="49.27624" lon="6.77558">
        <ele>129.88</ele>
        <time>2026-08-12T12:08:36.482Z</time>
      </trkpt>
      <trkpt lat="49.27592" lon="6.77585">
        <ele>128.57</ele>
        <time>2026-08-12T12:08:42.488Z</time>
      </trkpt>
      <trkpt lat="49.2756" lon="6.77599">
        <ele>126.83</ele>
        <time>2026-08-12T12:08:48.488Z</time>
      </trkpt>
      <trkpt lat="49.27531" lon="6.77641">
        <ele>123.91</ele>
        <time>2026-08-12T12:08:54.540Z</time>
      </trkpt>
      <trkpt lat="49.27497" lon="6.77674">
        <ele>120.57</ele>
        <time>2026-08-12T12:09:00.540Z</time>
      </trkpt>
      <trkpt lat="49.27463" lon="6.77707">
        <ele>123.53</ele>
        <time>2026-08-12T12:09:06.489Z</time>
      </trkpt>
      <trkpt lat="49.27433" lon="6.77743">
        <ele>125.74</ele>
        <time>2026-08-12T12:09:12.488Z</time>
      </trkpt>
      <trkpt lat="49.27406" lon="6.77783">
        <ele>126.46</ele>
        <time>2026-08-12T12:09:18.486Z</time>
      </trkpt>
      <trkpt lat="49.27384" lon="6.77831">
        <ele>127.05</ele>
        <time>2026-08-12T12:09:24.542Z</time>
      </trkpt>
      <trkpt lat="49.27368" lon="6.77884">
        <ele>129.78</ele>
        <time>2026-08-12T12:09:30.541Z</time>
      </trkpt>
      <trkpt lat="49.27361" lon="6.77942">
        <ele>133.15</ele>
        <time>2026-08-12T12:09:36.489Z</time>
      </trkpt>
      <trkpt lat="49.27362" lon="6.77992">
        <ele>133.48</ele>
        <time>2026-08-12T12:09:42.486Z</time>
      </trkpt>
      <trkpt lat="49.27362" lon="6.78048">
        <ele>133.23</ele>
        <time>2026-08-12T12:09:48.485Z</time>
      </trkpt>
      <trkpt lat="49.27364" lon="6.78106">
        <ele>134.18</ele>
        <time>2026-08-12T12:09:54.541Z</time>
      </trkpt>
      <trkpt lat="49.27371" lon="6.78166">
        <ele>134.33</ele>
        <time>2026-08-12T12:10:00.541Z</time>
      </trkpt>
      <trkpt lat="49.27382" lon="6.78222">
        <ele>133.4</ele>
        <time>2026-08-12T12:10:06.487Z</time>
      </trkpt>
      <trkpt lat="49.27385" lon="6.78273">
        <ele>135.39</ele>
        <time>2026-08-12T12:10:12.487Z</time>
      </trkpt>
      <trkpt lat="49.27381" lon="6.7833">
        <ele>135.24</ele>
        <time>2026-08-12T12:10:18.489Z</time>
      </trkpt>
      <trkpt lat="49.27377" lon="6.78386">
        <ele>135.29</ele>
        <time>2026-08-12T12:10:24.477Z</time>
      </trkpt>
      <trkpt lat="49.27374" lon="6.7844">
        <ele>137.3</ele>
        <time>2026-08-12T12:10:30.477Z</time>
      </trkpt>
      <trkpt lat="49.2737" lon="6.78489">
        <ele>137.64</ele>
        <time>2026-08-12T12:10:35.478Z</time>
      </trkpt>
      <trkpt lat="49.27363" lon="6.78537">
        <ele>137.25</ele>
        <time>2026-08-12T12:10:41.477Z</time>
      </trkpt>
      <trkpt lat="49.27368" lon="6.78586">
        <ele>136.58</ele>
        <time>2026-08-12T12:10:46.477Z</time>
      </trkpt>
      <trkpt lat="49.27369" lon="6.78654">
        <ele>137.31</ele>
        <time>2026-08-12T12:10:52.474Z</time>
      </trkpt>
      <trkpt lat="49.27366" lon="6.78705">
        <ele>137.59</ele>
        <time>2026-08-12T12:10:57.475Z</time>
      </trkpt>
      <trkpt lat="49.27361" lon="6.78761">
        <ele>138.22</ele>
        <time>2026-08-12T12:11:03.475Z</time>
      </trkpt>
      <trkpt lat="49.27359" lon="6.78816">
        <ele>138.48</ele>
        <time>2026-08-12T12:11:09.476Z</time>
      </trkpt>
      <trkpt lat="49.27358" lon="6.78871">
        <ele>139.54</ele>
        <time>2026-08-12T12:11:15.472Z</time>
      </trkpt>
      <trkpt lat="49.27356" lon="6.78916">
        <ele>140.39</ele>
        <time>2026-08-12T12:11:20.473Z</time>
      </trkpt>
      <trkpt lat="49.27355" lon="6.78958">
        <ele>139.79</ele>
        <time>2026-08-12T12:11:25.475Z</time>
      </trkpt>
      <trkpt lat="49.27354" lon="6.78999">
        <ele>138.88</ele>
        <time>2026-08-12T12:11:30.476Z</time>
      </trkpt>
      <trkpt lat="49.2735" lon="6.79043">
        <ele>137.63</ele>
        <time>2026-08-12T12:11:35.476Z</time>
      </trkpt>
      <trkpt lat="49.27338" lon="6.79084">
        <ele>136.77</ele>
        <time>2026-08-12T12:11:40.476Z</time>
      </trkpt>
      <trkpt lat="49.27327" lon="6.79124">
        <ele>137.34</ele>
        <time>2026-08-12T12:11:45.476Z</time>
      </trkpt>
      <trkpt lat="49.27321" lon="6.79175">
        <ele>136.82</ele>
        <time>2026-08-12T12:11:51.475Z</time>
      </trkpt>
      <trkpt lat="49.27314" lon="6.79227">
        <ele>135.24</ele>
        <time>2026-08-12T12:11:57.475Z</time>
      </trkpt>
      <trkpt lat="49.27306" lon="6.79278">
        <ele>134.89</ele>
        <time>2026-08-12T12:12:03.477Z</time>
      </trkpt>
      <trkpt lat="49.27302" lon="6.79324">
        <ele>133.41</ele>
        <time>2026-08-12T12:12:09.475Z</time>
      </trkpt>
      <trkpt lat="49.27306" lon="6.79369">
        <ele>132.71</ele>
        <time>2026-08-12T12:12:15.475Z</time>
      </trkpt>
      <trkpt lat="49.27301" lon="6.79414">
        <ele>133.14</ele>
        <time>2026-08-12T12:12:21.475Z</time>
      </trkpt>
      <trkpt lat="49.27295" lon="6.79445">
        <ele>131.66</ele>
        <time>2026-08-12T12:12:26.475Z</time>
      </trkpt>
      <trkpt lat="49.27284" lon="6.79484">
        <ele>130.96</ele>
        <time>2026-08-12T12:12:32.473Z</time>
      </trkpt>
      <trkpt lat="49.27276" lon="6.79522">
        <ele>130.08</ele>
        <time>2026-08-12T12:12:37.478Z</time>
      </trkpt>
      <trkpt lat="49.27266" lon="6.79561">
        <ele>130.68</ele>
        <time>2026-08-12T12:12:42.488Z</time>
      </trkpt>
      <trkpt lat="49.27251" lon="6.79604">
        <ele>133.16</ele>
        <time>2026-08-12T12:12:48.486Z</time>
      </trkpt>
      <trkpt lat="49.27235" lon="6.79652">
        <ele>136.34</ele>
        <time>2026-08-12T12:12:54.513Z</time>
      </trkpt>
      <trkpt lat="49.2722" lon="6.79708">
        <ele>136.76</ele>
        <time>2026-08-12T12:13:00.534Z</time>
      </trkpt>
      <trkpt lat="49.27208" lon="6.79767">
        <ele>135.92</ele>
        <time>2026-08-12T12:13:06.492Z</time>
      </trkpt>
      <trkpt lat="49.27192" lon="6.79824">
        <ele>133.77</ele>
        <time>2026-08-12T12:13:12.486Z</time>
      </trkpt>
      <trkpt lat="49.27174" lon="6.79873">
        <ele>134.44</ele>
        <time>2026-08-12T12:13:18.485Z</time>
      </trkpt>
      <trkpt lat="49.27158" lon="6.79923">
        <ele>134.13</ele>
        <time>2026-08-12T12:13:24.536Z</time>
      </trkpt>
      <trkpt lat="49.27142" lon="6.79969">
        <ele>134.56</ele>
        <time>2026-08-12T12:13:30.535Z</time>
      </trkpt>
      <trkpt lat="49.27128" lon="6.8">
        <ele>134.21</ele>
        <time>2026-08-12T12:13:36.493Z</time>
      </trkpt>
      <trkpt lat="49.27115" lon="6.8004">
        <ele>136.21</ele>
        <time>2026-08-12T12:13:42.481Z</time>
      </trkpt>
      <trkpt lat="49.27103" lon="6.8008">
        <ele>138.03</ele>
        <time>2026-08-12T12:13:48.494Z</time>
      </trkpt>
      <trkpt lat="49.2709" lon="6.80126">
        <ele>139.61</ele>
        <time>2026-08-12T12:13:54.513Z</time>
      </trkpt>
      <trkpt lat="49.27077" lon="6.80173">
        <ele>140.43</ele>
        <time>2026-08-12T12:14:00.511Z</time>
      </trkpt>
      <trkpt lat="49.27064" lon="6.80226">
        <ele>140.3</ele>
        <time>2026-08-12T12:14:06.492Z</time>
      </trkpt>
      <trkpt lat="49.27053" lon="6.80287">
        <ele>137.53</ele>
        <time>2026-08-12T12:14:12.493Z</time>
      </trkpt>
      <trkpt lat="49.27039" lon="6.80353">
        <ele>135.82</ele>
        <time>2026-08-12T12:14:18.495Z</time>
      </trkpt>
      <trkpt lat="49.27029" lon="6.80412">
        <ele>135.57</ele>
        <time>2026-08-12T12:14:24.534Z</time>
      </trkpt>
      <trkpt lat="49.27019" lon="6.80471">
        <ele>135.16</ele>
        <time>2026-08-12T12:14:30.535Z</time>
      </trkpt>
      <trkpt lat="49.27011" lon="6.80526">
        <ele>134.62</ele>
        <time>2026-08-12T12:14:36.492Z</time>
      </trkpt>
      <trkpt lat="49.27005" lon="6.80582">
        <ele>136.24</ele>
        <time>2026-08-12T12:14:42.493Z</time>
      </trkpt>
      <trkpt lat="49.27001" lon="6.80642">
        <ele>137.21</ele>
        <time>2026-08-12T12:14:48.484Z</time>
      </trkpt>
      <trkpt lat="49.26995" lon="6.80692">
        <ele>137.4</ele>
        <time>2026-08-12T12:14:54.612Z</time>
      </trkpt>
      <trkpt lat="49.26989" lon="6.80741">
        <ele>137.63</ele>
        <time>2026-08-12T12:15:00.536Z</time>
      </trkpt>
      <trkpt lat="49.26982" lon="6.80794">
        <ele>135.76</ele>
        <time>2026-08-12T12:15:06.485Z</time>
      </trkpt>
      <trkpt lat="49.26977" lon="6.80842">
        <ele>133.64</ele>
        <time>2026-08-12T12:15:12.501Z</time>
      </trkpt>
      <trkpt lat="49.26975" lon="6.80895">
        <ele>133.94</ele>
        <time>2026-08-12T12:15:18.492Z</time>
      </trkpt>
      <trkpt lat="49.26971" lon="6.80949">
        <ele>132.89</ele>
        <time>2026-08-12T12:15:24.536Z</time>
      </trkpt>
      <trkpt lat="49.26971" lon="6.81005">
        <ele>134.08</ele>
        <time>2026-08-12T12:15:30.541Z</time>
      </trkpt>
      <trkpt lat="49.2697" lon="6.81058">
        <ele>135.83</ele>
        <time>2026-08-12T12:15:36.489Z</time>
      </trkpt>
      <trkpt lat="49.2697" lon="6.81109">
        <ele>138.43</ele>
        <time>2026-08-12T12:15:42.494Z</time>
      </trkpt>
      <trkpt lat="49.2697" lon="6.81159">
        <ele>139.77</ele>
        <time>2026-08-12T12:15:48.494Z</time>
      </trkpt>
      <trkpt lat="49.26969" lon="6.81208">
        <ele>139.05</ele>
        <time>2026-08-12T12:15:54.493Z</time>
      </trkpt>
      <trkpt lat="49.26964" lon="6.81261">
        <ele>136.91</ele>
        <time>2026-08-12T12:16:00.534Z</time>
      </trkpt>
      <trkpt lat="49.2696" lon="6.81313">
        <ele>134.51</ele>
        <time>2026-08-12T12:16:06.492Z</time>
      </trkpt>
      <trkpt lat="49.26955" lon="6.81364">
        <ele>133.94</ele>
        <time>2026-08-12T12:16:12.495Z</time>
      </trkpt>
      <trkpt lat="49.26953" lon="6.81416">
        <ele>132.51</ele>
        <time>2026-08-12T12:16:18.493Z</time>
      </trkpt>
      <trkpt lat="49.26952" lon="6.81468">
        <ele>130.2</ele>
        <time>2026-08-12T12:16:24.534Z</time>
      </trkpt>
      <trkpt lat="49.26955" lon="6.81521">
        <ele>130.01</ele>
        <time>2026-08-12T12:16:30.534Z</time>
      </trkpt>
      <trkpt lat="49.26955" lon="6.81576">
        <ele>130.63</ele>
        <time>2026-08-12T12:16:36.495Z</time>
      </trkpt>
      <trkpt lat="49.26955" lon="6.81629">
        <ele>129.62</ele>
        <time>2026-08-12T12:16:42.492Z</time>
      </trkpt>
      <trkpt lat="49.26952" lon="6.81679">
        <ele>129.01</ele>
        <time>2026-08-12T12:16:48.495Z</time>
      </trkpt>
      <trkpt lat="49.26956" lon="6.81737">
        <ele>127.68</ele>
        <time>2026-08-12T12:16:54.536Z</time>
      </trkpt>
      <trkpt lat="49.26953" lon="6.81791">
        <ele>127.4</ele>
        <time>2026-08-12T12:17:00.539Z</time>
      </trkpt>
      <trkpt lat="49.26947" lon="6.81843">
        <ele>126.21</ele>
        <time>2026-08-12T12:17:06.490Z</time>
      </trkpt>
      <trkpt lat="49.26943" lon="6.81894">
        <ele>125.34</ele>
        <time>2026-08-12T12:17:12.497Z</time>
      </trkpt>
      <trkpt lat="49.26936" lon="6.81948">
        <ele>124.95</ele>
        <time>2026-08-12T12:17:18.493Z</time>
      </trkpt>
      <trkpt lat="49.26926" lon="6.82004">
        <ele>125.4</ele>
        <time>2026-08-12T12:17:24.533Z</time>
      </trkpt>
      <trkpt lat="49.26912" lon="6.82057">
        <ele>125.88</ele>
        <time>2026-08-12T12:17:30.534Z</time>
      </trkpt>
      <trkpt lat="49.26893" lon="6.82106">
        <ele>129.16</ele>
        <time>2026-08-12T12:17:36.497Z</time>
      </trkpt>
      <trkpt lat="49.26882" lon="6.82153">
        <ele>128.19</ele>
        <time>2026-08-12T12:17:42.499Z</time>
      </trkpt>
      <trkpt lat="49.26864" lon="6.8221">
        <ele>127.74</ele>
        <time>2026-08-12T12:17:48.491Z</time>
      </trkpt>
      <trkpt lat="49.26845" lon="6.82261">
        <ele>127.47</ele>
        <time>2026-08-12T12:17:54.533Z</time>
      </trkpt>
      <trkpt lat="49.26825" lon="6.82305">
        <ele>125.75</ele>
        <time>2026-08-12T12:18:00.509Z</time>
      </trkpt>
      <trkpt lat="49.26803" lon="6.82351">
        <ele>125.69</ele>
        <time>2026-08-12T12:18:06.494Z</time>
      </trkpt>
      <trkpt lat="49.2678" lon="6.82392">
        <ele>123.78</ele>
        <time>2026-08-12T12:18:12.491Z</time>
      </trkpt>
      <trkpt lat="49.26754" lon="6.82435">
        <ele>123.29</ele>
        <time>2026-08-12T12:18:18.494Z</time>
      </trkpt>
      <trkpt lat="49.26728" lon="6.82472">
        <ele>122.35</ele>
        <time>2026-08-12T12:18:24.493Z</time>
      </trkpt>
      <trkpt lat="49.26699" lon="6.82514">
        <ele>124.24</ele>
        <time>2026-08-12T12:18:30.534Z</time>
      </trkpt>
      <trkpt lat="49.26671" lon="6.82555">
        <ele>127.97</ele>
        <time>2026-08-12T12:18:36.494Z</time>
      </trkpt>
      <trkpt lat="49.26644" lon="6.8259">
        <ele>129.14</ele>
        <time>2026-08-12T12:18:42.495Z</time>
      </trkpt>
      <trkpt lat="49.26617" lon="6.82623">
        <ele>130.12</ele>
        <time>2026-08-12T12:18:48.493Z</time>
      </trkpt>
      <trkpt lat="49.2659" lon="6.82656">
        <ele>130.74</ele>
        <time>2026-08-12T12:18:54.535Z</time>
      </trkpt>
      <trkpt lat="49.26561" lon="6.82688">
        <ele>127.88</ele>
        <time>2026-08-12T12:19:00.534Z</time>
      </trkpt>
      <trkpt lat="49.26534" lon="6.82717">
        <ele>125.5</ele>
        <time>2026-08-12T12:19:06.493Z</time>
      </trkpt>
      <trkpt lat="49.26506" lon="6.82746">
        <ele>124.17</ele>
        <time>2026-08-12T12:19:12.493Z</time>
      </trkpt>
      <trkpt lat="49.26477" lon="6.82786">
        <ele>129.04</ele>
        <time>2026-08-12T12:19:18.491Z</time>
      </trkpt>
      <trkpt lat="49.26454" lon="6.82834">
        <ele>131.11</ele>
        <time>2026-08-12T12:19:24.536Z</time>
      </trkpt>
      <trkpt lat="49.26424" lon="6.82869">
        <ele>134.84</ele>
        <time>2026-08-12T12:19:30.536Z</time>
      </trkpt>
      <trkpt lat="49.26397" lon="6.82902">
        <ele>134.57</ele>
        <time>2026-08-12T12:19:36.496Z</time>
      </trkpt>
      <trkpt lat="49.2637" lon="6.82934">
        <ele>135.67</ele>
        <time>2026-08-12T12:19:42.493Z</time>
      </trkpt>
      <trkpt lat="49.26347" lon="6.82962">
        <ele>136.12</ele>
        <time>2026-08-12T12:19:48.493Z</time>
      </trkpt>
      <trkpt lat="49.26321" lon="6.82991">
        <ele>135.81</ele>
        <time>2026-08-12T12:19:54.536Z</time>
      </trkpt>
      <trkpt lat="49.26291" lon="6.83025">
        <ele>133.2</ele>
        <time>2026-08-12T12:20:00.500Z</time>
      </trkpt>
      <trkpt lat="49.26262" lon="6.83058">
        <ele>131.07</ele>
        <time>2026-08-12T12:20:06.499Z</time>
      </trkpt>
      <trkpt lat="49.26233" lon="6.83092">
        <ele>130.09</ele>
        <time>2026-08-12T12:20:12.500Z</time>
      </trkpt>
      <trkpt lat="49.26203" lon="6.83121">
        <ele>130.21</ele>
        <time>2026-08-12T12:20:18.499Z</time>
      </trkpt>
      <trkpt lat="49.26168" lon="6.8314">
        <ele>130.54</ele>
        <time>2026-08-12T12:20:24.535Z</time>
      </trkpt>
      <trkpt lat="49.26135" lon="6.83161">
        <ele>131.72</ele>
        <time>2026-08-12T12:20:30.529Z</time>
      </trkpt>
      <trkpt lat="49.26103" lon="6.83178">
        <ele>130.94</ele>
        <time>2026-08-12T12:20:36.500Z</time>
      </trkpt>
      <trkpt lat="49.26073" lon="6.83202">
        <ele>128.65</ele>
        <time>2026-08-12T12:20:42.501Z</time>
      </trkpt>
      <trkpt lat="49.26042" lon="6.83224">
        <ele>126.82</ele>
        <time>2026-08-12T12:20:48.494Z</time>
      </trkpt>
      <trkpt lat="49.26013" lon="6.83249">
        <ele>124.04</ele>
        <time>2026-08-12T12:20:54.533Z</time>
      </trkpt>
      <trkpt lat="49.25983" lon="6.83275">
        <ele>123.8</ele>
        <time>2026-08-12T12:21:00.532Z</time>
      </trkpt>
      <trkpt lat="49.25953" lon="6.83297">
        <ele>121.64</ele>
        <time>2026-08-12T12:21:06.498Z</time>
      </trkpt>
      <trkpt lat="49.25921" lon="6.83323">
        <ele>116.9</ele>
        <time>2026-08-12T12:21:12.505Z</time>
      </trkpt>
      <trkpt lat="49.2589" lon="6.83348">
        <ele>115.48</ele>
        <time>2026-08-12T12:21:18.495Z</time>
      </trkpt>
      <trkpt lat="49.25866" lon="6.83386">
        <ele>120.58</ele>
        <time>2026-08-12T12:21:24.534Z</time>
      </trkpt>
      <trkpt lat="49.25872" lon="6.83449">
        <ele>125.85</ele>
        <time>2026-08-12T12:21:30.538Z</time>
      </trkpt>
      <trkpt lat="49.25844" lon="6.8349">
        <ele>130.17</ele>
        <time>2026-08-12T12:21:36.500Z</time>
      </trkpt>
      <trkpt lat="49.25812" lon="6.83523">
        <ele>132.27</ele>
        <time>2026-08-12T12:21:42.495Z</time>
      </trkpt>
      <trkpt lat="49.25784" lon="6.83555">
        <ele>133.63</ele>
        <time>2026-08-12T12:21:48.496Z</time>
      </trkpt>
      <trkpt lat="49.25761" lon="6.83595">
        <ele>134.86</ele>
        <time>2026-08-12T12:21:54.534Z</time>
      </trkpt>
      <trkpt lat="49.25728" lon="6.83616">
        <ele>134.19</ele>
        <time>2026-08-12T12:22:00.537Z</time>
      </trkpt>
      <trkpt lat="49.25698" lon="6.83648">
        <ele>133.21</ele>
        <time>2026-08-12T12:22:06.502Z</time>
      </trkpt>
      <trkpt lat="49.25669" lon="6.83679">
        <ele>133.06</ele>
        <time>2026-08-12T12:22:12.498Z</time>
      </trkpt>
      <trkpt lat="49.25638" lon="6.83712">
        <ele>133.72</ele>
        <time>2026-08-12T12:22:18.503Z</time>
      </trkpt>
      <trkpt lat="49.25608" lon="6.83744">
        <ele>134.67</ele>
        <time>2026-08-12T12:22:24.538Z</time>
      </trkpt>
      <trkpt lat="49.25578" lon="6.83775">
        <ele>135.32</ele>
        <time>2026-08-12T12:22:30.536Z</time>
      </trkpt>
      <trkpt lat="49.25548" lon="6.83806">
        <ele>134.11</ele>
        <time>2026-08-12T12:22:36.500Z</time>
      </trkpt>
      <trkpt lat="49.25519" lon="6.83836">
        <ele>134.21</ele>
        <time>2026-08-12T12:22:42.501Z</time>
      </trkpt>
      <trkpt lat="49.25492" lon="6.83863">
        <ele>135.39</ele>
        <time>2026-08-12T12:22:48.497Z</time>
      </trkpt>
      <trkpt lat="49.25465" lon="6.83889">
        <ele>136.07</ele>
        <time>2026-08-12T12:22:54.474Z</time>
      </trkpt>
      <trkpt lat="49.25438" lon="6.83917">
        <ele>136.57</ele>
        <time>2026-08-12T12:23:00.475Z</time>
      </trkpt>
      <trkpt lat="49.25411" lon="6.83948">
        <ele>137.19</ele>
        <time>2026-08-12T12:23:06.503Z</time>
      </trkpt>
      <trkpt lat="49.25388" lon="6.83989">
        <ele>138.15</ele>
        <time>2026-08-12T12:23:12.494Z</time>
      </trkpt>
      <trkpt lat="49.25346" lon="6.83992">
        <ele>137.13</ele>
        <time>2026-08-12T12:23:18.499Z</time>
      </trkpt>
      <trkpt lat="49.25332" lon="6.83961">
        <ele>136.27</ele>
        <time>2026-08-12T12:23:24.471Z</time>
      </trkpt>
      <trkpt lat="49.25335" lon="6.83943">
        <ele>136.69</ele>
        <time>2026-08-12T12:23:29.476Z</time>
      </trkpt>
      <trkpt lat="49.25322" lon="6.83937">
        <ele>138.43</ele>
        <time>2026-08-12T12:23:34.477Z</time>
      </trkpt>
      <trkpt lat="49.25299" lon="6.83934">
        <ele>139.2</ele>
        <time>2026-08-12T12:23:40.474Z</time>
      </trkpt>
      <trkpt lat="49.25274" lon="6.83931">
        <ele>136.88</ele>
        <time>2026-08-12T12:23:45.476Z</time>
      </trkpt>
      <trkpt lat="49.25241" lon="6.83925">
        <ele>136.39</ele>
        <time>2026-08-12T12:23:51.472Z</time>
      </trkpt>
      <trkpt lat="49.25213" lon="6.83919">
        <ele>132.69</ele>
        <time>2026-08-12T12:23:56.474Z</time>
      </trkpt>
      <trkpt lat="49.25176" lon="6.83907">
        <ele>134.34</ele>
        <time>2026-08-12T12:24:02.472Z</time>
      </trkpt>
      <trkpt lat="49.25142" lon="6.83903">
        <ele>136.93</ele>
        <time>2026-08-12T12:24:08.476Z</time>
      </trkpt>
      <trkpt lat="49.2511" lon="6.83905">
        <ele>134.78</ele>
        <time>2026-08-12T12:24:14.471Z</time>
      </trkpt>
      <trkpt lat="49.25086" lon="6.83924">
        <ele>133.08</ele>
        <time>2026-08-12T12:24:19.472Z</time>
      </trkpt>
      <trkpt lat="49.25051" lon="6.83915">
        <ele>132.52</ele>
        <time>2026-08-12T12:24:24.533Z</time>
      </trkpt>
      <trkpt lat="49.25018" lon="6.839">
        <ele>134.54</ele>
        <time>2026-08-12T12:24:30.535Z</time>
      </trkpt>
      <trkpt lat="49.24993" lon="6.8389">
        <ele>136.66</ele>
        <time>2026-08-12T12:24:36.511Z</time>
      </trkpt>
      <trkpt lat="49.24975" lon="6.83882">
        <ele>137.41</ele>
        <time>2026-08-12T12:24:42.503Z</time>
      </trkpt>
      <trkpt lat="49.24964" lon="6.83879">
        <ele>138.28</ele>
        <time>2026-08-12T12:25:31.461Z</time>
      </trkpt>
      <trkpt lat="49.24949" lon="6.83874">
        <ele>138.29</ele>
        <time>2026-08-12T12:25:36.499Z</time>
      </trkpt>
      <trkpt lat="49.24925" lon="6.83874">
        <ele>137.73</ele>
        <time>2026-08-12T12:25:42.512Z</time>
      </trkpt>
      <trkpt lat="49.24899" lon="6.83871">
        <ele>137.66</ele>
        <time>2026-08-12T12:25:48.509Z</time>
      </trkpt>
      <trkpt lat="49.24869" lon="6.83875">
        <ele>137.11</ele>
        <time>2026-08-12T12:25:54.535Z</time>
      </trkpt>
      <trkpt lat="49.24836" lon="6.83878">
        <ele>135.44</ele>
        <time>2026-08-12T12:26:00.536Z</time>
      </trkpt>
      <trkpt lat="49.24799" lon="6.83885">
        <ele>135.19</ele>
        <time>2026-08-12T12:26:06.541Z</time>
      </trkpt>
      <trkpt lat="49.24763" lon="6.83895">
        <ele>137.89</ele>
        <time>2026-08-12T12:26:12.490Z</time>
      </trkpt>
      <trkpt lat="49.24732" lon="6.83891">
        <ele>134.38</ele>
        <time>2026-08-12T12:26:18.496Z</time>
      </trkpt>
      <trkpt lat="49.24701" lon="6.83893">
        <ele>133.94</ele>
        <time>2026-08-12T12:26:24.513Z</time>
      </trkpt>
      <trkpt lat="49.24669" lon="6.83898">
        <ele>134.34</ele>
        <time>2026-08-12T12:26:30.498Z</time>
      </trkpt>
      <trkpt lat="49.24639" lon="6.83918">
        <ele>137.26</ele>
        <time>2026-08-12T12:26:36.502Z</time>
      </trkpt>
      <trkpt lat="49.24612" lon="6.83944">
        <ele>138.22</ele>
        <time>2026-08-12T12:26:42.503Z</time>
      </trkpt>
      <trkpt lat="49.24582" lon="6.83944">
        <ele>139.5</ele>
        <time>2026-08-12T12:26:48.499Z</time>
      </trkpt>
      <trkpt lat="49.24565" lon="6.83918">
        <ele>140.08</ele>
        <time>2026-08-12T12:26:54.515Z</time>
      </trkpt>
      <trkpt lat="49.24549" lon="6.8394">
        <ele>139.99</ele>
        <time>2026-08-12T12:27:00.528Z</time>
      </trkpt>
      <trkpt lat="49.24531" lon="6.8397">
        <ele>140.48</ele>
        <time>2026-08-12T12:27:06.504Z</time>
      </trkpt>
      <trkpt lat="49.24506" lon="6.84004">
        <ele>137.31</ele>
        <time>2026-08-12T12:27:12.522Z</time>
      </trkpt>
      <trkpt lat="49.24476" lon="6.84038">
        <ele>134.22</ele>
        <time>2026-08-12T12:27:18.520Z</time>
      </trkpt>
      <trkpt lat="49.24445" lon="6.84074">
        <ele>132.98</ele>
        <time>2026-08-12T12:27:24.540Z</time>
      </trkpt>
      <trkpt lat="49.24414" lon="6.84109">
        <ele>134.07</ele>
        <time>2026-08-12T12:27:30.523Z</time>
      </trkpt>
      <trkpt lat="49.24382" lon="6.84148">
        <ele>137.72</ele>
        <time>2026-08-12T12:27:36.518Z</time>
      </trkpt>
      <trkpt lat="49.24354" lon="6.8419">
        <ele>140.77</ele>
        <time>2026-08-12T12:27:42.513Z</time>
      </trkpt>
      <trkpt lat="49.24331" lon="6.84236">
        <ele>137.94</ele>
        <time>2026-08-12T12:27:48.512Z</time>
      </trkpt>
      <trkpt lat="49.24309" lon="6.84287">
        <ele>134.31</ele>
        <time>2026-08-12T12:27:54.539Z</time>
      </trkpt>
      <trkpt lat="49.24288" lon="6.84338">
        <ele>132.84</ele>
        <time>2026-08-12T12:28:00.534Z</time>
      </trkpt>
      <trkpt lat="49.24269" lon="6.84387">
        <ele>130.57</ele>
        <time>2026-08-12T12:28:06.516Z</time>
      </trkpt>
      <trkpt lat="49.24253" lon="6.84439">
        <ele>130.95</ele>
        <time>2026-08-12T12:28:12.515Z</time>
      </trkpt>
      <trkpt lat="49.24239" lon="6.84494">
        <ele>131.33</ele>
        <time>2026-08-12T12:28:18.516Z</time>
      </trkpt>
      <trkpt lat="49.24227" lon="6.84551">
        <ele>131.94</ele>
        <time>2026-08-12T12:28:24.494Z</time>
      </trkpt>
      <trkpt lat="49.24216" lon="6.84606">
        <ele>131.02</ele>
        <time>2026-08-12T12:28:30.537Z</time>
      </trkpt>
      <trkpt lat="49.24207" lon="6.84662">
        <ele>130.7</ele>
        <time>2026-08-12T12:28:36.518Z</time>
      </trkpt>
      <trkpt lat="49.24198" lon="6.84717">
        <ele>130.6</ele>
        <time>2026-08-12T12:28:42.515Z</time>
      </trkpt>
      <trkpt lat="49.24192" lon="6.8477">
        <ele>129.31</ele>
        <time>2026-08-12T12:28:48.517Z</time>
      </trkpt>
      <trkpt lat="49.24188" lon="6.84823">
        <ele>131.82</ele>
        <time>2026-08-12T12:28:54.537Z</time>
      </trkpt>
      <trkpt lat="49.24182" lon="6.84878">
        <ele>132.76</ele>
        <time>2026-08-12T12:29:00.533Z</time>
      </trkpt>
      <trkpt lat="49.24175" lon="6.84931">
        <ele>132.37</ele>
        <time>2026-08-12T12:29:06.515Z</time>
      </trkpt>
      <trkpt lat="49.24168" lon="6.8498">
        <ele>131.28</ele>
        <time>2026-08-12T12:29:12.516Z</time>
      </trkpt>
      <trkpt lat="49.24165" lon="6.85029">
        <ele>131.44</ele>
        <time>2026-08-12T12:29:18.516Z</time>
      </trkpt>
      <trkpt lat="49.24161" lon="6.8508">
        <ele>131.46</ele>
        <time>2026-08-12T12:29:24.539Z</time>
      </trkpt>
      <trkpt lat="49.24157" lon="6.85131">
        <ele>132</ele>
        <time>2026-08-12T12:29:30.535Z</time>
      </trkpt>
      <trkpt lat="49.24154" lon="6.85183">
        <ele>132.31</ele>
        <time>2026-08-12T12:29:36.518Z</time>
      </trkpt>
      <trkpt lat="49.24147" lon="6.85232">
        <ele>132.77</ele>
        <time>2026-08-12T12:29:42.510Z</time>
      </trkpt>
      <trkpt lat="49.24143" lon="6.85284">
        <ele>132.28</ele>
        <time>2026-08-12T12:29:48.514Z</time>
      </trkpt>
      <trkpt lat="49.24143" lon="6.85342">
        <ele>131.77</ele>
        <time>2026-08-12T12:29:54.537Z</time>
      </trkpt>
      <trkpt lat="49.24139" lon="6.85396">
        <ele>131.4</ele>
        <time>2026-08-12T12:30:00.534Z</time>
      </trkpt>
      <trkpt lat="49.24141" lon="6.85449">
        <ele>131.4</ele>
        <time>2026-08-12T12:30:06.518Z</time>
      </trkpt>
      <trkpt lat="49.24143" lon="6.85501">
        <ele>130.62</ele>
        <time>2026-08-12T12:30:12.515Z</time>
      </trkpt>
      <trkpt lat="49.24143" lon="6.85552">
        <ele>129.2</ele>
        <time>2026-08-12T12:30:18.514Z</time>
      </trkpt>
      <trkpt lat="49.24147" lon="6.85604">
        <ele>129.68</ele>
        <time>2026-08-12T12:30:24.540Z</time>
      </trkpt>
      <trkpt lat="49.24162" lon="6.85652">
        <ele>130.63</ele>
        <time>2026-08-12T12:30:30.511Z</time>
      </trkpt>
      <trkpt lat="49.24171" lon="6.85701">
        <ele>132.62</ele>
        <time>2026-08-12T12:30:36.521Z</time>
      </trkpt>
      <trkpt lat="49.24183" lon="6.85747">
        <ele>132.42</ele>
        <time>2026-08-12T12:30:42.520Z</time>
      </trkpt>
      <trkpt lat="49.24199" lon="6.85792">
        <ele>131.99</ele>
        <time>2026-08-12T12:30:48.520Z</time>
      </trkpt>
      <trkpt lat="49.24218" lon="6.85834">
        <ele>132.85</ele>
        <time>2026-08-12T12:30:54.493Z</time>
      </trkpt>
      <trkpt lat="49.24235" lon="6.85877">
        <ele>133.03</ele>
        <time>2026-08-12T12:31:00.535Z</time>
      </trkpt>
      <trkpt lat="49.24252" lon="6.85918">
        <ele>135.28</ele>
        <time>2026-08-12T12:31:06.523Z</time>
      </trkpt>
      <trkpt lat="49.2427" lon="6.85952">
        <ele>138.21</ele>
        <time>2026-08-12T12:31:12.519Z</time>
      </trkpt>
      <trkpt lat="49.24292" lon="6.85983">
        <ele>139.36</ele>
        <time>2026-08-12T12:31:18.521Z</time>
      </trkpt>
      <trkpt lat="49.24316" lon="6.86009">
        <ele>138.89</ele>
        <time>2026-08-12T12:31:24.539Z</time>
      </trkpt>
      <trkpt lat="49.24341" lon="6.86031">
        <ele>137.51</ele>
        <time>2026-08-12T12:31:30.534Z</time>
      </trkpt>
      <trkpt lat="49.24369" lon="6.86051">
        <ele>136.64</ele>
        <time>2026-08-12T12:31:36.524Z</time>
      </trkpt>
      <trkpt lat="49.24397" lon="6.86067">
        <ele>135.71</ele>
        <time>2026-08-12T12:31:42.525Z</time>
      </trkpt>
      <trkpt lat="49.24426" lon="6.86086">
        <ele>134.01</ele>
        <time>2026-08-12T12:31:48.521Z</time>
      </trkpt>
      <trkpt lat="49.24457" lon="6.86103">
        <ele>134.16</ele>
        <time>2026-08-12T12:31:54.542Z</time>
      </trkpt>
      <trkpt lat="49.24491" lon="6.86119">
        <ele>133.7</ele>
        <time>2026-08-12T12:32:00.540Z</time>
      </trkpt>
      <trkpt lat="49.24526" lon="6.86129">
        <ele>132.37</ele>
        <time>2026-08-12T12:32:06.524Z</time>
      </trkpt>
      <trkpt lat="49.24557" lon="6.86138">
        <ele>133.33</ele>
        <time>2026-08-12T12:32:12.522Z</time>
      </trkpt>
      <trkpt lat="49.24568" lon="6.86191">
        <ele>133.53</ele>
        <time>2026-08-12T12:32:18.527Z</time>
      </trkpt>
      <trkpt lat="49.2459" lon="6.86228">
        <ele>134.79</ele>
        <time>2026-08-12T12:32:24.543Z</time>
      </trkpt>
      <trkpt lat="49.24616" lon="6.86259">
        <ele>136.12</ele>
        <time>2026-08-12T12:32:30.527Z</time>
      </trkpt>
      <trkpt lat="49.24643" lon="6.8629">
        <ele>137.76</ele>
        <time>2026-08-12T12:32:36.519Z</time>
      </trkpt>
      <trkpt lat="49.24671" lon="6.86322">
        <ele>138.71</ele>
        <time>2026-08-12T12:32:42.506Z</time>
      </trkpt>
      <trkpt lat="49.24698" lon="6.86354">
        <ele>138.74</ele>
        <time>2026-08-12T12:32:48.517Z</time>
      </trkpt>
      <trkpt lat="49.24725" lon="6.86388">
        <ele>138.49</ele>
        <time>2026-08-12T12:32:54.541Z</time>
      </trkpt>
      <trkpt lat="49.2475" lon="6.86422">
        <ele>138.13</ele>
        <time>2026-08-12T12:33:00.528Z</time>
      </trkpt>
      <trkpt lat="49.24775" lon="6.86458">
        <ele>138.05</ele>
        <time>2026-08-12T12:33:06.515Z</time>
      </trkpt>
      <trkpt lat="49.24797" lon="6.86497">
        <ele>138.72</ele>
        <time>2026-08-12T12:33:12.524Z</time>
      </trkpt>
      <trkpt lat="49.24819" lon="6.86538">
        <ele>138.87</ele>
        <time>2026-08-12T12:33:18.517Z</time>
      </trkpt>
      <trkpt lat="49.2484" lon="6.8658">
        <ele>139.12</ele>
        <time>2026-08-12T12:33:24.540Z</time>
      </trkpt>
      <trkpt lat="49.24859" lon="6.86622">
        <ele>139.72</ele>
        <time>2026-08-12T12:33:30.532Z</time>
      </trkpt>
      <trkpt lat="49.24884" lon="6.86654">
        <ele>139.47</ele>
        <time>2026-08-12T12:33:36.517Z</time>
      </trkpt>
      <trkpt lat="49.24914" lon="6.86677">
        <ele>139.49</ele>
        <time>2026-08-12T12:33:42.517Z</time>
      </trkpt>
      <trkpt lat="49.24936" lon="6.86717">
        <ele>139.25</ele>
        <time>2026-08-12T12:33:48.516Z</time>
      </trkpt>
      <trkpt lat="49.2495" lon="6.86764">
        <ele>139.36</ele>
        <time>2026-08-12T12:33:54.545Z</time>
      </trkpt>
      <trkpt lat="49.24966" lon="6.86809">
        <ele>139.34</ele>
        <time>2026-08-12T12:34:00.529Z</time>
      </trkpt>
      <trkpt lat="49.24984" lon="6.86854">
        <ele>139.84</ele>
        <time>2026-08-12T12:34:06.526Z</time>
      </trkpt>
      <trkpt lat="49.24985" lon="6.869">
        <ele>139.26</ele>
        <time>2026-08-12T12:34:12.520Z</time>
      </trkpt>
      <trkpt lat="49.24966" lon="6.86935">
        <ele>138.76</ele>
        <time>2026-08-12T12:34:18.524Z</time>
      </trkpt>
      <trkpt lat="49.24975" lon="6.86981">
        <ele>139.28</ele>
        <time>2026-08-12T12:34:24.541Z</time>
      </trkpt>
      <trkpt lat="49.24985" lon="6.8703">
        <ele>140.3</ele>
        <time>2026-08-12T12:34:30.541Z</time>
      </trkpt>
      <trkpt lat="49.24995" lon="6.87078">
        <ele>140.48</ele>
        <time>2026-08-12T12:34:36.521Z</time>
      </trkpt>
      <trkpt lat="49.25006" lon="6.87126">
        <ele>141.24</ele>
        <time>2026-08-12T12:34:42.520Z</time>
      </trkpt>
      <trkpt lat="49.25019" lon="6.87174">
        <ele>141.82</ele>
        <time>2026-08-12T12:34:48.521Z</time>
      </trkpt>
      <trkpt lat="49.25033" lon="6.87225">
        <ele>141.41</ele>
        <time>2026-08-12T12:34:54.535Z</time>
      </trkpt>
      <trkpt lat="49.25055" lon="6.87275">
        <ele>140.27</ele>
        <time>2026-08-12T12:35:00.527Z</time>
      </trkpt>
      <trkpt lat="49.25071" lon="6.87326">
        <ele>140.35</ele>
        <time>2026-08-12T12:35:06.522Z</time>
      </trkpt>
      <trkpt lat="49.2508" lon="6.87378">
        <ele>139.13</ele>
        <time>2026-08-12T12:35:12.519Z</time>
      </trkpt>
      <trkpt lat="49.25093" lon="6.87427">
        <ele>138.11</ele>
        <time>2026-08-12T12:35:18.521Z</time>
      </trkpt>
      <trkpt lat="49.25104" lon="6.87473">
        <ele>138.65</ele>
        <time>2026-08-12T12:35:24.503Z</time>
      </trkpt>
      <trkpt lat="49.25113" lon="6.8752">
        <ele>139.78</ele>
        <time>2026-08-12T12:35:30.495Z</time>
      </trkpt>
      <trkpt lat="49.25123" lon="6.87567">
        <ele>140.44</ele>
        <time>2026-08-12T12:35:36.519Z</time>
      </trkpt>
      <trkpt lat="49.25128" lon="6.87615">
        <ele>139.73</ele>
        <time>2026-08-12T12:35:42.523Z</time>
      </trkpt>
      <trkpt lat="49.25133" lon="6.87665">
        <ele>140.61</ele>
        <time>2026-08-12T12:35:48.527Z</time>
      </trkpt>
      <trkpt lat="49.25135" lon="6.87716">
        <ele>139.84</ele>
        <time>2026-08-12T12:35:54.475Z</time>
      </trkpt>
      <trkpt lat="49.25136" lon="6.87765">
        <ele>140.03</ele>
        <time>2026-08-12T12:36:00.524Z</time>
      </trkpt>
      <trkpt lat="49.25136" lon="6.87811">
        <ele>141.99</ele>
        <time>2026-08-12T12:36:06.522Z</time>
      </trkpt>
      <trkpt lat="49.25134" lon="6.87856">
        <ele>142.06</ele>
        <time>2026-08-12T12:36:12.520Z</time>
      </trkpt>
      <trkpt lat="49.2513" lon="6.87902">
        <ele>141.63</ele>
        <time>2026-08-12T12:36:18.519Z</time>
      </trkpt>
      <trkpt lat="49.25127" lon="6.87949">
        <ele>142.68</ele>
        <time>2026-08-12T12:36:24.528Z</time>
      </trkpt>
      <trkpt lat="49.25121" lon="6.87998">
        <ele>142.19</ele>
        <time>2026-08-12T12:36:30.503Z</time>
      </trkpt>
      <trkpt lat="49.25114" lon="6.88048">
        <ele>143.32</ele>
        <time>2026-08-12T12:36:36.520Z</time>
      </trkpt>
      <trkpt lat="49.25106" lon="6.88099">
        <ele>144.05</ele>
        <time>2026-08-12T12:36:42.524Z</time>
      </trkpt>
      <trkpt lat="49.25098" lon="6.88147">
        <ele>144.2</ele>
        <time>2026-08-12T12:36:48.522Z</time>
      </trkpt>
      <trkpt lat="49.25087" lon="6.882">
        <ele>142.44</ele>
        <time>2026-08-12T12:36:54.532Z</time>
      </trkpt>
      <trkpt lat="49.25077" lon="6.88253">
        <ele>139.5</ele>
        <time>2026-08-12T12:37:00.528Z</time>
      </trkpt>
      <trkpt lat="49.25064" lon="6.88303">
        <ele>139.31</ele>
        <time>2026-08-12T12:37:06.523Z</time>
      </trkpt>
      <trkpt lat="49.25052" lon="6.88355">
        <ele>139.55</ele>
        <time>2026-08-12T12:37:12.526Z</time>
      </trkpt>
      <trkpt lat="49.25041" lon="6.88422">
        <ele>137.32</ele>
        <time>2026-08-12T12:37:18.522Z</time>
      </trkpt>
      <trkpt lat="49.25021" lon="6.88478">
        <ele>134.9</ele>
        <time>2026-08-12T12:37:24.532Z</time>
      </trkpt>
      <trkpt lat="49.25002" lon="6.88533">
        <ele>134.09</ele>
        <time>2026-08-12T12:37:30.528Z</time>
      </trkpt>
      <trkpt lat="49.24984" lon="6.88581">
        <ele>136.1</ele>
        <time>2026-08-12T12:37:36.522Z</time>
      </trkpt>
      <trkpt lat="49.24964" lon="6.88621">
        <ele>134.71</ele>
        <time>2026-08-12T12:37:42.521Z</time>
      </trkpt>
      <trkpt lat="49.24949" lon="6.88656">
        <ele>135.64</ele>
        <time>2026-08-12T12:37:48.522Z</time>
      </trkpt>
      <trkpt lat="49.24935" lon="6.88702">
        <ele>138.7</ele>
        <time>2026-08-12T12:37:54.529Z</time>
      </trkpt>
      <trkpt lat="49.24921" lon="6.88746">
        <ele>140.77</ele>
        <time>2026-08-12T12:38:00.527Z</time>
      </trkpt>
      <trkpt lat="49.24907" lon="6.88791">
        <ele>141.04</ele>
        <time>2026-08-12T12:38:06.522Z</time>
      </trkpt>
      <trkpt lat="49.24893" lon="6.88839">
        <ele>139.67</ele>
        <time>2026-08-12T12:38:12.524Z</time>
      </trkpt>
      <trkpt lat="49.24878" lon="6.88886">
        <ele>139.43</ele>
        <time>2026-08-12T12:38:18.525Z</time>
      </trkpt>
      <trkpt lat="49.24863" lon="6.88936">
        <ele>139.37</ele>
        <time>2026-08-12T12:38:24.528Z</time>
      </trkpt>
      <trkpt lat="49.2485" lon="6.88986">
        <ele>138.82</ele>
        <time>2026-08-12T12:38:30.529Z</time>
      </trkpt>
      <trkpt lat="49.24837" lon="6.89036">
        <ele>137.72</ele>
        <time>2026-08-12T12:38:36.524Z</time>
      </trkpt>
      <trkpt lat="49.24825" lon="6.89088">
        <ele>137.48</ele>
        <time>2026-08-12T12:38:42.520Z</time>
      </trkpt>
      <trkpt lat="49.24813" lon="6.89142">
        <ele>137.91</ele>
        <time>2026-08-12T12:38:48.523Z</time>
      </trkpt>
      <trkpt lat="49.24802" lon="6.89202">
        <ele>136.83</ele>
        <time>2026-08-12T12:38:54.529Z</time>
      </trkpt>
      <trkpt lat="49.24791" lon="6.89262">
        <ele>136.21</ele>
        <time>2026-08-12T12:39:00.530Z</time>
      </trkpt>
      <trkpt lat="49.24782" lon="6.89324">
        <ele>134.22</ele>
        <time>2026-08-12T12:39:06.524Z</time>
      </trkpt>
      <trkpt lat="49.24773" lon="6.89384">
        <ele>134.02</ele>
        <time>2026-08-12T12:39:12.526Z</time>
      </trkpt>
      <trkpt lat="49.24765" lon="6.8944">
        <ele>135.18</ele>
        <time>2026-08-12T12:39:18.523Z</time>
      </trkpt>
      <trkpt lat="49.24757" lon="6.89494">
        <ele>134.82</ele>
        <time>2026-08-12T12:39:24.532Z</time>
      </trkpt>
      <trkpt lat="49.24751" lon="6.89545">
        <ele>133.45</ele>
        <time>2026-08-12T12:39:30.525Z</time>
      </trkpt>
      <trkpt lat="49.24744" lon="6.89597">
        <ele>133.06</ele>
        <time>2026-08-12T12:39:36.520Z</time>
      </trkpt>
      <trkpt lat="49.24738" lon="6.89649">
        <ele>134.14</ele>
        <time>2026-08-12T12:39:42.522Z</time>
      </trkpt>
      <trkpt lat="49.24731" lon="6.89702">
        <ele>134.34</ele>
        <time>2026-08-12T12:39:48.520Z</time>
      </trkpt>
      <trkpt lat="49.24724" lon="6.89757">
        <ele>134.92</ele>
        <time>2026-08-12T12:39:54.532Z</time>
      </trkpt>
      <trkpt lat="49.24716" lon="6.8981">
        <ele>135.08</ele>
        <time>2026-08-12T12:40:00.534Z</time>
      </trkpt>
      <trkpt lat="49.24708" lon="6.89862">
        <ele>135.52</ele>
        <time>2026-08-12T12:40:06.523Z</time>
      </trkpt>
      <trkpt lat="49.247" lon="6.89915">
        <ele>135.01</ele>
        <time>2026-08-12T12:40:12.519Z</time>
      </trkpt>
      <trkpt lat="49.24693" lon="6.89968">
        <ele>134.79</ele>
        <time>2026-08-12T12:40:18.524Z</time>
      </trkpt>
      <trkpt lat="49.24685" lon="6.90018">
        <ele>135.25</ele>
        <time>2026-08-12T12:40:24.534Z</time>
      </trkpt>
      <trkpt lat="49.24678" lon="6.90069">
        <ele>134.69</ele>
        <time>2026-08-12T12:40:30.530Z</time>
      </trkpt>
      <trkpt lat="49.24669" lon="6.90118">
        <ele>132.32</ele>
        <time>2026-08-12T12:40:36.520Z</time>
      </trkpt>
      <trkpt lat="49.2466" lon="6.90168">
        <ele>132.98</ele>
        <time>2026-08-12T12:40:42.526Z</time>
      </trkpt>
      <trkpt lat="49.24654" lon="6.9022">
        <ele>134.22</ele>
        <time>2026-08-12T12:40:48.523Z</time>
      </trkpt>
      <trkpt lat="49.24647" lon="6.90272">
        <ele>132.97</ele>
        <time>2026-08-12T12:40:54.499Z</time>
      </trkpt>
      <trkpt lat="49.24642" lon="6.90318">
        <ele>133.13</ele>
        <time>2026-08-12T12:41:00.529Z</time>
      </trkpt>
      <trkpt lat="49.24635" lon="6.9037">
        <ele>133.04</ele>
        <time>2026-08-12T12:41:06.524Z</time>
      </trkpt>
      <trkpt lat="49.2463" lon="6.90421">
        <ele>134.43</ele>
        <time>2026-08-12T12:41:12.521Z</time>
      </trkpt>
      <trkpt lat="49.24624" lon="6.90468">
        <ele>134.4</ele>
        <time>2026-08-12T12:41:18.520Z</time>
      </trkpt>
      <trkpt lat="49.24619" lon="6.90513">
        <ele>134.06</ele>
        <time>2026-08-12T12:41:24.536Z</time>
      </trkpt>
      <trkpt lat="49.24614" lon="6.9056">
        <ele>134.93</ele>
        <time>2026-08-12T12:41:30.527Z</time>
      </trkpt>
      <trkpt lat="49.24603" lon="6.90606">
        <ele>134.99</ele>
        <time>2026-08-12T12:41:36.521Z</time>
      </trkpt>
      <trkpt lat="49.24592" lon="6.90651">
        <ele>135.03</ele>
        <time>2026-08-12T12:41:42.523Z</time>
      </trkpt>
      <trkpt lat="49.24577" lon="6.90694">
        <ele>135.64</ele>
        <time>2026-08-12T12:41:48.521Z</time>
      </trkpt>
      <trkpt lat="49.24568" lon="6.90742">
        <ele>136.58</ele>
        <time>2026-08-12T12:41:54.524Z</time>
      </trkpt>
      <trkpt lat="49.24564" lon="6.90792">
        <ele>136.41</ele>
        <time>2026-08-12T12:42:00.531Z</time>
      </trkpt>
      <trkpt lat="49.24561" lon="6.9084">
        <ele>136.59</ele>
        <time>2026-08-12T12:42:06.520Z</time>
      </trkpt>
      <trkpt lat="49.24558" lon="6.90887">
        <ele>135.45</ele>
        <time>2026-08-12T12:42:12.519Z</time>
      </trkpt>
      <trkpt lat="49.2455" lon="6.90932">
        <ele>136.16</ele>
        <time>2026-08-12T12:42:18.521Z</time>
      </trkpt>
      <trkpt lat="49.24544" lon="6.90977">
        <ele>137.58</ele>
        <time>2026-08-12T12:42:24.533Z</time>
      </trkpt>
      <trkpt lat="49.24537" lon="6.9103">
        <ele>137.83</ele>
        <time>2026-08-12T12:42:30.527Z</time>
      </trkpt>
      <trkpt lat="49.24529" lon="6.91086">
        <ele>139.37</ele>
        <time>2026-08-12T12:42:36.521Z</time>
      </trkpt>
      <trkpt lat="49.24515" lon="6.91141">
        <ele>138.23</ele>
        <time>2026-08-12T12:42:42.519Z</time>
      </trkpt>
      <trkpt lat="49.245" lon="6.91196">
        <ele>136.78</ele>
        <time>2026-08-12T12:42:48.523Z</time>
      </trkpt>
      <trkpt lat="49.24491" lon="6.91253">
        <ele>135.97</ele>
        <time>2026-08-12T12:42:54.536Z</time>
      </trkpt>
      <trkpt lat="49.24485" lon="6.91309">
        <ele>136.53</ele>
        <time>2026-08-12T12:43:00.530Z</time>
      </trkpt>
      <trkpt lat="49.24482" lon="6.91365">
        <ele>137.31</ele>
        <time>2026-08-12T12:43:06.524Z</time>
      </trkpt>
      <trkpt lat="49.24468" lon="6.91429">
        <ele>135.31</ele>
        <time>2026-08-12T12:43:12.524Z</time>
      </trkpt>
      <trkpt lat="49.24454" lon="6.91482">
        <ele>132.36</ele>
        <time>2026-08-12T12:43:18.526Z</time>
      </trkpt>
      <trkpt lat="49.24438" lon="6.91533">
        <ele>129.84</ele>
        <time>2026-08-12T12:43:24.501Z</time>
      </trkpt>
      <trkpt lat="49.24424" lon="6.91587">
        <ele>129.98</ele>
        <time>2026-08-12T12:43:30.531Z</time>
      </trkpt>
      <trkpt lat="49.24409" lon="6.91636">
        <ele>129.49</ele>
        <time>2026-08-12T12:43:36.522Z</time>
      </trkpt>
      <trkpt lat="49.24392" lon="6.91681">
        <ele>129.56</ele>
        <time>2026-08-12T12:43:42.520Z</time>
      </trkpt>
      <trkpt lat="49.24373" lon="6.9172">
        <ele>131.74</ele>
        <time>2026-08-12T12:43:48.523Z</time>
      </trkpt>
      <trkpt lat="49.2435" lon="6.91761">
        <ele>135.76</ele>
        <time>2026-08-12T12:43:54.533Z</time>
      </trkpt>
      <trkpt lat="49.2433" lon="6.91803">
        <ele>138.35</ele>
        <time>2026-08-12T12:44:00.525Z</time>
      </trkpt>
      <trkpt lat="49.2431" lon="6.91845">
        <ele>139.93</ele>
        <time>2026-08-12T12:44:06.522Z</time>
      </trkpt>
      <trkpt lat="49.2429" lon="6.91887">
        <ele>138.51</ele>
        <time>2026-08-12T12:44:12.521Z</time>
      </trkpt>
      <trkpt lat="49.24275" lon="6.91933">
        <ele>138.17</ele>
        <time>2026-08-12T12:44:18.522Z</time>
      </trkpt>
      <trkpt lat="49.24261" lon="6.91981">
        <ele>138.3</ele>
        <time>2026-08-12T12:44:24.534Z</time>
      </trkpt>
      <trkpt lat="49.24247" lon="6.92032">
        <ele>137.64</ele>
        <time>2026-08-12T12:44:30.532Z</time>
      </trkpt>
      <trkpt lat="49.24233" lon="6.92083">
        <ele>136.7</ele>
        <time>2026-08-12T12:44:36.520Z</time>
      </trkpt>
      <trkpt lat="49.24219" lon="6.92134">
        <ele>135.89</ele>
        <time>2026-08-12T12:44:42.520Z</time>
      </trkpt>
      <trkpt lat="49.24203" lon="6.92184">
        <ele>135.6</ele>
        <time>2026-08-12T12:44:48.523Z</time>
      </trkpt>
      <trkpt lat="49.24189" lon="6.92235">
        <ele>135.34</ele>
        <time>2026-08-12T12:44:54.538Z</time>
      </trkpt>
      <trkpt lat="49.24175" lon="6.92283">
        <ele>134.85</ele>
        <time>2026-08-12T12:45:00.531Z</time>
      </trkpt>
      <trkpt lat="49.24161" lon="6.92333">
        <ele>135.53</ele>
        <time>2026-08-12T12:45:06.523Z</time>
      </trkpt>
      <trkpt lat="49.24145" lon="6.92381">
        <ele>136.27</ele>
        <time>2026-08-12T12:45:12.517Z</time>
      </trkpt>
      <trkpt lat="49.24128" lon="6.92427">
        <ele>138.14</ele>
        <time>2026-08-12T12:45:18.522Z</time>
      </trkpt>
      <trkpt lat="49.2411" lon="6.92475">
        <ele>137.75</ele>
        <time>2026-08-12T12:45:24.533Z</time>
      </trkpt>
      <trkpt lat="49.24094" lon="6.92525">
        <ele>138.12</ele>
        <time>2026-08-12T12:45:30.531Z</time>
      </trkpt>
      <trkpt lat="49.2408" lon="6.92574">
        <ele>137.62</ele>
        <time>2026-08-12T12:45:36.523Z</time>
      </trkpt>
      <trkpt lat="49.24065" lon="6.92623">
        <ele>137.66</ele>
        <time>2026-08-12T12:45:42.521Z</time>
      </trkpt>
      <trkpt lat="49.2405" lon="6.92673">
        <ele>137.92</ele>
        <time>2026-08-12T12:45:48.524Z</time>
      </trkpt>
      <trkpt lat="49.24034" lon="6.92724">
        <ele>137.73</ele>
        <time>2026-08-12T12:45:54.532Z</time>
      </trkpt>
      <trkpt lat="49.24022" lon="6.92767">
        <ele>139.56</ele>
        <time>2026-08-12T12:46:00.524Z</time>
      </trkpt>
      <trkpt lat="49.24014" lon="6.92798">
        <ele>141.83</ele>
        <time>2026-08-12T12:46:06.522Z</time>
      </trkpt>
      <trkpt lat="49.24007" lon="6.92823">
        <ele>144.94</ele>
        <time>2026-08-12T12:46:12.524Z</time>
      </trkpt>
      <trkpt lat="49.23999" lon="6.92851">
        <ele>146.78</ele>
        <time>2026-08-12T12:46:18.522Z</time>
      </trkpt>
      <trkpt lat="49.23993" lon="6.92871">
        <ele>146.89</ele>
        <time>2026-08-12T12:46:24.537Z</time>
      </trkpt>
      <trkpt lat="49.23987" lon="6.92892">
        <ele>146.56</ele>
        <time>2026-08-12T12:46:30.534Z</time>
      </trkpt>
      <trkpt lat="49.23981" lon="6.92915">
        <ele>146.14</ele>
        <time>2026-08-12T12:46:36.522Z</time>
      </trkpt>
      <trkpt lat="49.23976" lon="6.92936">
        <ele>146.28</ele>
        <time>2026-08-12T12:46:42.519Z</time>
      </trkpt>
      <trkpt lat="49.23962" lon="6.92969">
        <ele>144.01</ele>
        <time>2026-08-12T12:46:48.521Z</time>
      </trkpt>
      <trkpt lat="49.23951" lon="6.93019">
        <ele>141.32</ele>
        <time>2026-08-12T12:46:54.532Z</time>
      </trkpt>
      <trkpt lat="49.23944" lon="6.93071">
        <ele>139.63</ele>
        <time>2026-08-12T12:47:00.534Z</time>
      </trkpt>
      <trkpt lat="49.23937" lon="6.93121">
        <ele>139.55</ele>
        <time>2026-08-12T12:47:06.522Z</time>
      </trkpt>
      <trkpt lat="49.2393" lon="6.93166">
        <ele>139.03</ele>
        <time>2026-08-12T12:47:12.525Z</time>
      </trkpt>
      <trkpt lat="49.23926" lon="6.93212">
        <ele>138.29</ele>
        <time>2026-08-12T12:47:18.533Z</time>
      </trkpt>
      <trkpt lat="49.23923" lon="6.93259">
        <ele>137.59</ele>
        <time>2026-08-12T12:47:24.540Z</time>
      </trkpt>
      <trkpt lat="49.23921" lon="6.93309">
        <ele>136.57</ele>
        <time>2026-08-12T12:47:30.533Z</time>
      </trkpt>
      <trkpt lat="49.23921" lon="6.93359">
        <ele>136.89</ele>
        <time>2026-08-12T12:47:36.531Z</time>
      </trkpt>
      <trkpt lat="49.23921" lon="6.9341">
        <ele>136.66</ele>
        <time>2026-08-12T12:47:42.531Z</time>
      </trkpt>
      <trkpt lat="49.23922" lon="6.93463">
        <ele>136.24</ele>
        <time>2026-08-12T12:47:48.533Z</time>
      </trkpt>
      <trkpt lat="49.23924" lon="6.9351">
        <ele>138.68</ele>
        <time>2026-08-12T12:47:54.537Z</time>
      </trkpt>
      <trkpt lat="49.2392" lon="6.93549">
        <ele>136.45</ele>
        <time>2026-08-12T12:48:00.494Z</time>
      </trkpt>
      <trkpt lat="49.23918" lon="6.93599">
        <ele>135.66</ele>
        <time>2026-08-12T12:48:06.533Z</time>
      </trkpt>
      <trkpt lat="49.23914" lon="6.93646">
        <ele>135.85</ele>
        <time>2026-08-12T12:48:12.532Z</time>
      </trkpt>
      <trkpt lat="49.2391" lon="6.93694">
        <ele>136.82</ele>
        <time>2026-08-12T12:48:18.533Z</time>
      </trkpt>
      <trkpt lat="49.23904" lon="6.93742">
        <ele>137</ele>
        <time>2026-08-12T12:48:24.503Z</time>
      </trkpt>
      <trkpt lat="49.23898" lon="6.93784">
        <ele>137.01</ele>
        <time>2026-08-12T12:48:30.539Z</time>
      </trkpt>
      <trkpt lat="49.23892" lon="6.93828">
        <ele>136.97</ele>
        <time>2026-08-12T12:48:36.534Z</time>
      </trkpt>
      <trkpt lat="49.23883" lon="6.9387">
        <ele>135.95</ele>
        <time>2026-08-12T12:48:42.535Z</time>
      </trkpt>
      <trkpt lat="49.23873" lon="6.93917">
        <ele>135.9</ele>
        <time>2026-08-12T12:48:48.534Z</time>
      </trkpt>
      <trkpt lat="49.23863" lon="6.93964">
        <ele>136.66</ele>
        <time>2026-08-12T12:48:54.539Z</time>
      </trkpt>
      <trkpt lat="49.23851" lon="6.94011">
        <ele>136.47</ele>
        <time>2026-08-12T12:49:00.524Z</time>
      </trkpt>
      <trkpt lat="49.2384" lon="6.94058">
        <ele>136.35</ele>
        <time>2026-08-12T12:49:06.534Z</time>
      </trkpt>
      <trkpt lat="49.23828" lon="6.94099">
        <ele>136.38</ele>
        <time>2026-08-12T12:49:12.530Z</time>
      </trkpt>
      <trkpt lat="49.23817" lon="6.94137">
        <ele>136.1</ele>
        <time>2026-08-12T12:49:18.522Z</time>
      </trkpt>
      <trkpt lat="49.23812" lon="6.94159">
        <ele>136.23</ele>
        <time>2026-08-12T12:49:23.555Z</time>
      </trkpt>
      <trkpt lat="49.23802" lon="6.94197">
        <ele>136.37</ele>
        <time>2026-08-12T12:49:28.559Z</time>
      </trkpt>
      <trkpt lat="49.2379" lon="6.94239">
        <ele>134.53</ele>
        <time>2026-08-12T12:49:34.513Z</time>
      </trkpt>
      <trkpt lat="49.23781" lon="6.94276">
        <ele>134.88</ele>
        <time>2026-08-12T12:49:39.588Z</time>
      </trkpt>
      <trkpt lat="49.23775" lon="6.94317">
        <ele>135.7</ele>
        <time>2026-08-12T12:49:44.779Z</time>
      </trkpt>
      <trkpt lat="49.23763" lon="6.94361">
        <ele>136</ele>
        <time>2026-08-12T12:49:50.667Z</time>
      </trkpt>
      <trkpt lat="49.23746" lon="6.944">
        <ele>135.13</ele>
        <time>2026-08-12T12:49:56.555Z</time>
      </trkpt>
      <trkpt lat="49.23731" lon="6.94439">
        <ele>136.4</ele>
        <time>2026-08-12T12:50:02.596Z</time>
      </trkpt>
      <trkpt lat="49.23715" lon="6.94482">
        <ele>138.37</ele>
        <time>2026-08-12T12:50:08.539Z</time>
      </trkpt>
      <trkpt lat="49.23701" lon="6.94522">
        <ele>138.23</ele>
        <time>2026-08-12T12:50:14.541Z</time>
      </trkpt>
      <trkpt lat="49.23686" lon="6.94565">
        <ele>139.83</ele>
        <time>2026-08-12T12:50:20.531Z</time>
      </trkpt>
      <trkpt lat="49.23669" lon="6.94602">
        <ele>138.42</ele>
        <time>2026-08-12T12:50:26.559Z</time>
      </trkpt>
      <trkpt lat="49.23651" lon="6.9464">
        <ele>137.23</ele>
        <time>2026-08-12T12:50:32.546Z</time>
      </trkpt>
      <trkpt lat="49.23634" lon="6.94678">
        <ele>137.04</ele>
        <time>2026-08-12T12:50:38.550Z</time>
      </trkpt>
      <trkpt lat="49.23619" lon="6.94718">
        <ele>136.84</ele>
        <time>2026-08-12T12:50:44.556Z</time>
      </trkpt>
      <trkpt lat="49.23603" lon="6.94758">
        <ele>138.15</ele>
        <time>2026-08-12T12:50:50.535Z</time>
      </trkpt>
      <trkpt lat="49.23585" lon="6.94799">
        <ele>137.35</ele>
        <time>2026-08-12T12:50:56.546Z</time>
      </trkpt>
      <trkpt lat="49.23566" lon="6.94842">
        <ele>136.16</ele>
        <time>2026-08-12T12:51:02.545Z</time>
      </trkpt>
      <trkpt lat="49.23547" lon="6.94881">
        <ele>136.56</ele>
        <time>2026-08-12T12:51:08.560Z</time>
      </trkpt>
      <trkpt lat="49.23529" lon="6.94921">
        <ele>137.7</ele>
        <time>2026-08-12T12:51:14.548Z</time>
      </trkpt>
      <trkpt lat="49.2351" lon="6.94963">
        <ele>139.35</ele>
        <time>2026-08-12T12:51:20.545Z</time>
      </trkpt>
      <trkpt lat="49.23491" lon="6.95004">
        <ele>140.26</ele>
        <time>2026-08-12T12:51:26.554Z</time>
      </trkpt>
      <trkpt lat="49.23469" lon="6.95041">
        <ele>140.35</ele>
        <time>2026-08-12T12:51:32.545Z</time>
      </trkpt>
      <trkpt lat="49.23446" lon="6.95071">
        <ele>139.58</ele>
        <time>2026-08-12T12:51:38.546Z</time>
      </trkpt>
      <trkpt lat="49.23424" lon="6.95114">
        <ele>139.47</ele>
        <time>2026-08-12T12:51:44.547Z</time>
      </trkpt>
      <trkpt lat="49.23404" lon="6.95156">
        <ele>139.87</ele>
        <time>2026-08-12T12:51:50.544Z</time>
      </trkpt>
      <trkpt lat="49.23386" lon="6.95197">
        <ele>139.4</ele>
        <time>2026-08-12T12:51:56.572Z</time>
      </trkpt>
      <trkpt lat="49.23372" lon="6.95239">
        <ele>140.64</ele>
        <time>2026-08-12T12:52:02.554Z</time>
      </trkpt>
      <trkpt lat="49.23362" lon="6.95281">
        <ele>140.16</ele>
        <time>2026-08-12T12:52:08.549Z</time>
      </trkpt>
      <trkpt lat="49.23355" lon="6.95327">
        <ele>138.92</ele>
        <time>2026-08-12T12:52:14.548Z</time>
      </trkpt>
      <trkpt lat="49.2335" lon="6.95371">
        <ele>138.47</ele>
        <time>2026-08-12T12:52:20.554Z</time>
      </trkpt>
      <trkpt lat="49.23351" lon="6.95416">
        <ele>138.79</ele>
        <time>2026-08-12T12:52:26.555Z</time>
      </trkpt>
      <trkpt lat="49.23353" lon="6.95464">
        <ele>137.18</ele>
        <time>2026-08-12T12:52:32.562Z</time>
      </trkpt>
      <trkpt lat="49.23356" lon="6.95508">
        <ele>137.63</ele>
        <time>2026-08-12T12:52:38.541Z</time>
      </trkpt>
      <trkpt lat="49.23357" lon="6.95552">
        <ele>137.62</ele>
        <time>2026-08-12T12:52:44.543Z</time>
      </trkpt>
      <trkpt lat="49.2336" lon="6.95598">
        <ele>135.81</ele>
        <time>2026-08-12T12:52:50.540Z</time>
      </trkpt>
      <trkpt lat="49.23362" lon="6.95642">
        <ele>136.66</ele>
        <time>2026-08-12T12:52:56.548Z</time>
      </trkpt>
      <trkpt lat="49.23364" lon="6.95688">
        <ele>137.83</ele>
        <time>2026-08-12T12:53:02.548Z</time>
      </trkpt>
      <trkpt lat="49.23366" lon="6.95732">
        <ele>139.1</ele>
        <time>2026-08-12T12:53:08.542Z</time>
      </trkpt>
      <trkpt lat="49.23368" lon="6.95776">
        <ele>138.32</ele>
        <time>2026-08-12T12:53:14.542Z</time>
      </trkpt>
      <trkpt lat="49.2337" lon="6.95822">
        <ele>136.85</ele>
        <time>2026-08-12T12:53:20.559Z</time>
      </trkpt>
      <trkpt lat="49.23373" lon="6.95868">
        <ele>136.17</ele>
        <time>2026-08-12T12:53:26.518Z</time>
      </trkpt>
      <trkpt lat="49.23375" lon="6.95913">
        <ele>134.86</ele>
        <time>2026-08-12T12:53:32.552Z</time>
      </trkpt>
      <trkpt lat="49.23375" lon="6.95959">
        <ele>134.48</ele>
        <time>2026-08-12T12:53:38.545Z</time>
      </trkpt>
      <trkpt lat="49.23376" lon="6.96006">
        <ele>134.14</ele>
        <time>2026-08-12T12:53:44.543Z</time>
      </trkpt>
      <trkpt lat="49.23376" lon="6.96049">
        <ele>134.17</ele>
        <time>2026-08-12T12:53:50.540Z</time>
      </trkpt>
      <trkpt lat="49.23377" lon="6.96094">
        <ele>133.71</ele>
        <time>2026-08-12T12:53:56.550Z</time>
      </trkpt>
      <trkpt lat="49.23384" lon="6.96142">
        <ele>132.83</ele>
        <time>2026-08-12T12:54:02.549Z</time>
      </trkpt>
      <trkpt lat="49.23387" lon="6.96185">
        <ele>132.44</ele>
        <time>2026-08-12T12:54:08.539Z</time>
      </trkpt>
      <trkpt lat="49.23383" lon="6.96229">
        <ele>129.86</ele>
        <time>2026-08-12T12:54:14.544Z</time>
      </trkpt>
      <trkpt lat="49.23387" lon="6.96271">
        <ele>132.27</ele>
        <time>2026-08-12T12:54:20.541Z</time>
      </trkpt>
      <trkpt lat="49.23395" lon="6.96312">
        <ele>133.76</ele>
        <time>2026-08-12T12:54:26.547Z</time>
      </trkpt>
      <trkpt lat="49.23402" lon="6.9635">
        <ele>134.82</ele>
        <time>2026-08-12T12:54:32.548Z</time>
      </trkpt>
      <trkpt lat="49.23407" lon="6.9639">
        <ele>135.89</ele>
        <time>2026-08-12T12:54:38.548Z</time>
      </trkpt>
      <trkpt lat="49.23406" lon="6.9643">
        <ele>138.05</ele>
        <time>2026-08-12T12:54:44.544Z</time>
      </trkpt>
      <trkpt lat="49.23409" lon="6.96463">
        <ele>138.88</ele>
        <time>2026-08-12T12:54:50.547Z</time>
      </trkpt>
      <trkpt lat="49.23426" lon="6.96506">
        <ele>137.25</ele>
        <time>2026-08-12T12:54:56.547Z</time>
      </trkpt>
      <trkpt lat="49.23434" lon="6.96553">
        <ele>135.67</ele>
        <time>2026-08-12T12:55:02.550Z</time>
      </trkpt>
      <trkpt lat="49.23443" lon="6.96597">
        <ele>135.71</ele>
        <time>2026-08-12T12:55:08.541Z</time>
      </trkpt>
      <trkpt lat="49.23454" lon="6.96641">
        <ele>136.4</ele>
        <time>2026-08-12T12:55:14.544Z</time>
      </trkpt>
      <trkpt lat="49.23462" lon="6.96681">
        <ele>134.82</ele>
        <time>2026-08-12T12:55:20.543Z</time>
      </trkpt>
      <trkpt lat="49.23473" lon="6.96724">
        <ele>132.42</ele>
        <time>2026-08-12T12:55:26.554Z</time>
      </trkpt>
      <trkpt lat="49.23488" lon="6.96766">
        <ele>133.2</ele>
        <time>2026-08-12T12:55:32.551Z</time>
      </trkpt>
      <trkpt lat="49.2351" lon="6.96808">
        <ele>134.83</ele>
        <time>2026-08-12T12:55:38.541Z</time>
      </trkpt>
      <trkpt lat="49.23526" lon="6.96849">
        <ele>137.39</ele>
        <time>2026-08-12T12:55:44.540Z</time>
      </trkpt>
      <trkpt lat="49.23545" lon="6.9689">
        <ele>138.92</ele>
        <time>2026-08-12T12:55:50.543Z</time>
      </trkpt>
      <trkpt lat="49.23563" lon="6.96931">
        <ele>138.53</ele>
        <time>2026-08-12T12:55:56.517Z</time>
      </trkpt>
      <trkpt lat="49.23581" lon="6.96971">
        <ele>138.99</ele>
        <time>2026-08-12T12:56:02.549Z</time>
      </trkpt>
      <trkpt lat="49.23595" lon="6.97012">
        <ele>136.6</ele>
        <time>2026-08-12T12:56:08.540Z</time>
      </trkpt>
      <trkpt lat="49.23613" lon="6.9705">
        <ele>138.87</ele>
        <time>2026-08-12T12:56:14.525Z</time>
      </trkpt>
      <trkpt lat="49.23617" lon="6.97086">
        <ele>136.86</ele>
        <time>2026-08-12T12:56:20.533Z</time>
      </trkpt>
      <trkpt lat="49.23625" lon="6.97117">
        <ele>134.85</ele>
        <time>2026-08-12T12:56:26.543Z</time>
      </trkpt>
      <trkpt lat="49.23634" lon="6.97154">
        <ele>135.4</ele>
        <time>2026-08-12T12:56:32.535Z</time>
      </trkpt>
      <trkpt lat="49.23644" lon="6.97186">
        <ele>134.91</ele>
        <time>2026-08-12T12:56:38.528Z</time>
      </trkpt>
      <trkpt lat="49.23649" lon="6.97215">
        <ele>134.26</ele>
        <time>2026-08-12T12:56:44.530Z</time>
      </trkpt>
      <trkpt lat="49.23656" lon="6.97252">
        <ele>135.55</ele>
        <time>2026-08-12T12:56:50.527Z</time>
      </trkpt>
      <trkpt lat="49.23663" lon="6.97291">
        <ele>137.19</ele>
        <time>2026-08-12T12:56:56.546Z</time>
      </trkpt>
      <trkpt lat="49.23666" lon="6.97329">
        <ele>199.85</ele>
        <time>2026-08-12T12:57:02.550Z</time>
      </trkpt>
      <trkpt lat="49.23672" lon="6.97369">
        <ele>199.86</ele>
        <time>2026-08-12T12:57:08.546Z</time>
      </trkpt>
      <trkpt lat="49.23678" lon="6.97407">
        <ele>199.86</ele>
        <time>2026-08-12T12:57:14.550Z</time>
      </trkpt>
      <trkpt lat="49.23682" lon="6.97449">
        <ele>199.86</ele>
        <time>2026-08-12T12:57:20.531Z</time>
      </trkpt>
      <trkpt lat="49.23683" lon="6.97486">
        <ele>192.16</ele>
        <time>2026-08-12T12:57:26.549Z</time>
      </trkpt>
      <trkpt lat="49.23683" lon="6.9753">
        <ele>192.16</ele>
        <time>2026-08-12T12:57:32.550Z</time>
      </trkpt>
      <trkpt lat="49.23684" lon="6.97577">
        <ele>192.16</ele>
        <time>2026-08-12T12:57:38.545Z</time>
      </trkpt>
      <trkpt lat="49.23681" lon="6.97618">
        <ele>192.16</ele>
        <time>2026-08-12T12:57:44.546Z</time>
      </trkpt>
      <trkpt lat="49.23674" lon="6.97656">
        <ele>192.16</ele>
        <time>2026-08-12T12:57:50.544Z</time>
      </trkpt>
      <trkpt lat="49.23673" lon="6.97698">
        <ele>200.48</ele>
        <time>2026-08-12T12:57:56.551Z</time>
      </trkpt>
      <trkpt lat="49.23668" lon="6.97738">
        <ele>203.25</ele>
        <time>2026-08-12T12:58:02.551Z</time>
      </trkpt>
      <trkpt lat="49.23663" lon="6.97778">
        <ele>200.7</ele>
        <time>2026-08-12T12:58:08.544Z</time>
      </trkpt>
      <trkpt lat="49.23659" lon="6.97819">
        <ele>199.85</ele>
        <time>2026-08-12T12:58:14.551Z</time>
      </trkpt>
      <trkpt lat="49.23657" lon="6.97853">
        <ele>199.85</ele>
        <time>2026-08-12T12:58:20.548Z</time>
      </trkpt>
      <trkpt lat="49.2364" lon="6.97882">
        <ele>199.85</ele>
        <time>2026-08-12T12:58:26.559Z</time>
      </trkpt>
      <trkpt lat="49.23632" lon="6.97928">
        <ele>199.85</ele>
        <time>2026-08-12T12:58:32.538Z</time>
      </trkpt>
      <trkpt lat="49.23644" lon="6.97967">
        <ele>199.85</ele>
        <time>2026-08-12T12:58:38.543Z</time>
      </trkpt>
      <trkpt lat="49.23657" lon="6.98002">
        <ele>199.85</ele>
        <time>2026-08-12T12:58:44.544Z</time>
      </trkpt>
      <trkpt lat="49.23656" lon="6.98046">
        <ele>199.85</ele>
        <time>2026-08-12T12:58:50.542Z</time>
      </trkpt>
      <trkpt lat="49.23655" lon="6.9809">
        <ele>199.85</ele>
        <time>2026-08-12T12:58:56.542Z</time>
      </trkpt>
      <trkpt lat="49.23657" lon="6.9814">
        <ele>199.85</ele>
        <time>2026-08-12T12:59:02.535Z</time>
      </trkpt>
      <trkpt lat="49.23659" lon="6.9819">
        <ele>199.85</ele>
        <time>2026-08-12T12:59:08.546Z</time>
      </trkpt>
      <trkpt lat="49.23662" lon="6.9824">
        <ele>199.85</ele>
        <time>2026-08-12T12:59:14.543Z</time>
      </trkpt>
      <trkpt lat="49.23664" lon="6.98288">
        <ele>199.85</ele>
        <time>2026-08-12T12:59:20.546Z</time>
      </trkpt>
      <trkpt lat="49.23665" lon="6.98335">
        <ele>199.85</ele>
        <time>2026-08-12T12:59:26.550Z</time>
      </trkpt>
      <trkpt lat="49.23665" lon="6.98381">
        <ele>199.84</ele>
        <time>2026-08-12T12:59:32.541Z</time>
      </trkpt>
      <trkpt lat="49.23661" lon="6.98423">
        <ele>139.3</ele>
        <time>2026-08-12T12:59:38.547Z</time>
      </trkpt>
      <trkpt lat="49.23663" lon="6.98471">
        <ele>135.96</ele>
        <time>2026-08-12T12:59:44.533Z</time>
      </trkpt>
      <trkpt lat="49.2366" lon="6.98512">
        <ele>136.72</ele>
        <time>2026-08-12T12:59:50.547Z</time>
      </trkpt>
      <trkpt lat="49.23661" lon="6.98554">
        <ele>136.74</ele>
        <time>2026-08-12T12:59:56.532Z</time>
      </trkpt>
      <trkpt lat="49.23659" lon="6.98576">
        <ele>204.28</ele>
        <time>2026-08-12T13:00:02.545Z</time>
      </trkpt>
      <trkpt lat="49.2366" lon="6.98591">
        <ele>210.14</ele>
        <time>2026-08-12T13:00:35.489Z</time>
      </trkpt>
      <trkpt lat="49.23656" lon="6.9862">
        <ele>210.14</ele>
        <time>2026-08-12T13:00:41.488Z</time>
      </trkpt>
      <trkpt lat="49.23654" lon="6.98657">
        <ele>206.7</ele>
        <time>2026-08-12T13:00:47.484Z</time>
      </trkpt>
      <trkpt lat="49.23655" lon="6.98687">
        <ele>206.64</ele>
        <time>2026-08-12T13:00:52.486Z</time>
      </trkpt>
      <trkpt lat="49.23656" lon="6.98726">
        <ele>195.3</ele>
        <time>2026-08-12T13:00:58.487Z</time>
      </trkpt>
      <trkpt lat="49.23654" lon="6.98766">
        <ele>194.54</ele>
        <time>2026-08-12T13:01:04.481Z</time>
      </trkpt>
      <trkpt lat="49.23654" lon="6.98803">
        <ele>194.54</ele>
        <time>2026-08-12T13:01:09.483Z</time>
      </trkpt>
      <trkpt lat="49.23652" lon="6.98842">
        <ele>194.54</ele>
        <time>2026-08-12T13:01:14.544Z</time>
      </trkpt>
      <trkpt lat="49.2365" lon="6.98889">
        <ele>194.54</ele>
        <time>2026-08-12T13:01:20.544Z</time>
      </trkpt>
      <trkpt lat="49.23648" lon="6.98933">
        <ele>194.54</ele>
        <time>2026-08-12T13:01:26.543Z</time>
      </trkpt>
      <trkpt lat="49.2364" lon="6.98981">
        <ele>194.54</ele>
        <time>2026-08-12T13:01:32.546Z</time>
      </trkpt>
      <trkpt lat="49.23626" lon="6.99018">
        <ele>194.53</ele>
        <time>2026-08-12T13:01:38.548Z</time>
      </trkpt>
      <trkpt lat="49.23607" lon="6.99055">
        <ele>194.53</ele>
        <time>2026-08-12T13:01:44.546Z</time>
      </trkpt>
      <trkpt lat="49.23586" lon="6.99095">
        <ele>194.53</ele>
        <time>2026-08-12T13:01:50.546Z</time>
      </trkpt>
      <trkpt lat="49.23562" lon="6.99123">
        <ele>194.53</ele>
        <time>2026-08-12T13:01:56.549Z</time>
      </trkpt>
      <trkpt lat="49.23537" lon="6.99145">
        <ele>194.53</ele>
        <time>2026-08-12T13:02:02.551Z</time>
      </trkpt>
      <trkpt lat="49.23507" lon="6.99153">
        <ele>194.53</ele>
        <time>2026-08-12T13:02:08.547Z</time>
      </trkpt>
      <trkpt lat="49.23474" lon="6.9916">
        <ele>194.53</ele>
        <time>2026-08-12T13:02:14.548Z</time>
      </trkpt>
      <trkpt lat="49.23445" lon="6.99165">
        <ele>194.53</ele>
        <time>2026-08-12T13:02:20.546Z</time>
      </trkpt>
      <trkpt lat="49.23414" lon="6.99174">
        <ele>146.48</ele>
        <time>2026-08-12T13:02:26.552Z</time>
      </trkpt>
      <trkpt lat="49.23381" lon="6.99183">
        <ele>141.55</ele>
        <time>2026-08-12T13:02:32.546Z</time>
      </trkpt>
      <trkpt lat="49.23346" lon="6.99191">
        <ele>139.13</ele>
        <time>2026-08-12T13:02:38.546Z</time>
      </trkpt>
      <trkpt lat="49.2331" lon="6.9921">
        <ele>137.84</ele>
        <time>2026-08-12T13:02:44.545Z</time>
      </trkpt>
      <trkpt lat="49.23277" lon="6.99225">
        <ele>138.67</ele>
        <time>2026-08-12T13:02:50.543Z</time>
      </trkpt>
      <trkpt lat="49.23245" lon="6.99242">
        <ele>139</ele>
        <time>2026-08-12T13:02:56.546Z</time>
      </trkpt>
      <trkpt lat="49.23213" lon="6.9926">
        <ele>138.55</ele>
        <time>2026-08-12T13:03:02.545Z</time>
      </trkpt>
      <trkpt lat="49.23184" lon="6.99274">
        <ele>135.67</ele>
        <time>2026-08-12T13:03:08.549Z</time>
      </trkpt>
      <trkpt lat="49.23173" lon="6.99281">
        <ele>134.11</ele>
        <time>2026-08-12T13:03:14.543Z</time>
      </trkpt>
      <trkpt lat="49.23183" lon="6.9928">
        <ele>133.51</ele>
        <time>2026-08-12T13:03:23.484Z</time>
      </trkpt>
      <trkpt lat="49.23186" lon="6.99264">
        <ele>135.62</ele>
        <time>2026-08-12T13:03:28.487Z</time>
      </trkpt>
      <trkpt lat="49.23195" lon="6.99249">
        <ele>137.51</ele>
        <time>2026-08-12T13:03:34.487Z</time>
      </trkpt>
      <trkpt lat="49.2321" lon="6.99235">
        <ele>138.93</ele>
        <time>2026-08-12T13:03:40.470Z</time>
      </trkpt>
      <trkpt lat="49.23225" lon="6.99222">
        <ele>141.42</ele>
        <time>2026-08-12T13:03:45.484Z</time>
      </trkpt>
      <trkpt lat="49.23238" lon="6.99217">
        <ele>142.19</ele>
        <time>2026-08-12T13:03:50.545Z</time>
      </trkpt>
      <trkpt lat="49.23255" lon="6.99206">
        <ele>142.99</ele>
        <time>2026-08-12T13:03:56.544Z</time>
      </trkpt>
      <trkpt lat="49.23268" lon="6.99196">
        <ele>143.26</ele>
        <time>2026-08-12T13:04:02.547Z</time>
      </trkpt>
      <trkpt lat="49.23283" lon="6.9918">
        <ele>144.63</ele>
        <time>2026-08-12T13:04:08.546Z</time>
      </trkpt>
      <trkpt lat="49.23295" lon="6.9918">
        <ele>145.58</ele>
        <time>2026-08-12T13:04:14.547Z</time>
      </trkpt>
      <trkpt lat="49.23311" lon="6.99169">
        <ele>144.02</ele>
        <time>2026-08-12T13:04:20.546Z</time>
      </trkpt>
      <trkpt lat="49.23329" lon="6.99159">
        <ele>144.65</ele>
        <time>2026-08-12T13:04:26.531Z</time>
      </trkpt>
      <trkpt lat="49.23346" lon="6.9915">
        <ele>147.7</ele>
        <time>2026-08-12T13:04:32.543Z</time>
      </trkpt>
      <trkpt lat="49.2336" lon="6.99169">
        <ele>148.33</ele>
        <time>2026-08-12T13:04:38.545Z</time>
      </trkpt>
      <trkpt lat="49.23364" lon="6.992">
        <ele>149.32</ele>
        <time>2026-08-12T13:04:44.546Z</time>
      </trkpt>
      <trkpt lat="49.2337" lon="6.99235">
        <ele>148.97</ele>
        <time>2026-08-12T13:04:50.543Z</time>
      </trkpt>
      <trkpt lat="49.23372" lon="6.99268">
        <ele>144.98</ele>
        <time>2026-08-12T13:04:56.551Z</time>
      </trkpt>
      <trkpt lat="49.23375" lon="6.99304">
        <ele>144.25</ele>
        <time>2026-08-12T13:05:02.526Z</time>
      </trkpt>
      <trkpt lat="49.23372" lon="6.99326">
        <ele>142.98</ele>
        <time>2026-08-12T13:05:08.544Z</time>
      </trkpt>
      <trkpt lat="49.23381" lon="6.9934">
        <ele>145.61</ele>
        <time>2026-08-12T13:05:14.529Z</time>
      </trkpt>
      <trkpt lat="49.23386" lon="6.99352">
        <ele>193.63</ele>
        <time>2026-08-12T13:05:43.471Z</time>
      </trkpt>
      <trkpt lat="49.23388" lon="6.99368">
        <ele>193.63</ele>
        <time>2026-08-12T13:05:59.468Z</time>
      </trkpt>
      <trkpt lat="49.23399" lon="6.99399">
        <ele>193.33</ele>
        <time>2026-08-12T13:06:04.878Z</time>
      </trkpt>
      <trkpt lat="49.23412" lon="6.99438">
        <ele>193.33</ele>
        <time>2026-08-12T13:06:10.483Z</time>
      </trkpt>
      <trkpt lat="49.23427" lon="6.99476">
        <ele>193.33</ele>
        <time>2026-08-12T13:06:16.461Z</time>
      </trkpt>
      <trkpt lat="49.23434" lon="6.99488">
        <ele>192.43</ele>
        <time>2026-08-12T13:06:21.475Z</time>
      </trkpt>
      <trkpt lat="49.23443" lon="6.99502">
        <ele>192.33</ele>
        <time>2026-08-12T13:06:50.536Z</time>
      </trkpt>
      <trkpt lat="49.23457" lon="6.99542">
        <ele>192.33</ele>
        <time>2026-08-12T13:06:56.534Z</time>
      </trkpt>
      <trkpt lat="49.23471" lon="6.99573">
        <ele>193.22</ele>
        <time>2026-08-12T13:07:02.548Z</time>
      </trkpt>
      <trkpt lat="49.2347" lon="6.99589">
        <ele>193.3</ele>
        <time>2026-08-12T13:07:09.489Z</time>
      </trkpt>
      <trkpt lat="49.23458" lon="6.99604">
        <ele>193.33</ele>
        <time>2026-08-12T13:07:26.539Z</time>
      </trkpt>
      <trkpt lat="49.23464" lon="6.99627">
        <ele>193.32</ele>
        <time>2026-08-12T13:07:32.528Z</time>
      </trkpt>
      <trkpt lat="49.23462" lon="6.99641">
        <ele>193.32</ele>
        <time>2026-08-12T13:07:40.473Z</time>
      </trkpt>
      <trkpt lat="49.23447" lon="6.99639">
        <ele>194.22</ele>
        <time>2026-08-12T13:07:45.489Z</time>
      </trkpt>
      <trkpt lat="49.23458" lon="6.99627">
        <ele>193.32</ele>
        <time>2026-08-12T13:07:57.469Z</time>
      </trkpt>
      <trkpt lat="49.23469" lon="6.99615">
        <ele>193.32</ele>
        <time>2026-08-12T13:08:02.551Z</time>
      </trkpt>
      <trkpt lat="49.2348" lon="6.99608">
        <ele>193.33</ele>
        <time>2026-08-12T13:08:08.527Z</time>
      </trkpt>
      <trkpt lat="49.23496" lon="6.99614">
        <ele>193.32</ele>
        <time>2026-08-12T13:08:17.469Z</time>
      </trkpt>
      <trkpt lat="49.2351" lon="6.99645">
        <ele>193.32</ele>
        <time>2026-08-12T13:08:22.481Z</time>
      </trkpt>
      <trkpt lat="49.23516" lon="6.99657">
        <ele>193.32</ele>
        <time>2026-08-12T13:08:27.485Z</time>
      </trkpt>
      <trkpt lat="49.23507" lon="6.99654">
        <ele>193.32</ele>
        <time>2026-08-12T13:09:13.479Z</time>
      </trkpt>
      <trkpt lat="49.23516" lon="6.9966">
        <ele>193.32</ele>
        <time>2026-08-12T13:09:21.558Z</time>
      </trkpt>
      <trkpt lat="49.23507" lon="6.99655">
        <ele>193.22</ele>
        <time>2026-08-12T13:10:00.222Z</time>
      </trkpt>
      <trkpt lat="49.23499" lon="6.99678">
        <ele>193.22</ele>
        <time>2026-08-12T13:10:05.318Z</time>
      </trkpt>
      <trkpt lat="49.23489" lon="6.99677">
        <ele>194.21</ele>
        <time>2026-08-12T13:10:46.359Z</time>
      </trkpt>
      <trkpt lat="49.23479" lon="6.99678">
        <ele>194.22</ele>
        <time>2026-08-12T13:10:53.711Z</time>
      </trkpt>
      <trkpt lat="49.23469" lon="6.99679">
        <ele>194.22</ele>
        <time>2026-08-12T13:10:59.482Z</time>
      </trkpt>
      <trkpt lat="49.23485" lon="6.99686">
        <ele>194.22</ele>
        <time>2026-08-12T13:11:04.498Z</time>
      </trkpt>
      <trkpt lat="49.23497" lon="6.9968">
        <ele>194.22</ele>
        <time>2026-08-12T13:11:10.478Z</time>
      </trkpt>
      <trkpt lat="49.2351" lon="6.99684">
        <ele>194.22</ele>
        <time>2026-08-12T13:11:15.496Z</time>
      </trkpt>
      <trkpt lat="49.23545" lon="6.99697">
        <ele>194.22</ele>
        <time>2026-08-12T13:11:20.542Z</time>
      </trkpt>
      <trkpt lat="49.23489" lon="6.99666">
        <ele>194.22</ele>
        <time>2026-08-12T13:11:26.547Z</time>
      </trkpt>
      <trkpt lat="49.23473" lon="6.99636">
        <ele>194.22</ele>
        <time>2026-08-12T13:11:32.523Z</time>
      </trkpt>
      <trkpt lat="49.23462" lon="6.99619">
        <ele>194.22</ele>
        <time>2026-08-12T13:11:38.026Z</time>
      </trkpt>
      <trkpt lat="49.23454" lon="6.99604">
        <ele>194.23</ele>
        <time>2026-08-12T13:11:43.102Z</time>
      </trkpt>
      <trkpt lat="49.23481" lon="6.99669">
        <ele>193.29</ele>
        <time>2026-08-12T13:11:48.486Z</time>
      </trkpt>
      <trkpt lat="49.235" lon="6.99678">
        <ele>193.22</ele>
        <time>2026-08-12T13:11:54.120Z</time>
      </trkpt>
      <trkpt lat="49.23504" lon="6.99664">
        <ele>193.22</ele>
        <time>2026-08-12T13:13:18.486Z</time>
      </trkpt>
      <trkpt lat="49.23506" lon="6.99649">
        <ele>193.22</ele>
        <time>2026-08-12T13:13:24.469Z</time>
      </trkpt>
      <trkpt lat="49.23515" lon="6.99659">
        <ele>193.22</ele>
        <time>2026-08-12T13:13:40.485Z</time>
      </trkpt>
      <trkpt lat="49.23525" lon="6.99658">
        <ele>193.22</ele>
        <time>2026-08-12T13:13:46.482Z</time>
      </trkpt>
      <trkpt lat="49.23533" lon="6.99673">
        <ele>193.22</ele>
        <time>2026-08-12T13:13:52.471Z</time>
      </trkpt>
      <trkpt lat="49.23536" lon="6.99686">
        <ele>193.22</ele>
        <time>2026-08-12T13:13:57.485Z</time>
      </trkpt>
      <trkpt lat="49.23545" lon="6.99686">
        <ele>193.22</ele>
        <time>2026-08-12T13:14:07.483Z</time>
      </trkpt>
      <trkpt lat="49.23557" lon="6.99677">
        <ele>193.22</ele>
        <time>2026-08-12T13:14:30.467Z</time>
      </trkpt>
      <trkpt lat="49.23567" lon="6.99669">
        <ele>193.22</ele>
        <time>2026-08-12T13:14:35.485Z</time>
      </trkpt>
      <trkpt lat="49.23575" lon="6.99663">
        <ele>193.22</ele>
        <time>2026-08-12T13:14:42.487Z</time>
      </trkpt>
      <trkpt lat="49.23584" lon="6.99648">
        <ele>193.22</ele>
        <time>2026-08-12T13:14:49.484Z</time>
      </trkpt>
      <trkpt lat="49.23594" lon="6.99652">
        <ele>193.22</ele>
        <time>2026-08-12T13:15:01.481Z</time>
      </trkpt>
      <trkpt lat="49.23602" lon="6.99644">
        <ele>193.22</ele>
        <time>2026-08-12T13:15:09.465Z</time>
      </trkpt>
      <trkpt lat="49.2361" lon="6.99637">
        <ele>193.22</ele>
        <time>2026-08-12T13:15:17.475Z</time>
      </trkpt>
      <trkpt lat="49.23614" lon="6.99652">
        <ele>193.22</ele>
        <time>2026-08-12T13:15:25.473Z</time>
      </trkpt>
      <trkpt lat="49.23607" lon="6.99661">
        <ele>193.22</ele>
        <time>2026-08-12T13:16:39.487Z</time>
      </trkpt>
      <trkpt lat="49.23617" lon="6.99663">
        <ele>193.62</ele>
        <time>2026-08-12T13:18:47.469Z</time>
      </trkpt>
      <trkpt lat="49.23609" lon="6.9967">
        <ele>193.5</ele>
        <time>2026-08-12T13:19:08.842Z</time>
      </trkpt>
      <trkpt lat="49.236" lon="6.99667">
        <ele>193.9</ele>
        <time>2026-08-12T13:19:17.561Z</time>
      </trkpt>
      <trkpt lat="49.23592" lon="6.99676">
        <ele>193.52</ele>
        <time>2026-08-12T13:19:35.486Z</time>
      </trkpt>
      <trkpt lat="49.23591" lon="6.99692">
        <ele>193.92</ele>
        <time>2026-08-12T13:19:43.541Z</time>
      </trkpt>
      <trkpt lat="49.23583" lon="6.99723">
        <ele>193.92</ele>
        <time>2026-08-12T13:19:49.545Z</time>
      </trkpt>
      <trkpt lat="49.23609" lon="6.99658">
        <ele>193.92</ele>
        <time>2026-08-12T13:19:55.470Z</time>
      </trkpt>
      <trkpt lat="49.23639" lon="6.99584">
        <ele>193.27</ele>
        <time>2026-08-12T13:20:00.522Z</time>
      </trkpt>
      <trkpt lat="49.2363" lon="6.99596">
        <ele>193.23</ele>
        <time>2026-08-12T13:20:08.539Z</time>
      </trkpt>
      <trkpt lat="49.23617" lon="6.99608">
        <ele>193.23</ele>
        <time>2026-08-12T13:20:14.635Z</time>
      </trkpt>
      <trkpt lat="49.23607" lon="6.99646">
        <ele>193.22</ele>
        <time>2026-08-12T13:22:04.476Z</time>
      </trkpt>
      <trkpt lat="49.2361" lon="6.99664">
        <ele>193.22</ele>
        <time>2026-08-12T13:23:18.468Z</time>
      </trkpt>
      <trkpt lat="49.23617" lon="6.99674">
        <ele>193.22</ele>
        <time>2026-08-12T13:23:23.468Z</time>
      </trkpt>
      <trkpt lat="49.23621" lon="6.99689">
        <ele>193.3</ele>
        <time>2026-08-12T13:23:28.479Z</time>
      </trkpt>
      <trkpt lat="49.23621" lon="6.99711">
        <ele>193.32</ele>
        <time>2026-08-12T13:23:33.482Z</time>
      </trkpt>
      <trkpt lat="49.23622" lon="6.99725">
        <ele>193.32</ele>
        <time>2026-08-12T13:23:38.528Z</time>
      </trkpt>
      <trkpt lat="49.23619" lon="6.99741">
        <ele>193.62</ele>
        <time>2026-08-12T13:23:43.996Z</time>
      </trkpt>
      <trkpt lat="49.23615" lon="6.99763">
        <ele>193.72</ele>
        <time>2026-08-12T13:23:49.463Z</time>
      </trkpt>
      <trkpt lat="49.2361" lon="6.99784">
        <ele>193.72</ele>
        <time>2026-08-12T13:23:54.468Z</time>
      </trkpt>
      <trkpt lat="49.23608" lon="6.99807">
        <ele>193.72</ele>
        <time>2026-08-12T13:23:59.470Z</time>
      </trkpt>
      <trkpt lat="49.2361" lon="6.99838">
        <ele>193.72</ele>
        <time>2026-08-12T13:24:05.457Z</time>
      </trkpt>
      <trkpt lat="49.23607" lon="6.99858">
        <ele>194.22</ele>
        <time>2026-08-12T13:24:10.467Z</time>
      </trkpt>
      <trkpt lat="49.23614" lon="6.99867">
        <ele>194.12</ele>
        <time>2026-08-12T13:24:21.478Z</time>
      </trkpt>
      <trkpt lat="49.23628" lon="6.99867">
        <ele>194.12</ele>
        <time>2026-08-12T13:24:26.523Z</time>
      </trkpt>
      <trkpt lat="49.23617" lon="6.99869">
        <ele>194.12</ele>
        <time>2026-08-12T13:24:59.476Z</time>
      </trkpt>
      <trkpt lat="49.23615" lon="6.99884">
        <ele>194.12</ele>
        <time>2026-08-12T13:26:09.478Z</time>
      </trkpt>
      <trkpt lat="49.23619" lon="6.99871">
        <ele>194.12</ele>
        <time>2026-08-12T13:26:28.465Z</time>
      </trkpt>
      <trkpt lat="49.23617" lon="6.99886">
        <ele>194.12</ele>
        <time>2026-08-12T13:27:19.489Z</time>
      </trkpt>
      <trkpt lat="49.23608" lon="6.99891">
        <ele>194.12</ele>
        <time>2026-08-12T13:28:31.473Z</time>
      </trkpt>
      <trkpt lat="49.23616" lon="6.99881">
        <ele>194.12</ele>
        <time>2026-08-12T13:29:04.476Z</time>
      </trkpt>
      <trkpt lat="49.23624" lon="6.99872">
        <ele>194.12</ele>
        <time>2026-08-12T13:32:37.469Z</time>
      </trkpt>
      <trkpt lat="49.23618" lon="6.99861">
        <ele>194.12</ele>
        <time>2026-08-12T13:36:20.528Z</time>
      </trkpt>
      <trkpt lat="49.23627" lon="6.99865">
        <ele>194.12</ele>
        <time>2026-08-12T13:38:13.473Z</time>
      </trkpt>
      <trkpt lat="49.23619" lon="6.99873">
        <ele>194.12</ele>
        <time>2026-08-12T13:38:31.501Z</time>
      </trkpt>
      <trkpt lat="49.23609" lon="6.99874">
        <ele>194.12</ele>
        <time>2026-08-12T13:39:29.510Z</time>
      </trkpt>
      <trkpt lat="49.23618" lon="6.99871">
        <ele>194.02</ele>
        <time>2026-08-12T13:42:32.518Z</time>
      </trkpt>
      <trkpt lat="49.23611" lon="6.99859">
        <ele>194.1</ele>
        <time>2026-08-12T13:49:37.014Z</time>
      </trkpt>
      <trkpt lat="49.23619" lon="6.99854">
        <ele>194.12</ele>
        <time>2026-08-12T13:49:59.476Z</time>
      </trkpt>
      <trkpt lat="49.23612" lon="6.99867">
        <ele>194.12</ele>
        <time>2026-08-12T13:50:13.491Z</time>
      </trkpt>
      <trkpt lat="49.23615" lon="6.99888">
        <ele>194.12</ele>
        <time>2026-08-12T13:50:25.466Z</time>
      </trkpt>
      <trkpt lat="49.23617" lon="6.99917">
        <ele>194.12</ele>
        <time>2026-08-12T13:50:30.484Z</time>
      </trkpt>
      <trkpt lat="49.2361" lon="6.99931">
        <ele>194.12</ele>
        <time>2026-08-12T13:50:35.486Z</time>
      </trkpt>
      <trkpt lat="49.23604" lon="6.99957">
        <ele>194.12</ele>
        <time>2026-08-12T13:50:40.488Z</time>
      </trkpt>
      <trkpt lat="49.23605" lon="6.99979">
        <ele>194.12</ele>
        <time>2026-08-12T13:50:46.487Z</time>
      </trkpt>
      <trkpt lat="49.23605" lon="6.99998">
        <ele>194.21</ele>
        <time>2026-08-12T13:50:52.486Z</time>
      </trkpt>
      <trkpt lat="49.23605" lon="7.00015">
        <ele>194.22</ele>
        <time>2026-08-12T13:50:57.486Z</time>
      </trkpt>
      <trkpt lat="49.23612" lon="7.00031">
        <ele>194.22</ele>
        <time>2026-08-12T13:51:02.597Z</time>
      </trkpt>
      <trkpt lat="49.23609" lon="7.00049">
        <ele>194.32</ele>
        <time>2026-08-12T13:51:08.529Z</time>
      </trkpt>
      <trkpt lat="49.23613" lon="7.00072">
        <ele>194.39</ele>
        <time>2026-08-12T13:51:14.531Z</time>
      </trkpt>
      <trkpt lat="49.23614" lon="7.00091">
        <ele>194.42</ele>
        <time>2026-08-12T13:51:20.527Z</time>
      </trkpt>
      <trkpt lat="49.23624" lon="7.0012">
        <ele>194.42</ele>
        <time>2026-08-12T13:51:26.520Z</time>
      </trkpt>
      <trkpt lat="49.23626" lon="7.00144">
        <ele>194.72</ele>
        <time>2026-08-12T13:51:32.517Z</time>
      </trkpt>
      <trkpt lat="49.2363" lon="7.00157">
        <ele>194.72</ele>
        <time>2026-08-12T13:51:38.539Z</time>
      </trkpt>
      <trkpt lat="49.23633" lon="7.00181">
        <ele>194.72</ele>
        <time>2026-08-12T13:51:44.539Z</time>
      </trkpt>
      <trkpt lat="49.23641" lon="7.00206">
        <ele>194.72</ele>
        <time>2026-08-12T13:51:50.544Z</time>
      </trkpt>
      <trkpt lat="49.23653" lon="7.00231">
        <ele>194.72</ele>
        <time>2026-08-12T13:51:56.542Z</time>
      </trkpt>
      <trkpt lat="49.23662" lon="7.00257">
        <ele>194.72</ele>
        <time>2026-08-12T13:52:02.550Z</time>
      </trkpt>
      <trkpt lat="49.23668" lon="7.00277">
        <ele>194.72</ele>
        <time>2026-08-12T13:52:08.541Z</time>
      </trkpt>
      <trkpt lat="49.23676" lon="7.00293">
        <ele>194.72</ele>
        <time>2026-08-12T13:52:14.540Z</time>
      </trkpt>
      <trkpt lat="49.23685" lon="7.003">
        <ele>194.72</ele>
        <time>2026-08-12T13:52:20.526Z</time>
      </trkpt>
      <trkpt lat="49.23695" lon="7.00305">
        <ele>196.22</ele>
        <time>2026-08-12T13:52:32.534Z</time>
      </trkpt>
      <trkpt lat="49.23713" lon="7.00278">
        <ele>196.14</ele>
        <time>2026-08-12T13:52:38.564Z</time>
      </trkpt>
      <trkpt lat="49.23722" lon="7.00251">
        <ele>196.12</ele>
        <time>2026-08-12T13:52:44.531Z</time>
      </trkpt>
      <trkpt lat="49.23728" lon="7.00224">
        <ele>196.12</ele>
        <time>2026-08-12T13:52:50.526Z</time>
      </trkpt>
      <trkpt lat="49.23737" lon="7.00184">
        <ele>196.61</ele>
        <time>2026-08-12T13:52:56.540Z</time>
      </trkpt>
      <trkpt lat="49.23742" lon="7.00159">
        <ele>196.62</ele>
        <time>2026-08-12T13:53:02.528Z</time>
      </trkpt>
      <trkpt lat="49.23743" lon="7.00133">
        <ele>196.62</ele>
        <time>2026-08-12T13:53:08.543Z</time>
      </trkpt>
      <trkpt lat="49.23748" lon="7.00102">
        <ele>196.47</ele>
        <time>2026-08-12T13:53:14.536Z</time>
      </trkpt>
      <trkpt lat="49.2375" lon="7.00073">
        <ele>196.42</ele>
        <time>2026-08-12T13:53:20.552Z</time>
      </trkpt>
      <trkpt lat="49.23754" lon="7.00042">
        <ele>196.42</ele>
        <time>2026-08-12T13:53:26.531Z</time>
      </trkpt>
      <trkpt lat="49.23758" lon="7.00006">
        <ele>196.42</ele>
        <time>2026-08-12T13:53:32.547Z</time>
      </trkpt>
      <trkpt lat="49.23765" lon="6.99973">
        <ele>196.42</ele>
        <time>2026-08-12T13:53:38.528Z</time>
      </trkpt>
      <trkpt lat="49.23773" lon="6.99943">
        <ele>196.42</ele>
        <time>2026-08-12T13:53:44.520Z</time>
      </trkpt>
      <trkpt lat="49.23784" lon="6.99917">
        <ele>196.42</ele>
        <time>2026-08-12T13:53:50.522Z</time>
      </trkpt>
      <trkpt lat="49.2379" lon="6.99886">
        <ele>196.42</ele>
        <time>2026-08-12T13:53:56.532Z</time>
      </trkpt>
      <trkpt lat="49.23801" lon="6.99858">
        <ele>196.42</ele>
        <time>2026-08-12T13:54:02.527Z</time>
      </trkpt>
      <trkpt lat="49.23812" lon="6.99829">
        <ele>196.42</ele>
        <time>2026-08-12T13:54:08.521Z</time>
      </trkpt>
      <trkpt lat="49.23818" lon="6.99804">
        <ele>196.42</ele>
        <time>2026-08-12T13:54:14.521Z</time>
      </trkpt>
      <trkpt lat="49.23825" lon="6.99794">
        <ele>195.42</ele>
        <time>2026-08-12T13:55:22.465Z</time>
      </trkpt>
      <trkpt lat="49.23818" lon="6.99775">
        <ele>195.42</ele>
        <time>2026-08-12T13:55:27.465Z</time>
      </trkpt>
      <trkpt lat="49.23793" lon="6.99754">
        <ele>195.12</ele>
        <time>2026-08-12T13:55:32.531Z</time>
      </trkpt>
      <trkpt lat="49.2376" lon="6.99733">
        <ele>195.12</ele>
        <time>2026-08-12T13:55:38.517Z</time>
      </trkpt>
      <trkpt lat="49.23734" lon="6.99709">
        <ele>195.12</ele>
        <time>2026-08-12T13:55:44.518Z</time>
      </trkpt>
      <trkpt lat="49.23709" lon="6.99688">
        <ele>194.19</ele>
        <time>2026-08-12T13:55:50.517Z</time>
      </trkpt>
      <trkpt lat="49.23687" lon="6.99677">
        <ele>194.12</ele>
        <time>2026-08-12T13:55:56.512Z</time>
      </trkpt>
      <trkpt lat="49.23663" lon="6.99661">
        <ele>194.12</ele>
        <time>2026-08-12T13:56:02.531Z</time>
      </trkpt>
      <trkpt lat="49.23644" lon="6.99643">
        <ele>194.12</ele>
        <time>2026-08-12T13:56:08.512Z</time>
      </trkpt>
      <trkpt lat="49.23634" lon="6.99643">
        <ele>193.53</ele>
        <time>2026-08-12T13:56:14.520Z</time>
      </trkpt>
      <trkpt lat="49.23641" lon="6.9963">
        <ele>193.32</ele>
        <time>2026-08-12T13:56:47.473Z</time>
      </trkpt>
      <trkpt lat="49.23646" lon="6.9961">
        <ele>193.33</ele>
        <time>2026-08-12T13:57:18.461Z</time>
      </trkpt>
      <trkpt lat="49.23662" lon="6.9958">
        <ele>193.33</ele>
        <time>2026-08-12T13:57:23.466Z</time>
      </trkpt>
      <trkpt lat="49.23679" lon="6.99553">
        <ele>193.33</ele>
        <time>2026-08-12T13:57:29.459Z</time>
      </trkpt>
      <trkpt lat="49.23687" lon="6.99521">
        <ele>193.53</ele>
        <time>2026-08-12T13:57:34.472Z</time>
      </trkpt>
      <trkpt lat="49.23687" lon="6.99504">
        <ele>193.53</ele>
        <time>2026-08-12T13:57:40.480Z</time>
      </trkpt>
      <trkpt lat="49.23694" lon="6.99494">
        <ele>193.33</ele>
        <time>2026-08-12T13:58:09.475Z</time>
      </trkpt>
      <trkpt lat="49.23684" lon="6.99474">
        <ele>193.43</ele>
        <time>2026-08-12T13:58:23.480Z</time>
      </trkpt>
      <trkpt lat="49.2366" lon="6.99456">
        <ele>193.43</ele>
        <time>2026-08-12T13:58:28.508Z</time>
      </trkpt>
      <trkpt lat="49.23644" lon="6.99442">
        <ele>193.43</ele>
        <time>2026-08-12T13:58:34.493Z</time>
      </trkpt>
      <trkpt lat="49.23628" lon="6.99433">
        <ele>193.43</ele>
        <time>2026-08-12T13:58:40.494Z</time>
      </trkpt>
      <trkpt lat="49.23619" lon="6.99424">
        <ele>193.43</ele>
        <time>2026-08-12T13:58:46.464Z</time>
      </trkpt>
      <trkpt lat="49.2361" lon="6.99418">
        <ele>193.24</ele>
        <time>2026-08-12T13:58:53.467Z</time>
      </trkpt>
      <trkpt lat="49.2359" lon="6.99398">
        <ele>193.23</ele>
        <time>2026-08-12T13:58:59.462Z</time>
      </trkpt>
      <trkpt lat="49.23584" lon="6.99387">
        <ele>192.73</ele>
        <time>2026-08-12T13:59:04.468Z</time>
      </trkpt>
      <trkpt lat="49.23575" lon="6.99374">
        <ele>192.63</ele>
        <time>2026-08-12T13:59:12.465Z</time>
      </trkpt>
      <trkpt lat="49.23579" lon="6.99362">
        <ele>192.63</ele>
        <time>2026-08-12T13:59:25.463Z</time>
      </trkpt>
      <trkpt lat="49.23588" lon="6.99347">
        <ele>192.63</ele>
        <time>2026-08-12T13:59:35.469Z</time>
      </trkpt>
      <trkpt lat="49.23594" lon="6.99326">
        <ele>192.63</ele>
        <time>2026-08-12T13:59:41.461Z</time>
      </trkpt>
      <trkpt lat="49.23606" lon="6.99313">
        <ele>192.73</ele>
        <time>2026-08-12T13:59:46.466Z</time>
      </trkpt>
      <trkpt lat="49.23614" lon="6.99302">
        <ele>192.73</ele>
        <time>2026-08-12T13:59:51.467Z</time>
      </trkpt>
      <trkpt lat="49.23621" lon="6.99289">
        <ele>192.73</ele>
        <time>2026-08-12T13:59:56.531Z</time>
      </trkpt>
      <trkpt lat="49.23631" lon="6.99278">
        <ele>192.73</ele>
        <time>2026-08-12T14:00:02.539Z</time>
      </trkpt>
      <trkpt lat="49.23638" lon="6.99263">
        <ele>192.64</ele>
        <time>2026-08-12T14:00:08.471Z</time>
      </trkpt>
      <trkpt lat="49.23647" lon="6.99255">
        <ele>192.63</ele>
        <time>2026-08-12T14:00:14.477Z</time>
      </trkpt>
      <trkpt lat="49.23658" lon="6.99245">
        <ele>192.63</ele>
        <time>2026-08-12T14:00:20.456Z</time>
      </trkpt>
      <trkpt lat="49.23668" lon="6.99232">
        <ele>192.63</ele>
        <time>2026-08-12T14:00:25.466Z</time>
      </trkpt>
      <trkpt lat="49.23676" lon="6.99223">
        <ele>192.56</ele>
        <time>2026-08-12T14:00:31.227Z</time>
      </trkpt>
      <trkpt lat="49.23701" lon="6.99227">
        <ele>192.53</ele>
        <time>2026-08-12T14:00:36.468Z</time>
      </trkpt>
      <trkpt lat="49.23713" lon="6.99217">
        <ele>192.53</ele>
        <time>2026-08-12T14:00:41.469Z</time>
      </trkpt>
      <trkpt lat="49.23717" lon="6.99193">
        <ele>192.53</ele>
        <time>2026-08-12T14:00:47.467Z</time>
      </trkpt>
      <trkpt lat="49.23725" lon="6.99183">
        <ele>192.53</ele>
        <time>2026-08-12T14:00:53.471Z</time>
      </trkpt>
      <trkpt lat="49.23734" lon="6.9918">
        <ele>192.53</ele>
        <time>2026-08-12T14:00:58.474Z</time>
      </trkpt>
      <trkpt lat="49.23744" lon="6.99165">
        <ele>192.53</ele>
        <time>2026-08-12T14:01:04.459Z</time>
      </trkpt>
      <trkpt lat="49.23755" lon="6.99144">
        <ele>192.93</ele>
        <time>2026-08-12T14:01:09.464Z</time>
      </trkpt>
      <trkpt lat="49.23764" lon="6.99142">
        <ele>192.93</ele>
        <time>2026-08-12T14:01:14.475Z</time>
      </trkpt>
      <trkpt lat="49.23779" lon="6.99131">
        <ele>192.93</ele>
        <time>2026-08-12T14:01:20.464Z</time>
      </trkpt>
      <trkpt lat="49.23788" lon="6.99115">
        <ele>193.13</ele>
        <time>2026-08-12T14:01:25.467Z</time>
      </trkpt>
      <trkpt lat="49.23799" lon="6.99111">
        <ele>193.13</ele>
        <time>2026-08-12T14:01:31.467Z</time>
      </trkpt>
      <trkpt lat="49.23811" lon="6.99106">
        <ele>193.13</ele>
        <time>2026-08-12T14:01:36.478Z</time>
      </trkpt>
      <trkpt lat="49.23823" lon="6.99101">
        <ele>193.13</ele>
        <time>2026-08-12T14:01:42.465Z</time>
      </trkpt>
      <trkpt lat="49.23833" lon="6.99093">
        <ele>193.33</ele>
        <time>2026-08-12T14:01:47.469Z</time>
      </trkpt>
      <trkpt lat="49.2384" lon="6.99083">
        <ele>193.33</ele>
        <time>2026-08-12T14:01:52.472Z</time>
      </trkpt>
      <trkpt lat="49.23854" lon="6.99071">
        <ele>193.33</ele>
        <time>2026-08-12T14:01:58.469Z</time>
      </trkpt>
      <trkpt lat="49.2386" lon="6.99061">
        <ele>193.33</ele>
        <time>2026-08-12T14:02:03.479Z</time>
      </trkpt>
      <trkpt lat="49.23871" lon="6.99047">
        <ele>194.37</ele>
        <time>2026-08-12T14:02:09.468Z</time>
      </trkpt>
      <trkpt lat="49.23882" lon="6.99048">
        <ele>194.43</ele>
        <time>2026-08-12T14:02:31.562Z</time>
      </trkpt>
      <trkpt lat="49.23878" lon="6.99063">
        <ele>194.43</ele>
        <time>2026-08-12T14:02:37.470Z</time>
      </trkpt>
      <trkpt lat="49.23871" lon="6.99054">
        <ele>194.53</ele>
        <time>2026-08-12T14:02:42.486Z</time>
      </trkpt>
      <trkpt lat="49.23873" lon="6.9907">
        <ele>194.53</ele>
        <time>2026-08-12T14:03:19.461Z</time>
      </trkpt>
      <trkpt lat="49.23862" lon="6.99066">
        <ele>193.73</ele>
        <time>2026-08-12T14:03:52.489Z</time>
      </trkpt>
      <trkpt lat="49.23848" lon="6.99059">
        <ele>193.73</ele>
        <time>2026-08-12T14:03:58.476Z</time>
      </trkpt>
      <trkpt lat="49.23841" lon="6.99069">
        <ele>193.73</ele>
        <time>2026-08-12T14:04:05.488Z</time>
      </trkpt>
      <trkpt lat="49.23837" lon="6.99085">
        <ele>193.73</ele>
        <time>2026-08-12T14:04:11.470Z</time>
      </trkpt>
      <trkpt lat="49.2383" lon="6.99097">
        <ele>193.43</ele>
        <time>2026-08-12T14:04:18.488Z</time>
      </trkpt>
      <trkpt lat="49.23821" lon="6.991">
        <ele>193.43</ele>
        <time>2026-08-12T14:04:24.493Z</time>
      </trkpt>
      <trkpt lat="49.23812" lon="6.99099">
        <ele>193.23</ele>
        <time>2026-08-12T14:04:34.476Z</time>
      </trkpt>
      <trkpt lat="49.23797" lon="6.99101">
        <ele>193.23</ele>
        <time>2026-08-12T14:04:39.488Z</time>
      </trkpt>
      <trkpt lat="49.23787" lon="6.99111">
        <ele>193.23</ele>
        <time>2026-08-12T14:04:44.519Z</time>
      </trkpt>
      <trkpt lat="49.23776" lon="6.99114">
        <ele>193.53</ele>
        <time>2026-08-12T14:04:56.528Z</time>
      </trkpt>
      <trkpt lat="49.23755" lon="6.99103">
        <ele>193.73</ele>
        <time>2026-08-12T14:05:02.537Z</time>
      </trkpt>
      <trkpt lat="49.23738" lon="6.99087">
        <ele>193.73</ele>
        <time>2026-08-12T14:05:08.518Z</time>
      </trkpt>
      <trkpt lat="49.23734" lon="6.99058">
        <ele>193.73</ele>
        <time>2026-08-12T14:05:14.512Z</time>
      </trkpt>
      <trkpt lat="49.23723" lon="6.99057">
        <ele>193.88</ele>
        <time>2026-08-12T14:05:39.499Z</time>
      </trkpt>
      <trkpt lat="49.23698" lon="6.9904">
        <ele>193.93</ele>
        <time>2026-08-12T14:05:44.525Z</time>
      </trkpt>
      <trkpt lat="49.23683" lon="6.99027">
        <ele>193.93</ele>
        <time>2026-08-12T14:05:50.524Z</time>
      </trkpt>
      <trkpt lat="49.23666" lon="6.99012">
        <ele>193.93</ele>
        <time>2026-08-12T14:05:56.545Z</time>
      </trkpt>
      <trkpt lat="49.23653" lon="6.99003">
        <ele>193.28</ele>
        <time>2026-08-12T14:06:02.542Z</time>
      </trkpt>
      <trkpt lat="49.23632" lon="6.98985">
        <ele>193.24</ele>
        <time>2026-08-12T14:06:08.524Z</time>
      </trkpt>
      <trkpt lat="49.23615" lon="6.98976">
        <ele>193.24</ele>
        <time>2026-08-12T14:06:14.510Z</time>
      </trkpt>
      <trkpt lat="49.23608" lon="6.98963">
        <ele>193.84</ele>
        <time>2026-08-12T14:06:41.481Z</time>
      </trkpt>
      <trkpt lat="49.23591" lon="6.98947">
        <ele>193.94</ele>
        <time>2026-08-12T14:06:46.487Z</time>
      </trkpt>
      <trkpt lat="49.23584" lon="6.98937">
        <ele>193.94</ele>
        <time>2026-08-12T14:06:52.491Z</time>
      </trkpt>
      <trkpt lat="49.23572" lon="6.98947">
        <ele>193.94</ele>
        <time>2026-08-12T14:06:57.500Z</time>
      </trkpt>
      <trkpt lat="49.23568" lon="6.98961">
        <ele>193.84</ele>
        <time>2026-08-12T14:07:13.474Z</time>
      </trkpt>
      <trkpt lat="49.23562" lon="6.98974">
        <ele>193.84</ele>
        <time>2026-08-12T14:07:19.466Z</time>
      </trkpt>
      <trkpt lat="49.2357" lon="6.98963">
        <ele>193.84</ele>
        <time>2026-08-12T14:07:54.457Z</time>
      </trkpt>
      <trkpt lat="49.23581" lon="6.98959">
        <ele>193.94</ele>
        <time>2026-08-12T14:08:06.468Z</time>
      </trkpt>
      <trkpt lat="49.23576" lon="6.98948">
        <ele>193.93</ele>
        <time>2026-08-12T14:08:32.524Z</time>
      </trkpt>
      <trkpt lat="49.23568" lon="6.98954">
        <ele>193.94</ele>
        <time>2026-08-12T14:08:52.492Z</time>
      </trkpt>
      <trkpt lat="49.23562" lon="6.9897">
        <ele>193.94</ele>
        <time>2026-08-12T14:09:36.480Z</time>
      </trkpt>
      <trkpt lat="49.23554" lon="6.98963">
        <ele>193.84</ele>
        <time>2026-08-12T14:10:45.476Z</time>
      </trkpt>
      <trkpt lat="49.23568" lon="6.98967">
        <ele>193.94</ele>
        <time>2026-08-12T14:11:26.551Z</time>
      </trkpt>
      <trkpt lat="49.2356" lon="6.98974">
        <ele>193.94</ele>
        <time>2026-08-12T14:11:50.543Z</time>
      </trkpt>
      <trkpt lat="49.23562" lon="6.9896">
        <ele>193.94</ele>
        <time>2026-08-12T14:13:37.464Z</time>
      </trkpt>
      <trkpt lat="49.2357" lon="6.98968">
        <ele>193.94</ele>
        <time>2026-08-12T14:18:19.468Z</time>
      </trkpt>
      <trkpt lat="49.23579" lon="6.98973">
        <ele>193.94</ele>
        <time>2026-08-12T14:18:35.467Z</time>
      </trkpt>
      <trkpt lat="49.23587" lon="6.98978">
        <ele>193.94</ele>
        <time>2026-08-12T14:19:12.716Z</time>
      </trkpt>
      <trkpt lat="49.23592" lon="6.99016">
        <ele>193.93</ele>
        <time>2026-08-12T14:19:18.477Z</time>
      </trkpt>
      <trkpt lat="49.23574" lon="6.99041">
        <ele>193.93</ele>
        <time>2026-08-12T14:19:24.480Z</time>
      </trkpt>
      <trkpt lat="49.23557" lon="6.99054">
        <ele>193.93</ele>
        <time>2026-08-12T14:19:29.481Z</time>
      </trkpt>
      <trkpt lat="49.23542" lon="6.99062">
        <ele>193.93</ele>
        <time>2026-08-12T14:19:35.465Z</time>
      </trkpt>
      <trkpt lat="49.23526" lon="6.99063">
        <ele>192.73</ele>
        <time>2026-08-12T14:19:40.474Z</time>
      </trkpt>
      <trkpt lat="49.23503" lon="6.99054">
        <ele>192.73</ele>
        <time>2026-08-12T14:19:46.477Z</time>
      </trkpt>
      <trkpt lat="49.23481" lon="6.99058">
        <ele>192.73</ele>
        <time>2026-08-12T14:19:52.467Z</time>
      </trkpt>
      <trkpt lat="49.23464" lon="6.99055">
        <ele>199.63</ele>
        <time>2026-08-12T14:19:57.476Z</time>
      </trkpt>
      <trkpt lat="49.23449" lon="6.99049">
        <ele>199.63</ele>
        <time>2026-08-12T14:20:02.534Z</time>
      </trkpt>
      <trkpt lat="49.23439" lon="6.99046">
        <ele>199.63</ele>
        <time>2026-08-12T14:20:11.470Z</time>
      </trkpt>
      <trkpt lat="49.23429" lon="6.99041">
        <ele>167.47</ele>
        <time>2026-08-12T14:20:39.479Z</time>
      </trkpt>
      <trkpt lat="49.23417" lon="6.99048">
        <ele>217.03</ele>
        <time>2026-08-12T14:22:06.468Z</time>
      </trkpt>
      <trkpt lat="49.23389" lon="6.99056">
        <ele>217.03</ele>
        <time>2026-08-12T14:22:12.463Z</time>
      </trkpt>
      <trkpt lat="49.23371" lon="6.99071">
        <ele>217.03</ele>
        <time>2026-08-12T14:22:17.464Z</time>
      </trkpt>
      <trkpt lat="49.23359" lon="6.99099">
        <ele>217.03</ele>
        <time>2026-08-12T14:22:22.467Z</time>
      </trkpt>
      <trkpt lat="49.2336" lon="6.99126">
        <ele>193.9</ele>
        <time>2026-08-12T14:22:27.482Z</time>
      </trkpt>
      <trkpt lat="49.23363" lon="6.9915">
        <ele>193.53</ele>
        <time>2026-08-12T14:22:32.515Z</time>
      </trkpt>
      <trkpt lat="49.23355" lon="6.99161">
        <ele>193.53</ele>
        <time>2026-08-12T14:22:38.513Z</time>
      </trkpt>
      <trkpt lat="49.23334" lon="6.99159">
        <ele>193.53</ele>
        <time>2026-08-12T14:22:44.513Z</time>
      </trkpt>
      <trkpt lat="49.23308" lon="6.99174">
        <ele>193.53</ele>
        <time>2026-08-12T14:22:50.522Z</time>
      </trkpt>
      <trkpt lat="49.23291" lon="6.99183">
        <ele>193.53</ele>
        <time>2026-08-12T14:22:56.519Z</time>
      </trkpt>
      <trkpt lat="49.23269" lon="6.99199">
        <ele>193.53</ele>
        <time>2026-08-12T14:23:02.513Z</time>
      </trkpt>
      <trkpt lat="49.23238" lon="6.99216">
        <ele>193.53</ele>
        <time>2026-08-12T14:23:08.514Z</time>
      </trkpt>
      <trkpt lat="49.23202" lon="6.99241">
        <ele>193.53</ele>
        <time>2026-08-12T14:23:14.513Z</time>
      </trkpt>
      <trkpt lat="49.23184" lon="6.99277">
        <ele>193.53</ele>
        <time>2026-08-12T14:23:20.521Z</time>
      </trkpt>
      <trkpt lat="49.23157" lon="6.99293">
        <ele>193.53</ele>
        <time>2026-08-12T14:23:26.507Z</time>
      </trkpt>
      <trkpt lat="49.23131" lon="6.99308">
        <ele>193.53</ele>
        <time>2026-08-12T14:23:32.529Z</time>
      </trkpt>
      <trkpt lat="49.23108" lon="6.99324">
        <ele>193.53</ele>
        <time>2026-08-12T14:23:38.517Z</time>
      </trkpt>
      <trkpt lat="49.23085" lon="6.99339">
        <ele>193.53</ele>
        <time>2026-08-12T14:23:44.532Z</time>
      </trkpt>
      <trkpt lat="49.2306" lon="6.99365">
        <ele>193.53</ele>
        <time>2026-08-12T14:23:50.512Z</time>
      </trkpt>
      <trkpt lat="49.23037" lon="6.99395">
        <ele>193.53</ele>
        <time>2026-08-12T14:23:56.522Z</time>
      </trkpt>
      <trkpt lat="49.23016" lon="6.9943">
        <ele>193.53</ele>
        <time>2026-08-12T14:24:02.514Z</time>
      </trkpt>
      <trkpt lat="49.22996" lon="6.99466">
        <ele>193.53</ele>
        <time>2026-08-12T14:24:08.512Z</time>
      </trkpt>
      <trkpt lat="49.22977" lon="6.99505">
        <ele>142.96</ele>
        <time>2026-08-12T14:24:14.517Z</time>
      </trkpt>
      <trkpt lat="49.22964" lon="6.99544">
        <ele>141.79</ele>
        <time>2026-08-12T14:24:20.529Z</time>
      </trkpt>
      <trkpt lat="49.22946" lon="6.99579">
        <ele>140.62</ele>
        <time>2026-08-12T14:24:26.545Z</time>
      </trkpt>
      <trkpt lat="49.22937" lon="6.99622">
        <ele>142.06</ele>
        <time>2026-08-12T14:24:32.528Z</time>
      </trkpt>
      <trkpt lat="49.22924" lon="6.99664">
        <ele>144.7</ele>
        <time>2026-08-12T14:24:38.529Z</time>
      </trkpt>
      <trkpt lat="49.22915" lon="6.99709">
        <ele>146.15</ele>
        <time>2026-08-12T14:24:44.531Z</time>
      </trkpt>
      <trkpt lat="49.22911" lon="6.99756">
        <ele>145.34</ele>
        <time>2026-08-12T14:24:50.531Z</time>
      </trkpt>
      <trkpt lat="49.22909" lon="6.99803">
        <ele>145.13</ele>
        <time>2026-08-12T14:24:56.544Z</time>
      </trkpt>
      <trkpt lat="49.22907" lon="6.99849">
        <ele>144.36</ele>
        <time>2026-08-12T14:25:02.529Z</time>
      </trkpt>
      <trkpt lat="49.22906" lon="6.99891">
        <ele>142.42</ele>
        <time>2026-08-12T14:25:08.530Z</time>
      </trkpt>
      <trkpt lat="49.22904" lon="6.99935">
        <ele>140.8</ele>
        <time>2026-08-12T14:25:14.534Z</time>
      </trkpt>
      <trkpt lat="49.22903" lon="6.9998">
        <ele>139.73</ele>
        <time>2026-08-12T14:25:20.533Z</time>
      </trkpt>
      <trkpt lat="49.22902" lon="7.00021">
        <ele>139.72</ele>
        <time>2026-08-12T14:25:26.543Z</time>
      </trkpt>
      <trkpt lat="49.229" lon="7.00066">
        <ele>139.54</ele>
        <time>2026-08-12T14:25:32.530Z</time>
      </trkpt>
      <trkpt lat="49.22898" lon="7.00113">
        <ele>139.61</ele>
        <time>2026-08-12T14:25:38.530Z</time>
      </trkpt>
      <trkpt lat="49.22894" lon="7.00164">
        <ele>140.28</ele>
        <time>2026-08-12T14:25:44.528Z</time>
      </trkpt>
      <trkpt lat="49.22886" lon="7.0021">
        <ele>140.28</ele>
        <time>2026-08-12T14:25:50.529Z</time>
      </trkpt>
      <trkpt lat="49.22874" lon="7.00248">
        <ele>141.48</ele>
        <time>2026-08-12T14:25:56.539Z</time>
      </trkpt>
      <trkpt lat="49.22853" lon="7.00273">
        <ele>138.4</ele>
        <time>2026-08-12T14:26:02.528Z</time>
      </trkpt>
      <trkpt lat="49.22827" lon="7.00285">
        <ele>136.93</ele>
        <time>2026-08-12T14:26:08.528Z</time>
      </trkpt>
      <trkpt lat="49.22801" lon="7.00293">
        <ele>135.16</ele>
        <time>2026-08-12T14:26:14.531Z</time>
      </trkpt>
      <trkpt lat="49.22772" lon="7.00301">
        <ele>133.1</ele>
        <time>2026-08-12T14:26:20.530Z</time>
      </trkpt>
      <trkpt lat="49.22741" lon="7.0031">
        <ele>130.57</ele>
        <time>2026-08-12T14:26:26.542Z</time>
      </trkpt>
      <trkpt lat="49.22713" lon="7.00322">
        <ele>128.43</ele>
        <time>2026-08-12T14:26:32.533Z</time>
      </trkpt>
      <trkpt lat="49.22703" lon="7.00328">
        <ele>134.68</ele>
        <time>2026-08-12T14:38:37.485Z</time>
      </trkpt>
      <trkpt lat="49.22704" lon="7.00343">
        <ele>140.35</ele>
        <time>2026-08-12T15:05:51.490Z</time>
      </trkpt>
      <trkpt lat="49.22693" lon="7.0034">
        <ele>140.71</ele>
        <time>2026-08-12T15:20:56.221Z</time>
      </trkpt>
      <trkpt lat="49.22684" lon="7.00342">
        <ele>139.24</ele>
        <time>2026-08-12T15:21:01.296Z</time>
      </trkpt>
      <trkpt lat="49.22667" lon="7.00353">
        <ele>136.97</ele>
        <time>2026-08-12T15:21:06.508Z</time>
      </trkpt>
      <trkpt lat="49.22658" lon="7.00362">
        <ele>137.97</ele>
        <time>2026-08-12T15:23:01.482Z</time>
      </trkpt>
      <trkpt lat="49.22638" lon="7.00381">
        <ele>137.91</ele>
        <time>2026-08-12T15:23:07.259Z</time>
      </trkpt>
      <trkpt lat="49.2262" lon="7.004">
        <ele>133.64</ele>
        <time>2026-08-12T15:23:12.488Z</time>
      </trkpt>
      <trkpt lat="49.22604" lon="7.00422">
        <ele>131.7</ele>
        <time>2026-08-12T15:23:17.489Z</time>
      </trkpt>
      <trkpt lat="49.22587" lon="7.0045">
        <ele>132.9</ele>
        <time>2026-08-12T15:23:23.097Z</time>
      </trkpt>
      <trkpt lat="49.22573" lon="7.00474">
        <ele>133.47</ele>
        <time>2026-08-12T15:23:28.492Z</time>
      </trkpt>
      <trkpt lat="49.22556" lon="7.005">
        <ele>131.92</ele>
        <time>2026-08-12T15:23:34.134Z</time>
      </trkpt>
      <trkpt lat="49.2254" lon="7.00527">
        <ele>129.36</ele>
        <time>2026-08-12T15:23:39.473Z</time>
      </trkpt>
      <trkpt lat="49.22528" lon="7.00556">
        <ele>125.29</ele>
        <time>2026-08-12T15:23:44.533Z</time>
      </trkpt>
      <trkpt lat="49.22513" lon="7.00593">
        <ele>123.51</ele>
        <time>2026-08-12T15:23:50.533Z</time>
      </trkpt>
      <trkpt lat="49.22503" lon="7.00623">
        <ele>124.01</ele>
        <time>2026-08-12T15:23:56.140Z</time>
      </trkpt>
      <trkpt lat="49.22494" lon="7.0066">
        <ele>127.07</ele>
        <time>2026-08-12T15:24:01.480Z</time>
      </trkpt>
      <trkpt lat="49.22483" lon="7.00685">
        <ele>129.46</ele>
        <time>2026-08-12T15:24:06.480Z</time>
      </trkpt>
      <trkpt lat="49.22482" lon="7.00709">
        <ele>131.95</ele>
        <time>2026-08-12T15:24:11.482Z</time>
      </trkpt>
      <trkpt lat="49.22469" lon="7.00738">
        <ele>134</ele>
        <time>2026-08-12T15:24:17.105Z</time>
      </trkpt>
      <trkpt lat="49.22463" lon="7.00774">
        <ele>134.77</ele>
        <time>2026-08-12T15:24:22.492Z</time>
      </trkpt>
      <trkpt lat="49.22455" lon="7.00807">
        <ele>135.59</ele>
        <time>2026-08-12T15:24:27.495Z</time>
      </trkpt>
      <trkpt lat="49.22446" lon="7.00843">
        <ele>136.13</ele>
        <time>2026-08-12T15:24:32.550Z</time>
      </trkpt>
      <trkpt lat="49.22434" lon="7.00884">
        <ele>138.06</ele>
        <time>2026-08-12T15:24:38.548Z</time>
      </trkpt>
      <trkpt lat="49.22419" lon="7.00928">
        <ele>139.18</ele>
        <time>2026-08-12T15:24:44.551Z</time>
      </trkpt>
      <trkpt lat="49.22409" lon="7.00978">
        <ele>139.18</ele>
        <time>2026-08-12T15:24:50.552Z</time>
      </trkpt>
      <trkpt lat="49.22398" lon="7.01027">
        <ele>139.23</ele>
        <time>2026-08-12T15:24:56.555Z</time>
      </trkpt>
      <trkpt lat="49.22388" lon="7.01074">
        <ele>139.2</ele>
        <time>2026-08-12T15:25:02.545Z</time>
      </trkpt>
      <trkpt lat="49.22377" lon="7.01119">
        <ele>137.26</ele>
        <time>2026-08-12T15:25:08.543Z</time>
      </trkpt>
      <trkpt lat="49.22369" lon="7.01159">
        <ele>137.25</ele>
        <time>2026-08-12T15:25:14.545Z</time>
      </trkpt>
      <trkpt lat="49.22359" lon="7.012">
        <ele>136.4</ele>
        <time>2026-08-12T15:25:20.546Z</time>
      </trkpt>
      <trkpt lat="49.22343" lon="7.01242">
        <ele>135.54</ele>
        <time>2026-08-12T15:25:26.555Z</time>
      </trkpt>
      <trkpt lat="49.22326" lon="7.01283">
        <ele>133.29</ele>
        <time>2026-08-12T15:25:32.547Z</time>
      </trkpt>
      <trkpt lat="49.22311" lon="7.01325">
        <ele>134.7</ele>
        <time>2026-08-12T15:25:38.545Z</time>
      </trkpt>
      <trkpt lat="49.22297" lon="7.01364">
        <ele>135.93</ele>
        <time>2026-08-12T15:25:44.545Z</time>
      </trkpt>
      <trkpt lat="49.22281" lon="7.01401">
        <ele>138.4</ele>
        <time>2026-08-12T15:25:50.546Z</time>
      </trkpt>
      <trkpt lat="49.22265" lon="7.01436">
        <ele>139.27</ele>
        <time>2026-08-12T15:25:56.525Z</time>
      </trkpt>
      <trkpt lat="49.2225" lon="7.01472">
        <ele>141.53</ele>
        <time>2026-08-12T15:26:02.551Z</time>
      </trkpt>
      <trkpt lat="49.22233" lon="7.01507">
        <ele>143.11</ele>
        <time>2026-08-12T15:26:08.545Z</time>
      </trkpt>
      <trkpt lat="49.22215" lon="7.01541">
        <ele>142.04</ele>
        <time>2026-08-12T15:26:14.545Z</time>
      </trkpt>
      <trkpt lat="49.22198" lon="7.01573">
        <ele>141.52</ele>
        <time>2026-08-12T15:26:20.546Z</time>
      </trkpt>
      <trkpt lat="49.22178" lon="7.0161">
        <ele>143.67</ele>
        <time>2026-08-12T15:26:26.554Z</time>
      </trkpt>
      <trkpt lat="49.22157" lon="7.01646">
        <ele>146.94</ele>
        <time>2026-08-12T15:26:32.545Z</time>
      </trkpt>
      <trkpt lat="49.22139" lon="7.01686">
        <ele>148.18</ele>
        <time>2026-08-12T15:26:38.547Z</time>
      </trkpt>
      <trkpt lat="49.22125" lon="7.01723">
        <ele>146.86</ele>
        <time>2026-08-12T15:26:44.548Z</time>
      </trkpt>
      <trkpt lat="49.22101" lon="7.01749">
        <ele>146.11</ele>
        <time>2026-08-12T15:26:50.545Z</time>
      </trkpt>
      <trkpt lat="49.22071" lon="7.01775">
        <ele>142.52</ele>
        <time>2026-08-12T15:26:56.557Z</time>
      </trkpt>
      <trkpt lat="49.22046" lon="7.01803">
        <ele>142.19</ele>
        <time>2026-08-12T15:27:02.544Z</time>
      </trkpt>
      <trkpt lat="49.22021" lon="7.0183">
        <ele>141.15</ele>
        <time>2026-08-12T15:27:08.531Z</time>
      </trkpt>
      <trkpt lat="49.21996" lon="7.01852">
        <ele>139.9</ele>
        <time>2026-08-12T15:27:14.546Z</time>
      </trkpt>
      <trkpt lat="49.21972" lon="7.01881">
        <ele>141.82</ele>
        <time>2026-08-12T15:27:20.540Z</time>
      </trkpt>
      <trkpt lat="49.21944" lon="7.01909">
        <ele>144.21</ele>
        <time>2026-08-12T15:27:26.554Z</time>
      </trkpt>
      <trkpt lat="49.21915" lon="7.01934">
        <ele>145.78</ele>
        <time>2026-08-12T15:27:32.544Z</time>
      </trkpt>
      <trkpt lat="49.21885" lon="7.0196">
        <ele>147.76</ele>
        <time>2026-08-12T15:27:38.542Z</time>
      </trkpt>
      <trkpt lat="49.21854" lon="7.01979">
        <ele>146.2</ele>
        <time>2026-08-12T15:27:44.545Z</time>
      </trkpt>
      <trkpt lat="49.21823" lon="7.01997">
        <ele>143.24</ele>
        <time>2026-08-12T15:27:50.543Z</time>
      </trkpt>
      <trkpt lat="49.21791" lon="7.02015">
        <ele>139.32</ele>
        <time>2026-08-12T15:27:56.557Z</time>
      </trkpt>
      <trkpt lat="49.21759" lon="7.0203">
        <ele>134.02</ele>
        <time>2026-08-12T15:28:02.544Z</time>
      </trkpt>
      <trkpt lat="49.21724" lon="7.0204">
        <ele>129.12</ele>
        <time>2026-08-12T15:28:08.549Z</time>
      </trkpt>
      <trkpt lat="49.21691" lon="7.02052">
        <ele>126.2</ele>
        <time>2026-08-12T15:28:14.542Z</time>
      </trkpt>
      <trkpt lat="49.2166" lon="7.02068">
        <ele>125.08</ele>
        <time>2026-08-12T15:28:20.544Z</time>
      </trkpt>
      <trkpt lat="49.21626" lon="7.02083">
        <ele>121.72</ele>
        <time>2026-08-12T15:28:26.557Z</time>
      </trkpt>
      <trkpt lat="49.21594" lon="7.02098">
        <ele>119.38</ele>
        <time>2026-08-12T15:28:32.545Z</time>
      </trkpt>
      <trkpt lat="49.21563" lon="7.02115">
        <ele>118.53</ele>
        <time>2026-08-12T15:28:38.543Z</time>
      </trkpt>
      <trkpt lat="49.2153" lon="7.0213">
        <ele>119.78</ele>
        <time>2026-08-12T15:28:44.546Z</time>
      </trkpt>
      <trkpt lat="49.21497" lon="7.02147">
        <ele>119.97</ele>
        <time>2026-08-12T15:28:50.543Z</time>
      </trkpt>
      <trkpt lat="49.21466" lon="7.02165">
        <ele>120.91</ele>
        <time>2026-08-12T15:28:56.558Z</time>
      </trkpt>
      <trkpt lat="49.21435" lon="7.02184">
        <ele>123.52</ele>
        <time>2026-08-12T15:29:02.541Z</time>
      </trkpt>
      <trkpt lat="49.21404" lon="7.022">
        <ele>125.5</ele>
        <time>2026-08-12T15:29:08.546Z</time>
      </trkpt>
      <trkpt lat="49.2137" lon="7.02217">
        <ele>127.35</ele>
        <time>2026-08-12T15:29:14.552Z</time>
      </trkpt>
      <trkpt lat="49.21335" lon="7.02231">
        <ele>127.62</ele>
        <time>2026-08-12T15:29:20.544Z</time>
      </trkpt>
      <trkpt lat="49.21303" lon="7.02244">
        <ele>128.28</ele>
        <time>2026-08-12T15:29:26.558Z</time>
      </trkpt>
      <trkpt lat="49.21267" lon="7.02245">
        <ele>127.48</ele>
        <time>2026-08-12T15:29:32.561Z</time>
      </trkpt>
      <trkpt lat="49.21232" lon="7.02242">
        <ele>125.21</ele>
        <time>2026-08-12T15:29:38.544Z</time>
      </trkpt>
      <trkpt lat="49.21198" lon="7.02236">
        <ele>123.15</ele>
        <time>2026-08-12T15:29:44.545Z</time>
      </trkpt>
      <trkpt lat="49.21165" lon="7.02231">
        <ele>123.8</ele>
        <time>2026-08-12T15:29:50.548Z</time>
      </trkpt>
      <trkpt lat="49.21132" lon="7.0222">
        <ele>124.08</ele>
        <time>2026-08-12T15:29:56.548Z</time>
      </trkpt>
      <trkpt lat="49.21096" lon="7.02227">
        <ele>126.03</ele>
        <time>2026-08-12T15:30:02.549Z</time>
      </trkpt>
      <trkpt lat="49.21065" lon="7.02197">
        <ele>125.72</ele>
        <time>2026-08-12T15:30:08.544Z</time>
      </trkpt>
      <trkpt lat="49.21035" lon="7.02176">
        <ele>125.47</ele>
        <time>2026-08-12T15:30:14.544Z</time>
      </trkpt>
      <trkpt lat="49.21003" lon="7.02156">
        <ele>124.29</ele>
        <time>2026-08-12T15:30:20.543Z</time>
      </trkpt>
      <trkpt lat="49.20972" lon="7.02132">
        <ele>124.36</ele>
        <time>2026-08-12T15:30:26.535Z</time>
      </trkpt>
      <trkpt lat="49.20943" lon="7.0211">
        <ele>125.34</ele>
        <time>2026-08-12T15:30:32.545Z</time>
      </trkpt>
      <trkpt lat="49.20916" lon="7.02089">
        <ele>123.94</ele>
        <time>2026-08-12T15:30:38.543Z</time>
      </trkpt>
      <trkpt lat="49.20888" lon="7.02063">
        <ele>123.26</ele>
        <time>2026-08-12T15:30:44.546Z</time>
      </trkpt>
      <trkpt lat="49.20861" lon="7.02038">
        <ele>123.29</ele>
        <time>2026-08-12T15:30:50.546Z</time>
      </trkpt>
      <trkpt lat="49.20831" lon="7.02013">
        <ele>123.5</ele>
        <time>2026-08-12T15:30:56.554Z</time>
      </trkpt>
      <trkpt lat="49.20801" lon="7.01988">
        <ele>123.68</ele>
        <time>2026-08-12T15:31:02.543Z</time>
      </trkpt>
      <trkpt lat="49.20772" lon="7.01964">
        <ele>123.68</ele>
        <time>2026-08-12T15:31:08.544Z</time>
      </trkpt>
      <trkpt lat="49.20743" lon="7.01939">
        <ele>125</ele>
        <time>2026-08-12T15:31:14.544Z</time>
      </trkpt>
      <trkpt lat="49.20712" lon="7.01912">
        <ele>124.29</ele>
        <time>2026-08-12T15:31:20.548Z</time>
      </trkpt>
      <trkpt lat="49.20682" lon="7.01887">
        <ele>126.21</ele>
        <time>2026-08-12T15:31:26.544Z</time>
      </trkpt>
      <trkpt lat="49.2065" lon="7.01867">
        <ele>127.13</ele>
        <time>2026-08-12T15:31:32.543Z</time>
      </trkpt>
      <trkpt lat="49.20617" lon="7.01853">
        <ele>129.95</ele>
        <time>2026-08-12T15:31:38.545Z</time>
      </trkpt>
      <trkpt lat="49.20583" lon="7.01838">
        <ele>132.64</ele>
        <time>2026-08-12T15:31:44.542Z</time>
      </trkpt>
      <trkpt lat="49.20549" lon="7.01822">
        <ele>134.1</ele>
        <time>2026-08-12T15:31:50.539Z</time>
      </trkpt>
      <trkpt lat="49.20515" lon="7.01808">
        <ele>134.85</ele>
        <time>2026-08-12T15:31:56.545Z</time>
      </trkpt>
      <trkpt lat="49.2048" lon="7.01813">
        <ele>136.95</ele>
        <time>2026-08-12T15:32:02.541Z</time>
      </trkpt>
      <trkpt lat="49.2045" lon="7.01829">
        <ele>135.91</ele>
        <time>2026-08-12T15:32:08.546Z</time>
      </trkpt>
      <trkpt lat="49.20421" lon="7.01852">
        <ele>134.47</ele>
        <time>2026-08-12T15:32:14.545Z</time>
      </trkpt>
      <trkpt lat="49.20394" lon="7.01883">
        <ele>134.15</ele>
        <time>2026-08-12T15:32:20.547Z</time>
      </trkpt>
      <trkpt lat="49.20371" lon="7.01916">
        <ele>133.48</ele>
        <time>2026-08-12T15:32:26.557Z</time>
      </trkpt>
      <trkpt lat="49.20343" lon="7.01947">
        <ele>132.17</ele>
        <time>2026-08-12T15:32:32.543Z</time>
      </trkpt>
      <trkpt lat="49.20313" lon="7.0198">
        <ele>130.57</ele>
        <time>2026-08-12T15:32:38.542Z</time>
      </trkpt>
      <trkpt lat="49.20288" lon="7.0202">
        <ele>131.49</ele>
        <time>2026-08-12T15:32:44.542Z</time>
      </trkpt>
      <trkpt lat="49.20263" lon="7.02058">
        <ele>134.63</ele>
        <time>2026-08-12T15:32:50.540Z</time>
      </trkpt>
      <trkpt lat="49.20235" lon="7.02083">
        <ele>135.38</ele>
        <time>2026-08-12T15:32:56.543Z</time>
      </trkpt>
      <trkpt lat="49.20202" lon="7.02102">
        <ele>134.11</ele>
        <time>2026-08-12T15:33:02.550Z</time>
      </trkpt>
      <trkpt lat="49.20169" lon="7.02122">
        <ele>135.63</ele>
        <time>2026-08-12T15:33:08.543Z</time>
      </trkpt>
      <trkpt lat="49.20142" lon="7.02146">
        <ele>134.08</ele>
        <time>2026-08-12T15:33:14.544Z</time>
      </trkpt>
      <trkpt lat="49.20116" lon="7.02175">
        <ele>131.96</ele>
        <time>2026-08-12T15:33:20.551Z</time>
      </trkpt>
      <trkpt lat="49.20091" lon="7.02207">
        <ele>132.41</ele>
        <time>2026-08-12T15:33:26.544Z</time>
      </trkpt>
      <trkpt lat="49.20066" lon="7.02243">
        <ele>133.07</ele>
        <time>2026-08-12T15:33:32.547Z</time>
      </trkpt>
      <trkpt lat="49.20042" lon="7.0228">
        <ele>132.84</ele>
        <time>2026-08-12T15:33:38.547Z</time>
      </trkpt>
      <trkpt lat="49.2002" lon="7.02315">
        <ele>130.34</ele>
        <time>2026-08-12T15:33:44.545Z</time>
      </trkpt>
      <trkpt lat="49.20001" lon="7.02355">
        <ele>134.27</ele>
        <time>2026-08-12T15:33:50.550Z</time>
      </trkpt>
      <trkpt lat="49.19985" lon="7.02388">
        <ele>138.46</ele>
        <time>2026-08-12T15:33:56.554Z</time>
      </trkpt>
      <trkpt lat="49.19964" lon="7.02418">
        <ele>140.76</ele>
        <time>2026-08-12T15:34:02.545Z</time>
      </trkpt>
      <trkpt lat="49.19941" lon="7.02446">
        <ele>141.28</ele>
        <time>2026-08-12T15:34:08.547Z</time>
      </trkpt>
      <trkpt lat="49.19916" lon="7.02473">
        <ele>140.83</ele>
        <time>2026-08-12T15:34:14.542Z</time>
      </trkpt>
      <trkpt lat="49.19891" lon="7.02502">
        <ele>139.88</ele>
        <time>2026-08-12T15:34:20.548Z</time>
      </trkpt>
      <trkpt lat="49.19864" lon="7.0253">
        <ele>138.82</ele>
        <time>2026-08-12T15:34:26.543Z</time>
      </trkpt>
      <trkpt lat="49.19838" lon="7.02555">
        <ele>139.73</ele>
        <time>2026-08-12T15:34:32.547Z</time>
      </trkpt>
      <trkpt lat="49.19815" lon="7.02582">
        <ele>141.13</ele>
        <time>2026-08-12T15:34:38.544Z</time>
      </trkpt>
      <trkpt lat="49.19791" lon="7.02612">
        <ele>140.62</ele>
        <time>2026-08-12T15:34:44.548Z</time>
      </trkpt>
      <trkpt lat="49.19768" lon="7.02648">
        <ele>140.38</ele>
        <time>2026-08-12T15:34:50.551Z</time>
      </trkpt>
      <trkpt lat="49.19751" lon="7.02684">
        <ele>141.23</ele>
        <time>2026-08-12T15:34:56.562Z</time>
      </trkpt>
      <trkpt lat="49.19735" lon="7.02716">
        <ele>144.17</ele>
        <time>2026-08-12T15:35:02.543Z</time>
      </trkpt>
      <trkpt lat="49.1972" lon="7.02747">
        <ele>143.17</ele>
        <time>2026-08-12T15:35:08.546Z</time>
      </trkpt>
      <trkpt lat="49.19701" lon="7.02782">
        <ele>142.27</ele>
        <time>2026-08-12T15:35:14.559Z</time>
      </trkpt>
      <trkpt lat="49.1968" lon="7.02815">
        <ele>140.83</ele>
        <time>2026-08-12T15:35:20.550Z</time>
      </trkpt>
      <trkpt lat="49.19654" lon="7.02847">
        <ele>138.31</ele>
        <time>2026-08-12T15:35:26.555Z</time>
      </trkpt>
      <trkpt lat="49.19631" lon="7.02879">
        <ele>140.29</ele>
        <time>2026-08-12T15:35:32.544Z</time>
      </trkpt>
      <trkpt lat="49.19606" lon="7.02908">
        <ele>141.25</ele>
        <time>2026-08-12T15:35:38.545Z</time>
      </trkpt>
      <trkpt lat="49.19579" lon="7.02942">
        <ele>140.78</ele>
        <time>2026-08-12T15:35:44.553Z</time>
      </trkpt>
      <trkpt lat="49.1955" lon="7.02975">
        <ele>140.19</ele>
        <time>2026-08-12T15:35:50.545Z</time>
      </trkpt>
      <trkpt lat="49.19522" lon="7.03009">
        <ele>139.98</ele>
        <time>2026-08-12T15:35:56.536Z</time>
      </trkpt>
      <trkpt lat="49.19494" lon="7.03046">
        <ele>140.71</ele>
        <time>2026-08-12T15:36:02.547Z</time>
      </trkpt>
      <trkpt lat="49.19468" lon="7.03079">
        <ele>142.36</ele>
        <time>2026-08-12T15:36:08.549Z</time>
      </trkpt>
      <trkpt lat="49.19441" lon="7.03116">
        <ele>142.53</ele>
        <time>2026-08-12T15:36:14.548Z</time>
      </trkpt>
      <trkpt lat="49.19418" lon="7.03155">
        <ele>145.78</ele>
        <time>2026-08-12T15:36:20.546Z</time>
      </trkpt>
      <trkpt lat="49.19394" lon="7.03198">
        <ele>146.97</ele>
        <time>2026-08-12T15:36:26.552Z</time>
      </trkpt>
      <trkpt lat="49.19373" lon="7.03236">
        <ele>148.35</ele>
        <time>2026-08-12T15:36:32.543Z</time>
      </trkpt>
      <trkpt lat="49.19348" lon="7.03274">
        <ele>149.18</ele>
        <time>2026-08-12T15:36:38.546Z</time>
      </trkpt>
      <trkpt lat="49.19323" lon="7.03311">
        <ele>146.78</ele>
        <time>2026-08-12T15:36:44.544Z</time>
      </trkpt>
      <trkpt lat="49.19296" lon="7.03346">
        <ele>145.66</ele>
        <time>2026-08-12T15:36:50.543Z</time>
      </trkpt>
      <trkpt lat="49.19266" lon="7.0338">
        <ele>143.52</ele>
        <time>2026-08-12T15:36:56.558Z</time>
      </trkpt>
      <trkpt lat="49.19235" lon="7.03411">
        <ele>137.72</ele>
        <time>2026-08-12T15:37:02.546Z</time>
      </trkpt>
      <trkpt lat="49.19205" lon="7.03438">
        <ele>133.24</ele>
        <time>2026-08-12T15:37:08.546Z</time>
      </trkpt>
      <trkpt lat="49.19168" lon="7.03451">
        <ele>132.22</ele>
        <time>2026-08-12T15:37:14.545Z</time>
      </trkpt>
      <trkpt lat="49.19131" lon="7.03452">
        <ele>132.49</ele>
        <time>2026-08-12T15:37:20.545Z</time>
      </trkpt>
      <trkpt lat="49.19093" lon="7.03447">
        <ele>136.7</ele>
        <time>2026-08-12T15:37:26.554Z</time>
      </trkpt>
      <trkpt lat="49.19056" lon="7.03429">
        <ele>137.84</ele>
        <time>2026-08-12T15:37:32.542Z</time>
      </trkpt>
      <trkpt lat="49.19025" lon="7.03406">
        <ele>138.31</ele>
        <time>2026-08-12T15:37:38.545Z</time>
      </trkpt>
      <trkpt lat="49.18992" lon="7.03383">
        <ele>138.6</ele>
        <time>2026-08-12T15:37:44.548Z</time>
      </trkpt>
      <trkpt lat="49.18957" lon="7.03364">
        <ele>138.83</ele>
        <time>2026-08-12T15:37:50.547Z</time>
      </trkpt>
      <trkpt lat="49.18922" lon="7.03347">
        <ele>138.42</ele>
        <time>2026-08-12T15:37:56.557Z</time>
      </trkpt>
      <trkpt lat="49.18888" lon="7.03328">
        <ele>139.14</ele>
        <time>2026-08-12T15:38:02.544Z</time>
      </trkpt>
      <trkpt lat="49.18856" lon="7.03311">
        <ele>139.34</ele>
        <time>2026-08-12T15:38:08.547Z</time>
      </trkpt>
      <trkpt lat="49.18824" lon="7.03303">
        <ele>139.28</ele>
        <time>2026-08-12T15:38:14.545Z</time>
      </trkpt>
      <trkpt lat="49.1879" lon="7.03297">
        <ele>137.65</ele>
        <time>2026-08-12T15:38:20.545Z</time>
      </trkpt>
      <trkpt lat="49.18755" lon="7.03295">
        <ele>135.12</ele>
        <time>2026-08-12T15:38:26.524Z</time>
      </trkpt>
      <trkpt lat="49.18718" lon="7.03292">
        <ele>136.23</ele>
        <time>2026-08-12T15:38:32.544Z</time>
      </trkpt>
      <trkpt lat="49.18681" lon="7.03296">
        <ele>137.64</ele>
        <time>2026-08-12T15:38:38.548Z</time>
      </trkpt>
      <trkpt lat="49.18643" lon="7.03303">
        <ele>138.29</ele>
        <time>2026-08-12T15:38:44.544Z</time>
      </trkpt>
      <trkpt lat="49.18607" lon="7.03309">
        <ele>138.57</ele>
        <time>2026-08-12T15:38:50.546Z</time>
      </trkpt>
      <trkpt lat="49.18568" lon="7.03313">
        <ele>139.6</ele>
        <time>2026-08-12T15:38:56.558Z</time>
      </trkpt>
      <trkpt lat="49.18528" lon="7.03312">
        <ele>139.05</ele>
        <time>2026-08-12T15:39:02.547Z</time>
      </trkpt>
      <trkpt lat="49.18491" lon="7.0331">
        <ele>137.57</ele>
        <time>2026-08-12T15:39:08.548Z</time>
      </trkpt>
      <trkpt lat="49.18452" lon="7.03311">
        <ele>137.27</ele>
        <time>2026-08-12T15:39:14.548Z</time>
      </trkpt>
      <trkpt lat="49.18413" lon="7.03325">
        <ele>138.1</ele>
        <time>2026-08-12T15:39:20.564Z</time>
      </trkpt>
      <trkpt lat="49.18374" lon="7.03343">
        <ele>139.24</ele>
        <time>2026-08-12T15:39:26.546Z</time>
      </trkpt>
      <trkpt lat="49.18336" lon="7.03346">
        <ele>138.35</ele>
        <time>2026-08-12T15:39:32.546Z</time>
      </trkpt>
      <trkpt lat="49.18298" lon="7.0335">
        <ele>136.96</ele>
        <time>2026-08-12T15:39:38.528Z</time>
      </trkpt>
      <trkpt lat="49.1826" lon="7.03346">
        <ele>136.81</ele>
        <time>2026-08-12T15:39:44.568Z</time>
      </trkpt>
      <trkpt lat="49.18222" lon="7.03335">
        <ele>136.2</ele>
        <time>2026-08-12T15:39:50.548Z</time>
      </trkpt>
      <trkpt lat="49.18186" lon="7.03317">
        <ele>135.71</ele>
        <time>2026-08-12T15:39:56.554Z</time>
      </trkpt>
      <trkpt lat="49.18148" lon="7.03308">
        <ele>135.14</ele>
        <time>2026-08-12T15:40:02.545Z</time>
      </trkpt>
      <trkpt lat="49.18111" lon="7.03295">
        <ele>135.85</ele>
        <time>2026-08-12T15:40:08.553Z</time>
      </trkpt>
      <trkpt lat="49.18075" lon="7.03278">
        <ele>136.97</ele>
        <time>2026-08-12T15:40:14.552Z</time>
      </trkpt>
      <trkpt lat="49.1804" lon="7.03255">
        <ele>136.91</ele>
        <time>2026-08-12T15:40:20.546Z</time>
      </trkpt>
      <trkpt lat="49.18007" lon="7.03228">
        <ele>136.91</ele>
        <time>2026-08-12T15:40:26.557Z</time>
      </trkpt>
      <trkpt lat="49.17975" lon="7.032">
        <ele>135.38</ele>
        <time>2026-08-12T15:40:32.547Z</time>
      </trkpt>
      <trkpt lat="49.17944" lon="7.03173">
        <ele>133.91</ele>
        <time>2026-08-12T15:40:38.554Z</time>
      </trkpt>
      <trkpt lat="49.17915" lon="7.03146">
        <ele>135.15</ele>
        <time>2026-08-12T15:40:44.548Z</time>
      </trkpt>
      <trkpt lat="49.17884" lon="7.0312">
        <ele>135.32</ele>
        <time>2026-08-12T15:40:50.545Z</time>
      </trkpt>
      <trkpt lat="49.17854" lon="7.03089">
        <ele>135.7</ele>
        <time>2026-08-12T15:40:56.554Z</time>
      </trkpt>
      <trkpt lat="49.17825" lon="7.03058">
        <ele>135.51</ele>
        <time>2026-08-12T15:41:02.540Z</time>
      </trkpt>
      <trkpt lat="49.17793" lon="7.03031">
        <ele>136.35</ele>
        <time>2026-08-12T15:41:08.549Z</time>
      </trkpt>
      <trkpt lat="49.17762" lon="7.03002">
        <ele>136.17</ele>
        <time>2026-08-12T15:41:14.551Z</time>
      </trkpt>
      <trkpt lat="49.17731" lon="7.02972">
        <ele>136.21</ele>
        <time>2026-08-12T15:41:20.552Z</time>
      </trkpt>
      <trkpt lat="49.17703" lon="7.02939">
        <ele>136.19</ele>
        <time>2026-08-12T15:41:26.559Z</time>
      </trkpt>
      <trkpt lat="49.17676" lon="7.02904">
        <ele>135.59</ele>
        <time>2026-08-12T15:41:32.551Z</time>
      </trkpt>
      <trkpt lat="49.17647" lon="7.02872">
        <ele>134.05</ele>
        <time>2026-08-12T15:41:38.549Z</time>
      </trkpt>
      <trkpt lat="49.17619" lon="7.02842">
        <ele>131.84</ele>
        <time>2026-08-12T15:41:44.544Z</time>
      </trkpt>
      <trkpt lat="49.17586" lon="7.02823">
        <ele>132.34</ele>
        <time>2026-08-12T15:41:50.545Z</time>
      </trkpt>
      <trkpt lat="49.17551" lon="7.02808">
        <ele>134.72</ele>
        <time>2026-08-12T15:41:56.553Z</time>
      </trkpt>
      <trkpt lat="49.17517" lon="7.02794">
        <ele>135.85</ele>
        <time>2026-08-12T15:42:02.561Z</time>
      </trkpt>
      <trkpt lat="49.17483" lon="7.02782">
        <ele>136.57</ele>
        <time>2026-08-12T15:42:08.553Z</time>
      </trkpt>
      <trkpt lat="49.1745" lon="7.02774">
        <ele>137.85</ele>
        <time>2026-08-12T15:42:14.550Z</time>
      </trkpt>
      <trkpt lat="49.17418" lon="7.02768">
        <ele>138.72</ele>
        <time>2026-08-12T15:42:20.548Z</time>
      </trkpt>
      <trkpt lat="49.17381" lon="7.02763">
        <ele>139.01</ele>
        <time>2026-08-12T15:42:26.556Z</time>
      </trkpt>
      <trkpt lat="49.17346" lon="7.02758">
        <ele>139</ele>
        <time>2026-08-12T15:42:32.549Z</time>
      </trkpt>
      <trkpt lat="49.17311" lon="7.02753">
        <ele>139.65</ele>
        <time>2026-08-12T15:42:38.552Z</time>
      </trkpt>
      <trkpt lat="49.17276" lon="7.02748">
        <ele>139.39</ele>
        <time>2026-08-12T15:42:44.550Z</time>
      </trkpt>
      <trkpt lat="49.17241" lon="7.02743">
        <ele>139.99</ele>
        <time>2026-08-12T15:42:50.546Z</time>
      </trkpt>
      <trkpt lat="49.17204" lon="7.02739">
        <ele>139.26</ele>
        <time>2026-08-12T15:42:56.536Z</time>
      </trkpt>
      <trkpt lat="49.17168" lon="7.02735">
        <ele>138.18</ele>
        <time>2026-08-12T15:43:02.546Z</time>
      </trkpt>
      <trkpt lat="49.17131" lon="7.02736">
        <ele>137.32</ele>
        <time>2026-08-12T15:43:08.552Z</time>
      </trkpt>
      <trkpt lat="49.17094" lon="7.02737">
        <ele>138.02</ele>
        <time>2026-08-12T15:43:14.553Z</time>
      </trkpt>
      <trkpt lat="49.17055" lon="7.02741">
        <ele>139.54</ele>
        <time>2026-08-12T15:43:20.552Z</time>
      </trkpt>
      <trkpt lat="49.17017" lon="7.02745">
        <ele>140.69</ele>
        <time>2026-08-12T15:43:26.543Z</time>
      </trkpt>
      <trkpt lat="49.1698" lon="7.02755">
        <ele>140.76</ele>
        <time>2026-08-12T15:43:32.546Z</time>
      </trkpt>
      <trkpt lat="49.16943" lon="7.02768">
        <ele>140.95</ele>
        <time>2026-08-12T15:43:38.551Z</time>
      </trkpt>
      <trkpt lat="49.16905" lon="7.02782">
        <ele>140.24</ele>
        <time>2026-08-12T15:43:44.550Z</time>
      </trkpt>
      <trkpt lat="49.16867" lon="7.02797">
        <ele>139.89</ele>
        <time>2026-08-12T15:43:50.547Z</time>
      </trkpt>
      <trkpt lat="49.16829" lon="7.02813">
        <ele>140.51</ele>
        <time>2026-08-12T15:43:56.547Z</time>
      </trkpt>
      <trkpt lat="49.16793" lon="7.02829">
        <ele>140.41</ele>
        <time>2026-08-12T15:44:02.544Z</time>
      </trkpt>
      <trkpt lat="49.16758" lon="7.02847">
        <ele>140.6</ele>
        <time>2026-08-12T15:44:08.549Z</time>
      </trkpt>
      <trkpt lat="49.16724" lon="7.02868">
        <ele>141.38</ele>
        <time>2026-08-12T15:44:14.549Z</time>
      </trkpt>
      <trkpt lat="49.16691" lon="7.02892">
        <ele>140.65</ele>
        <time>2026-08-12T15:44:20.555Z</time>
      </trkpt>
      <trkpt lat="49.16658" lon="7.02915">
        <ele>140.39</ele>
        <time>2026-08-12T15:44:26.550Z</time>
      </trkpt>
      <trkpt lat="49.16627" lon="7.02931">
        <ele>141.09</ele>
        <time>2026-08-12T15:44:32.551Z</time>
      </trkpt>
      <trkpt lat="49.16596" lon="7.02953">
        <ele>141.81</ele>
        <time>2026-08-12T15:44:38.548Z</time>
      </trkpt>
      <trkpt lat="49.16562" lon="7.02967">
        <ele>142.01</ele>
        <time>2026-08-12T15:44:44.546Z</time>
      </trkpt>
      <trkpt lat="49.16528" lon="7.02985">
        <ele>140.34</ele>
        <time>2026-08-12T15:44:50.551Z</time>
      </trkpt>
      <trkpt lat="49.16493" lon="7.03">
        <ele>139.33</ele>
        <time>2026-08-12T15:44:56.555Z</time>
      </trkpt>
      <trkpt lat="49.16459" lon="7.03018">
        <ele>138.65</ele>
        <time>2026-08-12T15:45:02.549Z</time>
      </trkpt>
      <trkpt lat="49.16424" lon="7.03026">
        <ele>140.07</ele>
        <time>2026-08-12T15:45:08.551Z</time>
      </trkpt>
      <trkpt lat="49.16399" lon="7.03038">
        <ele>140.2</ele>
        <time>2026-08-12T15:45:14.552Z</time>
      </trkpt>
      <trkpt lat="49.16365" lon="7.03066">
        <ele>137.98</ele>
        <time>2026-08-12T15:45:20.550Z</time>
      </trkpt>
      <trkpt lat="49.16326" lon="7.03087">
        <ele>138.62</ele>
        <time>2026-08-12T15:45:26.542Z</time>
      </trkpt>
      <trkpt lat="49.16291" lon="7.0311">
        <ele>141.29</ele>
        <time>2026-08-12T15:45:32.542Z</time>
      </trkpt>
      <trkpt lat="49.16256" lon="7.03115">
        <ele>138.79</ele>
        <time>2026-08-12T15:45:38.549Z</time>
      </trkpt>
      <trkpt lat="49.16219" lon="7.03136">
        <ele>135.66</ele>
        <time>2026-08-12T15:45:44.550Z</time>
      </trkpt>
      <trkpt lat="49.16182" lon="7.03155">
        <ele>137.24</ele>
        <time>2026-08-12T15:45:50.549Z</time>
      </trkpt>
      <trkpt lat="49.16144" lon="7.03164">
        <ele>137.85</ele>
        <time>2026-08-12T15:45:56.553Z</time>
      </trkpt>
      <trkpt lat="49.16105" lon="7.03167">
        <ele>138.08</ele>
        <time>2026-08-12T15:46:02.550Z</time>
      </trkpt>
      <trkpt lat="49.16066" lon="7.03169">
        <ele>138.01</ele>
        <time>2026-08-12T15:46:08.549Z</time>
      </trkpt>
      <trkpt lat="49.1603" lon="7.03164">
        <ele>137.33</ele>
        <time>2026-08-12T15:46:14.550Z</time>
      </trkpt>
      <trkpt lat="49.15996" lon="7.03154">
        <ele>135.85</ele>
        <time>2026-08-12T15:46:20.552Z</time>
      </trkpt>
      <trkpt lat="49.15964" lon="7.03143">
        <ele>135.85</ele>
        <time>2026-08-12T15:46:26.550Z</time>
      </trkpt>
      <trkpt lat="49.15932" lon="7.03128">
        <ele>137.11</ele>
        <time>2026-08-12T15:46:32.547Z</time>
      </trkpt>
      <trkpt lat="49.15897" lon="7.03115">
        <ele>136.45</ele>
        <time>2026-08-12T15:46:38.551Z</time>
      </trkpt>
      <trkpt lat="49.15861" lon="7.03105">
        <ele>137.6</ele>
        <time>2026-08-12T15:46:44.547Z</time>
      </trkpt>
      <trkpt lat="49.15824" lon="7.03099">
        <ele>138.12</ele>
        <time>2026-08-12T15:46:50.548Z</time>
      </trkpt>
      <trkpt lat="49.15789" lon="7.03097">
        <ele>138.52</ele>
        <time>2026-08-12T15:46:56.549Z</time>
      </trkpt>
      <trkpt lat="49.15752" lon="7.03095">
        <ele>137.38</ele>
        <time>2026-08-12T15:47:02.550Z</time>
      </trkpt>
      <trkpt lat="49.15715" lon="7.03095">
        <ele>134.51</ele>
        <time>2026-08-12T15:47:08.552Z</time>
      </trkpt>
      <trkpt lat="49.15681" lon="7.03104">
        <ele>133.36</ele>
        <time>2026-08-12T15:47:14.552Z</time>
      </trkpt>
      <trkpt lat="49.1565" lon="7.03112">
        <ele>135.16</ele>
        <time>2026-08-12T15:47:20.554Z</time>
      </trkpt>
      <trkpt lat="49.15622" lon="7.0312">
        <ele>136.9</ele>
        <time>2026-08-12T15:47:26.561Z</time>
      </trkpt>
      <trkpt lat="49.15596" lon="7.03133">
        <ele>136.55</ele>
        <time>2026-08-12T15:47:32.554Z</time>
      </trkpt>
      <trkpt lat="49.15571" lon="7.03147">
        <ele>138.29</ele>
        <time>2026-08-12T15:47:38.555Z</time>
      </trkpt>
      <trkpt lat="49.15554" lon="7.03157">
        <ele>140.2</ele>
        <time>2026-08-12T15:47:44.549Z</time>
      </trkpt>
      <trkpt lat="49.1553" lon="7.03173">
        <ele>141.74</ele>
        <time>2026-08-12T15:47:50.552Z</time>
      </trkpt>
      <trkpt lat="49.15501" lon="7.03195">
        <ele>142.06</ele>
        <time>2026-08-12T15:47:56.556Z</time>
      </trkpt>
      <trkpt lat="49.15472" lon="7.03217">
        <ele>141.44</ele>
        <time>2026-08-12T15:48:02.549Z</time>
      </trkpt>
      <trkpt lat="49.15447" lon="7.03241">
        <ele>140.42</ele>
        <time>2026-08-12T15:48:08.548Z</time>
      </trkpt>
      <trkpt lat="49.1542" lon="7.03265">
        <ele>136.71</ele>
        <time>2026-08-12T15:48:14.551Z</time>
      </trkpt>
      <trkpt lat="49.15395" lon="7.03295">
        <ele>136.49</ele>
        <time>2026-08-12T15:48:20.552Z</time>
      </trkpt>
      <trkpt lat="49.15371" lon="7.03331">
        <ele>138.56</ele>
        <time>2026-08-12T15:48:26.523Z</time>
      </trkpt>
      <trkpt lat="49.15348" lon="7.03369">
        <ele>140.27</ele>
        <time>2026-08-12T15:48:32.551Z</time>
      </trkpt>
      <trkpt lat="49.15327" lon="7.03406">
        <ele>140.75</ele>
        <time>2026-08-12T15:48:38.555Z</time>
      </trkpt>
      <trkpt lat="49.15306" lon="7.03447">
        <ele>141.23</ele>
        <time>2026-08-12T15:48:44.547Z</time>
      </trkpt>
      <trkpt lat="49.15283" lon="7.03471">
        <ele>142.33</ele>
        <time>2026-08-12T15:48:50.545Z</time>
      </trkpt>
      <trkpt lat="49.15261" lon="7.03493">
        <ele>143.37</ele>
        <time>2026-08-12T15:48:56.559Z</time>
      </trkpt>
      <trkpt lat="49.15239" lon="7.03512">
        <ele>144.17</ele>
        <time>2026-08-12T15:49:02.549Z</time>
      </trkpt>
      <trkpt lat="49.15218" lon="7.03534">
        <ele>145.65</ele>
        <time>2026-08-12T15:49:08.554Z</time>
      </trkpt>
      <trkpt lat="49.15195" lon="7.03559">
        <ele>145.72</ele>
        <time>2026-08-12T15:49:14.549Z</time>
      </trkpt>
      <trkpt lat="49.15169" lon="7.03583">
        <ele>145.55</ele>
        <time>2026-08-12T15:49:20.550Z</time>
      </trkpt>
      <trkpt lat="49.15148" lon="7.03602">
        <ele>145.54</ele>
        <time>2026-08-12T15:49:26.560Z</time>
      </trkpt>
      <trkpt lat="49.15123" lon="7.03627">
        <ele>146.41</ele>
        <time>2026-08-12T15:49:32.540Z</time>
      </trkpt>
      <trkpt lat="49.15098" lon="7.0365">
        <ele>145.4</ele>
        <time>2026-08-12T15:49:38.550Z</time>
      </trkpt>
      <trkpt lat="49.15079" lon="7.0367">
        <ele>144.82</ele>
        <time>2026-08-12T15:49:44.546Z</time>
      </trkpt>
      <trkpt lat="49.15058" lon="7.03693">
        <ele>143.97</ele>
        <time>2026-08-12T15:49:50.547Z</time>
      </trkpt>
      <trkpt lat="49.15032" lon="7.03716">
        <ele>141.54</ele>
        <time>2026-08-12T15:49:56.553Z</time>
      </trkpt>
      <trkpt lat="49.15004" lon="7.0374">
        <ele>138.88</ele>
        <time>2026-08-12T15:50:02.550Z</time>
      </trkpt>
      <trkpt lat="49.14976" lon="7.03771">
        <ele>140.17</ele>
        <time>2026-08-12T15:50:08.536Z</time>
      </trkpt>
      <trkpt lat="49.1495" lon="7.03787">
        <ele>140.97</ele>
        <time>2026-08-12T15:50:14.545Z</time>
      </trkpt>
      <trkpt lat="49.14918" lon="7.03803">
        <ele>138.7</ele>
        <time>2026-08-12T15:50:20.530Z</time>
      </trkpt>
      <trkpt lat="49.14883" lon="7.0383">
        <ele>136.77</ele>
        <time>2026-08-12T15:50:26.553Z</time>
      </trkpt>
      <trkpt lat="49.14851" lon="7.03859">
        <ele>136.02</ele>
        <time>2026-08-12T15:50:32.543Z</time>
      </trkpt>
      <trkpt lat="49.14824" lon="7.03893">
        <ele>136.79</ele>
        <time>2026-08-12T15:50:38.554Z</time>
      </trkpt>
      <trkpt lat="49.14794" lon="7.03932">
        <ele>136.31</ele>
        <time>2026-08-12T15:50:44.552Z</time>
      </trkpt>
      <trkpt lat="49.14764" lon="7.03972">
        <ele>134.85</ele>
        <time>2026-08-12T15:50:50.552Z</time>
      </trkpt>
      <trkpt lat="49.14738" lon="7.04014">
        <ele>134.82</ele>
        <time>2026-08-12T15:50:56.534Z</time>
      </trkpt>
      <trkpt lat="49.14712" lon="7.0405">
        <ele>135.56</ele>
        <time>2026-08-12T15:51:02.551Z</time>
      </trkpt>
      <trkpt lat="49.14684" lon="7.04088">
        <ele>136.72</ele>
        <time>2026-08-12T15:51:08.550Z</time>
      </trkpt>
      <trkpt lat="49.14651" lon="7.04121">
        <ele>138.44</ele>
        <time>2026-08-12T15:51:14.551Z</time>
      </trkpt>
      <trkpt lat="49.14617" lon="7.04145">
        <ele>140.93</ele>
        <time>2026-08-12T15:51:20.551Z</time>
      </trkpt>
      <trkpt lat="49.14581" lon="7.04162">
        <ele>141.79</ele>
        <time>2026-08-12T15:51:26.559Z</time>
      </trkpt>
      <trkpt lat="49.14545" lon="7.04177">
        <ele>139.67</ele>
        <time>2026-08-12T15:51:32.553Z</time>
      </trkpt>
      <trkpt lat="49.14507" lon="7.04194">
        <ele>137.51</ele>
        <time>2026-08-12T15:51:38.553Z</time>
      </trkpt>
      <trkpt lat="49.1447" lon="7.04211">
        <ele>135.83</ele>
        <time>2026-08-12T15:51:44.547Z</time>
      </trkpt>
      <trkpt lat="49.14438" lon="7.04227">
        <ele>137.88</ele>
        <time>2026-08-12T15:51:50.549Z</time>
      </trkpt>
      <trkpt lat="49.14406" lon="7.04242">
        <ele>138.9</ele>
        <time>2026-08-12T15:51:56.556Z</time>
      </trkpt>
      <trkpt lat="49.14373" lon="7.0426">
        <ele>139.71</ele>
        <time>2026-08-12T15:52:02.547Z</time>
      </trkpt>
      <trkpt lat="49.14339" lon="7.04276">
        <ele>139.58</ele>
        <time>2026-08-12T15:52:08.552Z</time>
      </trkpt>
      <trkpt lat="49.14305" lon="7.04292">
        <ele>139.7</ele>
        <time>2026-08-12T15:52:14.550Z</time>
      </trkpt>
      <trkpt lat="49.14272" lon="7.04308">
        <ele>139.47</ele>
        <time>2026-08-12T15:52:20.550Z</time>
      </trkpt>
      <trkpt lat="49.14239" lon="7.04322">
        <ele>138.24</ele>
        <time>2026-08-12T15:52:26.554Z</time>
      </trkpt>
      <trkpt lat="49.14206" lon="7.04338">
        <ele>137.85</ele>
        <time>2026-08-12T15:52:32.555Z</time>
      </trkpt>
      <trkpt lat="49.14173" lon="7.04357">
        <ele>139.19</ele>
        <time>2026-08-12T15:52:38.549Z</time>
      </trkpt>
      <trkpt lat="49.14142" lon="7.04375">
        <ele>139.47</ele>
        <time>2026-08-12T15:52:44.550Z</time>
      </trkpt>
      <trkpt lat="49.1411" lon="7.04396">
        <ele>139.66</ele>
        <time>2026-08-12T15:52:50.554Z</time>
      </trkpt>
      <trkpt lat="49.14079" lon="7.04416">
        <ele>139.57</ele>
        <time>2026-08-12T15:52:56.552Z</time>
      </trkpt>
      <trkpt lat="49.14047" lon="7.04436">
        <ele>140.63</ele>
        <time>2026-08-12T15:53:02.550Z</time>
      </trkpt>
      <trkpt lat="49.14015" lon="7.04459">
        <ele>141.35</ele>
        <time>2026-08-12T15:53:08.551Z</time>
      </trkpt>
      <trkpt lat="49.13983" lon="7.0448">
        <ele>138.83</ele>
        <time>2026-08-12T15:53:14.549Z</time>
      </trkpt>
      <trkpt lat="49.13952" lon="7.04502">
        <ele>139.35</ele>
        <time>2026-08-12T15:53:20.549Z</time>
      </trkpt>
      <trkpt lat="49.1392" lon="7.04523">
        <ele>140.66</ele>
        <time>2026-08-12T15:53:26.557Z</time>
      </trkpt>
      <trkpt lat="49.13889" lon="7.04547">
        <ele>140.9</ele>
        <time>2026-08-12T15:53:32.551Z</time>
      </trkpt>
      <trkpt lat="49.13858" lon="7.04568">
        <ele>140.87</ele>
        <time>2026-08-12T15:53:38.548Z</time>
      </trkpt>
      <trkpt lat="49.13823" lon="7.04584">
        <ele>141.13</ele>
        <time>2026-08-12T15:53:44.553Z</time>
      </trkpt>
      <trkpt lat="49.1379" lon="7.04598">
        <ele>141.66</ele>
        <time>2026-08-12T15:53:50.547Z</time>
      </trkpt>
      <trkpt lat="49.13756" lon="7.04612">
        <ele>141.52</ele>
        <time>2026-08-12T15:53:56.560Z</time>
      </trkpt>
      <trkpt lat="49.13723" lon="7.04626">
        <ele>141.74</ele>
        <time>2026-08-12T15:54:02.553Z</time>
      </trkpt>
      <trkpt lat="49.1369" lon="7.0464">
        <ele>141.38</ele>
        <time>2026-08-12T15:54:08.554Z</time>
      </trkpt>
      <trkpt lat="49.13655" lon="7.04651">
        <ele>141.77</ele>
        <time>2026-08-12T15:54:14.556Z</time>
      </trkpt>
      <trkpt lat="49.13621" lon="7.04654">
        <ele>141.97</ele>
        <time>2026-08-12T15:54:20.552Z</time>
      </trkpt>
      <trkpt lat="49.13589" lon="7.04654">
        <ele>141.31</ele>
        <time>2026-08-12T15:54:26.559Z</time>
      </trkpt>
      <trkpt lat="49.13555" lon="7.04653">
        <ele>139.09</ele>
        <time>2026-08-12T15:54:32.556Z</time>
      </trkpt>
      <trkpt lat="49.1352" lon="7.0465">
        <ele>139.03</ele>
        <time>2026-08-12T15:54:38.550Z</time>
      </trkpt>
      <trkpt lat="49.13486" lon="7.04645">
        <ele>140.07</ele>
        <time>2026-08-12T15:54:44.555Z</time>
      </trkpt>
      <trkpt lat="49.13452" lon="7.04626">
        <ele>141.72</ele>
        <time>2026-08-12T15:54:50.550Z</time>
      </trkpt>
      <trkpt lat="49.13418" lon="7.04608">
        <ele>141.6</ele>
        <time>2026-08-12T15:54:56.560Z</time>
      </trkpt>
      <trkpt lat="49.13381" lon="7.04593">
        <ele>142.3</ele>
        <time>2026-08-12T15:55:02.556Z</time>
      </trkpt>
      <trkpt lat="49.13343" lon="7.04579">
        <ele>141.02</ele>
        <time>2026-08-12T15:55:08.552Z</time>
      </trkpt>
      <trkpt lat="49.13308" lon="7.0456">
        <ele>140.57</ele>
        <time>2026-08-12T15:55:14.552Z</time>
      </trkpt>
      <trkpt lat="49.13272" lon="7.04546">
        <ele>141.15</ele>
        <time>2026-08-12T15:55:20.552Z</time>
      </trkpt>
      <trkpt lat="49.13237" lon="7.04532">
        <ele>141.38</ele>
        <time>2026-08-12T15:55:26.549Z</time>
      </trkpt>
      <trkpt lat="49.13202" lon="7.04524">
        <ele>141.75</ele>
        <time>2026-08-12T15:55:32.551Z</time>
      </trkpt>
      <trkpt lat="49.13166" lon="7.04521">
        <ele>141.88</ele>
        <time>2026-08-12T15:55:38.554Z</time>
      </trkpt>
      <trkpt lat="49.1313" lon="7.04522">
        <ele>142.44</ele>
        <time>2026-08-12T15:55:44.554Z</time>
      </trkpt>
      <trkpt lat="49.13095" lon="7.04523">
        <ele>142.38</ele>
        <time>2026-08-12T15:55:50.553Z</time>
      </trkpt>
      <trkpt lat="49.1306" lon="7.04527">
        <ele>141.83</ele>
        <time>2026-08-12T15:55:56.555Z</time>
      </trkpt>
      <trkpt lat="49.13025" lon="7.04527">
        <ele>141.12</ele>
        <time>2026-08-12T15:56:02.554Z</time>
      </trkpt>
      <trkpt lat="49.12991" lon="7.04528">
        <ele>142.38</ele>
        <time>2026-08-12T15:56:08.535Z</time>
      </trkpt>
      <trkpt lat="49.12954" lon="7.04516">
        <ele>138.95</ele>
        <time>2026-08-12T15:56:14.534Z</time>
      </trkpt>
      <trkpt lat="49.12917" lon="7.04509">
        <ele>135.62</ele>
        <time>2026-08-12T15:56:20.552Z</time>
      </trkpt>
      <trkpt lat="49.12878" lon="7.04505">
        <ele>133.38</ele>
        <time>2026-08-12T15:56:26.550Z</time>
      </trkpt>
      <trkpt lat="49.12842" lon="7.045">
        <ele>134.37</ele>
        <time>2026-08-12T15:56:32.549Z</time>
      </trkpt>
      <trkpt lat="49.12806" lon="7.04491">
        <ele>136.12</ele>
        <time>2026-08-12T15:56:38.548Z</time>
      </trkpt>
      <trkpt lat="49.1277" lon="7.04479">
        <ele>135.84</ele>
        <time>2026-08-12T15:56:44.543Z</time>
      </trkpt>
      <trkpt lat="49.12736" lon="7.04468">
        <ele>137.59</ele>
        <time>2026-08-12T15:56:50.550Z</time>
      </trkpt>
      <trkpt lat="49.127" lon="7.04455">
        <ele>138.03</ele>
        <time>2026-08-12T15:56:56.549Z</time>
      </trkpt>
      <trkpt lat="49.12664" lon="7.04446">
        <ele>138.15</ele>
        <time>2026-08-12T15:57:02.549Z</time>
      </trkpt>
      <trkpt lat="49.12628" lon="7.04437">
        <ele>138.25</ele>
        <time>2026-08-12T15:57:08.552Z</time>
      </trkpt>
      <trkpt lat="49.12594" lon="7.0443">
        <ele>137.89</ele>
        <time>2026-08-12T15:57:14.550Z</time>
      </trkpt>
      <trkpt lat="49.12556" lon="7.04423">
        <ele>139.26</ele>
        <time>2026-08-12T15:57:20.554Z</time>
      </trkpt>
      <trkpt lat="49.12519" lon="7.04415">
        <ele>140.9</ele>
        <time>2026-08-12T15:57:26.562Z</time>
      </trkpt>
      <trkpt lat="49.12484" lon="7.04408">
        <ele>141.27</ele>
        <time>2026-08-12T15:57:32.550Z</time>
      </trkpt>
      <trkpt lat="49.12446" lon="7.04403">
        <ele>141.64</ele>
        <time>2026-08-12T15:57:38.550Z</time>
      </trkpt>
      <trkpt lat="49.12408" lon="7.044">
        <ele>141.74</ele>
        <time>2026-08-12T15:57:44.555Z</time>
      </trkpt>
      <trkpt lat="49.12372" lon="7.04396">
        <ele>142.16</ele>
        <time>2026-08-12T15:57:50.549Z</time>
      </trkpt>
      <trkpt lat="49.12336" lon="7.04393">
        <ele>142.27</ele>
        <time>2026-08-12T15:57:56.550Z</time>
      </trkpt>
      <trkpt lat="49.123" lon="7.0439">
        <ele>141.86</ele>
        <time>2026-08-12T15:58:02.548Z</time>
      </trkpt>
      <trkpt lat="49.12263" lon="7.04386">
        <ele>142.19</ele>
        <time>2026-08-12T15:58:08.554Z</time>
      </trkpt>
      <trkpt lat="49.12228" lon="7.04383">
        <ele>141.3</ele>
        <time>2026-08-12T15:58:14.552Z</time>
      </trkpt>
      <trkpt lat="49.12192" lon="7.04382">
        <ele>141.31</ele>
        <time>2026-08-12T15:58:20.573Z</time>
      </trkpt>
      <trkpt lat="49.12156" lon="7.04382">
        <ele>141.85</ele>
        <time>2026-08-12T15:58:26.552Z</time>
      </trkpt>
      <trkpt lat="49.12122" lon="7.0438">
        <ele>141.9</ele>
        <time>2026-08-12T15:58:32.556Z</time>
      </trkpt>
      <trkpt lat="49.12085" lon="7.04381">
        <ele>141.57</ele>
        <time>2026-08-12T15:58:38.552Z</time>
      </trkpt>
      <trkpt lat="49.1205" lon="7.04385">
        <ele>142.2</ele>
        <time>2026-08-12T15:58:44.549Z</time>
      </trkpt>
      <trkpt lat="49.12015" lon="7.04394">
        <ele>141.79</ele>
        <time>2026-08-12T15:58:50.551Z</time>
      </trkpt>
      <trkpt lat="49.1198" lon="7.04402">
        <ele>140.9</ele>
        <time>2026-08-12T15:58:56.552Z</time>
      </trkpt>
      <trkpt lat="49.11945" lon="7.04412">
        <ele>138.69</ele>
        <time>2026-08-12T15:59:02.550Z</time>
      </trkpt>
      <trkpt lat="49.11911" lon="7.04418">
        <ele>138.23</ele>
        <time>2026-08-12T15:59:08.561Z</time>
      </trkpt>
      <trkpt lat="49.11877" lon="7.04424">
        <ele>137.94</ele>
        <time>2026-08-12T15:59:14.549Z</time>
      </trkpt>
      <trkpt lat="49.11852" lon="7.04456">
        <ele>136.88</ele>
        <time>2026-08-12T15:59:20.549Z</time>
      </trkpt>
      <trkpt lat="49.11822" lon="7.04479">
        <ele>137.79</ele>
        <time>2026-08-12T15:59:26.551Z</time>
      </trkpt>
      <trkpt lat="49.1179" lon="7.04496">
        <ele>138.65</ele>
        <time>2026-08-12T15:59:32.555Z</time>
      </trkpt>
      <trkpt lat="49.11758" lon="7.04513">
        <ele>140.24</ele>
        <time>2026-08-12T15:59:38.493Z</time>
      </trkpt>
      <trkpt lat="49.1173" lon="7.04526">
        <ele>141.87</ele>
        <time>2026-08-12T15:59:43.494Z</time>
      </trkpt>
      <trkpt lat="49.11702" lon="7.04539">
        <ele>142.46</ele>
        <time>2026-08-12T15:59:48.496Z</time>
      </trkpt>
      <trkpt lat="49.1167" lon="7.04555">
        <ele>142.3</ele>
        <time>2026-08-12T15:59:54.495Z</time>
      </trkpt>
      <trkpt lat="49.11641" lon="7.04571">
        <ele>141.64</ele>
        <time>2026-08-12T16:00:00.496Z</time>
      </trkpt>
      <trkpt lat="49.11618" lon="7.04587">
        <ele>141.66</ele>
        <time>2026-08-12T16:00:05.497Z</time>
      </trkpt>
      <trkpt lat="49.1159" lon="7.04613">
        <ele>140.8</ele>
        <time>2026-08-12T16:00:11.492Z</time>
      </trkpt>
      <trkpt lat="49.11566" lon="7.04637">
        <ele>141.89</ele>
        <time>2026-08-12T16:00:17.493Z</time>
      </trkpt>
      <trkpt lat="49.11542" lon="7.04663">
        <ele>142.16</ele>
        <time>2026-08-12T16:00:23.494Z</time>
      </trkpt>
      <trkpt lat="49.11517" lon="7.04687">
        <ele>142.12</ele>
        <time>2026-08-12T16:00:29.491Z</time>
      </trkpt>
      <trkpt lat="49.11494" lon="7.0471">
        <ele>142.67</ele>
        <time>2026-08-12T16:00:35.493Z</time>
      </trkpt>
      <trkpt lat="49.11471" lon="7.04733">
        <ele>142.77</ele>
        <time>2026-08-12T16:00:40.495Z</time>
      </trkpt>
      <trkpt lat="49.11445" lon="7.04757">
        <ele>143.09</ele>
        <time>2026-08-12T16:00:46.492Z</time>
      </trkpt>
      <trkpt lat="49.1142" lon="7.04783">
        <ele>142.38</ele>
        <time>2026-08-12T16:00:52.500Z</time>
      </trkpt>
      <trkpt lat="49.114" lon="7.04804">
        <ele>142.49</ele>
        <time>2026-08-12T16:00:58.493Z</time>
      </trkpt>
      <trkpt lat="49.11384" lon="7.04832">
        <ele>143.14</ele>
        <time>2026-08-12T16:01:04.492Z</time>
      </trkpt>
      <trkpt lat="49.1137" lon="7.0486">
        <ele>144.05</ele>
        <time>2026-08-12T16:01:10.491Z</time>
      </trkpt>
      <trkpt lat="49.11354" lon="7.04885">
        <ele>141.97</ele>
        <time>2026-08-12T16:01:15.495Z</time>
      </trkpt>
      <trkpt lat="49.1134" lon="7.04913">
        <ele>141.84</ele>
        <time>2026-08-12T16:01:20.508Z</time>
      </trkpt>
      <trkpt lat="49.11328" lon="7.04944">
        <ele>143.16</ele>
        <time>2026-08-12T16:01:26.555Z</time>
      </trkpt>
      <trkpt lat="49.11319" lon="7.04971">
        <ele>145.49</ele>
        <time>2026-08-12T16:01:31.561Z</time>
      </trkpt>
      <trkpt lat="49.11312" lon="7.05005">
        <ele>146.89</ele>
        <time>2026-08-12T16:01:37.476Z</time>
      </trkpt>
      <trkpt lat="49.11303" lon="7.05036">
        <ele>143.95</ele>
        <time>2026-08-12T16:01:42.476Z</time>
      </trkpt>
      <trkpt lat="49.11296" lon="7.05071">
        <ele>140.71</ele>
        <time>2026-08-12T16:01:47.485Z</time>
      </trkpt>
      <trkpt lat="49.11287" lon="7.05115">
        <ele>140.85</ele>
        <time>2026-08-12T16:01:53.472Z</time>
      </trkpt>
      <trkpt lat="49.11278" lon="7.05153">
        <ele>142.81</ele>
        <time>2026-08-12T16:01:58.483Z</time>
      </trkpt>
      <trkpt lat="49.11265" lon="7.052">
        <ele>143.64</ele>
        <time>2026-08-12T16:02:04.475Z</time>
      </trkpt>
      <trkpt lat="49.11252" lon="7.05235">
        <ele>143.49</ele>
        <time>2026-08-12T16:02:09.475Z</time>
      </trkpt>
      <trkpt lat="49.11241" lon="7.05273">
        <ele>142.54</ele>
        <time>2026-08-12T16:02:14.493Z</time>
      </trkpt>
      <trkpt lat="49.11229" lon="7.05322">
        <ele>141.73</ele>
        <time>2026-08-12T16:02:20.493Z</time>
      </trkpt>
      <trkpt lat="49.1122" lon="7.05368">
        <ele>140.73</ele>
        <time>2026-08-12T16:02:26.539Z</time>
      </trkpt>
      <trkpt lat="49.11209" lon="7.05412">
        <ele>140.57</ele>
        <time>2026-08-12T16:02:32.546Z</time>
      </trkpt>
      <trkpt lat="49.11199" lon="7.05459">
        <ele>141.39</ele>
        <time>2026-08-12T16:02:38.494Z</time>
      </trkpt>
      <trkpt lat="49.1119" lon="7.05507">
        <ele>142.21</ele>
        <time>2026-08-12T16:02:44.491Z</time>
      </trkpt>
      <trkpt lat="49.11182" lon="7.05557">
        <ele>143.92</ele>
        <time>2026-08-12T16:02:50.491Z</time>
      </trkpt>
      <trkpt lat="49.11178" lon="7.05607">
        <ele>142.46</ele>
        <time>2026-08-12T16:02:56.541Z</time>
      </trkpt>
      <trkpt lat="49.11171" lon="7.05656">
        <ele>143.47</ele>
        <time>2026-08-12T16:03:02.537Z</time>
      </trkpt>
      <trkpt lat="49.11169" lon="7.05703">
        <ele>144.75</ele>
        <time>2026-08-12T16:03:08.488Z</time>
      </trkpt>
      <trkpt lat="49.1117" lon="7.05751">
        <ele>147.81</ele>
        <time>2026-08-12T16:03:14.492Z</time>
      </trkpt>
      <trkpt lat="49.11173" lon="7.05796">
        <ele>146.13</ele>
        <time>2026-08-12T16:03:20.500Z</time>
      </trkpt>
      <trkpt lat="49.1118" lon="7.05843">
        <ele>144.26</ele>
        <time>2026-08-12T16:03:26.512Z</time>
      </trkpt>
      <trkpt lat="49.11189" lon="7.05887">
        <ele>144.78</ele>
        <time>2026-08-12T16:03:32.526Z</time>
      </trkpt>
      <trkpt lat="49.11199" lon="7.05932">
        <ele>144.93</ele>
        <time>2026-08-12T16:03:38.507Z</time>
      </trkpt>
      <trkpt lat="49.11209" lon="7.05979">
        <ele>144.76</ele>
        <time>2026-08-12T16:03:44.518Z</time>
      </trkpt>
      <trkpt lat="49.1122" lon="7.06015">
        <ele>145.76</ele>
        <time>2026-08-12T16:03:49.675Z</time>
      </trkpt>
      <trkpt lat="49.11228" lon="7.06055">
        <ele>145.59</ele>
        <time>2026-08-12T16:03:55.512Z</time>
      </trkpt>
      <trkpt lat="49.11235" lon="7.06094">
        <ele>144.08</ele>
        <time>2026-08-12T16:04:00.529Z</time>
      </trkpt>
      <trkpt lat="49.11247" lon="7.06141">
        <ele>144.1</ele>
        <time>2026-08-12T16:04:06.494Z</time>
      </trkpt>
      <trkpt lat="49.11257" lon="7.06179">
        <ele>143.66</ele>
        <time>2026-08-12T16:04:11.494Z</time>
      </trkpt>
      <trkpt lat="49.11271" lon="7.0622">
        <ele>144.63</ele>
        <time>2026-08-12T16:04:17.484Z</time>
      </trkpt>
      <trkpt lat="49.11281" lon="7.06249">
        <ele>146.71</ele>
        <time>2026-08-12T16:04:22.489Z</time>
      </trkpt>
      <trkpt lat="49.11294" lon="7.06282">
        <ele>149.75</ele>
        <time>2026-08-12T16:04:27.494Z</time>
      </trkpt>
      <trkpt lat="49.11304" lon="7.06314">
        <ele>149.58</ele>
        <time>2026-08-12T16:04:32.555Z</time>
      </trkpt>
      <trkpt lat="49.11316" lon="7.06348">
        <ele>149.57</ele>
        <time>2026-08-12T16:04:38.527Z</time>
      </trkpt>
      <trkpt lat="49.1133" lon="7.06383">
        <ele>148.44</ele>
        <time>2026-08-12T16:04:44.551Z</time>
      </trkpt>
      <trkpt lat="49.11343" lon="7.06424">
        <ele>148.15</ele>
        <time>2026-08-12T16:04:50.547Z</time>
      </trkpt>
      <trkpt lat="49.11354" lon="7.06465">
        <ele>147.66</ele>
        <time>2026-08-12T16:04:56.558Z</time>
      </trkpt>
      <trkpt lat="49.11364" lon="7.06508">
        <ele>147.92</ele>
        <time>2026-08-12T16:05:02.558Z</time>
      </trkpt>
      <trkpt lat="49.1137" lon="7.06545">
        <ele>148.44</ele>
        <time>2026-08-12T16:05:08.542Z</time>
      </trkpt>
      <trkpt lat="49.11372" lon="7.06585">
        <ele>147.98</ele>
        <time>2026-08-12T16:05:14.538Z</time>
      </trkpt>
      <trkpt lat="49.1137" lon="7.06629">
        <ele>147.54</ele>
        <time>2026-08-12T16:05:20.538Z</time>
      </trkpt>
      <trkpt lat="49.11364" lon="7.06669">
        <ele>148.55</ele>
        <time>2026-08-12T16:05:26.560Z</time>
      </trkpt>
      <trkpt lat="49.11351" lon="7.06706">
        <ele>148.37</ele>
        <time>2026-08-12T16:05:32.561Z</time>
      </trkpt>
      <trkpt lat="49.11335" lon="7.06746">
        <ele>146.75</ele>
        <time>2026-08-12T16:05:38.541Z</time>
      </trkpt>
      <trkpt lat="49.11319" lon="7.06786">
        <ele>145.53</ele>
        <time>2026-08-12T16:05:44.536Z</time>
      </trkpt>
      <trkpt lat="49.11304" lon="7.06826">
        <ele>144.77</ele>
        <time>2026-08-12T16:05:50.536Z</time>
      </trkpt>
      <trkpt lat="49.11289" lon="7.06862">
        <ele>144.3</ele>
        <time>2026-08-12T16:05:56.559Z</time>
      </trkpt>
      <trkpt lat="49.11273" lon="7.06895">
        <ele>143.69</ele>
        <time>2026-08-12T16:06:02.554Z</time>
      </trkpt>
      <trkpt lat="49.11258" lon="7.06926">
        <ele>143.74</ele>
        <time>2026-08-12T16:06:08.540Z</time>
      </trkpt>
      <trkpt lat="49.1124" lon="7.06961">
        <ele>145.56</ele>
        <time>2026-08-12T16:06:14.538Z</time>
      </trkpt>
      <trkpt lat="49.11222" lon="7.06994">
        <ele>146.47</ele>
        <time>2026-08-12T16:06:20.546Z</time>
      </trkpt>
      <trkpt lat="49.11205" lon="7.07026">
        <ele>201.43</ele>
        <time>2026-08-12T16:06:26.561Z</time>
      </trkpt>
      <trkpt lat="49.11189" lon="7.07056">
        <ele>201.65</ele>
        <time>2026-08-12T16:06:32.556Z</time>
      </trkpt>
      <trkpt lat="49.11168" lon="7.07086">
        <ele>201.65</ele>
        <time>2026-08-12T16:06:38.544Z</time>
      </trkpt>
      <trkpt lat="49.11148" lon="7.07115">
        <ele>201.65</ele>
        <time>2026-08-12T16:06:44.522Z</time>
      </trkpt>
      <trkpt lat="49.1113" lon="7.07139">
        <ele>201.65</ele>
        <time>2026-08-12T16:06:50.541Z</time>
      </trkpt>
      <trkpt lat="49.11105" lon="7.0716">
        <ele>201.65</ele>
        <time>2026-08-12T16:06:56.569Z</time>
      </trkpt>
      <trkpt lat="49.11083" lon="7.07176">
        <ele>201.65</ele>
        <time>2026-08-12T16:07:02.356Z</time>
      </trkpt>
      <trkpt lat="49.11066" lon="7.07192">
        <ele>201.65</ele>
        <time>2026-08-12T16:07:07.498Z</time>
      </trkpt>
      <trkpt lat="49.11058" lon="7.07183">
        <ele>201.65</ele>
        <time>2026-08-12T16:07:13.562Z</time>
      </trkpt>
      <trkpt lat="49.11049" lon="7.07194">
        <ele>201.55</ele>
        <time>2026-08-12T16:07:40.512Z</time>
      </trkpt>
      <trkpt lat="49.1104" lon="7.07192">
        <ele>199.94</ele>
        <time>2026-08-12T16:09:42.489Z</time>
      </trkpt>
      <trkpt lat="49.11025" lon="7.07192">
        <ele>199.95</ele>
        <time>2026-08-12T16:09:48.497Z</time>
      </trkpt>
      <trkpt lat="49.11014" lon="7.07199">
        <ele>200.1</ele>
        <time>2026-08-12T16:09:54.331Z</time>
      </trkpt>
      <trkpt lat="49.11017" lon="7.07221">
        <ele>200.15</ele>
        <time>2026-08-12T16:09:59.501Z</time>
      </trkpt>
      <trkpt lat="49.11021" lon="7.07243">
        <ele>200.15</ele>
        <time>2026-08-12T16:10:05.495Z</time>
      </trkpt>
      <trkpt lat="49.11023" lon="7.07262">
        <ele>200.15</ele>
        <time>2026-08-12T16:10:10.495Z</time>
      </trkpt>
      <trkpt lat="49.11024" lon="7.0728">
        <ele>200.05</ele>
        <time>2026-08-12T16:10:15.498Z</time>
      </trkpt>
      <trkpt lat="49.11026" lon="7.07299">
        <ele>200.05</ele>
        <time>2026-08-12T16:10:20.541Z</time>
      </trkpt>
      <trkpt lat="49.1103" lon="7.07322">
        <ele>200.05</ele>
        <time>2026-08-12T16:10:26.553Z</time>
      </trkpt>
      <trkpt lat="49.11033" lon="7.0734">
        <ele>200.05</ele>
        <time>2026-08-12T16:10:32.541Z</time>
      </trkpt>
      <trkpt lat="49.1102" lon="7.07353">
        <ele>202.45</ele>
        <time>2026-08-12T16:10:38.544Z</time>
      </trkpt>
      <trkpt lat="49.11007" lon="7.07362">
        <ele>202.45</ele>
        <time>2026-08-12T16:10:44.529Z</time>
      </trkpt>
      <trkpt lat="49.10998" lon="7.07377">
        <ele>200.05</ele>
        <time>2026-08-12T16:10:50.545Z</time>
      </trkpt>
      <trkpt lat="49.11014" lon="7.07381">
        <ele>200.05</ele>
        <time>2026-08-12T16:10:56.538Z</time>
      </trkpt>
      <trkpt lat="49.11028" lon="7.07379">
        <ele>199.95</ele>
        <time>2026-08-12T16:11:02.556Z</time>
      </trkpt>
      <trkpt lat="49.11044" lon="7.07377">
        <ele>199.95</ele>
        <time>2026-08-12T16:11:08.541Z</time>
      </trkpt>
      <trkpt lat="49.11057" lon="7.07373">
        <ele>199.95</ele>
        <time>2026-08-12T16:11:14.545Z</time>
      </trkpt>
      <trkpt lat="49.11071" lon="7.07372">
        <ele>205.06</ele>
        <time>2026-08-12T16:11:20.553Z</time>
      </trkpt>
      <trkpt lat="49.11083" lon="7.07379">
        <ele>205.15</ele>
        <time>2026-08-12T16:11:26.557Z</time>
      </trkpt>
      <trkpt lat="49.11099" lon="7.07361">
        <ele>205.15</ele>
        <time>2026-08-12T16:11:32.550Z</time>
      </trkpt>
      <trkpt lat="49.11116" lon="7.07343">
        <ele>205.15</ele>
        <time>2026-08-12T16:11:38.547Z</time>
      </trkpt>
      <trkpt lat="49.11135" lon="7.07328">
        <ele>205.15</ele>
        <time>2026-08-12T16:11:44.534Z</time>
      </trkpt>
      <trkpt lat="49.11156" lon="7.07309">
        <ele>205.15</ele>
        <time>2026-08-12T16:11:50.543Z</time>
      </trkpt>
      <trkpt lat="49.11157" lon="7.07329">
        <ele>205.15</ele>
        <time>2026-08-12T16:11:56.538Z</time>
      </trkpt>
      <trkpt lat="49.1115" lon="7.07345">
        <ele>206.94</ele>
        <time>2026-08-12T16:12:02.553Z</time>
      </trkpt>
      <trkpt lat="49.11145" lon="7.0737">
        <ele>206.95</ele>
        <time>2026-08-12T16:12:08.549Z</time>
      </trkpt>
      <trkpt lat="49.11141" lon="7.07395">
        <ele>206.95</ele>
        <time>2026-08-12T16:12:14.547Z</time>
      </trkpt>
      <trkpt lat="49.11137" lon="7.07421">
        <ele>213.6</ele>
        <time>2026-08-12T16:12:20.543Z</time>
      </trkpt>
      <trkpt lat="49.1113" lon="7.07434">
        <ele>214.05</ele>
        <time>2026-08-12T16:12:26.557Z</time>
      </trkpt>
      <trkpt lat="49.11129" lon="7.07448">
        <ele>214.05</ele>
        <time>2026-08-12T16:12:32.554Z</time>
      </trkpt>
      <trkpt lat="49.11126" lon="7.07471">
        <ele>214.04</ele>
        <time>2026-08-12T16:12:38.527Z</time>
      </trkpt>
      <trkpt lat="49.11136" lon="7.0748">
        <ele>211.24</ele>
        <time>2026-08-12T16:12:48.480Z</time>
      </trkpt>
      <trkpt lat="49.11153" lon="7.07463">
        <ele>210.85</ele>
        <time>2026-08-12T16:12:53.491Z</time>
      </trkpt>
      <trkpt lat="49.11175" lon="7.07436">
        <ele>210.85</ele>
        <time>2026-08-12T16:12:59.495Z</time>
      </trkpt>
      <trkpt lat="49.11195" lon="7.0741">
        <ele>210.85</ele>
        <time>2026-08-12T16:13:05.497Z</time>
      </trkpt>
      <trkpt lat="49.11218" lon="7.07383">
        <ele>210.85</ele>
        <time>2026-08-12T16:13:11.494Z</time>
      </trkpt>
      <trkpt lat="49.11243" lon="7.07351">
        <ele>210.85</ele>
        <time>2026-08-12T16:13:17.496Z</time>
      </trkpt>
      <trkpt lat="49.11267" lon="7.07322">
        <ele>210.85</ele>
        <time>2026-08-12T16:13:23.497Z</time>
      </trkpt>
      <trkpt lat="49.11283" lon="7.07301">
        <ele>210.85</ele>
        <time>2026-08-12T16:13:29.497Z</time>
      </trkpt>
      <trkpt lat="49.11292" lon="7.07292">
        <ele>210.85</ele>
        <time>2026-08-12T16:13:35.495Z</time>
      </trkpt>
      <trkpt lat="49.11303" lon="7.07277">
        <ele>210.85</ele>
        <time>2026-08-12T16:13:40.497Z</time>
      </trkpt>
      <trkpt lat="49.11318" lon="7.07261">
        <ele>210.85</ele>
        <time>2026-08-12T16:13:45.503Z</time>
      </trkpt>
      <trkpt lat="49.11336" lon="7.07245">
        <ele>210.85</ele>
        <time>2026-08-12T16:13:50.547Z</time>
      </trkpt>
      <trkpt lat="49.11357" lon="7.0722">
        <ele>210.85</ele>
        <time>2026-08-12T16:13:56.546Z</time>
      </trkpt>
      <trkpt lat="49.11377" lon="7.07199">
        <ele>210.85</ele>
        <time>2026-08-12T16:14:02.552Z</time>
      </trkpt>
      <trkpt lat="49.11399" lon="7.07184">
        <ele>210.85</ele>
        <time>2026-08-12T16:14:08.547Z</time>
      </trkpt>
      <trkpt lat="49.11408" lon="7.07177">
        <ele>210.85</ele>
        <time>2026-08-12T16:14:14.531Z</time>
      </trkpt>
      <trkpt lat="49.11402" lon="7.07189">
        <ele>206.95</ele>
        <time>2026-08-12T16:14:39.482Z</time>
      </trkpt>
      <trkpt lat="49.11405" lon="7.07207">
        <ele>207.05</ele>
        <time>2026-08-12T16:14:50.551Z</time>
      </trkpt>
      <trkpt lat="49.11411" lon="7.07219">
        <ele>207.05</ele>
        <time>2026-08-12T16:14:56.559Z</time>
      </trkpt>
      <trkpt lat="49.11417" lon="7.07232">
        <ele>207.05</ele>
        <time>2026-08-12T16:15:03.478Z</time>
      </trkpt>
      <trkpt lat="49.11426" lon="7.07244">
        <ele>209.45</ele>
        <time>2026-08-12T16:15:38.567Z</time>
      </trkpt>
      <trkpt lat="49.11416" lon="7.0724">
        <ele>208.15</ele>
        <time>2026-08-12T16:16:24.496Z</time>
      </trkpt>
      <trkpt lat="49.11414" lon="7.07226">
        <ele>208.15</ele>
        <time>2026-08-12T16:16:29.496Z</time>
      </trkpt>
      <trkpt lat="49.1142" lon="7.07235">
        <ele>209.45</ele>
        <time>2026-08-12T16:16:48.488Z</time>
      </trkpt>
      <trkpt lat="49.11412" lon="7.07225">
        <ele>208.15</ele>
        <time>2026-08-12T16:19:18.501Z</time>
      </trkpt>
      <trkpt lat="49.11398" lon="7.07197">
        <ele>208.15</ele>
        <time>2026-08-12T16:19:24.487Z</time>
      </trkpt>
      <trkpt lat="49.11402" lon="7.07184">
        <ele>208.15</ele>
        <time>2026-08-12T16:19:29.495Z</time>
      </trkpt>
      <trkpt lat="49.1142" lon="7.07165">
        <ele>208.15</ele>
        <time>2026-08-12T16:19:35.496Z</time>
      </trkpt>
      <trkpt lat="49.1144" lon="7.07143">
        <ele>208.15</ele>
        <time>2026-08-12T16:19:41.491Z</time>
      </trkpt>
      <trkpt lat="49.11457" lon="7.07125">
        <ele>208.15</ele>
        <time>2026-08-12T16:19:47.503Z</time>
      </trkpt>
      <trkpt lat="49.11459" lon="7.07112">
        <ele>205.32</ele>
        <time>2026-08-12T16:20:19.497Z</time>
      </trkpt>
      <trkpt lat="49.11458" lon="7.07071">
        <ele>205.15</ele>
        <time>2026-08-12T16:20:25.481Z</time>
      </trkpt>
      <trkpt lat="49.11444" lon="7.07031">
        <ele>204.07</ele>
        <time>2026-08-12T16:20:30.496Z</time>
      </trkpt>
      <trkpt lat="49.11426" lon="7.06984">
        <ele>204.05</ele>
        <time>2026-08-12T16:20:35.505Z</time>
      </trkpt>
      <trkpt lat="49.11388" lon="7.06953">
        <ele>204.05</ele>
        <time>2026-08-12T16:20:41.504Z</time>
      </trkpt>
      <trkpt lat="49.1135" lon="7.0693">
        <ele>204.05</ele>
        <time>2026-08-12T16:20:47.513Z</time>
      </trkpt>
      <trkpt lat="49.11323" lon="7.069">
        <ele>204.05</ele>
        <time>2026-08-12T16:20:53.514Z</time>
      </trkpt>
      <trkpt lat="49.11299" lon="7.06869">
        <ele>204.05</ele>
        <time>2026-08-12T16:20:59.511Z</time>
      </trkpt>
      <trkpt lat="49.11278" lon="7.06842">
        <ele>204.05</ele>
        <time>2026-08-12T16:21:05.484Z</time>
      </trkpt>
      <trkpt lat="49.1126" lon="7.06824">
        <ele>204.05</ele>
        <time>2026-08-12T16:21:10.493Z</time>
      </trkpt>
      <trkpt lat="49.11244" lon="7.06811">
        <ele>204.05</ele>
        <time>2026-08-12T16:21:15.494Z</time>
      </trkpt>
      <trkpt lat="49.11235" lon="7.06805">
        <ele>200.75</ele>
        <time>2026-08-12T16:21:34.516Z</time>
      </trkpt>
      <trkpt lat="49.11204" lon="7.06773">
        <ele>200.75</ele>
        <time>2026-08-12T16:21:40.501Z</time>
      </trkpt>
      <trkpt lat="49.11166" lon="7.0673">
        <ele>200.75</ele>
        <time>2026-08-12T16:21:46.481Z</time>
      </trkpt>
      <trkpt lat="49.11148" lon="7.06707">
        <ele>200.35</ele>
        <time>2026-08-12T16:21:51.483Z</time>
      </trkpt>
      <trkpt lat="49.11139" lon="7.06706">
        <ele>200.95</ele>
        <time>2026-08-12T16:22:18.501Z</time>
      </trkpt>
      <trkpt lat="49.11113" lon="7.06686">
        <ele>200.95</ele>
        <time>2026-08-12T16:22:24.490Z</time>
      </trkpt>
      <trkpt lat="49.11104" lon="7.06666">
        <ele>200.95</ele>
        <time>2026-08-12T16:22:29.494Z</time>
      </trkpt>
      <trkpt lat="49.11089" lon="7.06651">
        <ele>202.83</ele>
        <time>2026-08-12T16:22:35.495Z</time>
      </trkpt>
      <trkpt lat="49.11079" lon="7.0663">
        <ele>202.95</ele>
        <time>2026-08-12T16:22:41.487Z</time>
      </trkpt>
      <trkpt lat="49.11067" lon="7.06617">
        <ele>202.95</ele>
        <time>2026-08-12T16:22:46.518Z</time>
      </trkpt>
      <trkpt lat="49.11058" lon="7.06603">
        <ele>202.95</ele>
        <time>2026-08-12T16:22:52.502Z</time>
      </trkpt>
      <trkpt lat="49.11057" lon="7.06587">
        <ele>205.84</ele>
        <time>2026-08-12T16:23:01.535Z</time>
      </trkpt>
      <trkpt lat="49.11042" lon="7.06597">
        <ele>204.73</ele>
        <time>2026-08-12T16:24:06.493Z</time>
      </trkpt>
      <trkpt lat="49.11019" lon="7.06642">
        <ele>204.65</ele>
        <time>2026-08-12T16:24:11.504Z</time>
      </trkpt>
      <trkpt lat="49.10996" lon="7.06674">
        <ele>204.05</ele>
        <time>2026-08-12T16:24:17.498Z</time>
      </trkpt>
      <trkpt lat="49.10978" lon="7.06703">
        <ele>203.85</ele>
        <time>2026-08-12T16:24:23.488Z</time>
      </trkpt>
      <trkpt lat="49.10959" lon="7.06726">
        <ele>203.38</ele>
        <time>2026-08-12T16:24:28.492Z</time>
      </trkpt>
      <trkpt lat="49.10942" lon="7.06747">
        <ele>203.35</ele>
        <time>2026-08-12T16:24:34.493Z</time>
      </trkpt>
      <trkpt lat="49.10928" lon="7.0677">
        <ele>203.13</ele>
        <time>2026-08-12T16:24:40.034Z</time>
      </trkpt>
      <trkpt lat="49.10921" lon="7.06797">
        <ele>203.05</ele>
        <time>2026-08-12T16:24:45.513Z</time>
      </trkpt>
      <trkpt lat="49.10911" lon="7.06811">
        <ele>203.05</ele>
        <time>2026-08-12T16:24:50.659Z</time>
      </trkpt>
      <trkpt lat="49.10895" lon="7.06832">
        <ele>203.05</ele>
        <time>2026-08-12T16:24:56.586Z</time>
      </trkpt>
      <trkpt lat="49.1087" lon="7.06853">
        <ele>206.05</ele>
        <time>2026-08-12T16:25:02.546Z</time>
      </trkpt>
      <trkpt lat="49.10849" lon="7.06879">
        <ele>206.25</ele>
        <time>2026-08-12T16:25:08.536Z</time>
      </trkpt>
      <trkpt lat="49.10829" lon="7.06908">
        <ele>206.25</ele>
        <time>2026-08-12T16:25:14.529Z</time>
      </trkpt>
      <trkpt lat="49.10807" lon="7.06929">
        <ele>207.75</ele>
        <time>2026-08-12T16:25:20.536Z</time>
      </trkpt>
      <trkpt lat="49.10787" lon="7.06946">
        <ele>203.92</ele>
        <time>2026-08-12T16:25:26.540Z</time>
      </trkpt>
      <trkpt lat="49.10769" lon="7.06927">
        <ele>202.65</ele>
        <time>2026-08-12T16:25:32.546Z</time>
      </trkpt>
      <trkpt lat="49.10758" lon="7.06895">
        <ele>202.65</ele>
        <time>2026-08-12T16:25:38.551Z</time>
      </trkpt>
      <trkpt lat="49.10742" lon="7.06893">
        <ele>202.65</ele>
        <time>2026-08-12T16:25:44.547Z</time>
      </trkpt>
      <trkpt lat="49.10722" lon="7.06892">
        <ele>203.49</ele>
        <time>2026-08-12T16:25:50.567Z</time>
      </trkpt>
      <trkpt lat="49.107" lon="7.06902">
        <ele>203.55</ele>
        <time>2026-08-12T16:25:56.552Z</time>
      </trkpt>
      <trkpt lat="49.10676" lon="7.06934">
        <ele>203.55</ele>
        <time>2026-08-12T16:26:02.548Z</time>
      </trkpt>
      <trkpt lat="49.10655" lon="7.06958">
        <ele>203.25</ele>
        <time>2026-08-12T16:26:08.550Z</time>
      </trkpt>
      <trkpt lat="49.10634" lon="7.06975">
        <ele>203.25</ele>
        <time>2026-08-12T16:26:14.544Z</time>
      </trkpt>
      <trkpt lat="49.10612" lon="7.06999">
        <ele>203.25</ele>
        <time>2026-08-12T16:26:20.544Z</time>
      </trkpt>
      <trkpt lat="49.10588" lon="7.07023">
        <ele>203.25</ele>
        <time>2026-08-12T16:26:26.548Z</time>
      </trkpt>
      <trkpt lat="49.10562" lon="7.07047">
        <ele>203.25</ele>
        <time>2026-08-12T16:26:32.536Z</time>
      </trkpt>
      <trkpt lat="49.10535" lon="7.07072">
        <ele>203.25</ele>
        <time>2026-08-12T16:26:38.534Z</time>
      </trkpt>
      <trkpt lat="49.10512" lon="7.07095">
        <ele>203.25</ele>
        <time>2026-08-12T16:26:44.545Z</time>
      </trkpt>
      <trkpt lat="49.10518" lon="7.07131">
        <ele>203.25</ele>
        <time>2026-08-12T16:26:50.547Z</time>
      </trkpt>
      <trkpt lat="49.10536" lon="7.07167">
        <ele>203.25</ele>
        <time>2026-08-12T16:26:56.557Z</time>
      </trkpt>
      <trkpt lat="49.10543" lon="7.07208">
        <ele>203.25</ele>
        <time>2026-08-12T16:27:02.582Z</time>
      </trkpt>
      <trkpt lat="49.10519" lon="7.07237">
        <ele>203.25</ele>
        <time>2026-08-12T16:27:08.544Z</time>
      </trkpt>
      <trkpt lat="49.10496" lon="7.0726">
        <ele>203.25</ele>
        <time>2026-08-12T16:27:14.527Z</time>
      </trkpt>
      <trkpt lat="49.10472" lon="7.07287">
        <ele>203.25</ele>
        <time>2026-08-12T16:27:20.538Z</time>
      </trkpt>
      <trkpt lat="49.10449" lon="7.07316">
        <ele>203.25</ele>
        <time>2026-08-12T16:27:26.560Z</time>
      </trkpt>
      <trkpt lat="49.10428" lon="7.07341">
        <ele>162</ele>
        <time>2026-08-12T16:27:32.553Z</time>
      </trkpt>
      <trkpt lat="49.10408" lon="7.07361">
        <ele>149.57</ele>
        <time>2026-08-12T16:27:38.555Z</time>
      </trkpt>
      <trkpt lat="49.10392" lon="7.07379">
        <ele>150.75</ele>
        <time>2026-08-12T16:27:44.531Z</time>
      </trkpt>
      <trkpt lat="49.10376" lon="7.07384">
        <ele>151.94</ele>
        <time>2026-08-12T16:27:50.541Z</time>
      </trkpt>
      <trkpt lat="49.10355" lon="7.07375">
        <ele>153.12</ele>
        <time>2026-08-12T16:27:56.555Z</time>
      </trkpt>
      <trkpt lat="49.10332" lon="7.07382">
        <ele>153.22</ele>
        <time>2026-08-12T16:28:02.551Z</time>
      </trkpt>
      <trkpt lat="49.10319" lon="7.07418">
        <ele>153.23</ele>
        <time>2026-08-12T16:28:08.565Z</time>
      </trkpt>
      <trkpt lat="49.10325" lon="7.0747">
        <ele>152.23</ele>
        <time>2026-08-12T16:28:14.561Z</time>
      </trkpt>
      <trkpt lat="49.10332" lon="7.07524">
        <ele>151.62</ele>
        <time>2026-08-12T16:28:20.549Z</time>
      </trkpt>
      <trkpt lat="49.10303" lon="7.07568">
        <ele>151.48</ele>
        <time>2026-08-12T16:28:26.537Z</time>
      </trkpt>
      <trkpt lat="49.10276" lon="7.07603">
        <ele>151.7</ele>
        <time>2026-08-12T16:28:32.543Z</time>
      </trkpt>
      <trkpt lat="49.10244" lon="7.07623">
        <ele>151.58</ele>
        <time>2026-08-12T16:28:38.549Z</time>
      </trkpt>
      <trkpt lat="49.10216" lon="7.07631">
        <ele>152.13</ele>
        <time>2026-08-12T16:28:44.545Z</time>
      </trkpt>
      <trkpt lat="49.10197" lon="7.07648">
        <ele>151.93</ele>
        <time>2026-08-12T16:28:50.551Z</time>
      </trkpt>
      <trkpt lat="49.10174" lon="7.07674">
        <ele>150.79</ele>
        <time>2026-08-12T16:28:56.552Z</time>
      </trkpt>
      <trkpt lat="49.1015" lon="7.07706">
        <ele>149.7</ele>
        <time>2026-08-12T16:29:02.553Z</time>
      </trkpt>
      <trkpt lat="49.10126" lon="7.07739">
        <ele>148.87</ele>
        <time>2026-08-12T16:29:08.536Z</time>
      </trkpt>
      <trkpt lat="49.10101" lon="7.07777">
        <ele>148.58</ele>
        <time>2026-08-12T16:29:14.540Z</time>
      </trkpt>
      <trkpt lat="49.10075" lon="7.07814">
        <ele>148.78</ele>
        <time>2026-08-12T16:29:20.531Z</time>
      </trkpt>
      <trkpt lat="49.10049" lon="7.07848">
        <ele>148.76</ele>
        <time>2026-08-12T16:29:26.556Z</time>
      </trkpt>
      <trkpt lat="49.10026" lon="7.07881">
        <ele>148.42</ele>
        <time>2026-08-12T16:29:32.551Z</time>
      </trkpt>
      <trkpt lat="49.10003" lon="7.07912">
        <ele>149.28</ele>
        <time>2026-08-12T16:29:38.536Z</time>
      </trkpt>
      <trkpt lat="49.09978" lon="7.07945">
        <ele>149.9</ele>
        <time>2026-08-12T16:29:44.538Z</time>
      </trkpt>
      <trkpt lat="49.09954" lon="7.07965">
        <ele>149.08</ele>
        <time>2026-08-12T16:29:50.543Z</time>
      </trkpt>
      <trkpt lat="49.09933" lon="7.07967">
        <ele>150.28</ele>
        <time>2026-08-12T16:29:56.553Z</time>
      </trkpt>
      <trkpt lat="49.0992" lon="7.07958">
        <ele>154.04</ele>
        <time>2026-08-12T16:30:02.559Z</time>
      </trkpt>
      <trkpt lat="49.09908" lon="7.07944">
        <ele>156.4</ele>
        <time>2026-08-12T16:30:08.541Z</time>
      </trkpt>
      <trkpt lat="49.09897" lon="7.07924">
        <ele>156.76</ele>
        <time>2026-08-12T16:30:14.553Z</time>
      </trkpt>
      <trkpt lat="49.09885" lon="7.07911">
        <ele>158.58</ele>
        <time>2026-08-12T16:30:20.534Z</time>
      </trkpt>
      <trkpt lat="49.09873" lon="7.07899">
        <ele>158.2</ele>
        <time>2026-08-12T16:30:26.550Z</time>
      </trkpt>
      <trkpt lat="49.09858" lon="7.07886">
        <ele>159.38</ele>
        <time>2026-08-12T16:30:32.558Z</time>
      </trkpt>
      <trkpt lat="49.0984" lon="7.07866">
        <ele>161.34</ele>
        <time>2026-08-12T16:30:38.532Z</time>
      </trkpt>
      <trkpt lat="49.09825" lon="7.07844">
        <ele>161.67</ele>
        <time>2026-08-12T16:30:44.532Z</time>
      </trkpt>
      <trkpt lat="49.09812" lon="7.07827">
        <ele>161.04</ele>
        <time>2026-08-12T16:30:50.545Z</time>
      </trkpt>
      <trkpt lat="49.09794" lon="7.07819">
        <ele>160.93</ele>
        <time>2026-08-12T16:30:56.558Z</time>
      </trkpt>
      <trkpt lat="49.09778" lon="7.07805">
        <ele>161.6</ele>
        <time>2026-08-12T16:31:02.551Z</time>
      </trkpt>
      <trkpt lat="49.09766" lon="7.07805">
        <ele>160.95</ele>
        <time>2026-08-12T16:31:08.539Z</time>
      </trkpt>
      <trkpt lat="49.09749" lon="7.07818">
        <ele>161.94</ele>
        <time>2026-08-12T16:31:14.551Z</time>
      </trkpt>
      <trkpt lat="49.09729" lon="7.07792">
        <ele>161.35</ele>
        <time>2026-08-12T16:31:20.532Z</time>
      </trkpt>
      <trkpt lat="49.09715" lon="7.07768">
        <ele>159.45</ele>
        <time>2026-08-12T16:31:26.540Z</time>
      </trkpt>
      <trkpt lat="49.09695" lon="7.07756">
        <ele>158.42</ele>
        <time>2026-08-12T16:31:32.546Z</time>
      </trkpt>
      <trkpt lat="49.09676" lon="7.07746">
        <ele>158.55</ele>
        <time>2026-08-12T16:31:38.543Z</time>
      </trkpt>
      <trkpt lat="49.09653" lon="7.07734">
        <ele>160.09</ele>
        <time>2026-08-12T16:31:44.539Z</time>
      </trkpt>
      <trkpt lat="49.09636" lon="7.07717">
        <ele>160.21</ele>
        <time>2026-08-12T16:31:50.546Z</time>
      </trkpt>
      <trkpt lat="49.09617" lon="7.07705">
        <ele>162</ele>
        <time>2026-08-12T16:31:56.532Z</time>
      </trkpt>
      <trkpt lat="49.09603" lon="7.0768">
        <ele>212.73</ele>
        <time>2026-08-12T16:32:02.547Z</time>
      </trkpt>
      <trkpt lat="49.09588" lon="7.07662">
        <ele>212.74</ele>
        <time>2026-08-12T16:32:08.552Z</time>
      </trkpt>
      <trkpt lat="49.09572" lon="7.07637">
        <ele>212.74</ele>
        <time>2026-08-12T16:32:14.554Z</time>
      </trkpt>
      <trkpt lat="49.09549" lon="7.0761">
        <ele>215.28</ele>
        <time>2026-08-12T16:32:20.554Z</time>
      </trkpt>
      <trkpt lat="49.09532" lon="7.07582">
        <ele>215.44</ele>
        <time>2026-08-12T16:32:26.538Z</time>
      </trkpt>
      <trkpt lat="49.09508" lon="7.07546">
        <ele>215.44</ele>
        <time>2026-08-12T16:32:32.550Z</time>
      </trkpt>
      <trkpt lat="49.09484" lon="7.07511">
        <ele>215.45</ele>
        <time>2026-08-12T16:32:38.549Z</time>
      </trkpt>
      <trkpt lat="49.09456" lon="7.07476">
        <ele>215.45</ele>
        <time>2026-08-12T16:32:44.551Z</time>
      </trkpt>
      <trkpt lat="49.09425" lon="7.07443">
        <ele>215.45</ele>
        <time>2026-08-12T16:32:50.545Z</time>
      </trkpt>
      <trkpt lat="49.09396" lon="7.07419">
        <ele>215.45</ele>
        <time>2026-08-12T16:32:56.538Z</time>
      </trkpt>
      <trkpt lat="49.09367" lon="7.07397">
        <ele>215.45</ele>
        <time>2026-08-12T16:33:02.547Z</time>
      </trkpt>
      <trkpt lat="49.09337" lon="7.07378">
        <ele>215.45</ele>
        <time>2026-08-12T16:33:08.539Z</time>
      </trkpt>
      <trkpt lat="49.09307" lon="7.07363">
        <ele>215.45</ele>
        <time>2026-08-12T16:33:14.532Z</time>
      </trkpt>
      <trkpt lat="49.09277" lon="7.07353">
        <ele>215.45</ele>
        <time>2026-08-12T16:33:20.528Z</time>
      </trkpt>
      <trkpt lat="49.0925" lon="7.07343">
        <ele>215.45</ele>
        <time>2026-08-12T16:33:26.551Z</time>
      </trkpt>
      <trkpt lat="49.09221" lon="7.07341">
        <ele>215.45</ele>
        <time>2026-08-12T16:33:32.549Z</time>
      </trkpt>
      <trkpt lat="49.09191" lon="7.07341">
        <ele>215.45</ele>
        <time>2026-08-12T16:33:38.539Z</time>
      </trkpt>
      <trkpt lat="49.09164" lon="7.07337">
        <ele>215.45</ele>
        <time>2026-08-12T16:33:44.552Z</time>
      </trkpt>
      <trkpt lat="49.09134" lon="7.0733">
        <ele>162.56</ele>
        <time>2026-08-12T16:33:50.547Z</time>
      </trkpt>
      <trkpt lat="49.09102" lon="7.07324">
        <ele>160.58</ele>
        <time>2026-08-12T16:33:56.556Z</time>
      </trkpt>
      <trkpt lat="49.09064" lon="7.07323">
        <ele>161.26</ele>
        <time>2026-08-12T16:34:02.556Z</time>
      </trkpt>
      <trkpt lat="49.09028" lon="7.07317">
        <ele>162.86</ele>
        <time>2026-08-12T16:34:08.543Z</time>
      </trkpt>
      <trkpt lat="49.08994" lon="7.07309">
        <ele>162.6</ele>
        <time>2026-08-12T16:34:14.543Z</time>
      </trkpt>
      <trkpt lat="49.08964" lon="7.07297">
        <ele>164.33</ele>
        <time>2026-08-12T16:34:20.548Z</time>
      </trkpt>
      <trkpt lat="49.08936" lon="7.07282">
        <ele>166.19</ele>
        <time>2026-08-12T16:34:26.554Z</time>
      </trkpt>
      <trkpt lat="49.08911" lon="7.0727">
        <ele>165.49</ele>
        <time>2026-08-12T16:34:32.553Z</time>
      </trkpt>
      <trkpt lat="49.08882" lon="7.0725">
        <ele>166.54</ele>
        <time>2026-08-12T16:34:38.548Z</time>
      </trkpt>
      <trkpt lat="49.08851" lon="7.07224">
        <ele>164.84</ele>
        <time>2026-08-12T16:34:44.539Z</time>
      </trkpt>
      <trkpt lat="49.08822" lon="7.07198">
        <ele>164.31</ele>
        <time>2026-08-12T16:34:50.547Z</time>
      </trkpt>
      <trkpt lat="49.08797" lon="7.07168">
        <ele>163.45</ele>
        <time>2026-08-12T16:34:56.562Z</time>
      </trkpt>
      <trkpt lat="49.08772" lon="7.07136">
        <ele>163.13</ele>
        <time>2026-08-12T16:35:02.559Z</time>
      </trkpt>
      <trkpt lat="49.08745" lon="7.07105">
        <ele>163.59</ele>
        <time>2026-08-12T16:35:08.548Z</time>
      </trkpt>
      <trkpt lat="49.08717" lon="7.07077">
        <ele>164.72</ele>
        <time>2026-08-12T16:35:14.549Z</time>
      </trkpt>
      <trkpt lat="49.08687" lon="7.07047">
        <ele>165.25</ele>
        <time>2026-08-12T16:35:20.550Z</time>
      </trkpt>
      <trkpt lat="49.08661" lon="7.07013">
        <ele>167.19</ele>
        <time>2026-08-12T16:35:26.551Z</time>
      </trkpt>
      <trkpt lat="49.08636" lon="7.06983">
        <ele>167.3</ele>
        <time>2026-08-12T16:35:32.549Z</time>
      </trkpt>
      <trkpt lat="49.08613" lon="7.0695">
        <ele>166.86</ele>
        <time>2026-08-12T16:35:38.549Z</time>
      </trkpt>
      <trkpt lat="49.08591" lon="7.06914">
        <ele>167.56</ele>
        <time>2026-08-12T16:35:44.559Z</time>
      </trkpt>
      <trkpt lat="49.08569" lon="7.06878">
        <ele>169.76</ele>
        <time>2026-08-12T16:35:50.553Z</time>
      </trkpt>
      <trkpt lat="49.08548" lon="7.06842">
        <ele>171.57</ele>
        <time>2026-08-12T16:35:56.544Z</time>
      </trkpt>
      <trkpt lat="49.08528" lon="7.0681">
        <ele>170.91</ele>
        <time>2026-08-12T16:36:02.544Z</time>
      </trkpt>
      <trkpt lat="49.08509" lon="7.06774">
        <ele>169.82</ele>
        <time>2026-08-12T16:36:08.535Z</time>
      </trkpt>
      <trkpt lat="49.08489" lon="7.06738">
        <ele>170.47</ele>
        <time>2026-08-12T16:36:14.554Z</time>
      </trkpt>
      <trkpt lat="49.0847" lon="7.06705">
        <ele>171.18</ele>
        <time>2026-08-12T16:36:20.535Z</time>
      </trkpt>
      <trkpt lat="49.08454" lon="7.0668">
        <ele>170.76</ele>
        <time>2026-08-12T16:36:26.541Z</time>
      </trkpt>
      <trkpt lat="49.0844" lon="7.06653">
        <ele>171.27</ele>
        <time>2026-08-12T16:36:32.544Z</time>
      </trkpt>
      <trkpt lat="49.08426" lon="7.0663">
        <ele>170.07</ele>
        <time>2026-08-12T16:36:38.538Z</time>
      </trkpt>
      <trkpt lat="49.08409" lon="7.06601">
        <ele>170.11</ele>
        <time>2026-08-12T16:36:44.548Z</time>
      </trkpt>
      <trkpt lat="49.08388" lon="7.06564">
        <ele>170.45</ele>
        <time>2026-08-12T16:36:50.537Z</time>
      </trkpt>
      <trkpt lat="49.08366" lon="7.06524">
        <ele>172.44</ele>
        <time>2026-08-12T16:36:56.542Z</time>
      </trkpt>
      <trkpt lat="49.08344" lon="7.06485">
        <ele>172.66</ele>
        <time>2026-08-12T16:37:02.553Z</time>
      </trkpt>
      <trkpt lat="49.08323" lon="7.0645">
        <ele>172.17</ele>
        <time>2026-08-12T16:37:08.543Z</time>
      </trkpt>
      <trkpt lat="49.08302" lon="7.06414">
        <ele>171.59</ele>
        <time>2026-08-12T16:37:14.538Z</time>
      </trkpt>
      <trkpt lat="49.08281" lon="7.06379">
        <ele>171.76</ele>
        <time>2026-08-12T16:37:20.545Z</time>
      </trkpt>
      <trkpt lat="49.08263" lon="7.06349">
        <ele>171.29</ele>
        <time>2026-08-12T16:37:26.558Z</time>
      </trkpt>
      <trkpt lat="49.08244" lon="7.06317">
        <ele>171.09</ele>
        <time>2026-08-12T16:37:32.546Z</time>
      </trkpt>
      <trkpt lat="49.08223" lon="7.0629">
        <ele>173.01</ele>
        <time>2026-08-12T16:37:38.568Z</time>
      </trkpt>
      <trkpt lat="49.08201" lon="7.06263">
        <ele>174.12</ele>
        <time>2026-08-12T16:37:44.552Z</time>
      </trkpt>
      <trkpt lat="49.08177" lon="7.06237">
        <ele>173.85</ele>
        <time>2026-08-12T16:37:50.550Z</time>
      </trkpt>
      <trkpt lat="49.0815" lon="7.06213">
        <ele>174.42</ele>
        <time>2026-08-12T16:37:56.546Z</time>
      </trkpt>
      <trkpt lat="49.08122" lon="7.06193">
        <ele>173.86</ele>
        <time>2026-08-12T16:38:02.534Z</time>
      </trkpt>
      <trkpt lat="49.08095" lon="7.06171">
        <ele>175.52</ele>
        <time>2026-08-12T16:38:08.535Z</time>
      </trkpt>
      <trkpt lat="49.08069" lon="7.06145">
        <ele>171.48</ele>
        <time>2026-08-12T16:38:14.539Z</time>
      </trkpt>
      <trkpt lat="49.0804" lon="7.06128">
        <ele>170.29</ele>
        <time>2026-08-12T16:38:20.535Z</time>
      </trkpt>
      <trkpt lat="49.08012" lon="7.06107">
        <ele>171.8</ele>
        <time>2026-08-12T16:38:26.526Z</time>
      </trkpt>
      <trkpt lat="49.07986" lon="7.06084">
        <ele>170.67</ele>
        <time>2026-08-12T16:38:32.557Z</time>
      </trkpt>
      <trkpt lat="49.07958" lon="7.06063">
        <ele>167.03</ele>
        <time>2026-08-12T16:38:38.540Z</time>
      </trkpt>
      <trkpt lat="49.07929" lon="7.06042">
        <ele>167.32</ele>
        <time>2026-08-12T16:38:44.532Z</time>
      </trkpt>
      <trkpt lat="49.07901" lon="7.06019">
        <ele>169.15</ele>
        <time>2026-08-12T16:38:50.542Z</time>
      </trkpt>
      <trkpt lat="49.07874" lon="7.05995">
        <ele>171.29</ele>
        <time>2026-08-12T16:38:56.541Z</time>
      </trkpt>
      <trkpt lat="49.07848" lon="7.05964">
        <ele>171.35</ele>
        <time>2026-08-12T16:39:02.553Z</time>
      </trkpt>
      <trkpt lat="49.07821" lon="7.05936">
        <ele>172.53</ele>
        <time>2026-08-12T16:39:08.552Z</time>
      </trkpt>
      <trkpt lat="49.07798" lon="7.05904">
        <ele>174.95</ele>
        <time>2026-08-12T16:39:14.576Z</time>
      </trkpt>
      <trkpt lat="49.0778" lon="7.05884">
        <ele>174.93</ele>
        <time>2026-08-12T16:39:20.542Z</time>
      </trkpt>
      <trkpt lat="49.07765" lon="7.05867">
        <ele>174.09</ele>
        <time>2026-08-12T16:39:26.556Z</time>
      </trkpt>
      <trkpt lat="49.07749" lon="7.05837">
        <ele>176.94</ele>
        <time>2026-08-12T16:39:32.551Z</time>
      </trkpt>
      <trkpt lat="49.07752" lon="7.05804">
        <ele>176.56</ele>
        <time>2026-08-12T16:39:38.556Z</time>
      </trkpt>
      <trkpt lat="49.0777" lon="7.05778">
        <ele>176.4</ele>
        <time>2026-08-12T16:39:44.543Z</time>
      </trkpt>
      <trkpt lat="49.07789" lon="7.05756">
        <ele>175.63</ele>
        <time>2026-08-12T16:39:50.535Z</time>
      </trkpt>
      <trkpt lat="49.07805" lon="7.05737">
        <ele>176.61</ele>
        <time>2026-08-12T16:39:56.546Z</time>
      </trkpt>
      <trkpt lat="49.07816" lon="7.05721">
        <ele>176.43</ele>
        <time>2026-08-12T16:40:02.565Z</time>
      </trkpt>
      <trkpt lat="49.07824" lon="7.05709">
        <ele>175.44</ele>
        <time>2026-08-12T16:40:08.551Z</time>
      </trkpt>
      <trkpt lat="49.07833" lon="7.05696">
        <ele>177.02</ele>
        <time>2026-08-12T16:40:14.553Z</time>
      </trkpt>
      <trkpt lat="49.07839" lon="7.05683">
        <ele>179.53</ele>
        <time>2026-08-12T16:40:20.540Z</time>
      </trkpt>
      <trkpt lat="49.07844" lon="7.05667">
        <ele>182.9</ele>
        <time>2026-08-12T16:40:26.555Z</time>
      </trkpt>
      <trkpt lat="49.07846" lon="7.05651">
        <ele>186.54</ele>
        <time>2026-08-12T16:40:32.554Z</time>
      </trkpt>
      <trkpt lat="49.07846" lon="7.05633">
        <ele>188.56</ele>
        <time>2026-08-12T16:40:38.545Z</time>
      </trkpt>
      <trkpt lat="49.07847" lon="7.05616">
        <ele>190.08</ele>
        <time>2026-08-12T16:40:44.553Z</time>
      </trkpt>
      <trkpt lat="49.07847" lon="7.05596">
        <ele>190.94</ele>
        <time>2026-08-12T16:40:50.545Z</time>
      </trkpt>
      <trkpt lat="49.07847" lon="7.05576">
        <ele>191.7</ele>
        <time>2026-08-12T16:40:56.529Z</time>
      </trkpt>
      <trkpt lat="49.07847" lon="7.05557">
        <ele>193.4</ele>
        <time>2026-08-12T16:41:02.547Z</time>
      </trkpt>
      <trkpt lat="49.07848" lon="7.05537">
        <ele>194.48</ele>
        <time>2026-08-12T16:41:08.533Z</time>
      </trkpt>
      <trkpt lat="49.07848" lon="7.05517">
        <ele>195.64</ele>
        <time>2026-08-12T16:41:14.535Z</time>
      </trkpt>
      <trkpt lat="49.07849" lon="7.05496">
        <ele>195.35</ele>
        <time>2026-08-12T16:41:20.552Z</time>
      </trkpt>
      <trkpt lat="49.07849" lon="7.05475">
        <ele>195.33</ele>
        <time>2026-08-12T16:41:26.553Z</time>
      </trkpt>
      <trkpt lat="49.0785" lon="7.0545">
        <ele>197.09</ele>
        <time>2026-08-12T16:41:32.563Z</time>
      </trkpt>
      <trkpt lat="49.07849" lon="7.05421">
        <ele>197.45</ele>
        <time>2026-08-12T16:41:38.548Z</time>
      </trkpt>
      <trkpt lat="49.07846" lon="7.0539">
        <ele>197.12</ele>
        <time>2026-08-12T16:41:44.571Z</time>
      </trkpt>
      <trkpt lat="49.07842" lon="7.05356">
        <ele>196.58</ele>
        <time>2026-08-12T16:41:50.557Z</time>
      </trkpt>
      <trkpt lat="49.07848" lon="7.05335">
        <ele>197.12</ele>
        <time>2026-08-12T16:41:56.571Z</time>
      </trkpt>
      <trkpt lat="49.07845" lon="7.05315">
        <ele>196.06</ele>
        <time>2026-08-12T16:42:02.556Z</time>
      </trkpt>
      <trkpt lat="49.07846" lon="7.05329">
        <ele>243.86</ele>
        <time>2026-08-12T16:43:33.030Z</time>
      </trkpt>
      <trkpt lat="49.07854" lon="7.05338">
        <ele>243.79</ele>
        <time>2026-08-12T16:43:40.286Z</time>
      </trkpt>
      <trkpt lat="49.07863" lon="7.05339">
        <ele>243.76</ele>
        <time>2026-08-12T16:43:46.476Z</time>
      </trkpt>
      <trkpt lat="49.07871" lon="7.05344">
        <ele>243.76</ele>
        <time>2026-08-12T16:44:06.488Z</time>
      </trkpt>
      <trkpt lat="49.07883" lon="7.05343">
        <ele>243.76</ele>
        <time>2026-08-12T16:44:12.492Z</time>
      </trkpt>
      <trkpt lat="49.07889" lon="7.05332">
        <ele>243.76</ele>
        <time>2026-08-12T16:44:18.338Z</time>
      </trkpt>
      <trkpt lat="49.07892" lon="7.05319">
        <ele>243.76</ele>
        <time>2026-08-12T16:44:23.434Z</time>
      </trkpt>
      <trkpt lat="49.07879" lon="7.05326">
        <ele>243.76</ele>
        <time>2026-08-12T16:44:28.486Z</time>
      </trkpt>
      <trkpt lat="49.07867" lon="7.05331">
        <ele>243.76</ele>
        <time>2026-08-12T16:44:34.486Z</time>
      </trkpt>
      <trkpt lat="49.07859" lon="7.05336">
        <ele>243.76</ele>
        <time>2026-08-12T16:44:40.488Z</time>
      </trkpt>
      <trkpt lat="49.0785" lon="7.05341">
        <ele>243.76</ele>
        <time>2026-08-12T16:44:46.486Z</time>
      </trkpt>
      <trkpt lat="49.07845" lon="7.05328">
        <ele>243.76</ele>
        <time>2026-08-12T16:44:53.486Z</time>
      </trkpt>
      <trkpt lat="49.07844" lon="7.05314">
        <ele>243.76</ele>
        <time>2026-08-12T16:44:59.397Z</time>
      </trkpt>
      <trkpt lat="49.07852" lon="7.05305">
        <ele>243.56</ele>
        <time>2026-08-12T16:45:15.496Z</time>
      </trkpt>
      <trkpt lat="49.07855" lon="7.05293">
        <ele>244.06</ele>
        <time>2026-08-12T16:45:53.858Z</time>
      </trkpt>
      <trkpt lat="49.07863" lon="7.053">
        <ele>244.06</ele>
        <time>2026-08-12T16:46:01.491Z</time>
      </trkpt>
      <trkpt lat="49.07856" lon="7.05291">
        <ele>244.26</ele>
        <time>2026-08-12T16:46:51.477Z</time>
      </trkpt>
      <trkpt lat="49.07864" lon="7.05279">
        <ele>244.26</ele>
        <time>2026-08-12T16:47:26.554Z</time>
      </trkpt>
      <trkpt lat="49.07871" lon="7.05267">
        <ele>244.26</ele>
        <time>2026-08-12T16:47:36.496Z</time>
      </trkpt>
      <trkpt lat="49.07873" lon="7.05252">
        <ele>244.26</ele>
        <time>2026-08-12T16:47:44.552Z</time>
      </trkpt>
      <trkpt lat="49.08004" lon="7.04274">
        <ele>230.17</ele>
        <time>2026-08-13T05:47:18.832Z</time>
      </trkpt>
      <trkpt lat="49.07995" lon="7.04274">
        <ele>230.17</ele>
        <time>2026-08-13T05:47:28.768Z</time>
      </trkpt>
      <trkpt lat="49.07998" lon="7.04289">
        <ele>230.17</ele>
        <time>2026-08-13T05:48:37.560Z</time>
      </trkpt>
      <trkpt lat="49.07999" lon="7.0432">
        <ele>230.17</ele>
        <time>2026-08-13T05:48:42.584Z</time>
      </trkpt>
      <trkpt lat="49.08003" lon="7.04359">
        <ele>230.17</ele>
        <time>2026-08-13T05:48:48.060Z</time>
      </trkpt>
      <trkpt lat="49.08004" lon="7.04398">
        <ele>230.17</ele>
        <time>2026-08-13T05:48:53.417Z</time>
      </trkpt>
      <trkpt lat="49.08005" lon="7.04432">
        <ele>230.17</ele>
        <time>2026-08-13T05:48:58.770Z</time>
      </trkpt>
      <trkpt lat="49.08007" lon="7.04475">
        <ele>230.17</ele>
        <time>2026-08-13T05:49:04.760Z</time>
      </trkpt>
      <trkpt lat="49.08008" lon="7.04519">
        <ele>230.17</ele>
        <time>2026-08-13T05:49:10.741Z</time>
      </trkpt>
      <trkpt lat="49.08006" lon="7.04558">
        <ele>230.17</ele>
        <time>2026-08-13T05:49:15.765Z</time>
      </trkpt>
      <trkpt lat="49.07997" lon="7.04606">
        <ele>230.17</ele>
        <time>2026-08-13T05:49:21.757Z</time>
      </trkpt>
      <trkpt lat="49.07977" lon="7.04644">
        <ele>230.17</ele>
        <time>2026-08-13T05:49:27.742Z</time>
      </trkpt>
      <trkpt lat="49.07953" lon="7.04668">
        <ele>230.17</ele>
        <time>2026-08-13T05:49:32.766Z</time>
      </trkpt>
      <trkpt lat="49.07932" lon="7.04702">
        <ele>230.17</ele>
        <time>2026-08-13T05:49:38.756Z</time>
      </trkpt>
      <trkpt lat="49.07924" lon="7.04736">
        <ele>230.17</ele>
        <time>2026-08-13T05:49:43.759Z</time>
      </trkpt>
      <trkpt lat="49.07922" lon="7.04772">
        <ele>230.17</ele>
        <time>2026-08-13T05:49:48.761Z</time>
      </trkpt>
      <trkpt lat="49.0792" lon="7.04815">
        <ele>230.17</ele>
        <time>2026-08-13T05:49:54.741Z</time>
      </trkpt>
      <trkpt lat="49.0792" lon="7.0485">
        <ele>230.17</ele>
        <time>2026-08-13T05:49:59.756Z</time>
      </trkpt>
      <trkpt lat="49.07919" lon="7.04885">
        <ele>190.27</ele>
        <time>2026-08-13T05:50:04.766Z</time>
      </trkpt>
      <trkpt lat="49.0792" lon="7.04929">
        <ele>176.23</ele>
        <time>2026-08-13T05:50:10.746Z</time>
      </trkpt>
      <trkpt lat="49.0792" lon="7.04965">
        <ele>176.77</ele>
        <time>2026-08-13T05:50:15.766Z</time>
      </trkpt>
      <trkpt lat="49.0792" lon="7.05008">
        <ele>176.16</ele>
        <time>2026-08-13T05:50:21.739Z</time>
      </trkpt>
      <trkpt lat="49.0792" lon="7.05043">
        <ele>175.06</ele>
        <time>2026-08-13T05:50:26.753Z</time>
      </trkpt>
      <trkpt lat="49.07926" lon="7.05086">
        <ele>177.06</ele>
        <time>2026-08-13T05:50:32.750Z</time>
      </trkpt>
      <trkpt lat="49.0793" lon="7.05123">
        <ele>177.47</ele>
        <time>2026-08-13T05:50:37.780Z</time>
      </trkpt>
      <trkpt lat="49.07941" lon="7.05163">
        <ele>178.13</ele>
        <time>2026-08-13T05:50:43.772Z</time>
      </trkpt>
      <trkpt lat="49.0796" lon="7.05201">
        <ele>179.56</ele>
        <time>2026-08-13T05:50:49.777Z</time>
      </trkpt>
      <trkpt lat="49.07967" lon="7.0522">
        <ele>178.62</ele>
        <time>2026-08-13T05:50:55.749Z</time>
      </trkpt>
      <trkpt lat="49.0796" lon="7.05201">
        <ele>178.75</ele>
        <time>2026-08-13T05:51:00.763Z</time>
      </trkpt>
      <trkpt lat="49.07961" lon="7.05185">
        <ele>177.38</ele>
        <time>2026-08-13T05:51:06.736Z</time>
      </trkpt>
      <trkpt lat="49.07969" lon="7.05202">
        <ele>176.76</ele>
        <time>2026-08-13T05:51:11.749Z</time>
      </trkpt>
      <trkpt lat="49.07977" lon="7.05234">
        <ele>176.55</ele>
        <time>2026-08-13T05:51:17.749Z</time>
      </trkpt>
      <trkpt lat="49.07984" lon="7.05261">
        <ele>177.55</ele>
        <time>2026-08-13T05:51:22.761Z</time>
      </trkpt>
      <trkpt lat="49.07978" lon="7.05275">
        <ele>178.39</ele>
        <time>2026-08-13T05:51:28.743Z</time>
      </trkpt>
      <trkpt lat="49.07968" lon="7.05279">
        <ele>228.02</ele>
        <time>2026-08-13T05:51:33.745Z</time>
      </trkpt>
      <trkpt lat="49.07958" lon="7.05283">
        <ele>228.06</ele>
        <time>2026-08-13T05:51:39.740Z</time>
      </trkpt>
      <trkpt lat="49.07949" lon="7.05288">
        <ele>228.26</ele>
        <time>2026-08-13T05:51:45.741Z</time>
      </trkpt>
      <trkpt lat="49.0794" lon="7.05291">
        <ele>228.26</ele>
        <time>2026-08-13T05:51:51.737Z</time>
      </trkpt>
      <trkpt lat="49.07932" lon="7.053">
        <ele>228.08</ele>
        <time>2026-08-13T05:51:59.743Z</time>
      </trkpt>
      <trkpt lat="49.07923" lon="7.05302">
        <ele>240.16</ele>
        <time>2026-08-13T05:52:10.744Z</time>
      </trkpt>
      <trkpt lat="49.07914" lon="7.05311">
        <ele>237.14</ele>
        <time>2026-08-13T05:52:20.742Z</time>
      </trkpt>
      <trkpt lat="49.07905" lon="7.05311">
        <ele>240.16</ele>
        <time>2026-08-13T05:52:26.754Z</time>
      </trkpt>
      <trkpt lat="49.07897" lon="7.05318">
        <ele>243.76</ele>
        <time>2026-08-13T05:52:34.730Z</time>
      </trkpt>
      <trkpt lat="49.07909" lon="7.05311">
        <ele>243.86</ele>
        <time>2026-08-13T05:52:54.728Z</time>
      </trkpt>
      <trkpt lat="49.07943" lon="7.05295">
        <ele>243.77</ele>
        <time>2026-08-13T05:52:59.745Z</time>
      </trkpt>
      <trkpt lat="49.07974" lon="7.05283">
        <ele>243.76</ele>
        <time>2026-08-13T05:53:04.751Z</time>
      </trkpt>
      <trkpt lat="49.07986" lon="7.05287">
        <ele>228.13</ele>
        <time>2026-08-13T05:53:10.741Z</time>
      </trkpt>
      <trkpt lat="49.07979" lon="7.05277">
        <ele>228.26</ele>
        <time>2026-08-13T05:54:10.743Z</time>
      </trkpt>
      <trkpt lat="49.07967" lon="7.0528">
        <ele>228.26</ele>
        <time>2026-08-13T05:54:15.753Z</time>
      </trkpt>
      <trkpt lat="49.07958" lon="7.05289">
        <ele>228.26</ele>
        <time>2026-08-13T05:54:21.742Z</time>
      </trkpt>
      <trkpt lat="49.07947" lon="7.05294">
        <ele>228.96</ele>
        <time>2026-08-13T05:54:30.745Z</time>
      </trkpt>
      <trkpt lat="49.0794" lon="7.05302">
        <ele>228.96</ele>
        <time>2026-08-13T05:54:39.754Z</time>
      </trkpt>
      <trkpt lat="49.07931" lon="7.05305">
        <ele>240.15</ele>
        <time>2026-08-13T05:54:48.745Z</time>
      </trkpt>
      <trkpt lat="49.07922" lon="7.05309">
        <ele>243.75</ele>
        <time>2026-08-13T05:54:55.801Z</time>
      </trkpt>
      <trkpt lat="49.07912" lon="7.05311">
        <ele>243.76</ele>
        <time>2026-08-13T05:55:06.737Z</time>
      </trkpt>
      <trkpt lat="49.07902" lon="7.05315">
        <ele>240.16</ele>
        <time>2026-08-13T05:55:13.783Z</time>
      </trkpt>
      <trkpt lat="49.07895" lon="7.05322">
        <ele>243.85</ele>
        <time>2026-08-13T05:55:19.781Z</time>
      </trkpt>
      <trkpt lat="49.07886" lon="7.05326">
        <ele>243.76</ele>
        <time>2026-08-13T05:55:29.748Z</time>
      </trkpt>
      <trkpt lat="49.07876" lon="7.0533">
        <ele>243.76</ele>
        <time>2026-08-13T05:55:40.730Z</time>
      </trkpt>
      <trkpt lat="49.07868" lon="7.05335">
        <ele>243.79</ele>
        <time>2026-08-13T05:55:49.777Z</time>
      </trkpt>
      <trkpt lat="49.07858" lon="7.05345">
        <ele>243.76</ele>
        <time>2026-08-13T05:55:55.726Z</time>
      </trkpt>
      <trkpt lat="49.07848" lon="7.05342">
        <ele>243.76</ele>
        <time>2026-08-13T05:56:01.748Z</time>
      </trkpt>
      <trkpt lat="49.07842" lon="7.0533">
        <ele>243.76</ele>
        <time>2026-08-13T05:56:06.756Z</time>
      </trkpt>
      <trkpt lat="49.07849" lon="7.05339">
        <ele>243.56</ele>
        <time>2026-08-13T06:02:34.738Z</time>
      </trkpt>
      <trkpt lat="49.07839" lon="7.05341">
        <ele>243.75</ele>
        <time>2026-08-13T06:02:42.744Z</time>
      </trkpt>
      <trkpt lat="49.07833" lon="7.05314">
        <ele>243.76</ele>
        <time>2026-08-13T06:02:48.749Z</time>
      </trkpt>
      <trkpt lat="49.07832" lon="7.05331">
        <ele>243.56</ele>
        <time>2026-08-13T06:02:57.728Z</time>
      </trkpt>
      <trkpt lat="49.07837" lon="7.05359">
        <ele>243.56</ele>
        <time>2026-08-13T06:03:02.739Z</time>
      </trkpt>
      <trkpt lat="49.07842" lon="7.05385">
        <ele>243.56</ele>
        <time>2026-08-13T06:03:07.767Z</time>
      </trkpt>
      <trkpt lat="49.07845" lon="7.05419">
        <ele>243.86</ele>
        <time>2026-08-13T06:03:13.789Z</time>
      </trkpt>
      <trkpt lat="49.07846" lon="7.05463">
        <ele>243.86</ele>
        <time>2026-08-13T06:03:19.773Z</time>
      </trkpt>
      <trkpt lat="49.07846" lon="7.0551">
        <ele>243.86</ele>
        <time>2026-08-13T06:03:25.874Z</time>
      </trkpt>
      <trkpt lat="49.07845" lon="7.05573">
        <ele>243.86</ele>
        <time>2026-08-13T06:03:31.763Z</time>
      </trkpt>
      <trkpt lat="49.07845" lon="7.0564">
        <ele>243.86</ele>
        <time>2026-08-13T06:03:37.799Z</time>
      </trkpt>
      <trkpt lat="49.07826" lon="7.05708">
        <ele>243.86</ele>
        <time>2026-08-13T06:03:43.805Z</time>
      </trkpt>
      <trkpt lat="49.07778" lon="7.0576">
        <ele>243.86</ele>
        <time>2026-08-13T06:03:49.836Z</time>
      </trkpt>
      <trkpt lat="49.07753" lon="7.0579">
        <ele>243.86</ele>
        <time>2026-08-13T06:03:55.807Z</time>
      </trkpt>
      <trkpt lat="49.07747" lon="7.05777">
        <ele>243.86</ele>
        <time>2026-08-13T06:04:02.739Z</time>
      </trkpt>
      <trkpt lat="49.07743" lon="7.05746">
        <ele>243.86</ele>
        <time>2026-08-13T06:04:07.770Z</time>
      </trkpt>
      <trkpt lat="49.07732" lon="7.05713">
        <ele>243.86</ele>
        <time>2026-08-13T06:04:13.776Z</time>
      </trkpt>
      <trkpt lat="49.07722" lon="7.05673">
        <ele>243.86</ele>
        <time>2026-08-13T06:04:19.778Z</time>
      </trkpt>
      <trkpt lat="49.07716" lon="7.05638">
        <ele>222.94</ele>
        <time>2026-08-13T06:04:25.797Z</time>
      </trkpt>
      <trkpt lat="49.0771" lon="7.05597">
        <ele>222.86</ele>
        <time>2026-08-13T06:04:31.744Z</time>
      </trkpt>
      <trkpt lat="49.07703" lon="7.05556">
        <ele>222.86</ele>
        <time>2026-08-13T06:04:37.774Z</time>
      </trkpt>
      <trkpt lat="49.07696" lon="7.05521">
        <ele>222.76</ele>
        <time>2026-08-13T06:04:43.770Z</time>
      </trkpt>
      <trkpt lat="49.07691" lon="7.05473">
        <ele>222.76</ele>
        <time>2026-08-13T06:04:49.778Z</time>
      </trkpt>
      <trkpt lat="49.07683" lon="7.05428">
        <ele>222.76</ele>
        <time>2026-08-13T06:04:55.805Z</time>
      </trkpt>
      <trkpt lat="49.07676" lon="7.05383">
        <ele>222.76</ele>
        <time>2026-08-13T06:05:01.775Z</time>
      </trkpt>
      <trkpt lat="49.07671" lon="7.05338">
        <ele>222.76</ele>
        <time>2026-08-13T06:05:07.790Z</time>
      </trkpt>
      <trkpt lat="49.07663" lon="7.05291">
        <ele>222.76</ele>
        <time>2026-08-13T06:05:13.790Z</time>
      </trkpt>
      <trkpt lat="49.07655" lon="7.05245">
        <ele>222.76</ele>
        <time>2026-08-13T06:05:19.794Z</time>
      </trkpt>
      <trkpt lat="49.07648" lon="7.05199">
        <ele>222.76</ele>
        <time>2026-08-13T06:05:25.802Z</time>
      </trkpt>
      <trkpt lat="49.07641" lon="7.05152">
        <ele>222.76</ele>
        <time>2026-08-13T06:05:31.749Z</time>
      </trkpt>
      <trkpt lat="49.07635" lon="7.05107">
        <ele>222.77</ele>
        <time>2026-08-13T06:05:37.794Z</time>
      </trkpt>
      <trkpt lat="49.07626" lon="7.05063">
        <ele>222.77</ele>
        <time>2026-08-13T06:05:43.788Z</time>
      </trkpt>
      <trkpt lat="49.07615" lon="7.0502">
        <ele>222.77</ele>
        <time>2026-08-13T06:05:49.785Z</time>
      </trkpt>
      <trkpt lat="49.07602" lon="7.04977">
        <ele>222.77</ele>
        <time>2026-08-13T06:05:55.799Z</time>
      </trkpt>
      <trkpt lat="49.07586" lon="7.04937">
        <ele>222.77</ele>
        <time>2026-08-13T06:06:01.800Z</time>
      </trkpt>
      <trkpt lat="49.07569" lon="7.04898">
        <ele>195.47</ele>
        <time>2026-08-13T06:06:07.788Z</time>
      </trkpt>
      <trkpt lat="49.07551" lon="7.0486">
        <ele>185.94</ele>
        <time>2026-08-13T06:06:13.788Z</time>
      </trkpt>
      <trkpt lat="49.0753" lon="7.04824">
        <ele>185.17</ele>
        <time>2026-08-13T06:06:19.790Z</time>
      </trkpt>
      <trkpt lat="49.07508" lon="7.04792">
        <ele>186.35</ele>
        <time>2026-08-13T06:06:25.773Z</time>
      </trkpt>
      <trkpt lat="49.07488" lon="7.04762">
        <ele>188.17</ele>
        <time>2026-08-13T06:06:31.752Z</time>
      </trkpt>
      <trkpt lat="49.07467" lon="7.04732">
        <ele>188.97</ele>
        <time>2026-08-13T06:06:37.820Z</time>
      </trkpt>
      <trkpt lat="49.07448" lon="7.047">
        <ele>189.89</ele>
        <time>2026-08-13T06:06:43.792Z</time>
      </trkpt>
      <trkpt lat="49.07424" lon="7.04664">
        <ele>188.93</ele>
        <time>2026-08-13T06:06:49.793Z</time>
      </trkpt>
      <trkpt lat="49.07404" lon="7.0463">
        <ele>188.39</ele>
        <time>2026-08-13T06:06:55.774Z</time>
      </trkpt>
      <trkpt lat="49.07386" lon="7.04594">
        <ele>188.21</ele>
        <time>2026-08-13T06:07:01.780Z</time>
      </trkpt>
      <trkpt lat="49.07369" lon="7.04556">
        <ele>187.75</ele>
        <time>2026-08-13T06:07:07.790Z</time>
      </trkpt>
      <trkpt lat="49.07358" lon="7.04524">
        <ele>190.49</ele>
        <time>2026-08-13T06:07:12.802Z</time>
      </trkpt>
      <trkpt lat="49.07344" lon="7.04485">
        <ele>192.91</ele>
        <time>2026-08-13T06:07:18.742Z</time>
      </trkpt>
      <trkpt lat="49.07335" lon="7.04453">
        <ele>194.23</ele>
        <time>2026-08-13T06:07:23.801Z</time>
      </trkpt>
      <trkpt lat="49.07324" lon="7.04407">
        <ele>197.35</ele>
        <time>2026-08-13T06:07:29.744Z</time>
      </trkpt>
      <trkpt lat="49.07313" lon="7.04369">
        <ele>198.58</ele>
        <time>2026-08-13T06:07:34.760Z</time>
      </trkpt>
      <trkpt lat="49.07308" lon="7.04324">
        <ele>199.39</ele>
        <time>2026-08-13T06:07:40.743Z</time>
      </trkpt>
      <trkpt lat="49.07303" lon="7.04285">
        <ele>199.79</ele>
        <time>2026-08-13T06:07:45.745Z</time>
      </trkpt>
      <trkpt lat="49.07299" lon="7.04239">
        <ele>198.35</ele>
        <time>2026-08-13T06:07:51.734Z</time>
      </trkpt>
      <trkpt lat="49.07296" lon="7.04202">
        <ele>196.99</ele>
        <time>2026-08-13T06:07:56.749Z</time>
      </trkpt>
      <trkpt lat="49.07293" lon="7.04166">
        <ele>196.04</ele>
        <time>2026-08-13T06:08:01.764Z</time>
      </trkpt>
      <trkpt lat="49.07288" lon="7.04124">
        <ele>193.87</ele>
        <time>2026-08-13T06:08:07.787Z</time>
      </trkpt>
      <trkpt lat="49.0728" lon="7.04081">
        <ele>193.63</ele>
        <time>2026-08-13T06:08:13.785Z</time>
      </trkpt>
      <trkpt lat="49.07279" lon="7.04059">
        <ele>193.06</ele>
        <time>2026-08-13T06:08:19.779Z</time>
      </trkpt>
      <trkpt lat="49.07276" lon="7.04027">
        <ele>192.36</ele>
        <time>2026-08-13T06:08:25.766Z</time>
      </trkpt>
      <trkpt lat="49.07268" lon="7.03985">
        <ele>193.75</ele>
        <time>2026-08-13T06:08:31.744Z</time>
      </trkpt>
      <trkpt lat="49.07258" lon="7.03951">
        <ele>193.34</ele>
        <time>2026-08-13T06:08:36.759Z</time>
      </trkpt>
      <trkpt lat="49.07248" lon="7.0391">
        <ele>190.86</ele>
        <time>2026-08-13T06:08:42.741Z</time>
      </trkpt>
      <trkpt lat="49.07238" lon="7.03876">
        <ele>189.44</ele>
        <time>2026-08-13T06:08:47.750Z</time>
      </trkpt>
      <trkpt lat="49.07225" lon="7.03833">
        <ele>190.39</ele>
        <time>2026-08-13T06:08:53.750Z</time>
      </trkpt>
      <trkpt lat="49.07214" lon="7.03788">
        <ele>191.49</ele>
        <time>2026-08-13T06:08:59.746Z</time>
      </trkpt>
      <trkpt lat="49.07204" lon="7.03755">
        <ele>194.44</ele>
        <time>2026-08-13T06:09:04.746Z</time>
      </trkpt>
      <trkpt lat="49.07193" lon="7.0371">
        <ele>196</ele>
        <time>2026-08-13T06:09:10.746Z</time>
      </trkpt>
      <trkpt lat="49.07184" lon="7.03675">
        <ele>195.52</ele>
        <time>2026-08-13T06:09:15.749Z</time>
      </trkpt>
      <trkpt lat="49.07175" lon="7.0364">
        <ele>194.33</ele>
        <time>2026-08-13T06:09:20.752Z</time>
      </trkpt>
      <trkpt lat="49.07167" lon="7.03605">
        <ele>193.33</ele>
        <time>2026-08-13T06:09:25.800Z</time>
      </trkpt>
      <trkpt lat="49.07156" lon="7.03562">
        <ele>194.26</ele>
        <time>2026-08-13T06:09:31.807Z</time>
      </trkpt>
      <trkpt lat="49.07144" lon="7.03519">
        <ele>194.64</ele>
        <time>2026-08-13T06:09:37.795Z</time>
      </trkpt>
      <trkpt lat="49.07134" lon="7.03477">
        <ele>193.28</ele>
        <time>2026-08-13T06:09:43.796Z</time>
      </trkpt>
      <trkpt lat="49.07123" lon="7.03434">
        <ele>194.53</ele>
        <time>2026-08-13T06:09:49.799Z</time>
      </trkpt>
      <trkpt lat="49.07114" lon="7.03391">
        <ele>195.09</ele>
        <time>2026-08-13T06:09:55.817Z</time>
      </trkpt>
      <trkpt lat="49.07102" lon="7.03347">
        <ele>197.14</ele>
        <time>2026-08-13T06:10:01.797Z</time>
      </trkpt>
      <trkpt lat="49.07094" lon="7.03308">
        <ele>200.07</ele>
        <time>2026-08-13T06:10:07.791Z</time>
      </trkpt>
      <trkpt lat="49.0708" lon="7.03267">
        <ele>196.89</ele>
        <time>2026-08-13T06:10:13.794Z</time>
      </trkpt>
      <trkpt lat="49.07063" lon="7.03226">
        <ele>195.56</ele>
        <time>2026-08-13T06:10:19.801Z</time>
      </trkpt>
      <trkpt lat="49.07045" lon="7.03188">
        <ele>196.47</ele>
        <time>2026-08-13T06:10:25.812Z</time>
      </trkpt>
      <trkpt lat="49.07025" lon="7.0315">
        <ele>195.8</ele>
        <time>2026-08-13T06:10:31.797Z</time>
      </trkpt>
      <trkpt lat="49.07003" lon="7.03114">
        <ele>197.04</ele>
        <time>2026-08-13T06:10:37.797Z</time>
      </trkpt>
      <trkpt lat="49.06981" lon="7.03079">
        <ele>198.27</ele>
        <time>2026-08-13T06:10:43.794Z</time>
      </trkpt>
      <trkpt lat="49.06957" lon="7.03045">
        <ele>201.14</ele>
        <time>2026-08-13T06:10:49.798Z</time>
      </trkpt>
      <trkpt lat="49.06933" lon="7.03012">
        <ele>202.06</ele>
        <time>2026-08-13T06:10:55.793Z</time>
      </trkpt>
      <trkpt lat="49.06907" lon="7.0298">
        <ele>201.39</ele>
        <time>2026-08-13T06:11:01.799Z</time>
      </trkpt>
      <trkpt lat="49.06883" lon="7.02945">
        <ele>202</ele>
        <time>2026-08-13T06:11:07.811Z</time>
      </trkpt>
      <trkpt lat="49.06857" lon="7.02913">
        <ele>203.19</ele>
        <time>2026-08-13T06:11:13.793Z</time>
      </trkpt>
      <trkpt lat="49.06829" lon="7.02883">
        <ele>202.4</ele>
        <time>2026-08-13T06:11:19.798Z</time>
      </trkpt>
      <trkpt lat="49.06802" lon="7.02852">
        <ele>202.82</ele>
        <time>2026-08-13T06:11:25.814Z</time>
      </trkpt>
      <trkpt lat="49.06776" lon="7.02823">
        <ele>201.13</ele>
        <time>2026-08-13T06:11:31.805Z</time>
      </trkpt>
      <trkpt lat="49.06747" lon="7.02796">
        <ele>199.96</ele>
        <time>2026-08-13T06:11:37.809Z</time>
      </trkpt>
      <trkpt lat="49.0672" lon="7.02771">
        <ele>198.85</ele>
        <time>2026-08-13T06:11:43.796Z</time>
      </trkpt>
      <trkpt lat="49.06688" lon="7.02747">
        <ele>197.49</ele>
        <time>2026-08-13T06:11:49.796Z</time>
      </trkpt>
      <trkpt lat="49.06656" lon="7.02728">
        <ele>197.4</ele>
        <time>2026-08-13T06:11:55.811Z</time>
      </trkpt>
      <trkpt lat="49.06624" lon="7.02712">
        <ele>198.01</ele>
        <time>2026-08-13T06:12:01.810Z</time>
      </trkpt>
      <trkpt lat="49.06588" lon="7.02702">
        <ele>197.72</ele>
        <time>2026-08-13T06:12:07.800Z</time>
      </trkpt>
      <trkpt lat="49.06548" lon="7.02696">
        <ele>196.21</ele>
        <time>2026-08-13T06:12:13.787Z</time>
      </trkpt>
      <trkpt lat="49.06509" lon="7.02691">
        <ele>195.57</ele>
        <time>2026-08-13T06:12:19.791Z</time>
      </trkpt>
      <trkpt lat="49.06471" lon="7.02694">
        <ele>194</ele>
        <time>2026-08-13T06:12:25.815Z</time>
      </trkpt>
      <trkpt lat="49.06432" lon="7.02701">
        <ele>193.02</ele>
        <time>2026-08-13T06:12:31.801Z</time>
      </trkpt>
      <trkpt lat="49.06394" lon="7.02713">
        <ele>192.01</ele>
        <time>2026-08-13T06:12:37.795Z</time>
      </trkpt>
      <trkpt lat="49.06356" lon="7.0273">
        <ele>193.64</ele>
        <time>2026-08-13T06:12:43.795Z</time>
      </trkpt>
      <trkpt lat="49.06318" lon="7.02753">
        <ele>193.31</ele>
        <time>2026-08-13T06:12:49.786Z</time>
      </trkpt>
      <trkpt lat="49.06281" lon="7.02783">
        <ele>192.37</ele>
        <time>2026-08-13T06:12:55.807Z</time>
      </trkpt>
      <trkpt lat="49.06247" lon="7.02818">
        <ele>192.65</ele>
        <time>2026-08-13T06:13:01.802Z</time>
      </trkpt>
      <trkpt lat="49.06214" lon="7.02857">
        <ele>193.54</ele>
        <time>2026-08-13T06:13:07.792Z</time>
      </trkpt>
      <trkpt lat="49.06183" lon="7.02901">
        <ele>194.71</ele>
        <time>2026-08-13T06:13:13.863Z</time>
      </trkpt>
      <trkpt lat="49.06156" lon="7.02947">
        <ele>195.37</ele>
        <time>2026-08-13T06:13:19.788Z</time>
      </trkpt>
      <trkpt lat="49.06131" lon="7.02994">
        <ele>194.07</ele>
        <time>2026-08-13T06:13:25.776Z</time>
      </trkpt>
      <trkpt lat="49.06108" lon="7.03046">
        <ele>191.54</ele>
        <time>2026-08-13T06:13:31.789Z</time>
      </trkpt>
      <trkpt lat="49.06085" lon="7.031">
        <ele>190.35</ele>
        <time>2026-08-13T06:13:37.785Z</time>
      </trkpt>
      <trkpt lat="49.06063" lon="7.03151">
        <ele>191.55</ele>
        <time>2026-08-13T06:13:43.776Z</time>
      </trkpt>
      <trkpt lat="49.06041" lon="7.03196">
        <ele>192.15</ele>
        <time>2026-08-13T06:13:49.789Z</time>
      </trkpt>
      <trkpt lat="49.06029" lon="7.03226">
        <ele>191.52</ele>
        <time>2026-08-13T06:13:55.805Z</time>
      </trkpt>
      <trkpt lat="49.0601" lon="7.03251">
        <ele>190.54</ele>
        <time>2026-08-13T06:14:01.779Z</time>
      </trkpt>
      <trkpt lat="49.05989" lon="7.03281">
        <ele>189.27</ele>
        <time>2026-08-13T06:14:07.787Z</time>
      </trkpt>
      <trkpt lat="49.05968" lon="7.03304">
        <ele>222.98</ele>
        <time>2026-08-13T06:14:13.798Z</time>
      </trkpt>
      <trkpt lat="49.05956" lon="7.03292">
        <ele>234.27</ele>
        <time>2026-08-13T06:14:18.802Z</time>
      </trkpt>
      <trkpt lat="49.05936" lon="7.03284">
        <ele>234.28</ele>
        <time>2026-08-13T06:14:24.731Z</time>
      </trkpt>
      <trkpt lat="49.0592" lon="7.03284">
        <ele>235.59</ele>
        <time>2026-08-13T06:14:29.743Z</time>
      </trkpt>
      <trkpt lat="49.05913" lon="7.0327">
        <ele>235.68</ele>
        <time>2026-08-13T06:14:35.738Z</time>
      </trkpt>
      <trkpt lat="49.05906" lon="7.03257">
        <ele>235.68</ele>
        <time>2026-08-13T06:14:40.744Z</time>
      </trkpt>
      <trkpt lat="49.05899" lon="7.03228">
        <ele>235.78</ele>
        <time>2026-08-13T06:14:46.741Z</time>
      </trkpt>
      <trkpt lat="49.05889" lon="7.032">
        <ele>235.78</ele>
        <time>2026-08-13T06:14:52.749Z</time>
      </trkpt>
      <trkpt lat="49.0588" lon="7.03171">
        <ele>235.78</ele>
        <time>2026-08-13T06:14:58.724Z</time>
      </trkpt>
      <trkpt lat="49.05874" lon="7.03145">
        <ele>239.67</ele>
        <time>2026-08-13T06:15:03.742Z</time>
      </trkpt>
      <trkpt lat="49.05866" lon="7.03117">
        <ele>239.68</ele>
        <time>2026-08-13T06:15:09.726Z</time>
      </trkpt>
      <trkpt lat="49.05859" lon="7.03088">
        <ele>240.67</ele>
        <time>2026-08-13T06:15:15.731Z</time>
      </trkpt>
      <trkpt lat="49.0585" lon="7.03061">
        <ele>240.68</ele>
        <time>2026-08-13T06:15:21.732Z</time>
      </trkpt>
      <trkpt lat="49.05841" lon="7.0303">
        <ele>240.68</ele>
        <time>2026-08-13T06:15:27.724Z</time>
      </trkpt>
      <trkpt lat="49.05834" lon="7.03004">
        <ele>242.18</ele>
        <time>2026-08-13T06:15:33.266Z</time>
      </trkpt>
      <trkpt lat="49.05824" lon="7.02976">
        <ele>242.68</ele>
        <time>2026-08-13T06:15:38.725Z</time>
      </trkpt>
      <trkpt lat="49.05817" lon="7.02948">
        <ele>242.68</ele>
        <time>2026-08-13T06:15:43.796Z</time>
      </trkpt>
      <trkpt lat="49.05808" lon="7.02918">
        <ele>242.68</ele>
        <time>2026-08-13T06:15:49.791Z</time>
      </trkpt>
      <trkpt lat="49.058" lon="7.0289">
        <ele>244.97</ele>
        <time>2026-08-13T06:15:55.824Z</time>
      </trkpt>
      <trkpt lat="49.05794" lon="7.02859">
        <ele>244.98</ele>
        <time>2026-08-13T06:16:01.788Z</time>
      </trkpt>
      <trkpt lat="49.05785" lon="7.02833">
        <ele>248.13</ele>
        <time>2026-08-13T06:16:07.799Z</time>
      </trkpt>
      <trkpt lat="49.05771" lon="7.02796">
        <ele>248.18</ele>
        <time>2026-08-13T06:16:13.793Z</time>
      </trkpt>
      <trkpt lat="49.05733" lon="7.02745">
        <ele>248.18</ele>
        <time>2026-08-13T06:16:19.774Z</time>
      </trkpt>
      <trkpt lat="49.05688" lon="7.0268">
        <ele>248.18</ele>
        <time>2026-08-13T06:16:25.790Z</time>
      </trkpt>
      <trkpt lat="49.05643" lon="7.02617">
        <ele>248.18</ele>
        <time>2026-08-13T06:16:31.808Z</time>
      </trkpt>
      <trkpt lat="49.05605" lon="7.02561">
        <ele>248.18</ele>
        <time>2026-08-13T06:16:37.799Z</time>
      </trkpt>
      <trkpt lat="49.05574" lon="7.02507">
        <ele>248.19</ele>
        <time>2026-08-13T06:16:43.782Z</time>
      </trkpt>
      <trkpt lat="49.05546" lon="7.02458">
        <ele>248.19</ele>
        <time>2026-08-13T06:16:49.790Z</time>
      </trkpt>
      <trkpt lat="49.05519" lon="7.02407">
        <ele>248.19</ele>
        <time>2026-08-13T06:16:55.794Z</time>
      </trkpt>
      <trkpt lat="49.05492" lon="7.0236">
        <ele>248.19</ele>
        <time>2026-08-13T06:17:01.731Z</time>
      </trkpt>
      <trkpt lat="49.05465" lon="7.02313">
        <ele>248.19</ele>
        <time>2026-08-13T06:17:07.780Z</time>
      </trkpt>
      <trkpt lat="49.05434" lon="7.02262">
        <ele>248.19</ele>
        <time>2026-08-13T06:17:13.776Z</time>
      </trkpt>
      <trkpt lat="49.054" lon="7.02206">
        <ele>248.19</ele>
        <time>2026-08-13T06:17:19.786Z</time>
      </trkpt>
      <trkpt lat="49.05361" lon="7.02143">
        <ele>248.19</ele>
        <time>2026-08-13T06:17:25.796Z</time>
      </trkpt>
      <trkpt lat="49.0532" lon="7.02077">
        <ele>248.19</ele>
        <time>2026-08-13T06:17:31.786Z</time>
      </trkpt>
      <trkpt lat="49.05275" lon="7.02007">
        <ele>183.46</ele>
        <time>2026-08-13T06:17:37.776Z</time>
      </trkpt>
      <trkpt lat="49.05232" lon="7.01933">
        <ele>180.45</ele>
        <time>2026-08-13T06:17:43.780Z</time>
      </trkpt>
      <trkpt lat="49.05196" lon="7.01861">
        <ele>177.43</ele>
        <time>2026-08-13T06:17:49.895Z</time>
      </trkpt>
      <trkpt lat="49.05159" lon="7.01801">
        <ele>176.11</ele>
        <time>2026-08-13T06:17:55.788Z</time>
      </trkpt>
      <trkpt lat="49.0512" lon="7.01763">
        <ele>176.72</ele>
        <time>2026-08-13T06:18:01.755Z</time>
      </trkpt>
      <trkpt lat="49.05087" lon="7.01734">
        <ele>180.61</ele>
        <time>2026-08-13T06:18:07.783Z</time>
      </trkpt>
      <trkpt lat="49.05064" lon="7.01713">
        <ele>184.29</ele>
        <time>2026-08-13T06:18:13.792Z</time>
      </trkpt>
      <trkpt lat="49.05047" lon="7.01693">
        <ele>186.09</ele>
        <time>2026-08-13T06:18:19.788Z</time>
      </trkpt>
      <trkpt lat="49.05031" lon="7.01676">
        <ele>187.14</ele>
        <time>2026-08-13T06:18:25.797Z</time>
      </trkpt>
      <trkpt lat="49.05018" lon="7.01659">
        <ele>189.46</ele>
        <time>2026-08-13T06:18:31.794Z</time>
      </trkpt>
      <trkpt lat="49.05005" lon="7.01642">
        <ele>190.33</ele>
        <time>2026-08-13T06:18:37.790Z</time>
      </trkpt>
      <trkpt lat="49.04994" lon="7.01627">
        <ele>191.18</ele>
        <time>2026-08-13T06:18:43.771Z</time>
      </trkpt>
      <trkpt lat="49.0498" lon="7.0161">
        <ele>190.82</ele>
        <time>2026-08-13T06:18:49.774Z</time>
      </trkpt>
      <trkpt lat="49.04968" lon="7.01594">
        <ele>190.96</ele>
        <time>2026-08-13T06:18:55.766Z</time>
      </trkpt>
      <trkpt lat="49.04956" lon="7.01577">
        <ele>192.23</ele>
        <time>2026-08-13T06:19:01.739Z</time>
      </trkpt>
      <trkpt lat="49.04944" lon="7.01564">
        <ele>192.82</ele>
        <time>2026-08-13T06:19:06.750Z</time>
      </trkpt>
      <trkpt lat="49.0493" lon="7.01546">
        <ele>193.69</ele>
        <time>2026-08-13T06:19:12.738Z</time>
      </trkpt>
      <trkpt lat="49.04919" lon="7.01532">
        <ele>194.04</ele>
        <time>2026-08-13T06:19:17.744Z</time>
      </trkpt>
      <trkpt lat="49.04904" lon="7.01515">
        <ele>194.92</ele>
        <time>2026-08-13T06:19:23.737Z</time>
      </trkpt>
      <trkpt lat="49.04889" lon="7.01495">
        <ele>197.5</ele>
        <time>2026-08-13T06:19:29.729Z</time>
      </trkpt>
      <trkpt lat="49.04877" lon="7.0148">
        <ele>198.39</ele>
        <time>2026-08-13T06:19:34.732Z</time>
      </trkpt>
      <trkpt lat="49.04866" lon="7.01464">
        <ele>199.79</ele>
        <time>2026-08-13T06:19:39.741Z</time>
      </trkpt>
      <trkpt lat="49.04851" lon="7.01446">
        <ele>202.55</ele>
        <time>2026-08-13T06:19:45.731Z</time>
      </trkpt>
      <trkpt lat="49.04835" lon="7.01429">
        <ele>204.25</ele>
        <time>2026-08-13T06:19:51.742Z</time>
      </trkpt>
      <trkpt lat="49.0482" lon="7.0141">
        <ele>202.19</ele>
        <time>2026-08-13T06:19:57.723Z</time>
      </trkpt>
      <trkpt lat="49.04808" lon="7.01394">
        <ele>201.58</ele>
        <time>2026-08-13T06:20:02.724Z</time>
      </trkpt>
      <trkpt lat="49.04795" lon="7.01378">
        <ele>201.57</ele>
        <time>2026-08-13T06:20:07.778Z</time>
      </trkpt>
      <trkpt lat="49.0478" lon="7.01361">
        <ele>203.05</ele>
        <time>2026-08-13T06:20:13.791Z</time>
      </trkpt>
      <trkpt lat="49.04772" lon="7.01337">
        <ele>205.62</ele>
        <time>2026-08-13T06:20:19.789Z</time>
      </trkpt>
      <trkpt lat="49.04767" lon="7.01313">
        <ele>204.94</ele>
        <time>2026-08-13T06:20:25.793Z</time>
      </trkpt>
      <trkpt lat="49.04757" lon="7.01292">
        <ele>202.92</ele>
        <time>2026-08-13T06:20:31.767Z</time>
      </trkpt>
      <trkpt lat="49.04744" lon="7.01269">
        <ele>202.91</ele>
        <time>2026-08-13T06:20:37.779Z</time>
      </trkpt>
      <trkpt lat="49.04731" lon="7.01246">
        <ele>202.65</ele>
        <time>2026-08-13T06:20:43.794Z</time>
      </trkpt>
      <trkpt lat="49.04716" lon="7.01224">
        <ele>203.45</ele>
        <time>2026-08-13T06:20:49.792Z</time>
      </trkpt>
      <trkpt lat="49.04704" lon="7.01202">
        <ele>203.84</ele>
        <time>2026-08-13T06:20:55.783Z</time>
      </trkpt>
      <trkpt lat="49.04691" lon="7.01179">
        <ele>203.4</ele>
        <time>2026-08-13T06:21:01.732Z</time>
      </trkpt>
      <trkpt lat="49.0468" lon="7.0116">
        <ele>204.32</ele>
        <time>2026-08-13T06:21:06.738Z</time>
      </trkpt>
      <trkpt lat="49.04666" lon="7.01135">
        <ele>206.6</ele>
        <time>2026-08-13T06:21:12.743Z</time>
      </trkpt>
      <trkpt lat="49.04652" lon="7.01113">
        <ele>208.93</ele>
        <time>2026-08-13T06:21:17.744Z</time>
      </trkpt>
      <trkpt lat="49.04637" lon="7.01084">
        <ele>209.44</ele>
        <time>2026-08-13T06:21:23.729Z</time>
      </trkpt>
      <trkpt lat="49.04623" lon="7.01062">
        <ele>209.73</ele>
        <time>2026-08-13T06:21:28.737Z</time>
      </trkpt>
      <trkpt lat="49.04609" lon="7.01035">
        <ele>209.74</ele>
        <time>2026-08-13T06:21:34.744Z</time>
      </trkpt>
      <trkpt lat="49.04597" lon="7.01012">
        <ele>209.15</ele>
        <time>2026-08-13T06:21:39.746Z</time>
      </trkpt>
      <trkpt lat="49.04581" lon="7.00987">
        <ele>209.61</ele>
        <time>2026-08-13T06:21:45.738Z</time>
      </trkpt>
      <trkpt lat="49.04565" lon="7.00963">
        <ele>211.98</ele>
        <time>2026-08-13T06:21:51.741Z</time>
      </trkpt>
      <trkpt lat="49.04554" lon="7.0094">
        <ele>215.48</ele>
        <time>2026-08-13T06:21:57.738Z</time>
      </trkpt>
      <trkpt lat="49.04539" lon="7.00917">
        <ele>216.78</ele>
        <time>2026-08-13T06:22:03.732Z</time>
      </trkpt>
      <trkpt lat="49.04526" lon="7.00894">
        <ele>214.83</ele>
        <time>2026-08-13T06:22:09.742Z</time>
      </trkpt>
      <trkpt lat="49.04509" lon="7.0087">
        <ele>213.93</ele>
        <time>2026-08-13T06:22:15.746Z</time>
      </trkpt>
      <trkpt lat="49.04497" lon="7.00851">
        <ele>212.17</ele>
        <time>2026-08-13T06:22:21.733Z</time>
      </trkpt>
      <trkpt lat="49.04487" lon="7.00833">
        <ele>213.15</ele>
        <time>2026-08-13T06:22:26.741Z</time>
      </trkpt>
      <trkpt lat="49.04475" lon="7.00814">
        <ele>213.88</ele>
        <time>2026-08-13T06:22:31.792Z</time>
      </trkpt>
      <trkpt lat="49.04461" lon="7.00794">
        <ele>216.79</ele>
        <time>2026-08-13T06:22:37.787Z</time>
      </trkpt>
      <trkpt lat="49.04444" lon="7.00772">
        <ele>216.42</ele>
        <time>2026-08-13T06:22:43.796Z</time>
      </trkpt>
      <trkpt lat="49.04427" lon="7.00754">
        <ele>215.53</ele>
        <time>2026-08-13T06:22:49.790Z</time>
      </trkpt>
      <trkpt lat="49.04412" lon="7.00736">
        <ele>212.01</ele>
        <time>2026-08-13T06:22:55.805Z</time>
      </trkpt>
      <trkpt lat="49.04389" lon="7.00712">
        <ele>207.99</ele>
        <time>2026-08-13T06:23:01.788Z</time>
      </trkpt>
      <trkpt lat="49.04363" lon="7.00689">
        <ele>203.99</ele>
        <time>2026-08-13T06:23:07.782Z</time>
      </trkpt>
      <trkpt lat="49.04336" lon="7.00646">
        <ele>203.03</ele>
        <time>2026-08-13T06:23:13.786Z</time>
      </trkpt>
      <trkpt lat="49.04346" lon="7.00612">
        <ele>205.09</ele>
        <time>2026-08-13T06:23:19.793Z</time>
      </trkpt>
      <trkpt lat="49.04356" lon="7.00593">
        <ele>210.67</ele>
        <time>2026-08-13T06:23:25.795Z</time>
      </trkpt>
      <trkpt lat="49.04371" lon="7.00572">
        <ele>210.86</ele>
        <time>2026-08-13T06:23:31.799Z</time>
      </trkpt>
      <trkpt lat="49.04386" lon="7.00545">
        <ele>214.52</ele>
        <time>2026-08-13T06:23:37.793Z</time>
      </trkpt>
      <trkpt lat="49.04402" lon="7.00516">
        <ele>218.65</ele>
        <time>2026-08-13T06:23:43.796Z</time>
      </trkpt>
      <trkpt lat="49.04416" lon="7.00486">
        <ele>219.61</ele>
        <time>2026-08-13T06:23:49.793Z</time>
      </trkpt>
      <trkpt lat="49.04434" lon="7.00457">
        <ele>219.13</ele>
        <time>2026-08-13T06:23:55.807Z</time>
      </trkpt>
      <trkpt lat="49.04452" lon="7.0042">
        <ele>219.13</ele>
        <time>2026-08-13T06:24:01.800Z</time>
      </trkpt>
      <trkpt lat="49.0447" lon="7.00382">
        <ele>220.48</ele>
        <time>2026-08-13T06:24:07.796Z</time>
      </trkpt>
      <trkpt lat="49.04492" lon="7.00331">
        <ele>218.14</ele>
        <time>2026-08-13T06:24:13.795Z</time>
      </trkpt>
      <trkpt lat="49.04514" lon="7.00283">
        <ele>214.03</ele>
        <time>2026-08-13T06:24:19.797Z</time>
      </trkpt>
      <trkpt lat="49.04532" lon="7.00245">
        <ele>216.14</ele>
        <time>2026-08-13T06:24:25.801Z</time>
      </trkpt>
      <trkpt lat="49.04547" lon="7.00211">
        <ele>219.47</ele>
        <time>2026-08-13T06:24:31.800Z</time>
      </trkpt>
      <trkpt lat="49.04561" lon="7.00174">
        <ele>219.27</ele>
        <time>2026-08-13T06:24:37.799Z</time>
      </trkpt>
      <trkpt lat="49.04577" lon="7.00135">
        <ele>220.08</ele>
        <time>2026-08-13T06:24:43.797Z</time>
      </trkpt>
      <trkpt lat="49.04591" lon="7.00093">
        <ele>219.5</ele>
        <time>2026-08-13T06:24:49.794Z</time>
      </trkpt>
      <trkpt lat="49.04605" lon="7.00045">
        <ele>217.88</ele>
        <time>2026-08-13T06:24:55.807Z</time>
      </trkpt>
      <trkpt lat="49.04619" lon="6.99999">
        <ele>213.86</ele>
        <time>2026-08-13T06:25:01.804Z</time>
      </trkpt>
      <trkpt lat="49.0463" lon="6.99947">
        <ele>214.01</ele>
        <time>2026-08-13T06:25:07.801Z</time>
      </trkpt>
      <trkpt lat="49.04642" lon="6.99888">
        <ele>217.05</ele>
        <time>2026-08-13T06:25:13.794Z</time>
      </trkpt>
      <trkpt lat="49.04643" lon="6.99836">
        <ele>217.5</ele>
        <time>2026-08-13T06:25:19.798Z</time>
      </trkpt>
      <trkpt lat="49.0463" lon="6.99776">
        <ele>217.91</ele>
        <time>2026-08-13T06:25:25.810Z</time>
      </trkpt>
      <trkpt lat="49.04636" lon="6.99733">
        <ele>219.65</ele>
        <time>2026-08-13T06:25:31.801Z</time>
      </trkpt>
      <trkpt lat="49.04644" lon="6.99686">
        <ele>221.19</ele>
        <time>2026-08-13T06:25:37.799Z</time>
      </trkpt>
      <trkpt lat="49.0465" lon="6.99641">
        <ele>220.23</ele>
        <time>2026-08-13T06:25:43.796Z</time>
      </trkpt>
      <trkpt lat="49.04653" lon="6.99591">
        <ele>218.96</ele>
        <time>2026-08-13T06:25:49.795Z</time>
      </trkpt>
      <trkpt lat="49.0466" lon="6.99536">
        <ele>218.88</ele>
        <time>2026-08-13T06:25:55.781Z</time>
      </trkpt>
      <trkpt lat="49.0467" lon="6.99485">
        <ele>220.6</ele>
        <time>2026-08-13T06:26:01.798Z</time>
      </trkpt>
      <trkpt lat="49.04687" lon="6.99446">
        <ele>222.51</ele>
        <time>2026-08-13T06:26:07.792Z</time>
      </trkpt>
      <trkpt lat="49.04704" lon="6.99415">
        <ele>220.87</ele>
        <time>2026-08-13T06:26:13.793Z</time>
      </trkpt>
      <trkpt lat="49.04715" lon="6.99376">
        <ele>221.22</ele>
        <time>2026-08-13T06:26:19.795Z</time>
      </trkpt>
      <trkpt lat="49.04722" lon="6.99334">
        <ele>220.97</ele>
        <time>2026-08-13T06:26:25.807Z</time>
      </trkpt>
      <trkpt lat="49.04726" lon="6.99292">
        <ele>221</ele>
        <time>2026-08-13T06:26:31.804Z</time>
      </trkpt>
      <trkpt lat="49.04732" lon="6.9925">
        <ele>221.46</ele>
        <time>2026-08-13T06:26:37.793Z</time>
      </trkpt>
      <trkpt lat="49.04736" lon="6.99212">
        <ele>221.39</ele>
        <time>2026-08-13T06:26:43.791Z</time>
      </trkpt>
      <trkpt lat="49.04741" lon="6.99173">
        <ele>221.06</ele>
        <time>2026-08-13T06:26:49.792Z</time>
      </trkpt>
      <trkpt lat="49.04743" lon="6.99136">
        <ele>221.61</ele>
        <time>2026-08-13T06:26:55.807Z</time>
      </trkpt>
      <trkpt lat="49.04745" lon="6.99087">
        <ele>222.35</ele>
        <time>2026-08-13T06:27:01.805Z</time>
      </trkpt>
      <trkpt lat="49.0475" lon="6.9905">
        <ele>222.04</ele>
        <time>2026-08-13T06:27:07.795Z</time>
      </trkpt>
      <trkpt lat="49.04742" lon="6.99004">
        <ele>223.15</ele>
        <time>2026-08-13T06:27:13.795Z</time>
      </trkpt>
      <trkpt lat="49.04733" lon="6.98959">
        <ele>224.41</ele>
        <time>2026-08-13T06:27:19.802Z</time>
      </trkpt>
      <trkpt lat="49.04724" lon="6.98909">
        <ele>224.28</ele>
        <time>2026-08-13T06:27:25.807Z</time>
      </trkpt>
      <trkpt lat="49.04714" lon="6.98856">
        <ele>222.81</ele>
        <time>2026-08-13T06:27:31.804Z</time>
      </trkpt>
      <trkpt lat="49.04704" lon="6.98804">
        <ele>222.55</ele>
        <time>2026-08-13T06:27:37.792Z</time>
      </trkpt>
      <trkpt lat="49.04692" lon="6.98746">
        <ele>222.9</ele>
        <time>2026-08-13T06:27:43.795Z</time>
      </trkpt>
      <trkpt lat="49.04687" lon="6.98691">
        <ele>222.26</ele>
        <time>2026-08-13T06:27:48.807Z</time>
      </trkpt>
      <trkpt lat="49.04682" lon="6.98622">
        <ele>221.41</ele>
        <time>2026-08-13T06:27:54.731Z</time>
      </trkpt>
      <trkpt lat="49.04672" lon="6.98563">
        <ele>218.1</ele>
        <time>2026-08-13T06:27:59.749Z</time>
      </trkpt>
      <trkpt lat="49.04663" lon="6.9849">
        <ele>214.73</ele>
        <time>2026-08-13T06:28:05.872Z</time>
      </trkpt>
      <trkpt lat="49.04651" lon="6.9841">
        <ele>212.28</ele>
        <time>2026-08-13T06:28:11.749Z</time>
      </trkpt>
      <trkpt lat="49.04639" lon="6.9833">
        <ele>209.57</ele>
        <time>2026-08-13T06:28:17.731Z</time>
      </trkpt>
      <trkpt lat="49.04619" lon="6.98264">
        <ele>208.95</ele>
        <time>2026-08-13T06:28:22.740Z</time>
      </trkpt>
      <trkpt lat="49.04591" lon="6.98187">
        <ele>207.18</ele>
        <time>2026-08-13T06:28:28.734Z</time>
      </trkpt>
      <trkpt lat="49.04567" lon="6.98121">
        <ele>205.93</ele>
        <time>2026-08-13T06:28:33.740Z</time>
      </trkpt>
      <trkpt lat="49.04542" lon="6.98062">
        <ele>205.04</ele>
        <time>2026-08-13T06:28:38.743Z</time>
      </trkpt>
      <trkpt lat="49.04514" lon="6.98012">
        <ele>205.26</ele>
        <time>2026-08-13T06:28:43.775Z</time>
      </trkpt>
      <trkpt lat="49.04486" lon="6.97954">
        <ele>204.65</ele>
        <time>2026-08-13T06:28:49.777Z</time>
      </trkpt>
      <trkpt lat="49.04459" lon="6.979">
        <ele>204.08</ele>
        <time>2026-08-13T06:28:55.801Z</time>
      </trkpt>
      <trkpt lat="49.04437" lon="6.97853">
        <ele>204.77</ele>
        <time>2026-08-13T06:29:01.791Z</time>
      </trkpt>
      <trkpt lat="49.04415" lon="6.97803">
        <ele>205.19</ele>
        <time>2026-08-13T06:29:07.786Z</time>
      </trkpt>
      <trkpt lat="49.04393" lon="6.97753">
        <ele>204.11</ele>
        <time>2026-08-13T06:29:13.789Z</time>
      </trkpt>
      <trkpt lat="49.04371" lon="6.97701">
        <ele>202.65</ele>
        <time>2026-08-13T06:29:19.793Z</time>
      </trkpt>
      <trkpt lat="49.04341" lon="6.9763">
        <ele>200.48</ele>
        <time>2026-08-13T06:29:25.790Z</time>
      </trkpt>
      <trkpt lat="49.04306" lon="6.97549">
        <ele>197.35</ele>
        <time>2026-08-13T06:29:31.796Z</time>
      </trkpt>
      <trkpt lat="49.04273" lon="6.97465">
        <ele>195.23</ele>
        <time>2026-08-13T06:29:37.788Z</time>
      </trkpt>
      <trkpt lat="49.04243" lon="6.9738">
        <ele>193.56</ele>
        <time>2026-08-13T06:29:43.792Z</time>
      </trkpt>
      <trkpt lat="49.04246" lon="6.97288">
        <ele>191.98</ele>
        <time>2026-08-13T06:29:49.791Z</time>
      </trkpt>
      <trkpt lat="49.04241" lon="6.97212">
        <ele>190.51</ele>
        <time>2026-08-13T06:29:55.793Z</time>
      </trkpt>
      <trkpt lat="49.04225" lon="6.97167">
        <ele>190.64</ele>
        <time>2026-08-13T06:30:01.793Z</time>
      </trkpt>
      <trkpt lat="49.0421" lon="6.97125">
        <ele>191.46</ele>
        <time>2026-08-13T06:30:07.786Z</time>
      </trkpt>
      <trkpt lat="49.042" lon="6.97098">
        <ele>194.18</ele>
        <time>2026-08-13T06:30:13.778Z</time>
      </trkpt>
      <trkpt lat="49.04194" lon="6.97074">
        <ele>195.59</ele>
        <time>2026-08-13T06:30:19.812Z</time>
      </trkpt>
      <trkpt lat="49.04184" lon="6.97047">
        <ele>195.64</ele>
        <time>2026-08-13T06:30:25.807Z</time>
      </trkpt>
      <trkpt lat="49.04176" lon="6.97023">
        <ele>228.5</ele>
        <time>2026-08-13T06:30:31.809Z</time>
      </trkpt>
      <trkpt lat="49.04166" lon="6.96999">
        <ele>239.44</ele>
        <time>2026-08-13T06:30:37.789Z</time>
      </trkpt>
      <trkpt lat="49.04159" lon="6.96977">
        <ele>239.45</ele>
        <time>2026-08-13T06:30:43.788Z</time>
      </trkpt>
      <trkpt lat="49.04166" lon="6.96951">
        <ele>239.45</ele>
        <time>2026-08-13T06:30:49.795Z</time>
      </trkpt>
      <trkpt lat="49.04174" lon="6.96929">
        <ele>239.45</ele>
        <time>2026-08-13T06:30:55.415Z</time>
      </trkpt>
      <trkpt lat="49.04182" lon="6.96905">
        <ele>239.45</ele>
        <time>2026-08-13T06:31:00.743Z</time>
      </trkpt>
      <trkpt lat="49.04192" lon="6.96877">
        <ele>239.45</ele>
        <time>2026-08-13T06:31:06.742Z</time>
      </trkpt>
      <trkpt lat="49.04201" lon="6.96849">
        <ele>239.45</ele>
        <time>2026-08-13T06:31:12.741Z</time>
      </trkpt>
      <trkpt lat="49.04201" lon="6.96829">
        <ele>242.92</ele>
        <time>2026-08-13T06:31:17.753Z</time>
      </trkpt>
      <trkpt lat="49.04194" lon="6.96811">
        <ele>243.15</ele>
        <time>2026-08-13T06:31:23.743Z</time>
      </trkpt>
      <trkpt lat="49.04187" lon="6.96791">
        <ele>243.15</ele>
        <time>2026-08-13T06:31:29.745Z</time>
      </trkpt>
      <trkpt lat="49.0418" lon="6.96773">
        <ele>243.15</ele>
        <time>2026-08-13T06:31:35.731Z</time>
      </trkpt>
      <trkpt lat="49.04177" lon="6.96756">
        <ele>246.35</ele>
        <time>2026-08-13T06:31:40.741Z</time>
      </trkpt>
      <trkpt lat="49.04169" lon="6.96738">
        <ele>246.35</ele>
        <time>2026-08-13T06:31:46.743Z</time>
      </trkpt>
      <trkpt lat="49.04163" lon="6.96719">
        <ele>246.35</ele>
        <time>2026-08-13T06:31:52.727Z</time>
      </trkpt>
      <trkpt lat="49.04158" lon="6.96703">
        <ele>246.45</ele>
        <time>2026-08-13T06:31:57.745Z</time>
      </trkpt>
      <trkpt lat="49.04151" lon="6.96683">
        <ele>246.45</ele>
        <time>2026-08-13T06:32:03.746Z</time>
      </trkpt>
      <trkpt lat="49.04144" lon="6.96659">
        <ele>246.45</ele>
        <time>2026-08-13T06:32:09.740Z</time>
      </trkpt>
      <trkpt lat="49.04138" lon="6.96632">
        <ele>246.45</ele>
        <time>2026-08-13T06:32:14.743Z</time>
      </trkpt>
      <trkpt lat="49.04132" lon="6.96604">
        <ele>246.45</ele>
        <time>2026-08-13T06:32:19.789Z</time>
      </trkpt>
      <trkpt lat="49.04118" lon="6.96573">
        <ele>246.45</ele>
        <time>2026-08-13T06:32:25.798Z</time>
      </trkpt>
      <trkpt lat="49.041" lon="6.96533">
        <ele>246.45</ele>
        <time>2026-08-13T06:32:31.804Z</time>
      </trkpt>
      <trkpt lat="49.04077" lon="6.96486">
        <ele>246.45</ele>
        <time>2026-08-13T06:32:37.791Z</time>
      </trkpt>
      <trkpt lat="49.04052" lon="6.96438">
        <ele>246.46</ele>
        <time>2026-08-13T06:32:43.795Z</time>
      </trkpt>
      <trkpt lat="49.04027" lon="6.964">
        <ele>246.46</ele>
        <time>2026-08-13T06:32:48.796Z</time>
      </trkpt>
      <trkpt lat="49.03998" lon="6.96338">
        <ele>246.46</ele>
        <time>2026-08-13T06:32:54.762Z</time>
      </trkpt>
      <trkpt lat="49.03969" lon="6.96277">
        <ele>246.46</ele>
        <time>2026-08-13T06:33:00.750Z</time>
      </trkpt>
      <trkpt lat="49.03958" lon="6.96245">
        <ele>246.46</ele>
        <time>2026-08-13T06:33:06.742Z</time>
      </trkpt>
      <trkpt lat="49.03974" lon="6.96231">
        <ele>246.46</ele>
        <time>2026-08-13T06:33:11.746Z</time>
      </trkpt>
      <trkpt lat="49.0399" lon="6.96214">
        <ele>246.46</ele>
        <time>2026-08-13T06:33:17.745Z</time>
      </trkpt>
      <trkpt lat="49.04002" lon="6.96199">
        <ele>246.46</ele>
        <time>2026-08-13T06:33:23.750Z</time>
      </trkpt>
      <trkpt lat="49.04012" lon="6.96184">
        <ele>190.69</ele>
        <time>2026-08-13T06:33:28.751Z</time>
      </trkpt>
      <trkpt lat="49.04025" lon="6.96168">
        <ele>191.93</ele>
        <time>2026-08-13T06:33:34.742Z</time>
      </trkpt>
      <trkpt lat="49.04034" lon="6.96158">
        <ele>193.04</ele>
        <time>2026-08-13T06:33:39.746Z</time>
      </trkpt>
      <trkpt lat="49.04043" lon="6.96145">
        <ele>193.68</ele>
        <time>2026-08-13T06:33:45.732Z</time>
      </trkpt>
      <trkpt lat="49.04053" lon="6.96126">
        <ele>194.63</ele>
        <time>2026-08-13T06:33:51.747Z</time>
      </trkpt>
      <trkpt lat="49.0406" lon="6.96114">
        <ele>195.49</ele>
        <time>2026-08-13T06:33:56.747Z</time>
      </trkpt>
      <trkpt lat="49.04067" lon="6.96101">
        <ele>194.61</ele>
        <time>2026-08-13T06:34:01.793Z</time>
      </trkpt>
      <trkpt lat="49.04081" lon="6.96076">
        <ele>192.06</ele>
        <time>2026-08-13T06:34:07.782Z</time>
      </trkpt>
      <trkpt lat="49.04104" lon="6.96057">
        <ele>190.86</ele>
        <time>2026-08-13T06:34:13.793Z</time>
      </trkpt>
      <trkpt lat="49.04103" lon="6.96034">
        <ele>189.11</ele>
        <time>2026-08-13T06:34:19.801Z</time>
      </trkpt>
      <trkpt lat="49.04091" lon="6.96009">
        <ele>230.46</ele>
        <time>2026-08-13T06:34:25.462Z</time>
      </trkpt>
      <trkpt lat="49.04077" lon="6.95979">
        <ele>244.35</ele>
        <time>2026-08-13T06:34:30.728Z</time>
      </trkpt>
      <trkpt lat="49.04064" lon="6.9595">
        <ele>244.36</ele>
        <time>2026-08-13T06:34:35.744Z</time>
      </trkpt>
      <trkpt lat="49.04047" lon="6.95919">
        <ele>244.36</ele>
        <time>2026-08-13T06:34:40.745Z</time>
      </trkpt>
      <trkpt lat="49.04025" lon="6.95876">
        <ele>244.36</ele>
        <time>2026-08-13T06:34:46.744Z</time>
      </trkpt>
      <trkpt lat="49.04006" lon="6.95836">
        <ele>244.36</ele>
        <time>2026-08-13T06:34:51.745Z</time>
      </trkpt>
      <trkpt lat="49.03983" lon="6.95785">
        <ele>244.36</ele>
        <time>2026-08-13T06:34:57.745Z</time>
      </trkpt>
      <trkpt lat="49.03962" lon="6.95741">
        <ele>244.37</ele>
        <time>2026-08-13T06:35:02.747Z</time>
      </trkpt>
      <trkpt lat="49.03941" lon="6.95695">
        <ele>244.37</ele>
        <time>2026-08-13T06:35:07.799Z</time>
      </trkpt>
      <trkpt lat="49.03915" lon="6.95642">
        <ele>244.37</ele>
        <time>2026-08-13T06:35:13.799Z</time>
      </trkpt>
      <trkpt lat="49.03891" lon="6.95593">
        <ele>244.37</ele>
        <time>2026-08-13T06:35:19.800Z</time>
      </trkpt>
      <trkpt lat="49.0387" lon="6.95547">
        <ele>244.37</ele>
        <time>2026-08-13T06:35:25.803Z</time>
      </trkpt>
      <trkpt lat="49.03849" lon="6.95504">
        <ele>244.37</ele>
        <time>2026-08-13T06:35:31.804Z</time>
      </trkpt>
      <trkpt lat="49.03829" lon="6.95461">
        <ele>244.37</ele>
        <time>2026-08-13T06:35:37.802Z</time>
      </trkpt>
      <trkpt lat="49.03808" lon="6.9542">
        <ele>244.37</ele>
        <time>2026-08-13T06:35:43.798Z</time>
      </trkpt>
      <trkpt lat="49.03789" lon="6.95379">
        <ele>244.37</ele>
        <time>2026-08-13T06:35:49.802Z</time>
      </trkpt>
      <trkpt lat="49.03771" lon="6.95341">
        <ele>196.86</ele>
        <time>2026-08-13T06:35:55.793Z</time>
      </trkpt>
      <trkpt lat="49.03753" lon="6.95307">
        <ele>194.3</ele>
        <time>2026-08-13T06:36:01.804Z</time>
      </trkpt>
      <trkpt lat="49.03736" lon="6.95274">
        <ele>195.42</ele>
        <time>2026-08-13T06:36:07.800Z</time>
      </trkpt>
      <trkpt lat="49.03721" lon="6.95237">
        <ele>194.91</ele>
        <time>2026-08-13T06:36:13.792Z</time>
      </trkpt>
      <trkpt lat="49.03701" lon="6.95193">
        <ele>193.49</ele>
        <time>2026-08-13T06:36:19.801Z</time>
      </trkpt>
      <trkpt lat="49.03681" lon="6.95151">
        <ele>192.39</ele>
        <time>2026-08-13T06:36:24.818Z</time>
      </trkpt>
      <trkpt lat="49.03654" lon="6.95094">
        <ele>191.98</ele>
        <time>2026-08-13T06:36:30.735Z</time>
      </trkpt>
      <trkpt lat="49.0364" lon="6.95038">
        <ele>187.91</ele>
        <time>2026-08-13T06:36:35.906Z</time>
      </trkpt>
      <trkpt lat="49.0361" lon="6.94988">
        <ele>185.21</ele>
        <time>2026-08-13T06:36:41.776Z</time>
      </trkpt>
      <trkpt lat="49.03589" lon="6.94913">
        <ele>181.96</ele>
        <time>2026-08-13T06:36:47.738Z</time>
      </trkpt>
      <trkpt lat="49.03565" lon="6.94844">
        <ele>179.57</ele>
        <time>2026-08-13T06:36:52.740Z</time>
      </trkpt>
      <trkpt lat="49.0354" lon="6.94758">
        <ele>178.88</ele>
        <time>2026-08-13T06:36:58.734Z</time>
      </trkpt>
      <trkpt lat="49.03522" lon="6.94671">
        <ele>178.33</ele>
        <time>2026-08-13T06:37:04.733Z</time>
      </trkpt>
      <trkpt lat="49.0351" lon="6.94606">
        <ele>179.41</ele>
        <time>2026-08-13T06:37:09.744Z</time>
      </trkpt>
      <trkpt lat="49.03487" lon="6.94544">
        <ele>177.92</ele>
        <time>2026-08-13T06:37:15.738Z</time>
      </trkpt>
      <trkpt lat="49.03484" lon="6.94485">
        <ele>178.73</ele>
        <time>2026-08-13T06:37:20.749Z</time>
      </trkpt>
      <trkpt lat="49.03495" lon="6.94429">
        <ele>179.91</ele>
        <time>2026-08-13T06:37:25.812Z</time>
      </trkpt>
      <trkpt lat="49.03507" lon="6.94369">
        <ele>180.97</ele>
        <time>2026-08-13T06:37:31.806Z</time>
      </trkpt>
      <trkpt lat="49.03517" lon="6.94314">
        <ele>180.05</ele>
        <time>2026-08-13T06:37:37.795Z</time>
      </trkpt>
      <trkpt lat="49.03528" lon="6.94263">
        <ele>180.37</ele>
        <time>2026-08-13T06:37:43.781Z</time>
      </trkpt>
      <trkpt lat="49.03538" lon="6.94211">
        <ele>180.82</ele>
        <time>2026-08-13T06:37:49.793Z</time>
      </trkpt>
      <trkpt lat="49.03549" lon="6.94157">
        <ele>181.09</ele>
        <time>2026-08-13T06:37:55.803Z</time>
      </trkpt>
      <trkpt lat="49.03559" lon="6.94103">
        <ele>182.73</ele>
        <time>2026-08-13T06:38:01.788Z</time>
      </trkpt>
      <trkpt lat="49.03568" lon="6.94056">
        <ele>182</ele>
        <time>2026-08-13T06:38:07.790Z</time>
      </trkpt>
      <trkpt lat="49.03576" lon="6.94013">
        <ele>182.86</ele>
        <time>2026-08-13T06:38:13.786Z</time>
      </trkpt>
      <trkpt lat="49.03584" lon="6.9397">
        <ele>184.28</ele>
        <time>2026-08-13T06:38:19.796Z</time>
      </trkpt>
      <trkpt lat="49.03591" lon="6.93927">
        <ele>185.65</ele>
        <time>2026-08-13T06:38:25.774Z</time>
      </trkpt>
      <trkpt lat="49.03598" lon="6.93884">
        <ele>185.84</ele>
        <time>2026-08-13T06:38:31.794Z</time>
      </trkpt>
      <trkpt lat="49.03606" lon="6.93847">
        <ele>184.54</ele>
        <time>2026-08-13T06:38:37.782Z</time>
      </trkpt>
      <trkpt lat="49.03611" lon="6.93805">
        <ele>185.41</ele>
        <time>2026-08-13T06:38:43.810Z</time>
      </trkpt>
      <trkpt lat="49.03586" lon="6.93789">
        <ele>187.98</ele>
        <time>2026-08-13T06:38:49.784Z</time>
      </trkpt>
      <trkpt lat="49.03558" lon="6.93786">
        <ele>183.3</ele>
        <time>2026-08-13T06:38:55.799Z</time>
      </trkpt>
      <trkpt lat="49.0353" lon="6.93787">
        <ele>181.1</ele>
        <time>2026-08-13T06:39:01.802Z</time>
      </trkpt>
      <trkpt lat="49.035" lon="6.93803">
        <ele>183.29</ele>
        <time>2026-08-13T06:39:07.797Z</time>
      </trkpt>
      <trkpt lat="49.03471" lon="6.93814">
        <ele>183.65</ele>
        <time>2026-08-13T06:39:13.798Z</time>
      </trkpt>
      <trkpt lat="49.03436" lon="6.93824">
        <ele>181.08</ele>
        <time>2026-08-13T06:39:19.798Z</time>
      </trkpt>
      <trkpt lat="49.03397" lon="6.93844">
        <ele>178.69</ele>
        <time>2026-08-13T06:39:25.805Z</time>
      </trkpt>
      <trkpt lat="49.0335" lon="6.93868">
        <ele>177.56</ele>
        <time>2026-08-13T06:39:31.804Z</time>
      </trkpt>
      <trkpt lat="49.03307" lon="6.93893">
        <ele>175.72</ele>
        <time>2026-08-13T06:39:37.798Z</time>
      </trkpt>
      <trkpt lat="49.03267" lon="6.93915">
        <ele>176.62</ele>
        <time>2026-08-13T06:39:43.799Z</time>
      </trkpt>
      <trkpt lat="49.0323" lon="6.93934">
        <ele>178.11</ele>
        <time>2026-08-13T06:39:49.797Z</time>
      </trkpt>
      <trkpt lat="49.03196" lon="6.9395">
        <ele>179.58</ele>
        <time>2026-08-13T06:39:55.805Z</time>
      </trkpt>
      <trkpt lat="49.0316" lon="6.93951">
        <ele>180.91</ele>
        <time>2026-08-13T06:40:01.802Z</time>
      </trkpt>
      <trkpt lat="49.03139" lon="6.93906">
        <ele>181.76</ele>
        <time>2026-08-13T06:40:07.794Z</time>
      </trkpt>
      <trkpt lat="49.03125" lon="6.93867">
        <ele>185.59</ele>
        <time>2026-08-13T06:40:13.800Z</time>
      </trkpt>
      <trkpt lat="49.03117" lon="6.93837">
        <ele>186.96</ele>
        <time>2026-08-13T06:40:19.794Z</time>
      </trkpt>
      <trkpt lat="49.03109" lon="6.93813">
        <ele>188.19</ele>
        <time>2026-08-13T06:40:25.805Z</time>
      </trkpt>
      <trkpt lat="49.03099" lon="6.9379">
        <ele>189.1</ele>
        <time>2026-08-13T06:40:31.804Z</time>
      </trkpt>
      <trkpt lat="49.03092" lon="6.93767">
        <ele>189.48</ele>
        <time>2026-08-13T06:40:37.797Z</time>
      </trkpt>
      <trkpt lat="49.03085" lon="6.93747">
        <ele>190.78</ele>
        <time>2026-08-13T06:40:43.800Z</time>
      </trkpt>
      <trkpt lat="49.03078" lon="6.93727">
        <ele>192.88</ele>
        <time>2026-08-13T06:40:49.799Z</time>
      </trkpt>
      <trkpt lat="49.03071" lon="6.93709">
        <ele>193.45</ele>
        <time>2026-08-13T06:40:55.803Z</time>
      </trkpt>
      <trkpt lat="49.03067" lon="6.93691">
        <ele>194.25</ele>
        <time>2026-08-13T06:41:01.805Z</time>
      </trkpt>
      <trkpt lat="49.03061" lon="6.93674">
        <ele>194.86</ele>
        <time>2026-08-13T06:41:07.799Z</time>
      </trkpt>
      <trkpt lat="49.03055" lon="6.93656">
        <ele>195.38</ele>
        <time>2026-08-13T06:41:13.795Z</time>
      </trkpt>
      <trkpt lat="49.0305" lon="6.93641">
        <ele>195.28</ele>
        <time>2026-08-13T06:41:19.798Z</time>
      </trkpt>
      <trkpt lat="49.03045" lon="6.93624">
        <ele>194.86</ele>
        <time>2026-08-13T06:41:25.801Z</time>
      </trkpt>
      <trkpt lat="49.03039" lon="6.93609">
        <ele>196.47</ele>
        <time>2026-08-13T06:41:31.802Z</time>
      </trkpt>
      <trkpt lat="49.03033" lon="6.93593">
        <ele>196.22</ele>
        <time>2026-08-13T06:41:37.802Z</time>
      </trkpt>
      <trkpt lat="49.03027" lon="6.93574">
        <ele>196.41</ele>
        <time>2026-08-13T06:41:43.794Z</time>
      </trkpt>
      <trkpt lat="49.03021" lon="6.93556">
        <ele>197.37</ele>
        <time>2026-08-13T06:41:49.801Z</time>
      </trkpt>
      <trkpt lat="49.03011" lon="6.93541">
        <ele>198.72</ele>
        <time>2026-08-13T06:41:55.804Z</time>
      </trkpt>
      <trkpt lat="49.03007" lon="6.93522">
        <ele>199.15</ele>
        <time>2026-08-13T06:42:01.804Z</time>
      </trkpt>
      <trkpt lat="49.02995" lon="6.9351">
        <ele>200.44</ele>
        <time>2026-08-13T06:42:07.790Z</time>
      </trkpt>
      <trkpt lat="49.0298" lon="6.93503">
        <ele>242.76</ele>
        <time>2026-08-13T06:42:13.800Z</time>
      </trkpt>
      <trkpt lat="49.02964" lon="6.93496">
        <ele>242.8</ele>
        <time>2026-08-13T06:42:19.782Z</time>
      </trkpt>
      <trkpt lat="49.02947" lon="6.93491">
        <ele>242.8</ele>
        <time>2026-08-13T06:42:25.806Z</time>
      </trkpt>
      <trkpt lat="49.02929" lon="6.93487">
        <ele>242.8</ele>
        <time>2026-08-13T06:42:31.805Z</time>
      </trkpt>
      <trkpt lat="49.02911" lon="6.93483">
        <ele>242.8</ele>
        <time>2026-08-13T06:42:37.800Z</time>
      </trkpt>
      <trkpt lat="49.0289" lon="6.93479">
        <ele>245.16</ele>
        <time>2026-08-13T06:42:43.800Z</time>
      </trkpt>
      <trkpt lat="49.02874" lon="6.93465">
        <ele>245.2</ele>
        <time>2026-08-13T06:42:49.799Z</time>
      </trkpt>
      <trkpt lat="49.02847" lon="6.93445">
        <ele>245.2</ele>
        <time>2026-08-13T06:42:55.805Z</time>
      </trkpt>
      <trkpt lat="49.02814" lon="6.9342">
        <ele>245.2</ele>
        <time>2026-08-13T06:43:01.808Z</time>
      </trkpt>
      <trkpt lat="49.0278" lon="6.93394">
        <ele>245.2</ele>
        <time>2026-08-13T06:43:07.795Z</time>
      </trkpt>
      <trkpt lat="49.0274" lon="6.93364">
        <ele>245.2</ele>
        <time>2026-08-13T06:43:13.798Z</time>
      </trkpt>
      <trkpt lat="49.027" lon="6.93331">
        <ele>245.2</ele>
        <time>2026-08-13T06:43:19.797Z</time>
      </trkpt>
      <trkpt lat="49.02656" lon="6.93296">
        <ele>245.2</ele>
        <time>2026-08-13T06:43:25.808Z</time>
      </trkpt>
      <trkpt lat="49.02611" lon="6.93261">
        <ele>245.2</ele>
        <time>2026-08-13T06:43:31.803Z</time>
      </trkpt>
      <trkpt lat="49.02566" lon="6.93226">
        <ele>245.2</ele>
        <time>2026-08-13T06:43:37.795Z</time>
      </trkpt>
      <trkpt lat="49.02526" lon="6.93174">
        <ele>245.2</ele>
        <time>2026-08-13T06:43:43.806Z</time>
      </trkpt>
      <trkpt lat="49.02501" lon="6.93111">
        <ele>245.2</ele>
        <time>2026-08-13T06:43:49.800Z</time>
      </trkpt>
      <trkpt lat="49.02483" lon="6.93064">
        <ele>245.2</ele>
        <time>2026-08-13T06:43:55.807Z</time>
      </trkpt>
      <trkpt lat="49.0247" lon="6.93034">
        <ele>245.2</ele>
        <time>2026-08-13T06:44:01.772Z</time>
      </trkpt>
      <trkpt lat="49.02462" lon="6.93015">
        <ele>245.2</ele>
        <time>2026-08-13T06:44:07.800Z</time>
      </trkpt>
      <trkpt lat="49.02453" lon="6.92999">
        <ele>193.97</ele>
        <time>2026-08-13T06:44:13.801Z</time>
      </trkpt>
      <trkpt lat="49.02445" lon="6.92983">
        <ele>195.09</ele>
        <time>2026-08-13T06:44:19.810Z</time>
      </trkpt>
      <trkpt lat="49.02438" lon="6.92963">
        <ele>195.55</ele>
        <time>2026-08-13T06:44:25.805Z</time>
      </trkpt>
      <trkpt lat="49.02429" lon="6.9294">
        <ele>195.08</ele>
        <time>2026-08-13T06:44:31.808Z</time>
      </trkpt>
      <trkpt lat="49.0242" lon="6.92918">
        <ele>197.07</ele>
        <time>2026-08-13T06:44:37.802Z</time>
      </trkpt>
      <trkpt lat="49.02412" lon="6.92897">
        <ele>199.15</ele>
        <time>2026-08-13T06:44:43.800Z</time>
      </trkpt>
      <trkpt lat="49.02404" lon="6.92875">
        <ele>199.97</ele>
        <time>2026-08-13T06:44:49.803Z</time>
      </trkpt>
      <trkpt lat="49.02395" lon="6.92853">
        <ele>200.05</ele>
        <time>2026-08-13T06:44:55.806Z</time>
      </trkpt>
      <trkpt lat="49.02386" lon="6.9283">
        <ele>200.49</ele>
        <time>2026-08-13T06:45:01.807Z</time>
      </trkpt>
      <trkpt lat="49.02375" lon="6.92808">
        <ele>202.05</ele>
        <time>2026-08-13T06:45:07.796Z</time>
      </trkpt>
      <trkpt lat="49.02365" lon="6.92786">
        <ele>202.49</ele>
        <time>2026-08-13T06:45:13.804Z</time>
      </trkpt>
      <trkpt lat="49.02356" lon="6.92765">
        <ele>203.81</ele>
        <time>2026-08-13T06:45:19.798Z</time>
      </trkpt>
      <trkpt lat="49.02343" lon="6.92744">
        <ele>204.63</ele>
        <time>2026-08-13T06:45:25.806Z</time>
      </trkpt>
      <trkpt lat="49.02328" lon="6.92728">
        <ele>205.93</ele>
        <time>2026-08-13T06:45:31.784Z</time>
      </trkpt>
      <trkpt lat="49.02311" lon="6.92711">
        <ele>205.29</ele>
        <time>2026-08-13T06:45:37.801Z</time>
      </trkpt>
      <trkpt lat="49.02289" lon="6.92693">
        <ele>205.27</ele>
        <time>2026-08-13T06:45:43.791Z</time>
      </trkpt>
      <trkpt lat="49.02265" lon="6.92673">
        <ele>205.28</ele>
        <time>2026-08-13T06:45:49.801Z</time>
      </trkpt>
      <trkpt lat="49.02244" lon="6.92656">
        <ele>204.12</ele>
        <time>2026-08-13T06:45:55.798Z</time>
      </trkpt>
      <trkpt lat="49.02223" lon="6.92639">
        <ele>205.47</ele>
        <time>2026-08-13T06:46:01.785Z</time>
      </trkpt>
      <trkpt lat="49.02205" lon="6.92612">
        <ele>203.97</ele>
        <time>2026-08-13T06:46:07.803Z</time>
      </trkpt>
      <trkpt lat="49.02184" lon="6.92576">
        <ele>202.67</ele>
        <time>2026-08-13T06:46:13.799Z</time>
      </trkpt>
      <trkpt lat="49.02163" lon="6.92528">
        <ele>201.56</ele>
        <time>2026-08-13T06:46:19.803Z</time>
      </trkpt>
      <trkpt lat="49.02139" lon="6.92476">
        <ele>202.47</ele>
        <time>2026-08-13T06:46:25.814Z</time>
      </trkpt>
      <trkpt lat="49.02113" lon="6.92424">
        <ele>200.67</ele>
        <time>2026-08-13T06:46:31.806Z</time>
      </trkpt>
      <trkpt lat="49.02083" lon="6.92375">
        <ele>202.68</ele>
        <time>2026-08-13T06:46:37.802Z</time>
      </trkpt>
      <trkpt lat="49.02048" lon="6.92333">
        <ele>202.4</ele>
        <time>2026-08-13T06:46:43.796Z</time>
      </trkpt>
      <trkpt lat="49.02009" lon="6.9229">
        <ele>199.15</ele>
        <time>2026-08-13T06:46:49.803Z</time>
      </trkpt>
      <trkpt lat="49.01978" lon="6.92227">
        <ele>198.61</ele>
        <time>2026-08-13T06:46:55.824Z</time>
      </trkpt>
      <trkpt lat="49.01953" lon="6.92167">
        <ele>196.8</ele>
        <time>2026-08-13T06:47:01.808Z</time>
      </trkpt>
      <trkpt lat="49.01931" lon="6.92113">
        <ele>193</ele>
        <time>2026-08-13T06:47:07.799Z</time>
      </trkpt>
      <trkpt lat="49.01896" lon="6.92065">
        <ele>190.78</ele>
        <time>2026-08-13T06:47:13.808Z</time>
      </trkpt>
      <trkpt lat="49.01852" lon="6.92026">
        <ele>189.04</ele>
        <time>2026-08-13T06:47:19.801Z</time>
      </trkpt>
      <trkpt lat="49.01802" lon="6.91993">
        <ele>184.89</ele>
        <time>2026-08-13T06:47:25.808Z</time>
      </trkpt>
      <trkpt lat="49.01751" lon="6.91957">
        <ele>184.62</ele>
        <time>2026-08-13T06:47:31.805Z</time>
      </trkpt>
      <trkpt lat="49.01707" lon="6.91915">
        <ele>187.55</ele>
        <time>2026-08-13T06:47:37.800Z</time>
      </trkpt>
      <trkpt lat="49.01678" lon="6.91885">
        <ele>189.31</ele>
        <time>2026-08-13T06:47:43.802Z</time>
      </trkpt>
      <trkpt lat="49.01655" lon="6.91864">
        <ele>191.99</ele>
        <time>2026-08-13T06:47:49.809Z</time>
      </trkpt>
      <trkpt lat="49.01636" lon="6.91843">
        <ele>194.62</ele>
        <time>2026-08-13T06:47:55.808Z</time>
      </trkpt>
      <trkpt lat="49.01617" lon="6.91824">
        <ele>195.97</ele>
        <time>2026-08-13T06:48:01.808Z</time>
      </trkpt>
      <trkpt lat="49.01597" lon="6.91804">
        <ele>197.42</ele>
        <time>2026-08-13T06:48:07.800Z</time>
      </trkpt>
      <trkpt lat="49.01574" lon="6.91788">
        <ele>198.42</ele>
        <time>2026-08-13T06:48:13.800Z</time>
      </trkpt>
      <trkpt lat="49.0155" lon="6.91776">
        <ele>199.49</ele>
        <time>2026-08-13T06:48:19.802Z</time>
      </trkpt>
      <trkpt lat="49.01526" lon="6.91765">
        <ele>200.46</ele>
        <time>2026-08-13T06:48:24.851Z</time>
      </trkpt>
      <trkpt lat="49.01487" lon="6.91757">
        <ele>203.26</ele>
        <time>2026-08-13T06:48:30.729Z</time>
      </trkpt>
      <trkpt lat="49.01467" lon="6.91739">
        <ele>200.55</ele>
        <time>2026-08-13T06:48:35.746Z</time>
      </trkpt>
      <trkpt lat="49.01428" lon="6.91719">
        <ele>195.87</ele>
        <time>2026-08-13T06:48:41.742Z</time>
      </trkpt>
      <trkpt lat="49.01414" lon="6.91672">
        <ele>195.03</ele>
        <time>2026-08-13T06:48:46.747Z</time>
      </trkpt>
      <trkpt lat="49.01405" lon="6.91623">
        <ele>194.5</ele>
        <time>2026-08-13T06:48:51.749Z</time>
      </trkpt>
      <trkpt lat="49.01393" lon="6.91561">
        <ele>190.6</ele>
        <time>2026-08-13T06:48:57.745Z</time>
      </trkpt>
      <trkpt lat="49.01387" lon="6.91501">
        <ele>192.87</ele>
        <time>2026-08-13T06:49:03.747Z</time>
      </trkpt>
      <trkpt lat="49.01396" lon="6.91457">
        <ele>192.73</ele>
        <time>2026-08-13T06:49:08.747Z</time>
      </trkpt>
      <trkpt lat="49.01399" lon="6.91416">
        <ele>193.28</ele>
        <time>2026-08-13T06:49:13.804Z</time>
      </trkpt>
      <trkpt lat="49.01397" lon="6.91375">
        <ele>192.49</ele>
        <time>2026-08-13T06:49:19.802Z</time>
      </trkpt>
      <trkpt lat="49.01394" lon="6.91333">
        <ele>193.65</ele>
        <time>2026-08-13T06:49:25.811Z</time>
      </trkpt>
      <trkpt lat="49.01393" lon="6.91291">
        <ele>194.14</ele>
        <time>2026-08-13T06:49:31.809Z</time>
      </trkpt>
      <trkpt lat="49.01374" lon="6.91238">
        <ele>193.48</ele>
        <time>2026-08-13T06:49:37.802Z</time>
      </trkpt>
      <trkpt lat="49.01346" lon="6.91171">
        <ele>190.94</ele>
        <time>2026-08-13T06:49:43.801Z</time>
      </trkpt>
      <trkpt lat="49.01315" lon="6.91106">
        <ele>191.46</ele>
        <time>2026-08-13T06:49:49.803Z</time>
      </trkpt>
      <trkpt lat="49.01282" lon="6.91045">
        <ele>188.57</ele>
        <time>2026-08-13T06:49:55.811Z</time>
      </trkpt>
      <trkpt lat="49.01247" lon="6.90982">
        <ele>186.4</ele>
        <time>2026-08-13T06:50:01.807Z</time>
      </trkpt>
      <trkpt lat="49.0121" lon="6.90917">
        <ele>184.04</ele>
        <time>2026-08-13T06:50:07.801Z</time>
      </trkpt>
      <trkpt lat="49.01172" lon="6.90854">
        <ele>181.74</ele>
        <time>2026-08-13T06:50:13.800Z</time>
      </trkpt>
      <trkpt lat="49.01133" lon="6.90796">
        <ele>181.82</ele>
        <time>2026-08-13T06:50:19.798Z</time>
      </trkpt>
      <trkpt lat="49.01099" lon="6.90736">
        <ele>182.55</ele>
        <time>2026-08-13T06:50:25.803Z</time>
      </trkpt>
      <trkpt lat="49.0108" lon="6.90674">
        <ele>184.1</ele>
        <time>2026-08-13T06:50:31.809Z</time>
      </trkpt>
      <trkpt lat="49.01064" lon="6.90624">
        <ele>186.98</ele>
        <time>2026-08-13T06:50:37.803Z</time>
      </trkpt>
      <trkpt lat="49.01051" lon="6.90582">
        <ele>187.97</ele>
        <time>2026-08-13T06:50:43.804Z</time>
      </trkpt>
      <trkpt lat="49.01035" lon="6.90538">
        <ele>187.32</ele>
        <time>2026-08-13T06:50:49.799Z</time>
      </trkpt>
      <trkpt lat="49.0102" lon="6.90494">
        <ele>187.72</ele>
        <time>2026-08-13T06:50:55.784Z</time>
      </trkpt>
      <trkpt lat="49.01004" lon="6.90453">
        <ele>188.68</ele>
        <time>2026-08-13T06:51:01.805Z</time>
      </trkpt>
      <trkpt lat="49.00986" lon="6.90413">
        <ele>190.1</ele>
        <time>2026-08-13T06:51:07.804Z</time>
      </trkpt>
      <trkpt lat="49.00969" lon="6.90373">
        <ele>190.98</ele>
        <time>2026-08-13T06:51:13.801Z</time>
      </trkpt>
      <trkpt lat="49.00949" lon="6.9033">
        <ele>191.02</ele>
        <time>2026-08-13T06:51:19.801Z</time>
      </trkpt>
      <trkpt lat="49.00927" lon="6.90285">
        <ele>190.49</ele>
        <time>2026-08-13T06:51:25.802Z</time>
      </trkpt>
      <trkpt lat="49.00905" lon="6.90243">
        <ele>191.05</ele>
        <time>2026-08-13T06:51:31.802Z</time>
      </trkpt>
      <trkpt lat="49.00886" lon="6.90198">
        <ele>190.57</ele>
        <time>2026-08-13T06:51:37.781Z</time>
      </trkpt>
      <trkpt lat="49.00868" lon="6.90161">
        <ele>190.16</ele>
        <time>2026-08-13T06:51:43.791Z</time>
      </trkpt>
      <trkpt lat="49.00848" lon="6.90136">
        <ele>190.75</ele>
        <time>2026-08-13T06:51:49.803Z</time>
      </trkpt>
      <trkpt lat="49.00827" lon="6.90111">
        <ele>188.81</ele>
        <time>2026-08-13T06:51:55.802Z</time>
      </trkpt>
      <trkpt lat="49.00806" lon="6.90088">
        <ele>188.82</ele>
        <time>2026-08-13T06:52:01.809Z</time>
      </trkpt>
      <trkpt lat="49.00776" lon="6.90053">
        <ele>185.33</ele>
        <time>2026-08-13T06:52:07.800Z</time>
      </trkpt>
      <trkpt lat="49.00743" lon="6.90006">
        <ele>180.81</ele>
        <time>2026-08-13T06:52:13.796Z</time>
      </trkpt>
      <trkpt lat="49.00703" lon="6.89953">
        <ele>180.21</ele>
        <time>2026-08-13T06:52:19.801Z</time>
      </trkpt>
      <trkpt lat="49.00664" lon="6.89893">
        <ele>179.32</ele>
        <time>2026-08-13T06:52:25.809Z</time>
      </trkpt>
      <trkpt lat="49.00624" lon="6.89829">
        <ele>178</ele>
        <time>2026-08-13T06:52:31.810Z</time>
      </trkpt>
      <trkpt lat="49.00585" lon="6.89767">
        <ele>176.08</ele>
        <time>2026-08-13T06:52:37.803Z</time>
      </trkpt>
      <trkpt lat="49.00547" lon="6.89709">
        <ele>173.43</ele>
        <time>2026-08-13T06:52:43.804Z</time>
      </trkpt>
      <trkpt lat="49.0051" lon="6.8965">
        <ele>171.38</ele>
        <time>2026-08-13T06:52:49.808Z</time>
      </trkpt>
      <trkpt lat="49.0048" lon="6.89587">
        <ele>170.98</ele>
        <time>2026-08-13T06:52:55.813Z</time>
      </trkpt>
      <trkpt lat="49.0045" lon="6.89519">
        <ele>171.22</ele>
        <time>2026-08-13T06:53:01.809Z</time>
      </trkpt>
      <trkpt lat="49.0042" lon="6.89451">
        <ele>171.04</ele>
        <time>2026-08-13T06:53:07.807Z</time>
      </trkpt>
      <trkpt lat="49.00393" lon="6.89381">
        <ele>171.76</ele>
        <time>2026-08-13T06:53:13.810Z</time>
      </trkpt>
      <trkpt lat="49.00371" lon="6.89316">
        <ele>174.15</ele>
        <time>2026-08-13T06:53:19.808Z</time>
      </trkpt>
      <trkpt lat="49.00353" lon="6.89258">
        <ele>175.99</ele>
        <time>2026-08-13T06:53:25.808Z</time>
      </trkpt>
      <trkpt lat="49.0034" lon="6.89197">
        <ele>176.06</ele>
        <time>2026-08-13T06:53:31.810Z</time>
      </trkpt>
      <trkpt lat="49.00326" lon="6.89137">
        <ele>175.49</ele>
        <time>2026-08-13T06:53:37.811Z</time>
      </trkpt>
      <trkpt lat="49.00305" lon="6.89088">
        <ele>176.21</ele>
        <time>2026-08-13T06:53:43.809Z</time>
      </trkpt>
      <trkpt lat="49.00273" lon="6.89054">
        <ele>176.93</ele>
        <time>2026-08-13T06:53:49.809Z</time>
      </trkpt>
      <trkpt lat="49.00238" lon="6.89022">
        <ele>178.6</ele>
        <time>2026-08-13T06:53:55.808Z</time>
      </trkpt>
      <trkpt lat="49.00216" lon="6.88964">
        <ele>175.13</ele>
        <time>2026-08-13T06:54:01.787Z</time>
      </trkpt>
      <trkpt lat="49.00178" lon="6.88922">
        <ele>172.13</ele>
        <time>2026-08-13T06:54:07.798Z</time>
      </trkpt>
      <trkpt lat="49.00137" lon="6.88943">
        <ele>171.1</ele>
        <time>2026-08-13T06:54:13.804Z</time>
      </trkpt>
      <trkpt lat="49.00106" lon="6.88971">
        <ele>172.03</ele>
        <time>2026-08-13T06:54:19.792Z</time>
      </trkpt>
      <trkpt lat="49.00079" lon="6.88995">
        <ele>174.52</ele>
        <time>2026-08-13T06:54:25.788Z</time>
      </trkpt>
      <trkpt lat="49.00053" lon="6.88997">
        <ele>176.88</ele>
        <time>2026-08-13T06:54:31.801Z</time>
      </trkpt>
      <trkpt lat="49.00028" lon="6.89001">
        <ele>176.75</ele>
        <time>2026-08-13T06:54:37.799Z</time>
      </trkpt>
      <trkpt lat="49.00008" lon="6.89011">
        <ele>176.51</ele>
        <time>2026-08-13T06:54:43.794Z</time>
      </trkpt>
      <trkpt lat="48.99988" lon="6.89023">
        <ele>177.23</ele>
        <time>2026-08-13T06:54:49.804Z</time>
      </trkpt>
      <trkpt lat="48.99972" lon="6.8904">
        <ele>180.88</ele>
        <time>2026-08-13T06:54:55.794Z</time>
      </trkpt>
      <trkpt lat="48.9996" lon="6.89045">
        <ele>182.06</ele>
        <time>2026-08-13T06:55:01.803Z</time>
      </trkpt>
      <trkpt lat="48.99947" lon="6.89048">
        <ele>182.54</ele>
        <time>2026-08-13T06:55:07.809Z</time>
      </trkpt>
      <trkpt lat="48.99932" lon="6.89045">
        <ele>183.95</ele>
        <time>2026-08-13T06:55:13.813Z</time>
      </trkpt>
      <trkpt lat="48.99918" lon="6.89039">
        <ele>183.91</ele>
        <time>2026-08-13T06:55:19.813Z</time>
      </trkpt>
      <trkpt lat="48.99904" lon="6.89034">
        <ele>182.1</ele>
        <time>2026-08-13T06:55:25.806Z</time>
      </trkpt>
      <trkpt lat="48.99891" lon="6.89023">
        <ele>180.24</ele>
        <time>2026-08-13T06:55:31.811Z</time>
      </trkpt>
      <trkpt lat="48.99877" lon="6.89013">
        <ele>177.58</ele>
        <time>2026-08-13T06:55:37.808Z</time>
      </trkpt>
      <trkpt lat="48.99859" lon="6.88997">
        <ele>174.63</ele>
        <time>2026-08-13T06:55:43.801Z</time>
      </trkpt>
      <trkpt lat="48.99842" lon="6.88975">
        <ele>174.19</ele>
        <time>2026-08-13T06:55:49.799Z</time>
      </trkpt>
      <trkpt lat="48.99824" lon="6.8895">
        <ele>175.6</ele>
        <time>2026-08-13T06:55:55.813Z</time>
      </trkpt>
      <trkpt lat="48.99806" lon="6.8892">
        <ele>175.24</ele>
        <time>2026-08-13T06:56:01.818Z</time>
      </trkpt>
      <trkpt lat="48.99784" lon="6.88881">
        <ele>174.32</ele>
        <time>2026-08-13T06:56:07.812Z</time>
      </trkpt>
      <trkpt lat="48.9976" lon="6.88839">
        <ele>173.87</ele>
        <time>2026-08-13T06:56:13.810Z</time>
      </trkpt>
      <trkpt lat="48.99732" lon="6.88794">
        <ele>175.25</ele>
        <time>2026-08-13T06:56:19.807Z</time>
      </trkpt>
      <trkpt lat="48.99689" lon="6.88796">
        <ele>178.72</ele>
        <time>2026-08-13T06:56:25.806Z</time>
      </trkpt>
      <trkpt lat="48.99653" lon="6.88836">
        <ele>181.42</ele>
        <time>2026-08-13T06:56:31.772Z</time>
      </trkpt>
      <trkpt lat="48.9961" lon="6.88825">
        <ele>180.35</ele>
        <time>2026-08-13T06:56:37.813Z</time>
      </trkpt>
      <trkpt lat="48.99566" lon="6.88797">
        <ele>179.23</ele>
        <time>2026-08-13T06:56:43.807Z</time>
      </trkpt>
      <trkpt lat="48.99531" lon="6.88758">
        <ele>175.39</ele>
        <time>2026-08-13T06:56:49.811Z</time>
      </trkpt>
      <trkpt lat="48.99499" lon="6.88701">
        <ele>172.02</ele>
        <time>2026-08-13T06:56:55.805Z</time>
      </trkpt>
      <trkpt lat="48.99464" lon="6.88637">
        <ele>170.3</ele>
        <time>2026-08-13T06:57:01.804Z</time>
      </trkpt>
      <trkpt lat="48.99433" lon="6.88572">
        <ele>168.97</ele>
        <time>2026-08-13T06:57:07.809Z</time>
      </trkpt>
      <trkpt lat="48.99419" lon="6.88503">
        <ele>164.64</ele>
        <time>2026-08-13T06:57:13.807Z</time>
      </trkpt>
      <trkpt lat="48.99402" lon="6.88443">
        <ele>168.86</ele>
        <time>2026-08-13T06:57:19.810Z</time>
      </trkpt>
      <trkpt lat="48.99387" lon="6.88385">
        <ele>170.3</ele>
        <time>2026-08-13T06:57:25.813Z</time>
      </trkpt>
      <trkpt lat="48.99372" lon="6.88328">
        <ele>170.86</ele>
        <time>2026-08-13T06:57:31.806Z</time>
      </trkpt>
      <trkpt lat="48.99356" lon="6.8827">
        <ele>170.67</ele>
        <time>2026-08-13T06:57:37.810Z</time>
      </trkpt>
      <trkpt lat="48.9934" lon="6.88218">
        <ele>169.81</ele>
        <time>2026-08-13T06:57:43.806Z</time>
      </trkpt>
      <trkpt lat="48.99325" lon="6.88168">
        <ele>170.19</ele>
        <time>2026-08-13T06:57:49.798Z</time>
      </trkpt>
      <trkpt lat="48.9931" lon="6.8812">
        <ele>169.83</ele>
        <time>2026-08-13T06:57:55.791Z</time>
      </trkpt>
      <trkpt lat="48.99295" lon="6.88067">
        <ele>170.06</ele>
        <time>2026-08-13T06:58:01.788Z</time>
      </trkpt>
      <trkpt lat="48.9928" lon="6.88016">
        <ele>171.5</ele>
        <time>2026-08-13T06:58:07.807Z</time>
      </trkpt>
      <trkpt lat="48.99263" lon="6.87964">
        <ele>171.84</ele>
        <time>2026-08-13T06:58:13.811Z</time>
      </trkpt>
      <trkpt lat="48.99247" lon="6.87914">
        <ele>172.3</ele>
        <time>2026-08-13T06:58:19.808Z</time>
      </trkpt>
      <trkpt lat="48.99233" lon="6.87864">
        <ele>172.64</ele>
        <time>2026-08-13T06:58:25.810Z</time>
      </trkpt>
      <trkpt lat="48.99217" lon="6.87815">
        <ele>173.16</ele>
        <time>2026-08-13T06:58:31.808Z</time>
      </trkpt>
      <trkpt lat="48.99209" lon="6.87767">
        <ele>173.46</ele>
        <time>2026-08-13T06:58:37.812Z</time>
      </trkpt>
      <trkpt lat="48.99206" lon="6.87724">
        <ele>175.46</ele>
        <time>2026-08-13T06:58:43.807Z</time>
      </trkpt>
      <trkpt lat="48.99203" lon="6.87682">
        <ele>175.67</ele>
        <time>2026-08-13T06:58:49.812Z</time>
      </trkpt>
      <trkpt lat="48.99201" lon="6.87644">
        <ele>176.78</ele>
        <time>2026-08-13T06:58:55.811Z</time>
      </trkpt>
      <trkpt lat="48.992" lon="6.87611">
        <ele>179</ele>
        <time>2026-08-13T06:59:01.808Z</time>
      </trkpt>
      <trkpt lat="48.99202" lon="6.87568">
        <ele>177.71</ele>
        <time>2026-08-13T06:59:07.809Z</time>
      </trkpt>
      <trkpt lat="48.99208" lon="6.87521">
        <ele>176.19</ele>
        <time>2026-08-13T06:59:13.810Z</time>
      </trkpt>
      <trkpt lat="48.99221" lon="6.87465">
        <ele>172.75</ele>
        <time>2026-08-13T06:59:19.812Z</time>
      </trkpt>
      <trkpt lat="48.99234" lon="6.87408">
        <ele>171.66</ele>
        <time>2026-08-13T06:59:25.807Z</time>
      </trkpt>
      <trkpt lat="48.99242" lon="6.87356">
        <ele>170.83</ele>
        <time>2026-08-13T06:59:31.809Z</time>
      </trkpt>
      <trkpt lat="48.99227" lon="6.87305">
        <ele>169.63</ele>
        <time>2026-08-13T06:59:37.810Z</time>
      </trkpt>
      <trkpt lat="48.99198" lon="6.8727">
        <ele>168.62</ele>
        <time>2026-08-13T06:59:43.807Z</time>
      </trkpt>
      <trkpt lat="48.99171" lon="6.87236">
        <ele>169.31</ele>
        <time>2026-08-13T06:59:49.808Z</time>
      </trkpt>
      <trkpt lat="48.99143" lon="6.872">
        <ele>169.75</ele>
        <time>2026-08-13T06:59:55.807Z</time>
      </trkpt>
      <trkpt lat="48.99125" lon="6.87153">
        <ele>171.74</ele>
        <time>2026-08-13T07:00:01.806Z</time>
      </trkpt>
      <trkpt lat="48.99117" lon="6.87105">
        <ele>174.04</ele>
        <time>2026-08-13T07:00:07.811Z</time>
      </trkpt>
      <trkpt lat="48.99109" lon="6.87061">
        <ele>174.98</ele>
        <time>2026-08-13T07:00:13.809Z</time>
      </trkpt>
      <trkpt lat="48.99102" lon="6.87023">
        <ele>175.45</ele>
        <time>2026-08-13T07:00:19.809Z</time>
      </trkpt>
      <trkpt lat="48.99095" lon="6.86982">
        <ele>175.33</ele>
        <time>2026-08-13T07:00:25.807Z</time>
      </trkpt>
      <trkpt lat="48.99088" lon="6.86943">
        <ele>175.55</ele>
        <time>2026-08-13T07:00:31.813Z</time>
      </trkpt>
      <trkpt lat="48.99082" lon="6.86905">
        <ele>176.79</ele>
        <time>2026-08-13T07:00:37.811Z</time>
      </trkpt>
      <trkpt lat="48.9908" lon="6.86864">
        <ele>175.73</ele>
        <time>2026-08-13T07:00:43.805Z</time>
      </trkpt>
      <trkpt lat="48.99078" lon="6.86825">
        <ele>221.1</ele>
        <time>2026-08-13T07:00:49.810Z</time>
      </trkpt>
      <trkpt lat="48.99077" lon="6.86785">
        <ele>221.28</ele>
        <time>2026-08-13T07:00:55.796Z</time>
      </trkpt>
      <trkpt lat="48.99076" lon="6.86741">
        <ele>221.28</ele>
        <time>2026-08-13T07:01:01.807Z</time>
      </trkpt>
      <trkpt lat="48.99074" lon="6.86695">
        <ele>221.28</ele>
        <time>2026-08-13T07:01:07.811Z</time>
      </trkpt>
      <trkpt lat="48.99072" lon="6.86651">
        <ele>221.28</ele>
        <time>2026-08-13T07:01:13.811Z</time>
      </trkpt>
      <trkpt lat="48.99069" lon="6.86606">
        <ele>221.28</ele>
        <time>2026-08-13T07:01:19.810Z</time>
      </trkpt>
      <trkpt lat="48.9906" lon="6.86563">
        <ele>221.28</ele>
        <time>2026-08-13T07:01:25.805Z</time>
      </trkpt>
      <trkpt lat="48.99048" lon="6.86531">
        <ele>221.28</ele>
        <time>2026-08-13T07:01:31.798Z</time>
      </trkpt>
      <trkpt lat="48.99035" lon="6.86508">
        <ele>221.29</ele>
        <time>2026-08-13T07:01:37.809Z</time>
      </trkpt>
      <trkpt lat="48.99022" lon="6.8649">
        <ele>221.29</ele>
        <time>2026-08-13T07:01:42.829Z</time>
      </trkpt>
      <trkpt lat="48.99002" lon="6.8647">
        <ele>221.29</ele>
        <time>2026-08-13T07:01:48.745Z</time>
      </trkpt>
      <trkpt lat="48.98987" lon="6.86451">
        <ele>221.29</ele>
        <time>2026-08-13T07:01:54.747Z</time>
      </trkpt>
      <trkpt lat="48.98971" lon="6.86435">
        <ele>221.29</ele>
        <time>2026-08-13T07:01:59.753Z</time>
      </trkpt>
      <trkpt lat="48.98947" lon="6.8642">
        <ele>221.29</ele>
        <time>2026-08-13T07:02:05.736Z</time>
      </trkpt>
      <trkpt lat="48.98923" lon="6.86411">
        <ele>221.29</ele>
        <time>2026-08-13T07:02:10.737Z</time>
      </trkpt>
      <trkpt lat="48.98903" lon="6.86388">
        <ele>185.14</ele>
        <time>2026-08-13T07:02:15.748Z</time>
      </trkpt>
      <trkpt lat="48.98892" lon="6.86355">
        <ele>183.73</ele>
        <time>2026-08-13T07:02:21.742Z</time>
      </trkpt>
      <trkpt lat="48.9889" lon="6.86337">
        <ele>184.05</ele>
        <time>2026-08-13T07:02:27.746Z</time>
      </trkpt>
      <trkpt lat="48.98884" lon="6.86316">
        <ele>185.61</ele>
        <time>2026-08-13T07:02:33.739Z</time>
      </trkpt>
      <trkpt lat="48.98884" lon="6.86297">
        <ele>187.95</ele>
        <time>2026-08-13T07:02:38.747Z</time>
      </trkpt>
      <trkpt lat="48.98887" lon="6.86278">
        <ele>190.53</ele>
        <time>2026-08-13T07:02:43.798Z</time>
      </trkpt>
      <trkpt lat="48.98892" lon="6.86254">
        <ele>190.87</ele>
        <time>2026-08-13T07:02:49.799Z</time>
      </trkpt>
      <trkpt lat="48.98896" lon="6.86231">
        <ele>191.51</ele>
        <time>2026-08-13T07:02:55.803Z</time>
      </trkpt>
      <trkpt lat="48.98894" lon="6.86209">
        <ele>192.66</ele>
        <time>2026-08-13T07:03:01.812Z</time>
      </trkpt>
      <trkpt lat="48.98881" lon="6.86198">
        <ele>193.46</ele>
        <time>2026-08-13T07:03:07.800Z</time>
      </trkpt>
      <trkpt lat="48.9887" lon="6.86191">
        <ele>192.59</ele>
        <time>2026-08-13T07:03:13.805Z</time>
      </trkpt>
      <trkpt lat="48.98856" lon="6.86183">
        <ele>194.47</ele>
        <time>2026-08-13T07:03:19.795Z</time>
      </trkpt>
      <trkpt lat="48.98842" lon="6.86178">
        <ele>196.51</ele>
        <time>2026-08-13T07:03:25.787Z</time>
      </trkpt>
      <trkpt lat="48.98828" lon="6.86171">
        <ele>197.3</ele>
        <time>2026-08-13T07:03:31.809Z</time>
      </trkpt>
      <trkpt lat="48.98814" lon="6.86163">
        <ele>198.4</ele>
        <time>2026-08-13T07:03:37.794Z</time>
      </trkpt>
      <trkpt lat="48.98799" lon="6.86156">
        <ele>199.67</ele>
        <time>2026-08-13T07:03:43.790Z</time>
      </trkpt>
      <trkpt lat="48.98785" lon="6.86145">
        <ele>198.75</ele>
        <time>2026-08-13T07:03:49.789Z</time>
      </trkpt>
      <trkpt lat="48.98768" lon="6.86132">
        <ele>200.31</ele>
        <time>2026-08-13T07:03:55.789Z</time>
      </trkpt>
      <trkpt lat="48.98751" lon="6.8612">
        <ele>200.46</ele>
        <time>2026-08-13T07:04:01.804Z</time>
      </trkpt>
      <trkpt lat="48.98733" lon="6.86108">
        <ele>200.17</ele>
        <time>2026-08-13T07:04:07.809Z</time>
      </trkpt>
      <trkpt lat="48.98708" lon="6.86091">
        <ele>199.05</ele>
        <time>2026-08-13T07:04:13.799Z</time>
      </trkpt>
      <trkpt lat="48.98682" lon="6.8607">
        <ele>198.43</ele>
        <time>2026-08-13T07:04:19.805Z</time>
      </trkpt>
      <trkpt lat="48.98668" lon="6.86024">
        <ele>198.78</ele>
        <time>2026-08-13T07:04:25.808Z</time>
      </trkpt>
      <trkpt lat="48.98649" lon="6.85989">
        <ele>197.2</ele>
        <time>2026-08-13T07:04:31.801Z</time>
      </trkpt>
      <trkpt lat="48.98623" lon="6.85945">
        <ele>194.18</ele>
        <time>2026-08-13T07:04:37.807Z</time>
      </trkpt>
      <trkpt lat="48.98594" lon="6.85905">
        <ele>192.86</ele>
        <time>2026-08-13T07:04:43.808Z</time>
      </trkpt>
      <trkpt lat="48.98565" lon="6.85867">
        <ele>192.07</ele>
        <time>2026-08-13T07:04:49.798Z</time>
      </trkpt>
      <trkpt lat="48.98543" lon="6.85826">
        <ele>191.04</ele>
        <time>2026-08-13T07:04:55.790Z</time>
      </trkpt>
      <trkpt lat="48.98522" lon="6.85791">
        <ele>190.24</ele>
        <time>2026-08-13T07:05:01.787Z</time>
      </trkpt>
      <trkpt lat="48.98509" lon="6.85764">
        <ele>190.46</ele>
        <time>2026-08-13T07:05:07.791Z</time>
      </trkpt>
      <trkpt lat="48.98498" lon="6.85742">
        <ele>190.76</ele>
        <time>2026-08-13T07:05:13.794Z</time>
      </trkpt>
      <trkpt lat="48.98488" lon="6.85724">
        <ele>191.65</ele>
        <time>2026-08-13T07:05:19.795Z</time>
      </trkpt>
      <trkpt lat="48.98478" lon="6.85705">
        <ele>192.31</ele>
        <time>2026-08-13T07:05:25.794Z</time>
      </trkpt>
      <trkpt lat="48.98468" lon="6.85684">
        <ele>191.8</ele>
        <time>2026-08-13T07:05:31.814Z</time>
      </trkpt>
      <trkpt lat="48.98459" lon="6.85665">
        <ele>192.32</ele>
        <time>2026-08-13T07:05:37.788Z</time>
      </trkpt>
      <trkpt lat="48.98448" lon="6.85646">
        <ele>192.8</ele>
        <time>2026-08-13T07:05:43.807Z</time>
      </trkpt>
      <trkpt lat="48.98439" lon="6.85626">
        <ele>193.35</ele>
        <time>2026-08-13T07:05:49.807Z</time>
      </trkpt>
      <trkpt lat="48.98431" lon="6.85607">
        <ele>193.77</ele>
        <time>2026-08-13T07:05:55.802Z</time>
      </trkpt>
      <trkpt lat="48.98422" lon="6.85589">
        <ele>193.69</ele>
        <time>2026-08-13T07:06:01.805Z</time>
      </trkpt>
      <trkpt lat="48.98414" lon="6.8557">
        <ele>193.57</ele>
        <time>2026-08-13T07:06:07.812Z</time>
      </trkpt>
      <trkpt lat="48.98406" lon="6.85552">
        <ele>193.96</ele>
        <time>2026-08-13T07:06:13.799Z</time>
      </trkpt>
      <trkpt lat="48.98399" lon="6.85534">
        <ele>194.1</ele>
        <time>2026-08-13T07:06:19.802Z</time>
      </trkpt>
      <trkpt lat="48.9839" lon="6.85517">
        <ele>193.55</ele>
        <time>2026-08-13T07:06:25.799Z</time>
      </trkpt>
      <trkpt lat="48.98382" lon="6.85501">
        <ele>194.42</ele>
        <time>2026-08-13T07:06:31.795Z</time>
      </trkpt>
      <trkpt lat="48.98374" lon="6.85482">
        <ele>195.41</ele>
        <time>2026-08-13T07:06:37.805Z</time>
      </trkpt>
      <trkpt lat="48.98366" lon="6.85463">
        <ele>195.87</ele>
        <time>2026-08-13T07:06:43.804Z</time>
      </trkpt>
      <trkpt lat="48.98357" lon="6.85443">
        <ele>195.95</ele>
        <time>2026-08-13T07:06:49.791Z</time>
      </trkpt>
      <trkpt lat="48.98348" lon="6.85423">
        <ele>195.26</ele>
        <time>2026-08-13T07:06:55.803Z</time>
      </trkpt>
      <trkpt lat="48.98339" lon="6.85403">
        <ele>194.91</ele>
        <time>2026-08-13T07:07:01.808Z</time>
      </trkpt>
      <trkpt lat="48.9833" lon="6.85384">
        <ele>194.97</ele>
        <time>2026-08-13T07:07:07.811Z</time>
      </trkpt>
      <trkpt lat="48.98321" lon="6.85363">
        <ele>195.11</ele>
        <time>2026-08-13T07:07:13.798Z</time>
      </trkpt>
      <trkpt lat="48.98313" lon="6.85344">
        <ele>195.44</ele>
        <time>2026-08-13T07:07:19.797Z</time>
      </trkpt>
      <trkpt lat="48.98304" lon="6.85325">
        <ele>196.43</ele>
        <time>2026-08-13T07:07:25.796Z</time>
      </trkpt>
      <trkpt lat="48.98295" lon="6.85307">
        <ele>196.77</ele>
        <time>2026-08-13T07:07:31.786Z</time>
      </trkpt>
      <trkpt lat="48.98287" lon="6.85288">
        <ele>196.76</ele>
        <time>2026-08-13T07:07:37.785Z</time>
      </trkpt>
      <trkpt lat="48.98278" lon="6.85268">
        <ele>197.07</ele>
        <time>2026-08-13T07:07:43.799Z</time>
      </trkpt>
      <trkpt lat="48.9827" lon="6.85247">
        <ele>196.89</ele>
        <time>2026-08-13T07:07:49.787Z</time>
      </trkpt>
      <trkpt lat="48.98262" lon="6.85228">
        <ele>196.64</ele>
        <time>2026-08-13T07:07:55.799Z</time>
      </trkpt>
      <trkpt lat="48.98252" lon="6.85208">
        <ele>196.82</ele>
        <time>2026-08-13T07:08:01.802Z</time>
      </trkpt>
      <trkpt lat="48.98242" lon="6.85185">
        <ele>196.23</ele>
        <time>2026-08-13T07:08:07.802Z</time>
      </trkpt>
      <trkpt lat="48.98232" lon="6.85163">
        <ele>196</ele>
        <time>2026-08-13T07:08:13.813Z</time>
      </trkpt>
      <trkpt lat="48.9822" lon="6.85138">
        <ele>195.53</ele>
        <time>2026-08-13T07:08:19.805Z</time>
      </trkpt>
      <trkpt lat="48.98201" lon="6.85141">
        <ele>194.63</ele>
        <time>2026-08-13T07:08:25.814Z</time>
      </trkpt>
      <trkpt lat="48.98185" lon="6.8516">
        <ele>194.9</ele>
        <time>2026-08-13T07:08:31.807Z</time>
      </trkpt>
      <trkpt lat="48.98166" lon="6.8518">
        <ele>195.44</ele>
        <time>2026-08-13T07:08:37.799Z</time>
      </trkpt>
      <trkpt lat="48.98147" lon="6.85201">
        <ele>194.66</ele>
        <time>2026-08-13T07:08:43.791Z</time>
      </trkpt>
      <trkpt lat="48.98126" lon="6.85218">
        <ele>194.34</ele>
        <time>2026-08-13T07:08:49.803Z</time>
      </trkpt>
      <trkpt lat="48.98103" lon="6.85203">
        <ele>195.38</ele>
        <time>2026-08-13T07:08:55.799Z</time>
      </trkpt>
      <trkpt lat="48.98082" lon="6.85181">
        <ele>195.76</ele>
        <time>2026-08-13T07:09:01.780Z</time>
      </trkpt>
      <trkpt lat="48.98063" lon="6.85162">
        <ele>196.86</ele>
        <time>2026-08-13T07:09:07.816Z</time>
      </trkpt>
      <trkpt lat="48.98044" lon="6.85143">
        <ele>198.02</ele>
        <time>2026-08-13T07:09:13.814Z</time>
      </trkpt>
      <trkpt lat="48.98025" lon="6.85124">
        <ele>198.94</ele>
        <time>2026-08-13T07:09:19.811Z</time>
      </trkpt>
      <trkpt lat="48.98007" lon="6.85104">
        <ele>200.66</ele>
        <time>2026-08-13T07:09:25.805Z</time>
      </trkpt>
      <trkpt lat="48.97989" lon="6.85084">
        <ele>201.58</ele>
        <time>2026-08-13T07:09:31.803Z</time>
      </trkpt>
      <trkpt lat="48.97975" lon="6.85058">
        <ele>201.12</ele>
        <time>2026-08-13T07:09:37.818Z</time>
      </trkpt>
      <trkpt lat="48.97959" lon="6.85032">
        <ele>201.5</ele>
        <time>2026-08-13T07:09:43.806Z</time>
      </trkpt>
      <trkpt lat="48.97943" lon="6.85002">
        <ele>201.2</ele>
        <time>2026-08-13T07:09:49.807Z</time>
      </trkpt>
      <trkpt lat="48.97924" lon="6.8497">
        <ele>200.09</ele>
        <time>2026-08-13T07:09:55.805Z</time>
      </trkpt>
      <trkpt lat="48.97902" lon="6.84938">
        <ele>199.41</ele>
        <time>2026-08-13T07:10:01.809Z</time>
      </trkpt>
      <trkpt lat="48.97878" lon="6.84903">
        <ele>199.14</ele>
        <time>2026-08-13T07:10:07.810Z</time>
      </trkpt>
      <trkpt lat="48.97853" lon="6.84863">
        <ele>198.92</ele>
        <time>2026-08-13T07:10:13.808Z</time>
      </trkpt>
      <trkpt lat="48.97827" lon="6.8482">
        <ele>197.45</ele>
        <time>2026-08-13T07:10:19.807Z</time>
      </trkpt>
      <trkpt lat="48.978" lon="6.84774">
        <ele>196.14</ele>
        <time>2026-08-13T07:10:25.805Z</time>
      </trkpt>
      <trkpt lat="48.97766" lon="6.84724">
        <ele>194.03</ele>
        <time>2026-08-13T07:10:31.801Z</time>
      </trkpt>
      <trkpt lat="48.97728" lon="6.84667">
        <ele>191.56</ele>
        <time>2026-08-13T07:10:37.807Z</time>
      </trkpt>
      <trkpt lat="48.97683" lon="6.84605">
        <ele>188.04</ele>
        <time>2026-08-13T07:10:43.807Z</time>
      </trkpt>
      <trkpt lat="48.97626" lon="6.84562">
        <ele>183.91</ele>
        <time>2026-08-13T07:10:49.811Z</time>
      </trkpt>
      <trkpt lat="48.97562" lon="6.84524">
        <ele>179.63</ele>
        <time>2026-08-13T07:10:55.804Z</time>
      </trkpt>
      <trkpt lat="48.975" lon="6.84515">
        <ele>178.02</ele>
        <time>2026-08-13T07:11:01.807Z</time>
      </trkpt>
      <trkpt lat="48.9745" lon="6.84539">
        <ele>179.21</ele>
        <time>2026-08-13T07:11:07.806Z</time>
      </trkpt>
      <trkpt lat="48.97414" lon="6.84557">
        <ele>180.33</ele>
        <time>2026-08-13T07:11:13.810Z</time>
      </trkpt>
      <trkpt lat="48.97392" lon="6.84568">
        <ele>180.68</ele>
        <time>2026-08-13T07:11:19.807Z</time>
      </trkpt>
      <trkpt lat="48.97371" lon="6.84577">
        <ele>180.34</ele>
        <time>2026-08-13T07:11:25.806Z</time>
      </trkpt>
      <trkpt lat="48.97357" lon="6.84554">
        <ele>181.84</ele>
        <time>2026-08-13T07:11:31.808Z</time>
      </trkpt>
      <trkpt lat="48.97345" lon="6.84526">
        <ele>184.67</ele>
        <time>2026-08-13T07:11:37.809Z</time>
      </trkpt>
      <trkpt lat="48.97334" lon="6.84495">
        <ele>186.21</ele>
        <time>2026-08-13T07:11:43.806Z</time>
      </trkpt>
      <trkpt lat="48.9732" lon="6.84461">
        <ele>185.3</ele>
        <time>2026-08-13T07:11:49.808Z</time>
      </trkpt>
      <trkpt lat="48.97304" lon="6.84425">
        <ele>182.4</ele>
        <time>2026-08-13T07:11:55.807Z</time>
      </trkpt>
      <trkpt lat="48.97288" lon="6.84385">
        <ele>181.99</ele>
        <time>2026-08-13T07:12:01.808Z</time>
      </trkpt>
      <trkpt lat="48.97274" lon="6.84344">
        <ele>183.89</ele>
        <time>2026-08-13T07:12:07.807Z</time>
      </trkpt>
      <trkpt lat="48.97263" lon="6.84313">
        <ele>185.22</ele>
        <time>2026-08-13T07:12:13.804Z</time>
      </trkpt>
      <trkpt lat="48.97251" lon="6.8428">
        <ele>184.74</ele>
        <time>2026-08-13T07:12:19.809Z</time>
      </trkpt>
      <trkpt lat="48.97238" lon="6.84247">
        <ele>185.32</ele>
        <time>2026-08-13T07:12:25.807Z</time>
      </trkpt>
      <trkpt lat="48.97223" lon="6.84218">
        <ele>188.38</ele>
        <time>2026-08-13T07:12:31.813Z</time>
      </trkpt>
      <trkpt lat="48.97211" lon="6.84191">
        <ele>230.76</ele>
        <time>2026-08-13T07:12:37.815Z</time>
      </trkpt>
      <trkpt lat="48.97203" lon="6.84166">
        <ele>233.5</ele>
        <time>2026-08-13T07:12:43.870Z</time>
      </trkpt>
      <trkpt lat="48.97183" lon="6.84136">
        <ele>233.5</ele>
        <time>2026-08-13T07:12:49.799Z</time>
      </trkpt>
      <trkpt lat="48.97173" lon="6.84108">
        <ele>233.5</ele>
        <time>2026-08-13T07:12:55.803Z</time>
      </trkpt>
      <trkpt lat="48.97157" lon="6.84075">
        <ele>234</ele>
        <time>2026-08-13T07:13:01.803Z</time>
      </trkpt>
      <trkpt lat="48.97137" lon="6.84044">
        <ele>234.45</ele>
        <time>2026-08-13T07:13:07.805Z</time>
      </trkpt>
      <trkpt lat="48.97122" lon="6.84007">
        <ele>234.6</ele>
        <time>2026-08-13T07:13:13.789Z</time>
      </trkpt>
      <trkpt lat="48.97093" lon="6.83985">
        <ele>234.6</ele>
        <time>2026-08-13T07:13:19.833Z</time>
      </trkpt>
      <trkpt lat="48.97054" lon="6.84002">
        <ele>234.6</ele>
        <time>2026-08-13T07:13:25.807Z</time>
      </trkpt>
      <trkpt lat="48.97022" lon="6.84003">
        <ele>234.6</ele>
        <time>2026-08-13T07:13:31.804Z</time>
      </trkpt>
      <trkpt lat="48.96999" lon="6.83971">
        <ele>234.6</ele>
        <time>2026-08-13T07:13:37.785Z</time>
      </trkpt>
      <trkpt lat="48.96976" lon="6.83944">
        <ele>234.6</ele>
        <time>2026-08-13T07:13:43.791Z</time>
      </trkpt>
      <trkpt lat="48.96954" lon="6.83918">
        <ele>234.6</ele>
        <time>2026-08-13T07:13:49.813Z</time>
      </trkpt>
      <trkpt lat="48.96931" lon="6.83893">
        <ele>234.6</ele>
        <time>2026-08-13T07:13:55.815Z</time>
      </trkpt>
      <trkpt lat="48.9691" lon="6.83868">
        <ele>234.6</ele>
        <time>2026-08-13T07:14:01.809Z</time>
      </trkpt>
      <trkpt lat="48.96891" lon="6.8384">
        <ele>234.6</ele>
        <time>2026-08-13T07:14:07.810Z</time>
      </trkpt>
      <trkpt lat="48.96874" lon="6.83811">
        <ele>234.6</ele>
        <time>2026-08-13T07:14:13.787Z</time>
      </trkpt>
      <trkpt lat="48.96862" lon="6.83788">
        <ele>234.6</ele>
        <time>2026-08-13T07:14:19.805Z</time>
      </trkpt>
      <trkpt lat="48.9685" lon="6.83767">
        <ele>234.6</ele>
        <time>2026-08-13T07:14:25.818Z</time>
      </trkpt>
      <trkpt lat="48.96837" lon="6.83748">
        <ele>234.6</ele>
        <time>2026-08-13T07:14:31.802Z</time>
      </trkpt>
      <trkpt lat="48.96826" lon="6.83731">
        <ele>199.39</ele>
        <time>2026-08-13T07:14:37.809Z</time>
      </trkpt>
      <trkpt lat="48.96815" lon="6.83715">
        <ele>197.37</ele>
        <time>2026-08-13T07:14:43.808Z</time>
      </trkpt>
      <trkpt lat="48.96803" lon="6.837">
        <ele>198.56</ele>
        <time>2026-08-13T07:14:49.809Z</time>
      </trkpt>
      <trkpt lat="48.96791" lon="6.83684">
        <ele>198.85</ele>
        <time>2026-08-13T07:14:55.813Z</time>
      </trkpt>
      <trkpt lat="48.96777" lon="6.83668">
        <ele>199.23</ele>
        <time>2026-08-13T07:15:01.812Z</time>
      </trkpt>
      <trkpt lat="48.96766" lon="6.83654">
        <ele>200.66</ele>
        <time>2026-08-13T07:15:07.802Z</time>
      </trkpt>
      <trkpt lat="48.96753" lon="6.83637">
        <ele>201.76</ele>
        <time>2026-08-13T07:15:13.802Z</time>
      </trkpt>
      <trkpt lat="48.96741" lon="6.8362">
        <ele>201.33</ele>
        <time>2026-08-13T07:15:19.802Z</time>
      </trkpt>
      <trkpt lat="48.96728" lon="6.83603">
        <ele>202.11</ele>
        <time>2026-08-13T07:15:25.814Z</time>
      </trkpt>
      <trkpt lat="48.96718" lon="6.83584">
        <ele>203.58</ele>
        <time>2026-08-13T07:15:31.809Z</time>
      </trkpt>
      <trkpt lat="48.96708" lon="6.83559">
        <ele>204.11</ele>
        <time>2026-08-13T07:15:37.802Z</time>
      </trkpt>
      <trkpt lat="48.96696" lon="6.8353">
        <ele>204.19</ele>
        <time>2026-08-13T07:15:43.805Z</time>
      </trkpt>
      <trkpt lat="48.96678" lon="6.83491">
        <ele>204.24</ele>
        <time>2026-08-13T07:15:49.801Z</time>
      </trkpt>
      <trkpt lat="48.96656" lon="6.83445">
        <ele>202.87</ele>
        <time>2026-08-13T07:15:55.783Z</time>
      </trkpt>
      <trkpt lat="48.96634" lon="6.83397">
        <ele>201.06</ele>
        <time>2026-08-13T07:16:01.812Z</time>
      </trkpt>
      <trkpt lat="48.96613" lon="6.83358">
        <ele>201.65</ele>
        <time>2026-08-13T07:16:07.805Z</time>
      </trkpt>
      <trkpt lat="48.96594" lon="6.83325">
        <ele>202.49</ele>
        <time>2026-08-13T07:16:13.807Z</time>
      </trkpt>
      <trkpt lat="48.96574" lon="6.83288">
        <ele>201.93</ele>
        <time>2026-08-13T07:16:19.805Z</time>
      </trkpt>
      <trkpt lat="48.96552" lon="6.83249">
        <ele>202.24</ele>
        <time>2026-08-13T07:16:25.809Z</time>
      </trkpt>
      <trkpt lat="48.96527" lon="6.83215">
        <ele>202.78</ele>
        <time>2026-08-13T07:16:31.807Z</time>
      </trkpt>
      <trkpt lat="48.96501" lon="6.83183">
        <ele>203.48</ele>
        <time>2026-08-13T07:16:37.805Z</time>
      </trkpt>
      <trkpt lat="48.96478" lon="6.83148">
        <ele>204.45</ele>
        <time>2026-08-13T07:16:43.806Z</time>
      </trkpt>
      <trkpt lat="48.96451" lon="6.83116">
        <ele>204.85</ele>
        <time>2026-08-13T07:16:49.808Z</time>
      </trkpt>
      <trkpt lat="48.96422" lon="6.83088">
        <ele>205.2</ele>
        <time>2026-08-13T07:16:55.814Z</time>
      </trkpt>
      <trkpt lat="48.96398" lon="6.83062">
        <ele>203.43</ele>
        <time>2026-08-13T07:17:01.808Z</time>
      </trkpt>
      <trkpt lat="48.96372" lon="6.83039">
        <ele>200.43</ele>
        <time>2026-08-13T07:17:07.807Z</time>
      </trkpt>
      <trkpt lat="48.96337" lon="6.83002">
        <ele>197.62</ele>
        <time>2026-08-13T07:17:13.804Z</time>
      </trkpt>
      <trkpt lat="48.96314" lon="6.82976">
        <ele>196.94</ele>
        <time>2026-08-13T07:17:18.816Z</time>
      </trkpt>
      <trkpt lat="48.96307" lon="6.82968">
        <ele>195.3</ele>
        <time>2026-08-13T07:17:57.727Z</time>
      </trkpt>
      <trkpt lat="48.963" lon="6.82957">
        <ele>194.48</ele>
        <time>2026-08-13T07:18:36.743Z</time>
      </trkpt>
      <trkpt lat="48.96293" lon="6.82947">
        <ele>194.47</ele>
        <time>2026-08-13T07:18:48.743Z</time>
      </trkpt>
      <trkpt lat="48.96272" lon="6.82918">
        <ele>194.75</ele>
        <time>2026-08-13T07:18:54.758Z</time>
      </trkpt>
      <trkpt lat="48.96251" lon="6.8288">
        <ele>193.39</ele>
        <time>2026-08-13T07:19:00.799Z</time>
      </trkpt>
      <trkpt lat="48.96245" lon="6.8287">
        <ele>193.88</ele>
        <time>2026-08-13T07:19:41.724Z</time>
      </trkpt>
      <trkpt lat="48.96223" lon="6.82838">
        <ele>192.55</ele>
        <time>2026-08-13T07:19:46.727Z</time>
      </trkpt>
      <trkpt lat="48.96194" lon="6.82794">
        <ele>190.41</ele>
        <time>2026-08-13T07:19:52.731Z</time>
      </trkpt>
      <trkpt lat="48.96181" lon="6.82771">
        <ele>189.03</ele>
        <time>2026-08-13T07:19:58.743Z</time>
      </trkpt>
      <trkpt lat="48.96164" lon="6.82737">
        <ele>186.81</ele>
        <time>2026-08-13T07:20:04.740Z</time>
      </trkpt>
      <trkpt lat="48.96142" lon="6.82687">
        <ele>185.21</ele>
        <time>2026-08-13T07:20:10.747Z</time>
      </trkpt>
      <trkpt lat="48.96133" lon="6.8266">
        <ele>184.25</ele>
        <time>2026-08-13T07:20:16.740Z</time>
      </trkpt>
      <trkpt lat="48.96122" lon="6.82641">
        <ele>183.89</ele>
        <time>2026-08-13T07:20:21.743Z</time>
      </trkpt>
      <trkpt lat="48.96103" lon="6.82587">
        <ele>181.38</ele>
        <time>2026-08-13T07:20:27.737Z</time>
      </trkpt>
      <trkpt lat="48.96084" lon="6.82533">
        <ele>179.56</ele>
        <time>2026-08-13T07:20:33.726Z</time>
      </trkpt>
      <trkpt lat="48.96067" lon="6.82489">
        <ele>179.55</ele>
        <time>2026-08-13T07:20:38.751Z</time>
      </trkpt>
      <trkpt lat="48.96051" lon="6.82445">
        <ele>180.01</ele>
        <time>2026-08-13T07:20:43.786Z</time>
      </trkpt>
      <trkpt lat="48.96041" lon="6.8242">
        <ele>178.19</ele>
        <time>2026-08-13T07:20:49.803Z</time>
      </trkpt>
      <trkpt lat="48.96026" lon="6.8238">
        <ele>177.45</ele>
        <time>2026-08-13T07:20:55.806Z</time>
      </trkpt>
      <trkpt lat="48.96006" lon="6.8233">
        <ele>177.61</ele>
        <time>2026-08-13T07:21:01.791Z</time>
      </trkpt>
      <trkpt lat="48.95987" lon="6.82281">
        <ele>178.13</ele>
        <time>2026-08-13T07:21:07.796Z</time>
      </trkpt>
      <trkpt lat="48.95971" lon="6.82235">
        <ele>177.68</ele>
        <time>2026-08-13T07:21:13.789Z</time>
      </trkpt>
      <trkpt lat="48.95955" lon="6.82191">
        <ele>177.86</ele>
        <time>2026-08-13T07:21:19.792Z</time>
      </trkpt>
      <trkpt lat="48.95939" lon="6.82143">
        <ele>178.74</ele>
        <time>2026-08-13T07:21:25.796Z</time>
      </trkpt>
      <trkpt lat="48.95922" lon="6.82097">
        <ele>178.74</ele>
        <time>2026-08-13T07:21:31.810Z</time>
      </trkpt>
      <trkpt lat="48.95911" lon="6.82064">
        <ele>179.41</ele>
        <time>2026-08-13T07:21:37.785Z</time>
      </trkpt>
      <trkpt lat="48.95904" lon="6.82046">
        <ele>179.54</ele>
        <time>2026-08-13T07:21:43.788Z</time>
      </trkpt>
      <trkpt lat="48.95898" lon="6.82031">
        <ele>181.4</ele>
        <time>2026-08-13T07:21:49.791Z</time>
      </trkpt>
      <trkpt lat="48.95891" lon="6.82014">
        <ele>184.18</ele>
        <time>2026-08-13T07:21:55.802Z</time>
      </trkpt>
      <trkpt lat="48.95886" lon="6.82">
        <ele>186.21</ele>
        <time>2026-08-13T07:22:01.803Z</time>
      </trkpt>
      <trkpt lat="48.95878" lon="6.81985">
        <ele>186.68</ele>
        <time>2026-08-13T07:22:07.802Z</time>
      </trkpt>
      <trkpt lat="48.9587" lon="6.81969">
        <ele>186.77</ele>
        <time>2026-08-13T07:22:13.788Z</time>
      </trkpt>
      <trkpt lat="48.95862" lon="6.81954">
        <ele>188.42</ele>
        <time>2026-08-13T07:22:19.790Z</time>
      </trkpt>
      <trkpt lat="48.95855" lon="6.81937">
        <ele>190.2</ele>
        <time>2026-08-13T07:22:25.811Z</time>
      </trkpt>
      <trkpt lat="48.95846" lon="6.8192">
        <ele>191.79</ele>
        <time>2026-08-13T07:22:31.788Z</time>
      </trkpt>
      <trkpt lat="48.95839" lon="6.81902">
        <ele>191.65</ele>
        <time>2026-08-13T07:22:37.797Z</time>
      </trkpt>
      <trkpt lat="48.95829" lon="6.8188">
        <ele>190.55</ele>
        <time>2026-08-13T07:22:43.798Z</time>
      </trkpt>
      <trkpt lat="48.95818" lon="6.81856">
        <ele>190.89</ele>
        <time>2026-08-13T07:22:49.789Z</time>
      </trkpt>
      <trkpt lat="48.95807" lon="6.81832">
        <ele>189.96</ele>
        <time>2026-08-13T07:22:55.802Z</time>
      </trkpt>
      <trkpt lat="48.95797" lon="6.81802">
        <ele>189.76</ele>
        <time>2026-08-13T07:23:01.798Z</time>
      </trkpt>
      <trkpt lat="48.95786" lon="6.8177">
        <ele>191.27</ele>
        <time>2026-08-13T07:23:07.810Z</time>
      </trkpt>
      <trkpt lat="48.95778" lon="6.8173">
        <ele>191.74</ele>
        <time>2026-08-13T07:23:13.812Z</time>
      </trkpt>
      <trkpt lat="48.95771" lon="6.81687">
        <ele>192.55</ele>
        <time>2026-08-13T07:23:19.801Z</time>
      </trkpt>
      <trkpt lat="48.95766" lon="6.81643">
        <ele>194.62</ele>
        <time>2026-08-13T07:23:25.813Z</time>
      </trkpt>
      <trkpt lat="48.95761" lon="6.81606">
        <ele>194.61</ele>
        <time>2026-08-13T07:23:31.811Z</time>
      </trkpt>
      <trkpt lat="48.95754" lon="6.81565">
        <ele>193.54</ele>
        <time>2026-08-13T07:23:37.800Z</time>
      </trkpt>
      <trkpt lat="48.95745" lon="6.81522">
        <ele>193.25</ele>
        <time>2026-08-13T07:23:43.789Z</time>
      </trkpt>
      <trkpt lat="48.95735" lon="6.81479">
        <ele>192.78</ele>
        <time>2026-08-13T07:23:49.799Z</time>
      </trkpt>
      <trkpt lat="48.95726" lon="6.81444">
        <ele>194.85</ele>
        <time>2026-08-13T07:23:55.797Z</time>
      </trkpt>
      <trkpt lat="48.95713" lon="6.81411">
        <ele>194.64</ele>
        <time>2026-08-13T07:24:01.801Z</time>
      </trkpt>
      <trkpt lat="48.95697" lon="6.81371">
        <ele>193.36</ele>
        <time>2026-08-13T07:24:07.803Z</time>
      </trkpt>
      <trkpt lat="48.95688" lon="6.81318">
        <ele>192.05</ele>
        <time>2026-08-13T07:24:13.797Z</time>
      </trkpt>
      <trkpt lat="48.9568" lon="6.8127">
        <ele>190.68</ele>
        <time>2026-08-13T07:24:19.791Z</time>
      </trkpt>
      <trkpt lat="48.95675" lon="6.81219">
        <ele>190.15</ele>
        <time>2026-08-13T07:24:25.795Z</time>
      </trkpt>
      <trkpt lat="48.95678" lon="6.81163">
        <ele>189.04</ele>
        <time>2026-08-13T07:24:31.847Z</time>
      </trkpt>
      <trkpt lat="48.95705" lon="6.8111">
        <ele>187.84</ele>
        <time>2026-08-13T07:24:37.796Z</time>
      </trkpt>
      <trkpt lat="48.95724" lon="6.81026">
        <ele>184.04</ele>
        <time>2026-08-13T07:24:43.803Z</time>
      </trkpt>
      <trkpt lat="48.95709" lon="6.8093">
        <ele>181.78</ele>
        <time>2026-08-13T07:24:49.782Z</time>
      </trkpt>
      <trkpt lat="48.95699" lon="6.80866">
        <ele>178.07</ele>
        <time>2026-08-13T07:24:55.794Z</time>
      </trkpt>
      <trkpt lat="48.95691" lon="6.8082">
        <ele>176.11</ele>
        <time>2026-08-13T07:25:01.780Z</time>
      </trkpt>
      <trkpt lat="48.95685" lon="6.80776">
        <ele>179.09</ele>
        <time>2026-08-13T07:25:07.819Z</time>
      </trkpt>
      <trkpt lat="48.95681" lon="6.80747">
        <ele>181.26</ele>
        <time>2026-08-13T07:25:13.796Z</time>
      </trkpt>
      <trkpt lat="48.95679" lon="6.80726">
        <ele>182.57</ele>
        <time>2026-08-13T07:25:19.791Z</time>
      </trkpt>
      <trkpt lat="48.95676" lon="6.80703">
        <ele>184.13</ele>
        <time>2026-08-13T07:25:25.817Z</time>
      </trkpt>
      <trkpt lat="48.95668" lon="6.80682">
        <ele>183.58</ele>
        <time>2026-08-13T07:25:31.809Z</time>
      </trkpt>
      <trkpt lat="48.95656" lon="6.80671">
        <ele>183.03</ele>
        <time>2026-08-13T07:25:37.794Z</time>
      </trkpt>
      <trkpt lat="48.95642" lon="6.8065">
        <ele>183.13</ele>
        <time>2026-08-13T07:25:43.783Z</time>
      </trkpt>
      <trkpt lat="48.95628" lon="6.80625">
        <ele>181.76</ele>
        <time>2026-08-13T07:25:49.780Z</time>
      </trkpt>
      <trkpt lat="48.95619" lon="6.8059">
        <ele>181.09</ele>
        <time>2026-08-13T07:25:55.792Z</time>
      </trkpt>
      <trkpt lat="48.95616" lon="6.80542">
        <ele>179.89</ele>
        <time>2026-08-13T07:26:01.781Z</time>
      </trkpt>
      <trkpt lat="48.9561" lon="6.80488">
        <ele>180.73</ele>
        <time>2026-08-13T07:26:07.796Z</time>
      </trkpt>
      <trkpt lat="48.95586" lon="6.80445">
        <ele>179.44</ele>
        <time>2026-08-13T07:26:13.798Z</time>
      </trkpt>
      <trkpt lat="48.95555" lon="6.80407">
        <ele>176.51</ele>
        <time>2026-08-13T07:26:19.794Z</time>
      </trkpt>
      <trkpt lat="48.95525" lon="6.80369">
        <ele>174.31</ele>
        <time>2026-08-13T07:26:25.796Z</time>
      </trkpt>
      <trkpt lat="48.95493" lon="6.8033">
        <ele>172.78</ele>
        <time>2026-08-13T07:26:31.790Z</time>
      </trkpt>
      <trkpt lat="48.95459" lon="6.80289">
        <ele>172.46</ele>
        <time>2026-08-13T07:26:37.793Z</time>
      </trkpt>
      <trkpt lat="48.95433" lon="6.80242">
        <ele>173.49</ele>
        <time>2026-08-13T07:26:43.809Z</time>
      </trkpt>
      <trkpt lat="48.95427" lon="6.80184">
        <ele>174.64</ele>
        <time>2026-08-13T07:26:49.793Z</time>
      </trkpt>
      <trkpt lat="48.95422" lon="6.80133">
        <ele>174.1</ele>
        <time>2026-08-13T07:26:55.814Z</time>
      </trkpt>
      <trkpt lat="48.95418" lon="6.80097">
        <ele>174.15</ele>
        <time>2026-08-13T07:27:01.797Z</time>
      </trkpt>
      <trkpt lat="48.9542" lon="6.80059">
        <ele>175.25</ele>
        <time>2026-08-13T07:27:07.782Z</time>
      </trkpt>
      <trkpt lat="48.95424" lon="6.80018">
        <ele>174.63</ele>
        <time>2026-08-13T07:27:13.809Z</time>
      </trkpt>
      <trkpt lat="48.95429" lon="6.79975">
        <ele>174.49</ele>
        <time>2026-08-13T07:27:19.785Z</time>
      </trkpt>
      <trkpt lat="48.95435" lon="6.79933">
        <ele>174.2</ele>
        <time>2026-08-13T07:27:25.796Z</time>
      </trkpt>
      <trkpt lat="48.9544" lon="6.79896">
        <ele>173.7</ele>
        <time>2026-08-13T07:27:31.783Z</time>
      </trkpt>
      <trkpt lat="48.95445" lon="6.79866">
        <ele>174</ele>
        <time>2026-08-13T07:27:37.789Z</time>
      </trkpt>
      <trkpt lat="48.9545" lon="6.79843">
        <ele>175.07</ele>
        <time>2026-08-13T07:27:43.795Z</time>
      </trkpt>
      <trkpt lat="48.95455" lon="6.79822">
        <ele>176.37</ele>
        <time>2026-08-13T07:27:49.800Z</time>
      </trkpt>
      <trkpt lat="48.95463" lon="6.79799">
        <ele>177.64</ele>
        <time>2026-08-13T07:27:55.809Z</time>
      </trkpt>
      <trkpt lat="48.95469" lon="6.79781">
        <ele>178.14</ele>
        <time>2026-08-13T07:28:01.849Z</time>
      </trkpt>
      <trkpt lat="48.95474" lon="6.79766">
        <ele>179.1</ele>
        <time>2026-08-13T07:28:07.793Z</time>
      </trkpt>
      <trkpt lat="48.95479" lon="6.7975">
        <ele>179.47</ele>
        <time>2026-08-13T07:28:13.781Z</time>
      </trkpt>
      <trkpt lat="48.95484" lon="6.79735">
        <ele>179.42</ele>
        <time>2026-08-13T07:28:19.786Z</time>
      </trkpt>
      <trkpt lat="48.95491" lon="6.79721">
        <ele>181.18</ele>
        <time>2026-08-13T07:28:25.782Z</time>
      </trkpt>
      <trkpt lat="48.95495" lon="6.79706">
        <ele>233.53</ele>
        <time>2026-08-13T07:28:38.727Z</time>
      </trkpt>
      <trkpt lat="48.95499" lon="6.79693">
        <ele>233.14</ele>
        <time>2026-08-13T07:28:44.733Z</time>
      </trkpt>
      <trkpt lat="48.95503" lon="6.79678">
        <ele>233.24</ele>
        <time>2026-08-13T07:28:49.795Z</time>
      </trkpt>
      <trkpt lat="48.95507" lon="6.79665">
        <ele>232.19</ele>
        <time>2026-08-13T07:28:56.744Z</time>
      </trkpt>
      <trkpt lat="48.95509" lon="6.79652">
        <ele>232.89</ele>
        <time>2026-08-13T07:29:03.563Z</time>
      </trkpt>
      <trkpt lat="48.95515" lon="6.79637">
        <ele>233.24</ele>
        <time>2026-08-13T07:29:08.740Z</time>
      </trkpt>
      <trkpt lat="48.95518" lon="6.79622">
        <ele>233.25</ele>
        <time>2026-08-13T07:29:13.783Z</time>
      </trkpt>
      <trkpt lat="48.95524" lon="6.79604">
        <ele>233.25</ele>
        <time>2026-08-13T07:29:19.780Z</time>
      </trkpt>
      <trkpt lat="48.95528" lon="6.7959">
        <ele>233.25</ele>
        <time>2026-08-13T07:29:25.810Z</time>
      </trkpt>
      <trkpt lat="48.95529" lon="6.79576">
        <ele>233.25</ele>
        <time>2026-08-13T07:29:32.749Z</time>
      </trkpt>
      <trkpt lat="48.95516" lon="6.79563">
        <ele>233.25</ele>
        <time>2026-08-13T07:29:37.793Z</time>
      </trkpt>
      <trkpt lat="48.955" lon="6.79549">
        <ele>233.25</ele>
        <time>2026-08-13T07:29:43.782Z</time>
      </trkpt>
      <trkpt lat="48.9548" lon="6.79535">
        <ele>233.15</ele>
        <time>2026-08-13T07:29:49.781Z</time>
      </trkpt>
      <trkpt lat="48.9546" lon="6.79514">
        <ele>233.15</ele>
        <time>2026-08-13T07:29:55.810Z</time>
      </trkpt>
      <trkpt lat="48.95435" lon="6.79496">
        <ele>233.15</ele>
        <time>2026-08-13T07:30:01.788Z</time>
      </trkpt>
      <trkpt lat="48.95406" lon="6.79472">
        <ele>233.15</ele>
        <time>2026-08-13T07:30:07.793Z</time>
      </trkpt>
      <trkpt lat="48.95377" lon="6.79446">
        <ele>233.15</ele>
        <time>2026-08-13T07:30:13.799Z</time>
      </trkpt>
      <trkpt lat="48.95345" lon="6.79421">
        <ele>233.15</ele>
        <time>2026-08-13T07:30:19.793Z</time>
      </trkpt>
      <trkpt lat="48.95313" lon="6.79394">
        <ele>233.15</ele>
        <time>2026-08-13T07:30:25.806Z</time>
      </trkpt>
      <trkpt lat="48.9528" lon="6.79366">
        <ele>233.15</ele>
        <time>2026-08-13T07:30:31.800Z</time>
      </trkpt>
      <trkpt lat="48.95246" lon="6.79339">
        <ele>233.15</ele>
        <time>2026-08-13T07:30:37.798Z</time>
      </trkpt>
      <trkpt lat="48.95213" lon="6.79311">
        <ele>233.15</ele>
        <time>2026-08-13T07:30:43.793Z</time>
      </trkpt>
      <trkpt lat="48.95179" lon="6.79284">
        <ele>233.15</ele>
        <time>2026-08-13T07:30:49.796Z</time>
      </trkpt>
      <trkpt lat="48.95147" lon="6.79257">
        <ele>233.15</ele>
        <time>2026-08-13T07:30:55.806Z</time>
      </trkpt>
      <trkpt lat="48.95111" lon="6.79227">
        <ele>233.15</ele>
        <time>2026-08-13T07:31:01.780Z</time>
      </trkpt>
      <trkpt lat="48.95073" lon="6.79196">
        <ele>233.15</ele>
        <time>2026-08-13T07:31:07.783Z</time>
      </trkpt>
      <trkpt lat="48.95039" lon="6.79168">
        <ele>233.15</ele>
        <time>2026-08-13T07:31:12.859Z</time>
      </trkpt>
      <trkpt lat="48.94997" lon="6.79134">
        <ele>182.09</ele>
        <time>2026-08-13T07:31:18.746Z</time>
      </trkpt>
      <trkpt lat="48.94965" lon="6.79108">
        <ele>181.52</ele>
        <time>2026-08-13T07:31:23.749Z</time>
      </trkpt>
      <trkpt lat="48.94926" lon="6.79076">
        <ele>182.29</ele>
        <time>2026-08-13T07:31:29.748Z</time>
      </trkpt>
      <trkpt lat="48.94893" lon="6.79048">
        <ele>183.62</ele>
        <time>2026-08-13T07:31:35.746Z</time>
      </trkpt>
      <trkpt lat="48.94863" lon="6.79023">
        <ele>184.21</ele>
        <time>2026-08-13T07:31:41.748Z</time>
      </trkpt>
      <trkpt lat="48.94833" lon="6.78998">
        <ele>184.47</ele>
        <time>2026-08-13T07:31:47.748Z</time>
      </trkpt>
      <trkpt lat="48.94804" lon="6.78974">
        <ele>184.14</ele>
        <time>2026-08-13T07:31:53.749Z</time>
      </trkpt>
      <trkpt lat="48.94772" lon="6.78949">
        <ele>183.42</ele>
        <time>2026-08-13T07:31:59.751Z</time>
      </trkpt>
      <trkpt lat="48.9474" lon="6.78923">
        <ele>182.95</ele>
        <time>2026-08-13T07:32:05.744Z</time>
      </trkpt>
      <trkpt lat="48.94714" lon="6.78903">
        <ele>181.91</ele>
        <time>2026-08-13T07:32:10.748Z</time>
      </trkpt>
      <trkpt lat="48.94684" lon="6.78877">
        <ele>181.82</ele>
        <time>2026-08-13T07:32:16.745Z</time>
      </trkpt>
      <trkpt lat="48.94654" lon="6.78852">
        <ele>183.05</ele>
        <time>2026-08-13T07:32:22.746Z</time>
      </trkpt>
      <trkpt lat="48.94625" lon="6.78829">
        <ele>183.87</ele>
        <time>2026-08-13T07:32:28.745Z</time>
      </trkpt>
      <trkpt lat="48.94596" lon="6.78805">
        <ele>184.32</ele>
        <time>2026-08-13T07:32:34.746Z</time>
      </trkpt>
      <trkpt lat="48.94572" lon="6.78785">
        <ele>184.27</ele>
        <time>2026-08-13T07:32:39.746Z</time>
      </trkpt>
      <trkpt lat="48.94542" lon="6.78762">
        <ele>184.38</ele>
        <time>2026-08-13T07:32:45.744Z</time>
      </trkpt>
      <trkpt lat="48.94517" lon="6.7874">
        <ele>185.47</ele>
        <time>2026-08-13T07:32:50.747Z</time>
      </trkpt>
      <trkpt lat="48.94492" lon="6.7872">
        <ele>186.38</ele>
        <time>2026-08-13T07:32:55.791Z</time>
      </trkpt>
      <trkpt lat="48.94459" lon="6.78693">
        <ele>186.43</ele>
        <time>2026-08-13T07:33:01.791Z</time>
      </trkpt>
      <trkpt lat="48.94428" lon="6.78667">
        <ele>186.15</ele>
        <time>2026-08-13T07:33:07.792Z</time>
      </trkpt>
      <trkpt lat="48.94397" lon="6.78641">
        <ele>186.07</ele>
        <time>2026-08-13T07:33:13.794Z</time>
      </trkpt>
      <trkpt lat="48.94367" lon="6.78611">
        <ele>186.34</ele>
        <time>2026-08-13T07:33:19.797Z</time>
      </trkpt>
      <trkpt lat="48.94336" lon="6.78579">
        <ele>187.54</ele>
        <time>2026-08-13T07:33:25.792Z</time>
      </trkpt>
      <trkpt lat="48.94306" lon="6.78546">
        <ele>187.22</ele>
        <time>2026-08-13T07:33:31.799Z</time>
      </trkpt>
      <trkpt lat="48.94275" lon="6.78513">
        <ele>186.34</ele>
        <time>2026-08-13T07:33:37.790Z</time>
      </trkpt>
      <trkpt lat="48.94247" lon="6.78481">
        <ele>187.45</ele>
        <time>2026-08-13T07:33:43.793Z</time>
      </trkpt>
      <trkpt lat="48.94219" lon="6.78447">
        <ele>189.21</ele>
        <time>2026-08-13T07:33:49.798Z</time>
      </trkpt>
      <trkpt lat="48.94186" lon="6.78409">
        <ele>189.24</ele>
        <time>2026-08-13T07:33:55.792Z</time>
      </trkpt>
      <trkpt lat="48.94148" lon="6.78371">
        <ele>187.2</ele>
        <time>2026-08-13T07:34:01.795Z</time>
      </trkpt>
      <trkpt lat="48.94104" lon="6.78338">
        <ele>184.19</ele>
        <time>2026-08-13T07:34:07.792Z</time>
      </trkpt>
      <trkpt lat="48.94058" lon="6.78304">
        <ele>177.97</ele>
        <time>2026-08-13T07:34:13.796Z</time>
      </trkpt>
      <trkpt lat="48.9401" lon="6.78277">
        <ele>173.56</ele>
        <time>2026-08-13T07:34:19.788Z</time>
      </trkpt>
      <trkpt lat="48.93962" lon="6.78265">
        <ele>172.54</ele>
        <time>2026-08-13T07:34:25.791Z</time>
      </trkpt>
      <trkpt lat="48.93917" lon="6.78257">
        <ele>172.42</ele>
        <time>2026-08-13T07:34:31.794Z</time>
      </trkpt>
      <trkpt lat="48.93877" lon="6.78251">
        <ele>173.2</ele>
        <time>2026-08-13T07:34:37.792Z</time>
      </trkpt>
      <trkpt lat="48.9384" lon="6.78253">
        <ele>174.23</ele>
        <time>2026-08-13T07:34:43.789Z</time>
      </trkpt>
      <trkpt lat="48.9381" lon="6.78259">
        <ele>176.26</ele>
        <time>2026-08-13T07:34:49.792Z</time>
      </trkpt>
      <trkpt lat="48.93785" lon="6.78267">
        <ele>178.25</ele>
        <time>2026-08-13T07:34:55.813Z</time>
      </trkpt>
      <trkpt lat="48.93759" lon="6.78272">
        <ele>178.94</ele>
        <time>2026-08-13T07:35:01.788Z</time>
      </trkpt>
      <trkpt lat="48.93738" lon="6.78247">
        <ele>179.39</ele>
        <time>2026-08-13T07:35:07.783Z</time>
      </trkpt>
      <trkpt lat="48.93724" lon="6.7821">
        <ele>182.48</ele>
        <time>2026-08-13T07:35:13.798Z</time>
      </trkpt>
      <trkpt lat="48.93709" lon="6.78176">
        <ele>183.79</ele>
        <time>2026-08-13T07:35:19.791Z</time>
      </trkpt>
      <trkpt lat="48.93694" lon="6.78143">
        <ele>185.26</ele>
        <time>2026-08-13T07:35:25.797Z</time>
      </trkpt>
      <trkpt lat="48.93677" lon="6.78112">
        <ele>228.8</ele>
        <time>2026-08-13T07:35:31.794Z</time>
      </trkpt>
      <trkpt lat="48.93658" lon="6.78079">
        <ele>228.85</ele>
        <time>2026-08-13T07:35:37.793Z</time>
      </trkpt>
      <trkpt lat="48.93638" lon="6.78046">
        <ele>228.85</ele>
        <time>2026-08-13T07:35:43.797Z</time>
      </trkpt>
      <trkpt lat="48.93616" lon="6.78014">
        <ele>228.85</ele>
        <time>2026-08-13T07:35:49.792Z</time>
      </trkpt>
      <trkpt lat="48.93596" lon="6.77985">
        <ele>228.85</ele>
        <time>2026-08-13T07:35:55.789Z</time>
      </trkpt>
      <trkpt lat="48.93574" lon="6.77959">
        <ele>228.85</ele>
        <time>2026-08-13T07:36:01.791Z</time>
      </trkpt>
      <trkpt lat="48.93551" lon="6.7793">
        <ele>228.85</ele>
        <time>2026-08-13T07:36:07.793Z</time>
      </trkpt>
      <trkpt lat="48.93527" lon="6.779">
        <ele>228.85</ele>
        <time>2026-08-13T07:36:13.788Z</time>
      </trkpt>
      <trkpt lat="48.93502" lon="6.7787">
        <ele>228.85</ele>
        <time>2026-08-13T07:36:19.792Z</time>
      </trkpt>
      <trkpt lat="48.93475" lon="6.77838">
        <ele>228.85</ele>
        <time>2026-08-13T07:36:25.791Z</time>
      </trkpt>
      <trkpt lat="48.93447" lon="6.77805">
        <ele>228.85</ele>
        <time>2026-08-13T07:36:31.789Z</time>
      </trkpt>
      <trkpt lat="48.9342" lon="6.77771">
        <ele>228.85</ele>
        <time>2026-08-13T07:36:37.789Z</time>
      </trkpt>
      <trkpt lat="48.93392" lon="6.77738">
        <ele>228.85</ele>
        <time>2026-08-13T07:36:43.789Z</time>
      </trkpt>
      <trkpt lat="48.93365" lon="6.77705">
        <ele>228.85</ele>
        <time>2026-08-13T07:36:49.791Z</time>
      </trkpt>
      <trkpt lat="48.93337" lon="6.77671">
        <ele>228.85</ele>
        <time>2026-08-13T07:36:55.796Z</time>
      </trkpt>
      <trkpt lat="48.93308" lon="6.77637">
        <ele>186.09</ele>
        <time>2026-08-13T07:37:01.792Z</time>
      </trkpt>
      <trkpt lat="48.93279" lon="6.77602">
        <ele>186.32</ele>
        <time>2026-08-13T07:37:07.803Z</time>
      </trkpt>
      <trkpt lat="48.93248" lon="6.77566">
        <ele>184.95</ele>
        <time>2026-08-13T07:37:13.794Z</time>
      </trkpt>
      <trkpt lat="48.93219" lon="6.7753">
        <ele>185</ele>
        <time>2026-08-13T07:37:19.795Z</time>
      </trkpt>
      <trkpt lat="48.9319" lon="6.77495">
        <ele>185.19</ele>
        <time>2026-08-13T07:37:25.806Z</time>
      </trkpt>
      <trkpt lat="48.9316" lon="6.7746">
        <ele>185.09</ele>
        <time>2026-08-13T07:37:31.790Z</time>
      </trkpt>
      <trkpt lat="48.9313" lon="6.77424">
        <ele>184.51</ele>
        <time>2026-08-13T07:37:37.791Z</time>
      </trkpt>
      <trkpt lat="48.931" lon="6.77388">
        <ele>185.57</ele>
        <time>2026-08-13T07:37:43.789Z</time>
      </trkpt>
      <trkpt lat="48.93071" lon="6.77353">
        <ele>186.64</ele>
        <time>2026-08-13T07:37:49.791Z</time>
      </trkpt>
      <trkpt lat="48.93042" lon="6.77319">
        <ele>187.83</ele>
        <time>2026-08-13T07:37:55.809Z</time>
      </trkpt>
      <trkpt lat="48.93013" lon="6.77285">
        <ele>188.28</ele>
        <time>2026-08-13T07:38:01.794Z</time>
      </trkpt>
      <trkpt lat="48.92983" lon="6.7725">
        <ele>187.74</ele>
        <time>2026-08-13T07:38:07.790Z</time>
      </trkpt>
      <trkpt lat="48.92955" lon="6.77215">
        <ele>187.27</ele>
        <time>2026-08-13T07:38:13.792Z</time>
      </trkpt>
      <trkpt lat="48.92927" lon="6.77182">
        <ele>187.07</ele>
        <time>2026-08-13T07:38:19.789Z</time>
      </trkpt>
      <trkpt lat="48.92898" lon="6.77148">
        <ele>187.55</ele>
        <time>2026-08-13T07:38:25.794Z</time>
      </trkpt>
      <trkpt lat="48.9287" lon="6.77115">
        <ele>186.78</ele>
        <time>2026-08-13T07:38:31.790Z</time>
      </trkpt>
      <trkpt lat="48.92841" lon="6.77081">
        <ele>186.9</ele>
        <time>2026-08-13T07:38:37.791Z</time>
      </trkpt>
      <trkpt lat="48.92812" lon="6.77046">
        <ele>187.66</ele>
        <time>2026-08-13T07:38:43.791Z</time>
      </trkpt>
      <trkpt lat="48.92784" lon="6.77012">
        <ele>189.47</ele>
        <time>2026-08-13T07:38:49.792Z</time>
      </trkpt>
      <trkpt lat="48.92755" lon="6.76978">
        <ele>189.55</ele>
        <time>2026-08-13T07:38:55.806Z</time>
      </trkpt>
      <trkpt lat="48.92726" lon="6.76946">
        <ele>189.38</ele>
        <time>2026-08-13T07:39:01.793Z</time>
      </trkpt>
      <trkpt lat="48.92694" lon="6.7692">
        <ele>189.09</ele>
        <time>2026-08-13T07:39:07.800Z</time>
      </trkpt>
      <trkpt lat="48.92658" lon="6.76901">
        <ele>188.98</ele>
        <time>2026-08-13T07:39:13.793Z</time>
      </trkpt>
      <trkpt lat="48.92622" lon="6.76888">
        <ele>189</ele>
        <time>2026-08-13T07:39:19.791Z</time>
      </trkpt>
      <trkpt lat="48.92585" lon="6.76877">
        <ele>188.16</ele>
        <time>2026-08-13T07:39:25.805Z</time>
      </trkpt>
      <trkpt lat="48.92549" lon="6.76867">
        <ele>188.06</ele>
        <time>2026-08-13T07:39:31.791Z</time>
      </trkpt>
      <trkpt lat="48.92511" lon="6.76856">
        <ele>187.85</ele>
        <time>2026-08-13T07:39:37.794Z</time>
      </trkpt>
      <trkpt lat="48.92471" lon="6.76845">
        <ele>187.36</ele>
        <time>2026-08-13T07:39:43.792Z</time>
      </trkpt>
      <trkpt lat="48.92429" lon="6.76832">
        <ele>186.83</ele>
        <time>2026-08-13T07:39:49.789Z</time>
      </trkpt>
      <trkpt lat="48.92386" lon="6.7682">
        <ele>185.82</ele>
        <time>2026-08-13T07:39:55.810Z</time>
      </trkpt>
      <trkpt lat="48.92343" lon="6.76808">
        <ele>185.82</ele>
        <time>2026-08-13T07:40:01.792Z</time>
      </trkpt>
      <trkpt lat="48.92302" lon="6.76797">
        <ele>185.68</ele>
        <time>2026-08-13T07:40:07.792Z</time>
      </trkpt>
      <trkpt lat="48.9226" lon="6.76801">
        <ele>185.58</ele>
        <time>2026-08-13T07:40:13.792Z</time>
      </trkpt>
      <trkpt lat="48.92223" lon="6.76821">
        <ele>185.34</ele>
        <time>2026-08-13T07:40:19.792Z</time>
      </trkpt>
      <trkpt lat="48.92187" lon="6.76849">
        <ele>185.28</ele>
        <time>2026-08-13T07:40:25.810Z</time>
      </trkpt>
      <trkpt lat="48.9215" lon="6.76877">
        <ele>185.21</ele>
        <time>2026-08-13T07:40:31.789Z</time>
      </trkpt>
      <trkpt lat="48.92116" lon="6.76904">
        <ele>185.27</ele>
        <time>2026-08-13T07:40:37.790Z</time>
      </trkpt>
      <trkpt lat="48.92081" lon="6.76932">
        <ele>185.54</ele>
        <time>2026-08-13T07:40:43.792Z</time>
      </trkpt>
      <trkpt lat="48.92046" lon="6.76959">
        <ele>185.19</ele>
        <time>2026-08-13T07:40:49.801Z</time>
      </trkpt>
      <trkpt lat="48.92012" lon="6.76984">
        <ele>185.03</ele>
        <time>2026-08-13T07:40:55.782Z</time>
      </trkpt>
      <trkpt lat="48.91977" lon="6.77007">
        <ele>185.36</ele>
        <time>2026-08-13T07:41:01.792Z</time>
      </trkpt>
      <trkpt lat="48.91942" lon="6.77026">
        <ele>186.37</ele>
        <time>2026-08-13T07:41:07.789Z</time>
      </trkpt>
      <trkpt lat="48.91909" lon="6.77041">
        <ele>186.25</ele>
        <time>2026-08-13T07:41:13.783Z</time>
      </trkpt>
      <trkpt lat="48.91877" lon="6.77056">
        <ele>186.44</ele>
        <time>2026-08-13T07:41:19.790Z</time>
      </trkpt>
      <trkpt lat="48.91846" lon="6.77067">
        <ele>187.08</ele>
        <time>2026-08-13T07:41:25.810Z</time>
      </trkpt>
      <trkpt lat="48.91815" lon="6.77079">
        <ele>187.97</ele>
        <time>2026-08-13T07:41:31.792Z</time>
      </trkpt>
      <trkpt lat="48.91787" lon="6.7709">
        <ele>189.27</ele>
        <time>2026-08-13T07:41:37.794Z</time>
      </trkpt>
      <trkpt lat="48.91759" lon="6.771">
        <ele>190.78</ele>
        <time>2026-08-13T07:41:43.797Z</time>
      </trkpt>
      <trkpt lat="48.91732" lon="6.77109">
        <ele>191.91</ele>
        <time>2026-08-13T07:41:49.790Z</time>
      </trkpt>
      <trkpt lat="48.91706" lon="6.77117">
        <ele>192.59</ele>
        <time>2026-08-13T07:41:55.808Z</time>
      </trkpt>
      <trkpt lat="48.91679" lon="6.77125">
        <ele>192.09</ele>
        <time>2026-08-13T07:42:01.790Z</time>
      </trkpt>
      <trkpt lat="48.9165" lon="6.77133">
        <ele>191.87</ele>
        <time>2026-08-13T07:42:07.795Z</time>
      </trkpt>
      <trkpt lat="48.91618" lon="6.7714">
        <ele>191.32</ele>
        <time>2026-08-13T07:42:13.802Z</time>
      </trkpt>
      <trkpt lat="48.91578" lon="6.77143">
        <ele>190.63</ele>
        <time>2026-08-13T07:42:19.793Z</time>
      </trkpt>
      <trkpt lat="48.91538" lon="6.7714">
        <ele>189.58</ele>
        <time>2026-08-13T07:42:25.811Z</time>
      </trkpt>
      <trkpt lat="48.91502" lon="6.77134">
        <ele>188.65</ele>
        <time>2026-08-13T07:42:31.793Z</time>
      </trkpt>
      <trkpt lat="48.91464" lon="6.77131">
        <ele>189.57</ele>
        <time>2026-08-13T07:42:37.795Z</time>
      </trkpt>
      <trkpt lat="48.91426" lon="6.77127">
        <ele>190.15</ele>
        <time>2026-08-13T07:42:43.790Z</time>
      </trkpt>
      <trkpt lat="48.91393" lon="6.77123">
        <ele>189.84</ele>
        <time>2026-08-13T07:42:49.792Z</time>
      </trkpt>
      <trkpt lat="48.91364" lon="6.7712">
        <ele>189.81</ele>
        <time>2026-08-13T07:42:55.809Z</time>
      </trkpt>
      <trkpt lat="48.91336" lon="6.77117">
        <ele>189.7</ele>
        <time>2026-08-13T07:43:01.792Z</time>
      </trkpt>
      <trkpt lat="48.91307" lon="6.77113">
        <ele>190.13</ele>
        <time>2026-08-13T07:43:07.794Z</time>
      </trkpt>
      <trkpt lat="48.91278" lon="6.77111">
        <ele>190.33</ele>
        <time>2026-08-13T07:43:13.795Z</time>
      </trkpt>
      <trkpt lat="48.91249" lon="6.77107">
        <ele>190.76</ele>
        <time>2026-08-13T07:43:19.789Z</time>
      </trkpt>
      <trkpt lat="48.91223" lon="6.77102">
        <ele>193.5</ele>
        <time>2026-08-13T07:43:25.809Z</time>
      </trkpt>
      <trkpt lat="48.91197" lon="6.77099">
        <ele>194.87</ele>
        <time>2026-08-13T07:43:31.795Z</time>
      </trkpt>
      <trkpt lat="48.91172" lon="6.77096">
        <ele>196.05</ele>
        <time>2026-08-13T07:43:37.794Z</time>
      </trkpt>
      <trkpt lat="48.91148" lon="6.77093">
        <ele>196.68</ele>
        <time>2026-08-13T07:43:43.794Z</time>
      </trkpt>
      <trkpt lat="48.91123" lon="6.7709">
        <ele>196.56</ele>
        <time>2026-08-13T07:43:49.795Z</time>
      </trkpt>
      <trkpt lat="48.91098" lon="6.77087">
        <ele>196.73</ele>
        <time>2026-08-13T07:43:55.811Z</time>
      </trkpt>
      <trkpt lat="48.91077" lon="6.77084">
        <ele>197.34</ele>
        <time>2026-08-13T07:44:01.792Z</time>
      </trkpt>
      <trkpt lat="48.91057" lon="6.77082">
        <ele>197.47</ele>
        <time>2026-08-13T07:44:07.794Z</time>
      </trkpt>
      <trkpt lat="48.91039" lon="6.7708">
        <ele>199.6</ele>
        <time>2026-08-13T07:44:13.785Z</time>
      </trkpt>
      <trkpt lat="48.91022" lon="6.77078">
        <ele>201.37</ele>
        <time>2026-08-13T07:44:19.794Z</time>
      </trkpt>
      <trkpt lat="48.91004" lon="6.77075">
        <ele>201.11</ele>
        <time>2026-08-13T07:44:25.815Z</time>
      </trkpt>
      <trkpt lat="48.90987" lon="6.77073">
        <ele>202.33</ele>
        <time>2026-08-13T07:44:31.818Z</time>
      </trkpt>
      <trkpt lat="48.9097" lon="6.7707">
        <ele>203.05</ele>
        <time>2026-08-13T07:44:37.796Z</time>
      </trkpt>
      <trkpt lat="48.90952" lon="6.77068">
        <ele>203.84</ele>
        <time>2026-08-13T07:44:43.791Z</time>
      </trkpt>
      <trkpt lat="48.90934" lon="6.77066">
        <ele>203.96</ele>
        <time>2026-08-13T07:44:49.787Z</time>
      </trkpt>
      <trkpt lat="48.90918" lon="6.77064">
        <ele>204.8</ele>
        <time>2026-08-13T07:44:55.817Z</time>
      </trkpt>
      <trkpt lat="48.90901" lon="6.77062">
        <ele>205.87</ele>
        <time>2026-08-13T07:45:01.793Z</time>
      </trkpt>
      <trkpt lat="48.90882" lon="6.77059">
        <ele>206.8</ele>
        <time>2026-08-13T07:45:07.793Z</time>
      </trkpt>
      <trkpt lat="48.90863" lon="6.77057">
        <ele>207.62</ele>
        <time>2026-08-13T07:45:13.788Z</time>
      </trkpt>
      <trkpt lat="48.90843" lon="6.77055">
        <ele>208.12</ele>
        <time>2026-08-13T07:45:19.786Z</time>
      </trkpt>
      <trkpt lat="48.90827" lon="6.77053">
        <ele>208.81</ele>
        <time>2026-08-13T07:45:25.791Z</time>
      </trkpt>
      <trkpt lat="48.9081" lon="6.77051">
        <ele>208.21</ele>
        <time>2026-08-13T07:45:31.789Z</time>
      </trkpt>
      <trkpt lat="48.90791" lon="6.77049">
        <ele>209.44</ele>
        <time>2026-08-13T07:45:37.786Z</time>
      </trkpt>
      <trkpt lat="48.90772" lon="6.77047">
        <ele>209.4</ele>
        <time>2026-08-13T07:45:43.790Z</time>
      </trkpt>
      <trkpt lat="48.90751" lon="6.77044">
        <ele>210.06</ele>
        <time>2026-08-13T07:45:49.792Z</time>
      </trkpt>
      <trkpt lat="48.90728" lon="6.77041">
        <ele>211.08</ele>
        <time>2026-08-13T07:45:55.788Z</time>
      </trkpt>
      <trkpt lat="48.907" lon="6.77037">
        <ele>210.17</ele>
        <time>2026-08-13T07:46:01.787Z</time>
      </trkpt>
      <trkpt lat="48.9067" lon="6.77035">
        <ele>209.17</ele>
        <time>2026-08-13T07:46:07.783Z</time>
      </trkpt>
      <trkpt lat="48.9064" lon="6.77031">
        <ele>209.42</ele>
        <time>2026-08-13T07:46:13.788Z</time>
      </trkpt>
      <trkpt lat="48.90611" lon="6.77027">
        <ele>208.62</ele>
        <time>2026-08-13T07:46:19.787Z</time>
      </trkpt>
      <trkpt lat="48.90581" lon="6.77023">
        <ele>207.52</ele>
        <time>2026-08-13T07:46:25.786Z</time>
      </trkpt>
      <trkpt lat="48.9055" lon="6.7702">
        <ele>206.61</ele>
        <time>2026-08-13T07:46:31.788Z</time>
      </trkpt>
      <trkpt lat="48.90518" lon="6.77017">
        <ele>207.12</ele>
        <time>2026-08-13T07:46:37.786Z</time>
      </trkpt>
      <trkpt lat="48.90487" lon="6.77012">
        <ele>206.63</ele>
        <time>2026-08-13T07:46:43.787Z</time>
      </trkpt>
      <trkpt lat="48.90456" lon="6.77008">
        <ele>204.98</ele>
        <time>2026-08-13T07:46:49.784Z</time>
      </trkpt>
      <trkpt lat="48.90428" lon="6.77005">
        <ele>204.13</ele>
        <time>2026-08-13T07:46:55.786Z</time>
      </trkpt>
      <trkpt lat="48.90397" lon="6.77002">
        <ele>204.26</ele>
        <time>2026-08-13T07:47:01.790Z</time>
      </trkpt>
      <trkpt lat="48.90364" lon="6.76999">
        <ele>203.8</ele>
        <time>2026-08-13T07:47:07.791Z</time>
      </trkpt>
      <trkpt lat="48.90328" lon="6.76995">
        <ele>202.22</ele>
        <time>2026-08-13T07:47:13.788Z</time>
      </trkpt>
      <trkpt lat="48.90291" lon="6.76991">
        <ele>201.75</ele>
        <time>2026-08-13T07:47:19.789Z</time>
      </trkpt>
      <trkpt lat="48.90256" lon="6.76987">
        <ele>201.63</ele>
        <time>2026-08-13T07:47:25.813Z</time>
      </trkpt>
      <trkpt lat="48.90225" lon="6.76982">
        <ele>201.68</ele>
        <time>2026-08-13T07:47:31.788Z</time>
      </trkpt>
      <trkpt lat="48.90199" lon="6.76959">
        <ele>203.16</ele>
        <time>2026-08-13T07:47:37.788Z</time>
      </trkpt>
      <trkpt lat="48.90167" lon="6.76958">
        <ele>203.46</ele>
        <time>2026-08-13T07:47:43.798Z</time>
      </trkpt>
      <trkpt lat="48.90135" lon="6.76972">
        <ele>204.59</ele>
        <time>2026-08-13T07:47:49.789Z</time>
      </trkpt>
      <trkpt lat="48.90103" lon="6.76967">
        <ele>206.45</ele>
        <time>2026-08-13T07:47:55.789Z</time>
      </trkpt>
      <trkpt lat="48.90073" lon="6.76963">
        <ele>207.22</ele>
        <time>2026-08-13T07:48:01.791Z</time>
      </trkpt>
      <trkpt lat="48.90045" lon="6.7696">
        <ele>207.93</ele>
        <time>2026-08-13T07:48:07.790Z</time>
      </trkpt>
      <trkpt lat="48.90023" lon="6.76958">
        <ele>209.28</ele>
        <time>2026-08-13T07:48:13.793Z</time>
      </trkpt>
      <trkpt lat="48.90003" lon="6.76954">
        <ele>210.03</ele>
        <time>2026-08-13T07:48:19.794Z</time>
      </trkpt>
      <trkpt lat="48.89987" lon="6.76952">
        <ele>211.2</ele>
        <time>2026-08-13T07:48:25.793Z</time>
      </trkpt>
      <trkpt lat="48.89971" lon="6.7695">
        <ele>211.69</ele>
        <time>2026-08-13T07:48:31.794Z</time>
      </trkpt>
      <trkpt lat="48.89955" lon="6.76947">
        <ele>213.01</ele>
        <time>2026-08-13T07:48:37.795Z</time>
      </trkpt>
      <trkpt lat="48.89938" lon="6.76946">
        <ele>214</ele>
        <time>2026-08-13T07:48:43.793Z</time>
      </trkpt>
      <trkpt lat="48.89921" lon="6.76943">
        <ele>214.68</ele>
        <time>2026-08-13T07:48:49.794Z</time>
      </trkpt>
      <trkpt lat="48.89904" lon="6.76942">
        <ele>215.16</ele>
        <time>2026-08-13T07:48:55.792Z</time>
      </trkpt>
      <trkpt lat="48.89887" lon="6.7694">
        <ele>215.67</ele>
        <time>2026-08-13T07:49:01.795Z</time>
      </trkpt>
      <trkpt lat="48.89871" lon="6.76938">
        <ele>215.82</ele>
        <time>2026-08-13T07:49:07.791Z</time>
      </trkpt>
      <trkpt lat="48.89853" lon="6.76936">
        <ele>216.38</ele>
        <time>2026-08-13T07:49:13.792Z</time>
      </trkpt>
      <trkpt lat="48.89834" lon="6.76933">
        <ele>216.86</ele>
        <time>2026-08-13T07:49:19.797Z</time>
      </trkpt>
      <trkpt lat="48.89815" lon="6.76931">
        <ele>217.2</ele>
        <time>2026-08-13T07:49:25.792Z</time>
      </trkpt>
      <trkpt lat="48.89796" lon="6.76931">
        <ele>217.22</ele>
        <time>2026-08-13T07:49:31.795Z</time>
      </trkpt>
      <trkpt lat="48.89777" lon="6.76926">
        <ele>215.54</ele>
        <time>2026-08-13T07:49:37.789Z</time>
      </trkpt>
      <trkpt lat="48.89758" lon="6.76925">
        <ele>217.82</ele>
        <time>2026-08-13T07:49:43.796Z</time>
      </trkpt>
      <trkpt lat="48.89741" lon="6.76923">
        <ele>218.57</ele>
        <time>2026-08-13T07:49:49.794Z</time>
      </trkpt>
      <trkpt lat="48.89725" lon="6.76922">
        <ele>220.52</ele>
        <time>2026-08-13T07:49:55.813Z</time>
      </trkpt>
      <trkpt lat="48.89716" lon="6.7692">
        <ele>222.18</ele>
        <time>2026-08-13T07:50:01.788Z</time>
      </trkpt>
      <trkpt lat="48.89703" lon="6.76919">
        <ele>222.96</ele>
        <time>2026-08-13T07:50:07.787Z</time>
      </trkpt>
      <trkpt lat="48.89692" lon="6.76917">
        <ele>222.75</ele>
        <time>2026-08-13T07:50:13.789Z</time>
      </trkpt>
      <trkpt lat="48.89679" lon="6.76914">
        <ele>223.7</ele>
        <time>2026-08-13T07:50:19.790Z</time>
      </trkpt>
      <trkpt lat="48.89667" lon="6.76913">
        <ele>224.74</ele>
        <time>2026-08-13T07:50:25.807Z</time>
      </trkpt>
      <trkpt lat="48.89655" lon="6.76912">
        <ele>225.97</ele>
        <time>2026-08-13T07:50:31.787Z</time>
      </trkpt>
      <trkpt lat="48.89643" lon="6.7691">
        <ele>227.18</ele>
        <time>2026-08-13T07:50:37.792Z</time>
      </trkpt>
      <trkpt lat="48.8963" lon="6.76908">
        <ele>227.88</ele>
        <time>2026-08-13T07:50:43.786Z</time>
      </trkpt>
      <trkpt lat="48.89618" lon="6.76907">
        <ele>228.55</ele>
        <time>2026-08-13T07:50:49.787Z</time>
      </trkpt>
      <trkpt lat="48.89607" lon="6.76906">
        <ele>229.6</ele>
        <time>2026-08-13T07:50:55.775Z</time>
      </trkpt>
      <trkpt lat="48.89595" lon="6.76904">
        <ele>230.31</ele>
        <time>2026-08-13T07:51:01.791Z</time>
      </trkpt>
      <trkpt lat="48.89584" lon="6.76903">
        <ele>231.15</ele>
        <time>2026-08-13T07:51:07.782Z</time>
      </trkpt>
      <trkpt lat="48.89573" lon="6.76902">
        <ele>232.48</ele>
        <time>2026-08-13T07:51:13.794Z</time>
      </trkpt>
      <trkpt lat="48.89562" lon="6.769">
        <ele>233.18</ele>
        <time>2026-08-13T07:51:19.779Z</time>
      </trkpt>
      <trkpt lat="48.89549" lon="6.769">
        <ele>234.38</ele>
        <time>2026-08-13T07:51:25.811Z</time>
      </trkpt>
      <trkpt lat="48.89536" lon="6.76898">
        <ele>235.23</ele>
        <time>2026-08-13T07:51:31.775Z</time>
      </trkpt>
      <trkpt lat="48.89524" lon="6.76896">
        <ele>236.52</ele>
        <time>2026-08-13T07:51:37.792Z</time>
      </trkpt>
      <trkpt lat="48.89512" lon="6.76894">
        <ele>237.76</ele>
        <time>2026-08-13T07:51:43.796Z</time>
      </trkpt>
      <trkpt lat="48.89499" lon="6.76893">
        <ele>238.3</ele>
        <time>2026-08-13T07:51:49.787Z</time>
      </trkpt>
      <trkpt lat="48.89488" lon="6.76891">
        <ele>239.21</ele>
        <time>2026-08-13T07:51:55.832Z</time>
      </trkpt>
      <trkpt lat="48.89474" lon="6.76889">
        <ele>240.61</ele>
        <time>2026-08-13T07:52:01.788Z</time>
      </trkpt>
      <trkpt lat="48.89462" lon="6.76888">
        <ele>241.69</ele>
        <time>2026-08-13T07:52:07.789Z</time>
      </trkpt>
      <trkpt lat="48.89447" lon="6.76886">
        <ele>242.68</ele>
        <time>2026-08-13T07:52:13.788Z</time>
      </trkpt>
      <trkpt lat="48.89432" lon="6.76884">
        <ele>243.27</ele>
        <time>2026-08-13T07:52:19.788Z</time>
      </trkpt>
      <trkpt lat="48.89418" lon="6.76882">
        <ele>244.46</ele>
        <time>2026-08-13T07:52:25.810Z</time>
      </trkpt>
      <trkpt lat="48.89402" lon="6.76882">
        <ele>245.06</ele>
        <time>2026-08-13T07:52:31.798Z</time>
      </trkpt>
      <trkpt lat="48.89383" lon="6.7688">
        <ele>245.67</ele>
        <time>2026-08-13T07:52:37.789Z</time>
      </trkpt>
      <trkpt lat="48.89359" lon="6.76877">
        <ele>246.44</ele>
        <time>2026-08-13T07:52:43.789Z</time>
      </trkpt>
      <trkpt lat="48.89335" lon="6.76873">
        <ele>247.35</ele>
        <time>2026-08-13T07:52:49.790Z</time>
      </trkpt>
      <trkpt lat="48.8931" lon="6.7687">
        <ele>247.13</ele>
        <time>2026-08-13T07:52:55.809Z</time>
      </trkpt>
      <trkpt lat="48.89281" lon="6.76867">
        <ele>247.26</ele>
        <time>2026-08-13T07:53:01.784Z</time>
      </trkpt>
      <trkpt lat="48.89251" lon="6.76867">
        <ele>246.76</ele>
        <time>2026-08-13T07:53:07.819Z</time>
      </trkpt>
      <trkpt lat="48.89223" lon="6.76859">
        <ele>245.11</ele>
        <time>2026-08-13T07:53:13.778Z</time>
      </trkpt>
      <trkpt lat="48.89195" lon="6.76855">
        <ele>244.42</ele>
        <time>2026-08-13T07:53:19.780Z</time>
      </trkpt>
      <trkpt lat="48.89174" lon="6.76851">
        <ele>245.23</ele>
        <time>2026-08-13T07:53:25.969Z</time>
      </trkpt>
      <trkpt lat="48.89164" lon="6.76854">
        <ele>246.29</ele>
        <time>2026-08-13T07:55:47.743Z</time>
      </trkpt>
      <trkpt lat="48.89147" lon="6.76849">
        <ele>244.79</ele>
        <time>2026-08-13T07:55:52.755Z</time>
      </trkpt>
      <trkpt lat="48.89107" lon="6.76844">
        <ele>240.94</ele>
        <time>2026-08-13T07:55:58.746Z</time>
      </trkpt>
      <trkpt lat="48.89048" lon="6.76839">
        <ele>235.67</ele>
        <time>2026-08-13T07:56:04.747Z</time>
      </trkpt>
      <trkpt lat="48.88973" lon="6.76829">
        <ele>229.27</ele>
        <time>2026-08-13T07:56:10.747Z</time>
      </trkpt>
      <trkpt lat="48.8889" lon="6.76821">
        <ele>221.06</ele>
        <time>2026-08-13T07:56:16.743Z</time>
      </trkpt>
      <trkpt lat="48.88802" lon="6.76812">
        <ele>215.87</ele>
        <time>2026-08-13T07:56:22.745Z</time>
      </trkpt>
      <trkpt lat="48.88729" lon="6.76803">
        <ele>218.43</ele>
        <time>2026-08-13T07:56:28.741Z</time>
      </trkpt>
      <trkpt lat="48.88689" lon="6.76798">
        <ele>220.21</ele>
        <time>2026-08-13T07:56:33.743Z</time>
      </trkpt>
      <trkpt lat="48.88655" lon="6.76793">
        <ele>220.69</ele>
        <time>2026-08-13T07:56:39.743Z</time>
      </trkpt>
      <trkpt lat="48.88628" lon="6.7679">
        <ele>219.85</ele>
        <time>2026-08-13T07:56:44.743Z</time>
      </trkpt>
      <trkpt lat="48.88602" lon="6.76787">
        <ele>220.03</ele>
        <time>2026-08-13T07:56:49.792Z</time>
      </trkpt>
      <trkpt lat="48.8857" lon="6.76783">
        <ele>219.93</ele>
        <time>2026-08-13T07:56:55.798Z</time>
      </trkpt>
      <trkpt lat="48.88542" lon="6.7678">
        <ele>220.87</ele>
        <time>2026-08-13T07:57:01.806Z</time>
      </trkpt>
      <trkpt lat="48.88516" lon="6.76778">
        <ele>221.87</ele>
        <time>2026-08-13T07:57:07.797Z</time>
      </trkpt>
      <trkpt lat="48.88489" lon="6.76774">
        <ele>222.72</ele>
        <time>2026-08-13T07:57:13.795Z</time>
      </trkpt>
      <trkpt lat="48.88458" lon="6.76771">
        <ele>222.17</ele>
        <time>2026-08-13T07:57:19.795Z</time>
      </trkpt>
      <trkpt lat="48.88423" lon="6.76767">
        <ele>221.37</ele>
        <time>2026-08-13T07:57:25.813Z</time>
      </trkpt>
      <trkpt lat="48.88386" lon="6.76763">
        <ele>220.85</ele>
        <time>2026-08-13T07:57:31.799Z</time>
      </trkpt>
      <trkpt lat="48.88349" lon="6.76759">
        <ele>221.36</ele>
        <time>2026-08-13T07:57:37.804Z</time>
      </trkpt>
      <trkpt lat="48.88315" lon="6.76754">
        <ele>224.01</ele>
        <time>2026-08-13T07:57:43.802Z</time>
      </trkpt>
      <trkpt lat="48.88284" lon="6.7675">
        <ele>224.64</ele>
        <time>2026-08-13T07:57:49.799Z</time>
      </trkpt>
      <trkpt lat="48.88255" lon="6.76747">
        <ele>224.96</ele>
        <time>2026-08-13T07:57:55.801Z</time>
      </trkpt>
      <trkpt lat="48.88227" lon="6.76744">
        <ele>222.74</ele>
        <time>2026-08-13T07:58:01.800Z</time>
      </trkpt>
      <trkpt lat="48.88199" lon="6.7674">
        <ele>222.13</ele>
        <time>2026-08-13T07:58:07.800Z</time>
      </trkpt>
      <trkpt lat="48.88171" lon="6.76738">
        <ele>223.17</ele>
        <time>2026-08-13T07:58:13.798Z</time>
      </trkpt>
      <trkpt lat="48.88145" lon="6.76735">
        <ele>225.58</ele>
        <time>2026-08-13T07:58:19.801Z</time>
      </trkpt>
      <trkpt lat="48.8812" lon="6.76732">
        <ele>228.41</ele>
        <time>2026-08-13T07:58:25.799Z</time>
      </trkpt>
      <trkpt lat="48.88095" lon="6.76729">
        <ele>231.02</ele>
        <time>2026-08-13T07:58:31.797Z</time>
      </trkpt>
      <trkpt lat="48.8807" lon="6.76726">
        <ele>232.01</ele>
        <time>2026-08-13T07:58:37.801Z</time>
      </trkpt>
      <trkpt lat="48.88046" lon="6.76723">
        <ele>232.65</ele>
        <time>2026-08-13T07:58:43.795Z</time>
      </trkpt>
      <trkpt lat="48.8802" lon="6.76719">
        <ele>232.93</ele>
        <time>2026-08-13T07:58:49.799Z</time>
      </trkpt>
      <trkpt lat="48.87993" lon="6.76716">
        <ele>231.97</ele>
        <time>2026-08-13T07:58:55.834Z</time>
      </trkpt>
      <trkpt lat="48.87963" lon="6.76713">
        <ele>232.55</ele>
        <time>2026-08-13T07:59:01.779Z</time>
      </trkpt>
      <trkpt lat="48.87936" lon="6.7671">
        <ele>231.07</ele>
        <time>2026-08-13T07:59:07.793Z</time>
      </trkpt>
      <trkpt lat="48.87907" lon="6.76706">
        <ele>230.78</ele>
        <time>2026-08-13T07:59:13.777Z</time>
      </trkpt>
      <trkpt lat="48.87879" lon="6.76708">
        <ele>233.45</ele>
        <time>2026-08-13T07:59:19.816Z</time>
      </trkpt>
      <trkpt lat="48.87851" lon="6.76707">
        <ele>234.29</ele>
        <time>2026-08-13T07:59:25.807Z</time>
      </trkpt>
      <trkpt lat="48.87822" lon="6.76706">
        <ele>232.88</ele>
        <time>2026-08-13T07:59:31.809Z</time>
      </trkpt>
      <trkpt lat="48.87792" lon="6.76707">
        <ele>231.57</ele>
        <time>2026-08-13T07:59:37.761Z</time>
      </trkpt>
      <trkpt lat="48.87757" lon="6.76708">
        <ele>230.42</ele>
        <time>2026-08-13T07:59:43.749Z</time>
      </trkpt>
      <trkpt lat="48.87724" lon="6.76708">
        <ele>230.33</ele>
        <time>2026-08-13T07:59:48.755Z</time>
      </trkpt>
      <trkpt lat="48.87676" lon="6.76709">
        <ele>227.69</ele>
        <time>2026-08-13T07:59:54.746Z</time>
      </trkpt>
      <trkpt lat="48.8761" lon="6.7671">
        <ele>222.53</ele>
        <time>2026-08-13T08:00:00.749Z</time>
      </trkpt>
      <trkpt lat="48.87537" lon="6.76711">
        <ele>215.05</ele>
        <time>2026-08-13T08:00:06.752Z</time>
      </trkpt>
      <trkpt lat="48.87456" lon="6.76711">
        <ele>208.09</ele>
        <time>2026-08-13T08:00:12.746Z</time>
      </trkpt>
      <trkpt lat="48.87387" lon="6.76711">
        <ele>203.22</ele>
        <time>2026-08-13T08:00:17.747Z</time>
      </trkpt>
      <trkpt lat="48.87322" lon="6.76711">
        <ele>199.86</ele>
        <time>2026-08-13T08:00:22.750Z</time>
      </trkpt>
      <trkpt lat="48.8725" lon="6.76711">
        <ele>198.51</ele>
        <time>2026-08-13T08:00:28.751Z</time>
      </trkpt>
      <trkpt lat="48.87189" lon="6.7671">
        <ele>197.21</ele>
        <time>2026-08-13T08:00:34.743Z</time>
      </trkpt>
      <trkpt lat="48.87145" lon="6.76709">
        <ele>197.07</ele>
        <time>2026-08-13T08:00:39.746Z</time>
      </trkpt>
      <trkpt lat="48.87097" lon="6.7671">
        <ele>196.93</ele>
        <time>2026-08-13T08:00:45.736Z</time>
      </trkpt>
      <trkpt lat="48.87059" lon="6.7671">
        <ele>196.79</ele>
        <time>2026-08-13T08:00:50.748Z</time>
      </trkpt>
      <trkpt lat="48.87021" lon="6.7671">
        <ele>196.04</ele>
        <time>2026-08-13T08:00:55.793Z</time>
      </trkpt>
      <trkpt lat="48.86974" lon="6.76711">
        <ele>195.22</ele>
        <time>2026-08-13T08:01:01.795Z</time>
      </trkpt>
      <trkpt lat="48.86927" lon="6.76711">
        <ele>194.54</ele>
        <time>2026-08-13T08:01:07.755Z</time>
      </trkpt>
      <trkpt lat="48.86883" lon="6.76711">
        <ele>194.11</ele>
        <time>2026-08-13T08:01:13.757Z</time>
      </trkpt>
      <trkpt lat="48.86839" lon="6.76713">
        <ele>192.91</ele>
        <time>2026-08-13T08:01:19.760Z</time>
      </trkpt>
      <trkpt lat="48.868" lon="6.76714">
        <ele>192.7</ele>
        <time>2026-08-13T08:01:25.793Z</time>
      </trkpt>
      <trkpt lat="48.86762" lon="6.76714">
        <ele>192.17</ele>
        <time>2026-08-13T08:01:31.795Z</time>
      </trkpt>
      <trkpt lat="48.86724" lon="6.76713">
        <ele>192.41</ele>
        <time>2026-08-13T08:01:37.760Z</time>
      </trkpt>
      <trkpt lat="48.86687" lon="6.76713">
        <ele>192.86</ele>
        <time>2026-08-13T08:01:43.757Z</time>
      </trkpt>
      <trkpt lat="48.86652" lon="6.76713">
        <ele>194.36</ele>
        <time>2026-08-13T08:01:49.753Z</time>
      </trkpt>
      <trkpt lat="48.86618" lon="6.76713">
        <ele>194.9</ele>
        <time>2026-08-13T08:01:55.793Z</time>
      </trkpt>
      <trkpt lat="48.86586" lon="6.76713">
        <ele>195.26</ele>
        <time>2026-08-13T08:02:01.786Z</time>
      </trkpt>
      <trkpt lat="48.86556" lon="6.76713">
        <ele>195.65</ele>
        <time>2026-08-13T08:02:07.761Z</time>
      </trkpt>
      <trkpt lat="48.86523" lon="6.76713">
        <ele>195.22</ele>
        <time>2026-08-13T08:02:13.754Z</time>
      </trkpt>
      <trkpt lat="48.86489" lon="6.76714">
        <ele>195.41</ele>
        <time>2026-08-13T08:02:19.759Z</time>
      </trkpt>
      <trkpt lat="48.8645" lon="6.76713">
        <ele>195.47</ele>
        <time>2026-08-13T08:02:25.813Z</time>
      </trkpt>
      <trkpt lat="48.86405" lon="6.76712">
        <ele>194.47</ele>
        <time>2026-08-13T08:02:31.794Z</time>
      </trkpt>
      <trkpt lat="48.86354" lon="6.76712">
        <ele>192.04</ele>
        <time>2026-08-13T08:02:37.759Z</time>
      </trkpt>
      <trkpt lat="48.86297" lon="6.76713">
        <ele>189.64</ele>
        <time>2026-08-13T08:02:43.760Z</time>
      </trkpt>
      <trkpt lat="48.86229" lon="6.76713">
        <ele>184.17</ele>
        <time>2026-08-13T08:02:49.757Z</time>
      </trkpt>
      <trkpt lat="48.86155" lon="6.76713">
        <ele>178.32</ele>
        <time>2026-08-13T08:02:55.810Z</time>
      </trkpt>
      <trkpt lat="48.86089" lon="6.76714">
        <ele>177.25</ele>
        <time>2026-08-13T08:03:01.791Z</time>
      </trkpt>
      <trkpt lat="48.86033" lon="6.76714">
        <ele>177.27</ele>
        <time>2026-08-13T08:03:07.759Z</time>
      </trkpt>
      <trkpt lat="48.85987" lon="6.76714">
        <ele>177.98</ele>
        <time>2026-08-13T08:03:13.757Z</time>
      </trkpt>
      <trkpt lat="48.85955" lon="6.76714">
        <ele>179.93</ele>
        <time>2026-08-13T08:03:19.764Z</time>
      </trkpt>
      <trkpt lat="48.85928" lon="6.76713">
        <ele>180.22</ele>
        <time>2026-08-13T08:03:25.788Z</time>
      </trkpt>
      <trkpt lat="48.85899" lon="6.76714">
        <ele>179.85</ele>
        <time>2026-08-13T08:03:31.791Z</time>
      </trkpt>
      <trkpt lat="48.85872" lon="6.76714">
        <ele>179.84</ele>
        <time>2026-08-13T08:03:37.765Z</time>
      </trkpt>
      <trkpt lat="48.85845" lon="6.76715">
        <ele>180.47</ele>
        <time>2026-08-13T08:03:43.770Z</time>
      </trkpt>
      <trkpt lat="48.85813" lon="6.76714">
        <ele>181.27</ele>
        <time>2026-08-13T08:03:49.770Z</time>
      </trkpt>
      <trkpt lat="48.85779" lon="6.76714">
        <ele>182.17</ele>
        <time>2026-08-13T08:03:55.812Z</time>
      </trkpt>
      <trkpt lat="48.85746" lon="6.76714">
        <ele>183.07</ele>
        <time>2026-08-13T08:04:01.792Z</time>
      </trkpt>
      <trkpt lat="48.85718" lon="6.76713">
        <ele>181.74</ele>
        <time>2026-08-13T08:04:07.773Z</time>
      </trkpt>
      <trkpt lat="48.85694" lon="6.76714">
        <ele>183.84</ele>
        <time>2026-08-13T08:04:13.774Z</time>
      </trkpt>
      <trkpt lat="48.85679" lon="6.76714">
        <ele>185.74</ele>
        <time>2026-08-13T08:04:19.772Z</time>
      </trkpt>
      <trkpt lat="48.85666" lon="6.76714">
        <ele>187.27</ele>
        <time>2026-08-13T08:04:25.809Z</time>
      </trkpt>
      <trkpt lat="48.85651" lon="6.76716">
        <ele>189.09</ele>
        <time>2026-08-13T08:04:31.795Z</time>
      </trkpt>
      <trkpt lat="48.85636" lon="6.76715">
        <ele>190.37</ele>
        <time>2026-08-13T08:04:37.772Z</time>
      </trkpt>
      <trkpt lat="48.8562" lon="6.76714">
        <ele>191</ele>
        <time>2026-08-13T08:04:43.771Z</time>
      </trkpt>
      <trkpt lat="48.85607" lon="6.76714">
        <ele>191.94</ele>
        <time>2026-08-13T08:04:49.778Z</time>
      </trkpt>
      <trkpt lat="48.85592" lon="6.76712">
        <ele>191.32</ele>
        <time>2026-08-13T08:04:55.812Z</time>
      </trkpt>
      <trkpt lat="48.85575" lon="6.76709">
        <ele>190.58</ele>
        <time>2026-08-13T08:05:01.789Z</time>
      </trkpt>
      <trkpt lat="48.85557" lon="6.76707">
        <ele>191.94</ele>
        <time>2026-08-13T08:05:07.768Z</time>
      </trkpt>
      <trkpt lat="48.8554" lon="6.76699">
        <ele>193.02</ele>
        <time>2026-08-13T08:05:13.778Z</time>
      </trkpt>
      <trkpt lat="48.85522" lon="6.76691">
        <ele>193.88</ele>
        <time>2026-08-13T08:05:19.761Z</time>
      </trkpt>
      <trkpt lat="48.85504" lon="6.76682">
        <ele>194.17</ele>
        <time>2026-08-13T08:05:25.797Z</time>
      </trkpt>
      <trkpt lat="48.85485" lon="6.76671">
        <ele>194.42</ele>
        <time>2026-08-13T08:05:31.793Z</time>
      </trkpt>
      <trkpt lat="48.85465" lon="6.76659">
        <ele>195.73</ele>
        <time>2026-08-13T08:05:37.771Z</time>
      </trkpt>
      <trkpt lat="48.85446" lon="6.76646">
        <ele>196.6</ele>
        <time>2026-08-13T08:05:43.758Z</time>
      </trkpt>
      <trkpt lat="48.85427" lon="6.76634">
        <ele>196.72</ele>
        <time>2026-08-13T08:05:49.770Z</time>
      </trkpt>
      <trkpt lat="48.85406" lon="6.76621">
        <ele>196.42</ele>
        <time>2026-08-13T08:05:55.788Z</time>
      </trkpt>
      <trkpt lat="48.85386" lon="6.76608">
        <ele>197.31</ele>
        <time>2026-08-13T08:06:01.793Z</time>
      </trkpt>
      <trkpt lat="48.85364" lon="6.76594">
        <ele>197.84</ele>
        <time>2026-08-13T08:06:07.779Z</time>
      </trkpt>
      <trkpt lat="48.85341" lon="6.76578">
        <ele>199.33</ele>
        <time>2026-08-13T08:06:13.781Z</time>
      </trkpt>
      <trkpt lat="48.85316" lon="6.76562">
        <ele>198.81</ele>
        <time>2026-08-13T08:06:19.774Z</time>
      </trkpt>
      <trkpt lat="48.85289" lon="6.76543">
        <ele>197.78</ele>
        <time>2026-08-13T08:06:25.813Z</time>
      </trkpt>
      <trkpt lat="48.85255" lon="6.76521">
        <ele>196.83</ele>
        <time>2026-08-13T08:06:31.803Z</time>
      </trkpt>
      <trkpt lat="48.8522" lon="6.76485">
        <ele>195.69</ele>
        <time>2026-08-13T08:06:37.773Z</time>
      </trkpt>
      <trkpt lat="48.85186" lon="6.7644">
        <ele>194.82</ele>
        <time>2026-08-13T08:06:43.773Z</time>
      </trkpt>
      <trkpt lat="48.85156" lon="6.76398">
        <ele>194.22</ele>
        <time>2026-08-13T08:06:49.774Z</time>
      </trkpt>
      <trkpt lat="48.8513" lon="6.7636">
        <ele>195.41</ele>
        <time>2026-08-13T08:06:55.798Z</time>
      </trkpt>
      <trkpt lat="48.85106" lon="6.76325">
        <ele>195.08</ele>
        <time>2026-08-13T08:07:01.792Z</time>
      </trkpt>
      <trkpt lat="48.8508" lon="6.76287">
        <ele>196.13</ele>
        <time>2026-08-13T08:07:07.774Z</time>
      </trkpt>
      <trkpt lat="48.85052" lon="6.76246">
        <ele>196.31</ele>
        <time>2026-08-13T08:07:13.777Z</time>
      </trkpt>
      <trkpt lat="48.85021" lon="6.76202">
        <ele>194.97</ele>
        <time>2026-08-13T08:07:19.776Z</time>
      </trkpt>
      <trkpt lat="48.8499" lon="6.76157">
        <ele>195.68</ele>
        <time>2026-08-13T08:07:25.818Z</time>
      </trkpt>
      <trkpt lat="48.84964" lon="6.76118">
        <ele>196.38</ele>
        <time>2026-08-13T08:07:31.793Z</time>
      </trkpt>
      <trkpt lat="48.84941" lon="6.76082">
        <ele>195.22</ele>
        <time>2026-08-13T08:07:37.778Z</time>
      </trkpt>
      <trkpt lat="48.84911" lon="6.76032">
        <ele>192.11</ele>
        <time>2026-08-13T08:07:43.774Z</time>
      </trkpt>
      <trkpt lat="48.84879" lon="6.75974">
        <ele>191.36</ele>
        <time>2026-08-13T08:07:49.783Z</time>
      </trkpt>
      <trkpt lat="48.84851" lon="6.75924">
        <ele>191.7</ele>
        <time>2026-08-13T08:07:55.815Z</time>
      </trkpt>
      <trkpt lat="48.84824" lon="6.75879">
        <ele>193.05</ele>
        <time>2026-08-13T08:08:01.797Z</time>
      </trkpt>
      <trkpt lat="48.84798" lon="6.75839">
        <ele>195.25</ele>
        <time>2026-08-13T08:08:07.788Z</time>
      </trkpt>
      <trkpt lat="48.84774" lon="6.75808">
        <ele>197.27</ele>
        <time>2026-08-13T08:08:13.782Z</time>
      </trkpt>
      <trkpt lat="48.8475" lon="6.75787">
        <ele>197.85</ele>
        <time>2026-08-13T08:08:19.783Z</time>
      </trkpt>
      <trkpt lat="48.84723" lon="6.75763">
        <ele>197.46</ele>
        <time>2026-08-13T08:08:25.811Z</time>
      </trkpt>
      <trkpt lat="48.84696" lon="6.75737">
        <ele>197.01</ele>
        <time>2026-08-13T08:08:31.794Z</time>
      </trkpt>
      <trkpt lat="48.8467" lon="6.75714">
        <ele>197.05</ele>
        <time>2026-08-13T08:08:37.783Z</time>
      </trkpt>
      <trkpt lat="48.84645" lon="6.75691">
        <ele>197.74</ele>
        <time>2026-08-13T08:08:43.778Z</time>
      </trkpt>
      <trkpt lat="48.84622" lon="6.7567">
        <ele>197.82</ele>
        <time>2026-08-13T08:08:49.783Z</time>
      </trkpt>
      <trkpt lat="48.84598" lon="6.75647">
        <ele>198.1</ele>
        <time>2026-08-13T08:08:55.811Z</time>
      </trkpt>
      <trkpt lat="48.84573" lon="6.75624">
        <ele>197.23</ele>
        <time>2026-08-13T08:09:01.795Z</time>
      </trkpt>
      <trkpt lat="48.84545" lon="6.756">
        <ele>197.64</ele>
        <time>2026-08-13T08:09:07.782Z</time>
      </trkpt>
      <trkpt lat="48.84514" lon="6.75573">
        <ele>197.72</ele>
        <time>2026-08-13T08:09:13.782Z</time>
      </trkpt>
      <trkpt lat="48.84483" lon="6.75544">
        <ele>197.29</ele>
        <time>2026-08-13T08:09:19.781Z</time>
      </trkpt>
      <trkpt lat="48.84452" lon="6.75516">
        <ele>197.54</ele>
        <time>2026-08-13T08:09:25.812Z</time>
      </trkpt>
      <trkpt lat="48.84422" lon="6.75488">
        <ele>197.85</ele>
        <time>2026-08-13T08:09:31.814Z</time>
      </trkpt>
      <trkpt lat="48.84388" lon="6.75456">
        <ele>197.83</ele>
        <time>2026-08-13T08:09:37.780Z</time>
      </trkpt>
      <trkpt lat="48.84353" lon="6.75424">
        <ele>198.94</ele>
        <time>2026-08-13T08:09:43.783Z</time>
      </trkpt>
      <trkpt lat="48.84322" lon="6.75395">
        <ele>198.26</ele>
        <time>2026-08-13T08:09:49.790Z</time>
      </trkpt>
      <trkpt lat="48.84293" lon="6.75368">
        <ele>197.34</ele>
        <time>2026-08-13T08:09:55.813Z</time>
      </trkpt>
      <trkpt lat="48.84264" lon="6.75341">
        <ele>196.34</ele>
        <time>2026-08-13T08:10:01.793Z</time>
      </trkpt>
      <trkpt lat="48.84235" lon="6.75315">
        <ele>196.92</ele>
        <time>2026-08-13T08:10:07.790Z</time>
      </trkpt>
      <trkpt lat="48.84205" lon="6.75287">
        <ele>197.91</ele>
        <time>2026-08-13T08:10:13.785Z</time>
      </trkpt>
      <trkpt lat="48.84176" lon="6.75251">
        <ele>197.57</ele>
        <time>2026-08-13T08:10:19.791Z</time>
      </trkpt>
      <trkpt lat="48.84146" lon="6.75207">
        <ele>197.16</ele>
        <time>2026-08-13T08:10:25.797Z</time>
      </trkpt>
      <trkpt lat="48.84117" lon="6.75165">
        <ele>197.37</ele>
        <time>2026-08-13T08:10:31.795Z</time>
      </trkpt>
      <trkpt lat="48.8409" lon="6.75127">
        <ele>197.85</ele>
        <time>2026-08-13T08:10:37.788Z</time>
      </trkpt>
      <trkpt lat="48.84064" lon="6.75092">
        <ele>197.28</ele>
        <time>2026-08-13T08:10:43.790Z</time>
      </trkpt>
      <trkpt lat="48.84035" lon="6.75057">
        <ele>197.3</ele>
        <time>2026-08-13T08:10:49.789Z</time>
      </trkpt>
      <trkpt lat="48.84004" lon="6.75019">
        <ele>198.24</ele>
        <time>2026-08-13T08:10:55.806Z</time>
      </trkpt>
      <trkpt lat="48.83972" lon="6.7498">
        <ele>196.27</ele>
        <time>2026-08-13T08:11:01.793Z</time>
      </trkpt>
      <trkpt lat="48.83938" lon="6.7494">
        <ele>196.83</ele>
        <time>2026-08-13T08:11:07.787Z</time>
      </trkpt>
      <trkpt lat="48.83906" lon="6.74901">
        <ele>198.77</ele>
        <time>2026-08-13T08:11:13.788Z</time>
      </trkpt>
      <trkpt lat="48.83878" lon="6.74867">
        <ele>199.49</ele>
        <time>2026-08-13T08:11:19.786Z</time>
      </trkpt>
      <trkpt lat="48.83849" lon="6.74833">
        <ele>201.22</ele>
        <time>2026-08-13T08:11:25.791Z</time>
      </trkpt>
      <trkpt lat="48.8382" lon="6.74797">
        <ele>200.84</ele>
        <time>2026-08-13T08:11:31.794Z</time>
      </trkpt>
      <trkpt lat="48.83791" lon="6.74759">
        <ele>199.95</ele>
        <time>2026-08-13T08:11:37.787Z</time>
      </trkpt>
      <trkpt lat="48.83761" lon="6.74725">
        <ele>198.44</ele>
        <time>2026-08-13T08:11:43.784Z</time>
      </trkpt>
      <trkpt lat="48.83734" lon="6.74691">
        <ele>199.57</ele>
        <time>2026-08-13T08:11:49.787Z</time>
      </trkpt>
      <trkpt lat="48.83706" lon="6.74659">
        <ele>201.23</ele>
        <time>2026-08-13T08:11:55.793Z</time>
      </trkpt>
      <trkpt lat="48.83679" lon="6.74627">
        <ele>200.99</ele>
        <time>2026-08-13T08:12:01.790Z</time>
      </trkpt>
      <trkpt lat="48.83653" lon="6.74592">
        <ele>200.02</ele>
        <time>2026-08-13T08:12:07.788Z</time>
      </trkpt>
      <trkpt lat="48.83623" lon="6.74552">
        <ele>199.53</ele>
        <time>2026-08-13T08:12:13.787Z</time>
      </trkpt>
      <trkpt lat="48.83592" lon="6.74506">
        <ele>198.84</ele>
        <time>2026-08-13T08:12:19.789Z</time>
      </trkpt>
      <trkpt lat="48.83561" lon="6.74454">
        <ele>196.94</ele>
        <time>2026-08-13T08:12:25.809Z</time>
      </trkpt>
      <trkpt lat="48.83529" lon="6.74397">
        <ele>195.66</ele>
        <time>2026-08-13T08:12:31.792Z</time>
      </trkpt>
      <trkpt lat="48.83499" lon="6.74335">
        <ele>194.73</ele>
        <time>2026-08-13T08:12:37.784Z</time>
      </trkpt>
      <trkpt lat="48.83472" lon="6.7427">
        <ele>193.28</ele>
        <time>2026-08-13T08:12:43.786Z</time>
      </trkpt>
      <trkpt lat="48.83446" lon="6.742">
        <ele>192.06</ele>
        <time>2026-08-13T08:12:49.787Z</time>
      </trkpt>
      <trkpt lat="48.83418" lon="6.74124">
        <ele>189.91</ele>
        <time>2026-08-13T08:12:55.793Z</time>
      </trkpt>
      <trkpt lat="48.83387" lon="6.74042">
        <ele>188.38</ele>
        <time>2026-08-13T08:13:01.801Z</time>
      </trkpt>
      <trkpt lat="48.83349" lon="6.73968">
        <ele>188.11</ele>
        <time>2026-08-13T08:13:07.788Z</time>
      </trkpt>
      <trkpt lat="48.83307" lon="6.73906">
        <ele>186.91</ele>
        <time>2026-08-13T08:13:13.792Z</time>
      </trkpt>
      <trkpt lat="48.83272" lon="6.73853">
        <ele>186.68</ele>
        <time>2026-08-13T08:13:19.791Z</time>
      </trkpt>
      <trkpt lat="48.83244" lon="6.73812">
        <ele>189.72</ele>
        <time>2026-08-13T08:13:25.795Z</time>
      </trkpt>
      <trkpt lat="48.83221" lon="6.7377">
        <ele>191.68</ele>
        <time>2026-08-13T08:13:31.793Z</time>
      </trkpt>
      <trkpt lat="48.83201" lon="6.7372">
        <ele>190.16</ele>
        <time>2026-08-13T08:13:37.787Z</time>
      </trkpt>
      <trkpt lat="48.8318" lon="6.73668">
        <ele>190.14</ele>
        <time>2026-08-13T08:13:43.788Z</time>
      </trkpt>
      <trkpt lat="48.83159" lon="6.73615">
        <ele>190.83</ele>
        <time>2026-08-13T08:13:49.789Z</time>
      </trkpt>
      <trkpt lat="48.83137" lon="6.73563">
        <ele>191.5</ele>
        <time>2026-08-13T08:13:55.797Z</time>
      </trkpt>
      <trkpt lat="48.83114" lon="6.7351">
        <ele>191.01</ele>
        <time>2026-08-13T08:14:01.793Z</time>
      </trkpt>
      <trkpt lat="48.83089" lon="6.7346">
        <ele>190.72</ele>
        <time>2026-08-13T08:14:07.787Z</time>
      </trkpt>
      <trkpt lat="48.83064" lon="6.73408">
        <ele>191.02</ele>
        <time>2026-08-13T08:14:13.786Z</time>
      </trkpt>
      <trkpt lat="48.8304" lon="6.73357">
        <ele>191.94</ele>
        <time>2026-08-13T08:14:19.787Z</time>
      </trkpt>
      <trkpt lat="48.83015" lon="6.73308">
        <ele>191.4</ele>
        <time>2026-08-13T08:14:25.797Z</time>
      </trkpt>
      <trkpt lat="48.8299" lon="6.73259">
        <ele>190.47</ele>
        <time>2026-08-13T08:14:31.792Z</time>
      </trkpt>
      <trkpt lat="48.82965" lon="6.73205">
        <ele>190</ele>
        <time>2026-08-13T08:14:37.788Z</time>
      </trkpt>
      <trkpt lat="48.82939" lon="6.73151">
        <ele>190.8</ele>
        <time>2026-08-13T08:14:43.786Z</time>
      </trkpt>
      <trkpt lat="48.82912" lon="6.73094">
        <ele>190.62</ele>
        <time>2026-08-13T08:14:49.786Z</time>
      </trkpt>
      <trkpt lat="48.82885" lon="6.73036">
        <ele>189.06</ele>
        <time>2026-08-13T08:14:55.812Z</time>
      </trkpt>
      <trkpt lat="48.82855" lon="6.72974">
        <ele>188.67</ele>
        <time>2026-08-13T08:15:01.798Z</time>
      </trkpt>
      <trkpt lat="48.82826" lon="6.72917">
        <ele>191.01</ele>
        <time>2026-08-13T08:15:07.786Z</time>
      </trkpt>
      <trkpt lat="48.82792" lon="6.72873">
        <ele>190.63</ele>
        <time>2026-08-13T08:15:13.789Z</time>
      </trkpt>
      <trkpt lat="48.82747" lon="6.72841">
        <ele>188.07</ele>
        <time>2026-08-13T08:15:19.787Z</time>
      </trkpt>
      <trkpt lat="48.82689" lon="6.72807">
        <ele>182.23</ele>
        <time>2026-08-13T08:15:25.811Z</time>
      </trkpt>
      <trkpt lat="48.82628" lon="6.72771">
        <ele>178.77</ele>
        <time>2026-08-13T08:15:31.793Z</time>
      </trkpt>
      <trkpt lat="48.82569" lon="6.72735">
        <ele>179.39</ele>
        <time>2026-08-13T08:15:37.786Z</time>
      </trkpt>
      <trkpt lat="48.82513" lon="6.72698">
        <ele>176.21</ele>
        <time>2026-08-13T08:15:43.780Z</time>
      </trkpt>
      <trkpt lat="48.82455" lon="6.72666">
        <ele>172.38</ele>
        <time>2026-08-13T08:15:49.777Z</time>
      </trkpt>
      <trkpt lat="48.824" lon="6.72634">
        <ele>170.67</ele>
        <time>2026-08-13T08:15:55.792Z</time>
      </trkpt>
      <trkpt lat="48.82348" lon="6.72604">
        <ele>171.99</ele>
        <time>2026-08-13T08:16:01.793Z</time>
      </trkpt>
      <trkpt lat="48.82299" lon="6.72576">
        <ele>172.89</ele>
        <time>2026-08-13T08:16:07.791Z</time>
      </trkpt>
      <trkpt lat="48.8225" lon="6.72548">
        <ele>172.02</ele>
        <time>2026-08-13T08:16:13.778Z</time>
      </trkpt>
      <trkpt lat="48.82209" lon="6.72524">
        <ele>171.02</ele>
        <time>2026-08-13T08:16:19.790Z</time>
      </trkpt>
      <trkpt lat="48.82172" lon="6.72501">
        <ele>169.09</ele>
        <time>2026-08-13T08:16:25.814Z</time>
      </trkpt>
      <trkpt lat="48.8214" lon="6.72482">
        <ele>170.89</ele>
        <time>2026-08-13T08:16:31.802Z</time>
      </trkpt>
      <trkpt lat="48.82118" lon="6.72466">
        <ele>172.5</ele>
        <time>2026-08-13T08:16:37.790Z</time>
      </trkpt>
      <trkpt lat="48.82099" lon="6.72454">
        <ele>172.28</ele>
        <time>2026-08-13T08:16:43.793Z</time>
      </trkpt>
      <trkpt lat="48.82079" lon="6.7244">
        <ele>171.59</ele>
        <time>2026-08-13T08:16:49.792Z</time>
      </trkpt>
      <trkpt lat="48.82058" lon="6.72426">
        <ele>171.08</ele>
        <time>2026-08-13T08:16:55.813Z</time>
      </trkpt>
      <trkpt lat="48.82039" lon="6.72413">
        <ele>169.14</ele>
        <time>2026-08-13T08:17:01.793Z</time>
      </trkpt>
      <trkpt lat="48.82022" lon="6.72394">
        <ele>169.92</ele>
        <time>2026-08-13T08:17:07.789Z</time>
      </trkpt>
      <trkpt lat="48.82011" lon="6.72363">
        <ele>171.74</ele>
        <time>2026-08-13T08:17:13.795Z</time>
      </trkpt>
      <trkpt lat="48.81993" lon="6.72341">
        <ele>174.09</ele>
        <time>2026-08-13T08:17:19.794Z</time>
      </trkpt>
      <trkpt lat="48.81969" lon="6.72353">
        <ele>177.07</ele>
        <time>2026-08-13T08:17:25.813Z</time>
      </trkpt>
      <trkpt lat="48.81944" lon="6.72345">
        <ele>179.18</ele>
        <time>2026-08-13T08:17:31.781Z</time>
      </trkpt>
      <trkpt lat="48.81922" lon="6.72332">
        <ele>221.69</ele>
        <time>2026-08-13T08:17:37.790Z</time>
      </trkpt>
      <trkpt lat="48.81897" lon="6.72312">
        <ele>221.69</ele>
        <time>2026-08-13T08:17:43.791Z</time>
      </trkpt>
      <trkpt lat="48.81871" lon="6.72292">
        <ele>221.69</ele>
        <time>2026-08-13T08:17:49.791Z</time>
      </trkpt>
      <trkpt lat="48.81847" lon="6.72274">
        <ele>221.69</ele>
        <time>2026-08-13T08:17:55.813Z</time>
      </trkpt>
      <trkpt lat="48.81825" lon="6.72256">
        <ele>221.69</ele>
        <time>2026-08-13T08:18:01.793Z</time>
      </trkpt>
      <trkpt lat="48.81803" lon="6.7224">
        <ele>221.69</ele>
        <time>2026-08-13T08:18:07.793Z</time>
      </trkpt>
      <trkpt lat="48.81789" lon="6.72224">
        <ele>221.69</ele>
        <time>2026-08-13T08:18:13.789Z</time>
      </trkpt>
      <trkpt lat="48.8178" lon="6.72213">
        <ele>219.69</ele>
        <time>2026-08-13T08:18:32.719Z</time>
      </trkpt>
      <trkpt lat="48.81766" lon="6.72205">
        <ele>219.69</ele>
        <time>2026-08-13T08:18:37.774Z</time>
      </trkpt>
      <trkpt lat="48.81742" lon="6.72186">
        <ele>219.69</ele>
        <time>2026-08-13T08:18:43.783Z</time>
      </trkpt>
      <trkpt lat="48.81714" lon="6.72162">
        <ele>219.69</ele>
        <time>2026-08-13T08:18:49.784Z</time>
      </trkpt>
      <trkpt lat="48.81677" lon="6.72132">
        <ele>219.69</ele>
        <time>2026-08-13T08:18:55.811Z</time>
      </trkpt>
      <trkpt lat="48.81632" lon="6.72095">
        <ele>219.69</ele>
        <time>2026-08-13T08:19:01.794Z</time>
      </trkpt>
      <trkpt lat="48.8158" lon="6.72053">
        <ele>219.69</ele>
        <time>2026-08-13T08:19:07.784Z</time>
      </trkpt>
      <trkpt lat="48.81526" lon="6.72027">
        <ele>219.69</ele>
        <time>2026-08-13T08:19:13.781Z</time>
      </trkpt>
      <trkpt lat="48.81475" lon="6.7205">
        <ele>219.69</ele>
        <time>2026-08-13T08:19:19.790Z</time>
      </trkpt>
      <trkpt lat="48.81433" lon="6.72074">
        <ele>219.69</ele>
        <time>2026-08-13T08:19:25.809Z</time>
      </trkpt>
      <trkpt lat="48.81394" lon="6.72097">
        <ele>219.69</ele>
        <time>2026-08-13T08:19:31.795Z</time>
      </trkpt>
      <trkpt lat="48.81357" lon="6.72118">
        <ele>219.69</ele>
        <time>2026-08-13T08:19:37.788Z</time>
      </trkpt>
      <trkpt lat="48.81314" lon="6.7212">
        <ele>219.69</ele>
        <time>2026-08-13T08:19:43.788Z</time>
      </trkpt>
      <trkpt lat="48.81279" lon="6.72094">
        <ele>219.69</ele>
        <time>2026-08-13T08:19:49.791Z</time>
      </trkpt>
      <trkpt lat="48.81269" lon="6.72068">
        <ele>219.69</ele>
        <time>2026-08-13T08:19:55.863Z</time>
      </trkpt>
      <trkpt lat="48.81267" lon="6.72046">
        <ele>219.69</ele>
        <time>2026-08-13T08:20:01.802Z</time>
      </trkpt>
      <trkpt lat="48.81269" lon="6.72032">
        <ele>161.04</ele>
        <time>2026-08-13T08:20:07.807Z</time>
      </trkpt>
      <trkpt lat="48.81264" lon="6.72044">
        <ele>208.86</ele>
        <time>2026-08-13T08:20:19.790Z</time>
      </trkpt>
      <trkpt lat="48.81272" lon="6.72052">
        <ele>208.89</ele>
        <time>2026-08-13T08:21:09.758Z</time>
      </trkpt>
      <trkpt lat="48.81269" lon="6.72067">
        <ele>208.89</ele>
        <time>2026-08-13T08:21:39.744Z</time>
      </trkpt>
      <trkpt lat="48.81271" lon="6.72054">
        <ele>208.99</ele>
        <time>2026-08-13T08:22:26.066Z</time>
      </trkpt>
      <trkpt lat="48.81267" lon="6.72041">
        <ele>208.89</ele>
        <time>2026-08-13T08:24:04.736Z</time>
      </trkpt>
      <trkpt lat="48.81268" lon="6.72056">
        <ele>208.89</ele>
        <time>2026-08-13T08:24:23.735Z</time>
      </trkpt>
      <trkpt lat="48.81265" lon="6.72069">
        <ele>209.19</ele>
        <time>2026-08-13T08:24:30.746Z</time>
      </trkpt>
      <trkpt lat="48.81257" lon="6.7206">
        <ele>209.19</ele>
        <time>2026-08-13T08:24:36.737Z</time>
      </trkpt>
      <trkpt lat="48.81265" lon="6.72052">
        <ele>209.19</ele>
        <time>2026-08-13T08:25:21.748Z</time>
      </trkpt>
      <trkpt lat="48.81276" lon="6.72045">
        <ele>208.89</ele>
        <time>2026-08-13T08:30:07.789Z</time>
      </trkpt>
      <trkpt lat="48.81271" lon="6.72027">
        <ele>208.89</ele>
        <time>2026-08-13T08:30:45.734Z</time>
      </trkpt>
      <trkpt lat="48.81266" lon="6.72006">
        <ele>208.89</ele>
        <time>2026-08-13T08:30:50.740Z</time>
      </trkpt>
      <trkpt lat="48.81259" lon="6.71978">
        <ele>208.89</ele>
        <time>2026-08-13T08:30:55.775Z</time>
      </trkpt>
      <trkpt lat="48.81254" lon="6.71949">
        <ele>208.19</ele>
        <time>2026-08-13T08:31:01.794Z</time>
      </trkpt>
      <trkpt lat="48.81252" lon="6.71917">
        <ele>208.19</ele>
        <time>2026-08-13T08:31:07.775Z</time>
      </trkpt>
      <trkpt lat="48.81237" lon="6.71882">
        <ele>208.29</ele>
        <time>2026-08-13T08:31:13.781Z</time>
      </trkpt>
      <trkpt lat="48.81234" lon="6.71859">
        <ele>208.29</ele>
        <time>2026-08-13T08:31:18.874Z</time>
      </trkpt>
      <trkpt lat="48.81231" lon="6.71828">
        <ele>208.29</ele>
        <time>2026-08-13T08:31:24.741Z</time>
      </trkpt>
      <trkpt lat="48.81239" lon="6.71801">
        <ele>208.29</ele>
        <time>2026-08-13T08:31:30.733Z</time>
      </trkpt>
      <trkpt lat="48.81236" lon="6.71779">
        <ele>208.29</ele>
        <time>2026-08-13T08:31:35.734Z</time>
      </trkpt>
      <trkpt lat="48.81224" lon="6.71756">
        <ele>208.29</ele>
        <time>2026-08-13T08:31:40.735Z</time>
      </trkpt>
      <trkpt lat="48.81229" lon="6.71739">
        <ele>208.29</ele>
        <time>2026-08-13T08:31:45.813Z</time>
      </trkpt>
      <trkpt lat="48.81235" lon="6.71723">
        <ele>208.29</ele>
        <time>2026-08-13T08:31:51.747Z</time>
      </trkpt>
      <trkpt lat="48.81224" lon="6.71697">
        <ele>208.29</ele>
        <time>2026-08-13T08:31:57.758Z</time>
      </trkpt>
      <trkpt lat="48.81211" lon="6.71679">
        <ele>208.29</ele>
        <time>2026-08-13T08:32:03.728Z</time>
      </trkpt>
      <trkpt lat="48.81202" lon="6.71668">
        <ele>208.29</ele>
        <time>2026-08-13T08:32:08.746Z</time>
      </trkpt>
      <trkpt lat="48.81193" lon="6.7167">
        <ele>208.99</ele>
        <time>2026-08-13T08:32:42.739Z</time>
      </trkpt>
      <trkpt lat="48.81191" lon="6.71655">
        <ele>208.99</ele>
        <time>2026-08-13T08:33:06.732Z</time>
      </trkpt>
      <trkpt lat="48.8117" lon="6.7164">
        <ele>208.99</ele>
        <time>2026-08-13T08:33:11.740Z</time>
      </trkpt>
      <trkpt lat="48.8115" lon="6.71631">
        <ele>208.99</ele>
        <time>2026-08-13T08:33:16.746Z</time>
      </trkpt>
      <trkpt lat="48.81126" lon="6.71615">
        <ele>208.99</ele>
        <time>2026-08-13T08:33:22.733Z</time>
      </trkpt>
      <trkpt lat="48.81107" lon="6.71601">
        <ele>208.09</ele>
        <time>2026-08-13T08:33:27.739Z</time>
      </trkpt>
      <trkpt lat="48.81079" lon="6.71587">
        <ele>208.09</ele>
        <time>2026-08-13T08:33:33.733Z</time>
      </trkpt>
      <trkpt lat="48.8105" lon="6.71571">
        <ele>208.09</ele>
        <time>2026-08-13T08:33:39.746Z</time>
      </trkpt>
      <trkpt lat="48.81022" lon="6.71555">
        <ele>208.09</ele>
        <time>2026-08-13T08:33:45.753Z</time>
      </trkpt>
      <trkpt lat="48.80994" lon="6.7154">
        <ele>208.09</ele>
        <time>2026-08-13T08:33:51.741Z</time>
      </trkpt>
      <trkpt lat="48.80971" lon="6.71526">
        <ele>208.09</ele>
        <time>2026-08-13T08:33:56.748Z</time>
      </trkpt>
      <trkpt lat="48.80948" lon="6.71511">
        <ele>208.09</ele>
        <time>2026-08-13T08:34:01.774Z</time>
      </trkpt>
      <trkpt lat="48.80918" lon="6.71493">
        <ele>208.09</ele>
        <time>2026-08-13T08:34:07.763Z</time>
      </trkpt>
      <trkpt lat="48.80887" lon="6.71478">
        <ele>208.09</ele>
        <time>2026-08-13T08:34:13.768Z</time>
      </trkpt>
      <trkpt lat="48.80856" lon="6.71461">
        <ele>208.09</ele>
        <time>2026-08-13T08:34:19.777Z</time>
      </trkpt>
      <trkpt lat="48.80826" lon="6.71444">
        <ele>208.09</ele>
        <time>2026-08-13T08:34:25.809Z</time>
      </trkpt>
      <trkpt lat="48.80794" lon="6.71436">
        <ele>208.09</ele>
        <time>2026-08-13T08:34:31.811Z</time>
      </trkpt>
      <trkpt lat="48.80765" lon="6.71425">
        <ele>208.09</ele>
        <time>2026-08-13T08:34:37.785Z</time>
      </trkpt>
      <trkpt lat="48.80738" lon="6.71417">
        <ele>208.09</ele>
        <time>2026-08-13T08:34:43.780Z</time>
      </trkpt>
      <trkpt lat="48.80719" lon="6.71402">
        <ele>208.09</ele>
        <time>2026-08-13T08:34:49.781Z</time>
      </trkpt>
      <trkpt lat="48.80703" lon="6.71376">
        <ele>163.03</ele>
        <time>2026-08-13T08:34:55.816Z</time>
      </trkpt>
      <trkpt lat="48.80693" lon="6.71341">
        <ele>164.78</ele>
        <time>2026-08-13T08:35:01.794Z</time>
      </trkpt>
      <trkpt lat="48.80683" lon="6.713">
        <ele>163.57</ele>
        <time>2026-08-13T08:35:07.783Z</time>
      </trkpt>
      <trkpt lat="48.80673" lon="6.71257">
        <ele>210.78</ele>
        <time>2026-08-13T08:35:13.791Z</time>
      </trkpt>
      <trkpt lat="48.8066" lon="6.71215">
        <ele>210.79</ele>
        <time>2026-08-13T08:35:19.770Z</time>
      </trkpt>
      <trkpt lat="48.80648" lon="6.71173">
        <ele>210.8</ele>
        <time>2026-08-13T08:35:25.787Z</time>
      </trkpt>
      <trkpt lat="48.80636" lon="6.7113">
        <ele>210.8</ele>
        <time>2026-08-13T08:35:31.775Z</time>
      </trkpt>
      <trkpt lat="48.80623" lon="6.71089">
        <ele>210.8</ele>
        <time>2026-08-13T08:35:37.774Z</time>
      </trkpt>
      <trkpt lat="48.80611" lon="6.71049">
        <ele>210.8</ele>
        <time>2026-08-13T08:35:43.778Z</time>
      </trkpt>
      <trkpt lat="48.80599" lon="6.71006">
        <ele>210.8</ele>
        <time>2026-08-13T08:35:49.781Z</time>
      </trkpt>
      <trkpt lat="48.80586" lon="6.70952">
        <ele>210.8</ele>
        <time>2026-08-13T08:35:55.787Z</time>
      </trkpt>
      <trkpt lat="48.80572" lon="6.70891">
        <ele>210.8</ele>
        <time>2026-08-13T08:36:01.774Z</time>
      </trkpt>
      <trkpt lat="48.80546" lon="6.70841">
        <ele>210.8</ele>
        <time>2026-08-13T08:36:07.776Z</time>
      </trkpt>
      <trkpt lat="48.80512" lon="6.70808">
        <ele>210.8</ele>
        <time>2026-08-13T08:36:13.780Z</time>
      </trkpt>
      <trkpt lat="48.80478" lon="6.70798">
        <ele>210.8</ele>
        <time>2026-08-13T08:36:19.774Z</time>
      </trkpt>
      <trkpt lat="48.80457" lon="6.7078">
        <ele>210.8</ele>
        <time>2026-08-13T08:36:24.799Z</time>
      </trkpt>
      <trkpt lat="48.80449" lon="6.70736">
        <ele>210.8</ele>
        <time>2026-08-13T08:36:30.744Z</time>
      </trkpt>
      <trkpt lat="48.8044" lon="6.707">
        <ele>210.8</ele>
        <time>2026-08-13T08:36:35.746Z</time>
      </trkpt>
      <trkpt lat="48.80422" lon="6.70667">
        <ele>165.64</ele>
        <time>2026-08-13T08:36:40.747Z</time>
      </trkpt>
      <trkpt lat="48.80398" lon="6.70636">
        <ele>166.05</ele>
        <time>2026-08-13T08:36:46.743Z</time>
      </trkpt>
      <trkpt lat="48.80373" lon="6.70609">
        <ele>167.93</ele>
        <time>2026-08-13T08:36:52.744Z</time>
      </trkpt>
      <trkpt lat="48.80344" lon="6.70591">
        <ele>167.84</ele>
        <time>2026-08-13T08:36:58.748Z</time>
      </trkpt>
      <trkpt lat="48.80312" lon="6.70584">
        <ele>167.69</ele>
        <time>2026-08-13T08:37:04.747Z</time>
      </trkpt>
      <trkpt lat="48.80282" lon="6.70578">
        <ele>167.5</ele>
        <time>2026-08-13T08:37:10.749Z</time>
      </trkpt>
      <trkpt lat="48.80253" lon="6.70574">
        <ele>167.6</ele>
        <time>2026-08-13T08:37:16.747Z</time>
      </trkpt>
      <trkpt lat="48.80231" lon="6.70569">
        <ele>165.03</ele>
        <time>2026-08-13T08:37:21.749Z</time>
      </trkpt>
      <trkpt lat="48.80205" lon="6.70563">
        <ele>160.48</ele>
        <time>2026-08-13T08:37:27.743Z</time>
      </trkpt>
      <trkpt lat="48.80182" lon="6.70557">
        <ele>157.49</ele>
        <time>2026-08-13T08:37:32.745Z</time>
      </trkpt>
      <trkpt lat="48.80158" lon="6.70552">
        <ele>155.54</ele>
        <time>2026-08-13T08:37:37.774Z</time>
      </trkpt>
      <trkpt lat="48.80133" lon="6.70546">
        <ele>150.78</ele>
        <time>2026-08-13T08:37:43.787Z</time>
      </trkpt>
      <trkpt lat="48.80105" lon="6.7054">
        <ele>148.09</ele>
        <time>2026-08-13T08:37:49.770Z</time>
      </trkpt>
      <trkpt lat="48.80076" lon="6.70538">
        <ele>149.72</ele>
        <time>2026-08-13T08:37:55.800Z</time>
      </trkpt>
      <trkpt lat="48.80055" lon="6.70533">
        <ele>149.54</ele>
        <time>2026-08-13T08:38:01.779Z</time>
      </trkpt>
      <trkpt lat="48.80025" lon="6.70527">
        <ele>150.96</ele>
        <time>2026-08-13T08:38:07.791Z</time>
      </trkpt>
      <trkpt lat="48.8" lon="6.70508">
        <ele>154.82</ele>
        <time>2026-08-13T08:38:13.786Z</time>
      </trkpt>
      <trkpt lat="48.79979" lon="6.70476">
        <ele>162.44</ele>
        <time>2026-08-13T08:38:19.788Z</time>
      </trkpt>
      <trkpt lat="48.79966" lon="6.70433">
        <ele>166.54</ele>
        <time>2026-08-13T08:38:25.804Z</time>
      </trkpt>
      <trkpt lat="48.79952" lon="6.70392">
        <ele>167.26</ele>
        <time>2026-08-13T08:38:31.801Z</time>
      </trkpt>
      <trkpt lat="48.79937" lon="6.70353">
        <ele>167.01</ele>
        <time>2026-08-13T08:38:37.785Z</time>
      </trkpt>
      <trkpt lat="48.79923" lon="6.70311">
        <ele>167.06</ele>
        <time>2026-08-13T08:38:43.787Z</time>
      </trkpt>
      <trkpt lat="48.79908" lon="6.70269">
        <ele>166.33</ele>
        <time>2026-08-13T08:38:49.790Z</time>
      </trkpt>
      <trkpt lat="48.79894" lon="6.70225">
        <ele>169.07</ele>
        <time>2026-08-13T08:38:55.798Z</time>
      </trkpt>
      <trkpt lat="48.79877" lon="6.70179">
        <ele>170.48</ele>
        <time>2026-08-13T08:39:01.801Z</time>
      </trkpt>
      <trkpt lat="48.79862" lon="6.70133">
        <ele>170.75</ele>
        <time>2026-08-13T08:39:07.787Z</time>
      </trkpt>
      <trkpt lat="48.79846" lon="6.70085">
        <ele>172.57</ele>
        <time>2026-08-13T08:39:13.790Z</time>
      </trkpt>
      <trkpt lat="48.7983" lon="6.70036">
        <ele>174.24</ele>
        <time>2026-08-13T08:39:19.789Z</time>
      </trkpt>
      <trkpt lat="48.79811" lon="6.69978">
        <ele>173.66</ele>
        <time>2026-08-13T08:39:25.800Z</time>
      </trkpt>
      <trkpt lat="48.79787" lon="6.69914">
        <ele>174.13</ele>
        <time>2026-08-13T08:39:31.797Z</time>
      </trkpt>
      <trkpt lat="48.79769" lon="6.69861">
        <ele>173.19</ele>
        <time>2026-08-13T08:39:37.787Z</time>
      </trkpt>
      <trkpt lat="48.79751" lon="6.69812">
        <ele>173.09</ele>
        <time>2026-08-13T08:39:43.789Z</time>
      </trkpt>
      <trkpt lat="48.79733" lon="6.69761">
        <ele>172.19</ele>
        <time>2026-08-13T08:39:49.787Z</time>
      </trkpt>
      <trkpt lat="48.79714" lon="6.69706">
        <ele>170.18</ele>
        <time>2026-08-13T08:39:55.811Z</time>
      </trkpt>
      <trkpt lat="48.79694" lon="6.6965">
        <ele>170.03</ele>
        <time>2026-08-13T08:40:01.795Z</time>
      </trkpt>
      <trkpt lat="48.79674" lon="6.69595">
        <ele>169.26</ele>
        <time>2026-08-13T08:40:07.788Z</time>
      </trkpt>
      <trkpt lat="48.79658" lon="6.69548">
        <ele>170.8</ele>
        <time>2026-08-13T08:40:13.787Z</time>
      </trkpt>
      <trkpt lat="48.79644" lon="6.69507">
        <ele>171.2</ele>
        <time>2026-08-13T08:40:19.790Z</time>
      </trkpt>
      <trkpt lat="48.79629" lon="6.69464">
        <ele>171.41</ele>
        <time>2026-08-13T08:40:25.811Z</time>
      </trkpt>
      <trkpt lat="48.79615" lon="6.69423">
        <ele>172.53</ele>
        <time>2026-08-13T08:40:31.799Z</time>
      </trkpt>
      <trkpt lat="48.79601" lon="6.69384">
        <ele>172.25</ele>
        <time>2026-08-13T08:40:37.790Z</time>
      </trkpt>
      <trkpt lat="48.79586" lon="6.69344">
        <ele>170.89</ele>
        <time>2026-08-13T08:40:43.790Z</time>
      </trkpt>
      <trkpt lat="48.79574" lon="6.69307">
        <ele>169.55</ele>
        <time>2026-08-13T08:40:49.783Z</time>
      </trkpt>
      <trkpt lat="48.79563" lon="6.69266">
        <ele>169.45</ele>
        <time>2026-08-13T08:40:55.789Z</time>
      </trkpt>
      <trkpt lat="48.7955" lon="6.69217">
        <ele>168.1</ele>
        <time>2026-08-13T08:41:01.795Z</time>
      </trkpt>
      <trkpt lat="48.79536" lon="6.69158">
        <ele>168.22</ele>
        <time>2026-08-13T08:41:07.785Z</time>
      </trkpt>
      <trkpt lat="48.79524" lon="6.69095">
        <ele>169.76</ele>
        <time>2026-08-13T08:41:13.786Z</time>
      </trkpt>
      <trkpt lat="48.79509" lon="6.69035">
        <ele>170.36</ele>
        <time>2026-08-13T08:41:19.786Z</time>
      </trkpt>
      <trkpt lat="48.7949" lon="6.68972">
        <ele>169.49</ele>
        <time>2026-08-13T08:41:25.813Z</time>
      </trkpt>
      <trkpt lat="48.79472" lon="6.68912">
        <ele>168.55</ele>
        <time>2026-08-13T08:41:31.795Z</time>
      </trkpt>
      <trkpt lat="48.79454" lon="6.68851">
        <ele>168.75</ele>
        <time>2026-08-13T08:41:37.785Z</time>
      </trkpt>
      <trkpt lat="48.79434" lon="6.68787">
        <ele>168.9</ele>
        <time>2026-08-13T08:41:43.785Z</time>
      </trkpt>
      <trkpt lat="48.79417" lon="6.68715">
        <ele>166.79</ele>
        <time>2026-08-13T08:41:49.787Z</time>
      </trkpt>
      <trkpt lat="48.79409" lon="6.6864">
        <ele>164.76</ele>
        <time>2026-08-13T08:41:55.814Z</time>
      </trkpt>
      <trkpt lat="48.79396" lon="6.68564">
        <ele>161.74</ele>
        <time>2026-08-13T08:42:01.797Z</time>
      </trkpt>
      <trkpt lat="48.79374" lon="6.68481">
        <ele>157.67</ele>
        <time>2026-08-13T08:42:07.783Z</time>
      </trkpt>
      <trkpt lat="48.79351" lon="6.68399">
        <ele>157.62</ele>
        <time>2026-08-13T08:42:13.784Z</time>
      </trkpt>
      <trkpt lat="48.7933" lon="6.6832">
        <ele>157.98</ele>
        <time>2026-08-13T08:42:19.793Z</time>
      </trkpt>
      <trkpt lat="48.79314" lon="6.68246">
        <ele>157.84</ele>
        <time>2026-08-13T08:42:25.814Z</time>
      </trkpt>
      <trkpt lat="48.79305" lon="6.68173">
        <ele>158.65</ele>
        <time>2026-08-13T08:42:31.796Z</time>
      </trkpt>
      <trkpt lat="48.793" lon="6.68103">
        <ele>159.18</ele>
        <time>2026-08-13T08:42:37.788Z</time>
      </trkpt>
      <trkpt lat="48.79293" lon="6.68034">
        <ele>158.41</ele>
        <time>2026-08-13T08:42:43.790Z</time>
      </trkpt>
      <trkpt lat="48.79281" lon="6.67973">
        <ele>159.09</ele>
        <time>2026-08-13T08:42:49.792Z</time>
      </trkpt>
      <trkpt lat="48.79269" lon="6.6792">
        <ele>159.73</ele>
        <time>2026-08-13T08:42:55.812Z</time>
      </trkpt>
      <trkpt lat="48.79257" lon="6.67871">
        <ele>160.12</ele>
        <time>2026-08-13T08:43:01.802Z</time>
      </trkpt>
      <trkpt lat="48.79248" lon="6.67821">
        <ele>161.05</ele>
        <time>2026-08-13T08:43:07.793Z</time>
      </trkpt>
      <trkpt lat="48.79242" lon="6.67759">
        <ele>160.12</ele>
        <time>2026-08-13T08:43:13.790Z</time>
      </trkpt>
      <trkpt lat="48.79242" lon="6.677">
        <ele>159.01</ele>
        <time>2026-08-13T08:43:19.792Z</time>
      </trkpt>
      <trkpt lat="48.79245" lon="6.67643">
        <ele>158.22</ele>
        <time>2026-08-13T08:43:25.789Z</time>
      </trkpt>
      <trkpt lat="48.79244" lon="6.67585">
        <ele>159.32</ele>
        <time>2026-08-13T08:43:31.807Z</time>
      </trkpt>
      <trkpt lat="48.79245" lon="6.67531">
        <ele>160.96</ele>
        <time>2026-08-13T08:43:37.793Z</time>
      </trkpt>
      <trkpt lat="48.79243" lon="6.67481">
        <ele>163.35</ele>
        <time>2026-08-13T08:43:43.794Z</time>
      </trkpt>
      <trkpt lat="48.7924" lon="6.67432">
        <ele>164.63</ele>
        <time>2026-08-13T08:43:49.797Z</time>
      </trkpt>
      <trkpt lat="48.79236" lon="6.67387">
        <ele>166.93</ele>
        <time>2026-08-13T08:43:55.816Z</time>
      </trkpt>
      <trkpt lat="48.7923" lon="6.67348">
        <ele>171.14</ele>
        <time>2026-08-13T08:44:01.801Z</time>
      </trkpt>
      <trkpt lat="48.79218" lon="6.67307">
        <ele>170.05</ele>
        <time>2026-08-13T08:44:07.790Z</time>
      </trkpt>
      <trkpt lat="48.79205" lon="6.6726">
        <ele>163.6</ele>
        <time>2026-08-13T08:44:13.789Z</time>
      </trkpt>
      <trkpt lat="48.79197" lon="6.67211">
        <ele>161.41</ele>
        <time>2026-08-13T08:44:19.789Z</time>
      </trkpt>
      <trkpt lat="48.79192" lon="6.67163">
        <ele>163.19</ele>
        <time>2026-08-13T08:44:25.812Z</time>
      </trkpt>
      <trkpt lat="48.79187" lon="6.67114">
        <ele>163.75</ele>
        <time>2026-08-13T08:44:31.803Z</time>
      </trkpt>
      <trkpt lat="48.79181" lon="6.67063">
        <ele>163.42</ele>
        <time>2026-08-13T08:44:37.796Z</time>
      </trkpt>
      <trkpt lat="48.79174" lon="6.67013">
        <ele>163.76</ele>
        <time>2026-08-13T08:44:43.798Z</time>
      </trkpt>
      <trkpt lat="48.79169" lon="6.66962">
        <ele>165.83</ele>
        <time>2026-08-13T08:44:49.791Z</time>
      </trkpt>
      <trkpt lat="48.79165" lon="6.66916">
        <ele>164.82</ele>
        <time>2026-08-13T08:44:55.814Z</time>
      </trkpt>
      <trkpt lat="48.79161" lon="6.6687">
        <ele>165.52</ele>
        <time>2026-08-13T08:45:01.804Z</time>
      </trkpt>
      <trkpt lat="48.79158" lon="6.66825">
        <ele>165.54</ele>
        <time>2026-08-13T08:45:07.798Z</time>
      </trkpt>
      <trkpt lat="48.79151" lon="6.66781">
        <ele>165.82</ele>
        <time>2026-08-13T08:45:13.803Z</time>
      </trkpt>
      <trkpt lat="48.79141" lon="6.66736">
        <ele>166.18</ele>
        <time>2026-08-13T08:45:19.796Z</time>
      </trkpt>
      <trkpt lat="48.79128" lon="6.6669">
        <ele>167.46</ele>
        <time>2026-08-13T08:45:25.815Z</time>
      </trkpt>
      <trkpt lat="48.79114" lon="6.66636">
        <ele>167.58</ele>
        <time>2026-08-13T08:45:31.803Z</time>
      </trkpt>
      <trkpt lat="48.79099" lon="6.66582">
        <ele>168.05</ele>
        <time>2026-08-13T08:45:37.797Z</time>
      </trkpt>
      <trkpt lat="48.79083" lon="6.66525">
        <ele>165.66</ele>
        <time>2026-08-13T08:45:43.796Z</time>
      </trkpt>
      <trkpt lat="48.79053" lon="6.66482">
        <ele>164.82</ele>
        <time>2026-08-13T08:45:49.793Z</time>
      </trkpt>
      <trkpt lat="48.79013" lon="6.66468">
        <ele>162.97</ele>
        <time>2026-08-13T08:45:55.817Z</time>
      </trkpt>
      <trkpt lat="48.78972" lon="6.6646">
        <ele>162.13</ele>
        <time>2026-08-13T08:46:01.803Z</time>
      </trkpt>
      <trkpt lat="48.78931" lon="6.66452">
        <ele>161.67</ele>
        <time>2026-08-13T08:46:07.808Z</time>
      </trkpt>
      <trkpt lat="48.78912" lon="6.66398">
        <ele>162.02</ele>
        <time>2026-08-13T08:46:13.805Z</time>
      </trkpt>
      <trkpt lat="48.78908" lon="6.66337">
        <ele>160.41</ele>
        <time>2026-08-13T08:46:19.806Z</time>
      </trkpt>
      <trkpt lat="48.78906" lon="6.66285">
        <ele>161.43</ele>
        <time>2026-08-13T08:46:25.815Z</time>
      </trkpt>
      <trkpt lat="48.78903" lon="6.66235">
        <ele>162.2</ele>
        <time>2026-08-13T08:46:31.804Z</time>
      </trkpt>
      <trkpt lat="48.789" lon="6.66187">
        <ele>162.39</ele>
        <time>2026-08-13T08:46:37.797Z</time>
      </trkpt>
      <trkpt lat="48.78896" lon="6.66142">
        <ele>162.83</ele>
        <time>2026-08-13T08:46:43.804Z</time>
      </trkpt>
      <trkpt lat="48.78893" lon="6.66095">
        <ele>163.31</ele>
        <time>2026-08-13T08:46:49.802Z</time>
      </trkpt>
      <trkpt lat="48.7889" lon="6.66048">
        <ele>163.2</ele>
        <time>2026-08-13T08:46:55.815Z</time>
      </trkpt>
      <trkpt lat="48.78887" lon="6.66005">
        <ele>163.09</ele>
        <time>2026-08-13T08:47:01.814Z</time>
      </trkpt>
      <trkpt lat="48.78884" lon="6.65959">
        <ele>163.1</ele>
        <time>2026-08-13T08:47:07.805Z</time>
      </trkpt>
      <trkpt lat="48.78881" lon="6.65912">
        <ele>163.51</ele>
        <time>2026-08-13T08:47:13.799Z</time>
      </trkpt>
      <trkpt lat="48.78878" lon="6.65857">
        <ele>162.63</ele>
        <time>2026-08-13T08:47:19.805Z</time>
      </trkpt>
      <trkpt lat="48.78873" lon="6.65793">
        <ele>162.49</ele>
        <time>2026-08-13T08:47:25.814Z</time>
      </trkpt>
      <trkpt lat="48.78868" lon="6.65726">
        <ele>161.83</ele>
        <time>2026-08-13T08:47:31.804Z</time>
      </trkpt>
      <trkpt lat="48.78865" lon="6.6566">
        <ele>162.25</ele>
        <time>2026-08-13T08:47:37.799Z</time>
      </trkpt>
      <trkpt lat="48.7886" lon="6.65596">
        <ele>162.69</ele>
        <time>2026-08-13T08:47:43.803Z</time>
      </trkpt>
      <trkpt lat="48.78855" lon="6.65534">
        <ele>160.96</ele>
        <time>2026-08-13T08:47:49.809Z</time>
      </trkpt>
      <trkpt lat="48.7885" lon="6.65475">
        <ele>159.04</ele>
        <time>2026-08-13T08:47:55.804Z</time>
      </trkpt>
      <trkpt lat="48.78847" lon="6.65419">
        <ele>159.12</ele>
        <time>2026-08-13T08:48:01.799Z</time>
      </trkpt>
      <trkpt lat="48.78843" lon="6.6536">
        <ele>158.83</ele>
        <time>2026-08-13T08:48:07.798Z</time>
      </trkpt>
      <trkpt lat="48.78838" lon="6.65298">
        <ele>158.42</ele>
        <time>2026-08-13T08:48:13.798Z</time>
      </trkpt>
      <trkpt lat="48.78834" lon="6.65231">
        <ele>157.78</ele>
        <time>2026-08-13T08:48:19.800Z</time>
      </trkpt>
      <trkpt lat="48.7883" lon="6.6516">
        <ele>157.93</ele>
        <time>2026-08-13T08:48:25.804Z</time>
      </trkpt>
      <trkpt lat="48.78826" lon="6.65091">
        <ele>157.19</ele>
        <time>2026-08-13T08:48:31.802Z</time>
      </trkpt>
      <trkpt lat="48.78821" lon="6.65026">
        <ele>155.57</ele>
        <time>2026-08-13T08:48:37.805Z</time>
      </trkpt>
      <trkpt lat="48.78818" lon="6.64973">
        <ele>155.88</ele>
        <time>2026-08-13T08:48:43.802Z</time>
      </trkpt>
      <trkpt lat="48.78816" lon="6.64927">
        <ele>157</ele>
        <time>2026-08-13T08:48:49.803Z</time>
      </trkpt>
      <trkpt lat="48.78813" lon="6.64879">
        <ele>157.02</ele>
        <time>2026-08-13T08:48:55.806Z</time>
      </trkpt>
      <trkpt lat="48.78809" lon="6.64823">
        <ele>157.54</ele>
        <time>2026-08-13T08:49:01.798Z</time>
      </trkpt>
      <trkpt lat="48.78805" lon="6.64771">
        <ele>157.58</ele>
        <time>2026-08-13T08:49:07.801Z</time>
      </trkpt>
      <trkpt lat="48.78801" lon="6.64719">
        <ele>157.16</ele>
        <time>2026-08-13T08:49:13.802Z</time>
      </trkpt>
      <trkpt lat="48.78797" lon="6.64671">
        <ele>157.86</ele>
        <time>2026-08-13T08:49:19.803Z</time>
      </trkpt>
      <trkpt lat="48.78793" lon="6.64626">
        <ele>159.16</ele>
        <time>2026-08-13T08:49:25.805Z</time>
      </trkpt>
      <trkpt lat="48.78789" lon="6.64582">
        <ele>158.65</ele>
        <time>2026-08-13T08:49:31.801Z</time>
      </trkpt>
      <trkpt lat="48.78785" lon="6.64536">
        <ele>158.6</ele>
        <time>2026-08-13T08:49:37.801Z</time>
      </trkpt>
      <trkpt lat="48.78781" lon="6.64489">
        <ele>159.59</ele>
        <time>2026-08-13T08:49:43.816Z</time>
      </trkpt>
      <trkpt lat="48.78777" lon="6.64446">
        <ele>161.49</ele>
        <time>2026-08-13T08:49:49.854Z</time>
      </trkpt>
      <trkpt lat="48.78775" lon="6.644">
        <ele>161.86</ele>
        <time>2026-08-13T08:49:55.816Z</time>
      </trkpt>
      <trkpt lat="48.78773" lon="6.64365">
        <ele>160.55</ele>
        <time>2026-08-13T08:50:01.797Z</time>
      </trkpt>
      <trkpt lat="48.78771" lon="6.64324">
        <ele>159.56</ele>
        <time>2026-08-13T08:50:07.783Z</time>
      </trkpt>
      <trkpt lat="48.78762" lon="6.64311">
        <ele>159.3</ele>
        <time>2026-08-13T08:50:13.797Z</time>
      </trkpt>
      <trkpt lat="48.78769" lon="6.64302">
        <ele>163.36</ele>
        <time>2026-08-13T08:57:42.837Z</time>
      </trkpt>
      <trkpt lat="48.78769" lon="6.64263">
        <ele>162.05</ele>
        <time>2026-08-13T08:57:48.755Z</time>
      </trkpt>
      <trkpt lat="48.78765" lon="6.64223">
        <ele>158.56</ele>
        <time>2026-08-13T08:57:54.745Z</time>
      </trkpt>
      <trkpt lat="48.78764" lon="6.64188">
        <ele>158.85</ele>
        <time>2026-08-13T08:57:59.752Z</time>
      </trkpt>
      <trkpt lat="48.78761" lon="6.64144">
        <ele>158.98</ele>
        <time>2026-08-13T08:58:05.736Z</time>
      </trkpt>
      <trkpt lat="48.78757" lon="6.64109">
        <ele>158.99</ele>
        <time>2026-08-13T08:58:10.749Z</time>
      </trkpt>
      <trkpt lat="48.78751" lon="6.64066">
        <ele>160.04</ele>
        <time>2026-08-13T08:58:16.751Z</time>
      </trkpt>
      <trkpt lat="48.78746" lon="6.6402">
        <ele>159.65</ele>
        <time>2026-08-13T08:58:22.733Z</time>
      </trkpt>
      <trkpt lat="48.7874" lon="6.63976">
        <ele>158.39</ele>
        <time>2026-08-13T08:58:27.750Z</time>
      </trkpt>
      <trkpt lat="48.78731" lon="6.63918">
        <ele>156.84</ele>
        <time>2026-08-13T08:58:33.734Z</time>
      </trkpt>
      <trkpt lat="48.78724" lon="6.63861">
        <ele>157.11</ele>
        <time>2026-08-13T08:58:39.730Z</time>
      </trkpt>
      <trkpt lat="48.78716" lon="6.63804">
        <ele>158.4</ele>
        <time>2026-08-13T08:58:45.731Z</time>
      </trkpt>
      <trkpt lat="48.78709" lon="6.63758">
        <ele>157.83</ele>
        <time>2026-08-13T08:58:50.733Z</time>
      </trkpt>
      <trkpt lat="48.78702" lon="6.63712">
        <ele>156.7</ele>
        <time>2026-08-13T08:58:55.801Z</time>
      </trkpt>
      <trkpt lat="48.78694" lon="6.63657">
        <ele>158.01</ele>
        <time>2026-08-13T08:59:01.806Z</time>
      </trkpt>
      <trkpt lat="48.78685" lon="6.63605">
        <ele>158.36</ele>
        <time>2026-08-13T08:59:07.803Z</time>
      </trkpt>
      <trkpt lat="48.78675" lon="6.63553">
        <ele>158.68</ele>
        <time>2026-08-13T08:59:13.804Z</time>
      </trkpt>
      <trkpt lat="48.78666" lon="6.63503">
        <ele>158.78</ele>
        <time>2026-08-13T08:59:19.803Z</time>
      </trkpt>
      <trkpt lat="48.78656" lon="6.63453">
        <ele>158.69</ele>
        <time>2026-08-13T08:59:25.794Z</time>
      </trkpt>
      <trkpt lat="48.78644" lon="6.63408">
        <ele>158.51</ele>
        <time>2026-08-13T08:59:31.809Z</time>
      </trkpt>
      <trkpt lat="48.78628" lon="6.63365">
        <ele>158.89</ele>
        <time>2026-08-13T08:59:37.794Z</time>
      </trkpt>
      <trkpt lat="48.78612" lon="6.63328">
        <ele>159.57</ele>
        <time>2026-08-13T08:59:43.782Z</time>
      </trkpt>
      <trkpt lat="48.78599" lon="6.63294">
        <ele>160.14</ele>
        <time>2026-08-13T08:59:49.787Z</time>
      </trkpt>
      <trkpt lat="48.78584" lon="6.63256">
        <ele>160.09</ele>
        <time>2026-08-13T08:59:55.818Z</time>
      </trkpt>
      <trkpt lat="48.7857" lon="6.6322">
        <ele>160.49</ele>
        <time>2026-08-13T09:00:01.796Z</time>
      </trkpt>
      <trkpt lat="48.78558" lon="6.63184">
        <ele>161.72</ele>
        <time>2026-08-13T09:00:07.809Z</time>
      </trkpt>
      <trkpt lat="48.78545" lon="6.63147">
        <ele>163.95</ele>
        <time>2026-08-13T09:00:13.802Z</time>
      </trkpt>
      <trkpt lat="48.78532" lon="6.63109">
        <ele>164.93</ele>
        <time>2026-08-13T09:00:19.801Z</time>
      </trkpt>
      <trkpt lat="48.78525" lon="6.63072">
        <ele>207.91</ele>
        <time>2026-08-13T09:00:25.795Z</time>
      </trkpt>
      <trkpt lat="48.78522" lon="6.63033">
        <ele>208.6</ele>
        <time>2026-08-13T09:00:31.793Z</time>
      </trkpt>
      <trkpt lat="48.78524" lon="6.6299">
        <ele>208.6</ele>
        <time>2026-08-13T09:00:37.796Z</time>
      </trkpt>
      <trkpt lat="48.78529" lon="6.6295">
        <ele>214.5</ele>
        <time>2026-08-13T09:00:43.805Z</time>
      </trkpt>
      <trkpt lat="48.78536" lon="6.62906">
        <ele>214.6</ele>
        <time>2026-08-13T09:00:49.798Z</time>
      </trkpt>
      <trkpt lat="48.78545" lon="6.62853">
        <ele>214.6</ele>
        <time>2026-08-13T09:00:55.786Z</time>
      </trkpt>
      <trkpt lat="48.78555" lon="6.62797">
        <ele>214.6</ele>
        <time>2026-08-13T09:01:01.798Z</time>
      </trkpt>
      <trkpt lat="48.78563" lon="6.62733">
        <ele>214.6</ele>
        <time>2026-08-13T09:01:07.786Z</time>
      </trkpt>
      <trkpt lat="48.78572" lon="6.62658">
        <ele>214.6</ele>
        <time>2026-08-13T09:01:13.795Z</time>
      </trkpt>
      <trkpt lat="48.78578" lon="6.62585">
        <ele>214.6</ele>
        <time>2026-08-13T09:01:19.794Z</time>
      </trkpt>
      <trkpt lat="48.78583" lon="6.6252">
        <ele>214.6</ele>
        <time>2026-08-13T09:01:26.005Z</time>
      </trkpt>
      <trkpt lat="48.78587" lon="6.62465">
        <ele>214.6</ele>
        <time>2026-08-13T09:01:31.798Z</time>
      </trkpt>
      <trkpt lat="48.78589" lon="6.62405">
        <ele>214.61</ele>
        <time>2026-08-13T09:01:37.802Z</time>
      </trkpt>
      <trkpt lat="48.78578" lon="6.62348">
        <ele>214.61</ele>
        <time>2026-08-13T09:01:43.797Z</time>
      </trkpt>
      <trkpt lat="48.78563" lon="6.62298">
        <ele>214.61</ele>
        <time>2026-08-13T09:01:49.806Z</time>
      </trkpt>
      <trkpt lat="48.7855" lon="6.62252">
        <ele>214.61</ele>
        <time>2026-08-13T09:01:55.794Z</time>
      </trkpt>
      <trkpt lat="48.7854" lon="6.62208">
        <ele>214.61</ele>
        <time>2026-08-13T09:02:01.793Z</time>
      </trkpt>
      <trkpt lat="48.78532" lon="6.62166">
        <ele>214.61</ele>
        <time>2026-08-13T09:02:07.814Z</time>
      </trkpt>
      <trkpt lat="48.78522" lon="6.62124">
        <ele>158.65</ele>
        <time>2026-08-13T09:02:13.788Z</time>
      </trkpt>
      <trkpt lat="48.78512" lon="6.62084">
        <ele>159.2</ele>
        <time>2026-08-13T09:02:19.784Z</time>
      </trkpt>
      <trkpt lat="48.78503" lon="6.62045">
        <ele>159.22</ele>
        <time>2026-08-13T09:02:25.798Z</time>
      </trkpt>
      <trkpt lat="48.78494" lon="6.6201">
        <ele>160.03</ele>
        <time>2026-08-13T09:02:31.843Z</time>
      </trkpt>
      <trkpt lat="48.78486" lon="6.61973">
        <ele>160.42</ele>
        <time>2026-08-13T09:02:37.797Z</time>
      </trkpt>
      <trkpt lat="48.78475" lon="6.61934">
        <ele>160.68</ele>
        <time>2026-08-13T09:02:43.793Z</time>
      </trkpt>
      <trkpt lat="48.78465" lon="6.61892">
        <ele>161.66</ele>
        <time>2026-08-13T09:02:49.801Z</time>
      </trkpt>
      <trkpt lat="48.78459" lon="6.61858">
        <ele>163.28</ele>
        <time>2026-08-13T09:02:55.790Z</time>
      </trkpt>
      <trkpt lat="48.78456" lon="6.61825">
        <ele>164.89</ele>
        <time>2026-08-13T09:03:01.785Z</time>
      </trkpt>
      <trkpt lat="48.78454" lon="6.61784">
        <ele>165.64</ele>
        <time>2026-08-13T09:03:07.782Z</time>
      </trkpt>
      <trkpt lat="48.78453" lon="6.61734">
        <ele>164.32</ele>
        <time>2026-08-13T09:03:13.782Z</time>
      </trkpt>
      <trkpt lat="48.78455" lon="6.61676">
        <ele>163.08</ele>
        <time>2026-08-13T09:03:19.794Z</time>
      </trkpt>
      <trkpt lat="48.78454" lon="6.6162">
        <ele>161.91</ele>
        <time>2026-08-13T09:03:25.790Z</time>
      </trkpt>
      <trkpt lat="48.78452" lon="6.6157">
        <ele>162.82</ele>
        <time>2026-08-13T09:03:31.800Z</time>
      </trkpt>
      <trkpt lat="48.78447" lon="6.61527">
        <ele>163.52</ele>
        <time>2026-08-13T09:03:37.813Z</time>
      </trkpt>
      <trkpt lat="48.78426" lon="6.61509">
        <ele>165.69</ele>
        <time>2026-08-13T09:03:43.788Z</time>
      </trkpt>
      <trkpt lat="48.78412" lon="6.615">
        <ele>164.79</ele>
        <time>2026-08-13T09:03:49.785Z</time>
      </trkpt>
      <trkpt lat="48.78397" lon="6.6149">
        <ele>164.28</ele>
        <time>2026-08-13T09:03:55.786Z</time>
      </trkpt>
      <trkpt lat="48.78383" lon="6.61485">
        <ele>164.66</ele>
        <time>2026-08-13T09:04:01.788Z</time>
      </trkpt>
      <trkpt lat="48.78366" lon="6.61492">
        <ele>166.67</ele>
        <time>2026-08-13T09:04:07.802Z</time>
      </trkpt>
      <trkpt lat="48.78354" lon="6.61501">
        <ele>166.47</ele>
        <time>2026-08-13T09:04:13.794Z</time>
      </trkpt>
      <trkpt lat="48.78341" lon="6.61513">
        <ele>166.76</ele>
        <time>2026-08-13T09:04:19.789Z</time>
      </trkpt>
      <trkpt lat="48.78328" lon="6.61525">
        <ele>167.37</ele>
        <time>2026-08-13T09:04:25.799Z</time>
      </trkpt>
      <trkpt lat="48.78315" lon="6.61538">
        <ele>167.84</ele>
        <time>2026-08-13T09:04:31.800Z</time>
      </trkpt>
      <trkpt lat="48.78299" lon="6.61534">
        <ele>169.36</ele>
        <time>2026-08-13T09:04:37.808Z</time>
      </trkpt>
      <trkpt lat="48.78287" lon="6.61513">
        <ele>169.52</ele>
        <time>2026-08-13T09:04:43.861Z</time>
      </trkpt>
      <trkpt lat="48.78279" lon="6.61492">
        <ele>169.02</ele>
        <time>2026-08-13T09:04:49.890Z</time>
      </trkpt>
      <trkpt lat="48.7827" lon="6.6147">
        <ele>169.62</ele>
        <time>2026-08-13T09:04:55.804Z</time>
      </trkpt>
      <trkpt lat="48.78265" lon="6.61455">
        <ele>167.93</ele>
        <time>2026-08-13T09:05:00.814Z</time>
      </trkpt>
      <trkpt lat="48.78252" lon="6.61427">
        <ele>168.76</ele>
        <time>2026-08-13T09:05:06.752Z</time>
      </trkpt>
      <trkpt lat="48.78238" lon="6.61402">
        <ele>170.78</ele>
        <time>2026-08-13T09:05:12.746Z</time>
      </trkpt>
      <trkpt lat="48.78222" lon="6.61385">
        <ele>171.38</ele>
        <time>2026-08-13T09:05:17.747Z</time>
      </trkpt>
      <trkpt lat="48.78204" lon="6.6137">
        <ele>172.64</ele>
        <time>2026-08-13T09:05:22.749Z</time>
      </trkpt>
      <trkpt lat="48.78182" lon="6.61352">
        <ele>173.09</ele>
        <time>2026-08-13T09:05:28.739Z</time>
      </trkpt>
      <trkpt lat="48.78165" lon="6.61336">
        <ele>174.14</ele>
        <time>2026-08-13T09:05:33.741Z</time>
      </trkpt>
      <trkpt lat="48.78149" lon="6.61318">
        <ele>173.34</ele>
        <time>2026-08-13T09:05:38.748Z</time>
      </trkpt>
      <trkpt lat="48.78133" lon="6.61298">
        <ele>172.89</ele>
        <time>2026-08-13T09:05:43.805Z</time>
      </trkpt>
      <trkpt lat="48.78116" lon="6.61271">
        <ele>172.63</ele>
        <time>2026-08-13T09:05:49.804Z</time>
      </trkpt>
      <trkpt lat="48.78096" lon="6.61248">
        <ele>172.47</ele>
        <time>2026-08-13T09:05:55.782Z</time>
      </trkpt>
      <trkpt lat="48.78074" lon="6.61235">
        <ele>172.83</ele>
        <time>2026-08-13T09:06:01.801Z</time>
      </trkpt>
      <trkpt lat="48.78054" lon="6.61234">
        <ele>173.28</ele>
        <time>2026-08-13T09:06:07.802Z</time>
      </trkpt>
      <trkpt lat="48.78041" lon="6.61236">
        <ele>175.08</ele>
        <time>2026-08-13T09:06:13.797Z</time>
      </trkpt>
      <trkpt lat="48.78031" lon="6.61241">
        <ele>176.37</ele>
        <time>2026-08-13T09:06:19.815Z</time>
      </trkpt>
      <trkpt lat="48.7802" lon="6.61245">
        <ele>177.88</ele>
        <time>2026-08-13T09:06:25.808Z</time>
      </trkpt>
      <trkpt lat="48.78009" lon="6.61249">
        <ele>178.37</ele>
        <time>2026-08-13T09:06:31.789Z</time>
      </trkpt>
      <trkpt lat="48.77994" lon="6.61253">
        <ele>178.58</ele>
        <time>2026-08-13T09:06:37.795Z</time>
      </trkpt>
      <trkpt lat="48.7798" lon="6.61255">
        <ele>178.9</ele>
        <time>2026-08-13T09:06:43.810Z</time>
      </trkpt>
      <trkpt lat="48.77965" lon="6.61262">
        <ele>178.59</ele>
        <time>2026-08-13T09:06:49.809Z</time>
      </trkpt>
      <trkpt lat="48.77951" lon="6.61269">
        <ele>179.43</ele>
        <time>2026-08-13T09:06:55.818Z</time>
      </trkpt>
      <trkpt lat="48.77937" lon="6.61276">
        <ele>180.56</ele>
        <time>2026-08-13T09:07:01.811Z</time>
      </trkpt>
      <trkpt lat="48.77922" lon="6.61282">
        <ele>181.31</ele>
        <time>2026-08-13T09:07:07.813Z</time>
      </trkpt>
      <trkpt lat="48.77907" lon="6.61289">
        <ele>182.15</ele>
        <time>2026-08-13T09:07:13.810Z</time>
      </trkpt>
      <trkpt lat="48.77893" lon="6.61296">
        <ele>182.45</ele>
        <time>2026-08-13T09:07:19.812Z</time>
      </trkpt>
      <trkpt lat="48.77879" lon="6.61306">
        <ele>183.08</ele>
        <time>2026-08-13T09:07:25.818Z</time>
      </trkpt>
      <trkpt lat="48.77866" lon="6.61311">
        <ele>183.55</ele>
        <time>2026-08-13T09:07:31.811Z</time>
      </trkpt>
      <trkpt lat="48.77853" lon="6.61316">
        <ele>184.49</ele>
        <time>2026-08-13T09:07:37.813Z</time>
      </trkpt>
      <trkpt lat="48.77838" lon="6.61322">
        <ele>184.73</ele>
        <time>2026-08-13T09:07:43.799Z</time>
      </trkpt>
      <trkpt lat="48.77824" lon="6.61329">
        <ele>185.89</ele>
        <time>2026-08-13T09:07:49.812Z</time>
      </trkpt>
      <trkpt lat="48.77808" lon="6.61331">
        <ele>185.97</ele>
        <time>2026-08-13T09:07:55.814Z</time>
      </trkpt>
      <trkpt lat="48.77793" lon="6.61332">
        <ele>186.29</ele>
        <time>2026-08-13T09:08:01.802Z</time>
      </trkpt>
      <trkpt lat="48.77777" lon="6.6133">
        <ele>186.3</ele>
        <time>2026-08-13T09:08:07.806Z</time>
      </trkpt>
      <trkpt lat="48.7776" lon="6.61324">
        <ele>186.32</ele>
        <time>2026-08-13T09:08:13.799Z</time>
      </trkpt>
      <trkpt lat="48.77745" lon="6.61318">
        <ele>187</ele>
        <time>2026-08-13T09:08:19.803Z</time>
      </trkpt>
      <trkpt lat="48.7773" lon="6.61312">
        <ele>188.97</ele>
        <time>2026-08-13T09:08:25.796Z</time>
      </trkpt>
      <trkpt lat="48.77713" lon="6.61306">
        <ele>189.74</ele>
        <time>2026-08-13T09:08:31.804Z</time>
      </trkpt>
      <trkpt lat="48.77698" lon="6.61298">
        <ele>191</ele>
        <time>2026-08-13T09:08:37.805Z</time>
      </trkpt>
      <trkpt lat="48.77681" lon="6.61292">
        <ele>190.35</ele>
        <time>2026-08-13T09:08:43.801Z</time>
      </trkpt>
      <trkpt lat="48.77666" lon="6.61285">
        <ele>189.17</ele>
        <time>2026-08-13T09:08:49.788Z</time>
      </trkpt>
      <trkpt lat="48.77651" lon="6.6128">
        <ele>189.21</ele>
        <time>2026-08-13T09:08:55.811Z</time>
      </trkpt>
      <trkpt lat="48.77636" lon="6.61275">
        <ele>189.4</ele>
        <time>2026-08-13T09:09:01.786Z</time>
      </trkpt>
      <trkpt lat="48.77623" lon="6.61273">
        <ele>190.52</ele>
        <time>2026-08-13T09:09:07.804Z</time>
      </trkpt>
      <trkpt lat="48.77614" lon="6.61268">
        <ele>191.72</ele>
        <time>2026-08-13T09:09:14.738Z</time>
      </trkpt>
      <trkpt lat="48.77605" lon="6.61264">
        <ele>192.79</ele>
        <time>2026-08-13T09:09:19.802Z</time>
      </trkpt>
      <trkpt lat="48.77596" lon="6.61258">
        <ele>192.6</ele>
        <time>2026-08-13T09:09:25.805Z</time>
      </trkpt>
      <trkpt lat="48.77584" lon="6.61251">
        <ele>194.1</ele>
        <time>2026-08-13T09:09:31.806Z</time>
      </trkpt>
      <trkpt lat="48.7757" lon="6.61246">
        <ele>194.86</ele>
        <time>2026-08-13T09:09:37.806Z</time>
      </trkpt>
      <trkpt lat="48.77558" lon="6.61242">
        <ele>194.79</ele>
        <time>2026-08-13T09:09:43.804Z</time>
      </trkpt>
      <trkpt lat="48.77546" lon="6.61243">
        <ele>196.56</ele>
        <time>2026-08-13T09:09:49.798Z</time>
      </trkpt>
      <trkpt lat="48.77534" lon="6.61239">
        <ele>196.88</ele>
        <time>2026-08-13T09:09:55.812Z</time>
      </trkpt>
      <trkpt lat="48.77524" lon="6.61235">
        <ele>198.11</ele>
        <time>2026-08-13T09:10:01.801Z</time>
      </trkpt>
      <trkpt lat="48.77511" lon="6.61233">
        <ele>198.96</ele>
        <time>2026-08-13T09:10:07.802Z</time>
      </trkpt>
      <trkpt lat="48.77499" lon="6.61232">
        <ele>200.16</ele>
        <time>2026-08-13T09:10:13.805Z</time>
      </trkpt>
      <trkpt lat="48.77487" lon="6.61229">
        <ele>201.14</ele>
        <time>2026-08-13T09:10:19.805Z</time>
      </trkpt>
      <trkpt lat="48.77474" lon="6.6123">
        <ele>203.31</ele>
        <time>2026-08-13T09:10:25.813Z</time>
      </trkpt>
      <trkpt lat="48.7746" lon="6.61229">
        <ele>203.81</ele>
        <time>2026-08-13T09:10:31.804Z</time>
      </trkpt>
      <trkpt lat="48.77447" lon="6.6123">
        <ele>204.43</ele>
        <time>2026-08-13T09:10:37.807Z</time>
      </trkpt>
      <trkpt lat="48.77432" lon="6.6123">
        <ele>205.02</ele>
        <time>2026-08-13T09:10:43.801Z</time>
      </trkpt>
      <trkpt lat="48.77419" lon="6.61227">
        <ele>206.47</ele>
        <time>2026-08-13T09:10:49.799Z</time>
      </trkpt>
      <trkpt lat="48.77398" lon="6.61222">
        <ele>206.16</ele>
        <time>2026-08-13T09:10:55.810Z</time>
      </trkpt>
      <trkpt lat="48.77373" lon="6.61218">
        <ele>205.58</ele>
        <time>2026-08-13T09:11:01.807Z</time>
      </trkpt>
      <trkpt lat="48.77343" lon="6.61205">
        <ele>203.42</ele>
        <time>2026-08-13T09:11:07.802Z</time>
      </trkpt>
      <trkpt lat="48.77304" lon="6.61185">
        <ele>201.35</ele>
        <time>2026-08-13T09:11:13.801Z</time>
      </trkpt>
      <trkpt lat="48.7726" lon="6.61159">
        <ele>199.32</ele>
        <time>2026-08-13T09:11:19.801Z</time>
      </trkpt>
      <trkpt lat="48.7721" lon="6.61129">
        <ele>195.36</ele>
        <time>2026-08-13T09:11:25.799Z</time>
      </trkpt>
      <trkpt lat="48.77156" lon="6.61092">
        <ele>191.91</ele>
        <time>2026-08-13T09:11:31.799Z</time>
      </trkpt>
      <trkpt lat="48.77094" lon="6.6106">
        <ele>188.94</ele>
        <time>2026-08-13T09:11:37.800Z</time>
      </trkpt>
      <trkpt lat="48.77031" lon="6.61042">
        <ele>185.78</ele>
        <time>2026-08-13T09:11:43.801Z</time>
      </trkpt>
      <trkpt lat="48.76972" lon="6.61029">
        <ele>184.35</ele>
        <time>2026-08-13T09:11:49.799Z</time>
      </trkpt>
      <trkpt lat="48.76923" lon="6.6102">
        <ele>183.02</ele>
        <time>2026-08-13T09:11:55.811Z</time>
      </trkpt>
      <trkpt lat="48.76932" lon="6.60964">
        <ele>182.99</ele>
        <time>2026-08-13T09:12:01.811Z</time>
      </trkpt>
      <trkpt lat="48.7695" lon="6.60907">
        <ele>181.61</ele>
        <time>2026-08-13T09:12:07.800Z</time>
      </trkpt>
      <trkpt lat="48.76965" lon="6.60838">
        <ele>179.58</ele>
        <time>2026-08-13T09:12:13.803Z</time>
      </trkpt>
      <trkpt lat="48.76925" lon="6.60777">
        <ele>175.17</ele>
        <time>2026-08-13T09:12:19.800Z</time>
      </trkpt>
      <trkpt lat="48.76867" lon="6.60738">
        <ele>170.34</ele>
        <time>2026-08-13T09:12:25.808Z</time>
      </trkpt>
      <trkpt lat="48.76813" lon="6.60714">
        <ele>168.46</ele>
        <time>2026-08-13T09:12:31.798Z</time>
      </trkpt>
      <trkpt lat="48.76763" lon="6.60705">
        <ele>168.53</ele>
        <time>2026-08-13T09:12:37.796Z</time>
      </trkpt>
      <trkpt lat="48.76712" lon="6.60703">
        <ele>166.2</ele>
        <time>2026-08-13T09:12:43.798Z</time>
      </trkpt>
      <trkpt lat="48.76657" lon="6.60701">
        <ele>164.08</ele>
        <time>2026-08-13T09:12:49.789Z</time>
      </trkpt>
      <trkpt lat="48.76602" lon="6.607">
        <ele>163.03</ele>
        <time>2026-08-13T09:12:55.800Z</time>
      </trkpt>
      <trkpt lat="48.7655" lon="6.60698">
        <ele>162.27</ele>
        <time>2026-08-13T09:13:01.796Z</time>
      </trkpt>
      <trkpt lat="48.76503" lon="6.60697">
        <ele>161.35</ele>
        <time>2026-08-13T09:13:07.802Z</time>
      </trkpt>
      <trkpt lat="48.76457" lon="6.60695">
        <ele>160.15</ele>
        <time>2026-08-13T09:13:13.799Z</time>
      </trkpt>
      <trkpt lat="48.76411" lon="6.60695">
        <ele>158.9</ele>
        <time>2026-08-13T09:13:19.802Z</time>
      </trkpt>
      <trkpt lat="48.76366" lon="6.60696">
        <ele>157.38</ele>
        <time>2026-08-13T09:13:25.798Z</time>
      </trkpt>
      <trkpt lat="48.76321" lon="6.60711">
        <ele>155.64</ele>
        <time>2026-08-13T09:13:31.804Z</time>
      </trkpt>
      <trkpt lat="48.76283" lon="6.60729">
        <ele>156.28</ele>
        <time>2026-08-13T09:13:37.799Z</time>
      </trkpt>
      <trkpt lat="48.76243" lon="6.60732">
        <ele>155.52</ele>
        <time>2026-08-13T09:13:43.796Z</time>
      </trkpt>
      <trkpt lat="48.76214" lon="6.60684">
        <ele>154.77</ele>
        <time>2026-08-13T09:13:49.798Z</time>
      </trkpt>
      <trkpt lat="48.76192" lon="6.60626">
        <ele>155.48</ele>
        <time>2026-08-13T09:13:55.804Z</time>
      </trkpt>
      <trkpt lat="48.76164" lon="6.60574">
        <ele>155.69</ele>
        <time>2026-08-13T09:14:01.799Z</time>
      </trkpt>
      <trkpt lat="48.76135" lon="6.60532">
        <ele>155.9</ele>
        <time>2026-08-13T09:14:07.803Z</time>
      </trkpt>
      <trkpt lat="48.76113" lon="6.60496">
        <ele>156.89</ele>
        <time>2026-08-13T09:14:13.801Z</time>
      </trkpt>
      <trkpt lat="48.76096" lon="6.60466">
        <ele>158.11</ele>
        <time>2026-08-13T09:14:19.804Z</time>
      </trkpt>
      <trkpt lat="48.76078" lon="6.6044">
        <ele>160.14</ele>
        <time>2026-08-13T09:14:25.798Z</time>
      </trkpt>
      <trkpt lat="48.76067" lon="6.60423">
        <ele>162.21</ele>
        <time>2026-08-13T09:14:31.802Z</time>
      </trkpt>
      <trkpt lat="48.76059" lon="6.6041">
        <ele>163.74</ele>
        <time>2026-08-13T09:14:37.804Z</time>
      </trkpt>
      <trkpt lat="48.76051" lon="6.60399">
        <ele>164.4</ele>
        <time>2026-08-13T09:14:43.805Z</time>
      </trkpt>
      <trkpt lat="48.76044" lon="6.60388">
        <ele>209.26</ele>
        <time>2026-08-13T09:14:50.734Z</time>
      </trkpt>
      <trkpt lat="48.76039" lon="6.60377">
        <ele>209.31</ele>
        <time>2026-08-13T09:14:56.739Z</time>
      </trkpt>
      <trkpt lat="48.76032" lon="6.60367">
        <ele>209.31</ele>
        <time>2026-08-13T09:15:01.792Z</time>
      </trkpt>
      <trkpt lat="48.76026" lon="6.60348">
        <ele>209.31</ele>
        <time>2026-08-13T09:15:07.783Z</time>
      </trkpt>
      <trkpt lat="48.76015" lon="6.60333">
        <ele>209.31</ele>
        <time>2026-08-13T09:15:13.783Z</time>
      </trkpt>
      <trkpt lat="48.76005" lon="6.60314">
        <ele>209.31</ele>
        <time>2026-08-13T09:15:19.785Z</time>
      </trkpt>
      <trkpt lat="48.75993" lon="6.60294">
        <ele>209.31</ele>
        <time>2026-08-13T09:15:25.785Z</time>
      </trkpt>
      <trkpt lat="48.75981" lon="6.60273">
        <ele>209.31</ele>
        <time>2026-08-13T09:15:31.799Z</time>
      </trkpt>
      <trkpt lat="48.75968" lon="6.60248">
        <ele>209.31</ele>
        <time>2026-08-13T09:15:37.789Z</time>
      </trkpt>
      <trkpt lat="48.75955" lon="6.60221">
        <ele>209.31</ele>
        <time>2026-08-13T09:15:43.782Z</time>
      </trkpt>
      <trkpt lat="48.75932" lon="6.60192">
        <ele>209.31</ele>
        <time>2026-08-13T09:15:49.791Z</time>
      </trkpt>
      <trkpt lat="48.7591" lon="6.60162">
        <ele>209.31</ele>
        <time>2026-08-13T09:15:55.804Z</time>
      </trkpt>
      <trkpt lat="48.75885" lon="6.60122">
        <ele>209.31</ele>
        <time>2026-08-13T09:16:01.801Z</time>
      </trkpt>
      <trkpt lat="48.75856" lon="6.60077">
        <ele>209.31</ele>
        <time>2026-08-13T09:16:07.803Z</time>
      </trkpt>
      <trkpt lat="48.75837" lon="6.6002">
        <ele>209.31</ele>
        <time>2026-08-13T09:16:13.804Z</time>
      </trkpt>
      <trkpt lat="48.75815" lon="6.59971">
        <ele>209.31</ele>
        <time>2026-08-13T09:16:19.799Z</time>
      </trkpt>
      <trkpt lat="48.75789" lon="6.59927">
        <ele>209.31</ele>
        <time>2026-08-13T09:16:25.804Z</time>
      </trkpt>
      <trkpt lat="48.75759" lon="6.59881">
        <ele>209.31</ele>
        <time>2026-08-13T09:16:31.799Z</time>
      </trkpt>
      <trkpt lat="48.75727" lon="6.59832">
        <ele>209.31</ele>
        <time>2026-08-13T09:16:37.858Z</time>
      </trkpt>
      <trkpt lat="48.75696" lon="6.59785">
        <ele>209.31</ele>
        <time>2026-08-13T09:16:43.829Z</time>
      </trkpt>
      <trkpt lat="48.7567" lon="6.5973">
        <ele>209.31</ele>
        <time>2026-08-13T09:16:49.798Z</time>
      </trkpt>
      <trkpt lat="48.75652" lon="6.59674">
        <ele>173.39</ele>
        <time>2026-08-13T09:16:54.799Z</time>
      </trkpt>
      <trkpt lat="48.7564" lon="6.59595">
        <ele>159.29</ele>
        <time>2026-08-13T09:17:00.743Z</time>
      </trkpt>
      <trkpt lat="48.75635" lon="6.59536">
        <ele>158.54</ele>
        <time>2026-08-13T09:17:05.748Z</time>
      </trkpt>
      <trkpt lat="48.75634" lon="6.59466">
        <ele>159.62</ele>
        <time>2026-08-13T09:17:11.752Z</time>
      </trkpt>
      <trkpt lat="48.75605" lon="6.59421">
        <ele>161.15</ele>
        <time>2026-08-13T09:17:17.748Z</time>
      </trkpt>
      <trkpt lat="48.7556" lon="6.59414">
        <ele>161.05</ele>
        <time>2026-08-13T09:17:23.749Z</time>
      </trkpt>
      <trkpt lat="48.75522" lon="6.59401">
        <ele>161.1</ele>
        <time>2026-08-13T09:17:29.748Z</time>
      </trkpt>
      <trkpt lat="48.75489" lon="6.59381">
        <ele>161.15</ele>
        <time>2026-08-13T09:17:35.748Z</time>
      </trkpt>
      <trkpt lat="48.7546" lon="6.59362">
        <ele>160.02</ele>
        <time>2026-08-13T09:17:41.748Z</time>
      </trkpt>
      <trkpt lat="48.75433" lon="6.5934">
        <ele>159.46</ele>
        <time>2026-08-13T09:17:47.748Z</time>
      </trkpt>
      <trkpt lat="48.75406" lon="6.59316">
        <ele>160.22</ele>
        <time>2026-08-13T09:17:53.749Z</time>
      </trkpt>
      <trkpt lat="48.75382" lon="6.59292">
        <ele>160.47</ele>
        <time>2026-08-13T09:17:59.748Z</time>
      </trkpt>
      <trkpt lat="48.75359" lon="6.59265">
        <ele>161.5</ele>
        <time>2026-08-13T09:18:05.751Z</time>
      </trkpt>
      <trkpt lat="48.75341" lon="6.59246">
        <ele>162.64</ele>
        <time>2026-08-13T09:18:10.754Z</time>
      </trkpt>
      <trkpt lat="48.75322" lon="6.59221">
        <ele>163.52</ele>
        <time>2026-08-13T09:18:16.739Z</time>
      </trkpt>
      <trkpt lat="48.7531" lon="6.592">
        <ele>162.68</ele>
        <time>2026-08-13T09:18:21.741Z</time>
      </trkpt>
      <trkpt lat="48.75301" lon="6.59182">
        <ele>214.51</ele>
        <time>2026-08-13T09:18:26.793Z</time>
      </trkpt>
      <trkpt lat="48.75291" lon="6.59165">
        <ele>214.71</ele>
        <time>2026-08-13T09:18:31.811Z</time>
      </trkpt>
      <trkpt lat="48.75281" lon="6.59139">
        <ele>214.71</ele>
        <time>2026-08-13T09:18:37.786Z</time>
      </trkpt>
      <trkpt lat="48.75274" lon="6.59114">
        <ele>214.71</ele>
        <time>2026-08-13T09:18:43.794Z</time>
      </trkpt>
      <trkpt lat="48.75263" lon="6.59089">
        <ele>218.54</ele>
        <time>2026-08-13T09:18:49.795Z</time>
      </trkpt>
      <trkpt lat="48.75251" lon="6.59067">
        <ele>219.82</ele>
        <time>2026-08-13T09:18:55.812Z</time>
      </trkpt>
      <trkpt lat="48.75243" lon="6.59088">
        <ele>219.81</ele>
        <time>2026-08-13T09:19:01.855Z</time>
      </trkpt>
      <trkpt lat="48.75236" lon="6.59114">
        <ele>219.81</ele>
        <time>2026-08-13T09:19:07.793Z</time>
      </trkpt>
      <trkpt lat="48.75227" lon="6.59141">
        <ele>219.81</ele>
        <time>2026-08-13T09:19:13.801Z</time>
      </trkpt>
      <trkpt lat="48.75217" lon="6.59174">
        <ele>219.81</ele>
        <time>2026-08-13T09:19:19.808Z</time>
      </trkpt>
      <trkpt lat="48.75207" lon="6.59205">
        <ele>219.81</ele>
        <time>2026-08-13T09:19:25.810Z</time>
      </trkpt>
      <trkpt lat="48.75189" lon="6.59238">
        <ele>219.81</ele>
        <time>2026-08-13T09:19:31.799Z</time>
      </trkpt>
      <trkpt lat="48.75171" lon="6.59271">
        <ele>219.81</ele>
        <time>2026-08-13T09:19:37.793Z</time>
      </trkpt>
      <trkpt lat="48.75156" lon="6.59299">
        <ele>219.81</ele>
        <time>2026-08-13T09:19:43.779Z</time>
      </trkpt>
      <trkpt lat="48.75142" lon="6.59322">
        <ele>219.81</ele>
        <time>2026-08-13T09:19:49.783Z</time>
      </trkpt>
      <trkpt lat="48.75125" lon="6.59356">
        <ele>219.81</ele>
        <time>2026-08-13T09:19:55.805Z</time>
      </trkpt>
      <trkpt lat="48.75106" lon="6.59388">
        <ele>219.81</ele>
        <time>2026-08-13T09:20:01.796Z</time>
      </trkpt>
      <trkpt lat="48.7509" lon="6.59425">
        <ele>219.81</ele>
        <time>2026-08-13T09:20:07.799Z</time>
      </trkpt>
      <trkpt lat="48.75075" lon="6.59465">
        <ele>219.81</ele>
        <time>2026-08-13T09:20:13.796Z</time>
      </trkpt>
      <trkpt lat="48.75063" lon="6.59502">
        <ele>219.81</ele>
        <time>2026-08-13T09:20:19.785Z</time>
      </trkpt>
      <trkpt lat="48.75053" lon="6.59532">
        <ele>219.81</ele>
        <time>2026-08-13T09:20:25.798Z</time>
      </trkpt>
      <trkpt lat="48.75045" lon="6.59556">
        <ele>219.81</ele>
        <time>2026-08-13T09:20:31.783Z</time>
      </trkpt>
      <trkpt lat="48.75038" lon="6.59579">
        <ele>219.8</ele>
        <time>2026-08-13T09:20:37.783Z</time>
      </trkpt>
      <trkpt lat="48.7503" lon="6.59604">
        <ele>219.8</ele>
        <time>2026-08-13T09:20:43.782Z</time>
      </trkpt>
      <trkpt lat="48.75023" lon="6.59628">
        <ele>219.8</ele>
        <time>2026-08-13T09:20:49.800Z</time>
      </trkpt>
      <trkpt lat="48.75017" lon="6.59652">
        <ele>219.8</ele>
        <time>2026-08-13T09:20:55.792Z</time>
      </trkpt>
      <trkpt lat="48.7501" lon="6.59675">
        <ele>219.8</ele>
        <time>2026-08-13T09:21:01.800Z</time>
      </trkpt>
      <trkpt lat="48.75004" lon="6.59698">
        <ele>219.8</ele>
        <time>2026-08-13T09:21:07.798Z</time>
      </trkpt>
      <trkpt lat="48.74998" lon="6.59721">
        <ele>164.91</ele>
        <time>2026-08-13T09:21:13.805Z</time>
      </trkpt>
      <trkpt lat="48.74992" lon="6.59746">
        <ele>166.18</ele>
        <time>2026-08-13T09:21:19.802Z</time>
      </trkpt>
      <trkpt lat="48.74986" lon="6.5977">
        <ele>167.97</ele>
        <time>2026-08-13T09:21:25.798Z</time>
      </trkpt>
      <trkpt lat="48.7498" lon="6.59794">
        <ele>170.89</ele>
        <time>2026-08-13T09:21:31.800Z</time>
      </trkpt>
      <trkpt lat="48.74973" lon="6.59817">
        <ele>171.41</ele>
        <time>2026-08-13T09:21:37.782Z</time>
      </trkpt>
      <trkpt lat="48.74968" lon="6.59839">
        <ele>172.55</ele>
        <time>2026-08-13T09:21:43.804Z</time>
      </trkpt>
      <trkpt lat="48.74961" lon="6.59865">
        <ele>172.62</ele>
        <time>2026-08-13T09:21:49.803Z</time>
      </trkpt>
      <trkpt lat="48.74955" lon="6.59889">
        <ele>172.21</ele>
        <time>2026-08-13T09:21:55.812Z</time>
      </trkpt>
      <trkpt lat="48.74946" lon="6.59916">
        <ele>174.15</ele>
        <time>2026-08-13T09:22:01.803Z</time>
      </trkpt>
      <trkpt lat="48.74937" lon="6.59936">
        <ele>174.78</ele>
        <time>2026-08-13T09:22:07.801Z</time>
      </trkpt>
      <trkpt lat="48.74927" lon="6.59958">
        <ele>176.62</ele>
        <time>2026-08-13T09:22:13.802Z</time>
      </trkpt>
      <trkpt lat="48.74917" lon="6.59981">
        <ele>177.73</ele>
        <time>2026-08-13T09:22:19.801Z</time>
      </trkpt>
      <trkpt lat="48.74907" lon="6.60001">
        <ele>178.44</ele>
        <time>2026-08-13T09:22:25.815Z</time>
      </trkpt>
      <trkpt lat="48.74895" lon="6.6002">
        <ele>178.85</ele>
        <time>2026-08-13T09:22:31.799Z</time>
      </trkpt>
      <trkpt lat="48.74878" lon="6.60024">
        <ele>178.22</ele>
        <time>2026-08-13T09:22:37.804Z</time>
      </trkpt>
      <trkpt lat="48.74863" lon="6.60029">
        <ele>178.94</ele>
        <time>2026-08-13T09:22:43.803Z</time>
      </trkpt>
      <trkpt lat="48.74847" lon="6.60031">
        <ele>181.22</ele>
        <time>2026-08-13T09:22:49.799Z</time>
      </trkpt>
      <trkpt lat="48.74836" lon="6.60038">
        <ele>183.38</ele>
        <time>2026-08-13T09:22:55.802Z</time>
      </trkpt>
      <trkpt lat="48.74822" lon="6.60037">
        <ele>183.14</ele>
        <time>2026-08-13T09:23:01.796Z</time>
      </trkpt>
      <trkpt lat="48.7481" lon="6.60043">
        <ele>182.36</ele>
        <time>2026-08-13T09:23:07.798Z</time>
      </trkpt>
      <trkpt lat="48.74798" lon="6.60047">
        <ele>183.58</ele>
        <time>2026-08-13T09:23:13.796Z</time>
      </trkpt>
      <trkpt lat="48.74786" lon="6.6005">
        <ele>184.21</ele>
        <time>2026-08-13T09:23:19.786Z</time>
      </trkpt>
      <trkpt lat="48.74773" lon="6.60055">
        <ele>184.61</ele>
        <time>2026-08-13T09:23:25.808Z</time>
      </trkpt>
      <trkpt lat="48.74757" lon="6.6006">
        <ele>184.87</ele>
        <time>2026-08-13T09:23:31.802Z</time>
      </trkpt>
      <trkpt lat="48.74739" lon="6.60066">
        <ele>185.18</ele>
        <time>2026-08-13T09:23:37.795Z</time>
      </trkpt>
      <trkpt lat="48.74718" lon="6.60073">
        <ele>184.63</ele>
        <time>2026-08-13T09:23:43.797Z</time>
      </trkpt>
      <trkpt lat="48.74698" lon="6.60068">
        <ele>185.6</ele>
        <time>2026-08-13T09:23:49.791Z</time>
      </trkpt>
      <trkpt lat="48.74689" lon="6.60045">
        <ele>185.2</ele>
        <time>2026-08-13T09:23:55.792Z</time>
      </trkpt>
      <trkpt lat="48.74673" lon="6.60026">
        <ele>185.05</ele>
        <time>2026-08-13T09:24:01.804Z</time>
      </trkpt>
      <trkpt lat="48.74664" lon="6.60012">
        <ele>186.06</ele>
        <time>2026-08-13T09:24:07.773Z</time>
      </trkpt>
      <trkpt lat="48.74658" lon="6.60002">
        <ele>186.77</ele>
        <time>2026-08-13T09:24:13.788Z</time>
      </trkpt>
      <trkpt lat="48.74649" lon="6.59992">
        <ele>187.83</ele>
        <time>2026-08-13T09:24:19.785Z</time>
      </trkpt>
      <trkpt lat="48.74639" lon="6.59977">
        <ele>187.62</ele>
        <time>2026-08-13T09:24:25.814Z</time>
      </trkpt>
      <trkpt lat="48.74631" lon="6.59965">
        <ele>187.26</ele>
        <time>2026-08-13T09:24:31.808Z</time>
      </trkpt>
      <trkpt lat="48.74621" lon="6.59953">
        <ele>188.05</ele>
        <time>2026-08-13T09:24:37.786Z</time>
      </trkpt>
      <trkpt lat="48.74612" lon="6.59941">
        <ele>188.77</ele>
        <time>2026-08-13T09:24:43.793Z</time>
      </trkpt>
      <trkpt lat="48.74604" lon="6.59927">
        <ele>190.05</ele>
        <time>2026-08-13T09:24:49.814Z</time>
      </trkpt>
      <trkpt lat="48.74595" lon="6.59912">
        <ele>190.2</ele>
        <time>2026-08-13T09:24:55.813Z</time>
      </trkpt>
      <trkpt lat="48.74583" lon="6.59898">
        <ele>191.96</ele>
        <time>2026-08-13T09:25:01.807Z</time>
      </trkpt>
      <trkpt lat="48.74574" lon="6.59884">
        <ele>192.5</ele>
        <time>2026-08-13T09:25:07.799Z</time>
      </trkpt>
      <trkpt lat="48.74564" lon="6.59871">
        <ele>192.43</ele>
        <time>2026-08-13T09:25:13.800Z</time>
      </trkpt>
      <trkpt lat="48.74552" lon="6.59856">
        <ele>192.65</ele>
        <time>2026-08-13T09:25:19.799Z</time>
      </trkpt>
      <trkpt lat="48.74543" lon="6.59841">
        <ele>192.86</ele>
        <time>2026-08-13T09:25:25.802Z</time>
      </trkpt>
      <trkpt lat="48.74532" lon="6.59825">
        <ele>192.63</ele>
        <time>2026-08-13T09:25:31.798Z</time>
      </trkpt>
      <trkpt lat="48.74522" lon="6.59811">
        <ele>192.99</ele>
        <time>2026-08-13T09:25:37.787Z</time>
      </trkpt>
      <trkpt lat="48.74513" lon="6.59796">
        <ele>192.54</ele>
        <time>2026-08-13T09:25:43.801Z</time>
      </trkpt>
      <trkpt lat="48.745" lon="6.59779">
        <ele>193.37</ele>
        <time>2026-08-13T09:25:49.801Z</time>
      </trkpt>
      <trkpt lat="48.74488" lon="6.5976">
        <ele>193.9</ele>
        <time>2026-08-13T09:25:55.805Z</time>
      </trkpt>
      <trkpt lat="48.74475" lon="6.59743">
        <ele>194.58</ele>
        <time>2026-08-13T09:26:01.803Z</time>
      </trkpt>
      <trkpt lat="48.74465" lon="6.59724">
        <ele>194.66</ele>
        <time>2026-08-13T09:26:07.801Z</time>
      </trkpt>
      <trkpt lat="48.74453" lon="6.59707">
        <ele>194.79</ele>
        <time>2026-08-13T09:26:13.803Z</time>
      </trkpt>
      <trkpt lat="48.74437" lon="6.59685">
        <ele>194.76</ele>
        <time>2026-08-13T09:26:19.804Z</time>
      </trkpt>
      <trkpt lat="48.74421" lon="6.59662">
        <ele>194.63</ele>
        <time>2026-08-13T09:26:25.806Z</time>
      </trkpt>
      <trkpt lat="48.74405" lon="6.59642">
        <ele>193.61</ele>
        <time>2026-08-13T09:26:31.804Z</time>
      </trkpt>
      <trkpt lat="48.74386" lon="6.5962">
        <ele>192.64</ele>
        <time>2026-08-13T09:26:37.781Z</time>
      </trkpt>
      <trkpt lat="48.74362" lon="6.59594">
        <ele>192.56</ele>
        <time>2026-08-13T09:26:43.799Z</time>
      </trkpt>
      <trkpt lat="48.74337" lon="6.59563">
        <ele>191.54</ele>
        <time>2026-08-13T09:26:49.797Z</time>
      </trkpt>
      <trkpt lat="48.74324" lon="6.59527">
        <ele>190.77</ele>
        <time>2026-08-13T09:26:55.794Z</time>
      </trkpt>
      <trkpt lat="48.74315" lon="6.59504">
        <ele>191.25</ele>
        <time>2026-08-13T09:27:01.802Z</time>
      </trkpt>
      <trkpt lat="48.74306" lon="6.5948">
        <ele>191.63</ele>
        <time>2026-08-13T09:27:07.800Z</time>
      </trkpt>
      <trkpt lat="48.74297" lon="6.59458">
        <ele>191.87</ele>
        <time>2026-08-13T09:27:13.803Z</time>
      </trkpt>
      <trkpt lat="48.74289" lon="6.59436">
        <ele>190.94</ele>
        <time>2026-08-13T09:27:19.800Z</time>
      </trkpt>
      <trkpt lat="48.7428" lon="6.59414">
        <ele>190.73</ele>
        <time>2026-08-13T09:27:25.810Z</time>
      </trkpt>
      <trkpt lat="48.74271" lon="6.59392">
        <ele>190.83</ele>
        <time>2026-08-13T09:27:31.801Z</time>
      </trkpt>
      <trkpt lat="48.74264" lon="6.59372">
        <ele>190.9</ele>
        <time>2026-08-13T09:27:37.801Z</time>
      </trkpt>
      <trkpt lat="48.74256" lon="6.59351">
        <ele>191.47</ele>
        <time>2026-08-13T09:27:43.802Z</time>
      </trkpt>
      <trkpt lat="48.74248" lon="6.59331">
        <ele>191.64</ele>
        <time>2026-08-13T09:27:49.799Z</time>
      </trkpt>
      <trkpt lat="48.74241" lon="6.59315">
        <ele>192.61</ele>
        <time>2026-08-13T09:27:55.804Z</time>
      </trkpt>
      <trkpt lat="48.74234" lon="6.59295">
        <ele>193.32</ele>
        <time>2026-08-13T09:28:01.802Z</time>
      </trkpt>
      <trkpt lat="48.74229" lon="6.59276">
        <ele>194.25</ele>
        <time>2026-08-13T09:28:07.800Z</time>
      </trkpt>
      <trkpt lat="48.74222" lon="6.59259">
        <ele>196.38</ele>
        <time>2026-08-13T09:28:13.808Z</time>
      </trkpt>
      <trkpt lat="48.74215" lon="6.5924">
        <ele>195.71</ele>
        <time>2026-08-13T09:28:19.800Z</time>
      </trkpt>
      <trkpt lat="48.74208" lon="6.59221">
        <ele>195.55</ele>
        <time>2026-08-13T09:28:25.785Z</time>
      </trkpt>
      <trkpt lat="48.74202" lon="6.59202">
        <ele>196.02</ele>
        <time>2026-08-13T09:28:31.803Z</time>
      </trkpt>
      <trkpt lat="48.74193" lon="6.59182">
        <ele>195.89</ele>
        <time>2026-08-13T09:28:37.806Z</time>
      </trkpt>
      <trkpt lat="48.74185" lon="6.59161">
        <ele>196.71</ele>
        <time>2026-08-13T09:28:43.800Z</time>
      </trkpt>
      <trkpt lat="48.74176" lon="6.5914">
        <ele>197.88</ele>
        <time>2026-08-13T09:28:49.804Z</time>
      </trkpt>
      <trkpt lat="48.74169" lon="6.5912">
        <ele>197.83</ele>
        <time>2026-08-13T09:28:55.801Z</time>
      </trkpt>
      <trkpt lat="48.74162" lon="6.59103">
        <ele>199.48</ele>
        <time>2026-08-13T09:29:01.801Z</time>
      </trkpt>
      <trkpt lat="48.74156" lon="6.59083">
        <ele>198.86</ele>
        <time>2026-08-13T09:29:07.801Z</time>
      </trkpt>
      <trkpt lat="48.74148" lon="6.59063">
        <ele>198.6</ele>
        <time>2026-08-13T09:29:13.804Z</time>
      </trkpt>
      <trkpt lat="48.74142" lon="6.59044">
        <ele>198.8</ele>
        <time>2026-08-13T09:29:19.805Z</time>
      </trkpt>
      <trkpt lat="48.74134" lon="6.59024">
        <ele>199.96</ele>
        <time>2026-08-13T09:29:25.800Z</time>
      </trkpt>
      <trkpt lat="48.74127" lon="6.59003">
        <ele>200.71</ele>
        <time>2026-08-13T09:29:31.799Z</time>
      </trkpt>
      <trkpt lat="48.7412" lon="6.58984">
        <ele>200.01</ele>
        <time>2026-08-13T09:29:37.800Z</time>
      </trkpt>
      <trkpt lat="48.74113" lon="6.58965">
        <ele>200.45</ele>
        <time>2026-08-13T09:29:43.803Z</time>
      </trkpt>
      <trkpt lat="48.74107" lon="6.58947">
        <ele>200.94</ele>
        <time>2026-08-13T09:29:49.800Z</time>
      </trkpt>
      <trkpt lat="48.74099" lon="6.58926">
        <ele>201.99</ele>
        <time>2026-08-13T09:29:55.818Z</time>
      </trkpt>
      <trkpt lat="48.74092" lon="6.58907">
        <ele>203.01</ele>
        <time>2026-08-13T09:30:01.803Z</time>
      </trkpt>
      <trkpt lat="48.74085" lon="6.58889">
        <ele>203.73</ele>
        <time>2026-08-13T09:30:07.809Z</time>
      </trkpt>
      <trkpt lat="48.74079" lon="6.58868">
        <ele>204.11</ele>
        <time>2026-08-13T09:30:13.802Z</time>
      </trkpt>
      <trkpt lat="48.74072" lon="6.5885">
        <ele>204.6</ele>
        <time>2026-08-13T09:30:19.800Z</time>
      </trkpt>
      <trkpt lat="48.74065" lon="6.58833">
        <ele>204.83</ele>
        <time>2026-08-13T09:30:25.796Z</time>
      </trkpt>
      <trkpt lat="48.74057" lon="6.58824">
        <ele>206.84</ele>
        <time>2026-08-13T09:30:30.827Z</time>
      </trkpt>
      <trkpt lat="48.74056" lon="6.58807">
        <ele>207.8</ele>
        <time>2026-08-13T09:30:36.743Z</time>
      </trkpt>
      <trkpt lat="48.74051" lon="6.58794">
        <ele>206.92</ele>
        <time>2026-08-13T09:30:41.743Z</time>
      </trkpt>
      <trkpt lat="48.74046" lon="6.58781">
        <ele>206.16</ele>
        <time>2026-08-13T09:30:47.747Z</time>
      </trkpt>
      <trkpt lat="48.7404" lon="6.58768">
        <ele>207.28</ele>
        <time>2026-08-13T09:30:53.733Z</time>
      </trkpt>
      <trkpt lat="48.74034" lon="6.58754">
        <ele>208.64</ele>
        <time>2026-08-13T09:30:59.744Z</time>
      </trkpt>
      <trkpt lat="48.74029" lon="6.58742">
        <ele>210</ele>
        <time>2026-08-13T09:31:04.749Z</time>
      </trkpt>
      <trkpt lat="48.74022" lon="6.58726">
        <ele>211.14</ele>
        <time>2026-08-13T09:31:10.739Z</time>
      </trkpt>
      <trkpt lat="48.74015" lon="6.58712">
        <ele>211.61</ele>
        <time>2026-08-13T09:31:15.744Z</time>
      </trkpt>
      <trkpt lat="48.74009" lon="6.58701">
        <ele>211.07</ele>
        <time>2026-08-13T09:31:20.808Z</time>
      </trkpt>
      <trkpt lat="48.74002" lon="6.58712">
        <ele>211.27</ele>
        <time>2026-08-13T09:31:26.751Z</time>
      </trkpt>
      <trkpt lat="48.73994" lon="6.58719">
        <ele>211.96</ele>
        <time>2026-08-13T09:31:33.741Z</time>
      </trkpt>
      <trkpt lat="48.73985" lon="6.58727">
        <ele>212.35</ele>
        <time>2026-08-13T09:31:39.723Z</time>
      </trkpt>
      <trkpt lat="48.73976" lon="6.58737">
        <ele>213.41</ele>
        <time>2026-08-13T09:31:45.729Z</time>
      </trkpt>
      <trkpt lat="48.73968" lon="6.58744">
        <ele>213.55</ele>
        <time>2026-08-13T09:31:50.743Z</time>
      </trkpt>
      <trkpt lat="48.7396" lon="6.58752">
        <ele>213.82</ele>
        <time>2026-08-13T09:31:55.794Z</time>
      </trkpt>
      <trkpt lat="48.73952" lon="6.5876">
        <ele>215.3</ele>
        <time>2026-08-13T09:32:01.802Z</time>
      </trkpt>
      <trkpt lat="48.73943" lon="6.58767">
        <ele>216.96</ele>
        <time>2026-08-13T09:32:09.715Z</time>
      </trkpt>
      <trkpt lat="48.73936" lon="6.58775">
        <ele>218.36</ele>
        <time>2026-08-13T09:32:15.728Z</time>
      </trkpt>
      <trkpt lat="48.73928" lon="6.58782">
        <ele>218.21</ele>
        <time>2026-08-13T09:32:21.741Z</time>
      </trkpt>
      <trkpt lat="48.7392" lon="6.58791">
        <ele>219.23</ele>
        <time>2026-08-13T09:32:28.752Z</time>
      </trkpt>
      <trkpt lat="48.73912" lon="6.588">
        <ele>220.8</ele>
        <time>2026-08-13T09:32:34.727Z</time>
      </trkpt>
      <trkpt lat="48.73904" lon="6.58808">
        <ele>221.04</ele>
        <time>2026-08-13T09:32:41.730Z</time>
      </trkpt>
      <trkpt lat="48.73898" lon="6.5882">
        <ele>221.24</ele>
        <time>2026-08-13T09:32:46.741Z</time>
      </trkpt>
      <trkpt lat="48.7389" lon="6.58829">
        <ele>220.86</ele>
        <time>2026-08-13T09:32:51.741Z</time>
      </trkpt>
      <trkpt lat="48.73881" lon="6.58842">
        <ele>221.17</ele>
        <time>2026-08-13T09:32:56.746Z</time>
      </trkpt>
      <trkpt lat="48.73873" lon="6.58856">
        <ele>221.18</ele>
        <time>2026-08-13T09:33:01.778Z</time>
      </trkpt>
      <trkpt lat="48.73868" lon="6.58872">
        <ele>222.93</ele>
        <time>2026-08-13T09:33:07.784Z</time>
      </trkpt>
      <trkpt lat="48.73853" lon="6.58892">
        <ele>222.73</ele>
        <time>2026-08-13T09:33:13.793Z</time>
      </trkpt>
      <trkpt lat="48.7384" lon="6.58915">
        <ele>221</ele>
        <time>2026-08-13T09:33:19.783Z</time>
      </trkpt>
      <trkpt lat="48.73826" lon="6.58942">
        <ele>220.59</ele>
        <time>2026-08-13T09:33:25.789Z</time>
      </trkpt>
      <trkpt lat="48.73813" lon="6.58965">
        <ele>219.9</ele>
        <time>2026-08-13T09:33:31.790Z</time>
      </trkpt>
      <trkpt lat="48.738" lon="6.58986">
        <ele>218.45</ele>
        <time>2026-08-13T09:33:37.786Z</time>
      </trkpt>
      <trkpt lat="48.73788" lon="6.5901">
        <ele>218.11</ele>
        <time>2026-08-13T09:33:43.784Z</time>
      </trkpt>
      <trkpt lat="48.73778" lon="6.59031">
        <ele>218.46</ele>
        <time>2026-08-13T09:33:49.796Z</time>
      </trkpt>
      <trkpt lat="48.73771" lon="6.59057">
        <ele>217.28</ele>
        <time>2026-08-13T09:33:55.810Z</time>
      </trkpt>
      <trkpt lat="48.73768" lon="6.59091">
        <ele>218.16</ele>
        <time>2026-08-13T09:34:01.802Z</time>
      </trkpt>
      <trkpt lat="48.73766" lon="6.59127">
        <ele>219.07</ele>
        <time>2026-08-13T09:34:07.811Z</time>
      </trkpt>
      <trkpt lat="48.73763" lon="6.59161">
        <ele>218.49</ele>
        <time>2026-08-13T09:34:13.793Z</time>
      </trkpt>
      <trkpt lat="48.7376" lon="6.592">
        <ele>218.86</ele>
        <time>2026-08-13T09:34:19.795Z</time>
      </trkpt>
      <trkpt lat="48.73757" lon="6.59236">
        <ele>217.41</ele>
        <time>2026-08-13T09:34:25.816Z</time>
      </trkpt>
      <trkpt lat="48.73755" lon="6.59272">
        <ele>217.34</ele>
        <time>2026-08-13T09:34:31.784Z</time>
      </trkpt>
      <trkpt lat="48.73754" lon="6.59304">
        <ele>215.21</ele>
        <time>2026-08-13T09:34:37.791Z</time>
      </trkpt>
      <trkpt lat="48.73742" lon="6.59315">
        <ele>214.42</ele>
        <time>2026-08-13T09:34:43.798Z</time>
      </trkpt>
      <trkpt lat="48.73716" lon="6.59313">
        <ele>215.34</ele>
        <time>2026-08-13T09:34:49.783Z</time>
      </trkpt>
      <trkpt lat="48.73674" lon="6.59325">
        <ele>211.14</ele>
        <time>2026-08-13T09:34:55.793Z</time>
      </trkpt>
      <trkpt lat="48.73621" lon="6.59335">
        <ele>203.68</ele>
        <time>2026-08-13T09:35:01.799Z</time>
      </trkpt>
      <trkpt lat="48.73586" lon="6.59341">
        <ele>199.44</ele>
        <time>2026-08-13T09:35:07.802Z</time>
      </trkpt>
      <trkpt lat="48.73542" lon="6.59348">
        <ele>195.22</ele>
        <time>2026-08-13T09:35:13.788Z</time>
      </trkpt>
      <trkpt lat="48.73493" lon="6.59358">
        <ele>192.47</ele>
        <time>2026-08-13T09:35:19.790Z</time>
      </trkpt>
      <trkpt lat="48.73444" lon="6.59367">
        <ele>191.05</ele>
        <time>2026-08-13T09:35:25.795Z</time>
      </trkpt>
      <trkpt lat="48.73402" lon="6.59376">
        <ele>190.42</ele>
        <time>2026-08-13T09:35:31.777Z</time>
      </trkpt>
      <trkpt lat="48.73371" lon="6.59381">
        <ele>190.16</ele>
        <time>2026-08-13T09:35:37.781Z</time>
      </trkpt>
      <trkpt lat="48.73347" lon="6.59377">
        <ele>190.05</ele>
        <time>2026-08-13T09:35:43.786Z</time>
      </trkpt>
      <trkpt lat="48.73332" lon="6.59378">
        <ele>189.62</ele>
        <time>2026-08-13T09:35:49.790Z</time>
      </trkpt>
      <trkpt lat="48.73319" lon="6.5938">
        <ele>190.12</ele>
        <time>2026-08-13T09:35:55.805Z</time>
      </trkpt>
      <trkpt lat="48.73308" lon="6.59383">
        <ele>190.81</ele>
        <time>2026-08-13T09:36:01.782Z</time>
      </trkpt>
      <trkpt lat="48.73296" lon="6.59385">
        <ele>190.74</ele>
        <time>2026-08-13T09:36:07.782Z</time>
      </trkpt>
      <trkpt lat="48.73286" lon="6.59389">
        <ele>192.04</ele>
        <time>2026-08-13T09:36:13.785Z</time>
      </trkpt>
      <trkpt lat="48.73275" lon="6.59393">
        <ele>192.74</ele>
        <time>2026-08-13T09:36:19.794Z</time>
      </trkpt>
      <trkpt lat="48.73265" lon="6.59394">
        <ele>194.11</ele>
        <time>2026-08-13T09:36:25.800Z</time>
      </trkpt>
      <trkpt lat="48.73255" lon="6.59395">
        <ele>195.07</ele>
        <time>2026-08-13T09:36:31.781Z</time>
      </trkpt>
      <trkpt lat="48.73245" lon="6.59398">
        <ele>195.18</ele>
        <time>2026-08-13T09:36:37.783Z</time>
      </trkpt>
      <trkpt lat="48.73234" lon="6.59399">
        <ele>196.13</ele>
        <time>2026-08-13T09:36:43.786Z</time>
      </trkpt>
      <trkpt lat="48.73224" lon="6.59402">
        <ele>197.66</ele>
        <time>2026-08-13T09:36:49.793Z</time>
      </trkpt>
      <trkpt lat="48.73214" lon="6.59403">
        <ele>198.13</ele>
        <time>2026-08-13T09:36:55.801Z</time>
      </trkpt>
      <trkpt lat="48.73204" lon="6.59406">
        <ele>199.87</ele>
        <time>2026-08-13T09:37:01.803Z</time>
      </trkpt>
      <trkpt lat="48.73194" lon="6.59407">
        <ele>201.01</ele>
        <time>2026-08-13T09:37:07.779Z</time>
      </trkpt>
      <trkpt lat="48.73182" lon="6.59411">
        <ele>202.38</ele>
        <time>2026-08-13T09:37:13.784Z</time>
      </trkpt>
      <trkpt lat="48.73171" lon="6.59411">
        <ele>203.7</ele>
        <time>2026-08-13T09:37:19.782Z</time>
      </trkpt>
      <trkpt lat="48.73159" lon="6.59416">
        <ele>204.26</ele>
        <time>2026-08-13T09:37:25.791Z</time>
      </trkpt>
      <trkpt lat="48.73144" lon="6.59425">
        <ele>204.61</ele>
        <time>2026-08-13T09:37:31.797Z</time>
      </trkpt>
      <trkpt lat="48.73133" lon="6.59423">
        <ele>203.7</ele>
        <time>2026-08-13T09:37:37.793Z</time>
      </trkpt>
      <trkpt lat="48.73117" lon="6.59426">
        <ele>204.52</ele>
        <time>2026-08-13T09:37:43.780Z</time>
      </trkpt>
      <trkpt lat="48.73102" lon="6.5943">
        <ele>204.65</ele>
        <time>2026-08-13T09:37:49.776Z</time>
      </trkpt>
      <trkpt lat="48.73088" lon="6.59436">
        <ele>205.7</ele>
        <time>2026-08-13T09:37:55.782Z</time>
      </trkpt>
      <trkpt lat="48.73073" lon="6.59438">
        <ele>205.86</ele>
        <time>2026-08-13T09:38:01.798Z</time>
      </trkpt>
      <trkpt lat="48.7306" lon="6.59441">
        <ele>204.34</ele>
        <time>2026-08-13T09:38:07.790Z</time>
      </trkpt>
      <trkpt lat="48.73045" lon="6.59444">
        <ele>204.82</ele>
        <time>2026-08-13T09:38:13.781Z</time>
      </trkpt>
      <trkpt lat="48.73033" lon="6.59448">
        <ele>204.8</ele>
        <time>2026-08-13T09:38:19.782Z</time>
      </trkpt>
      <trkpt lat="48.73019" lon="6.59454">
        <ele>205.33</ele>
        <time>2026-08-13T09:38:25.802Z</time>
      </trkpt>
      <trkpt lat="48.73005" lon="6.59459">
        <ele>205.23</ele>
        <time>2026-08-13T09:38:31.803Z</time>
      </trkpt>
      <trkpt lat="48.7299" lon="6.59463">
        <ele>206.22</ele>
        <time>2026-08-13T09:38:37.807Z</time>
      </trkpt>
      <trkpt lat="48.72975" lon="6.59471">
        <ele>206.6</ele>
        <time>2026-08-13T09:38:43.793Z</time>
      </trkpt>
      <trkpt lat="48.72959" lon="6.59478">
        <ele>206.97</ele>
        <time>2026-08-13T09:38:49.775Z</time>
      </trkpt>
      <trkpt lat="48.72942" lon="6.59487">
        <ele>206.93</ele>
        <time>2026-08-13T09:38:55.790Z</time>
      </trkpt>
      <trkpt lat="48.72926" lon="6.59495">
        <ele>206.33</ele>
        <time>2026-08-13T09:39:01.796Z</time>
      </trkpt>
      <trkpt lat="48.72914" lon="6.595">
        <ele>206.39</ele>
        <time>2026-08-13T09:39:07.782Z</time>
      </trkpt>
      <trkpt lat="48.72898" lon="6.59506">
        <ele>206.17</ele>
        <time>2026-08-13T09:39:13.785Z</time>
      </trkpt>
      <trkpt lat="48.72885" lon="6.59511">
        <ele>206.15</ele>
        <time>2026-08-13T09:39:19.796Z</time>
      </trkpt>
      <trkpt lat="48.72872" lon="6.59519">
        <ele>208</ele>
        <time>2026-08-13T09:39:25.799Z</time>
      </trkpt>
      <trkpt lat="48.7286" lon="6.59521">
        <ele>208.47</ele>
        <time>2026-08-13T09:39:31.801Z</time>
      </trkpt>
      <trkpt lat="48.72846" lon="6.59526">
        <ele>208.86</ele>
        <time>2026-08-13T09:39:37.799Z</time>
      </trkpt>
      <trkpt lat="48.72834" lon="6.59534">
        <ele>208.8</ele>
        <time>2026-08-13T09:39:43.787Z</time>
      </trkpt>
      <trkpt lat="48.72821" lon="6.5954">
        <ele>209.08</ele>
        <time>2026-08-13T09:39:49.808Z</time>
      </trkpt>
      <trkpt lat="48.72806" lon="6.59545">
        <ele>208.85</ele>
        <time>2026-08-13T09:39:55.807Z</time>
      </trkpt>
      <trkpt lat="48.72792" lon="6.59551">
        <ele>209.15</ele>
        <time>2026-08-13T09:40:01.789Z</time>
      </trkpt>
      <trkpt lat="48.72778" lon="6.59559">
        <ele>211.14</ele>
        <time>2026-08-13T09:40:07.799Z</time>
      </trkpt>
      <trkpt lat="48.72763" lon="6.59564">
        <ele>211.02</ele>
        <time>2026-08-13T09:40:13.795Z</time>
      </trkpt>
      <trkpt lat="48.72748" lon="6.59568">
        <ele>212.74</ele>
        <time>2026-08-13T09:40:19.798Z</time>
      </trkpt>
      <trkpt lat="48.72734" lon="6.59575">
        <ele>212.26</ele>
        <time>2026-08-13T09:40:25.788Z</time>
      </trkpt>
      <trkpt lat="48.72721" lon="6.59578">
        <ele>211.1</ele>
        <time>2026-08-13T09:40:31.791Z</time>
      </trkpt>
      <trkpt lat="48.72705" lon="6.59586">
        <ele>210.34</ele>
        <time>2026-08-13T09:40:37.786Z</time>
      </trkpt>
      <trkpt lat="48.72689" lon="6.59592">
        <ele>210.63</ele>
        <time>2026-08-13T09:40:43.806Z</time>
      </trkpt>
      <trkpt lat="48.72672" lon="6.59599">
        <ele>212.12</ele>
        <time>2026-08-13T09:40:49.797Z</time>
      </trkpt>
      <trkpt lat="48.72657" lon="6.59604">
        <ele>212.5</ele>
        <time>2026-08-13T09:40:55.787Z</time>
      </trkpt>
      <trkpt lat="48.72643" lon="6.5961">
        <ele>213.05</ele>
        <time>2026-08-13T09:41:01.795Z</time>
      </trkpt>
      <trkpt lat="48.7263" lon="6.59616">
        <ele>213.75</ele>
        <time>2026-08-13T09:41:07.792Z</time>
      </trkpt>
      <trkpt lat="48.72617" lon="6.59622">
        <ele>214.19</ele>
        <time>2026-08-13T09:41:13.798Z</time>
      </trkpt>
      <trkpt lat="48.72604" lon="6.59626">
        <ele>214.39</ele>
        <time>2026-08-13T09:41:19.871Z</time>
      </trkpt>
      <trkpt lat="48.72594" lon="6.59629">
        <ele>214.9</ele>
        <time>2026-08-13T09:41:25.805Z</time>
      </trkpt>
      <trkpt lat="48.72586" lon="6.59626">
        <ele>214.73</ele>
        <time>2026-08-13T09:41:32.748Z</time>
      </trkpt>
      <trkpt lat="48.72576" lon="6.59612">
        <ele>214.65</ele>
        <time>2026-08-13T09:41:38.459Z</time>
      </trkpt>
      <trkpt lat="48.72571" lon="6.59588">
        <ele>213.19</ele>
        <time>2026-08-13T09:41:43.806Z</time>
      </trkpt>
      <trkpt lat="48.72553" lon="6.59562">
        <ele>212.81</ele>
        <time>2026-08-13T09:41:49.805Z</time>
      </trkpt>
      <trkpt lat="48.72535" lon="6.59529">
        <ele>213.3</ele>
        <time>2026-08-13T09:41:55.806Z</time>
      </trkpt>
      <trkpt lat="48.72517" lon="6.59491">
        <ele>213.28</ele>
        <time>2026-08-13T09:42:01.807Z</time>
      </trkpt>
      <trkpt lat="48.72494" lon="6.59456">
        <ele>212.61</ele>
        <time>2026-08-13T09:42:07.806Z</time>
      </trkpt>
      <trkpt lat="48.72456" lon="6.59428">
        <ele>210.04</ele>
        <time>2026-08-13T09:42:13.810Z</time>
      </trkpt>
      <trkpt lat="48.72407" lon="6.59388">
        <ele>205.37</ele>
        <time>2026-08-13T09:42:19.805Z</time>
      </trkpt>
      <trkpt lat="48.72365" lon="6.59336">
        <ele>203.56</ele>
        <time>2026-08-13T09:42:25.803Z</time>
      </trkpt>
      <trkpt lat="48.7233" lon="6.5929">
        <ele>203.43</ele>
        <time>2026-08-13T09:42:31.809Z</time>
      </trkpt>
      <trkpt lat="48.72301" lon="6.59252">
        <ele>205.24</ele>
        <time>2026-08-13T09:42:37.806Z</time>
      </trkpt>
      <trkpt lat="48.72281" lon="6.59228">
        <ele>207.74</ele>
        <time>2026-08-13T09:42:42.852Z</time>
      </trkpt>
      <trkpt lat="48.72263" lon="6.59201">
        <ele>208.22</ele>
        <time>2026-08-13T09:42:48.737Z</time>
      </trkpt>
      <trkpt lat="48.72242" lon="6.59171">
        <ele>205.64</ele>
        <time>2026-08-13T09:42:53.746Z</time>
      </trkpt>
      <trkpt lat="48.72214" lon="6.59118">
        <ele>202.63</ele>
        <time>2026-08-13T09:42:59.736Z</time>
      </trkpt>
      <trkpt lat="48.72189" lon="6.59057">
        <ele>199</ele>
        <time>2026-08-13T09:43:04.747Z</time>
      </trkpt>
      <trkpt lat="48.72153" lon="6.58968">
        <ele>194.31</ele>
        <time>2026-08-13T09:43:10.746Z</time>
      </trkpt>
      <trkpt lat="48.72118" lon="6.58896">
        <ele>193.95</ele>
        <time>2026-08-13T09:43:16.744Z</time>
      </trkpt>
      <trkpt lat="48.72086" lon="6.58867">
        <ele>197.09</ele>
        <time>2026-08-13T09:43:22.741Z</time>
      </trkpt>
      <trkpt lat="48.72077" lon="6.58861">
        <ele>200.16</ele>
        <time>2026-08-13T09:43:27.747Z</time>
      </trkpt>
      <trkpt lat="48.72073" lon="6.58849">
        <ele>201.65</ele>
        <time>2026-08-13T09:43:33.729Z</time>
      </trkpt>
      <trkpt lat="48.72062" lon="6.58838">
        <ele>200.92</ele>
        <time>2026-08-13T09:43:38.736Z</time>
      </trkpt>
      <trkpt lat="48.72048" lon="6.58825">
        <ele>203.52</ele>
        <time>2026-08-13T09:43:43.797Z</time>
      </trkpt>
      <trkpt lat="48.72033" lon="6.5881">
        <ele>204.46</ele>
        <time>2026-08-13T09:43:49.793Z</time>
      </trkpt>
      <trkpt lat="48.7202" lon="6.58793">
        <ele>207.9</ele>
        <time>2026-08-13T09:43:55.807Z</time>
      </trkpt>
      <trkpt lat="48.72007" lon="6.58774">
        <ele>208.61</ele>
        <time>2026-08-13T09:44:01.806Z</time>
      </trkpt>
      <trkpt lat="48.71994" lon="6.58754">
        <ele>208.01</ele>
        <time>2026-08-13T09:44:07.803Z</time>
      </trkpt>
      <trkpt lat="48.71981" lon="6.58731">
        <ele>208.49</ele>
        <time>2026-08-13T09:44:13.803Z</time>
      </trkpt>
      <trkpt lat="48.71966" lon="6.58708">
        <ele>208.73</ele>
        <time>2026-08-13T09:44:19.808Z</time>
      </trkpt>
      <trkpt lat="48.71954" lon="6.58684">
        <ele>208.88</ele>
        <time>2026-08-13T09:44:25.811Z</time>
      </trkpt>
      <trkpt lat="48.7194" lon="6.58662">
        <ele>209.52</ele>
        <time>2026-08-13T09:44:31.806Z</time>
      </trkpt>
      <trkpt lat="48.7193" lon="6.5864">
        <ele>211.15</ele>
        <time>2026-08-13T09:44:37.802Z</time>
      </trkpt>
      <trkpt lat="48.71915" lon="6.58616">
        <ele>212.8</ele>
        <time>2026-08-13T09:44:43.807Z</time>
      </trkpt>
      <trkpt lat="48.71902" lon="6.58593">
        <ele>213.6</ele>
        <time>2026-08-13T09:44:49.802Z</time>
      </trkpt>
      <trkpt lat="48.71889" lon="6.58568">
        <ele>212.48</ele>
        <time>2026-08-13T09:44:55.808Z</time>
      </trkpt>
      <trkpt lat="48.71878" lon="6.58546">
        <ele>212.5</ele>
        <time>2026-08-13T09:45:01.808Z</time>
      </trkpt>
      <trkpt lat="48.71872" lon="6.58525">
        <ele>213.54</ele>
        <time>2026-08-13T09:45:07.790Z</time>
      </trkpt>
      <trkpt lat="48.71859" lon="6.58501">
        <ele>214.41</ele>
        <time>2026-08-13T09:45:13.806Z</time>
      </trkpt>
      <trkpt lat="48.71849" lon="6.5848">
        <ele>215.03</ele>
        <time>2026-08-13T09:45:19.792Z</time>
      </trkpt>
      <trkpt lat="48.71842" lon="6.58463">
        <ele>261.39</ele>
        <time>2026-08-13T09:45:25.812Z</time>
      </trkpt>
      <trkpt lat="48.71833" lon="6.58446">
        <ele>261.57</ele>
        <time>2026-08-13T09:45:31.808Z</time>
      </trkpt>
      <trkpt lat="48.71827" lon="6.58434">
        <ele>261.57</ele>
        <time>2026-08-13T09:45:37.885Z</time>
      </trkpt>
      <trkpt lat="48.71818" lon="6.5844">
        <ele>217.24</ele>
        <time>2026-08-13T09:45:53.736Z</time>
      </trkpt>
      <trkpt lat="48.71809" lon="6.58446">
        <ele>261.63</ele>
        <time>2026-08-13T09:45:58.759Z</time>
      </trkpt>
      <trkpt lat="48.71802" lon="6.58432">
        <ele>261.67</ele>
        <time>2026-08-13T10:02:24.737Z</time>
      </trkpt>
      <trkpt lat="48.71795" lon="6.58421">
        <ele>261.77</ele>
        <time>2026-08-13T10:02:29.752Z</time>
      </trkpt>
      <trkpt lat="48.71789" lon="6.58411">
        <ele>261.77</ele>
        <time>2026-08-13T10:02:35.743Z</time>
      </trkpt>
      <trkpt lat="48.71778" lon="6.58396">
        <ele>261.77</ele>
        <time>2026-08-13T10:02:41.724Z</time>
      </trkpt>
      <trkpt lat="48.71771" lon="6.58386">
        <ele>261.77</ele>
        <time>2026-08-13T10:02:48.732Z</time>
      </trkpt>
      <trkpt lat="48.71766" lon="6.58374">
        <ele>258.88</ele>
        <time>2026-08-13T10:02:53.746Z</time>
      </trkpt>
      <trkpt lat="48.71758" lon="6.58363">
        <ele>258.87</ele>
        <time>2026-08-13T10:02:58.746Z</time>
      </trkpt>
      <trkpt lat="48.71747" lon="6.58351">
        <ele>258.87</ele>
        <time>2026-08-13T10:03:04.747Z</time>
      </trkpt>
      <trkpt lat="48.71739" lon="6.58338">
        <ele>258.87</ele>
        <time>2026-08-13T10:03:10.748Z</time>
      </trkpt>
      <trkpt lat="48.7173" lon="6.58327">
        <ele>258.87</ele>
        <time>2026-08-13T10:03:16.747Z</time>
      </trkpt>
      <trkpt lat="48.71721" lon="6.58314">
        <ele>258.87</ele>
        <time>2026-08-13T10:03:22.744Z</time>
      </trkpt>
      <trkpt lat="48.71713" lon="6.58303">
        <ele>258.87</ele>
        <time>2026-08-13T10:03:28.749Z</time>
      </trkpt>
      <trkpt lat="48.71702" lon="6.58289">
        <ele>258.87</ele>
        <time>2026-08-13T10:03:34.750Z</time>
      </trkpt>
      <trkpt lat="48.71693" lon="6.58277">
        <ele>258.87</ele>
        <time>2026-08-13T10:03:40.731Z</time>
      </trkpt>
      <trkpt lat="48.71688" lon="6.58266">
        <ele>258.87</ele>
        <time>2026-08-13T10:03:45.744Z</time>
      </trkpt>
      <trkpt lat="48.71678" lon="6.58257">
        <ele>258.87</ele>
        <time>2026-08-13T10:03:50.747Z</time>
      </trkpt>
      <trkpt lat="48.7167" lon="6.58247">
        <ele>258.87</ele>
        <time>2026-08-13T10:03:55.807Z</time>
      </trkpt>
      <trkpt lat="48.7166" lon="6.58235">
        <ele>258.87</ele>
        <time>2026-08-13T10:04:01.808Z</time>
      </trkpt>
      <trkpt lat="48.7165" lon="6.58224">
        <ele>258.87</ele>
        <time>2026-08-13T10:04:07.790Z</time>
      </trkpt>
      <trkpt lat="48.71641" lon="6.58214">
        <ele>258.87</ele>
        <time>2026-08-13T10:04:13.788Z</time>
      </trkpt>
      <trkpt lat="48.71632" lon="6.58205">
        <ele>235.19</ele>
        <time>2026-08-13T10:04:19.771Z</time>
      </trkpt>
      <trkpt lat="48.71622" lon="6.58198">
        <ele>236.22</ele>
        <time>2026-08-13T10:04:25.793Z</time>
      </trkpt>
      <trkpt lat="48.71611" lon="6.5819">
        <ele>236.55</ele>
        <time>2026-08-13T10:04:31.797Z</time>
      </trkpt>
      <trkpt lat="48.71597" lon="6.58185">
        <ele>237.65</ele>
        <time>2026-08-13T10:04:37.786Z</time>
      </trkpt>
      <trkpt lat="48.71587" lon="6.58182">
        <ele>236.94</ele>
        <time>2026-08-13T10:04:43.792Z</time>
      </trkpt>
      <trkpt lat="48.71575" lon="6.5818">
        <ele>237.58</ele>
        <time>2026-08-13T10:04:49.788Z</time>
      </trkpt>
      <trkpt lat="48.71559" lon="6.58179">
        <ele>237.94</ele>
        <time>2026-08-13T10:04:55.814Z</time>
      </trkpt>
      <trkpt lat="48.71537" lon="6.58178">
        <ele>238.21</ele>
        <time>2026-08-13T10:05:01.809Z</time>
      </trkpt>
      <trkpt lat="48.71511" lon="6.58173">
        <ele>236.99</ele>
        <time>2026-08-13T10:05:07.789Z</time>
      </trkpt>
      <trkpt lat="48.71483" lon="6.58169">
        <ele>237.29</ele>
        <time>2026-08-13T10:05:13.788Z</time>
      </trkpt>
      <trkpt lat="48.71456" lon="6.58162">
        <ele>237.22</ele>
        <time>2026-08-13T10:05:19.788Z</time>
      </trkpt>
      <trkpt lat="48.71427" lon="6.5815">
        <ele>236.2</ele>
        <time>2026-08-13T10:05:25.804Z</time>
      </trkpt>
      <trkpt lat="48.71397" lon="6.58137">
        <ele>236.05</ele>
        <time>2026-08-13T10:05:31.803Z</time>
      </trkpt>
      <trkpt lat="48.71369" lon="6.58123">
        <ele>236.33</ele>
        <time>2026-08-13T10:05:37.793Z</time>
      </trkpt>
      <trkpt lat="48.71339" lon="6.58107">
        <ele>236.15</ele>
        <time>2026-08-13T10:05:43.784Z</time>
      </trkpt>
      <trkpt lat="48.71306" lon="6.58089">
        <ele>235.92</ele>
        <time>2026-08-13T10:05:49.789Z</time>
      </trkpt>
      <trkpt lat="48.71271" lon="6.58069">
        <ele>235.11</ele>
        <time>2026-08-13T10:05:55.804Z</time>
      </trkpt>
      <trkpt lat="48.71232" lon="6.58047">
        <ele>234.23</ele>
        <time>2026-08-13T10:06:01.809Z</time>
      </trkpt>
      <trkpt lat="48.71193" lon="6.58026">
        <ele>234.46</ele>
        <time>2026-08-13T10:06:07.790Z</time>
      </trkpt>
      <trkpt lat="48.71153" lon="6.58007">
        <ele>234.09</ele>
        <time>2026-08-13T10:06:13.791Z</time>
      </trkpt>
      <trkpt lat="48.71107" lon="6.58004">
        <ele>231.24</ele>
        <time>2026-08-13T10:06:19.787Z</time>
      </trkpt>
      <trkpt lat="48.71044" lon="6.58018">
        <ele>223.93</ele>
        <time>2026-08-13T10:06:25.807Z</time>
      </trkpt>
      <trkpt lat="48.7098" lon="6.57968">
        <ele>217.39</ele>
        <time>2026-08-13T10:06:31.803Z</time>
      </trkpt>
      <trkpt lat="48.70914" lon="6.5791">
        <ele>212.98</ele>
        <time>2026-08-13T10:06:37.790Z</time>
      </trkpt>
      <trkpt lat="48.70853" lon="6.57849">
        <ele>209.37</ele>
        <time>2026-08-13T10:06:43.787Z</time>
      </trkpt>
      <trkpt lat="48.70804" lon="6.57802">
        <ele>209.18</ele>
        <time>2026-08-13T10:06:49.784Z</time>
      </trkpt>
      <trkpt lat="48.70751" lon="6.57843">
        <ele>208.1</ele>
        <time>2026-08-13T10:06:55.807Z</time>
      </trkpt>
      <trkpt lat="48.70692" lon="6.57887">
        <ele>204.16</ele>
        <time>2026-08-13T10:07:01.810Z</time>
      </trkpt>
      <trkpt lat="48.70637" lon="6.57939">
        <ele>200.12</ele>
        <time>2026-08-13T10:07:07.788Z</time>
      </trkpt>
      <trkpt lat="48.70578" lon="6.57979">
        <ele>198.86</ele>
        <time>2026-08-13T10:07:13.787Z</time>
      </trkpt>
      <trkpt lat="48.70524" lon="6.58029">
        <ele>196.76</ele>
        <time>2026-08-13T10:07:19.791Z</time>
      </trkpt>
      <trkpt lat="48.7047" lon="6.58074">
        <ele>195.45</ele>
        <time>2026-08-13T10:07:25.812Z</time>
      </trkpt>
      <trkpt lat="48.70409" lon="6.58084">
        <ele>194.75</ele>
        <time>2026-08-13T10:07:31.811Z</time>
      </trkpt>
      <trkpt lat="48.70352" lon="6.58072">
        <ele>193.92</ele>
        <time>2026-08-13T10:07:37.788Z</time>
      </trkpt>
      <trkpt lat="48.70301" lon="6.58057">
        <ele>195.27</ele>
        <time>2026-08-13T10:07:43.789Z</time>
      </trkpt>
      <trkpt lat="48.70255" lon="6.58045">
        <ele>196.5</ele>
        <time>2026-08-13T10:07:49.789Z</time>
      </trkpt>
      <trkpt lat="48.70217" lon="6.58039">
        <ele>198.67</ele>
        <time>2026-08-13T10:07:55.808Z</time>
      </trkpt>
      <trkpt lat="48.7019" lon="6.58041">
        <ele>200.03</ele>
        <time>2026-08-13T10:08:01.810Z</time>
      </trkpt>
      <trkpt lat="48.70168" lon="6.58044">
        <ele>200.45</ele>
        <time>2026-08-13T10:08:07.792Z</time>
      </trkpt>
      <trkpt lat="48.70151" lon="6.58046">
        <ele>201.66</ele>
        <time>2026-08-13T10:08:13.789Z</time>
      </trkpt>
      <trkpt lat="48.70137" lon="6.58048">
        <ele>202.71</ele>
        <time>2026-08-13T10:08:19.788Z</time>
      </trkpt>
      <trkpt lat="48.70125" lon="6.58048">
        <ele>203.27</ele>
        <time>2026-08-13T10:08:25.798Z</time>
      </trkpt>
      <trkpt lat="48.70104" lon="6.5805">
        <ele>203.81</ele>
        <time>2026-08-13T10:08:31.813Z</time>
      </trkpt>
      <trkpt lat="48.70067" lon="6.58048">
        <ele>200.93</ele>
        <time>2026-08-13T10:08:37.786Z</time>
      </trkpt>
      <trkpt lat="48.7001" lon="6.58035">
        <ele>195.51</ele>
        <time>2026-08-13T10:08:43.791Z</time>
      </trkpt>
      <trkpt lat="48.69947" lon="6.57998">
        <ele>190.7</ele>
        <time>2026-08-13T10:08:49.789Z</time>
      </trkpt>
      <trkpt lat="48.69883" lon="6.57965">
        <ele>190.23</ele>
        <time>2026-08-13T10:08:55.815Z</time>
      </trkpt>
      <trkpt lat="48.69826" lon="6.57933">
        <ele>190.98</ele>
        <time>2026-08-13T10:09:01.811Z</time>
      </trkpt>
      <trkpt lat="48.69782" lon="6.57896">
        <ele>192.31</ele>
        <time>2026-08-13T10:09:07.787Z</time>
      </trkpt>
      <trkpt lat="48.69747" lon="6.57866">
        <ele>194.36</ele>
        <time>2026-08-13T10:09:13.794Z</time>
      </trkpt>
      <trkpt lat="48.6972" lon="6.57847">
        <ele>196.51</ele>
        <time>2026-08-13T10:09:19.789Z</time>
      </trkpt>
      <trkpt lat="48.69695" lon="6.57832">
        <ele>197.48</ele>
        <time>2026-08-13T10:09:25.809Z</time>
      </trkpt>
      <trkpt lat="48.69671" lon="6.57815">
        <ele>196.98</ele>
        <time>2026-08-13T10:09:31.812Z</time>
      </trkpt>
      <trkpt lat="48.69645" lon="6.57796">
        <ele>196.11</ele>
        <time>2026-08-13T10:09:37.788Z</time>
      </trkpt>
      <trkpt lat="48.6961" lon="6.57777">
        <ele>195.43</ele>
        <time>2026-08-13T10:09:43.789Z</time>
      </trkpt>
      <trkpt lat="48.69568" lon="6.57759">
        <ele>194.4</ele>
        <time>2026-08-13T10:09:49.790Z</time>
      </trkpt>
      <trkpt lat="48.69523" lon="6.57732">
        <ele>192.3</ele>
        <time>2026-08-13T10:09:55.808Z</time>
      </trkpt>
      <trkpt lat="48.69477" lon="6.57698">
        <ele>189.05</ele>
        <time>2026-08-13T10:10:01.813Z</time>
      </trkpt>
      <trkpt lat="48.69427" lon="6.57648">
        <ele>184.53</ele>
        <time>2026-08-13T10:10:07.788Z</time>
      </trkpt>
      <trkpt lat="48.69382" lon="6.57585">
        <ele>181.85</ele>
        <time>2026-08-13T10:10:13.789Z</time>
      </trkpt>
      <trkpt lat="48.69333" lon="6.5755">
        <ele>182.42</ele>
        <time>2026-08-13T10:10:19.787Z</time>
      </trkpt>
      <trkpt lat="48.69293" lon="6.5752">
        <ele>182.11</ele>
        <time>2026-08-13T10:10:25.809Z</time>
      </trkpt>
      <trkpt lat="48.69264" lon="6.57485">
        <ele>182.77</ele>
        <time>2026-08-13T10:10:31.810Z</time>
      </trkpt>
      <trkpt lat="48.69235" lon="6.57449">
        <ele>185.01</ele>
        <time>2026-08-13T10:10:37.785Z</time>
      </trkpt>
      <trkpt lat="48.69209" lon="6.57417">
        <ele>185.12</ele>
        <time>2026-08-13T10:10:43.785Z</time>
      </trkpt>
      <trkpt lat="48.69187" lon="6.57393">
        <ele>188.69</ele>
        <time>2026-08-13T10:10:49.786Z</time>
      </trkpt>
      <trkpt lat="48.69176" lon="6.57386">
        <ele>189.06</ele>
        <time>2026-08-13T10:10:55.795Z</time>
      </trkpt>
      <trkpt lat="48.69161" lon="6.57409">
        <ele>188.01</ele>
        <time>2026-08-13T10:11:01.813Z</time>
      </trkpt>
      <trkpt lat="48.69146" lon="6.57423">
        <ele>188.69</ele>
        <time>2026-08-13T10:11:07.792Z</time>
      </trkpt>
      <trkpt lat="48.69136" lon="6.57434">
        <ele>238.87</ele>
        <time>2026-08-13T10:11:13.787Z</time>
      </trkpt>
      <trkpt lat="48.69129" lon="6.57443">
        <ele>239.65</ele>
        <time>2026-08-13T10:11:20.735Z</time>
      </trkpt>
      <trkpt lat="48.6912" lon="6.5745">
        <ele>239.65</ele>
        <time>2026-08-13T10:11:27.743Z</time>
      </trkpt>
      <trkpt lat="48.69113" lon="6.57459">
        <ele>239.65</ele>
        <time>2026-08-13T10:11:34.746Z</time>
      </trkpt>
      <trkpt lat="48.69106" lon="6.5747">
        <ele>239.55</ele>
        <time>2026-08-13T10:11:42.740Z</time>
      </trkpt>
      <trkpt lat="48.69103" lon="6.57485">
        <ele>239.55</ele>
        <time>2026-08-13T10:11:48.739Z</time>
      </trkpt>
      <trkpt lat="48.69102" lon="6.575">
        <ele>239.54</ele>
        <time>2026-08-13T10:11:56.740Z</time>
      </trkpt>
      <trkpt lat="48.69098" lon="6.57519">
        <ele>239.54</ele>
        <time>2026-08-13T10:12:03.734Z</time>
      </trkpt>
      <trkpt lat="48.6909" lon="6.57544">
        <ele>239.54</ele>
        <time>2026-08-13T10:12:08.746Z</time>
      </trkpt>
      <trkpt lat="48.69083" lon="6.57572">
        <ele>239.54</ele>
        <time>2026-08-13T10:12:13.786Z</time>
      </trkpt>
      <trkpt lat="48.69072" lon="6.57612">
        <ele>239.54</ele>
        <time>2026-08-13T10:12:19.788Z</time>
      </trkpt>
      <trkpt lat="48.69052" lon="6.57653">
        <ele>239.54</ele>
        <time>2026-08-13T10:12:25.809Z</time>
      </trkpt>
      <trkpt lat="48.69023" lon="6.57678">
        <ele>239.54</ele>
        <time>2026-08-13T10:12:31.814Z</time>
      </trkpt>
      <trkpt lat="48.68997" lon="6.57704">
        <ele>239.54</ele>
        <time>2026-08-13T10:12:37.785Z</time>
      </trkpt>
      <trkpt lat="48.68972" lon="6.57745">
        <ele>239.54</ele>
        <time>2026-08-13T10:12:43.788Z</time>
      </trkpt>
      <trkpt lat="48.68948" lon="6.57796">
        <ele>239.54</ele>
        <time>2026-08-13T10:12:49.789Z</time>
      </trkpt>
      <trkpt lat="48.6893" lon="6.57851">
        <ele>239.54</ele>
        <time>2026-08-13T10:12:55.816Z</time>
      </trkpt>
      <trkpt lat="48.68917" lon="6.57904">
        <ele>239.54</ele>
        <time>2026-08-13T10:13:01.813Z</time>
      </trkpt>
      <trkpt lat="48.6891" lon="6.57955">
        <ele>239.54</ele>
        <time>2026-08-13T10:13:07.788Z</time>
      </trkpt>
      <trkpt lat="48.68905" lon="6.58004">
        <ele>239.53</ele>
        <time>2026-08-13T10:13:13.786Z</time>
      </trkpt>
      <trkpt lat="48.68902" lon="6.58051">
        <ele>239.53</ele>
        <time>2026-08-13T10:13:19.779Z</time>
      </trkpt>
      <trkpt lat="48.68898" lon="6.58098">
        <ele>239.53</ele>
        <time>2026-08-13T10:13:25.818Z</time>
      </trkpt>
      <trkpt lat="48.68894" lon="6.5814">
        <ele>198.43</ele>
        <time>2026-08-13T10:13:31.811Z</time>
      </trkpt>
      <trkpt lat="48.68889" lon="6.58176">
        <ele>184.62</ele>
        <time>2026-08-13T10:13:37.781Z</time>
      </trkpt>
      <trkpt lat="48.68884" lon="6.58212">
        <ele>183.9</ele>
        <time>2026-08-13T10:13:43.784Z</time>
      </trkpt>
      <trkpt lat="48.68879" lon="6.58244">
        <ele>182.85</ele>
        <time>2026-08-13T10:13:49.788Z</time>
      </trkpt>
      <trkpt lat="48.68874" lon="6.58264">
        <ele>182.72</ele>
        <time>2026-08-13T10:13:55.814Z</time>
      </trkpt>
      <trkpt lat="48.68865" lon="6.58267">
        <ele>182.67</ele>
        <time>2026-08-13T10:14:01.798Z</time>
      </trkpt>
      <trkpt lat="48.68855" lon="6.5827">
        <ele>182.06</ele>
        <time>2026-08-13T10:14:07.781Z</time>
      </trkpt>
      <trkpt lat="48.68865" lon="6.58266">
        <ele>186.21</ele>
        <time>2026-08-13T11:04:56.008Z</time>
      </trkpt>
      <trkpt lat="48.68876" lon="6.58259">
        <ele>231.82</ele>
        <time>2026-08-13T11:05:01.588Z</time>
      </trkpt>
      <trkpt lat="48.68879" lon="6.58244">
        <ele>234.73</ele>
        <time>2026-08-13T11:05:06.935Z</time>
      </trkpt>
      <trkpt lat="48.6888" lon="6.5823">
        <ele>198.43</ele>
        <time>2026-08-13T11:05:13.811Z</time>
      </trkpt>
      <trkpt lat="48.68882" lon="6.58217">
        <ele>222.02</ele>
        <time>2026-08-13T11:05:20.764Z</time>
      </trkpt>
      <trkpt lat="48.68885" lon="6.58201">
        <ele>234.73</ele>
        <time>2026-08-13T11:05:26.756Z</time>
      </trkpt>
      <trkpt lat="48.68889" lon="6.58186">
        <ele>187.03</ele>
        <time>2026-08-13T11:05:31.782Z</time>
      </trkpt>
      <trkpt lat="48.68891" lon="6.58164">
        <ele>186.02</ele>
        <time>2026-08-13T11:05:37.811Z</time>
      </trkpt>
      <trkpt lat="48.68895" lon="6.58142">
        <ele>234.55</ele>
        <time>2026-08-13T11:05:43.812Z</time>
      </trkpt>
      <trkpt lat="48.68897" lon="6.58119">
        <ele>234.73</ele>
        <time>2026-08-13T11:05:49.816Z</time>
      </trkpt>
      <trkpt lat="48.68901" lon="6.58096">
        <ele>234.73</ele>
        <time>2026-08-13T11:05:55.820Z</time>
      </trkpt>
      <trkpt lat="48.68903" lon="6.58074">
        <ele>234.73</ele>
        <time>2026-08-13T11:06:01.806Z</time>
      </trkpt>
      <trkpt lat="48.68904" lon="6.58052">
        <ele>234.73</ele>
        <time>2026-08-13T11:06:07.789Z</time>
      </trkpt>
      <trkpt lat="48.68907" lon="6.58027">
        <ele>234.73</ele>
        <time>2026-08-13T11:06:13.813Z</time>
      </trkpt>
      <trkpt lat="48.68909" lon="6.57998">
        <ele>234.73</ele>
        <time>2026-08-13T11:06:19.809Z</time>
      </trkpt>
      <trkpt lat="48.68912" lon="6.57969">
        <ele>234.74</ele>
        <time>2026-08-13T11:06:25.810Z</time>
      </trkpt>
      <trkpt lat="48.68915" lon="6.57942">
        <ele>234.74</ele>
        <time>2026-08-13T11:06:31.809Z</time>
      </trkpt>
      <trkpt lat="48.68918" lon="6.57914">
        <ele>234.74</ele>
        <time>2026-08-13T11:06:37.809Z</time>
      </trkpt>
      <trkpt lat="48.68925" lon="6.57881">
        <ele>234.74</ele>
        <time>2026-08-13T11:06:43.808Z</time>
      </trkpt>
      <trkpt lat="48.68934" lon="6.5785">
        <ele>234.74</ele>
        <time>2026-08-13T11:06:49.806Z</time>
      </trkpt>
      <trkpt lat="48.68943" lon="6.57819">
        <ele>234.74</ele>
        <time>2026-08-13T11:06:55.808Z</time>
      </trkpt>
      <trkpt lat="48.68953" lon="6.5779">
        <ele>234.74</ele>
        <time>2026-08-13T11:07:01.810Z</time>
      </trkpt>
      <trkpt lat="48.68965" lon="6.57765">
        <ele>234.74</ele>
        <time>2026-08-13T11:07:07.809Z</time>
      </trkpt>
      <trkpt lat="48.68976" lon="6.5774">
        <ele>234.74</ele>
        <time>2026-08-13T11:07:13.807Z</time>
      </trkpt>
      <trkpt lat="48.6899" lon="6.57718">
        <ele>234.74</ele>
        <time>2026-08-13T11:07:19.790Z</time>
      </trkpt>
      <trkpt lat="48.69005" lon="6.57699">
        <ele>239.54</ele>
        <time>2026-08-13T11:07:25.814Z</time>
      </trkpt>
      <trkpt lat="48.69024" lon="6.57683">
        <ele>239.54</ele>
        <time>2026-08-13T11:07:31.805Z</time>
      </trkpt>
      <trkpt lat="48.69043" lon="6.57665">
        <ele>239.54</ele>
        <time>2026-08-13T11:07:37.813Z</time>
      </trkpt>
      <trkpt lat="48.69063" lon="6.57643">
        <ele>196.02</ele>
        <time>2026-08-13T11:07:43.807Z</time>
      </trkpt>
      <trkpt lat="48.69076" lon="6.57606">
        <ele>193.34</ele>
        <time>2026-08-13T11:07:49.804Z</time>
      </trkpt>
      <trkpt lat="48.69086" lon="6.57571">
        <ele>192.91</ele>
        <time>2026-08-13T11:07:55.811Z</time>
      </trkpt>
      <trkpt lat="48.69093" lon="6.57543">
        <ele>227.99</ele>
        <time>2026-08-13T11:08:01.628Z</time>
      </trkpt>
      <trkpt lat="48.691" lon="6.57512">
        <ele>239.53</ele>
        <time>2026-08-13T11:08:06.747Z</time>
      </trkpt>
      <trkpt lat="48.69106" lon="6.57475">
        <ele>239.55</ele>
        <time>2026-08-13T11:08:12.746Z</time>
      </trkpt>
      <trkpt lat="48.69127" lon="6.5744">
        <ele>239.55</ele>
        <time>2026-08-13T11:08:17.764Z</time>
      </trkpt>
      <trkpt lat="48.6916" lon="6.57413">
        <ele>239.55</ele>
        <time>2026-08-13T11:08:23.746Z</time>
      </trkpt>
      <trkpt lat="48.69173" lon="6.57389">
        <ele>239.55</ele>
        <time>2026-08-13T11:08:28.746Z</time>
      </trkpt>
      <trkpt lat="48.69169" lon="6.57372">
        <ele>239.55</ele>
        <time>2026-08-13T11:08:34.744Z</time>
      </trkpt>
      <trkpt lat="48.69154" lon="6.57354">
        <ele>239.55</ele>
        <time>2026-08-13T11:08:40.745Z</time>
      </trkpt>
      <trkpt lat="48.69142" lon="6.5734">
        <ele>239.55</ele>
        <time>2026-08-13T11:08:45.748Z</time>
      </trkpt>
      <trkpt lat="48.69128" lon="6.57325">
        <ele>239.65</ele>
        <time>2026-08-13T11:08:51.742Z</time>
      </trkpt>
      <trkpt lat="48.69117" lon="6.5731">
        <ele>239.65</ele>
        <time>2026-08-13T11:08:56.746Z</time>
      </trkpt>
      <trkpt lat="48.69105" lon="6.57294">
        <ele>239.65</ele>
        <time>2026-08-13T11:09:01.806Z</time>
      </trkpt>
      <trkpt lat="48.69091" lon="6.57276">
        <ele>239.65</ele>
        <time>2026-08-13T11:09:07.792Z</time>
      </trkpt>
      <trkpt lat="48.69078" lon="6.57258">
        <ele>239.65</ele>
        <time>2026-08-13T11:09:13.807Z</time>
      </trkpt>
      <trkpt lat="48.69064" lon="6.57244">
        <ele>239.65</ele>
        <time>2026-08-13T11:09:19.786Z</time>
      </trkpt>
      <trkpt lat="48.6905" lon="6.57233">
        <ele>195.77</ele>
        <time>2026-08-13T11:09:25.805Z</time>
      </trkpt>
      <trkpt lat="48.69039" lon="6.57219">
        <ele>196.29</ele>
        <time>2026-08-13T11:09:31.790Z</time>
      </trkpt>
      <trkpt lat="48.69026" lon="6.57209">
        <ele>197.74</ele>
        <time>2026-08-13T11:09:37.806Z</time>
      </trkpt>
      <trkpt lat="48.69014" lon="6.57196">
        <ele>197.24</ele>
        <time>2026-08-13T11:09:43.795Z</time>
      </trkpt>
      <trkpt lat="48.69" lon="6.57184">
        <ele>198.58</ele>
        <time>2026-08-13T11:09:49.807Z</time>
      </trkpt>
      <trkpt lat="48.68985" lon="6.57177">
        <ele>198.82</ele>
        <time>2026-08-13T11:09:55.797Z</time>
      </trkpt>
      <trkpt lat="48.68971" lon="6.57168">
        <ele>200.29</ele>
        <time>2026-08-13T11:10:01.775Z</time>
      </trkpt>
      <trkpt lat="48.68957" lon="6.57162">
        <ele>201.75</ele>
        <time>2026-08-13T11:10:07.792Z</time>
      </trkpt>
      <trkpt lat="48.68942" lon="6.57155">
        <ele>203.61</ele>
        <time>2026-08-13T11:10:13.811Z</time>
      </trkpt>
      <trkpt lat="48.68928" lon="6.57148">
        <ele>204.16</ele>
        <time>2026-08-13T11:10:19.810Z</time>
      </trkpt>
      <trkpt lat="48.68913" lon="6.57139">
        <ele>203.13</ele>
        <time>2026-08-13T11:10:25.815Z</time>
      </trkpt>
      <trkpt lat="48.68896" lon="6.57133">
        <ele>203.23</ele>
        <time>2026-08-13T11:10:31.813Z</time>
      </trkpt>
      <trkpt lat="48.68879" lon="6.57127">
        <ele>204.93</ele>
        <time>2026-08-13T11:10:37.812Z</time>
      </trkpt>
      <trkpt lat="48.68858" lon="6.57121">
        <ele>204.81</ele>
        <time>2026-08-13T11:10:43.810Z</time>
      </trkpt>
      <trkpt lat="48.68835" lon="6.57122">
        <ele>203.39</ele>
        <time>2026-08-13T11:10:49.815Z</time>
      </trkpt>
      <trkpt lat="48.68804" lon="6.57127">
        <ele>201.07</ele>
        <time>2026-08-13T11:10:55.772Z</time>
      </trkpt>
      <trkpt lat="48.68766" lon="6.57135">
        <ele>198.18</ele>
        <time>2026-08-13T11:11:01.819Z</time>
      </trkpt>
      <trkpt lat="48.68723" lon="6.57145">
        <ele>193.87</ele>
        <time>2026-08-13T11:11:07.808Z</time>
      </trkpt>
      <trkpt lat="48.68675" lon="6.57156">
        <ele>191.52</ele>
        <time>2026-08-13T11:11:13.804Z</time>
      </trkpt>
      <trkpt lat="48.68633" lon="6.57173">
        <ele>191.46</ele>
        <time>2026-08-13T11:11:19.807Z</time>
      </trkpt>
      <trkpt lat="48.68599" lon="6.57188">
        <ele>191.87</ele>
        <time>2026-08-13T11:11:25.813Z</time>
      </trkpt>
      <trkpt lat="48.68564" lon="6.57203">
        <ele>191.99</ele>
        <time>2026-08-13T11:11:31.814Z</time>
      </trkpt>
      <trkpt lat="48.68526" lon="6.57218">
        <ele>192.1</ele>
        <time>2026-08-13T11:11:37.808Z</time>
      </trkpt>
      <trkpt lat="48.68486" lon="6.57233">
        <ele>190.34</ele>
        <time>2026-08-13T11:11:43.809Z</time>
      </trkpt>
      <trkpt lat="48.6844" lon="6.57255">
        <ele>186.94</ele>
        <time>2026-08-13T11:11:49.815Z</time>
      </trkpt>
      <trkpt lat="48.68391" lon="6.57285">
        <ele>184.34</ele>
        <time>2026-08-13T11:11:55.808Z</time>
      </trkpt>
      <trkpt lat="48.6834" lon="6.57307">
        <ele>182.9</ele>
        <time>2026-08-13T11:12:01.812Z</time>
      </trkpt>
      <trkpt lat="48.6829" lon="6.57304">
        <ele>182.17</ele>
        <time>2026-08-13T11:12:07.807Z</time>
      </trkpt>
      <trkpt lat="48.68245" lon="6.57299">
        <ele>180.63</ele>
        <time>2026-08-13T11:12:13.803Z</time>
      </trkpt>
      <trkpt lat="48.68204" lon="6.573">
        <ele>182.55</ele>
        <time>2026-08-13T11:12:19.805Z</time>
      </trkpt>
      <trkpt lat="48.68168" lon="6.5731">
        <ele>184.36</ele>
        <time>2026-08-13T11:12:25.814Z</time>
      </trkpt>
      <trkpt lat="48.68143" lon="6.57317">
        <ele>186.87</ele>
        <time>2026-08-13T11:12:31.814Z</time>
      </trkpt>
      <trkpt lat="48.68121" lon="6.57323">
        <ele>189.94</ele>
        <time>2026-08-13T11:12:37.809Z</time>
      </trkpt>
      <trkpt lat="48.68098" lon="6.57333">
        <ele>192.28</ele>
        <time>2026-08-13T11:12:43.805Z</time>
      </trkpt>
      <trkpt lat="48.68079" lon="6.57351">
        <ele>190.87</ele>
        <time>2026-08-13T11:12:49.811Z</time>
      </trkpt>
      <trkpt lat="48.68061" lon="6.5737">
        <ele>189.72</ele>
        <time>2026-08-13T11:12:55.812Z</time>
      </trkpt>
      <trkpt lat="48.68037" lon="6.57394">
        <ele>189.14</ele>
        <time>2026-08-13T11:13:01.813Z</time>
      </trkpt>
      <trkpt lat="48.68011" lon="6.57418">
        <ele>188.72</ele>
        <time>2026-08-13T11:13:07.816Z</time>
      </trkpt>
      <trkpt lat="48.67985" lon="6.57432">
        <ele>189.29</ele>
        <time>2026-08-13T11:13:13.811Z</time>
      </trkpt>
      <trkpt lat="48.67957" lon="6.57436">
        <ele>189.74</ele>
        <time>2026-08-13T11:13:19.813Z</time>
      </trkpt>
      <trkpt lat="48.67926" lon="6.57436">
        <ele>190.62</ele>
        <time>2026-08-13T11:13:25.760Z</time>
      </trkpt>
      <trkpt lat="48.67899" lon="6.57435">
        <ele>190.54</ele>
        <time>2026-08-13T11:13:31.813Z</time>
      </trkpt>
      <trkpt lat="48.67869" lon="6.5743">
        <ele>189.25</ele>
        <time>2026-08-13T11:13:37.812Z</time>
      </trkpt>
      <trkpt lat="48.67867" lon="6.57384">
        <ele>186.94</ele>
        <time>2026-08-13T11:13:43.815Z</time>
      </trkpt>
      <trkpt lat="48.67878" lon="6.57315">
        <ele>184.07</ele>
        <time>2026-08-13T11:13:49.817Z</time>
      </trkpt>
      <trkpt lat="48.67895" lon="6.57235">
        <ele>181.17</ele>
        <time>2026-08-13T11:13:55.815Z</time>
      </trkpt>
      <trkpt lat="48.67903" lon="6.57188">
        <ele>180.63</ele>
        <time>2026-08-13T11:14:01.815Z</time>
      </trkpt>
      <trkpt lat="48.67905" lon="6.5717">
        <ele>180.7</ele>
        <time>2026-08-13T11:14:07.815Z</time>
      </trkpt>
      <trkpt lat="48.67898" lon="6.5718">
        <ele>182.2</ele>
        <time>2026-08-13T11:14:18.747Z</time>
      </trkpt>
      <trkpt lat="48.67895" lon="6.57207">
        <ele>181.75</ele>
        <time>2026-08-13T11:14:23.749Z</time>
      </trkpt>
      <trkpt lat="48.6788" lon="6.57235">
        <ele>180.01</ele>
        <time>2026-08-13T11:14:29.754Z</time>
      </trkpt>
      <trkpt lat="48.67842" lon="6.57231">
        <ele>179.4</ele>
        <time>2026-08-13T11:14:35.750Z</time>
      </trkpt>
      <trkpt lat="48.67817" lon="6.57224">
        <ele>181.29</ele>
        <time>2026-08-13T11:14:41.751Z</time>
      </trkpt>
      <trkpt lat="48.67811" lon="6.57188">
        <ele>179.05</ele>
        <time>2026-08-13T11:14:47.750Z</time>
      </trkpt>
      <trkpt lat="48.67824" lon="6.5712">
        <ele>178.1</ele>
        <time>2026-08-13T11:14:53.751Z</time>
      </trkpt>
      <trkpt lat="48.67825" lon="6.57058">
        <ele>177.95</ele>
        <time>2026-08-13T11:14:59.748Z</time>
      </trkpt>
      <trkpt lat="48.67826" lon="6.56995">
        <ele>174.09</ele>
        <time>2026-08-13T11:15:05.748Z</time>
      </trkpt>
      <trkpt lat="48.67825" lon="6.56929">
        <ele>174.53</ele>
        <time>2026-08-13T11:15:11.748Z</time>
      </trkpt>
      <trkpt lat="48.67823" lon="6.56872">
        <ele>174.98</ele>
        <time>2026-08-13T11:15:17.750Z</time>
      </trkpt>
      <trkpt lat="48.67818" lon="6.56816">
        <ele>175.38</ele>
        <time>2026-08-13T11:15:23.748Z</time>
      </trkpt>
      <trkpt lat="48.67813" lon="6.56761">
        <ele>174.97</ele>
        <time>2026-08-13T11:15:29.749Z</time>
      </trkpt>
      <trkpt lat="48.67805" lon="6.56707">
        <ele>175.13</ele>
        <time>2026-08-13T11:15:35.748Z</time>
      </trkpt>
      <trkpt lat="48.67796" lon="6.56657">
        <ele>175.71</ele>
        <time>2026-08-13T11:15:41.746Z</time>
      </trkpt>
      <trkpt lat="48.67784" lon="6.56608">
        <ele>178.05</ele>
        <time>2026-08-13T11:15:47.749Z</time>
      </trkpt>
      <trkpt lat="48.67771" lon="6.56568">
        <ele>179.26</ele>
        <time>2026-08-13T11:15:52.749Z</time>
      </trkpt>
      <trkpt lat="48.67754" lon="6.56521">
        <ele>178.51</ele>
        <time>2026-08-13T11:15:58.744Z</time>
      </trkpt>
      <trkpt lat="48.67739" lon="6.56483">
        <ele>178.48</ele>
        <time>2026-08-13T11:16:03.767Z</time>
      </trkpt>
      <trkpt lat="48.67721" lon="6.56435">
        <ele>177.87</ele>
        <time>2026-08-13T11:16:09.764Z</time>
      </trkpt>
      <trkpt lat="48.67704" lon="6.56385">
        <ele>176.36</ele>
        <time>2026-08-13T11:16:15.762Z</time>
      </trkpt>
      <trkpt lat="48.67686" lon="6.56334">
        <ele>175.95</ele>
        <time>2026-08-13T11:16:21.763Z</time>
      </trkpt>
      <trkpt lat="48.67672" lon="6.56282">
        <ele>175.68</ele>
        <time>2026-08-13T11:16:27.742Z</time>
      </trkpt>
      <trkpt lat="48.67663" lon="6.56237">
        <ele>175.88</ele>
        <time>2026-08-13T11:16:32.750Z</time>
      </trkpt>
      <trkpt lat="48.67658" lon="6.56191">
        <ele>176.38</ele>
        <time>2026-08-13T11:16:37.814Z</time>
      </trkpt>
      <trkpt lat="48.67654" lon="6.56135">
        <ele>177.97</ele>
        <time>2026-08-13T11:16:43.813Z</time>
      </trkpt>
      <trkpt lat="48.67651" lon="6.56077">
        <ele>178.31</ele>
        <time>2026-08-13T11:16:49.818Z</time>
      </trkpt>
      <trkpt lat="48.67648" lon="6.56022">
        <ele>178.24</ele>
        <time>2026-08-13T11:16:55.817Z</time>
      </trkpt>
      <trkpt lat="48.67645" lon="6.55966">
        <ele>178.07</ele>
        <time>2026-08-13T11:17:01.812Z</time>
      </trkpt>
      <trkpt lat="48.67641" lon="6.55908">
        <ele>177.27</ele>
        <time>2026-08-13T11:17:07.813Z</time>
      </trkpt>
      <trkpt lat="48.67638" lon="6.55851">
        <ele>178.22</ele>
        <time>2026-08-13T11:17:13.812Z</time>
      </trkpt>
      <trkpt lat="48.67634" lon="6.55795">
        <ele>178.37</ele>
        <time>2026-08-13T11:17:19.812Z</time>
      </trkpt>
      <trkpt lat="48.67627" lon="6.55739">
        <ele>177.9</ele>
        <time>2026-08-13T11:17:25.811Z</time>
      </trkpt>
      <trkpt lat="48.67613" lon="6.55688">
        <ele>177.3</ele>
        <time>2026-08-13T11:17:31.812Z</time>
      </trkpt>
      <trkpt lat="48.67596" lon="6.5564">
        <ele>177.4</ele>
        <time>2026-08-13T11:17:37.812Z</time>
      </trkpt>
      <trkpt lat="48.67574" lon="6.55596">
        <ele>177.53</ele>
        <time>2026-08-13T11:17:43.801Z</time>
      </trkpt>
      <trkpt lat="48.67552" lon="6.55561">
        <ele>178.91</ele>
        <time>2026-08-13T11:17:49.814Z</time>
      </trkpt>
      <trkpt lat="48.67518" lon="6.55548">
        <ele>178.49</ele>
        <time>2026-08-13T11:17:55.809Z</time>
      </trkpt>
      <trkpt lat="48.67486" lon="6.55516">
        <ele>175.82</ele>
        <time>2026-08-13T11:18:01.811Z</time>
      </trkpt>
      <trkpt lat="48.67456" lon="6.55482">
        <ele>174.63</ele>
        <time>2026-08-13T11:18:07.815Z</time>
      </trkpt>
      <trkpt lat="48.67435" lon="6.55439">
        <ele>174.84</ele>
        <time>2026-08-13T11:18:13.815Z</time>
      </trkpt>
      <trkpt lat="48.67414" lon="6.554">
        <ele>175.91</ele>
        <time>2026-08-13T11:18:19.815Z</time>
      </trkpt>
      <trkpt lat="48.67394" lon="6.55356">
        <ele>175.5</ele>
        <time>2026-08-13T11:18:25.811Z</time>
      </trkpt>
      <trkpt lat="48.67381" lon="6.5531">
        <ele>176.78</ele>
        <time>2026-08-13T11:18:31.821Z</time>
      </trkpt>
      <trkpt lat="48.67373" lon="6.55257">
        <ele>177.3</ele>
        <time>2026-08-13T11:18:37.814Z</time>
      </trkpt>
      <trkpt lat="48.67372" lon="6.55204">
        <ele>177.86</ele>
        <time>2026-08-13T11:18:43.811Z</time>
      </trkpt>
      <trkpt lat="48.67375" lon="6.55147">
        <ele>178.25</ele>
        <time>2026-08-13T11:18:49.815Z</time>
      </trkpt>
      <trkpt lat="48.67374" lon="6.55088">
        <ele>178</ele>
        <time>2026-08-13T11:18:55.814Z</time>
      </trkpt>
      <trkpt lat="48.67371" lon="6.5503">
        <ele>177.19</ele>
        <time>2026-08-13T11:19:01.812Z</time>
      </trkpt>
      <trkpt lat="48.67366" lon="6.54973">
        <ele>176.86</ele>
        <time>2026-08-13T11:19:07.815Z</time>
      </trkpt>
      <trkpt lat="48.67358" lon="6.54919">
        <ele>177.22</ele>
        <time>2026-08-13T11:19:13.814Z</time>
      </trkpt>
      <trkpt lat="48.67347" lon="6.54866">
        <ele>178.07</ele>
        <time>2026-08-13T11:19:19.815Z</time>
      </trkpt>
      <trkpt lat="48.67334" lon="6.54811">
        <ele>177.65</ele>
        <time>2026-08-13T11:19:25.815Z</time>
      </trkpt>
      <trkpt lat="48.67319" lon="6.5476">
        <ele>177.58</ele>
        <time>2026-08-13T11:19:31.807Z</time>
      </trkpt>
      <trkpt lat="48.67303" lon="6.54708">
        <ele>177.1</ele>
        <time>2026-08-13T11:19:37.817Z</time>
      </trkpt>
      <trkpt lat="48.6729" lon="6.54653">
        <ele>177.27</ele>
        <time>2026-08-13T11:19:43.815Z</time>
      </trkpt>
      <trkpt lat="48.67281" lon="6.54598">
        <ele>177.64</ele>
        <time>2026-08-13T11:19:49.812Z</time>
      </trkpt>
      <trkpt lat="48.67274" lon="6.54541">
        <ele>178.88</ele>
        <time>2026-08-13T11:19:55.816Z</time>
      </trkpt>
      <trkpt lat="48.67267" lon="6.54485">
        <ele>178.01</ele>
        <time>2026-08-13T11:20:01.815Z</time>
      </trkpt>
      <trkpt lat="48.67261" lon="6.54426">
        <ele>178.98</ele>
        <time>2026-08-13T11:20:07.816Z</time>
      </trkpt>
      <trkpt lat="48.67256" lon="6.54367">
        <ele>179.57</ele>
        <time>2026-08-13T11:20:13.807Z</time>
      </trkpt>
      <trkpt lat="48.6725" lon="6.54307">
        <ele>178.42</ele>
        <time>2026-08-13T11:20:19.814Z</time>
      </trkpt>
      <trkpt lat="48.67244" lon="6.5425">
        <ele>178.4</ele>
        <time>2026-08-13T11:20:25.815Z</time>
      </trkpt>
      <trkpt lat="48.67241" lon="6.54192">
        <ele>178.66</ele>
        <time>2026-08-13T11:20:31.813Z</time>
      </trkpt>
      <trkpt lat="48.67246" lon="6.54136">
        <ele>177.44</ele>
        <time>2026-08-13T11:20:37.814Z</time>
      </trkpt>
      <trkpt lat="48.67257" lon="6.54082">
        <ele>176.65</ele>
        <time>2026-08-13T11:20:43.818Z</time>
      </trkpt>
      <trkpt lat="48.67275" lon="6.54029">
        <ele>175.94</ele>
        <time>2026-08-13T11:20:49.818Z</time>
      </trkpt>
      <trkpt lat="48.67295" lon="6.53983">
        <ele>176.02</ele>
        <time>2026-08-13T11:20:55.817Z</time>
      </trkpt>
      <trkpt lat="48.67314" lon="6.53936">
        <ele>178.2</ele>
        <time>2026-08-13T11:21:01.817Z</time>
      </trkpt>
      <trkpt lat="48.67329" lon="6.53883">
        <ele>177.28</ele>
        <time>2026-08-13T11:21:07.809Z</time>
      </trkpt>
      <trkpt lat="48.67344" lon="6.53832">
        <ele>177.41</ele>
        <time>2026-08-13T11:21:13.808Z</time>
      </trkpt>
      <trkpt lat="48.67357" lon="6.53779">
        <ele>177</ele>
        <time>2026-08-13T11:21:19.808Z</time>
      </trkpt>
      <trkpt lat="48.67367" lon="6.53724">
        <ele>176.22</ele>
        <time>2026-08-13T11:21:25.818Z</time>
      </trkpt>
      <trkpt lat="48.67369" lon="6.53667">
        <ele>176.05</ele>
        <time>2026-08-13T11:21:31.818Z</time>
      </trkpt>
      <trkpt lat="48.67369" lon="6.53611">
        <ele>177.4</ele>
        <time>2026-08-13T11:21:37.817Z</time>
      </trkpt>
      <trkpt lat="48.67368" lon="6.53556">
        <ele>178.9</ele>
        <time>2026-08-13T11:21:43.811Z</time>
      </trkpt>
      <trkpt lat="48.67374" lon="6.53503">
        <ele>177.92</ele>
        <time>2026-08-13T11:21:49.811Z</time>
      </trkpt>
      <trkpt lat="48.67384" lon="6.53451">
        <ele>178.44</ele>
        <time>2026-08-13T11:21:55.811Z</time>
      </trkpt>
      <trkpt lat="48.67395" lon="6.53398">
        <ele>179.37</ele>
        <time>2026-08-13T11:22:01.808Z</time>
      </trkpt>
      <trkpt lat="48.67399" lon="6.53342">
        <ele>177.63</ele>
        <time>2026-08-13T11:22:07.813Z</time>
      </trkpt>
      <trkpt lat="48.67394" lon="6.53286">
        <ele>178.4</ele>
        <time>2026-08-13T11:22:13.814Z</time>
      </trkpt>
      <trkpt lat="48.67382" lon="6.53232">
        <ele>178.44</ele>
        <time>2026-08-13T11:22:19.817Z</time>
      </trkpt>
      <trkpt lat="48.67363" lon="6.53185">
        <ele>178.17</ele>
        <time>2026-08-13T11:22:25.814Z</time>
      </trkpt>
      <trkpt lat="48.67339" lon="6.53144">
        <ele>177.77</ele>
        <time>2026-08-13T11:22:31.819Z</time>
      </trkpt>
      <trkpt lat="48.67306" lon="6.53114">
        <ele>177.48</ele>
        <time>2026-08-13T11:22:37.804Z</time>
      </trkpt>
      <trkpt lat="48.67272" lon="6.53088">
        <ele>177.17</ele>
        <time>2026-08-13T11:22:43.814Z</time>
      </trkpt>
      <trkpt lat="48.6724" lon="6.53062">
        <ele>174.97</ele>
        <time>2026-08-13T11:22:49.816Z</time>
      </trkpt>
      <trkpt lat="48.6721" lon="6.53028">
        <ele>174.35</ele>
        <time>2026-08-13T11:22:55.817Z</time>
      </trkpt>
      <trkpt lat="48.67184" lon="6.52987">
        <ele>174.31</ele>
        <time>2026-08-13T11:23:01.809Z</time>
      </trkpt>
      <trkpt lat="48.6716" lon="6.52943">
        <ele>177.42</ele>
        <time>2026-08-13T11:23:07.811Z</time>
      </trkpt>
      <trkpt lat="48.6714" lon="6.52893">
        <ele>178.14</ele>
        <time>2026-08-13T11:23:13.814Z</time>
      </trkpt>
      <trkpt lat="48.67123" lon="6.52838">
        <ele>176.47</ele>
        <time>2026-08-13T11:23:19.813Z</time>
      </trkpt>
      <trkpt lat="48.67114" lon="6.5278">
        <ele>177.1</ele>
        <time>2026-08-13T11:23:25.805Z</time>
      </trkpt>
      <trkpt lat="48.67109" lon="6.52724">
        <ele>178.07</ele>
        <time>2026-08-13T11:23:31.813Z</time>
      </trkpt>
      <trkpt lat="48.67108" lon="6.52669">
        <ele>176.17</ele>
        <time>2026-08-13T11:23:37.812Z</time>
      </trkpt>
      <trkpt lat="48.6711" lon="6.52611">
        <ele>176.18</ele>
        <time>2026-08-13T11:23:43.813Z</time>
      </trkpt>
      <trkpt lat="48.67099" lon="6.52559">
        <ele>176.24</ele>
        <time>2026-08-13T11:23:49.810Z</time>
      </trkpt>
      <trkpt lat="48.67098" lon="6.52498">
        <ele>173.89</ele>
        <time>2026-08-13T11:23:55.808Z</time>
      </trkpt>
      <trkpt lat="48.67099" lon="6.5243">
        <ele>173.89</ele>
        <time>2026-08-13T11:24:01.807Z</time>
      </trkpt>
      <trkpt lat="48.67103" lon="6.5237">
        <ele>175.72</ele>
        <time>2026-08-13T11:24:07.811Z</time>
      </trkpt>
      <trkpt lat="48.67119" lon="6.52306">
        <ele>175.1</ele>
        <time>2026-08-13T11:24:13.810Z</time>
      </trkpt>
      <trkpt lat="48.67134" lon="6.52249">
        <ele>173.73</ele>
        <time>2026-08-13T11:24:19.809Z</time>
      </trkpt>
      <trkpt lat="48.67142" lon="6.52191">
        <ele>173.2</ele>
        <time>2026-08-13T11:24:25.818Z</time>
      </trkpt>
      <trkpt lat="48.67141" lon="6.52133">
        <ele>173.83</ele>
        <time>2026-08-13T11:24:31.811Z</time>
      </trkpt>
      <trkpt lat="48.67131" lon="6.52076">
        <ele>173.81</ele>
        <time>2026-08-13T11:24:37.811Z</time>
      </trkpt>
      <trkpt lat="48.67115" lon="6.52018">
        <ele>174.17</ele>
        <time>2026-08-13T11:24:43.813Z</time>
      </trkpt>
      <trkpt lat="48.67095" lon="6.51968">
        <ele>174.72</ele>
        <time>2026-08-13T11:24:49.806Z</time>
      </trkpt>
      <trkpt lat="48.67068" lon="6.51925">
        <ele>175.73</ele>
        <time>2026-08-13T11:24:55.811Z</time>
      </trkpt>
      <trkpt lat="48.67036" lon="6.5189">
        <ele>175.85</ele>
        <time>2026-08-13T11:25:01.806Z</time>
      </trkpt>
      <trkpt lat="48.67002" lon="6.51866">
        <ele>174.33</ele>
        <time>2026-08-13T11:25:07.804Z</time>
      </trkpt>
      <trkpt lat="48.66967" lon="6.5185">
        <ele>170.76</ele>
        <time>2026-08-13T11:25:13.808Z</time>
      </trkpt>
      <trkpt lat="48.66932" lon="6.51839">
        <ele>170.8</ele>
        <time>2026-08-13T11:25:19.809Z</time>
      </trkpt>
      <trkpt lat="48.66897" lon="6.51825">
        <ele>172.02</ele>
        <time>2026-08-13T11:25:25.815Z</time>
      </trkpt>
      <trkpt lat="48.66861" lon="6.51804">
        <ele>172.59</ele>
        <time>2026-08-13T11:25:31.808Z</time>
      </trkpt>
      <trkpt lat="48.66832" lon="6.51771">
        <ele>174.52</ele>
        <time>2026-08-13T11:25:37.814Z</time>
      </trkpt>
      <trkpt lat="48.66806" lon="6.51729">
        <ele>173.45</ele>
        <time>2026-08-13T11:25:43.806Z</time>
      </trkpt>
      <trkpt lat="48.66786" lon="6.5168">
        <ele>173.59</ele>
        <time>2026-08-13T11:25:49.809Z</time>
      </trkpt>
      <trkpt lat="48.66772" lon="6.51628">
        <ele>173.77</ele>
        <time>2026-08-13T11:25:55.785Z</time>
      </trkpt>
      <trkpt lat="48.66767" lon="6.51573">
        <ele>174.46</ele>
        <time>2026-08-13T11:26:01.808Z</time>
      </trkpt>
      <trkpt lat="48.66768" lon="6.51516">
        <ele>174.49</ele>
        <time>2026-08-13T11:26:07.806Z</time>
      </trkpt>
      <trkpt lat="48.66762" lon="6.51458">
        <ele>174.45</ele>
        <time>2026-08-13T11:26:13.812Z</time>
      </trkpt>
      <trkpt lat="48.66749" lon="6.51403">
        <ele>174.92</ele>
        <time>2026-08-13T11:26:19.811Z</time>
      </trkpt>
      <trkpt lat="48.6673" lon="6.51352">
        <ele>174.19</ele>
        <time>2026-08-13T11:26:25.816Z</time>
      </trkpt>
      <trkpt lat="48.66705" lon="6.51306">
        <ele>174.59</ele>
        <time>2026-08-13T11:26:31.809Z</time>
      </trkpt>
      <trkpt lat="48.66679" lon="6.51263">
        <ele>174.87</ele>
        <time>2026-08-13T11:26:37.809Z</time>
      </trkpt>
      <trkpt lat="48.66657" lon="6.51216">
        <ele>173.52</ele>
        <time>2026-08-13T11:26:43.811Z</time>
      </trkpt>
      <trkpt lat="48.66642" lon="6.51162">
        <ele>173.47</ele>
        <time>2026-08-13T11:26:49.806Z</time>
      </trkpt>
      <trkpt lat="48.66634" lon="6.51105">
        <ele>173.7</ele>
        <time>2026-08-13T11:26:55.815Z</time>
      </trkpt>
      <trkpt lat="48.66633" lon="6.51049">
        <ele>173.53</ele>
        <time>2026-08-13T11:27:01.808Z</time>
      </trkpt>
      <trkpt lat="48.66633" lon="6.50996">
        <ele>174.64</ele>
        <time>2026-08-13T11:27:07.807Z</time>
      </trkpt>
      <trkpt lat="48.66627" lon="6.50942">
        <ele>174.44</ele>
        <time>2026-08-13T11:27:13.804Z</time>
      </trkpt>
      <trkpt lat="48.66625" lon="6.50889">
        <ele>171.79</ele>
        <time>2026-08-13T11:27:19.806Z</time>
      </trkpt>
      <trkpt lat="48.66619" lon="6.50837">
        <ele>171.68</ele>
        <time>2026-08-13T11:27:25.813Z</time>
      </trkpt>
      <trkpt lat="48.66612" lon="6.50774">
        <ele>172.35</ele>
        <time>2026-08-13T11:27:31.805Z</time>
      </trkpt>
      <trkpt lat="48.66601" lon="6.5071">
        <ele>171.47</ele>
        <time>2026-08-13T11:27:37.803Z</time>
      </trkpt>
      <trkpt lat="48.66579" lon="6.5065">
        <ele>169.42</ele>
        <time>2026-08-13T11:27:43.808Z</time>
      </trkpt>
      <trkpt lat="48.66555" lon="6.50595">
        <ele>167.08</ele>
        <time>2026-08-13T11:27:49.807Z</time>
      </trkpt>
      <trkpt lat="48.66531" lon="6.50542">
        <ele>168.36</ele>
        <time>2026-08-13T11:27:55.816Z</time>
      </trkpt>
      <trkpt lat="48.66509" lon="6.50488">
        <ele>169.16</ele>
        <time>2026-08-13T11:28:01.809Z</time>
      </trkpt>
      <trkpt lat="48.66495" lon="6.50435">
        <ele>168.48</ele>
        <time>2026-08-13T11:28:07.803Z</time>
      </trkpt>
      <trkpt lat="48.66484" lon="6.50385">
        <ele>165.08</ele>
        <time>2026-08-13T11:28:13.801Z</time>
      </trkpt>
      <trkpt lat="48.66471" lon="6.50326">
        <ele>167.86</ele>
        <time>2026-08-13T11:28:19.808Z</time>
      </trkpt>
      <trkpt lat="48.66449" lon="6.50277">
        <ele>169.76</ele>
        <time>2026-08-13T11:28:25.814Z</time>
      </trkpt>
      <trkpt lat="48.66416" lon="6.50238">
        <ele>169.31</ele>
        <time>2026-08-13T11:28:31.810Z</time>
      </trkpt>
      <trkpt lat="48.66379" lon="6.50204">
        <ele>171.05</ele>
        <time>2026-08-13T11:28:37.806Z</time>
      </trkpt>
      <trkpt lat="48.66344" lon="6.50161">
        <ele>171.16</ele>
        <time>2026-08-13T11:28:43.809Z</time>
      </trkpt>
      <trkpt lat="48.66308" lon="6.5012">
        <ele>170.59</ele>
        <time>2026-08-13T11:28:49.804Z</time>
      </trkpt>
      <trkpt lat="48.66264" lon="6.50082">
        <ele>169.49</ele>
        <time>2026-08-13T11:28:55.816Z</time>
      </trkpt>
      <trkpt lat="48.66249" lon="6.5002">
        <ele>168.44</ele>
        <time>2026-08-13T11:29:01.807Z</time>
      </trkpt>
      <trkpt lat="48.66241" lon="6.49959">
        <ele>167.96</ele>
        <time>2026-08-13T11:29:07.802Z</time>
      </trkpt>
      <trkpt lat="48.66222" lon="6.49904">
        <ele>167.47</ele>
        <time>2026-08-13T11:29:13.812Z</time>
      </trkpt>
      <trkpt lat="48.66191" lon="6.49854">
        <ele>168.71</ele>
        <time>2026-08-13T11:29:19.809Z</time>
      </trkpt>
      <trkpt lat="48.66161" lon="6.49803">
        <ele>169.87</ele>
        <time>2026-08-13T11:29:25.815Z</time>
      </trkpt>
      <trkpt lat="48.66131" lon="6.49754">
        <ele>170.22</ele>
        <time>2026-08-13T11:29:31.814Z</time>
      </trkpt>
      <trkpt lat="48.66101" lon="6.49706">
        <ele>171.36</ele>
        <time>2026-08-13T11:29:37.810Z</time>
      </trkpt>
      <trkpt lat="48.66073" lon="6.4966">
        <ele>171.05</ele>
        <time>2026-08-13T11:29:43.811Z</time>
      </trkpt>
      <trkpt lat="48.66045" lon="6.49613">
        <ele>170.35</ele>
        <time>2026-08-13T11:29:49.810Z</time>
      </trkpt>
      <trkpt lat="48.66016" lon="6.49566">
        <ele>170.93</ele>
        <time>2026-08-13T11:29:55.814Z</time>
      </trkpt>
      <trkpt lat="48.65988" lon="6.49517">
        <ele>170.64</ele>
        <time>2026-08-13T11:30:01.815Z</time>
      </trkpt>
      <trkpt lat="48.65963" lon="6.49479">
        <ele>172.22</ele>
        <time>2026-08-13T11:30:07.809Z</time>
      </trkpt>
      <trkpt lat="48.6593" lon="6.49449">
        <ele>173.81</ele>
        <time>2026-08-13T11:30:13.807Z</time>
      </trkpt>
      <trkpt lat="48.65902" lon="6.49411">
        <ele>174.95</ele>
        <time>2026-08-13T11:30:19.809Z</time>
      </trkpt>
      <trkpt lat="48.6588" lon="6.49369">
        <ele>174.69</ele>
        <time>2026-08-13T11:30:25.813Z</time>
      </trkpt>
      <trkpt lat="48.65858" lon="6.49324">
        <ele>174.2</ele>
        <time>2026-08-13T11:30:31.809Z</time>
      </trkpt>
      <trkpt lat="48.65831" lon="6.49286">
        <ele>174.56</ele>
        <time>2026-08-13T11:30:37.807Z</time>
      </trkpt>
      <trkpt lat="48.658" lon="6.49259">
        <ele>174.6</ele>
        <time>2026-08-13T11:30:43.808Z</time>
      </trkpt>
      <trkpt lat="48.65764" lon="6.49233">
        <ele>175.83</ele>
        <time>2026-08-13T11:30:49.803Z</time>
      </trkpt>
      <trkpt lat="48.65731" lon="6.49201">
        <ele>175.86</ele>
        <time>2026-08-13T11:30:55.805Z</time>
      </trkpt>
      <trkpt lat="48.65711" lon="6.49159">
        <ele>176.14</ele>
        <time>2026-08-13T11:31:01.797Z</time>
      </trkpt>
      <trkpt lat="48.65688" lon="6.49111">
        <ele>174.8</ele>
        <time>2026-08-13T11:31:07.804Z</time>
      </trkpt>
      <trkpt lat="48.65671" lon="6.49055">
        <ele>174.05</ele>
        <time>2026-08-13T11:31:13.812Z</time>
      </trkpt>
      <trkpt lat="48.65663" lon="6.49002">
        <ele>173.08</ele>
        <time>2026-08-13T11:31:19.807Z</time>
      </trkpt>
      <trkpt lat="48.65667" lon="6.48947">
        <ele>172.8</ele>
        <time>2026-08-13T11:31:25.800Z</time>
      </trkpt>
      <trkpt lat="48.65666" lon="6.48889">
        <ele>176</ele>
        <time>2026-08-13T11:31:31.804Z</time>
      </trkpt>
      <trkpt lat="48.65665" lon="6.48824">
        <ele>175.34</ele>
        <time>2026-08-13T11:31:37.804Z</time>
      </trkpt>
      <trkpt lat="48.65665" lon="6.48764">
        <ele>176.96</ele>
        <time>2026-08-13T11:31:43.795Z</time>
      </trkpt>
      <trkpt lat="48.65666" lon="6.48704">
        <ele>176.95</ele>
        <time>2026-08-13T11:31:49.806Z</time>
      </trkpt>
      <trkpt lat="48.65664" lon="6.4864">
        <ele>176.34</ele>
        <time>2026-08-13T11:31:55.803Z</time>
      </trkpt>
      <trkpt lat="48.65665" lon="6.48581">
        <ele>175.71</ele>
        <time>2026-08-13T11:32:01.801Z</time>
      </trkpt>
      <trkpt lat="48.65666" lon="6.48523">
        <ele>174.86</ele>
        <time>2026-08-13T11:32:07.806Z</time>
      </trkpt>
      <trkpt lat="48.65655" lon="6.48464">
        <ele>176.76</ele>
        <time>2026-08-13T11:32:13.802Z</time>
      </trkpt>
      <trkpt lat="48.65636" lon="6.48404">
        <ele>175.74</ele>
        <time>2026-08-13T11:32:19.802Z</time>
      </trkpt>
      <trkpt lat="48.6561" lon="6.48355">
        <ele>175.01</ele>
        <time>2026-08-13T11:32:25.806Z</time>
      </trkpt>
      <trkpt lat="48.65579" lon="6.48316">
        <ele>174.13</ele>
        <time>2026-08-13T11:32:31.803Z</time>
      </trkpt>
      <trkpt lat="48.65549" lon="6.48282">
        <ele>175.91</ele>
        <time>2026-08-13T11:32:37.802Z</time>
      </trkpt>
      <trkpt lat="48.65519" lon="6.48246">
        <ele>175.15</ele>
        <time>2026-08-13T11:32:43.812Z</time>
      </trkpt>
      <trkpt lat="48.65484" lon="6.48218">
        <ele>174.77</ele>
        <time>2026-08-13T11:32:49.813Z</time>
      </trkpt>
      <trkpt lat="48.65445" lon="6.48225">
        <ele>173.7</ele>
        <time>2026-08-13T11:32:55.809Z</time>
      </trkpt>
      <trkpt lat="48.65413" lon="6.48189">
        <ele>174.35</ele>
        <time>2026-08-13T11:33:01.808Z</time>
      </trkpt>
      <trkpt lat="48.65381" lon="6.48152">
        <ele>174.21</ele>
        <time>2026-08-13T11:33:07.802Z</time>
      </trkpt>
      <trkpt lat="48.65363" lon="6.48118">
        <ele>173.35</ele>
        <time>2026-08-13T11:33:13.806Z</time>
      </trkpt>
      <trkpt lat="48.65354" lon="6.4807">
        <ele>173.61</ele>
        <time>2026-08-13T11:33:19.801Z</time>
      </trkpt>
      <trkpt lat="48.65322" lon="6.48029">
        <ele>173.84</ele>
        <time>2026-08-13T11:33:25.811Z</time>
      </trkpt>
      <trkpt lat="48.65288" lon="6.47992">
        <ele>174.57</ele>
        <time>2026-08-13T11:33:31.809Z</time>
      </trkpt>
      <trkpt lat="48.65254" lon="6.47955">
        <ele>175.57</ele>
        <time>2026-08-13T11:33:37.810Z</time>
      </trkpt>
      <trkpt lat="48.65223" lon="6.47913">
        <ele>176.03</ele>
        <time>2026-08-13T11:33:43.803Z</time>
      </trkpt>
      <trkpt lat="48.65197" lon="6.47863">
        <ele>175.15</ele>
        <time>2026-08-13T11:33:49.805Z</time>
      </trkpt>
      <trkpt lat="48.65176" lon="6.47806">
        <ele>175.31</ele>
        <time>2026-08-13T11:33:55.805Z</time>
      </trkpt>
      <trkpt lat="48.65164" lon="6.47743">
        <ele>176.17</ele>
        <time>2026-08-13T11:34:01.801Z</time>
      </trkpt>
      <trkpt lat="48.65157" lon="6.47678">
        <ele>175.87</ele>
        <time>2026-08-13T11:34:07.803Z</time>
      </trkpt>
      <trkpt lat="48.65153" lon="6.47614">
        <ele>175.72</ele>
        <time>2026-08-13T11:34:13.803Z</time>
      </trkpt>
      <trkpt lat="48.65154" lon="6.47549">
        <ele>175.92</ele>
        <time>2026-08-13T11:34:19.803Z</time>
      </trkpt>
      <trkpt lat="48.65164" lon="6.47489">
        <ele>175.97</ele>
        <time>2026-08-13T11:34:25.802Z</time>
      </trkpt>
      <trkpt lat="48.6518" lon="6.47433">
        <ele>174.7</ele>
        <time>2026-08-13T11:34:31.806Z</time>
      </trkpt>
      <trkpt lat="48.65201" lon="6.47382">
        <ele>174.19</ele>
        <time>2026-08-13T11:34:37.797Z</time>
      </trkpt>
      <trkpt lat="48.65227" lon="6.47337">
        <ele>174.49</ele>
        <time>2026-08-13T11:34:43.806Z</time>
      </trkpt>
      <trkpt lat="48.65258" lon="6.47298">
        <ele>174.27</ele>
        <time>2026-08-13T11:34:49.804Z</time>
      </trkpt>
      <trkpt lat="48.65288" lon="6.47267">
        <ele>173.22</ele>
        <time>2026-08-13T11:34:55.814Z</time>
      </trkpt>
      <trkpt lat="48.65313" lon="6.47238">
        <ele>172.48</ele>
        <time>2026-08-13T11:35:01.799Z</time>
      </trkpt>
      <trkpt lat="48.65327" lon="6.47214">
        <ele>173.51</ele>
        <time>2026-08-13T11:35:07.806Z</time>
      </trkpt>
      <trkpt lat="48.65356" lon="6.47178">
        <ele>172.9</ele>
        <time>2026-08-13T11:35:13.792Z</time>
      </trkpt>
      <trkpt lat="48.65379" lon="6.47125">
        <ele>172.65</ele>
        <time>2026-08-13T11:35:19.803Z</time>
      </trkpt>
      <trkpt lat="48.65392" lon="6.47066">
        <ele>171.99</ele>
        <time>2026-08-13T11:35:25.813Z</time>
      </trkpt>
      <trkpt lat="48.65398" lon="6.47009">
        <ele>170.89</ele>
        <time>2026-08-13T11:35:31.800Z</time>
      </trkpt>
      <trkpt lat="48.654" lon="6.46951">
        <ele>170.61</ele>
        <time>2026-08-13T11:35:37.801Z</time>
      </trkpt>
      <trkpt lat="48.65398" lon="6.46891">
        <ele>171.82</ele>
        <time>2026-08-13T11:35:43.806Z</time>
      </trkpt>
      <trkpt lat="48.65391" lon="6.46829">
        <ele>172.45</ele>
        <time>2026-08-13T11:35:49.800Z</time>
      </trkpt>
      <trkpt lat="48.65377" lon="6.46769">
        <ele>173.94</ele>
        <time>2026-08-13T11:35:55.783Z</time>
      </trkpt>
      <trkpt lat="48.65359" lon="6.4671">
        <ele>175.37</ele>
        <time>2026-08-13T11:36:01.802Z</time>
      </trkpt>
      <trkpt lat="48.65334" lon="6.46658">
        <ele>174.54</ele>
        <time>2026-08-13T11:36:07.800Z</time>
      </trkpt>
      <trkpt lat="48.65305" lon="6.4661">
        <ele>173.58</ele>
        <time>2026-08-13T11:36:13.805Z</time>
      </trkpt>
      <trkpt lat="48.65274" lon="6.46568">
        <ele>174.35</ele>
        <time>2026-08-13T11:36:19.803Z</time>
      </trkpt>
      <trkpt lat="48.6524" lon="6.46533">
        <ele>174.56</ele>
        <time>2026-08-13T11:36:25.808Z</time>
      </trkpt>
      <trkpt lat="48.65204" lon="6.46504">
        <ele>173.79</ele>
        <time>2026-08-13T11:36:31.801Z</time>
      </trkpt>
      <trkpt lat="48.65168" lon="6.46473">
        <ele>173.55</ele>
        <time>2026-08-13T11:36:37.783Z</time>
      </trkpt>
      <trkpt lat="48.65132" lon="6.46442">
        <ele>173.84</ele>
        <time>2026-08-13T11:36:43.802Z</time>
      </trkpt>
      <trkpt lat="48.65095" lon="6.46412">
        <ele>173.1</ele>
        <time>2026-08-13T11:36:49.803Z</time>
      </trkpt>
      <trkpt lat="48.65059" lon="6.46374">
        <ele>171.03</ele>
        <time>2026-08-13T11:36:55.815Z</time>
      </trkpt>
      <trkpt lat="48.65031" lon="6.46328">
        <ele>170.01</ele>
        <time>2026-08-13T11:37:01.807Z</time>
      </trkpt>
      <trkpt lat="48.65008" lon="6.46278">
        <ele>169.97</ele>
        <time>2026-08-13T11:37:07.801Z</time>
      </trkpt>
      <trkpt lat="48.64993" lon="6.4622">
        <ele>169.76</ele>
        <time>2026-08-13T11:37:13.803Z</time>
      </trkpt>
      <trkpt lat="48.64986" lon="6.46157">
        <ele>169.41</ele>
        <time>2026-08-13T11:37:19.806Z</time>
      </trkpt>
      <trkpt lat="48.64981" lon="6.46094">
        <ele>169.55</ele>
        <time>2026-08-13T11:37:25.814Z</time>
      </trkpt>
      <trkpt lat="48.64971" lon="6.46033">
        <ele>170.32</ele>
        <time>2026-08-13T11:37:31.802Z</time>
      </trkpt>
      <trkpt lat="48.64954" lon="6.45977">
        <ele>172.14</ele>
        <time>2026-08-13T11:37:37.802Z</time>
      </trkpt>
      <trkpt lat="48.64931" lon="6.45922">
        <ele>174.29</ele>
        <time>2026-08-13T11:37:43.802Z</time>
      </trkpt>
      <trkpt lat="48.64902" lon="6.45875">
        <ele>174.54</ele>
        <time>2026-08-13T11:37:49.802Z</time>
      </trkpt>
      <trkpt lat="48.64873" lon="6.45831">
        <ele>175.47</ele>
        <time>2026-08-13T11:37:55.813Z</time>
      </trkpt>
      <trkpt lat="48.64844" lon="6.45784">
        <ele>174.66</ele>
        <time>2026-08-13T11:38:01.804Z</time>
      </trkpt>
      <trkpt lat="48.64814" lon="6.45734">
        <ele>174.06</ele>
        <time>2026-08-13T11:38:07.803Z</time>
      </trkpt>
      <trkpt lat="48.64787" lon="6.45684">
        <ele>173.04</ele>
        <time>2026-08-13T11:38:13.801Z</time>
      </trkpt>
      <trkpt lat="48.64761" lon="6.4563">
        <ele>171.76</ele>
        <time>2026-08-13T11:38:19.803Z</time>
      </trkpt>
      <trkpt lat="48.64736" lon="6.45573">
        <ele>172.02</ele>
        <time>2026-08-13T11:38:25.781Z</time>
      </trkpt>
      <trkpt lat="48.64711" lon="6.45519">
        <ele>172.24</ele>
        <time>2026-08-13T11:38:31.800Z</time>
      </trkpt>
      <trkpt lat="48.64688" lon="6.45462">
        <ele>172.51</ele>
        <time>2026-08-13T11:38:37.799Z</time>
      </trkpt>
      <trkpt lat="48.6467" lon="6.45398">
        <ele>171.59</ele>
        <time>2026-08-13T11:38:43.802Z</time>
      </trkpt>
      <trkpt lat="48.64654" lon="6.45336">
        <ele>171.22</ele>
        <time>2026-08-13T11:38:49.801Z</time>
      </trkpt>
      <trkpt lat="48.64639" lon="6.45275">
        <ele>170.78</ele>
        <time>2026-08-13T11:38:55.818Z</time>
      </trkpt>
      <trkpt lat="48.64623" lon="6.45215">
        <ele>170.21</ele>
        <time>2026-08-13T11:39:01.800Z</time>
      </trkpt>
      <trkpt lat="48.6461" lon="6.45154">
        <ele>171.18</ele>
        <time>2026-08-13T11:39:07.800Z</time>
      </trkpt>
      <trkpt lat="48.64593" lon="6.45094">
        <ele>170.91</ele>
        <time>2026-08-13T11:39:13.800Z</time>
      </trkpt>
      <trkpt lat="48.64578" lon="6.45031">
        <ele>171.29</ele>
        <time>2026-08-13T11:39:19.802Z</time>
      </trkpt>
      <trkpt lat="48.64562" lon="6.4497">
        <ele>171.83</ele>
        <time>2026-08-13T11:39:25.815Z</time>
      </trkpt>
      <trkpt lat="48.64546" lon="6.44909">
        <ele>171.65</ele>
        <time>2026-08-13T11:39:31.801Z</time>
      </trkpt>
      <trkpt lat="48.64531" lon="6.44845">
        <ele>171.68</ele>
        <time>2026-08-13T11:39:37.804Z</time>
      </trkpt>
      <trkpt lat="48.64516" lon="6.44783">
        <ele>171.72</ele>
        <time>2026-08-13T11:39:43.800Z</time>
      </trkpt>
      <trkpt lat="48.64498" lon="6.44722">
        <ele>171.86</ele>
        <time>2026-08-13T11:39:49.798Z</time>
      </trkpt>
      <trkpt lat="48.64481" lon="6.44666">
        <ele>171.91</ele>
        <time>2026-08-13T11:39:55.812Z</time>
      </trkpt>
      <trkpt lat="48.64465" lon="6.44615">
        <ele>172.04</ele>
        <time>2026-08-13T11:40:01.800Z</time>
      </trkpt>
      <trkpt lat="48.64454" lon="6.44566">
        <ele>171.8</ele>
        <time>2026-08-13T11:40:07.799Z</time>
      </trkpt>
      <trkpt lat="48.64433" lon="6.4452">
        <ele>170.23</ele>
        <time>2026-08-13T11:40:13.800Z</time>
      </trkpt>
      <trkpt lat="48.64413" lon="6.44456">
        <ele>167.44</ele>
        <time>2026-08-13T11:40:19.800Z</time>
      </trkpt>
      <trkpt lat="48.64385" lon="6.44399">
        <ele>166.8</ele>
        <time>2026-08-13T11:40:25.818Z</time>
      </trkpt>
      <trkpt lat="48.64357" lon="6.44345">
        <ele>166.71</ele>
        <time>2026-08-13T11:40:31.799Z</time>
      </trkpt>
      <trkpt lat="48.6433" lon="6.44294">
        <ele>169.12</ele>
        <time>2026-08-13T11:40:37.801Z</time>
      </trkpt>
      <trkpt lat="48.64307" lon="6.44239">
        <ele>169.87</ele>
        <time>2026-08-13T11:40:43.803Z</time>
      </trkpt>
      <trkpt lat="48.64292" lon="6.44179">
        <ele>170.7</ele>
        <time>2026-08-13T11:40:49.800Z</time>
      </trkpt>
      <trkpt lat="48.64285" lon="6.44116">
        <ele>169.99</ele>
        <time>2026-08-13T11:40:55.812Z</time>
      </trkpt>
      <trkpt lat="48.64282" lon="6.4405">
        <ele>169.15</ele>
        <time>2026-08-13T11:41:01.802Z</time>
      </trkpt>
      <trkpt lat="48.64278" lon="6.43983">
        <ele>169.45</ele>
        <time>2026-08-13T11:41:07.801Z</time>
      </trkpt>
      <trkpt lat="48.64272" lon="6.43917">
        <ele>168.67</ele>
        <time>2026-08-13T11:41:13.802Z</time>
      </trkpt>
      <trkpt lat="48.64267" lon="6.43851">
        <ele>168.72</ele>
        <time>2026-08-13T11:41:19.802Z</time>
      </trkpt>
      <trkpt lat="48.64258" lon="6.43786">
        <ele>168.8</ele>
        <time>2026-08-13T11:41:25.814Z</time>
      </trkpt>
      <trkpt lat="48.64246" lon="6.4372">
        <ele>169.41</ele>
        <time>2026-08-13T11:41:31.806Z</time>
      </trkpt>
      <trkpt lat="48.64232" lon="6.43655">
        <ele>170.19</ele>
        <time>2026-08-13T11:41:37.805Z</time>
      </trkpt>
      <trkpt lat="48.6422" lon="6.43592">
        <ele>169.89</ele>
        <time>2026-08-13T11:41:43.802Z</time>
      </trkpt>
      <trkpt lat="48.64209" lon="6.43531">
        <ele>170.3</ele>
        <time>2026-08-13T11:41:49.802Z</time>
      </trkpt>
      <trkpt lat="48.64207" lon="6.43466">
        <ele>169.73</ele>
        <time>2026-08-13T11:41:55.810Z</time>
      </trkpt>
      <trkpt lat="48.64213" lon="6.43399">
        <ele>170.54</ele>
        <time>2026-08-13T11:42:01.812Z</time>
      </trkpt>
      <trkpt lat="48.64226" lon="6.43336">
        <ele>170.66</ele>
        <time>2026-08-13T11:42:07.805Z</time>
      </trkpt>
      <trkpt lat="48.64245" lon="6.43275">
        <ele>171.94</ele>
        <time>2026-08-13T11:42:13.802Z</time>
      </trkpt>
      <trkpt lat="48.64262" lon="6.43217">
        <ele>173.2</ele>
        <time>2026-08-13T11:42:19.803Z</time>
      </trkpt>
      <trkpt lat="48.64273" lon="6.43155">
        <ele>172.67</ele>
        <time>2026-08-13T11:42:25.814Z</time>
      </trkpt>
      <trkpt lat="48.64279" lon="6.4309">
        <ele>171.36</ele>
        <time>2026-08-13T11:42:31.800Z</time>
      </trkpt>
      <trkpt lat="48.64278" lon="6.43021">
        <ele>171.98</ele>
        <time>2026-08-13T11:42:37.802Z</time>
      </trkpt>
      <trkpt lat="48.64268" lon="6.42957">
        <ele>171.1</ele>
        <time>2026-08-13T11:42:43.804Z</time>
      </trkpt>
      <trkpt lat="48.64253" lon="6.42894">
        <ele>170.85</ele>
        <time>2026-08-13T11:42:49.802Z</time>
      </trkpt>
      <trkpt lat="48.64238" lon="6.42831">
        <ele>171.43</ele>
        <time>2026-08-13T11:42:55.804Z</time>
      </trkpt>
      <trkpt lat="48.64222" lon="6.42769">
        <ele>171.55</ele>
        <time>2026-08-13T11:43:01.802Z</time>
      </trkpt>
      <trkpt lat="48.64201" lon="6.42712">
        <ele>174.19</ele>
        <time>2026-08-13T11:43:07.801Z</time>
      </trkpt>
      <trkpt lat="48.6417" lon="6.4267">
        <ele>175.1</ele>
        <time>2026-08-13T11:43:13.803Z</time>
      </trkpt>
      <trkpt lat="48.64137" lon="6.42627">
        <ele>175.24</ele>
        <time>2026-08-13T11:43:19.804Z</time>
      </trkpt>
      <trkpt lat="48.64105" lon="6.42583">
        <ele>173.79</ele>
        <time>2026-08-13T11:43:25.802Z</time>
      </trkpt>
      <trkpt lat="48.64073" lon="6.4254">
        <ele>173.66</ele>
        <time>2026-08-13T11:43:31.803Z</time>
      </trkpt>
      <trkpt lat="48.6404" lon="6.425">
        <ele>173.99</ele>
        <time>2026-08-13T11:43:37.795Z</time>
      </trkpt>
      <trkpt lat="48.64002" lon="6.42473">
        <ele>175.73</ele>
        <time>2026-08-13T11:43:43.803Z</time>
      </trkpt>
      <trkpt lat="48.63964" lon="6.42448">
        <ele>174.59</ele>
        <time>2026-08-13T11:43:49.801Z</time>
      </trkpt>
      <trkpt lat="48.63926" lon="6.42423">
        <ele>173.49</ele>
        <time>2026-08-13T11:43:55.801Z</time>
      </trkpt>
      <trkpt lat="48.63888" lon="6.42401">
        <ele>173.7</ele>
        <time>2026-08-13T11:44:01.792Z</time>
      </trkpt>
      <trkpt lat="48.63853" lon="6.4238">
        <ele>175.57</ele>
        <time>2026-08-13T11:44:07.803Z</time>
      </trkpt>
      <trkpt lat="48.63822" lon="6.42352">
        <ele>175.55</ele>
        <time>2026-08-13T11:44:13.801Z</time>
      </trkpt>
      <trkpt lat="48.63795" lon="6.42316">
        <ele>174.12</ele>
        <time>2026-08-13T11:44:19.802Z</time>
      </trkpt>
      <trkpt lat="48.6377" lon="6.42271">
        <ele>172.54</ele>
        <time>2026-08-13T11:44:25.801Z</time>
      </trkpt>
      <trkpt lat="48.63752" lon="6.42222">
        <ele>173.02</ele>
        <time>2026-08-13T11:44:31.806Z</time>
      </trkpt>
      <trkpt lat="48.6374" lon="6.42172">
        <ele>173.27</ele>
        <time>2026-08-13T11:44:37.801Z</time>
      </trkpt>
      <trkpt lat="48.63735" lon="6.42129">
        <ele>171.84</ele>
        <time>2026-08-13T11:44:43.806Z</time>
      </trkpt>
      <trkpt lat="48.63736" lon="6.42103">
        <ele>171.61</ele>
        <time>2026-08-13T11:44:49.803Z</time>
      </trkpt>
      <trkpt lat="48.63738" lon="6.42077">
        <ele>170.75</ele>
        <time>2026-08-13T11:44:55.812Z</time>
      </trkpt>
      <trkpt lat="48.63739" lon="6.42055">
        <ele>172.51</ele>
        <time>2026-08-13T11:45:47.750Z</time>
      </trkpt>
      <trkpt lat="48.6374" lon="6.4203">
        <ele>174.3</ele>
        <time>2026-08-13T11:45:53.755Z</time>
      </trkpt>
      <trkpt lat="48.63743" lon="6.41996">
        <ele>175.17</ele>
        <time>2026-08-13T11:45:59.748Z</time>
      </trkpt>
      <trkpt lat="48.63747" lon="6.4195">
        <ele>176.1</ele>
        <time>2026-08-13T11:46:05.751Z</time>
      </trkpt>
      <trkpt lat="48.63749" lon="6.41905">
        <ele>176.37</ele>
        <time>2026-08-13T11:46:11.748Z</time>
      </trkpt>
      <trkpt lat="48.63749" lon="6.41868">
        <ele>175.66</ele>
        <time>2026-08-13T11:46:16.750Z</time>
      </trkpt>
      <trkpt lat="48.63751" lon="6.41823">
        <ele>174.96</ele>
        <time>2026-08-13T11:46:22.747Z</time>
      </trkpt>
      <trkpt lat="48.63753" lon="6.41777">
        <ele>174.07</ele>
        <time>2026-08-13T11:46:28.748Z</time>
      </trkpt>
      <trkpt lat="48.63757" lon="6.41731">
        <ele>174.48</ele>
        <time>2026-08-13T11:46:34.748Z</time>
      </trkpt>
      <trkpt lat="48.63759" lon="6.41682">
        <ele>174.01</ele>
        <time>2026-08-13T11:46:40.749Z</time>
      </trkpt>
      <trkpt lat="48.63761" lon="6.41632">
        <ele>171.77</ele>
        <time>2026-08-13T11:46:46.749Z</time>
      </trkpt>
      <trkpt lat="48.63764" lon="6.41578">
        <ele>172.71</ele>
        <time>2026-08-13T11:46:52.752Z</time>
      </trkpt>
      <trkpt lat="48.63772" lon="6.41526">
        <ele>172.4</ele>
        <time>2026-08-13T11:46:58.748Z</time>
      </trkpt>
      <trkpt lat="48.63782" lon="6.41487">
        <ele>172.08</ele>
        <time>2026-08-13T11:47:03.748Z</time>
      </trkpt>
      <trkpt lat="48.63798" lon="6.41444">
        <ele>172.84</ele>
        <time>2026-08-13T11:47:09.746Z</time>
      </trkpt>
      <trkpt lat="48.63815" lon="6.41413">
        <ele>174.39</ele>
        <time>2026-08-13T11:47:14.750Z</time>
      </trkpt>
      <trkpt lat="48.63835" lon="6.41388">
        <ele>176.07</ele>
        <time>2026-08-13T11:47:19.801Z</time>
      </trkpt>
      <trkpt lat="48.63863" lon="6.4136">
        <ele>174.97</ele>
        <time>2026-08-13T11:47:25.812Z</time>
      </trkpt>
      <trkpt lat="48.63894" lon="6.41339">
        <ele>173.81</ele>
        <time>2026-08-13T11:47:31.807Z</time>
      </trkpt>
      <trkpt lat="48.63923" lon="6.41311">
        <ele>173.01</ele>
        <time>2026-08-13T11:47:37.800Z</time>
      </trkpt>
      <trkpt lat="48.63952" lon="6.41278">
        <ele>172.54</ele>
        <time>2026-08-13T11:47:43.801Z</time>
      </trkpt>
      <trkpt lat="48.63981" lon="6.41246">
        <ele>172.16</ele>
        <time>2026-08-13T11:47:49.799Z</time>
      </trkpt>
      <trkpt lat="48.64009" lon="6.41212">
        <ele>171.63</ele>
        <time>2026-08-13T11:47:55.814Z</time>
      </trkpt>
      <trkpt lat="48.64037" lon="6.41173">
        <ele>171.99</ele>
        <time>2026-08-13T11:48:01.805Z</time>
      </trkpt>
      <trkpt lat="48.64061" lon="6.41131">
        <ele>171.07</ele>
        <time>2026-08-13T11:48:07.800Z</time>
      </trkpt>
      <trkpt lat="48.64081" lon="6.41085">
        <ele>170.08</ele>
        <time>2026-08-13T11:48:13.802Z</time>
      </trkpt>
      <trkpt lat="48.64099" lon="6.41034">
        <ele>170.39</ele>
        <time>2026-08-13T11:48:19.802Z</time>
      </trkpt>
      <trkpt lat="48.64111" lon="6.40976">
        <ele>169.95</ele>
        <time>2026-08-13T11:48:25.790Z</time>
      </trkpt>
      <trkpt lat="48.64121" lon="6.40923">
        <ele>170.5</ele>
        <time>2026-08-13T11:48:31.806Z</time>
      </trkpt>
      <trkpt lat="48.64125" lon="6.40869">
        <ele>170.64</ele>
        <time>2026-08-13T11:48:37.801Z</time>
      </trkpt>
      <trkpt lat="48.64127" lon="6.40813">
        <ele>171.05</ele>
        <time>2026-08-13T11:48:43.803Z</time>
      </trkpt>
      <trkpt lat="48.64124" lon="6.40759">
        <ele>171.54</ele>
        <time>2026-08-13T11:48:49.799Z</time>
      </trkpt>
      <trkpt lat="48.64118" lon="6.40705">
        <ele>172.45</ele>
        <time>2026-08-13T11:48:55.812Z</time>
      </trkpt>
      <trkpt lat="48.64108" lon="6.40651">
        <ele>173.11</ele>
        <time>2026-08-13T11:49:01.809Z</time>
      </trkpt>
      <trkpt lat="48.64094" lon="6.40595">
        <ele>172.24</ele>
        <time>2026-08-13T11:49:07.802Z</time>
      </trkpt>
      <trkpt lat="48.64077" lon="6.40539">
        <ele>172</ele>
        <time>2026-08-13T11:49:13.805Z</time>
      </trkpt>
      <trkpt lat="48.64066" lon="6.40482">
        <ele>171.77</ele>
        <time>2026-08-13T11:49:19.803Z</time>
      </trkpt>
      <trkpt lat="48.64064" lon="6.40424">
        <ele>170.76</ele>
        <time>2026-08-13T11:49:25.813Z</time>
      </trkpt>
      <trkpt lat="48.64068" lon="6.40368">
        <ele>170.49</ele>
        <time>2026-08-13T11:49:31.807Z</time>
      </trkpt>
      <trkpt lat="48.64079" lon="6.40313">
        <ele>169.96</ele>
        <time>2026-08-13T11:49:37.802Z</time>
      </trkpt>
      <trkpt lat="48.64096" lon="6.40263">
        <ele>171.7</ele>
        <time>2026-08-13T11:49:43.803Z</time>
      </trkpt>
      <trkpt lat="48.6412" lon="6.40217">
        <ele>172.46</ele>
        <time>2026-08-13T11:49:49.801Z</time>
      </trkpt>
      <trkpt lat="48.64147" lon="6.40177">
        <ele>173.28</ele>
        <time>2026-08-13T11:49:55.811Z</time>
      </trkpt>
      <trkpt lat="48.64173" lon="6.40137">
        <ele>173.25</ele>
        <time>2026-08-13T11:50:01.808Z</time>
      </trkpt>
      <trkpt lat="48.64199" lon="6.40093">
        <ele>172.44</ele>
        <time>2026-08-13T11:50:07.801Z</time>
      </trkpt>
      <trkpt lat="48.64222" lon="6.40045">
        <ele>172.11</ele>
        <time>2026-08-13T11:50:13.802Z</time>
      </trkpt>
      <trkpt lat="48.64243" lon="6.39996">
        <ele>171.83</ele>
        <time>2026-08-13T11:50:19.801Z</time>
      </trkpt>
      <trkpt lat="48.64262" lon="6.39945">
        <ele>171.73</ele>
        <time>2026-08-13T11:50:25.814Z</time>
      </trkpt>
      <trkpt lat="48.64277" lon="6.3989">
        <ele>172.25</ele>
        <time>2026-08-13T11:50:31.807Z</time>
      </trkpt>
      <trkpt lat="48.64288" lon="6.39833">
        <ele>171.69</ele>
        <time>2026-08-13T11:50:37.791Z</time>
      </trkpt>
      <trkpt lat="48.64292" lon="6.39773">
        <ele>172.01</ele>
        <time>2026-08-13T11:50:43.801Z</time>
      </trkpt>
      <trkpt lat="48.64287" lon="6.39715">
        <ele>171.91</ele>
        <time>2026-08-13T11:50:49.800Z</time>
      </trkpt>
      <trkpt lat="48.64274" lon="6.39661">
        <ele>171.47</ele>
        <time>2026-08-13T11:50:55.777Z</time>
      </trkpt>
      <trkpt lat="48.64253" lon="6.39611">
        <ele>171.69</ele>
        <time>2026-08-13T11:51:01.805Z</time>
      </trkpt>
      <trkpt lat="48.64226" lon="6.3957">
        <ele>171.62</ele>
        <time>2026-08-13T11:51:07.802Z</time>
      </trkpt>
      <trkpt lat="48.64193" lon="6.39538">
        <ele>173.1</ele>
        <time>2026-08-13T11:51:13.801Z</time>
      </trkpt>
      <trkpt lat="48.64158" lon="6.39516">
        <ele>174.49</ele>
        <time>2026-08-13T11:51:19.803Z</time>
      </trkpt>
      <trkpt lat="48.64122" lon="6.39497">
        <ele>174.39</ele>
        <time>2026-08-13T11:51:25.811Z</time>
      </trkpt>
      <trkpt lat="48.64095" lon="6.39478">
        <ele>173.84</ele>
        <time>2026-08-13T11:51:31.805Z</time>
      </trkpt>
      <trkpt lat="48.64066" lon="6.39465">
        <ele>173.27</ele>
        <time>2026-08-13T11:51:37.802Z</time>
      </trkpt>
      <trkpt lat="48.64031" lon="6.3945">
        <ele>171.64</ele>
        <time>2026-08-13T11:51:43.802Z</time>
      </trkpt>
      <trkpt lat="48.6399" lon="6.39415">
        <ele>171.41</ele>
        <time>2026-08-13T11:51:49.802Z</time>
      </trkpt>
      <trkpt lat="48.63954" lon="6.39372">
        <ele>171.57</ele>
        <time>2026-08-13T11:51:55.805Z</time>
      </trkpt>
      <trkpt lat="48.63933" lon="6.39342">
        <ele>172.78</ele>
        <time>2026-08-13T11:52:01.808Z</time>
      </trkpt>
      <trkpt lat="48.63905" lon="6.39295">
        <ele>172.28</ele>
        <time>2026-08-13T11:52:07.802Z</time>
      </trkpt>
      <trkpt lat="48.63879" lon="6.39249">
        <ele>170.88</ele>
        <time>2026-08-13T11:52:13.802Z</time>
      </trkpt>
      <trkpt lat="48.63856" lon="6.39197">
        <ele>171.1</ele>
        <time>2026-08-13T11:52:19.801Z</time>
      </trkpt>
      <trkpt lat="48.63841" lon="6.39143">
        <ele>171.13</ele>
        <time>2026-08-13T11:52:25.814Z</time>
      </trkpt>
      <trkpt lat="48.6383" lon="6.39084">
        <ele>171</ele>
        <time>2026-08-13T11:52:31.807Z</time>
      </trkpt>
      <trkpt lat="48.63825" lon="6.39021">
        <ele>170.66</ele>
        <time>2026-08-13T11:52:37.801Z</time>
      </trkpt>
      <trkpt lat="48.63824" lon="6.38956">
        <ele>170.34</ele>
        <time>2026-08-13T11:52:43.804Z</time>
      </trkpt>
      <trkpt lat="48.63822" lon="6.38894">
        <ele>170.73</ele>
        <time>2026-08-13T11:52:49.802Z</time>
      </trkpt>
      <trkpt lat="48.6382" lon="6.38834">
        <ele>170.35</ele>
        <time>2026-08-13T11:52:55.814Z</time>
      </trkpt>
      <trkpt lat="48.63821" lon="6.38773">
        <ele>170.01</ele>
        <time>2026-08-13T11:53:01.806Z</time>
      </trkpt>
      <trkpt lat="48.63826" lon="6.38713">
        <ele>169.09</ele>
        <time>2026-08-13T11:53:07.805Z</time>
      </trkpt>
      <trkpt lat="48.6383" lon="6.38653">
        <ele>169.33</ele>
        <time>2026-08-13T11:53:13.802Z</time>
      </trkpt>
      <trkpt lat="48.63832" lon="6.38591">
        <ele>170.19</ele>
        <time>2026-08-13T11:53:19.800Z</time>
      </trkpt>
      <trkpt lat="48.63824" lon="6.3853">
        <ele>169.36</ele>
        <time>2026-08-13T11:53:25.813Z</time>
      </trkpt>
      <trkpt lat="48.63815" lon="6.38471">
        <ele>168.36</ele>
        <time>2026-08-13T11:53:31.809Z</time>
      </trkpt>
      <trkpt lat="48.63805" lon="6.38414">
        <ele>168.2</ele>
        <time>2026-08-13T11:53:37.802Z</time>
      </trkpt>
      <trkpt lat="48.63796" lon="6.38356">
        <ele>168.25</ele>
        <time>2026-08-13T11:53:43.800Z</time>
      </trkpt>
      <trkpt lat="48.63788" lon="6.38298">
        <ele>169.44</ele>
        <time>2026-08-13T11:53:49.805Z</time>
      </trkpt>
      <trkpt lat="48.63779" lon="6.38241">
        <ele>168.47</ele>
        <time>2026-08-13T11:53:55.814Z</time>
      </trkpt>
      <trkpt lat="48.6377" lon="6.38182">
        <ele>170.12</ele>
        <time>2026-08-13T11:54:01.809Z</time>
      </trkpt>
      <trkpt lat="48.6376" lon="6.3812">
        <ele>170.35</ele>
        <time>2026-08-13T11:54:07.800Z</time>
      </trkpt>
      <trkpt lat="48.63747" lon="6.38062">
        <ele>171.51</ele>
        <time>2026-08-13T11:54:13.802Z</time>
      </trkpt>
      <trkpt lat="48.63733" lon="6.38004">
        <ele>171.23</ele>
        <time>2026-08-13T11:54:19.803Z</time>
      </trkpt>
      <trkpt lat="48.63718" lon="6.37947">
        <ele>171.62</ele>
        <time>2026-08-13T11:54:25.816Z</time>
      </trkpt>
      <trkpt lat="48.63704" lon="6.3789">
        <ele>172.74</ele>
        <time>2026-08-13T11:54:31.809Z</time>
      </trkpt>
      <trkpt lat="48.63688" lon="6.37834">
        <ele>172.71</ele>
        <time>2026-08-13T11:54:37.805Z</time>
      </trkpt>
      <trkpt lat="48.63672" lon="6.37778">
        <ele>173.88</ele>
        <time>2026-08-13T11:54:43.801Z</time>
      </trkpt>
      <trkpt lat="48.63657" lon="6.37725">
        <ele>171.87</ele>
        <time>2026-08-13T11:54:49.804Z</time>
      </trkpt>
      <trkpt lat="48.63649" lon="6.37678">
        <ele>170.78</ele>
        <time>2026-08-13T11:54:55.813Z</time>
      </trkpt>
      <trkpt lat="48.63633" lon="6.37634">
        <ele>170.2</ele>
        <time>2026-08-13T11:55:01.807Z</time>
      </trkpt>
      <trkpt lat="48.63619" lon="6.37583">
        <ele>167.54</ele>
        <time>2026-08-13T11:55:07.801Z</time>
      </trkpt>
      <trkpt lat="48.63605" lon="6.37528">
        <ele>166.33</ele>
        <time>2026-08-13T11:55:13.803Z</time>
      </trkpt>
      <trkpt lat="48.6359" lon="6.3747">
        <ele>166.76</ele>
        <time>2026-08-13T11:55:19.804Z</time>
      </trkpt>
      <trkpt lat="48.63573" lon="6.3741">
        <ele>166.77</ele>
        <time>2026-08-13T11:55:25.806Z</time>
      </trkpt>
      <trkpt lat="48.63554" lon="6.37355">
        <ele>166.57</ele>
        <time>2026-08-13T11:55:31.813Z</time>
      </trkpt>
      <trkpt lat="48.63535" lon="6.37301">
        <ele>165.98</ele>
        <time>2026-08-13T11:55:37.807Z</time>
      </trkpt>
      <trkpt lat="48.63513" lon="6.37249">
        <ele>165.83</ele>
        <time>2026-08-13T11:55:43.813Z</time>
      </trkpt>
      <trkpt lat="48.63491" lon="6.37199">
        <ele>166.5</ele>
        <time>2026-08-13T11:55:49.802Z</time>
      </trkpt>
      <trkpt lat="48.63468" lon="6.3715">
        <ele>167.66</ele>
        <time>2026-08-13T11:55:55.809Z</time>
      </trkpt>
      <trkpt lat="48.63446" lon="6.37101">
        <ele>167.88</ele>
        <time>2026-08-13T11:56:01.815Z</time>
      </trkpt>
      <trkpt lat="48.63423" lon="6.37054">
        <ele>167.07</ele>
        <time>2026-08-13T11:56:07.806Z</time>
      </trkpt>
      <trkpt lat="48.63391" lon="6.37017">
        <ele>167.85</ele>
        <time>2026-08-13T11:56:13.804Z</time>
      </trkpt>
      <trkpt lat="48.63369" lon="6.36968">
        <ele>167</ele>
        <time>2026-08-13T11:56:19.802Z</time>
      </trkpt>
      <trkpt lat="48.63358" lon="6.36913">
        <ele>166.98</ele>
        <time>2026-08-13T11:56:25.815Z</time>
      </trkpt>
      <trkpt lat="48.63335" lon="6.36863">
        <ele>168.59</ele>
        <time>2026-08-13T11:56:31.812Z</time>
      </trkpt>
      <trkpt lat="48.63312" lon="6.36814">
        <ele>169.36</ele>
        <time>2026-08-13T11:56:37.802Z</time>
      </trkpt>
      <trkpt lat="48.63291" lon="6.36761">
        <ele>169.73</ele>
        <time>2026-08-13T11:56:43.802Z</time>
      </trkpt>
      <trkpt lat="48.6327" lon="6.36703">
        <ele>169.12</ele>
        <time>2026-08-13T11:56:49.802Z</time>
      </trkpt>
      <trkpt lat="48.63251" lon="6.36647">
        <ele>169.07</ele>
        <time>2026-08-13T11:56:55.808Z</time>
      </trkpt>
      <trkpt lat="48.63234" lon="6.36592">
        <ele>168.52</ele>
        <time>2026-08-13T11:57:01.815Z</time>
      </trkpt>
      <trkpt lat="48.63219" lon="6.36537">
        <ele>167.65</ele>
        <time>2026-08-13T11:57:07.799Z</time>
      </trkpt>
      <trkpt lat="48.63203" lon="6.3648">
        <ele>166.7</ele>
        <time>2026-08-13T11:57:13.802Z</time>
      </trkpt>
      <trkpt lat="48.63186" lon="6.36421">
        <ele>166.27</ele>
        <time>2026-08-13T11:57:19.802Z</time>
      </trkpt>
      <trkpt lat="48.63168" lon="6.36364">
        <ele>165.26</ele>
        <time>2026-08-13T11:57:25.811Z</time>
      </trkpt>
      <trkpt lat="48.63152" lon="6.36308">
        <ele>164.99</ele>
        <time>2026-08-13T11:57:31.813Z</time>
      </trkpt>
      <trkpt lat="48.63136" lon="6.36253">
        <ele>165.82</ele>
        <time>2026-08-13T11:57:37.789Z</time>
      </trkpt>
      <trkpt lat="48.63121" lon="6.362">
        <ele>167.17</ele>
        <time>2026-08-13T11:57:43.800Z</time>
      </trkpt>
      <trkpt lat="48.63104" lon="6.36143">
        <ele>167.46</ele>
        <time>2026-08-13T11:57:49.805Z</time>
      </trkpt>
      <trkpt lat="48.63088" lon="6.36088">
        <ele>166.62</ele>
        <time>2026-08-13T11:57:55.811Z</time>
      </trkpt>
      <trkpt lat="48.63072" lon="6.36032">
        <ele>165.25</ele>
        <time>2026-08-13T11:58:01.811Z</time>
      </trkpt>
      <trkpt lat="48.63055" lon="6.35976">
        <ele>165.17</ele>
        <time>2026-08-13T11:58:07.805Z</time>
      </trkpt>
      <trkpt lat="48.6304" lon="6.35917">
        <ele>165.8</ele>
        <time>2026-08-13T11:58:13.801Z</time>
      </trkpt>
      <trkpt lat="48.63029" lon="6.35857">
        <ele>165.87</ele>
        <time>2026-08-13T11:58:19.791Z</time>
      </trkpt>
      <trkpt lat="48.63024" lon="6.35797">
        <ele>165.21</ele>
        <time>2026-08-13T11:58:25.813Z</time>
      </trkpt>
      <trkpt lat="48.63022" lon="6.35739">
        <ele>165.2</ele>
        <time>2026-08-13T11:58:31.812Z</time>
      </trkpt>
      <trkpt lat="48.63023" lon="6.35681">
        <ele>165.35</ele>
        <time>2026-08-13T11:58:37.804Z</time>
      </trkpt>
      <trkpt lat="48.63023" lon="6.35636">
        <ele>165.06</ele>
        <time>2026-08-13T11:58:43.805Z</time>
      </trkpt>
      <trkpt lat="48.63023" lon="6.35597">
        <ele>165.42</ele>
        <time>2026-08-13T11:58:49.805Z</time>
      </trkpt>
      <trkpt lat="48.63023" lon="6.35561">
        <ele>166.02</ele>
        <time>2026-08-13T11:58:55.816Z</time>
      </trkpt>
      <trkpt lat="48.63021" lon="6.35524">
        <ele>165.6</ele>
        <time>2026-08-13T11:59:01.818Z</time>
      </trkpt>
      <trkpt lat="48.63019" lon="6.35485">
        <ele>166.18</ele>
        <time>2026-08-13T11:59:07.800Z</time>
      </trkpt>
      <trkpt lat="48.6302" lon="6.3545">
        <ele>166.62</ele>
        <time>2026-08-13T11:59:13.802Z</time>
      </trkpt>
      <trkpt lat="48.63024" lon="6.35419">
        <ele>165.51</ele>
        <time>2026-08-13T11:59:19.802Z</time>
      </trkpt>
      <trkpt lat="48.63015" lon="6.35387">
        <ele>164.64</ele>
        <time>2026-08-13T11:59:25.815Z</time>
      </trkpt>
      <trkpt lat="48.63008" lon="6.35337">
        <ele>162.98</ele>
        <time>2026-08-13T11:59:31.813Z</time>
      </trkpt>
      <trkpt lat="48.63005" lon="6.35287">
        <ele>163.1</ele>
        <time>2026-08-13T11:59:37.748Z</time>
      </trkpt>
      <trkpt lat="48.63004" lon="6.3526">
        <ele>163.06</ele>
        <time>2026-08-13T11:59:42.748Z</time>
      </trkpt>
      <trkpt lat="48.63006" lon="6.35245">
        <ele>209.48</ele>
        <time>2026-08-13T12:05:20.739Z</time>
      </trkpt>
      <trkpt lat="48.63004" lon="6.35217">
        <ele>209.33</ele>
        <time>2026-08-13T12:05:25.801Z</time>
      </trkpt>
      <trkpt lat="48.63001" lon="6.35185">
        <ele>209.28</ele>
        <time>2026-08-13T12:05:31.804Z</time>
      </trkpt>
      <trkpt lat="48.63" lon="6.35142">
        <ele>209.28</ele>
        <time>2026-08-13T12:05:37.790Z</time>
      </trkpt>
      <trkpt lat="48.62998" lon="6.35093">
        <ele>209.28</ele>
        <time>2026-08-13T12:05:43.803Z</time>
      </trkpt>
      <trkpt lat="48.62995" lon="6.35045">
        <ele>209.28</ele>
        <time>2026-08-13T12:05:49.799Z</time>
      </trkpt>
      <trkpt lat="48.6299" lon="6.34996">
        <ele>209.28</ele>
        <time>2026-08-13T12:05:55.811Z</time>
      </trkpt>
      <trkpt lat="48.62983" lon="6.34946">
        <ele>209.28</ele>
        <time>2026-08-13T12:06:01.808Z</time>
      </trkpt>
      <trkpt lat="48.62972" lon="6.34895">
        <ele>209.29</ele>
        <time>2026-08-13T12:06:07.793Z</time>
      </trkpt>
      <trkpt lat="48.6296" lon="6.34848">
        <ele>209.29</ele>
        <time>2026-08-13T12:06:13.803Z</time>
      </trkpt>
      <trkpt lat="48.62949" lon="6.34806">
        <ele>209.29</ele>
        <time>2026-08-13T12:06:19.803Z</time>
      </trkpt>
      <trkpt lat="48.62936" lon="6.34763">
        <ele>209.29</ele>
        <time>2026-08-13T12:06:25.813Z</time>
      </trkpt>
      <trkpt lat="48.62921" lon="6.34732">
        <ele>209.29</ele>
        <time>2026-08-13T12:06:31.816Z</time>
      </trkpt>
      <trkpt lat="48.6291" lon="6.34718">
        <ele>209.29</ele>
        <time>2026-08-13T12:06:37.802Z</time>
      </trkpt>
      <trkpt lat="48.629" lon="6.3471">
        <ele>212.18</ele>
        <time>2026-08-13T12:07:53.739Z</time>
      </trkpt>
      <trkpt lat="48.62879" lon="6.34724">
        <ele>211.81</ele>
        <time>2026-08-13T12:07:58.740Z</time>
      </trkpt>
      <trkpt lat="48.62856" lon="6.34735">
        <ele>211.69</ele>
        <time>2026-08-13T12:08:03.752Z</time>
      </trkpt>
      <trkpt lat="48.62817" lon="6.34741">
        <ele>211.69</ele>
        <time>2026-08-13T12:08:09.732Z</time>
      </trkpt>
      <trkpt lat="48.62784" lon="6.34734">
        <ele>211.68</ele>
        <time>2026-08-13T12:08:14.749Z</time>
      </trkpt>
      <trkpt lat="48.62753" lon="6.34731">
        <ele>211.68</ele>
        <time>2026-08-13T12:08:19.803Z</time>
      </trkpt>
      <trkpt lat="48.62724" lon="6.34729">
        <ele>211.68</ele>
        <time>2026-08-13T12:08:25.814Z</time>
      </trkpt>
      <trkpt lat="48.62699" lon="6.34738">
        <ele>211.68</ele>
        <time>2026-08-13T12:08:31.808Z</time>
      </trkpt>
      <trkpt lat="48.62675" lon="6.34761">
        <ele>211.68</ele>
        <time>2026-08-13T12:08:37.801Z</time>
      </trkpt>
      <trkpt lat="48.62651" lon="6.34786">
        <ele>211.68</ele>
        <time>2026-08-13T12:08:43.800Z</time>
      </trkpt>
      <trkpt lat="48.6263" lon="6.34808">
        <ele>210.71</ele>
        <time>2026-08-13T12:08:49.802Z</time>
      </trkpt>
      <trkpt lat="48.62618" lon="6.34819">
        <ele>210.38</ele>
        <time>2026-08-13T12:08:55.808Z</time>
      </trkpt>
      <trkpt lat="48.62608" lon="6.34836">
        <ele>210.38</ele>
        <time>2026-08-13T12:09:01.806Z</time>
      </trkpt>
      <trkpt lat="48.62592" lon="6.34851">
        <ele>210.38</ele>
        <time>2026-08-13T12:09:07.781Z</time>
      </trkpt>
      <trkpt lat="48.62573" lon="6.34864">
        <ele>213.77</ele>
        <time>2026-08-13T12:09:13.807Z</time>
      </trkpt>
      <trkpt lat="48.6255" lon="6.34871">
        <ele>213.78</ele>
        <time>2026-08-13T12:09:19.803Z</time>
      </trkpt>
      <trkpt lat="48.62527" lon="6.3489">
        <ele>214.9</ele>
        <time>2026-08-13T12:09:25.806Z</time>
      </trkpt>
      <trkpt lat="48.62498" lon="6.349">
        <ele>214.98</ele>
        <time>2026-08-13T12:09:31.809Z</time>
      </trkpt>
      <trkpt lat="48.6247" lon="6.34913">
        <ele>214.98</ele>
        <time>2026-08-13T12:09:37.805Z</time>
      </trkpt>
      <trkpt lat="48.62444" lon="6.34926">
        <ele>214.98</ele>
        <time>2026-08-13T12:09:43.803Z</time>
      </trkpt>
      <trkpt lat="48.62415" lon="6.34938">
        <ele>214.98</ele>
        <time>2026-08-13T12:09:49.801Z</time>
      </trkpt>
      <trkpt lat="48.62386" lon="6.34949">
        <ele>214.97</ele>
        <time>2026-08-13T12:09:55.813Z</time>
      </trkpt>
      <trkpt lat="48.62358" lon="6.34953">
        <ele>214.97</ele>
        <time>2026-08-13T12:10:01.806Z</time>
      </trkpt>
      <trkpt lat="48.62329" lon="6.34957">
        <ele>214.97</ele>
        <time>2026-08-13T12:10:07.798Z</time>
      </trkpt>
      <trkpt lat="48.62302" lon="6.34963">
        <ele>214.97</ele>
        <time>2026-08-13T12:10:13.801Z</time>
      </trkpt>
      <trkpt lat="48.62279" lon="6.34971">
        <ele>214.97</ele>
        <time>2026-08-13T12:10:19.805Z</time>
      </trkpt>
      <trkpt lat="48.62263" lon="6.34973">
        <ele>214.97</ele>
        <time>2026-08-13T12:10:25.808Z</time>
      </trkpt>
      <trkpt lat="48.62252" lon="6.34968">
        <ele>219.27</ele>
        <time>2026-08-13T12:10:49.797Z</time>
      </trkpt>
      <trkpt lat="48.62229" lon="6.34975">
        <ele>219.27</ele>
        <time>2026-08-13T12:10:55.801Z</time>
      </trkpt>
      <trkpt lat="48.62204" lon="6.34989">
        <ele>219.2</ele>
        <time>2026-08-13T12:11:01.808Z</time>
      </trkpt>
      <trkpt lat="48.62178" lon="6.35003">
        <ele>219.17</ele>
        <time>2026-08-13T12:11:07.804Z</time>
      </trkpt>
      <trkpt lat="48.62158" lon="6.35013">
        <ele>219.17</ele>
        <time>2026-08-13T12:11:13.803Z</time>
      </trkpt>
      <trkpt lat="48.62148" lon="6.35018">
        <ele>217.97</ele>
        <time>2026-08-13T12:11:44.737Z</time>
      </trkpt>
      <trkpt lat="48.62139" lon="6.35024">
        <ele>217.67</ele>
        <time>2026-08-13T12:11:51.729Z</time>
      </trkpt>
      <trkpt lat="48.62118" lon="6.35028">
        <ele>217.27</ele>
        <time>2026-08-13T12:11:56.740Z</time>
      </trkpt>
      <trkpt lat="48.62088" lon="6.35047">
        <ele>217.27</ele>
        <time>2026-08-13T12:12:01.809Z</time>
      </trkpt>
      <trkpt lat="48.62048" lon="6.35067">
        <ele>217.27</ele>
        <time>2026-08-13T12:12:07.801Z</time>
      </trkpt>
      <trkpt lat="48.62004" lon="6.35089">
        <ele>217.27</ele>
        <time>2026-08-13T12:12:13.800Z</time>
      </trkpt>
      <trkpt lat="48.61961" lon="6.35108">
        <ele>217.27</ele>
        <time>2026-08-13T12:12:19.805Z</time>
      </trkpt>
      <trkpt lat="48.61922" lon="6.35127">
        <ele>217.26</ele>
        <time>2026-08-13T12:12:25.812Z</time>
      </trkpt>
      <trkpt lat="48.61888" lon="6.35145">
        <ele>217.26</ele>
        <time>2026-08-13T12:12:31.809Z</time>
      </trkpt>
      <trkpt lat="48.61861" lon="6.35158">
        <ele>217.26</ele>
        <time>2026-08-13T12:12:37.799Z</time>
      </trkpt>
      <trkpt lat="48.61843" lon="6.35165">
        <ele>217.26</ele>
        <time>2026-08-13T12:12:43.801Z</time>
      </trkpt>
      <trkpt lat="48.61833" lon="6.35167">
        <ele>213.76</ele>
        <time>2026-08-13T12:13:05.738Z</time>
      </trkpt>
      <trkpt lat="48.61809" lon="6.35177">
        <ele>214.26</ele>
        <time>2026-08-13T12:13:10.747Z</time>
      </trkpt>
      <trkpt lat="48.61783" lon="6.35191">
        <ele>214.92</ele>
        <time>2026-08-13T12:13:16.749Z</time>
      </trkpt>
      <trkpt lat="48.61751" lon="6.35201">
        <ele>214.96</ele>
        <time>2026-08-13T12:13:22.747Z</time>
      </trkpt>
      <trkpt lat="48.61738" lon="6.35211">
        <ele>216.01</ele>
        <time>2026-08-13T12:13:27.748Z</time>
      </trkpt>
      <trkpt lat="48.6172" lon="6.35218">
        <ele>216.36</ele>
        <time>2026-08-13T12:13:33.731Z</time>
      </trkpt>
      <trkpt lat="48.61703" lon="6.35229">
        <ele>216.36</ele>
        <time>2026-08-13T12:13:38.752Z</time>
      </trkpt>
      <trkpt lat="48.61686" lon="6.35235">
        <ele>216.36</ele>
        <time>2026-08-13T12:13:43.783Z</time>
      </trkpt>
      <trkpt lat="48.6167" lon="6.35243">
        <ele>218.95</ele>
        <time>2026-08-13T12:13:49.804Z</time>
      </trkpt>
      <trkpt lat="48.61653" lon="6.35248">
        <ele>218.96</ele>
        <time>2026-08-13T12:13:55.813Z</time>
      </trkpt>
      <trkpt lat="48.61635" lon="6.35254">
        <ele>218.96</ele>
        <time>2026-08-13T12:14:01.806Z</time>
      </trkpt>
      <trkpt lat="48.61617" lon="6.35259">
        <ele>222.71</ele>
        <time>2026-08-13T12:14:07.802Z</time>
      </trkpt>
      <trkpt lat="48.616" lon="6.3526">
        <ele>223.96</ele>
        <time>2026-08-13T12:14:13.804Z</time>
      </trkpt>
      <trkpt lat="48.61579" lon="6.35264">
        <ele>223.96</ele>
        <time>2026-08-13T12:14:19.807Z</time>
      </trkpt>
      <trkpt lat="48.61554" lon="6.35268">
        <ele>223.96</ele>
        <time>2026-08-13T12:14:25.795Z</time>
      </trkpt>
      <trkpt lat="48.61529" lon="6.35271">
        <ele>225.85</ele>
        <time>2026-08-13T12:14:31.809Z</time>
      </trkpt>
      <trkpt lat="48.615" lon="6.35276">
        <ele>225.86</ele>
        <time>2026-08-13T12:14:37.803Z</time>
      </trkpt>
      <trkpt lat="48.61468" lon="6.35281">
        <ele>225.85</ele>
        <time>2026-08-13T12:14:43.802Z</time>
      </trkpt>
      <trkpt lat="48.61436" lon="6.35287">
        <ele>225.85</ele>
        <time>2026-08-13T12:14:49.802Z</time>
      </trkpt>
      <trkpt lat="48.61402" lon="6.35293">
        <ele>225.85</ele>
        <time>2026-08-13T12:14:55.818Z</time>
      </trkpt>
      <trkpt lat="48.61367" lon="6.35299">
        <ele>225.85</ele>
        <time>2026-08-13T12:15:01.800Z</time>
      </trkpt>
      <trkpt lat="48.61331" lon="6.35305">
        <ele>225.85</ele>
        <time>2026-08-13T12:15:07.802Z</time>
      </trkpt>
      <trkpt lat="48.61295" lon="6.35312">
        <ele>225.85</ele>
        <time>2026-08-13T12:15:13.802Z</time>
      </trkpt>
      <trkpt lat="48.61257" lon="6.35319">
        <ele>225.85</ele>
        <time>2026-08-13T12:15:19.804Z</time>
      </trkpt>
      <trkpt lat="48.61222" lon="6.35331">
        <ele>225.85</ele>
        <time>2026-08-13T12:15:25.814Z</time>
      </trkpt>
      <trkpt lat="48.61217" lon="6.35343">
        <ele>225.85</ele>
        <time>2026-08-13T12:15:31.810Z</time>
      </trkpt>
      <trkpt lat="48.61225" lon="6.35356">
        <ele>225.25</ele>
        <time>2026-08-13T12:15:46.743Z</time>
      </trkpt>
      <trkpt lat="48.61232" lon="6.35366">
        <ele>225.35</ele>
        <time>2026-08-13T12:15:52.724Z</time>
      </trkpt>
      <trkpt lat="48.61234" lon="6.35381">
        <ele>225.54</ele>
        <time>2026-08-13T12:16:02.748Z</time>
      </trkpt>
      <trkpt lat="48.61239" lon="6.35398">
        <ele>225.65</ele>
        <time>2026-08-13T12:16:25.812Z</time>
      </trkpt>
    </trkseg>
  </trk>
</gpx>